<?xml version="1.0" encoding="utf-8"?>
<gpx version="1.1" creator="com.bodunov.GalileoPro/v6.1.1" xmlns:xsi="http://www.w3.org/2001/XMLSchema-instance" xmlns="http://www.topografix.com/GPX/1/1" xmlns:gom="https://gurumaps.app/gpx/v3" xsi:schemaLocation="http://www.topografix.com/GPX/1/1 http://www.topografix.com/GPX/1/1/gpx.xsd https://gurumaps.app/gpx/v3 https://gurumaps.app/gpx/v3/schema.xsd">
 <trk>
  <name>Санта</name>
  <type>TrackStyle_E53935C8</type>
  <extensions>
   <gom:time>2026-08-16T12:54:28.097Z</gom:time>
   <line xmlns="http://www.topografix.com/GPX/gpx_style/0/2">
    <color>E53935</color>
   </line>
  </extensions>
  <trkseg>
   <trkpt lat="59.3251649917" lon="34.6779516652"><ele>181.872</ele><time>2026-08-16T12:54:29.138Z</time><hdop>5.0</hdop><vdop>2.812</vdop><extensions><gom:speed>0.864</gom:speed></extensions></trkpt>
   <trkpt lat="59.3251753852" lon="34.6779235859"><ele>179.739</ele><time>2026-08-16T12:54:30.138Z</time><hdop>4.687</hdop><vdop>2.5</vdop><extensions><gom:speed>1.707</gom:speed></extensions></trkpt>
   <trkpt lat="59.3251772712" lon="34.677907325"><ele>178.025</ele><time>2026-08-16T12:54:31.138Z</time><hdop>4.5</hdop><vdop>2.5</vdop><extensions><gom:speed>1.356</gom:speed></extensions></trkpt>
   <trkpt lat="59.325184773" lon="34.6778806705"><ele>176.754</ele><time>2026-08-16T12:54:32.138Z</time><hdop>4.375</hdop><vdop>2.5</vdop><extensions><gom:speed>1.343</gom:speed></extensions></trkpt>
   <trkpt lat="59.3251908918" lon="34.6778602187"><ele>175.982</ele><time>2026-08-16T12:54:33.138Z</time><hdop>3.875</hdop><vdop>2.5</vdop><extensions><gom:speed>1.091</gom:speed></extensions></trkpt>
   <trkpt lat="59.3251915623" lon="34.6778541837"><ele>175.52</ele><time>2026-08-16T12:54:33.757Z</time><hdop>4.312</hdop><vdop>2.5</vdop><extensions><gom:speed>1.09</gom:speed></extensions></trkpt>
   <trkpt lat="59.3251911851" lon="34.6778412756"><ele>175.277</ele><time>2026-08-16T12:54:34.425Z</time><hdop>4.187</hdop><vdop>2.5</vdop><extensions><gom:speed>1.006</gom:speed></extensions></trkpt>
   <trkpt lat="59.3251908918" lon="34.6778340671"><ele>175.132</ele><time>2026-08-16T12:54:35.024Z</time><hdop>4.25</hdop><vdop>2.5</vdop><extensions><gom:speed>1.006</gom:speed></extensions></trkpt>
   <trkpt lat="59.3251909756" lon="34.6778175548"><ele>174.761</ele><time>2026-08-16T12:54:35.642Z</time><hdop>4.25</hdop><vdop>2.5</vdop><extensions><gom:speed>1.039</gom:speed></extensions></trkpt>
   <trkpt lat="59.3251903889" lon="34.6777996175"><ele>174.326</ele><time>2026-08-16T12:54:36.138Z</time><hdop>4.187</hdop><vdop>2.5</vdop><extensions><gom:speed>1.103</gom:speed></extensions></trkpt>
   <trkpt lat="59.3251905984" lon="34.6777817641"><ele>174.065</ele><time>2026-08-16T12:54:36.840Z</time><hdop>4.062</hdop><vdop>2.5</vdop><extensions><gom:speed>1.112</gom:speed></extensions></trkpt>
   <trkpt lat="59.3251902631" lon="34.6777626533"><ele>173.873</ele><time>2026-08-16T12:54:37.400Z</time><hdop>3.937</hdop><vdop>2.5</vdop><extensions><gom:speed>1.095</gom:speed></extensions></trkpt>
   <trkpt lat="59.3251911851" lon="34.6777463924"><ele>173.758</ele><time>2026-08-16T12:54:38.097Z</time><hdop>3.875</hdop><vdop>2.5</vdop><extensions><gom:speed>1.125</gom:speed></extensions></trkpt>
   <trkpt lat="59.3251905984" lon="34.6777315565"><ele>173.637</ele><time>2026-08-16T12:54:38.582Z</time><hdop>3.812</hdop><vdop>2.5</vdop><extensions><gom:speed>1.147</gom:speed></extensions></trkpt>
   <trkpt lat="59.3251890897" lon="34.6777165529"><ele>173.113</ele><time>2026-08-16T12:54:39.138Z</time><hdop>3.5</hdop><vdop>2.5</vdop><extensions><gom:speed>1.153</gom:speed></extensions></trkpt>
   <trkpt lat="59.3251877905" lon="34.6777020522"><ele>172.8</ele><time>2026-08-16T12:54:39.721Z</time><hdop>3.437</hdop><vdop>2.5</vdop><extensions><gom:speed>1.157</gom:speed></extensions></trkpt>
   <trkpt lat="59.3251817974" lon="34.6776755653"><ele>172.525</ele><time>2026-08-16T12:54:40.879Z</time><hdop>3.187</hdop><vdop>2.5</vdop><extensions><gom:speed>1.152</gom:speed></extensions></trkpt>
   <trkpt lat="59.3251781932" lon="34.6776609808"><ele>172.372</ele><time>2026-08-16T12:54:41.527Z</time><hdop>3.125</hdop><vdop>2.5</vdop><extensions><gom:speed>1.138</gom:speed></extensions></trkpt>
   <trkpt lat="59.3251748823" lon="34.6776481565"><ele>171.796</ele><time>2026-08-16T12:54:42.138Z</time><hdop>3.062</hdop><vdop>2.5</vdop><extensions><gom:speed>1.064</gom:speed></extensions></trkpt>
   <trkpt lat="59.3251673805" lon="34.6776333206"><ele>171.451</ele><time>2026-08-16T12:54:43.079Z</time><hdop>3.062</hdop><vdop>2.5</vdop><extensions><gom:speed>1.077</gom:speed></extensions></trkpt>
   <trkpt lat="59.325161597" lon="34.677628962"><ele>171.171</ele><time>2026-08-16T12:54:43.579Z</time><hdop>3.0</hdop><vdop>2.5</vdop><extensions><gom:speed>1.072</gom:speed></extensions></trkpt>
   <trkpt lat="59.3251588729" lon="34.6776188199"><ele>170.692</ele><time>2026-08-16T12:54:44.138Z</time><hdop>3.0</hdop><vdop>2.5</vdop><extensions><gom:speed>1.062</gom:speed></extensions></trkpt>
   <trkpt lat="59.3251547658" lon="34.6776047383"><ele>170.406</ele><time>2026-08-16T12:54:44.983Z</time><hdop>3.062</hdop><vdop>2.5</vdop><extensions><gom:speed>1.071</gom:speed></extensions></trkpt>
   <trkpt lat="59.3251563583" lon="34.6775909919"><ele>170.404</ele><time>2026-08-16T12:54:45.445Z</time><hdop>3.062</hdop><vdop>2.75</vdop><extensions><gom:speed>1.079</gom:speed></extensions></trkpt>
   <trkpt lat="59.3251553944" lon="34.6775787544"><ele>170.403</ele><time>2026-08-16T12:54:46.005Z</time><hdop>3.125</hdop><vdop>2.75</vdop><extensions><gom:speed>1.123</gom:speed></extensions></trkpt>
   <trkpt lat="59.325156065" lon="34.6775617391"><ele>169.954</ele><time>2026-08-16T12:54:46.563Z</time><hdop>3.187</hdop><vdop>2.812</vdop><extensions><gom:speed>1.116</gom:speed></extensions></trkpt>
   <trkpt lat="59.3251553944" lon="34.6775491662"><ele>169.686</ele><time>2026-08-16T12:54:47.104Z</time><hdop>3.25</hdop><vdop>2.812</vdop><extensions><gom:speed>1.154</gom:speed></extensions></trkpt>
   <trkpt lat="59.3251546819" lon="34.6775336597"><ele>169.223</ele><time>2026-08-16T12:54:47.742Z</time><hdop>3.312</hdop><vdop>2.75</vdop><extensions><gom:speed>1.086</gom:speed></extensions></trkpt>
   <trkpt lat="59.3251528798" lon="34.6775189914"><ele>168.818</ele><time>2026-08-16T12:54:48.380Z</time><hdop>3.312</hdop><vdop>2.562</vdop><extensions><gom:speed>1.084</gom:speed></extensions></trkpt>
   <trkpt lat="59.3251525865" lon="34.6775061671"><ele>168.577</ele><time>2026-08-16T12:54:48.999Z</time><hdop>3.375</hdop><vdop>2.562</vdop><extensions><gom:speed>1.076</gom:speed></extensions></trkpt>
   <trkpt lat="59.3251500719" lon="34.6774938457"><ele>168.533</ele><time>2026-08-16T12:54:49.647Z</time><hdop>3.437</hdop><vdop>2.625</vdop><extensions><gom:speed>1.062</gom:speed></extensions></trkpt>
   <trkpt lat="59.3251491918" lon="34.6774842903"><ele>168.506</ele><time>2026-08-16T12:54:50.138Z</time><hdop>3.437</hdop><vdop>2.625</vdop><extensions><gom:speed>1.037</gom:speed></extensions></trkpt>
   <trkpt lat="59.3251448751" lon="34.677470544"><ele>168.397</ele><time>2026-08-16T12:54:50.884Z</time><hdop>3.437</hdop><vdop>2.5</vdop><extensions><gom:speed>1.001</gom:speed></extensions></trkpt>
   <trkpt lat="59.3251398879" lon="34.6774613239"><ele>168.37</ele><time>2026-08-16T12:54:51.444Z</time><hdop>3.375</hdop><vdop>2.5</vdop><extensions><gom:speed>0.97</gom:speed></extensions></trkpt>
   <trkpt lat="59.3251369961" lon="34.6774499245"><ele>168.81</ele><time>2026-08-16T12:54:52.138Z</time><hdop>3.312</hdop><vdop>2.5</vdop><extensions><gom:speed>0.893</gom:speed></extensions></trkpt>
   <trkpt lat="59.3251355712" lon="34.6774374355"><ele>169.073</ele><time>2026-08-16T12:54:52.966Z</time><hdop>3.25</hdop><vdop>2.5</vdop><extensions><gom:speed>0.788</gom:speed></extensions></trkpt>
   <trkpt lat="59.3251362837" lon="34.6774267905"><ele>169.085</ele><time>2026-08-16T12:54:54.006Z</time><hdop>3.187</hdop><vdop>2.5</vdop><extensions><gom:speed>0.657</gom:speed></extensions></trkpt>
   <trkpt lat="59.3251373733" lon="34.6774175704"><ele>169.282</ele><time>2026-08-16T12:54:54.802Z</time><hdop>3.125</hdop><vdop>2.5</vdop><extensions><gom:speed>0.654</gom:speed></extensions></trkpt>
   <trkpt lat="59.3251381696" lon="34.6774084341"><ele>169.311</ele><time>2026-08-16T12:54:55.587Z</time><hdop>3.062</hdop><vdop>2.5</vdop><extensions><gom:speed>0.629</gom:speed></extensions></trkpt>
   <trkpt lat="59.3251385887" lon="34.6774007227"><ele>169.381</ele><time>2026-08-16T12:54:56.138Z</time><hdop>3.0</hdop><vdop>2.5</vdop><extensions><gom:speed>0.584</gom:speed></extensions></trkpt>
   <trkpt lat="59.3251406842" lon="34.6773889881"><ele>169.651</ele><time>2026-08-16T12:54:57.138Z</time><hdop>3.0</hdop><vdop>2.5</vdop><extensions><gom:speed>0.493</gom:speed></extensions></trkpt>
   <trkpt lat="59.3251423606" lon="34.677379768"><ele>169.812</ele><time>2026-08-16T12:54:58.081Z</time><hdop>3.0</hdop><vdop>2.5</vdop><extensions><gom:speed>0.435</gom:speed></extensions></trkpt>
   <trkpt lat="59.3251475992" lon="34.6773634233"><ele>169.642</ele><time>2026-08-16T12:54:59.138Z</time><hdop>3.0</hdop><vdop>2.5</vdop><extensions><gom:speed>0.518</gom:speed></extensions></trkpt>
   <trkpt lat="59.3251515806" lon="34.6773553766"><ele>169.54</ele><time>2026-08-16T12:55:00.025Z</time><hdop>3.0</hdop><vdop>2.5</vdop><extensions><gom:speed>0.493</gom:speed></extensions></trkpt>
   <trkpt lat="59.3251578671" lon="34.6773435582"><ele>169.187</ele><time>2026-08-16T12:55:00.800Z</time><hdop>3.0</hdop><vdop>2.5</vdop><extensions><gom:speed>0.604</gom:speed></extensions></trkpt>
   <trkpt lat="59.3251624771" lon="34.677332075"><ele>168.927</ele><time>2026-08-16T12:55:01.488Z</time><hdop>3.0</hdop><vdop>2.5</vdop><extensions><gom:speed>0.681</gom:speed></extensions></trkpt>
   <trkpt lat="59.3251640697" lon="34.6773237769"><ele>169.039</ele><time>2026-08-16T12:55:02.138Z</time><hdop>3.0</hdop><vdop>2.5</vdop><extensions><gom:speed>0.626</gom:speed></extensions></trkpt>
   <trkpt lat="59.3251653689" lon="34.6773136348"><ele>168.932</ele><time>2026-08-16T12:55:03.138Z</time><hdop>3.0</hdop><vdop>2.5</vdop><extensions><gom:speed>0.586</gom:speed></extensions></trkpt>
   <trkpt lat="59.3251652851" lon="34.6773045823"><ele>168.57</ele><time>2026-08-16T12:55:04.138Z</time><hdop>3.0</hdop><vdop>2.5</vdop><extensions><gom:speed>0.545</gom:speed></extensions></trkpt>
   <trkpt lat="59.3251635668" lon="34.6772957813"><ele>167.812</ele><time>2026-08-16T12:55:05.138Z</time><hdop>3.0</hdop><vdop>2.625</vdop><extensions><gom:speed>0.519</gom:speed></extensions></trkpt>
   <trkpt lat="59.3251587891" lon="34.6772854716"><ele>167.401</ele><time>2026-08-16T12:55:06.138Z</time><hdop>3.0</hdop><vdop>2.5</vdop><extensions><gom:speed>0.611</gom:speed></extensions></trkpt>
   <trkpt lat="59.3251553944" lon="34.6772782631"><ele>167.155</ele><time>2026-08-16T12:55:06.819Z</time><hdop>3.0</hdop><vdop>2.5</vdop><extensions><gom:speed>0.621</gom:speed></extensions></trkpt>
   <trkpt lat="59.3251461743" lon="34.6772676181"><ele>166.965</ele><time>2026-08-16T12:55:07.938Z</time><hdop>3.0</hdop><vdop>2.5</vdop><extensions><gom:speed>0.682</gom:speed></extensions></trkpt>
   <trkpt lat="59.325134272" lon="34.6772578951"><ele>166.841</ele><time>2026-08-16T12:55:09.138Z</time><hdop>3.0</hdop><vdop>2.5</vdop><extensions><gom:speed>0.86</gom:speed></extensions></trkpt>
   <trkpt lat="59.3251290752" lon="34.6772480883"><ele>166.766</ele><time>2026-08-16T12:55:09.862Z</time><hdop>3.0</hdop><vdop>2.5</vdop><extensions><gom:speed>0.86</gom:speed></extensions></trkpt>
   <trkpt lat="59.325124088" lon="34.6772432268"><ele>166.649</ele><time>2026-08-16T12:55:10.481Z</time><hdop>3.0</hdop><vdop>2.5</vdop><extensions><gom:speed>0.924</gom:speed></extensions></trkpt>
   <trkpt lat="59.3251179692" lon="34.6772360183"><ele>166.578</ele><time>2026-08-16T12:55:11.119Z</time><hdop>3.0</hdop><vdop>2.5</vdop><extensions><gom:speed>1.057</gom:speed></extensions></trkpt>
   <trkpt lat="59.3251135687" lon="34.6772316598"><ele>166.747</ele><time>2026-08-16T12:55:12.138Z</time><hdop>3.0</hdop><vdop>2.5</vdop><extensions><gom:speed>0.91</gom:speed></extensions></trkpt>
   <trkpt lat="59.325112982" lon="34.6772236969"><ele>166.893</ele><time>2026-08-16T12:55:13.138Z</time><hdop>3.0</hdop><vdop>2.5</vdop><extensions><gom:speed>0.799</gom:speed></extensions></trkpt>
   <trkpt lat="59.3251121857" lon="34.6772159856"><ele>166.98</ele><time>2026-08-16T12:55:13.839Z</time><hdop>3.0</hdop><vdop>2.5</vdop><extensions><gom:speed>0.796</gom:speed></extensions></trkpt>
   <trkpt lat="59.325112982" lon="34.6772065979"><ele>166.637</ele><time>2026-08-16T12:55:14.937Z</time><hdop>3.0</hdop><vdop>2.5</vdop><extensions><gom:speed>0.782</gom:speed></extensions></trkpt>
   <trkpt lat="59.3251160833" lon="34.6772087772"><ele>166.456</ele><time>2026-08-16T12:55:15.586Z</time><hdop>3.0</hdop><vdop>2.5</vdop><extensions><gom:speed>0.649</gom:speed></extensions></trkpt>
   <trkpt lat="59.3251187655" lon="34.6772115432"><ele>166.916</ele><time>2026-08-16T12:55:16.138Z</time><hdop>3.0</hdop><vdop>2.5</vdop><extensions><gom:speed>0.575</gom:speed></extensions></trkpt>
   <trkpt lat="59.3251213639" lon="34.6772120461"><ele>167.037</ele><time>2026-08-16T12:55:17.138Z</time><hdop>3.0</hdop><vdop>2.5</vdop><extensions><gom:speed>0.484</gom:speed></extensions></trkpt>
   <trkpt lat="59.3251204838" lon="34.6772083581"><ele>167.239</ele><time>2026-08-16T12:55:18.138Z</time><hdop>3.0</hdop><vdop>2.5</vdop><extensions><gom:speed>0.427</gom:speed></extensions></trkpt>
   <trkpt lat="59.3251193941" lon="34.6772054244"><ele>167.359</ele><time>2026-08-16T12:55:18.620Z</time><hdop>3.0</hdop><vdop>2.5</vdop><extensions><gom:speed>0.429</gom:speed></extensions></trkpt>
   <trkpt lat="59.3251183883" lon="34.6772023231"><ele>167.303</ele><time>2026-08-16T12:55:19.138Z</time><hdop>3.0</hdop><vdop>2.5</vdop><extensions><gom:speed>0.414</gom:speed></extensions></trkpt>
   <trkpt lat="59.3251171729" lon="34.6771977969"><ele>167.269</ele><time>2026-08-16T12:55:19.847Z</time><hdop>3.0</hdop><vdop>2.5</vdop><extensions><gom:speed>0.418</gom:speed></extensions></trkpt>
   <trkpt lat="59.3251149936" lon="34.6771945279"><ele>167.782</ele><time>2026-08-16T12:55:20.426Z</time><hdop>3.0</hdop><vdop>2.5</vdop><extensions><gom:speed>0.435</gom:speed></extensions></trkpt>
   <trkpt lat="59.3251131915" lon="34.677190337"><ele>167.683</ele><time>2026-08-16T12:55:21.138Z</time><hdop>3.0</hdop><vdop>2.5</vdop><extensions><gom:speed>0.384</gom:speed></extensions></trkpt>
   <trkpt lat="59.3251122695" lon="34.6771874871"><ele>167.623</ele><time>2026-08-16T12:55:21.604Z</time><hdop>3.0</hdop><vdop>2.5</vdop><extensions><gom:speed>0.385</gom:speed></extensions></trkpt>
   <trkpt lat="59.3251097969" lon="34.6771806978"><ele>167.152</ele><time>2026-08-16T12:55:22.138Z</time><hdop>3.0</hdop><vdop>2.5</vdop><extensions><gom:speed>0.552</gom:speed></extensions></trkpt>
   <trkpt lat="59.325103259" lon="34.6771645207"><ele>166.87</ele><time>2026-08-16T12:55:23.146Z</time><hdop>3.0</hdop><vdop>2.5</vdop><extensions><gom:speed>0.862</gom:speed></extensions></trkpt>
   <trkpt lat="59.3250997805" lon="34.6771530375"><ele>166.583</ele><time>2026-08-16T12:55:23.823Z</time><hdop>3.0</hdop><vdop>2.5</vdop><extensions><gom:speed>0.869</gom:speed></extensions></trkpt>
   <trkpt lat="59.3250983975" lon="34.6771396265"><ele>166.352</ele><time>2026-08-16T12:55:24.540Z</time><hdop>3.0</hdop><vdop>2.5</vdop><extensions><gom:speed>0.912</gom:speed></extensions></trkpt>
   <trkpt lat="59.3250971821" lon="34.6771288976"><ele>166.214</ele><time>2026-08-16T12:55:25.080Z</time><hdop>3.0</hdop><vdop>2.5</vdop><extensions><gom:speed>0.986</gom:speed></extensions></trkpt>
   <trkpt lat="59.3250964696" lon="34.6771155704"><ele>166.094</ele><time>2026-08-16T12:55:25.865Z</time><hdop>3.0</hdop><vdop>2.5</vdop><extensions><gom:speed>0.953</gom:speed></extensions></trkpt>
   <trkpt lat="59.3250952962" lon="34.6771074399"><ele>165.979</ele><time>2026-08-16T12:55:26.405Z</time><hdop>3.0</hdop><vdop>2.5</vdop><extensions><gom:speed>0.953</gom:speed></extensions></trkpt>
   <trkpt lat="59.3250926978" lon="34.6770977169"><ele>166.163</ele><time>2026-08-16T12:55:27.137Z</time><hdop>3.0</hdop><vdop>2.5</vdop><extensions><gom:speed>0.926</gom:speed></extensions></trkpt>
   <trkpt lat="59.3250904766" lon="34.6770878263"><ele>166.272</ele><time>2026-08-16T12:55:27.760Z</time><hdop>3.0</hdop><vdop>2.5</vdop><extensions><gom:speed>0.921</gom:speed></extensions></trkpt>
   <trkpt lat="59.3250916919" lon="34.6770765945"><ele>166.248</ele><time>2026-08-16T12:55:28.585Z</time><hdop>3.0</hdop><vdop>2.5</vdop><extensions><gom:speed>0.884</gom:speed></extensions></trkpt>
   <trkpt lat="59.3250923625" lon="34.6770677935"><ele>166.234</ele><time>2026-08-16T12:55:29.105Z</time><hdop>3.0</hdop><vdop>2.5</vdop><extensions><gom:speed>0.889</gom:speed></extensions></trkpt>
   <trkpt lat="59.325092572" lon="34.6770588249"><ele>166.2</ele><time>2026-08-16T12:55:29.822Z</time><hdop>3.0</hdop><vdop>2.5</vdop><extensions><gom:speed>0.866</gom:speed></extensions></trkpt>
   <trkpt lat="59.3250927816" lon="34.6770533767"><ele>166.042</ele><time>2026-08-16T12:55:30.342Z</time><hdop>3.0</hdop><vdop>2.5</vdop><extensions><gom:speed>0.901</gom:speed></extensions></trkpt>
   <trkpt lat="59.3250928654" lon="34.6770427317"><ele>165.742</ele><time>2026-08-16T12:55:31.138Z</time><hdop>3.0</hdop><vdop>2.5</vdop><extensions><gom:speed>0.952</gom:speed></extensions></trkpt>
   <trkpt lat="59.325091189" lon="34.6770273928"><ele>165.436</ele><time>2026-08-16T12:55:32.138Z</time><hdop>3.0</hdop><vdop>2.5</vdop><extensions><gom:speed>0.973</gom:speed></extensions></trkpt>
   <trkpt lat="59.3250899737" lon="34.6770151552"><ele>165.254</ele><time>2026-08-16T12:55:32.807Z</time><hdop>3.0</hdop><vdop>2.5</vdop><extensions><gom:speed>0.972</gom:speed></extensions></trkpt>
   <trkpt lat="59.3250874591" lon="34.6770047616"><ele>165.098</ele><time>2026-08-16T12:55:33.483Z</time><hdop>3.0</hdop><vdop>2.5</vdop><extensions><gom:speed>0.997</gom:speed></extensions></trkpt>
   <trkpt lat="59.3250864952" lon="34.6769946195"><ele>165.005</ele><time>2026-08-16T12:55:33.945Z</time><hdop>3.0</hdop><vdop>2.5</vdop><extensions><gom:speed>1.061</gom:speed></extensions></trkpt>
   <trkpt lat="59.3250827652" lon="34.6769857347"><ele>164.658</ele><time>2026-08-16T12:55:34.603Z</time><hdop>3.0</hdop><vdop>2.5</vdop><extensions><gom:speed>1.017</gom:speed></extensions></trkpt>
   <trkpt lat="59.3250802926" lon="34.6769783586"><ele>164.472</ele><time>2026-08-16T12:55:35.138Z</time><hdop>3.0</hdop><vdop>2.5</vdop><extensions><gom:speed>1.008</gom:speed></extensions></trkpt>
   <trkpt lat="59.3250788676" lon="34.676966624"><ele>164.361</ele><time>2026-08-16T12:55:35.801Z</time><hdop>3.0</hdop><vdop>2.5</vdop><extensions><gom:speed>1.005</gom:speed></extensions></trkpt>
   <trkpt lat="59.3250745929" lon="34.6769477647"><ele>163.932</ele><time>2026-08-16T12:55:36.940Z</time><hdop>3.0</hdop><vdop>2.5</vdop><extensions><gom:speed>1.057</gom:speed></extensions></trkpt>
   <trkpt lat="59.3250678873" lon="34.6769308332"><ele>163.503</ele><time>2026-08-16T12:55:37.961Z</time><hdop>3.0</hdop><vdop>2.5</vdop><extensions><gom:speed>1.124</gom:speed></extensions></trkpt>
   <trkpt lat="59.3250635707" lon="34.6769219484"><ele>163.319</ele><time>2026-08-16T12:55:38.520Z</time><hdop>3.0</hdop><vdop>2.5</vdop><extensions><gom:speed>1.107</gom:speed></extensions></trkpt>
   <trkpt lat="59.3250598826" lon="34.6769104652"><ele>163.343</ele><time>2026-08-16T12:55:39.138Z</time><hdop>3.0</hdop><vdop>2.5</vdop><extensions><gom:speed>1.122</gom:speed></extensions></trkpt>
   <trkpt lat="59.325055063" lon="34.6768917736"><ele>163.617</ele><time>2026-08-16T12:55:40.138Z</time><hdop>3.0</hdop><vdop>2.5</vdop><extensions><gom:speed>1.098</gom:speed></extensions></trkpt>
   <trkpt lat="59.3250524646" lon="34.6768807933"><ele>163.78</ele><time>2026-08-16T12:55:40.700Z</time><hdop>3.0</hdop><vdop>2.5</vdop><extensions><gom:speed>1.096</gom:speed></extensions></trkpt>
   <trkpt lat="59.32504907" lon="34.6768692263"><ele>163.728</ele><time>2026-08-16T12:55:41.387Z</time><hdop>3.0</hdop><vdop>2.5</vdop><extensions><gom:speed>1.106</gom:speed></extensions></trkpt>
   <trkpt lat="59.325046262" lon="34.6768583298"><ele>163.697</ele><time>2026-08-16T12:55:41.947Z</time><hdop>3.0</hdop><vdop>2.5</vdop><extensions><gom:speed>1.137</gom:speed></extensions></trkpt>
   <trkpt lat="59.3250410653" lon="34.6768481877"><ele>163.596</ele><time>2026-08-16T12:55:42.643Z</time><hdop>3.0</hdop><vdop>2.5</vdop><extensions><gom:speed>1.117</gom:speed></extensions></trkpt>
   <trkpt lat="59.3250382992" lon="34.6768383809"><ele>163.231</ele><time>2026-08-16T12:55:43.138Z</time><hdop>3.0</hdop><vdop>2.5</vdop><extensions><gom:speed>1.135</gom:speed></extensions></trkpt>
   <trkpt lat="59.3250355751" lon="34.6768255565"><ele>163.013</ele><time>2026-08-16T12:55:43.783Z</time><hdop>3.0</hdop><vdop>2.5</vdop><extensions><gom:speed>1.128</gom:speed></extensions></trkpt>
   <trkpt lat="59.325029582" lon="34.6767956332"><ele>163.206</ele><time>2026-08-16T12:55:45.138Z</time><hdop>3.062</hdop><vdop>2.5</vdop><extensions><gom:speed>1.225</gom:speed></extensions></trkpt>
   <trkpt lat="59.3250248882" lon="34.6767744269"><ele>163.254</ele><time>2026-08-16T12:55:46.138Z</time><hdop>3.25</hdop><vdop>2.5</vdop><extensions><gom:speed>1.221</gom:speed></extensions></trkpt>
   <trkpt lat="59.3250200686" lon="34.6767546456"><ele>163.283</ele><time>2026-08-16T12:55:47.032Z</time><hdop>3.5</hdop><vdop>2.5</vdop><extensions><gom:speed>1.215</gom:speed></extensions></trkpt>
   <trkpt lat="59.3250185598" lon="34.6767459285"><ele>163.48</ele><time>2026-08-16T12:55:47.494Z</time><hdop>3.687</hdop><vdop>2.5</vdop><extensions><gom:speed>1.212</gom:speed></extensions></trkpt>
   <trkpt lat="59.325017093" lon="34.6767327689"><ele>163.071</ele><time>2026-08-16T12:55:48.138Z</time><hdop>3.937</hdop><vdop>2.5</vdop><extensions><gom:speed>1.214</gom:speed></extensions></trkpt>
   <trkpt lat="59.3250160872" lon="34.6767213695"><ele>162.827</ele><time>2026-08-16T12:55:48.633Z</time><hdop>4.062</hdop><vdop>2.5</vdop><extensions><gom:speed>1.216</gom:speed></extensions></trkpt>
   <trkpt lat="59.3250157938" lon="34.6767098863"><ele>163.026</ele><time>2026-08-16T12:55:49.138Z</time><hdop>4.187</hdop><vdop>2.5</vdop><extensions><gom:speed>1.223</gom:speed></extensions></trkpt>
   <trkpt lat="59.3250145784" lon="34.6766957209"><ele>163.145</ele><time>2026-08-16T12:55:49.752Z</time><hdop>4.312</hdop><vdop>2.5</vdop><extensions><gom:speed>1.233</gom:speed></extensions></trkpt>
   <trkpt lat="59.3250133631" lon="34.6766783703"><ele>163.391</ele><time>2026-08-16T12:55:50.537Z</time><hdop>4.5</hdop><vdop>2.5</vdop><extensions><gom:speed>1.224</gom:speed></extensions></trkpt>
   <trkpt lat="59.3250114771" lon="34.6766647916"><ele>163.286</ele><time>2026-08-16T12:55:51.138Z</time><hdop>4.562</hdop><vdop>2.5</vdop><extensions><gom:speed>1.232</gom:speed></extensions></trkpt>
   <trkpt lat="59.3250084596" lon="34.6766440883"><ele>163.223</ele><time>2026-08-16T12:55:52.029Z</time><hdop>4.687</hdop><vdop>2.5</vdop><extensions><gom:speed>1.198</gom:speed></extensions></trkpt>
   <trkpt lat="59.3250069928" lon="34.6766272407"><ele>163.113</ele><time>2026-08-16T12:55:52.815Z</time><hdop>4.75</hdop><vdop>2.5</vdop><extensions><gom:speed>1.191</gom:speed></extensions></trkpt>
   <trkpt lat="59.3250033886" lon="34.6766033523"><ele>163.189</ele><time>2026-08-16T12:55:53.895Z</time><hdop>4.812</hdop><vdop>2.5</vdop><extensions><gom:speed>1.209</gom:speed></extensions></trkpt>
   <trkpt lat="59.3249988624" lon="34.6765762787"><ele>162.928</ele><time>2026-08-16T12:55:55.138Z</time><hdop>4.812</hdop><vdop>2.5</vdop><extensions><gom:speed>1.241</gom:speed></extensions></trkpt>
   <trkpt lat="59.3249936656" lon="34.6765541505"><ele>162.874</ele><time>2026-08-16T12:55:56.138Z</time><hdop>4.812</hdop><vdop>2.5</vdop><extensions><gom:speed>1.25</gom:speed></extensions></trkpt>
   <trkpt lat="59.3249848646" lon="34.6765360456"><ele>162.971</ele><time>2026-08-16T12:55:57.138Z</time><hdop>4.812</hdop><vdop>2.5</vdop><extensions><gom:speed>1.265</gom:speed></extensions></trkpt>
   <trkpt lat="59.3249806736" lon="34.6765262388"><ele>163.029</ele><time>2026-08-16T12:55:57.655Z</time><hdop>4.812</hdop><vdop>2.5</vdop><extensions><gom:speed>1.274</gom:speed></extensions></trkpt>
   <trkpt lat="59.3249778657" lon="34.6765166834"><ele>163.372</ele><time>2026-08-16T12:55:58.138Z</time><hdop>4.812</hdop><vdop>2.5</vdop><extensions><gom:speed>1.229</gom:speed></extensions></trkpt>
   <trkpt lat="59.324974471" lon="34.6765027695"><ele>163.577</ele><time>2026-08-16T12:55:58.793Z</time><hdop>4.875</hdop><vdop>2.5</vdop><extensions><gom:speed>1.231</gom:speed></extensions></trkpt>
   <trkpt lat="59.3249690647" lon="34.6764785458"><ele>163.613</ele><time>2026-08-16T12:55:59.912Z</time><hdop>4.875</hdop><vdop>2.5</vdop><extensions><gom:speed>1.21</gom:speed></extensions></trkpt>
   <trkpt lat="59.3249667597" lon="34.676459435"><ele>163.697</ele><time>2026-08-16T12:56:00.630Z</time><hdop>4.875</hdop><vdop>2.5</vdop><extensions><gom:speed>1.267</gom:speed></extensions></trkpt>
   <trkpt lat="59.3249646642" lon="34.6764456887"><ele>163.698</ele><time>2026-08-16T12:56:01.138Z</time><hdop>4.937</hdop><vdop>2.5</vdop><extensions><gom:speed>1.299</gom:speed></extensions></trkpt>
   <trkpt lat="59.3249608923" lon="34.6764247339"><ele>163.698</ele><time>2026-08-16T12:56:01.994Z</time><hdop>4.937</hdop><vdop>2.5</vdop><extensions><gom:speed>1.31</gom:speed></extensions></trkpt>
   <trkpt lat="59.324955486" lon="34.676407551"><ele>163.642</ele><time>2026-08-16T12:56:02.750Z</time><hdop>5.0</hdop><vdop>2.5</vdop><extensions><gom:speed>1.3</gom:speed></extensions></trkpt>
   <trkpt lat="59.3249458887" lon="34.6763886918"><ele>163.716</ele><time>2026-08-16T12:56:03.752Z</time><hdop>5.062</hdop><vdop>2.5</vdop><extensions><gom:speed>1.312</gom:speed></extensions></trkpt>
   <trkpt lat="59.3249410691" lon="34.6763786335"><ele>163.729</ele><time>2026-08-16T12:56:04.253Z</time><hdop>5.125</hdop><vdop>2.5</vdop><extensions><gom:speed>1.368</gom:speed></extensions></trkpt>
   <trkpt lat="59.3249365848" lon="34.6763666473"><ele>163.737</ele><time>2026-08-16T12:56:04.812Z</time><hdop>5.125</hdop><vdop>2.5</vdop><extensions><gom:speed>1.371</gom:speed></extensions></trkpt>
   <trkpt lat="59.3249336931" lon="34.6763544936"><ele>163.635</ele><time>2026-08-16T12:56:05.293Z</time><hdop>5.187</hdop><vdop>2.5</vdop><extensions><gom:speed>1.396</gom:speed></extensions></trkpt>
   <trkpt lat="59.3249283706" lon="34.676334377"><ele>163.567</ele><time>2026-08-16T12:56:06.138Z</time><hdop>5.187</hdop><vdop>2.5</vdop><extensions><gom:speed>1.392</gom:speed></extensions></trkpt>
   <trkpt lat="59.3249220841" lon="34.6763109915"><ele>163.387</ele><time>2026-08-16T12:56:07.138Z</time><hdop>5.187</hdop><vdop>2.5</vdop><extensions><gom:speed>1.373</gom:speed></extensions></trkpt>
   <trkpt lat="59.3249152948" lon="34.676290372"><ele>163.133</ele><time>2026-08-16T12:56:08.138Z</time><hdop>5.187</hdop><vdop>2.5</vdop><extensions><gom:speed>1.339</gom:speed></extensions></trkpt>
   <trkpt lat="59.3249116906" lon="34.6762798946"><ele>162.98</ele><time>2026-08-16T12:56:08.651Z</time><hdop>5.187</hdop><vdop>2.5</vdop><extensions><gom:speed>1.337</gom:speed></extensions></trkpt>
   <trkpt lat="59.3249087988" lon="34.6762699202"><ele>162.954</ele><time>2026-08-16T12:56:09.138Z</time><hdop>5.187</hdop><vdop>2.5</vdop><extensions><gom:speed>1.321</gom:speed></extensions></trkpt>
   <trkpt lat="59.3249047755" lon="34.6762566768"><ele>162.939</ele><time>2026-08-16T12:56:09.750Z</time><hdop>5.25</hdop><vdop>2.5</vdop><extensions><gom:speed>1.311</gom:speed></extensions></trkpt>
   <trkpt lat="59.3248975671" lon="34.676232956"><ele>163.008</ele><time>2026-08-16T12:56:10.889Z</time><hdop>5.25</hdop><vdop>2.5</vdop><extensions><gom:speed>1.304</gom:speed></extensions></trkpt>
   <trkpt lat="59.3248889756" lon="34.6762105763"><ele>163.018</ele><time>2026-08-16T12:56:11.950Z</time><hdop>5.25</hdop><vdop>2.5</vdop><extensions><gom:speed>1.317</gom:speed></extensions></trkpt>
   <trkpt lat="59.3248841979" lon="34.6761952374"><ele>163.095</ele><time>2026-08-16T12:56:12.715Z</time><hdop>5.25</hdop><vdop>2.5</vdop><extensions><gom:speed>1.313</gom:speed></extensions></trkpt>
   <trkpt lat="59.3248757741" lon="34.676170427"><ele>163.164</ele><time>2026-08-16T12:56:13.815Z</time><hdop>5.312</hdop><vdop>2.5</vdop><extensions><gom:speed>1.385</gom:speed></extensions></trkpt>
   <trkpt lat="59.3248687752" lon="34.6761443593"><ele>163.07</ele><time>2026-08-16T12:56:14.954Z</time><hdop>5.375</hdop><vdop>2.5</vdop><extensions><gom:speed>1.418</gom:speed></extensions></trkpt>
   <trkpt lat="59.3248650872" lon="34.6761229854"><ele>162.946</ele><time>2026-08-16T12:56:15.877Z</time><hdop>5.375</hdop><vdop>2.5</vdop><extensions><gom:speed>1.409</gom:speed></extensions></trkpt>
   <trkpt lat="59.3248631594" lon="34.6761122566"><ele>162.757</ele><time>2026-08-16T12:56:16.358Z</time><hdop>5.375</hdop><vdop>2.5</vdop><extensions><gom:speed>1.399</gom:speed></extensions></trkpt>
   <trkpt lat="59.324859178" lon="34.6760950737"><ele>162.643</ele><time>2026-08-16T12:56:17.055Z</time><hdop>5.312</hdop><vdop>2.5</vdop><extensions><gom:speed>1.382</gom:speed></extensions></trkpt>
   <trkpt lat="59.3248545679" lon="34.6760706823"><ele>162.515</ele><time>2026-08-16T12:56:18.138Z</time><hdop>5.25</hdop><vdop>2.5</vdop><extensions><gom:speed>1.386</gom:speed></extensions></trkpt>
   <trkpt lat="59.324847569" lon="34.6760498952"><ele>162.541</ele><time>2026-08-16T12:56:19.138Z</time><hdop>5.125</hdop><vdop>2.5</vdop><extensions><gom:speed>1.419</gom:speed></extensions></trkpt>
   <trkpt lat="59.3248437972" lon="34.6760395855"><ele>162.557</ele><time>2026-08-16T12:56:19.617Z</time><hdop>5.062</hdop><vdop>2.5</vdop><extensions><gom:speed>1.424</gom:speed></extensions></trkpt>
   <trkpt lat="59.3248395643" lon="34.6760295272"><ele>162.462</ele><time>2026-08-16T12:56:20.138Z</time><hdop>5.0</hdop><vdop>2.5</vdop><extensions><gom:speed>1.436</gom:speed></extensions></trkpt>
   <trkpt lat="59.3248340742" lon="34.676018044"><ele>162.405</ele><time>2026-08-16T12:56:20.717Z</time><hdop>4.937</hdop><vdop>2.5</vdop><extensions><gom:speed>1.442</gom:speed></extensions></trkpt>
   <trkpt lat="59.324822088" lon="34.6760001905"><ele>162.39</ele><time>2026-08-16T12:56:21.855Z</time><hdop>4.875</hdop><vdop>2.5</vdop><extensions><gom:speed>1.455</gom:speed></extensions></trkpt>
   <trkpt lat="59.3248110658" lon="34.6759805769"><ele>162.487</ele><time>2026-08-16T12:56:23.014Z</time><hdop>4.812</hdop><vdop>2.5</vdop><extensions><gom:speed>1.415</gom:speed></extensions></trkpt>
   <trkpt lat="59.3248040669" lon="34.6759576943"><ele>162.322</ele><time>2026-08-16T12:56:24.113Z</time><hdop>4.875</hdop><vdop>2.5</vdop><extensions><gom:speed>1.395</gom:speed></extensions></trkpt>
   <trkpt lat="59.3247979901" lon="34.6759394217"><ele>162.259</ele><time>2026-08-16T12:56:25.138Z</time><hdop>4.812</hdop><vdop>2.5</vdop><extensions><gom:speed>1.396</gom:speed></extensions></trkpt>
   <trkpt lat="59.324789692" lon="34.6759209816"><ele>162.091</ele><time>2026-08-16T12:56:26.138Z</time><hdop>4.812</hdop><vdop>2.5</vdop><extensions><gom:speed>1.432</gom:speed></extensions></trkpt>
   <trkpt lat="59.3247800947" lon="34.6759018708"><ele>162.067</ele><time>2026-08-16T12:56:27.138Z</time><hdop>4.812</hdop><vdop>2.5</vdop><extensions><gom:speed>1.452</gom:speed></extensions></trkpt>
   <trkpt lat="59.3247699945" lon="34.6758801617"><ele>162.053</ele><time>2026-08-16T12:56:28.129Z</time><hdop>4.937</hdop><vdop>2.5</vdop><extensions><gom:speed>1.477</gom:speed></extensions></trkpt>
   <trkpt lat="59.3247617802" lon="34.6758622244"><ele>161.785</ele><time>2026-08-16T12:56:29.138Z</time><hdop>5.0</hdop><vdop>2.5</vdop><extensions><gom:speed>1.436</gom:speed></extensions></trkpt>
   <trkpt lat="59.3247574636" lon="34.675852669"><ele>161.625</ele><time>2026-08-16T12:56:29.631Z</time><hdop>5.062</hdop><vdop>2.5</vdop><extensions><gom:speed>1.434</gom:speed></extensions></trkpt>
   <trkpt lat="59.3247533983" lon="34.6758436166"><ele>161.567</ele><time>2026-08-16T12:56:30.138Z</time><hdop>5.125</hdop><vdop>2.5</vdop><extensions><gom:speed>1.44</gom:speed></extensions></trkpt>
   <trkpt lat="59.3247486626" lon="34.6758342289"><ele>161.532</ele><time>2026-08-16T12:56:30.632Z</time><hdop>5.125</hdop><vdop>2.5</vdop><extensions><gom:speed>1.448</gom:speed></extensions></trkpt>
   <trkpt lat="59.3247443878" lon="34.6758272719"><ele>161.605</ele><time>2026-08-16T12:56:31.138Z</time><hdop>5.187</hdop><vdop>2.5</vdop><extensions><gom:speed>1.452</gom:speed></extensions></trkpt>
   <trkpt lat="59.3247384785" lon="34.6758158725"><ele>161.649</ele><time>2026-08-16T12:56:31.752Z</time><hdop>5.25</hdop><vdop>2.5</vdop><extensions><gom:speed>1.459</gom:speed></extensions></trkpt>
   <trkpt lat="59.3247327789" lon="34.6758034673"><ele>161.788</ele><time>2026-08-16T12:56:32.478Z</time><hdop>5.25</hdop><vdop>2.5</vdop><extensions><gom:speed>1.475</gom:speed></extensions></trkpt>
   <trkpt lat="59.3247270792" lon="34.6757928223"><ele>161.843</ele><time>2026-08-16T12:56:33.137Z</time><hdop>5.25</hdop><vdop>2.5</vdop><extensions><gom:speed>1.464</gom:speed></extensions></trkpt>
   <trkpt lat="59.3247197869" lon="34.6757789921"><ele>161.875</ele><time>2026-08-16T12:56:33.911Z</time><hdop>5.312</hdop><vdop>2.5</vdop><extensions><gom:speed>1.46</gom:speed></extensions></trkpt>
   <trkpt lat="59.3247145901" lon="34.6757675927"><ele>161.893</ele><time>2026-08-16T12:56:34.608Z</time><hdop>5.375</hdop><vdop>2.5</vdop><extensions><gom:speed>1.474</gom:speed></extensions></trkpt>
   <trkpt lat="59.3247107764" lon="34.6757576183"><ele>161.638</ele><time>2026-08-16T12:56:35.138Z</time><hdop>5.437</hdop><vdop>2.5</vdop><extensions><gom:speed>1.454</gom:speed></extensions></trkpt>
   <trkpt lat="59.3247028974" lon="34.6757382561"><ele>161.486</ele><time>2026-08-16T12:56:36.111Z</time><hdop>5.437</hdop><vdop>2.5</vdop><extensions><gom:speed>1.435</gom:speed></extensions></trkpt>
   <trkpt lat="59.3246987902" lon="34.6757281978"><ele>161.288</ele><time>2026-08-16T12:56:36.837Z</time><hdop>5.562</hdop><vdop>2.5</vdop><extensions><gom:speed>1.444</gom:speed></extensions></trkpt>
   <trkpt lat="59.3246910789" lon="34.6757129427"><ele>161.181</ele><time>2026-08-16T12:56:37.937Z</time><hdop>5.625</hdop><vdop>2.5</vdop><extensions><gom:speed>1.444</gom:speed></extensions></trkpt>
   <trkpt lat="59.3246833675" lon="34.6756967656"><ele>161.204</ele><time>2026-08-16T12:56:38.997Z</time><hdop>5.625</hdop><vdop>2.5</vdop><extensions><gom:speed>1.496</gom:speed></extensions></trkpt>
   <trkpt lat="59.3246761591" lon="34.6756814268"><ele>161.392</ele><time>2026-08-16T12:56:40.138Z</time><hdop>5.437</hdop><vdop>2.5</vdop><extensions><gom:speed>1.5</gom:speed></extensions></trkpt>
   <trkpt lat="59.3246685735" lon="34.6756642439"><ele>161.324</ele><time>2026-08-16T12:56:41.138Z</time><hdop>5.312</hdop><vdop>2.5</vdop><extensions><gom:speed>1.515</gom:speed></extensions></trkpt>
   <trkpt lat="59.3246597725" lon="34.6756459713"><ele>161.285</ele><time>2026-08-16T12:56:42.138Z</time><hdop>5.125</hdop><vdop>2.5</vdop><extensions><gom:speed>1.532</gom:speed></extensions></trkpt>
   <trkpt lat="59.3246549948" lon="34.6756364998"><ele>161.262</ele><time>2026-08-16T12:56:42.629Z</time><hdop>5.062</hdop><vdop>2.5</vdop><extensions><gom:speed>1.53</gom:speed></extensions></trkpt>
   <trkpt lat="59.324649798" lon="34.6756295428"><ele>161.281</ele><time>2026-08-16T12:56:43.138Z</time><hdop>5.0</hdop><vdop>2.5</vdop><extensions><gom:speed>1.501</gom:speed></extensions></trkpt>
   <trkpt lat="59.3246429668" lon="34.6756262738"><ele>161.292</ele><time>2026-08-16T12:56:43.650Z</time><hdop>4.937</hdop><vdop>2.5</vdop><extensions><gom:speed>1.498</gom:speed></extensions></trkpt>
   <trkpt lat="59.3246371832" lon="34.6756304648"><ele>161.81</ele><time>2026-08-16T12:56:44.138Z</time><hdop>4.812</hdop><vdop>2.5</vdop><extensions><gom:speed>1.347</gom:speed></extensions></trkpt>
   <trkpt lat="59.3246290947" lon="34.6756423671"><ele>162.119</ele><time>2026-08-16T12:56:45.054Z</time><hdop>4.75</hdop><vdop>2.5</vdop><extensions><gom:speed>1.035</gom:speed></extensions></trkpt>
   <trkpt lat="59.3246235627" lon="34.6756504975"><ele>162.604</ele><time>2026-08-16T12:56:45.850Z</time><hdop>4.687</hdop><vdop>2.5</vdop><extensions><gom:speed>1.021</gom:speed></extensions></trkpt>
   <trkpt lat="59.3246213834" lon="34.6756540179"><ele>162.879</ele><time>2026-08-16T12:56:46.331Z</time><hdop>4.562</hdop><vdop>2.5</vdop><extensions><gom:speed>0.92</gom:speed></extensions></trkpt>
   <trkpt lat="59.3246157675" lon="34.675656784"><ele>163.043</ele><time>2026-08-16T12:56:47.018Z</time><hdop>4.5</hdop><vdop>2.5</vdop><extensions><gom:speed>0.937</gom:speed></extensions></trkpt>
   <trkpt lat="59.3246101935" lon="34.6756575383"><ele>163.345</ele><time>2026-08-16T12:56:47.735Z</time><hdop>4.375</hdop><vdop>2.5</vdop><extensions><gom:speed>0.946</gom:speed></extensions></trkpt>
   <trkpt lat="59.3246046615" lon="34.6756501623"><ele>163.573</ele><time>2026-08-16T12:56:48.510Z</time><hdop>4.25</hdop><vdop>2.5</vdop><extensions><gom:speed>0.957</gom:speed></extensions></trkpt>
   <trkpt lat="59.3246004705" lon="34.6756417804"><ele>163.841</ele><time>2026-08-16T12:56:49.137Z</time><hdop>4.187</hdop><vdop>2.5</vdop><extensions><gom:speed>1.009</gom:speed></extensions></trkpt>
   <trkpt lat="59.3245948965" lon="34.6756323926"><ele>164.001</ele><time>2026-08-16T12:56:49.855Z</time><hdop>4.187</hdop><vdop>2.5</vdop><extensions><gom:speed>1.009</gom:speed></extensions></trkpt>
   <trkpt lat="59.3245868918" lon="34.6756111864"><ele>163.939</ele><time>2026-08-16T12:56:51.131Z</time><hdop>4.187</hdop><vdop>2.5</vdop><extensions><gom:speed>1.025</gom:speed></extensions></trkpt>
   <trkpt lat="59.3245832876" lon="34.6755947579"><ele>163.921</ele><time>2026-08-16T12:56:51.936Z</time><hdop>4.25</hdop><vdop>2.5</vdop><extensions><gom:speed>1.055</gom:speed></extensions></trkpt>
   <trkpt lat="59.3245787614" lon="34.6755709533"><ele>163.722</ele><time>2026-08-16T12:56:53.075Z</time><hdop>4.437</hdop><vdop>2.5</vdop><extensions><gom:speed>1.082</gom:speed></extensions></trkpt>
   <trkpt lat="59.324576163" lon="34.6755483221"><ele>163.805</ele><time>2026-08-16T12:56:54.138Z</time><hdop>4.562</hdop><vdop>2.5</vdop><extensions><gom:speed>1.086</gom:speed></extensions></trkpt>
   <trkpt lat="59.3245723911" lon="34.6755294629"><ele>163.733</ele><time>2026-08-16T12:56:55.137Z</time><hdop>4.687</hdop><vdop>2.5</vdop><extensions><gom:speed>1.089</gom:speed></extensions></trkpt>
   <trkpt lat="59.3245695832" lon="34.6755209971"><ele>163.689</ele><time>2026-08-16T12:56:55.618Z</time><hdop>4.75</hdop><vdop>2.5</vdop><extensions><gom:speed>1.095</gom:speed></extensions></trkpt>
   <trkpt lat="59.3245668591" lon="34.6755132858"><ele>163.668</ele><time>2026-08-16T12:56:56.138Z</time><hdop>4.812</hdop><vdop>2.5</vdop><extensions><gom:speed>1.104</gom:speed></extensions></trkpt>
   <trkpt lat="59.3245610756" lon="34.675505323"><ele>163.655</ele><time>2026-08-16T12:56:56.816Z</time><hdop>4.875</hdop><vdop>2.5</vdop><extensions><gom:speed>1.11</gom:speed></extensions></trkpt>
   <trkpt lat="59.3245522746" lon="34.6754911576"><ele>163.761</ele><time>2026-08-16T12:56:57.876Z</time><hdop>5.0</hdop><vdop>2.5</vdop><extensions><gom:speed>1.199</gom:speed></extensions></trkpt>
   <trkpt lat="59.3245467844" lon="34.6754791714"><ele>163.857</ele><time>2026-08-16T12:56:58.612Z</time><hdop>5.125</hdop><vdop>2.5</vdop><extensions><gom:speed>1.244</gom:speed></extensions></trkpt>
   <trkpt lat="59.3245424677" lon="34.6754717954"><ele>163.644</ele><time>2026-08-16T12:56:59.138Z</time><hdop>5.25</hdop><vdop>2.5</vdop><extensions><gom:speed>1.285</gom:speed></extensions></trkpt>
   <trkpt lat="59.324537271" lon="34.6754652575"><ele>163.517</ele><time>2026-08-16T12:56:59.673Z</time><hdop>5.312</hdop><vdop>2.5</vdop><extensions><gom:speed>1.302</gom:speed></extensions></trkpt>
   <trkpt lat="59.3245325771" lon="34.6754582167"><ele>163.447</ele><time>2026-08-16T12:57:00.138Z</time><hdop>5.437</hdop><vdop>2.5</vdop><extensions><gom:speed>1.375</gom:speed></extensions></trkpt>
   <trkpt lat="59.3245268774" lon="34.6754509244"><ele>163.404</ele><time>2026-08-16T12:57:00.694Z</time><hdop>5.562</hdop><vdop>2.5</vdop><extensions><gom:speed>1.366</gom:speed></extensions></trkpt>
   <trkpt lat="59.3245236923" lon="34.6754434645"><ele>163.637</ele><time>2026-08-16T12:57:01.155Z</time><hdop>5.625</hdop><vdop>2.5</vdop><extensions><gom:speed>1.419</gom:speed></extensions></trkpt>
   <trkpt lat="59.3245153942" lon="34.6754294668"><ele>163.776</ele><time>2026-08-16T12:57:01.950Z</time><hdop>5.75</hdop><vdop>2.5</vdop><extensions><gom:speed>1.448</gom:speed></extensions></trkpt>
   <trkpt lat="59.3245061741" lon="34.6754089311"><ele>164.027</ele><time>2026-08-16T12:57:03.030Z</time><hdop>5.875</hdop><vdop>2.5</vdop><extensions><gom:speed>1.454</gom:speed></extensions></trkpt>
   <trkpt lat="59.3245018993" lon="34.6754010521"><ele>164.186</ele><time>2026-08-16T12:57:03.551Z</time><hdop>5.937</hdop><vdop>2.5</vdop><extensions><gom:speed>1.432</gom:speed></extensions></trkpt>
   <trkpt lat="59.3244973731" lon="34.6753916644"><ele>164.317</ele><time>2026-08-16T12:57:04.138Z</time><hdop>6.0</hdop><vdop>2.5</vdop><extensions><gom:speed>1.451</gom:speed></extensions></trkpt>
   <trkpt lat="59.3244974988" lon="34.6753732242"><ele>164.395</ele><time>2026-08-16T12:57:04.836Z</time><hdop>6.0</hdop><vdop>2.5</vdop><extensions><gom:speed>1.434</gom:speed></extensions></trkpt>
   <trkpt lat="59.3245046654" lon="34.6753594779"><ele>164.184</ele><time>2026-08-16T12:57:05.749Z</time><hdop>6.0</hdop><vdop>2.5</vdop><extensions><gom:speed>1.344</gom:speed></extensions></trkpt>
   <trkpt lat="59.3244979598" lon="34.6753832825"><ele>164.205</ele><time>2026-08-16T12:57:06.515Z</time><hdop>5.625</hdop><vdop>2.5</vdop><extensions><gom:speed>1.085</gom:speed></extensions></trkpt>
   <trkpt lat="59.3244940622" lon="34.6753875572"><ele>164.361</ele><time>2026-08-16T12:57:07.138Z</time><hdop>5.375</hdop><vdop>2.5</vdop><extensions><gom:speed>0.957</gom:speed></extensions></trkpt>
   <trkpt lat="59.3244917991" lon="34.6753895689"><ele>164.506</ele><time>2026-08-16T12:57:08.138Z</time><hdop>4.812</hdop><vdop>2.5</vdop><extensions><gom:speed>0.454</gom:speed></extensions></trkpt>
   <trkpt lat="59.324493266" lon="34.6753916644"><ele>164.59</ele><time>2026-08-16T12:57:09.138Z</time><hdop>4.562</hdop><vdop>2.5</vdop><extensions><gom:speed>0.113</gom:speed></extensions></trkpt>
   <trkpt lat="59.3244945652" lon="34.6753944304"><ele>164.63</ele><time>2026-08-16T12:57:10.138Z</time><hdop>3.875</hdop><vdop>2.5</vdop><extensions><gom:speed>0.04</gom:speed></extensions></trkpt>
   <trkpt lat="59.3244950681" lon="34.67539552"><ele>164.654</ele><time>2026-08-16T12:57:11.089Z</time><hdop>3.25</hdop><vdop>2.5</vdop><extensions><gom:speed>0.095</gom:speed></extensions></trkpt>
   <trkpt lat="59.3244940622" lon="34.675393676"><ele>164.624</ele><time>2026-08-16T12:57:11.728Z</time><hdop>3.062</hdop><vdop>2.5</vdop><extensions><gom:speed>0.176</gom:speed></extensions></trkpt>
   <trkpt lat="59.3244898713" lon="34.6753880602"><ele>164.575</ele><time>2026-08-16T12:57:12.288Z</time><hdop>3.0</hdop><vdop>2.5</vdop><extensions><gom:speed>0.476</gom:speed></extensions></trkpt>
   <trkpt lat="59.3244866862" lon="34.6753856294"><ele>164.546</ele><time>2026-08-16T12:57:12.847Z</time><hdop>3.0</hdop><vdop>2.5</vdop><extensions><gom:speed>0.476</gom:speed></extensions></trkpt>
   <trkpt lat="59.3244789748" lon="34.6753833663"><ele>164.594</ele><time>2026-08-16T12:57:13.309Z</time><hdop>3.0</hdop><vdop>2.5</vdop><extensions><gom:speed>0.781</gom:speed></extensions></trkpt>
   <trkpt lat="59.3244733589" lon="34.6753852941"><ele>164.623</ele><time>2026-08-16T12:57:13.908Z</time><hdop>3.0</hdop><vdop>2.5</vdop><extensions><gom:speed>0.785</gom:speed></extensions></trkpt>
   <trkpt lat="59.3244633845" lon="34.6753807679"><ele>164.922</ele><time>2026-08-16T12:57:15.138Z</time><hdop>3.0</hdop><vdop>2.5</vdop><extensions><gom:speed>0.559</gom:speed></extensions></trkpt>
   <trkpt lat="59.3244598641" lon="34.6753746491"><ele>165.049</ele><time>2026-08-16T12:57:16.138Z</time><hdop>3.0</hdop><vdop>2.5</vdop><extensions><gom:speed>0.34</gom:speed></extensions></trkpt>
   <trkpt lat="59.3244553798" lon="34.6753689494"><ele>165.313</ele><time>2026-08-16T12:57:17.137Z</time><hdop>3.0</hdop><vdop>2.5</vdop><extensions><gom:speed>0.341</gom:speed></extensions></trkpt>
   <trkpt lat="59.3244495963" lon="34.6753622439"><ele>165.416</ele><time>2026-08-16T12:57:18.137Z</time><hdop>3.0</hdop><vdop>2.5</vdop><extensions><gom:speed>0.399</gom:speed></extensions></trkpt>
   <trkpt lat="59.3244462854" lon="34.6753571309"><ele>165.477</ele><time>2026-08-16T12:57:18.915Z</time><hdop>3.0</hdop><vdop>2.5</vdop><extensions><gom:speed>0.4</gom:speed></extensions></trkpt>
   <trkpt lat="59.3244405857" lon="34.6753458992"><ele>165.571</ele><time>2026-08-16T12:57:19.415Z</time><hdop>3.0</hdop><vdop>2.5</vdop><extensions><gom:speed>0.637</gom:speed></extensions></trkpt>
   <trkpt lat="59.3244393703" lon="34.6753366791"><ele>165.627</ele><time>2026-08-16T12:57:20.034Z</time><hdop>3.0</hdop><vdop>2.5</vdop><extensions><gom:speed>0.694</gom:speed></extensions></trkpt>
   <trkpt lat="59.3244297731" lon="34.6753162272"><ele>165.878</ele><time>2026-08-16T12:57:21.138Z</time><hdop>3.0</hdop><vdop>2.5</vdop><extensions><gom:speed>0.909</gom:speed></extensions></trkpt>
   <trkpt lat="59.3244281805" lon="34.6753069233"><ele>166.027</ele><time>2026-08-16T12:57:21.674Z</time><hdop>3.0</hdop><vdop>2.5</vdop><extensions><gom:speed>0.908</gom:speed></extensions></trkpt>
   <trkpt lat="59.3244219779" lon="34.6753030677"><ele>166.281</ele><time>2026-08-16T12:57:22.138Z</time><hdop>3.0</hdop><vdop>2.5</vdop><extensions><gom:speed>0.956</gom:speed></extensions></trkpt>
   <trkpt lat="59.3244188766" lon="34.6752927579"><ele>166.432</ele><time>2026-08-16T12:57:22.773Z</time><hdop>3.0</hdop><vdop>2.5</vdop><extensions><gom:speed>0.966</gom:speed></extensions></trkpt>
   <trkpt lat="59.3244071838" lon="34.6752847951"><ele>166.554</ele><time>2026-08-16T12:57:23.470Z</time><hdop>3.0</hdop><vdop>2.5</vdop><extensions><gom:speed>1.025</gom:speed></extensions></trkpt>
   <trkpt lat="59.3243989696" lon="34.6752740663"><ele>166.575</ele><time>2026-08-16T12:57:24.138Z</time><hdop>3.0</hdop><vdop>2.5</vdop><extensions><gom:speed>1.015</gom:speed></extensions></trkpt>
   <trkpt lat="59.3243900847" lon="34.6752592303"><ele>166.587</ele><time>2026-08-16T12:57:25.090Z</time><hdop>3.0</hdop><vdop>2.5</vdop><extensions><gom:speed>1.049</gom:speed></extensions></trkpt>
   <trkpt lat="59.324375165" lon="34.6752465736"><ele>166.773</ele><time>2026-08-16T12:57:26.150Z</time><hdop>3.0</hdop><vdop>2.5</vdop><extensions><gom:speed>1.084</gom:speed></extensions></trkpt>
   <trkpt lat="59.3243646876" lon="34.675242718"><ele>167.025</ele><time>2026-08-16T12:57:26.789Z</time><hdop>3.0</hdop><vdop>2.5</vdop><extensions><gom:speed>1.097</gom:speed></extensions></trkpt>
   <trkpt lat="59.3243539587" lon="34.6752424665"><ele>166.986</ele><time>2026-08-16T12:57:27.309Z</time><hdop>3.0</hdop><vdop>2.5</vdop><extensions><gom:speed>1.108</gom:speed></extensions></trkpt>
   <trkpt lat="59.3243488877" lon="34.6752299775"><ele>166.963</ele><time>2026-08-16T12:57:27.996Z</time><hdop>3.0</hdop><vdop>2.5</vdop><extensions><gom:speed>1.134</gom:speed></extensions></trkpt>
   <trkpt lat="59.3243423917" lon="34.675226038"><ele>166.572</ele><time>2026-08-16T12:57:28.448Z</time><hdop>3.0</hdop><vdop>2.5</vdop><extensions><gom:speed>1.115</gom:speed></extensions></trkpt>
   <trkpt lat="59.3243342613" lon="34.675218159"><ele>166.268</ele><time>2026-08-16T12:57:29.137Z</time><hdop>3.0</hdop><vdop>2.5</vdop><extensions><gom:speed>1.157</gom:speed></extensions></trkpt>
   <trkpt lat="59.3243216884" lon="34.6752099447"><ele>166.122</ele><time>2026-08-16T12:57:30.138Z</time><hdop>3.0</hdop><vdop>2.5</vdop><extensions><gom:speed>1.112</gom:speed></extensions></trkpt>
   <trkpt lat="59.3243135999" lon="34.6752053347"><ele>166.035</ele><time>2026-08-16T12:57:30.814Z</time><hdop>3.0</hdop><vdop>2.5</vdop><extensions><gom:speed>1.114</gom:speed></extensions></trkpt>
   <trkpt lat="59.3243048827" lon="34.6752061729"><ele>166.175</ele><time>2026-08-16T12:57:31.452Z</time><hdop>3.0</hdop><vdop>2.5</vdop><extensions><gom:speed>1.091</gom:speed></extensions></trkpt>
   <trkpt lat="59.3242956626" lon="34.6752061729"><ele>166.454</ele><time>2026-08-16T12:57:32.138Z</time><hdop>3.0</hdop><vdop>2.5</vdop><extensions><gom:speed>1.113</gom:speed></extensions></trkpt>
   <trkpt lat="59.3242849757" lon="34.6752034906"><ele>166.621</ele><time>2026-08-16T12:57:32.953Z</time><hdop>3.0</hdop><vdop>2.5</vdop><extensions><gom:speed>1.166</gom:speed></extensions></trkpt>
   <trkpt lat="59.3242756718" lon="34.6752047479"><ele>166.783</ele><time>2026-08-16T12:57:33.553Z</time><hdop>3.0</hdop><vdop>2.5</vdop><extensions><gom:speed>1.17</gom:speed></extensions></trkpt>
   <trkpt lat="59.3242686729" lon="34.6752023172"><ele>166.879</ele><time>2026-08-16T12:57:34.094Z</time><hdop>3.0</hdop><vdop>2.5</vdop><extensions><gom:speed>1.201</gom:speed></extensions></trkpt>
   <trkpt lat="59.3242524958" lon="34.6752001379"><ele>167.092</ele><time>2026-08-16T12:57:35.137Z</time><hdop>3.0</hdop><vdop>2.5</vdop><extensions><gom:speed>1.197</gom:speed></extensions></trkpt>
   <trkpt lat="59.3242439882" lon="34.6751951926"><ele>167.219</ele><time>2026-08-16T12:57:35.793Z</time><hdop>3.0</hdop><vdop>2.5</vdop><extensions><gom:speed>1.193</gom:speed></extensions></trkpt>
   <trkpt lat="59.3242367797" lon="34.6751921751"><ele>167.558</ele><time>2026-08-16T12:57:36.274Z</time><hdop>3.0</hdop><vdop>2.5</vdop><extensions><gom:speed>1.182</gom:speed></extensions></trkpt>
   <trkpt lat="59.3242286912" lon="34.6751864754"><ele>167.76</ele><time>2026-08-16T12:57:36.972Z</time><hdop>3.0</hdop><vdop>2.5</vdop><extensions><gom:speed>1.153</gom:speed></extensions></trkpt>
   <trkpt lat="59.3242212732" lon="34.6751850505"><ele>167.847</ele><time>2026-08-16T12:57:37.433Z</time><hdop>3.0</hdop><vdop>2.5</vdop><extensions><gom:speed>1.171</gom:speed></extensions></trkpt>
   <trkpt lat="59.3242118855" lon="34.6751817815"><ele>167.917</ele><time>2026-08-16T12:57:38.138Z</time><hdop>3.0</hdop><vdop>2.5</vdop><extensions><gom:speed>1.159</gom:speed></extensions></trkpt>
   <trkpt lat="59.3241997736" lon="34.6751736511"><ele>168.0</ele><time>2026-08-16T12:57:39.138Z</time><hdop>3.0</hdop><vdop>2.5</vdop><extensions><gom:speed>1.16</gom:speed></extensions></trkpt>
   <trkpt lat="59.3241939901" lon="34.6751683705"><ele>168.05</ele><time>2026-08-16T12:57:39.652Z</time><hdop>3.0</hdop><vdop>2.5</vdop><extensions><gom:speed>1.169</gom:speed></extensions></trkpt>
   <trkpt lat="59.3241886676" lon="34.6751649339"><ele>168.136</ele><time>2026-08-16T12:57:40.138Z</time><hdop>3.0</hdop><vdop>2.5</vdop><extensions><gom:speed>1.189</gom:speed></extensions></trkpt>
   <trkpt lat="59.3241772682" lon="34.6751609944"><ele>167.851</ele><time>2026-08-16T12:57:41.137Z</time><hdop>3.0</hdop><vdop>2.5</vdop><extensions><gom:speed>1.188</gom:speed></extensions></trkpt>
   <trkpt lat="59.3241673776" lon="34.6751639281"><ele>167.78</ele><time>2026-08-16T12:57:42.138Z</time><hdop>3.0</hdop><vdop>2.5</vdop><extensions><gom:speed>1.536</gom:speed></extensions></trkpt>
   <trkpt lat="59.324165785" lon="34.6751677837"><ele>167.737</ele><time>2026-08-16T12:57:43.039Z</time><hdop>3.0</hdop><vdop>2.5</vdop><extensions><gom:speed>0.654</gom:speed></extensions></trkpt>
   <trkpt lat="59.3241587861" lon="34.675153283"><ele>167.712</ele><time>2026-08-16T12:57:44.099Z</time><hdop>3.187</hdop><vdop>2.5</vdop><extensions><gom:speed>1.068</gom:speed></extensions></trkpt>
   <trkpt lat="59.3241428605" lon="34.6751404587"><ele>167.838</ele><time>2026-08-16T12:57:45.138Z</time><hdop>3.25</hdop><vdop>2.5</vdop><extensions><gom:speed>0.978</gom:speed></extensions></trkpt>
   <trkpt lat="59.3241348977" lon="34.6751340885"><ele>168.057</ele><time>2026-08-16T12:57:46.138Z</time><hdop>3.25</hdop><vdop>2.5</vdop><extensions><gom:speed>0.661</gom:speed></extensions></trkpt>
   <trkpt lat="59.3241306648" lon="34.6751302328"><ele>168.254</ele><time>2026-08-16T12:57:47.138Z</time><hdop>3.312</hdop><vdop>2.5</vdop><extensions><gom:speed>0.332</gom:speed></extensions></trkpt>
   <trkpt lat="59.324129198" lon="34.6751311548"><ele>168.402</ele><time>2026-08-16T12:57:48.138Z</time><hdop>3.312</hdop><vdop>2.5</vdop><extensions><gom:speed>0.094</gom:speed></extensions></trkpt>
   <trkpt lat="59.324129198" lon="34.6751342561"><ele>168.486</ele><time>2026-08-16T12:57:49.138Z</time><hdop>3.062</hdop><vdop>2.5</vdop><extensions><gom:speed>0.034</gom:speed></extensions></trkpt>
   <trkpt lat="59.3241297847" lon="34.6751369383"><ele>168.55</ele><time>2026-08-16T12:57:50.138Z</time><hdop>3.062</hdop><vdop>2.5</vdop><extensions><gom:speed>0.068</gom:speed></extensions></trkpt>
   <trkpt lat="59.3241300781" lon="34.6751393691"><ele>168.604</ele><time>2026-08-16T12:57:51.138Z</time><hdop>3.0</hdop><vdop>2.5</vdop><extensions><gom:speed>0.06</gom:speed></extensions></trkpt>
   <trkpt lat="59.3241300781" lon="34.6751405426"><ele>168.686</ele><time>2026-08-16T12:57:52.138Z</time><hdop>3.0</hdop><vdop>2.5</vdop><extensions><gom:speed>0.014</gom:speed></extensions></trkpt>
   <trkpt lat="59.3241303715" lon="34.6751411293"><ele>168.735</ele><time>2026-08-16T12:57:52.995Z</time><hdop>3.0</hdop><vdop>2.5</vdop><extensions><gom:speed>0.033</gom:speed></extensions></trkpt>
   <trkpt lat="59.3241285694" lon="34.675139872"><ele>168.848</ele><time>2026-08-16T12:57:53.555Z</time><hdop>3.0</hdop><vdop>2.5</vdop><extensions><gom:speed>0.109</gom:speed></extensions></trkpt>
   <trkpt lat="59.3241258872" lon="34.6751369383"><ele>169.003</ele><time>2026-08-16T12:57:54.138Z</time><hdop>3.0</hdop><vdop>2.5</vdop><extensions><gom:speed>0.175</gom:speed></extensions></trkpt>
   <trkpt lat="59.3241236659" lon="34.675135262"><ele>169.095</ele><time>2026-08-16T12:57:54.763Z</time><hdop>3.0</hdop><vdop>2.5</vdop><extensions><gom:speed>0.196</gom:speed></extensions></trkpt>
   <trkpt lat="59.3241166671" lon="34.675131071"><ele>169.039</ele><time>2026-08-16T12:57:55.882Z</time><hdop>3.0</hdop><vdop>2.5</vdop><extensions><gom:speed>0.372</gom:speed></extensions></trkpt>
   <trkpt lat="59.3241029626" lon="34.6751193363"><ele>168.904</ele><time>2026-08-16T12:57:56.922Z</time><hdop>3.0</hdop><vdop>2.5</vdop><extensions><gom:speed>0.907</gom:speed></extensions></trkpt>
   <trkpt lat="59.3240883781" lon="34.6751024887"><ele>168.859</ele><time>2026-08-16T12:57:58.022Z</time><hdop>3.0</hdop><vdop>2.5</vdop><extensions><gom:speed>1.106</gom:speed></extensions></trkpt>
   <trkpt lat="59.3240779846" lon="34.6750965376"><ele>168.921</ele><time>2026-08-16T12:57:58.641Z</time><hdop>3.0</hdop><vdop>2.5</vdop><extensions><gom:speed>1.182</gom:speed></extensions></trkpt>
   <trkpt lat="59.3240694769" lon="34.6750990521"><ele>169.097</ele><time>2026-08-16T12:57:59.138Z</time><hdop>3.0</hdop><vdop>2.5</vdop><extensions><gom:speed>1.31</gom:speed></extensions></trkpt>
   <trkpt lat="59.324061598" lon="34.6751073502"><ele>169.203</ele><time>2026-08-16T12:57:59.721Z</time><hdop>3.0</hdop><vdop>2.5</vdop><extensions><gom:speed>1.325</gom:speed></extensions></trkpt>
   <trkpt lat="59.3240552696" lon="34.6751096971"><ele>169.397</ele><time>2026-08-16T12:58:00.181Z</time><hdop>3.0</hdop><vdop>2.5</vdop><extensions><gom:speed>1.302</gom:speed></extensions></trkpt>
   <trkpt lat="59.3240440798" lon="34.675109781"><ele>169.518</ele><time>2026-08-16T12:58:01.138Z</time><hdop>3.0</hdop><vdop>2.5</vdop><extensions><gom:speed>1.208</gom:speed></extensions></trkpt>
   <trkpt lat="59.3240322613" lon="34.6750917599"><ele>169.508</ele><time>2026-08-16T12:58:02.138Z</time><hdop>3.0</hdop><vdop>2.5</vdop><extensions><gom:speed>1.181</gom:speed></extensions></trkpt>
   <trkpt lat="59.3240237956" lon="34.6750855573"><ele>169.503</ele><time>2026-08-16T12:58:02.941Z</time><hdop>3.0</hdop><vdop>2.5</vdop><extensions><gom:speed>1.196</gom:speed></extensions></trkpt>
   <trkpt lat="59.3240168805" lon="34.6750695478"><ele>169.502</ele><time>2026-08-16T12:58:03.540Z</time><hdop>3.0</hdop><vdop>2.5</vdop><extensions><gom:speed>1.206</gom:speed></extensions></trkpt>
   <trkpt lat="59.3240108874" lon="34.6750508562"><ele>169.462</ele><time>2026-08-16T12:58:04.138Z</time><hdop>3.0</hdop><vdop>2.5</vdop><extensions><gom:speed>1.225</gom:speed></extensions></trkpt>
   <trkpt lat="59.3240055649" lon="34.6750356849"><ele>169.437</ele><time>2026-08-16T12:58:04.718Z</time><hdop>3.0</hdop><vdop>2.5</vdop><extensions><gom:speed>1.227</gom:speed></extensions></trkpt>
   <trkpt lat="59.3239997814" lon="34.6750206813"><ele>169.432</ele><time>2026-08-16T12:58:05.297Z</time><hdop>3.0</hdop><vdop>2.5</vdop><extensions><gom:speed>1.206</gom:speed></extensions></trkpt>
   <trkpt lat="59.3239910642" lon="34.6750058454"><ele>169.466</ele><time>2026-08-16T12:58:06.138Z</time><hdop>3.0</hdop><vdop>2.5</vdop><extensions><gom:speed>1.203</gom:speed></extensions></trkpt>
   <trkpt lat="59.3239850712" lon="34.6749913447"><ele>169.487</ele><time>2026-08-16T12:58:06.838Z</time><hdop>3.0</hdop><vdop>2.5</vdop><extensions><gom:speed>1.205</gom:speed></extensions></trkpt>
   <trkpt lat="59.3239773598" lon="34.674966199"><ele>169.443</ele><time>2026-08-16T12:58:07.899Z</time><hdop>3.0</hdop><vdop>2.5</vdop><extensions><gom:speed>1.212</gom:speed></extensions></trkpt>
   <trkpt lat="59.3239703609" lon="34.6749432326"><ele>169.327</ele><time>2026-08-16T12:58:08.975Z</time><hdop>3.0</hdop><vdop>2.5</vdop><extensions><gom:speed>1.204</gom:speed></extensions></trkpt>
   <trkpt lat="59.3239656671" lon="34.6749325875"><ele>169.199</ele><time>2026-08-16T12:58:09.535Z</time><hdop>3.0</hdop><vdop>2.5</vdop><extensions><gom:speed>1.219</gom:speed></extensions></trkpt>
   <trkpt lat="59.3239598836" lon="34.6749224454"><ele>169.025</ele><time>2026-08-16T12:58:10.138Z</time><hdop>3.0</hdop><vdop>2.5</vdop><extensions><gom:speed>1.26</gom:speed></extensions></trkpt>
   <trkpt lat="59.3239538905" lon="34.6749163266"><ele>168.921</ele><time>2026-08-16T12:58:10.634Z</time><hdop>3.0</hdop><vdop>2.5</vdop><extensions><gom:speed>1.258</gom:speed></extensions></trkpt>
   <trkpt lat="59.3239469754" lon="34.6749138959"><ele>168.781</ele><time>2026-08-16T12:58:11.138Z</time><hdop>3.0</hdop><vdop>2.5</vdop><extensions><gom:speed>1.289</gom:speed></extensions></trkpt>
   <trkpt lat="59.3239331872" lon="34.6749117166"><ele>168.641</ele><time>2026-08-16T12:58:12.138Z</time><hdop>3.0</hdop><vdop>2.5</vdop><extensions><gom:speed>1.275</gom:speed></extensions></trkpt>
   <trkpt lat="59.323927278" lon="34.6749089506"><ele>168.557</ele><time>2026-08-16T12:58:12.590Z</time><hdop>3.0</hdop><vdop>2.5</vdop><extensions><gom:speed>1.275</gom:speed></extensions></trkpt>
   <trkpt lat="59.3239214944" lon="34.6749003172"><ele>168.398</ele><time>2026-08-16T12:58:13.138Z</time><hdop>3.0</hdop><vdop>2.5</vdop><extensions><gom:speed>1.263</gom:speed></extensions></trkpt>
   <trkpt lat="59.3239149985" lon="34.6748911809"><ele>168.304</ele><time>2026-08-16T12:58:13.749Z</time><hdop>3.0</hdop><vdop>2.5</vdop><extensions><gom:speed>1.256</gom:speed></extensions></trkpt>
   <trkpt lat="59.3239094664" lon="34.6748792786"><ele>168.301</ele><time>2026-08-16T12:58:14.357Z</time><hdop>3.0</hdop><vdop>2.5</vdop><extensions><gom:speed>1.217</gom:speed></extensions></trkpt>
   <trkpt lat="59.3239043954" lon="34.6748726569"><ele>168.299</ele><time>2026-08-16T12:58:14.858Z</time><hdop>3.0</hdop><vdop>2.5</vdop><extensions><gom:speed>1.218</gom:speed></extensions></trkpt>
   <trkpt lat="59.323900372" lon="34.6748615928"><ele>168.423</ele><time>2026-08-16T12:58:15.369Z</time><hdop>3.0</hdop><vdop>2.5</vdop><extensions><gom:speed>1.212</gom:speed></extensions></trkpt>
   <trkpt lat="59.3238946724" lon="34.6748532947"><ele>168.498</ele><time>2026-08-16T12:58:15.938Z</time><hdop>3.0</hdop><vdop>2.5</vdop><extensions><gom:speed>1.206</gom:speed></extensions></trkpt>
   <trkpt lat="59.3238900623" lon="34.6748423983"><ele>168.674</ele><time>2026-08-16T12:58:16.478Z</time><hdop>3.0</hdop><vdop>2.5</vdop><extensions><gom:speed>1.207</gom:speed></extensions></trkpt>
   <trkpt lat="59.3238833987" lon="34.6748346869"><ele>168.779</ele><time>2026-08-16T12:58:17.097Z</time><hdop>3.0</hdop><vdop>2.5</vdop><extensions><gom:speed>1.215</gom:speed></extensions></trkpt>
   <trkpt lat="59.3238797945" lon="34.6748243772"><ele>168.832</ele><time>2026-08-16T12:58:17.597Z</time><hdop>3.0</hdop><vdop>2.5</vdop><extensions><gom:speed>1.232</gom:speed></extensions></trkpt>
   <trkpt lat="59.3238761903" lon="34.6748130616"><ele>168.696</ele><time>2026-08-16T12:58:18.138Z</time><hdop>3.0</hdop><vdop>2.5</vdop><extensions><gom:speed>1.25</gom:speed></extensions></trkpt>
   <trkpt lat="59.3238717898" lon="34.674802668"><ele>168.614</ele><time>2026-08-16T12:58:18.677Z</time><hdop>3.0</hdop><vdop>2.5</vdop><extensions><gom:speed>1.26</gom:speed></extensions></trkpt>
   <trkpt lat="59.3238691914" lon="34.6747922745"><ele>168.372</ele><time>2026-08-16T12:58:19.138Z</time><hdop>3.0</hdop><vdop>2.5</vdop><extensions><gom:speed>1.238</gom:speed></extensions></trkpt>
   <trkpt lat="59.3238658805" lon="34.6747756783"><ele>168.228</ele><time>2026-08-16T12:58:19.863Z</time><hdop>3.0</hdop><vdop>2.5</vdop><extensions><gom:speed>1.222</gom:speed></extensions></trkpt>
   <trkpt lat="59.3238574986" lon="34.6747573219"><ele>167.887</ele><time>2026-08-16T12:58:20.963Z</time><hdop>3.0</hdop><vdop>2.5</vdop><extensions><gom:speed>1.245</gom:speed></extensions></trkpt>
   <trkpt lat="59.3238525952" lon="34.6747583278"><ele>167.782</ele><time>2026-08-16T12:58:21.414Z</time><hdop>3.0</hdop><vdop>2.5</vdop><extensions><gom:speed>1.232</gom:speed></extensions></trkpt>
   <trkpt lat="59.3238476918" lon="34.6747601718"><ele>167.599</ele><time>2026-08-16T12:58:22.138Z</time><hdop>3.0</hdop><vdop>2.5</vdop><extensions><gom:speed>1.461</gom:speed></extensions></trkpt>
   <trkpt lat="59.3238475661" lon="34.6747588307"><ele>167.489</ele><time>2026-08-16T12:58:23.138Z</time><hdop>3.0</hdop><vdop>2.5</vdop><extensions><gom:speed>1.044</gom:speed></extensions></trkpt>
   <trkpt lat="59.323848069" lon="34.6747484371"><ele>167.423</ele><time>2026-08-16T12:58:23.643Z</time><hdop>3.062</hdop><vdop>2.5</vdop><extensions><gom:speed>1.085</gom:speed></extensions></trkpt>
   <trkpt lat="59.3238455963" lon="34.6747350261"><ele>167.409</ele><time>2026-08-16T12:58:24.138Z</time><hdop>3.125</hdop><vdop>2.5</vdop><extensions><gom:speed>1.15</gom:speed></extensions></trkpt>
   <trkpt lat="59.3238430817" lon="34.6747268956"><ele>167.401</ele><time>2026-08-16T12:58:24.703Z</time><hdop>3.25</hdop><vdop>2.5</vdop><extensions><gom:speed>1.167</gom:speed></extensions></trkpt>
   <trkpt lat="59.323830467" lon="34.6747024205"><ele>167.463</ele><time>2026-08-16T12:58:25.802Z</time><hdop>3.437</hdop><vdop>2.5</vdop><extensions><gom:speed>1.237</gom:speed></extensions></trkpt>
   <trkpt lat="59.3238178941" lon="34.6746754307"><ele>167.58</ele><time>2026-08-16T12:58:26.941Z</time><hdop>3.562</hdop><vdop>2.5</vdop><extensions><gom:speed>1.301</gom:speed></extensions></trkpt>
   <trkpt lat="59.3238059918" lon="34.6746545598"><ele>167.831</ele><time>2026-08-16T12:58:28.061Z</time><hdop>3.625</hdop><vdop>2.5</vdop><extensions><gom:speed>1.33</gom:speed></extensions></trkpt>
   <trkpt lat="59.3237957659" lon="34.6746418193"><ele>167.961</ele><time>2026-08-16T12:58:28.836Z</time><hdop>3.625</hdop><vdop>2.5</vdop><extensions><gom:speed>1.371</gom:speed></extensions></trkpt>
   <trkpt lat="59.3237804689" lon="34.6746208646"><ele>167.831</ele><time>2026-08-16T12:58:30.138Z</time><hdop>3.375</hdop><vdop>2.5</vdop><extensions><gom:speed>1.346</gom:speed></extensions></trkpt>
   <trkpt lat="59.3237690695" lon="34.6746074535"><ele>167.46</ele><time>2026-08-16T12:58:31.138Z</time><hdop>3.187</hdop><vdop>2.5</vdop><extensions><gom:speed>1.344</gom:speed></extensions></trkpt>
   <trkpt lat="59.3237574606" lon="34.6745963894"><ele>167.339</ele><time>2026-08-16T12:58:32.138Z</time><hdop>3.062</hdop><vdop>2.5</vdop><extensions><gom:speed>1.34</gom:speed></extensions></trkpt>
   <trkpt lat="59.3237464803" lon="34.674587756"><ele>167.172</ele><time>2026-08-16T12:58:33.138Z</time><hdop>3.0</hdop><vdop>2.5</vdop><extensions><gom:speed>1.307</gom:speed></extensions></trkpt>
   <trkpt lat="59.323735961" lon="34.6745804638"><ele>167.265</ele><time>2026-08-16T12:58:34.138Z</time><hdop>3.0</hdop><vdop>2.5</vdop><extensions><gom:speed>1.318</gom:speed></extensions></trkpt>
   <trkpt lat="59.3237286688" lon="34.6745771948"><ele>167.321</ele><time>2026-08-16T12:58:34.737Z</time><hdop>3.0</hdop><vdop>2.5</vdop><extensions><gom:speed>1.32</gom:speed></extensions></trkpt>
   <trkpt lat="59.3237194906" lon="34.6745708246"><ele>167.383</ele><time>2026-08-16T12:58:35.502Z</time><hdop>3.0</hdop><vdop>2.5</vdop><extensions><gom:speed>1.37</gom:speed></extensions></trkpt>
   <trkpt lat="59.3237137909" lon="34.6745617721"><ele>167.461</ele><time>2026-08-16T12:58:36.138Z</time><hdop>3.0</hdop><vdop>2.5</vdop><extensions><gom:speed>1.33</gom:speed></extensions></trkpt>
   <trkpt lat="59.3237082588" lon="34.6745471876"><ele>167.507</ele><time>2026-08-16T12:58:36.955Z</time><hdop>3.0</hdop><vdop>2.5</vdop><extensions><gom:speed>1.322</gom:speed></extensions></trkpt>
   <trkpt lat="59.3236948897" lon="34.6745456789"><ele>167.476</ele><time>2026-08-16T12:58:38.075Z</time><hdop>3.062</hdop><vdop>2.5</vdop><extensions><gom:speed>1.327</gom:speed></extensions></trkpt>
   <trkpt lat="59.3236825683" lon="34.6745463494"><ele>167.519</ele><time>2026-08-16T12:58:39.138Z</time><hdop>3.062</hdop><vdop>2.5</vdop><extensions><gom:speed>1.313</gom:speed></extensions></trkpt>
   <trkpt lat="59.3236712946" lon="34.6745430805"><ele>167.501</ele><time>2026-08-16T12:58:40.138Z</time><hdop>3.062</hdop><vdop>2.5</vdop><extensions><gom:speed>1.278</gom:speed></extensions></trkpt>
   <trkpt lat="59.3236591828" lon="34.6745364588"><ele>167.393</ele><time>2026-08-16T12:58:41.138Z</time><hdop>3.062</hdop><vdop>2.5</vdop><extensions><gom:speed>1.325</gom:speed></extensions></trkpt>
   <trkpt lat="59.3236464842" lon="34.67453034"><ele>167.198</ele><time>2026-08-16T12:58:42.138Z</time><hdop>3.062</hdop><vdop>2.5</vdop><extensions><gom:speed>1.357</gom:speed></extensions></trkpt>
   <trkpt lat="59.3236410779" lon="34.6745270711"><ele>167.081</ele><time>2026-08-16T12:58:42.794Z</time><hdop>3.062</hdop><vdop>2.5</vdop><extensions><gom:speed>1.357</gom:speed></extensions></trkpt>
   <trkpt lat="59.3236288822" lon="34.6745192759"><ele>166.969</ele><time>2026-08-16T12:58:43.454Z</time><hdop>3.0</hdop><vdop>2.5</vdop><extensions><gom:speed>1.362</gom:speed></extensions></trkpt>
   <trkpt lat="59.3236232663" lon="34.6745129895"><ele>166.681</ele><time>2026-08-16T12:58:44.138Z</time><hdop>3.0</hdop><vdop>2.5</vdop><extensions><gom:speed>1.345</gom:speed></extensions></trkpt>
   <trkpt lat="59.3236138786" lon="34.674502093"><ele>166.479</ele><time>2026-08-16T12:58:45.138Z</time><hdop>3.0</hdop><vdop>2.5</vdop><extensions><gom:speed>1.339</gom:speed></extensions></trkpt>
   <trkpt lat="59.3236028983" lon="34.6745003328"><ele>166.361</ele><time>2026-08-16T12:58:46.138Z</time><hdop>3.0</hdop><vdop>2.5</vdop><extensions><gom:speed>1.375</gom:speed></extensions></trkpt>
   <trkpt lat="59.32359657" lon="34.6745003328"><ele>166.291</ele><time>2026-08-16T12:58:46.636Z</time><hdop>3.0</hdop><vdop>2.5</vdop><extensions><gom:speed>1.385</gom:speed></extensions></trkpt>
   <trkpt lat="59.3235911636" lon="34.674501171"><ele>166.33</ele><time>2026-08-16T12:58:47.138Z</time><hdop>3.0</hdop><vdop>2.5</vdop><extensions><gom:speed>1.378</gom:speed></extensions></trkpt>
   <trkpt lat="59.3235824884" lon="34.6745001651"><ele>166.353</ele><time>2026-08-16T12:58:47.814Z</time><hdop>3.0</hdop><vdop>2.5</vdop><extensions><gom:speed>1.39</gom:speed></extensions></trkpt>
   <trkpt lat="59.3235706699" lon="34.6745021768"><ele>166.376</ele><time>2026-08-16T12:58:48.876Z</time><hdop>3.062</hdop><vdop>2.5</vdop><extensions><gom:speed>1.351</gom:speed></extensions></trkpt>
   <trkpt lat="59.3235623718" lon="34.674500249"><ele>166.313</ele><time>2026-08-16T12:58:49.357Z</time><hdop>3.062</hdop><vdop>2.5</vdop><extensions><gom:speed>1.334</gom:speed></extensions></trkpt>
   <trkpt lat="59.3235579713" lon="34.6744961418"><ele>165.75</ele><time>2026-08-16T12:58:50.138Z</time><hdop>3.062</hdop><vdop>2.5</vdop><extensions><gom:speed>1.287</gom:speed></extensions></trkpt>
   <trkpt lat="59.3235531936" lon="34.6744811382"><ele>165.414</ele><time>2026-08-16T12:58:51.016Z</time><hdop>3.062</hdop><vdop>2.5</vdop><extensions><gom:speed>1.222</gom:speed></extensions></trkpt>
   <trkpt lat="59.3235463624" lon="34.6744666375"><ele>164.96</ele><time>2026-08-16T12:58:52.056Z</time><hdop>3.062</hdop><vdop>2.5</vdop><extensions><gom:speed>1.199</gom:speed></extensions></trkpt>
   <trkpt lat="59.3235413751" lon="34.6744622789"><ele>164.362</ele><time>2026-08-16T12:58:52.597Z</time><hdop>3.062</hdop><vdop>2.5</vdop><extensions><gom:speed>1.18</gom:speed></extensions></trkpt>
   <trkpt lat="59.3235359688" lon="34.6744584233"><ele>163.995</ele><time>2026-08-16T12:58:53.138Z</time><hdop>3.062</hdop><vdop>2.5</vdop><extensions><gom:speed>1.156</gom:speed></extensions></trkpt>
   <trkpt lat="59.3235301853" lon="34.6744526398"><ele>163.776</ele><time>2026-08-16T12:58:53.736Z</time><hdop>3.062</hdop><vdop>2.5</vdop><extensions><gom:speed>1.145</gom:speed></extensions></trkpt>
   <trkpt lat="59.3235207976" lon="34.6744490355"><ele>163.906</ele><time>2026-08-16T12:58:54.520Z</time><hdop>3.0</hdop><vdop>2.5</vdop><extensions><gom:speed>1.136</gom:speed></extensions></trkpt>
   <trkpt lat="59.3235127928" lon="34.6744461857"><ele>164.459</ele><time>2026-08-16T12:58:55.138Z</time><hdop>3.0</hdop><vdop>2.5</vdop><extensions><gom:speed>1.193</gom:speed></extensions></trkpt>
   <trkpt lat="59.3235022736" lon="34.6744401507"><ele>164.789</ele><time>2026-08-16T12:58:55.994Z</time><hdop>3.0</hdop><vdop>2.5</vdop><extensions><gom:speed>1.167</gom:speed></extensions></trkpt>
   <trkpt lat="59.3234889882" lon="34.6744375523"><ele>164.897</ele><time>2026-08-16T12:58:57.074Z</time><hdop>3.0</hdop><vdop>2.5</vdop><extensions><gom:speed>1.161</gom:speed></extensions></trkpt>
   <trkpt lat="59.3234738589" lon="34.6744383905"><ele>164.725</ele><time>2026-08-16T12:58:58.138Z</time><hdop>3.0</hdop><vdop>2.5</vdop><extensions><gom:speed>1.204</gom:speed></extensions></trkpt>
   <trkpt lat="59.3234652675" lon="34.674436295"><ele>164.622</ele><time>2026-08-16T12:58:58.787Z</time><hdop>3.0</hdop><vdop>2.5</vdop><extensions><gom:speed>1.205</gom:speed></extensions></trkpt>
   <trkpt lat="59.3234565922" lon="34.6744393964"><ele>164.786</ele><time>2026-08-16T12:58:59.259Z</time><hdop>3.0</hdop><vdop>2.5</vdop><extensions><gom:speed>1.377</gom:speed></extensions></trkpt>
   <trkpt lat="59.3234477912" lon="34.6744421624"><ele>164.885</ele><time>2026-08-16T12:58:59.867Z</time><hdop>3.0</hdop><vdop>2.5</vdop><extensions><gom:speed>1.378</gom:speed></extensions></trkpt>
   <trkpt lat="59.3234400798" lon="34.6744454313"><ele>164.615</ele><time>2026-08-16T12:59:00.319Z</time><hdop>3.0</hdop><vdop>2.5</vdop><extensions><gom:speed>1.415</gom:speed></extensions></trkpt>
   <trkpt lat="59.3234317818" lon="34.6744542323"><ele>164.455</ele><time>2026-08-16T12:59:01.005Z</time><hdop>3.0</hdop><vdop>2.5</vdop><extensions><gom:speed>1.359</gom:speed></extensions></trkpt>
   <trkpt lat="59.3234171972" lon="34.6744588424"><ele>164.111</ele><time>2026-08-16T12:59:02.027Z</time><hdop>3.0</hdop><vdop>2.5</vdop><extensions><gom:speed>1.38</gom:speed></extensions></trkpt>
   <trkpt lat="59.3234097793" lon="34.6744532265"><ele>163.368</ele><time>2026-08-16T12:59:02.547Z</time><hdop>3.0</hdop><vdop>2.5</vdop><extensions><gom:speed>1.341</gom:speed></extensions></trkpt>
   <trkpt lat="59.3234020679" lon="34.6744493708"><ele>163.021</ele><time>2026-08-16T12:59:03.138Z</time><hdop>3.0</hdop><vdop>2.5</vdop><extensions><gom:speed>1.312</gom:speed></extensions></trkpt>
   <trkpt lat="59.3233951947" lon="34.6744476944"><ele>162.814</ele><time>2026-08-16T12:59:03.647Z</time><hdop>3.0</hdop><vdop>2.5</vdop><extensions><gom:speed>1.317</gom:speed></extensions></trkpt>
   <trkpt lat="59.3233896627" lon="34.6744446769"><ele>162.755</ele><time>2026-08-16T12:59:04.138Z</time><hdop>3.0</hdop><vdop>2.5</vdop><extensions><gom:speed>1.25</gom:speed></extensions></trkpt>
   <trkpt lat="59.3233822866" lon="34.6744453475"><ele>162.72</ele><time>2026-08-16T12:59:04.786Z</time><hdop>3.0</hdop><vdop>2.5</vdop><extensions><gom:speed>1.235</gom:speed></extensions></trkpt>
   <trkpt lat="59.3233752877" lon="34.6744431682"><ele>162.686</ele><time>2026-08-16T12:59:05.463Z</time><hdop>3.062</hdop><vdop>2.5</vdop><extensions><gom:speed>1.226</gom:speed></extensions></trkpt>
   <trkpt lat="59.3233678697" lon="34.6744447608"><ele>162.677</ele><time>2026-08-16T12:59:06.138Z</time><hdop>3.062</hdop><vdop>2.5</vdop><extensions><gom:speed>1.254</gom:speed></extensions></trkpt>
   <trkpt lat="59.3233578953" lon="34.6744486164"><ele>162.672</ele><time>2026-08-16T12:59:06.946Z</time><hdop>3.062</hdop><vdop>2.5</vdop><extensions><gom:speed>1.327</gom:speed></extensions></trkpt>
   <trkpt lat="59.3233424726" lon="34.6744477783"><ele>162.447</ele><time>2026-08-16T12:59:08.085Z</time><hdop>3.062</hdop><vdop>2.5</vdop><extensions><gom:speed>1.385</gom:speed></extensions></trkpt>
   <trkpt lat="59.3233305703" lon="34.6744398993"><ele>162.382</ele><time>2026-08-16T12:59:09.138Z</time><hdop>3.125</hdop><vdop>2.5</vdop><extensions><gom:speed>1.366</gom:speed></extensions></trkpt>
   <trkpt lat="59.3233202605" lon="34.674440486"><ele>162.343</ele><time>2026-08-16T12:59:09.963Z</time><hdop>3.125</hdop><vdop>2.5</vdop><extensions><gom:speed>1.408</gom:speed></extensions></trkpt>
   <trkpt lat="59.3233077715" lon="34.6744342834"><ele>162.499</ele><time>2026-08-16T12:59:10.984Z</time><hdop>3.125</hdop><vdop>2.5</vdop><extensions><gom:speed>1.411</gom:speed></extensions></trkpt>
   <trkpt lat="59.3232939833" lon="34.6744241413"><ele>162.861</ele><time>2026-08-16T12:59:12.122Z</time><hdop>3.125</hdop><vdop>2.5</vdop><extensions><gom:speed>1.418</gom:speed></extensions></trkpt>
   <trkpt lat="59.3232822905" lon="34.6744107302"><ele>163.502</ele><time>2026-08-16T12:59:13.137Z</time><hdop>3.125</hdop><vdop>2.5</vdop><extensions><gom:speed>1.419</gom:speed></extensions></trkpt>
   <trkpt lat="59.3232698853" lon="34.6744040247"><ele>163.869</ele><time>2026-08-16T12:59:14.138Z</time><hdop>3.062</hdop><vdop>2.5</vdop><extensions><gom:speed>1.423</gom:speed></extensions></trkpt>
   <trkpt lat="59.3232624673" lon="34.6744012587"><ele>164.087</ele><time>2026-08-16T12:59:14.705Z</time><hdop>3.125</hdop><vdop>2.5</vdop><extensions><gom:speed>1.414</gom:speed></extensions></trkpt>
   <trkpt lat="59.3232536663" lon="34.6743948884"><ele>164.254</ele><time>2026-08-16T12:59:15.402Z</time><hdop>3.062</hdop><vdop>2.5</vdop><extensions><gom:speed>1.449</gom:speed></extensions></trkpt>
   <trkpt lat="59.3232446977" lon="34.6743888535"><ele>164.451</ele><time>2026-08-16T12:59:16.138Z</time><hdop>3.0</hdop><vdop>2.5</vdop><extensions><gom:speed>1.442</gom:speed></extensions></trkpt>
   <trkpt lat="59.3232351842" lon="34.6743827347"><ele>164.569</ele><time>2026-08-16T12:59:16.864Z</time><hdop>3.0</hdop><vdop>2.5</vdop><extensions><gom:speed>1.445</gom:speed></extensions></trkpt>
   <trkpt lat="59.3232266766" lon="34.6743762806"><ele>164.552</ele><time>2026-08-16T12:59:17.591Z</time><hdop>3.0</hdop><vdop>2.5</vdop><extensions><gom:speed>1.437</gom:speed></extensions></trkpt>
   <trkpt lat="59.3232199711" lon="34.6743709162"><ele>164.682</ele><time>2026-08-16T12:59:18.138Z</time><hdop>3.0</hdop><vdop>2.5</vdop><extensions><gom:speed>1.456</gom:speed></extensions></trkpt>
   <trkpt lat="59.3232077754" lon="34.6743627858"><ele>164.759</ele><time>2026-08-16T12:59:19.083Z</time><hdop>3.0</hdop><vdop>2.5</vdop><extensions><gom:speed>1.443</gom:speed></extensions></trkpt>
   <trkpt lat="59.3231993935" lon="34.674353398"><ele>164.327</ele><time>2026-08-16T12:59:20.138Z</time><hdop>3.0</hdop><vdop>2.5</vdop><extensions><gom:speed>1.38</gom:speed></extensions></trkpt>
   <trkpt lat="59.3231903829" lon="34.6743462734"><ele>164.129</ele><time>2026-08-16T12:59:21.138Z</time><hdop>3.0</hdop><vdop>2.5</vdop><extensions><gom:speed>1.336</gom:speed></extensions></trkpt>
   <trkpt lat="59.3231797798" lon="34.6743386459"><ele>164.01</ele><time>2026-08-16T12:59:22.028Z</time><hdop>3.0</hdop><vdop>2.5</vdop><extensions><gom:speed>1.353</gom:speed></extensions></trkpt>
   <trkpt lat="59.323169973" lon="34.674335796"><ele>163.929</ele><time>2026-08-16T12:59:23.138Z</time><hdop>3.0</hdop><vdop>2.5</vdop><extensions><gom:speed>1.321</gom:speed></extensions></trkpt>
   <trkpt lat="59.3231591604" lon="34.6743321918"><ele>164.191</ele><time>2026-08-16T12:59:24.138Z</time><hdop>3.0</hdop><vdop>2.5</vdop><extensions><gom:speed>1.352</gom:speed></extensions></trkpt>
   <trkpt lat="59.3231473838" lon="34.6743270788"><ele>164.436</ele><time>2026-08-16T12:59:25.138Z</time><hdop>3.0</hdop><vdop>2.5</vdop><extensions><gom:speed>1.345</gom:speed></extensions></trkpt>
   <trkpt lat="59.3231413907" lon="34.6743238937"><ele>164.583</ele><time>2026-08-16T12:59:25.622Z</time><hdop>3.0</hdop><vdop>2.5</vdop><extensions><gom:speed>1.34</gom:speed></extensions></trkpt>
   <trkpt lat="59.3231350624" lon="34.6743209601"><ele>164.736</ele><time>2026-08-16T12:59:26.138Z</time><hdop>3.0</hdop><vdop>2.5</vdop><extensions><gom:speed>1.342</gom:speed></extensions></trkpt>
   <trkpt lat="59.3231280635" lon="34.6743170206"><ele>164.827</ele><time>2026-08-16T12:59:26.682Z</time><hdop>3.0</hdop><vdop>2.5</vdop><extensions><gom:speed>1.343</gom:speed></extensions></trkpt>
   <trkpt lat="59.3231219866" lon="34.6743156795"><ele>165.127</ele><time>2026-08-16T12:59:27.137Z</time><hdop>3.0</hdop><vdop>2.5</vdop><extensions><gom:speed>1.348</gom:speed></extensions></trkpt>
   <trkpt lat="59.3231132694" lon="34.6743124943"><ele>165.306</ele><time>2026-08-16T12:59:27.791Z</time><hdop>3.0</hdop><vdop>2.5</vdop><extensions><gom:speed>1.351</gom:speed></extensions></trkpt>
   <trkpt lat="59.3231029597" lon="34.674313584"><ele>165.654</ele><time>2026-08-16T12:59:28.528Z</time><hdop>3.0</hdop><vdop>2.5</vdop><extensions><gom:speed>1.369</gom:speed></extensions></trkpt>
   <trkpt lat="59.3230949969" lon="34.6743139193"><ele>165.647</ele><time>2026-08-16T12:59:29.137Z</time><hdop>3.0</hdop><vdop>2.5</vdop><extensions><gom:speed>1.379</gom:speed></extensions></trkpt>
   <trkpt lat="59.323088459" lon="34.6743129973"><ele>165.643</ele><time>2026-08-16T12:59:29.626Z</time><hdop>3.0</hdop><vdop>2.5</vdop><extensions><gom:speed>1.387</gom:speed></extensions></trkpt>
   <trkpt lat="59.3230822983" lon="34.6743110694"><ele>165.505</ele><time>2026-08-16T12:59:30.138Z</time><hdop>3.0</hdop><vdop>2.5</vdop><extensions><gom:speed>1.373</gom:speed></extensions></trkpt>
   <trkpt lat="59.3230711923" lon="34.6743064594"><ele>165.422</ele><time>2026-08-16T12:59:31.031Z</time><hdop>3.0</hdop><vdop>2.5</vdop><extensions><gom:speed>1.356</gom:speed></extensions></trkpt>
   <trkpt lat="59.3230580746" lon="34.6743017655"><ele>165.344</ele><time>2026-08-16T12:59:32.131Z</time><hdop>3.062</hdop><vdop>2.5</vdop><extensions><gom:speed>1.362</gom:speed></extensions></trkpt>
   <trkpt lat="59.3230482678" lon="34.6742921263"><ele>165.516</ele><time>2026-08-16T12:59:33.137Z</time><hdop>3.0</hdop><vdop>2.5</vdop><extensions><gom:speed>1.339</gom:speed></extensions></trkpt>
   <trkpt lat="59.3230372875" lon="34.6742823195"><ele>165.671</ele><time>2026-08-16T12:59:34.138Z</time><hdop>3.0</hdop><vdop>2.5</vdop><extensions><gom:speed>1.353</gom:speed></extensions></trkpt>
   <trkpt lat="59.3230256785" lon="34.6742763683"><ele>165.591</ele><time>2026-08-16T12:59:35.138Z</time><hdop>3.0</hdop><vdop>2.5</vdop><extensions><gom:speed>1.359</gom:speed></extensions></trkpt>
   <trkpt lat="59.3230138601" lon="34.6742706686"><ele>165.574</ele><time>2026-08-16T12:59:36.138Z</time><hdop>3.0</hdop><vdop>2.5</vdop><extensions><gom:speed>1.377</gom:speed></extensions></trkpt>
   <trkpt lat="59.3230011615" lon="34.6742611971"><ele>165.564</ele><time>2026-08-16T12:59:37.128Z</time><hdop>3.0</hdop><vdop>2.5</vdop><extensions><gom:speed>1.398</gom:speed></extensions></trkpt>
   <trkpt lat="59.3229908936" lon="34.674256587"><ele>165.457</ele><time>2026-08-16T12:59:38.137Z</time><hdop>3.0</hdop><vdop>2.5</vdop><extensions><gom:speed>1.386</gom:speed></extensions></trkpt>
   <trkpt lat="59.3229794943" lon="34.6742531505"><ele>165.255</ele><time>2026-08-16T12:59:39.138Z</time><hdop>3.0</hdop><vdop>2.5</vdop><extensions><gom:speed>1.381</gom:speed></extensions></trkpt>
   <trkpt lat="59.3229732916" lon="34.6742507197"><ele>165.135</ele><time>2026-08-16T12:59:39.651Z</time><hdop>3.0</hdop><vdop>2.5</vdop><extensions><gom:speed>1.371</gom:speed></extensions></trkpt>
   <trkpt lat="59.3229684721" lon="34.6742483728"><ele>165.041</ele><time>2026-08-16T12:59:40.138Z</time><hdop>3.0</hdop><vdop>2.5</vdop><extensions><gom:speed>1.385</gom:speed></extensions></trkpt>
   <trkpt lat="59.3229616827" lon="34.6742426731"><ele>164.985</ele><time>2026-08-16T12:59:40.711Z</time><hdop>3.0</hdop><vdop>2.5</vdop><extensions><gom:speed>1.399</gom:speed></extensions></trkpt>
   <trkpt lat="59.3229537618" lon="34.6742405776"><ele>165.001</ele><time>2026-08-16T12:59:41.428Z</time><hdop>3.0</hdop><vdop>2.5</vdop><extensions><gom:speed>1.432</gom:speed></extensions></trkpt>
   <trkpt lat="59.3229450865" lon="34.6742401585"><ele>164.884</ele><time>2026-08-16T12:59:42.138Z</time><hdop>3.0</hdop><vdop>2.5</vdop><extensions><gom:speed>1.44</gom:speed></extensions></trkpt>
   <trkpt lat="59.3229340643" lon="34.6742412482"><ele>164.815</ele><time>2026-08-16T12:59:42.949Z</time><hdop>3.0</hdop><vdop>2.5</vdop><extensions><gom:speed>1.447</gom:speed></extensions></trkpt>
   <trkpt lat="59.3229255986" lon="34.6742437627"><ele>164.816</ele><time>2026-08-16T12:59:43.686Z</time><hdop>3.0</hdop><vdop>2.5</vdop><extensions><gom:speed>1.447</gom:speed></extensions></trkpt>
   <trkpt lat="59.3229206952" lon="34.6742441818"><ele>164.658</ele><time>2026-08-16T12:59:44.138Z</time><hdop>3.0</hdop><vdop>2.5</vdop><extensions><gom:speed>1.409</gom:speed></extensions></trkpt>
   <trkpt lat="59.3229127743" lon="34.6742436789"><ele>164.563</ele><time>2026-08-16T12:59:44.805Z</time><hdop>3.0</hdop><vdop>2.5</vdop><extensions><gom:speed>1.405</gom:speed></extensions></trkpt>
   <trkpt lat="59.322900872" lon="34.6742492948"><ele>164.506</ele><time>2026-08-16T12:59:45.865Z</time><hdop>3.062</hdop><vdop>2.5</vdop><extensions><gom:speed>1.41</gom:speed></extensions></trkpt>
   <trkpt lat="59.3228876705" lon="34.6742549945"><ele>164.458</ele><time>2026-08-16T12:59:46.925Z</time><hdop>3.062</hdop><vdop>2.5</vdop><extensions><gom:speed>1.46</gom:speed></extensions></trkpt>
   <trkpt lat="59.3228737985" lon="34.6742557489"><ele>164.514</ele><time>2026-08-16T12:59:48.045Z</time><hdop>3.062</hdop><vdop>2.5</vdop><extensions><gom:speed>1.472</gom:speed></extensions></trkpt>
   <trkpt lat="59.3228616866" lon="34.674251055"><ele>164.495</ele><time>2026-08-16T12:59:49.137Z</time><hdop>3.062</hdop><vdop>2.5</vdop><extensions><gom:speed>1.443</gom:speed></extensions></trkpt>
   <trkpt lat="59.3228500777" lon="34.674248289"><ele>164.367</ele><time>2026-08-16T12:59:50.137Z</time><hdop>3.0</hdop><vdop>2.5</vdop><extensions><gom:speed>1.42</gom:speed></extensions></trkpt>
   <trkpt lat="59.3228430788" lon="34.6742476184"><ele>164.29</ele><time>2026-08-16T12:59:50.685Z</time><hdop>3.062</hdop><vdop>2.5</vdop><extensions><gom:speed>1.421</gom:speed></extensions></trkpt>
   <trkpt lat="59.3228386783" lon="34.6742480375"><ele>164.114</ele><time>2026-08-16T12:59:51.138Z</time><hdop>3.0</hdop><vdop>2.5</vdop><extensions><gom:speed>1.416</gom:speed></extensions></trkpt>
   <trkpt lat="59.3228308831" lon="34.6742487919"><ele>164.008</ele><time>2026-08-16T12:59:51.765Z</time><hdop>3.062</hdop><vdop>2.5</vdop><extensions><gom:speed>1.424</gom:speed></extensions></trkpt>
   <trkpt lat="59.3228191904" lon="34.6742497977"><ele>163.947</ele><time>2026-08-16T12:59:52.865Z</time><hdop>3.062</hdop><vdop>2.5</vdop><extensions><gom:speed>1.417</gom:speed></extensions></trkpt>
   <trkpt lat="59.3228066594" lon="34.6742471993"><ele>164.011</ele><time>2026-08-16T12:59:53.964Z</time><hdop>3.062</hdop><vdop>2.5</vdop><extensions><gom:speed>1.44</gom:speed></extensions></trkpt>
   <trkpt lat="59.3227995767" lon="34.6742460258"><ele>163.888</ele><time>2026-08-16T12:59:54.710Z</time><hdop>3.062</hdop><vdop>2.5</vdop><extensions><gom:speed>1.409</gom:speed></extensions></trkpt>
   <trkpt lat="59.3227879678" lon="34.6742407452"><ele>163.709</ele><time>2026-08-16T12:59:55.751Z</time><hdop>3.062</hdop><vdop>2.5</vdop><extensions><gom:speed>1.41</gom:speed></extensions></trkpt>
   <trkpt lat="59.3227728803" lon="34.6742287591"><ele>163.491</ele><time>2026-08-16T12:59:57.138Z</time><hdop>3.0</hdop><vdop>2.5</vdop><extensions><gom:speed>1.384</gom:speed></extensions></trkpt>
   <trkpt lat="59.3227624868" lon="34.6742199581"><ele>163.36</ele><time>2026-08-16T12:59:57.989Z</time><hdop>3.0</hdop><vdop>2.5</vdop><extensions><gom:speed>1.389</gom:speed></extensions></trkpt>
   <trkpt lat="59.3227508778" lon="34.6742125821"><ele>163.347</ele><time>2026-08-16T12:59:59.030Z</time><hdop>3.0</hdop><vdop>2.5</vdop><extensions><gom:speed>1.42</gom:speed></extensions></trkpt>
   <trkpt lat="59.3227372992" lon="34.6742111571"><ele>163.274</ele><time>2026-08-16T13:00:00.110Z</time><hdop>3.0</hdop><vdop>2.5</vdop><extensions><gom:speed>1.435</gom:speed></extensions></trkpt>
   <trkpt lat="59.32273227" lon="34.6742113248"><ele>163.091</ele><time>2026-08-16T13:00:00.562Z</time><hdop>3.0</hdop><vdop>2.5</vdop><extensions><gom:speed>1.419</gom:speed></extensions></trkpt>
   <trkpt lat="59.3227256902" lon="34.6742086426"><ele>163.121</ele><time>2026-08-16T13:00:01.138Z</time><hdop>3.0</hdop><vdop>2.5</vdop><extensions><gom:speed>1.402</gom:speed></extensions></trkpt>
   <trkpt lat="59.3227185656" lon="34.6742050383"><ele>163.138</ele><time>2026-08-16T13:00:01.690Z</time><hdop>3.0</hdop><vdop>2.5</vdop><extensions><gom:speed>1.413</gom:speed></extensions></trkpt>
   <trkpt lat="59.3227060766" lon="34.6741928846"><ele>163.078</ele><time>2026-08-16T13:00:02.790Z</time><hdop>3.0</hdop><vdop>2.5</vdop><extensions><gom:speed>1.402</gom:speed></extensions></trkpt>
   <trkpt lat="59.3226944676" lon="34.6741807308"><ele>162.989</ele><time>2026-08-16T13:00:03.890Z</time><hdop>3.0</hdop><vdop>2.5</vdop><extensions><gom:speed>1.363</gom:speed></extensions></trkpt>
   <trkpt lat="59.3226843674" lon="34.6741699182"><ele>162.914</ele><time>2026-08-16T13:00:04.989Z</time><hdop>3.0</hdop><vdop>2.5</vdop><extensions><gom:speed>1.338</gom:speed></extensions></trkpt>
   <trkpt lat="59.3226775781" lon="34.6741636317"><ele>162.723</ele><time>2026-08-16T13:00:05.745Z</time><hdop>3.0</hdop><vdop>2.5</vdop><extensions><gom:speed>1.311</gom:speed></extensions></trkpt>
   <trkpt lat="59.3226648795" lon="34.6741530705"><ele>162.565</ele><time>2026-08-16T13:00:07.138Z</time><hdop>3.062</hdop><vdop>2.5</vdop><extensions><gom:speed>1.269</gom:speed></extensions></trkpt>
   <trkpt lat="59.3226564976" lon="34.6741429284"><ele>162.471</ele><time>2026-08-16T13:00:07.983Z</time><hdop>3.062</hdop><vdop>2.5</vdop><extensions><gom:speed>1.293</gom:speed></extensions></trkpt>
   <trkpt lat="59.322644763" lon="34.674131529"><ele>162.481</ele><time>2026-08-16T13:00:09.083Z</time><hdop>3.062</hdop><vdop>2.5</vdop><extensions><gom:speed>1.302</gom:speed></extensions></trkpt>
   <trkpt lat="59.3226325673" lon="34.6741256617"><ele>162.552</ele><time>2026-08-16T13:00:10.124Z</time><hdop>3.062</hdop><vdop>2.5</vdop><extensions><gom:speed>1.315</gom:speed></extensions></trkpt>
   <trkpt lat="59.3226207907" lon="34.6741222251"><ele>162.499</ele><time>2026-08-16T13:00:11.138Z</time><hdop>3.0</hdop><vdop>2.5</vdop><extensions><gom:speed>1.326</gom:speed></extensions></trkpt>
   <trkpt lat="59.3226148815" lon="34.6741183695"><ele>162.467</ele><time>2026-08-16T13:00:11.626Z</time><hdop>3.0</hdop><vdop>2.5</vdop><extensions><gom:speed>1.328</gom:speed></extensions></trkpt>
   <trkpt lat="59.322609098" lon="34.6741141785"><ele>162.439</ele><time>2026-08-16T13:00:12.138Z</time><hdop>3.0</hdop><vdop>2.5</vdop><extensions><gom:speed>1.341</gom:speed></extensions></trkpt>
   <trkpt lat="59.3226020991" lon="34.6741091494"><ele>162.423</ele><time>2026-08-16T13:00:12.705Z</time><hdop>3.0</hdop><vdop>2.5</vdop><extensions><gom:speed>1.346</gom:speed></extensions></trkpt>
   <trkpt lat="59.3225940943" lon="34.6741063833"><ele>162.454</ele><time>2026-08-16T13:00:13.383Z</time><hdop>3.0</hdop><vdop>2.5</vdop><extensions><gom:speed>1.344</gom:speed></extensions></trkpt>
   <trkpt lat="59.3225855867" lon="34.6741048746"><ele>162.356</ele><time>2026-08-16T13:00:14.138Z</time><hdop>3.0</hdop><vdop>2.5</vdop><extensions><gom:speed>1.369</gom:speed></extensions></trkpt>
   <trkpt lat="59.3225759894" lon="34.6740985882"><ele>162.297</ele><time>2026-08-16T13:00:14.944Z</time><hdop>3.0</hdop><vdop>2.5</vdop><extensions><gom:speed>1.38</gom:speed></extensions></trkpt>
   <trkpt lat="59.3225692839" lon="34.6740910445"><ele>162.108</ele><time>2026-08-16T13:00:15.631Z</time><hdop>3.0</hdop><vdop>2.5</vdop><extensions><gom:speed>1.365</gom:speed></extensions></trkpt>
   <trkpt lat="59.322563668" lon="34.674086183"><ele>162.014</ele><time>2026-08-16T13:00:16.138Z</time><hdop>3.0</hdop><vdop>2.5</vdop><extensions><gom:speed>1.391</gom:speed></extensions></trkpt>
   <trkpt lat="59.3225513886" lon="34.6740770467"><ele>161.958</ele><time>2026-08-16T13:00:17.123Z</time><hdop>3.0</hdop><vdop>2.5</vdop><extensions><gom:speed>1.408</gom:speed></extensions></trkpt>
   <trkpt lat="59.3225408693" lon="34.674072269"><ele>161.968</ele><time>2026-08-16T13:00:18.138Z</time><hdop>3.0</hdop><vdop>2.5</vdop><extensions><gom:speed>1.361</gom:speed></extensions></trkpt>
   <trkpt lat="59.3225305595" lon="34.6740676589"><ele>161.974</ele><time>2026-08-16T13:00:18.949Z</time><hdop>3.0</hdop><vdop>2.5</vdop><extensions><gom:speed>1.377</gom:speed></extensions></trkpt>
   <trkpt lat="59.3225164779" lon="34.6740613725"><ele>161.997</ele><time>2026-08-16T13:00:20.068Z</time><hdop>3.0</hdop><vdop>2.5</vdop><extensions><gom:speed>1.377</gom:speed></extensions></trkpt>
   <trkpt lat="59.322504869" lon="34.6740550861"><ele>162.114</ele><time>2026-08-16T13:00:21.138Z</time><hdop>3.0</hdop><vdop>2.5</vdop><extensions><gom:speed>1.381</gom:speed></extensions></trkpt>
   <trkpt lat="59.3224926733" lon="34.6740535773"><ele>162.134</ele><time>2026-08-16T13:00:22.138Z</time><hdop>3.0</hdop><vdop>2.5</vdop><extensions><gom:speed>1.377</gom:speed></extensions></trkpt>
   <trkpt lat="59.3224854649" lon="34.6740543317"><ele>162.147</ele><time>2026-08-16T13:00:22.690Z</time><hdop>3.0</hdop><vdop>2.5</vdop><extensions><gom:speed>1.38</gom:speed></extensions></trkpt>
   <trkpt lat="59.322477083" lon="34.6740549185"><ele>162.269</ele><time>2026-08-16T13:00:23.485Z</time><hdop>3.0</hdop><vdop>2.5</vdop><extensions><gom:speed>1.346</gom:speed></extensions></trkpt>
   <trkpt lat="59.3224703775" lon="34.6740566787"><ele>162.368</ele><time>2026-08-16T13:00:24.138Z</time><hdop>3.0</hdop><vdop>2.5</vdop><extensions><gom:speed>1.304</gom:speed></extensions></trkpt>
   <trkpt lat="59.322461786" lon="34.6740562596"><ele>162.427</ele><time>2026-08-16T13:00:24.889Z</time><hdop>3.0</hdop><vdop>2.5</vdop><extensions><gom:speed>1.303</gom:speed></extensions></trkpt>
   <trkpt lat="59.3224528593" lon="34.6740507275"><ele>162.499</ele><time>2026-08-16T13:00:25.684Z</time><hdop>3.0</hdop><vdop>2.5</vdop><extensions><gom:speed>1.35</gom:speed></extensions></trkpt>
   <trkpt lat="59.3224474949" lon="34.674048632"><ele>162.549</ele><time>2026-08-16T13:00:26.138Z</time><hdop>3.0</hdop><vdop>2.5</vdop><extensions><gom:speed>1.355</gom:speed></extensions></trkpt>
   <trkpt lat="59.3224352992" lon="34.6740452793"><ele>162.579</ele><time>2026-08-16T13:00:27.107Z</time><hdop>3.0</hdop><vdop>2.5</vdop><extensions><gom:speed>1.397</gom:speed></extensions></trkpt>
   <trkpt lat="59.322427965" lon="34.674039831"><ele>162.644</ele><time>2026-08-16T13:00:27.863Z</time><hdop>3.0</hdop><vdop>2.5</vdop><extensions><gom:speed>1.369</gom:speed></extensions></trkpt>
   <trkpt lat="59.322417781" lon="34.674033377"><ele>162.629</ele><time>2026-08-16T13:00:28.845Z</time><hdop>3.0</hdop><vdop>2.5</vdop><extensions><gom:speed>1.44</gom:speed></extensions></trkpt>
   <trkpt lat="59.3224122909" lon="34.6740303595"><ele>162.684</ele><time>2026-08-16T13:00:29.346Z</time><hdop>3.0</hdop><vdop>2.5</vdop><extensions><gom:speed>1.466</gom:speed></extensions></trkpt>
   <trkpt lat="59.322402484" lon="34.6740269229"><ele>162.716</ele><time>2026-08-16T13:00:30.043Z</time><hdop>3.0</hdop><vdop>2.5</vdop><extensions><gom:speed>1.477</gom:speed></extensions></trkpt>
   <trkpt lat="59.3223892825" lon="34.6740257494"><ele>162.861</ele><time>2026-08-16T13:00:31.064Z</time><hdop>3.0</hdop><vdop>2.5</vdop><extensions><gom:speed>1.478</gom:speed></extensions></trkpt>
   <trkpt lat="59.3223835828" lon="34.6740244921"><ele>163.027</ele><time>2026-08-16T13:00:31.545Z</time><hdop>3.0</hdop><vdop>2.5</vdop><extensions><gom:speed>1.462</gom:speed></extensions></trkpt>
   <trkpt lat="59.3223759972" lon="34.6740201336"><ele>163.13</ele><time>2026-08-16T13:00:32.138Z</time><hdop>3.0</hdop><vdop>2.5</vdop><extensions><gom:speed>1.471</gom:speed></extensions></trkpt>
   <trkpt lat="59.3223693755" lon="34.6740153559"><ele>163.192</ele><time>2026-08-16T13:00:32.625Z</time><hdop>3.0</hdop><vdop>2.5</vdop><extensions><gom:speed>1.469</gom:speed></extensions></trkpt>
   <trkpt lat="59.3223631729" lon="34.6740108296"><ele>163.237</ele><time>2026-08-16T13:00:33.138Z</time><hdop>3.0</hdop><vdop>2.5</vdop><extensions><gom:speed>1.438</gom:speed></extensions></trkpt>
   <trkpt lat="59.322356174" lon="34.6740052976"><ele>163.264</ele><time>2026-08-16T13:00:33.685Z</time><hdop>3.0</hdop><vdop>2.5</vdop><extensions><gom:speed>1.439</gom:speed></extensions></trkpt>
   <trkpt lat="59.3223517735" lon="34.6740005199"><ele>163.119</ele><time>2026-08-16T13:00:34.138Z</time><hdop>3.0</hdop><vdop>2.5</vdop><extensions><gom:speed>1.402</gom:speed></extensions></trkpt>
   <trkpt lat="59.3223443975" lon="34.6739927247"><ele>163.032</ele><time>2026-08-16T13:00:34.784Z</time><hdop>3.0</hdop><vdop>2.5</vdop><extensions><gom:speed>1.382</gom:speed></extensions></trkpt>
   <trkpt lat="59.3223381948" lon="34.6739877794"><ele>163.062</ele><time>2026-08-16T13:00:35.442Z</time><hdop>3.0</hdop><vdop>2.5</vdop><extensions><gom:speed>1.371</gom:speed></extensions></trkpt>
   <trkpt lat="59.322332579" lon="34.6739834208"><ele>163.08</ele><time>2026-08-16T13:00:35.923Z</time><hdop>3.0</hdop><vdop>2.5</vdop><extensions><gom:speed>1.403</gom:speed></extensions></trkpt>
   <trkpt lat="59.3223248676" lon="34.6739781402"><ele>163.162</ele><time>2026-08-16T13:00:36.689Z</time><hdop>3.0</hdop><vdop>2.5</vdop><extensions><gom:speed>1.394</gom:speed></extensions></trkpt>
   <trkpt lat="59.3223097802" lon="34.6739633881"><ele>163.131</ele><time>2026-08-16T13:00:38.063Z</time><hdop>3.0</hdop><vdop>2.5</vdop><extensions><gom:speed>1.367</gom:speed></extensions></trkpt>
   <trkpt lat="59.3223036614" lon="34.6739558444"><ele>163.064</ele><time>2026-08-16T13:00:38.751Z</time><hdop>3.062</hdop><vdop>2.5</vdop><extensions><gom:speed>1.354</gom:speed></extensions></trkpt>
   <trkpt lat="59.3222918848" lon="34.6739486359"><ele>162.929</ele><time>2026-08-16T13:00:39.830Z</time><hdop>3.062</hdop><vdop>2.5</vdop><extensions><gom:speed>1.355</gom:speed></extensions></trkpt>
   <trkpt lat="59.3222873586" lon="34.673946289"><ele>162.95</ele><time>2026-08-16T13:00:40.282Z</time><hdop>3.062</hdop><vdop>2.5</vdop><extensions><gom:speed>1.393</gom:speed></extensions></trkpt>
   <trkpt lat="59.3222777613" lon="34.6739399187"><ele>162.963</ele><time>2026-08-16T13:00:40.989Z</time><hdop>3.062</hdop><vdop>2.5</vdop><extensions><gom:speed>1.416</gom:speed></extensions></trkpt>
   <trkpt lat="59.3222639731" lon="34.6739279326"><ele>162.961</ele><time>2026-08-16T13:00:42.147Z</time><hdop>3.062</hdop><vdop>2.5</vdop><extensions><gom:speed>1.439</gom:speed></extensions></trkpt>
   <trkpt lat="59.3222541663" lon="34.67392173"><ele>162.932</ele><time>2026-08-16T13:00:43.031Z</time><hdop>3.062</hdop><vdop>2.5</vdop><extensions><gom:speed>1.429</gom:speed></extensions></trkpt>
   <trkpt lat="59.3222492629" lon="34.6739206404"><ele>162.9</ele><time>2026-08-16T13:00:43.522Z</time><hdop>3.062</hdop><vdop>2.5</vdop><extensions><gom:speed>1.422</gom:speed></extensions></trkpt>
   <trkpt lat="59.3222423897" lon="34.6739188802"><ele>162.874</ele><time>2026-08-16T13:00:44.138Z</time><hdop>3.0</hdop><vdop>2.5</vdop><extensions><gom:speed>1.417</gom:speed></extensions></trkpt>
   <trkpt lat="59.3222358937" lon="34.6739165332"><ele>162.859</ele><time>2026-08-16T13:00:44.651Z</time><hdop>3.0</hdop><vdop>2.5</vdop><extensions><gom:speed>1.429</gom:speed></extensions></trkpt>
   <trkpt lat="59.3222303617" lon="34.6739149407"><ele>162.888</ele><time>2026-08-16T13:00:45.138Z</time><hdop>3.0</hdop><vdop>2.5</vdop><extensions><gom:speed>1.391</gom:speed></extensions></trkpt>
   <trkpt lat="59.3222230694" lon="34.6739113365"><ele>162.906</ele><time>2026-08-16T13:00:45.711Z</time><hdop>3.0</hdop><vdop>2.5</vdop><extensions><gom:speed>1.384</gom:speed></extensions></trkpt>
   <trkpt lat="59.3222152742" lon="34.6739035413"><ele>163.0</ele><time>2026-08-16T13:00:46.467Z</time><hdop>3.0</hdop><vdop>2.5</vdop><extensions><gom:speed>1.366</gom:speed></extensions></trkpt>
   <trkpt lat="59.3222084849" lon="34.6738955785"><ele>163.073</ele><time>2026-08-16T13:00:47.138Z</time><hdop>3.0</hdop><vdop>2.5</vdop><extensions><gom:speed>1.334</gom:speed></extensions></trkpt>
   <trkpt lat="59.3221993905" lon="34.6738859393"><ele>163.116</ele><time>2026-08-16T13:00:47.969Z</time><hdop>3.0</hdop><vdop>2.5</vdop><extensions><gom:speed>1.304</gom:speed></extensions></trkpt>
   <trkpt lat="59.3221878654" lon="34.6738739532"><ele>163.073</ele><time>2026-08-16T13:00:49.088Z</time><hdop>3.0</hdop><vdop>2.5</vdop><extensions><gom:speed>1.28</gom:speed></extensions></trkpt>
   <trkpt lat="59.3221805732" lon="34.6738660742"><ele>162.975</ele><time>2026-08-16T13:00:49.844Z</time><hdop>3.0</hdop><vdop>2.5</vdop><extensions><gom:speed>1.271</gom:speed></extensions></trkpt>
   <trkpt lat="59.3221691738" lon="34.6738552615"><ele>162.987</ele><time>2026-08-16T13:00:50.885Z</time><hdop>3.0</hdop><vdop>2.5</vdop><extensions><gom:speed>1.278</gom:speed></extensions></trkpt>
   <trkpt lat="59.3221553855" lon="34.6738466282"><ele>162.948</ele><time>2026-08-16T13:00:52.023Z</time><hdop>3.0</hdop><vdop>2.5</vdop><extensions><gom:speed>1.318</gom:speed></extensions></trkpt>
   <trkpt lat="59.3221420583" lon="34.6738407608"><ele>163.074</ele><time>2026-08-16T13:00:53.138Z</time><hdop>3.0</hdop><vdop>2.5</vdop><extensions><gom:speed>1.331</gom:speed></extensions></trkpt>
   <trkpt lat="59.3221300722" lon="34.6738330495"><ele>163.164</ele><time>2026-08-16T13:00:54.138Z</time><hdop>3.0</hdop><vdop>2.5</vdop><extensions><gom:speed>1.345</gom:speed></extensions></trkpt>
   <trkpt lat="59.3221181699" lon="34.6738266792"><ele>163.307</ele><time>2026-08-16T13:00:55.138Z</time><hdop>3.0</hdop><vdop>2.5</vdop><extensions><gom:speed>1.318</gom:speed></extensions></trkpt>
   <trkpt lat="59.3221112967" lon="34.6738224883"><ele>163.392</ele><time>2026-08-16T13:00:55.705Z</time><hdop>3.0</hdop><vdop>2.5</vdop><extensions><gom:speed>1.309</gom:speed></extensions></trkpt>
   <trkpt lat="59.3220997716" lon="34.6738125976"><ele>163.433</ele><time>2026-08-16T13:00:56.804Z</time><hdop>3.0</hdop><vdop>2.5</vdop><extensions><gom:speed>1.278</gom:speed></extensions></trkpt>
   <trkpt lat="59.3220928984" lon="34.6738061436"><ele>163.404</ele><time>2026-08-16T13:00:57.531Z</time><hdop>3.0</hdop><vdop>2.5</vdop><extensions><gom:speed>1.297</gom:speed></extensions></trkpt>
   <trkpt lat="59.3220868635" lon="34.6738005277"><ele>163.46</ele><time>2026-08-16T13:00:58.138Z</time><hdop>3.0</hdop><vdop>2.5</vdop><extensions><gom:speed>1.301</gom:speed></extensions></trkpt>
   <trkpt lat="59.3220776853" lon="34.6737915591"><ele>163.494</ele><time>2026-08-16T13:00:58.984Z</time><hdop>3.0</hdop><vdop>2.5</vdop><extensions><gom:speed>1.3</gom:speed></extensions></trkpt>
   <trkpt lat="59.3220662859" lon="34.6737825904"><ele>163.428</ele><time>2026-08-16T13:01:00.064Z</time><hdop>3.062</hdop><vdop>2.5</vdop><extensions><gom:speed>1.321</gom:speed></extensions></trkpt>
   <trkpt lat="59.3220565629" lon="34.6737731189"><ele>163.384</ele><time>2026-08-16T13:01:01.138Z</time><hdop>3.062</hdop><vdop>2.5</vdop><extensions><gom:speed>1.339</gom:speed></extensions></trkpt>
   <trkpt lat="59.3220479714" lon="34.6737658266"><ele>163.358</ele><time>2026-08-16T13:01:01.890Z</time><hdop>3.0</hdop><vdop>2.5</vdop><extensions><gom:speed>1.338</gom:speed></extensions></trkpt>
   <trkpt lat="59.3220357758" lon="34.6737485599"><ele>163.506</ele><time>2026-08-16T13:01:03.138Z</time><hdop>3.0</hdop><vdop>2.5</vdop><extensions><gom:speed>1.362</gom:speed></extensions></trkpt>
   <trkpt lat="59.3220250889" lon="34.673732299"><ele>163.594</ele><time>2026-08-16T13:01:04.108Z</time><hdop>3.0</hdop><vdop>2.5</vdop><extensions><gom:speed>1.383</gom:speed></extensions></trkpt>
   <trkpt lat="59.3220139828" lon="34.6737169601"><ele>163.632</ele><time>2026-08-16T13:01:05.138Z</time><hdop>3.0</hdop><vdop>2.5</vdop><extensions><gom:speed>1.4</gom:speed></extensions></trkpt>
   <trkpt lat="59.3220030864" lon="34.6737023756"><ele>163.614</ele><time>2026-08-16T13:01:06.138Z</time><hdop>3.0</hdop><vdop>2.5</vdop><extensions><gom:speed>1.387</gom:speed></extensions></trkpt>
   <trkpt lat="59.3219979734" lon="34.6736949995"><ele>163.603</ele><time>2026-08-16T13:01:06.602Z</time><hdop>3.0</hdop><vdop>2.5</vdop><extensions><gom:speed>1.385</gom:speed></extensions></trkpt>
   <trkpt lat="59.3219929862" lon="34.6736866176"><ele>163.693</ele><time>2026-08-16T13:01:07.138Z</time><hdop>3.0</hdop><vdop>2.5</vdop><extensions><gom:speed>1.363</gom:speed></extensions></trkpt>
   <trkpt lat="59.3219867836" lon="34.6736762241"><ele>163.747</ele><time>2026-08-16T13:01:07.750Z</time><hdop>3.0</hdop><vdop>2.5</vdop><extensions><gom:speed>1.357</gom:speed></extensions></trkpt>
   <trkpt lat="59.3219761804" lon="34.6736606337"><ele>163.699</ele><time>2026-08-16T13:01:08.850Z</time><hdop>3.0</hdop><vdop>2.5</vdop><extensions><gom:speed>1.332</gom:speed></extensions></trkpt>
   <trkpt lat="59.3219657869" lon="34.6736445405"><ele>163.753</ele><time>2026-08-16T13:01:09.950Z</time><hdop>3.0</hdop><vdop>2.5</vdop><extensions><gom:speed>1.327</gom:speed></extensions></trkpt>
   <trkpt lat="59.3219583689" lon="34.6736339793"><ele>163.761</ele><time>2026-08-16T13:01:10.725Z</time><hdop>3.0</hdop><vdop>2.5</vdop><extensions><gom:speed>1.311</gom:speed></extensions></trkpt>
   <trkpt lat="59.3219444969" lon="34.6736110967"><ele>163.623</ele><time>2026-08-16T13:01:12.149Z</time><hdop>3.0</hdop><vdop>2.5</vdop><extensions><gom:speed>1.341</gom:speed></extensions></trkpt>
   <trkpt lat="59.3219387972" lon="34.6736014575"><ele>163.503</ele><time>2026-08-16T13:01:12.766Z</time><hdop>3.0</hdop><vdop>2.5</vdop><extensions><gom:speed>1.331</gom:speed></extensions></trkpt>
   <trkpt lat="59.3219343967" lon="34.6735946681"><ele>163.469</ele><time>2026-08-16T13:01:13.268Z</time><hdop>3.0</hdop><vdop>2.5</vdop><extensions><gom:speed>1.319</gom:speed></extensions></trkpt>
   <trkpt lat="59.3219295771" lon="34.6735858672"><ele>163.449</ele><time>2026-08-16T13:01:13.788Z</time><hdop>3.0</hdop><vdop>2.5</vdop><extensions><gom:speed>1.318</gom:speed></extensions></trkpt>
   <trkpt lat="59.3219236678" lon="34.6735709474"><ele>163.485</ele><time>2026-08-16T13:01:14.583Z</time><hdop>3.0</hdop><vdop>2.5</vdop><extensions><gom:speed>1.329</gom:speed></extensions></trkpt>
   <trkpt lat="59.3219217819" lon="34.6735610567"><ele>163.448</ele><time>2026-08-16T13:01:15.138Z</time><hdop>3.0</hdop><vdop>2.5</vdop><extensions><gom:speed>1.294</gom:speed></extensions></trkpt>
   <trkpt lat="59.3219241707" lon="34.6735502441"><ele>163.426</ele><time>2026-08-16T13:01:15.653Z</time><hdop>3.0</hdop><vdop>2.5</vdop><extensions><gom:speed>1.285</gom:speed></extensions></trkpt>
   <trkpt lat="59.3219230811" lon="34.6735441253"><ele>163.467</ele><time>2026-08-16T13:01:16.138Z</time><hdop>3.0</hdop><vdop>2.5</vdop><extensions><gom:speed>1.233</gom:speed></extensions></trkpt>
   <trkpt lat="59.3219214885" lon="34.6735341508"><ele>163.492</ele><time>2026-08-16T13:01:16.694Z</time><hdop>3.0</hdop><vdop>2.5</vdop><extensions><gom:speed>1.198</gom:speed></extensions></trkpt>
   <trkpt lat="59.3219133581" lon="34.6735321392"><ele>163.502</ele><time>2026-08-16T13:01:17.234Z</time><hdop>3.0</hdop><vdop>2.5</vdop><extensions><gom:speed>1.15</gom:speed></extensions></trkpt>
   <trkpt lat="59.3219079937" lon="34.6735237572"><ele>163.507</ele><time>2026-08-16T13:01:17.862Z</time><hdop>3.0</hdop><vdop>2.5</vdop><extensions><gom:speed>1.145</gom:speed></extensions></trkpt>
   <trkpt lat="59.3218980611" lon="34.673525266"><ele>163.498</ele><time>2026-08-16T13:01:18.402Z</time><hdop>3.0</hdop><vdop>2.5</vdop><extensions><gom:speed>1.145</gom:speed></extensions></trkpt>
   <trkpt lat="59.3218927805" lon="34.6735218294"><ele>163.492</ele><time>2026-08-16T13:01:18.922Z</time><hdop>3.062</hdop><vdop>2.5</vdop><extensions><gom:speed>1.129</gom:speed></extensions></trkpt>
   <trkpt lat="59.321880962" lon="34.6735262718"><ele>163.424</ele><time>2026-08-16T13:01:19.541Z</time><hdop>3.062</hdop><vdop>2.5</vdop><extensions><gom:speed>1.203</gom:speed></extensions></trkpt>
   <trkpt lat="59.3218746756" lon="34.6735296246"><ele>163.383</ele><time>2026-08-16T13:01:20.100Z</time><hdop>3.125</hdop><vdop>2.5</vdop><extensions><gom:speed>1.121</gom:speed></extensions></trkpt>
   <trkpt lat="59.3218674672" lon="34.6735310495"><ele>163.377</ele><time>2026-08-16T13:01:20.679Z</time><hdop>3.125</hdop><vdop>2.5</vdop><extensions><gom:speed>1.152</gom:speed></extensions></trkpt>
   <trkpt lat="59.3218625637" lon="34.6735290378"><ele>163.419</ele><time>2026-08-16T13:01:21.138Z</time><hdop>3.125</hdop><vdop>2.5</vdop><extensions><gom:speed>1.08</gom:speed></extensions></trkpt>
   <trkpt lat="59.3218552715" lon="34.673530798"><ele>163.444</ele><time>2026-08-16T13:01:21.856Z</time><hdop>3.187</hdop><vdop>2.5</vdop><extensions><gom:speed>1.086</gom:speed></extensions></trkpt>
   <trkpt lat="59.3218492784" lon="34.6735248469"><ele>163.441</ele><time>2026-08-16T13:01:22.378Z</time><hdop>3.187</hdop><vdop>2.5</vdop><extensions><gom:speed>1.083</gom:speed></extensions></trkpt>
   <trkpt lat="59.3218431596" lon="34.6735258527"><ele>163.439</ele><time>2026-08-16T13:01:22.957Z</time><hdop>3.25</hdop><vdop>2.5</vdop><extensions><gom:speed>1.101</gom:speed></extensions></trkpt>
   <trkpt lat="59.3218375857" lon="34.6735147886"><ele>163.398</ele><time>2026-08-16T13:01:23.438Z</time><hdop>3.25</hdop><vdop>2.5</vdop><extensions><gom:speed>1.125</gom:speed></extensions></trkpt>
   <trkpt lat="59.3218305868" lon="34.6735007908"><ele>163.372</ele><time>2026-08-16T13:01:24.138Z</time><hdop>3.25</hdop><vdop>2.5</vdop><extensions><gom:speed>1.105</gom:speed></extensions></trkpt>
   <trkpt lat="59.3218239651" lon="34.673476148"><ele>163.356</ele><time>2026-08-16T13:01:25.138Z</time><hdop>3.187</hdop><vdop>2.5</vdop><extensions><gom:speed>1.074</gom:speed></extensions></trkpt>
   <trkpt lat="59.3218226659" lon="34.6734508347"><ele>163.266</ele><time>2026-08-16T13:01:26.137Z</time><hdop>3.187</hdop><vdop>2.5</vdop><extensions><gom:speed>1.082</gom:speed></extensions></trkpt>
   <trkpt lat="59.3218205704" lon="34.6734530978"><ele>163.213</ele><time>2026-08-16T13:01:26.865Z</time><hdop>3.187</hdop><vdop>2.5</vdop><extensions><gom:speed>1.24</gom:speed></extensions></trkpt>
   <trkpt lat="59.3218172596" lon="34.6734426204"><ele>163.33</ele><time>2026-08-16T13:01:27.325Z</time><hdop>3.25</hdop><vdop>2.5</vdop><extensions><gom:speed>0.831</gom:speed></extensions></trkpt>
   <trkpt lat="59.3218152898" lon="34.6734348253"><ele>163.399</ele><time>2026-08-16T13:01:27.866Z</time><hdop>3.375</hdop><vdop>2.5</vdop><extensions><gom:speed>1.091</gom:speed></extensions></trkpt>
   <trkpt lat="59.3217998671" lon="34.673407165"><ele>163.411</ele><time>2026-08-16T13:01:28.966Z</time><hdop>3.5</hdop><vdop>2.5</vdop><extensions><gom:speed>1.318</gom:speed></extensions></trkpt>
   <trkpt lat="59.321790186" lon="34.6733919937"><ele>163.308</ele><time>2026-08-16T13:01:29.506Z</time><hdop>3.562</hdop><vdop>2.5</vdop><extensions><gom:speed>1.354</gom:speed></extensions></trkpt>
   <trkpt lat="59.3217844863" lon="34.6733829413"><ele>163.247</ele><time>2026-08-16T13:01:29.987Z</time><hdop>3.562</hdop><vdop>2.5</vdop><extensions><gom:speed>1.357</gom:speed></extensions></trkpt>
   <trkpt lat="59.321774889" lon="34.6733673509"><ele>163.216</ele><time>2026-08-16T13:01:30.742Z</time><hdop>3.625</hdop><vdop>2.5</vdop><extensions><gom:speed>1.359</gom:speed></extensions></trkpt>
   <trkpt lat="59.3217632801" lon="34.6733493298"><ele>163.117</ele><time>2026-08-16T13:01:31.783Z</time><hdop>3.687</hdop><vdop>2.5</vdop><extensions><gom:speed>1.342</gom:speed></extensions></trkpt>
   <trkpt lat="59.3217513778" lon="34.6733281236"><ele>163.057</ele><time>2026-08-16T13:01:32.942Z</time><hdop>3.562</hdop><vdop>2.5</vdop><extensions><gom:speed>1.375</gom:speed></extensions></trkpt>
   <trkpt lat="59.3217409842" lon="34.6733076718"><ele>163.181</ele><time>2026-08-16T13:01:34.138Z</time><hdop>3.312</hdop><vdop>2.5</vdop><extensions><gom:speed>1.381</gom:speed></extensions></trkpt>
   <trkpt lat="59.3217324766" lon="34.6732898183"><ele>163.209</ele><time>2026-08-16T13:01:35.138Z</time><hdop>3.187</hdop><vdop>2.5</vdop><extensions><gom:speed>1.359</gom:speed></extensions></trkpt>
   <trkpt lat="59.3217241785" lon="34.6732704561"><ele>163.229</ele><time>2026-08-16T13:01:36.138Z</time><hdop>3.125</hdop><vdop>2.5</vdop><extensions><gom:speed>1.336</gom:speed></extensions></trkpt>
   <trkpt lat="59.321719778" lon="34.6732607331"><ele>163.24</ele><time>2026-08-16T13:01:36.643Z</time><hdop>3.062</hdop><vdop>2.5</vdop><extensions><gom:speed>1.335</gom:speed></extensions></trkpt>
   <trkpt lat="59.3217158804" lon="34.6732514292"><ele>163.213</ele><time>2026-08-16T13:01:37.138Z</time><hdop>3.0</hdop><vdop>2.5</vdop><extensions><gom:speed>1.327</gom:speed></extensions></trkpt>
   <trkpt lat="59.321709594" lon="34.673239946"><ele>163.197</ele><time>2026-08-16T13:01:37.801Z</time><hdop>3.062</hdop><vdop>2.5</vdop><extensions><gom:speed>1.315</gom:speed></extensions></trkpt>
   <trkpt lat="59.321699871" lon="34.6732204162"><ele>163.225</ele><time>2026-08-16T13:01:38.960Z</time><hdop>3.0</hdop><vdop>2.5</vdop><extensions><gom:speed>1.277</gom:speed></extensions></trkpt>
   <trkpt lat="59.3216916987" lon="34.6732009702"><ele>163.19</ele><time>2026-08-16T13:01:40.069Z</time><hdop>3.062</hdop><vdop>2.5</vdop><extensions><gom:speed>1.267</gom:speed></extensions></trkpt>
   <trkpt lat="59.3216867952" lon="34.6731861342"><ele>163.195</ele><time>2026-08-16T13:01:40.903Z</time><hdop>3.062</hdop><vdop>2.5</vdop><extensions><gom:speed>1.248</gom:speed></extensions></trkpt>
   <trkpt lat="59.3216782876" lon="34.6731666882"><ele>163.245</ele><time>2026-08-16T13:01:42.062Z</time><hdop>3.0</hdop><vdop>2.5</vdop><extensions><gom:speed>1.277</gom:speed></extensions></trkpt>
   <trkpt lat="59.3216703667" lon="34.6731509302"><ele>163.273</ele><time>2026-08-16T13:01:43.138Z</time><hdop>3.0</hdop><vdop>2.5</vdop><extensions><gom:speed>1.264</gom:speed></extensions></trkpt>
   <trkpt lat="59.3216627811" lon="34.6731349208"><ele>163.272</ele><time>2026-08-16T13:01:44.138Z</time><hdop>3.0</hdop><vdop>2.5</vdop><extensions><gom:speed>1.286</gom:speed></extensions></trkpt>
   <trkpt lat="59.3216587997" lon="34.6731259521"><ele>163.27</ele><time>2026-08-16T13:01:44.644Z</time><hdop>3.0</hdop><vdop>2.5</vdop><extensions><gom:speed>1.287</gom:speed></extensions></trkpt>
   <trkpt lat="59.3216557822" lon="34.673117654"><ele>163.3</ele><time>2026-08-16T13:01:45.138Z</time><hdop>3.0</hdop><vdop>2.5</vdop><extensions><gom:speed>1.261</gom:speed></extensions></trkpt>
   <trkpt lat="59.3216502921" lon="34.6731028181"><ele>163.317</ele><time>2026-08-16T13:01:45.881Z</time><hdop>3.0</hdop><vdop>2.5</vdop><extensions><gom:speed>1.263</gom:speed></extensions></trkpt>
   <trkpt lat="59.3216483642" lon="34.6730905805"><ele>163.378</ele><time>2026-08-16T13:01:46.646Z</time><hdop>3.0</hdop><vdop>2.5</vdop><extensions><gom:speed>1.164</gom:speed></extensions></trkpt>
   <trkpt lat="59.3216495796" lon="34.6730830368"><ele>163.439</ele><time>2026-08-16T13:01:47.138Z</time><hdop>3.0</hdop><vdop>2.5</vdop><extensions><gom:speed>1.04</gom:speed></extensions></trkpt>
   <trkpt lat="59.3216515912" lon="34.6730692905"><ele>163.476</ele><time>2026-08-16T13:01:47.903Z</time><hdop>3.0</hdop><vdop>2.5</vdop><extensions><gom:speed>1.044</gom:speed></extensions></trkpt>
   <trkpt lat="59.3216561594" lon="34.6730632555"><ele>163.517</ele><time>2026-08-16T13:01:48.384Z</time><hdop>3.0</hdop><vdop>2.5</vdop><extensions><gom:speed>0.963</gom:speed></extensions></trkpt>
   <trkpt lat="59.3216597636" lon="34.6730533648"><ele>163.542</ele><time>2026-08-16T13:01:49.061Z</time><hdop>3.0</hdop><vdop>2.5</vdop><extensions><gom:speed>0.903</gom:speed></extensions></trkpt>
   <trkpt lat="59.3216677683" lon="34.67304448"><ele>163.717</ele><time>2026-08-16T13:01:49.866Z</time><hdop>3.0</hdop><vdop>2.5</vdop><extensions><gom:speed>0.963</gom:speed></extensions></trkpt>
   <trkpt lat="59.3216777847" lon="34.673040792"><ele>163.944</ele><time>2026-08-16T13:01:51.138Z</time><hdop>3.0</hdop><vdop>2.5</vdop><extensions><gom:speed>0.575</gom:speed></extensions></trkpt>
   <trkpt lat="59.3216795868" lon="34.6730431389"><ele>164.081</ele><time>2026-08-16T13:01:52.138Z</time><hdop>3.0</hdop><vdop>2.5</vdop><extensions><gom:speed>0.266</gom:speed></extensions></trkpt>
   <trkpt lat="59.3216805926" lon="34.673043558"><ele>164.164</ele><time>2026-08-16T13:01:52.861Z</time><hdop>3.0</hdop><vdop>2.5</vdop><extensions><gom:speed>0.273</gom:speed></extensions></trkpt>
   <trkpt lat="59.321685999" lon="34.6730427198"><ele>164.583</ele><time>2026-08-16T13:01:54.138Z</time><hdop>3.0</hdop><vdop>2.5</vdop><extensions><gom:speed>0.142</gom:speed></extensions></trkpt>
   <trkpt lat="59.3216876753" lon="34.6730440609"><ele>164.836</ele><time>2026-08-16T13:01:55.138Z</time><hdop>3.0</hdop><vdop>2.5</vdop><extensions><gom:speed>0.086</gom:speed></extensions></trkpt>
   <trkpt lat="59.3216891841" lon="34.6730460726"><ele>164.991</ele><time>2026-08-16T13:01:56.138Z</time><hdop>3.0</hdop><vdop>2.5</vdop><extensions><gom:speed>0.075</gom:speed></extensions></trkpt>
   <trkpt lat="59.3216907766" lon="34.6730472461"><ele>165.08</ele><time>2026-08-16T13:01:57.138Z</time><hdop>3.0</hdop><vdop>2.5</vdop><extensions><gom:speed>0.024</gom:speed></extensions></trkpt>
   <trkpt lat="59.3216913634" lon="34.6730476651"><ele>165.135</ele><time>2026-08-16T13:01:58.138Z</time><hdop>3.0</hdop><vdop>2.5</vdop><extensions><gom:speed>0.016</gom:speed></extensions></trkpt>
   <trkpt lat="59.3216916987" lon="34.6730487548"><ele>165.168</ele><time>2026-08-16T13:01:59.138Z</time><hdop>3.0</hdop><vdop>2.5</vdop><extensions><gom:speed>0.059</gom:speed></extensions></trkpt>
   <trkpt lat="59.3216918663" lon="34.6730502635"><ele>165.19</ele><time>2026-08-16T13:02:00.138Z</time><hdop>3.0</hdop><vdop>2.5</vdop><extensions><gom:speed>0.062</gom:speed></extensions></trkpt>
   <trkpt lat="59.3216923692" lon="34.673051437"><ele>165.209</ele><time>2026-08-16T13:02:01.138Z</time><hdop>3.0</hdop><vdop>2.5</vdop><extensions><gom:speed>0.012</gom:speed></extensions></trkpt>
   <trkpt lat="59.3216930817" lon="34.6730525267"><ele>165.224</ele><time>2026-08-16T13:02:02.137Z</time><hdop>3.0</hdop><vdop>2.5</vdop><extensions><gom:speed>0.016</gom:speed></extensions></trkpt>
   <trkpt lat="59.3216938779" lon="34.6730537839"><ele>165.233</ele><time>2026-08-16T13:02:03.138Z</time><hdop>3.0</hdop><vdop>2.5</vdop><extensions><gom:speed>0.065</gom:speed></extensions></trkpt>
   <trkpt lat="59.321694297" lon="34.6730533648"><ele>165.248</ele><time>2026-08-16T13:02:04.138Z</time><hdop>3.0</hdop><vdop>2.5</vdop><extensions><gom:speed>0.066</gom:speed></extensions></trkpt>
   <trkpt lat="59.3216946742" lon="34.6730537839"><ele>165.268</ele><time>2026-08-16T13:02:05.138Z</time><hdop>3.0</hdop><vdop>2.5</vdop><extensions><gom:speed>0.015</gom:speed></extensions></trkpt>
   <trkpt lat="59.3216944647" lon="34.6730546221"><ele>165.286</ele><time>2026-08-16T13:02:06.138Z</time><hdop>3.0</hdop><vdop>2.5</vdop><extensions><gom:speed>0.021</gom:speed></extensions></trkpt>
   <trkpt lat="59.3216953867" lon="34.6730546221"><ele>165.289</ele><time>2026-08-16T13:02:07.138Z</time><hdop>3.0</hdop><vdop>2.5</vdop><extensions><gom:speed>0.06</gom:speed></extensions></trkpt>
   <trkpt lat="59.3216963925" lon="34.6730548736"><ele>165.285</ele><time>2026-08-16T13:02:08.138Z</time><hdop>3.0</hdop><vdop>2.5</vdop><extensions><gom:speed>0.011</gom:speed></extensions></trkpt>
   <trkpt lat="59.3216962668" lon="34.6730548736"><ele>165.286</ele><time>2026-08-16T13:02:09.138Z</time><hdop>3.0</hdop><vdop>2.5</vdop><extensions><gom:speed>0.01</gom:speed></extensions></trkpt>
   <trkpt lat="59.3216963925" lon="34.6730545383"><ele>165.285</ele><time>2026-08-16T13:02:10.138Z</time><hdop>3.0</hdop><vdop>2.5</vdop><extensions><gom:speed>0.007</gom:speed></extensions></trkpt>
   <trkpt lat="59.3216963925" lon="34.6730547898"><ele>165.289</ele><time>2026-08-16T13:02:11.138Z</time><hdop>3.0</hdop><vdop>2.5</vdop><extensions><gom:speed>0.021</gom:speed></extensions></trkpt>
   <trkpt lat="59.3216963925" lon="34.6730546221"><ele>165.295</ele><time>2026-08-16T13:02:12.138Z</time><hdop>3.0</hdop><vdop>2.5</vdop><extensions><gom:speed>0.028</gom:speed></extensions></trkpt>
   <trkpt lat="59.3216964763" lon="34.6730545383"><ele>165.29</ele><time>2026-08-16T13:02:13.138Z</time><hdop>3.0</hdop><vdop>2.5</vdop><extensions><gom:speed>0.037</gom:speed></extensions></trkpt>
   <trkpt lat="59.3216964763" lon="34.6730542869"><ele>165.291</ele><time>2026-08-16T13:02:14.137Z</time><hdop>3.0</hdop><vdop>2.5</vdop><extensions><gom:speed>0.041</gom:speed></extensions></trkpt>
   <trkpt lat="59.3216965602" lon="34.6730539516"><ele>165.304</ele><time>2026-08-16T13:02:15.137Z</time><hdop>3.0</hdop><vdop>2.5</vdop><extensions><gom:speed>0.047</gom:speed></extensions></trkpt>
   <trkpt lat="59.3216967697" lon="34.6730536163"><ele>165.303</ele><time>2026-08-16T13:02:16.138Z</time><hdop>3.0</hdop><vdop>2.5</vdop><extensions><gom:speed>0.054</gom:speed></extensions></trkpt>
   <trkpt lat="59.3216968954" lon="34.673053281"><ele>165.307</ele><time>2026-08-16T13:02:17.138Z</time><hdop>3.0</hdop><vdop>2.5</vdop><extensions><gom:speed>0.058</gom:speed></extensions></trkpt>
   <trkpt lat="59.3216969793" lon="34.6730529457"><ele>165.321</ele><time>2026-08-16T13:02:18.138Z</time><hdop>3.0</hdop><vdop>2.5</vdop><extensions><gom:speed>0.06</gom:speed></extensions></trkpt>
   <trkpt lat="59.3216971888" lon="34.6730525267"><ele>165.331</ele><time>2026-08-16T13:02:19.138Z</time><hdop>3.0</hdop><vdop>2.5</vdop><extensions><gom:speed>0.061</gom:speed></extensions></trkpt>
   <trkpt lat="59.3216973983" lon="34.6730521914"><ele>165.336</ele><time>2026-08-16T13:02:20.138Z</time><hdop>3.0</hdop><vdop>2.5</vdop><extensions><gom:speed>0.063</gom:speed></extensions></trkpt>
   <trkpt lat="59.321697566" lon="34.6730515208"><ele>165.336</ele><time>2026-08-16T13:02:21.138Z</time><hdop>3.0</hdop><vdop>2.5</vdop><extensions><gom:speed>0.114</gom:speed></extensions></trkpt>
   <trkpt lat="59.3216974822" lon="34.6730505988"><ele>165.343</ele><time>2026-08-16T13:02:22.138Z</time><hdop>3.0</hdop><vdop>2.5</vdop><extensions><gom:speed>0.308</gom:speed></extensions></trkpt>
   <trkpt lat="59.3216960992" lon="34.6730482519"><ele>165.217</ele><time>2026-08-16T13:02:23.138Z</time><hdop>3.0</hdop><vdop>2.5</vdop><extensions><gom:speed>0.559</gom:speed></extensions></trkpt>
   <trkpt lat="59.3216943809" lon="34.6730475813"><ele>165.142</ele><time>2026-08-16T13:02:23.608Z</time><hdop>3.0</hdop><vdop>2.5</vdop><extensions><gom:speed>0.56</gom:speed></extensions></trkpt>
   <trkpt lat="59.3216917825" lon="34.6730492577"><ele>165.024</ele><time>2026-08-16T13:02:24.138Z</time><hdop>3.0</hdop><vdop>2.5</vdop><extensions><gom:speed>0.538</gom:speed></extensions></trkpt>
   <trkpt lat="59.3216903995" lon="34.6730515208"><ele>164.954</ele><time>2026-08-16T13:02:24.628Z</time><hdop>3.0</hdop><vdop>2.5</vdop><extensions><gom:speed>0.538</gom:speed></extensions></trkpt>
   <trkpt lat="59.3216880944" lon="34.673055628"><ele>164.871</ele><time>2026-08-16T13:02:25.138Z</time><hdop>3.0</hdop><vdop>2.5</vdop><extensions><gom:speed>0.731</gom:speed></extensions></trkpt>
   <trkpt lat="59.3216832748" lon="34.6730657701"><ele>164.787</ele><time>2026-08-16T13:02:26.138Z</time><hdop>3.0</hdop><vdop>2.5</vdop><extensions><gom:speed>0.507</gom:speed></extensions></trkpt>
   <trkpt lat="59.3216783714" lon="34.6730703801"><ele>164.739</ele><time>2026-08-16T13:02:27.138Z</time><hdop>3.0</hdop><vdop>2.5</vdop><extensions><gom:speed>0.258</gom:speed></extensions></trkpt>
   <trkpt lat="59.3216751863" lon="34.6730733976"><ele>164.71</ele><time>2026-08-16T13:02:28.138Z</time><hdop>3.0</hdop><vdop>2.5</vdop><extensions><gom:speed>0.082</gom:speed></extensions></trkpt>
   <trkpt lat="59.3216736776" lon="34.6730739843"><ele>164.701</ele><time>2026-08-16T13:02:29.138Z</time><hdop>3.0</hdop><vdop>2.5</vdop><extensions><gom:speed>0.074</gom:speed></extensions></trkpt>
   <trkpt lat="59.3216726717" lon="34.6730740681"><ele>164.701</ele><time>2026-08-16T13:02:30.138Z</time><hdop>3.0</hdop><vdop>2.5</vdop><extensions><gom:speed>0.127</gom:speed></extensions></trkpt>
   <trkpt lat="59.3216712887" lon="34.6730743196"><ele>164.711</ele><time>2026-08-16T13:02:31.138Z</time><hdop>3.0</hdop><vdop>2.5</vdop><extensions><gom:speed>0.235</gom:speed></extensions></trkpt>
   <trkpt lat="59.3216690675" lon="34.6730733976"><ele>164.732</ele><time>2026-08-16T13:02:32.138Z</time><hdop>3.0</hdop><vdop>2.5</vdop><extensions><gom:speed>0.103</gom:speed></extensions></trkpt>
   <trkpt lat="59.3216682712" lon="34.6730721403"><ele>164.745</ele><time>2026-08-16T13:02:33.138Z</time><hdop>3.0</hdop><vdop>2.5</vdop><extensions><gom:speed>0.085</gom:speed></extensions></trkpt>
   <trkpt lat="59.321667475" lon="34.6730704639"><ele>164.824</ele><time>2026-08-16T13:02:34.137Z</time><hdop>3.0</hdop><vdop>2.5</vdop><extensions><gom:speed>0.592</gom:speed></extensions></trkpt>
   <trkpt lat="59.3216634935" lon="34.6730616629"><ele>164.845</ele><time>2026-08-16T13:02:35.138Z</time><hdop>3.0</hdop><vdop>2.5</vdop><extensions><gom:speed>0.597</gom:speed></extensions></trkpt>
   <trkpt lat="59.3216615657" lon="34.6730568852"><ele>164.858</ele><time>2026-08-16T13:02:36.056Z</time><hdop>3.0</hdop><vdop>2.5</vdop><extensions><gom:speed>0.466</gom:speed></extensions></trkpt>
   <trkpt lat="59.3216551955" lon="34.6730484195"><ele>164.946</ele><time>2026-08-16T13:02:36.920Z</time><hdop>3.0</hdop><vdop>2.5</vdop><extensions><gom:speed>0.575</gom:speed></extensions></trkpt>
   <trkpt lat="59.3216472746" lon="34.673042636"><ele>165.008</ele><time>2026-08-16T13:02:37.499Z</time><hdop>3.0</hdop><vdop>2.5</vdop><extensions><gom:speed>0.735</gom:speed></extensions></trkpt>
   <trkpt lat="59.3216399823" lon="34.6730362658"><ele>164.969</ele><time>2026-08-16T13:02:38.138Z</time><hdop>3.0</hdop><vdop>2.5</vdop><extensions><gom:speed>0.89</gom:speed></extensions></trkpt>
   <trkpt lat="59.3216348693" lon="34.6730309852"><ele>164.945</ele><time>2026-08-16T13:02:38.697Z</time><hdop>3.062</hdop><vdop>2.5</vdop><extensions><gom:speed>0.894</gom:speed></extensions></trkpt>
   <trkpt lat="59.3216272837" lon="34.6730185799"><ele>164.963</ele><time>2026-08-16T13:02:39.453Z</time><hdop>3.062</hdop><vdop>2.5</vdop><extensions><gom:speed>0.98</gom:speed></extensions></trkpt>
   <trkpt lat="59.3216236795" lon="34.673012545"><ele>164.973</ele><time>2026-08-16T13:02:39.914Z</time><hdop>3.062</hdop><vdop>2.5</vdop><extensions><gom:speed>0.979</gom:speed></extensions></trkpt>
   <trkpt lat="59.3216131602" lon="34.6729895786"><ele>164.938</ele><time>2026-08-16T13:02:41.112Z</time><hdop>3.125</hdop><vdop>2.5</vdop><extensions><gom:speed>1.06</gom:speed></extensions></trkpt>
   <trkpt lat="59.3216063709" lon="34.6729687914"><ele>164.938</ele><time>2026-08-16T13:02:42.138Z</time><hdop>3.125</hdop><vdop>2.5</vdop><extensions><gom:speed>1.111</gom:speed></extensions></trkpt>
   <trkpt lat="59.3215995815" lon="34.6729495969"><ele>165.013</ele><time>2026-08-16T13:02:43.138Z</time><hdop>3.125</hdop><vdop>2.5</vdop><extensions><gom:speed>1.152</gom:speed></extensions></trkpt>
   <trkpt lat="59.3215927922" lon="34.6729309891"><ele>165.057</ele><time>2026-08-16T13:02:44.077Z</time><hdop>3.062</hdop><vdop>2.5</vdop><extensions><gom:speed>1.188</gom:speed></extensions></trkpt>
   <trkpt lat="59.3215855838" lon="34.6729094476"><ele>165.064</ele><time>2026-08-16T13:02:45.138Z</time><hdop>3.062</hdop><vdop>2.5</vdop><extensions><gom:speed>1.216</gom:speed></extensions></trkpt>
   <trkpt lat="59.3215811833" lon="34.6728994731"><ele>165.068</ele><time>2026-08-16T13:02:45.657Z</time><hdop>3.0</hdop><vdop>2.5</vdop><extensions><gom:speed>1.209</gom:speed></extensions></trkpt>
   <trkpt lat="59.3215783753" lon="34.6728912588"><ele>165.061</ele><time>2026-08-16T13:02:46.138Z</time><hdop>3.0</hdop><vdop>2.5</vdop><extensions><gom:speed>1.217</gom:speed></extensions></trkpt>
   <trkpt lat="59.3215736815" lon="34.6728792727"><ele>165.057</ele><time>2026-08-16T13:02:46.776Z</time><hdop>3.0</hdop><vdop>2.5</vdop><extensions><gom:speed>1.224</gom:speed></extensions></trkpt>
   <trkpt lat="59.3215665987" lon="34.6728585694"><ele>165.05</ele><time>2026-08-16T13:02:47.895Z</time><hdop>3.0</hdop><vdop>2.5</vdop><extensions><gom:speed>1.227</gom:speed></extensions></trkpt>
   <trkpt lat="59.3215623659" lon="34.6728451584"><ele>165.009</ele><time>2026-08-16T13:02:48.553Z</time><hdop>3.0</hdop><vdop>2.5</vdop><extensions><gom:speed>1.264</gom:speed></extensions></trkpt>
   <trkpt lat="59.3215584683" lon="34.6728352677"><ele>164.984</ele><time>2026-08-16T13:02:49.034Z</time><hdop>3.0</hdop><vdop>2.5</vdop><extensions><gom:speed>1.264</gom:speed></extensions></trkpt>
   <trkpt lat="59.321551176" lon="34.6728192583"><ele>164.85</ele><time>2026-08-16T13:02:50.138Z</time><hdop>3.0</hdop><vdop>2.5</vdop><extensions><gom:speed>1.238</gom:speed></extensions></trkpt>
   <trkpt lat="59.3215455602" lon="34.6728066854"><ele>164.77</ele><time>2026-08-16T13:02:50.860Z</time><hdop>3.0</hdop><vdop>2.5</vdop><extensions><gom:speed>1.234</gom:speed></extensions></trkpt>
   <trkpt lat="59.3215389804" lon="34.6727838867"><ele>164.798</ele><time>2026-08-16T13:02:52.038Z</time><hdop>3.0</hdop><vdop>2.5</vdop><extensions><gom:speed>1.276</gom:speed></extensions></trkpt>
   <trkpt lat="59.3215327778" lon="34.6727637701"><ele>164.833</ele><time>2026-08-16T13:02:53.079Z</time><hdop>3.0</hdop><vdop>2.5</vdop><extensions><gom:speed>1.272</gom:speed></extensions></trkpt>
   <trkpt lat="59.3215297603" lon="34.6727555558"><ele>164.95</ele><time>2026-08-16T13:02:53.560Z</time><hdop>3.0</hdop><vdop>2.5</vdop><extensions><gom:speed>1.283</gom:speed></extensions></trkpt>
   <trkpt lat="59.3215259884" lon="34.6727459166"><ele>165.019</ele><time>2026-08-16T13:02:54.138Z</time><hdop>3.0</hdop><vdop>2.5</vdop><extensions><gom:speed>1.282</gom:speed></extensions></trkpt>
   <trkpt lat="59.3215221747" lon="34.6727363613"><ele>165.06</ele><time>2026-08-16T13:02:54.659Z</time><hdop>3.0</hdop><vdop>2.5</vdop><extensions><gom:speed>1.284</gom:speed></extensions></trkpt>
   <trkpt lat="59.32151878" lon="34.6727282308"><ele>165.066</ele><time>2026-08-16T13:02:55.138Z</time><hdop>3.0</hdop><vdop>2.5</vdop><extensions><gom:speed>1.263</gom:speed></extensions></trkpt>
   <trkpt lat="59.321513667" lon="34.6727168314"><ele>165.07</ele><time>2026-08-16T13:02:55.778Z</time><hdop>3.0</hdop><vdop>2.5</vdop><extensions><gom:speed>1.259</gom:speed></extensions></trkpt>
   <trkpt lat="59.3215077997" lon="34.6727049291"><ele>164.978</ele><time>2026-08-16T13:02:56.554Z</time><hdop>3.0</hdop><vdop>2.5</vdop><extensions><gom:speed>1.265</gom:speed></extensions></trkpt>
   <trkpt lat="59.3215032735" lon="34.6726962958"><ele>164.8</ele><time>2026-08-16T13:02:57.138Z</time><hdop>3.0</hdop><vdop>2.5</vdop><extensions><gom:speed>1.255</gom:speed></extensions></trkpt>
   <trkpt lat="59.321498873" lon="34.6726865728"><ele>164.694</ele><time>2026-08-16T13:02:57.712Z</time><hdop>3.0</hdop><vdop>2.5</vdop><extensions><gom:speed>1.256</gom:speed></extensions></trkpt>
   <trkpt lat="59.3214910778" lon="34.6726680488"><ele>164.647</ele><time>2026-08-16T13:02:58.773Z</time><hdop>3.0</hdop><vdop>2.5</vdop><extensions><gom:speed>1.278</gom:speed></extensions></trkpt>
   <trkpt lat="59.3214825702" lon="34.6726481836"><ele>164.558</ele><time>2026-08-16T13:02:59.892Z</time><hdop>3.062</hdop><vdop>2.5</vdop><extensions><gom:speed>1.284</gom:speed></extensions></trkpt>
   <trkpt lat="59.3214742721" lon="34.6726288214"><ele>164.491</ele><time>2026-08-16T13:03:00.991Z</time><hdop>3.0</hdop><vdop>2.5</vdop><extensions><gom:speed>1.298</gom:speed></extensions></trkpt>
   <trkpt lat="59.3214652615" lon="34.6726079505"><ele>164.456</ele><time>2026-08-16T13:03:02.140Z</time><hdop>3.0</hdop><vdop>2.5</vdop><extensions><gom:speed>1.314</gom:speed></extensions></trkpt>
   <trkpt lat="59.3214568796" lon="34.6725914382"><ele>164.292</ele><time>2026-08-16T13:03:03.138Z</time><hdop>3.0</hdop><vdop>2.5</vdop><extensions><gom:speed>1.325</gom:speed></extensions></trkpt>
   <trkpt lat="59.3214488749" lon="34.6725741714"><ele>164.127</ele><time>2026-08-16T13:03:04.138Z</time><hdop>3.0</hdop><vdop>2.5</vdop><extensions><gom:speed>1.317</gom:speed></extensions></trkpt>
   <trkpt lat="59.3214444744" lon="34.6725644484"><ele>164.029</ele><time>2026-08-16T13:03:04.673Z</time><hdop>3.0</hdop><vdop>2.5</vdop><extensions><gom:speed>1.319</gom:speed></extensions></trkpt>
   <trkpt lat="59.3214405768" lon="34.6725568209"><ele>163.993</ele><time>2026-08-16T13:03:05.138Z</time><hdop>3.0</hdop><vdop>2.5</vdop><extensions><gom:speed>1.327</gom:speed></extensions></trkpt>
   <trkpt lat="59.3214347933" lon="34.6725449186"><ele>163.971</ele><time>2026-08-16T13:03:05.792Z</time><hdop>3.0</hdop><vdop>2.5</vdop><extensions><gom:speed>1.318</gom:speed></extensions></trkpt>
   <trkpt lat="59.3214250703" lon="34.6725267299"><ele>164.055</ele><time>2026-08-16T13:03:06.891Z</time><hdop>3.0</hdop><vdop>2.5</vdop><extensions><gom:speed>1.307</gom:speed></extensions></trkpt>
   <trkpt lat="59.3214139643" lon="34.6725096308"><ele>164.026</ele><time>2026-08-16T13:03:08.079Z</time><hdop>3.0</hdop><vdop>2.5</vdop><extensions><gom:speed>1.281</gom:speed></extensions></trkpt>
   <trkpt lat="59.3214081808" lon="34.6725034282"><ele>163.944</ele><time>2026-08-16T13:03:08.737Z</time><hdop>3.0</hdop><vdop>2.5</vdop><extensions><gom:speed>1.26</gom:speed></extensions></trkpt>
   <trkpt lat="59.3214040736" lon="34.6725003269"><ele>163.828</ele><time>2026-08-16T13:03:09.218Z</time><hdop>3.0</hdop><vdop>2.5</vdop><extensions><gom:speed>1.25</gom:speed></extensions></trkpt>
   <trkpt lat="59.3213970748" lon="34.6724869996"><ele>163.759</ele><time>2026-08-16T13:03:10.013Z</time><hdop>3.0</hdop><vdop>2.5</vdop><extensions><gom:speed>1.264</gom:speed></extensions></trkpt>
   <trkpt lat="59.3213866812" lon="34.6724759355"><ele>163.714</ele><time>2026-08-16T13:03:11.138Z</time><hdop>3.0</hdop><vdop>2.5</vdop><extensions><gom:speed>1.264</gom:speed></extensions></trkpt>
   <trkpt lat="59.3213768744" lon="34.6724633627"><ele>163.67</ele><time>2026-08-16T13:03:12.138Z</time><hdop>3.0</hdop><vdop>2.5</vdop><extensions><gom:speed>1.242</gom:speed></extensions></trkpt>
   <trkpt lat="59.3213723901" lon="34.672456741"><ele>163.644</ele><time>2026-08-16T13:03:12.615Z</time><hdop>3.0</hdop><vdop>2.5</vdop><extensions><gom:speed>1.233</gom:speed></extensions></trkpt>
   <trkpt lat="59.32136778" lon="34.6724504545"><ele>163.586</ele><time>2026-08-16T13:03:13.138Z</time><hdop>3.0</hdop><vdop>2.5</vdop><extensions><gom:speed>1.236</gom:speed></extensions></trkpt>
   <trkpt lat="59.3213618708" lon="34.6724425756"><ele>163.551</ele><time>2026-08-16T13:03:13.753Z</time><hdop>3.0</hdop><vdop>2.5</vdop><extensions><gom:speed>1.225</gom:speed></extensions></trkpt>
   <trkpt lat="59.3213550814" lon="34.6724366244"><ele>163.58</ele><time>2026-08-16T13:03:14.460Z</time><hdop>3.0</hdop><vdop>2.5</vdop><extensions><gom:speed>1.217</gom:speed></extensions></trkpt>
   <trkpt lat="59.3213488788" lon="34.6724292483"><ele>163.535</ele><time>2026-08-16T13:03:15.138Z</time><hdop>3.0</hdop><vdop>2.5</vdop><extensions><gom:speed>1.234</gom:speed></extensions></trkpt>
   <trkpt lat="59.3213448974" lon="34.6724218723"><ele>163.509</ele><time>2026-08-16T13:03:15.638Z</time><hdop>3.0</hdop><vdop>2.5</vdop><extensions><gom:speed>1.232</gom:speed></extensions></trkpt>
   <trkpt lat="59.3213418799" lon="34.6724140771"><ele>163.477</ele><time>2026-08-16T13:03:16.138Z</time><hdop>3.0</hdop><vdop>2.5</vdop><extensions><gom:speed>1.232</gom:speed></extensions></trkpt>
   <trkpt lat="59.3213372699" lon="34.6724042703"><ele>163.458</ele><time>2026-08-16T13:03:16.738Z</time><hdop>3.0</hdop><vdop>2.5</vdop><extensions><gom:speed>1.229</gom:speed></extensions></trkpt>
   <trkpt lat="59.3213289718" lon="34.672384489"><ele>163.426</ele><time>2026-08-16T13:03:17.877Z</time><hdop>3.062</hdop><vdop>2.5</vdop><extensions><gom:speed>1.255</gom:speed></extensions></trkpt>
   <trkpt lat="59.3213219729" lon="34.6723616902"><ele>163.493</ele><time>2026-08-16T13:03:19.035Z</time><hdop>3.062</hdop><vdop>2.5</vdop><extensions><gom:speed>1.291</gom:speed></extensions></trkpt>
   <trkpt lat="59.3213136748" lon="34.6723454293"><ele>163.511</ele><time>2026-08-16T13:03:20.138Z</time><hdop>3.062</hdop><vdop>2.5</vdop><extensions><gom:speed>1.282</gom:speed></extensions></trkpt>
   <trkpt lat="59.3213050834" lon="34.6723315992"><ele>163.517</ele><time>2026-08-16T13:03:21.138Z</time><hdop>3.062</hdop><vdop>2.5</vdop><extensions><gom:speed>1.252</gom:speed></extensions></trkpt>
   <trkpt lat="59.3213012696" lon="34.672322882"><ele>163.521</ele><time>2026-08-16T13:03:21.637Z</time><hdop>3.062</hdop><vdop>2.5</vdop><extensions><gom:speed>1.244</gom:speed></extensions></trkpt>
   <trkpt lat="59.3212983778" lon="34.6723142486"><ele>163.499</ele><time>2026-08-16T13:03:22.138Z</time><hdop>3.0</hdop><vdop>2.5</vdop><extensions><gom:speed>1.22</gom:speed></extensions></trkpt>
   <trkpt lat="59.3212945641" lon="34.6723031845"><ele>163.486</ele><time>2026-08-16T13:03:22.736Z</time><hdop>3.0</hdop><vdop>2.5</vdop><extensions><gom:speed>1.221</gom:speed></extensions></trkpt>
   <trkpt lat="59.321287188" lon="34.6722838223"><ele>163.449</ele><time>2026-08-16T13:03:23.895Z</time><hdop>3.0</hdop><vdop>2.5</vdop><extensions><gom:speed>1.21</gom:speed></extensions></trkpt>
   <trkpt lat="59.3212822846" lon="34.6722743508"><ele>163.392</ele><time>2026-08-16T13:03:24.572Z</time><hdop>3.0</hdop><vdop>2.5</vdop><extensions><gom:speed>1.209</gom:speed></extensions></trkpt>
   <trkpt lat="59.321277465" lon="34.6722655498"><ele>163.256</ele><time>2026-08-16T13:03:25.138Z</time><hdop>3.0</hdop><vdop>2.5</vdop><extensions><gom:speed>1.247</gom:speed></extensions></trkpt>
   <trkpt lat="59.3212727711" lon="34.672257084"><ele>163.175</ele><time>2026-08-16T13:03:25.671Z</time><hdop>3.0</hdop><vdop>2.5</vdop><extensions><gom:speed>1.244</gom:speed></extensions></trkpt>
   <trkpt lat="59.3212685802" lon="34.6722486183"><ele>163.101</ele><time>2026-08-16T13:03:26.138Z</time><hdop>3.0</hdop><vdop>2.5</vdop><extensions><gom:speed>1.278</gom:speed></extensions></trkpt>
   <trkpt lat="59.3212592763" lon="34.6722329442"><ele>163.057</ele><time>2026-08-16T13:03:27.095Z</time><hdop>3.0</hdop><vdop>2.5</vdop><extensions><gom:speed>1.293</gom:speed></extensions></trkpt>
   <trkpt lat="59.3212491761" lon="34.6722186949"><ele>163.012</ele><time>2026-08-16T13:03:28.138Z</time><hdop>3.0</hdop><vdop>2.5</vdop><extensions><gom:speed>1.268</gom:speed></extensions></trkpt>
   <trkpt lat="59.3212396626" lon="34.6722051162"><ele>162.971</ele><time>2026-08-16T13:03:29.138Z</time><hdop>3.0</hdop><vdop>2.5</vdop><extensions><gom:speed>1.254</gom:speed></extensions></trkpt>
   <trkpt lat="59.3212310712" lon="34.6721929625"><ele>162.947</ele><time>2026-08-16T13:03:30.001Z</time><hdop>3.0</hdop><vdop>2.5</vdop><extensions><gom:speed>1.254</gom:speed></extensions></trkpt>
   <trkpt lat="59.3212270898" lon="34.6721870951"><ele>162.99</ele><time>2026-08-16T13:03:30.492Z</time><hdop>3.0</hdop><vdop>2.5</vdop><extensions><gom:speed>1.25</gom:speed></extensions></trkpt>
   <trkpt lat="59.3212215996" lon="34.6721772883"><ele>162.928</ele><time>2026-08-16T13:03:31.138Z</time><hdop>3.0</hdop><vdop>2.5</vdop><extensions><gom:speed>1.25</gom:speed></extensions></trkpt>
   <trkpt lat="59.3212170734" lon="34.6721687388"><ele>162.891</ele><time>2026-08-16T13:03:31.660Z</time><hdop>3.0</hdop><vdop>2.5</vdop><extensions><gom:speed>1.249</gom:speed></extensions></trkpt>
   <trkpt lat="59.3212134692" lon="34.6721615303"><ele>162.889</ele><time>2026-08-16T13:03:32.138Z</time><hdop>3.0</hdop><vdop>2.5</vdop><extensions><gom:speed>1.227</gom:speed></extensions></trkpt>
   <trkpt lat="59.3212082724" lon="34.6721508853"><ele>162.888</ele><time>2026-08-16T13:03:32.779Z</time><hdop>3.0</hdop><vdop>2.5</vdop><extensions><gom:speed>1.226</gom:speed></extensions></trkpt>
   <trkpt lat="59.3212031594" lon="34.6721381448"><ele>162.895</ele><time>2026-08-16T13:03:33.515Z</time><hdop>3.0</hdop><vdop>2.5</vdop><extensions><gom:speed>1.201</gom:speed></extensions></trkpt>
   <trkpt lat="59.3211993876" lon="34.6721297629"><ele>162.9</ele><time>2026-08-16T13:03:33.996Z</time><hdop>3.0</hdop><vdop>2.5</vdop><extensions><gom:speed>1.195</gom:speed></extensions></trkpt>
   <trkpt lat="59.3211929754" lon="34.6721196208"><ele>162.843</ele><time>2026-08-16T13:03:34.772Z</time><hdop>3.0</hdop><vdop>2.5</vdop><extensions><gom:speed>1.172</gom:speed></extensions></trkpt>
   <trkpt lat="59.3211839649" lon="34.6721011806"><ele>162.741</ele><time>2026-08-16T13:03:35.920Z</time><hdop>3.0</hdop><vdop>2.5</vdop><extensions><gom:speed>1.22</gom:speed></extensions></trkpt>
   <trkpt lat="59.3211753734" lon="34.6720799744"><ele>162.657</ele><time>2026-08-16T13:03:37.079Z</time><hdop>3.0</hdop><vdop>2.5</vdop><extensions><gom:speed>1.239</gom:speed></extensions></trkpt>
   <trkpt lat="59.3211663629" lon="34.6720634621"><ele>162.668</ele><time>2026-08-16T13:03:38.138Z</time><hdop>3.0</hdop><vdop>2.5</vdop><extensions><gom:speed>1.269</gom:speed></extensions></trkpt>
   <trkpt lat="59.3211567656" lon="34.6720488776"><ele>162.555</ele><time>2026-08-16T13:03:39.138Z</time><hdop>3.0</hdop><vdop>2.5</vdop><extensions><gom:speed>1.259</gom:speed></extensions></trkpt>
   <trkpt lat="59.321151485" lon="34.6720408309"><ele>162.487</ele><time>2026-08-16T13:03:39.680Z</time><hdop>3.0</hdop><vdop>2.5</vdop><extensions><gom:speed>1.258</gom:speed></extensions></trkpt>
   <trkpt lat="59.321147797" lon="34.6720341254"><ele>162.459</ele><time>2026-08-16T13:03:40.138Z</time><hdop>3.0</hdop><vdop>2.5</vdop><extensions><gom:speed>1.242</gom:speed></extensions></trkpt>
   <trkpt lat="59.3211423906" lon="34.6720226422"><ele>162.442</ele><time>2026-08-16T13:03:40.819Z</time><hdop>3.0</hdop><vdop>2.5</vdop><extensions><gom:speed>1.258</gom:speed></extensions></trkpt>
   <trkpt lat="59.3211343859" lon="34.6720028609"><ele>162.501</ele><time>2026-08-16T13:03:41.938Z</time><hdop>3.0</hdop><vdop>2.5</vdop><extensions><gom:speed>1.269</gom:speed></extensions></trkpt>
   <trkpt lat="59.3211297759" lon="34.6719930541"><ele>162.417</ele><time>2026-08-16T13:03:42.576Z</time><hdop>3.0</hdop><vdop>2.5</vdop><extensions><gom:speed>1.248</gom:speed></extensions></trkpt>
   <trkpt lat="59.3211254592" lon="34.6719834987"><ele>162.368</ele><time>2026-08-16T13:03:43.077Z</time><hdop>3.0</hdop><vdop>2.5</vdop><extensions><gom:speed>1.246</gom:speed></extensions></trkpt>
   <trkpt lat="59.3211188794" lon="34.6719735243"><ele>162.327</ele><time>2026-08-16T13:03:43.853Z</time><hdop>3.0</hdop><vdop>2.5</vdop><extensions><gom:speed>1.232</gom:speed></extensions></trkpt>
   <trkpt lat="59.3211092821" lon="34.6719579339"><ele>162.266</ele><time>2026-08-16T13:03:44.932Z</time><hdop>3.0</hdop><vdop>2.5</vdop><extensions><gom:speed>1.246</gom:speed></extensions></trkpt>
   <trkpt lat="59.3210982599" lon="34.6719410863"><ele>162.358</ele><time>2026-08-16T13:03:46.138Z</time><hdop>3.0</hdop><vdop>2.5</vdop><extensions><gom:speed>1.277</gom:speed></extensions></trkpt>
   <trkpt lat="59.3210891655" lon="34.6719255798"><ele>162.413</ele><time>2026-08-16T13:03:47.092Z</time><hdop>3.0</hdop><vdop>2.5</vdop><extensions><gom:speed>1.288</gom:speed></extensions></trkpt>
   <trkpt lat="59.3210797778" lon="34.6719110791"><ele>162.505</ele><time>2026-08-16T13:03:48.138Z</time><hdop>3.0</hdop><vdop>2.5</vdop><extensions><gom:speed>1.307</gom:speed></extensions></trkpt>
   <trkpt lat="59.3210751678" lon="34.6719032839"><ele>162.56</ele><time>2026-08-16T13:03:48.614Z</time><hdop>3.0</hdop><vdop>2.5</vdop><extensions><gom:speed>1.314</gom:speed></extensions></trkpt>
   <trkpt lat="59.3210707673" lon="34.6718961593"><ele>162.595</ele><time>2026-08-16T13:03:49.138Z</time><hdop>3.0</hdop><vdop>2.5</vdop><extensions><gom:speed>1.275</gom:speed></extensions></trkpt>
   <trkpt lat="59.3210652771" lon="34.6718853466"><ele>162.616</ele><time>2026-08-16T13:03:49.792Z</time><hdop>3.0</hdop><vdop>2.5</vdop><extensions><gom:speed>1.276</gom:speed></extensions></trkpt>
   <trkpt lat="59.3210590745" lon="34.6718744502"><ele>162.645</ele><time>2026-08-16T13:03:50.518Z</time><hdop>3.0</hdop><vdop>2.5</vdop><extensions><gom:speed>1.267</gom:speed></extensions></trkpt>
   <trkpt lat="59.3210534586" lon="34.6718660683"><ele>162.659</ele><time>2026-08-16T13:03:51.138Z</time><hdop>3.0</hdop><vdop>2.5</vdop><extensions><gom:speed>1.256</gom:speed></extensions></trkpt>
   <trkpt lat="59.3210475913" lon="34.6718576864"><ele>162.668</ele><time>2026-08-16T13:03:51.755Z</time><hdop>3.0</hdop><vdop>2.5</vdop><extensions><gom:speed>1.248</gom:speed></extensions></trkpt>
   <trkpt lat="59.3210391675" lon="34.6718472928"><ele>162.663</ele><time>2026-08-16T13:03:52.717Z</time><hdop>3.0</hdop><vdop>2.5</vdop><extensions><gom:speed>1.231</gom:speed></extensions></trkpt>
   <trkpt lat="59.3210358985" lon="34.6718419284"><ele>162.747</ele><time>2026-08-16T13:03:53.238Z</time><hdop>3.0</hdop><vdop>2.5</vdop><extensions><gom:speed>1.237</gom:speed></extensions></trkpt>
   <trkpt lat="59.3210303665" lon="34.6718325406"><ele>162.797</ele><time>2026-08-16T13:03:53.876Z</time><hdop>3.0</hdop><vdop>2.5</vdop><extensions><gom:speed>1.224</gom:speed></extensions></trkpt>
   <trkpt lat="59.3210270975" lon="34.6718245778"><ele>162.839</ele><time>2026-08-16T13:03:54.396Z</time><hdop>3.0</hdop><vdop>2.5</vdop><extensions><gom:speed>1.238</gom:speed></extensions></trkpt>
   <trkpt lat="59.3210209788" lon="34.6718123403"><ele>162.865</ele><time>2026-08-16T13:03:55.093Z</time><hdop>3.0</hdop><vdop>2.5</vdop><extensions><gom:speed>1.239</gom:speed></extensions></trkpt>
   <trkpt lat="59.3210176679" lon="34.6718048804"><ele>162.822</ele><time>2026-08-16T13:03:55.574Z</time><hdop>3.0</hdop><vdop>2.5</vdop><extensions><gom:speed>1.233</gom:speed></extensions></trkpt>
   <trkpt lat="59.3210136865" lon="34.6717963308"><ele>162.91</ele><time>2026-08-16T13:03:56.138Z</time><hdop>3.0</hdop><vdop>2.5</vdop><extensions><gom:speed>1.222</gom:speed></extensions></trkpt>
   <trkpt lat="59.3210085735" lon="34.671786524"><ele>162.963</ele><time>2026-08-16T13:03:56.752Z</time><hdop>3.0</hdop><vdop>2.5</vdop><extensions><gom:speed>1.222</gom:speed></extensions></trkpt>
   <trkpt lat="59.3209991858" lon="34.6717687544"><ele>162.981</ele><time>2026-08-16T13:03:57.901Z</time><hdop>3.0</hdop><vdop>2.5</vdop><extensions><gom:speed>1.185</gom:speed></extensions></trkpt>
   <trkpt lat="59.3209926898" lon="34.6717553433"><ele>163.086</ele><time>2026-08-16T13:03:58.755Z</time><hdop>3.0</hdop><vdop>2.5</vdop><extensions><gom:speed>1.172</gom:speed></extensions></trkpt>
   <trkpt lat="59.3209830926" lon="34.6717357297"><ele>163.208</ele><time>2026-08-16T13:03:59.933Z</time><hdop>3.0</hdop><vdop>2.5</vdop><extensions><gom:speed>1.185</gom:speed></extensions></trkpt>
   <trkpt lat="59.320975465" lon="34.6717174571"><ele>163.273</ele><time>2026-08-16T13:04:01.091Z</time><hdop>3.0</hdop><vdop>2.5</vdop><extensions><gom:speed>1.157</gom:speed></extensions></trkpt>
   <trkpt lat="59.3209668736" lon="34.6717041299"><ele>163.322</ele><time>2026-08-16T13:04:02.138Z</time><hdop>3.0</hdop><vdop>2.5</vdop><extensions><gom:speed>1.196</gom:speed></extensions></trkpt>
   <trkpt lat="59.3209622635" lon="34.6716976758"><ele>163.351</ele><time>2026-08-16T13:04:02.613Z</time><hdop>3.0</hdop><vdop>2.5</vdop><extensions><gom:speed>1.199</gom:speed></extensions></trkpt>
   <trkpt lat="59.3209577792" lon="34.6716908865"><ele>163.336</ele><time>2026-08-16T13:04:03.138Z</time><hdop>3.0</hdop><vdop>2.5</vdop><extensions><gom:speed>1.213</gom:speed></extensions></trkpt>
   <trkpt lat="59.3209519957" lon="34.6716805767"><ele>163.327</ele><time>2026-08-16T13:04:03.801Z</time><hdop>3.0</hdop><vdop>2.5</vdop><extensions><gom:speed>1.218</gom:speed></extensions></trkpt>
   <trkpt lat="59.3209456674" lon="34.6716712728"><ele>163.285</ele><time>2026-08-16T13:04:04.537Z</time><hdop>3.0</hdop><vdop>2.5</vdop><extensions><gom:speed>1.211</gom:speed></extensions></trkpt>
   <trkpt lat="59.3209404706" lon="34.6716638968"><ele>163.332</ele><time>2026-08-16T13:04:05.138Z</time><hdop>3.0</hdop><vdop>2.5</vdop><extensions><gom:speed>1.233</gom:speed></extensions></trkpt>
   <trkpt lat="59.320932382" lon="34.6716509886"><ele>163.359</ele><time>2026-08-16T13:04:06.039Z</time><hdop>3.0</hdop><vdop>2.5</vdop><extensions><gom:speed>1.235</gom:speed></extensions></trkpt>
   <trkpt lat="59.320924084" lon="34.6716351468"><ele>163.276</ele><time>2026-08-16T13:04:07.138Z</time><hdop>3.0</hdop><vdop>2.5</vdop><extensions><gom:speed>1.204</gom:speed></extensions></trkpt>
   <trkpt lat="59.3209172946" lon="34.6716185507"><ele>163.226</ele><time>2026-08-16T13:04:08.071Z</time><hdop>3.0</hdop><vdop>2.5</vdop><extensions><gom:speed>1.213</gom:speed></extensions></trkpt>
   <trkpt lat="59.3209095833" lon="34.6716014516"><ele>163.13</ele><time>2026-08-16T13:04:09.138Z</time><hdop>3.0</hdop><vdop>2.5</vdop><extensions><gom:speed>1.2</gom:speed></extensions></trkpt>
   <trkpt lat="59.3209009918" lon="34.6715877891"><ele>163.04</ele><time>2026-08-16T13:04:10.138Z</time><hdop>3.0</hdop><vdop>2.5</vdop><extensions><gom:speed>1.185</gom:speed></extensions></trkpt>
   <trkpt lat="59.3208958789" lon="34.6715793233"><ele>162.986</ele><time>2026-08-16T13:04:10.732Z</time><hdop>3.0</hdop><vdop>2.5</vdop><extensions><gom:speed>1.181</gom:speed></extensions></trkpt>
   <trkpt lat="59.3208908916" lon="34.6715701871"><ele>162.958</ele><time>2026-08-16T13:04:11.419Z</time><hdop>3.0</hdop><vdop>2.5</vdop><extensions><gom:speed>1.173</gom:speed></extensions></trkpt>
   <trkpt lat="59.3208871617" lon="34.6715629786"><ele>162.942</ele><time>2026-08-16T13:04:11.900Z</time><hdop>3.0</hdop><vdop>2.5</vdop><extensions><gom:speed>1.17</gom:speed></extensions></trkpt>
   <trkpt lat="59.3208810848" lon="34.6715508249"><ele>162.872</ele><time>2026-08-16T13:04:12.734Z</time><hdop>3.0</hdop><vdop>2.5</vdop><extensions><gom:speed>1.185</gom:speed></extensions></trkpt>
   <trkpt lat="59.3208777739" lon="34.6715449575"><ele>162.853</ele><time>2026-08-16T13:04:13.215Z</time><hdop>3.0</hdop><vdop>2.5</vdop><extensions><gom:speed>1.173</gom:speed></extensions></trkpt>
   <trkpt lat="59.3208724933" lon="34.6715353184"><ele>162.842</ele><time>2026-08-16T13:04:13.834Z</time><hdop>3.0</hdop><vdop>2.5</vdop><extensions><gom:speed>1.175</gom:speed></extensions></trkpt>
   <trkpt lat="59.3208694759" lon="34.6715282776"><ele>162.807</ele><time>2026-08-16T13:04:14.294Z</time><hdop>3.0</hdop><vdop>2.5</vdop><extensions><gom:speed>1.193</gom:speed></extensions></trkpt>
   <trkpt lat="59.3208625608" lon="34.6715142798"><ele>162.786</ele><time>2026-08-16T13:04:15.139Z</time><hdop>3.0</hdop><vdop>2.5</vdop><extensions><gom:speed>1.198</gom:speed></extensions></trkpt>
   <trkpt lat="59.320855059" lon="34.6715026289"><ele>162.734</ele><time>2026-08-16T13:04:16.138Z</time><hdop>3.0</hdop><vdop>2.5</vdop><extensions><gom:speed>1.181</gom:speed></extensions></trkpt>
   <trkpt lat="59.3208513709" lon="34.6714960911"><ele>162.703</ele><time>2026-08-16T13:04:16.612Z</time><hdop>3.0</hdop><vdop>2.5</vdop><extensions><gom:speed>1.18</gom:speed></extensions></trkpt>
   <trkpt lat="59.3208488983" lon="34.6714887988"><ele>162.271</ele><time>2026-08-16T13:04:17.138Z</time><hdop>3.0</hdop><vdop>2.5</vdop><extensions><gom:speed>1.122</gom:speed></extensions></trkpt>
   <trkpt lat="59.3208509938" lon="34.6714704424"><ele>161.893</ele><time>2026-08-16T13:04:18.138Z</time><hdop>3.0</hdop><vdop>2.5</vdop><extensions><gom:speed>1.171</gom:speed></extensions></trkpt>
   <trkpt lat="59.3208560648" lon="34.6714591269"><ele>161.675</ele><time>2026-08-16T13:04:19.138Z</time><hdop>3.0</hdop><vdop>2.5</vdop><extensions><gom:speed>0.677</gom:speed></extensions></trkpt>
   <trkpt lat="59.3208570706" lon="34.6714551874"><ele>161.654</ele><time>2026-08-16T13:04:20.137Z</time><hdop>3.0</hdop><vdop>2.5</vdop><extensions><gom:speed>0.432</gom:speed></extensions></trkpt>
   <trkpt lat="59.3208562744" lon="34.6714520861"><ele>161.642</ele><time>2026-08-16T13:04:20.774Z</time><hdop>3.0</hdop><vdop>2.5</vdop><extensions><gom:speed>0.434</gom:speed></extensions></trkpt>
   <trkpt lat="59.320852293" lon="34.6714479789"><ele>161.785</ele><time>2026-08-16T13:04:21.874Z</time><hdop>3.0</hdop><vdop>2.5</vdop><extensions><gom:speed>0.465</gom:speed></extensions></trkpt>
   <trkpt lat="59.3208482696" lon="34.6714383397"><ele>161.978</ele><time>2026-08-16T13:04:22.620Z</time><hdop>3.0</hdop><vdop>2.5</vdop><extensions><gom:speed>0.728</gom:speed></extensions></trkpt>
   <trkpt lat="59.3208447912" lon="34.6714306284"><ele>162.003</ele><time>2026-08-16T13:04:23.138Z</time><hdop>3.0</hdop><vdop>2.5</vdop><extensions><gom:speed>0.866</gom:speed></extensions></trkpt>
   <trkpt lat="59.3208401811" lon="34.6714223303"><ele>162.018</ele><time>2026-08-16T13:04:23.778Z</time><hdop>3.0</hdop><vdop>2.5</vdop><extensions><gom:speed>0.875</gom:speed></extensions></trkpt>
   <trkpt lat="59.3208298714" lon="34.6714042254"><ele>162.094</ele><time>2026-08-16T13:04:24.839Z</time><hdop>3.0</hdop><vdop>2.5</vdop><extensions><gom:speed>1.072</gom:speed></extensions></trkpt>
   <trkpt lat="59.3208245908" lon="34.6713953406"><ele>162.219</ele><time>2026-08-16T13:04:25.359Z</time><hdop>3.0</hdop><vdop>2.5</vdop><extensions><gom:speed>1.166</gom:speed></extensions></trkpt>
   <trkpt lat="59.3208185977" lon="34.6713836897"><ele>162.293</ele><time>2026-08-16T13:04:26.017Z</time><hdop>3.0</hdop><vdop>2.5</vdop><extensions><gom:speed>1.211</gom:speed></extensions></trkpt>
   <trkpt lat="59.3208144906" lon="34.6713769842"><ele>162.421</ele><time>2026-08-16T13:04:26.517Z</time><hdop>3.0</hdop><vdop>2.5</vdop><extensions><gom:speed>1.203</gom:speed></extensions></trkpt>
   <trkpt lat="59.3208088747" lon="34.6713666745"><ele>162.497</ele><time>2026-08-16T13:04:27.136Z</time><hdop>3.0</hdop><vdop>2.5</vdop><extensions><gom:speed>1.246</gom:speed></extensions></trkpt>
   <trkpt lat="59.3208051867" lon="34.6713614777"><ele>162.69</ele><time>2026-08-16T13:04:27.637Z</time><hdop>3.0</hdop><vdop>2.5</vdop><extensions><gom:speed>1.233</gom:speed></extensions></trkpt>
   <trkpt lat="59.3208015824" lon="34.6713555265"><ele>162.849</ele><time>2026-08-16T13:04:28.138Z</time><hdop>3.0</hdop><vdop>2.5</vdop><extensions><gom:speed>1.236</gom:speed></extensions></trkpt>
   <trkpt lat="59.3207964695" lon="34.6713459712"><ele>162.944</ele><time>2026-08-16T13:04:28.756Z</time><hdop>3.0</hdop><vdop>2.5</vdop><extensions><gom:speed>1.247</gom:speed></extensions></trkpt>
   <trkpt lat="59.320790686" lon="34.6713357452"><ele>162.772</ele><time>2026-08-16T13:04:29.492Z</time><hdop>3.0</hdop><vdop>2.5</vdop><extensions><gom:speed>1.259</gom:speed></extensions></trkpt>
   <trkpt lat="59.3207852796" lon="34.6713261899"><ele>162.686</ele><time>2026-08-16T13:04:30.138Z</time><hdop>3.0</hdop><vdop>2.5</vdop><extensions><gom:speed>1.292</gom:speed></extensions></trkpt>
   <trkpt lat="59.3207782808" lon="34.6713111863"><ele>162.635</ele><time>2026-08-16T13:04:30.994Z</time><hdop>3.0</hdop><vdop>2.5</vdop><extensions><gom:speed>1.325</gom:speed></extensions></trkpt>
   <trkpt lat="59.3207733773" lon="34.6713039778"><ele>162.588</ele><time>2026-08-16T13:04:31.613Z</time><hdop>3.0</hdop><vdop>2.5</vdop><extensions><gom:speed>1.29</gom:speed></extensions></trkpt>
   <trkpt lat="59.3207690607" lon="34.6712977752"><ele>162.46</ele><time>2026-08-16T13:04:32.138Z</time><hdop>3.0</hdop><vdop>2.5</vdop><extensions><gom:speed>1.282</gom:speed></extensions></trkpt>
   <trkpt lat="59.3207605949" lon="34.6712834422"><ele>162.408</ele><time>2026-08-16T13:04:33.138Z</time><hdop>3.0</hdop><vdop>2.5</vdop><extensions><gom:speed>1.274</gom:speed></extensions></trkpt>
   <trkpt lat="59.3207543923" lon="34.6712699473"><ele>162.376</ele><time>2026-08-16T13:04:33.880Z</time><hdop>3.0</hdop><vdop>2.5</vdop><extensions><gom:speed>1.27</gom:speed></extensions></trkpt>
   <trkpt lat="59.320750369" lon="34.6712646667"><ele>162.389</ele><time>2026-08-16T13:04:34.352Z</time><hdop>3.0</hdop><vdop>2.5</vdop><extensions><gom:speed>1.28</gom:speed></extensions></trkpt>
   <trkpt lat="59.3207447951" lon="34.671253435"><ele>162.397</ele><time>2026-08-16T13:04:35.000Z</time><hdop>3.0</hdop><vdop>2.5</vdop><extensions><gom:speed>1.321</gom:speed></extensions></trkpt>
   <trkpt lat="59.3207397659" lon="34.6712493278"><ele>162.537</ele><time>2026-08-16T13:04:35.481Z</time><hdop>3.0</hdop><vdop>2.5</vdop><extensions><gom:speed>1.297</gom:speed></extensions></trkpt>
   <trkpt lat="59.320733689" lon="34.6712386828"><ele>162.62</ele><time>2026-08-16T13:04:36.138Z</time><hdop>3.0</hdop><vdop>2.5</vdop><extensions><gom:speed>1.299</gom:speed></extensions></trkpt>
   <trkpt lat="59.3207297914" lon="34.6712323964"><ele>162.812</ele><time>2026-08-16T13:04:36.619Z</time><hdop>3.0</hdop><vdop>2.5</vdop><extensions><gom:speed>1.287</gom:speed></extensions></trkpt>
   <trkpt lat="59.3207265644" lon="34.6712258585"><ele>162.709</ele><time>2026-08-16T13:04:37.138Z</time><hdop>3.0</hdop><vdop>2.5</vdop><extensions><gom:speed>1.231</gom:speed></extensions></trkpt>
   <trkpt lat="59.3207253909" lon="34.6712035626"><ele>162.454</ele><time>2026-08-16T13:04:38.138Z</time><hdop>3.0</hdop><vdop>2.5</vdop><extensions><gom:speed>1.368</gom:speed></extensions></trkpt>
   <trkpt lat="59.3207298753" lon="34.6711908221"><ele>162.421</ele><time>2026-08-16T13:04:39.138Z</time><hdop>3.0</hdop><vdop>2.5</vdop><extensions><gom:speed>0.793</gom:speed></extensions></trkpt>
   <trkpt lat="59.3207308811" lon="34.6711847872"><ele>162.523</ele><time>2026-08-16T13:04:40.138Z</time><hdop>3.0</hdop><vdop>2.5</vdop><extensions><gom:speed>0.707</gom:speed></extensions></trkpt>
   <trkpt lat="59.3207270673" lon="34.6711772435"><ele>162.584</ele><time>2026-08-16T13:04:41.115Z</time><hdop>3.0</hdop><vdop>2.5</vdop><extensions><gom:speed>0.639</gom:speed></extensions></trkpt>
   <trkpt lat="59.3207185597" lon="34.6711603958"><ele>162.756</ele><time>2026-08-16T13:04:42.138Z</time><hdop>3.0</hdop><vdop>2.5</vdop><extensions><gom:speed>1.013</gom:speed></extensions></trkpt>
   <trkpt lat="59.3207147878" lon="34.6711518463"><ele>162.859</ele><time>2026-08-16T13:04:42.636Z</time><hdop>3.0</hdop><vdop>2.5</vdop><extensions><gom:speed>1.016</gom:speed></extensions></trkpt>
   <trkpt lat="59.3207106807" lon="34.6711438835"><ele>162.829</ele><time>2026-08-16T13:04:43.138Z</time><hdop>3.0</hdop><vdop>2.5</vdop><extensions><gom:speed>1.097</gom:speed></extensions></trkpt>
   <trkpt lat="59.3207052744" lon="34.6711321488"><ele>162.811</ele><time>2026-08-16T13:04:43.815Z</time><hdop>3.0</hdop><vdop>2.5</vdop><extensions><gom:speed>1.104</gom:speed></extensions></trkpt>
   <trkpt lat="59.3207008739" lon="34.6711205818"><ele>162.882</ele><time>2026-08-16T13:04:44.493Z</time><hdop>3.0</hdop><vdop>2.5</vdop><extensions><gom:speed>1.162</gom:speed></extensions></trkpt>
   <trkpt lat="59.3206976888" lon="34.6711115293"><ele>162.925</ele><time>2026-08-16T13:04:44.974Z</time><hdop>3.0</hdop><vdop>2.5</vdop><extensions><gom:speed>1.17</gom:speed></extensions></trkpt>
   <trkpt lat="59.3206925758" lon="34.6710983697"><ele>162.853</ele><time>2026-08-16T13:04:45.818Z</time><hdop>3.0</hdop><vdop>2.5</vdop><extensions><gom:speed>1.167</gom:speed></extensions></trkpt>
   <trkpt lat="59.3206853674" lon="34.6710780855"><ele>162.973</ele><time>2026-08-16T13:04:47.138Z</time><hdop>3.0</hdop><vdop>2.5</vdop><extensions><gom:speed>1.203</gom:speed></extensions></trkpt>
   <trkpt lat="59.3206803801" lon="34.6710612379"><ele>162.899</ele><time>2026-08-16T13:04:48.138Z</time><hdop>3.0</hdop><vdop>2.5</vdop><extensions><gom:speed>1.196</gom:speed></extensions></trkpt>
   <trkpt lat="59.3206755605" lon="34.6710436359"><ele>162.838</ele><time>2026-08-16T13:04:49.138Z</time><hdop>3.0</hdop><vdop>2.5</vdop><extensions><gom:speed>1.206</gom:speed></extensions></trkpt>
   <trkpt lat="59.3206723754" lon="34.6710337453"><ele>162.801</ele><time>2026-08-16T13:04:49.676Z</time><hdop>3.0</hdop><vdop>2.5</vdop><extensions><gom:speed>1.205</gom:speed></extensions></trkpt>
   <trkpt lat="59.3206703638" lon="34.6710269559"><ele>162.796</ele><time>2026-08-16T13:04:50.137Z</time><hdop>3.0</hdop><vdop>2.5</vdop><extensions><gom:speed>1.218</gom:speed></extensions></trkpt>
   <trkpt lat="59.3206663823" lon="34.67101673"><ele>162.793</ele><time>2026-08-16T13:04:50.756Z</time><hdop>3.0</hdop><vdop>2.5</vdop><extensions><gom:speed>1.222</gom:speed></extensions></trkpt>
   <trkpt lat="59.320659593" lon="34.6709986251"><ele>162.696</ele><time>2026-08-16T13:04:51.895Z</time><hdop>3.0</hdop><vdop>2.5</vdop><extensions><gom:speed>1.243</gom:speed></extensions></trkpt>
   <trkpt lat="59.3206553601" lon="34.6709771674"><ele>162.658</ele><time>2026-08-16T13:04:52.994Z</time><hdop>3.0</hdop><vdop>2.5</vdop><extensions><gom:speed>1.241</gom:speed></extensions></trkpt>
   <trkpt lat="59.3206499957" lon="34.6709529437"><ele>162.793</ele><time>2026-08-16T13:04:54.138Z</time><hdop>3.0</hdop><vdop>2.5</vdop><extensions><gom:speed>1.237</gom:speed></extensions></trkpt>
   <trkpt lat="59.3206455952" lon="34.6709361799"><ele>162.873</ele><time>2026-08-16T13:04:54.919Z</time><hdop>3.0</hdop><vdop>2.5</vdop><extensions><gom:speed>1.227</gom:speed></extensions></trkpt>
   <trkpt lat="59.3206399794" lon="34.6709123753"><ele>163.221</ele><time>2026-08-16T13:04:56.018Z</time><hdop>3.187</hdop><vdop>2.5</vdop><extensions><gom:speed>1.275</gom:speed></extensions></trkpt>
   <trkpt lat="59.3206346988" lon="34.6708874811"><ele>163.666</ele><time>2026-08-16T13:04:57.138Z</time><hdop>3.375</hdop><vdop>2.5</vdop><extensions><gom:speed>1.282</gom:speed></extensions></trkpt>
   <trkpt lat="59.3206294601" lon="34.6708648499"><ele>163.873</ele><time>2026-08-16T13:04:58.138Z</time><hdop>3.562</hdop><vdop>2.5</vdop><extensions><gom:speed>1.3</gom:speed></extensions></trkpt>
   <trkpt lat="59.3206269874" lon="34.6708534505"><ele>163.997</ele><time>2026-08-16T13:04:58.620Z</time><hdop>3.687</hdop><vdop>2.5</vdop><extensions><gom:speed>1.297</gom:speed></extensions></trkpt>
   <trkpt lat="59.3206247662" lon="34.6708419673"><ele>164.103</ele><time>2026-08-16T13:04:59.138Z</time><hdop>3.75</hdop><vdop>2.5</vdop><extensions><gom:speed>1.283</gom:speed></extensions></trkpt>
   <trkpt lat="59.3206210782" lon="34.6708276343"><ele>164.167</ele><time>2026-08-16T13:04:59.778Z</time><hdop>3.875</hdop><vdop>2.5</vdop><extensions><gom:speed>1.295</gom:speed></extensions></trkpt>
   <trkpt lat="59.3206140793" lon="34.670803662"><ele>164.203</ele><time>2026-08-16T13:05:00.936Z</time><hdop>4.125</hdop><vdop>2.5</vdop><extensions><gom:speed>1.293</gom:speed></extensions></trkpt>
   <trkpt lat="59.3206091759" lon="34.670780528"><ele>164.433</ele><time>2026-08-16T13:05:01.977Z</time><hdop>4.312</hdop><vdop>2.5</vdop><extensions><gom:speed>1.271</gom:speed></extensions></trkpt>
   <trkpt lat="59.32060817" lon="34.6707627583"><ele>164.608</ele><time>2026-08-16T13:05:02.753Z</time><hdop>4.5</hdop><vdop>2.5</vdop><extensions><gom:speed>1.261</gom:speed></extensions></trkpt>
   <trkpt lat="59.320604482" lon="34.6707380317"><ele>164.553</ele><time>2026-08-16T13:05:03.852Z</time><hdop>4.687</hdop><vdop>2.5</vdop><extensions><gom:speed>1.26</gom:speed></extensions></trkpt>
   <trkpt lat="59.320599369" lon="34.6707120478"><ele>164.535</ele><time>2026-08-16T13:05:05.138Z</time><hdop>4.875</hdop><vdop>2.5</vdop><extensions><gom:speed>1.28</gom:speed></extensions></trkpt>
   <trkpt lat="59.3205931664" lon="34.6706919313"><ele>164.604</ele><time>2026-08-16T13:05:06.138Z</time><hdop>4.875</hdop><vdop>2.5</vdop><extensions><gom:speed>1.28</gom:speed></extensions></trkpt>
   <trkpt lat="59.3205889755" lon="34.6706697192"><ele>164.734</ele><time>2026-08-16T13:05:07.138Z</time><hdop>4.937</hdop><vdop>2.5</vdop><extensions><gom:speed>1.289</gom:speed></extensions></trkpt>
   <trkpt lat="59.320585497" lon="34.6706470881"><ele>164.896</ele><time>2026-08-16T13:05:08.138Z</time><hdop>5.0</hdop><vdop>2.5</vdop><extensions><gom:speed>1.277</gom:speed></extensions></trkpt>
   <trkpt lat="59.320582689" lon="34.6706340961"><ele>164.994</ele><time>2026-08-16T13:05:08.731Z</time><hdop>5.0</hdop><vdop>2.5</vdop><extensions><gom:speed>1.284</gom:speed></extensions></trkpt>
   <trkpt lat="59.3205769893" lon="34.670611465"><ele>165.089</ele><time>2026-08-16T13:05:09.841Z</time><hdop>5.062</hdop><vdop>2.5</vdop><extensions><gom:speed>1.26</gom:speed></extensions></trkpt>
   <trkpt lat="59.3205722955" lon="34.6705865707"><ele>165.133</ele><time>2026-08-16T13:05:10.979Z</time><hdop>5.125</hdop><vdop>2.5</vdop><extensions><gom:speed>1.259</gom:speed></extensions></trkpt>
   <trkpt lat="59.3205699905" lon="34.6705703937"><ele>165.142</ele><time>2026-08-16T13:05:11.716Z</time><hdop>5.187</hdop><vdop>2.5</vdop><extensions><gom:speed>1.25</gom:speed></extensions></trkpt>
   <trkpt lat="59.3205656738" lon="34.6705460861"><ele>165.138</ele><time>2026-08-16T13:05:12.815Z</time><hdop>5.187</hdop><vdop>2.5</vdop><extensions><gom:speed>1.249</gom:speed></extensions></trkpt>
   <trkpt lat="59.3205643746" lon="34.6705370337"><ele>165.171</ele><time>2026-08-16T13:05:13.276Z</time><hdop>5.187</hdop><vdop>2.5</vdop><extensions><gom:speed>1.228</gom:speed></extensions></trkpt>
   <trkpt lat="59.3205605608" lon="34.6705204375"><ele>165.191</ele><time>2026-08-16T13:05:14.013Z</time><hdop>5.187</hdop><vdop>2.5</vdop><extensions><gom:speed>1.243</gom:speed></extensions></trkpt>
   <trkpt lat="59.3205577948" lon="34.670497974"><ele>165.059</ele><time>2026-08-16T13:05:15.138Z</time><hdop>5.125</hdop><vdop>2.5</vdop><extensions><gom:speed>1.237</gom:speed></extensions></trkpt>
   <trkpt lat="59.3205543582" lon="34.670478528"><ele>164.914</ele><time>2026-08-16T13:05:16.138Z</time><hdop>5.125</hdop><vdop>2.5</vdop><extensions><gom:speed>1.234</gom:speed></extensions></trkpt>
   <trkpt lat="59.3205518855" lon="34.6704674639"><ele>164.828</ele><time>2026-08-16T13:05:16.693Z</time><hdop>5.125</hdop><vdop>2.5</vdop><extensions><gom:speed>1.228</gom:speed></extensions></trkpt>
   <trkpt lat="59.3205482813" lon="34.6704537176"><ele>164.667</ele><time>2026-08-16T13:05:17.439Z</time><hdop>5.062</hdop><vdop>2.5</vdop><extensions><gom:speed>1.24</gom:speed></extensions></trkpt>
   <trkpt lat="59.3205450962" lon="34.6704403903"><ele>164.541</ele><time>2026-08-16T13:05:18.138Z</time><hdop>5.0</hdop><vdop>2.5</vdop><extensions><gom:speed>1.252</gom:speed></extensions></trkpt>
   <trkpt lat="59.320542875" lon="34.6704311703"><ele>164.466</ele><time>2026-08-16T13:05:18.597Z</time><hdop>5.0</hdop><vdop>2.5</vdop><extensions><gom:speed>1.248</gom:speed></extensions></trkpt>
   <trkpt lat="59.3205397737" lon="34.6704213634"><ele>164.317</ele><time>2026-08-16T13:05:19.138Z</time><hdop>5.0</hdop><vdop>2.5</vdop><extensions><gom:speed>1.249</gom:speed></extensions></trkpt>
   <trkpt lat="59.3205369658" lon="34.6704121433"><ele>164.228</ele><time>2026-08-16T13:05:19.618Z</time><hdop>5.0</hdop><vdop>2.5</vdop><extensions><gom:speed>1.246</gom:speed></extensions></trkpt>
   <trkpt lat="59.3205343674" lon="34.6704017498"><ele>164.195</ele><time>2026-08-16T13:05:20.138Z</time><hdop>5.0</hdop><vdop>2.5</vdop><extensions><gom:speed>1.244</gom:speed></extensions></trkpt>
   <trkpt lat="59.320529464" lon="34.6703816332"><ele>164.175</ele><time>2026-08-16T13:05:21.120Z</time><hdop>5.0</hdop><vdop>2.5</vdop><extensions><gom:speed>1.245</gom:speed></extensions></trkpt>
   <trkpt lat="59.3205256921" lon="34.6703670487"><ele>164.135</ele><time>2026-08-16T13:05:21.915Z</time><hdop>5.0</hdop><vdop>2.5</vdop><extensions><gom:speed>1.229</gom:speed></extensions></trkpt>
   <trkpt lat="59.3205193638" lon="34.6703452557"><ele>163.982</ele><time>2026-08-16T13:05:23.035Z</time><hdop>5.0</hdop><vdop>2.5</vdop><extensions><gom:speed>1.255</gom:speed></extensions></trkpt>
   <trkpt lat="59.3205120715" lon="34.6703275699"><ele>163.905</ele><time>2026-08-16T13:05:24.138Z</time><hdop>4.937</hdop><vdop>2.5</vdop><extensions><gom:speed>1.251</gom:speed></extensions></trkpt>
   <trkpt lat="59.3205065814" lon="34.6703084592"><ele>163.853</ele><time>2026-08-16T13:05:25.138Z</time><hdop>4.937</hdop><vdop>2.5</vdop><extensions><gom:speed>1.225</gom:speed></extensions></trkpt>
   <trkpt lat="59.3205034801" lon="34.6702962216"><ele>163.822</ele><time>2026-08-16T13:05:25.734Z</time><hdop>4.937</hdop><vdop>2.5</vdop><extensions><gom:speed>1.225</gom:speed></extensions></trkpt>
   <trkpt lat="59.3205002949" lon="34.6702819724"><ele>163.693</ele><time>2026-08-16T13:05:26.500Z</time><hdop>4.875</hdop><vdop>2.5</vdop><extensions><gom:speed>1.226</gom:speed></extensions></trkpt>
   <trkpt lat="59.3204969841" lon="34.6702698186"><ele>163.574</ele><time>2026-08-16T13:05:27.138Z</time><hdop>4.875</hdop><vdop>2.5</vdop><extensions><gom:speed>1.242</gom:speed></extensions></trkpt>
   <trkpt lat="59.32049426" lon="34.6702602632"><ele>163.504</ele><time>2026-08-16T13:05:27.639Z</time><hdop>4.875</hdop><vdop>2.5</vdop><extensions><gom:speed>1.238</gom:speed></extensions></trkpt>
   <trkpt lat="59.3204921645" lon="34.6702502888"><ele>163.327</ele><time>2026-08-16T13:05:28.138Z</time><hdop>4.875</hdop><vdop>2.5</vdop><extensions><gom:speed>1.239</gom:speed></extensions></trkpt>
   <trkpt lat="59.3204892727" lon="34.6702374645"><ele>163.221</ele><time>2026-08-16T13:05:28.757Z</time><hdop>4.937</hdop><vdop>2.5</vdop><extensions><gom:speed>1.24</gom:speed></extensions></trkpt>
   <trkpt lat="59.3204838664" lon="34.6702146657"><ele>163.052</ele><time>2026-08-16T13:05:29.936Z</time><hdop>5.0</hdop><vdop>2.5</vdop><extensions><gom:speed>1.22</gom:speed></extensions></trkpt>
   <trkpt lat="59.3204777895" lon="34.6701945491"><ele>163.045</ele><time>2026-08-16T13:05:31.055Z</time><hdop>5.125</hdop><vdop>2.5</vdop><extensions><gom:speed>1.233</gom:speed></extensions></trkpt>
   <trkpt lat="59.3204718803" lon="34.6701766957"><ele>163.047</ele><time>2026-08-16T13:05:32.137Z</time><hdop>5.187</hdop><vdop>2.5</vdop><extensions><gom:speed>1.226</gom:speed></extensions></trkpt>
   <trkpt lat="59.3204669769" lon="34.6701581717"><ele>163.014</ele><time>2026-08-16T13:05:33.138Z</time><hdop>5.25</hdop><vdop>2.5</vdop><extensions><gom:speed>1.238</gom:speed></extensions></trkpt>
   <trkpt lat="59.3204642947" lon="34.6701470237"><ele>162.994</ele><time>2026-08-16T13:05:33.696Z</time><hdop>5.312</hdop><vdop>2.5</vdop><extensions><gom:speed>1.226</gom:speed></extensions></trkpt>
   <trkpt lat="59.3204609838" lon="34.6701342832"><ele>162.914</ele><time>2026-08-16T13:05:34.471Z</time><hdop>5.312</hdop><vdop>2.5</vdop><extensions><gom:speed>1.241</gom:speed></extensions></trkpt>
   <trkpt lat="59.3204575891" lon="34.6701227162"><ele>162.864</ele><time>2026-08-16T13:05:35.138Z</time><hdop>5.312</hdop><vdop>2.5</vdop><extensions><gom:speed>1.254</gom:speed></extensions></trkpt>
   <trkpt lat="59.320454865" lon="34.670113999"><ele>162.834</ele><time>2026-08-16T13:05:35.620Z</time><hdop>5.312</hdop><vdop>2.5</vdop><extensions><gom:speed>1.253</gom:speed></extensions></trkpt>
   <trkpt lat="59.3204515961" lon="34.6701045275"><ele>162.897</ele><time>2026-08-16T13:05:36.138Z</time><hdop>5.312</hdop><vdop>2.5</vdop><extensions><gom:speed>1.253</gom:speed></extensions></trkpt>
   <trkpt lat="59.3204479919" lon="34.6700931281"><ele>162.934</ele><time>2026-08-16T13:05:36.759Z</time><hdop>5.312</hdop><vdop>2.5</vdop><extensions><gom:speed>1.243</gom:speed></extensions></trkpt>
   <trkpt lat="59.3204414959" lon="34.6700693235"><ele>162.898</ele><time>2026-08-16T13:05:38.138Z</time><hdop>5.187</hdop><vdop>2.5</vdop><extensions><gom:speed>1.277</gom:speed></extensions></trkpt>
   <trkpt lat="59.3204367601" lon="34.6700511348"><ele>162.804</ele><time>2026-08-16T13:05:39.138Z</time><hdop>5.062</hdop><vdop>2.5</vdop><extensions><gom:speed>1.288</gom:speed></extensions></trkpt>
   <trkpt lat="59.3204306832" lon="34.6700295933"><ele>162.748</ele><time>2026-08-16T13:05:40.136Z</time><hdop>4.937</hdop><vdop>2.5</vdop><extensions><gom:speed>1.282</gom:speed></extensions></trkpt>
   <trkpt lat="59.3204243968" lon="34.6700129971"><ele>162.418</ele><time>2026-08-16T13:05:41.138Z</time><hdop>4.75</hdop><vdop>2.5</vdop><extensions><gom:speed>1.301</gom:speed></extensions></trkpt>
   <trkpt lat="59.3204211698" lon="34.6700041961"><ele>162.221</ele><time>2026-08-16T13:05:41.599Z</time><hdop>4.75</hdop><vdop>2.5</vdop><extensions><gom:speed>1.302</gom:speed></extensions></trkpt>
   <trkpt lat="59.3204178589" lon="34.6699941378"><ele>161.886</ele><time>2026-08-16T13:05:42.138Z</time><hdop>4.625</hdop><vdop>2.5</vdop><extensions><gom:speed>1.311</gom:speed></extensions></trkpt>
   <trkpt lat="59.3204144642" lon="34.6699831575"><ele>161.686</ele><time>2026-08-16T13:05:42.658Z</time><hdop>4.687</hdop><vdop>2.5</vdop><extensions><gom:speed>1.31</gom:speed></extensions></trkpt>
   <trkpt lat="59.320411782" lon="34.6699749433"><ele>161.468</ele><time>2026-08-16T13:05:43.138Z</time><hdop>4.687</hdop><vdop>2.5</vdop><extensions><gom:speed>1.313</gom:speed></extensions></trkpt>
   <trkpt lat="59.3204078845" lon="34.669962119"><ele>161.338</ele><time>2026-08-16T13:05:43.778Z</time><hdop>4.687</hdop><vdop>2.5</vdop><extensions><gom:speed>1.324</gom:speed></extensions></trkpt>
   <trkpt lat="59.3204007598" lon="34.6699416671"><ele>161.268</ele><time>2026-08-16T13:05:44.878Z</time><hdop>4.75</hdop><vdop>2.5</vdop><extensions><gom:speed>1.323</gom:speed></extensions></trkpt>
   <trkpt lat="59.3203935933" lon="34.6699213829"><ele>161.202</ele><time>2026-08-16T13:05:45.957Z</time><hdop>4.812</hdop><vdop>2.5</vdop><extensions><gom:speed>1.316</gom:speed></extensions></trkpt>
   <trkpt lat="59.3203892766" lon="34.6699048706"><ele>161.27</ele><time>2026-08-16T13:05:46.792Z</time><hdop>4.812</hdop><vdop>2.5</vdop><extensions><gom:speed>1.314</gom:speed></extensions></trkpt>
   <trkpt lat="59.3203831997" lon="34.6698836643"><ele>161.301</ele><time>2026-08-16T13:05:47.872Z</time><hdop>4.937</hdop><vdop>2.5</vdop><extensions><gom:speed>1.305</gom:speed></extensions></trkpt>
   <trkpt lat="59.3203778772" lon="34.6698607817"><ele>161.306</ele><time>2026-08-16T13:05:49.001Z</time><hdop>5.0</hdop><vdop>2.5</vdop><extensions><gom:speed>1.272</gom:speed></extensions></trkpt>
   <trkpt lat="59.3203716746" lon="34.6698381506"><ele>161.432</ele><time>2026-08-16T13:05:50.120Z</time><hdop>5.125</hdop><vdop>2.5</vdop><extensions><gom:speed>1.303</gom:speed></extensions></trkpt>
   <trkpt lat="59.320366394" lon="34.6698205486"><ele>161.39</ele><time>2026-08-16T13:05:51.138Z</time><hdop>5.187</hdop><vdop>2.5</vdop><extensions><gom:speed>1.289</gom:speed></extensions></trkpt>
   <trkpt lat="59.3203638795" lon="34.6698114962"><ele>161.365</ele><time>2026-08-16T13:05:51.592Z</time><hdop>5.187</hdop><vdop>2.5</vdop><extensions><gom:speed>1.297</gom:speed></extensions></trkpt>
   <trkpt lat="59.3203610715" lon="34.6698017731"><ele>161.39</ele><time>2026-08-16T13:05:52.138Z</time><hdop>5.187</hdop><vdop>2.5</vdop><extensions><gom:speed>1.277</gom:speed></extensions></trkpt>
   <trkpt lat="59.3203579702" lon="34.6697909605"><ele>161.405</ele><time>2026-08-16T13:05:52.672Z</time><hdop>5.25</hdop><vdop>2.5</vdop><extensions><gom:speed>1.276</gom:speed></extensions></trkpt>
   <trkpt lat="59.320355288" lon="34.6697826624"><ele>161.372</ele><time>2026-08-16T13:05:53.138Z</time><hdop>5.187</hdop><vdop>2.5</vdop><extensions><gom:speed>1.282</gom:speed></extensions></trkpt>
   <trkpt lat="59.3203519772" lon="34.6697674912"><ele>161.353</ele><time>2026-08-16T13:05:53.821Z</time><hdop>5.187</hdop><vdop>2.5</vdop><extensions><gom:speed>1.286</gom:speed></extensions></trkpt>
   <trkpt lat="59.3203453974" lon="34.66974486"><ele>161.275</ele><time>2026-08-16T13:05:54.920Z</time><hdop>5.125</hdop><vdop>2.5</vdop><extensions><gom:speed>1.3</gom:speed></extensions></trkpt>
   <trkpt lat="59.3203398653" lon="34.669731449"><ele>161.077</ele><time>2026-08-16T13:05:55.735Z</time><hdop>5.0</hdop><vdop>2.5</vdop><extensions><gom:speed>1.272</gom:speed></extensions></trkpt>
   <trkpt lat="59.3203336627" lon="34.6697099913"><ele>160.841</ele><time>2026-08-16T13:05:56.874Z</time><hdop>4.875</hdop><vdop>2.5</vdop><extensions><gom:speed>1.248</gom:speed></extensions></trkpt>
   <trkpt lat="59.3203273763" lon="34.6696895395"><ele>160.805</ele><time>2026-08-16T13:05:57.993Z</time><hdop>4.812</hdop><vdop>2.5</vdop><extensions><gom:speed>1.239</gom:speed></extensions></trkpt>
   <trkpt lat="59.3203213832" lon="34.6696701773"><ele>160.891</ele><time>2026-08-16T13:05:59.138Z</time><hdop>4.687</hdop><vdop>2.5</vdop><extensions><gom:speed>1.271</gom:speed></extensions></trkpt>
   <trkpt lat="59.3203174856" lon="34.6696506474"><ele>160.918</ele><time>2026-08-16T13:06:00.138Z</time><hdop>4.625</hdop><vdop>2.5</vdop><extensions><gom:speed>1.281</gom:speed></extensions></trkpt>
   <trkpt lat="59.3203153902" lon="34.6696403377"><ele>160.933</ele><time>2026-08-16T13:06:00.614Z</time><hdop>4.687</hdop><vdop>2.5</vdop><extensions><gom:speed>1.286</gom:speed></extensions></trkpt>
   <trkpt lat="59.3203131689" lon="34.6696310338"><ele>160.852</ele><time>2026-08-16T13:06:01.138Z</time><hdop>4.625</hdop><vdop>2.5</vdop><extensions><gom:speed>1.263</gom:speed></extensions></trkpt>
   <trkpt lat="59.3203098581" lon="34.6696197182"><ele>160.803</ele><time>2026-08-16T13:06:01.714Z</time><hdop>4.687</hdop><vdop>2.5</vdop><extensions><gom:speed>1.263</gom:speed></extensions></trkpt>
   <trkpt lat="59.3203058767" lon="34.6696026191"><ele>160.872</ele><time>2026-08-16T13:06:02.558Z</time><hdop>4.75</hdop><vdop>2.5</vdop><extensions><gom:speed>1.273</gom:speed></extensions></trkpt>
   <trkpt lat="59.3203037812" lon="34.6695914712"><ele>160.933</ele><time>2026-08-16T13:06:03.138Z</time><hdop>4.812</hdop><vdop>2.5</vdop><extensions><gom:speed>1.273</gom:speed></extensions></trkpt>
   <trkpt lat="59.3203013924" lon="34.6695805747"><ele>160.969</ele><time>2026-08-16T13:06:03.677Z</time><hdop>4.875</hdop><vdop>2.5</vdop><extensions><gom:speed>1.279</gom:speed></extensions></trkpt>
   <trkpt lat="59.3203003865" lon="34.6695712708"><ele>160.908</ele><time>2026-08-16T13:06:04.138Z</time><hdop>4.937</hdop><vdop>2.5</vdop><extensions><gom:speed>1.294</gom:speed></extensions></trkpt>
   <trkpt lat="59.3202984587" lon="34.6695609611"><ele>160.872</ele><time>2026-08-16T13:06:04.620Z</time><hdop>5.0</hdop><vdop>2.5</vdop><extensions><gom:speed>1.292</gom:speed></extensions></trkpt>
   <trkpt lat="59.3202962794" lon="34.6695491426"><ele>160.85</ele><time>2026-08-16T13:06:05.140Z</time><hdop>5.062</hdop><vdop>2.5</vdop><extensions><gom:speed>1.287</gom:speed></extensions></trkpt>
   <trkpt lat="59.3202941839" lon="34.6695370726"><ele>160.8</ele><time>2026-08-16T13:06:05.739Z</time><hdop>5.125</hdop><vdop>2.5</vdop><extensions><gom:speed>1.264</gom:speed></extensions></trkpt>
   <trkpt lat="59.320293681" lon="34.6695272658"><ele>160.888</ele><time>2026-08-16T13:06:06.239Z</time><hdop>5.187</hdop><vdop>2.5</vdop><extensions><gom:speed>1.259</gom:speed></extensions></trkpt>
   <trkpt lat="59.3202914598" lon="34.6695120946"><ele>160.94</ele><time>2026-08-16T13:06:06.917Z</time><hdop>5.312</hdop><vdop>2.5</vdop><extensions><gom:speed>1.262</gom:speed></extensions></trkpt>
   <trkpt lat="59.3202907893" lon="34.669502623"><ele>160.937</ele><time>2026-08-16T13:06:07.378Z</time><hdop>5.375</hdop><vdop>2.5</vdop><extensions><gom:speed>1.29</gom:speed></extensions></trkpt>
   <trkpt lat="59.3202881909" lon="34.6694881223"><ele>160.936</ele><time>2026-08-16T13:06:07.997Z</time><hdop>5.437</hdop><vdop>2.5</vdop><extensions><gom:speed>1.293</gom:speed></extensions></trkpt>
   <trkpt lat="59.3202860954" lon="34.6694784831"><ele>160.981</ele><time>2026-08-16T13:06:08.517Z</time><hdop>5.5</hdop><vdop>2.5</vdop><extensions><gom:speed>1.288</gom:speed></extensions></trkpt>
   <trkpt lat="59.3202828684" lon="34.6694673352"><ele>160.956</ele><time>2026-08-16T13:06:09.138Z</time><hdop>5.5</hdop><vdop>2.5</vdop><extensions><gom:speed>1.273</gom:speed></extensions></trkpt>
   <trkpt lat="59.3202801862" lon="34.6694571931"><ele>160.941</ele><time>2026-08-16T13:06:09.636Z</time><hdop>5.5</hdop><vdop>2.5</vdop><extensions><gom:speed>1.269</gom:speed></extensions></trkpt>
   <trkpt lat="59.3202776716" lon="34.6694481406"><ele>161.01</ele><time>2026-08-16T13:06:10.138Z</time><hdop>5.5</hdop><vdop>2.5</vdop><extensions><gom:speed>1.256</gom:speed></extensions></trkpt>
   <trkpt lat="59.3202745703" lon="34.6694352325"><ele>161.052</ele><time>2026-08-16T13:06:10.755Z</time><hdop>5.5</hdop><vdop>2.5</vdop><extensions><gom:speed>1.252</gom:speed></extensions></trkpt>
   <trkpt lat="59.3202708822" lon="34.6694191393"><ele>161.085</ele><time>2026-08-16T13:06:11.580Z</time><hdop>5.5</hdop><vdop>2.5</vdop><extensions><gom:speed>1.263</gom:speed></extensions></trkpt>
   <trkpt lat="59.3202684934" lon="34.6694073208"><ele>161.138</ele><time>2026-08-16T13:06:12.138Z</time><hdop>5.437</hdop><vdop>2.5</vdop><extensions><gom:speed>1.282</gom:speed></extensions></trkpt>
   <trkpt lat="59.3202645958" lon="34.6693879586"><ele>161.169</ele><time>2026-08-16T13:06:13.013Z</time><hdop>5.437</hdop><vdop>2.5</vdop><extensions><gom:speed>1.276</gom:speed></extensions></trkpt>
   <trkpt lat="59.3202601953" lon="34.6693689317"><ele>161.133</ele><time>2026-08-16T13:06:14.138Z</time><hdop>5.312</hdop><vdop>2.5</vdop><extensions><gom:speed>1.258</gom:speed></extensions></trkpt>
   <trkpt lat="59.3202572617" lon="34.6693495695"><ele>161.112</ele><time>2026-08-16T13:06:14.995Z</time><hdop>5.312</hdop><vdop>2.5</vdop><extensions><gom:speed>1.266</gom:speed></extensions></trkpt>
   <trkpt lat="59.320251562" lon="34.6693282794"><ele>161.093</ele><time>2026-08-16T13:06:16.096Z</time><hdop>5.187</hdop><vdop>2.5</vdop><extensions><gom:speed>1.283</gom:speed></extensions></trkpt>
   <trkpt lat="59.3202462814" lon="34.66931227"><ele>161.078</ele><time>2026-08-16T13:06:17.138Z</time><hdop>5.125</hdop><vdop>2.5</vdop><extensions><gom:speed>1.285</gom:speed></extensions></trkpt>
   <trkpt lat="59.3202434734" lon="34.6693017926"><ele>161.07</ele><time>2026-08-16T13:06:17.676Z</time><hdop>5.125</hdop><vdop>2.5</vdop><extensions><gom:speed>1.284</gom:speed></extensions></trkpt>
   <trkpt lat="59.3202414618" lon="34.6692936622"><ele>161.225</ele><time>2026-08-16T13:06:18.138Z</time><hdop>5.062</hdop><vdop>2.5</vdop><extensions><gom:speed>1.265</gom:speed></extensions></trkpt>
   <trkpt lat="59.3202388634" lon="34.6692815922"><ele>161.318</ele><time>2026-08-16T13:06:18.716Z</time><hdop>5.062</hdop><vdop>2.5</vdop><extensions><gom:speed>1.264</gom:speed></extensions></trkpt>
   <trkpt lat="59.3202347982" lon="34.6692647446"><ele>161.369</ele><time>2026-08-16T13:06:19.492Z</time><hdop>5.062</hdop><vdop>2.5</vdop><extensions><gom:speed>1.278</gom:speed></extensions></trkpt>
   <trkpt lat="59.3202308587" lon="34.6692520879"><ele>161.509</ele><time>2026-08-16T13:06:20.138Z</time><hdop>5.062</hdop><vdop>2.5</vdop><extensions><gom:speed>1.275</gom:speed></extensions></trkpt>
   <trkpt lat="59.3202253685" lon="34.6692343183"><ele>161.594</ele><time>2026-08-16T13:06:21.014Z</time><hdop>5.062</hdop><vdop>2.5</vdop><extensions><gom:speed>1.28</gom:speed></extensions></trkpt>
   <trkpt lat="59.320223273" lon="34.6692288701"><ele>161.566</ele><time>2026-08-16T13:06:21.691Z</time><hdop>4.812</hdop><vdop>2.5</vdop><extensions><gom:speed>1.269</gom:speed></extensions></trkpt>
   <trkpt lat="59.3202294756" lon="34.6692201529"><ele>161.459</ele><time>2026-08-16T13:06:22.783Z</time><hdop>4.5</hdop><vdop>2.5</vdop><extensions><gom:speed>1.228</gom:speed></extensions></trkpt>
   <trkpt lat="59.3202314873" lon="34.6692191471"><ele>161.26</ele><time>2026-08-16T13:06:23.479Z</time><hdop>4.187</hdop><vdop>2.5</vdop><extensions><gom:speed>1.186</gom:speed></extensions></trkpt>
   <trkpt lat="59.320232996" lon="34.6692124415"><ele>161.142</ele><time>2026-08-16T13:06:24.001Z</time><hdop>4.062</hdop><vdop>2.5</vdop><extensions><gom:speed>1.202</gom:speed></extensions></trkpt>
   <trkpt lat="59.3202250751" lon="34.6691997849"><ele>161.098</ele><time>2026-08-16T13:06:24.618Z</time><hdop>3.75</hdop><vdop>2.5</vdop><extensions><gom:speed>1.131</gom:speed></extensions></trkpt>
   <trkpt lat="59.3202173638" lon="34.6691887207"><ele>161.097</ele><time>2026-08-16T13:06:25.138Z</time><hdop>3.562</hdop><vdop>2.5</vdop><extensions><gom:speed>1.123</gom:speed></extensions></trkpt>
   <trkpt lat="59.3202105745" lon="34.6691790816"><ele>161.096</ele><time>2026-08-16T13:06:25.699Z</time><hdop>3.375</hdop><vdop>2.5</vdop><extensions><gom:speed>1.131</gom:speed></extensions></trkpt>
   <trkpt lat="59.3201967862" lon="34.6691550255"><ele>161.277</ele><time>2026-08-16T13:06:26.877Z</time><hdop>3.125</hdop><vdop>2.5</vdop><extensions><gom:speed>1.115</gom:speed></extensions></trkpt>
   <trkpt lat="59.3201871889" lon="34.6691348251"><ele>161.722</ele><time>2026-08-16T13:06:27.976Z</time><hdop>3.125</hdop><vdop>2.5</vdop><extensions><gom:speed>1.13</gom:speed></extensions></trkpt>
   <trkpt lat="59.3201818664" lon="34.6691191509"><ele>162.035</ele><time>2026-08-16T13:06:28.644Z</time><hdop>3.062</hdop><vdop>2.5</vdop><extensions><gom:speed>1.139</gom:speed></extensions></trkpt>
   <trkpt lat="59.3201787651" lon="34.6691096794"><ele>162.222</ele><time>2026-08-16T13:06:29.115Z</time><hdop>3.062</hdop><vdop>2.5</vdop><extensions><gom:speed>1.136</gom:speed></extensions></trkpt>
   <trkpt lat="59.320173275" lon="34.6690892276"><ele>162.518</ele><time>2026-08-16T13:06:30.019Z</time><hdop>3.0</hdop><vdop>2.5</vdop><extensions><gom:speed>1.089</gom:speed></extensions></trkpt>
   <trkpt lat="59.3201648931" lon="34.6690728828"><ele>162.702</ele><time>2026-08-16T13:06:30.941Z</time><hdop>3.0</hdop><vdop>2.5</vdop><extensions><gom:speed>1.112</gom:speed></extensions></trkpt>
   <trkpt lat="59.3201594868" lon="34.669063076"><ele>162.845</ele><time>2026-08-16T13:06:31.462Z</time><hdop>3.0</hdop><vdop>2.5</vdop><extensions><gom:speed>1.157</gom:speed></extensions></trkpt>
   <trkpt lat="59.3201536613" lon="34.6690484915"><ele>163.161</ele><time>2026-08-16T13:06:32.138Z</time><hdop>3.0</hdop><vdop>2.5</vdop><extensions><gom:speed>1.197</gom:speed></extensions></trkpt>
   <trkpt lat="59.3201471654" lon="34.6690257765"><ele>163.35</ele><time>2026-08-16T13:06:33.101Z</time><hdop>3.0</hdop><vdop>2.5</vdop><extensions><gom:speed>1.185</gom:speed></extensions></trkpt>
   <trkpt lat="59.3201449861" lon="34.6689945959"><ele>163.429</ele><time>2026-08-16T13:06:34.138Z</time><hdop>3.0</hdop><vdop>2.5</vdop><extensions><gom:speed>1.148</gom:speed></extensions></trkpt>
   <trkpt lat="59.3201429744" lon="34.6689796761"><ele>163.477</ele><time>2026-08-16T13:06:34.748Z</time><hdop>3.0</hdop><vdop>2.5</vdop><extensions><gom:speed>1.143</gom:speed></extensions></trkpt>
   <trkpt lat="59.3201413818" lon="34.6689651754"><ele>163.403</ele><time>2026-08-16T13:06:35.268Z</time><hdop>3.0</hdop><vdop>2.5</vdop><extensions><gom:speed>1.155</gom:speed></extensions></trkpt>
   <trkpt lat="59.320136688" lon="34.6689494174"><ele>163.453</ele><time>2026-08-16T13:06:36.138Z</time><hdop>3.0</hdop><vdop>2.5</vdop><extensions><gom:speed>1.155</gom:speed></extensions></trkpt>
   <trkpt lat="59.320130192" lon="34.6689346653"><ele>163.537</ele><time>2026-08-16T13:06:37.138Z</time><hdop>3.0</hdop><vdop>2.5</vdop><extensions><gom:speed>1.197</gom:speed></extensions></trkpt>
   <trkpt lat="59.3201277612" lon="34.6689252775"><ele>163.588</ele><time>2026-08-16T13:06:37.615Z</time><hdop>3.0</hdop><vdop>2.5</vdop><extensions><gom:speed>1.205</gom:speed></extensions></trkpt>
   <trkpt lat="59.3201257915" lon="34.6689174824"><ele>163.404</ele><time>2026-08-16T13:06:38.138Z</time><hdop>3.0</hdop><vdop>2.5</vdop><extensions><gom:speed>1.177</gom:speed></extensions></trkpt>
   <trkpt lat="59.3201244923" lon="34.6689193264"><ele>163.452</ele><time>2026-08-16T13:06:39.138Z</time><hdop>3.0</hdop><vdop>2.5</vdop><extensions><gom:speed>0.674</gom:speed></extensions></trkpt>
   <trkpt lat="59.3201310721" lon="34.6689336594"><ele>163.452</ele><time>2026-08-16T13:06:40.138Z</time><hdop>3.0</hdop><vdop>2.5</vdop><extensions><gom:speed>0.254</gom:speed></extensions></trkpt>
   <trkpt lat="59.3201353888" lon="34.6689365931"><ele>163.454</ele><time>2026-08-16T13:06:41.138Z</time><hdop>3.0</hdop><vdop>2.5</vdop><extensions><gom:speed>0.081</gom:speed></extensions></trkpt>
   <trkpt lat="59.320138071" lon="34.6689347491"><ele>163.456</ele><time>2026-08-16T13:06:42.138Z</time><hdop>3.0</hdop><vdop>2.5</vdop><extensions><gom:speed>0.077</gom:speed></extensions></trkpt>
   <trkpt lat="59.3201390768" lon="34.6689319831"><ele>163.458</ele><time>2026-08-16T13:06:43.138Z</time><hdop>3.0</hdop><vdop>2.5</vdop><extensions><gom:speed>0.067</gom:speed></extensions></trkpt>
   <trkpt lat="59.3201396636" lon="34.6689296361"><ele>163.459</ele><time>2026-08-16T13:06:44.138Z</time><hdop>3.0</hdop><vdop>2.5</vdop><extensions><gom:speed>0.014</gom:speed></extensions></trkpt>
   <trkpt lat="59.3201396636" lon="34.668929217"><ele>163.46</ele><time>2026-08-16T13:06:45.125Z</time><hdop>3.0</hdop><vdop>2.5</vdop><extensions><gom:speed>0.017</gom:speed></extensions></trkpt>
   <trkpt lat="59.3201401665" lon="34.6689260319"><ele>163.237</ele><time>2026-08-16T13:06:46.138Z</time><hdop>3.0</hdop><vdop>2.5</vdop><extensions><gom:speed>0.065</gom:speed></extensions></trkpt>
   <trkpt lat="59.3201398731" lon="34.6689253613"><ele>163.104</ele><time>2026-08-16T13:06:46.765Z</time><hdop>3.0</hdop><vdop>2.5</vdop><extensions><gom:speed>0.104</gom:speed></extensions></trkpt>
   <trkpt lat="59.3201397893" lon="34.6689229306"><ele>163.063</ele><time>2026-08-16T13:06:48.138Z</time><hdop>3.0</hdop><vdop>2.5</vdop><extensions><gom:speed>0.024</gom:speed></extensions></trkpt>
   <trkpt lat="59.3201394959" lon="34.668921338"><ele>163.012</ele><time>2026-08-16T13:06:49.137Z</time><hdop>3.0</hdop><vdop>2.5</vdop><extensions><gom:speed>0.095</gom:speed></extensions></trkpt>
   <trkpt lat="59.3201387835" lon="34.6689202484"><ele>162.979</ele><time>2026-08-16T13:06:50.138Z</time><hdop>3.0</hdop><vdop>2.5</vdop><extensions><gom:speed>0.097</gom:speed></extensions></trkpt>
   <trkpt lat="59.3201382805" lon="34.6689206675"><ele>162.963</ele><time>2026-08-16T13:06:51.138Z</time><hdop>3.0</hdop><vdop>2.5</vdop><extensions><gom:speed>0.084</gom:speed></extensions></trkpt>
   <trkpt lat="59.3201379872" lon="34.6689205837"><ele>162.968</ele><time>2026-08-16T13:06:52.138Z</time><hdop>3.0</hdop><vdop>2.5</vdop><extensions><gom:speed>0.019</gom:speed></extensions></trkpt>
   <trkpt lat="59.3201381967" lon="34.6689209189"><ele>162.968</ele><time>2026-08-16T13:06:53.138Z</time><hdop>3.0</hdop><vdop>2.5</vdop><extensions><gom:speed>0.019</gom:speed></extensions></trkpt>
   <trkpt lat="59.3201382805" lon="34.668921338"><ele>162.964</ele><time>2026-08-16T13:06:54.138Z</time><hdop>3.0</hdop><vdop>2.5</vdop><extensions><gom:speed>0.065</gom:speed></extensions></trkpt>
   <trkpt lat="59.3201376938" lon="34.6689205837"><ele>162.971</ele><time>2026-08-16T13:06:55.138Z</time><hdop>3.0</hdop><vdop>2.5</vdop><extensions><gom:speed>0.058</gom:speed></extensions></trkpt>
   <trkpt lat="59.3201375681" lon="34.6689198293"><ele>162.971</ele><time>2026-08-16T13:06:56.137Z</time><hdop>3.0</hdop><vdop>2.5</vdop><extensions><gom:speed>0.016</gom:speed></extensions></trkpt>
   <trkpt lat="59.3201382805" lon="34.6689200807"><ele>162.967</ele><time>2026-08-16T13:06:57.138Z</time><hdop>3.0</hdop><vdop>2.5</vdop><extensions><gom:speed>0.014</gom:speed></extensions></trkpt>
   <trkpt lat="59.3201379872" lon="34.6689211704"><ele>162.962</ele><time>2026-08-16T13:06:58.138Z</time><hdop>3.0</hdop><vdop>2.5</vdop><extensions><gom:speed>0.065</gom:speed></extensions></trkpt>
   <trkpt lat="59.3201382805" lon="34.6689210866"><ele>162.955</ele><time>2026-08-16T13:06:59.138Z</time><hdop>3.0</hdop><vdop>2.5</vdop><extensions><gom:speed>0.065</gom:speed></extensions></trkpt>
   <trkpt lat="59.3201377776" lon="34.6689215895"><ele>162.935</ele><time>2026-08-16T13:07:00.138Z</time><hdop>3.0</hdop><vdop>2.5</vdop><extensions><gom:speed>0.0</gom:speed></extensions></trkpt>
   <trkpt lat="59.3201377776" lon="34.6689214219"><ele>162.911</ele><time>2026-08-16T13:07:01.138Z</time><hdop>3.0</hdop><vdop>2.5</vdop><extensions><gom:speed>0.014</gom:speed></extensions></trkpt>
   <trkpt lat="59.3201375681" lon="34.6689215895"><ele>162.886</ele><time>2026-08-16T13:07:02.138Z</time><hdop>3.0</hdop><vdop>2.5</vdop><extensions><gom:speed>0.025</gom:speed></extensions></trkpt>
   <trkpt lat="59.3201372747" lon="34.6689217571"><ele>162.857</ele><time>2026-08-16T13:07:03.138Z</time><hdop>3.0</hdop><vdop>2.5</vdop><extensions><gom:speed>0.033</gom:speed></extensions></trkpt>
   <trkpt lat="59.3201369813" lon="34.6689216733"><ele>162.836</ele><time>2026-08-16T13:07:04.138Z</time><hdop>3.0</hdop><vdop>2.5</vdop><extensions><gom:speed>0.037</gom:speed></extensions></trkpt>
   <trkpt lat="59.3201369813" lon="34.6689209189"><ele>162.818</ele><time>2026-08-16T13:07:05.138Z</time><hdop>3.0</hdop><vdop>2.5</vdop><extensions><gom:speed>0.044</gom:speed></extensions></trkpt>
   <trkpt lat="59.3201369813" lon="34.6689200807"><ele>162.837</ele><time>2026-08-16T13:07:06.138Z</time><hdop>3.0</hdop><vdop>2.5</vdop><extensions><gom:speed>0.048</gom:speed></extensions></trkpt>
   <trkpt lat="59.3201369813" lon="34.668919494"><ele>162.838</ele><time>2026-08-16T13:07:07.137Z</time><hdop>3.0</hdop><vdop>2.5</vdop><extensions><gom:speed>0.053</gom:speed></extensions></trkpt>
   <trkpt lat="59.3201368975" lon="34.6689187396"><ele>162.835</ele><time>2026-08-16T13:07:08.138Z</time><hdop>3.0</hdop><vdop>2.5</vdop><extensions><gom:speed>0.057</gom:speed></extensions></trkpt>
   <trkpt lat="59.3201368975" lon="34.6689179853"><ele>162.835</ele><time>2026-08-16T13:07:09.138Z</time><hdop>3.0</hdop><vdop>2.5</vdop><extensions><gom:speed>0.062</gom:speed></extensions></trkpt>
   <trkpt lat="59.3201368975" lon="34.6689173985"><ele>162.836</ele><time>2026-08-16T13:07:10.138Z</time><hdop>3.0</hdop><vdop>2.5</vdop><extensions><gom:speed>0.063</gom:speed></extensions></trkpt>
   <trkpt lat="59.3201368975" lon="34.6689166442"><ele>162.825</ele><time>2026-08-16T13:07:11.138Z</time><hdop>3.0</hdop><vdop>2.5</vdop><extensions><gom:speed>0.066</gom:speed></extensions></trkpt>
   <trkpt lat="59.3201368975" lon="34.6689161413"><ele>162.807</ele><time>2026-08-16T13:07:12.138Z</time><hdop>3.0</hdop><vdop>2.5</vdop><extensions><gom:speed>0.068</gom:speed></extensions></trkpt>
   <trkpt lat="59.3201367718" lon="34.6689156383"><ele>162.787</ele><time>2026-08-16T13:07:13.138Z</time><hdop>3.0</hdop><vdop>2.5</vdop><extensions><gom:speed>0.069</gom:speed></extensions></trkpt>
   <trkpt lat="59.3201367718" lon="34.6689151354"><ele>162.781</ele><time>2026-08-16T13:07:14.138Z</time><hdop>3.0</hdop><vdop>2.5</vdop><extensions><gom:speed>0.069</gom:speed></extensions></trkpt>
   <trkpt lat="59.3201368975" lon="34.6689145487"><ele>162.768</ele><time>2026-08-16T13:07:15.138Z</time><hdop>3.0</hdop><vdop>2.5</vdop><extensions><gom:speed>0.071</gom:speed></extensions></trkpt>
   <trkpt lat="59.3201369813" lon="34.6689140458"><ele>162.768</ele><time>2026-08-16T13:07:16.138Z</time><hdop>3.0</hdop><vdop>2.5</vdop><extensions><gom:speed>0.071</gom:speed></extensions></trkpt>
   <trkpt lat="59.3201369813" lon="34.6689136267"><ele>162.749</ele><time>2026-08-16T13:07:17.138Z</time><hdop>3.0</hdop><vdop>2.5</vdop><extensions><gom:speed>0.07</gom:speed></extensions></trkpt>
   <trkpt lat="59.3201370652" lon="34.6689133752"><ele>162.725</ele><time>2026-08-16T13:07:18.138Z</time><hdop>3.0</hdop><vdop>2.5</vdop><extensions><gom:speed>0.069</gom:speed></extensions></trkpt>
   <trkpt lat="59.3201370652" lon="34.66891304"><ele>162.7</ele><time>2026-08-16T13:07:19.138Z</time><hdop>3.0</hdop><vdop>2.5</vdop><extensions><gom:speed>0.07</gom:speed></extensions></trkpt>
   <trkpt lat="59.3201370652" lon="34.6689128723"><ele>162.666</ele><time>2026-08-16T13:07:20.138Z</time><hdop>3.0</hdop><vdop>2.5</vdop><extensions><gom:speed>0.072</gom:speed></extensions></trkpt>
   <trkpt lat="59.3201370652" lon="34.668912537"><ele>162.638</ele><time>2026-08-16T13:07:21.138Z</time><hdop>3.0</hdop><vdop>2.5</vdop><extensions><gom:speed>0.073</gom:speed></extensions></trkpt>
   <trkpt lat="59.3201370652" lon="34.6689122856"><ele>162.614</ele><time>2026-08-16T13:07:22.138Z</time><hdop>3.0</hdop><vdop>2.5</vdop><extensions><gom:speed>0.073</gom:speed></extensions></trkpt>
   <trkpt lat="59.3201369813" lon="34.6689119503"><ele>162.601</ele><time>2026-08-16T13:07:23.138Z</time><hdop>3.0</hdop><vdop>2.5</vdop><extensions><gom:speed>0.075</gom:speed></extensions></trkpt>
   <trkpt lat="59.3201369813" lon="34.6689117827"><ele>162.574</ele><time>2026-08-16T13:07:24.138Z</time><hdop>3.0</hdop><vdop>2.5</vdop><extensions><gom:speed>0.077</gom:speed></extensions></trkpt>
   <trkpt lat="59.3201369813" lon="34.6689115312"><ele>162.56</ele><time>2026-08-16T13:07:25.138Z</time><hdop>3.0</hdop><vdop>2.5</vdop><extensions><gom:speed>0.075</gom:speed></extensions></trkpt>
   <trkpt lat="59.3201368975" lon="34.6689113636"><ele>162.553</ele><time>2026-08-16T13:07:26.138Z</time><hdop>3.0</hdop><vdop>2.5</vdop><extensions><gom:speed>0.117</gom:speed></extensions></trkpt>
   <trkpt lat="59.3201365622" lon="34.6689103577"><ele>162.486</ele><time>2026-08-16T13:07:27.138Z</time><hdop>3.0</hdop><vdop>2.5</vdop><extensions><gom:speed>0.532</gom:speed></extensions></trkpt>
   <trkpt lat="59.3201346763" lon="34.6689071726"><ele>162.445</ele><time>2026-08-16T13:07:28.105Z</time><hdop>3.0</hdop><vdop>2.5</vdop><extensions><gom:speed>0.534</gom:speed></extensions></trkpt>
   <trkpt lat="59.3201318684" lon="34.6689043228"><ele>162.51</ele><time>2026-08-16T13:07:28.743Z</time><hdop>3.0</hdop><vdop>2.5</vdop><extensions><gom:speed>0.841</gom:speed></extensions></trkpt>
   <trkpt lat="59.3201280965" lon="34.6688986231"><ele>162.653</ele><time>2026-08-16T13:07:29.401Z</time><hdop>3.062</hdop><vdop>2.5</vdop><extensions><gom:speed>0.787</gom:speed></extensions></trkpt>
   <trkpt lat="59.3201263782" lon="34.6688953541"><ele>162.738</ele><time>2026-08-16T13:07:29.901Z</time><hdop>3.125</hdop><vdop>2.5</vdop><extensions><gom:speed>0.787</gom:speed></extensions></trkpt>
   <trkpt lat="59.320119086" lon="34.668874567"><ele>162.822</ele><time>2026-08-16T13:07:30.677Z</time><hdop>3.187</hdop><vdop>2.5</vdop><extensions><gom:speed>0.882</gom:speed></extensions></trkpt>
   <trkpt lat="59.3201168648" lon="34.6688607369"><ele>162.821</ele><time>2026-08-16T13:07:31.138Z</time><hdop>3.187</hdop><vdop>2.5</vdop><extensions><gom:speed>0.968</gom:speed></extensions></trkpt>
   <trkpt lat="59.3201134701" lon="34.6688462362"><ele>162.82</ele><time>2026-08-16T13:07:31.904Z</time><hdop>3.25</hdop><vdop>2.5</vdop><extensions><gom:speed>0.967</gom:speed></extensions></trkpt>
   <trkpt lat="59.3201095725" lon="34.6688086853"><ele>162.942</ele><time>2026-08-16T13:07:33.138Z</time><hdop>3.312</hdop><vdop>2.5</vdop><extensions><gom:speed>1.168</gom:speed></extensions></trkpt>
   <trkpt lat="59.320107477" lon="34.668782869"><ele>163.145</ele><time>2026-08-16T13:07:34.138Z</time><hdop>3.25</hdop><vdop>2.5</vdop><extensions><gom:speed>1.204</gom:speed></extensions></trkpt>
   <trkpt lat="59.3201061778" lon="34.6687696256"><ele>163.266</ele><time>2026-08-16T13:07:34.682Z</time><hdop>3.25</hdop><vdop>2.5</vdop><extensions><gom:speed>1.199</gom:speed></extensions></trkpt>
   <trkpt lat="59.3201044596" lon="34.6687597349"><ele>163.46</ele><time>2026-08-16T13:07:35.138Z</time><hdop>3.125</hdop><vdop>2.5</vdop><extensions><gom:speed>1.22</gom:speed></extensions></trkpt>
   <trkpt lat="59.3201010649" lon="34.6687454857"><ele>163.576</ele><time>2026-08-16T13:07:35.821Z</time><hdop>3.125</hdop><vdop>2.5</vdop><extensions><gom:speed>1.217</gom:speed></extensions></trkpt>
   <trkpt lat="59.3200973768" lon="34.6687299792"><ele>163.697</ele><time>2026-08-16T13:07:36.518Z</time><hdop>3.125</hdop><vdop>2.5</vdop><extensions><gom:speed>1.239</gom:speed></extensions></trkpt>
   <trkpt lat="59.3200951976" lon="34.6687197533"><ele>163.77</ele><time>2026-08-16T13:07:36.980Z</time><hdop>3.062</hdop><vdop>2.5</vdop><extensions><gom:speed>1.233</gom:speed></extensions></trkpt>
   <trkpt lat="59.3200918867" lon="34.6686993852"><ele>164.053</ele><time>2026-08-16T13:07:37.863Z</time><hdop>3.187</hdop><vdop>2.5</vdop><extensions><gom:speed>1.234</gom:speed></extensions></trkpt>
   <trkpt lat="59.3200879891" lon="34.668676335"><ele>164.19</ele><time>2026-08-16T13:07:38.904Z</time><hdop>3.312</hdop><vdop>2.5</vdop><extensions><gom:speed>1.215</gom:speed></extensions></trkpt>
   <trkpt lat="59.3200860613" lon="34.6686667796"><ele>164.231</ele><time>2026-08-16T13:07:39.385Z</time><hdop>3.5</hdop><vdop>2.5</vdop><extensions><gom:speed>1.219</gom:speed></extensions></trkpt>
   <trkpt lat="59.320082499" lon="34.6686514408"><ele>163.96</ele><time>2026-08-16T13:07:40.137Z</time><hdop>3.562</hdop><vdop>2.5</vdop><extensions><gom:speed>1.207</gom:speed></extensions></trkpt>
   <trkpt lat="59.3200770926" lon="34.6686325815"><ele>163.761</ele><time>2026-08-16T13:07:41.138Z</time><hdop>3.812</hdop><vdop>2.5</vdop><extensions><gom:speed>1.217</gom:speed></extensions></trkpt>
   <trkpt lat="59.3200740752" lon="34.6686215174"><ele>163.642</ele><time>2026-08-16T13:07:41.682Z</time><hdop>4.0</hdop><vdop>2.5</vdop><extensions><gom:speed>1.224</gom:speed></extensions></trkpt>
   <trkpt lat="59.3200716863" lon="34.6686134707"><ele>163.506</ele><time>2026-08-16T13:07:42.138Z</time><hdop>4.125</hdop><vdop>2.5</vdop><extensions><gom:speed>1.218</gom:speed></extensions></trkpt>
   <trkpt lat="59.3200688784" lon="34.6685997244"><ele>163.424</ele><time>2026-08-16T13:07:42.801Z</time><hdop>4.187</hdop><vdop>2.5</vdop><extensions><gom:speed>1.208</gom:speed></extensions></trkpt>
   <trkpt lat="59.3200655675" lon="34.6685837988"><ele>163.21</ele><time>2026-08-16T13:07:43.596Z</time><hdop>4.375</hdop><vdop>2.5</vdop><extensions><gom:speed>1.225</gom:speed></extensions></trkpt>
   <trkpt lat="59.3200630949" lon="34.6685735729"><ele>163.207</ele><time>2026-08-16T13:07:44.138Z</time><hdop>4.5</hdop><vdop>2.5</vdop><extensions><gom:speed>1.21</gom:speed></extensions></trkpt>
   <trkpt lat="59.3200609994" lon="34.6685627602"><ele>163.206</ele><time>2026-08-16T13:07:44.657Z</time><hdop>4.562</hdop><vdop>2.5</vdop><extensions><gom:speed>1.2</gom:speed></extensions></trkpt>
   <trkpt lat="59.3200585686" lon="34.6685526181"><ele>163.29</ele><time>2026-08-16T13:07:45.138Z</time><hdop>4.625</hdop><vdop>2.5</vdop><extensions><gom:speed>1.215</gom:speed></extensions></trkpt>
   <trkpt lat="59.3200538748" lon="34.6685322501"><ele>163.471</ele><time>2026-08-16T13:07:46.137Z</time><hdop>4.687</hdop><vdop>2.5</vdop><extensions><gom:speed>1.229</gom:speed></extensions></trkpt>
   <trkpt lat="59.320048678" lon="34.6685106248"><ele>163.734</ele><time>2026-08-16T13:07:47.138Z</time><hdop>4.812</hdop><vdop>2.5</vdop><extensions><gom:speed>1.24</gom:speed></extensions></trkpt>
   <trkpt lat="59.3200440679" lon="34.6684893347"><ele>163.95</ele><time>2026-08-16T13:07:48.138Z</time><hdop>4.875</hdop><vdop>2.5</vdop><extensions><gom:speed>1.251</gom:speed></extensions></trkpt>
   <trkpt lat="59.320038494" lon="34.6684685476"><ele>164.025</ele><time>2026-08-16T13:07:49.138Z</time><hdop>5.0</hdop><vdop>2.5</vdop><extensions><gom:speed>1.246</gom:speed></extensions></trkpt>
   <trkpt lat="59.3200354765" lon="34.668457735"><ele>164.069</ele><time>2026-08-16T13:07:49.644Z</time><hdop>5.0</hdop><vdop>2.5</vdop><extensions><gom:speed>1.244</gom:speed></extensions></trkpt>
   <trkpt lat="59.3200331715" lon="34.6684476767"><ele>164.09</ele><time>2026-08-16T13:07:50.138Z</time><hdop>5.0</hdop><vdop>2.5</vdop><extensions><gom:speed>1.245</gom:speed></extensions></trkpt>
   <trkpt lat="59.3200307826" lon="34.6684330922"><ele>164.102</ele><time>2026-08-16T13:07:50.782Z</time><hdop>5.062</hdop><vdop>2.5</vdop><extensions><gom:speed>1.243</gom:speed></extensions></trkpt>
   <trkpt lat="59.3200274718" lon="34.668416496"><ele>164.053</ele><time>2026-08-16T13:07:51.578Z</time><hdop>5.125</hdop><vdop>2.5</vdop><extensions><gom:speed>1.261</gom:speed></extensions></trkpt>
   <trkpt lat="59.3200247896" lon="34.6684045937"><ele>164.227</ele><time>2026-08-16T13:07:52.138Z</time><hdop>5.125</hdop><vdop>2.5</vdop><extensions><gom:speed>1.28</gom:speed></extensions></trkpt>
   <trkpt lat="59.3200211853" lon="34.6683865726"><ele>164.332</ele><time>2026-08-16T13:07:52.942Z</time><hdop>5.187</hdop><vdop>2.5</vdop><extensions><gom:speed>1.287</gom:speed></extensions></trkpt>
   <trkpt lat="59.3200181679" lon="34.668371569"><ele>164.314</ele><time>2026-08-16T13:07:53.718Z</time><hdop>5.25</hdop><vdop>2.5</vdop><extensions><gom:speed>1.261</gom:speed></extensions></trkpt>
   <trkpt lat="59.3200125939" lon="34.6683412265"><ele>164.21</ele><time>2026-08-16T13:07:55.141Z</time><hdop>5.312</hdop><vdop>2.5</vdop><extensions><gom:speed>1.264</gom:speed></extensions></trkpt>
   <trkpt lat="59.320009283" lon="34.6683249656"><ele>164.191</ele><time>2026-08-16T13:07:55.936Z</time><hdop>5.312</hdop><vdop>2.5</vdop><extensions><gom:speed>1.266</gom:speed></extensions></trkpt>
   <trkpt lat="59.32000329" lon="34.6683018316"><ele>163.894</ele><time>2026-08-16T13:07:57.138Z</time><hdop>5.25</hdop><vdop>2.5</vdop><extensions><gom:speed>1.273</gom:speed></extensions></trkpt>
   <trkpt lat="59.3199972969" lon="34.6682805415"><ele>163.741</ele><time>2026-08-16T13:07:58.137Z</time><hdop>5.187</hdop><vdop>2.5</vdop><extensions><gom:speed>1.302</gom:speed></extensions></trkpt>
   <trkpt lat="59.319990759" lon="34.6682608441"><ele>163.402</ele><time>2026-08-16T13:07:59.138Z</time><hdop>5.062</hdop><vdop>2.5</vdop><extensions><gom:speed>1.307</gom:speed></extensions></trkpt>
   <trkpt lat="59.3199845983" lon="34.6682415657"><ele>163.13</ele><time>2026-08-16T13:08:00.138Z</time><hdop>4.937</hdop><vdop>2.5</vdop><extensions><gom:speed>1.303</gom:speed></extensions></trkpt>
   <trkpt lat="59.3199817904" lon="34.6682313398"><ele>162.968</ele><time>2026-08-16T13:08:00.619Z</time><hdop>4.875</hdop><vdop>2.5</vdop><extensions><gom:speed>1.31</gom:speed></extensions></trkpt>
   <trkpt lat="59.3199786891" lon="34.6682213653"><ele>162.925</ele><time>2026-08-16T13:08:01.138Z</time><hdop>4.812</hdop><vdop>2.5</vdop><extensions><gom:speed>1.311</gom:speed></extensions></trkpt>
   <trkpt lat="59.3199755878" lon="34.668209463"><ele>162.899</ele><time>2026-08-16T13:08:01.698Z</time><hdop>4.812</hdop><vdop>2.5</vdop><extensions><gom:speed>1.315</gom:speed></extensions></trkpt>
   <trkpt lat="59.3199730732" lon="34.668198818"><ele>162.964</ele><time>2026-08-16T13:08:02.298Z</time><hdop>4.812</hdop><vdop>2.5</vdop><extensions><gom:speed>1.307</gom:speed></extensions></trkpt>
   <trkpt lat="59.3199704748" lon="34.6681865804"><ele>163.003</ele><time>2026-08-16T13:08:02.838Z</time><hdop>4.812</hdop><vdop>2.5</vdop><extensions><gom:speed>1.315</gom:speed></extensions></trkpt>
   <trkpt lat="59.3199660743" lon="34.6681622729"><ele>163.079</ele><time>2026-08-16T13:08:03.918Z</time><hdop>4.812</hdop><vdop>2.5</vdop><extensions><gom:speed>1.311</gom:speed></extensions></trkpt>
   <trkpt lat="59.3199622606" lon="34.6681460958"><ele>163.11</ele><time>2026-08-16T13:08:04.723Z</time><hdop>4.875</hdop><vdop>2.5</vdop><extensions><gom:speed>1.31</gom:speed></extensions></trkpt>
   <trkpt lat="59.3199558903" lon="34.6681170944"><ele>163.15</ele><time>2026-08-16T13:08:06.156Z</time><hdop>5.062</hdop><vdop>2.5</vdop><extensions><gom:speed>1.283</gom:speed></extensions></trkpt>
   <trkpt lat="59.319951867" lon="34.6680998277"><ele>163.274</ele><time>2026-08-16T13:08:06.960Z</time><hdop>5.125</hdop><vdop>2.5</vdop><extensions><gom:speed>1.264</gom:speed></extensions></trkpt>
   <trkpt lat="59.3199452872" lon="34.6680759393"><ele>163.168</ele><time>2026-08-16T13:08:08.138Z</time><hdop>5.187</hdop><vdop>2.5</vdop><extensions><gom:speed>1.309</gom:speed></extensions></trkpt>
   <trkpt lat="59.3199390846" lon="34.6680545654"><ele>163.032</ele><time>2026-08-16T13:08:09.138Z</time><hdop>5.25</hdop><vdop>2.5</vdop><extensions><gom:speed>1.311</gom:speed></extensions></trkpt>
   <trkpt lat="59.3199335945" lon="34.6680323534"><ele>162.95</ele><time>2026-08-16T13:08:10.142Z</time><hdop>5.375</hdop><vdop>2.5</vdop><extensions><gom:speed>1.318</gom:speed></extensions></trkpt>
   <trkpt lat="59.3199301998" lon="34.6680223789"><ele>162.978</ele><time>2026-08-16T13:08:10.642Z</time><hdop>5.375</hdop><vdop>2.5</vdop><extensions><gom:speed>1.31</gom:speed></extensions></trkpt>
   <trkpt lat="59.3199265956" lon="34.6680129912"><ele>163.027</ele><time>2026-08-16T13:08:11.138Z</time><hdop>5.375</hdop><vdop>2.5</vdop><extensions><gom:speed>1.311</gom:speed></extensions></trkpt>
   <trkpt lat="59.3199225723" lon="34.6679998316"><ele>163.056</ele><time>2026-08-16T13:08:11.761Z</time><hdop>5.375</hdop><vdop>2.5</vdop><extensions><gom:speed>1.319</gom:speed></extensions></trkpt>
   <trkpt lat="59.3199162858" lon="34.6679757755"><ele>163.017</ele><time>2026-08-16T13:08:12.861Z</time><hdop>5.375</hdop><vdop>2.5</vdop><extensions><gom:speed>1.327</gom:speed></extensions></trkpt>
   <trkpt lat="59.3199092869" lon="34.6679510489"><ele>163.062</ele><time>2026-08-16T13:08:14.019Z</time><hdop>5.375</hdop><vdop>2.5</vdop><extensions><gom:speed>1.313</gom:speed></extensions></trkpt>
   <trkpt lat="59.3199048864" lon="34.6679354586"><ele>163.282</ele><time>2026-08-16T13:08:14.775Z</time><hdop>5.312</hdop><vdop>2.5</vdop><extensions><gom:speed>1.323</gom:speed></extensions></trkpt>
   <trkpt lat="59.3198979714" lon="34.6679105643"><ele>163.23</ele><time>2026-08-16T13:08:15.894Z</time><hdop>5.312</hdop><vdop>2.5</vdop><extensions><gom:speed>1.329</gom:speed></extensions></trkpt>
   <trkpt lat="59.3198915592" lon="34.6678841613"><ele>163.093</ele><time>2026-08-16T13:08:17.138Z</time><hdop>5.25</hdop><vdop>2.5</vdop><extensions><gom:speed>1.335</gom:speed></extensions></trkpt>
   <trkpt lat="59.3198863624" lon="34.6678624522"><ele>163.01</ele><time>2026-08-16T13:08:18.054Z</time><hdop>5.312</hdop><vdop>2.5</vdop><extensions><gom:speed>1.339</gom:speed></extensions></trkpt>
   <trkpt lat="59.319880998" lon="34.6678400725"><ele>162.859</ele><time>2026-08-16T13:08:19.138Z</time><hdop>5.312</hdop><vdop>2.5</vdop><extensions><gom:speed>1.338</gom:speed></extensions></trkpt>
   <trkpt lat="59.3198787768" lon="34.6678295951"><ele>162.768</ele><time>2026-08-16T13:08:19.595Z</time><hdop>5.312</hdop><vdop>2.5</vdop><extensions><gom:speed>1.325</gom:speed></extensions></trkpt>
   <trkpt lat="59.3198765975" lon="34.6678186987"><ele>162.753</ele><time>2026-08-16T13:08:20.138Z</time><hdop>5.312</hdop><vdop>2.5</vdop><extensions><gom:speed>1.32</gom:speed></extensions></trkpt>
   <trkpt lat="59.3198732867" lon="34.6678057905"><ele>162.745</ele><time>2026-08-16T13:08:20.734Z</time><hdop>5.312</hdop><vdop>2.5</vdop><extensions><gom:speed>1.322</gom:speed></extensions></trkpt>
   <trkpt lat="59.3198696825" lon="34.6677917928"><ele>162.666</ele><time>2026-08-16T13:08:21.441Z</time><hdop>5.312</hdop><vdop>2.5</vdop><extensions><gom:speed>1.327</gom:speed></extensions></trkpt>
   <trkpt lat="59.3198648629" lon="34.6677784655"><ele>162.646</ele><time>2026-08-16T13:08:22.138Z</time><hdop>5.375</hdop><vdop>2.5</vdop><extensions><gom:speed>1.344</gom:speed></extensions></trkpt>
   <trkpt lat="59.3198579897" lon="34.6677636296"><ele>162.634</ele><time>2026-08-16T13:08:22.922Z</time><hdop>5.375</hdop><vdop>2.5</vdop><extensions><gom:speed>1.352</gom:speed></extensions></trkpt>
   <trkpt lat="59.3198525834" lon="34.6677512244"><ele>162.446</ele><time>2026-08-16T13:08:23.620Z</time><hdop>5.375</hdop><vdop>2.5</vdop><extensions><gom:speed>1.34</gom:speed></extensions></trkpt>
   <trkpt lat="59.3198497754" lon="34.667740747"><ele>162.567</ele><time>2026-08-16T13:08:24.138Z</time><hdop>5.375</hdop><vdop>2.5</vdop><extensions><gom:speed>1.335</gom:speed></extensions></trkpt>
   <trkpt lat="59.3198470932" lon="34.6677273359"><ele>162.639</ele><time>2026-08-16T13:08:24.739Z</time><hdop>5.375</hdop><vdop>2.5</vdop><extensions><gom:speed>1.334</gom:speed></extensions></trkpt>
   <trkpt lat="59.3198421898" lon="34.6677034475"><ele>162.645</ele><time>2026-08-16T13:08:25.859Z</time><hdop>5.375</hdop><vdop>2.5</vdop><extensions><gom:speed>1.313</gom:speed></extensions></trkpt>
   <trkpt lat="59.3198358615" lon="34.6676811516"><ele>162.684</ele><time>2026-08-16T13:08:27.138Z</time><hdop>5.312</hdop><vdop>2.5</vdop><extensions><gom:speed>1.28</gom:speed></extensions></trkpt>
   <trkpt lat="59.3198271862" lon="34.6676702552"><ele>162.986</ele><time>2026-08-16T13:08:28.138Z</time><hdop>5.312</hdop><vdop>2.5</vdop><extensions><gom:speed>1.181</gom:speed></extensions></trkpt>
   <trkpt lat="59.3198179661" lon="34.6676695846"><ele>163.177</ele><time>2026-08-16T13:08:29.138Z</time><hdop>5.25</hdop><vdop>2.5</vdop><extensions><gom:speed>1.069</gom:speed></extensions></trkpt>
   <trkpt lat="59.3198089975" lon="34.6676693332"><ele>163.219</ele><time>2026-08-16T13:08:30.138Z</time><hdop>5.187</hdop><vdop>2.5</vdop><extensions><gom:speed>1.075</gom:speed></extensions></trkpt>
   <trkpt lat="59.3198040941" lon="34.6676597778"><ele>163.23</ele><time>2026-08-16T13:08:31.138Z</time><hdop>5.187</hdop><vdop>2.5</vdop><extensions><gom:speed>0.999</gom:speed></extensions></trkpt>
   <trkpt lat="59.3198065667" lon="34.6676488813"><ele>163.236</ele><time>2026-08-16T13:08:31.739Z</time><hdop>5.125</hdop><vdop>2.5</vdop><extensions><gom:speed>0.998</gom:speed></extensions></trkpt>
   <trkpt lat="59.3198194749" lon="34.6676513959"><ele>163.235</ele><time>2026-08-16T13:08:33.138Z</time><hdop>5.062</hdop><vdop>2.5</vdop><extensions><gom:speed>0.661</gom:speed></extensions></trkpt>
   <trkpt lat="59.319822199" lon="34.6676666509"><ele>163.232</ele><time>2026-08-16T13:08:34.138Z</time><hdop>4.875</hdop><vdop>2.5</vdop><extensions><gom:speed>0.162</gom:speed></extensions></trkpt>
   <trkpt lat="59.3198203969" lon="34.6676770445"><ele>163.228</ele><time>2026-08-16T13:08:35.138Z</time><hdop>4.687</hdop><vdop>2.5</vdop><extensions><gom:speed>0.048</gom:speed></extensions></trkpt>
   <trkpt lat="59.3198189719" lon="34.6676820737"><ele>163.224</ele><time>2026-08-16T13:08:36.138Z</time><hdop>4.375</hdop><vdop>2.5</vdop><extensions><gom:speed>0.07</gom:speed></extensions></trkpt>
   <trkpt lat="59.3198183852" lon="34.6676852588"><ele>163.221</ele><time>2026-08-16T13:08:37.138Z</time><hdop>3.875</hdop><vdop>2.5</vdop><extensions><gom:speed>0.065</gom:speed></extensions></trkpt>
   <trkpt lat="59.3198180918" lon="34.6676872704"><ele>163.216</ele><time>2026-08-16T13:08:38.138Z</time><hdop>3.625</hdop><vdop>2.5</vdop><extensions><gom:speed>0.012</gom:speed></extensions></trkpt>
   <trkpt lat="59.3198176727" lon="34.6676883601"><ele>163.212</ele><time>2026-08-16T13:08:39.138Z</time><hdop>3.625</hdop><vdop>2.5</vdop><extensions><gom:speed>0.016</gom:speed></extensions></trkpt>
   <trkpt lat="59.3198174632" lon="34.6676893659"><ele>163.208</ele><time>2026-08-16T13:08:40.138Z</time><hdop>3.5</hdop><vdop>2.5</vdop><extensions><gom:speed>0.052</gom:speed></extensions></trkpt>
   <trkpt lat="59.3198174632" lon="34.6676903717"><ele>163.204</ele><time>2026-08-16T13:08:41.138Z</time><hdop>3.437</hdop><vdop>2.5</vdop><extensions><gom:speed>0.012</gom:speed></extensions></trkpt>
   <trkpt lat="59.3198174632" lon="34.6676906232"><ele>163.2</ele><time>2026-08-16T13:08:42.138Z</time><hdop>3.5</hdop><vdop>2.5</vdop><extensions><gom:speed>0.018</gom:speed></extensions></trkpt>
   <trkpt lat="59.3198177985" lon="34.6676902879"><ele>163.196</ele><time>2026-08-16T13:08:43.138Z</time><hdop>3.5</hdop><vdop>2.5</vdop><extensions><gom:speed>0.058</gom:speed></extensions></trkpt>
   <trkpt lat="59.3198182595" lon="34.6676896174"><ele>163.192</ele><time>2026-08-16T13:08:44.138Z</time><hdop>3.562</hdop><vdop>2.5</vdop><extensions><gom:speed>0.061</gom:speed></extensions></trkpt>
   <trkpt lat="59.3198183852" lon="34.6676896174"><ele>163.188</ele><time>2026-08-16T13:08:45.137Z</time><hdop>3.625</hdop><vdop>2.5</vdop><extensions><gom:speed>0.016</gom:speed></extensions></trkpt>
   <trkpt lat="59.3198186786" lon="34.6676885277"><ele>163.184</ele><time>2026-08-16T13:08:46.138Z</time><hdop>3.687</hdop><vdop>2.5</vdop><extensions><gom:speed>0.013</gom:speed></extensions></trkpt>
   <trkpt lat="59.3198191815" lon="34.6676893659"><ele>163.18</ele><time>2026-08-16T13:08:47.137Z</time><hdop>3.75</hdop><vdop>2.5</vdop><extensions><gom:speed>0.057</gom:speed></extensions></trkpt>
   <trkpt lat="59.3198183852" lon="34.667691629"><ele>163.175</ele><time>2026-08-16T13:08:48.138Z</time><hdop>3.812</hdop><vdop>2.5</vdop><extensions><gom:speed>0.065</gom:speed></extensions></trkpt>
   <trkpt lat="59.3198186786" lon="34.6676915452"><ele>163.172</ele><time>2026-08-16T13:08:49.138Z</time><hdop>3.875</hdop><vdop>2.625</vdop><extensions><gom:speed>0.0</gom:speed></extensions></trkpt>
   <trkpt lat="59.3198185948" lon="34.6676917967"><ele>163.168</ele><time>2026-08-16T13:08:50.137Z</time><hdop>3.875</hdop><vdop>2.5</vdop><extensions><gom:speed>0.014</gom:speed></extensions></trkpt>
   <trkpt lat="59.3198186786" lon="34.6676918805"><ele>163.165</ele><time>2026-08-16T13:08:51.138Z</time><hdop>3.812</hdop><vdop>2.5</vdop><extensions><gom:speed>0.023</gom:speed></extensions></trkpt>
   <trkpt lat="59.3198187624" lon="34.6676917967"><ele>163.162</ele><time>2026-08-16T13:08:52.137Z</time><hdop>3.75</hdop><vdop>2.5</vdop><extensions><gom:speed>0.031</gom:speed></extensions></trkpt>
   <trkpt lat="59.3198188881" lon="34.6676915452"><ele>163.159</ele><time>2026-08-16T13:08:53.138Z</time><hdop>3.687</hdop><vdop>2.5</vdop><extensions><gom:speed>0.039</gom:speed></extensions></trkpt>
   <trkpt lat="59.3198190977" lon="34.6676913776"><ele>163.156</ele><time>2026-08-16T13:08:54.138Z</time><hdop>3.625</hdop><vdop>2.5</vdop><extensions><gom:speed>0.046</gom:speed></extensions></trkpt>
   <trkpt lat="59.3198192653" lon="34.6676910423"><ele>163.154</ele><time>2026-08-16T13:08:55.138Z</time><hdop>3.562</hdop><vdop>2.5</vdop><extensions><gom:speed>0.05</gom:speed></extensions></trkpt>
   <trkpt lat="59.3198195587" lon="34.6676908746"><ele>163.151</ele><time>2026-08-16T13:08:56.138Z</time><hdop>3.5</hdop><vdop>2.5</vdop><extensions><gom:speed>0.057</gom:speed></extensions></trkpt>
   <trkpt lat="59.3198197682" lon="34.6676905394"><ele>163.148</ele><time>2026-08-16T13:08:57.138Z</time><hdop>3.5</hdop><vdop>2.5</vdop><extensions><gom:speed>0.061</gom:speed></extensions></trkpt>
   <trkpt lat="59.3198200616" lon="34.6676902879"><ele>163.144</ele><time>2026-08-16T13:08:58.138Z</time><hdop>3.437</hdop><vdop>2.5</vdop><extensions><gom:speed>0.064</gom:speed></extensions></trkpt>
   <trkpt lat="59.3198202711" lon="34.6676900365"><ele>163.141</ele><time>2026-08-16T13:08:59.138Z</time><hdop>3.375</hdop><vdop>2.5</vdop><extensions><gom:speed>0.066</gom:speed></extensions></trkpt>
   <trkpt lat="59.3198204807" lon="34.667689785"><ele>163.138</ele><time>2026-08-16T13:09:00.138Z</time><hdop>3.375</hdop><vdop>2.5</vdop><extensions><gom:speed>0.069</gom:speed></extensions></trkpt>
   <trkpt lat="59.3198206902" lon="34.6676895335"><ele>163.134</ele><time>2026-08-16T13:09:01.138Z</time><hdop>3.312</hdop><vdop>2.5</vdop><extensions><gom:speed>0.072</gom:speed></extensions></trkpt>
   <trkpt lat="59.3198208998" lon="34.6676892821"><ele>163.131</ele><time>2026-08-16T13:09:02.138Z</time><hdop>3.312</hdop><vdop>2.5</vdop><extensions><gom:speed>0.075</gom:speed></extensions></trkpt>
   <trkpt lat="59.3198209836" lon="34.6676883601"><ele>163.137</ele><time>2026-08-16T13:09:03.138Z</time><hdop>3.25</hdop><vdop>2.5</vdop><extensions><gom:speed>0.436</gom:speed></extensions></trkpt>
   <trkpt lat="59.3198208998" lon="34.6676836662"><ele>163.14</ele><time>2026-08-16T13:09:03.939Z</time><hdop>3.25</hdop><vdop>2.5</vdop><extensions><gom:speed>0.436</gom:speed></extensions></trkpt>
   <trkpt lat="59.3198182595" lon="34.6676778827"><ele>162.166</ele><time>2026-08-16T13:09:04.783Z</time><hdop>3.312</hdop><vdop>2.5</vdop><extensions><gom:speed>0.943</gom:speed></extensions></trkpt>
   <trkpt lat="59.3198141943" lon="34.6676681597"><ele>161.516</ele><time>2026-08-16T13:09:06.059Z</time><hdop>3.687</hdop><vdop>2.5</vdop><extensions><gom:speed>0.972</gom:speed></extensions></trkpt>
   <trkpt lat="59.319809668" lon="34.6676541619"><ele>161.076</ele><time>2026-08-16T13:09:07.139Z</time><hdop>4.25</hdop><vdop>2.5</vdop><extensions><gom:speed>1.012</gom:speed></extensions></trkpt>
   <trkpt lat="59.3198076983" lon="34.6676465344"><ele>160.774</ele><time>2026-08-16T13:09:07.640Z</time><hdop>4.437</hdop><vdop>2.5</vdop><extensions><gom:speed>1.002</gom:speed></extensions></trkpt>
   <trkpt lat="59.3198053933" lon="34.6676345483"><ele>160.653</ele><time>2026-08-16T13:09:08.138Z</time><hdop>4.562</hdop><vdop>2.5</vdop><extensions><gom:speed>1.006</gom:speed></extensions></trkpt>
   <trkpt lat="59.3198024596" lon="34.6676227298"><ele>160.58</ele><time>2026-08-16T13:09:08.877Z</time><hdop>5.125</hdop><vdop>2.5</vdop><extensions><gom:speed>0.999</gom:speed></extensions></trkpt>
   <trkpt lat="59.3197974724" lon="34.6676031999"><ele>160.524</ele><time>2026-08-16T13:09:09.741Z</time><hdop>5.562</hdop><vdop>2.5</vdop><extensions><gom:speed>1.046</gom:speed></extensions></trkpt>
   <trkpt lat="59.3197917727" lon="34.6675794792"><ele>160.475</ele><time>2026-08-16T13:09:10.899Z</time><hdop>6.25</hdop><vdop>2.5</vdop><extensions><gom:speed>1.091</gom:speed></extensions></trkpt>
   <trkpt lat="59.3197840613" lon="34.6675583568"><ele>160.331</ele><time>2026-08-16T13:09:12.056Z</time><hdop>6.562</hdop><vdop>2.5</vdop><extensions><gom:speed>1.155</gom:speed></extensions></trkpt>
   <trkpt lat="59.3197786969" lon="34.6675352227"><ele>160.383</ele><time>2026-08-16T13:09:13.138Z</time><hdop>6.625</hdop><vdop>2.5</vdop><extensions><gom:speed>1.172</gom:speed></extensions></trkpt>
   <trkpt lat="59.3197737935" lon="34.6675141841"><ele>160.457</ele><time>2026-08-16T13:09:14.138Z</time><hdop>6.625</hdop><vdop>2.5</vdop><extensions><gom:speed>1.166</gom:speed></extensions></trkpt>
   <trkpt lat="59.3197700635" lon="34.6675010245"><ele>160.5</ele><time>2026-08-16T13:09:14.796Z</time><hdop>6.687</hdop><vdop>2.5</vdop><extensions><gom:speed>1.166</gom:speed></extensions></trkpt>
   <trkpt lat="59.319766585" lon="34.6674771361"><ele>160.588</ele><time>2026-08-16T13:09:15.856Z</time><hdop>6.625</hdop><vdop>2.5</vdop><extensions><gom:speed>1.179</gom:speed></extensions></trkpt>
   <trkpt lat="59.3197630646" lon="34.6674532477"><ele>160.585</ele><time>2026-08-16T13:09:16.917Z</time><hdop>6.625</hdop><vdop>2.5</vdop><extensions><gom:speed>1.227</gom:speed></extensions></trkpt>
   <trkpt lat="59.3197569878" lon="34.6674289402"><ele>160.502</ele><time>2026-08-16T13:09:18.036Z</time><hdop>6.5</hdop><vdop>2.5</vdop><extensions><gom:speed>1.251</gom:speed></extensions></trkpt>
   <trkpt lat="59.3197522939" lon="34.6674048841"><ele>160.593</ele><time>2026-08-16T13:09:19.138Z</time><hdop>6.312</hdop><vdop>2.5</vdop><extensions><gom:speed>1.244</gom:speed></extensions></trkpt>
   <trkpt lat="59.3197478934" lon="34.6673833426"><ele>160.633</ele><time>2026-08-16T13:09:20.138Z</time><hdop>6.062</hdop><vdop>2.5</vdop><extensions><gom:speed>1.278</gom:speed></extensions></trkpt>
   <trkpt lat="59.3197434929" lon="34.6673610468"><ele>160.717</ele><time>2026-08-16T13:09:21.138Z</time><hdop>5.875</hdop><vdop>2.5</vdop><extensions><gom:speed>1.286</gom:speed></extensions></trkpt>
   <trkpt lat="59.319738799" lon="34.6673374936"><ele>160.767</ele><time>2026-08-16T13:09:22.120Z</time><hdop>5.75</hdop><vdop>2.5</vdop><extensions><gom:speed>1.299</gom:speed></extensions></trkpt>
   <trkpt lat="59.3197349853" lon="34.6673156168"><ele>160.714</ele><time>2026-08-16T13:09:23.137Z</time><hdop>5.5</hdop><vdop>2.5</vdop><extensions><gom:speed>1.294</gom:speed></extensions></trkpt>
   <trkpt lat="59.3197319678" lon="34.6673029602"><ele>160.682</ele><time>2026-08-16T13:09:23.719Z</time><hdop>5.437</hdop><vdop>2.5</vdop><extensions><gom:speed>1.299</gom:speed></extensions></trkpt>
   <trkpt lat="59.319729076" lon="34.6672886271"><ele>160.651</ele><time>2026-08-16T13:09:24.378Z</time><hdop>5.375</hdop><vdop>2.5</vdop><extensions><gom:speed>1.309</gom:speed></extensions></trkpt>
   <trkpt lat="59.3197263938" lon="34.6672754675"><ele>160.632</ele><time>2026-08-16T13:09:24.949Z</time><hdop>5.375</hdop><vdop>2.5</vdop><extensions><gom:speed>1.287</gom:speed></extensions></trkpt>
   <trkpt lat="59.3197340633" lon="34.667263649"><ele>160.614</ele><time>2026-08-16T13:09:25.941Z</time><hdop>5.062</hdop><vdop>2.5</vdop><extensions><gom:speed>1.204</gom:speed></extensions></trkpt>
   <trkpt lat="59.3197388829" lon="34.6672626432"><ele>160.76</ele><time>2026-08-16T13:09:26.520Z</time><hdop>4.687</hdop><vdop>2.5</vdop><extensions><gom:speed>1.288</gom:speed></extensions></trkpt>
   <trkpt lat="59.3197403916" lon="34.6672543451"><ele>160.848</ele><time>2026-08-16T13:09:27.079Z</time><hdop>4.625</hdop><vdop>2.5</vdop><extensions><gom:speed>1.213</gom:speed></extensions></trkpt>
   <trkpt lat="59.3197358654" lon="34.6672425266"><ele>160.903</ele><time>2026-08-16T13:09:27.668Z</time><hdop>4.25</hdop><vdop>2.5</vdop><extensions><gom:speed>1.174</gom:speed></extensions></trkpt>
   <trkpt lat="59.3197302914" lon="34.6672310434"><ele>160.97</ele><time>2026-08-16T13:09:28.138Z</time><hdop>4.125</hdop><vdop>2.5</vdop><extensions><gom:speed>1.167</gom:speed></extensions></trkpt>
   <trkpt lat="59.319718892" lon="34.6672105916"><ele>161.032</ele><time>2026-08-16T13:09:29.138Z</time><hdop>3.75</hdop><vdop>2.5</vdop><extensions><gom:speed>1.202</gom:speed></extensions></trkpt>
   <trkpt lat="59.319710091" lon="34.6671964262"><ele>161.069</ele><time>2026-08-16T13:09:29.985Z</time><hdop>3.375</hdop><vdop>2.5</vdop><extensions><gom:speed>1.207</gom:speed></extensions></trkpt>
   <trkpt lat="59.319705481" lon="34.6671864517"><ele>161.093</ele><time>2026-08-16T13:09:30.447Z</time><hdop>3.312</hdop><vdop>2.5</vdop><extensions><gom:speed>1.204</gom:speed></extensions></trkpt>
   <trkpt lat="59.3197006614" lon="34.6671722863"><ele>161.113</ele><time>2026-08-16T13:09:31.138Z</time><hdop>3.25</hdop><vdop>2.5</vdop><extensions><gom:speed>1.23</gom:speed></extensions></trkpt>
   <trkpt lat="59.3196950874" lon="34.6671483979"><ele>161.11</ele><time>2026-08-16T13:09:32.138Z</time><hdop>3.187</hdop><vdop>2.5</vdop><extensions><gom:speed>1.238</gom:speed></extensions></trkpt>
   <trkpt lat="59.3196937882" lon="34.6671349868"><ele>161.108</ele><time>2026-08-16T13:09:32.644Z</time><hdop>3.187</hdop><vdop>2.5</vdop><extensions><gom:speed>1.247</gom:speed></extensions></trkpt>
   <trkpt lat="59.3196919861" lon="34.6671227493"><ele>160.94</ele><time>2026-08-16T13:09:33.138Z</time><hdop>3.125</hdop><vdop>2.5</vdop><extensions><gom:speed>1.207</gom:speed></extensions></trkpt>
   <trkpt lat="59.319689262" lon="34.6671085838"><ele>160.839</ele><time>2026-08-16T13:09:33.760Z</time><hdop>3.125</hdop><vdop>2.5</vdop><extensions><gom:speed>1.194</gom:speed></extensions></trkpt>
   <trkpt lat="59.3196849872" lon="34.6670929935"><ele>160.608</ele><time>2026-08-16T13:09:34.496Z</time><hdop>3.062</hdop><vdop>2.5</vdop><extensions><gom:speed>1.209</gom:speed></extensions></trkpt>
   <trkpt lat="59.3196806705" lon="34.667079331"><ele>160.54</ele><time>2026-08-16T13:09:35.137Z</time><hdop>3.0</hdop><vdop>2.5</vdop><extensions><gom:speed>1.243</gom:speed></extensions></trkpt>
   <trkpt lat="59.3196758928" lon="34.6670610584"><ele>160.499</ele><time>2026-08-16T13:09:35.978Z</time><hdop>3.0</hdop><vdop>2.5</vdop><extensions><gom:speed>1.236</gom:speed></extensions></trkpt>
   <trkpt lat="59.3196703608" lon="34.667035326"><ele>160.378</ele><time>2026-08-16T13:09:37.058Z</time><hdop>3.0</hdop><vdop>2.5</vdop><extensions><gom:speed>1.281</gom:speed></extensions></trkpt>
   <trkpt lat="59.3196668823" lon="34.6670065761"><ele>160.078</ele><time>2026-08-16T13:09:38.138Z</time><hdop>3.0</hdop><vdop>2.5</vdop><extensions><gom:speed>1.263</gom:speed></extensions></trkpt>
   <trkpt lat="59.319666086" lon="34.6669867948"><ele>159.898</ele><time>2026-08-16T13:09:38.904Z</time><hdop>3.062</hdop><vdop>2.5</vdop><extensions><gom:speed>1.25</gom:speed></extensions></trkpt>
   <trkpt lat="59.3196772759" lon="34.666970953"><ele>159.946</ele><time>2026-08-16T13:09:40.138Z</time><hdop>3.062</hdop><vdop>2.5</vdop><extensions><gom:speed>1.06</gom:speed></extensions></trkpt>
   <trkpt lat="59.319681383" lon="34.6669647504"><ele>160.272</ele><time>2026-08-16T13:09:41.138Z</time><hdop>3.062</hdop><vdop>2.5</vdop><extensions><gom:speed>0.748</gom:speed></extensions></trkpt>
   <trkpt lat="59.3196803772" lon="34.6669631578"><ele>160.647</ele><time>2026-08-16T13:09:42.138Z</time><hdop>3.0</hdop><vdop>2.5</vdop><extensions><gom:speed>0.348</gom:speed></extensions></trkpt>
   <trkpt lat="59.3196796647" lon="34.6669714559"><ele>160.893</ele><time>2026-08-16T13:09:43.138Z</time><hdop>3.0</hdop><vdop>2.5</vdop><extensions><gom:speed>0.132</gom:speed></extensions></trkpt>
   <trkpt lat="59.319679078" lon="34.6669782452"><ele>161.022</ele><time>2026-08-16T13:09:44.138Z</time><hdop>3.0</hdop><vdop>2.5</vdop><extensions><gom:speed>0.043</gom:speed></extensions></trkpt>
   <trkpt lat="59.3196785751" lon="34.6669836935"><ele>160.927</ele><time>2026-08-16T13:09:45.138Z</time><hdop>3.0</hdop><vdop>2.5</vdop><extensions><gom:speed>0.034</gom:speed></extensions></trkpt>
   <trkpt lat="59.3196778626" lon="34.6669874653"><ele>161.049</ele><time>2026-08-16T13:09:46.138Z</time><hdop>3.0</hdop><vdop>2.5</vdop><extensions><gom:speed>0.067</gom:speed></extensions></trkpt>
   <trkpt lat="59.3196772759" lon="34.6669873815"><ele>161.103</ele><time>2026-08-16T13:09:47.138Z</time><hdop>3.0</hdop><vdop>2.5</vdop><extensions><gom:speed>0.158</gom:speed></extensions></trkpt>
   <trkpt lat="59.3196769825" lon="34.6669858728"><ele>161.135</ele><time>2026-08-16T13:09:47.800Z</time><hdop>3.0</hdop><vdop>2.5</vdop><extensions><gom:speed>0.187</gom:speed></extensions></trkpt>
   <trkpt lat="59.3196743841" lon="34.6669801731"><ele>161.315</ele><time>2026-08-16T13:09:48.565Z</time><hdop>3.0</hdop><vdop>2.5</vdop><extensions><gom:speed>0.313</gom:speed></extensions></trkpt>
   <trkpt lat="59.3196717857" lon="34.6669715397"><ele>161.444</ele><time>2026-08-16T13:09:49.138Z</time><hdop>3.0</hdop><vdop>2.5</vdop><extensions><gom:speed>0.723</gom:speed></extensions></trkpt>
   <trkpt lat="59.319668894" lon="34.6669606432"><ele>161.521</ele><time>2026-08-16T13:09:49.645Z</time><hdop>3.0</hdop><vdop>2.5</vdop><extensions><gom:speed>0.779</gom:speed></extensions></trkpt>
   <trkpt lat="59.3196646611" lon="34.6669457235"><ele>161.291</ele><time>2026-08-16T13:09:50.138Z</time><hdop>3.0</hdop><vdop>2.5</vdop><extensions><gom:speed>1.082</gom:speed></extensions></trkpt>
   <trkpt lat="59.3196601768" lon="34.6669302169"><ele>161.153</ele><time>2026-08-16T13:09:50.764Z</time><hdop>3.0</hdop><vdop>2.5</vdop><extensions><gom:speed>1.135</gom:speed></extensions></trkpt>
   <trkpt lat="59.3196489869" lon="34.6668850385"><ele>161.157</ele><time>2026-08-16T13:09:52.138Z</time><hdop>3.0</hdop><vdop>2.5</vdop><extensions><gom:speed>1.403</gom:speed></extensions></trkpt>
   <trkpt lat="59.3196434968" lon="34.6668526843"><ele>161.279</ele><time>2026-08-16T13:09:53.138Z</time><hdop>3.0</hdop><vdop>2.5</vdop><extensions><gom:speed>1.421</gom:speed></extensions></trkpt>
   <trkpt lat="59.3196376714" lon="34.6668238506"><ele>161.171</ele><time>2026-08-16T13:09:54.138Z</time><hdop>3.0</hdop><vdop>2.5</vdop><extensions><gom:speed>1.408</gom:speed></extensions></trkpt>
   <trkpt lat="59.3196362884" lon="34.6667981181"><ele>161.106</ele><time>2026-08-16T13:09:55.064Z</time><hdop>3.0</hdop><vdop>2.5</vdop><extensions><gom:speed>1.4</gom:speed></extensions></trkpt>
   <trkpt lat="59.3196283675" lon="34.666775487"><ele>160.885</ele><time>2026-08-16T13:09:56.138Z</time><hdop>3.0</hdop><vdop>2.5</vdop><extensions><gom:speed>1.361</gom:speed></extensions></trkpt>
   <trkpt lat="59.3196157946" lon="34.6667607349"><ele>160.682</ele><time>2026-08-16T13:09:57.138Z</time><hdop>3.0</hdop><vdop>2.5</vdop><extensions><gom:speed>1.357</gom:speed></extensions></trkpt>
   <trkpt lat="59.3196040599" lon="34.6667480782"><ele>160.792</ele><time>2026-08-16T13:09:58.138Z</time><hdop>3.0</hdop><vdop>2.5</vdop><extensions><gom:speed>1.306</gom:speed></extensions></trkpt>
   <trkpt lat="59.3195990727" lon="34.666742127"><ele>160.858</ele><time>2026-08-16T13:09:58.610Z</time><hdop>3.062</hdop><vdop>2.5</vdop><extensions><gom:speed>1.302</gom:speed></extensions></trkpt>
   <trkpt lat="59.3195945884" lon="34.666734751"><ele>160.985</ele><time>2026-08-16T13:09:59.138Z</time><hdop>3.062</hdop><vdop>2.5</vdop><extensions><gom:speed>1.281</gom:speed></extensions></trkpt>
   <trkpt lat="59.3195891821" lon="34.6667228487"><ele>161.06</ele><time>2026-08-16T13:09:59.837Z</time><hdop>3.187</hdop><vdop>2.5</vdop><extensions><gom:speed>1.273</gom:speed></extensions></trkpt>
   <trkpt lat="59.319582267" lon="34.6667005528"><ele>160.792</ele><time>2026-08-16T13:10:00.878Z</time><hdop>3.312</hdop><vdop>2.5</vdop><extensions><gom:speed>1.329</gom:speed></extensions></trkpt>
   <trkpt lat="59.3195769864" lon="34.6666751556"><ele>160.514</ele><time>2026-08-16T13:10:01.938Z</time><hdop>3.375</hdop><vdop>2.5</vdop><extensions><gom:speed>1.333</gom:speed></extensions></trkpt>
   <trkpt lat="59.3195739689" lon="34.66665462"><ele>160.311</ele><time>2026-08-16T13:10:02.694Z</time><hdop>3.375</hdop><vdop>2.5</vdop><extensions><gom:speed>1.345</gom:speed></extensions></trkpt>
   <trkpt lat="59.3195677663" lon="34.6666178234"><ele>160.275</ele><time>2026-08-16T13:10:04.098Z</time><hdop>3.375</hdop><vdop>2.5</vdop><extensions><gom:speed>1.339</gom:speed></extensions></trkpt>
   <trkpt lat="59.3195641621" lon="34.6665941864"><ele>160.128</ele><time>2026-08-16T13:10:04.932Z</time><hdop>3.25</hdop><vdop>2.5</vdop><extensions><gom:speed>1.394</gom:speed></extensions></trkpt>
   <trkpt lat="59.3195619828" lon="34.6665817812"><ele>160.072</ele><time>2026-08-16T13:10:05.413Z</time><hdop>3.187</hdop><vdop>2.5</vdop><extensions><gom:speed>1.376</gom:speed></extensions></trkpt>
   <trkpt lat="59.3195586719" lon="34.6665679511"><ele>160.038</ele><time>2026-08-16T13:10:05.992Z</time><hdop>3.125</hdop><vdop>2.5</vdop><extensions><gom:speed>1.369</gom:speed></extensions></trkpt>
   <trkpt lat="59.319553098" lon="34.6665423863"><ele>159.915</ele><time>2026-08-16T13:10:07.013Z</time><hdop>3.125</hdop><vdop>2.5</vdop><extensions><gom:speed>1.375</gom:speed></extensions></trkpt>
   <trkpt lat="59.3195481946" lon="34.6665179949"><ele>159.79</ele><time>2026-08-16T13:10:08.138Z</time><hdop>3.062</hdop><vdop>2.5</vdop><extensions><gom:speed>1.348</gom:speed></extensions></trkpt>
   <trkpt lat="59.3195452609" lon="34.6665055897"><ele>159.715</ele><time>2026-08-16T13:10:08.692Z</time><hdop>3.062</hdop><vdop>2.5</vdop><extensions><gom:speed>1.356</gom:speed></extensions></trkpt>
   <trkpt lat="59.3195421596" lon="34.666494358"><ele>159.627</ele><time>2026-08-16T13:10:09.271Z</time><hdop>3.0</hdop><vdop>2.5</vdop><extensions><gom:speed>1.323</gom:speed></extensions></trkpt>
   <trkpt lat="59.319539184" lon="34.6664830424"><ele>159.574</ele><time>2026-08-16T13:10:09.772Z</time><hdop>3.0</hdop><vdop>2.5</vdop><extensions><gom:speed>1.321</gom:speed></extensions></trkpt>
   <trkpt lat="59.3195347835" lon="34.6664736547"><ele>159.424</ele><time>2026-08-16T13:10:10.370Z</time><hdop>3.0</hdop><vdop>2.5</vdop><extensions><gom:speed>1.345</gom:speed></extensions></trkpt>
   <trkpt lat="59.3195308859" lon="34.666462842"><ele>159.334</ele><time>2026-08-16T13:10:10.891Z</time><hdop>3.0</hdop><vdop>2.5</vdop><extensions><gom:speed>1.339</gom:speed></extensions></trkpt>
   <trkpt lat="59.3195248929" lon="34.6664483413"><ele>159.414</ele><time>2026-08-16T13:10:11.716Z</time><hdop>3.0</hdop><vdop>2.5</vdop><extensions><gom:speed>1.322</gom:speed></extensions></trkpt>
   <trkpt lat="59.3195182712" lon="34.6664264646"><ele>159.621</ele><time>2026-08-16T13:10:12.815Z</time><hdop>3.0</hdop><vdop>2.5</vdop><extensions><gom:speed>1.355</gom:speed></extensions></trkpt>
   <trkpt lat="59.3195123619" lon="34.6664006483"><ele>159.702</ele><time>2026-08-16T13:10:13.915Z</time><hdop>3.0</hdop><vdop>2.5</vdop><extensions><gom:speed>1.378</gom:speed></extensions></trkpt>
   <trkpt lat="59.3195094702" lon="34.6663801964"><ele>159.991</ele><time>2026-08-16T13:10:14.710Z</time><hdop>3.0</hdop><vdop>2.5</vdop><extensions><gom:speed>1.37</gom:speed></extensions></trkpt>
   <trkpt lat="59.3195079614" lon="34.6663665339"><ele>160.292</ele><time>2026-08-16T13:10:15.250Z</time><hdop>3.0</hdop><vdop>2.5</vdop><extensions><gom:speed>1.379</gom:speed></extensions></trkpt>
   <trkpt lat="59.3195048601" lon="34.6663542964"><ele>160.472</ele><time>2026-08-16T13:10:15.770Z</time><hdop>3.0</hdop><vdop>2.5</vdop><extensions><gom:speed>1.373</gom:speed></extensions></trkpt>
   <trkpt lat="59.3194986994" lon="34.6663288992"><ele>160.702</ele><time>2026-08-16T13:10:16.849Z</time><hdop>3.0</hdop><vdop>2.5</vdop><extensions><gom:speed>1.415</gom:speed></extensions></trkpt>
   <trkpt lat="59.3194918682" lon="34.6663017418"><ele>161.016</ele><time>2026-08-16T13:10:18.138Z</time><hdop>3.0</hdop><vdop>2.5</vdop><extensions><gom:speed>1.386</gom:speed></extensions></trkpt>
   <trkpt lat="59.3194872581" lon="34.666278524"><ele>161.049</ele><time>2026-08-16T13:10:19.138Z</time><hdop>3.0</hdop><vdop>2.5</vdop><extensions><gom:speed>1.405</gom:speed></extensions></trkpt>
   <trkpt lat="59.3194829833" lon="34.6662542164"><ele>161.162</ele><time>2026-08-16T13:10:20.138Z</time><hdop>3.0</hdop><vdop>2.5</vdop><extensions><gom:speed>1.391</gom:speed></extensions></trkpt>
   <trkpt lat="59.3194786667" lon="34.6662322559"><ele>161.063</ele><time>2026-08-16T13:10:21.138Z</time><hdop>3.0</hdop><vdop>2.5</vdop><extensions><gom:speed>1.366</gom:speed></extensions></trkpt>
   <trkpt lat="59.3194749786" lon="34.6662166655"><ele>161.004</ele><time>2026-08-16T13:10:21.817Z</time><hdop>3.0</hdop><vdop>2.5</vdop><extensions><gom:speed>1.363</gom:speed></extensions></trkpt>
   <trkpt lat="59.3194704943" lon="34.6662068587"><ele>160.886</ele><time>2026-08-16T13:10:22.377Z</time><hdop>3.0</hdop><vdop>2.5</vdop><extensions><gom:speed>1.358</gom:speed></extensions></trkpt>
   <trkpt lat="59.3194653814" lon="34.666192358"><ele>160.869</ele><time>2026-08-16T13:10:23.138Z</time><hdop>3.0</hdop><vdop>2.5</vdop><extensions><gom:speed>1.354</gom:speed></extensions></trkpt>
   <trkpt lat="59.3194630763" lon="34.6661741693"><ele>160.858</ele><time>2026-08-16T13:10:23.893Z</time><hdop>3.0</hdop><vdop>2.5</vdop><extensions><gom:speed>1.339</gom:speed></extensions></trkpt>
   <trkpt lat="59.3194688598" lon="34.6661538851"><ele>160.933</ele><time>2026-08-16T13:10:24.954Z</time><hdop>3.0</hdop><vdop>2.5</vdop><extensions><gom:speed>1.306</gom:speed></extensions></trkpt>
   <trkpt lat="59.319467393" lon="34.6661422342"><ele>161.212</ele><time>2026-08-16T13:10:25.572Z</time><hdop>3.0</hdop><vdop>2.5</vdop><extensions><gom:speed>1.256</gom:speed></extensions></trkpt>
   <trkpt lat="59.3194640822" lon="34.6661320921"><ele>161.481</ele><time>2026-08-16T13:10:26.138Z</time><hdop>3.0</hdop><vdop>2.5</vdop><extensions><gom:speed>1.182</gom:speed></extensions></trkpt>
   <trkpt lat="59.3194569994" lon="34.6661137357"><ele>161.713</ele><time>2026-08-16T13:10:27.138Z</time><hdop>3.0</hdop><vdop>2.5</vdop><extensions><gom:speed>1.172</gom:speed></extensions></trkpt>
   <trkpt lat="59.31945306" lon="34.6660984807"><ele>161.851</ele><time>2026-08-16T13:10:27.898Z</time><hdop>3.0</hdop><vdop>2.5</vdop><extensions><gom:speed>1.19</gom:speed></extensions></trkpt>
   <trkpt lat="59.3194485756" lon="34.6660874166"><ele>162.065</ele><time>2026-08-16T13:10:28.517Z</time><hdop>3.0</hdop><vdop>2.5</vdop><extensions><gom:speed>1.166</gom:speed></extensions></trkpt>
   <trkpt lat="59.3194464802" lon="34.6660762686"><ele>162.193</ele><time>2026-08-16T13:10:29.057Z</time><hdop>3.0</hdop><vdop>2.5</vdop><extensions><gom:speed>1.166</gom:speed></extensions></trkpt>
   <trkpt lat="59.3194404871" lon="34.666066378"><ele>162.62</ele><time>2026-08-16T13:10:29.676Z</time><hdop>3.0</hdop><vdop>2.5</vdop><extensions><gom:speed>1.176</gom:speed></extensions></trkpt>
   <trkpt lat="59.3194361704" lon="34.6660595887"><ele>163.267</ele><time>2026-08-16T13:10:30.138Z</time><hdop>3.0</hdop><vdop>2.5</vdop><extensions><gom:speed>1.139</gom:speed></extensions></trkpt>
   <trkpt lat="59.3194311832" lon="34.6660475187"><ele>163.653</ele><time>2026-08-16T13:10:30.834Z</time><hdop>3.0</hdop><vdop>2.5</vdop><extensions><gom:speed>1.139</gom:speed></extensions></trkpt>
   <trkpt lat="59.3194226756" lon="34.6660259772"><ele>163.915</ele><time>2026-08-16T13:10:32.032Z</time><hdop>3.062</hdop><vdop>2.5</vdop><extensions><gom:speed>1.124</gom:speed></extensions></trkpt>
   <trkpt lat="59.3194182751" lon="34.6660133205"><ele>164.112</ele><time>2026-08-16T13:10:32.699Z</time><hdop>3.062</hdop><vdop>2.5</vdop><extensions><gom:speed>1.135</gom:speed></extensions></trkpt>
   <trkpt lat="59.3194162634" lon="34.6660025917"><ele>164.203</ele><time>2026-08-16T13:10:33.190Z</time><hdop>3.062</hdop><vdop>2.5</vdop><extensions><gom:speed>1.121</gom:speed></extensions></trkpt>
   <trkpt lat="59.3194132878" lon="34.6659897674"><ele>164.257</ele><time>2026-08-16T13:10:33.838Z</time><hdop>3.062</hdop><vdop>2.5</vdop><extensions><gom:speed>1.116</gom:speed></extensions></trkpt>
   <trkpt lat="59.3194119886" lon="34.6659795415"><ele>164.352</ele><time>2026-08-16T13:10:34.319Z</time><hdop>3.0</hdop><vdop>2.5</vdop><extensions><gom:speed>1.113</gom:speed></extensions></trkpt>
   <trkpt lat="59.3194086778" lon="34.6659657952"><ele>164.41</ele><time>2026-08-16T13:10:35.036Z</time><hdop>3.062</hdop><vdop>2.5</vdop><extensions><gom:speed>1.105</gom:speed></extensions></trkpt>
   <trkpt lat="59.319408091" lon="34.6659564912"><ele>164.553</ele><time>2026-08-16T13:10:35.497Z</time><hdop>3.062</hdop><vdop>2.5</vdop><extensions><gom:speed>1.108</gom:speed></extensions></trkpt>
   <trkpt lat="59.3194061632" lon="34.6659432478"><ele>164.659</ele><time>2026-08-16T13:10:36.138Z</time><hdop>3.0</hdop><vdop>2.5</vdop><extensions><gom:speed>1.117</gom:speed></extensions></trkpt>
   <trkpt lat="59.3194039839" lon="34.6659324352"><ele>164.722</ele><time>2026-08-16T13:10:36.655Z</time><hdop>3.0</hdop><vdop>2.5</vdop><extensions><gom:speed>1.121</gom:speed></extensions></trkpt>
   <trkpt lat="59.3194024752" lon="34.6659225445"><ele>164.782</ele><time>2026-08-16T13:10:37.138Z</time><hdop>3.0</hdop><vdop>2.5</vdop><extensions><gom:speed>1.119</gom:speed></extensions></trkpt>
   <trkpt lat="59.3193990805" lon="34.6659068704"><ele>164.818</ele><time>2026-08-16T13:10:37.912Z</time><hdop>3.0</hdop><vdop>2.5</vdop><extensions><gom:speed>1.116</gom:speed></extensions></trkpt>
   <trkpt lat="59.319399793" lon="34.6658852451"><ele>165.145</ele><time>2026-08-16T13:10:39.139Z</time><hdop>3.0</hdop><vdop>2.5</vdop><extensions><gom:speed>0.979</gom:speed></extensions></trkpt>
   <trkpt lat="59.3194083844" lon="34.6658725884"><ele>164.733</ele><time>2026-08-16T13:10:40.138Z</time><hdop>3.0</hdop><vdop>2.5</vdop><extensions><gom:speed>0.971</gom:speed></extensions></trkpt>
   <trkpt lat="59.3194125754" lon="34.6658597641"><ele>164.487</ele><time>2026-08-16T13:10:40.896Z</time><hdop>3.0</hdop><vdop>2.5</vdop><extensions><gom:speed>0.975</gom:speed></extensions></trkpt>
   <trkpt lat="59.3194084682" lon="34.6658520527"><ele>164.183</ele><time>2026-08-16T13:10:41.672Z</time><hdop>3.0</hdop><vdop>2.5</vdop><extensions><gom:speed>0.933</gom:speed></extensions></trkpt>
   <trkpt lat="59.3194051993" lon="34.6658453472"><ele>164.027</ele><time>2026-08-16T13:10:42.138Z</time><hdop>3.0</hdop><vdop>2.5</vdop><extensions><gom:speed>0.992</gom:speed></extensions></trkpt>
   <trkpt lat="59.3194028943" lon="34.6658336964"><ele>163.934</ele><time>2026-08-16T13:10:42.826Z</time><hdop>3.0</hdop><vdop>2.5</vdop><extensions><gom:speed>0.999</gom:speed></extensions></trkpt>
   <trkpt lat="59.3193986614" lon="34.6658130769"><ele>163.827</ele><time>2026-08-16T13:10:44.138Z</time><hdop>3.0</hdop><vdop>2.5</vdop><extensions><gom:speed>1.049</gom:speed></extensions></trkpt>
   <trkpt lat="59.3193928779" lon="34.6657984924"><ele>163.699</ele><time>2026-08-16T13:10:45.138Z</time><hdop>3.0</hdop><vdop>2.5</vdop><extensions><gom:speed>1.05</gom:speed></extensions></trkpt>
   <trkpt lat="59.3193910758" lon="34.6657910325"><ele>163.622</ele><time>2026-08-16T13:10:45.604Z</time><hdop>3.0</hdop><vdop>2.5</vdop><extensions><gom:speed>1.044</gom:speed></extensions></trkpt>
   <trkpt lat="59.319388184" lon="34.6657836564"><ele>163.479</ele><time>2026-08-16T13:10:46.138Z</time><hdop>3.0</hdop><vdop>2.5</vdop><extensions><gom:speed>1.083</gom:speed></extensions></trkpt>
   <trkpt lat="59.319383574" lon="34.6657733467"><ele>163.393</ele><time>2026-08-16T13:10:46.843Z</time><hdop>3.0</hdop><vdop>2.5</vdop><extensions><gom:speed>1.074</gom:speed></extensions></trkpt>
   <trkpt lat="59.3193734738" lon="34.6657608576"><ele>163.262</ele><time>2026-08-16T13:10:47.344Z</time><hdop>3.0</hdop><vdop>2.5</vdop><extensions><gom:speed>1.538</gom:speed></extensions></trkpt>
   <trkpt lat="59.3193652595" lon="34.6657364663"><ele>163.172</ele><time>2026-08-16T13:10:48.138Z</time><hdop>3.0</hdop><vdop>2.5</vdop><extensions><gom:speed>1.639</gom:speed></extensions></trkpt>
   <trkpt lat="59.3193616972" lon="34.6657103986"><ele>163.119</ele><time>2026-08-16T13:10:48.885Z</time><hdop>3.062</hdop><vdop>2.5</vdop><extensions><gom:speed>1.632</gom:speed></extensions></trkpt>
   <trkpt lat="59.319357171" lon="34.66569397"><ele>162.834</ele><time>2026-08-16T13:10:49.610Z</time><hdop>3.062</hdop><vdop>2.5</vdop><extensions><gom:speed>1.449</gom:speed></extensions></trkpt>
   <trkpt lat="59.3193535668" lon="34.6656831574"><ele>162.475</ele><time>2026-08-16T13:10:50.137Z</time><hdop>3.062</hdop><vdop>2.5</vdop><extensions><gom:speed>1.395</gom:speed></extensions></trkpt>
   <trkpt lat="59.3193495854" lon="34.665670836"><ele>162.261</ele><time>2026-08-16T13:10:50.691Z</time><hdop>3.062</hdop><vdop>2.5</vdop><extensions><gom:speed>1.404</gom:speed></extensions></trkpt>
   <trkpt lat="59.3193438857" lon="34.6656448521"><ele>162.148</ele><time>2026-08-16T13:10:51.869Z</time><hdop>3.125</hdop><vdop>2.5</vdop><extensions><gom:speed>1.385</gom:speed></extensions></trkpt>
   <trkpt lat="59.3193421674" lon="34.6656201255"><ele>161.997</ele><time>2026-08-16T13:10:52.989Z</time><hdop>3.125</hdop><vdop>2.5</vdop><extensions><gom:speed>1.305</gom:speed></extensions></trkpt>
   <trkpt lat="59.3193431732" lon="34.6656080555"><ele>161.801</ele><time>2026-08-16T13:10:53.587Z</time><hdop>3.125</hdop><vdop>2.5</vdop><extensions><gom:speed>1.298</gom:speed></extensions></trkpt>
   <trkpt lat="59.3193407844" lon="34.6655963209"><ele>161.684</ele><time>2026-08-16T13:10:54.147Z</time><hdop>3.125</hdop><vdop>2.5</vdop><extensions><gom:speed>1.274</gom:speed></extensions></trkpt>
   <trkpt lat="59.319345562" lon="34.6655772939"><ele>161.183</ele><time>2026-08-16T13:10:55.137Z</time><hdop>3.125</hdop><vdop>2.5</vdop><extensions><gom:speed>1.239</gom:speed></extensions></trkpt>
   <trkpt lat="59.3193474899" lon="34.6655647211"><ele>160.884</ele><time>2026-08-16T13:10:55.688Z</time><hdop>3.125</hdop><vdop>2.5</vdop><extensions><gom:speed>1.242</gom:speed></extensions></trkpt>
   <trkpt lat="59.3193491663" lon="34.6655567583"><ele>160.885</ele><time>2026-08-16T13:10:56.138Z</time><hdop>3.062</hdop><vdop>2.5</vdop><extensions><gom:speed>1.221</gom:speed></extensions></trkpt>
   <trkpt lat="59.3193501721" lon="34.6655423414"><ele>160.886</ele><time>2026-08-16T13:10:56.807Z</time><hdop>3.062</hdop><vdop>2.5</vdop><extensions><gom:speed>1.226</gom:speed></extensions></trkpt>
   <trkpt lat="59.3193491663" lon="34.6655217219"><ele>160.952</ele><time>2026-08-16T13:10:57.907Z</time><hdop>3.062</hdop><vdop>2.5</vdop><extensions><gom:speed>1.22</gom:speed></extensions></trkpt>
   <trkpt lat="59.3193475737" lon="34.6655070536"><ele>161.0</ele><time>2026-08-16T13:10:58.643Z</time><hdop>3.0</hdop><vdop>2.5</vdop><extensions><gom:speed>1.276</gom:speed></extensions></trkpt>
   <trkpt lat="59.3193459811" lon="34.6654952351"><ele>160.959</ele><time>2026-08-16T13:10:59.138Z</time><hdop>3.0</hdop><vdop>2.5</vdop><extensions><gom:speed>1.362</gom:speed></extensions></trkpt>
   <trkpt lat="59.3193433827" lon="34.6654792257"><ele>160.935</ele><time>2026-08-16T13:10:59.772Z</time><hdop>3.0</hdop><vdop>2.5</vdop><extensions><gom:speed>1.369</gom:speed></extensions></trkpt>
   <trkpt lat="59.3193414968" lon="34.6654646412"><ele>161.219</ele><time>2026-08-16T13:11:00.312Z</time><hdop>3.0</hdop><vdop>2.5</vdop><extensions><gom:speed>1.44</gom:speed></extensions></trkpt>
   <trkpt lat="59.319339569" lon="34.6654492185"><ele>161.389</ele><time>2026-08-16T13:11:00.872Z</time><hdop>3.0</hdop><vdop>2.5</vdop><extensions><gom:speed>1.439</gom:speed></extensions></trkpt>
   <trkpt lat="59.3193352942" lon="34.6654227316"><ele>161.451</ele><time>2026-08-16T13:11:01.971Z</time><hdop>3.0</hdop><vdop>2.5</vdop><extensions><gom:speed>1.387</gom:speed></extensions></trkpt>
   <trkpt lat="59.3193317738" lon="34.6653977536"><ele>161.662</ele><time>2026-08-16T13:11:03.088Z</time><hdop>3.0</hdop><vdop>2.5</vdop><extensions><gom:speed>1.364</gom:speed></extensions></trkpt>
   <trkpt lat="59.3193292592" lon="34.6653881982"><ele>161.811</ele><time>2026-08-16T13:11:03.667Z</time><hdop>3.062</hdop><vdop>2.5</vdop><extensions><gom:speed>1.361</gom:speed></extensions></trkpt>
   <trkpt lat="59.3193268704" lon="34.6653800678"><ele>162.233</ele><time>2026-08-16T13:11:04.138Z</time><hdop>3.0</hdop><vdop>2.5</vdop><extensions><gom:speed>1.37</gom:speed></extensions></trkpt>
   <trkpt lat="59.3193244816" lon="34.665364226"><ele>162.485</ele><time>2026-08-16T13:11:04.816Z</time><hdop>3.062</hdop><vdop>2.5</vdop><extensions><gom:speed>1.371</gom:speed></extensions></trkpt>
   <trkpt lat="59.3193231824" lon="34.665358191"><ele>162.552</ele><time>2026-08-16T13:11:05.336Z</time><hdop>3.062</hdop><vdop>2.5</vdop><extensions><gom:speed>1.266</gom:speed></extensions></trkpt>
   <trkpt lat="59.3193216736" lon="34.6653459534"><ele>162.472</ele><time>2026-08-16T13:11:06.138Z</time><hdop>3.062</hdop><vdop>2.5</vdop><extensions><gom:speed>1.223</gom:speed></extensions></trkpt>
   <trkpt lat="59.3193189914" lon="34.665327597"><ele>162.424</ele><time>2026-08-16T13:11:07.015Z</time><hdop>3.062</hdop><vdop>2.5</vdop><extensions><gom:speed>1.242</gom:speed></extensions></trkpt>
   <trkpt lat="59.3193170636" lon="34.6653203886"><ele>162.286</ele><time>2026-08-16T13:11:07.555Z</time><hdop>3.062</hdop><vdop>2.5</vdop><extensions><gom:speed>1.243</gom:speed></extensions></trkpt>
   <trkpt lat="59.3193152615" lon="34.6653094921"><ele>161.93</ele><time>2026-08-16T13:11:08.138Z</time><hdop>3.0</hdop><vdop>2.5</vdop><extensions><gom:speed>1.336</gom:speed></extensions></trkpt>
   <trkpt lat="59.3193138785" lon="34.6652967516"><ele>161.717</ele><time>2026-08-16T13:11:08.674Z</time><hdop>3.0</hdop><vdop>2.5</vdop><extensions><gom:speed>1.342</gom:speed></extensions></trkpt>
   <trkpt lat="59.3193130822" lon="34.6652863581"><ele>161.566</ele><time>2026-08-16T13:11:09.138Z</time><hdop>3.0</hdop><vdop>2.5</vdop><extensions><gom:speed>1.392</gom:speed></extensions></trkpt>
   <trkpt lat="59.3193110705" lon="34.6652700972"><ele>161.476</ele><time>2026-08-16T13:11:09.754Z</time><hdop>3.0</hdop><vdop>2.5</vdop><extensions><gom:speed>1.393</gom:speed></extensions></trkpt>
   <trkpt lat="59.3193088912" lon="34.665242856"><ele>161.311</ele><time>2026-08-16T13:11:10.833Z</time><hdop>3.062</hdop><vdop>2.5</vdop><extensions><gom:speed>1.413</gom:speed></extensions></trkpt>
   <trkpt lat="59.3193093941" lon="34.6652277686"><ele>161.144</ele><time>2026-08-16T13:11:11.413Z</time><hdop>3.0</hdop><vdop>2.5</vdop><extensions><gom:speed>1.432</gom:speed></extensions></trkpt>
   <trkpt lat="59.3193083883" lon="34.6652129326"><ele>161.045</ele><time>2026-08-16T13:11:11.953Z</time><hdop>3.062</hdop><vdop>2.5</vdop><extensions><gom:speed>1.435</gom:speed></extensions></trkpt>
   <trkpt lat="59.3193092684" lon="34.6651880384"><ele>161.002</ele><time>2026-08-16T13:11:13.052Z</time><hdop>3.062</hdop><vdop>2.5</vdop><extensions><gom:speed>1.35</gom:speed></extensions></trkpt>
   <trkpt lat="59.3193092684" lon="34.6651791535"><ele>160.751</ele><time>2026-08-16T13:11:13.651Z</time><hdop>3.0</hdop><vdop>2.5</vdop><extensions><gom:speed>1.32</gom:speed></extensions></trkpt>
   <trkpt lat="59.3193072987" lon="34.6651728671"><ele>160.407</ele><time>2026-08-16T13:11:14.138Z</time><hdop>3.0</hdop><vdop>2.5</vdop><extensions><gom:speed>1.313</gom:speed></extensions></trkpt>
   <trkpt lat="59.3193053708" lon="34.6651595399"><ele>160.201</ele><time>2026-08-16T13:11:14.790Z</time><hdop>3.0</hdop><vdop>2.5</vdop><extensions><gom:speed>1.319</gom:speed></extensions></trkpt>
   <trkpt lat="59.3193003836" lon="34.6651527505"><ele>160.024</ele><time>2026-08-16T13:11:15.310Z</time><hdop>3.0</hdop><vdop>2.5</vdop><extensions><gom:speed>1.341</gom:speed></extensions></trkpt>
   <trkpt lat="59.3192980786" lon="34.6651405968"><ele>159.919</ele><time>2026-08-16T13:11:15.850Z</time><hdop>3.0</hdop><vdop>2.5</vdop><extensions><gom:speed>1.343</gom:speed></extensions></trkpt>
   <trkpt lat="59.319294181" lon="34.6651332207"><ele>159.841</ele><time>2026-08-16T13:11:16.410Z</time><hdop>3.0</hdop><vdop>2.5</vdop><extensions><gom:speed>1.299</gom:speed></extensions></trkpt>
   <trkpt lat="59.3192903672" lon="34.6651200611"><ele>159.631</ele><time>2026-08-16T13:11:17.138Z</time><hdop>3.0</hdop><vdop>2.5</vdop><extensions><gom:speed>1.282</gom:speed></extensions></trkpt>
   <trkpt lat="59.3192912892" lon="34.665104387"><ele>159.506</ele><time>2026-08-16T13:11:17.892Z</time><hdop>3.0</hdop><vdop>2.5</vdop><extensions><gom:speed>1.28</gom:speed></extensions></trkpt>
   <trkpt lat="59.3192952706" lon="34.6650922332"><ele>159.639</ele><time>2026-08-16T13:11:18.972Z</time><hdop>3.0</hdop><vdop>2.5</vdop><extensions><gom:speed>1.155</gom:speed></extensions></trkpt>
   <trkpt lat="59.3192924627" lon="34.6650714461"><ele>159.769</ele><time>2026-08-16T13:11:20.130Z</time><hdop>3.0</hdop><vdop>2.5</vdop><extensions><gom:speed>1.145</gom:speed></extensions></trkpt>
   <trkpt lat="59.3192861763" lon="34.6650579512"><ele>159.963</ele><time>2026-08-16T13:11:20.827Z</time><hdop>3.0</hdop><vdop>2.5</vdop><extensions><gom:speed>1.146</gom:speed></extensions></trkpt>
   <trkpt lat="59.3192813986" lon="34.6650487311"><ele>160.295</ele><time>2026-08-16T13:11:21.288Z</time><hdop>3.0</hdop><vdop>2.5</vdop><extensions><gom:speed>1.143</gom:speed></extensions></trkpt>
   <trkpt lat="59.3192794707" lon="34.6650340628"><ele>160.494</ele><time>2026-08-16T13:11:22.015Z</time><hdop>3.0</hdop><vdop>2.5</vdop><extensions><gom:speed>1.156</gom:speed></extensions></trkpt>
   <trkpt lat="59.319274274" lon="34.6650239207"><ele>160.673</ele><time>2026-08-16T13:11:22.515Z</time><hdop>3.0</hdop><vdop>2.5</vdop><extensions><gom:speed>1.166</gom:speed></extensions></trkpt>
   <trkpt lat="59.3192720947" lon="34.6650127728"><ele>160.781</ele><time>2026-08-16T13:11:23.054Z</time><hdop>3.0</hdop><vdop>2.5</vdop><extensions><gom:speed>1.168</gom:speed></extensions></trkpt>
   <trkpt lat="59.3192674846" lon="34.6650011219"><ele>160.767</ele><time>2026-08-16T13:11:23.615Z</time><hdop>3.0</hdop><vdop>2.5</vdop><extensions><gom:speed>1.2</gom:speed></extensions></trkpt>
   <trkpt lat="59.3192642995" lon="34.6649902254"><ele>160.824</ele><time>2026-08-16T13:11:24.138Z</time><hdop>3.062</hdop><vdop>2.5</vdop><extensions><gom:speed>1.169</gom:speed></extensions></trkpt>
   <trkpt lat="59.3192609886" lon="34.6649788261"><ele>160.859</ele><time>2026-08-16T13:11:24.714Z</time><hdop>3.062</hdop><vdop>2.5</vdop><extensions><gom:speed>1.161</gom:speed></extensions></trkpt>
   <trkpt lat="59.3192563786" lon="34.6649559435"><ele>160.892</ele><time>2026-08-16T13:11:25.814Z</time><hdop>3.062</hdop><vdop>2.5</vdop><extensions><gom:speed>1.132</gom:speed></extensions></trkpt>
   <trkpt lat="59.3192542831" lon="34.6649387606"><ele>160.947</ele><time>2026-08-16T13:11:26.589Z</time><hdop>3.062</hdop><vdop>2.5</vdop><extensions><gom:speed>1.117</gom:speed></extensions></trkpt>
   <trkpt lat="59.3192528582" lon="34.6649256848"><ele>161.056</ele><time>2026-08-16T13:11:27.138Z</time><hdop>3.125</hdop><vdop>2.5</vdop><extensions><gom:speed>1.126</gom:speed></extensions></trkpt>
   <trkpt lat="59.319250176" lon="34.664913531"><ele>161.121</ele><time>2026-08-16T13:11:27.728Z</time><hdop>3.125</hdop><vdop>2.5</vdop><extensions><gom:speed>1.139</gom:speed></extensions></trkpt>
   <trkpt lat="59.3192491702" lon="34.6649031375"><ele>161.105</ele><time>2026-08-16T13:11:28.190Z</time><hdop>3.062</hdop><vdop>2.5</vdop><extensions><gom:speed>1.15</gom:speed></extensions></trkpt>
   <trkpt lat="59.3192454821" lon="34.6648900617"><ele>161.096</ele><time>2026-08-16T13:11:28.867Z</time><hdop>3.125</hdop><vdop>2.5</vdop><extensions><gom:speed>1.147</gom:speed></extensions></trkpt>
   <trkpt lat="59.319245985" lon="34.6648782432"><ele>161.009</ele><time>2026-08-16T13:11:29.348Z</time><hdop>3.125</hdop><vdop>2.5</vdop><extensions><gom:speed>1.149</gom:speed></extensions></trkpt>
   <trkpt lat="59.3192446858" lon="34.6648616471"><ele>160.957</ele><time>2026-08-16T13:11:30.074Z</time><hdop>3.125</hdop><vdop>2.5</vdop><extensions><gom:speed>1.175</gom:speed></extensions></trkpt>
   <trkpt lat="59.3192449792" lon="34.6648503315"><ele>161.039</ele><time>2026-08-16T13:11:30.555Z</time><hdop>3.125</hdop><vdop>2.5</vdop><extensions><gom:speed>1.161</gom:speed></extensions></trkpt>
   <trkpt lat="59.3192444763" lon="34.6648382615"><ele>160.983</ele><time>2026-08-16T13:11:31.138Z</time><hdop>3.062</hdop><vdop>2.5</vdop><extensions><gom:speed>1.175</gom:speed></extensions></trkpt>
   <trkpt lat="59.3192432609" lon="34.6648266945"><ele>160.95</ele><time>2026-08-16T13:11:31.655Z</time><hdop>3.062</hdop><vdop>2.5</vdop><extensions><gom:speed>1.193</gom:speed></extensions></trkpt>
   <trkpt lat="59.319242297" lon="34.6648169715"><ele>160.908</ele><time>2026-08-16T13:11:32.138Z</time><hdop>3.062</hdop><vdop>2.5</vdop><extensions><gom:speed>1.188</gom:speed></extensions></trkpt>
   <trkpt lat="59.3192394891" lon="34.6648032252"><ele>160.884</ele><time>2026-08-16T13:11:32.794Z</time><hdop>3.0</hdop><vdop>2.5</vdop><extensions><gom:speed>1.2</gom:speed></extensions></trkpt>
   <trkpt lat="59.3192384832" lon="34.6647897303"><ele>160.865</ele><time>2026-08-16T13:11:33.432Z</time><hdop>3.0</hdop><vdop>2.5</vdop><extensions><gom:speed>1.202</gom:speed></extensions></trkpt>
   <trkpt lat="59.319237184" lon="34.6647777442"><ele>160.855</ele><time>2026-08-16T13:11:33.952Z</time><hdop>3.0</hdop><vdop>2.5</vdop><extensions><gom:speed>1.206</gom:speed></extensions></trkpt>
   <trkpt lat="59.3192364716" lon="34.664762573"><ele>160.893</ele><time>2026-08-16T13:11:34.551Z</time><hdop>3.0</hdop><vdop>2.5</vdop><extensions><gom:speed>1.232</gom:speed></extensions></trkpt>
   <trkpt lat="59.319234879" lon="34.6647502516"><ele>160.916</ele><time>2026-08-16T13:11:35.032Z</time><hdop>3.0</hdop><vdop>2.5</vdop><extensions><gom:speed>1.281</gom:speed></extensions></trkpt>
   <trkpt lat="59.3192341666" lon="34.6647342421"><ele>160.984</ele><time>2026-08-16T13:11:35.650Z</time><hdop>3.0</hdop><vdop>2.5</vdop><extensions><gom:speed>1.263</gom:speed></extensions></trkpt>
   <trkpt lat="59.3192336636" lon="34.6647217531"><ele>161.025</ele><time>2026-08-16T13:11:36.131Z</time><hdop>3.0</hdop><vdop>2.5</vdop><extensions><gom:speed>1.261</gom:speed></extensions></trkpt>
   <trkpt lat="59.3192328674" lon="34.6646984514"><ele>161.198</ele><time>2026-08-16T13:11:37.138Z</time><hdop>3.0</hdop><vdop>2.5</vdop><extensions><gom:speed>1.2</gom:speed></extensions></trkpt>
   <trkpt lat="59.3192337894" lon="34.664678251"><ele>161.302</ele><time>2026-08-16T13:11:38.036Z</time><hdop>3.0</hdop><vdop>2.5</vdop><extensions><gom:speed>1.166</gom:speed></extensions></trkpt>
   <trkpt lat="59.319234879" lon="34.6646675222"><ele>161.332</ele><time>2026-08-16T13:11:38.527Z</time><hdop>3.0</hdop><vdop>2.5</vdop><extensions><gom:speed>1.18</gom:speed></extensions></trkpt>
   <trkpt lat="59.3192359687" lon="34.6646547817"><ele>161.444</ele><time>2026-08-16T13:11:39.138Z</time><hdop>3.0</hdop><vdop>2.5</vdop><extensions><gom:speed>1.177</gom:speed></extensions></trkpt>
   <trkpt lat="59.3192366811" lon="34.6646417897"><ele>161.511</ele><time>2026-08-16T13:11:39.715Z</time><hdop>3.0</hdop><vdop>2.5</vdop><extensions><gom:speed>1.173</gom:speed></extensions></trkpt>
   <trkpt lat="59.319233496" lon="34.6646155544"><ele>161.659</ele><time>2026-08-16T13:11:40.912Z</time><hdop>3.0</hdop><vdop>2.5</vdop><extensions><gom:speed>1.135</gom:speed></extensions></trkpt>
   <trkpt lat="59.3192317777" lon="34.664601389"><ele>161.691</ele><time>2026-08-16T13:11:41.609Z</time><hdop>3.0</hdop><vdop>2.5</vdop><extensions><gom:speed>1.117</gom:speed></extensions></trkpt>
   <trkpt lat="59.3192314843" lon="34.6645913307"><ele>161.71</ele><time>2026-08-16T13:11:42.071Z</time><hdop>3.0</hdop><vdop>2.5</vdop><extensions><gom:speed>1.13</gom:speed></extensions></trkpt>
   <trkpt lat="59.3192287602" lon="34.6645769976"><ele>161.846</ele><time>2026-08-16T13:11:42.748Z</time><hdop>3.0</hdop><vdop>2.5</vdop><extensions><gom:speed>1.145</gom:speed></extensions></trkpt>
   <trkpt lat="59.3192241921" lon="34.6645517681"><ele>162.025</ele><time>2026-08-16T13:11:43.887Z</time><hdop>3.0</hdop><vdop>2.5</vdop><extensions><gom:speed>1.168</gom:speed></extensions></trkpt>
   <trkpt lat="59.3192220966" lon="34.6645427995"><ele>162.251</ele><time>2026-08-16T13:11:44.368Z</time><hdop>3.0</hdop><vdop>2.5</vdop><extensions><gom:speed>1.152</gom:speed></extensions></trkpt>
   <trkpt lat="59.3192207974" lon="34.664530059"><ele>162.386</ele><time>2026-08-16T13:11:44.967Z</time><hdop>3.0</hdop><vdop>2.5</vdop><extensions><gom:speed>1.131</gom:speed></extensions></trkpt>
   <trkpt lat="59.3192178637" lon="34.6645177376"><ele>162.394</ele><time>2026-08-16T13:11:45.575Z</time><hdop>3.0</hdop><vdop>2.5</vdop><extensions><gom:speed>1.153</gom:speed></extensions></trkpt>
   <trkpt lat="59.3192161874" lon="34.6645058353"><ele>162.4</ele><time>2026-08-16T13:11:46.135Z</time><hdop>3.0</hdop><vdop>2.5</vdop><extensions><gom:speed>1.141</gom:speed></extensions></trkpt>
   <trkpt lat="59.3192133794" lon="34.664494855"><ele>162.404</ele><time>2026-08-16T13:11:46.714Z</time><hdop>3.0</hdop><vdop>2.5</vdop><extensions><gom:speed>1.157</gom:speed></extensions></trkpt>
   <trkpt lat="59.3192109906" lon="34.6644831203"><ele>162.216</ele><time>2026-08-16T13:11:47.352Z</time><hdop>3.0</hdop><vdop>2.5</vdop><extensions><gom:speed>1.145</gom:speed></extensions></trkpt>
   <trkpt lat="59.3192092723" lon="34.6644714695"><ele>162.104</ele><time>2026-08-16T13:11:47.892Z</time><hdop>3.0</hdop><vdop>2.5</vdop><extensions><gom:speed>1.142</gom:speed></extensions></trkpt>
   <trkpt lat="59.3192085598" lon="34.6644582261"><ele>162.044</ele><time>2026-08-16T13:11:48.511Z</time><hdop>3.0</hdop><vdop>2.5</vdop><extensions><gom:speed>1.156</gom:speed></extensions></trkpt>
   <trkpt lat="59.3192083922" lon="34.6644462399"><ele>162.009</ele><time>2026-08-16T13:11:49.011Z</time><hdop>3.0</hdop><vdop>2.5</vdop><extensions><gom:speed>1.162</gom:speed></extensions></trkpt>
   <trkpt lat="59.3192062967" lon="34.6644312363"><ele>161.986</ele><time>2026-08-16T13:11:49.669Z</time><hdop>3.0</hdop><vdop>2.5</vdop><extensions><gom:speed>1.171</gom:speed></extensions></trkpt>
   <trkpt lat="59.319204788" lon="34.6644206751"><ele>161.972</ele><time>2026-08-16T13:11:50.130Z</time><hdop>3.0</hdop><vdop>2.5</vdop><extensions><gom:speed>1.194</gom:speed></extensions></trkpt>
   <trkpt lat="59.3192000941" lon="34.6643991336"><ele>162.102</ele><time>2026-08-16T13:11:51.138Z</time><hdop>3.0</hdop><vdop>2.5</vdop><extensions><gom:speed>1.222</gom:speed></extensions></trkpt>
   <trkpt lat="59.3191955679" lon="34.6643763349"><ele>162.236</ele><time>2026-08-16T13:11:52.138Z</time><hdop>3.0</hdop><vdop>2.5</vdop><extensions><gom:speed>1.268</gom:speed></extensions></trkpt>
   <trkpt lat="59.3191902873" lon="34.6643551286"><ele>162.316</ele><time>2026-08-16T13:11:53.056Z</time><hdop>3.0</hdop><vdop>2.5</vdop><extensions><gom:speed>1.27</gom:speed></extensions></trkpt>
   <trkpt lat="59.319188569" lon="34.6643451542"><ele>162.468</ele><time>2026-08-16T13:11:53.507Z</time><hdop>3.0</hdop><vdop>2.5</vdop><extensions><gom:speed>1.267</gom:speed></extensions></trkpt>
   <trkpt lat="59.3191865993" lon="34.664332246"><ele>162.637</ele><time>2026-08-16T13:11:54.138Z</time><hdop>3.0</hdop><vdop>2.5</vdop><extensions><gom:speed>1.226</gom:speed></extensions></trkpt>
   <trkpt lat="59.3191838751" lon="34.6643219363"><ele>162.738</ele><time>2026-08-16T13:11:54.636Z</time><hdop>3.0</hdop><vdop>2.5</vdop><extensions><gom:speed>1.234</gom:speed></extensions></trkpt>
   <trkpt lat="59.3191823664" lon="34.6643119618"><ele>162.899</ele><time>2026-08-16T13:11:55.138Z</time><hdop>3.0</hdop><vdop>2.5</vdop><extensions><gom:speed>1.233</gom:speed></extensions></trkpt>
   <trkpt lat="59.3191786784" lon="34.6642987184"><ele>162.995</ele><time>2026-08-16T13:11:55.795Z</time><hdop>3.0</hdop><vdop>2.5</vdop><extensions><gom:speed>1.219</gom:speed></extensions></trkpt>
   <trkpt lat="59.319178385" lon="34.6642866485"><ele>163.33</ele><time>2026-08-16T13:11:56.315Z</time><hdop>3.0</hdop><vdop>2.5</vdop><extensions><gom:speed>1.219</gom:speed></extensions></trkpt>
   <trkpt lat="59.319178385" lon="34.664268795"><ele>163.26</ele><time>2026-08-16T13:11:57.138Z</time><hdop>3.0</hdop><vdop>2.5</vdop><extensions><gom:speed>1.181</gom:speed></extensions></trkpt>
   <trkpt lat="59.3191814863" lon="34.6642487623"><ele>163.218</ele><time>2026-08-16T13:11:58.072Z</time><hdop>3.0</hdop><vdop>2.5</vdop><extensions><gom:speed>1.147</gom:speed></extensions></trkpt>
   <trkpt lat="59.3191886947" lon="34.6642279752"><ele>162.79</ele><time>2026-08-16T13:11:59.138Z</time><hdop>3.0</hdop><vdop>2.5</vdop><extensions><gom:speed>1.222</gom:speed></extensions></trkpt>
   <trkpt lat="59.3191912931" lon="34.6642059308"><ele>162.705</ele><time>2026-08-16T13:12:00.138Z</time><hdop>3.0</hdop><vdop>2.5</vdop><extensions><gom:speed>1.189</gom:speed></extensions></trkpt>
   <trkpt lat="59.3191952745" lon="34.6641867362"><ele>162.654</ele><time>2026-08-16T13:12:01.047Z</time><hdop>3.0</hdop><vdop>2.5</vdop><extensions><gom:speed>1.195</gom:speed></extensions></trkpt>
   <trkpt lat="59.3191991721" lon="34.6641650271"><ele>162.65</ele><time>2026-08-16T13:12:02.138Z</time><hdop>3.0</hdop><vdop>2.5</vdop><extensions><gom:speed>1.187</gom:speed></extensions></trkpt>
   <trkpt lat="59.3192007647" lon="34.6641422283"><ele>162.487</ele><time>2026-08-16T13:12:03.138Z</time><hdop>3.0</hdop><vdop>2.5</vdop><extensions><gom:speed>1.188</gom:speed></extensions></trkpt>
   <trkpt lat="59.3192014771" lon="34.6641308289"><ele>162.389</ele><time>2026-08-16T13:12:03.609Z</time><hdop>3.0</hdop><vdop>2.5</vdop><extensions><gom:speed>1.198</gom:speed></extensions></trkpt>
   <trkpt lat="59.3192012676" lon="34.6641183399"><ele>162.37</ele><time>2026-08-16T13:12:04.138Z</time><hdop>3.0</hdop><vdop>2.5</vdop><extensions><gom:speed>1.197</gom:speed></extensions></trkpt>
   <trkpt lat="59.3192015609" lon="34.6641043421"><ele>162.358</ele><time>2026-08-16T13:12:04.709Z</time><hdop>3.0</hdop><vdop>2.5</vdop><extensions><gom:speed>1.2</gom:speed></extensions></trkpt>
   <trkpt lat="59.3191999684" lon="34.6640781906"><ele>162.357</ele><time>2026-08-16T13:12:05.769Z</time><hdop>3.0</hdop><vdop>2.5</vdop><extensions><gom:speed>1.218</gom:speed></extensions></trkpt>
   <trkpt lat="59.3191968671" lon="34.6640502788"><ele>162.283</ele><time>2026-08-16T13:12:06.849Z</time><hdop>3.0</hdop><vdop>2.5</vdop><extensions><gom:speed>1.249</gom:speed></extensions></trkpt>
   <trkpt lat="59.319191796" lon="34.6640211936"><ele>162.288</ele><time>2026-08-16T13:12:07.986Z</time><hdop>3.0</hdop><vdop>2.5</vdop><extensions><gom:speed>1.253</gom:speed></extensions></trkpt>
   <trkpt lat="59.3191889881" lon="34.6639932819"><ele>162.427</ele><time>2026-08-16T13:12:09.136Z</time><hdop>3.062</hdop><vdop>2.5</vdop><extensions><gom:speed>1.253</gom:speed></extensions></trkpt>
   <trkpt lat="59.3191851743" lon="34.6639686391"><ele>162.633</ele><time>2026-08-16T13:12:10.138Z</time><hdop>3.062</hdop><vdop>2.5</vdop><extensions><gom:speed>1.266</gom:speed></extensions></trkpt>
   <trkpt lat="59.3191815701" lon="34.6639511209"><ele>162.756</ele><time>2026-08-16T13:12:10.874Z</time><hdop>3.062</hdop><vdop>2.5</vdop><extensions><gom:speed>1.284</gom:speed></extensions></trkpt>
   <trkpt lat="59.319179768" lon="34.6639412303"><ele>162.94</ele><time>2026-08-16T13:12:11.355Z</time><hdop>3.0</hdop><vdop>2.5</vdop><extensions><gom:speed>1.257</gom:speed></extensions></trkpt>
   <trkpt lat="59.3191767924" lon="34.6639274839"><ele>163.05</ele><time>2026-08-16T13:12:11.993Z</time><hdop>3.0</hdop><vdop>2.5</vdop><extensions><gom:speed>1.228</gom:speed></extensions></trkpt>
   <trkpt lat="59.3191728948" lon="34.6639187668"><ele>163.17</ele><time>2026-08-16T13:12:12.513Z</time><hdop>3.0</hdop><vdop>2.5</vdop><extensions><gom:speed>1.227</gom:speed></extensions></trkpt>
   <trkpt lat="59.3191684943" lon="34.6639085408"><ele>163.148</ele><time>2026-08-16T13:12:13.138Z</time><hdop>3.0</hdop><vdop>2.5</vdop><extensions><gom:speed>1.209</gom:speed></extensions></trkpt>
   <trkpt lat="59.3191641777" lon="34.6638999913"><ele>163.136</ele><time>2026-08-16T13:12:13.671Z</time><hdop>3.0</hdop><vdop>2.5</vdop><extensions><gom:speed>1.212</gom:speed></extensions></trkpt>
   <trkpt lat="59.3191606992" lon="34.6638925314"><ele>163.202</ele><time>2026-08-16T13:12:14.138Z</time><hdop>3.0</hdop><vdop>2.5</vdop><extensions><gom:speed>1.181</gom:speed></extensions></trkpt>
   <trkpt lat="59.3191554605" lon="34.6638819702"><ele>163.242</ele><time>2026-08-16T13:12:14.791Z</time><hdop>3.0</hdop><vdop>2.5</vdop><extensions><gom:speed>1.178</gom:speed></extensions></trkpt>
   <trkpt lat="59.3191502637" lon="34.6638689783"><ele>163.346</ele><time>2026-08-16T13:12:15.488Z</time><hdop>3.0</hdop><vdop>2.5</vdop><extensions><gom:speed>1.182</gom:speed></extensions></trkpt>
   <trkpt lat="59.319146869" lon="34.6638606802"><ele>163.407</ele><time>2026-08-16T13:12:15.949Z</time><hdop>3.0</hdop><vdop>2.5</vdop><extensions><gom:speed>1.187</gom:speed></extensions></trkpt>
   <trkpt lat="59.3191424685" lon="34.6638499513"><ele>163.459</ele><time>2026-08-16T13:12:16.587Z</time><hdop>3.0</hdop><vdop>2.5</vdop><extensions><gom:speed>1.185</gom:speed></extensions></trkpt>
   <trkpt lat="59.31913899" lon="34.663841318"><ele>163.49</ele><time>2026-08-16T13:12:17.068Z</time><hdop>3.0</hdop><vdop>2.5</vdop><extensions><gom:speed>1.167</gom:speed></extensions></trkpt>
   <trkpt lat="59.3191340866" lon="34.6638310921"><ele>163.444</ele><time>2026-08-16T13:12:17.716Z</time><hdop>3.0</hdop><vdop>2.5</vdop><extensions><gom:speed>1.176</gom:speed></extensions></trkpt>
   <trkpt lat="59.3191300633" lon="34.6638216205"><ele>163.457</ele><time>2026-08-16T13:12:18.276Z</time><hdop>3.0</hdop><vdop>2.5</vdop><extensions><gom:speed>1.194</gom:speed></extensions></trkpt>
   <trkpt lat="59.3191257885" lon="34.6638129871"><ele>163.465</ele><time>2026-08-16T13:12:18.796Z</time><hdop>3.0</hdop><vdop>2.5</vdop><extensions><gom:speed>1.186</gom:speed></extensions></trkpt>
   <trkpt lat="59.3191226872" lon="34.6638036832"><ele>163.426</ele><time>2026-08-16T13:12:19.336Z</time><hdop>3.0</hdop><vdop>2.5</vdop><extensions><gom:speed>1.179</gom:speed></extensions></trkpt>
   <trkpt lat="59.3191177838" lon="34.6637942955"><ele>163.403</ele><time>2026-08-16T13:12:19.935Z</time><hdop>3.0</hdop><vdop>2.5</vdop><extensions><gom:speed>1.168</gom:speed></extensions></trkpt>
   <trkpt lat="59.3191143892" lon="34.6637853269"><ele>163.332</ele><time>2026-08-16T13:12:20.493Z</time><hdop>3.0</hdop><vdop>2.5</vdop><extensions><gom:speed>1.136</gom:speed></extensions></trkpt>
   <trkpt lat="59.3191098629" lon="34.663776442"><ele>163.253</ele><time>2026-08-16T13:12:21.138Z</time><hdop>3.0</hdop><vdop>2.5</vdop><extensions><gom:speed>1.13</gom:speed></extensions></trkpt>
   <trkpt lat="59.3191050852" lon="34.663769066"><ele>163.206</ele><time>2026-08-16T13:12:21.711Z</time><hdop>3.0</hdop><vdop>2.5</vdop><extensions><gom:speed>1.137</gom:speed></extensions></trkpt>
   <trkpt lat="59.3191015648" lon="34.6637599297"><ele>163.207</ele><time>2026-08-16T13:12:22.291Z</time><hdop>3.0</hdop><vdop>2.5</vdop><extensions><gom:speed>1.14</gom:speed></extensions></trkpt>
   <trkpt lat="59.3190975834" lon="34.6637521345"><ele>163.207</ele><time>2026-08-16T13:12:22.811Z</time><hdop>3.0</hdop><vdop>2.5</vdop><extensions><gom:speed>1.136</gom:speed></extensions></trkpt>
   <trkpt lat="59.319094063" lon="34.6637409866"><ele>163.269</ele><time>2026-08-16T13:12:23.410Z</time><hdop>3.0</hdop><vdop>2.5</vdop><extensions><gom:speed>1.153</gom:speed></extensions></trkpt>
   <trkpt lat="59.3190901655" lon="34.6637331914"><ele>163.306</ele><time>2026-08-16T13:12:23.891Z</time><hdop>3.0</hdop><vdop>2.5</vdop><extensions><gom:speed>1.148</gom:speed></extensions></trkpt>
   <trkpt lat="59.3190855973" lon="34.6637191936"><ele>163.33</ele><time>2026-08-16T13:12:24.627Z</time><hdop>3.0</hdop><vdop>2.5</vdop><extensions><gom:speed>1.138</gom:speed></extensions></trkpt>
   <trkpt lat="59.3190820769" lon="34.6637098897"><ele>163.352</ele><time>2026-08-16T13:12:25.138Z</time><hdop>3.0</hdop><vdop>2.5</vdop><extensions><gom:speed>1.187</gom:speed></extensions></trkpt>
   <trkpt lat="59.3190751618" lon="34.6636968978"><ele>163.364</ele><time>2026-08-16T13:12:25.952Z</time><hdop>3.0</hdop><vdop>2.5</vdop><extensions><gom:speed>1.181</gom:speed></extensions></trkpt>
   <trkpt lat="59.3190693783" lon="34.6636891864"><ele>163.184</ele><time>2026-08-16T13:12:26.511Z</time><hdop>3.0</hdop><vdop>2.5</vdop><extensions><gom:speed>1.208</gom:speed></extensions></trkpt>
   <trkpt lat="59.3190631757" lon="34.6636812236"><ele>163.164</ele><time>2026-08-16T13:12:27.138Z</time><hdop>3.0</hdop><vdop>2.5</vdop><extensions><gom:speed>1.233</gom:speed></extensions></trkpt>
   <trkpt lat="59.3190542909" lon="34.6636657171"><ele>163.223</ele><time>2026-08-16T13:12:28.138Z</time><hdop>3.0</hdop><vdop>2.5</vdop><extensions><gom:speed>1.236</gom:speed></extensions></trkpt>
   <trkpt lat="59.3190467891" lon="34.6636468578"><ele>163.259</ele><time>2026-08-16T13:12:29.113Z</time><hdop>3.0</hdop><vdop>2.5</vdop><extensions><gom:speed>1.238</gom:speed></extensions></trkpt>
   <trkpt lat="59.3190435621" lon="34.6636362966"><ele>163.36</ele><time>2026-08-16T13:12:29.574Z</time><hdop>3.0</hdop><vdop>2.5</vdop><extensions><gom:speed>1.267</gom:speed></extensions></trkpt>
   <trkpt lat="59.3190395807" lon="34.663624059"><ele>163.485</ele><time>2026-08-16T13:12:30.138Z</time><hdop>3.0</hdop><vdop>2.5</vdop><extensions><gom:speed>1.272</gom:speed></extensions></trkpt>
   <trkpt lat="59.3190349706" lon="34.6636108995"><ele>163.559</ele><time>2026-08-16T13:12:30.733Z</time><hdop>3.0</hdop><vdop>2.5</vdop><extensions><gom:speed>1.268</gom:speed></extensions></trkpt>
   <trkpt lat="59.3190321627" lon="34.6635970693"><ele>163.707</ele><time>2026-08-16T13:12:31.352Z</time><hdop>3.0</hdop><vdop>2.5</vdop><extensions><gom:speed>1.229</gom:speed></extensions></trkpt>
   <trkpt lat="59.3190294805" lon="34.6635866758"><ele>163.795</ele><time>2026-08-16T13:12:31.833Z</time><hdop>3.0</hdop><vdop>2.5</vdop><extensions><gom:speed>1.221</gom:speed></extensions></trkpt>
   <trkpt lat="59.3190256667" lon="34.6635743544"><ele>163.79</ele><time>2026-08-16T13:12:32.451Z</time><hdop>3.0</hdop><vdop>2.5</vdop><extensions><gom:speed>1.211</gom:speed></extensions></trkpt>
   <trkpt lat="59.319022272" lon="34.6635644637"><ele>163.787</ele><time>2026-08-16T13:12:32.952Z</time><hdop>3.0</hdop><vdop>2.5</vdop><extensions><gom:speed>1.219</gom:speed></extensions></trkpt>
   <trkpt lat="59.3190167819" lon="34.6635507174"><ele>163.881</ele><time>2026-08-16T13:12:33.668Z</time><hdop>3.0</hdop><vdop>2.5</vdop><extensions><gom:speed>1.214</gom:speed></extensions></trkpt>
   <trkpt lat="59.3190125909" lon="34.6635431737"><ele>163.817</ele><time>2026-08-16T13:12:34.138Z</time><hdop>3.0</hdop><vdop>2.5</vdop><extensions><gom:speed>1.19</gom:speed></extensions></trkpt>
   <trkpt lat="59.3190075618" lon="34.6635327801"><ele>163.779</ele><time>2026-08-16T13:12:34.729Z</time><hdop>3.0</hdop><vdop>2.5</vdop><extensions><gom:speed>1.193</gom:speed></extensions></trkpt>
   <trkpt lat="59.3190024907" lon="34.6635247335"><ele>163.835</ele><time>2026-08-16T13:12:35.268Z</time><hdop>3.0</hdop><vdop>2.5</vdop><extensions><gom:speed>1.182</gom:speed></extensions></trkpt>
   <trkpt lat="59.3189981741" lon="34.6635158487"><ele>163.868</ele><time>2026-08-16T13:12:35.808Z</time><hdop>3.0</hdop><vdop>2.5</vdop><extensions><gom:speed>1.188</gom:speed></extensions></trkpt>
   <trkpt lat="59.3189926839" lon="34.6635063771"><ele>164.012</ele><time>2026-08-16T13:12:36.496Z</time><hdop>3.0</hdop><vdop>2.5</vdop><extensions><gom:speed>1.159</gom:speed></extensions></trkpt>
   <trkpt lat="59.3189882834" lon="34.6634964865"><ele>164.098</ele><time>2026-08-16T13:12:37.075Z</time><hdop>3.0</hdop><vdop>2.5</vdop><extensions><gom:speed>1.143</gom:speed></extensions></trkpt>
   <trkpt lat="59.3189839667" lon="34.6634899486"><ele>164.132</ele><time>2026-08-16T13:12:37.535Z</time><hdop>3.0</hdop><vdop>2.5</vdop><extensions><gom:speed>1.153</gom:speed></extensions></trkpt>
   <trkpt lat="59.3189791891" lon="34.6634806447"><ele>164.152</ele><time>2026-08-16T13:12:38.096Z</time><hdop>3.0</hdop><vdop>2.5</vdop><extensions><gom:speed>1.139</gom:speed></extensions></trkpt>
   <trkpt lat="59.3189729864" lon="34.6634729333"><ele>164.177</ele><time>2026-08-16T13:12:38.675Z</time><hdop>3.0</hdop><vdop>2.5</vdop><extensions><gom:speed>1.154</gom:speed></extensions></trkpt>
   <trkpt lat="59.3189683764" lon="34.6634675689"><ele>164.057</ele><time>2026-08-16T13:12:39.138Z</time><hdop>3.0</hdop><vdop>2.5</vdop><extensions><gom:speed>1.139</gom:speed></extensions></trkpt>
   <trkpt lat="59.3189618804" lon="34.6634594385"><ele>163.984</ele><time>2026-08-16T13:12:39.814Z</time><hdop>3.0</hdop><vdop>2.5</vdop><extensions><gom:speed>1.153</gom:speed></extensions></trkpt>
   <trkpt lat="59.3189560969" lon="34.6634502184"><ele>163.947</ele><time>2026-08-16T13:12:40.413Z</time><hdop>3.0</hdop><vdop>2.5</vdop><extensions><gom:speed>1.206</gom:speed></extensions></trkpt>
   <trkpt lat="59.3189516964" lon="34.6634431776"><ele>163.924</ele><time>2026-08-16T13:12:40.894Z</time><hdop>3.0</hdop><vdop>2.5</vdop><extensions><gom:speed>1.207</gom:speed></extensions></trkpt>
   <trkpt lat="59.3189412609" lon="34.6634278387"><ele>163.974</ele><time>2026-08-16T13:12:41.973Z</time><hdop>3.0</hdop><vdop>2.5</vdop><extensions><gom:speed>1.246</gom:speed></extensions></trkpt>
   <trkpt lat="59.3189345973" lon="34.663417529"><ele>164.093</ele><time>2026-08-16T13:12:42.651Z</time><hdop>3.0</hdop><vdop>2.5</vdop><extensions><gom:speed>1.25</gom:speed></extensions></trkpt>
   <trkpt lat="59.3189301968" lon="34.663408225"><ele>164.163</ele><time>2026-08-16T13:12:43.131Z</time><hdop>3.0</hdop><vdop>2.5</vdop><extensions><gom:speed>1.299</gom:speed></extensions></trkpt>
   <trkpt lat="59.3189247905" lon="34.66339758"><ele>164.129</ele><time>2026-08-16T13:12:43.731Z</time><hdop>3.0</hdop><vdop>2.5</vdop><extensions><gom:speed>1.293</gom:speed></extensions></trkpt>
   <trkpt lat="59.3189205996" lon="34.6633908745"><ele>164.069</ele><time>2026-08-16T13:12:44.192Z</time><hdop>3.0</hdop><vdop>2.5</vdop><extensions><gom:speed>1.292</gom:speed></extensions></trkpt>
   <trkpt lat="59.3189144808" lon="34.6633810677"><ele>164.033</ele><time>2026-08-16T13:12:44.830Z</time><hdop>3.0</hdop><vdop>2.5</vdop><extensions><gom:speed>1.285</gom:speed></extensions></trkpt>
   <trkpt lat="59.3189098707" lon="34.6633746974"><ele>164.092</ele><time>2026-08-16T13:12:45.311Z</time><hdop>3.0</hdop><vdop>2.5</vdop><extensions><gom:speed>1.335</gom:speed></extensions></trkpt>
   <trkpt lat="59.3189044644" lon="34.663365645"><ele>164.127</ele><time>2026-08-16T13:12:45.851Z</time><hdop>3.0</hdop><vdop>2.5</vdop><extensions><gom:speed>1.337</gom:speed></extensions></trkpt>
   <trkpt lat="59.3189011954" lon="34.6633557543"><ele>164.228</ele><time>2026-08-16T13:12:46.332Z</time><hdop>3.0</hdop><vdop>2.5</vdop><extensions><gom:speed>1.322</gom:speed></extensions></trkpt>
   <trkpt lat="59.3188967949" lon="34.6633395773"><ele>164.319</ele><time>2026-08-16T13:12:47.138Z</time><hdop>3.0</hdop><vdop>2.5</vdop><extensions><gom:speed>1.246</gom:speed></extensions></trkpt>
   <trkpt lat="59.3188952862" lon="34.6633170299"><ele>164.373</ele><time>2026-08-16T13:12:48.089Z</time><hdop>3.0</hdop><vdop>2.5</vdop><extensions><gom:speed>1.224</gom:speed></extensions></trkpt>
   <trkpt lat="59.3188938613" lon="34.6633065526"><ele>164.451</ele><time>2026-08-16T13:12:48.570Z</time><hdop>3.0</hdop><vdop>2.5</vdop><extensions><gom:speed>1.216</gom:speed></extensions></trkpt>
   <trkpt lat="59.3188908857" lon="34.6632948179"><ele>164.446</ele><time>2026-08-16T13:12:49.138Z</time><hdop>3.0</hdop><vdop>2.5</vdop><extensions><gom:speed>1.221</gom:speed></extensions></trkpt>
   <trkpt lat="59.3188873653" lon="34.6632833347"><ele>164.443</ele><time>2026-08-16T13:12:49.689Z</time><hdop>3.0</hdop><vdop>2.5</vdop><extensions><gom:speed>1.22</gom:speed></extensions></trkpt>
   <trkpt lat="59.3188827972" lon="34.6632713486"><ele>164.444</ele><time>2026-08-16T13:12:50.327Z</time><hdop>3.0</hdop><vdop>2.5</vdop><extensions><gom:speed>1.201</gom:speed></extensions></trkpt>
   <trkpt lat="59.3188799892" lon="34.6632613741"><ele>164.444</ele><time>2026-08-16T13:12:50.808Z</time><hdop>3.0</hdop><vdop>2.5</vdop><extensions><gom:speed>1.202</gom:speed></extensions></trkpt>
   <trkpt lat="59.3188739962" lon="34.6632502262"><ele>164.483</ele><time>2026-08-16T13:12:51.476Z</time><hdop>3.0</hdop><vdop>2.5</vdop><extensions><gom:speed>1.184</gom:speed></extensions></trkpt>
   <trkpt lat="59.3188705596" lon="34.6632418443"><ele>164.506</ele><time>2026-08-16T13:12:51.928Z</time><hdop>3.0</hdop><vdop>2.5</vdop><extensions><gom:speed>1.184</gom:speed></extensions></trkpt>
   <trkpt lat="59.318863896" lon="34.6632346358"><ele>164.538</ele><time>2026-08-16T13:12:52.575Z</time><hdop>3.0</hdop><vdop>2.5</vdop><extensions><gom:speed>1.195</gom:speed></extensions></trkpt>
   <trkpt lat="59.3188584897" lon="34.6632296905"><ele>164.557</ele><time>2026-08-16T13:12:53.096Z</time><hdop>3.0</hdop><vdop>2.5</vdop><extensions><gom:speed>1.166</gom:speed></extensions></trkpt>
   <trkpt lat="59.3188509878" lon="34.6632267568"><ele>164.522</ele><time>2026-08-16T13:12:53.695Z</time><hdop>3.0</hdop><vdop>2.5</vdop><extensions><gom:speed>1.191</gom:speed></extensions></trkpt>
   <trkpt lat="59.3188455815" lon="34.6632186264"><ele>164.46</ele><time>2026-08-16T13:12:54.352Z</time><hdop>3.0</hdop><vdop>2.5</vdop><extensions><gom:speed>1.149</gom:speed></extensions></trkpt>
   <trkpt lat="59.3188422707" lon="34.6632108312"><ele>164.423</ele><time>2026-08-16T13:12:54.815Z</time><hdop>3.0</hdop><vdop>2.5</vdop><extensions><gom:speed>1.152</gom:speed></extensions></trkpt>
   <trkpt lat="59.3188404686" lon="34.6632015273"><ele>164.316</ele><time>2026-08-16T13:12:55.276Z</time><hdop>3.0</hdop><vdop>2.5</vdop><extensions><gom:speed>1.132</gom:speed></extensions></trkpt>
   <trkpt lat="59.3188372834" lon="34.663187781"><ele>164.252</ele><time>2026-08-16T13:12:55.993Z</time><hdop>3.0</hdop><vdop>2.5</vdop><extensions><gom:speed>1.109</gom:speed></extensions></trkpt>
   <trkpt lat="59.3188358585" lon="34.6631777227"><ele>164.12</ele><time>2026-08-16T13:12:56.494Z</time><hdop>3.0</hdop><vdop>2.5</vdop><extensions><gom:speed>1.108</gom:speed></extensions></trkpt>
   <trkpt lat="59.3188339726" lon="34.6631686702"><ele>164.042</ele><time>2026-08-16T13:12:56.975Z</time><hdop>3.0</hdop><vdop>2.5</vdop><extensions><gom:speed>1.092</gom:speed></extensions></trkpt>
   <trkpt lat="59.3188301588" lon="34.6631572709"><ele>164.034</ele><time>2026-08-16T13:12:57.632Z</time><hdop>3.0</hdop><vdop>2.5</vdop><extensions><gom:speed>1.123</gom:speed></extensions></trkpt>
   <trkpt lat="59.3188267641" lon="34.6631486375"><ele>163.942</ele><time>2026-08-16T13:12:58.138Z</time><hdop>3.0</hdop><vdop>2.5</vdop><extensions><gom:speed>1.143</gom:speed></extensions></trkpt>
   <trkpt lat="59.3188234952" lon="34.6631360646"><ele>163.887</ele><time>2026-08-16T13:12:58.751Z</time><hdop>3.0</hdop><vdop>2.5</vdop><extensions><gom:speed>1.145</gom:speed></extensions></trkpt>
   <trkpt lat="59.3188190947" lon="34.6631241623"><ele>163.794</ele><time>2026-08-16T13:12:59.350Z</time><hdop>3.0</hdop><vdop>2.5</vdop><extensions><gom:speed>1.139</gom:speed></extensions></trkpt>
   <trkpt lat="59.3188159934" lon="34.6631144393"><ele>163.738</ele><time>2026-08-16T13:12:59.851Z</time><hdop>3.0</hdop><vdop>2.5</vdop><extensions><gom:speed>1.14</gom:speed></extensions></trkpt>
   <trkpt lat="59.3188088688" lon="34.6631030399"><ele>163.579</ele><time>2026-08-16T13:13:00.509Z</time><hdop>3.0</hdop><vdop>2.5</vdop><extensions><gom:speed>1.155</gom:speed></extensions></trkpt>
   <trkpt lat="59.3188023728" lon="34.6630923949"><ele>163.671</ele><time>2026-08-16T13:13:01.138Z</time><hdop>3.0</hdop><vdop>2.5</vdop><extensions><gom:speed>1.162</gom:speed></extensions></trkpt>
   <trkpt lat="59.3187927755" lon="34.663076637"><ele>163.844</ele><time>2026-08-16T13:13:02.138Z</time><hdop>3.0</hdop><vdop>2.5</vdop><extensions><gom:speed>1.152</gom:speed></extensions></trkpt>
   <trkpt lat="59.3187873692" lon="34.6630651537"><ele>163.948</ele><time>2026-08-16T13:13:02.796Z</time><hdop>3.0</hdop><vdop>2.5</vdop><extensions><gom:speed>1.151</gom:speed></extensions></trkpt>
   <trkpt lat="59.3187838907" lon="34.6630567718"><ele>164.128</ele><time>2026-08-16T13:13:03.267Z</time><hdop>3.0</hdop><vdop>2.5</vdop><extensions><gom:speed>1.144</gom:speed></extensions></trkpt>
   <trkpt lat="59.3187786939" lon="34.6630439475"><ele>164.236</ele><time>2026-08-16T13:13:03.993Z</time><hdop>3.0</hdop><vdop>2.5</vdop><extensions><gom:speed>1.123</gom:speed></extensions></trkpt>
   <trkpt lat="59.3187687614" lon="34.6630276866"><ele>164.42</ele><time>2026-08-16T13:13:05.132Z</time><hdop>3.0</hdop><vdop>2.5</vdop><extensions><gom:speed>1.128</gom:speed></extensions></trkpt>
   <trkpt lat="59.3187634808" lon="34.6630210649"><ele>164.491</ele><time>2026-08-16T13:13:05.653Z</time><hdop>3.0</hdop><vdop>2.5</vdop><extensions><gom:speed>1.152</gom:speed></extensions></trkpt>
   <trkpt lat="59.3187588707" lon="34.663014527"><ele>164.47</ele><time>2026-08-16T13:13:06.138Z</time><hdop>3.0</hdop><vdop>2.5</vdop><extensions><gom:speed>1.168</gom:speed></extensions></trkpt>
   <trkpt lat="59.3187532968" lon="34.663006229"><ele>164.457</ele><time>2026-08-16T13:13:06.732Z</time><hdop>3.0</hdop><vdop>2.5</vdop><extensions><gom:speed>1.17</gom:speed></extensions></trkpt>
   <trkpt lat="59.3187427775" lon="34.6629870344"><ele>164.304</ele><time>2026-08-16T13:13:07.910Z</time><hdop>3.0</hdop><vdop>2.5</vdop><extensions><gom:speed>1.214</gom:speed></extensions></trkpt>
   <trkpt lat="59.3187347728" lon="34.6629681751"><ele>164.23</ele><time>2026-08-16T13:13:08.950Z</time><hdop>3.0</hdop><vdop>2.5</vdop><extensions><gom:speed>1.216</gom:speed></extensions></trkpt>
   <trkpt lat="59.3187300789" lon="34.6629568596"><ele>164.182</ele><time>2026-08-16T13:13:09.609Z</time><hdop>3.0</hdop><vdop>2.5</vdop><extensions><gom:speed>1.221</gom:speed></extensions></trkpt>
   <trkpt lat="59.3187264747" lon="34.6629478909"><ele>164.153</ele><time>2026-08-16T13:13:10.109Z</time><hdop>3.0</hdop><vdop>2.5</vdop><extensions><gom:speed>1.219</gom:speed></extensions></trkpt>
   <trkpt lat="59.318719392" lon="34.6629311271"><ele>164.074</ele><time>2026-08-16T13:13:11.138Z</time><hdop>3.0</hdop><vdop>2.5</vdop><extensions><gom:speed>1.237</gom:speed></extensions></trkpt>
   <trkpt lat="59.318710591" lon="34.662914028"><ele>164.095</ele><time>2026-08-16T13:13:12.138Z</time><hdop>3.0</hdop><vdop>2.5</vdop><extensions><gom:speed>1.289</gom:speed></extensions></trkpt>
   <trkpt lat="59.3187025863" lon="34.6628977671"><ele>164.107</ele><time>2026-08-16T13:13:12.976Z</time><hdop>3.0</hdop><vdop>2.5</vdop><extensions><gom:speed>1.329</gom:speed></extensions></trkpt>
   <trkpt lat="59.3186936595" lon="34.662881171"><ele>164.121</ele><time>2026-08-16T13:13:14.016Z</time><hdop>3.0</hdop><vdop>2.5</vdop><extensions><gom:speed>1.352</gom:speed></extensions></trkpt>
   <trkpt lat="59.3186896781" lon="34.6628748845"><ele>164.089</ele><time>2026-08-16T13:13:14.487Z</time><hdop>3.0</hdop><vdop>2.5</vdop><extensions><gom:speed>1.342</gom:speed></extensions></trkpt>
   <trkpt lat="59.3186827631" lon="34.6628649939"><ele>164.07</ele><time>2026-08-16T13:13:15.135Z</time><hdop>3.0</hdop><vdop>2.5</vdop><extensions><gom:speed>1.353</gom:speed></extensions></trkpt>
   <trkpt lat="59.3186759737" lon="34.6628474757"><ele>164.138</ele><time>2026-08-16T13:13:16.138Z</time><hdop>3.0</hdop><vdop>2.5</vdop><extensions><gom:speed>1.336</gom:speed></extensions></trkpt>
   <trkpt lat="59.3186719923" lon="34.6628378365"><ele>164.178</ele><time>2026-08-16T13:13:16.647Z</time><hdop>3.0</hdop><vdop>2.5</vdop><extensions><gom:speed>1.34</gom:speed></extensions></trkpt>
   <trkpt lat="59.3186689748" lon="34.6628282812"><ele>164.121</ele><time>2026-08-16T13:13:17.138Z</time><hdop>3.0</hdop><vdop>2.5</vdop><extensions><gom:speed>1.313</gom:speed></extensions></trkpt>
   <trkpt lat="59.3186638619" lon="34.662816295"><ele>164.087</ele><time>2026-08-16T13:13:17.776Z</time><hdop>3.0</hdop><vdop>2.5</vdop><extensions><gom:speed>1.308</gom:speed></extensions></trkpt>
   <trkpt lat="59.3186594614" lon="34.6628045604"><ele>164.167</ele><time>2026-08-16T13:13:18.414Z</time><hdop>3.0</hdop><vdop>2.5</vdop><extensions><gom:speed>1.295</gom:speed></extensions></trkpt>
   <trkpt lat="59.3186555638" lon="34.6627952565"><ele>164.215</ele><time>2026-08-16T13:13:18.895Z</time><hdop>3.0</hdop><vdop>2.5</vdop><extensions><gom:speed>1.298</gom:speed></extensions></trkpt>
   <trkpt lat="59.3186516662" lon="34.6627830189"><ele>164.288</ele><time>2026-08-16T13:13:19.553Z</time><hdop>3.0</hdop><vdop>2.5</vdop><extensions><gom:speed>1.302</gom:speed></extensions></trkpt>
   <trkpt lat="59.3186477686" lon="34.662770446"><ele>164.294</ele><time>2026-08-16T13:13:20.138Z</time><hdop>3.0</hdop><vdop>2.5</vdop><extensions><gom:speed>1.299</gom:speed></extensions></trkpt>
   <trkpt lat="59.318644793" lon="34.6627610583"><ele>164.298</ele><time>2026-08-16T13:13:20.592Z</time><hdop>3.0</hdop><vdop>2.5</vdop><extensions><gom:speed>1.299</gom:speed></extensions></trkpt>
   <trkpt lat="59.318641566" lon="34.6627505809"><ele>164.3</ele><time>2026-08-16T13:13:21.054Z</time><hdop>3.0</hdop><vdop>2.5</vdop><extensions><gom:speed>1.319</gom:speed></extensions></trkpt>
   <trkpt lat="59.3186379618" lon="34.6627379242"><ele>164.291</ele><time>2026-08-16T13:13:21.634Z</time><hdop>3.0</hdop><vdop>2.5</vdop><extensions><gom:speed>1.32</gom:speed></extensions></trkpt>
   <trkpt lat="59.3186352796" lon="34.6627276983"><ele>164.233</ele><time>2026-08-16T13:13:22.138Z</time><hdop>3.0</hdop><vdop>2.5</vdop><extensions><gom:speed>1.31</gom:speed></extensions></trkpt>
   <trkpt lat="59.3186307953" lon="34.6627118565"><ele>164.198</ele><time>2026-08-16T13:13:22.851Z</time><hdop>3.0</hdop><vdop>2.5</vdop><extensions><gom:speed>1.31</gom:speed></extensions></trkpt>
   <trkpt lat="59.3186274844" lon="34.6627034746"><ele>164.127</ele><time>2026-08-16T13:13:23.332Z</time><hdop>3.0</hdop><vdop>2.5</vdop><extensions><gom:speed>1.303</gom:speed></extensions></trkpt>
   <trkpt lat="59.3186230839" lon="34.6626892254"><ele>164.085</ele><time>2026-08-16T13:13:23.990Z</time><hdop>3.0</hdop><vdop>2.5</vdop><extensions><gom:speed>1.3</gom:speed></extensions></trkpt>
   <trkpt lat="59.3186148696" lon="34.6626691926"><ele>164.044</ele><time>2026-08-16T13:13:25.050Z</time><hdop>3.0</hdop><vdop>2.5</vdop><extensions><gom:speed>1.32</gom:speed></extensions></trkpt>
   <trkpt lat="59.3186061944" lon="34.6626516745"><ele>163.884</ele><time>2026-08-16T13:13:26.138Z</time><hdop>3.0</hdop><vdop>2.5</vdop><extensions><gom:speed>1.337</gom:speed></extensions></trkpt>
   <trkpt lat="59.3185987764" lon="34.6626305521"><ele>163.789</ele><time>2026-08-16T13:13:27.131Z</time><hdop>3.0</hdop><vdop>2.5</vdop><extensions><gom:speed>1.337</gom:speed></extensions></trkpt>
   <trkpt lat="59.3185876704" lon="34.6626161352"><ele>163.803</ele><time>2026-08-16T13:13:28.138Z</time><hdop>3.0</hdop><vdop>2.5</vdop><extensions><gom:speed>1.298</gom:speed></extensions></trkpt>
   <trkpt lat="59.3185821802" lon="34.6626065798"><ele>163.811</ele><time>2026-08-16T13:13:28.692Z</time><hdop>3.0</hdop><vdop>2.5</vdop><extensions><gom:speed>1.294</gom:speed></extensions></trkpt>
   <trkpt lat="59.3185702779" lon="34.6625909895"><ele>163.798</ele><time>2026-08-16T13:13:29.850Z</time><hdop>3.0</hdop><vdop>2.5</vdop><extensions><gom:speed>1.242</gom:speed></extensions></trkpt>
   <trkpt lat="59.3185645782" lon="34.6625789195"><ele>163.892</ele><time>2026-08-16T13:13:30.508Z</time><hdop>3.0</hdop><vdop>2.5</vdop><extensions><gom:speed>1.27</gom:speed></extensions></trkpt>
   <trkpt lat="59.3185590881" lon="34.6625668496"><ele>164.002</ele><time>2026-08-16T13:13:31.138Z</time><hdop>3.0</hdop><vdop>2.5</vdop><extensions><gom:speed>1.295</gom:speed></extensions></trkpt>
   <trkpt lat="59.3185518796" lon="34.662547655"><ele>164.068</ele><time>2026-08-16T13:13:32.049Z</time><hdop>3.0</hdop><vdop>2.5</vdop><extensions><gom:speed>1.312</gom:speed></extensions></trkpt>
   <trkpt lat="59.31854706" lon="34.6625343278"><ele>164.179</ele><time>2026-08-16T13:13:32.648Z</time><hdop>3.0</hdop><vdop>2.5</vdop><extensions><gom:speed>1.329</gom:speed></extensions></trkpt>
   <trkpt lat="59.3185436654" lon="34.6625227608"><ele>164.246</ele><time>2026-08-16T13:13:33.129Z</time><hdop>3.0</hdop><vdop>2.5</vdop><extensions><gom:speed>1.329</gom:speed></extensions></trkpt>
   <trkpt lat="59.3185388877" lon="34.6625093497"><ele>164.35</ele><time>2026-08-16T13:13:33.748Z</time><hdop>3.0</hdop><vdop>2.5</vdop><extensions><gom:speed>1.334</gom:speed></extensions></trkpt>
   <trkpt lat="59.3185362893" lon="34.6624996267"><ele>164.357</ele><time>2026-08-16T13:13:34.209Z</time><hdop>3.0</hdop><vdop>2.5</vdop><extensions><gom:speed>1.284</gom:speed></extensions></trkpt>
   <trkpt lat="59.3185333975" lon="34.6624845393"><ele>164.361</ele><time>2026-08-16T13:13:34.868Z</time><hdop>3.0</hdop><vdop>2.5</vdop><extensions><gom:speed>1.287</gom:speed></extensions></trkpt>
   <trkpt lat="59.3185312602" lon="34.6624749839"><ele>164.384</ele><time>2026-08-16T13:13:35.329Z</time><hdop>3.0</hdop><vdop>2.5</vdop><extensions><gom:speed>1.299</gom:speed></extensions></trkpt>
   <trkpt lat="59.3185282846" lon="34.6624600642"><ele>164.397</ele><time>2026-08-16T13:13:35.966Z</time><hdop>3.0</hdop><vdop>2.5</vdop><extensions><gom:speed>1.296</gom:speed></extensions></trkpt>
   <trkpt lat="59.3185248899" lon="34.6624510955"><ele>164.479</ele><time>2026-08-16T13:13:36.448Z</time><hdop>3.0</hdop><vdop>2.5</vdop><extensions><gom:speed>1.3</gom:speed></extensions></trkpt>
   <trkpt lat="59.3185214952" lon="34.6624375168"><ele>164.596</ele><time>2026-08-16T13:13:37.138Z</time><hdop>3.0</hdop><vdop>2.5</vdop><extensions><gom:speed>1.271</gom:speed></extensions></trkpt>
   <trkpt lat="59.3185166756" lon="34.662417065"><ele>164.544</ele><time>2026-08-16T13:13:38.138Z</time><hdop>3.0</hdop><vdop>2.5</vdop><extensions><gom:speed>1.252</gom:speed></extensions></trkpt>
   <trkpt lat="59.3185138677" lon="34.6624058332"><ele>164.513</ele><time>2026-08-16T13:13:38.667Z</time><hdop>3.0</hdop><vdop>2.5</vdop><extensions><gom:speed>1.25</gom:speed></extensions></trkpt>
   <trkpt lat="59.3185103892" lon="34.6623968646"><ele>164.499</ele><time>2026-08-16T13:13:39.137Z</time><hdop>3.0</hdop><vdop>2.5</vdop><extensions><gom:speed>1.25</gom:speed></extensions></trkpt>
   <trkpt lat="59.3185059887" lon="34.6623843756"><ele>164.49</ele><time>2026-08-16T13:13:39.747Z</time><hdop>3.0</hdop><vdop>2.5</vdop><extensions><gom:speed>1.249</gom:speed></extensions></trkpt>
   <trkpt lat="59.3184961819" lon="34.6623636723"><ele>164.526</ele><time>2026-08-16T13:13:40.914Z</time><hdop>3.0</hdop><vdop>2.5</vdop><extensions><gom:speed>1.24</gom:speed></extensions></trkpt>
   <trkpt lat="59.3184873809" lon="34.6623423822"><ele>164.608</ele><time>2026-08-16T13:13:42.014Z</time><hdop>3.0</hdop><vdop>2.5</vdop><extensions><gom:speed>1.283</gom:speed></extensions></trkpt>
   <trkpt lat="59.318482687" lon="34.6623278815"><ele>164.556</ele><time>2026-08-16T13:13:42.711Z</time><hdop>3.0</hdop><vdop>2.5</vdop><extensions><gom:speed>1.301</gom:speed></extensions></trkpt>
   <trkpt lat="59.3184797953" lon="34.6623177394"><ele>164.579</ele><time>2026-08-16T13:13:43.173Z</time><hdop>3.0</hdop><vdop>2.5</vdop><extensions><gom:speed>1.309</gom:speed></extensions></trkpt>
   <trkpt lat="59.3184731736" lon="34.6622973714"><ele>164.504</ele><time>2026-08-16T13:13:44.138Z</time><hdop>3.0</hdop><vdop>2.5</vdop><extensions><gom:speed>1.317</gom:speed></extensions></trkpt>
   <trkpt lat="59.3184674739" lon="34.6622811943"><ele>164.459</ele><time>2026-08-16T13:13:44.891Z</time><hdop>3.0</hdop><vdop>2.5</vdop><extensions><gom:speed>1.309</gom:speed></extensions></trkpt>
   <trkpt lat="59.3184644983" lon="34.6622698788"><ele>164.469</ele><time>2026-08-16T13:13:45.371Z</time><hdop>3.0</hdop><vdop>2.5</vdop><extensions><gom:speed>1.335</gom:speed></extensions></trkpt>
   <trkpt lat="59.3184608941" lon="34.6622528635"><ele>164.464</ele><time>2026-08-16T13:13:46.138Z</time><hdop>3.0</hdop><vdop>2.5</vdop><extensions><gom:speed>1.325</gom:speed></extensions></trkpt>
   <trkpt lat="59.3184563678" lon="34.6622306515"><ele>164.391</ele><time>2026-08-16T13:13:47.138Z</time><hdop>3.0</hdop><vdop>2.5</vdop><extensions><gom:speed>1.324</gom:speed></extensions></trkpt>
   <trkpt lat="59.3184530989" lon="34.6622063439"><ele>164.347</ele><time>2026-08-16T13:13:48.130Z</time><hdop>3.0</hdop><vdop>2.5</vdop><extensions><gom:speed>1.325</gom:speed></extensions></trkpt>
   <trkpt lat="59.3184517997" lon="34.6621967886"><ele>164.273</ele><time>2026-08-16T13:13:48.591Z</time><hdop>3.0</hdop><vdop>2.5</vdop><extensions><gom:speed>1.318</gom:speed></extensions></trkpt>
   <trkpt lat="59.3184501652" lon="34.6621862274"><ele>164.145</ele><time>2026-08-16T13:13:49.138Z</time><hdop>3.0</hdop><vdop>2.5</vdop><extensions><gom:speed>1.301</gom:speed></extensions></trkpt>
   <trkpt lat="59.3184491594" lon="34.6621718943"><ele>164.068</ele><time>2026-08-16T13:13:49.750Z</time><hdop>3.0</hdop><vdop>2.5</vdop><extensions><gom:speed>1.292</gom:speed></extensions></trkpt>
   <trkpt lat="59.3184479859" lon="34.6621589862"><ele>164.028</ele><time>2026-08-16T13:13:50.388Z</time><hdop>3.0</hdop><vdop>2.5</vdop><extensions><gom:speed>1.301</gom:speed></extensions></trkpt>
   <trkpt lat="59.3184461838" lon="34.6621474192"><ele>164.004</ele><time>2026-08-16T13:13:50.869Z</time><hdop>3.0</hdop><vdop>2.5</vdop><extensions><gom:speed>1.298</gom:speed></extensions></trkpt>
   <trkpt lat="59.3184407775" lon="34.662123866"><ele>164.101</ele><time>2026-08-16T13:13:51.988Z</time><hdop>3.0</hdop><vdop>2.5</vdop><extensions><gom:speed>1.299</gom:speed></extensions></trkpt>
   <trkpt lat="59.3184380953" lon="34.6621102873"><ele>164.194</ele><time>2026-08-16T13:13:52.636Z</time><hdop>3.0</hdop><vdop>2.5</vdop><extensions><gom:speed>1.304</gom:speed></extensions></trkpt>
   <trkpt lat="59.3184359998" lon="34.6620994747"><ele>164.147</ele><time>2026-08-16T13:13:53.138Z</time><hdop>3.0</hdop><vdop>2.5</vdop><extensions><gom:speed>1.284</gom:speed></extensions></trkpt>
   <trkpt lat="59.3184343654" lon="34.6620863989"><ele>164.119</ele><time>2026-08-16T13:13:53.735Z</time><hdop>3.0</hdop><vdop>2.5</vdop><extensions><gom:speed>1.281</gom:speed></extensions></trkpt>
   <trkpt lat="59.3184319765" lon="34.6620763406"><ele>164.088</ele><time>2026-08-16T13:13:54.236Z</time><hdop>3.0</hdop><vdop>2.5</vdop><extensions><gom:speed>1.34</gom:speed></extensions></trkpt>
   <trkpt lat="59.3184294619" lon="34.6620625943"><ele>164.07</ele><time>2026-08-16T13:13:54.815Z</time><hdop>3.0</hdop><vdop>2.5</vdop><extensions><gom:speed>1.348</gom:speed></extensions></trkpt>
   <trkpt lat="59.3184254805" lon="34.6620519493"><ele>164.038</ele><time>2026-08-16T13:13:55.335Z</time><hdop>3.0</hdop><vdop>2.5</vdop><extensions><gom:speed>1.355</gom:speed></extensions></trkpt>
   <trkpt lat="59.3184215829" lon="34.6620377839"><ele>164.019</ele><time>2026-08-16T13:13:55.934Z</time><hdop>3.0</hdop><vdop>2.5</vdop><extensions><gom:speed>1.355</gom:speed></extensions></trkpt>
   <trkpt lat="59.3184189846" lon="34.6620285638"><ele>163.969</ele><time>2026-08-16T13:13:56.396Z</time><hdop>3.0</hdop><vdop>2.5</vdop><extensions><gom:speed>1.35</gom:speed></extensions></trkpt>
   <trkpt lat="59.3184157994" lon="34.6620124705"><ele>163.939</ele><time>2026-08-16T13:13:57.034Z</time><hdop>3.0</hdop><vdop>2.5</vdop><extensions><gom:speed>1.331</gom:speed></extensions></trkpt>
   <trkpt lat="59.3184135782" lon="34.6620032504"><ele>163.92</ele><time>2026-08-16T13:13:57.534Z</time><hdop>3.0</hdop><vdop>2.5</vdop><extensions><gom:speed>1.322</gom:speed></extensions></trkpt>
   <trkpt lat="59.3184111894" lon="34.6619916834"><ele>163.887</ele><time>2026-08-16T13:13:58.138Z</time><hdop>3.0</hdop><vdop>2.5</vdop><extensions><gom:speed>1.297</gom:speed></extensions></trkpt>
   <trkpt lat="59.3184089682" lon="34.6619817928"><ele>163.868</ele><time>2026-08-16T13:13:58.594Z</time><hdop>3.0</hdop><vdop>2.5</vdop><extensions><gom:speed>1.307</gom:speed></extensions></trkpt>
   <trkpt lat="59.3184067889" lon="34.6619709801"><ele>163.73</ele><time>2026-08-16T13:13:59.138Z</time><hdop>3.0</hdop><vdop>2.5</vdop><extensions><gom:speed>1.286</gom:speed></extensions></trkpt>
   <trkpt lat="59.3184051963" lon="34.6619573176"><ele>163.647</ele><time>2026-08-16T13:13:59.733Z</time><hdop>3.0</hdop><vdop>2.5</vdop><extensions><gom:speed>1.291</gom:speed></extensions></trkpt>
   <trkpt lat="59.3184030589" lon="34.6619458344"><ele>163.633</ele><time>2026-08-16T13:14:00.332Z</time><hdop>3.0</hdop><vdop>2.5</vdop><extensions><gom:speed>1.275</gom:speed></extensions></trkpt>
   <trkpt lat="59.3184007958" lon="34.6619338483"><ele>163.625</ele><time>2026-08-16T13:14:00.852Z</time><hdop>3.0</hdop><vdop>2.5</vdop><extensions><gom:speed>1.274</gom:speed></extensions></trkpt>
   <trkpt lat="59.3183960601" lon="34.6619104628"><ele>163.764</ele><time>2026-08-16T13:14:01.933Z</time><hdop>3.0</hdop><vdop>2.5</vdop><extensions><gom:speed>1.271</gom:speed></extensions></trkpt>
   <trkpt lat="59.3183938808" lon="34.6618956268"><ele>163.835</ele><time>2026-08-16T13:14:02.650Z</time><hdop>3.0</hdop><vdop>2.5</vdop><extensions><gom:speed>1.261</gom:speed></extensions></trkpt>
   <trkpt lat="59.3183930845" lon="34.6618840598"><ele>163.877</ele><time>2026-08-16T13:14:03.111Z</time><hdop>3.0</hdop><vdop>2.5</vdop><extensions><gom:speed>1.262</gom:speed></extensions></trkpt>
   <trkpt lat="59.3183921625" lon="34.6618704811"><ele>163.838</ele><time>2026-08-16T13:14:03.769Z</time><hdop>3.0</hdop><vdop>2.5</vdop><extensions><gom:speed>1.263</gom:speed></extensions></trkpt>
   <trkpt lat="59.3183914919" lon="34.6618609257"><ele>163.809</ele><time>2026-08-16T13:14:04.250Z</time><hdop>3.0</hdop><vdop>2.5</vdop><extensions><gom:speed>1.269</gom:speed></extensions></trkpt>
   <trkpt lat="59.318390067" lon="34.6618417312"><ele>163.75</ele><time>2026-08-16T13:14:05.138Z</time><hdop>3.0</hdop><vdop>2.5</vdop><extensions><gom:speed>1.253</gom:speed></extensions></trkpt>
   <trkpt lat="59.3183847864" lon="34.6618217822"><ele>163.71</ele><time>2026-08-16T13:14:06.138Z</time><hdop>3.0</hdop><vdop>2.5</vdop><extensions><gom:speed>1.258</gom:speed></extensions></trkpt>
   <trkpt lat="59.3183820623" lon="34.6617986482"><ele>163.667</ele><time>2026-08-16T13:14:07.138Z</time><hdop>3.0</hdop><vdop>2.5</vdop><extensions><gom:speed>1.287</gom:speed></extensions></trkpt>
   <trkpt lat="59.3183811822" lon="34.6617856562"><ele>163.642</ele><time>2026-08-16T13:14:07.656Z</time><hdop>3.0</hdop><vdop>2.5</vdop><extensions><gom:speed>1.298</gom:speed></extensions></trkpt>
   <trkpt lat="59.3183800925" lon="34.6617748436"><ele>163.518</ele><time>2026-08-16T13:14:08.138Z</time><hdop>3.0</hdop><vdop>2.5</vdop><extensions><gom:speed>1.272</gom:speed></extensions></trkpt>
   <trkpt lat="59.3183778713" lon="34.6617600914"><ele>163.445</ele><time>2026-08-16T13:14:08.775Z</time><hdop>3.0</hdop><vdop>2.5</vdop><extensions><gom:speed>1.27</gom:speed></extensions></trkpt>
   <trkpt lat="59.3183761949" lon="34.6617382985"><ele>163.408</ele><time>2026-08-16T13:14:09.816Z</time><hdop>3.0</hdop><vdop>2.5</vdop><extensions><gom:speed>1.194</gom:speed></extensions></trkpt>
   <trkpt lat="59.3183737642" lon="34.6617138233"><ele>163.413</ele><time>2026-08-16T13:14:10.875Z</time><hdop>3.0</hdop><vdop>2.5</vdop><extensions><gom:speed>1.249</gom:speed></extensions></trkpt>
   <trkpt lat="59.3183711658" lon="34.6616867498"><ele>163.549</ele><time>2026-08-16T13:14:11.995Z</time><hdop>3.0</hdop><vdop>2.5</vdop><extensions><gom:speed>1.296</gom:speed></extensions></trkpt>
   <trkpt lat="59.318368777" lon="34.6616752666"><ele>163.542</ele><time>2026-08-16T13:14:12.554Z</time><hdop>3.0</hdop><vdop>2.5</vdop><extensions><gom:speed>1.298</gom:speed></extensions></trkpt>
   <trkpt lat="59.3183667653" lon="34.6616634481"><ele>163.491</ele><time>2026-08-16T13:14:13.138Z</time><hdop>3.0</hdop><vdop>2.5</vdop><extensions><gom:speed>1.271</gom:speed></extensions></trkpt>
   <trkpt lat="59.3183626582" lon="34.661642661"><ele>163.459</ele><time>2026-08-16T13:14:14.138Z</time><hdop>3.0</hdop><vdop>2.5</vdop><extensions><gom:speed>1.283</gom:speed></extensions></trkpt>
   <trkpt lat="59.3183597664" lon="34.6616243884"><ele>163.441</ele><time>2026-08-16T13:14:14.911Z</time><hdop>3.0</hdop><vdop>2.5</vdop><extensions><gom:speed>1.294</gom:speed></extensions></trkpt>
   <trkpt lat="59.3183573776" lon="34.6616156712"><ele>163.395</ele><time>2026-08-16T13:14:15.392Z</time><hdop>3.0</hdop><vdop>2.5</vdop><extensions><gom:speed>1.293</gom:speed></extensions></trkpt>
   <trkpt lat="59.3183551983" lon="34.6616006676"><ele>163.368</ele><time>2026-08-16T13:14:16.049Z</time><hdop>3.0</hdop><vdop>2.5</vdop><extensions><gom:speed>1.285</gom:speed></extensions></trkpt>
   <trkpt lat="59.3183545696" lon="34.6615918666"><ele>163.342</ele><time>2026-08-16T13:14:16.511Z</time><hdop>3.0</hdop><vdop>2.5</vdop><extensions><gom:speed>1.295</gom:speed></extensions></trkpt>
   <trkpt lat="59.3183538991" lon="34.6615793776"><ele>163.247</ele><time>2026-08-16T13:14:17.138Z</time><hdop>3.0</hdop><vdop>2.5</vdop><extensions><gom:speed>1.328</gom:speed></extensions></trkpt>
   <trkpt lat="59.3183529771" lon="34.6615690678"><ele>163.19</ele><time>2026-08-16T13:14:17.590Z</time><hdop>3.0</hdop><vdop>2.5</vdop><extensions><gom:speed>1.329</gom:speed></extensions></trkpt>
   <trkpt lat="59.3183525999" lon="34.6615577523"><ele>163.088</ele><time>2026-08-16T13:14:18.138Z</time><hdop>3.0</hdop><vdop>2.5</vdop><extensions><gom:speed>1.319</gom:speed></extensions></trkpt>
   <trkpt lat="59.3183510911" lon="34.6615440898"><ele>163.027</ele><time>2026-08-16T13:14:18.729Z</time><hdop>3.0</hdop><vdop>2.5</vdop><extensions><gom:speed>1.31</gom:speed></extensions></trkpt>
   <trkpt lat="59.3183502949" lon="34.6615312655"><ele>163.085</ele><time>2026-08-16T13:14:19.367Z</time><hdop>3.0</hdop><vdop>2.5</vdop><extensions><gom:speed>1.278</gom:speed></extensions></trkpt>
   <trkpt lat="59.3183489957" lon="34.661520369"><ele>163.12</ele><time>2026-08-16T13:14:19.829Z</time><hdop>3.0</hdop><vdop>2.5</vdop><extensions><gom:speed>1.266</gom:speed></extensions></trkpt>
   <trkpt lat="59.3183481994" lon="34.6614942175"><ele>163.151</ele><time>2026-08-16T13:14:20.948Z</time><hdop>3.0</hdop><vdop>2.5</vdop><extensions><gom:speed>1.276</gom:speed></extensions></trkpt>
   <trkpt lat="59.3183485766" lon="34.6614782918"><ele>163.143</ele><time>2026-08-16T13:14:21.635Z</time><hdop>3.0</hdop><vdop>2.5</vdop><extensions><gom:speed>1.294</gom:speed></extensions></trkpt>
   <trkpt lat="59.318349289" lon="34.6614660543"><ele>163.175</ele><time>2026-08-16T13:14:22.138Z</time><hdop>3.0</hdop><vdop>2.5</vdop><extensions><gom:speed>1.325</gom:speed></extensions></trkpt>
   <trkpt lat="59.3183501691" lon="34.6614425849"><ele>163.15</ele><time>2026-08-16T13:14:23.138Z</time><hdop>3.0</hdop><vdop>2.5</vdop><extensions><gom:speed>1.312</gom:speed></extensions></trkpt>
   <trkpt lat="59.3183512588" lon="34.661426324"><ele>163.135</ele><time>2026-08-16T13:14:23.794Z</time><hdop>3.0</hdop><vdop>2.5</vdop><extensions><gom:speed>1.307</gom:speed></extensions></trkpt>
   <trkpt lat="59.3183517617" lon="34.661415679"><ele>163.119</ele><time>2026-08-16T13:14:24.275Z</time><hdop>3.0</hdop><vdop>2.5</vdop><extensions><gom:speed>1.294</gom:speed></extensions></trkpt>
   <trkpt lat="59.3183525999" lon="34.6614017651"><ele>163.11</ele><time>2026-08-16T13:14:24.835Z</time><hdop>3.0</hdop><vdop>2.5</vdop><extensions><gom:speed>1.278</gom:speed></extensions></trkpt>
   <trkpt lat="59.3183535638" lon="34.6613915391"><ele>163.09</ele><time>2026-08-16T13:14:25.336Z</time><hdop>3.0</hdop><vdop>2.5</vdop><extensions><gom:speed>1.27</gom:speed></extensions></trkpt>
   <trkpt lat="59.3183549887" lon="34.6613762841"><ele>163.078</ele><time>2026-08-16T13:14:25.974Z</time><hdop>3.0</hdop><vdop>2.5</vdop><extensions><gom:speed>1.286</gom:speed></extensions></trkpt>
   <trkpt lat="59.3183555755" lon="34.6613658905"><ele>163.176</ele><time>2026-08-16T13:14:26.455Z</time><hdop>3.0</hdop><vdop>2.5</vdop><extensions><gom:speed>1.297</gom:speed></extensions></trkpt>
   <trkpt lat="59.3183567908" lon="34.6613515575"><ele>163.234</ele><time>2026-08-16T13:14:27.053Z</time><hdop>3.0</hdop><vdop>2.5</vdop><extensions><gom:speed>1.305</gom:speed></extensions></trkpt>
   <trkpt lat="59.3183565813" lon="34.6613403257"><ele>163.311</ele><time>2026-08-16T13:14:27.554Z</time><hdop>3.0</hdop><vdop>2.5</vdop><extensions><gom:speed>1.301</gom:speed></extensions></trkpt>
   <trkpt lat="59.3183559946" lon="34.6613270823"><ele>163.372</ele><time>2026-08-16T13:14:28.137Z</time><hdop>3.0</hdop><vdop>2.5</vdop><extensions><gom:speed>1.292</gom:speed></extensions></trkpt>
   <trkpt lat="59.3183553659" lon="34.6613143418"><ele>163.408</ele><time>2026-08-16T13:14:28.654Z</time><hdop>3.0</hdop><vdop>2.5</vdop><extensions><gom:speed>1.295</gom:speed></extensions></trkpt>
   <trkpt lat="59.3183547792" lon="34.6613029424"><ele>163.436</ele><time>2026-08-16T13:14:29.138Z</time><hdop>3.0</hdop><vdop>2.5</vdop><extensions><gom:speed>1.286</gom:speed></extensions></trkpt>
   <trkpt lat="59.3183542763" lon="34.6612861786"><ele>163.453</ele><time>2026-08-16T13:14:29.792Z</time><hdop>3.0</hdop><vdop>2.5</vdop><extensions><gom:speed>1.282</gom:speed></extensions></trkpt>
   <trkpt lat="59.3183533962" lon="34.6612709236"><ele>163.53</ele><time>2026-08-16T13:14:30.430Z</time><hdop>3.0</hdop><vdop>2.5</vdop><extensions><gom:speed>1.29</gom:speed></extensions></trkpt>
   <trkpt lat="59.3183533962" lon="34.6612590212"><ele>163.576</ele><time>2026-08-16T13:14:30.911Z</time><hdop>3.0</hdop><vdop>2.5</vdop><extensions><gom:speed>1.282</gom:speed></extensions></trkpt>
   <trkpt lat="59.3183540667" lon="34.6612321992"><ele>163.579</ele><time>2026-08-16T13:14:32.050Z</time><hdop>3.0</hdop><vdop>2.5</vdop><extensions><gom:speed>1.275</gom:speed></extensions></trkpt>
   <trkpt lat="59.3183550725" lon="34.6612072211"><ele>163.613</ele><time>2026-08-16T13:14:33.110Z</time><hdop>3.0</hdop><vdop>2.5</vdop><extensions><gom:speed>1.296</gom:speed></extensions></trkpt>
   <trkpt lat="59.318354863" lon="34.661191966"><ele>163.617</ele><time>2026-08-16T13:14:33.787Z</time><hdop>3.0</hdop><vdop>2.5</vdop><extensions><gom:speed>1.295</gom:speed></extensions></trkpt>
   <trkpt lat="59.3183536895" lon="34.661182243"><ele>163.719</ele><time>2026-08-16T13:14:34.267Z</time><hdop>3.0</hdop><vdop>2.5</vdop><extensions><gom:speed>1.276</gom:speed></extensions></trkpt>
   <trkpt lat="59.3183527675" lon="34.6611670718"><ele>163.779</ele><time>2026-08-16T13:14:34.887Z</time><hdop>3.0</hdop><vdop>2.5</vdop><extensions><gom:speed>1.272</gom:speed></extensions></trkpt>
   <trkpt lat="59.3183518874" lon="34.6611557562"><ele>163.838</ele><time>2026-08-16T13:14:35.368Z</time><hdop>3.0</hdop><vdop>2.5</vdop><extensions><gom:speed>1.288</gom:speed></extensions></trkpt>
   <trkpt lat="59.3183507978" lon="34.6611375675"><ele>163.837</ele><time>2026-08-16T13:14:36.137Z</time><hdop>3.0</hdop><vdop>2.5</vdop><extensions><gom:speed>1.295</gom:speed></extensions></trkpt>
   <trkpt lat="59.3183496662" lon="34.6611131761"><ele>163.794</ele><time>2026-08-16T13:14:37.138Z</time><hdop>3.0</hdop><vdop>2.5</vdop><extensions><gom:speed>1.293</gom:speed></extensions></trkpt>
   <trkpt lat="59.3183487861" lon="34.6610897906"><ele>163.688</ele><time>2026-08-16T13:14:38.137Z</time><hdop>3.0</hdop><vdop>2.5</vdop><extensions><gom:speed>1.243</gom:speed></extensions></trkpt>
   <trkpt lat="59.3183485766" lon="34.6610759605"><ele>163.624</ele><time>2026-08-16T13:14:38.735Z</time><hdop>3.0</hdop><vdop>2.5</vdop><extensions><gom:speed>1.237</gom:speed></extensions></trkpt>
   <trkpt lat="59.3183479898" lon="34.6610653993"><ele>163.578</ele><time>2026-08-16T13:14:39.275Z</time><hdop>3.0</hdop><vdop>2.5</vdop><extensions><gom:speed>1.186</gom:speed></extensions></trkpt>
   <trkpt lat="59.3183476965" lon="34.6610492222"><ele>163.55</ele><time>2026-08-16T13:14:39.991Z</time><hdop>3.0</hdop><vdop>2.5</vdop><extensions><gom:speed>1.163</gom:speed></extensions></trkpt>
   <trkpt lat="59.3183466906" lon="34.6610366494"><ele>163.515</ele><time>2026-08-16T13:14:40.669Z</time><hdop>3.0</hdop><vdop>2.5</vdop><extensions><gom:speed>1.134</gom:speed></extensions></trkpt>
   <trkpt lat="59.3183457686" lon="34.6610280998"><ele>163.535</ele><time>2026-08-16T13:14:41.138Z</time><hdop>3.0</hdop><vdop>2.5</vdop><extensions><gom:speed>1.1</gom:speed></extensions></trkpt>
   <trkpt lat="59.3183445952" lon="34.6610087376"><ele>163.547</ele><time>2026-08-16T13:14:42.033Z</time><hdop>3.0</hdop><vdop>2.5</vdop><extensions><gom:speed>1.127</gom:speed></extensions></trkpt>
   <trkpt lat="59.3183422901" lon="34.6609994337"><ele>163.603</ele><time>2026-08-16T13:14:42.514Z</time><hdop>3.0</hdop><vdop>2.5</vdop><extensions><gom:speed>1.126</gom:speed></extensions></trkpt>
   <trkpt lat="59.3183403623" lon="34.660987699"><ele>163.682</ele><time>2026-08-16T13:14:43.138Z</time><hdop>3.0</hdop><vdop>2.5</vdop><extensions><gom:speed>1.158</gom:speed></extensions></trkpt>
   <trkpt lat="59.3183389793" lon="34.6609767187"><ele>163.729</ele><time>2026-08-16T13:14:43.653Z</time><hdop>3.0</hdop><vdop>2.5</vdop><extensions><gom:speed>1.154</gom:speed></extensions></trkpt>
   <trkpt lat="59.3183373867" lon="34.6609666605"><ele>163.795</ele><time>2026-08-16T13:14:44.138Z</time><hdop>3.0</hdop><vdop>2.5</vdop><extensions><gom:speed>1.195</gom:speed></extensions></trkpt>
   <trkpt lat="59.3183351655" lon="34.6609525789"><ele>163.835</ele><time>2026-08-16T13:14:44.772Z</time><hdop>3.0</hdop><vdop>2.5</vdop><extensions><gom:speed>1.186</gom:speed></extensions></trkpt>
   <trkpt lat="59.31833219" lon="34.6609387487"><ele>163.818</ele><time>2026-08-16T13:14:45.448Z</time><hdop>3.0</hdop><vdop>2.5</vdop><extensions><gom:speed>1.208</gom:speed></extensions></trkpt>
   <trkpt lat="59.3183306812" lon="34.6609272655"><ele>163.809</ele><time>2026-08-16T13:14:45.950Z</time><hdop>3.0</hdop><vdop>2.5</vdop><extensions><gom:speed>1.215</gom:speed></extensions></trkpt>
   <trkpt lat="59.3183296754" lon="34.6609150279"><ele>163.746</ele><time>2026-08-16T13:14:46.549Z</time><hdop>3.0</hdop><vdop>2.5</vdop><extensions><gom:speed>1.226</gom:speed></extensions></trkpt>
   <trkpt lat="59.3183285857" lon="34.6609039638"><ele>163.709</ele><time>2026-08-16T13:14:47.010Z</time><hdop>3.0</hdop><vdop>2.5</vdop><extensions><gom:speed>1.228</gom:speed></extensions></trkpt>
   <trkpt lat="59.318327077" lon="34.6608901337"><ele>163.518</ele><time>2026-08-16T13:14:47.707Z</time><hdop>3.0</hdop><vdop>2.5</vdop><extensions><gom:speed>1.218</gom:speed></extensions></trkpt>
   <trkpt lat="59.3183269932" lon="34.6608818356"><ele>163.334</ele><time>2026-08-16T13:14:48.168Z</time><hdop>3.0</hdop><vdop>2.5</vdop><extensions><gom:speed>1.234</gom:speed></extensions></trkpt>
   <trkpt lat="59.3183264903" lon="34.6608658262"><ele>163.224</ele><time>2026-08-16T13:14:48.856Z</time><hdop>3.0</hdop><vdop>2.5</vdop><extensions><gom:speed>1.238</gom:speed></extensions></trkpt>
   <trkpt lat="59.3183263645" lon="34.6608412672"><ele>163.19</ele><time>2026-08-16T13:14:49.916Z</time><hdop>3.0</hdop><vdop>2.5</vdop><extensions><gom:speed>1.252</gom:speed></extensions></trkpt>
   <trkpt lat="59.3183258616" lon="34.6608307898"><ele>163.164</ele><time>2026-08-16T13:14:50.387Z</time><hdop>3.0</hdop><vdop>2.5</vdop><extensions><gom:speed>1.289</gom:speed></extensions></trkpt>
   <trkpt lat="59.3183251911" lon="34.6608141936"><ele>163.162</ele><time>2026-08-16T13:14:51.138Z</time><hdop>3.0</hdop><vdop>2.5</vdop><extensions><gom:speed>1.282</gom:speed></extensions></trkpt>
   <trkpt lat="59.3183250653" lon="34.6607912272"><ele>163.161</ele><time>2026-08-16T13:14:52.138Z</time><hdop>3.0</hdop><vdop>2.5</vdop><extensions><gom:speed>1.312</gom:speed></extensions></trkpt>
   <trkpt lat="59.3183248977" lon="34.6607796602"><ele>163.16</ele><time>2026-08-16T13:14:52.596Z</time><hdop>3.0</hdop><vdop>2.5</vdop><extensions><gom:speed>1.309</gom:speed></extensions></trkpt>
   <trkpt lat="59.3183246881" lon="34.6607676741"><ele>163.121</ele><time>2026-08-16T13:14:53.138Z</time><hdop>3.0</hdop><vdop>2.5</vdop><extensions><gom:speed>1.295</gom:speed></extensions></trkpt>
   <trkpt lat="59.3183240595" lon="34.6607537601"><ele>163.098</ele><time>2026-08-16T13:14:53.715Z</time><hdop>3.0</hdop><vdop>2.5</vdop><extensions><gom:speed>1.3</gom:speed></extensions></trkpt>
   <trkpt lat="59.3183231794" lon="34.6607390918"><ele>163.156</ele><time>2026-08-16T13:14:54.392Z</time><hdop>3.0</hdop><vdop>2.5</vdop><extensions><gom:speed>1.211</gom:speed></extensions></trkpt>
   <trkpt lat="59.318323389" lon="34.6607229985"><ele>163.294</ele><time>2026-08-16T13:14:55.138Z</time><hdop>3.0</hdop><vdop>2.5</vdop><extensions><gom:speed>1.214</gom:speed></extensions></trkpt>
   <trkpt lat="59.3183245624" lon="34.6607054804"><ele>163.377</ele><time>2026-08-16T13:14:55.913Z</time><hdop>3.0</hdop><vdop>2.5</vdop><extensions><gom:speed>1.207</gom:speed></extensions></trkpt>
   <trkpt lat="59.3183239757" lon="34.660691734"><ele>163.404</ele><time>2026-08-16T13:14:56.552Z</time><hdop>3.0</hdop><vdop>2.5</vdop><extensions><gom:speed>1.211</gom:speed></extensions></trkpt>
   <trkpt lat="59.3183238919" lon="34.6606786583"><ele>163.42</ele><time>2026-08-16T13:14:57.111Z</time><hdop>3.0</hdop><vdop>2.5</vdop><extensions><gom:speed>1.208</gom:speed></extensions></trkpt>
   <trkpt lat="59.3183224669" lon="34.6606636547"><ele>163.48</ele><time>2026-08-16T13:14:57.788Z</time><hdop>3.0</hdop><vdop>2.5</vdop><extensions><gom:speed>1.201</gom:speed></extensions></trkpt>
   <trkpt lat="59.3183213773" lon="34.6606514171"><ele>163.636</ele><time>2026-08-16T13:14:58.289Z</time><hdop>3.0</hdop><vdop>2.5</vdop><extensions><gom:speed>1.21</gom:speed></extensions></trkpt>
   <trkpt lat="59.3183210839" lon="34.6606367488"><ele>163.729</ele><time>2026-08-16T13:14:58.907Z</time><hdop>3.0</hdop><vdop>2.5</vdop><extensions><gom:speed>1.201</gom:speed></extensions></trkpt>
   <trkpt lat="59.3183198686" lon="34.6606238406"><ele>163.866</ele><time>2026-08-16T13:14:59.408Z</time><hdop>3.0</hdop><vdop>2.5</vdop><extensions><gom:speed>1.209</gom:speed></extensions></trkpt>
   <trkpt lat="59.3183193656" lon="34.6606091723"><ele>163.947</ele><time>2026-08-16T13:14:59.987Z</time><hdop>3.0</hdop><vdop>2.5</vdop><extensions><gom:speed>1.202</gom:speed></extensions></trkpt>
   <trkpt lat="59.3183185694" lon="34.6605969347"><ele>163.973</ele><time>2026-08-16T13:15:00.507Z</time><hdop>3.0</hdop><vdop>2.5</vdop><extensions><gom:speed>1.2</gom:speed></extensions></trkpt>
   <trkpt lat="59.3183181922" lon="34.6605823502"><ele>163.988</ele><time>2026-08-16T13:15:01.116Z</time><hdop>3.062</hdop><vdop>2.5</vdop><extensions><gom:speed>1.204</gom:speed></extensions></trkpt>
   <trkpt lat="59.3183177731" lon="34.660569945"><ele>163.99</ele><time>2026-08-16T13:15:01.656Z</time><hdop>3.062</hdop><vdop>2.5</vdop><extensions><gom:speed>1.212</gom:speed></extensions></trkpt>
   <trkpt lat="59.3183179826" lon="34.6605592162"><ele>163.917</ele><time>2026-08-16T13:15:02.138Z</time><hdop>3.0</hdop><vdop>2.5</vdop><extensions><gom:speed>1.206</gom:speed></extensions></trkpt>
   <trkpt lat="59.3183184855" lon="34.6605460566"><ele>163.873</ele><time>2026-08-16T13:15:02.697Z</time><hdop>3.0</hdop><vdop>2.5</vdop><extensions><gom:speed>1.188</gom:speed></extensions></trkpt>
   <trkpt lat="59.3183199943" lon="34.6605205756"><ele>163.786</ele><time>2026-08-16T13:15:03.855Z</time><hdop>3.0</hdop><vdop>2.5</vdop><extensions><gom:speed>1.198</gom:speed></extensions></trkpt>
   <trkpt lat="59.3183197847" lon="34.6605059911"><ele>163.763</ele><time>2026-08-16T13:15:04.552Z</time><hdop>3.0</hdop><vdop>2.5</vdop><extensions><gom:speed>1.203</gom:speed></extensions></trkpt>
   <trkpt lat="59.3183203715" lon="34.6604946755"><ele>163.75</ele><time>2026-08-16T13:15:05.072Z</time><hdop>3.0</hdop><vdop>2.5</vdop><extensions><gom:speed>1.191</gom:speed></extensions></trkpt>
   <trkpt lat="59.3183208744" lon="34.660482857"><ele>163.684</ele><time>2026-08-16T13:15:05.651Z</time><hdop>3.0</hdop><vdop>2.5</vdop><extensions><gom:speed>1.2</gom:speed></extensions></trkpt>
   <trkpt lat="59.3183211677" lon="34.6604730502"><ele>163.663</ele><time>2026-08-16T13:15:06.138Z</time><hdop>3.0</hdop><vdop>2.5</vdop><extensions><gom:speed>1.184</gom:speed></extensions></trkpt>
   <trkpt lat="59.3183214611" lon="34.6604569569"><ele>163.65</ele><time>2026-08-16T13:15:06.849Z</time><hdop>3.0</hdop><vdop>2.5</vdop><extensions><gom:speed>1.188</gom:speed></extensions></trkpt>
   <trkpt lat="59.3183202876" lon="34.6604458928"><ele>163.658</ele><time>2026-08-16T13:15:07.310Z</time><hdop>3.0</hdop><vdop>2.5</vdop><extensions><gom:speed>1.196</gom:speed></extensions></trkpt>
   <trkpt lat="59.318319659" lon="34.6604299672"><ele>163.663</ele><time>2026-08-16T13:15:07.968Z</time><hdop>3.0</hdop><vdop>2.5</vdop><extensions><gom:speed>1.216</gom:speed></extensions></trkpt>
   <trkpt lat="59.3183181922" lon="34.6604188193"><ele>163.675</ele><time>2026-08-16T13:15:08.449Z</time><hdop>3.0</hdop><vdop>2.5</vdop><extensions><gom:speed>1.217</gom:speed></extensions></trkpt>
   <trkpt lat="59.3183172702" lon="34.6604033966"><ele>163.685</ele><time>2026-08-16T13:15:09.138Z</time><hdop>3.0</hdop><vdop>2.5</vdop><extensions><gom:speed>1.224</gom:speed></extensions></trkpt>
   <trkpt lat="59.3183172702" lon="34.6603809331"><ele>163.654</ele><time>2026-08-16T13:15:10.138Z</time><hdop>3.0</hdop><vdop>2.5</vdop><extensions><gom:speed>1.196</gom:speed></extensions></trkpt>
   <trkpt lat="59.3183175635" lon="34.6603665162"><ele>163.635</ele><time>2026-08-16T13:15:10.756Z</time><hdop>3.0</hdop><vdop>2.5</vdop><extensions><gom:speed>1.205</gom:speed></extensions></trkpt>
   <trkpt lat="59.3183164739" lon="34.660340197"><ele>163.7</ele><time>2026-08-16T13:15:11.875Z</time><hdop>3.0</hdop><vdop>2.5</vdop><extensions><gom:speed>1.223</gom:speed></extensions></trkpt>
   <trkpt lat="59.3183146718" lon="34.6603130397"><ele>163.799</ele><time>2026-08-16T13:15:12.974Z</time><hdop>3.0</hdop><vdop>2.5</vdop><extensions><gom:speed>1.302</gom:speed></extensions></trkpt>
   <trkpt lat="59.3183127858" lon="34.6602963597"><ele>163.954</ele><time>2026-08-16T13:15:13.651Z</time><hdop>3.0</hdop><vdop>2.5</vdop><extensions><gom:speed>1.297</gom:speed></extensions></trkpt>
   <trkpt lat="59.31831178" lon="34.6602843735"><ele>164.046</ele><time>2026-08-16T13:15:14.132Z</time><hdop>3.0</hdop><vdop>2.5</vdop><extensions><gom:speed>1.292</gom:speed></extensions></trkpt>
   <trkpt lat="59.3183106904" lon="34.6602685318"><ele>164.106</ele><time>2026-08-16T13:15:14.789Z</time><hdop>3.0</hdop><vdop>2.5</vdop><extensions><gom:speed>1.283</gom:speed></extensions></trkpt>
   <trkpt lat="59.3183102713" lon="34.6602375187"><ele>164.21</ele><time>2026-08-16T13:15:16.138Z</time><hdop>3.0</hdop><vdop>2.5</vdop><extensions><gom:speed>1.273</gom:speed></extensions></trkpt>
   <trkpt lat="59.3183099779" lon="34.6602135465"><ele>164.273</ele><time>2026-08-16T13:15:17.087Z</time><hdop>3.0</hdop><vdop>2.5</vdop><extensions><gom:speed>1.295</gom:speed></extensions></trkpt>
   <trkpt lat="59.3183088883" lon="34.6602036558"><ele>164.272</ele><time>2026-08-16T13:15:17.568Z</time><hdop>3.0</hdop><vdop>2.5</vdop><extensions><gom:speed>1.293</gom:speed></extensions></trkpt>
   <trkpt lat="59.3183083853" lon="34.6601913344"><ele>164.216</ele><time>2026-08-16T13:15:18.138Z</time><hdop>3.0</hdop><vdop>2.5</vdop><extensions><gom:speed>1.286</gom:speed></extensions></trkpt>
   <trkpt lat="59.3183078824" lon="34.660178091"><ele>164.182</ele><time>2026-08-16T13:15:18.687Z</time><hdop>3.0</hdop><vdop>2.5</vdop><extensions><gom:speed>1.279</gom:speed></extensions></trkpt>
   <trkpt lat="59.3183072957" lon="34.6601678651"><ele>164.133</ele><time>2026-08-16T13:15:19.137Z</time><hdop>3.0</hdop><vdop>2.5</vdop><extensions><gom:speed>1.259</gom:speed></extensions></trkpt>
   <trkpt lat="59.3183067928" lon="34.6601506822"><ele>164.104</ele><time>2026-08-16T13:15:19.836Z</time><hdop>3.0</hdop><vdop>2.5</vdop><extensions><gom:speed>1.27</gom:speed></extensions></trkpt>
   <trkpt lat="59.3183056612" lon="34.6601341698"><ele>164.169</ele><time>2026-08-16T13:15:20.454Z</time><hdop>3.0</hdop><vdop>2.5</vdop><extensions><gom:speed>1.31</gom:speed></extensions></trkpt>
   <trkpt lat="59.3183051583" lon="34.6601209264"><ele>164.207</ele><time>2026-08-16T13:15:20.955Z</time><hdop>3.0</hdop><vdop>2.5</vdop><extensions><gom:speed>1.324</gom:speed></extensions></trkpt>
   <trkpt lat="59.3183031886" lon="34.6601060905"><ele>164.306</ele><time>2026-08-16T13:15:21.554Z</time><hdop>3.0</hdop><vdop>2.5</vdop><extensions><gom:speed>1.324</gom:speed></extensions></trkpt>
   <trkpt lat="59.3183021827" lon="34.66009335"><ele>164.365</ele><time>2026-08-16T13:15:22.054Z</time><hdop>3.0</hdop><vdop>2.5</vdop><extensions><gom:speed>1.303</gom:speed></extensions></trkpt>
   <trkpt lat="59.3183008835" lon="34.6600805257"><ele>164.323</ele><time>2026-08-16T13:15:22.653Z</time><hdop>3.0</hdop><vdop>2.5</vdop><extensions><gom:speed>1.294</gom:speed></extensions></trkpt>
   <trkpt lat="59.3183005902" lon="34.6600699645"><ele>164.324</ele><time>2026-08-16T13:15:23.138Z</time><hdop>3.0</hdop><vdop>2.5</vdop><extensions><gom:speed>1.276</gom:speed></extensions></trkpt>
   <trkpt lat="59.318300674" lon="34.6600447349"><ele>164.324</ele><time>2026-08-16T13:15:23.851Z</time><hdop>3.0</hdop><vdop>2.5</vdop><extensions><gom:speed>1.293</gom:speed></extensions></trkpt>
   <trkpt lat="59.3182997939" lon="34.6600403763"><ele>164.357</ele><time>2026-08-16T13:15:24.312Z</time><hdop>3.0</hdop><vdop>2.5</vdop><extensions><gom:speed>1.282</gom:speed></extensions></trkpt>
   <trkpt lat="59.318298369" lon="34.6600259595"><ele>164.376</ele><time>2026-08-16T13:15:24.989Z</time><hdop>3.0</hdop><vdop>2.5</vdop><extensions><gom:speed>1.269</gom:speed></extensions></trkpt>
   <trkpt lat="59.3182971955" lon="34.6600176614"><ele>164.374</ele><time>2026-08-16T13:15:25.510Z</time><hdop>3.0</hdop><vdop>2.5</vdop><extensions><gom:speed>1.247</gom:speed></extensions></trkpt>
   <trkpt lat="59.3182979918" lon="34.6600046694"><ele>164.372</ele><time>2026-08-16T13:15:26.089Z</time><hdop>3.0</hdop><vdop>2.5</vdop><extensions><gom:speed>1.272</gom:speed></extensions></trkpt>
   <trkpt lat="59.3182984947" lon="34.6599968743"><ele>164.375</ele><time>2026-08-16T13:15:26.589Z</time><hdop>3.0</hdop><vdop>2.5</vdop><extensions><gom:speed>1.234</gom:speed></extensions></trkpt>
   <trkpt lat="59.3182989976" lon="34.6599846367"><ele>164.377</ele><time>2026-08-16T13:15:27.139Z</time><hdop>3.0</hdop><vdop>2.5</vdop><extensions><gom:speed>1.234</gom:speed></extensions></trkpt>
   <trkpt lat="59.3182963992" lon="34.6599725667"><ele>164.379</ele><time>2026-08-16T13:15:27.767Z</time><hdop>3.0</hdop><vdop>2.5</vdop><extensions><gom:speed>1.264</gom:speed></extensions></trkpt>
   <trkpt lat="59.3182926693" lon="34.6599617541"><ele>164.371</ele><time>2026-08-16T13:15:28.415Z</time><hdop>3.0</hdop><vdop>2.5</vdop><extensions><gom:speed>1.231</gom:speed></extensions></trkpt>
   <trkpt lat="59.3182901966" lon="34.6599500194"><ele>164.366</ele><time>2026-08-16T13:15:28.955Z</time><hdop>3.0</hdop><vdop>2.5</vdop><extensions><gom:speed>1.235</gom:speed></extensions></trkpt>
   <trkpt lat="59.3182864667" lon="34.6599379495"><ele>164.407</ele><time>2026-08-16T13:15:29.574Z</time><hdop>3.0</hdop><vdop>2.5</vdop><extensions><gom:speed>1.257</gom:speed></extensions></trkpt>
   <trkpt lat="59.3182841616" lon="34.6599240355"><ele>164.364</ele><time>2026-08-16T13:15:30.138Z</time><hdop>3.0</hdop><vdop>2.5</vdop><extensions><gom:speed>1.308</gom:speed></extensions></trkpt>
   <trkpt lat="59.3182819824" lon="34.65990065"><ele>164.341</ele><time>2026-08-16T13:15:31.138Z</time><hdop>3.0</hdop><vdop>2.5</vdop><extensions><gom:speed>1.277</gom:speed></extensions></trkpt>
   <trkpt lat="59.3182805993" lon="34.6598835509"><ele>164.326</ele><time>2026-08-16T13:15:31.831Z</time><hdop>3.0</hdop><vdop>2.5</vdop><extensions><gom:speed>1.277</gom:speed></extensions></trkpt>
   <trkpt lat="59.3182797611" lon="34.659873325"><ele>164.354</ele><time>2026-08-16T13:15:32.312Z</time><hdop>3.0</hdop><vdop>2.5</vdop><extensions><gom:speed>1.28</gom:speed></extensions></trkpt>
   <trkpt lat="59.3182781686" lon="34.6598555554"><ele>164.406</ele><time>2026-08-16T13:15:33.138Z</time><hdop>3.0</hdop><vdop>2.5</vdop><extensions><gom:speed>1.251</gom:speed></extensions></trkpt>
   <trkpt lat="59.3182757797" lon="34.6598337624"><ele>164.39</ele><time>2026-08-16T13:15:34.138Z</time><hdop>3.0</hdop><vdop>2.5</vdop><extensions><gom:speed>1.26</gom:speed></extensions></trkpt>
   <trkpt lat="59.3182734747" lon="34.6598230336"><ele>164.381</ele><time>2026-08-16T13:15:34.629Z</time><hdop>3.0</hdop><vdop>2.5</vdop><extensions><gom:speed>1.254</gom:speed></extensions></trkpt>
   <trkpt lat="59.3182710859" lon="34.659814065"><ele>164.313</ele><time>2026-08-16T13:15:35.138Z</time><hdop>3.0</hdop><vdop>2.5</vdop><extensions><gom:speed>1.248</gom:speed></extensions></trkpt>
   <trkpt lat="59.3182681941" lon="34.6598016597"><ele>164.272</ele><time>2026-08-16T13:15:35.728Z</time><hdop>3.0</hdop><vdop>2.5</vdop><extensions><gom:speed>1.245</gom:speed></extensions></trkpt>
   <trkpt lat="59.3182648833" lon="34.6597864885"><ele>164.239</ele><time>2026-08-16T13:15:36.416Z</time><hdop>3.0</hdop><vdop>2.5</vdop><extensions><gom:speed>1.285</gom:speed></extensions></trkpt>
   <trkpt lat="59.3182621591" lon="34.6597757597"><ele>164.219</ele><time>2026-08-16T13:15:36.887Z</time><hdop>3.0</hdop><vdop>2.5</vdop><extensions><gom:speed>1.29</gom:speed></extensions></trkpt>
   <trkpt lat="59.3182568786" lon="34.6597526256"><ele>164.2</ele><time>2026-08-16T13:15:37.976Z</time><hdop>3.0</hdop><vdop>2.5</vdop><extensions><gom:speed>1.293</gom:speed></extensions></trkpt>
   <trkpt lat="59.3182542802" lon="34.6597386278"><ele>164.116</ele><time>2026-08-16T13:15:38.673Z</time><hdop>3.0</hdop><vdop>2.5</vdop><extensions><gom:speed>1.294</gom:speed></extensions></trkpt>
   <trkpt lat="59.3182527714" lon="34.6597285695"><ele>164.055</ele><time>2026-08-16T13:15:39.138Z</time><hdop>3.0</hdop><vdop>2.5</vdop><extensions><gom:speed>1.302</gom:speed></extensions></trkpt>
   <trkpt lat="59.3182483709" lon="34.659709375"><ele>163.943</ele><time>2026-08-16T13:15:40.138Z</time><hdop>3.0</hdop><vdop>2.5</vdop><extensions><gom:speed>1.285</gom:speed></extensions></trkpt>
   <trkpt lat="59.3182417911" lon="34.6596953772"><ele>163.876</ele><time>2026-08-16T13:15:40.951Z</time><hdop>3.0</hdop><vdop>2.5</vdop><extensions><gom:speed>1.286</gom:speed></extensions></trkpt>
   <trkpt lat="59.3182402824" lon="34.6596868277"><ele>163.835</ele><time>2026-08-16T13:15:41.432Z</time><hdop>3.0</hdop><vdop>2.5</vdop><extensions><gom:speed>1.278</gom:speed></extensions></trkpt>
   <trkpt lat="59.3182374744" lon="34.6596728299"><ele>163.864</ele><time>2026-08-16T13:15:42.138Z</time><hdop>3.0</hdop><vdop>2.5</vdop><extensions><gom:speed>1.295</gom:speed></extensions></trkpt>
   <trkpt lat="59.3182351694" lon="34.6596623525"><ele>163.881</ele><time>2026-08-16T13:15:42.590Z</time><hdop>3.0</hdop><vdop>2.5</vdop><extensions><gom:speed>1.299</gom:speed></extensions></trkpt>
   <trkpt lat="59.3182329901" lon="34.6596534677"><ele>163.801</ele><time>2026-08-16T13:15:43.138Z</time><hdop>3.0</hdop><vdop>2.5</vdop><extensions><gom:speed>1.267</gom:speed></extensions></trkpt>
   <trkpt lat="59.318228883" lon="34.659642655"><ele>163.754</ele><time>2026-08-16T13:15:43.748Z</time><hdop>3.0</hdop><vdop>2.5</vdop><extensions><gom:speed>1.262</gom:speed></extensions></trkpt>
   <trkpt lat="59.3182197886" lon="34.6596261427"><ele>163.755</ele><time>2026-08-16T13:15:44.936Z</time><hdop>3.0</hdop><vdop>2.5</vdop><extensions><gom:speed>1.236</gom:speed></extensions></trkpt>
   <trkpt lat="59.3182147595" lon="34.6596171741"><ele>163.751</ele><time>2026-08-16T13:15:45.653Z</time><hdop>3.0</hdop><vdop>2.5</vdop><extensions><gom:speed>1.2</gom:speed></extensions></trkpt>
   <trkpt lat="59.3182120773" lon="34.6596117258"><ele>163.707</ele><time>2026-08-16T13:15:46.138Z</time><hdop>3.0</hdop><vdop>2.5</vdop><extensions><gom:speed>1.191</gom:speed></extensions></trkpt>
   <trkpt lat="59.3182090598" lon="34.6596055232"><ele>163.681</ele><time>2026-08-16T13:15:46.595Z</time><hdop>3.0</hdop><vdop>2.5</vdop><extensions><gom:speed>1.193</gom:speed></extensions></trkpt>
   <trkpt lat="59.3182054975" lon="34.6595988177"><ele>163.536</ele><time>2026-08-16T13:15:47.138Z</time><hdop>3.0</hdop><vdop>2.5</vdop><extensions><gom:speed>1.227</gom:speed></extensions></trkpt>
   <trkpt lat="59.3181995882" lon="34.6595822215"><ele>163.45</ele><time>2026-08-16T13:15:48.068Z</time><hdop>3.0</hdop><vdop>2.5</vdop><extensions><gom:speed>1.204</gom:speed></extensions></trkpt>
   <trkpt lat="59.3181943915" lon="34.6595800422"><ele>163.39</ele><time>2026-08-16T13:15:48.568Z</time><hdop>3.0</hdop><vdop>2.5</vdop><extensions><gom:speed>1.174</gom:speed></extensions></trkpt>
   <trkpt lat="59.3181895719" lon="34.6595767733"><ele>163.314</ele><time>2026-08-16T13:15:49.138Z</time><hdop>3.0</hdop><vdop>2.5</vdop><extensions><gom:speed>1.138</gom:speed></extensions></trkpt>
   <trkpt lat="59.3181843751" lon="34.6595699839"><ele>163.269</ele><time>2026-08-16T13:15:49.776Z</time><hdop>3.0</hdop><vdop>2.5</vdop><extensions><gom:speed>1.132</gom:speed></extensions></trkpt>
   <trkpt lat="59.3181788849" lon="34.6595636975"><ele>163.221</ele><time>2026-08-16T13:15:50.473Z</time><hdop>3.0</hdop><vdop>2.5</vdop><extensions><gom:speed>1.167</gom:speed></extensions></trkpt>
   <trkpt lat="59.3181740653" lon="34.6595567405"><ele>163.192</ele><time>2026-08-16T13:15:50.973Z</time><hdop>3.0</hdop><vdop>2.5</vdop><extensions><gom:speed>1.22</gom:speed></extensions></trkpt>
   <trkpt lat="59.3181680723" lon="34.6595485263"><ele>163.179</ele><time>2026-08-16T13:15:51.690Z</time><hdop>3.0</hdop><vdop>2.5</vdop><extensions><gom:speed>1.218</gom:speed></extensions></trkpt>
   <trkpt lat="59.3181587684" lon="34.6595350314"><ele>163.127</ele><time>2026-08-16T13:15:52.828Z</time><hdop>3.0</hdop><vdop>2.5</vdop><extensions><gom:speed>1.19</gom:speed></extensions></trkpt>
   <trkpt lat="59.3181545774" lon="34.6595335227"><ele>163.073</ele><time>2026-08-16T13:15:53.329Z</time><hdop>3.0</hdop><vdop>2.5</vdop><extensions><gom:speed>1.128</gom:speed></extensions></trkpt>
   <trkpt lat="59.3181480814" lon="34.6595252246"><ele>163.041</ele><time>2026-08-16T13:15:54.036Z</time><hdop>3.0</hdop><vdop>2.5</vdop><extensions><gom:speed>1.146</gom:speed></extensions></trkpt>
   <trkpt lat="59.3181449801" lon="34.6595221233"><ele>162.895</ele><time>2026-08-16T13:15:54.489Z</time><hdop>3.0</hdop><vdop>2.5</vdop><extensions><gom:speed>1.134</gom:speed></extensions></trkpt>
   <trkpt lat="59.3181399929" lon="34.6595147472"><ele>162.758</ele><time>2026-08-16T13:15:55.138Z</time><hdop>3.0</hdop><vdop>2.5</vdop><extensions><gom:speed>1.153</gom:speed></extensions></trkpt>
   <trkpt lat="59.3181359696" lon="34.6595079579"><ele>162.677</ele><time>2026-08-16T13:15:55.627Z</time><hdop>3.0</hdop><vdop>2.5</vdop><extensions><gom:speed>1.156</gom:speed></extensions></trkpt>
   <trkpt lat="59.3181318625" lon="34.6595036831"><ele>162.598</ele><time>2026-08-16T13:15:56.138Z</time><hdop>3.0</hdop><vdop>2.5</vdop><extensions><gom:speed>1.183</gom:speed></extensions></trkpt>
   <trkpt lat="59.3181221814" lon="34.6594964746"><ele>162.471</ele><time>2026-08-16T13:15:57.138Z</time><hdop>3.0</hdop><vdop>2.5</vdop><extensions><gom:speed>1.177</gom:speed></extensions></trkpt>
   <trkpt lat="59.3181150987" lon="34.6594900206"><ele>162.395</ele><time>2026-08-16T13:15:57.836Z</time><hdop>3.0</hdop><vdop>2.5</vdop><extensions><gom:speed>1.175</gom:speed></extensions></trkpt>
   <trkpt lat="59.3181086865" lon="34.6594868355"><ele>162.425</ele><time>2026-08-16T13:15:58.474Z</time><hdop>3.0</hdop><vdop>2.5</vdop><extensions><gom:speed>1.183</gom:speed></extensions></trkpt>
   <trkpt lat="59.3181034897" lon="34.6594826445"><ele>162.444</ele><time>2026-08-16T13:15:58.955Z</time><hdop>3.0</hdop><vdop>2.5</vdop><extensions><gom:speed>1.186</gom:speed></extensions></trkpt>
   <trkpt lat="59.3180955688" lon="34.6594773639"><ele>162.417</ele><time>2026-08-16T13:15:59.672Z</time><hdop>3.0</hdop><vdop>2.5</vdop><extensions><gom:speed>1.22</gom:speed></extensions></trkpt>
   <trkpt lat="59.318090372" lon="34.6594724186"><ele>162.402</ele><time>2026-08-16T13:16:00.133Z</time><hdop>3.0</hdop><vdop>2.5</vdop><extensions><gom:speed>1.235</gom:speed></extensions></trkpt>
   <trkpt lat="59.3180832893" lon="34.6594694849"><ele>162.314</ele><time>2026-08-16T13:16:00.771Z</time><hdop>3.0</hdop><vdop>2.5</vdop><extensions><gom:speed>1.245</gom:speed></extensions></trkpt>
   <trkpt lat="59.3180786793" lon="34.6594682276"><ele>162.237</ele><time>2026-08-16T13:16:01.232Z</time><hdop>3.0</hdop><vdop>2.5</vdop><extensions><gom:speed>1.191</gom:speed></extensions></trkpt>
   <trkpt lat="59.3180711775" lon="34.6594611868"><ele>162.192</ele><time>2026-08-16T13:16:01.969Z</time><hdop>3.0</hdop><vdop>2.5</vdop><extensions><gom:speed>1.167</gom:speed></extensions></trkpt>
   <trkpt lat="59.3180604906" lon="34.6594517991"><ele>162.238</ele><time>2026-08-16T13:16:03.138Z</time><hdop>3.0</hdop><vdop>2.5</vdop><extensions><gom:speed>1.142</gom:speed></extensions></trkpt>
   <trkpt lat="59.318054288" lon="34.6594433334"><ele>162.28</ele><time>2026-08-16T13:16:04.138Z</time><hdop>3.0</hdop><vdop>2.5</vdop><extensions><gom:speed>0.926</gom:speed></extensions></trkpt>
   <trkpt lat="59.3180523601" lon="34.6594318502"><ele>162.147</ele><time>2026-08-16T13:16:05.138Z</time><hdop>3.0</hdop><vdop>2.5</vdop><extensions><gom:speed>0.884</gom:speed></extensions></trkpt>
   <trkpt lat="59.3180560901" lon="34.6594214566"><ele>162.067</ele><time>2026-08-16T13:16:05.815Z</time><hdop>3.0</hdop><vdop>2.5</vdop><extensions><gom:speed>0.878</gom:speed></extensions></trkpt>
   <trkpt lat="59.3180603648" lon="34.6594176848"><ele>162.122</ele><time>2026-08-16T13:16:07.138Z</time><hdop>3.0</hdop><vdop>2.5</vdop><extensions><gom:speed>0.27</gom:speed></extensions></trkpt>
   <trkpt lat="59.3180604906" lon="34.6594178524"><ele>162.151</ele><time>2026-08-16T13:16:08.138Z</time><hdop>3.0</hdop><vdop>2.5</vdop><extensions><gom:speed>0.131</gom:speed></extensions></trkpt>
   <trkpt lat="59.3180603648" lon="34.659418942"><ele>162.164</ele><time>2026-08-16T13:16:09.138Z</time><hdop>3.0</hdop><vdop>2.5</vdop><extensions><gom:speed>0.043</gom:speed></extensions></trkpt>
   <trkpt lat="59.3180605744" lon="34.6594183553"><ele>162.162</ele><time>2026-08-16T13:16:10.137Z</time><hdop>3.0</hdop><vdop>2.5</vdop><extensions><gom:speed>0.021</gom:speed></extensions></trkpt>
   <trkpt lat="59.3180605744" lon="34.6594181877"><ele>162.161</ele><time>2026-08-16T13:16:11.127Z</time><hdop>3.0</hdop><vdop>2.5</vdop><extensions><gom:speed>0.07</gom:speed></extensions></trkpt>
   <trkpt lat="59.3180610773" lon="34.6594171818"><ele>162.167</ele><time>2026-08-16T13:16:11.667Z</time><hdop>3.0</hdop><vdop>2.5</vdop><extensions><gom:speed>0.101</gom:speed></extensions></trkpt>
   <trkpt lat="59.3180613707" lon="34.659416176"><ele>162.314</ele><time>2026-08-16T13:16:12.138Z</time><hdop>3.0</hdop><vdop>2.5</vdop><extensions><gom:speed>0.037</gom:speed></extensions></trkpt>
   <trkpt lat="59.3180612868" lon="34.6594150864"><ele>162.407</ele><time>2026-08-16T13:16:13.137Z</time><hdop>3.0</hdop><vdop>2.5</vdop><extensions><gom:speed>0.07</gom:speed></extensions></trkpt>
   <trkpt lat="59.3180611611" lon="34.6594140805"><ele>162.462</ele><time>2026-08-16T13:16:13.650Z</time><hdop>3.0</hdop><vdop>2.5</vdop><extensions><gom:speed>0.111</gom:speed></extensions></trkpt>
   <trkpt lat="59.3180596943" lon="34.6594118174"><ele>162.508</ele><time>2026-08-16T13:16:14.138Z</time><hdop>3.0</hdop><vdop>2.5</vdop><extensions><gom:speed>0.211</gom:speed></extensions></trkpt>
   <trkpt lat="59.3180568863" lon="34.659409219"><ele>162.536</ele><time>2026-08-16T13:16:15.073Z</time><hdop>3.0</hdop><vdop>2.5</vdop><extensions><gom:speed>0.274</gom:speed></extensions></trkpt>
   <trkpt lat="59.3180513962" lon="34.6594056986"><ele>162.51</ele><time>2026-08-16T13:16:15.613Z</time><hdop>3.0</hdop><vdop>2.5</vdop><extensions><gom:speed>0.476</gom:speed></extensions></trkpt>
   <trkpt lat="59.3180459899" lon="34.6594032679"><ele>162.408</ele><time>2026-08-16T13:16:16.138Z</time><hdop>3.0</hdop><vdop>2.5</vdop><extensions><gom:speed>0.677</gom:speed></extensions></trkpt>
   <trkpt lat="59.3180393682" lon="34.6593995798"><ele>162.348</ele><time>2026-08-16T13:16:16.869Z</time><hdop>3.0</hdop><vdop>2.5</vdop><extensions><gom:speed>0.678</gom:speed></extensions></trkpt>
   <trkpt lat="59.3180296871" lon="34.6593934611"><ele>162.286</ele><time>2026-08-16T13:16:17.635Z</time><hdop>3.0</hdop><vdop>2.5</vdop><extensions><gom:speed>0.877</gom:speed></extensions></trkpt>
   <trkpt lat="59.3180233587" lon="34.6593896892"><ele>162.19</ele><time>2026-08-16T13:16:18.138Z</time><hdop>3.0</hdop><vdop>2.5</vdop><extensions><gom:speed>0.974</gom:speed></extensions></trkpt>
   <trkpt lat="59.3180160665" lon="34.6593855821"><ele>162.133</ele><time>2026-08-16T13:16:18.852Z</time><hdop>3.0</hdop><vdop>2.5</vdop><extensions><gom:speed>0.966</gom:speed></extensions></trkpt>
   <trkpt lat="59.3180110792" lon="34.6593812235"><ele>162.12</ele><time>2026-08-16T13:16:19.333Z</time><hdop>3.0</hdop><vdop>2.5</vdop><extensions><gom:speed>0.982</gom:speed></extensions></trkpt>
   <trkpt lat="59.3180046671" lon="34.6593756914"><ele>162.112</ele><time>2026-08-16T13:16:20.030Z</time><hdop>3.0</hdop><vdop>2.5</vdop><extensions><gom:speed>0.999</gom:speed></extensions></trkpt>
   <trkpt lat="59.3180007695" lon="34.6593661361"><ele>162.103</ele><time>2026-08-16T13:16:20.629Z</time><hdop>3.0</hdop><vdop>2.5</vdop><extensions><gom:speed>1.023</gom:speed></extensions></trkpt>
   <trkpt lat="59.3180039965" lon="34.6593569998"><ele>161.937</ele><time>2026-08-16T13:16:21.138Z</time><hdop>3.0</hdop><vdop>2.5</vdop><extensions><gom:speed>0.998</gom:speed></extensions></trkpt>
   <trkpt lat="59.3180129652" lon="34.6593577542"><ele>161.839</ele><time>2026-08-16T13:16:22.111Z</time><hdop>3.0</hdop><vdop>2.5</vdop><extensions><gom:speed>0.885</gom:speed></extensions></trkpt>
   <trkpt lat="59.3180108697" lon="34.6593613584"><ele>161.807</ele><time>2026-08-16T13:16:23.138Z</time><hdop>3.0</hdop><vdop>2.5</vdop><extensions><gom:speed>0.377</gom:speed></extensions></trkpt>
   <trkpt lat="59.3180090676" lon="34.6593626995"><ele>161.793</ele><time>2026-08-16T13:16:24.138Z</time><hdop>3.0</hdop><vdop>2.5</vdop><extensions><gom:speed>0.223</gom:speed></extensions></trkpt>
   <trkpt lat="59.3180086904" lon="34.6593627833"><ele>161.785</ele><time>2026-08-16T13:16:24.791Z</time><hdop>3.0</hdop><vdop>2.5</vdop><extensions><gom:speed>0.253</gom:speed></extensions></trkpt>
   <trkpt lat="59.3180055891" lon="34.6593614422"><ele>161.637</ele><time>2026-08-16T13:16:26.138Z</time><hdop>3.0</hdop><vdop>2.5</vdop><extensions><gom:speed>0.348</gom:speed></extensions></trkpt>
   <trkpt lat="59.3180016915" lon="34.6593561616"><ele>161.531</ele><time>2026-08-16T13:16:27.138Z</time><hdop>3.0</hdop><vdop>2.5</vdop><extensions><gom:speed>0.47</gom:speed></extensions></trkpt>
   <trkpt lat="59.3179991769" lon="34.6593530603"><ele>161.468</ele><time>2026-08-16T13:16:27.795Z</time><hdop>3.0</hdop><vdop>2.5</vdop><extensions><gom:speed>0.551</gom:speed></extensions></trkpt>
   <trkpt lat="59.3179925971" lon="34.6593442593"><ele>161.494</ele><time>2026-08-16T13:16:28.934Z</time><hdop>3.062</hdop><vdop>2.5</vdop><extensions><gom:speed>0.679</gom:speed></extensions></trkpt>
   <trkpt lat="59.3179858916" lon="34.6593151741"><ele>161.546</ele><time>2026-08-16T13:16:30.138Z</time><hdop>3.125</hdop><vdop>2.5</vdop><extensions><gom:speed>0.992</gom:speed></extensions></trkpt>
   <trkpt lat="59.3179789766" lon="34.6592964824"><ele>161.537</ele><time>2026-08-16T13:16:31.138Z</time><hdop>3.125</hdop><vdop>2.5</vdop><extensions><gom:speed>1.016</gom:speed></extensions></trkpt>
   <trkpt lat="59.3179703851" lon="34.6592849992"><ele>161.406</ele><time>2026-08-16T13:16:32.138Z</time><hdop>3.062</hdop><vdop>2.5</vdop><extensions><gom:speed>0.984</gom:speed></extensions></trkpt>
   <trkpt lat="59.3179658589" lon="34.6592800539"><ele>161.328</ele><time>2026-08-16T13:16:32.654Z</time><hdop>3.125</hdop><vdop>2.5</vdop><extensions><gom:speed>0.974</gom:speed></extensions></trkpt>
   <trkpt lat="59.3179602849" lon="34.6592791319"><ele>161.337</ele><time>2026-08-16T13:16:33.138Z</time><hdop>3.125</hdop><vdop>2.5</vdop><extensions><gom:speed>1.022</gom:speed></extensions></trkpt>
   <trkpt lat="59.3179537889" lon="34.6592708338"><ele>161.343</ele><time>2026-08-16T13:16:33.891Z</time><hdop>3.062</hdop><vdop>2.5</vdop><extensions><gom:speed>1.032</gom:speed></extensions></trkpt>
   <trkpt lat="59.3179482988" lon="34.6592746895"><ele>161.422</ele><time>2026-08-16T13:16:34.401Z</time><hdop>3.0</hdop><vdop>2.5</vdop><extensions><gom:speed>1.06</gom:speed></extensions></trkpt>
   <trkpt lat="59.3179392882" lon="34.6592609432"><ele>161.469</ele><time>2026-08-16T13:16:35.108Z</time><hdop>3.0</hdop><vdop>2.5</vdop><extensions><gom:speed>1.069</gom:speed></extensions></trkpt>
   <trkpt lat="59.3179249971" lon="34.6592684869"><ele>161.542</ele><time>2026-08-16T13:16:36.138Z</time><hdop>3.0</hdop><vdop>2.5</vdop><extensions><gom:speed>1.085</gom:speed></extensions></trkpt>
   <trkpt lat="59.3179148969" lon="34.6592689898"><ele>161.802</ele><time>2026-08-16T13:16:37.138Z</time><hdop>3.0</hdop><vdop>2.5</vdop><extensions><gom:speed>0.939</gom:speed></extensions></trkpt>
   <trkpt lat="59.3179108736" lon="34.6592664752"><ele>161.957</ele><time>2026-08-16T13:16:37.631Z</time><hdop>3.0</hdop><vdop>2.5</vdop><extensions><gom:speed>0.924</gom:speed></extensions></trkpt>
   <trkpt lat="59.3179081914" lon="34.6592642959"><ele>162.198</ele><time>2026-08-16T13:16:38.138Z</time><hdop>3.0</hdop><vdop>2.5</vdop><extensions><gom:speed>0.848</gom:speed></extensions></trkpt>
   <trkpt lat="59.3179071856" lon="34.6592597697"><ele>162.299</ele><time>2026-08-16T13:16:39.138Z</time><hdop>3.0</hdop><vdop>2.5</vdop><extensions><gom:speed>0.578</gom:speed></extensions></trkpt>
   <trkpt lat="59.3179054673" lon="34.6592599373"><ele>162.3</ele><time>2026-08-16T13:16:40.138Z</time><hdop>3.0</hdop><vdop>2.5</vdop><extensions><gom:speed>0.478</gom:speed></extensions></trkpt>
   <trkpt lat="59.3179038747" lon="34.6592611946"><ele>162.3</ele><time>2026-08-16T13:16:40.615Z</time><hdop>3.0</hdop><vdop>2.5</vdop><extensions><gom:speed>0.469</gom:speed></extensions></trkpt>
   <trkpt lat="59.3179007734" lon="34.6592632901"><ele>162.301</ele><time>2026-08-16T13:16:41.067Z</time><hdop>3.0</hdop><vdop>2.5</vdop><extensions><gom:speed>0.488</gom:speed></extensions></trkpt>
   <trkpt lat="59.3178962891" lon="34.6592692413"><ele>162.257</ele><time>2026-08-16T13:16:41.793Z</time><hdop>3.0</hdop><vdop>2.5</vdop><extensions><gom:speed>0.61</gom:speed></extensions></trkpt>
   <trkpt lat="59.3178911761" lon="34.6592734322"><ele>162.156</ele><time>2026-08-16T13:16:42.294Z</time><hdop>3.0</hdop><vdop>2.5</vdop><extensions><gom:speed>0.765</gom:speed></extensions></trkpt>
   <trkpt lat="59.3178855602" lon="34.6592779584"><ele>162.095</ele><time>2026-08-16T13:16:42.990Z</time><hdop>3.0</hdop><vdop>2.5</vdop><extensions><gom:speed>0.89</gom:speed></extensions></trkpt>
   <trkpt lat="59.3178803635" lon="34.6592775393"><ele>162.039</ele><time>2026-08-16T13:16:43.471Z</time><hdop>3.0</hdop><vdop>2.5</vdop><extensions><gom:speed>0.95</gom:speed></extensions></trkpt>
   <trkpt lat="59.3178735741" lon="34.6592752762"><ele>161.874</ele><time>2026-08-16T13:16:44.138Z</time><hdop>3.0</hdop><vdop>2.5</vdop><extensions><gom:speed>1.08</gom:speed></extensions></trkpt>
   <trkpt lat="59.3178620909" lon="34.6592718396"><ele>161.681</ele><time>2026-08-16T13:16:45.138Z</time><hdop>3.0</hdop><vdop>2.5</vdop><extensions><gom:speed>1.094</gom:speed></extensions></trkpt>
   <trkpt lat="59.3178549663" lon="34.6592705824"><ele>161.565</ele><time>2026-08-16T13:16:45.748Z</time><hdop>3.0</hdop><vdop>2.5</vdop><extensions><gom:speed>1.091</gom:speed></extensions></trkpt>
   <trkpt lat="59.3178471711" lon="34.6592652179"><ele>161.474</ele><time>2026-08-16T13:16:46.406Z</time><hdop>3.0</hdop><vdop>2.5</vdop><extensions><gom:speed>1.157</gom:speed></extensions></trkpt>
   <trkpt lat="59.3178385797" lon="34.6592611946"><ele>161.339</ele><time>2026-08-16T13:16:47.138Z</time><hdop>3.0</hdop><vdop>2.5</vdop><extensions><gom:speed>1.227</gom:speed></extensions></trkpt>
   <trkpt lat="59.3178251686" lon="34.6592598535"><ele>161.258</ele><time>2026-08-16T13:16:47.948Z</time><hdop>3.0</hdop><vdop>2.5</vdop><extensions><gom:speed>1.218</gom:speed></extensions></trkpt>
   <trkpt lat="59.3178155713" lon="34.659262871"><ele>161.115</ele><time>2026-08-16T13:16:49.138Z</time><hdop>3.0</hdop><vdop>2.5</vdop><extensions><gom:speed>1.192</gom:speed></extensions></trkpt>
   <trkpt lat="59.317810165" lon="34.6592704985"><ele>161.03</ele><time>2026-08-16T13:16:49.735Z</time><hdop>3.0</hdop><vdop>2.5</vdop><extensions><gom:speed>1.188</gom:speed></extensions></trkpt>
   <trkpt lat="59.317804172" lon="34.6592711691"><ele>160.876</ele><time>2026-08-16T13:16:50.275Z</time><hdop>3.0</hdop><vdop>2.5</vdop><extensions><gom:speed>1.189</gom:speed></extensions></trkpt>
   <trkpt lat="59.3177970893" lon="34.6592728455"><ele>160.784</ele><time>2026-08-16T13:16:50.874Z</time><hdop>3.0</hdop><vdop>2.5</vdop><extensions><gom:speed>1.202</gom:speed></extensions></trkpt>
   <trkpt lat="59.3177914734" lon="34.6592680678"><ele>160.808</ele><time>2026-08-16T13:16:51.375Z</time><hdop>3.0</hdop><vdop>2.5</vdop><extensions><gom:speed>1.215</gom:speed></extensions></trkpt>
   <trkpt lat="59.3177836782" lon="34.6592659723"><ele>160.823</ele><time>2026-08-16T13:16:52.032Z</time><hdop>3.0</hdop><vdop>2.5</vdop><extensions><gom:speed>1.226</gom:speed></extensions></trkpt>
   <trkpt lat="59.3177782719" lon="34.6592615299"><ele>160.854</ele><time>2026-08-16T13:16:52.533Z</time><hdop>3.0</hdop><vdop>2.5</vdop><extensions><gom:speed>1.22</gom:speed></extensions></trkpt>
   <trkpt lat="59.3177717759" lon="34.6592564169"><ele>160.828</ele><time>2026-08-16T13:16:53.138Z</time><hdop>3.0</hdop><vdop>2.5</vdop><extensions><gom:speed>1.232</gom:speed></extensions></trkpt>
   <trkpt lat="59.3177660762" lon="34.6592539862"><ele>160.812</ele><time>2026-08-16T13:16:53.632Z</time><hdop>3.0</hdop><vdop>2.5</vdop><extensions><gom:speed>1.231</gom:speed></extensions></trkpt>
   <trkpt lat="59.3177609632" lon="34.659250382"><ele>160.876</ele><time>2026-08-16T13:16:54.138Z</time><hdop>3.0</hdop><vdop>2.5</vdop><extensions><gom:speed>1.229</gom:speed></extensions></trkpt>
   <trkpt lat="59.3177538805" lon="34.6592478674"><ele>160.914</ele><time>2026-08-16T13:16:54.751Z</time><hdop>3.0</hdop><vdop>2.5</vdop><extensions><gom:speed>1.237</gom:speed></extensions></trkpt>
   <trkpt lat="59.3177400923" lon="34.6592413295"><ele>160.999</ele><time>2026-08-16T13:16:55.929Z</time><hdop>3.0</hdop><vdop>2.5</vdop><extensions><gom:speed>1.247</gom:speed></extensions></trkpt>
   <trkpt lat="59.3177294892" lon="34.6592377253"><ele>161.105</ele><time>2026-08-16T13:16:57.138Z</time><hdop>3.125</hdop><vdop>2.5</vdop><extensions><gom:speed>1.349</gom:speed></extensions></trkpt>
   <trkpt lat="59.3177260945" lon="34.6592431735"><ele>161.169</ele><time>2026-08-16T13:16:57.755Z</time><hdop>3.187</hdop><vdop>2.5</vdop><extensions><gom:speed>1.687</gom:speed></extensions></trkpt>
   <trkpt lat="59.3177191795" lon="34.6592361327"><ele>161.259</ele><time>2026-08-16T13:16:58.933Z</time><hdop>3.437</hdop><vdop>2.5</vdop><extensions><gom:speed>1.116</gom:speed></extensions></trkpt>
   <trkpt lat="59.3177060618" lon="34.6592178602"><ele>161.321</ele><time>2026-08-16T13:17:00.092Z</time><hdop>3.687</hdop><vdop>2.5</vdop><extensions><gom:speed>1.188</gom:speed></extensions></trkpt>
   <trkpt lat="59.3176979732" lon="34.6592139207"><ele>161.401</ele><time>2026-08-16T13:17:00.553Z</time><hdop>3.75</hdop><vdop>2.5</vdop><extensions><gom:speed>1.197</gom:speed></extensions></trkpt>
   <trkpt lat="59.317689759" lon="34.6592121605"><ele>161.51</ele><time>2026-08-16T13:17:01.138Z</time><hdop>3.75</hdop><vdop>2.5</vdop><extensions><gom:speed>1.201</gom:speed></extensions></trkpt>
   <trkpt lat="59.3176821734" lon="34.6592111547"><ele>161.575</ele><time>2026-08-16T13:17:01.713Z</time><hdop>3.75</hdop><vdop>2.5</vdop><extensions><gom:speed>1.193</gom:speed></extensions></trkpt>
   <trkpt lat="59.3176681756" lon="34.6592147589"><ele>161.661</ele><time>2026-08-16T13:17:02.792Z</time><hdop>3.75</hdop><vdop>2.5</vdop><extensions><gom:speed>1.226</gom:speed></extensions></trkpt>
   <trkpt lat="59.317654094" lon="34.6592191175"><ele>161.891</ele><time>2026-08-16T13:17:03.912Z</time><hdop>3.75</hdop><vdop>2.5</vdop><extensions><gom:speed>1.249</gom:speed></extensions></trkpt>
   <trkpt lat="59.3176390904" lon="34.6592208777"><ele>162.045</ele><time>2026-08-16T13:17:05.089Z</time><hdop>3.5</hdop><vdop>2.5</vdop><extensions><gom:speed>1.283</gom:speed></extensions></trkpt>
   <trkpt lat="59.3176308761" lon="34.6592220511"><ele>162.108</ele><time>2026-08-16T13:17:05.747Z</time><hdop>3.25</hdop><vdop>2.5</vdop><extensions><gom:speed>1.307</gom:speed></extensions></trkpt>
   <trkpt lat="59.3176256793" lon="34.659223057"><ele>162.137</ele><time>2026-08-16T13:17:06.209Z</time><hdop>3.187</hdop><vdop>2.5</vdop><extensions><gom:speed>1.258</gom:speed></extensions></trkpt>
   <trkpt lat="59.3176166688" lon="34.6592246495"><ele>162.155</ele><time>2026-08-16T13:17:06.955Z</time><hdop>3.125</hdop><vdop>2.5</vdop><extensions><gom:speed>1.253</gom:speed></extensions></trkpt>
   <trkpt lat="59.3176113882" lon="34.6592249848"><ele>162.123</ele><time>2026-08-16T13:17:07.436Z</time><hdop>3.125</hdop><vdop>2.5</vdop><extensions><gom:speed>1.235</gom:speed></extensions></trkpt>
   <trkpt lat="59.3176033835" lon="34.6592264935"><ele>162.04</ele><time>2026-08-16T13:17:08.138Z</time><hdop>3.062</hdop><vdop>2.5</vdop><extensions><gom:speed>1.237</gom:speed></extensions></trkpt>
   <trkpt lat="59.3175912716" lon="34.6592302654"><ele>161.89</ele><time>2026-08-16T13:17:09.137Z</time><hdop>3.0</hdop><vdop>2.5</vdop><extensions><gom:speed>1.216</gom:speed></extensions></trkpt>
   <trkpt lat="59.3175866616" lon="34.6592316903"><ele>161.8</ele><time>2026-08-16T13:17:09.733Z</time><hdop>3.0</hdop><vdop>2.5</vdop><extensions><gom:speed>1.588</gom:speed></extensions></trkpt>
   <trkpt lat="59.317580459" lon="34.6592345402"><ele>161.801</ele><time>2026-08-16T13:17:10.891Z</time><hdop>3.062</hdop><vdop>2.5</vdop><extensions><gom:speed>1.213</gom:speed></extensions></trkpt>
   <trkpt lat="59.3175689758" lon="34.6592275832"><ele>161.851</ele><time>2026-08-16T13:17:12.030Z</time><hdop>3.312</hdop><vdop>2.5</vdop><extensions><gom:speed>1.195</gom:speed></extensions></trkpt>
   <trkpt lat="59.3175580793" lon="34.659223057"><ele>161.837</ele><time>2026-08-16T13:17:12.707Z</time><hdop>3.5</hdop><vdop>2.5</vdop><extensions><gom:speed>1.182</gom:speed></extensions></trkpt>
   <trkpt lat="59.3175488592" lon="34.6592195366"><ele>161.752</ele><time>2026-08-16T13:17:13.188Z</time><hdop>3.562</hdop><vdop>2.5</vdop><extensions><gom:speed>1.25</gom:speed></extensions></trkpt>
   <trkpt lat="59.3175361606" lon="34.6592148427"><ele>161.716</ele><time>2026-08-16T13:17:14.138Z</time><hdop>3.625</hdop><vdop>2.5</vdop><extensions><gom:speed>1.24</gom:speed></extensions></trkpt>
   <trkpt lat="59.3175237973" lon="34.6592117414"><ele>161.766</ele><time>2026-08-16T13:17:15.137Z</time><hdop>3.625</hdop><vdop>2.5</vdop><extensions><gom:speed>1.203</gom:speed></extensions></trkpt>
   <trkpt lat="59.3175138647" lon="34.6591997553"><ele>161.704</ele><time>2026-08-16T13:17:16.137Z</time><hdop>3.437</hdop><vdop>2.5</vdop><extensions><gom:speed>1.241</gom:speed></extensions></trkpt>
   <trkpt lat="59.317502172" lon="34.6591939718"><ele>161.538</ele><time>2026-08-16T13:17:17.138Z</time><hdop>3.187</hdop><vdop>2.5</vdop><extensions><gom:speed>1.337</gom:speed></extensions></trkpt>
   <trkpt lat="59.3174884676" lon="34.6591894455"><ele>161.325</ele><time>2026-08-16T13:17:18.138Z</time><hdop>3.0</hdop><vdop>2.5</vdop><extensions><gom:speed>1.45</gom:speed></extensions></trkpt>
   <trkpt lat="59.3174764815" lon="34.6591858413"><ele>161.197</ele><time>2026-08-16T13:17:18.950Z</time><hdop>3.0</hdop><vdop>2.5</vdop><extensions><gom:speed>1.448</gom:speed></extensions></trkpt>
   <trkpt lat="59.3174679738" lon="34.659193385"><ele>161.027</ele><time>2026-08-16T13:17:19.569Z</time><hdop>3.0</hdop><vdop>2.5</vdop><extensions><gom:speed>1.418</gom:speed></extensions></trkpt>
   <trkpt lat="59.3174618969" lon="34.65919942"><ele>160.926</ele><time>2026-08-16T13:17:20.030Z</time><hdop>3.0</hdop><vdop>2.5</vdop><extensions><gom:speed>1.409</gom:speed></extensions></trkpt>
   <trkpt lat="59.3174489888" lon="34.6592157647"><ele>160.971</ele><time>2026-08-16T13:17:21.138Z</time><hdop>3.0</hdop><vdop>2.5</vdop><extensions><gom:speed>1.326</gom:speed></extensions></trkpt>
   <trkpt lat="59.3174406907" lon="34.6592252363"><ele>160.998</ele><time>2026-08-16T13:17:21.856Z</time><hdop>3.0</hdop><vdop>2.5</vdop><extensions><gom:speed>1.328</gom:speed></extensions></trkpt>
   <trkpt lat="59.3174358711" lon="34.6592306845"><ele>160.972</ele><time>2026-08-16T13:17:22.306Z</time><hdop>3.0</hdop><vdop>2.5</vdop><extensions><gom:speed>1.322</gom:speed></extensions></trkpt>
   <trkpt lat="59.3174271959" lon="34.6592414972"><ele>160.953</ele><time>2026-08-16T13:17:23.138Z</time><hdop>3.0</hdop><vdop>2.5</vdop><extensions><gom:speed>1.303</gom:speed></extensions></trkpt>
   <trkpt lat="59.3174170957" lon="34.6592561655"><ele>160.942</ele><time>2026-08-16T13:17:24.095Z</time><hdop>3.0</hdop><vdop>2.5</vdop><extensions><gom:speed>1.313</gom:speed></extensions></trkpt>
   <trkpt lat="59.3174123599" lon="34.659263793"><ele>160.88</ele><time>2026-08-16T13:17:24.615Z</time><hdop>3.0</hdop><vdop>2.5</vdop><extensions><gom:speed>1.318</gom:speed></extensions></trkpt>
   <trkpt lat="59.3174078756" lon="34.6592704985"><ele>160.809</ele><time>2026-08-16T13:17:25.138Z</time><hdop>3.0</hdop><vdop>2.5</vdop><extensions><gom:speed>1.283</gom:speed></extensions></trkpt>
   <trkpt lat="59.3174023854" lon="34.6592788804"><ele>160.767</ele><time>2026-08-16T13:17:25.733Z</time><hdop>3.0</hdop><vdop>2.5</vdop><extensions><gom:speed>1.282</gom:speed></extensions></trkpt>
   <trkpt lat="59.3173971887" lon="34.6592853345"><ele>160.824</ele><time>2026-08-16T13:17:26.333Z</time><hdop>3.0</hdop><vdop>2.5</vdop><extensions><gom:speed>1.252</gom:speed></extensions></trkpt>
   <trkpt lat="59.3173919919" lon="34.65929204"><ele>160.859</ele><time>2026-08-16T13:17:26.852Z</time><hdop>3.0</hdop><vdop>2.5</vdop><extensions><gom:speed>1.251</gom:speed></extensions></trkpt>
   <trkpt lat="59.3173855797" lon="34.6592991646"><ele>160.966</ele><time>2026-08-16T13:17:27.531Z</time><hdop>3.0</hdop><vdop>2.5</vdop><extensions><gom:speed>1.22</gom:speed></extensions></trkpt>
   <trkpt lat="59.3173810954" lon="34.6593046967"><ele>161.031</ele><time>2026-08-16T13:17:28.011Z</time><hdop>3.0</hdop><vdop>2.5</vdop><extensions><gom:speed>1.193</gom:speed></extensions></trkpt>
   <trkpt lat="59.3173748928" lon="34.6593122404"><ele>161.081</ele><time>2026-08-16T13:17:28.669Z</time><hdop>3.0</hdop><vdop>2.5</vdop><extensions><gom:speed>1.204</gom:speed></extensions></trkpt>
   <trkpt lat="59.3173703666" lon="34.6593166828"><ele>161.136</ele><time>2026-08-16T13:17:29.138Z</time><hdop>3.0</hdop><vdop>2.5</vdop><extensions><gom:speed>1.215</gom:speed></extensions></trkpt>
   <trkpt lat="59.3173630743" lon="34.6593246456"><ele>161.169</ele><time>2026-08-16T13:17:29.847Z</time><hdop>3.0</hdop><vdop>2.5</vdop><extensions><gom:speed>1.21</gom:speed></extensions></trkpt>
   <trkpt lat="59.3173579613" lon="34.6593286689"><ele>161.226</ele><time>2026-08-16T13:17:30.328Z</time><hdop>3.0</hdop><vdop>2.5</vdop><extensions><gom:speed>1.207</gom:speed></extensions></trkpt>
   <trkpt lat="59.317351172" lon="34.6593364641"><ele>161.26</ele><time>2026-08-16T13:17:30.996Z</time><hdop>3.0</hdop><vdop>2.5</vdop><extensions><gom:speed>1.216</gom:speed></extensions></trkpt>
   <trkpt lat="59.3173463943" lon="34.6593397331"><ele>161.266</ele><time>2026-08-16T13:17:31.467Z</time><hdop>3.0</hdop><vdop>2.5</vdop><extensions><gom:speed>1.199</gom:speed></extensions></trkpt>
   <trkpt lat="59.3173390602" lon="34.6593472768"><ele>161.27</ele><time>2026-08-16T13:17:32.135Z</time><hdop>3.0</hdop><vdop>2.5</vdop><extensions><gom:speed>1.227</gom:speed></extensions></trkpt>
   <trkpt lat="59.3173338634" lon="34.6593505457"><ele>161.276</ele><time>2026-08-16T13:17:32.616Z</time><hdop>3.0</hdop><vdop>2.5</vdop><extensions><gom:speed>1.213</gom:speed></extensions></trkpt>
   <trkpt lat="59.3173286666" lon="34.659353647"><ele>161.176</ele><time>2026-08-16T13:17:33.138Z</time><hdop>3.0</hdop><vdop>2.5</vdop><extensions><gom:speed>1.199</gom:speed></extensions></trkpt>
   <trkpt lat="59.3173216677" lon="34.6593594305"><ele>161.116</ele><time>2026-08-16T13:17:33.794Z</time><hdop>3.0</hdop><vdop>2.5</vdop><extensions><gom:speed>1.201</gom:speed></extensions></trkpt>
   <trkpt lat="59.317315968" lon="34.659364795"><ele>161.024</ele><time>2026-08-16T13:17:34.412Z</time><hdop>3.0</hdop><vdop>2.5</vdop><extensions><gom:speed>1.176</gom:speed></extensions></trkpt>
   <trkpt lat="59.3173109808" lon="34.6593709976"><ele>160.97</ele><time>2026-08-16T13:17:34.952Z</time><hdop>3.0</hdop><vdop>2.5</vdop><extensions><gom:speed>1.182</gom:speed></extensions></trkpt>
   <trkpt lat="59.3173061612" lon="34.6593765296"><ele>161.035</ele><time>2026-08-16T13:17:35.531Z</time><hdop>3.0</hdop><vdop>2.5</vdop><extensions><gom:speed>1.192</gom:speed></extensions></trkpt>
   <trkpt lat="59.3173018864" lon="34.6593825646"><ele>161.074</ele><time>2026-08-16T13:17:36.012Z</time><hdop>3.0</hdop><vdop>2.5</vdop><extensions><gom:speed>1.186</gom:speed></extensions></trkpt>
   <trkpt lat="59.3172956838" lon="34.6593867555"><ele>161.014</ele><time>2026-08-16T13:17:36.630Z</time><hdop>3.062</hdop><vdop>2.5</vdop><extensions><gom:speed>1.203</gom:speed></extensions></trkpt>
   <trkpt lat="59.3172905708" lon="34.6593912818"><ele>160.978</ele><time>2026-08-16T13:17:37.111Z</time><hdop>3.062</hdop><vdop>2.5</vdop><extensions><gom:speed>1.18</gom:speed></extensions></trkpt>
   <trkpt lat="59.3172786685" lon="34.6593928743"><ele>160.919</ele><time>2026-08-16T13:17:38.093Z</time><hdop>3.062</hdop><vdop>2.5</vdop><extensions><gom:speed>1.195</gom:speed></extensions></trkpt>
   <trkpt lat="59.3172675625" lon="34.6593918685"><ele>160.893</ele><time>2026-08-16T13:17:39.138Z</time><hdop>3.062</hdop><vdop>2.5</vdop><extensions><gom:speed>1.135</gom:speed></extensions></trkpt>
   <trkpt lat="59.3172590968" lon="34.6593950536"><ele>160.878</ele><time>2026-08-16T13:17:39.968Z</time><hdop>3.062</hdop><vdop>2.5</vdop><extensions><gom:speed>1.119</gom:speed></extensions></trkpt>
   <trkpt lat="59.317254361" lon="34.6593962271"><ele>160.874</ele><time>2026-08-16T13:17:40.488Z</time><hdop>3.062</hdop><vdop>2.5</vdop><extensions><gom:speed>1.122</gom:speed></extensions></trkpt>
   <trkpt lat="59.3172482841" lon="34.6593990769"><ele>160.791</ele><time>2026-08-16T13:17:41.137Z</time><hdop>3.062</hdop><vdop>2.5</vdop><extensions><gom:speed>1.141</gom:speed></extensions></trkpt>
   <trkpt lat="59.3172426683" lon="34.6594035193"><ele>160.741</ele><time>2026-08-16T13:17:41.696Z</time><hdop>3.0</hdop><vdop>2.5</vdop><extensions><gom:speed>1.144</gom:speed></extensions></trkpt>
   <trkpt lat="59.3172364657" lon="34.6594079618"><ele>160.653</ele><time>2026-08-16T13:17:42.334Z</time><hdop>3.0</hdop><vdop>2.5</vdop><extensions><gom:speed>1.145</gom:speed></extensions></trkpt>
   <trkpt lat="59.3172319813" lon="34.6594141644"><ele>160.601</ele><time>2026-08-16T13:17:42.833Z</time><hdop>3.0</hdop><vdop>2.5</vdop><extensions><gom:speed>1.144</gom:speed></extensions></trkpt>
   <trkpt lat="59.3172260721" lon="34.659418942"><ele>160.583</ele><time>2026-08-16T13:17:43.433Z</time><hdop>3.0</hdop><vdop>2.5</vdop><extensions><gom:speed>1.154</gom:speed></extensions></trkpt>
   <trkpt lat="59.3172211687" lon="34.6594242226"><ele>160.572</ele><time>2026-08-16T13:17:43.914Z</time><hdop>3.0</hdop><vdop>2.5</vdop><extensions><gom:speed>1.154</gom:speed></extensions></trkpt>
   <trkpt lat="59.3172130801" lon="34.659427743"><ele>160.567</ele><time>2026-08-16T13:17:44.611Z</time><hdop>3.0</hdop><vdop>2.5</vdop><extensions><gom:speed>1.175</gom:speed></extensions></trkpt>
   <trkpt lat="59.3172062908" lon="34.6594315987"><ele>160.571</ele><time>2026-08-16T13:17:45.138Z</time><hdop>3.0</hdop><vdop>2.5</vdop><extensions><gom:speed>1.261</gom:speed></extensions></trkpt>
   <trkpt lat="59.3171956877" lon="34.6594405674"><ele>160.573</ele><time>2026-08-16T13:17:46.034Z</time><hdop>3.0</hdop><vdop>2.5</vdop><extensions><gom:speed>1.283</gom:speed></extensions></trkpt>
   <trkpt lat="59.3171884793" lon="34.6594434172"><ele>160.694</ele><time>2026-08-16T13:17:46.574Z</time><hdop>3.0</hdop><vdop>2.5</vdop><extensions><gom:speed>1.283</gom:speed></extensions></trkpt>
   <trkpt lat="59.3171818995" lon="34.6594482787"><ele>160.766</ele><time>2026-08-16T13:17:47.075Z</time><hdop>3.0</hdop><vdop>2.5</vdop><extensions><gom:speed>1.284</gom:speed></extensions></trkpt>
   <trkpt lat="59.3171674826" lon="34.6594484463"><ele>160.962</ele><time>2026-08-16T13:17:48.138Z</time><hdop>3.0</hdop><vdop>2.5</vdop><extensions><gom:speed>1.29</gom:speed></extensions></trkpt>
   <trkpt lat="59.3171585978" lon="34.6594506256"><ele>161.079</ele><time>2026-08-16T13:17:48.812Z</time><hdop>3.0</hdop><vdop>2.5</vdop><extensions><gom:speed>1.305</gom:speed></extensions></trkpt>
   <trkpt lat="59.3171525628" lon="34.6594500389"><ele>161.213</ele><time>2026-08-16T13:17:49.274Z</time><hdop>3.0</hdop><vdop>2.5</vdop><extensions><gom:speed>1.287</gom:speed></extensions></trkpt>
   <trkpt lat="59.3171427979" lon="34.659453224"><ele>161.307</ele><time>2026-08-16T13:17:50.138Z</time><hdop>3.0</hdop><vdop>2.5</vdop><extensions><gom:speed>1.263</gom:speed></extensions></trkpt>
   <trkpt lat="59.3171317757" lon="34.6594589237"><ele>161.363</ele><time>2026-08-16T13:17:51.129Z</time><hdop>3.0</hdop><vdop>2.5</vdop><extensions><gom:speed>1.214</gom:speed></extensions></trkpt>
   <trkpt lat="59.3171265789" lon="34.6594590914"><ele>161.363</ele><time>2026-08-16T13:17:51.649Z</time><hdop>3.0</hdop><vdop>2.5</vdop><extensions><gom:speed>1.214</gom:speed></extensions></trkpt>
   <trkpt lat="59.3171217593" lon="34.6594587561"><ele>161.328</ele><time>2026-08-16T13:17:52.138Z</time><hdop>3.0</hdop><vdop>2.5</vdop><extensions><gom:speed>1.186</gom:speed></extensions></trkpt>
   <trkpt lat="59.3171143832" lon="34.6594599296"><ele>161.307</ele><time>2026-08-16T13:17:52.807Z</time><hdop>3.0</hdop><vdop>2.5</vdop><extensions><gom:speed>1.191</gom:speed></extensions></trkpt>
   <trkpt lat="59.3171068814" lon="34.6594597619"><ele>161.412</ele><time>2026-08-16T13:17:53.495Z</time><hdop>3.0</hdop><vdop>2.5</vdop><extensions><gom:speed>1.192</gom:speed></extensions></trkpt>
   <trkpt lat="59.3171015589" lon="34.6594607677"><ele>161.474</ele><time>2026-08-16T13:17:53.956Z</time><hdop>3.0</hdop><vdop>2.5</vdop><extensions><gom:speed>1.194</gom:speed></extensions></trkpt>
   <trkpt lat="59.3170939733" lon="34.6594609354"><ele>161.471</ele><time>2026-08-16T13:17:54.633Z</time><hdop>3.0</hdop><vdop>2.5</vdop><extensions><gom:speed>1.2</gom:speed></extensions></trkpt>
   <trkpt lat="59.3170886927" lon="34.6594618574"><ele>161.469</ele><time>2026-08-16T13:17:55.095Z</time><hdop>3.0</hdop><vdop>2.5</vdop><extensions><gom:speed>1.189</gom:speed></extensions></trkpt>
   <trkpt lat="59.3170818615" lon="34.6594628632"><ele>161.329</ele><time>2026-08-16T13:17:55.712Z</time><hdop>3.0</hdop><vdop>2.5</vdop><extensions><gom:speed>1.2</gom:speed></extensions></trkpt>
   <trkpt lat="59.317077461" lon="34.6594656292"><ele>161.261</ele><time>2026-08-16T13:17:56.214Z</time><hdop>3.0</hdop><vdop>2.5</vdop><extensions><gom:speed>1.162</gom:speed></extensions></trkpt>
   <trkpt lat="59.3170727671" lon="34.6594822254"><ele>161.104</ele><time>2026-08-16T13:17:57.138Z</time><hdop>3.0</hdop><vdop>2.5</vdop><extensions><gom:speed>1.244</gom:speed></extensions></trkpt>
   <trkpt lat="59.3170749883" lon="34.6594939601"><ele>161.01</ele><time>2026-08-16T13:17:57.588Z</time><hdop>3.0</hdop><vdop>2.5</vdop><extensions><gom:speed>1.253</gom:speed></extensions></trkpt>
   <trkpt lat="59.3170799755" lon="34.6595061977"><ele>161.136</ele><time>2026-08-16T13:17:58.138Z</time><hdop>3.0</hdop><vdop>2.5</vdop><extensions><gom:speed>1.175</gom:speed></extensions></trkpt>
   <trkpt lat="59.317082993" lon="34.6595231291"><ele>161.211</ele><time>2026-08-16T13:17:58.933Z</time><hdop>3.0</hdop><vdop>2.5</vdop><extensions><gom:speed>1.163</gom:speed></extensions></trkpt>
   <trkpt lat="59.3170805623" lon="34.6595180161"><ele>161.209</ele><time>2026-08-16T13:18:00.138Z</time><hdop>3.0</hdop><vdop>2.5</vdop><extensions><gom:speed>0.43</gom:speed></extensions></trkpt>
   <trkpt lat="59.3170802689" lon="34.6595144957"><ele>161.207</ele><time>2026-08-16T13:18:01.138Z</time><hdop>3.0</hdop><vdop>2.5</vdop><extensions><gom:speed>0.22</gom:speed></extensions></trkpt>
   <trkpt lat="59.3170821967" lon="34.6595131546"><ele>161.176</ele><time>2026-08-16T13:18:02.138Z</time><hdop>3.0</hdop><vdop>2.5</vdop><extensions><gom:speed>0.085</gom:speed></extensions></trkpt>
   <trkpt lat="59.3170848789" lon="34.6595124841"><ele>161.161</ele><time>2026-08-16T13:18:03.138Z</time><hdop>3.0</hdop><vdop>2.5</vdop><extensions><gom:speed>0.037</gom:speed></extensions></trkpt>
   <trkpt lat="59.317086681" lon="34.6595098857"><ele>161.166</ele><time>2026-08-16T13:18:04.137Z</time><hdop>3.0</hdop><vdop>2.5</vdop><extensions><gom:speed>0.084</gom:speed></extensions></trkpt>
   <trkpt lat="59.317086262" lon="34.65950603"><ele>161.085</ele><time>2026-08-16T13:18:05.137Z</time><hdop>3.0</hdop><vdop>2.5</vdop><extensions><gom:speed>0.169</gom:speed></extensions></trkpt>
   <trkpt lat="59.3170849628" lon="34.659504186"><ele>161.036</ele><time>2026-08-16T13:18:05.853Z</time><hdop>3.0</hdop><vdop>2.5</vdop><extensions><gom:speed>0.181</gom:speed></extensions></trkpt>
   <trkpt lat="59.3170759941" lon="34.6594983187"><ele>161.071</ele><time>2026-08-16T13:18:07.070Z</time><hdop>3.0</hdop><vdop>2.5</vdop><extensions><gom:speed>0.359</gom:speed></extensions></trkpt>
   <trkpt lat="59.3170639661" lon="34.6594961394"><ele>161.202</ele><time>2026-08-16T13:18:07.767Z</time><hdop>3.0</hdop><vdop>2.5</vdop><extensions><gom:speed>0.732</gom:speed></extensions></trkpt>
   <trkpt lat="59.3170553746" lon="34.6594947983"><ele>161.282</ele><time>2026-08-16T13:18:08.248Z</time><hdop>3.0</hdop><vdop>2.5</vdop><extensions><gom:speed>0.96</gom:speed></extensions></trkpt>
   <trkpt lat="59.3170469927" lon="34.6594966423"><ele>161.33</ele><time>2026-08-16T13:18:08.975Z</time><hdop>3.0</hdop><vdop>2.5</vdop><extensions><gom:speed>1.074</gom:speed></extensions></trkpt>
   <trkpt lat="59.317040371" lon="34.6594980672"><ele>161.443</ele><time>2026-08-16T13:18:09.435Z</time><hdop>3.0</hdop><vdop>2.5</vdop><extensions><gom:speed>1.115</gom:speed></extensions></trkpt>
   <trkpt lat="59.3170326597" lon="34.6595017552"><ele>161.51</ele><time>2026-08-16T13:18:10.094Z</time><hdop>3.0</hdop><vdop>2.5</vdop><extensions><gom:speed>1.178</gom:speed></extensions></trkpt>
   <trkpt lat="59.3170267924" lon="34.6595034316"><ele>161.528</ele><time>2026-08-16T13:18:10.555Z</time><hdop>3.0</hdop><vdop>2.5</vdop><extensions><gom:speed>1.184</gom:speed></extensions></trkpt>
   <trkpt lat="59.3170201706" lon="34.6595053595"><ele>161.496</ele><time>2026-08-16T13:18:11.138Z</time><hdop>3.0</hdop><vdop>2.5</vdop><extensions><gom:speed>1.186</gom:speed></extensions></trkpt>
   <trkpt lat="59.3170132975" lon="34.6595081255"><ele>161.476</ele><time>2026-08-16T13:18:11.733Z</time><hdop>3.0</hdop><vdop>2.5</vdop><extensions><gom:speed>1.176</gom:speed></extensions></trkpt>
   <trkpt lat="59.3169999703" lon="34.6595121488"><ele>161.437</ele><time>2026-08-16T13:18:12.891Z</time><hdop>3.0</hdop><vdop>2.5</vdop><extensions><gom:speed>1.206</gom:speed></extensions></trkpt>
   <trkpt lat="59.3169925942" lon="34.6595126517"><ele>161.447</ele><time>2026-08-16T13:18:13.510Z</time><hdop>3.0</hdop><vdop>2.5</vdop><extensions><gom:speed>1.235</gom:speed></extensions></trkpt>
   <trkpt lat="59.3169862658" lon="34.6595136576"><ele>161.454</ele><time>2026-08-16T13:18:14.010Z</time><hdop>3.0</hdop><vdop>2.5</vdop><extensions><gom:speed>1.251</gom:speed></extensions></trkpt>
   <trkpt lat="59.3169781773" lon="34.6595140766"><ele>161.408</ele><time>2026-08-16T13:18:14.688Z</time><hdop>3.0</hdop><vdop>2.5</vdop><extensions><gom:speed>1.282</gom:speed></extensions></trkpt>
   <trkpt lat="59.3169722681" lon="34.6595143281"><ele>161.304</ele><time>2026-08-16T13:18:15.138Z</time><hdop>3.0</hdop><vdop>2.5</vdop><extensions><gom:speed>1.268</gom:speed></extensions></trkpt>
   <trkpt lat="59.316964892" lon="34.6595158368"><ele>161.242</ele><time>2026-08-16T13:18:15.767Z</time><hdop>3.0</hdop><vdop>2.5</vdop><extensions><gom:speed>1.262</gom:speed></extensions></trkpt>
   <trkpt lat="59.3169594857" lon="34.6595150825"><ele>161.18</ele><time>2026-08-16T13:18:16.268Z</time><hdop>3.0</hdop><vdop>2.5</vdop><extensions><gom:speed>1.268</gom:speed></extensions></trkpt>
   <trkpt lat="59.316951481" lon="34.6595167589"><ele>161.143</ele><time>2026-08-16T13:18:16.936Z</time><hdop>3.0</hdop><vdop>2.5</vdop><extensions><gom:speed>1.266</gom:speed></extensions></trkpt>
   <trkpt lat="59.3169386985" lon="34.6595144957"><ele>161.077</ele><time>2026-08-16T13:18:18.138Z</time><hdop>3.0</hdop><vdop>2.5</vdop><extensions><gom:speed>1.239</gom:speed></extensions></trkpt>
   <trkpt lat="59.3169265867" lon="34.6595134899"><ele>161.038</ele><time>2026-08-16T13:18:19.134Z</time><hdop>3.0</hdop><vdop>2.5</vdop><extensions><gom:speed>1.234</gom:speed></extensions></trkpt>
   <trkpt lat="59.3169215995" lon="34.6595124841"><ele>160.932</ele><time>2026-08-16T13:18:19.596Z</time><hdop>3.0</hdop><vdop>2.5</vdop><extensions><gom:speed>1.235</gom:speed></extensions></trkpt>
   <trkpt lat="59.316915774" lon="34.6595114783"><ele>160.879</ele><time>2026-08-16T13:18:20.138Z</time><hdop>3.0</hdop><vdop>2.5</vdop><extensions><gom:speed>1.258</gom:speed></extensions></trkpt>
   <trkpt lat="59.3169103677" lon="34.659510221"><ele>160.847</ele><time>2026-08-16T13:18:20.607Z</time><hdop>3.0</hdop><vdop>2.5</vdop><extensions><gom:speed>1.26</gom:speed></extensions></trkpt>
   <trkpt lat="59.3169047938" lon="34.6595089637"><ele>160.842</ele><time>2026-08-16T13:18:21.138Z</time><hdop>3.0</hdop><vdop>2.5</vdop><extensions><gom:speed>1.216</gom:speed></extensions></trkpt>
   <trkpt lat="59.3168966633" lon="34.6595079579"><ele>160.839</ele><time>2026-08-16T13:18:21.834Z</time><hdop>3.0</hdop><vdop>2.5</vdop><extensions><gom:speed>1.222</gom:speed></extensions></trkpt>
   <trkpt lat="59.3168897901" lon="34.6595082931"><ele>160.872</ele><time>2026-08-16T13:18:22.452Z</time><hdop>3.0</hdop><vdop>2.5</vdop><extensions><gom:speed>1.249</gom:speed></extensions></trkpt>
   <trkpt lat="59.3168837971" lon="34.6595085446"><ele>160.892</ele><time>2026-08-16T13:18:22.933Z</time><hdop>3.0</hdop><vdop>2.5</vdop><extensions><gom:speed>1.252</gom:speed></extensions></trkpt>
   <trkpt lat="59.3168707632" lon="34.6595108915"><ele>160.966</ele><time>2026-08-16T13:18:24.033Z</time><hdop>3.0</hdop><vdop>2.5</vdop><extensions><gom:speed>1.285</gom:speed></extensions></trkpt>
   <trkpt lat="59.3168619622" lon="34.6595136576"><ele>161.031</ele><time>2026-08-16T13:18:24.769Z</time><hdop>3.0</hdop><vdop>2.5</vdop><extensions><gom:speed>1.275</gom:speed></extensions></trkpt>
   <trkpt lat="59.3168567654" lon="34.6595160883"><ele>161.07</ele><time>2026-08-16T13:18:25.250Z</time><hdop>3.0</hdop><vdop>2.5</vdop><extensions><gom:speed>1.238</gom:speed></extensions></trkpt>
   <trkpt lat="59.3168472939" lon="34.6595172618"><ele>161.093</ele><time>2026-08-16T13:18:25.995Z</time><hdop>3.0</hdop><vdop>2.5</vdop><extensions><gom:speed>1.233</gom:speed></extensions></trkpt>
   <trkpt lat="59.3168428934" lon="34.659520866"><ele>161.123</ele><time>2026-08-16T13:18:26.447Z</time><hdop>3.0</hdop><vdop>2.5</vdop><extensions><gom:speed>1.216</gom:speed></extensions></trkpt>
   <trkpt lat="59.3168345953" lon="34.6595218718"><ele>161.141</ele><time>2026-08-16T13:18:27.135Z</time><hdop>3.062</hdop><vdop>2.5</vdop><extensions><gom:speed>1.231</gom:speed></extensions></trkpt>
   <trkpt lat="59.3168301948" lon="34.6595234644"><ele>161.104</ele><time>2026-08-16T13:18:27.635Z</time><hdop>3.062</hdop><vdop>2.5</vdop><extensions><gom:speed>1.2</gom:speed></extensions></trkpt>
   <trkpt lat="59.3168262972" lon="34.6595237997"><ele>161.114</ele><time>2026-08-16T13:18:28.138Z</time><hdop>3.062</hdop><vdop>2.5</vdop><extensions><gom:speed>1.151</gom:speed></extensions></trkpt>
   <trkpt lat="59.3168190888" lon="34.6595209498"><ele>161.12</ele><time>2026-08-16T13:18:28.852Z</time><hdop>3.062</hdop><vdop>2.5</vdop><extensions><gom:speed>1.146</gom:speed></extensions></trkpt>
   <trkpt lat="59.3168121737" lon="34.6595240511"><ele>161.163</ele><time>2026-08-16T13:18:29.589Z</time><hdop>3.0</hdop><vdop>2.5</vdop><extensions><gom:speed>1.117</gom:speed></extensions></trkpt>
   <trkpt lat="59.3168102878" lon="34.6595251408"><ele>161.189</ele><time>2026-08-16T13:18:30.069Z</time><hdop>3.0</hdop><vdop>2.5</vdop><extensions><gom:speed>1.108</gom:speed></extensions></trkpt>
   <trkpt lat="59.3168002714" lon="34.6595348638"><ele>161.167</ele><time>2026-08-16T13:18:30.688Z</time><hdop>3.0</hdop><vdop>2.5</vdop><extensions><gom:speed>1.144</gom:speed></extensions></trkpt>
   <trkpt lat="59.3167959966" lon="34.6595410664"><ele>161.082</ele><time>2026-08-16T13:18:31.138Z</time><hdop>3.0</hdop><vdop>2.5</vdop><extensions><gom:speed>1.205</gom:speed></extensions></trkpt>
   <trkpt lat="59.3167890816" lon="34.6595479395"><ele>161.031</ele><time>2026-08-16T13:18:31.787Z</time><hdop>3.0</hdop><vdop>2.5</vdop><extensions><gom:speed>1.205</gom:speed></extensions></trkpt>
   <trkpt lat="59.3167833819" lon="34.6595546451"><ele>160.976</ele><time>2026-08-16T13:18:32.268Z</time><hdop>3.0</hdop><vdop>2.5</vdop><extensions><gom:speed>1.286</gom:speed></extensions></trkpt>
   <trkpt lat="59.3167770955" lon="34.6595603448"><ele>160.943</ele><time>2026-08-16T13:18:32.808Z</time><hdop>3.0</hdop><vdop>2.5</vdop><extensions><gom:speed>1.283</gom:speed></extensions></trkpt>
   <trkpt lat="59.3167711862" lon="34.6595649548"><ele>160.945</ele><time>2026-08-16T13:18:33.289Z</time><hdop>3.0</hdop><vdop>2.5</vdop><extensions><gom:speed>1.314</gom:speed></extensions></trkpt>
   <trkpt lat="59.316763894" lon="34.659569481"><ele>160.946</ele><time>2026-08-16T13:18:33.869Z</time><hdop>3.0</hdop><vdop>2.5</vdop><extensions><gom:speed>1.332</gom:speed></extensions></trkpt>
   <trkpt lat="59.3167508601" lon="34.6595756836"><ele>161.017</ele><time>2026-08-16T13:18:34.889Z</time><hdop>3.0</hdop><vdop>2.5</vdop><extensions><gom:speed>1.309</gom:speed></extensions></trkpt>
   <trkpt lat="59.3167442803" lon="34.6595777791"><ele>161.172</ele><time>2026-08-16T13:18:35.410Z</time><hdop>3.0</hdop><vdop>2.5</vdop><extensions><gom:speed>1.318</gom:speed></extensions></trkpt>
   <trkpt lat="59.3167372814" lon="34.659580629"><ele>161.264</ele><time>2026-08-16T13:18:35.950Z</time><hdop>3.0</hdop><vdop>2.5</vdop><extensions><gom:speed>1.319</gom:speed></extensions></trkpt>
   <trkpt lat="59.3167293605" lon="34.6595834788"><ele>161.288</ele><time>2026-08-16T13:18:36.588Z</time><hdop>3.0</hdop><vdop>2.5</vdop><extensions><gom:speed>1.306</gom:speed></extensions></trkpt>
   <trkpt lat="59.3167234932" lon="34.6595863287"><ele>161.246</ele><time>2026-08-16T13:18:37.138Z</time><hdop>3.0</hdop><vdop>2.5</vdop><extensions><gom:speed>1.268</gom:speed></extensions></trkpt>
   <trkpt lat="59.3167174582" lon="34.6595909387"><ele>161.221</ele><time>2026-08-16T13:18:37.668Z</time><hdop>3.0</hdop><vdop>2.5</vdop><extensions><gom:speed>1.268</gom:speed></extensions></trkpt>
   <trkpt lat="59.316712471" lon="34.6595923636"><ele>161.281</ele><time>2026-08-16T13:18:38.137Z</time><hdop>3.0</hdop><vdop>2.5</vdop><extensions><gom:speed>1.265</gom:speed></extensions></trkpt>
   <trkpt lat="59.3167038795" lon="34.6595937885"><ele>161.317</ele><time>2026-08-16T13:18:38.855Z</time><hdop>3.0</hdop><vdop>2.5</vdop><extensions><gom:speed>1.269</gom:speed></extensions></trkpt>
   <trkpt lat="59.3166912648" lon="34.6595947944"><ele>161.415</ele><time>2026-08-16T13:18:39.974Z</time><hdop>3.0</hdop><vdop>2.5</vdop><extensions><gom:speed>1.269</gom:speed></extensions></trkpt>
   <trkpt lat="59.3166778956" lon="34.6595970575"><ele>161.522</ele><time>2026-08-16T13:18:41.113Z</time><hdop>3.0</hdop><vdop>2.5</vdop><extensions><gom:speed>1.279</gom:speed></extensions></trkpt>
   <trkpt lat="59.316667083" lon="34.6596014999"><ele>161.69</ele><time>2026-08-16T13:18:42.138Z</time><hdop>3.0</hdop><vdop>2.5</vdop><extensions><gom:speed>1.299</gom:speed></extensions></trkpt>
   <trkpt lat="59.3166557674" lon="34.659607032"><ele>161.799</ele><time>2026-08-16T13:18:43.138Z</time><hdop>3.0</hdop><vdop>2.5</vdop><extensions><gom:speed>1.258</gom:speed></extensions></trkpt>
   <trkpt lat="59.3166456672" lon="34.6596127316"><ele>161.847</ele><time>2026-08-16T13:18:44.138Z</time><hdop>3.0</hdop><vdop>2.5</vdop><extensions><gom:speed>1.19</gom:speed></extensions></trkpt>
   <trkpt lat="59.3166402609" lon="34.6596143242"><ele>161.877</ele><time>2026-08-16T13:18:44.647Z</time><hdop>3.0</hdop><vdop>2.5</vdop><extensions><gom:speed>1.183</gom:speed></extensions></trkpt>
   <trkpt lat="59.3166365728" lon="34.6596169226"><ele>161.848</ele><time>2026-08-16T13:18:45.138Z</time><hdop>3.0</hdop><vdop>2.5</vdop><extensions><gom:speed>1.12</gom:speed></extensions></trkpt>
   <trkpt lat="59.3166296997" lon="34.6596201915"><ele>161.83</ele><time>2026-08-16T13:18:45.856Z</time><hdop>3.0</hdop><vdop>2.5</vdop><extensions><gom:speed>1.12</gom:speed></extensions></trkpt>
   <trkpt lat="59.3166177974" lon="34.6596281543"><ele>161.847</ele><time>2026-08-16T13:18:47.034Z</time><hdop>3.0</hdop><vdop>2.5</vdop><extensions><gom:speed>1.122</gom:speed></extensions></trkpt>
   <trkpt lat="59.3166111757" lon="34.6596373744"><ele>161.815</ele><time>2026-08-16T13:18:47.770Z</time><hdop>3.0</hdop><vdop>2.5</vdop><extensions><gom:speed>1.138</gom:speed></extensions></trkpt>
   <trkpt lat="59.316607781" lon="34.6596438285"><ele>161.703</ele><time>2026-08-16T13:18:48.231Z</time><hdop>3.0</hdop><vdop>2.5</vdop><extensions><gom:speed>1.083</gom:speed></extensions></trkpt>
   <trkpt lat="59.3166019975" lon="34.6596521266"><ele>161.636</ele><time>2026-08-16T13:18:48.909Z</time><hdop>3.0</hdop><vdop>2.5</vdop><extensions><gom:speed>1.099</gom:speed></extensions></trkpt>
   <trkpt lat="59.3165986866" lon="34.6596603409"><ele>161.598</ele><time>2026-08-16T13:18:49.448Z</time><hdop>3.0</hdop><vdop>2.5</vdop><extensions><gom:speed>1.057</gom:speed></extensions></trkpt>
   <trkpt lat="59.3165946633" lon="34.6596686389"><ele>161.575</ele><time>2026-08-16T13:18:50.067Z</time><hdop>3.0</hdop><vdop>2.5</vdop><extensions><gom:speed>1.017</gom:speed></extensions></trkpt>
   <trkpt lat="59.3165912687" lon="34.6596756797"><ele>161.528</ele><time>2026-08-16T13:18:50.656Z</time><hdop>3.0</hdop><vdop>2.5</vdop><extensions><gom:speed>1.001</gom:speed></extensions></trkpt>
   <trkpt lat="59.316587874" lon="34.6596795354"><ele>161.321</ele><time>2026-08-16T13:18:51.138Z</time><hdop>3.0</hdop><vdop>2.5</vdop><extensions><gom:speed>1.014</gom:speed></extensions></trkpt>
   <trkpt lat="59.3165819647" lon="34.6596864924"><ele>161.198</ele><time>2026-08-16T13:18:51.853Z</time><hdop>3.0</hdop><vdop>2.5</vdop><extensions><gom:speed>1.026</gom:speed></extensions></trkpt>
   <trkpt lat="59.3165741696" lon="34.6596889231"><ele>161.118</ele><time>2026-08-16T13:18:52.550Z</time><hdop>3.0</hdop><vdop>2.5</vdop><extensions><gom:speed>1.08</gom:speed></extensions></trkpt>
   <trkpt lat="59.3165687633" lon="34.6596920245"><ele>161.07</ele><time>2026-08-16T13:18:53.031Z</time><hdop>3.0</hdop><vdop>2.5</vdop><extensions><gom:speed>1.139</gom:speed></extensions></trkpt>
   <trkpt lat="59.3165615967" lon="34.6596969698"><ele>160.998</ele><time>2026-08-16T13:18:53.650Z</time><hdop>3.0</hdop><vdop>2.5</vdop><extensions><gom:speed>1.177</gom:speed></extensions></trkpt>
   <trkpt lat="59.3165560647" lon="34.6597017475"><ele>160.955</ele><time>2026-08-16T13:18:54.111Z</time><hdop>3.0</hdop><vdop>2.5</vdop><extensions><gom:speed>1.209</gom:speed></extensions></trkpt>
   <trkpt lat="59.3165445815" lon="34.6597086206"><ele>160.912</ele><time>2026-08-16T13:18:55.138Z</time><hdop>3.0</hdop><vdop>2.5</vdop><extensions><gom:speed>1.249</gom:speed></extensions></trkpt>
   <trkpt lat="59.3165352775" lon="34.6597155776"><ele>160.886</ele><time>2026-08-16T13:18:55.908Z</time><hdop>3.0</hdop><vdop>2.5</vdop><extensions><gom:speed>1.276</gom:speed></extensions></trkpt>
   <trkpt lat="59.3165237943" lon="34.6597239595"><ele>160.923</ele><time>2026-08-16T13:18:56.968Z</time><hdop>3.0</hdop><vdop>2.5</vdop><extensions><gom:speed>1.235</gom:speed></extensions></trkpt>
   <trkpt lat="59.3165133589" lon="34.6597347722"><ele>160.984</ele><time>2026-08-16T13:18:58.067Z</time><hdop>3.0</hdop><vdop>2.5</vdop><extensions><gom:speed>1.168</gom:speed></extensions></trkpt>
   <trkpt lat="59.3165090841" lon="34.6597421482"><ele>160.943</ele><time>2026-08-16T13:18:58.656Z</time><hdop>3.0</hdop><vdop>2.5</vdop><extensions><gom:speed>1.167</gom:speed></extensions></trkpt>
   <trkpt lat="59.3165059828" lon="34.6597469259"><ele>160.917</ele><time>2026-08-16T13:18:59.138Z</time><hdop>3.0</hdop><vdop>2.5</vdop><extensions><gom:speed>1.117</gom:speed></extensions></trkpt>
   <trkpt lat="59.3165006603" lon="34.6597547211"><ele>160.901</ele><time>2026-08-16T13:18:59.795Z</time><hdop>3.0</hdop><vdop>2.5</vdop><extensions><gom:speed>1.115</gom:speed></extensions></trkpt>
   <trkpt lat="59.3164952959" lon="34.6597618457"><ele>160.933</ele><time>2026-08-16T13:19:00.433Z</time><hdop>3.0</hdop><vdop>2.5</vdop><extensions><gom:speed>1.122</gom:speed></extensions></trkpt>
   <trkpt lat="59.3164907696" lon="34.6597682998"><ele>160.952</ele><time>2026-08-16T13:19:00.933Z</time><hdop>3.0</hdop><vdop>2.5</vdop><extensions><gom:speed>1.133</gom:speed></extensions></trkpt>
   <trkpt lat="59.3164853633" lon="34.6597756758"><ele>160.968</ele><time>2026-08-16T13:19:01.552Z</time><hdop>3.0</hdop><vdop>2.5</vdop><extensions><gom:speed>1.158</gom:speed></extensions></trkpt>
   <trkpt lat="59.3164804599" lon="34.6597814594"><ele>160.978</ele><time>2026-08-16T13:19:02.051Z</time><hdop>3.0</hdop><vdop>2.5</vdop><extensions><gom:speed>1.169</gom:speed></extensions></trkpt>
   <trkpt lat="59.3164737963" lon="34.6597874943"><ele>160.964</ele><time>2026-08-16T13:19:02.710Z</time><hdop>3.0</hdop><vdop>2.5</vdop><extensions><gom:speed>1.184</gom:speed></extensions></trkpt>
   <trkpt lat="59.3164688929" lon="34.6597926911"><ele>160.936</ele><time>2026-08-16T13:19:03.191Z</time><hdop>3.0</hdop><vdop>2.5</vdop><extensions><gom:speed>1.215</gom:speed></extensions></trkpt>
   <trkpt lat="59.3164626903" lon="34.6598002348"><ele>160.919</ele><time>2026-08-16T13:19:03.810Z</time><hdop>3.0</hdop><vdop>2.5</vdop><extensions><gom:speed>1.202</gom:speed></extensions></trkpt>
   <trkpt lat="59.316458164" lon="34.6598075271"><ele>160.925</ele><time>2026-08-16T13:19:04.330Z</time><hdop>3.0</hdop><vdop>2.5</vdop><extensions><gom:speed>1.219</gom:speed></extensions></trkpt>
   <trkpt lat="59.3164503689" lon="34.6598176692"><ele>160.928</ele><time>2026-08-16T13:19:05.096Z</time><hdop>3.0</hdop><vdop>2.5</vdop><extensions><gom:speed>1.21</gom:speed></extensions></trkpt>
   <trkpt lat="59.3164416936" lon="34.6598298229"><ele>160.91</ele><time>2026-08-16T13:19:06.138Z</time><hdop>3.0</hdop><vdop>2.5</vdop><extensions><gom:speed>1.2</gom:speed></extensions></trkpt>
   <trkpt lat="59.3164369997" lon="34.6598368637"><ele>160.899</ele><time>2026-08-16T13:19:06.656Z</time><hdop>3.0</hdop><vdop>2.5</vdop><extensions><gom:speed>1.208</gom:speed></extensions></trkpt>
   <trkpt lat="59.3164333955" lon="34.6598428987"><ele>160.89</ele><time>2026-08-16T13:19:07.138Z</time><hdop>3.0</hdop><vdop>2.5</vdop><extensions><gom:speed>1.181</gom:speed></extensions></trkpt>
   <trkpt lat="59.3164272767" lon="34.659852957"><ele>160.885</ele><time>2026-08-16T13:19:07.873Z</time><hdop>3.0</hdop><vdop>2.5</vdop><extensions><gom:speed>1.183</gom:speed></extensions></trkpt>
   <trkpt lat="59.3164216609" lon="34.6598614227"><ele>160.809</ele><time>2026-08-16T13:19:08.590Z</time><hdop>3.0</hdop><vdop>2.5</vdop><extensions><gom:speed>1.156</gom:speed></extensions></trkpt>
   <trkpt lat="59.3164170927" lon="34.6598670386"><ele>160.764</ele><time>2026-08-16T13:19:09.091Z</time><hdop>3.0</hdop><vdop>2.5</vdop><extensions><gom:speed>1.146</gom:speed></extensions></trkpt>
   <trkpt lat="59.3164108901" lon="34.659875169"><ele>160.641</ele><time>2026-08-16T13:19:09.807Z</time><hdop>3.0</hdop><vdop>2.5</vdop><extensions><gom:speed>1.16</gom:speed></extensions></trkpt>
   <trkpt lat="59.3164064896" lon="34.6598813716"><ele>160.534</ele><time>2026-08-16T13:19:10.328Z</time><hdop>3.0</hdop><vdop>2.5</vdop><extensions><gom:speed>1.178</gom:speed></extensions></trkpt>
   <trkpt lat="59.3164006642" lon="34.6598884963"><ele>160.47</ele><time>2026-08-16T13:19:10.917Z</time><hdop>3.0</hdop><vdop>2.5</vdop><extensions><gom:speed>1.172</gom:speed></extensions></trkpt>
   <trkpt lat="59.3163971857" lon="34.6598954532"><ele>160.449</ele><time>2026-08-16T13:19:11.407Z</time><hdop>3.0</hdop><vdop>2.5</vdop><extensions><gom:speed>1.197</gom:speed></extensions></trkpt>
   <trkpt lat="59.3163908993" lon="34.6599052601"><ele>160.437</ele><time>2026-08-16T13:19:12.075Z</time><hdop>3.0</hdop><vdop>2.5</vdop><extensions><gom:speed>1.22</gom:speed></extensions></trkpt>
   <trkpt lat="59.316387798" lon="34.6599134743"><ele>160.436</ele><time>2026-08-16T13:19:12.556Z</time><hdop>3.0</hdop><vdop>2.5</vdop><extensions><gom:speed>1.201</gom:speed></extensions></trkpt>
   <trkpt lat="59.3163844871" lon="34.6599246223"><ele>160.411</ele><time>2026-08-16T13:19:13.138Z</time><hdop>3.0</hdop><vdop>2.5</vdop><extensions><gom:speed>1.22</gom:speed></extensions></trkpt>
   <trkpt lat="59.3163818887" lon="34.6599374466"><ele>160.397</ele><time>2026-08-16T13:19:13.734Z</time><hdop>3.0</hdop><vdop>2.5</vdop><extensions><gom:speed>1.22</gom:speed></extensions></trkpt>
   <trkpt lat="59.3163810924" lon="34.6599524502"><ele>160.499</ele><time>2026-08-16T13:19:14.352Z</time><hdop>3.0</hdop><vdop>2.5</vdop><extensions><gom:speed>1.236</gom:speed></extensions></trkpt>
   <trkpt lat="59.3163805895" lon="34.6599651907"><ele>160.561</ele><time>2026-08-16T13:19:14.872Z</time><hdop>3.0</hdop><vdop>2.5</vdop><extensions><gom:speed>1.225</gom:speed></extensions></trkpt>
   <trkpt lat="59.316381763" lon="34.6599801943"><ele>160.671</ele><time>2026-08-16T13:19:15.550Z</time><hdop>3.0</hdop><vdop>2.5</vdop><extensions><gom:speed>1.193</gom:speed></extensions></trkpt>
   <trkpt lat="59.3163834813" lon="34.6599925995"><ele>160.786</ele><time>2026-08-16T13:19:16.138Z</time><hdop>3.0</hdop><vdop>2.5</vdop><extensions><gom:speed>1.18</gom:speed></extensions></trkpt>
   <trkpt lat="59.316387295" lon="34.6600131352"><ele>160.954</ele><time>2026-08-16T13:19:17.138Z</time><hdop>3.0</hdop><vdop>2.5</vdop><extensions><gom:speed>1.165</gom:speed></extensions></trkpt>
   <trkpt lat="59.3163941682" lon="34.6600314915"><ele>161.055</ele><time>2026-08-16T13:19:18.131Z</time><hdop>3.0</hdop><vdop>2.5</vdop><extensions><gom:speed>1.158</gom:speed></extensions></trkpt>
   <trkpt lat="59.3163977724" lon="34.6600358501"><ele>161.078</ele><time>2026-08-16T13:19:18.612Z</time><hdop>3.0</hdop><vdop>2.5</vdop><extensions><gom:speed>1.115</gom:speed></extensions></trkpt>
   <trkpt lat="59.316400287" lon="34.660042388"><ele>160.978</ele><time>2026-08-16T13:19:19.138Z</time><hdop>3.0</hdop><vdop>2.5</vdop><extensions><gom:speed>1.08</gom:speed></extensions></trkpt>
   <trkpt lat="59.3164022987" lon="34.6600532845"><ele>160.918</ele><time>2026-08-16T13:19:19.751Z</time><hdop>3.0</hdop><vdop>2.5</vdop><extensions><gom:speed>1.081</gom:speed></extensions></trkpt>
   <trkpt lat="59.3164028854" lon="34.6600662764"><ele>160.925</ele><time>2026-08-16T13:19:20.428Z</time><hdop>3.0</hdop><vdop>2.5</vdop><extensions><gom:speed>1.099</gom:speed></extensions></trkpt>
   <trkpt lat="59.3164034721" lon="34.6600769214"><ele>160.929</ele><time>2026-08-16T13:19:20.929Z</time><hdop>3.0</hdop><vdop>2.5</vdop><extensions><gom:speed>1.101</gom:speed></extensions></trkpt>
   <trkpt lat="59.3164028854" lon="34.660095194"><ele>161.056</ele><time>2026-08-16T13:19:21.655Z</time><hdop>3.0</hdop><vdop>2.5</vdop><extensions><gom:speed>1.207</gom:speed></extensions></trkpt>
   <trkpt lat="59.3164012928" lon="34.6601063419"><ele>161.135</ele><time>2026-08-16T13:19:22.138Z</time><hdop>3.0</hdop><vdop>2.5</vdop><extensions><gom:speed>1.235</gom:speed></extensions></trkpt>
   <trkpt lat="59.3163991974" lon="34.6601232734"><ele>161.181</ele><time>2026-08-16T13:19:22.833Z</time><hdop>3.0</hdop><vdop>2.5</vdop><extensions><gom:speed>1.24</gom:speed></extensions></trkpt>
   <trkpt lat="59.3163954674" lon="34.6601336669"><ele>161.273</ele><time>2026-08-16T13:19:23.412Z</time><hdop>3.0</hdop><vdop>2.5</vdop><extensions><gom:speed>1.188</gom:speed></extensions></trkpt>
   <trkpt lat="59.3163918632" lon="34.6601472456"><ele>161.27</ele><time>2026-08-16T13:19:24.138Z</time><hdop>3.0</hdop><vdop>2.5</vdop><extensions><gom:speed>1.153</gom:speed></extensions></trkpt>
   <trkpt lat="59.3163898934" lon="34.6601568848"><ele>161.268</ele><time>2026-08-16T13:19:24.610Z</time><hdop>3.0</hdop><vdop>2.5</vdop><extensions><gom:speed>1.146</gom:speed></extensions></trkpt>
   <trkpt lat="59.3163881751" lon="34.6601661887"><ele>161.293</ele><time>2026-08-16T13:19:25.138Z</time><hdop>3.0</hdop><vdop>2.5</vdop><extensions><gom:speed>1.076</gom:speed></extensions></trkpt>
   <trkpt lat="59.3163857863" lon="34.6601803541"><ele>161.308</ele><time>2026-08-16T13:19:25.876Z</time><hdop>3.0</hdop><vdop>2.5</vdop><extensions><gom:speed>1.082</gom:speed></extensions></trkpt>
   <trkpt lat="59.3163818887" lon="34.6601902448"><ele>161.42</ele><time>2026-08-16T13:19:26.572Z</time><hdop>3.0</hdop><vdop>2.5</vdop><extensions><gom:speed>1.1</gom:speed></extensions></trkpt>
   <trkpt lat="59.3163788712" lon="34.6602001354"><ele>161.487</ele><time>2026-08-16T13:19:27.074Z</time><hdop>3.0</hdop><vdop>2.5</vdop><extensions><gom:speed>1.147</gom:speed></extensions></trkpt>
   <trkpt lat="59.3163743869" lon="34.6602096908"><ele>161.549</ele><time>2026-08-16T13:19:27.732Z</time><hdop>3.0</hdop><vdop>2.5</vdop><extensions><gom:speed>1.136</gom:speed></extensions></trkpt>
   <trkpt lat="59.316370196" lon="34.6602156419"><ele>161.54</ele><time>2026-08-16T13:19:28.271Z</time><hdop>3.0</hdop><vdop>2.5</vdop><extensions><gom:speed>1.162</gom:speed></extensions></trkpt>
   <trkpt lat="59.3163631971" lon="34.6602263708"><ele>161.552</ele><time>2026-08-16T13:19:29.138Z</time><hdop>3.0</hdop><vdop>2.5</vdop><extensions><gom:speed>1.183</gom:speed></extensions></trkpt>
   <trkpt lat="59.3163534741" lon="34.6602388598"><ele>161.558</ele><time>2026-08-16T13:19:30.107Z</time><hdop>3.0</hdop><vdop>2.5</vdop><extensions><gom:speed>1.166</gom:speed></extensions></trkpt>
   <trkpt lat="59.3163482773" lon="34.6602408715"><ele>161.436</ele><time>2026-08-16T13:19:30.627Z</time><hdop>3.0</hdop><vdop>2.5</vdop><extensions><gom:speed>1.174</gom:speed></extensions></trkpt>
   <trkpt lat="59.3163438768" lon="34.660243386"><ele>161.248</ele><time>2026-08-16T13:19:31.138Z</time><hdop>3.0</hdop><vdop>2.5</vdop><extensions><gom:speed>1.119</gom:speed></extensions></trkpt>
   <trkpt lat="59.3163380933" lon="34.6602479961"><ele>161.136</ele><time>2026-08-16T13:19:31.776Z</time><hdop>3.0</hdop><vdop>2.5</vdop><extensions><gom:speed>1.115</gom:speed></extensions></trkpt>
   <trkpt lat="59.3163276997" lon="34.6602597308"><ele>161.126</ele><time>2026-08-16T13:19:32.954Z</time><hdop>3.0</hdop><vdop>2.5</vdop><extensions><gom:speed>1.116</gom:speed></extensions></trkpt>
   <trkpt lat="59.3163227963" lon="34.6602694538"><ele>161.115</ele><time>2026-08-16T13:19:33.651Z</time><hdop>3.0</hdop><vdop>2.5</vdop><extensions><gom:speed>1.114</gom:speed></extensions></trkpt>
   <trkpt lat="59.3163198626" lon="34.6602768298"><ele>161.088</ele><time>2026-08-16T13:19:34.138Z</time><hdop>3.0</hdop><vdop>2.5</vdop><extensions><gom:speed>1.135</gom:speed></extensions></trkpt>
   <trkpt lat="59.3163139953" lon="34.6602869719"><ele>161.071</ele><time>2026-08-16T13:19:34.848Z</time><hdop>3.0</hdop><vdop>2.5</vdop><extensions><gom:speed>1.14</gom:speed></extensions></trkpt>
   <trkpt lat="59.316306284" lon="34.6602891512"><ele>161.103</ele><time>2026-08-16T13:19:35.691Z</time><hdop>3.0</hdop><vdop>2.5</vdop><extensions><gom:speed>1.115</gom:speed></extensions></trkpt>
   <trkpt lat="59.3163018835" lon="34.6602886483"><ele>161.047</ele><time>2026-08-16T13:19:36.193Z</time><hdop>3.0</hdop><vdop>2.5</vdop><extensions><gom:speed>1.173</gom:speed></extensions></trkpt>
   <trkpt lat="59.3162934596" lon="34.6602951862"><ele>160.937</ele><time>2026-08-16T13:19:37.138Z</time><hdop>3.0</hdop><vdop>2.5</vdop><extensions><gom:speed>1.134</gom:speed></extensions></trkpt>
   <trkpt lat="59.3162882629" lon="34.6603011374"><ele>160.871</ele><time>2026-08-16T13:19:37.734Z</time><hdop>3.0</hdop><vdop>2.5</vdop><extensions><gom:speed>1.131</gom:speed></extensions></trkpt>
   <trkpt lat="59.3162848682" lon="34.6603159733"><ele>160.859</ele><time>2026-08-16T13:19:38.392Z</time><hdop>3.0</hdop><vdop>2.5</vdop><extensions><gom:speed>1.167</gom:speed></extensions></trkpt>
   <trkpt lat="59.3162804677" lon="34.6603229303"><ele>160.852</ele><time>2026-08-16T13:19:38.912Z</time><hdop>3.0</hdop><vdop>2.5</vdop><extensions><gom:speed>1.172</gom:speed></extensions></trkpt>
   <trkpt lat="59.3162727983" lon="34.6603467349"><ele>160.893</ele><time>2026-08-16T13:19:40.070Z</time><hdop>3.0</hdop><vdop>2.5</vdop><extensions><gom:speed>1.14</gom:speed></extensions></trkpt>
   <trkpt lat="59.3162689845" lon="34.6603674382"><ele>160.87</ele><time>2026-08-16T13:19:40.767Z</time><hdop>3.0</hdop><vdop>2.5</vdop><extensions><gom:speed>1.144</gom:speed></extensions></trkpt>
   <trkpt lat="59.316266889" lon="34.6603843697"><ele>160.822</ele><time>2026-08-16T13:19:41.288Z</time><hdop>3.0</hdop><vdop>2.5</vdop><extensions><gom:speed>1.149</gom:speed></extensions></trkpt>
   <trkpt lat="59.3162637877" lon="34.6603960205"><ele>160.792</ele><time>2026-08-16T13:19:41.847Z</time><hdop>3.0</hdop><vdop>2.5</vdop><extensions><gom:speed>1.144</gom:speed></extensions></trkpt>
   <trkpt lat="59.3162611893" lon="34.6604097668"><ele>160.789</ele><time>2026-08-16T13:19:42.436Z</time><hdop>3.0</hdop><vdop>2.5</vdop><extensions><gom:speed>1.126</gom:speed></extensions></trkpt>
   <trkpt lat="59.3162574594" lon="34.6604241837"><ele>160.708</ele><time>2026-08-16T13:19:43.138Z</time><hdop>3.0</hdop><vdop>2.5</vdop><extensions><gom:speed>1.083</gom:speed></extensions></trkpt>
   <trkpt lat="59.3162540647" lon="34.6604358345"><ele>160.659</ele><time>2026-08-16T13:19:43.732Z</time><hdop>3.0</hdop><vdop>2.5</vdop><extensions><gom:speed>1.087</gom:speed></extensions></trkpt>
   <trkpt lat="59.3162501671" lon="34.6604472339"><ele>160.686</ele><time>2026-08-16T13:19:44.350Z</time><hdop>3.0</hdop><vdop>2.5</vdop><extensions><gom:speed>1.054</gom:speed></extensions></trkpt>
   <trkpt lat="59.3162470658" lon="34.6604558673"><ele>160.702</ele><time>2026-08-16T13:19:44.851Z</time><hdop>3.0</hdop><vdop>2.5</vdop><extensions><gom:speed>1.049</gom:speed></extensions></trkpt>
   <trkpt lat="59.3162428749" lon="34.6604688592"><ele>160.668</ele><time>2026-08-16T13:19:45.567Z</time><hdop>3.0</hdop><vdop>2.5</vdop><extensions><gom:speed>1.033</gom:speed></extensions></trkpt>
   <trkpt lat="59.3162399831" lon="34.6604770735"><ele>160.648</ele><time>2026-08-16T13:19:46.048Z</time><hdop>3.0</hdop><vdop>2.5</vdop><extensions><gom:speed>1.007</gom:speed></extensions></trkpt>
   <trkpt lat="59.3162327747" lon="34.6604959328"><ele>160.556</ele><time>2026-08-16T13:19:47.138Z</time><hdop>3.0</hdop><vdop>2.5</vdop><extensions><gom:speed>1.086</gom:speed></extensions></trkpt>
   <trkpt lat="59.3162260691" lon="34.6605106849"><ele>160.501</ele><time>2026-08-16T13:19:47.992Z</time><hdop>3.0</hdop><vdop>2.5</vdop><extensions><gom:speed>1.128</gom:speed></extensions></trkpt>
   <trkpt lat="59.3162218782" lon="34.6605178934"><ele>160.404</ele><time>2026-08-16T13:19:48.473Z</time><hdop>3.0</hdop><vdop>2.5</vdop><extensions><gom:speed>1.129</gom:speed></extensions></trkpt>
   <trkpt lat="59.3162158851" lon="34.6605260238"><ele>160.23</ele><time>2026-08-16T13:19:49.138Z</time><hdop>3.0</hdop><vdop>2.5</vdop><extensions><gom:speed>1.162</gom:speed></extensions></trkpt>
   <trkpt lat="59.3162110655" lon="34.660531975"><ele>160.126</ele><time>2026-08-16T13:19:49.630Z</time><hdop>3.0</hdop><vdop>2.5</vdop><extensions><gom:speed>1.157</gom:speed></extensions></trkpt>
   <trkpt lat="59.3162062878" lon="34.660538429"><ele>160.182</ele><time>2026-08-16T13:19:50.138Z</time><hdop>3.0</hdop><vdop>2.5</vdop><extensions><gom:speed>1.177</gom:speed></extensions></trkpt>
   <trkpt lat="59.3161999595" lon="34.6605506666"><ele>160.216</ele><time>2026-08-16T13:19:50.868Z</time><hdop>3.0</hdop><vdop>2.5</vdop><extensions><gom:speed>1.181</gom:speed></extensions></trkpt>
   <trkpt lat="59.3161929606" lon="34.660569945"><ele>160.23</ele><time>2026-08-16T13:19:51.987Z</time><hdop>3.0</hdop><vdop>2.5</vdop><extensions><gom:speed>1.134</gom:speed></extensions></trkpt>
   <trkpt lat="59.3161878896" lon="34.660583356"><ele>160.17</ele><time>2026-08-16T13:19:52.792Z</time><hdop>3.0</hdop><vdop>2.5</vdop><extensions><gom:speed>1.139</gom:speed></extensions></trkpt>
   <trkpt lat="59.3161842854" lon="34.6605932467"><ele>160.191</ele><time>2026-08-16T13:19:53.372Z</time><hdop>3.0</hdop><vdop>2.5</vdop><extensions><gom:speed>1.111</gom:speed></extensions></trkpt>
   <trkpt lat="59.3161798849" lon="34.660604227"><ele>160.203</ele><time>2026-08-16T13:19:54.030Z</time><hdop>3.0</hdop><vdop>2.5</vdop><extensions><gom:speed>1.075</gom:speed></extensions></trkpt>
   <trkpt lat="59.3161771607" lon="34.6606127765"><ele>160.205</ele><time>2026-08-16T13:19:54.570Z</time><hdop>3.0</hdop><vdop>2.5</vdop><extensions><gom:speed>1.045</gom:speed></extensions></trkpt>
   <trkpt lat="59.3161746881" lon="34.6606179733"><ele>160.192</ele><time>2026-08-16T13:19:55.137Z</time><hdop>3.0</hdop><vdop>2.5</vdop><extensions><gom:speed>0.76</gom:speed></extensions></trkpt>
   <trkpt lat="59.3161704971" lon="34.6606253494"><ele>160.222</ele><time>2026-08-16T13:19:56.138Z</time><hdop>3.0</hdop><vdop>2.5</vdop><extensions><gom:speed>0.873</gom:speed></extensions></trkpt>
   <trkpt lat="59.3161666834" lon="34.660634318"><ele>160.239</ele><time>2026-08-16T13:19:56.887Z</time><hdop>3.0</hdop><vdop>2.5</vdop><extensions><gom:speed>0.855</gom:speed></extensions></trkpt>
   <trkpt lat="59.3161620733" lon="34.6606555242"><ele>160.296</ele><time>2026-08-16T13:19:58.075Z</time><hdop>3.0</hdop><vdop>2.5</vdop><extensions><gom:speed>0.968</gom:speed></extensions></trkpt>
   <trkpt lat="59.3161549906" lon="34.6606758922"><ele>160.463</ele><time>2026-08-16T13:19:59.136Z</time><hdop>3.0</hdop><vdop>2.5</vdop><extensions><gom:speed>1.105</gom:speed></extensions></trkpt>
   <trkpt lat="59.3161509673" lon="34.6606918179"><ele>160.499</ele><time>2026-08-16T13:20:00.009Z</time><hdop>3.0</hdop><vdop>2.5</vdop><extensions><gom:speed>1.09</gom:speed></extensions></trkpt>
   <trkpt lat="59.3161502967" lon="34.6607033849"><ele>160.558</ele><time>2026-08-16T13:20:00.588Z</time><hdop>3.0</hdop><vdop>2.5</vdop><extensions><gom:speed>1.086</gom:speed></extensions></trkpt>
   <trkpt lat="59.316148788" lon="34.6607120182"><ele>160.607</ele><time>2026-08-16T13:20:01.138Z</time><hdop>3.0</hdop><vdop>2.5</vdop><extensions><gom:speed>1.085</gom:speed></extensions></trkpt>
   <trkpt lat="59.3161444713" lon="34.66072786"><ele>160.637</ele><time>2026-08-16T13:20:02.012Z</time><hdop>3.0</hdop><vdop>2.5</vdop><extensions><gom:speed>1.084</gom:speed></extensions></trkpt>
   <trkpt lat="59.3161364666" lon="34.6607427798"><ele>160.67</ele><time>2026-08-16T13:20:03.138Z</time><hdop>3.0</hdop><vdop>2.5</vdop><extensions><gom:speed>1.126</gom:speed></extensions></trkpt>
   <trkpt lat="59.3161295934" lon="34.6607592922"><ele>160.689</ele><time>2026-08-16T13:20:04.132Z</time><hdop>3.0</hdop><vdop>2.5</vdop><extensions><gom:speed>1.106</gom:speed></extensions></trkpt>
   <trkpt lat="59.3161259892" lon="34.6607665844"><ele>160.65</ele><time>2026-08-16T13:20:04.633Z</time><hdop>3.0</hdop><vdop>2.5</vdop><extensions><gom:speed>1.115</gom:speed></extensions></trkpt>
   <trkpt lat="59.3161220916" lon="34.660772368"><ele>160.706</ele><time>2026-08-16T13:20:05.138Z</time><hdop>3.0</hdop><vdop>2.5</vdop><extensions><gom:speed>1.124</gom:speed></extensions></trkpt>
   <trkpt lat="59.3161185712" lon="34.6607800793"><ele>160.74</ele><time>2026-08-16T13:20:05.634Z</time><hdop>3.0</hdop><vdop>2.5</vdop><extensions><gom:speed>1.123</gom:speed></extensions></trkpt>
   <trkpt lat="59.3161133745" lon="34.6607837673"><ele>160.774</ele><time>2026-08-16T13:20:06.138Z</time><hdop>3.0</hdop><vdop>2.5</vdop><extensions><gom:speed>1.064</gom:speed></extensions></trkpt>
   <trkpt lat="59.3161032743" lon="34.660784857"><ele>160.69</ele><time>2026-08-16T13:20:07.138Z</time><hdop>3.0</hdop><vdop>2.5</vdop><extensions><gom:speed>0.99</gom:speed></extensions></trkpt>
   <trkpt lat="59.3160979937" lon="34.660784857"><ele>160.64</ele><time>2026-08-16T13:20:07.676Z</time><hdop>3.0</hdop><vdop>2.5</vdop><extensions><gom:speed>0.98</gom:speed></extensions></trkpt>
   <trkpt lat="59.3160937608" lon="34.6607833482"><ele>160.655</ele><time>2026-08-16T13:20:08.138Z</time><hdop>3.0</hdop><vdop>2.5</vdop><extensions><gom:speed>0.96</gom:speed></extensions></trkpt>
   <trkpt lat="59.316086259" lon="34.6607830968"><ele>160.663</ele><time>2026-08-16T13:20:08.973Z</time><hdop>3.0</hdop><vdop>2.5</vdop><extensions><gom:speed>0.916</gom:speed></extensions></trkpt>
   <trkpt lat="59.3160792601" lon="34.6607832644"><ele>160.681</ele><time>2026-08-16T13:20:09.728Z</time><hdop>3.0</hdop><vdop>2.5</vdop><extensions><gom:speed>0.938</gom:speed></extensions></trkpt>
   <trkpt lat="59.3160730994" lon="34.6607863657"><ele>160.692</ele><time>2026-08-16T13:20:10.415Z</time><hdop>3.0</hdop><vdop>2.5</vdop><extensions><gom:speed>0.978</gom:speed></extensions></trkpt>
   <trkpt lat="59.3160677769" lon="34.6607905567"><ele>160.581</ele><time>2026-08-16T13:20:11.138Z</time><hdop>3.0</hdop><vdop>2.5</vdop><extensions><gom:speed>0.888</gom:speed></extensions></trkpt>
   <trkpt lat="59.3160600655" lon="34.660797346"><ele>160.483</ele><time>2026-08-16T13:20:12.138Z</time><hdop>3.0</hdop><vdop>2.5</vdop><extensions><gom:speed>0.888</gom:speed></extensions></trkpt>
   <trkpt lat="59.3160526895" lon="34.6608020399"><ele>160.424</ele><time>2026-08-16T13:20:12.968Z</time><hdop>3.0</hdop><vdop>2.5</vdop><extensions><gom:speed>0.894</gom:speed></extensions></trkpt>
   <trkpt lat="59.3160460678" lon="34.6608100865"><ele>160.369</ele><time>2026-08-16T13:20:13.694Z</time><hdop>3.0</hdop><vdop>2.5</vdop><extensions><gom:speed>0.949</gom:speed></extensions></trkpt>
   <trkpt lat="59.3160395718" lon="34.6608132716"><ele>160.453</ele><time>2026-08-16T13:20:14.470Z</time><hdop>3.0</hdop><vdop>2.5</vdop><extensions><gom:speed>0.928</gom:speed></extensions></trkpt>
   <trkpt lat="59.3160345846" lon="34.6608107571"><ele>160.504</ele><time>2026-08-16T13:20:15.009Z</time><hdop>3.0</hdop><vdop>2.5</vdop><extensions><gom:speed>0.943</gom:speed></extensions></trkpt>
   <trkpt lat="59.3160239815" lon="34.6608145289"><ele>160.483</ele><time>2026-08-16T13:20:16.137Z</time><hdop>3.0</hdop><vdop>2.5</vdop><extensions><gom:speed>0.988</gom:speed></extensions></trkpt>
   <trkpt lat="59.3160162701" lon="34.6608263474"><ele>160.542</ele><time>2026-08-16T13:20:17.138Z</time><hdop>3.0</hdop><vdop>2.5</vdop><extensions><gom:speed>0.862</gom:speed></extensions></trkpt>
   <trkpt lat="59.3160087683" lon="34.6608268503"><ele>160.507</ele><time>2026-08-16T13:20:18.138Z</time><hdop>3.0</hdop><vdop>2.5</vdop><extensions><gom:speed>0.877</gom:speed></extensions></trkpt>
   <trkpt lat="59.3160013922" lon="34.6608240843"><ele>160.486</ele><time>2026-08-16T13:20:19.013Z</time><hdop>3.0</hdop><vdop>2.5</vdop><extensions><gom:speed>0.855</gom:speed></extensions></trkpt>
   <trkpt lat="59.3159955668" lon="34.6608304545"><ele>160.475</ele><time>2026-08-16T13:20:19.692Z</time><hdop>3.0</hdop><vdop>2.5</vdop><extensions><gom:speed>0.891</gom:speed></extensions></trkpt>
   <trkpt lat="59.3159905796" lon="34.6608392555"><ele>160.46</ele><time>2026-08-16T13:20:20.389Z</time><hdop>3.0</hdop><vdop>2.5</vdop><extensions><gom:speed>0.904</gom:speed></extensions></trkpt>
   <trkpt lat="59.3159859695" lon="34.660845542"><ele>160.451</ele><time>2026-08-16T13:20:21.007Z</time><hdop>3.0</hdop><vdop>2.5</vdop><extensions><gom:speed>0.902</gom:speed></extensions></trkpt>
   <trkpt lat="59.3159823653" lon="34.6608522475"><ele>160.439</ele><time>2026-08-16T13:20:21.694Z</time><hdop>3.0</hdop><vdop>2.5</vdop><extensions><gom:speed>0.842</gom:speed></extensions></trkpt>
   <trkpt lat="59.3159826587" lon="34.6608571928"><ele>160.419</ele><time>2026-08-16T13:20:23.138Z</time><hdop>3.0</hdop><vdop>2.5</vdop><extensions><gom:speed>0.399</gom:speed></extensions></trkpt>
   <trkpt lat="59.3159826587" lon="34.6608581986"><ele>160.408</ele><time>2026-08-16T13:20:23.608Z</time><hdop>3.0</hdop><vdop>2.5</vdop><extensions><gom:speed>0.394</gom:speed></extensions></trkpt>
   <trkpt lat="59.3159819881" lon="34.6608592883"><ele>160.314</ele><time>2026-08-16T13:20:24.138Z</time><hdop>3.0</hdop><vdop>2.5</vdop><extensions><gom:speed>0.423</gom:speed></extensions></trkpt>
   <trkpt lat="59.3159772943" lon="34.660862222"><ele>160.251</ele><time>2026-08-16T13:20:25.138Z</time><hdop>3.0</hdop><vdop>2.5</vdop><extensions><gom:speed>0.55</gom:speed></extensions></trkpt>
   <trkpt lat="59.3159709659" lon="34.6608643174"><ele>160.214</ele><time>2026-08-16T13:20:26.072Z</time><hdop>3.0</hdop><vdop>2.5</vdop><extensions><gom:speed>0.606</gom:speed></extensions></trkpt>
   <trkpt lat="59.3159587702" lon="34.6608632278"><ele>160.265</ele><time>2026-08-16T13:20:27.138Z</time><hdop>3.0</hdop><vdop>2.5</vdop><extensions><gom:speed>0.938</gom:speed></extensions></trkpt>
   <trkpt lat="59.3159480833" lon="34.660864988"><ele>160.292</ele><time>2026-08-16T13:20:28.138Z</time><hdop>3.0</hdop><vdop>2.5</vdop><extensions><gom:speed>1.024</gom:speed></extensions></trkpt>
   <trkpt lat="59.3159392823" lon="34.6608679216"><ele>160.308</ele><time>2026-08-16T13:20:28.968Z</time><hdop>3.0</hdop><vdop>2.5</vdop><extensions><gom:speed>1.021</gom:speed></extensions></trkpt>
   <trkpt lat="59.3159340855" lon="34.6608715259"><ele>160.42</ele><time>2026-08-16T13:20:29.616Z</time><hdop>3.0</hdop><vdop>2.5</vdop><extensions><gom:speed>0.967</gom:speed></extensions></trkpt>
   <trkpt lat="59.3159306909" lon="34.6608750463"><ele>160.562</ele><time>2026-08-16T13:20:30.138Z</time><hdop>3.0</hdop><vdop>2.5</vdop><extensions><gom:speed>0.959</gom:speed></extensions></trkpt>
   <trkpt lat="59.3159247816" lon="34.6608843502"><ele>160.75</ele><time>2026-08-16T13:20:31.138Z</time><hdop>3.0</hdop><vdop>2.5</vdop><extensions><gom:speed>0.894</gom:speed></extensions></trkpt>
   <trkpt lat="59.315920884" lon="34.6608986832"><ele>160.827</ele><time>2026-08-16T13:20:32.138Z</time><hdop>3.0</hdop><vdop>2.5</vdop><extensions><gom:speed>0.879</gom:speed></extensions></trkpt>
   <trkpt lat="59.3159164835" lon="34.6609133516"><ele>160.873</ele><time>2026-08-16T13:20:33.091Z</time><hdop>3.0</hdop><vdop>2.5</vdop><extensions><gom:speed>0.886</gom:speed></extensions></trkpt>
   <trkpt lat="59.3159117897" lon="34.6609218173"><ele>160.92</ele><time>2026-08-16T13:20:33.896Z</time><hdop>3.0</hdop><vdop>2.5</vdop><extensions><gom:speed>0.907</gom:speed></extensions></trkpt>
   <trkpt lat="59.3159070958" lon="34.6609280199"><ele>160.944</ele><time>2026-08-16T13:20:34.612Z</time><hdop>3.0</hdop><vdop>2.5</vdop><extensions><gom:speed>0.933</gom:speed></extensions></trkpt>
   <trkpt lat="59.3159040783" lon="34.6609325461"><ele>161.001</ele><time>2026-08-16T13:20:35.138Z</time><hdop>3.0</hdop><vdop>2.5</vdop><extensions><gom:speed>0.92</gom:speed></extensions></trkpt>
   <trkpt lat="59.3158993845" lon="34.6609402575"><ele>161.106</ele><time>2026-08-16T13:20:36.138Z</time><hdop>3.0</hdop><vdop>2.5</vdop><extensions><gom:speed>0.795</gom:speed></extensions></trkpt>
   <trkpt lat="59.3158944811" lon="34.6609430235"><ele>161.239</ele><time>2026-08-16T13:20:37.138Z</time><hdop>3.0</hdop><vdop>2.5</vdop><extensions><gom:speed>0.723</gom:speed></extensions></trkpt>
   <trkpt lat="59.3158894938" lon="34.6609480526"><ele>161.238</ele><time>2026-08-16T13:20:38.138Z</time><hdop>3.0</hdop><vdop>2.5</vdop><extensions><gom:speed>0.691</gom:speed></extensions></trkpt>
   <trkpt lat="59.3158860991" lon="34.6609551773"><ele>161.237</ele><time>2026-08-16T13:20:39.088Z</time><hdop>3.0</hdop><vdop>2.5</vdop><extensions><gom:speed>0.614</gom:speed></extensions></trkpt>
   <trkpt lat="59.3158855962" lon="34.6609676663"><ele>161.239</ele><time>2026-08-16T13:20:40.109Z</time><hdop>3.0</hdop><vdop>2.5</vdop><extensions><gom:speed>0.528</gom:speed></extensions></trkpt>
   <trkpt lat="59.3158834588" lon="34.6609757967"><ele>161.316</ele><time>2026-08-16T13:20:40.914Z</time><hdop>3.0</hdop><vdop>2.5</vdop><extensions><gom:speed>0.521</gom:speed></extensions></trkpt>
   <trkpt lat="59.3158788907" lon="34.660985855"><ele>161.355</ele><time>2026-08-16T13:20:41.856Z</time><hdop>3.0</hdop><vdop>2.5</vdop><extensions><gom:speed>0.573</gom:speed></extensions></trkpt>
   <trkpt lat="59.3158750769" lon="34.6609996852"><ele>161.379</ele><time>2026-08-16T13:20:42.867Z</time><hdop>3.0</hdop><vdop>2.5</vdop><extensions><gom:speed>0.628</gom:speed></extensions></trkpt>
   <trkpt lat="59.3158741968" lon="34.6610072289"><ele>161.399</ele><time>2026-08-16T13:20:43.672Z</time><hdop>3.0</hdop><vdop>2.5</vdop><extensions><gom:speed>0.593</gom:speed></extensions></trkpt>
   <trkpt lat="59.3158711794" lon="34.6610174548"><ele>161.481</ele><time>2026-08-16T13:20:44.138Z</time><hdop>3.0</hdop><vdop>2.5</vdop><extensions><gom:speed>0.929</gom:speed></extensions></trkpt>
   <trkpt lat="59.3158670722" lon="34.6610294409"><ele>161.531</ele><time>2026-08-16T13:20:44.732Z</time><hdop>3.0</hdop><vdop>2.5</vdop><extensions><gom:speed>0.944</gom:speed></extensions></trkpt>
   <trkpt lat="59.3158608696" lon="34.6610410918"><ele>161.606</ele><time>2026-08-16T13:20:45.675Z</time><hdop>3.0</hdop><vdop>2.5</vdop><extensions><gom:speed>0.857</gom:speed></extensions></trkpt>
   <trkpt lat="59.3158587741" lon="34.6610452827"><ele>161.881</ele><time>2026-08-16T13:20:46.138Z</time><hdop>3.0</hdop><vdop>2.5</vdop><extensions><gom:speed>0.786</gom:speed></extensions></trkpt>
   <trkpt lat="59.3158549604" lon="34.6610533293"><ele>162.126</ele><time>2026-08-16T13:20:47.138Z</time><hdop>3.062</hdop><vdop>2.5</vdop><extensions><gom:speed>0.699</gom:speed></extensions></trkpt>
   <trkpt lat="59.3158505599" lon="34.6610549219"><ele>162.372</ele><time>2026-08-16T13:20:48.138Z</time><hdop>3.062</hdop><vdop>2.5</vdop><extensions><gom:speed>0.603</gom:speed></extensions></trkpt>
   <trkpt lat="59.3158487997" lon="34.6610569336"><ele>162.704</ele><time>2026-08-16T13:20:49.138Z</time><hdop>3.062</hdop><vdop>2.5</vdop><extensions><gom:speed>0.429</gom:speed></extensions></trkpt>
   <trkpt lat="59.3158478777" lon="34.6610575203"><ele>162.971</ele><time>2026-08-16T13:20:50.137Z</time><hdop>3.0</hdop><vdop>2.5</vdop><extensions><gom:speed>0.329</gom:speed></extensions></trkpt>
   <trkpt lat="59.3158460756" lon="34.6610584423"><ele>163.169</ele><time>2026-08-16T13:20:51.138Z</time><hdop>3.0</hdop><vdop>2.5</vdop><extensions><gom:speed>0.336</gom:speed></extensions></trkpt>
   <trkpt lat="59.3158436867" lon="34.6610633876"><ele>163.151</ele><time>2026-08-16T13:20:52.138Z</time><hdop>3.0</hdop><vdop>2.5</vdop><extensions><gom:speed>0.382</gom:speed></extensions></trkpt>
   <trkpt lat="59.3158426809" lon="34.6610695902"><ele>163.117</ele><time>2026-08-16T13:20:53.138Z</time><hdop>3.0</hdop><vdop>2.5</vdop><extensions><gom:speed>0.266</gom:speed></extensions></trkpt>
   <trkpt lat="59.3158430581" lon="34.6610783912"><ele>163.143</ele><time>2026-08-16T13:20:54.138Z</time><hdop>3.0</hdop><vdop>2.5</vdop><extensions><gom:speed>0.287</gom:speed></extensions></trkpt>
   <trkpt lat="59.3158431838" lon="34.6610815764"><ele>163.158</ele><time>2026-08-16T13:20:54.607Z</time><hdop>3.0</hdop><vdop>2.5</vdop><extensions><gom:speed>0.298</gom:speed></extensions></trkpt>
   <trkpt lat="59.3158431838" lon="34.6610861864"><ele>163.151</ele><time>2026-08-16T13:20:55.137Z</time><hdop>3.0</hdop><vdop>2.5</vdop><extensions><gom:speed>0.26</gom:speed></extensions></trkpt>
   <trkpt lat="59.3158431838" lon="34.6610891201"><ele>163.146</ele><time>2026-08-16T13:20:55.609Z</time><hdop>3.0</hdop><vdop>2.5</vdop><extensions><gom:speed>0.277</gom:speed></extensions></trkpt>
   <trkpt lat="59.3158429743" lon="34.6610941492"><ele>163.127</ele><time>2026-08-16T13:20:56.138Z</time><hdop>3.0</hdop><vdop>2.5</vdop><extensions><gom:speed>0.248</gom:speed></extensions></trkpt>
   <trkpt lat="59.3158429743" lon="34.6610980887"><ele>163.115</ele><time>2026-08-16T13:20:57.012Z</time><hdop>3.0</hdop><vdop>2.5</vdop><extensions><gom:speed>0.24</gom:speed></extensions></trkpt>
   <trkpt lat="59.3158416751" lon="34.6611091528"><ele>163.264</ele><time>2026-08-16T13:20:58.138Z</time><hdop>3.0</hdop><vdop>2.5</vdop><extensions><gom:speed>0.279</gom:speed></extensions></trkpt>
   <trkpt lat="59.3158410883" lon="34.6611138467"><ele>163.353</ele><time>2026-08-16T13:20:59.113Z</time><hdop>3.0</hdop><vdop>2.5</vdop><extensions><gom:speed>0.228</gom:speed></extensions></trkpt>
   <trkpt lat="59.3158392862" lon="34.6611186244"><ele>163.425</ele><time>2026-08-16T13:21:00.138Z</time><hdop>3.0</hdop><vdop>2.5</vdop><extensions><gom:speed>0.162</gom:speed></extensions></trkpt>
   <trkpt lat="59.3158376937" lon="34.661122983"><ele>163.509</ele><time>2026-08-16T13:21:01.138Z</time><hdop>3.0</hdop><vdop>2.5</vdop><extensions><gom:speed>0.256</gom:speed></extensions></trkpt>
   <trkpt lat="59.3158350953" lon="34.6611307781"><ele>163.479</ele><time>2026-08-16T13:21:02.138Z</time><hdop>3.0</hdop><vdop>2.5</vdop><extensions><gom:speed>0.343</gom:speed></extensions></trkpt>
   <trkpt lat="59.3158343828" lon="34.6611360587"><ele>163.461</ele><time>2026-08-16T13:21:02.814Z</time><hdop>3.0</hdop><vdop>2.5</vdop><extensions><gom:speed>0.37</gom:speed></extensions></trkpt>
   <trkpt lat="59.3158321616" lon="34.6611458656"><ele>163.338</ele><time>2026-08-16T13:21:03.609Z</time><hdop>3.0</hdop><vdop>2.5</vdop><extensions><gom:speed>0.453</gom:speed></extensions></trkpt>
   <trkpt lat="59.3158295632" lon="34.6611527387"><ele>163.23</ele><time>2026-08-16T13:21:04.138Z</time><hdop>3.0</hdop><vdop>2.5</vdop><extensions><gom:speed>0.47</gom:speed></extensions></trkpt>
   <trkpt lat="59.3158262943" lon="34.6611598633"><ele>163.166</ele><time>2026-08-16T13:21:04.973Z</time><hdop>3.0</hdop><vdop>2.5</vdop><extensions><gom:speed>0.458</gom:speed></extensions></trkpt>
   <trkpt lat="59.3158228996" lon="34.6611717656"><ele>163.008</ele><time>2026-08-16T13:21:05.552Z</time><hdop>3.0</hdop><vdop>2.5</vdop><extensions><gom:speed>0.592</gom:speed></extensions></trkpt>
   <trkpt lat="59.3158204688" lon="34.6611829974"><ele>162.794</ele><time>2026-08-16T13:21:06.138Z</time><hdop>3.0</hdop><vdop>2.5</vdop><extensions><gom:speed>0.661</gom:speed></extensions></trkpt>
   <trkpt lat="59.3158172837" lon="34.6612000965"><ele>162.74</ele><time>2026-08-16T13:21:07.138Z</time><hdop>3.0</hdop><vdop>2.5</vdop><extensions><gom:speed>0.691</gom:speed></extensions></trkpt>
   <trkpt lat="59.3158136795" lon="34.6612145972"><ele>162.751</ele><time>2026-08-16T13:21:08.138Z</time><hdop>3.0</hdop><vdop>2.5</vdop><extensions><gom:speed>0.658</gom:speed></extensions></trkpt>
   <trkpt lat="59.3158111649" lon="34.6612258289"><ele>162.758</ele><time>2026-08-16T13:21:09.047Z</time><hdop>3.0</hdop><vdop>2.5</vdop><extensions><gom:speed>0.638</gom:speed></extensions></trkpt>
   <trkpt lat="59.3158060939" lon="34.66123924"><ele>162.822</ele><time>2026-08-16T13:21:09.852Z</time><hdop>3.0</hdop><vdop>2.5</vdop><extensions><gom:speed>0.727</gom:speed></extensions></trkpt>
   <trkpt lat="59.3158015677" lon="34.661251729"><ele>162.877</ele><time>2026-08-16T13:21:11.138Z</time><hdop>3.0</hdop><vdop>2.5</vdop><extensions><gom:speed>0.494</gom:speed></extensions></trkpt>
   <trkpt lat="59.3158014838" lon="34.6612534892"><ele>162.832</ele><time>2026-08-16T13:21:12.138Z</time><hdop>3.0</hdop><vdop>2.5</vdop><extensions><gom:speed>0.289</gom:speed></extensions></trkpt>
   <trkpt lat="59.3158017772" lon="34.661252651"><ele>162.827</ele><time>2026-08-16T13:21:13.138Z</time><hdop>3.0</hdop><vdop>2.5</vdop><extensions><gom:speed>0.202</gom:speed></extensions></trkpt>
   <trkpt lat="59.3158021963" lon="34.6612532377"><ele>162.824</ele><time>2026-08-16T13:21:13.788Z</time><hdop>3.0</hdop><vdop>2.5</vdop><extensions><gom:speed>0.212</gom:speed></extensions></trkpt>
   <trkpt lat="59.3158020706" lon="34.661248963"><ele>162.847</ele><time>2026-08-16T13:21:15.138Z</time><hdop>3.0</hdop><vdop>2.5</vdop><extensions><gom:speed>0.067</gom:speed></extensions></trkpt>
   <trkpt lat="59.3158017772" lon="34.6612471189"><ele>162.875</ele><time>2026-08-16T13:21:16.138Z</time><hdop>3.0</hdop><vdop>2.5</vdop><extensions><gom:speed>0.078</gom:speed></extensions></trkpt>
   <trkpt lat="59.3158020706" lon="34.6612472866"><ele>162.903</ele><time>2026-08-16T13:21:17.138Z</time><hdop>3.0</hdop><vdop>2.5</vdop><extensions><gom:speed>0.075</gom:speed></extensions></trkpt>
   <trkpt lat="59.3158016934" lon="34.6612463646"><ele>162.932</ele><time>2026-08-16T13:21:18.138Z</time><hdop>3.0</hdop><vdop>2.5</vdop><extensions><gom:speed>0.027</gom:speed></extensions></trkpt>
   <trkpt lat="59.3158015677" lon="34.6612459455"><ele>162.981</ele><time>2026-08-16T13:21:19.138Z</time><hdop>3.0</hdop><vdop>2.5</vdop><extensions><gom:speed>0.016</gom:speed></extensions></trkpt>
   <trkpt lat="59.3158013581" lon="34.6612459455"><ele>163.025</ele><time>2026-08-16T13:21:20.138Z</time><hdop>3.0</hdop><vdop>2.5</vdop><extensions><gom:speed>0.056</gom:speed></extensions></trkpt>
   <trkpt lat="59.3158015677" lon="34.6612468675"><ele>163.059</ele><time>2026-08-16T13:21:21.138Z</time><hdop>3.0</hdop><vdop>2.5</vdop><extensions><gom:speed>0.017</gom:speed></extensions></trkpt>
   <trkpt lat="59.3158017772" lon="34.6612464484"><ele>163.098</ele><time>2026-08-16T13:21:22.138Z</time><hdop>3.0</hdop><vdop>2.5</vdop><extensions><gom:speed>0.013</gom:speed></extensions></trkpt>
   <trkpt lat="59.3158019867" lon="34.6612458617"><ele>163.14</ele><time>2026-08-16T13:21:23.138Z</time><hdop>3.0</hdop><vdop>2.5</vdop><extensions><gom:speed>0.021</gom:speed></extensions></trkpt>
   <trkpt lat="59.3158022801" lon="34.6612464484"><ele>163.175</ele><time>2026-08-16T13:21:24.138Z</time><hdop>3.0</hdop><vdop>2.5</vdop><extensions><gom:speed>0.057</gom:speed></extensions></trkpt>
   <trkpt lat="59.3158021963" lon="34.6612462808"><ele>163.198</ele><time>2026-08-16T13:21:25.138Z</time><hdop>3.0</hdop><vdop>2.5</vdop><extensions><gom:speed>0.013</gom:speed></extensions></trkpt>
   <trkpt lat="59.3158026992" lon="34.6612455264"><ele>163.215</ele><time>2026-08-16T13:21:26.138Z</time><hdop>3.0</hdop><vdop>2.5</vdop><extensions><gom:speed>0.019</gom:speed></extensions></trkpt>
   <trkpt lat="59.315802783" lon="34.6612466999"><ele>163.234</ele><time>2026-08-16T13:21:27.138Z</time><hdop>3.0</hdop><vdop>2.5</vdop><extensions><gom:speed>0.019</gom:speed></extensions></trkpt>
   <trkpt lat="59.3158025735" lon="34.661247538"><ele>163.246</ele><time>2026-08-16T13:21:28.138Z</time><hdop>3.0</hdop><vdop>2.5</vdop><extensions><gom:speed>0.06</gom:speed></extensions></trkpt>
   <trkpt lat="59.3158026992" lon="34.6612487953"><ele>163.25</ele><time>2026-08-16T13:21:29.138Z</time><hdop>3.0</hdop><vdop>2.5</vdop><extensions><gom:speed>0.02</gom:speed></extensions></trkpt>
   <trkpt lat="59.3158026992" lon="34.6612493821"><ele>163.26</ele><time>2026-08-16T13:21:30.138Z</time><hdop>3.0</hdop><vdop>2.5</vdop><extensions><gom:speed>0.0</gom:speed></extensions></trkpt>
   <trkpt lat="59.3158025735" lon="34.6612495497"><ele>163.261</ele><time>2026-08-16T13:21:31.138Z</time><hdop>3.0</hdop><vdop>2.5</vdop><extensions><gom:speed>0.015</gom:speed></extensions></trkpt>
   <trkpt lat="59.3158025735" lon="34.6612501364"><ele>163.257</ele><time>2026-08-16T13:21:32.138Z</time><hdop>3.0</hdop><vdop>2.5</vdop><extensions><gom:speed>0.025</gom:speed></extensions></trkpt>
   <trkpt lat="59.3158025735" lon="34.6612507232"><ele>163.257</ele><time>2026-08-16T13:21:33.138Z</time><hdop>3.0</hdop><vdop>2.5</vdop><extensions><gom:speed>0.032</gom:speed></extensions></trkpt>
   <trkpt lat="59.315802783" lon="34.661251729"><ele>163.274</ele><time>2026-08-16T13:21:34.138Z</time><hdop>3.0</hdop><vdop>2.5</vdop><extensions><gom:speed>0.239</gom:speed></extensions></trkpt>
   <trkpt lat="59.3158029926" lon="34.6612548303"><ele>163.284</ele><time>2026-08-16T13:21:34.933Z</time><hdop>3.0</hdop><vdop>2.5</vdop><extensions><gom:speed>0.24</gom:speed></extensions></trkpt>
   <trkpt lat="59.315802783" lon="34.6612643857"><ele>163.205</ele><time>2026-08-16T13:21:36.091Z</time><hdop>3.0</hdop><vdop>2.5</vdop><extensions><gom:speed>0.606</gom:speed></extensions></trkpt>
   <trkpt lat="59.3158021963" lon="34.6612707559"><ele>163.092</ele><time>2026-08-16T13:21:37.053Z</time><hdop>3.0</hdop><vdop>2.5</vdop><extensions><gom:speed>0.499</gom:speed></extensions></trkpt>
   <trkpt lat="59.3158013581" lon="34.6612855919"><ele>162.882</ele><time>2026-08-16T13:21:38.138Z</time><hdop>3.0</hdop><vdop>2.5</vdop><extensions><gom:speed>0.987</gom:speed></extensions></trkpt>
   <trkpt lat="59.3157945688" lon="34.6613050379"><ele>162.625</ele><time>2026-08-16T13:21:39.138Z</time><hdop>3.062</hdop><vdop>2.5</vdop><extensions><gom:speed>0.868</gom:speed></extensions></trkpt>
   <trkpt lat="59.3157894977" lon="34.6613127492"><ele>162.47</ele><time>2026-08-16T13:21:40.057Z</time><hdop>3.25</hdop><vdop>2.5</vdop><extensions><gom:speed>0.714</gom:speed></extensions></trkpt>
   <trkpt lat="59.3157781821" lon="34.661323981"><ele>162.434</ele><time>2026-08-16T13:21:40.950Z</time><hdop>3.375</hdop><vdop>2.5</vdop><extensions><gom:speed>0.741</gom:speed></extensions></trkpt>
   <trkpt lat="59.3157711833" lon="34.6613363862"><ele>162.417</ele><time>2026-08-16T13:21:41.755Z</time><hdop>3.437</hdop><vdop>2.5</vdop><extensions><gom:speed>0.734</gom:speed></extensions></trkpt>
   <trkpt lat="59.3157671599" lon="34.6613447681"><ele>162.517</ele><time>2026-08-16T13:21:42.216Z</time><hdop>3.437</hdop><vdop>2.5</vdop><extensions><gom:speed>0.734</gom:speed></extensions></trkpt>
   <trkpt lat="59.3157643939" lon="34.6613491267"><ele>162.577</ele><time>2026-08-16T13:21:42.697Z</time><hdop>3.375</hdop><vdop>2.5</vdop><extensions><gom:speed>0.742</gom:speed></extensions></trkpt>
   <trkpt lat="59.3157588619" lon="34.661356419"><ele>162.685</ele><time>2026-08-16T13:21:43.551Z</time><hdop>3.375</hdop><vdop>2.5</vdop><extensions><gom:speed>0.735</gom:speed></extensions></trkpt>
   <trkpt lat="59.315756473" lon="34.6613600232"><ele>162.42</ele><time>2026-08-16T13:21:44.138Z</time><hdop>3.375</hdop><vdop>2.5</vdop><extensions><gom:speed>0.695</gom:speed></extensions></trkpt>
   <trkpt lat="59.3157542937" lon="34.6613623701"><ele>162.04</ele><time>2026-08-16T13:21:45.138Z</time><hdop>3.187</hdop><vdop>2.5</vdop><extensions><gom:speed>0.507</gom:speed></extensions></trkpt>
   <trkpt lat="59.3157524916" lon="34.661362873"><ele>161.812</ele><time>2026-08-16T13:21:45.770Z</time><hdop>3.125</hdop><vdop>2.5</vdop><extensions><gom:speed>0.515</gom:speed></extensions></trkpt>
   <trkpt lat="59.3157494741" lon="34.6613700815"><ele>161.633</ele><time>2026-08-16T13:21:46.771Z</time><hdop>3.0</hdop><vdop>2.5</vdop><extensions><gom:speed>0.477</gom:speed></extensions></trkpt>
   <trkpt lat="59.3157440678" lon="34.6613852527"><ele>161.607</ele><time>2026-08-16T13:21:48.138Z</time><hdop>3.0</hdop><vdop>2.5</vdop><extensions><gom:speed>0.493</gom:speed></extensions></trkpt>
   <trkpt lat="59.3157413856" lon="34.6613913715"><ele>161.592</ele><time>2026-08-16T13:21:49.098Z</time><hdop>3.0</hdop><vdop>2.5</vdop><extensions><gom:speed>0.483</gom:speed></extensions></trkpt>
   <trkpt lat="59.3157389967" lon="34.66140319"><ele>161.59</ele><time>2026-08-16T13:21:50.069Z</time><hdop>3.062</hdop><vdop>2.5</vdop><extensions><gom:speed>0.495</gom:speed></extensions></trkpt>
   <trkpt lat="59.3157352668" lon="34.6614177745"><ele>161.54</ele><time>2026-08-16T13:21:51.138Z</time><hdop>3.062</hdop><vdop>2.5</vdop><extensions><gom:speed>0.491</gom:speed></extensions></trkpt>
   <trkpt lat="59.3157326684" lon="34.661428671"><ele>161.655</ele><time>2026-08-16T13:21:52.138Z</time><hdop>3.062</hdop><vdop>2.5</vdop><extensions><gom:speed>0.575</gom:speed></extensions></trkpt>
   <trkpt lat="59.315732878" lon="34.6614357956"><ele>161.723</ele><time>2026-08-16T13:21:52.749Z</time><hdop>3.062</hdop><vdop>2.5</vdop><extensions><gom:speed>0.57</gom:speed></extensions></trkpt>
   <trkpt lat="59.3157314949" lon="34.6614371367"><ele>161.78</ele><time>2026-08-16T13:21:53.250Z</time><hdop>3.062</hdop><vdop>2.5</vdop><extensions><gom:speed>0.475</gom:speed></extensions></trkpt>
   <trkpt lat="59.3157314949" lon="34.6614376396"><ele>161.821</ele><time>2026-08-16T13:21:54.138Z</time><hdop>3.062</hdop><vdop>2.5</vdop><extensions><gom:speed>0.272</gom:speed></extensions></trkpt>
   <trkpt lat="59.3157312854" lon="34.6614403218"><ele>161.846</ele><time>2026-08-16T13:21:54.850Z</time><hdop>3.062</hdop><vdop>2.5</vdop><extensions><gom:speed>0.28</gom:speed></extensions></trkpt>
   <trkpt lat="59.3157301957" lon="34.6614363823"><ele>161.961</ele><time>2026-08-16T13:21:56.138Z</time><hdop>3.0</hdop><vdop>2.5</vdop><extensions><gom:speed>0.158</gom:speed></extensions></trkpt>
   <trkpt lat="59.3157298605" lon="34.6614368852"><ele>162.03</ele><time>2026-08-16T13:21:56.852Z</time><hdop>3.0</hdop><vdop>2.5</vdop><extensions><gom:speed>0.182</gom:speed></extensions></trkpt>
   <trkpt lat="59.3157292737" lon="34.6614382263"><ele>162.068</ele><time>2026-08-16T13:21:57.873Z</time><hdop>3.0</hdop><vdop>2.5</vdop><extensions><gom:speed>0.163</gom:speed></extensions></trkpt>
   <trkpt lat="59.3157271783" lon="34.6614387293"><ele>162.125</ele><time>2026-08-16T13:21:58.550Z</time><hdop>3.0</hdop><vdop>2.5</vdop><extensions><gom:speed>0.175</gom:speed></extensions></trkpt>
   <trkpt lat="59.3157259629" lon="34.6614410762"><ele>162.267</ele><time>2026-08-16T13:21:59.138Z</time><hdop>3.0</hdop><vdop>2.5</vdop><extensions><gom:speed>0.213</gom:speed></extensions></trkpt>
   <trkpt lat="59.3157243703" lon="34.6614451833"><ele>162.263</ele><time>2026-08-16T13:22:00.138Z</time><hdop>3.0</hdop><vdop>2.5</vdop><extensions><gom:speed>0.296</gom:speed></extensions></trkpt>
   <trkpt lat="59.3157234902" lon="34.6614484523"><ele>162.26</ele><time>2026-08-16T13:22:00.779Z</time><hdop>3.0</hdop><vdop>2.5</vdop><extensions><gom:speed>0.306</gom:speed></extensions></trkpt>
   <trkpt lat="59.3157192993" lon="34.6614516374"><ele>162.294</ele><time>2026-08-16T13:22:01.672Z</time><hdop>3.0</hdop><vdop>2.5</vdop><extensions><gom:speed>0.39</gom:speed></extensions></trkpt>
   <trkpt lat="59.3157158627" lon="34.6614512183"><ele>162.334</ele><time>2026-08-16T13:22:02.138Z</time><hdop>3.0</hdop><vdop>2.5</vdop><extensions><gom:speed>0.467</gom:speed></extensions></trkpt>
   <trkpt lat="59.31571339" lon="34.6614522241"><ele>162.357</ele><time>2026-08-16T13:22:02.634Z</time><hdop>3.0</hdop><vdop>2.5</vdop><extensions><gom:speed>0.484</gom:speed></extensions></trkpt>
   <trkpt lat="59.3157102887" lon="34.6614522241"><ele>162.286</ele><time>2026-08-16T13:22:03.138Z</time><hdop>3.0</hdop><vdop>2.5</vdop><extensions><gom:speed>0.499</gom:speed></extensions></trkpt>
   <trkpt lat="59.3157078999" lon="34.661454571"><ele>162.243</ele><time>2026-08-16T13:22:03.674Z</time><hdop>3.0</hdop><vdop>2.5</vdop><extensions><gom:speed>0.495</gom:speed></extensions></trkpt>
   <trkpt lat="59.3157070617" lon="34.6614547387"><ele>162.378</ele><time>2026-08-16T13:22:04.137Z</time><hdop>3.0</hdop><vdop>2.5</vdop><extensions><gom:speed>0.386</gom:speed></extensions></trkpt>
   <trkpt lat="59.3157068941" lon="34.6614589296"><ele>162.459</ele><time>2026-08-16T13:22:05.029Z</time><hdop>3.0</hdop><vdop>2.5</vdop><extensions><gom:speed>0.373</gom:speed></extensions></trkpt>
   <trkpt lat="59.3157041699" lon="34.6614632882"><ele>162.584</ele><time>2026-08-16T13:22:05.696Z</time><hdop>3.0</hdop><vdop>2.5</vdop><extensions><gom:speed>0.463</gom:speed></extensions></trkpt>
   <trkpt lat="59.3157012782" lon="34.6614640426"><ele>162.598</ele><time>2026-08-16T13:22:06.393Z</time><hdop>3.0</hdop><vdop>2.5</vdop><extensions><gom:speed>0.38</gom:speed></extensions></trkpt>
   <trkpt lat="59.3156997694" lon="34.6614658866"><ele>162.607</ele><time>2026-08-16T13:22:06.874Z</time><hdop>3.0</hdop><vdop>2.5</vdop><extensions><gom:speed>0.377</gom:speed></extensions></trkpt>
   <trkpt lat="59.3156937764" lon="34.6614649646"><ele>162.733</ele><time>2026-08-16T13:22:08.138Z</time><hdop>3.0</hdop><vdop>2.5</vdop><extensions><gom:speed>0.384</gom:speed></extensions></trkpt>
   <trkpt lat="59.315688873" lon="34.6614696585"><ele>162.785</ele><time>2026-08-16T13:22:09.138Z</time><hdop>3.0</hdop><vdop>2.5</vdop><extensions><gom:speed>0.504</gom:speed></extensions></trkpt>
   <trkpt lat="59.3156858974" lon="34.6614764478"><ele>162.817</ele><time>2026-08-16T13:22:09.937Z</time><hdop>3.0</hdop><vdop>2.5</vdop><extensions><gom:speed>0.516</gom:speed></extensions></trkpt>
   <trkpt lat="59.3156836762" lon="34.661484243"><ele>162.853</ele><time>2026-08-16T13:22:10.958Z</time><hdop>3.0</hdop><vdop>2.5</vdop><extensions><gom:speed>0.518</gom:speed></extensions></trkpt>
   <trkpt lat="59.315682377" lon="34.6614907809"><ele>162.644</ele><time>2026-08-16T13:22:11.655Z</time><hdop>3.0</hdop><vdop>2.5</vdop><extensions><gom:speed>0.555</gom:speed></extensions></trkpt>
   <trkpt lat="59.3156825865" lon="34.661492122"><ele>162.5</ele><time>2026-08-16T13:22:12.138Z</time><hdop>3.0</hdop><vdop>2.5</vdop><extensions><gom:speed>0.428</gom:speed></extensions></trkpt>
   <trkpt lat="59.3156825865" lon="34.6614941336"><ele>162.414</ele><time>2026-08-16T13:22:12.597Z</time><hdop>3.0</hdop><vdop>2.5</vdop><extensions><gom:speed>0.412</gom:speed></extensions></trkpt>
   <trkpt lat="59.3156819998" lon="34.6614977379"><ele>162.362</ele><time>2026-08-16T13:22:13.098Z</time><hdop>3.0</hdop><vdop>2.5</vdop><extensions><gom:speed>0.437</gom:speed></extensions></trkpt>
   <trkpt lat="59.3156806587" lon="34.6615059521"><ele>162.432</ele><time>2026-08-16T13:22:13.716Z</time><hdop>3.0</hdop><vdop>2.5</vdop><extensions><gom:speed>0.551</gom:speed></extensions></trkpt>
   <trkpt lat="59.3156788985" lon="34.6615210395"><ele>162.404</ele><time>2026-08-16T13:22:15.071Z</time><hdop>3.0</hdop><vdop>2.5</vdop><extensions><gom:speed>0.549</gom:speed></extensions></trkpt>
   <trkpt lat="59.3156769707" lon="34.6615274936"><ele>162.345</ele><time>2026-08-16T13:22:16.013Z</time><hdop>3.0</hdop><vdop>2.5</vdop><extensions><gom:speed>0.508</gom:speed></extensions></trkpt>
   <trkpt lat="59.3156724863" lon="34.6615347859"><ele>162.15</ele><time>2026-08-16T13:22:17.138Z</time><hdop>3.0</hdop><vdop>2.5</vdop><extensions><gom:speed>0.49</gom:speed></extensions></trkpt>
   <trkpt lat="59.3156713967" lon="34.6615389768"><ele>162.033</ele><time>2026-08-16T13:22:17.613Z</time><hdop>3.0</hdop><vdop>2.5</vdop><extensions><gom:speed>0.485</gom:speed></extensions></trkpt>
   <trkpt lat="59.3156703909" lon="34.6615439221"><ele>161.945</ele><time>2026-08-16T13:22:18.138Z</time><hdop>3.0</hdop><vdop>2.5</vdop><extensions><gom:speed>0.521</gom:speed></extensions></trkpt>
   <trkpt lat="59.3156681697" lon="34.6615512982"><ele>161.893</ele><time>2026-08-16T13:22:19.115Z</time><hdop>3.0</hdop><vdop>2.5</vdop><extensions><gom:speed>0.432</gom:speed></extensions></trkpt>
   <trkpt lat="59.3156655713" lon="34.6615497895"><ele>161.916</ele><time>2026-08-16T13:22:20.138Z</time><hdop>3.0</hdop><vdop>2.5</vdop><extensions><gom:speed>0.24</gom:speed></extensions></trkpt>
   <trkpt lat="59.3156635596" lon="34.6615461853"><ele>161.833</ele><time>2026-08-16T13:22:21.138Z</time><hdop>3.0</hdop><vdop>2.5</vdop><extensions><gom:speed>0.237</gom:speed></extensions></trkpt>
   <trkpt lat="59.3156615899" lon="34.6615403179"><ele>161.741</ele><time>2026-08-16T13:22:22.138Z</time><hdop>3.0</hdop><vdop>2.5</vdop><extensions><gom:speed>0.236</gom:speed></extensions></trkpt>
   <trkpt lat="59.3156569798" lon="34.6615360431"><ele>161.738</ele><time>2026-08-16T13:22:23.138Z</time><hdop>3.0</hdop><vdop>2.5</vdop><extensions><gom:speed>0.386</gom:speed></extensions></trkpt>
   <trkpt lat="59.3156514897" lon="34.661532858"><ele>161.875</ele><time>2026-08-16T13:22:24.138Z</time><hdop>3.0</hdop><vdop>2.5</vdop><extensions><gom:speed>0.387</gom:speed></extensions></trkpt>
   <trkpt lat="59.3156468796" lon="34.6615276612"><ele>161.983</ele><time>2026-08-16T13:22:25.138Z</time><hdop>3.0</hdop><vdop>2.5</vdop><extensions><gom:speed>0.411</gom:speed></extensions></trkpt>
   <trkpt lat="59.3156433592" lon="34.6615155913"><ele>161.966</ele><time>2026-08-16T13:22:26.138Z</time><hdop>3.0</hdop><vdop>2.5</vdop><extensions><gom:speed>0.487</gom:speed></extensions></trkpt>
   <trkpt lat="59.3156407608" lon="34.6615013421"><ele>161.886</ele><time>2026-08-16T13:22:27.138Z</time><hdop>3.0</hdop><vdop>2.5</vdop><extensions><gom:speed>0.497</gom:speed></extensions></trkpt>
   <trkpt lat="59.3156359832" lon="34.6614945527"><ele>161.848</ele><time>2026-08-16T13:22:28.138Z</time><hdop>3.0</hdop><vdop>2.5</vdop><extensions><gom:speed>0.505</gom:speed></extensions></trkpt>
   <trkpt lat="59.315631876" lon="34.6614955586"><ele>161.818</ele><time>2026-08-16T13:22:29.138Z</time><hdop>3.0</hdop><vdop>2.5</vdop><extensions><gom:speed>0.441</gom:speed></extensions></trkpt>
   <trkpt lat="59.3156302835" lon="34.6614971511"><ele>161.8</ele><time>2026-08-16T13:22:29.638Z</time><hdop>3.0</hdop><vdop>2.5</vdop><extensions><gom:speed>0.443</gom:speed></extensions></trkpt>
   <trkpt lat="59.315629571" lon="34.661499079"><ele>161.789</ele><time>2026-08-16T13:22:30.089Z</time><hdop>3.0</hdop><vdop>2.5</vdop><extensions><gom:speed>0.341</gom:speed></extensions></trkpt>
   <trkpt lat="59.3156314988" lon="34.6614961453"><ele>161.792</ele><time>2026-08-16T13:22:31.138Z</time><hdop>3.0</hdop><vdop>2.5</vdop><extensions><gom:speed>0.119</gom:speed></extensions></trkpt>
   <trkpt lat="59.3156315827" lon="34.6614952233"><ele>161.941</ele><time>2026-08-16T13:22:32.138Z</time><hdop>3.0</hdop><vdop>2.5</vdop><extensions><gom:speed>0.061</gom:speed></extensions></trkpt>
   <trkpt lat="59.3156316665" lon="34.6614951395"><ele>162.031</ele><time>2026-08-16T13:22:32.691Z</time><hdop>3.0</hdop><vdop>2.5</vdop><extensions><gom:speed>0.094</gom:speed></extensions></trkpt>
   <trkpt lat="59.3156323789" lon="34.6614954747"><ele>162.093</ele><time>2026-08-16T13:22:33.250Z</time><hdop>3.0</hdop><vdop>2.5</vdop><extensions><gom:speed>0.071</gom:speed></extensions></trkpt>
   <trkpt lat="59.3156329657" lon="34.6614959777"><ele>162.114</ele><time>2026-08-16T13:22:34.138Z</time><hdop>3.0</hdop><vdop>2.5</vdop><extensions><gom:speed>0.079</gom:speed></extensions></trkpt>
   <trkpt lat="59.3156340972" lon="34.6614963967"><ele>162.093</ele><time>2026-08-16T13:22:35.138Z</time><hdop>3.0</hdop><vdop>2.5</vdop><extensions><gom:speed>0.068</gom:speed></extensions></trkpt>
   <trkpt lat="59.315634684" lon="34.6614961453"><ele>162.075</ele><time>2026-08-16T13:22:36.138Z</time><hdop>3.0</hdop><vdop>2.5</vdop><extensions><gom:speed>0.081</gom:speed></extensions></trkpt>
   <trkpt lat="59.3156339715" lon="34.6614966482"><ele>161.879</ele><time>2026-08-16T13:22:37.138Z</time><hdop>3.0</hdop><vdop>2.5</vdop><extensions><gom:speed>0.126</gom:speed></extensions></trkpt>
   <trkpt lat="59.3156330914" lon="34.6614980731"><ele>161.762</ele><time>2026-08-16T13:22:37.834Z</time><hdop>3.0</hdop><vdop>2.5</vdop><extensions><gom:speed>0.153</gom:speed></extensions></trkpt>
   <trkpt lat="59.3156305768" lon="34.6614972349"><ele>161.617</ele><time>2026-08-16T13:22:38.570Z</time><hdop>3.0</hdop><vdop>2.5</vdop><extensions><gom:speed>0.215</gom:speed></extensions></trkpt>
   <trkpt lat="59.3156283975" lon="34.6614963967"><ele>161.508</ele><time>2026-08-16T13:22:39.138Z</time><hdop>3.0</hdop><vdop>2.5</vdop><extensions><gom:speed>0.228</gom:speed></extensions></trkpt>
   <trkpt lat="59.3156255896" lon="34.6614983246"><ele>161.442</ele><time>2026-08-16T13:22:39.955Z</time><hdop>3.0</hdop><vdop>2.5</vdop><extensions><gom:speed>0.316</gom:speed></extensions></trkpt>
   <trkpt lat="59.315621692" lon="34.661500923"><ele>161.494</ele><time>2026-08-16T13:22:40.514Z</time><hdop>3.0</hdop><vdop>2.5</vdop><extensions><gom:speed>0.4</gom:speed></extensions></trkpt>
   <trkpt lat="59.315617082" lon="34.6615061198"><ele>161.652</ele><time>2026-08-16T13:22:41.138Z</time><hdop>3.0</hdop><vdop>2.5</vdop><extensions><gom:speed>0.531</gom:speed></extensions></trkpt>
   <trkpt lat="59.3156130587" lon="34.6615113165"><ele>161.747</ele><time>2026-08-16T13:22:41.918Z</time><hdop>3.0</hdop><vdop>2.5</vdop><extensions><gom:speed>0.533</gom:speed></extensions></trkpt>
   <trkpt lat="59.3156036709" lon="34.6615183573"><ele>161.741</ele><time>2026-08-16T13:22:43.138Z</time><hdop>3.0</hdop><vdop>2.5</vdop><extensions><gom:speed>0.64</gom:speed></extensions></trkpt>
   <trkpt lat="59.3155985999" lon="34.6615229674"><ele>161.737</ele><time>2026-08-16T13:22:43.950Z</time><hdop>3.0</hdop><vdop>2.5</vdop><extensions><gom:speed>0.649</gom:speed></extensions></trkpt>
   <trkpt lat="59.3155894636" lon="34.6615205366"><ele>161.846</ele><time>2026-08-16T13:22:45.138Z</time><hdop>3.0</hdop><vdop>2.5</vdop><extensions><gom:speed>0.585</gom:speed></extensions></trkpt>
   <trkpt lat="59.3155863623" lon="34.6615210395"><ele>161.91</ele><time>2026-08-16T13:22:45.677Z</time><hdop>3.0</hdop><vdop>2.5</vdop><extensions><gom:speed>0.578</gom:speed></extensions></trkpt>
   <trkpt lat="59.3155831772" lon="34.6615201175"><ele>161.922</ele><time>2026-08-16T13:22:46.138Z</time><hdop>3.0</hdop><vdop>2.5</vdop><extensions><gom:speed>0.555</gom:speed></extensions></trkpt>
   <trkpt lat="59.3155784833" lon="34.661520369"><ele>161.929</ele><time>2026-08-16T13:22:47.071Z</time><hdop>3.0</hdop><vdop>2.5</vdop><extensions><gom:speed>0.486</gom:speed></extensions></trkpt>
   <trkpt lat="59.3155718616" lon="34.661516178"><ele>161.893</ele><time>2026-08-16T13:22:48.138Z</time><hdop>3.0</hdop><vdop>2.5</vdop><extensions><gom:speed>0.416</gom:speed></extensions></trkpt>
   <trkpt lat="59.3155670839" lon="34.6615101431"><ele>161.834</ele><time>2026-08-16T13:22:49.138Z</time><hdop>3.0</hdop><vdop>2.5</vdop><extensions><gom:speed>0.434</gom:speed></extensions></trkpt>
   <trkpt lat="59.3155653656" lon="34.6615014259"><ele>161.558</ele><time>2026-08-16T13:22:50.138Z</time><hdop>3.0</hdop><vdop>2.5</vdop><extensions><gom:speed>0.339</gom:speed></extensions></trkpt>
   <trkpt lat="59.3155669582" lon="34.6614931278"><ele>161.345</ele><time>2026-08-16T13:22:51.138Z</time><hdop>3.0</hdop><vdop>2.5</vdop><extensions><gom:speed>0.475</gom:speed></extensions></trkpt>
   <trkpt lat="59.3155682993" lon="34.6614836563"><ele>161.182</ele><time>2026-08-16T13:22:52.138Z</time><hdop>3.0</hdop><vdop>2.5</vdop><extensions><gom:speed>0.425</gom:speed></extensions></trkpt>
   <trkpt lat="59.3155671677" lon="34.6614732627"><ele>161.44</ele><time>2026-08-16T13:22:53.138Z</time><hdop>3.0</hdop><vdop>2.5</vdop><extensions><gom:speed>0.354</gom:speed></extensions></trkpt>
   <trkpt lat="59.3155638988" lon="34.6614677306"><ele>161.594</ele><time>2026-08-16T13:22:54.110Z</time><hdop>3.0</hdop><vdop>2.5</vdop><extensions><gom:speed>0.369</gom:speed></extensions></trkpt>
   <trkpt lat="59.3155603784" lon="34.6614622824"><ele>161.609</ele><time>2026-08-16T13:22:54.611Z</time><hdop>3.0</hdop><vdop>2.5</vdop><extensions><gom:speed>0.433</gom:speed></extensions></trkpt>
   <trkpt lat="59.3155581991" lon="34.6614572533"><ele>161.612</ele><time>2026-08-16T13:22:55.138Z</time><hdop>3.0</hdop><vdop>2.5</vdop><extensions><gom:speed>0.381</gom:speed></extensions></trkpt>
   <trkpt lat="59.3155549721" lon="34.6614476979"><ele>161.539</ele><time>2026-08-16T13:22:56.138Z</time><hdop>3.0</hdop><vdop>2.5</vdop><extensions><gom:speed>0.452</gom:speed></extensions></trkpt>
   <trkpt lat="59.3155528766" lon="34.6614401542"><ele>161.496</ele><time>2026-08-16T13:22:56.996Z</time><hdop>3.0</hdop><vdop>2.5</vdop><extensions><gom:speed>0.473</gom:speed></extensions></trkpt>
   <trkpt lat="59.3155486856" lon="34.6614338677"><ele>161.634</ele><time>2026-08-16T13:22:57.772Z</time><hdop>3.0</hdop><vdop>2.5</vdop><extensions><gom:speed>0.503</gom:speed></extensions></trkpt>
   <trkpt lat="59.3155418963" lon="34.6614296768"><ele>161.67</ele><time>2026-08-16T13:22:58.577Z</time><hdop>3.0</hdop><vdop>2.5</vdop><extensions><gom:speed>0.611</gom:speed></extensions></trkpt>
   <trkpt lat="59.3155369929" lon="34.6614298444"><ele>161.684</ele><time>2026-08-16T13:22:59.138Z</time><hdop>3.0</hdop><vdop>2.5</vdop><extensions><gom:speed>0.645</gom:speed></extensions></trkpt>
   <trkpt lat="59.3155293653" lon="34.6614331972"><ele>161.687</ele><time>2026-08-16T13:23:00.137Z</time><hdop>3.0</hdop><vdop>2.5</vdop><extensions><gom:speed>0.65</gom:speed></extensions></trkpt>
   <trkpt lat="59.3155224922" lon="34.6614348736"><ele>161.798</ele><time>2026-08-16T13:23:01.138Z</time><hdop>3.0</hdop><vdop>2.5</vdop><extensions><gom:speed>0.655</gom:speed></extensions></trkpt>
   <trkpt lat="59.3155154933" lon="34.6614369691"><ele>161.865</ele><time>2026-08-16T13:23:02.073Z</time><hdop>3.0</hdop><vdop>2.5</vdop><extensions><gom:speed>0.688</gom:speed></extensions></trkpt>
   <trkpt lat="59.3155103803" lon="34.6614418306"><ele>161.894</ele><time>2026-08-16T13:23:02.936Z</time><hdop>3.0</hdop><vdop>2.5</vdop><extensions><gom:speed>0.666</gom:speed></extensions></trkpt>
   <trkpt lat="59.315508662" lon="34.6614478655"><ele>161.933</ele><time>2026-08-16T13:23:03.594Z</time><hdop>3.0</hdop><vdop>2.5</vdop><extensions><gom:speed>0.627</gom:speed></extensions></trkpt>
   <trkpt lat="59.315508662" lon="34.6614526432"><ele>161.978</ele><time>2026-08-16T13:23:04.138Z</time><hdop>3.0</hdop><vdop>2.5</vdop><extensions><gom:speed>0.498</gom:speed></extensions></trkpt>
   <trkpt lat="59.3155068599" lon="34.6614575885"><ele>161.874</ele><time>2026-08-16T13:23:05.138Z</time><hdop>3.0</hdop><vdop>2.5</vdop><extensions><gom:speed>0.541</gom:speed></extensions></trkpt>
   <trkpt lat="59.3155044711" lon="34.661461528"><ele>161.812</ele><time>2026-08-16T13:23:05.852Z</time><hdop>3.0</hdop><vdop>2.5</vdop><extensions><gom:speed>0.541</gom:speed></extensions></trkpt>
   <trkpt lat="59.3155013698" lon="34.661463372"><ele>161.832</ele><time>2026-08-16T13:23:06.617Z</time><hdop>3.0</hdop><vdop>2.5</vdop><extensions><gom:speed>0.606</gom:speed></extensions></trkpt>
   <trkpt lat="59.3155009926" lon="34.6614626177"><ele>161.814</ele><time>2026-08-16T13:23:07.138Z</time><hdop>3.0</hdop><vdop>2.5</vdop><extensions><gom:speed>0.385</gom:speed></extensions></trkpt>
   <trkpt lat="59.3154986876" lon="34.6614623662"><ele>162.205</ele><time>2026-08-16T13:23:08.138Z</time><hdop>3.0</hdop><vdop>2.5</vdop><extensions><gom:speed>0.352</gom:speed></extensions></trkpt>
   <trkpt lat="59.3154955863" lon="34.6614601869"><ele>162.321</ele><time>2026-08-16T13:23:09.138Z</time><hdop>3.0</hdop><vdop>2.5</vdop><extensions><gom:speed>0.303</gom:speed></extensions></trkpt>
   <trkpt lat="59.3154954606" lon="34.6614556607"><ele>162.357</ele><time>2026-08-16T13:23:10.138Z</time><hdop>3.0</hdop><vdop>2.5</vdop><extensions><gom:speed>0.184</gom:speed></extensions></trkpt>
   <trkpt lat="59.3154953767" lon="34.6614520565"><ele>162.405</ele><time>2026-08-16T13:23:11.138Z</time><hdop>3.0</hdop><vdop>2.5</vdop><extensions><gom:speed>0.167</gom:speed></extensions></trkpt>
   <trkpt lat="59.3154941614" lon="34.6614489552"><ele>162.21</ele><time>2026-08-16T13:23:12.138Z</time><hdop>3.0</hdop><vdop>2.5</vdop><extensions><gom:speed>0.203</gom:speed></extensions></trkpt>
   <trkpt lat="59.3154904733" lon="34.6614468597"><ele>162.009</ele><time>2026-08-16T13:23:13.138Z</time><hdop>3.0</hdop><vdop>2.5</vdop><extensions><gom:speed>0.253</gom:speed></extensions></trkpt>
   <trkpt lat="59.3154879587" lon="34.6614479493"><ele>161.888</ele><time>2026-08-16T13:23:13.911Z</time><hdop>3.0</hdop><vdop>2.5</vdop><extensions><gom:speed>0.275</gom:speed></extensions></trkpt>
   <trkpt lat="59.3154780681" lon="34.6614480332"><ele>161.85</ele><time>2026-08-16T13:23:15.138Z</time><hdop>3.0</hdop><vdop>2.5</vdop><extensions><gom:speed>0.445</gom:speed></extensions></trkpt>
   <trkpt lat="59.3154712788" lon="34.6614525594"><ele>161.958</ele><time>2026-08-16T13:23:16.138Z</time><hdop>3.0</hdop><vdop>2.5</vdop><extensions><gom:speed>0.508</gom:speed></extensions></trkpt>
   <trkpt lat="59.3154643637" lon="34.6614597678"><ele>162.133</ele><time>2026-08-16T13:23:17.138Z</time><hdop>3.0</hdop><vdop>2.5</vdop><extensions><gom:speed>0.645</gom:speed></extensions></trkpt>
   <trkpt lat="59.3154588735" lon="34.6614662219"><ele>162.237</ele><time>2026-08-16T13:23:18.035Z</time><hdop>3.0</hdop><vdop>2.5</vdop><extensions><gom:speed>0.663</gom:speed></extensions></trkpt>
   <trkpt lat="59.31545309" lon="34.6614713349"><ele>162.245</ele><time>2026-08-16T13:23:18.535Z</time><hdop>3.0</hdop><vdop>2.5</vdop><extensions><gom:speed>0.712</gom:speed></extensions></trkpt>
   <trkpt lat="59.3154477675" lon="34.6614769507"><ele>162.394</ele><time>2026-08-16T13:23:19.137Z</time><hdop>3.0</hdop><vdop>2.5</vdop><extensions><gom:speed>0.734</gom:speed></extensions></trkpt>
   <trkpt lat="59.3154395952" lon="34.6614846621"><ele>162.249</ele><time>2026-08-16T13:23:20.138Z</time><hdop>3.0</hdop><vdop>2.5</vdop><extensions><gom:speed>0.719</gom:speed></extensions></trkpt>
   <trkpt lat="59.3154329735" lon="34.6614887692"><ele>162.162</ele><time>2026-08-16T13:23:20.989Z</time><hdop>3.0</hdop><vdop>2.5</vdop><extensions><gom:speed>0.749</gom:speed></extensions></trkpt>
   <trkpt lat="59.3154273995" lon="34.6614907809"><ele>162.077</ele><time>2026-08-16T13:23:21.509Z</time><hdop>3.0</hdop><vdop>2.5</vdop><extensions><gom:speed>0.801</gom:speed></extensions></trkpt>
   <trkpt lat="59.3154207778" lon="34.6614924573"><ele>162.037</ele><time>2026-08-16T13:23:22.138Z</time><hdop>3.0</hdop><vdop>2.5</vdop><extensions><gom:speed>0.818</gom:speed></extensions></trkpt>
   <trkpt lat="59.3154106776" lon="34.6614972349"><ele>162.072</ele><time>2026-08-16T13:23:23.138Z</time><hdop>3.0</hdop><vdop>2.5</vdop><extensions><gom:speed>0.83</gom:speed></extensions></trkpt>
   <trkpt lat="59.3154024633" lon="34.6615062874"><ele>162.093</ele><time>2026-08-16T13:23:24.130Z</time><hdop>3.0</hdop><vdop>2.5</vdop><extensions><gom:speed>0.821</gom:speed></extensions></trkpt>
   <trkpt lat="59.3153981886" lon="34.6615156751"><ele>162.203</ele><time>2026-08-16T13:23:24.670Z</time><hdop>3.0</hdop><vdop>2.5</vdop><extensions><gom:speed>0.865</gom:speed></extensions></trkpt>
   <trkpt lat="59.3153947939" lon="34.6615239732"><ele>162.36</ele><time>2026-08-16T13:23:25.138Z</time><hdop>3.0</hdop><vdop>2.5</vdop><extensions><gom:speed>0.917</gom:speed></extensions></trkpt>
   <trkpt lat="59.3153879626" lon="34.6615381386"><ele>162.453</ele><time>2026-08-16T13:23:26.133Z</time><hdop>3.0</hdop><vdop>2.5</vdop><extensions><gom:speed>0.914</gom:speed></extensions></trkpt>
   <trkpt lat="59.3153804608" lon="34.6615459338"><ele>162.486</ele><time>2026-08-16T13:23:26.917Z</time><hdop>3.0</hdop><vdop>2.5</vdop><extensions><gom:speed>0.962</gom:speed></extensions></trkpt>
   <trkpt lat="59.3153691872" lon="34.6615594287"><ele>162.469</ele><time>2026-08-16T13:23:28.135Z</time><hdop>3.0</hdop><vdop>2.5</vdop><extensions><gom:speed>0.989</gom:speed></extensions></trkpt>
   <trkpt lat="59.3153635713" lon="34.6615709957"><ele>162.401</ele><time>2026-08-16T13:23:28.852Z</time><hdop>3.0</hdop><vdop>2.5</vdop><extensions><gom:speed>1.008</gom:speed></extensions></trkpt>
   <trkpt lat="59.3153538902" lon="34.6615870889"><ele>162.555</ele><time>2026-08-16T13:23:30.030Z</time><hdop>3.0</hdop><vdop>2.5</vdop><extensions><gom:speed>0.998</gom:speed></extensions></trkpt>
   <trkpt lat="59.3153464722" lon="34.6615943812"><ele>162.627</ele><time>2026-08-16T13:23:30.795Z</time><hdop>3.0</hdop><vdop>2.5</vdop><extensions><gom:speed>1.027</gom:speed></extensions></trkpt>
   <trkpt lat="59.3153390961" lon="34.6616009191"><ele>162.617</ele><time>2026-08-16T13:23:31.571Z</time><hdop>3.0</hdop><vdop>2.5</vdop><extensions><gom:speed>1.017</gom:speed></extensions></trkpt>
   <trkpt lat="59.3153332707" lon="34.6616034336"><ele>162.553</ele><time>2026-08-16T13:23:32.138Z</time><hdop>3.0</hdop><vdop>2.5</vdop><extensions><gom:speed>1.044</gom:speed></extensions></trkpt>
   <trkpt lat="59.3153271938" lon="34.6616046909"><ele>162.514</ele><time>2026-08-16T13:23:32.710Z</time><hdop>3.0</hdop><vdop>2.5</vdop><extensions><gom:speed>1.043</gom:speed></extensions></trkpt>
   <trkpt lat="59.3153182671" lon="34.6616026793"><ele>162.591</ele><time>2026-08-16T13:23:33.534Z</time><hdop>3.0</hdop><vdop>2.5</vdop><extensions><gom:speed>1.018</gom:speed></extensions></trkpt>
   <trkpt lat="59.3153123998" lon="34.661604188"><ele>162.636</ele><time>2026-08-16T13:23:34.133Z</time><hdop>3.0</hdop><vdop>2.5</vdop><extensions><gom:speed>0.962</gom:speed></extensions></trkpt>
   <trkpt lat="59.3153059876" lon="34.6616073731"><ele>162.689</ele><time>2026-08-16T13:23:34.830Z</time><hdop>3.0</hdop><vdop>2.5</vdop><extensions><gom:speed>0.982</gom:speed></extensions></trkpt>
   <trkpt lat="59.3153001622" lon="34.6616132405"><ele>162.7</ele><time>2026-08-16T13:23:35.517Z</time><hdop>3.0</hdop><vdop>2.5</vdop><extensions><gom:speed>0.968</gom:speed></extensions></trkpt>
   <trkpt lat="59.3152950912" lon="34.6616167609"><ele>162.619</ele><time>2026-08-16T13:23:36.138Z</time><hdop>3.0</hdop><vdop>2.5</vdop><extensions><gom:speed>0.954</gom:speed></extensions></trkpt>
   <trkpt lat="59.3152897686" lon="34.6616189402"><ele>162.57</ele><time>2026-08-16T13:23:36.734Z</time><hdop>3.0</hdop><vdop>2.5</vdop><extensions><gom:speed>0.95</gom:speed></extensions></trkpt>
   <trkpt lat="59.315284069" lon="34.6616176829"><ele>162.554</ele><time>2026-08-16T13:23:37.274Z</time><hdop>3.0</hdop><vdop>2.5</vdop><extensions><gom:speed>0.982</gom:speed></extensions></trkpt>
   <trkpt lat="59.3152770701" lon="34.6616168447"><ele>162.543</ele><time>2026-08-16T13:23:37.971Z</time><hdop>3.0</hdop><vdop>2.5</vdop><extensions><gom:speed>1.0</gom:speed></extensions></trkpt>
   <trkpt lat="59.3152700712" lon="34.6616201975"><ele>162.502</ele><time>2026-08-16T13:23:38.668Z</time><hdop>3.0</hdop><vdop>2.5</vdop><extensions><gom:speed>1.042</gom:speed></extensions></trkpt>
   <trkpt lat="59.3152656707" lon="34.6616243884"><ele>162.477</ele><time>2026-08-16T13:23:39.129Z</time><hdop>3.0</hdop><vdop>2.5</vdop><extensions><gom:speed>1.064</gom:speed></extensions></trkpt>
   <trkpt lat="59.3152582946" lon="34.6616331894"><ele>162.461</ele><time>2026-08-16T13:23:39.973Z</time><hdop>3.0</hdop><vdop>2.5</vdop><extensions><gom:speed>1.053</gom:speed></extensions></trkpt>
   <trkpt lat="59.3152524692" lon="34.6616351172"><ele>162.483</ele><time>2026-08-16T13:23:40.513Z</time><hdop>3.0</hdop><vdop>2.5</vdop><extensions><gom:speed>1.059</gom:speed></extensions></trkpt>
   <trkpt lat="59.3152465599" lon="34.6616345305"><ele>162.494</ele><time>2026-08-16T13:23:41.138Z</time><hdop>3.0</hdop><vdop>2.5</vdop><extensions><gom:speed>0.994</gom:speed></extensions></trkpt>
   <trkpt lat="59.3152387648" lon="34.6616349496"><ele>162.5</ele><time>2026-08-16T13:23:41.946Z</time><hdop>3.0</hdop><vdop>2.5</vdop><extensions><gom:speed>0.988</gom:speed></extensions></trkpt>
   <trkpt lat="59.3152306762" lon="34.6616336923"><ele>162.567</ele><time>2026-08-16T13:23:42.830Z</time><hdop>3.0</hdop><vdop>2.5</vdop><extensions><gom:speed>0.947</gom:speed></extensions></trkpt>
   <trkpt lat="59.3152251861" lon="34.6616313454"><ele>162.562</ele><time>2026-08-16T13:23:43.507Z</time><hdop>3.0</hdop><vdop>2.5</vdop><extensions><gom:speed>0.925</gom:speed></extensions></trkpt>
   <trkpt lat="59.3152198636" lon="34.6616273221"><ele>162.527</ele><time>2026-08-16T13:23:44.138Z</time><hdop>3.0</hdop><vdop>2.5</vdop><extensions><gom:speed>0.926</gom:speed></extensions></trkpt>
   <trkpt lat="59.315215966" lon="34.6616164256"><ele>162.506</ele><time>2026-08-16T13:23:44.852Z</time><hdop>3.0</hdop><vdop>2.5</vdop><extensions><gom:speed>0.924</gom:speed></extensions></trkpt>
   <trkpt lat="59.3152208694" lon="34.6615940459"><ele>162.476</ele><time>2026-08-16T13:23:45.549Z</time><hdop>3.0</hdop><vdop>2.5</vdop><extensions><gom:speed>1.292</gom:speed></extensions></trkpt>
   <trkpt lat="59.3152254794" lon="34.6615782879"><ele>162.262</ele><time>2026-08-16T13:23:46.138Z</time><hdop>3.0</hdop><vdop>2.5</vdop><extensions><gom:speed>1.143</gom:speed></extensions></trkpt>
   <trkpt lat="59.3152254794" lon="34.6615545672"><ele>162.133</ele><time>2026-08-16T13:23:47.129Z</time><hdop>3.0</hdop><vdop>2.5</vdop><extensions><gom:speed>1.057</gom:speed></extensions></trkpt>
   <trkpt lat="59.3152217914" lon="34.6615422458"><ele>161.99</ele><time>2026-08-16T13:23:47.630Z</time><hdop>3.0</hdop><vdop>2.5</vdop><extensions><gom:speed>1.071</gom:speed></extensions></trkpt>
   <trkpt lat="59.3152178938" lon="34.6615320198"><ele>161.863</ele><time>2026-08-16T13:23:48.138Z</time><hdop>3.0</hdop><vdop>2.5</vdop><extensions><gom:speed>1.066</gom:speed></extensions></trkpt>
   <trkpt lat="59.3152107692" lon="34.6615146693"><ele>161.796</ele><time>2026-08-16T13:23:49.138Z</time><hdop>3.0</hdop><vdop>2.5</vdop><extensions><gom:speed>1.071</gom:speed></extensions></trkpt>
   <trkpt lat="59.3152050695" lon="34.6615000848"><ele>161.756</ele><time>2026-08-16T13:23:50.005Z</time><hdop>3.0</hdop><vdop>2.5</vdop><extensions><gom:speed>1.069</gom:speed></extensions></trkpt>
   <trkpt lat="59.3152013815" lon="34.6614925411"><ele>161.75</ele><time>2026-08-16T13:23:50.467Z</time><hdop>3.0</hdop><vdop>2.5</vdop><extensions><gom:speed>1.098</gom:speed></extensions></trkpt>
   <trkpt lat="59.3151961847" lon="34.6614834886"><ele>161.846</ele><time>2026-08-16T13:23:51.138Z</time><hdop>3.0</hdop><vdop>2.5</vdop><extensions><gom:speed>1.048</gom:speed></extensions></trkpt>
   <trkpt lat="59.3151876771" lon="34.6614738494"><ele>161.903</ele><time>2026-08-16T13:23:52.126Z</time><hdop>3.0</hdop><vdop>2.5</vdop><extensions><gom:speed>1.006</gom:speed></extensions></trkpt>
   <trkpt lat="59.3151804686" lon="34.6614724245"><ele>161.9</ele><time>2026-08-16T13:23:52.793Z</time><hdop>3.0</hdop><vdop>2.5</vdop><extensions><gom:speed>1.045</gom:speed></extensions></trkpt>
   <trkpt lat="59.3151739727" lon="34.6614664734"><ele>161.971</ele><time>2026-08-16T13:23:53.569Z</time><hdop>3.0</hdop><vdop>2.5</vdop><extensions><gom:speed>0.999</gom:speed></extensions></trkpt>
   <trkpt lat="59.3151707875" lon="34.6614593487"><ele>162.094</ele><time>2026-08-16T13:23:54.138Z</time><hdop>3.0</hdop><vdop>2.5</vdop><extensions><gom:speed>0.958</gom:speed></extensions></trkpt>
   <trkpt lat="59.3151651717" lon="34.6614470273"><ele>162.305</ele><time>2026-08-16T13:23:55.138Z</time><hdop>3.0</hdop><vdop>2.5</vdop><extensions><gom:speed>0.947</gom:speed></extensions></trkpt>
   <trkpt lat="59.315160394" lon="34.6614369691"><ele>162.431</ele><time>2026-08-16T13:23:55.974Z</time><hdop>3.0</hdop><vdop>2.5</vdop><extensions><gom:speed>0.921</gom:speed></extensions></trkpt>
   <trkpt lat="59.3151560773" lon="34.6614251506"><ele>162.529</ele><time>2026-08-16T13:23:56.788Z</time><hdop>3.0</hdop><vdop>2.5</vdop><extensions><gom:speed>0.946</gom:speed></extensions></trkpt>
   <trkpt lat="59.3151547781" lon="34.6614144217"><ele>162.6</ele><time>2026-08-16T13:23:57.485Z</time><hdop>3.0</hdop><vdop>2.5</vdop><extensions><gom:speed>0.886</gom:speed></extensions></trkpt>
   <trkpt lat="59.3151545685" lon="34.6614040282"><ele>162.673</ele><time>2026-08-16T13:23:58.138Z</time><hdop>3.0</hdop><vdop>2.5</vdop><extensions><gom:speed>0.857</gom:speed></extensions></trkpt>
   <trkpt lat="59.315153898" lon="34.6613904495"><ele>162.716</ele><time>2026-08-16T13:23:59.045Z</time><hdop>3.0</hdop><vdop>2.5</vdop><extensions><gom:speed>0.804</gom:speed></extensions></trkpt>
   <trkpt lat="59.3151479888" lon="34.6613847498"><ele>162.639</ele><time>2026-08-16T13:23:59.851Z</time><hdop>3.0</hdop><vdop>2.5</vdop><extensions><gom:speed>0.841</gom:speed></extensions></trkpt>
   <trkpt lat="59.3151422891" lon="34.6613927964"><ele>162.564</ele><time>2026-08-16T13:24:00.391Z</time><hdop>3.0</hdop><vdop>2.5</vdop><extensions><gom:speed>0.878</gom:speed></extensions></trkpt>
   <trkpt lat="59.3151366732" lon="34.6613998372"><ele>162.519</ele><time>2026-08-16T13:24:01.068Z</time><hdop>3.0</hdop><vdop>2.5</vdop><extensions><gom:speed>0.9</gom:speed></extensions></trkpt>
   <trkpt lat="59.3151286685" lon="34.661417523"><ele>162.409</ele><time>2026-08-16T13:24:02.010Z</time><hdop>3.0</hdop><vdop>2.5</vdop><extensions><gom:speed>0.965</gom:speed></extensions></trkpt>
   <trkpt lat="59.3151236812" lon="34.661432359"><ele>162.378</ele><time>2026-08-16T13:24:02.629Z</time><hdop>3.0</hdop><vdop>2.5</vdop><extensions><gom:speed>0.991</gom:speed></extensions></trkpt>
   <trkpt lat="59.3151199932" lon="34.6614436746"><ele>162.287</ele><time>2026-08-16T13:24:03.138Z</time><hdop>3.0</hdop><vdop>2.5</vdop><extensions><gom:speed>1.035</gom:speed></extensions></trkpt>
   <trkpt lat="59.3151136649" lon="34.6614551578"><ele>162.232</ele><time>2026-08-16T13:24:03.904Z</time><hdop>3.0</hdop><vdop>2.5</vdop><extensions><gom:speed>1.022</gom:speed></extensions></trkpt>
   <trkpt lat="59.3151110665" lon="34.6614648808"><ele>162.212</ele><time>2026-08-16T13:24:04.366Z</time><hdop>3.0</hdop><vdop>2.5</vdop><extensions><gom:speed>1.045</gom:speed></extensions></trkpt>
   <trkpt lat="59.3151053668" lon="34.6614740171"><ele>162.2</ele><time>2026-08-16T13:24:05.073Z</time><hdop>3.0</hdop><vdop>2.5</vdop><extensions><gom:speed>1.07</gom:speed></extensions></trkpt>
   <trkpt lat="59.3151006729" lon="34.661486087"><ele>162.148</ele><time>2026-08-16T13:24:05.731Z</time><hdop>3.0</hdop><vdop>2.5</vdop><extensions><gom:speed>1.08</gom:speed></extensions></trkpt>
   <trkpt lat="59.3150948894" lon="34.6614977379"><ele>162.183</ele><time>2026-08-16T13:24:06.526Z</time><hdop>3.0</hdop><vdop>2.5</vdop><extensions><gom:speed>1.04</gom:speed></extensions></trkpt>
   <trkpt lat="59.3150904889" lon="34.661507377"><ele>162.286</ele><time>2026-08-16T13:24:07.138Z</time><hdop>3.0</hdop><vdop>2.5</vdop><extensions><gom:speed>1.057</gom:speed></extensions></trkpt>
   <trkpt lat="59.3150864656" lon="34.6615157589"><ele>162.347</ele><time>2026-08-16T13:24:07.684Z</time><hdop>3.0</hdop><vdop>2.5</vdop><extensions><gom:speed>1.067</gom:speed></extensions></trkpt>
   <trkpt lat="59.3150835738" lon="34.6615242247"><ele>162.331</ele><time>2026-08-16T13:24:08.138Z</time><hdop>3.0</hdop><vdop>2.5</vdop><extensions><gom:speed>1.008</gom:speed></extensions></trkpt>
   <trkpt lat="59.3150776646" lon="34.6615366299"><ele>162.321</ele><time>2026-08-16T13:24:08.970Z</time><hdop>3.0</hdop><vdop>2.5</vdop><extensions><gom:speed>1.027</gom:speed></extensions></trkpt>
   <trkpt lat="59.3150675644" lon="34.6615511306"><ele>162.499</ele><time>2026-08-16T13:24:10.138Z</time><hdop>3.0</hdop><vdop>2.5</vdop><extensions><gom:speed>0.979</gom:speed></extensions></trkpt>
   <trkpt lat="59.3150587634" lon="34.6615586743"><ele>162.505</ele><time>2026-08-16T13:24:11.138Z</time><hdop>3.0</hdop><vdop>2.5</vdop><extensions><gom:speed>0.937</gom:speed></extensions></trkpt>
   <trkpt lat="59.3150522674" lon="34.6615619432"><ele>162.508</ele><time>2026-08-16T13:24:11.866Z</time><hdop>3.0</hdop><vdop>2.5</vdop><extensions><gom:speed>0.934</gom:speed></extensions></trkpt>
   <trkpt lat="59.315045981" lon="34.6615591772"><ele>162.501</ele><time>2026-08-16T13:24:12.512Z</time><hdop>3.0</hdop><vdop>2.5</vdop><extensions><gom:speed>0.925</gom:speed></extensions></trkpt>
   <trkpt lat="59.315040868" lon="34.6615577523"><ele>162.497</ele><time>2026-08-16T13:24:13.053Z</time><hdop>3.0</hdop><vdop>2.5</vdop><extensions><gom:speed>0.938</gom:speed></extensions></trkpt>
   <trkpt lat="59.3150344978" lon="34.6615464367"><ele>162.482</ele><time>2026-08-16T13:24:13.750Z</time><hdop>3.0</hdop><vdop>2.5</vdop><extensions><gom:speed>0.958</gom:speed></extensions></trkpt>
   <trkpt lat="59.3150300973" lon="34.6615336962"><ele>162.486</ele><time>2026-08-16T13:24:14.310Z</time><hdop>3.0</hdop><vdop>2.5</vdop><extensions><gom:speed>0.989</gom:speed></extensions></trkpt>
   <trkpt lat="59.3150240623" lon="34.6615230512"><ele>162.488</ele><time>2026-08-16T13:24:15.046Z</time><hdop>3.0</hdop><vdop>2.5</vdop><extensions><gom:speed>1.032</gom:speed></extensions></trkpt>
   <trkpt lat="59.3150188655" lon="34.6615123224"><ele>162.386</ele><time>2026-08-16T13:24:15.586Z</time><hdop>3.0</hdop><vdop>2.5</vdop><extensions><gom:speed>1.056</gom:speed></extensions></trkpt>
   <trkpt lat="59.3150134592" lon="34.6615042757"><ele>162.281</ele><time>2026-08-16T13:24:16.138Z</time><hdop>3.0</hdop><vdop>2.5</vdop><extensions><gom:speed>1.073</gom:speed></extensions></trkpt>
   <trkpt lat="59.3150069632" lon="34.6614973188"><ele>162.219</ele><time>2026-08-16T13:24:16.774Z</time><hdop>3.0</hdop><vdop>2.5</vdop><extensions><gom:speed>1.07</gom:speed></extensions></trkpt>
   <trkpt lat="59.3150015988" lon="34.6614915352"><ele>162.267</ele><time>2026-08-16T13:24:17.264Z</time><hdop>3.0</hdop><vdop>2.5</vdop><extensions><gom:speed>1.133</gom:speed></extensions></trkpt>
   <trkpt lat="59.3149932588" lon="34.6614797168"><ele>162.245</ele><time>2026-08-16T13:24:18.138Z</time><hdop>3.0</hdop><vdop>2.5</vdop><extensions><gom:speed>1.22</gom:speed></extensions></trkpt>
   <trkpt lat="59.3149905766" lon="34.6614699938"><ele>162.232</ele><time>2026-08-16T13:24:18.609Z</time><hdop>3.0</hdop><vdop>2.5</vdop><extensions><gom:speed>1.225</gom:speed></extensions></trkpt>
   <trkpt lat="59.3149842902" lon="34.6614667248"><ele>162.38</ele><time>2026-08-16T13:24:19.137Z</time><hdop>3.0</hdop><vdop>2.5</vdop><extensions><gom:speed>1.245</gom:speed></extensions></trkpt>
   <trkpt lat="59.3149738966" lon="34.661467563"><ele>162.469</ele><time>2026-08-16T13:24:19.974Z</time><hdop>3.0</hdop><vdop>2.5</vdop><extensions><gom:speed>1.223</gom:speed></extensions></trkpt>
   <trkpt lat="59.314967694" lon="34.6614679821"><ele>162.517</ele><time>2026-08-16T13:24:20.513Z</time><hdop>3.0</hdop><vdop>2.5</vdop><extensions><gom:speed>1.187</gom:speed></extensions></trkpt>
   <trkpt lat="59.3149609885" lon="34.6614679821"><ele>162.535</ele><time>2026-08-16T13:24:21.138Z</time><hdop>3.0</hdop><vdop>2.5</vdop><extensions><gom:speed>1.099</gom:speed></extensions></trkpt>
   <trkpt lat="59.3149552888" lon="34.6614687365"><ele>162.546</ele><time>2026-08-16T13:24:21.711Z</time><hdop>3.062</hdop><vdop>2.5</vdop><extensions><gom:speed>1.099</gom:speed></extensions></trkpt>
   <trkpt lat="59.3149476613" lon="34.6614737656"><ele>162.532</ele><time>2026-08-16T13:24:22.467Z</time><hdop>3.125</hdop><vdop>2.5</vdop><extensions><gom:speed>1.051</gom:speed></extensions></trkpt>
   <trkpt lat="59.3149433865" lon="34.6614776213"><ele>162.523</ele><time>2026-08-16T13:24:22.928Z</time><hdop>3.125</hdop><vdop>2.5</vdop><extensions><gom:speed>1.053</gom:speed></extensions></trkpt>
   <trkpt lat="59.3149367648" lon="34.6614887692"><ele>162.429</ele><time>2026-08-16T13:24:23.684Z</time><hdop>3.187</hdop><vdop>2.5</vdop><extensions><gom:speed>1.075</gom:speed></extensions></trkpt>
   <trkpt lat="59.3149320709" lon="34.6614944689"><ele>162.328</ele><time>2026-08-16T13:24:24.138Z</time><hdop>3.187</hdop><vdop>2.5</vdop><extensions><gom:speed>1.113</gom:speed></extensions></trkpt>
   <trkpt lat="59.3149240662" lon="34.6615019288"><ele>162.267</ele><time>2026-08-16T13:24:24.911Z</time><hdop>3.187</hdop><vdop>2.5</vdop><extensions><gom:speed>1.106</gom:speed></extensions></trkpt>
   <trkpt lat="59.3149095655" lon="34.6614989951"><ele>162.196</ele><time>2026-08-16T13:24:26.128Z</time><hdop>3.187</hdop><vdop>2.5</vdop><extensions><gom:speed>1.083</gom:speed></extensions></trkpt>
   <trkpt lat="59.3149036982" lon="34.6614911161"><ele>162.312</ele><time>2026-08-16T13:24:26.668Z</time><hdop>3.187</hdop><vdop>2.5</vdop><extensions><gom:speed>1.09</gom:speed></extensions></trkpt>
   <trkpt lat="59.3148994653" lon="34.6614862546"><ele>162.421</ele><time>2026-08-16T13:24:27.138Z</time><hdop>3.125</hdop><vdop>2.5</vdop><extensions><gom:speed>1.037</gom:speed></extensions></trkpt>
   <trkpt lat="59.3148916702" lon="34.6614790462"><ele>162.486</ele><time>2026-08-16T13:24:27.974Z</time><hdop>3.125</hdop><vdop>2.5</vdop><extensions><gom:speed>1.058</gom:speed></extensions></trkpt>
   <trkpt lat="59.3148842941" lon="34.6614752744"><ele>162.663</ele><time>2026-08-16T13:24:28.729Z</time><hdop>3.062</hdop><vdop>2.5</vdop><extensions><gom:speed>1.069</gom:speed></extensions></trkpt>
   <trkpt lat="59.314879684" lon="34.6614734303"><ele>162.756</ele><time>2026-08-16T13:24:29.191Z</time><hdop>3.062</hdop><vdop>2.5</vdop><extensions><gom:speed>1.063</gom:speed></extensions></trkpt>
   <trkpt lat="59.3148707992" lon="34.6614668924"><ele>162.836</ele><time>2026-08-16T13:24:30.137Z</time><hdop>3.062</hdop><vdop>2.5</vdop><extensions><gom:speed>1.075</gom:speed></extensions></trkpt>
   <trkpt lat="59.3148621659" lon="34.6614554931"><ele>162.884</ele><time>2026-08-16T13:24:31.126Z</time><hdop>3.062</hdop><vdop>2.5</vdop><extensions><gom:speed>1.089</gom:speed></extensions></trkpt>
   <trkpt lat="59.3148575977" lon="34.6614498772"><ele>162.817</ele><time>2026-08-16T13:24:31.666Z</time><hdop>3.062</hdop><vdop>2.5</vdop><extensions><gom:speed>1.093</gom:speed></extensions></trkpt>
   <trkpt lat="59.3148534906" lon="34.6614466921"><ele>162.825</ele><time>2026-08-16T13:24:32.138Z</time><hdop>3.062</hdop><vdop>2.5</vdop><extensions><gom:speed>1.095</gom:speed></extensions></trkpt>
   <trkpt lat="59.3148461983" lon="34.6614430878"><ele>162.829</ele><time>2026-08-16T13:24:32.853Z</time><hdop>3.0</hdop><vdop>2.5</vdop><extensions><gom:speed>1.094</gom:speed></extensions></trkpt>
   <trkpt lat="59.3148405825" lon="34.6614392322"><ele>162.796</ele><time>2026-08-16T13:24:33.511Z</time><hdop>3.0</hdop><vdop>2.5</vdop><extensions><gom:speed>1.079</gom:speed></extensions></trkpt>
   <trkpt lat="59.3148354695" lon="34.6614327781"><ele>162.776</ele><time>2026-08-16T13:24:34.071Z</time><hdop>3.0</hdop><vdop>2.5</vdop><extensions><gom:speed>1.118</gom:speed></extensions></trkpt>
   <trkpt lat="59.3148281772" lon="34.6614251506"><ele>162.796</ele><time>2026-08-16T13:24:34.846Z</time><hdop>3.0</hdop><vdop>2.5</vdop><extensions><gom:speed>1.122</gom:speed></extensions></trkpt>
   <trkpt lat="59.3148223937" lon="34.6614231389"><ele>162.885</ele><time>2026-08-16T13:24:35.386Z</time><hdop>3.0</hdop><vdop>2.5</vdop><extensions><gom:speed>1.145</gom:speed></extensions></trkpt>
   <trkpt lat="59.3148153948" lon="34.6614193671"><ele>162.938</ele><time>2026-08-16T13:24:36.024Z</time><hdop>3.0</hdop><vdop>2.5</vdop><extensions><gom:speed>1.144</gom:speed></extensions></trkpt>
   <trkpt lat="59.3148095694" lon="34.6614187803"><ele>162.979</ele><time>2026-08-16T13:24:36.574Z</time><hdop>3.0</hdop><vdop>2.5</vdop><extensions><gom:speed>1.125</gom:speed></extensions></trkpt>
   <trkpt lat="59.3148041631" lon="34.6614171878"><ele>162.984</ele><time>2026-08-16T13:24:37.138Z</time><hdop>3.0</hdop><vdop>2.5</vdop><extensions><gom:speed>1.092</gom:speed></extensions></trkpt>
   <trkpt lat="59.3147987987" lon="34.6614123263"><ele>162.988</ele><time>2026-08-16T13:24:37.732Z</time><hdop>3.0</hdop><vdop>2.5</vdop><extensions><gom:speed>1.086</gom:speed></extensions></trkpt>
   <trkpt lat="59.314793099" lon="34.6614075486"><ele>163.149</ele><time>2026-08-16T13:24:38.409Z</time><hdop>3.0</hdop><vdop>2.5</vdop><extensions><gom:speed>1.084</gom:speed></extensions></trkpt>
   <trkpt lat="59.3147882794" lon="34.6614012621"><ele>163.245</ele><time>2026-08-16T13:24:38.949Z</time><hdop>3.0</hdop><vdop>2.5</vdop><extensions><gom:speed>1.09</gom:speed></extensions></trkpt>
   <trkpt lat="59.3147816996" lon="34.6613993343"><ele>163.311</ele><time>2026-08-16T13:24:39.607Z</time><hdop>3.0</hdop><vdop>2.5</vdop><extensions><gom:speed>1.048</gom:speed></extensions></trkpt>
   <trkpt lat="59.3147759999" lon="34.6613955625"><ele>163.35</ele><time>2026-08-16T13:24:40.147Z</time><hdop>3.0</hdop><vdop>2.5</vdop><extensions><gom:speed>1.044</gom:speed></extensions></trkpt>
   <trkpt lat="59.3147689591" lon="34.6613873482"><ele>163.323</ele><time>2026-08-16T13:24:40.971Z</time><hdop>3.0</hdop><vdop>2.5</vdop><extensions><gom:speed>1.011</gom:speed></extensions></trkpt>
   <trkpt lat="59.3147661931" lon="34.6613783795"><ele>163.18</ele><time>2026-08-16T13:24:41.452Z</time><hdop>3.0</hdop><vdop>2.5</vdop><extensions><gom:speed>1.025</gom:speed></extensions></trkpt>
   <trkpt lat="59.3147628822" lon="34.6613660582"><ele>162.959</ele><time>2026-08-16T13:24:42.138Z</time><hdop>3.0</hdop><vdop>2.5</vdop><extensions><gom:speed>0.986</gom:speed></extensions></trkpt>
   <trkpt lat="59.3147583979" lon="34.6613545749"><ele>162.827</ele><time>2026-08-16T13:24:42.846Z</time><hdop>3.0</hdop><vdop>2.5</vdop><extensions><gom:speed>0.977</gom:speed></extensions></trkpt>
   <trkpt lat="59.3147521953" lon="34.661344349"><ele>162.801</ele><time>2026-08-16T13:24:43.533Z</time><hdop>3.0</hdop><vdop>2.5</vdop><extensions><gom:speed>1.01</gom:speed></extensions></trkpt>
   <trkpt lat="59.3147474595" lon="34.661337895"><ele>162.786</ele><time>2026-08-16T13:24:44.093Z</time><hdop>3.0</hdop><vdop>2.5</vdop><extensions><gom:speed>1.022</gom:speed></extensions></trkpt>
   <trkpt lat="59.3147396643" lon="34.6613311894"><ele>162.836</ele><time>2026-08-16T13:24:44.790Z</time><hdop>3.0</hdop><vdop>2.5</vdop><extensions><gom:speed>1.045</gom:speed></extensions></trkpt>
   <trkpt lat="59.3147331684" lon="34.6613271661"><ele>162.933</ele><time>2026-08-16T13:24:45.290Z</time><hdop>3.0</hdop><vdop>2.5</vdop><extensions><gom:speed>1.067</gom:speed></extensions></trkpt>
   <trkpt lat="59.3147256666" lon="34.6613198739"><ele>162.991</ele><time>2026-08-16T13:24:46.026Z</time><hdop>3.0</hdop><vdop>2.5</vdop><extensions><gom:speed>1.082</gom:speed></extensions></trkpt>
   <trkpt lat="59.314712968" lon="34.6613150962"><ele>162.913</ele><time>2026-08-16T13:24:47.138Z</time><hdop>3.0</hdop><vdop>2.5</vdop><extensions><gom:speed>1.047</gom:speed></extensions></trkpt>
   <trkpt lat="59.3147052985" lon="34.6613192871"><ele>162.866</ele><time>2026-08-16T13:24:47.852Z</time><hdop>3.0</hdop><vdop>2.5</vdop><extensions><gom:speed>1.057</gom:speed></extensions></trkpt>
   <trkpt lat="59.3146964975" lon="34.6613296807"><ele>162.897</ele><time>2026-08-16T13:24:48.569Z</time><hdop>3.0</hdop><vdop>2.5</vdop><extensions><gom:speed>1.143</gom:speed></extensions></trkpt>
   <trkpt lat="59.3146904626" lon="34.6613320276"><ele>162.916</ele><time>2026-08-16T13:24:49.050Z</time><hdop>3.0</hdop><vdop>2.5</vdop><extensions><gom:speed>1.147</gom:speed></extensions></trkpt>
   <trkpt lat="59.3146814939" lon="34.6613307703"><ele>162.798</ele><time>2026-08-16T13:24:49.825Z</time><hdop>3.0</hdop><vdop>2.5</vdop><extensions><gom:speed>1.145</gom:speed></extensions></trkpt>
   <trkpt lat="59.3146760876" lon="34.6613278367"><ele>162.794</ele><time>2026-08-16T13:24:50.306Z</time><hdop>3.0</hdop><vdop>2.5</vdop><extensions><gom:speed>1.122</gom:speed></extensions></trkpt>
   <trkpt lat="59.3146674962" lon="34.6613233943"><ele>162.8</ele><time>2026-08-16T13:24:51.138Z</time><hdop>3.0</hdop><vdop>2.5</vdop><extensions><gom:speed>1.134</gom:speed></extensions></trkpt>
   <trkpt lat="59.3146623832" lon="34.6613198739"><ele>162.803</ele><time>2026-08-16T13:24:51.612Z</time><hdop>3.0</hdop><vdop>2.5</vdop><extensions><gom:speed>1.129</gom:speed></extensions></trkpt>
   <trkpt lat="59.3146561806" lon="34.6613182813"><ele>162.76</ele><time>2026-08-16T13:24:52.138Z</time><hdop>3.0</hdop><vdop>2.5</vdop><extensions><gom:speed>1.144</gom:speed></extensions></trkpt>
   <trkpt lat="59.3146472958" lon="34.661314258"><ele>162.735</ele><time>2026-08-16T13:24:52.907Z</time><hdop>3.0</hdop><vdop>2.5</vdop><extensions><gom:speed>1.153</gom:speed></extensions></trkpt>
   <trkpt lat="59.3146324598" lon="34.6613172755"><ele>162.667</ele><time>2026-08-16T13:24:54.138Z</time><hdop>3.0</hdop><vdop>2.5</vdop><extensions><gom:speed>1.175</gom:speed></extensions></trkpt>
   <trkpt lat="59.3146231978" lon="34.6613240648"><ele>162.627</ele><time>2026-08-16T13:24:54.910Z</time><hdop>3.0</hdop><vdop>2.5</vdop><extensions><gom:speed>1.174</gom:speed></extensions></trkpt>
   <trkpt lat="59.3146183782" lon="34.6613272499"><ele>162.686</ele><time>2026-08-16T13:24:55.371Z</time><hdop>3.0</hdop><vdop>2.5</vdop><extensions><gom:speed>1.149</gom:speed></extensions></trkpt>
   <trkpt lat="59.3146114631" lon="34.6613259927"><ele>162.596</ele><time>2026-08-16T13:24:56.138Z</time><hdop>3.0</hdop><vdop>2.5</vdop><extensions><gom:speed>1.07</gom:speed></extensions></trkpt>
   <trkpt lat="59.314606895" lon="34.6613200415"><ele>162.542</ele><time>2026-08-16T13:24:56.666Z</time><hdop>3.0</hdop><vdop>2.5</vdop><extensions><gom:speed>1.079</gom:speed></extensions></trkpt>
   <trkpt lat="59.3146029974" lon="34.6613150962"><ele>162.7</ele><time>2026-08-16T13:24:57.138Z</time><hdop>3.0</hdop><vdop>2.5</vdop><extensions><gom:speed>1.075</gom:speed></extensions></trkpt>
   <trkpt lat="59.3145950765" lon="34.661306379"><ele>162.794</ele><time>2026-08-16T13:24:57.972Z</time><hdop>3.0</hdop><vdop>2.5</vdop><extensions><gom:speed>1.083</gom:speed></extensions></trkpt>
   <trkpt lat="59.3145876585" lon="34.6613013499"><ele>163.098</ele><time>2026-08-16T13:24:58.728Z</time><hdop>3.0</hdop><vdop>2.5</vdop><extensions><gom:speed>1.088</gom:speed></extensions></trkpt>
   <trkpt lat="59.3145829647" lon="34.6612992544"><ele>163.252</ele><time>2026-08-16T13:24:59.209Z</time><hdop>3.0</hdop><vdop>2.5</vdop><extensions><gom:speed>1.108</gom:speed></extensions></trkpt>
   <trkpt lat="59.314573996" lon="34.6612947282"><ele>163.553</ele><time>2026-08-16T13:25:00.138Z</time><hdop>3.0</hdop><vdop>2.5</vdop><extensions><gom:speed>1.112</gom:speed></extensions></trkpt>
   <trkpt lat="59.3145635606" lon="34.6612918783"><ele>163.618</ele><time>2026-08-16T13:25:01.138Z</time><hdop>3.0</hdop><vdop>2.5</vdop><extensions><gom:speed>1.154</gom:speed></extensions></trkpt>
   <trkpt lat="59.3145578609" lon="34.6612902857"><ele>163.656</ele><time>2026-08-16T13:25:01.653Z</time><hdop>3.0</hdop><vdop>2.5</vdop><extensions><gom:speed>1.156</gom:speed></extensions></trkpt>
   <trkpt lat="59.3145523707" lon="34.6612908725"><ele>163.911</ele><time>2026-08-16T13:25:02.138Z</time><hdop>3.0</hdop><vdop>2.5</vdop><extensions><gom:speed>1.165</gom:speed></extensions></trkpt>
   <trkpt lat="59.3145430668" lon="34.6612923812"><ele>164.064</ele><time>2026-08-16T13:25:02.910Z</time><hdop>3.0</hdop><vdop>2.5</vdop><extensions><gom:speed>1.176</gom:speed></extensions></trkpt>
   <trkpt lat="59.3145352716" lon="34.6612955663"><ele>164.127</ele><time>2026-08-16T13:25:03.587Z</time><hdop>3.0</hdop><vdop>2.5</vdop><extensions><gom:speed>1.163</gom:speed></extensions></trkpt>
   <trkpt lat="59.3145291948" lon="34.6612954825"><ele>164.164</ele><time>2026-08-16T13:25:04.088Z</time><hdop>3.0</hdop><vdop>2.5</vdop><extensions><gom:speed>1.175</gom:speed></extensions></trkpt>
   <trkpt lat="59.3145215672" lon="34.6612976618"><ele>164.136</ele><time>2026-08-16T13:25:04.804Z</time><hdop>3.0</hdop><vdop>2.5</vdop><extensions><gom:speed>1.148</gom:speed></extensions></trkpt>
   <trkpt lat="59.3145158675" lon="34.6612997573"><ele>164.356</ele><time>2026-08-16T13:25:05.324Z</time><hdop>3.0</hdop><vdop>2.5</vdop><extensions><gom:speed>1.162</gom:speed></extensions></trkpt>
   <trkpt lat="59.3145082819" lon="34.6612981647"><ele>164.488</ele><time>2026-08-16T13:25:06.012Z</time><hdop>3.0</hdop><vdop>2.5</vdop><extensions><gom:speed>1.149</gom:speed></extensions></trkpt>
   <trkpt lat="59.3145029594" lon="34.6612982486"><ele>164.584</ele><time>2026-08-16T13:25:06.512Z</time><hdop>3.0</hdop><vdop>2.5</vdop><extensions><gom:speed>1.149</gom:speed></extensions></trkpt>
   <trkpt lat="59.3144964634" lon="34.6612970751"><ele>164.653</ele><time>2026-08-16T13:25:07.138Z</time><hdop>3.0</hdop><vdop>2.5</vdop><extensions><gom:speed>1.164</gom:speed></extensions></trkpt>
   <trkpt lat="59.3144898836" lon="34.6612950634"><ele>164.694</ele><time>2026-08-16T13:25:07.729Z</time><hdop>3.0</hdop><vdop>2.5</vdop><extensions><gom:speed>1.163</gom:speed></extensions></trkpt>
   <trkpt lat="59.3144828847" lon="34.6612898667"><ele>164.831</ele><time>2026-08-16T13:25:08.466Z</time><hdop>3.0</hdop><vdop>2.5</vdop><extensions><gom:speed>1.15</gom:speed></extensions></trkpt>
   <trkpt lat="59.3144777718" lon="34.6612849213"><ele>164.912</ele><time>2026-08-16T13:25:08.966Z</time><hdop>3.0</hdop><vdop>2.5</vdop><extensions><gom:speed>1.149</gom:speed></extensions></trkpt>
   <trkpt lat="59.3144667915" lon="34.6612749469"><ele>164.949</ele><time>2026-08-16T13:25:10.105Z</time><hdop>3.0</hdop><vdop>2.5</vdop><extensions><gom:speed>1.136</gom:speed></extensions></trkpt>
   <trkpt lat="59.3144596669" lon="34.6612692472"><ele>164.924</ele><time>2026-08-16T13:25:10.851Z</time><hdop>3.0</hdop><vdop>2.5</vdop><extensions><gom:speed>1.138</gom:speed></extensions></trkpt>
   <trkpt lat="59.3144543863" lon="34.6612658944"><ele>165.004</ele><time>2026-08-16T13:25:11.430Z</time><hdop>3.0</hdop><vdop>2.5</vdop><extensions><gom:speed>1.11</gom:speed></extensions></trkpt>
   <trkpt lat="59.3144471778" lon="34.6612628769"><ele>165.052</ele><time>2026-08-16T13:25:12.127Z</time><hdop>3.0</hdop><vdop>2.5</vdop><extensions><gom:speed>1.067</gom:speed></extensions></trkpt>
   <trkpt lat="59.3144425678" lon="34.6612596918"><ele>164.942</ele><time>2026-08-16T13:25:12.647Z</time><hdop>3.0</hdop><vdop>2.5</vdop><extensions><gom:speed>1.052</gom:speed></extensions></trkpt>
   <trkpt lat="59.3144377901" lon="34.6612579316"><ele>164.599</ele><time>2026-08-16T13:25:13.138Z</time><hdop>3.0</hdop><vdop>2.5</vdop><extensions><gom:speed>1.034</gom:speed></extensions></trkpt>
   <trkpt lat="59.3144296597" lon="34.6612575963"><ele>164.395</ele><time>2026-08-16T13:25:13.913Z</time><hdop>3.0</hdop><vdop>2.5</vdop><extensions><gom:speed>1.03</gom:speed></extensions></trkpt>
   <trkpt lat="59.3144230799" lon="34.6612601947"><ele>164.24</ele><time>2026-08-16T13:25:14.591Z</time><hdop>3.0</hdop><vdop>2.5</vdop><extensions><gom:speed>1.02</gom:speed></extensions></trkpt>
   <trkpt lat="59.314417464" lon="34.6612628769"><ele>164.048</ele><time>2026-08-16T13:25:15.138Z</time><hdop>3.0</hdop><vdop>2.5</vdop><extensions><gom:speed>1.046</gom:speed></extensions></trkpt>
   <trkpt lat="59.3144123929" lon="34.6612640504"><ele>163.933</ele><time>2026-08-16T13:25:15.651Z</time><hdop>3.0</hdop><vdop>2.5</vdop><extensions><gom:speed>1.041</gom:speed></extensions></trkpt>
   <trkpt lat="59.3144076991" lon="34.6612659782"><ele>163.83</ele><time>2026-08-16T13:25:16.138Z</time><hdop>3.0</hdop><vdop>2.5</vdop><extensions><gom:speed>1.065</gom:speed></extensions></trkpt>
   <trkpt lat="59.3144000715" lon="34.6612689957"><ele>163.768</ele><time>2026-08-16T13:25:16.868Z</time><hdop>3.0</hdop><vdop>2.5</vdop><extensions><gom:speed>1.066</gom:speed></extensions></trkpt>
   <trkpt lat="59.3143946652" lon="34.6612731867"><ele>163.774</ele><time>2026-08-16T13:25:17.427Z</time><hdop>3.0</hdop><vdop>2.5</vdop><extensions><gom:speed>1.047</gom:speed></extensions></trkpt>
   <trkpt lat="59.3143870796" lon="34.6612786349"><ele>163.685</ele><time>2026-08-16T13:25:18.138Z</time><hdop>3.0</hdop><vdop>2.5</vdop><extensions><gom:speed>1.064</gom:speed></extensions></trkpt>
   <trkpt lat="59.3143775661" lon="34.6612879388"><ele>163.631</ele><time>2026-08-16T13:25:19.086Z</time><hdop>3.0</hdop><vdop>2.5</vdop><extensions><gom:speed>1.077</gom:speed></extensions></trkpt>
   <trkpt lat="59.3143672983" lon="34.6613022719"><ele>163.759</ele><time>2026-08-16T13:25:20.138Z</time><hdop>3.0</hdop><vdop>2.5</vdop><extensions><gom:speed>1.105</gom:speed></extensions></trkpt>
   <trkpt lat="59.3143599641" lon="34.66131518"><ele>163.836</ele><time>2026-08-16T13:25:21.010Z</time><hdop>3.0</hdop><vdop>2.5</vdop><extensions><gom:speed>1.071</gom:speed></extensions></trkpt>
   <trkpt lat="59.3143528814" lon="34.6613242325"><ele>163.899</ele><time>2026-08-16T13:25:21.727Z</time><hdop>3.0</hdop><vdop>2.5</vdop><extensions><gom:speed>1.092</gom:speed></extensions></trkpt>
   <trkpt lat="59.3143386741" lon="34.6613286749"><ele>164.027</ele><time>2026-08-16T13:25:22.905Z</time><hdop>3.0</hdop><vdop>2.5</vdop><extensions><gom:speed>1.09</gom:speed></extensions></trkpt>
   <trkpt lat="59.3143316752" lon="34.661326747"><ele>164.125</ele><time>2026-08-16T13:25:23.405Z</time><hdop>3.0</hdop><vdop>2.5</vdop><extensions><gom:speed>1.131</gom:speed></extensions></trkpt>
   <trkpt lat="59.3143235867" lon="34.6613266632"><ele>164.184</ele><time>2026-08-16T13:25:24.092Z</time><hdop>3.0</hdop><vdop>2.5</vdop><extensions><gom:speed>1.153</gom:speed></extensions></trkpt>
   <trkpt lat="59.3143171745" lon="34.6613254897"><ele>164.151</ele><time>2026-08-16T13:25:24.572Z</time><hdop>3.0</hdop><vdop>2.5</vdop><extensions><gom:speed>1.162</gom:speed></extensions></trkpt>
   <trkpt lat="59.314310469" lon="34.6613264956"><ele>164.108</ele><time>2026-08-16T13:25:25.138Z</time><hdop>3.0</hdop><vdop>2.5</vdop><extensions><gom:speed>1.172</gom:speed></extensions></trkpt>
   <trkpt lat="59.3143037635" lon="34.6613278367"><ele>164.083</ele><time>2026-08-16T13:25:25.692Z</time><hdop>3.0</hdop><vdop>2.5</vdop><extensions><gom:speed>1.169</gom:speed></extensions></trkpt>
   <trkpt lat="59.3142906877" lon="34.6613296807"><ele>164.069</ele><time>2026-08-16T13:25:26.831Z</time><hdop>3.0</hdop><vdop>2.5</vdop><extensions><gom:speed>1.187</gom:speed></extensions></trkpt>
   <trkpt lat="59.3142828925" lon="34.6613324467"><ele>164.063</ele><time>2026-08-16T13:25:27.508Z</time><hdop>3.0</hdop><vdop>2.5</vdop><extensions><gom:speed>1.201</gom:speed></extensions></trkpt>
   <trkpt lat="59.3142771928" lon="34.6613336202"><ele>164.06</ele><time>2026-08-16T13:25:27.989Z</time><hdop>3.0</hdop><vdop>2.5</vdop><extensions><gom:speed>1.213</gom:speed></extensions></trkpt>
   <trkpt lat="59.3142643685" lon="34.6613404933"><ele>164.079</ele><time>2026-08-16T13:25:29.108Z</time><hdop>3.0</hdop><vdop>2.5</vdop><extensions><gom:speed>1.183</gom:speed></extensions></trkpt>
   <trkpt lat="59.3142567829" lon="34.661346193"><ele>164.133</ele><time>2026-08-16T13:25:29.786Z</time><hdop>3.0</hdop><vdop>2.5</vdop><extensions><gom:speed>1.188</gom:speed></extensions></trkpt>
   <trkpt lat="59.3142518795" lon="34.6613508869"><ele>164.136</ele><time>2026-08-16T13:25:30.267Z</time><hdop>3.0</hdop><vdop>2.5</vdop><extensions><gom:speed>1.186</gom:speed></extensions></trkpt>
   <trkpt lat="59.3142435814" lon="34.6613546588"><ele>164.138</ele><time>2026-08-16T13:25:30.973Z</time><hdop>3.0</hdop><vdop>2.5</vdop><extensions><gom:speed>1.194</gom:speed></extensions></trkpt>
   <trkpt lat="59.3142393905" lon="34.6613590174"><ele>164.057</ele><time>2026-08-16T13:25:31.424Z</time><hdop>3.0</hdop><vdop>2.5</vdop><extensions><gom:speed>1.19</gom:speed></extensions></trkpt>
   <trkpt lat="59.3142315953" lon="34.6613645494"><ele>164.008</ele><time>2026-08-16T13:25:32.132Z</time><hdop>3.0</hdop><vdop>2.5</vdop><extensions><gom:speed>1.19</gom:speed></extensions></trkpt>
   <trkpt lat="59.3142269852" lon="34.6613685727"><ele>164.099</ele><time>2026-08-16T13:25:32.632Z</time><hdop>3.0</hdop><vdop>2.5</vdop><extensions><gom:speed>1.171</gom:speed></extensions></trkpt>
   <trkpt lat="59.3142222914" lon="34.661370752"><ele>164.17</ele><time>2026-08-16T13:25:33.138Z</time><hdop>3.0</hdop><vdop>2.5</vdop><extensions><gom:speed>1.163</gom:speed></extensions></trkpt>
   <trkpt lat="59.3142157954" lon="34.6613731828"><ele>164.212</ele><time>2026-08-16T13:25:33.751Z</time><hdop>3.0</hdop><vdop>2.5</vdop><extensions><gom:speed>1.16</gom:speed></extensions></trkpt>
   <trkpt lat="59.3142075811" lon="34.6613743562"><ele>164.275</ele><time>2026-08-16T13:25:34.586Z</time><hdop>3.0</hdop><vdop>2.5</vdop><extensions><gom:speed>1.165</gom:speed></extensions></trkpt>
   <trkpt lat="59.3142017976" lon="34.6613746915"><ele>164.395</ele><time>2026-08-16T13:25:35.138Z</time><hdop>3.0</hdop><vdop>2.5</vdop><extensions><gom:speed>1.213</gom:speed></extensions></trkpt>
   <trkpt lat="59.3141910688" lon="34.6613780443"><ele>164.466</ele><time>2026-08-16T13:25:36.087Z</time><hdop>3.0</hdop><vdop>2.5</vdop><extensions><gom:speed>1.223</gom:speed></extensions></trkpt>
   <trkpt lat="59.3141845728" lon="34.6613840792"><ele>164.522</ele><time>2026-08-16T13:25:36.725Z</time><hdop>3.0</hdop><vdop>2.5</vdop><extensions><gom:speed>1.253</gom:speed></extensions></trkpt>
   <trkpt lat="59.3141797951" lon="34.6613870967"><ele>164.437</ele><time>2026-08-16T13:25:37.206Z</time><hdop>3.0</hdop><vdop>2.5</vdop><extensions><gom:speed>1.238</gom:speed></extensions></trkpt>
   <trkpt lat="59.3141721676" lon="34.6613904495"><ele>164.386</ele><time>2026-08-16T13:25:37.844Z</time><hdop>3.0</hdop><vdop>2.5</vdop><extensions><gom:speed>1.24</gom:speed></extensions></trkpt>
   <trkpt lat="59.3141663841" lon="34.6613928802"><ele>164.468</ele><time>2026-08-16T13:25:38.384Z</time><hdop>3.0</hdop><vdop>2.5</vdop><extensions><gom:speed>1.269</gom:speed></extensions></trkpt>
   <trkpt lat="59.3141575831" lon="34.6613972388"><ele>164.609</ele><time>2026-08-16T13:25:39.138Z</time><hdop>3.0</hdop><vdop>2.5</vdop><extensions><gom:speed>1.289</gom:speed></extensions></trkpt>
   <trkpt lat="59.3141452617" lon="34.6614034414"><ele>164.694</ele><time>2026-08-16T13:25:40.092Z</time><hdop>3.0</hdop><vdop>2.5</vdop><extensions><gom:speed>1.295</gom:speed></extensions></trkpt>
   <trkpt lat="59.3141400649" lon="34.6614061236"><ele>164.72</ele><time>2026-08-16T13:25:40.573Z</time><hdop>3.0</hdop><vdop>2.5</vdop><extensions><gom:speed>1.278</gom:speed></extensions></trkpt>
   <trkpt lat="59.3141338623" lon="34.6614085544"><ele>164.727</ele><time>2026-08-16T13:25:41.138Z</time><hdop>3.0</hdop><vdop>2.5</vdop><extensions><gom:speed>1.262</gom:speed></extensions></trkpt>
   <trkpt lat="59.3141270729" lon="34.6614118233"><ele>164.731</ele><time>2026-08-16T13:25:41.712Z</time><hdop>3.0</hdop><vdop>2.5</vdop><extensions><gom:speed>1.265</gom:speed></extensions></trkpt>
   <trkpt lat="59.3141206608" lon="34.6614126615"><ele>164.723</ele><time>2026-08-16T13:25:42.291Z</time><hdop>3.0</hdop><vdop>2.5</vdop><extensions><gom:speed>1.229</gom:speed></extensions></trkpt>
   <trkpt lat="59.3141144582" lon="34.6614145894"><ele>164.719</ele><time>2026-08-16T13:25:42.831Z</time><hdop>3.0</hdop><vdop>2.5</vdop><extensions><gom:speed>1.227</gom:speed></extensions></trkpt>
   <trkpt lat="59.314107585" lon="34.6614161819"><ele>164.783</ele><time>2026-08-16T13:25:43.449Z</time><hdop>3.0</hdop><vdop>2.5</vdop><extensions><gom:speed>1.223</gom:speed></extensions></trkpt>
   <trkpt lat="59.3141011729" lon="34.661418026"><ele>164.821</ele><time>2026-08-16T13:25:43.970Z</time><hdop>3.0</hdop><vdop>2.5</vdop><extensions><gom:speed>1.223</gom:speed></extensions></trkpt>
   <trkpt lat="59.3140949703" lon="34.6614225522"><ele>164.857</ele><time>2026-08-16T13:25:44.588Z</time><hdop>3.0</hdop><vdop>2.5</vdop><extensions><gom:speed>1.203</gom:speed></extensions></trkpt>
   <trkpt lat="59.3140900668" lon="34.6614279166"><ele>164.879</ele><time>2026-08-16T13:25:45.049Z</time><hdop>3.0</hdop><vdop>2.5</vdop><extensions><gom:speed>1.191</gom:speed></extensions></trkpt>
   <trkpt lat="59.3140851634" lon="34.6614373881"><ele>164.913</ele><time>2026-08-16T13:25:45.687Z</time><hdop>3.0</hdop><vdop>2.5</vdop><extensions><gom:speed>1.194</gom:speed></extensions></trkpt>
   <trkpt lat="59.3140813916" lon="34.6614428364"><ele>164.851</ele><time>2026-08-16T13:25:46.138Z</time><hdop>3.0</hdop><vdop>2.5</vdop><extensions><gom:speed>1.234</gom:speed></extensions></trkpt>
   <trkpt lat="59.3140745603" lon="34.6614480332"><ele>164.813</ele><time>2026-08-16T13:25:46.747Z</time><hdop>3.0</hdop><vdop>2.5</vdop><extensions><gom:speed>1.21</gom:speed></extensions></trkpt>
   <trkpt lat="59.314068693" lon="34.6614484523"><ele>164.826</ele><time>2026-08-16T13:25:47.228Z</time><hdop>3.0</hdop><vdop>2.5</vdop><extensions><gom:speed>1.239</gom:speed></extensions></trkpt>
   <trkpt lat="59.3140582994" lon="34.6614500448"><ele>164.761</ele><time>2026-08-16T13:25:48.138Z</time><hdop>3.0</hdop><vdop>2.5</vdop><extensions><gom:speed>1.265</gom:speed></extensions></trkpt>
   <trkpt lat="59.3140470677" lon="34.6614515536"><ele>164.723</ele><time>2026-08-16T13:25:49.024Z</time><hdop>3.0</hdop><vdop>2.5</vdop><extensions><gom:speed>1.278</gom:speed></extensions></trkpt>
   <trkpt lat="59.3140426672" lon="34.6614549901"><ele>164.644</ele><time>2026-08-16T13:25:49.486Z</time><hdop>3.0</hdop><vdop>2.5</vdop><extensions><gom:speed>1.281</gom:speed></extensions></trkpt>
   <trkpt lat="59.3140360874" lon="34.6614610251"><ele>164.58</ele><time>2026-08-16T13:25:50.137Z</time><hdop>3.0</hdop><vdop>2.5</vdop><extensions><gom:speed>1.276</gom:speed></extensions></trkpt>
   <trkpt lat="59.3140299686" lon="34.661465719"><ele>164.541</ele><time>2026-08-16T13:25:50.664Z</time><hdop>3.0</hdop><vdop>2.5</vdop><extensions><gom:speed>1.275</gom:speed></extensions></trkpt>
   <trkpt lat="59.3140250652" lon="34.6614694908"><ele>164.544</ele><time>2026-08-16T13:25:51.138Z</time><hdop>3.0</hdop><vdop>2.5</vdop><extensions><gom:speed>1.271</gom:speed></extensions></trkpt>
   <trkpt lat="59.3140143783" lon="34.6614769507"><ele>164.584</ele><time>2026-08-16T13:25:52.138Z</time><hdop>3.0</hdop><vdop>2.5</vdop><extensions><gom:speed>1.231</gom:speed></extensions></trkpt>
   <trkpt lat="59.3140050743" lon="34.6614818961"><ele>164.607</ele><time>2026-08-16T13:25:52.971Z</time><hdop>3.0</hdop><vdop>2.5</vdop><extensions><gom:speed>1.195</gom:speed></extensions></trkpt>
   <trkpt lat="59.3139985784" lon="34.6614862546"><ele>164.6</ele><time>2026-08-16T13:25:53.609Z</time><hdop>3.0</hdop><vdop>2.5</vdop><extensions><gom:speed>1.186</gom:speed></extensions></trkpt>
   <trkpt lat="59.3139933816" lon="34.6614884339"><ele>164.595</ele><time>2026-08-16T13:25:54.090Z</time><hdop>3.0</hdop><vdop>2.5</vdop><extensions><gom:speed>1.174</gom:speed></extensions></trkpt>
   <trkpt lat="59.3139809764" lon="34.6614975702"><ele>164.537</ele><time>2026-08-16T13:25:55.138Z</time><hdop>3.0</hdop><vdop>2.5</vdop><extensions><gom:speed>1.186</gom:speed></extensions></trkpt>
   <trkpt lat="59.313971882" lon="34.6615017612"><ele>164.502</ele><time>2026-08-16T13:25:55.866Z</time><hdop>3.0</hdop><vdop>2.5</vdop><extensions><gom:speed>1.18</gom:speed></extensions></trkpt>
   <trkpt lat="59.3139659728" lon="34.6615049463"><ele>164.504</ele><time>2026-08-16T13:25:56.347Z</time><hdop>3.0</hdop><vdop>2.5</vdop><extensions><gom:speed>1.17</gom:speed></extensions></trkpt>
   <trkpt lat="59.3139581776" lon="34.661506455"><ele>164.506</ele><time>2026-08-16T13:25:57.005Z</time><hdop>3.0</hdop><vdop>2.5</vdop><extensions><gom:speed>1.194</gom:speed></extensions></trkpt>
   <trkpt lat="59.3139523941" lon="34.6615111489"><ele>164.469</ele><time>2026-08-16T13:25:57.486Z</time><hdop>3.0</hdop><vdop>2.5</vdop><extensions><gom:speed>1.213</gom:speed></extensions></trkpt>
   <trkpt lat="59.3139452695" lon="34.6615150884"><ele>164.447</ele><time>2026-08-16T13:25:58.103Z</time><hdop>3.0</hdop><vdop>2.5</vdop><extensions><gom:speed>1.196</gom:speed></extensions></trkpt>
   <trkpt lat="59.3139401984" lon="34.6615199499"><ele>164.424</ele><time>2026-08-16T13:25:58.566Z</time><hdop>3.0</hdop><vdop>2.5</vdop><extensions><gom:speed>1.192</gom:speed></extensions></trkpt>
   <trkpt lat="59.3139339958" lon="34.6615248952"><ele>164.415</ele><time>2026-08-16T13:25:59.138Z</time><hdop>3.0</hdop><vdop>2.5</vdop><extensions><gom:speed>1.177</gom:speed></extensions></trkpt>
   <trkpt lat="59.3139271646" lon="34.6615279965"><ele>164.409</ele><time>2026-08-16T13:25:59.724Z</time><hdop>3.0</hdop><vdop>2.5</vdop><extensions><gom:speed>1.175</gom:speed></extensions></trkpt>
   <trkpt lat="59.3139198723" lon="34.6615341991"><ele>164.385</ele><time>2026-08-16T13:26:00.411Z</time><hdop>3.0</hdop><vdop>2.5</vdop><extensions><gom:speed>1.154</gom:speed></extensions></trkpt>
   <trkpt lat="59.3139146755" lon="34.6615369652"><ele>164.371</ele><time>2026-08-16T13:26:00.873Z</time><hdop>3.0</hdop><vdop>2.5</vdop><extensions><gom:speed>1.148</gom:speed></extensions></trkpt>
   <trkpt lat="59.3139026894" lon="34.6615469396"><ele>164.486</ele><time>2026-08-16T13:26:01.992Z</time><hdop>3.0</hdop><vdop>2.5</vdop><extensions><gom:speed>1.188</gom:speed></extensions></trkpt>
   <trkpt lat="59.3138901585" lon="34.6615575846"><ele>164.618</ele><time>2026-08-16T13:26:03.111Z</time><hdop>3.0</hdop><vdop>2.5</vdop><extensions><gom:speed>1.19</gom:speed></extensions></trkpt>
   <trkpt lat="59.3138832853" lon="34.6615645416"><ele>164.746</ele><time>2026-08-16T13:26:03.768Z</time><hdop>3.0</hdop><vdop>2.5</vdop><extensions><gom:speed>1.217</gom:speed></extensions></trkpt>
   <trkpt lat="59.3138784657" lon="34.6615685649"><ele>164.857</ele><time>2026-08-16T13:26:04.269Z</time><hdop>3.0</hdop><vdop>2.5</vdop><extensions><gom:speed>1.206</gom:speed></extensions></trkpt>
   <trkpt lat="59.3138697904" lon="34.661574097"><ele>164.964</ele><time>2026-08-16T13:26:05.138Z</time><hdop>3.0</hdop><vdop>2.5</vdop><extensions><gom:speed>1.187</gom:speed></extensions></trkpt>
   <trkpt lat="59.313860277" lon="34.6615814731"><ele>165.13</ele><time>2026-08-16T13:26:06.138Z</time><hdop>3.0</hdop><vdop>2.5</vdop><extensions><gom:speed>1.157</gom:speed></extensions></trkpt>
   <trkpt lat="59.3138504701" lon="34.6615887653"><ele>165.021</ele><time>2026-08-16T13:26:07.138Z</time><hdop>3.0</hdop><vdop>2.5</vdop><extensions><gom:speed>1.136</gom:speed></extensions></trkpt>
   <trkpt lat="59.3138444771" lon="34.6615938783"><ele>164.956</ele><time>2026-08-16T13:26:07.723Z</time><hdop>3.0</hdop><vdop>2.5</vdop><extensions><gom:speed>1.13</gom:speed></extensions></trkpt>
   <trkpt lat="59.3138328681" lon="34.6616000809"><ele>165.113</ele><time>2026-08-16T13:26:08.833Z</time><hdop>3.0</hdop><vdop>2.5</vdop><extensions><gom:speed>1.135</gom:speed></extensions></trkpt>
   <trkpt lat="59.3138264979" lon="34.6616035175"><ele>165.236</ele><time>2026-08-16T13:26:09.530Z</time><hdop>3.0</hdop><vdop>2.5</vdop><extensions><gom:speed>1.138</gom:speed></extensions></trkpt>
   <trkpt lat="59.3138210916" lon="34.6616059482"><ele>165.31</ele><time>2026-08-16T13:26:10.031Z</time><hdop>3.0</hdop><vdop>2.5</vdop><extensions><gom:speed>1.124</gom:speed></extensions></trkpt>
   <trkpt lat="59.3138145956" lon="34.6616091333"><ele>165.37</ele><time>2026-08-16T13:26:10.669Z</time><hdop>3.0</hdop><vdop>2.5</vdop><extensions><gom:speed>1.153</gom:speed></extensions></trkpt>
   <trkpt lat="59.3138096922" lon="34.661611145"><ele>165.308</ele><time>2026-08-16T13:26:11.138Z</time><hdop>3.0</hdop><vdop>2.5</vdop><extensions><gom:speed>1.171</gom:speed></extensions></trkpt>
   <trkpt lat="59.3137985862" lon="34.6616172638"><ele>165.51</ele><time>2026-08-16T13:26:12.138Z</time><hdop>3.0</hdop><vdop>2.5</vdop><extensions><gom:speed>1.168</gom:speed></extensions></trkpt>
   <trkpt lat="59.3137899947" lon="34.6616256457"><ele>165.63</ele><time>2026-08-16T13:26:12.985Z</time><hdop>3.0</hdop><vdop>2.5</vdop><extensions><gom:speed>1.087</gom:speed></extensions></trkpt>
   <trkpt lat="59.3137854685" lon="34.6616336923"><ele>165.417</ele><time>2026-08-16T13:26:13.506Z</time><hdop>3.0</hdop><vdop>2.5</vdop><extensions><gom:speed>1.115</gom:speed></extensions></trkpt>
   <trkpt lat="59.3137826605" lon="34.6616437506"><ele>165.289</ele><time>2026-08-16T13:26:14.026Z</time><hdop>3.0</hdop><vdop>2.5</vdop><extensions><gom:speed>1.103</gom:speed></extensions></trkpt>
   <trkpt lat="59.3137807746" lon="34.6616576646"><ele>165.128</ele><time>2026-08-16T13:26:14.566Z</time><hdop>3.0</hdop><vdop>2.5</vdop><extensions><gom:speed>1.21</gom:speed></extensions></trkpt>
   <trkpt lat="59.3137766675" lon="34.6616650406"><ele>164.998</ele><time>2026-08-16T13:26:15.138Z</time><hdop>3.0</hdop><vdop>2.5</vdop><extensions><gom:speed>1.149</gom:speed></extensions></trkpt>
   <trkpt lat="59.3137721832" lon="34.6616707403"><ele>164.92</ele><time>2026-08-16T13:26:15.665Z</time><hdop>3.0</hdop><vdop>2.5</vdop><extensions><gom:speed>1.155</gom:speed></extensions></trkpt>
   <trkpt lat="59.3137675731" lon="34.66167183"><ele>164.958</ele><time>2026-08-16T13:26:16.138Z</time><hdop>3.0</hdop><vdop>2.5</vdop><extensions><gom:speed>1.129</gom:speed></extensions></trkpt>
   <trkpt lat="59.3137584788" lon="34.6616705727"><ele>164.981</ele><time>2026-08-16T13:26:16.971Z</time><hdop>3.0</hdop><vdop>2.5</vdop><extensions><gom:speed>1.161</gom:speed></extensions></trkpt>
   <trkpt lat="59.3137515637" lon="34.661665795"><ele>165.002</ele><time>2026-08-16T13:26:17.569Z</time><hdop>3.0</hdop><vdop>2.5</vdop><extensions><gom:speed>1.185</gom:speed></extensions></trkpt>
   <trkpt lat="59.3137455706" lon="34.6616622746"><ele>165.015</ele><time>2026-08-16T13:26:18.090Z</time><hdop>3.062</hdop><vdop>2.5</vdop><extensions><gom:speed>1.202</gom:speed></extensions></trkpt>
   <trkpt lat="59.3137383622" lon="34.6616599277"><ele>165.119</ele><time>2026-08-16T13:26:18.728Z</time><hdop>3.062</hdop><vdop>2.5</vdop><extensions><gom:speed>1.205</gom:speed></extensions></trkpt>
   <trkpt lat="59.3137213888" lon="34.661663029"><ele>164.996</ele><time>2026-08-16T13:26:20.138Z</time><hdop>3.187</hdop><vdop>2.5</vdop><extensions><gom:speed>1.175</gom:speed></extensions></trkpt>
   <trkpt lat="59.3137105762" lon="34.661668561"><ele>164.829</ele><time>2026-08-16T13:26:21.138Z</time><hdop>3.187</hdop><vdop>2.5</vdop><extensions><gom:speed>1.134</gom:speed></extensions></trkpt>
   <trkpt lat="59.3136998893" lon="34.6616742607"><ele>164.634</ele><time>2026-08-16T13:26:22.138Z</time><hdop>3.25</hdop><vdop>2.5</vdop><extensions><gom:speed>1.116</gom:speed></extensions></trkpt>
   <trkpt lat="59.3136933933" lon="34.661675518"><ele>164.518</ele><time>2026-08-16T13:26:22.724Z</time><hdop>3.25</hdop><vdop>2.5</vdop><extensions><gom:speed>1.12</gom:speed></extensions></trkpt>
   <trkpt lat="59.3136854724" lon="34.6616821397"><ele>164.442</ele><time>2026-08-16T13:26:23.411Z</time><hdop>3.25</hdop><vdop>2.5</vdop><extensions><gom:speed>1.128</gom:speed></extensions></trkpt>
   <trkpt lat="59.3136795631" lon="34.6616832294"><ele>164.396</ele><time>2026-08-16T13:26:23.931Z</time><hdop>3.187</hdop><vdop>2.5</vdop><extensions><gom:speed>1.14</gom:speed></extensions></trkpt>
   <trkpt lat="59.3136714746" lon="34.6616882585"><ele>164.378</ele><time>2026-08-16T13:26:24.609Z</time><hdop>3.125</hdop><vdop>2.5</vdop><extensions><gom:speed>1.116</gom:speed></extensions></trkpt>
   <trkpt lat="59.3136659845" lon="34.6616889291"><ele>164.367</ele><time>2026-08-16T13:26:25.090Z</time><hdop>3.125</hdop><vdop>2.5</vdop><extensions><gom:speed>1.083</gom:speed></extensions></trkpt>
   <trkpt lat="59.3136574768" lon="34.6616941258"><ele>164.374</ele><time>2026-08-16T13:26:25.805Z</time><hdop>3.125</hdop><vdop>2.5</vdop><extensions><gom:speed>1.099</gom:speed></extensions></trkpt>
   <trkpt lat="59.3136513999" lon="34.661698233"><ele>164.416</ele><time>2026-08-16T13:26:26.326Z</time><hdop>3.062</hdop><vdop>2.5</vdop><extensions><gom:speed>1.124</gom:speed></extensions></trkpt>
   <trkpt lat="59.3136442753" lon="34.6616998255"><ele>164.441</ele><time>2026-08-16T13:26:26.945Z</time><hdop>3.062</hdop><vdop>2.5</vdop><extensions><gom:speed>1.123</gom:speed></extensions></trkpt>
   <trkpt lat="59.3136378632" lon="34.6617033459"><ele>164.456</ele><time>2026-08-16T13:26:27.426Z</time><hdop>3.0</hdop><vdop>2.5</vdop><extensions><gom:speed>1.183</gom:speed></extensions></trkpt>
   <trkpt lat="59.3136290622" lon="34.6617082913"><ele>164.407</ele><time>2026-08-16T13:26:28.138Z</time><hdop>3.0</hdop><vdop>2.5</vdop><extensions><gom:speed>1.126</gom:speed></extensions></trkpt>
   <trkpt lat="59.3136234882" lon="34.6617113926"><ele>164.377</ele><time>2026-08-16T13:26:28.633Z</time><hdop>3.0</hdop><vdop>2.5</vdop><extensions><gom:speed>1.121</gom:speed></extensions></trkpt>
   <trkpt lat="59.3136177885" lon="34.6617150806"><ele>164.405</ele><time>2026-08-16T13:26:29.137Z</time><hdop>3.0</hdop><vdop>2.5</vdop><extensions><gom:speed>1.113</gom:speed></extensions></trkpt>
   <trkpt lat="59.3136096581" lon="34.6617175952"><ele>164.422</ele><time>2026-08-16T13:26:29.830Z</time><hdop>3.0</hdop><vdop>2.5</vdop><extensions><gom:speed>1.119</gom:speed></extensions></trkpt>
   <trkpt lat="59.3136027849" lon="34.6617206965"><ele>164.388</ele><time>2026-08-16T13:26:30.508Z</time><hdop>3.0</hdop><vdop>2.5</vdop><extensions><gom:speed>1.093</gom:speed></extensions></trkpt>
   <trkpt lat="59.3135975881" lon="34.6617217861"><ele>164.367</ele><time>2026-08-16T13:26:30.989Z</time><hdop>3.0</hdop><vdop>2.5</vdop><extensions><gom:speed>1.092</gom:speed></extensions></trkpt>
   <trkpt lat="59.3135858954" lon="34.6617254742"><ele>164.326</ele><time>2026-08-16T13:26:32.069Z</time><hdop>3.0</hdop><vdop>2.5</vdop><extensions><gom:speed>1.116</gom:speed></extensions></trkpt>
   <trkpt lat="59.3135757952" lon="34.6617381308"><ele>164.285</ele><time>2026-08-16T13:26:33.138Z</time><hdop>3.0</hdop><vdop>2.5</vdop><extensions><gom:speed>1.125</gom:speed></extensions></trkpt>
   <trkpt lat="59.3135677905" lon="34.66174777"><ele>164.26</ele><time>2026-08-16T13:26:33.953Z</time><hdop>3.0</hdop><vdop>2.5</vdop><extensions><gom:speed>1.121</gom:speed></extensions></trkpt>
   <trkpt lat="59.3135621746" lon="34.6617560681"><ele>164.231</ele><time>2026-08-16T13:26:34.552Z</time><hdop>3.0</hdop><vdop>2.5</vdop><extensions><gom:speed>1.148</gom:speed></extensions></trkpt>
   <trkpt lat="59.3135558882" lon="34.6617612649"><ele>164.125</ele><time>2026-08-16T13:26:35.138Z</time><hdop>3.0</hdop><vdop>2.5</vdop><extensions><gom:speed>1.142</gom:speed></extensions></trkpt>
   <trkpt lat="59.3135489731" lon="34.6617652882"><ele>164.062</ele><time>2026-08-16T13:26:35.749Z</time><hdop>3.0</hdop><vdop>2.5</vdop><extensions><gom:speed>1.155</gom:speed></extensions></trkpt>
   <trkpt lat="59.3135421837" lon="34.6617689762"><ele>164.041</ele><time>2026-08-16T13:26:36.388Z</time><hdop>3.0</hdop><vdop>2.5</vdop><extensions><gom:speed>1.141</gom:speed></extensions></trkpt>
   <trkpt lat="59.3135364841" lon="34.6617722452"><ele>164.028</ele><time>2026-08-16T13:26:36.907Z</time><hdop>3.0</hdop><vdop>2.5</vdop><extensions><gom:speed>1.14</gom:speed></extensions></trkpt>
   <trkpt lat="59.3135287727" lon="34.6617771905"><ele>164.021</ele><time>2026-08-16T13:26:37.605Z</time><hdop>3.0</hdop><vdop>2.5</vdop><extensions><gom:speed>1.176</gom:speed></extensions></trkpt>
   <trkpt lat="59.3135234921" lon="34.661779286"><ele>164.017</ele><time>2026-08-16T13:26:38.086Z</time><hdop>3.0</hdop><vdop>2.5</vdop><extensions><gom:speed>1.163</gom:speed></extensions></trkpt>
   <trkpt lat="59.313515194" lon="34.6617842313"><ele>163.97</ele><time>2026-08-16T13:26:38.832Z</time><hdop>3.0</hdop><vdop>2.5</vdop><extensions><gom:speed>1.195</gom:speed></extensions></trkpt>
   <trkpt lat="59.3135093686" lon="34.661788087"><ele>163.853</ele><time>2026-08-16T13:26:39.352Z</time><hdop>3.0</hdop><vdop>2.5</vdop><extensions><gom:speed>1.193</gom:speed></extensions></trkpt>
   <trkpt lat="59.3135022859" lon="34.6617920265"><ele>163.784</ele><time>2026-08-16T13:26:40.010Z</time><hdop>3.0</hdop><vdop>2.5</vdop><extensions><gom:speed>1.164</gom:speed></extensions></trkpt>
   <trkpt lat="59.3134964605" lon="34.661795966"><ele>163.747</ele><time>2026-08-16T13:26:40.530Z</time><hdop>3.0</hdop><vdop>2.5</vdop><extensions><gom:speed>1.171</gom:speed></extensions></trkpt>
   <trkpt lat="59.3134896711" lon="34.6617991511"><ele>163.705</ele><time>2026-08-16T13:26:41.138Z</time><hdop>3.0</hdop><vdop>2.5</vdop><extensions><gom:speed>1.179</gom:speed></extensions></trkpt>
   <trkpt lat="59.3134824627" lon="34.6618011627"><ele>163.68</ele><time>2026-08-16T13:26:41.747Z</time><hdop>3.0</hdop><vdop>2.5</vdop><extensions><gom:speed>1.175</gom:speed></extensions></trkpt>
   <trkpt lat="59.3134763858" lon="34.6618041802"><ele>163.709</ele><time>2026-08-16T13:26:42.307Z</time><hdop>3.0</hdop><vdop>2.5</vdop><extensions><gom:speed>1.183</gom:speed></extensions></trkpt>
   <trkpt lat="59.3134683811" lon="34.6618088741"><ele>163.726</ele><time>2026-08-16T13:26:43.033Z</time><hdop>3.0</hdop><vdop>2.5</vdop><extensions><gom:speed>1.169</gom:speed></extensions></trkpt>
   <trkpt lat="59.3134606697" lon="34.6618101314"><ele>163.782</ele><time>2026-08-16T13:26:43.710Z</time><hdop>3.0</hdop><vdop>2.5</vdop><extensions><gom:speed>1.169</gom:speed></extensions></trkpt>
   <trkpt lat="59.3134474682" lon="34.6618092932"><ele>163.898</ele><time>2026-08-16T13:26:44.888Z</time><hdop>3.0</hdop><vdop>2.5</vdop><extensions><gom:speed>1.163</gom:speed></extensions></trkpt>
   <trkpt lat="59.3134419781" lon="34.6618113887"><ele>163.965</ele><time>2026-08-16T13:26:45.447Z</time><hdop>3.0</hdop><vdop>2.5</vdop><extensions><gom:speed>1.121</gom:speed></extensions></trkpt>
   <trkpt lat="59.3134352726" lon="34.6618132327"><ele>164.005</ele><time>2026-08-16T13:26:46.066Z</time><hdop>3.0</hdop><vdop>2.5</vdop><extensions><gom:speed>1.107</gom:speed></extensions></trkpt>
   <trkpt lat="59.3134300758" lon="34.6618139871"><ele>164.008</ele><time>2026-08-16T13:26:46.606Z</time><hdop>3.0</hdop><vdop>2.5</vdop><extensions><gom:speed>1.098</gom:speed></extensions></trkpt>
   <trkpt lat="59.3134246695" lon="34.6618147414"><ele>164.042</ele><time>2026-08-16T13:26:47.138Z</time><hdop>3.0</hdop><vdop>2.5</vdop><extensions><gom:speed>1.101</gom:speed></extensions></trkpt>
   <trkpt lat="59.3134165809" lon="34.6618171722"><ele>164.062</ele><time>2026-08-16T13:26:47.872Z</time><hdop>3.0</hdop><vdop>2.5</vdop><extensions><gom:speed>1.115</gom:speed></extensions></trkpt>
   <trkpt lat="59.3134083667" lon="34.6618253864"><ele>164.149</ele><time>2026-08-16T13:26:48.765Z</time><hdop>3.0</hdop><vdop>2.5</vdop><extensions><gom:speed>1.112</gom:speed></extensions></trkpt>
   <trkpt lat="59.313397093" lon="34.6618303318"><ele>163.953</ele><time>2026-08-16T13:26:49.806Z</time><hdop>3.0</hdop><vdop>2.5</vdop><extensions><gom:speed>1.145</gom:speed></extensions></trkpt>
   <trkpt lat="59.3133916867" lon="34.6618342713"><ele>163.894</ele><time>2026-08-16T13:26:50.326Z</time><hdop>3.0</hdop><vdop>2.5</vdop><extensions><gom:speed>1.177</gom:speed></extensions></trkpt>
   <trkpt lat="59.3133842687" lon="34.6618393842"><ele>163.859</ele><time>2026-08-16T13:26:51.013Z</time><hdop>3.0</hdop><vdop>2.5</vdop><extensions><gom:speed>1.192</gom:speed></extensions></trkpt>
   <trkpt lat="59.3133792815" lon="34.6618449163"><ele>163.845</ele><time>2026-08-16T13:26:51.553Z</time><hdop>3.0</hdop><vdop>2.5</vdop><extensions><gom:speed>1.187</gom:speed></extensions></trkpt>
   <trkpt lat="59.3133737913" lon="34.6618500292"><ele>163.787</ele><time>2026-08-16T13:26:52.138Z</time><hdop>3.0</hdop><vdop>2.5</vdop><extensions><gom:speed>1.211</gom:speed></extensions></trkpt>
   <trkpt lat="59.3133679659" lon="34.6618566509"><ele>163.753</ele><time>2026-08-16T13:26:52.711Z</time><hdop>3.0</hdop><vdop>2.5</vdop><extensions><gom:speed>1.21</gom:speed></extensions></trkpt>
   <trkpt lat="59.3133638588" lon="34.6618597522"><ele>163.759</ele><time>2026-08-16T13:26:53.173Z</time><hdop>3.0</hdop><vdop>2.5</vdop><extensions><gom:speed>1.193</gom:speed></extensions></trkpt>
   <trkpt lat="59.3133558959" lon="34.6618679665"><ele>163.763</ele><time>2026-08-16T13:26:53.948Z</time><hdop>3.0</hdop><vdop>2.5</vdop><extensions><gom:speed>1.206</gom:speed></extensions></trkpt>
   <trkpt lat="59.3133488971" lon="34.6618742529"><ele>163.75</ele><time>2026-08-16T13:26:54.605Z</time><hdop>3.0</hdop><vdop>2.5</vdop><extensions><gom:speed>1.226</gom:speed></extensions></trkpt>
   <trkpt lat="59.3133437841" lon="34.661878863"><ele>163.75</ele><time>2026-08-16T13:26:55.138Z</time><hdop>3.0</hdop><vdop>2.5</vdop><extensions><gom:speed>1.207</gom:speed></extensions></trkpt>
   <trkpt lat="59.3133339773" lon="34.661886742"><ele>163.76</ele><time>2026-08-16T13:26:56.138Z</time><hdop>3.0</hdop><vdop>2.5</vdop><extensions><gom:speed>1.164</gom:speed></extensions></trkpt>
   <trkpt lat="59.3133238771" lon="34.661894621"><ele>163.89</ele><time>2026-08-16T13:26:57.138Z</time><hdop>3.0</hdop><vdop>2.5</vdop><extensions><gom:speed>1.168</gom:speed></extensions></trkpt>
   <trkpt lat="59.3133136931" lon="34.6619039249"><ele>163.968</ele><time>2026-08-16T13:26:58.090Z</time><hdop>3.0</hdop><vdop>2.5</vdop><extensions><gom:speed>1.163</gom:speed></extensions></trkpt>
   <trkpt lat="59.313308161" lon="34.6619071938"><ele>164.019</ele><time>2026-08-16T13:26:58.591Z</time><hdop>3.0</hdop><vdop>2.5</vdop><extensions><gom:speed>1.174</gom:speed></extensions></trkpt>
   <trkpt lat="59.3133023775" lon="34.6619104628"><ele>163.962</ele><time>2026-08-16T13:26:59.138Z</time><hdop>3.0</hdop><vdop>2.5</vdop><extensions><gom:speed>1.157</gom:speed></extensions></trkpt>
   <trkpt lat="59.3132957977" lon="34.6619151566"><ele>163.929</ele><time>2026-08-16T13:26:59.749Z</time><hdop>3.0</hdop><vdop>2.5</vdop><extensions><gom:speed>1.157</gom:speed></extensions></trkpt>
   <trkpt lat="59.3132886731" lon="34.6619176712"><ele>164.167</ele><time>2026-08-16T13:27:00.407Z</time><hdop>3.0</hdop><vdop>2.5</vdop><extensions><gom:speed>1.18</gom:speed></extensions></trkpt>
   <trkpt lat="59.3132829734" lon="34.6619207725"><ele>164.31</ele><time>2026-08-16T13:27:00.927Z</time><hdop>3.0</hdop><vdop>2.5</vdop><extensions><gom:speed>1.174</gom:speed></extensions></trkpt>
   <trkpt lat="59.313276184" lon="34.6619215269"><ele>164.597</ele><time>2026-08-16T13:27:01.526Z</time><hdop>3.0</hdop><vdop>2.5</vdop><extensions><gom:speed>1.186</gom:speed></extensions></trkpt>
   <trkpt lat="59.3132699814" lon="34.6619229518"><ele>164.768</ele><time>2026-08-16T13:27:02.066Z</time><hdop>3.0</hdop><vdop>2.5</vdop><extensions><gom:speed>1.165</gom:speed></extensions></trkpt>
   <trkpt lat="59.3132634855" lon="34.6619245444"><ele>164.746</ele><time>2026-08-16T13:27:02.684Z</time><hdop>3.0</hdop><vdop>2.5</vdop><extensions><gom:speed>1.171</gom:speed></extensions></trkpt>
   <trkpt lat="59.3132586659" lon="34.6619261369"><ele>164.77</ele><time>2026-08-16T13:27:03.138Z</time><hdop>3.0</hdop><vdop>2.5</vdop><extensions><gom:speed>1.182</gom:speed></extensions></trkpt>
   <trkpt lat="59.3132507869" lon="34.6619288191"><ele>164.784</ele><time>2026-08-16T13:27:03.833Z</time><hdop>3.0</hdop><vdop>2.5</vdop><extensions><gom:speed>1.185</gom:speed></extensions></trkpt>
   <trkpt lat="59.3132373758" lon="34.6619363628"><ele>164.819</ele><time>2026-08-16T13:27:05.138Z</time><hdop>3.0</hdop><vdop>2.5</vdop><extensions><gom:speed>1.203</gom:speed></extensions></trkpt>
   <trkpt lat="59.313226186" lon="34.661936279"><ele>164.839</ele><time>2026-08-16T13:27:06.071Z</time><hdop>3.0</hdop><vdop>2.5</vdop><extensions><gom:speed>1.244</gom:speed></extensions></trkpt>
   <trkpt lat="59.3132204863" lon="34.6619399671"><ele>164.646</ele><time>2026-08-16T13:27:06.571Z</time><hdop>3.0</hdop><vdop>2.5</vdop><extensions><gom:speed>1.252</gom:speed></extensions></trkpt>
   <trkpt lat="59.3132141999" lon="34.6619454991"><ele>164.541</ele><time>2026-08-16T13:27:07.138Z</time><hdop>3.0</hdop><vdop>2.5</vdop><extensions><gom:speed>1.246</gom:speed></extensions></trkpt>
   <trkpt lat="59.3132083745" lon="34.6619499415"><ele>164.478</ele><time>2026-08-16T13:27:07.631Z</time><hdop>3.0</hdop><vdop>2.5</vdop><extensions><gom:speed>1.236</gom:speed></extensions></trkpt>
   <trkpt lat="59.3132028843" lon="34.6619558927"><ele>164.595</ele><time>2026-08-16T13:27:08.138Z</time><hdop>3.0</hdop><vdop>2.5</vdop><extensions><gom:speed>1.249</gom:speed></extensions></trkpt>
   <trkpt lat="59.313195173" lon="34.6619639393"><ele>164.664</ele><time>2026-08-16T13:27:08.829Z</time><hdop>3.0</hdop><vdop>2.5</vdop><extensions><gom:speed>1.253</gom:speed></extensions></trkpt>
   <trkpt lat="59.3131905629" lon="34.6619763445"><ele>164.769</ele><time>2026-08-16T13:27:09.408Z</time><hdop>3.0</hdop><vdop>2.5</vdop><extensions><gom:speed>1.26</gom:speed></extensions></trkpt>
   <trkpt lat="59.3131842765" lon="34.6619898394"><ele>164.776</ele><time>2026-08-16T13:27:10.138Z</time><hdop>3.0</hdop><vdop>2.5</vdop><extensions><gom:speed>1.244</gom:speed></extensions></trkpt>
   <trkpt lat="59.3131762718" lon="34.6620030828"><ele>164.78</ele><time>2026-08-16T13:27:10.989Z</time><hdop>3.0</hdop><vdop>2.5</vdop><extensions><gom:speed>1.236</gom:speed></extensions></trkpt>
   <trkpt lat="59.3131702787" lon="34.6620164938"><ele>164.74</ele><time>2026-08-16T13:27:11.765Z</time><hdop>3.0</hdop><vdop>2.5</vdop><extensions><gom:speed>1.226</gom:speed></extensions></trkpt>
   <trkpt lat="59.3131661716" lon="34.6620228641"><ele>164.734</ele><time>2026-08-16T13:27:12.266Z</time><hdop>3.0</hdop><vdop>2.5</vdop><extensions><gom:speed>1.219</gom:speed></extensions></trkpt>
   <trkpt lat="59.3131595918" lon="34.662030324"><ele>164.731</ele><time>2026-08-16T13:27:12.914Z</time><hdop>3.0</hdop><vdop>2.5</vdop><extensions><gom:speed>1.215</gom:speed></extensions></trkpt>
   <trkpt lat="59.3131474799" lon="34.6620411366"><ele>164.905</ele><time>2026-08-16T13:27:14.052Z</time><hdop>3.0</hdop><vdop>2.5</vdop><extensions><gom:speed>1.203</gom:speed></extensions></trkpt>
   <trkpt lat="59.3131354938" lon="34.6620492671"><ele>164.842</ele><time>2026-08-16T13:27:15.138Z</time><hdop>3.0</hdop><vdop>2.5</vdop><extensions><gom:speed>1.216</gom:speed></extensions></trkpt>
   <trkpt lat="59.3131295846" lon="34.6620524522"><ele>164.804</ele><time>2026-08-16T13:27:15.633Z</time><hdop>3.0</hdop><vdop>2.5</vdop><extensions><gom:speed>1.208</gom:speed></extensions></trkpt>
   <trkpt lat="59.3131249745" lon="34.6620570622"><ele>164.633</ele><time>2026-08-16T13:27:16.138Z</time><hdop>3.0</hdop><vdop>2.5</vdop><extensions><gom:speed>1.16</gom:speed></extensions></trkpt>
   <trkpt lat="59.3131186881" lon="34.6620662823"><ele>164.531</ele><time>2026-08-16T13:27:16.830Z</time><hdop>3.0</hdop><vdop>2.5</vdop><extensions><gom:speed>1.154</gom:speed></extensions></trkpt>
   <trkpt lat="59.3131157963" lon="34.6620730717"><ele>164.343</ele><time>2026-08-16T13:27:17.409Z</time><hdop>3.0</hdop><vdop>2.5</vdop><extensions><gom:speed>1.071</gom:speed></extensions></trkpt>
   <trkpt lat="59.3131129884" lon="34.6620808669"><ele>164.23</ele><time>2026-08-16T13:27:17.910Z</time><hdop>3.0</hdop><vdop>2.5</vdop><extensions><gom:speed>1.066</gom:speed></extensions></trkpt>
   <trkpt lat="59.3131100966" lon="34.662096541"><ele>163.96</ele><time>2026-08-16T13:27:18.607Z</time><hdop>3.0</hdop><vdop>2.5</vdop><extensions><gom:speed>1.14</gom:speed></extensions></trkpt>
   <trkpt lat="59.3131106834" lon="34.6621045876"><ele>164.048</ele><time>2026-08-16T13:27:19.138Z</time><hdop>3.0</hdop><vdop>2.5</vdop><extensions><gom:speed>0.784</gom:speed></extensions></trkpt>
   <trkpt lat="59.3131113958" lon="34.6621115446"><ele>164.278</ele><time>2026-08-16T13:27:20.138Z</time><hdop>3.0</hdop><vdop>2.5</vdop><extensions><gom:speed>0.46</gom:speed></extensions></trkpt>
   <trkpt lat="59.3131121921" lon="34.6621112932"><ele>164.442</ele><time>2026-08-16T13:27:21.138Z</time><hdop>3.0</hdop><vdop>2.5</vdop><extensions><gom:speed>0.198</gom:speed></extensions></trkpt>
   <trkpt lat="59.3131127788" lon="34.6621083595"><ele>164.53</ele><time>2026-08-16T13:27:22.137Z</time><hdop>3.0</hdop><vdop>2.5</vdop><extensions><gom:speed>0.039</gom:speed></extensions></trkpt>
   <trkpt lat="59.3131127788" lon="34.6621070184"><ele>164.587</ele><time>2026-08-16T13:27:23.138Z</time><hdop>3.0</hdop><vdop>2.5</vdop><extensions><gom:speed>0.023</gom:speed></extensions></trkpt>
   <trkpt lat="59.3131124855" lon="34.6621075213"><ele>164.625</ele><time>2026-08-16T13:27:24.138Z</time><hdop>3.0</hdop><vdop>2.5</vdop><extensions><gom:speed>0.09</gom:speed></extensions></trkpt>
   <trkpt lat="59.3131124855" lon="34.6621078566"><ele>164.647</ele><time>2026-08-16T13:27:24.684Z</time><hdop>3.0</hdop><vdop>2.5</vdop><extensions><gom:speed>0.129</gom:speed></extensions></trkpt>
   <trkpt lat="59.3131113958" lon="34.6621092815"><ele>164.57</ele><time>2026-08-16T13:27:25.138Z</time><hdop>3.0</hdop><vdop>2.5</vdop><extensions><gom:speed>0.215</gom:speed></extensions></trkpt>
   <trkpt lat="59.3131091746" lon="34.6621129695"><ele>164.567</ele><time>2026-08-16T13:27:26.138Z</time><hdop>3.0</hdop><vdop>2.5</vdop><extensions><gom:speed>0.307</gom:speed></extensions></trkpt>
   <trkpt lat="59.3131023853" lon="34.6621142268"><ele>164.472</ele><time>2026-08-16T13:27:27.138Z</time><hdop>3.0</hdop><vdop>2.5</vdop><extensions><gom:speed>0.664</gom:speed></extensions></trkpt>
   <trkpt lat="59.3130864597" lon="34.6621107902"><ele>164.348</ele><time>2026-08-16T13:27:28.138Z</time><hdop>3.0</hdop><vdop>2.5</vdop><extensions><gom:speed>1.141</gom:speed></extensions></trkpt>
   <trkpt lat="59.31306869" lon="34.6621114608"><ele>164.2</ele><time>2026-08-16T13:27:29.138Z</time><hdop>3.0</hdop><vdop>2.5</vdop><extensions><gom:speed>1.221</gom:speed></extensions></trkpt>
   <trkpt lat="59.3130604758" lon="34.6621124666"><ele>164.112</ele><time>2026-08-16T13:27:29.651Z</time><hdop>3.0</hdop><vdop>2.5</vdop><extensions><gom:speed>1.212</gom:speed></extensions></trkpt>
   <trkpt lat="59.3130528901" lon="34.662118334"><ele>164.08</ele><time>2026-08-16T13:27:30.138Z</time><hdop>3.0</hdop><vdop>2.5</vdop><extensions><gom:speed>1.254</gom:speed></extensions></trkpt>
   <trkpt lat="59.3130403592" lon="34.6621340919"><ele>163.822</ele><time>2026-08-16T13:27:31.138Z</time><hdop>3.0</hdop><vdop>2.5</vdop><extensions><gom:speed>1.216</gom:speed></extensions></trkpt>
   <trkpt lat="59.3130338632" lon="34.6621505205"><ele>163.667</ele><time>2026-08-16T13:27:31.869Z</time><hdop>3.0</hdop><vdop>2.5</vdop><extensions><gom:speed>1.227</gom:speed></extensions></trkpt>
   <trkpt lat="59.3130289598" lon="34.6621663623"><ele>163.584</ele><time>2026-08-16T13:27:32.409Z</time><hdop>3.0</hdop><vdop>2.5</vdop><extensions><gom:speed>1.228</gom:speed></extensions></trkpt>
   <trkpt lat="59.3130239726" lon="34.6621762529"><ele>163.535</ele><time>2026-08-16T13:27:32.949Z</time><hdop>3.0</hdop><vdop>2.5</vdop><extensions><gom:speed>1.227</gom:speed></extensions></trkpt>
   <trkpt lat="59.3130159679" lon="34.662185473"><ele>163.607</ele><time>2026-08-16T13:27:33.646Z</time><hdop>3.0</hdop><vdop>2.5</vdop><extensions><gom:speed>1.222</gom:speed></extensions></trkpt>
   <trkpt lat="59.3130100586" lon="34.6621857245"><ele>163.65</ele><time>2026-08-16T13:27:34.107Z</time><hdop>3.0</hdop><vdop>2.5</vdop><extensions><gom:speed>1.227</gom:speed></extensions></trkpt>
   <trkpt lat="59.3129996651" lon="34.6621830423"><ele>163.344</ele><time>2026-08-16T13:27:35.138Z</time><hdop>3.0</hdop><vdop>2.5</vdop><extensions><gom:speed>1.229</gom:speed></extensions></trkpt>
   <trkpt lat="59.3129955998" lon="34.6621840481"><ele>162.856</ele><time>2026-08-16T13:27:36.138Z</time><hdop>3.0</hdop><vdop>2.5</vdop><extensions><gom:speed>1.04</gom:speed></extensions></trkpt>
   <trkpt lat="59.3129946778" lon="34.6621914242"><ele>162.564</ele><time>2026-08-16T13:27:37.032Z</time><hdop>3.125</hdop><vdop>2.5</vdop><extensions><gom:speed>1.16</gom:speed></extensions></trkpt>
   <trkpt lat="59.3129813925" lon="34.662211876"><ele>162.03</ele><time>2026-08-16T13:27:38.138Z</time><hdop>3.437</hdop><vdop>2.5</vdop><extensions><gom:speed>1.283</gom:speed></extensions></trkpt>
   <trkpt lat="59.3129680653" lon="34.6622210961"><ele>161.609</ele><time>2026-08-16T13:27:39.138Z</time><hdop>3.75</hdop><vdop>2.5</vdop><extensions><gom:speed>1.292</gom:speed></extensions></trkpt>
   <trkpt lat="59.3129556601" lon="34.6622265443"><ele>160.945</ele><time>2026-08-16T13:27:40.138Z</time><hdop>3.812</hdop><vdop>2.5</vdop><extensions><gom:speed>1.267</gom:speed></extensions></trkpt>
   <trkpt lat="59.3129495832" lon="34.6622288913"><ele>160.548</ele><time>2026-08-16T13:27:40.664Z</time><hdop>3.75</hdop><vdop>2.5</vdop><extensions><gom:speed>1.274</gom:speed></extensions></trkpt>
   <trkpt lat="59.3129437997" lon="34.6622271311"><ele>160.02</ele><time>2026-08-16T13:27:41.138Z</time><hdop>3.687</hdop><vdop>2.5</vdop><extensions><gom:speed>1.268</gom:speed></extensions></trkpt>
   <trkpt lat="59.3129369684" lon="34.6622300647"><ele>159.705</ele><time>2026-08-16T13:27:41.724Z</time><hdop>3.75</hdop><vdop>2.5</vdop><extensions><gom:speed>1.269</gom:speed></extensions></trkpt>
   <trkpt lat="59.3129300953" lon="34.6622390334"><ele>159.686</ele><time>2026-08-16T13:27:42.549Z</time><hdop>3.5</hdop><vdop>2.5</vdop><extensions><gom:speed>1.275</gom:speed></extensions></trkpt>
   <trkpt lat="59.3129261977" lon="34.6622488402"><ele>159.958</ele><time>2026-08-16T13:27:43.138Z</time><hdop>3.437</hdop><vdop>2.5</vdop><extensions><gom:speed>1.269</gom:speed></extensions></trkpt>
   <trkpt lat="59.3129220905" lon="34.6622580603"><ele>160.121</ele><time>2026-08-16T13:27:43.688Z</time><hdop>3.25</hdop><vdop>2.5</vdop><extensions><gom:speed>1.263</gom:speed></extensions></trkpt>
   <trkpt lat="59.3129182768" lon="34.6622632571"><ele>160.45</ele><time>2026-08-16T13:27:44.138Z</time><hdop>3.25</hdop><vdop>2.5</vdop><extensions><gom:speed>1.26</gom:speed></extensions></trkpt>
   <trkpt lat="59.3129104816" lon="34.6622794341"><ele>160.646</ele><time>2026-08-16T13:27:45.111Z</time><hdop>3.125</hdop><vdop>2.5</vdop><extensions><gom:speed>1.244</gom:speed></extensions></trkpt>
   <trkpt lat="59.3128998785" lon="34.6622820325"><ele>161.609</ele><time>2026-08-16T13:27:46.138Z</time><hdop>3.0</hdop><vdop>2.5</vdop><extensions><gom:speed>1.173</gom:speed></extensions></trkpt>
   <trkpt lat="59.3128900717" lon="34.6622844633"><ele>162.198</ele><time>2026-08-16T13:27:47.138Z</time><hdop>3.0</hdop><vdop>2.5</vdop><extensions><gom:speed>1.211</gom:speed></extensions></trkpt>
   <trkpt lat="59.3128816898" lon="34.6622866426"><ele>162.909</ele><time>2026-08-16T13:27:48.138Z</time><hdop>3.0</hdop><vdop>2.5</vdop><extensions><gom:speed>1.167</gom:speed></extensions></trkpt>
   <trkpt lat="59.3128733917" lon="34.6622900792"><ele>163.242</ele><time>2026-08-16T13:27:49.138Z</time><hdop>3.0</hdop><vdop>2.5</vdop><extensions><gom:speed>1.197</gom:speed></extensions></trkpt>
   <trkpt lat="59.3128670634" lon="34.6622950245"><ele>163.441</ele><time>2026-08-16T13:27:49.773Z</time><hdop>3.0</hdop><vdop>2.5</vdop><extensions><gom:speed>1.201</gom:speed></extensions></trkpt>
   <trkpt lat="59.312860274" lon="34.6622970361"><ele>163.488</ele><time>2026-08-16T13:27:50.510Z</time><hdop>3.0</hdop><vdop>2.5</vdop><extensions><gom:speed>1.213</gom:speed></extensions></trkpt>
   <trkpt lat="59.3128555801" lon="34.6623015624"><ele>163.516</ele><time>2026-08-16T13:27:50.971Z</time><hdop>3.0</hdop><vdop>2.5</vdop><extensions><gom:speed>1.211</gom:speed></extensions></trkpt>
   <trkpt lat="59.3128499643" lon="34.6623072621"><ele>163.838</ele><time>2026-08-16T13:27:51.648Z</time><hdop>3.0</hdop><vdop>2.5</vdop><extensions><gom:speed>1.236</gom:speed></extensions></trkpt>
   <trkpt lat="59.3128462762" lon="34.6623122912"><ele>164.232</ele><time>2026-08-16T13:27:52.138Z</time><hdop>3.0</hdop><vdop>2.5</vdop><extensions><gom:speed>1.204</gom:speed></extensions></trkpt>
   <trkpt lat="59.3128406604" lon="34.6623190805"><ele>164.467</ele><time>2026-08-16T13:27:52.767Z</time><hdop>3.0</hdop><vdop>2.5</vdop><extensions><gom:speed>1.2</gom:speed></extensions></trkpt>
   <trkpt lat="59.3128357989" lon="34.6623199187"><ele>165.035</ele><time>2026-08-16T13:27:53.248Z</time><hdop>3.0</hdop><vdop>2.5</vdop><extensions><gom:speed>1.206</gom:speed></extensions></trkpt>
   <trkpt lat="59.3128288838" lon="34.6623289712"><ele>165.374</ele><time>2026-08-16T13:27:53.965Z</time><hdop>3.0</hdop><vdop>2.5</vdop><extensions><gom:speed>1.216</gom:speed></extensions></trkpt>
   <trkpt lat="59.3128211724" lon="34.6623385266"><ele>165.621</ele><time>2026-08-16T13:27:55.138Z</time><hdop>3.0</hdop><vdop>2.5</vdop><extensions><gom:speed>1.176</gom:speed></extensions></trkpt>
   <trkpt lat="59.3128144669" lon="34.6623480819"><ele>165.662</ele><time>2026-08-16T13:27:56.138Z</time><hdop>3.0</hdop><vdop>2.5</vdop><extensions><gom:speed>1.134</gom:speed></extensions></trkpt>
   <trkpt lat="59.3128103598" lon="34.6623548713"><ele>165.687</ele><time>2026-08-16T13:27:56.724Z</time><hdop>3.0</hdop><vdop>2.5</vdop><extensions><gom:speed>1.128</gom:speed></extensions></trkpt>
   <trkpt lat="59.3128043667" lon="34.6623595651"><ele>165.44</ele><time>2026-08-16T13:27:57.450Z</time><hdop>3.0</hdop><vdop>2.5</vdop><extensions><gom:speed>1.154</gom:speed></extensions></trkpt>
   <trkpt lat="59.3127983737" lon="34.6623625826"><ele>165.625</ele><time>2026-08-16T13:27:58.138Z</time><hdop>3.0</hdop><vdop>2.5</vdop><extensions><gom:speed>1.15</gom:speed></extensions></trkpt>
   <trkpt lat="59.3127941827" lon="34.6623647619"><ele>165.735</ele><time>2026-08-16T13:27:58.589Z</time><hdop>3.0</hdop><vdop>2.5</vdop><extensions><gom:speed>1.157</gom:speed></extensions></trkpt>
   <trkpt lat="59.3127882735" lon="34.6623648457"><ele>165.767</ele><time>2026-08-16T13:27:59.138Z</time><hdop>3.0</hdop><vdop>2.5</vdop><extensions><gom:speed>1.176</gom:speed></extensions></trkpt>
   <trkpt lat="59.3127818613" lon="34.6623657677"><ele>165.787</ele><time>2026-08-16T13:27:59.747Z</time><hdop>3.0</hdop><vdop>2.5</vdop><extensions><gom:speed>1.175</gom:speed></extensions></trkpt>
   <trkpt lat="59.3127679893" lon="34.6623627503"><ele>165.885</ele><time>2026-08-16T13:28:01.138Z</time><hdop>3.0</hdop><vdop>2.5</vdop><extensions><gom:speed>1.153</gom:speed></extensions></trkpt>
   <trkpt lat="59.31275747" lon="34.6623608224"><ele>165.943</ele><time>2026-08-16T13:28:02.064Z</time><hdop>3.0</hdop><vdop>2.5</vdop><extensions><gom:speed>1.169</gom:speed></extensions></trkpt>
   <trkpt lat="59.3127537819" lon="34.6623592299"><ele>165.511</ele><time>2026-08-16T13:28:02.565Z</time><hdop>3.0</hdop><vdop>2.5</vdop><extensions><gom:speed>1.118</gom:speed></extensions></trkpt>
   <trkpt lat="59.3127494653" lon="34.6623606548"><ele>165.205</ele><time>2026-08-16T13:28:03.138Z</time><hdop>3.0</hdop><vdop>2.5</vdop><extensions><gom:speed>1.103</gom:speed></extensions></trkpt>
   <trkpt lat="59.312744478" lon="34.6623634208"><ele>165.022</ele><time>2026-08-16T13:28:03.664Z</time><hdop>3.0</hdop><vdop>2.5</vdop><extensions><gom:speed>1.099</gom:speed></extensions></trkpt>
   <trkpt lat="59.3127405804" lon="34.6623662707"><ele>164.85</ele><time>2026-08-16T13:28:04.138Z</time><hdop>3.0</hdop><vdop>2.5</vdop><extensions><gom:speed>1.122</gom:speed></extensions></trkpt>
   <trkpt lat="59.3127340845" lon="34.6623720542"><ele>164.747</ele><time>2026-08-16T13:28:04.793Z</time><hdop>3.0</hdop><vdop>2.5</vdop><extensions><gom:speed>1.141</gom:speed></extensions></trkpt>
   <trkpt lat="59.3127290972" lon="34.6623841241"><ele>164.664</ele><time>2026-08-16T13:28:05.509Z</time><hdop>3.0</hdop><vdop>2.5</vdop><extensions><gom:speed>1.18</gom:speed></extensions></trkpt>
   <trkpt lat="59.3127257864" lon="34.6623960264"><ele>164.461</ele><time>2026-08-16T13:28:06.137Z</time><hdop>3.0</hdop><vdop>2.5</vdop><extensions><gom:speed>1.193</gom:speed></extensions></trkpt>
   <trkpt lat="59.3127235652" lon="34.6624053303"><ele>164.339</ele><time>2026-08-16T13:28:06.609Z</time><hdop>3.0</hdop><vdop>2.5</vdop><extensions><gom:speed>1.186</gom:speed></extensions></trkpt>
   <trkpt lat="59.3127210925" lon="34.6624153886"><ele>164.267</ele><time>2026-08-16T13:28:07.070Z</time><hdop>3.0</hdop><vdop>2.5</vdop><extensions><gom:speed>1.21</gom:speed></extensions></trkpt>
   <trkpt lat="59.3127161891" lon="34.662424944"><ele>164.342</ele><time>2026-08-16T13:28:07.728Z</time><hdop>3.0</hdop><vdop>2.5</vdop><extensions><gom:speed>1.187</gom:speed></extensions></trkpt>
   <trkpt lat="59.3127112857" lon="34.6624311466"><ele>164.207</ele><time>2026-08-16T13:28:08.228Z</time><hdop>3.0</hdop><vdop>2.5</vdop><extensions><gom:speed>1.206</gom:speed></extensions></trkpt>
   <trkpt lat="59.3127060889" lon="34.6624440547"><ele>164.125</ele><time>2026-08-16T13:28:08.965Z</time><hdop>3.0</hdop><vdop>2.5</vdop><extensions><gom:speed>1.168</gom:speed></extensions></trkpt>
   <trkpt lat="59.3127007664" lon="34.662450425"><ele>164.101</ele><time>2026-08-16T13:28:09.465Z</time><hdop>3.0</hdop><vdop>2.5</vdop><extensions><gom:speed>1.17</gom:speed></extensions></trkpt>
   <trkpt lat="59.3126978746" lon="34.6624606509"><ele>164.086</ele><time>2026-08-16T13:28:09.985Z</time><hdop>3.0</hdop><vdop>2.5</vdop><extensions><gom:speed>1.159</gom:speed></extensions></trkpt>
   <trkpt lat="59.3126924683" lon="34.6624664344"><ele>164.105</ele><time>2026-08-16T13:28:10.525Z</time><hdop>3.0</hdop><vdop>2.5</vdop><extensions><gom:speed>1.145</gom:speed></extensions></trkpt>
   <trkpt lat="59.312687062" lon="34.6624780852"><ele>163.733</ele><time>2026-08-16T13:28:11.137Z</time><hdop>3.0</hdop><vdop>2.5</vdop><extensions><gom:speed>1.285</gom:speed></extensions></trkpt>
   <trkpt lat="59.3126831644" lon="34.6624884788"><ele>163.511</ele><time>2026-08-16T13:28:11.605Z</time><hdop>3.0</hdop><vdop>2.5</vdop><extensions><gom:speed>1.289</gom:speed></extensions></trkpt>
   <trkpt lat="59.312679183" lon="34.6624982856"><ele>163.231</ele><time>2026-08-16T13:28:12.138Z</time><hdop>3.0</hdop><vdop>2.5</vdop><extensions><gom:speed>1.205</gom:speed></extensions></trkpt>
   <trkpt lat="59.3126757883" lon="34.662512954"><ele>163.063</ele><time>2026-08-16T13:28:12.871Z</time><hdop>3.0</hdop><vdop>2.5</vdop><extensions><gom:speed>1.2</gom:speed></extensions></trkpt>
   <trkpt lat="59.3126720584" lon="34.6625247724"><ele>163.041</ele><time>2026-08-16T13:28:13.490Z</time><hdop>3.0</hdop><vdop>2.5</vdop><extensions><gom:speed>1.198</gom:speed></extensions></trkpt>
   <trkpt lat="59.312672687" lon="34.6625438832"><ele>162.355</ele><time>2026-08-16T13:28:14.138Z</time><hdop>3.0</hdop><vdop>2.5</vdop><extensions><gom:speed>1.495</gom:speed></extensions></trkpt>
   <trkpt lat="59.3126808594" lon="34.6625642512"><ele>161.945</ele><time>2026-08-16T13:28:15.050Z</time><hdop>3.0</hdop><vdop>2.5</vdop><extensions><gom:speed>1.41</gom:speed></extensions></trkpt>
   <trkpt lat="59.3126780933" lon="34.6625780814"><ele>161.589</ele><time>2026-08-16T13:28:15.648Z</time><hdop>3.0</hdop><vdop>2.5</vdop><extensions><gom:speed>1.303</gom:speed></extensions></trkpt>
   <trkpt lat="59.3126725613" lon="34.6625868823"><ele>161.348</ele><time>2026-08-16T13:28:16.138Z</time><hdop>3.0</hdop><vdop>2.5</vdop><extensions><gom:speed>1.296</gom:speed></extensions></trkpt>
   <trkpt lat="59.3126654786" lon="34.6625977788"><ele>161.204</ele><time>2026-08-16T13:28:16.807Z</time><hdop>3.062</hdop><vdop>2.5</vdop><extensions><gom:speed>1.299</gom:speed></extensions></trkpt>
   <trkpt lat="59.312660659" lon="34.6626048196"><ele>161.254</ele><time>2026-08-16T13:28:17.270Z</time><hdop>3.062</hdop><vdop>2.5</vdop><extensions><gom:speed>1.233</gom:speed></extensions></trkpt>
   <trkpt lat="59.3126549593" lon="34.6626169734"><ele>161.283</ele><time>2026-08-16T13:28:17.986Z</time><hdop>3.125</hdop><vdop>2.5</vdop><extensions><gom:speed>1.256</gom:speed></extensions></trkpt>
   <trkpt lat="59.3126500978" lon="34.6626239304"><ele>161.221</ele><time>2026-08-16T13:28:18.546Z</time><hdop>3.125</hdop><vdop>2.5</vdop><extensions><gom:speed>1.184</gom:speed></extensions></trkpt>
   <trkpt lat="59.3126447753" lon="34.6626269478"><ele>161.184</ele><time>2026-08-16T13:28:19.085Z</time><hdop>3.187</hdop><vdop>2.5</vdop><extensions><gom:speed>1.124</gom:speed></extensions></trkpt>
   <trkpt lat="59.3126372735" lon="34.662616219"><ele>161.305</ele><time>2026-08-16T13:28:20.137Z</time><hdop>3.187</hdop><vdop>2.5</vdop><extensions><gom:speed>0.758</gom:speed></extensions></trkpt>
   <trkpt lat="59.3126370639" lon="34.6626082562"><ele>161.358</ele><time>2026-08-16T13:28:21.138Z</time><hdop>3.187</hdop><vdop>2.5</vdop><extensions><gom:speed>0.428</gom:speed></extensions></trkpt>
   <trkpt lat="59.3126378602" lon="34.6626093458"><ele>161.402</ele><time>2026-08-16T13:28:22.138Z</time><hdop>3.25</hdop><vdop>2.5</vdop><extensions><gom:speed>0.196</gom:speed></extensions></trkpt>
   <trkpt lat="59.3126390756" lon="34.6626138721"><ele>161.377</ele><time>2026-08-16T13:28:23.138Z</time><hdop>3.125</hdop><vdop>2.5</vdop><extensions><gom:speed>0.1</gom:speed></extensions></trkpt>
   <trkpt lat="59.312639788" lon="34.662617141"><ele>161.365</ele><time>2026-08-16T13:28:24.138Z</time><hdop>3.0</hdop><vdop>2.5</vdop><extensions><gom:speed>0.03</gom:speed></extensions></trkpt>
   <trkpt lat="59.3126399976" lon="34.6626177278"><ele>161.373</ele><time>2026-08-16T13:28:25.138Z</time><hdop>3.0</hdop><vdop>2.5</vdop><extensions><gom:speed>0.02</gom:speed></extensions></trkpt>
   <trkpt lat="59.312639788" lon="34.6626179792"><ele>161.404</ele><time>2026-08-16T13:28:26.138Z</time><hdop>3.0</hdop><vdop>2.5</vdop><extensions><gom:speed>0.019</gom:speed></extensions></trkpt>
   <trkpt lat="59.3126392851" lon="34.6626175601"><ele>161.401</ele><time>2026-08-16T13:28:27.138Z</time><hdop>3.0</hdop><vdop>2.5</vdop><extensions><gom:speed>0.06</gom:speed></extensions></trkpt>
   <trkpt lat="59.3126386984" lon="34.6626172248"><ele>161.282</ele><time>2026-08-16T13:28:28.138Z</time><hdop>3.0</hdop><vdop>2.5</vdop><extensions><gom:speed>0.043</gom:speed></extensions></trkpt>
   <trkpt lat="59.3126390756" lon="34.6626168896"><ele>161.3</ele><time>2026-08-16T13:28:29.138Z</time><hdop>3.0</hdop><vdop>2.5</vdop><extensions><gom:speed>0.057</gom:speed></extensions></trkpt>
   <trkpt lat="59.3126404586" lon="34.6626154646"><ele>161.317</ele><time>2026-08-16T13:28:30.137Z</time><hdop>3.0</hdop><vdop>2.5</vdop><extensions><gom:speed>0.073</gom:speed></extensions></trkpt>
   <trkpt lat="59.3126427636" lon="34.6626133692"><ele>161.295</ele><time>2026-08-16T13:28:31.138Z</time><hdop>3.0</hdop><vdop>2.5</vdop><extensions><gom:speed>0.189</gom:speed></extensions></trkpt>
   <trkpt lat="59.3126452782" lon="34.6626075856"><ele>161.794</ele><time>2026-08-16T13:28:32.138Z</time><hdop>3.0</hdop><vdop>2.5</vdop><extensions><gom:speed>0.153</gom:speed></extensions></trkpt>
   <trkpt lat="59.3126455716" lon="34.6625968568"><ele>161.308</ele><time>2026-08-16T13:28:33.138Z</time><hdop>3.0</hdop><vdop>2.5</vdop><extensions><gom:speed>0.425</gom:speed></extensions></trkpt>
   <trkpt lat="59.3126434761" lon="34.6625829429"><ele>160.651</ele><time>2026-08-16T13:28:34.137Z</time><hdop>3.0</hdop><vdop>2.5</vdop><extensions><gom:speed>0.439</gom:speed></extensions></trkpt>
   <trkpt lat="59.312641674" lon="34.6625771593"><ele>160.71</ele><time>2026-08-16T13:28:35.138Z</time><hdop>3.0</hdop><vdop>2.5</vdop><extensions><gom:speed>0.221</gom:speed></extensions></trkpt>
   <trkpt lat="59.3126383631" lon="34.66257498"><ele>160.74</ele><time>2026-08-16T13:28:36.138Z</time><hdop>3.0</hdop><vdop>2.5</vdop><extensions><gom:speed>0.091</gom:speed></extensions></trkpt>
   <trkpt lat="59.3126352618" lon="34.6625733875"><ele>160.758</ele><time>2026-08-16T13:28:37.138Z</time><hdop>3.0</hdop><vdop>2.5</vdop><extensions><gom:speed>0.048</gom:speed></extensions></trkpt>
   <trkpt lat="59.3126329987" lon="34.6625697833"><ele>160.783</ele><time>2026-08-16T13:28:38.138Z</time><hdop>3.0</hdop><vdop>2.5</vdop><extensions><gom:speed>0.037</gom:speed></extensions></trkpt>
   <trkpt lat="59.3126307775" lon="34.662566179"><ele>160.826</ele><time>2026-08-16T13:28:39.138Z</time><hdop>3.0</hdop><vdop>2.5</vdop><extensions><gom:speed>0.068</gom:speed></extensions></trkpt>
   <trkpt lat="59.3126295621" lon="34.6625636645"><ele>160.827</ele><time>2026-08-16T13:28:40.138Z</time><hdop>3.0</hdop><vdop>2.5</vdop><extensions><gom:speed>0.0</gom:speed></extensions></trkpt>
   <trkpt lat="59.312628682" lon="34.6625623234"><ele>160.821</ele><time>2026-08-16T13:28:41.138Z</time><hdop>3.0</hdop><vdop>2.5</vdop><extensions><gom:speed>0.014</gom:speed></extensions></trkpt>
   <trkpt lat="59.3126279696" lon="34.6625610661"><ele>160.809</ele><time>2026-08-16T13:28:42.138Z</time><hdop>3.0</hdop><vdop>2.5</vdop><extensions><gom:speed>0.024</gom:speed></extensions></trkpt>
   <trkpt lat="59.3126273828" lon="34.6625595573"><ele>160.817</ele><time>2026-08-16T13:28:43.138Z</time><hdop>3.0</hdop><vdop>2.5</vdop><extensions><gom:speed>0.032</gom:speed></extensions></trkpt>
   <trkpt lat="59.3126268799" lon="34.6625583839"><ele>160.822</ele><time>2026-08-16T13:28:44.138Z</time><hdop>3.0</hdop><vdop>2.5</vdop><extensions><gom:speed>0.037</gom:speed></extensions></trkpt>
   <trkpt lat="59.312626377" lon="34.6625572942"><ele>160.828</ele><time>2026-08-16T13:28:45.138Z</time><hdop>3.0</hdop><vdop>2.5</vdop><extensions><gom:speed>0.043</gom:speed></extensions></trkpt>
   <trkpt lat="59.3126258741" lon="34.6625562884"><ele>160.819</ele><time>2026-08-16T13:28:46.138Z</time><hdop>3.0</hdop><vdop>2.5</vdop><extensions><gom:speed>0.048</gom:speed></extensions></trkpt>
   <trkpt lat="59.3126254969" lon="34.6625552826"><ele>160.775</ele><time>2026-08-16T13:28:47.138Z</time><hdop>3.0</hdop><vdop>2.5</vdop><extensions><gom:speed>0.051</gom:speed></extensions></trkpt>
   <trkpt lat="59.3126247844" lon="34.6625544444"><ele>160.56</ele><time>2026-08-16T13:28:48.138Z</time><hdop>3.0</hdop><vdop>2.5</vdop><extensions><gom:speed>0.381</gom:speed></extensions></trkpt>
   <trkpt lat="59.3126222699" lon="34.662551846"><ele>160.432</ele><time>2026-08-16T13:28:49.084Z</time><hdop>3.0</hdop><vdop>2.5</vdop><extensions><gom:speed>0.425</gom:speed></extensions></trkpt>
   <trkpt lat="59.312613888" lon="34.6625605632"><ele>160.952</ele><time>2026-08-16T13:28:50.138Z</time><hdop>3.0</hdop><vdop>2.5</vdop><extensions><gom:speed>0.963</gom:speed></extensions></trkpt>
   <trkpt lat="59.3126046679" lon="34.6625788357"><ele>160.984</ele><time>2026-08-16T13:28:51.138Z</time><hdop>3.062</hdop><vdop>2.5</vdop><extensions><gom:speed>0.973</gom:speed></extensions></trkpt>
   <trkpt lat="59.3125947772" lon="34.6625924982"><ele>160.841</ele><time>2026-08-16T13:28:52.138Z</time><hdop>3.125</hdop><vdop>2.5</vdop><extensions><gom:speed>0.93</gom:speed></extensions></trkpt>
   <trkpt lat="59.312588868" lon="34.662595851"><ele>160.756</ele><time>2026-08-16T13:28:52.745Z</time><hdop>3.187</hdop><vdop>2.5</vdop><extensions><gom:speed>0.928</gom:speed></extensions></trkpt>
   <trkpt lat="59.3125772591" lon="34.6626079209"><ele>160.85</ele><time>2026-08-16T13:28:53.845Z</time><hdop>3.25</hdop><vdop>2.5</vdop><extensions><gom:speed>0.991</gom:speed></extensions></trkpt>
   <trkpt lat="59.3125685838" lon="34.6626190689"><ele>160.727</ele><time>2026-08-16T13:28:54.650Z</time><hdop>3.25</hdop><vdop>2.5</vdop><extensions><gom:speed>1.041</gom:speed></extensions></trkpt>
   <trkpt lat="59.3125637642" lon="34.6626245171"><ele>160.653</ele><time>2026-08-16T13:28:55.131Z</time><hdop>3.312</hdop><vdop>2.5</vdop><extensions><gom:speed>1.079</gom:speed></extensions></trkpt>
   <trkpt lat="59.3125561786" lon="34.6626307197"><ele>160.919</ele><time>2026-08-16T13:28:55.788Z</time><hdop>3.312</hdop><vdop>2.5</vdop><extensions><gom:speed>1.127</gom:speed></extensions></trkpt>
   <trkpt lat="59.3125504789" lon="34.6626343239"><ele>161.369</ele><time>2026-08-16T13:28:56.328Z</time><hdop>3.25</hdop><vdop>2.5</vdop><extensions><gom:speed>1.142</gom:speed></extensions></trkpt>
   <trkpt lat="59.3125445696" lon="34.6626395207"><ele>161.553</ele><time>2026-08-16T13:28:57.138Z</time><hdop>3.187</hdop><vdop>2.5</vdop><extensions><gom:speed>1.086</gom:speed></extensions></trkpt>
   <trkpt lat="59.3125381994" lon="34.6626485732"><ele>161.668</ele><time>2026-08-16T13:28:58.138Z</time><hdop>3.125</hdop><vdop>2.5</vdop><extensions><gom:speed>1.024</gom:speed></extensions></trkpt>
   <trkpt lat="59.3125337989" lon="34.6626551949"><ele>161.736</ele><time>2026-08-16T13:28:58.772Z</time><hdop>3.187</hdop><vdop>2.5</vdop><extensions><gom:speed>1.033</gom:speed></extensions></trkpt>
   <trkpt lat="59.312529566" lon="34.6626597211"><ele>161.849</ele><time>2026-08-16T13:28:59.489Z</time><hdop>3.125</hdop><vdop>2.5</vdop><extensions><gom:speed>0.993</gom:speed></extensions></trkpt>
   <trkpt lat="59.3125245788" lon="34.6626617327"><ele>161.917</ele><time>2026-08-16T13:29:00.009Z</time><hdop>3.125</hdop><vdop>2.5</vdop><extensions><gom:speed>1.023</gom:speed></extensions></trkpt>
   <trkpt lat="59.3125211841" lon="34.6626606431"><ele>161.956</ele><time>2026-08-16T13:29:00.667Z</time><hdop>3.062</hdop><vdop>2.5</vdop><extensions><gom:speed>0.977</gom:speed></extensions></trkpt>
   <trkpt lat="59.3125183762" lon="34.6626562845"><ele>161.65</ele><time>2026-08-16T13:29:01.138Z</time><hdop>3.0</hdop><vdop>2.5</vdop><extensions><gom:speed>1.03</gom:speed></extensions></trkpt>
   <trkpt lat="59.3125155682" lon="34.6626442984"><ele>161.456</ele><time>2026-08-16T13:29:02.138Z</time><hdop>3.062</hdop><vdop>2.5</vdop><extensions><gom:speed>0.74</gom:speed></extensions></trkpt>
   <trkpt lat="59.3125174961" lon="34.6626370899"><ele>161.366</ele><time>2026-08-16T13:29:03.138Z</time><hdop>3.0</hdop><vdop>2.5</vdop><extensions><gom:speed>0.433</gom:speed></extensions></trkpt>
   <trkpt lat="59.3125203878" lon="34.662635665"><ele>161.341</ele><time>2026-08-16T13:29:04.138Z</time><hdop>3.0</hdop><vdop>2.5</vdop><extensions><gom:speed>0.144</gom:speed></extensions></trkpt>
   <trkpt lat="59.3125218966" lon="34.6626360841"><ele>161.339</ele><time>2026-08-16T13:29:05.138Z</time><hdop>3.0</hdop><vdop>2.5</vdop><extensions><gom:speed>0.036</gom:speed></extensions></trkpt>
   <trkpt lat="59.3125225671" lon="34.6626372576"><ele>161.349</ele><time>2026-08-16T13:29:06.137Z</time><hdop>3.0</hdop><vdop>2.5</vdop><extensions><gom:speed>0.075</gom:speed></extensions></trkpt>
   <trkpt lat="59.3125225671" lon="34.6626369223"><ele>161.368</ele><time>2026-08-16T13:29:07.138Z</time><hdop>3.0</hdop><vdop>2.5</vdop><extensions><gom:speed>0.064</gom:speed></extensions></trkpt>
   <trkpt lat="59.3125226929" lon="34.6626357488"><ele>161.396</ele><time>2026-08-16T13:29:08.138Z</time><hdop>3.0</hdop><vdop>2.5</vdop><extensions><gom:speed>0.024</gom:speed></extensions></trkpt>
   <trkpt lat="59.3125232796" lon="34.6626350783"><ele>161.158</ele><time>2026-08-16T13:29:09.138Z</time><hdop>3.0</hdop><vdop>2.5</vdop><extensions><gom:speed>0.041</gom:speed></extensions></trkpt>
   <trkpt lat="59.3125243692" lon="34.6626355812"><ele>160.928</ele><time>2026-08-16T13:29:10.138Z</time><hdop>3.0</hdop><vdop>2.5</vdop><extensions><gom:speed>0.108</gom:speed></extensions></trkpt>
   <trkpt lat="59.3125250817" lon="34.6626349945"><ele>160.791</ele><time>2026-08-16T13:29:10.788Z</time><hdop>3.0</hdop><vdop>2.5</vdop><extensions><gom:speed>0.128</gom:speed></extensions></trkpt>
   <trkpt lat="59.3125276801" lon="34.6626359165"><ele>160.821</ele><time>2026-08-16T13:29:11.828Z</time><hdop>3.0</hdop><vdop>2.5</vdop><extensions><gom:speed>0.161</gom:speed></extensions></trkpt>
   <trkpt lat="59.3125327931" lon="34.6626387663"><ele>160.906</ele><time>2026-08-16T13:29:13.138Z</time><hdop>3.0</hdop><vdop>2.5</vdop><extensions><gom:speed>0.164</gom:speed></extensions></trkpt>
   <trkpt lat="59.3125347628" lon="34.6626423705"><ele>160.909</ele><time>2026-08-16T13:29:14.137Z</time><hdop>3.0</hdop><vdop>2.5</vdop><extensions><gom:speed>0.16</gom:speed></extensions></trkpt>
   <trkpt lat="59.3125349723" lon="34.6626451366"><ele>160.901</ele><time>2026-08-16T13:29:15.138Z</time><hdop>3.0</hdop><vdop>2.5</vdop><extensions><gom:speed>0.118</gom:speed></extensions></trkpt>
   <trkpt lat="59.312534679" lon="34.6626469806"><ele>160.915</ele><time>2026-08-16T13:29:16.138Z</time><hdop>3.0</hdop><vdop>2.5</vdop><extensions><gom:speed>0.106</gom:speed></extensions></trkpt>
   <trkpt lat="59.312534679" lon="34.6626483217"><ele>160.94</ele><time>2026-08-16T13:29:17.138Z</time><hdop>3.0</hdop><vdop>2.5</vdop><extensions><gom:speed>0.067</gom:speed></extensions></trkpt>
   <trkpt lat="59.3125348885" lon="34.6626488246"><ele>160.987</ele><time>2026-08-16T13:29:18.138Z</time><hdop>3.0</hdop><vdop>2.5</vdop><extensions><gom:speed>0.073</gom:speed></extensions></trkpt>
   <trkpt lat="59.3125356848" lon="34.6626490761"><ele>161.044</ele><time>2026-08-16T13:29:19.138Z</time><hdop>3.0</hdop><vdop>2.5</vdop><extensions><gom:speed>0.027</gom:speed></extensions></trkpt>
   <trkpt lat="59.3125359782" lon="34.6626480702"><ele>161.097</ele><time>2026-08-16T13:29:20.138Z</time><hdop>3.0</hdop><vdop>2.5</vdop><extensions><gom:speed>0.017</gom:speed></extensions></trkpt>
   <trkpt lat="59.3125364811" lon="34.6626476511"><ele>161.142</ele><time>2026-08-16T13:29:21.138Z</time><hdop>3.0</hdop><vdop>2.5</vdop><extensions><gom:speed>0.012</gom:speed></extensions></trkpt>
   <trkpt lat="59.3125365649" lon="34.662647735"><ele>161.153</ele><time>2026-08-16T13:29:22.137Z</time><hdop>3.0</hdop><vdop>2.5</vdop><extensions><gom:speed>0.0</gom:speed></extensions></trkpt>
   <trkpt lat="59.3125367745" lon="34.6626476511"><ele>161.151</ele><time>2026-08-16T13:29:23.138Z</time><hdop>3.0</hdop><vdop>2.5</vdop><extensions><gom:speed>0.014</gom:speed></extensions></trkpt>
   <trkpt lat="59.3125368583" lon="34.6626478188"><ele>161.126</ele><time>2026-08-16T13:29:24.138Z</time><hdop>3.0</hdop><vdop>2.5</vdop><extensions><gom:speed>0.023</gom:speed></extensions></trkpt>
   <trkpt lat="59.312536984" lon="34.6626482379"><ele>161.1</ele><time>2026-08-16T13:29:25.138Z</time><hdop>3.0</hdop><vdop>2.5</vdop><extensions><gom:speed>0.029</gom:speed></extensions></trkpt>
   <trkpt lat="59.3125370678" lon="34.662648657"><ele>161.089</ele><time>2026-08-16T13:29:26.138Z</time><hdop>3.0</hdop><vdop>2.5</vdop><extensions><gom:speed>0.037</gom:speed></extensions></trkpt>
   <trkpt lat="59.3125371936" lon="34.6626492437"><ele>161.081</ele><time>2026-08-16T13:29:27.138Z</time><hdop>3.0</hdop><vdop>2.5</vdop><extensions><gom:speed>0.044</gom:speed></extensions></trkpt>
   <trkpt lat="59.3125371936" lon="34.6626499981"><ele>161.085</ele><time>2026-08-16T13:29:28.138Z</time><hdop>3.0</hdop><vdop>2.5</vdop><extensions><gom:speed>0.048</gom:speed></extensions></trkpt>
   <trkpt lat="59.3125371936" lon="34.6626506686"><ele>161.089</ele><time>2026-08-16T13:29:29.138Z</time><hdop>3.0</hdop><vdop>2.5</vdop><extensions><gom:speed>0.053</gom:speed></extensions></trkpt>
   <trkpt lat="59.3125371936" lon="34.6626512554"><ele>161.097</ele><time>2026-08-16T13:29:30.138Z</time><hdop>3.0</hdop><vdop>2.5</vdop><extensions><gom:speed>0.06</gom:speed></extensions></trkpt>
   <trkpt lat="59.3125371936" lon="34.6626518421"><ele>161.079</ele><time>2026-08-16T13:29:31.138Z</time><hdop>3.0</hdop><vdop>2.5</vdop><extensions><gom:speed>0.062</gom:speed></extensions></trkpt>
   <trkpt lat="59.3125372774" lon="34.6626525965"><ele>161.073</ele><time>2026-08-16T13:29:32.138Z</time><hdop>3.0</hdop><vdop>2.5</vdop><extensions><gom:speed>0.062</gom:speed></extensions></trkpt>
   <trkpt lat="59.3125372774" lon="34.6626531832"><ele>161.064</ele><time>2026-08-16T13:29:33.138Z</time><hdop>3.0</hdop><vdop>2.5</vdop><extensions><gom:speed>0.064</gom:speed></extensions></trkpt>
   <trkpt lat="59.3125372774" lon="34.6626534347"><ele>161.076</ele><time>2026-08-16T13:29:34.138Z</time><hdop>3.0</hdop><vdop>2.5</vdop><extensions><gom:speed>0.123</gom:speed></extensions></trkpt>
   <trkpt lat="59.3125371936" lon="34.6626544405"><ele>161.202</ele><time>2026-08-16T13:29:35.138Z</time><hdop>3.0</hdop><vdop>2.5</vdop><extensions><gom:speed>0.33</gom:speed></extensions></trkpt>
   <trkpt lat="59.3125356848" lon="34.6626557816"><ele>161.304</ele><time>2026-08-16T13:29:36.138Z</time><hdop>3.0</hdop><vdop>2.5</vdop><extensions><gom:speed>0.106</gom:speed></extensions></trkpt>
   <trkpt lat="59.3125355591" lon="34.6626550272"><ele>161.376</ele><time>2026-08-16T13:29:37.138Z</time><hdop>3.0</hdop><vdop>2.5</vdop><extensions><gom:speed>0.088</gom:speed></extensions></trkpt>
   <trkpt lat="59.3125356848" lon="34.6626547758"><ele>161.428</ele><time>2026-08-16T13:29:38.138Z</time><hdop>3.0</hdop><vdop>2.5</vdop><extensions><gom:speed>0.075</gom:speed></extensions></trkpt>
   <trkpt lat="59.3125358944" lon="34.6626547758"><ele>161.474</ele><time>2026-08-16T13:29:39.138Z</time><hdop>3.0</hdop><vdop>2.5</vdop><extensions><gom:speed>0.068</gom:speed></extensions></trkpt>
   <trkpt lat="59.312536062" lon="34.6626545243"><ele>161.501</ele><time>2026-08-16T13:29:40.138Z</time><hdop>3.0</hdop><vdop>2.5</vdop><extensions><gom:speed>0.061</gom:speed></extensions></trkpt>
   <trkpt lat="59.3125361877" lon="34.6626545243"><ele>161.529</ele><time>2026-08-16T13:29:41.138Z</time><hdop>3.0</hdop><vdop>2.5</vdop><extensions><gom:speed>0.061</gom:speed></extensions></trkpt>
   <trkpt lat="59.3125361877" lon="34.6626545243"><ele>161.549</ele><time>2026-08-16T13:29:42.138Z</time><hdop>3.0</hdop><vdop>2.5</vdop><extensions><gom:speed>0.062</gom:speed></extensions></trkpt>
   <trkpt lat="59.3125361877" lon="34.6626546919"><ele>161.58</ele><time>2026-08-16T13:29:43.138Z</time><hdop>3.0</hdop><vdop>2.5</vdop><extensions><gom:speed>0.061</gom:speed></extensions></trkpt>
   <trkpt lat="59.312536062" lon="34.6626548596"><ele>161.599</ele><time>2026-08-16T13:29:43.808Z</time><hdop>3.0</hdop><vdop>2.5</vdop><extensions><gom:speed>0.061</gom:speed></extensions></trkpt>
   <trkpt lat="59.3125345952" lon="34.662657458"><ele>161.555</ele><time>2026-08-16T13:29:45.138Z</time><hdop>3.0</hdop><vdop>2.5</vdop><extensions><gom:speed>0.222</gom:speed></extensions></trkpt>
   <trkpt lat="59.3125344694" lon="34.6626586314"><ele>161.618</ele><time>2026-08-16T13:29:46.138Z</time><hdop>3.0</hdop><vdop>2.5</vdop><extensions><gom:speed>0.193</gom:speed></extensions></trkpt>
   <trkpt lat="59.3125343856" lon="34.6626600564"><ele>161.682</ele><time>2026-08-16T13:29:47.137Z</time><hdop>3.0</hdop><vdop>2.5</vdop><extensions><gom:speed>0.066</gom:speed></extensions></trkpt>
   <trkpt lat="59.3125344694" lon="34.6626604755"><ele>161.768</ele><time>2026-08-16T13:29:48.138Z</time><hdop>3.0</hdop><vdop>2.5</vdop><extensions><gom:speed>0.249</gom:speed></extensions></trkpt>
   <trkpt lat="59.3125335893" lon="34.6626608946"><ele>161.802</ele><time>2026-08-16T13:29:49.138Z</time><hdop>3.0</hdop><vdop>2.5</vdop><extensions><gom:speed>0.083</gom:speed></extensions></trkpt>
   <trkpt lat="59.3125337989" lon="34.6626612298"><ele>161.805</ele><time>2026-08-16T13:29:50.138Z</time><hdop>3.0</hdop><vdop>2.5</vdop><extensions><gom:speed>0.072</gom:speed></extensions></trkpt>
   <trkpt lat="59.3125338827" lon="34.6626617327"><ele>161.787</ele><time>2026-08-16T13:29:51.138Z</time><hdop>3.0</hdop><vdop>2.5</vdop><extensions><gom:speed>0.065</gom:speed></extensions></trkpt>
   <trkpt lat="59.3125338827" lon="34.6626615651"><ele>161.659</ele><time>2026-08-16T13:29:52.138Z</time><hdop>3.0</hdop><vdop>2.5</vdop><extensions><gom:speed>0.28</gom:speed></extensions></trkpt>
   <trkpt lat="59.3125342599" lon="34.6626631577"><ele>161.58</ele><time>2026-08-16T13:29:53.138Z</time><hdop>3.0</hdop><vdop>2.5</vdop><extensions><gom:speed>0.091</gom:speed></extensions></trkpt>
   <trkpt lat="59.3125349723" lon="34.6626625709"><ele>161.506</ele><time>2026-08-16T13:29:54.138Z</time><hdop>3.0</hdop><vdop>2.5</vdop><extensions><gom:speed>0.397</gom:speed></extensions></trkpt>
   <trkpt lat="59.3125348885" lon="34.6626651693"><ele>161.36</ele><time>2026-08-16T13:29:55.138Z</time><hdop>3.0</hdop><vdop>2.5</vdop><extensions><gom:speed>0.404</gom:speed></extensions></trkpt>
   <trkpt lat="59.3125347628" lon="34.6626672648"><ele>161.252</ele><time>2026-08-16T13:29:56.138Z</time><hdop>3.0</hdop><vdop>2.5</vdop><extensions><gom:speed>0.096</gom:speed></extensions></trkpt>
   <trkpt lat="59.3125348885" lon="34.6626672648"><ele>161.179</ele><time>2026-08-16T13:29:57.138Z</time><hdop>3.0</hdop><vdop>2.5</vdop><extensions><gom:speed>0.072</gom:speed></extensions></trkpt>
   <trkpt lat="59.3125348885" lon="34.6626680192"><ele>161.051</ele><time>2026-08-16T13:29:58.138Z</time><hdop>3.0</hdop><vdop>2.5</vdop><extensions><gom:speed>0.271</gom:speed></extensions></trkpt>
   <trkpt lat="59.3125355591" lon="34.6626707852"><ele>160.923</ele><time>2026-08-16T13:29:59.138Z</time><hdop>3.0</hdop><vdop>2.5</vdop><extensions><gom:speed>0.324</gom:speed></extensions></trkpt>
   <trkpt lat="59.312536984" lon="34.6626715396"><ele>160.977</ele><time>2026-08-16T13:30:00.138Z</time><hdop>3.0</hdop><vdop>2.5</vdop><extensions><gom:speed>0.098</gom:speed></extensions></trkpt>
   <trkpt lat="59.3125376965" lon="34.6626716234"><ele>160.977</ele><time>2026-08-16T13:30:01.138Z</time><hdop>3.0</hdop><vdop>2.5</vdop><extensions><gom:speed>0.35</gom:speed></extensions></trkpt>
   <trkpt lat="59.3125384927" lon="34.6626710367"><ele>160.976</ele><time>2026-08-16T13:30:01.605Z</time><hdop>3.0</hdop><vdop>2.5</vdop><extensions><gom:speed>0.425</gom:speed></extensions></trkpt>
   <trkpt lat="59.3125393728" lon="34.6626718748"><ele>160.942</ele><time>2026-08-16T13:30:02.138Z</time><hdop>3.0</hdop><vdop>2.5</vdop><extensions><gom:speed>0.149</gom:speed></extensions></trkpt>
   <trkpt lat="59.3125397919" lon="34.6626737189"><ele>160.948</ele><time>2026-08-16T13:30:03.138Z</time><hdop>3.0</hdop><vdop>2.5</vdop><extensions><gom:speed>0.094</gom:speed></extensions></trkpt>
   <trkpt lat="59.3125397919" lon="34.6626751438"><ele>160.959</ele><time>2026-08-16T13:30:04.138Z</time><hdop>3.0</hdop><vdop>2.5</vdop><extensions><gom:speed>0.081</gom:speed></extensions></trkpt>
   <trkpt lat="59.3125400853" lon="34.6626756467"><ele>160.966</ele><time>2026-08-16T13:30:05.138Z</time><hdop>3.0</hdop><vdop>2.5</vdop><extensions><gom:speed>0.07</gom:speed></extensions></trkpt>
   <trkpt lat="59.3125404625" lon="34.6626760658"><ele>160.975</ele><time>2026-08-16T13:30:06.138Z</time><hdop>3.0</hdop><vdop>2.5</vdop><extensions><gom:speed>0.072</gom:speed></extensions></trkpt>
   <trkpt lat="59.3125407978" lon="34.6626763173"><ele>160.98</ele><time>2026-08-16T13:30:07.137Z</time><hdop>3.0</hdop><vdop>2.5</vdop><extensions><gom:speed>0.069</gom:speed></extensions></trkpt>
   <trkpt lat="59.3125410911" lon="34.6626766525"><ele>161.0</ele><time>2026-08-16T13:30:08.138Z</time><hdop>3.0</hdop><vdop>2.5</vdop><extensions><gom:speed>0.067</gom:speed></extensions></trkpt>
   <trkpt lat="59.3125412588" lon="34.6626766525"><ele>161.008</ele><time>2026-08-16T13:30:09.138Z</time><hdop>3.0</hdop><vdop>2.5</vdop><extensions><gom:speed>0.068</gom:speed></extensions></trkpt>
   <trkpt lat="59.3125414683" lon="34.6626766525"><ele>161.007</ele><time>2026-08-16T13:30:10.138Z</time><hdop>3.0</hdop><vdop>2.5</vdop><extensions><gom:speed>0.068</gom:speed></extensions></trkpt>
   <trkpt lat="59.3125417617" lon="34.6626769878"><ele>160.997</ele><time>2026-08-16T13:30:11.138Z</time><hdop>3.0</hdop><vdop>2.5</vdop><extensions><gom:speed>0.072</gom:speed></extensions></trkpt>
   <trkpt lat="59.3125414683" lon="34.6626774907"><ele>161.005</ele><time>2026-08-16T13:30:12.138Z</time><hdop>3.0</hdop><vdop>2.5</vdop><extensions><gom:speed>0.796</gom:speed></extensions></trkpt>
   <trkpt lat="59.3125431866" lon="34.6626776584"><ele>161.011</ele><time>2026-08-16T13:30:12.913Z</time><hdop>3.0</hdop><vdop>2.5</vdop><extensions><gom:speed>0.797</gom:speed></extensions></trkpt>
   <trkpt lat="59.3125426837" lon="34.6626790833"><ele>161.013</ele><time>2026-08-16T13:30:13.571Z</time><hdop>3.0</hdop><vdop>2.5</vdop><extensions><gom:speed>0.794</gom:speed></extensions></trkpt>
   <trkpt lat="59.312536062" lon="34.6626876328"><ele>160.855</ele><time>2026-08-16T13:30:14.137Z</time><hdop>3.062</hdop><vdop>2.5</vdop><extensions><gom:speed>0.72</gom:speed></extensions></trkpt>
   <trkpt lat="59.3125316615" lon="34.6626923267"><ele>160.76</ele><time>2026-08-16T13:30:14.748Z</time><hdop>3.187</hdop><vdop>2.5</vdop><extensions><gom:speed>0.728</gom:speed></extensions></trkpt>
   <trkpt lat="59.3125227767" lon="34.6627018821"><ele>160.619</ele><time>2026-08-16T13:30:15.328Z</time><hdop>3.25</hdop><vdop>2.5</vdop><extensions><gom:speed>0.978</gom:speed></extensions></trkpt>
   <trkpt lat="59.3125209746" lon="34.6627049834"><ele>160.534</ele><time>2026-08-16T13:30:15.907Z</time><hdop>3.25</hdop><vdop>2.5</vdop><extensions><gom:speed>0.955</gom:speed></extensions></trkpt>
   <trkpt lat="59.3125123831" lon="34.6627109345"><ele>160.436</ele><time>2026-08-16T13:30:16.584Z</time><hdop>3.312</hdop><vdop>2.5</vdop><extensions><gom:speed>1.118</gom:speed></extensions></trkpt>
   <trkpt lat="59.3125049651" lon="34.6627182268"><ele>160.395</ele><time>2026-08-16T13:30:17.138Z</time><hdop>3.375</hdop><vdop>2.5</vdop><extensions><gom:speed>1.061</gom:speed></extensions></trkpt>
   <trkpt lat="59.3124998941" lon="34.6627220824"><ele>160.371</ele><time>2026-08-16T13:30:17.713Z</time><hdop>3.5</hdop><vdop>2.5</vdop><extensions><gom:speed>1.024</gom:speed></extensions></trkpt>
   <trkpt lat="59.312489291" lon="34.6627362479"><ele>160.446</ele><time>2026-08-16T13:30:18.390Z</time><hdop>3.562</hdop><vdop>2.5</vdop><extensions><gom:speed>1.076</gom:speed></extensions></trkpt>
   <trkpt lat="59.3124799871" lon="34.6627483178"><ele>160.635</ele><time>2026-08-16T13:30:19.138Z</time><hdop>3.625</hdop><vdop>2.5</vdop><extensions><gom:speed>1.141</gom:speed></extensions></trkpt>
   <trkpt lat="59.3124708927" lon="34.6627590466"><ele>160.749</ele><time>2026-08-16T13:30:19.912Z</time><hdop>3.625</hdop><vdop>2.5</vdop><extensions><gom:speed>1.168</gom:speed></extensions></trkpt>
   <trkpt lat="59.3124632652" lon="34.6627637405"><ele>160.775</ele><time>2026-08-16T13:30:20.510Z</time><hdop>3.562</hdop><vdop>2.5</vdop><extensions><gom:speed>1.137</gom:speed></extensions></trkpt>
   <trkpt lat="59.312457775" lon="34.6627664227"><ele>160.791</ele><time>2026-08-16T13:30:20.972Z</time><hdop>3.562</hdop><vdop>2.5</vdop><extensions><gom:speed>1.165</gom:speed></extensions></trkpt>
   <trkpt lat="59.3124488902" lon="34.662771871"><ele>160.92</ele><time>2026-08-16T13:30:21.669Z</time><hdop>3.5</hdop><vdop>2.5</vdop><extensions><gom:speed>1.172</gom:speed></extensions></trkpt>
   <trkpt lat="59.3124435677" lon="34.6627780736"><ele>160.997</ele><time>2026-08-16T13:30:22.130Z</time><hdop>3.5</hdop><vdop>2.5</vdop><extensions><gom:speed>1.207</gom:speed></extensions></trkpt>
   <trkpt lat="59.312433677" lon="34.6627923228"><ele>160.953</ele><time>2026-08-16T13:30:23.138Z</time><hdop>3.375</hdop><vdop>2.5</vdop><extensions><gom:speed>1.207</gom:speed></extensions></trkpt>
   <trkpt lat="59.3124262591" lon="34.6628061529"><ele>160.926</ele><time>2026-08-16T13:30:23.965Z</time><hdop>3.312</hdop><vdop>2.5</vdop><extensions><gom:speed>1.215</gom:speed></extensions></trkpt>
   <trkpt lat="59.3124212718" lon="34.662813529"><ele>160.911</ele><time>2026-08-16T13:30:24.446Z</time><hdop>3.25</hdop><vdop>2.5</vdop><extensions><gom:speed>1.24</gom:speed></extensions></trkpt>
   <trkpt lat="59.3124152788" lon="34.6628235873"><ele>160.902</ele><time>2026-08-16T13:30:25.084Z</time><hdop>3.187</hdop><vdop>2.5</vdop><extensions><gom:speed>1.248</gom:speed></extensions></trkpt>
   <trkpt lat="59.3124089923" lon="34.6628262695"><ele>160.785</ele><time>2026-08-16T13:30:25.546Z</time><hdop>3.125</hdop><vdop>2.5</vdop><extensions><gom:speed>1.237</gom:speed></extensions></trkpt>
   <trkpt lat="59.3124020773" lon="34.6628295384"><ele>160.673</ele><time>2026-08-16T13:30:26.138Z</time><hdop>3.125</hdop><vdop>2.5</vdop><extensions><gom:speed>1.186</gom:speed></extensions></trkpt>
   <trkpt lat="59.3123959585" lon="34.6628337294"><ele>160.606</ele><time>2026-08-16T13:30:26.665Z</time><hdop>3.125</hdop><vdop>2.5</vdop><extensions><gom:speed>1.182</gom:speed></extensions></trkpt>
   <trkpt lat="59.3123913903" lon="34.6628376689"><ele>160.485</ele><time>2026-08-16T13:30:27.138Z</time><hdop>3.0</hdop><vdop>2.5</vdop><extensions><gom:speed>1.122</gom:speed></extensions></trkpt>
   <trkpt lat="59.3123855649" lon="34.6628456317"><ele>160.413</ele><time>2026-08-16T13:30:27.794Z</time><hdop>3.062</hdop><vdop>2.5</vdop><extensions><gom:speed>1.117</gom:speed></extensions></trkpt>
   <trkpt lat="59.312379991" lon="34.6628539298"><ele>160.374</ele><time>2026-08-16T13:30:28.373Z</time><hdop>3.0</hdop><vdop>2.5</vdop><extensions><gom:speed>1.162</gom:speed></extensions></trkpt>
   <trkpt lat="59.3123747942" lon="34.6628602162"><ele>160.351</ele><time>2026-08-16T13:30:28.893Z</time><hdop>3.062</hdop><vdop>2.5</vdop><extensions><gom:speed>1.162</gom:speed></extensions></trkpt>
   <trkpt lat="59.3123670828" lon="34.6628690172"><ele>160.593</ele><time>2026-08-16T13:30:29.433Z</time><hdop>3.0</hdop><vdop>2.5</vdop><extensions><gom:speed>1.321</gom:speed></extensions></trkpt>
   <trkpt lat="59.3123598744" lon="34.6628764771"><ele>160.738</ele><time>2026-08-16T13:30:30.051Z</time><hdop>3.062</hdop><vdop>2.5</vdop><extensions><gom:speed>1.272</gom:speed></extensions></trkpt>
   <trkpt lat="59.3123512829" lon="34.6628809195"><ele>160.816</ele><time>2026-08-16T13:30:30.709Z</time><hdop>3.0</hdop><vdop>2.5</vdop><extensions><gom:speed>1.243</gom:speed></extensions></trkpt>
   <trkpt lat="59.3123462957" lon="34.6628847752"><ele>160.699</ele><time>2026-08-16T13:30:31.170Z</time><hdop>3.0</hdop><vdop>2.5</vdop><extensions><gom:speed>1.213</gom:speed></extensions></trkpt>
   <trkpt lat="59.3123371594" lon="34.6628910616"><ele>160.647</ele><time>2026-08-16T13:30:32.138Z</time><hdop>3.0</hdop><vdop>2.5</vdop><extensions><gom:speed>1.544</gom:speed></extensions></trkpt>
   <trkpt lat="59.3123361955" lon="34.6628976833"><ele>160.616</ele><time>2026-08-16T13:30:32.908Z</time><hdop>3.062</hdop><vdop>2.5</vdop><extensions><gom:speed>1.346</gom:speed></extensions></trkpt>
   <trkpt lat="59.3123329685" lon="34.6629009523"><ele>160.67</ele><time>2026-08-16T13:30:33.428Z</time><hdop>3.187</hdop><vdop>2.5</vdop><extensions><gom:speed>1.448</gom:speed></extensions></trkpt>
   <trkpt lat="59.3123296995" lon="34.6629043888"><ele>160.703</ele><time>2026-08-16T13:30:34.046Z</time><hdop>3.312</hdop><vdop>2.5</vdop><extensions><gom:speed>1.376</gom:speed></extensions></trkpt>
   <trkpt lat="59.3123236646" lon="34.6629106753"><ele>160.716</ele><time>2026-08-16T13:30:34.527Z</time><hdop>3.5</hdop><vdop>2.5</vdop><extensions><gom:speed>1.267</gom:speed></extensions></trkpt>
   <trkpt lat="59.3123154922" lon="34.6629183866"><ele>160.612</ele><time>2026-08-16T13:30:35.138Z</time><hdop>3.625</hdop><vdop>2.5</vdop><extensions><gom:speed>1.236</gom:speed></extensions></trkpt>
   <trkpt lat="59.3123085771" lon="34.6629233319"><ele>160.55</ele><time>2026-08-16T13:30:35.725Z</time><hdop>3.75</hdop><vdop>2.5</vdop><extensions><gom:speed>1.237</gom:speed></extensions></trkpt>
   <trkpt lat="59.3123004886" lon="34.6629320491"><ele>160.576</ele><time>2026-08-16T13:30:36.353Z</time><hdop>3.812</hdop><vdop>2.5</vdop><extensions><gom:speed>1.257</gom:speed></extensions></trkpt>
   <trkpt lat="59.3122918972" lon="34.6629408501"><ele>160.663</ele><time>2026-08-16T13:30:37.138Z</time><hdop>3.812</hdop><vdop>2.5</vdop><extensions><gom:speed>1.247</gom:speed></extensions></trkpt>
   <trkpt lat="59.3122842696" lon="34.6629495673"><ele>160.714</ele><time>2026-08-16T13:30:37.864Z</time><hdop>3.875</hdop><vdop>2.5</vdop><extensions><gom:speed>1.244</gom:speed></extensions></trkpt>
   <trkpt lat="59.3122725769" lon="34.6629624754"><ele>160.927</ele><time>2026-08-16T13:30:38.974Z</time><hdop>3.875</hdop><vdop>2.5</vdop><extensions><gom:speed>1.27</gom:speed></extensions></trkpt>
   <trkpt lat="59.3122608841" lon="34.6629743777"><ele>161.015</ele><time>2026-08-16T13:30:40.132Z</time><hdop>3.625</hdop><vdop>2.5</vdop><extensions><gom:speed>1.241</gom:speed></extensions></trkpt>
   <trkpt lat="59.3122555616" lon="34.6629834302"><ele>161.223</ele><time>2026-08-16T13:30:40.731Z</time><hdop>3.437</hdop><vdop>2.5</vdop><extensions><gom:speed>1.267</gom:speed></extensions></trkpt>
   <trkpt lat="59.3122517898" lon="34.6629917283"><ele>161.237</ele><time>2026-08-16T13:30:41.231Z</time><hdop>3.375</hdop><vdop>2.5</vdop><extensions><gom:speed>1.252</gom:speed></extensions></trkpt>
   <trkpt lat="59.3122445813" lon="34.6630026247"><ele>161.245</ele><time>2026-08-16T13:30:41.967Z</time><hdop>3.312</hdop><vdop>2.5</vdop><extensions><gom:speed>1.256</gom:speed></extensions></trkpt>
   <trkpt lat="59.3122344811" lon="34.6630124316"><ele>161.378</ele><time>2026-08-16T13:30:43.008Z</time><hdop>3.187</hdop><vdop>2.5</vdop><extensions><gom:speed>1.239</gom:speed></extensions></trkpt>
   <trkpt lat="59.3122296615" lon="34.6630161196"><ele>161.495</ele><time>2026-08-16T13:30:43.508Z</time><hdop>3.125</hdop><vdop>2.5</vdop><extensions><gom:speed>1.235</gom:speed></extensions></trkpt>
   <trkpt lat="59.3122230817" lon="34.6630226575"><ele>161.565</ele><time>2026-08-16T13:30:44.146Z</time><hdop>3.125</hdop><vdop>2.5</vdop><extensions><gom:speed>1.224</gom:speed></extensions></trkpt>
   <trkpt lat="59.3122186812" lon="34.6630269323"><ele>161.582</ele><time>2026-08-16T13:30:44.647Z</time><hdop>3.125</hdop><vdop>2.5</vdop><extensions><gom:speed>1.193</gom:speed></extensions></trkpt>
   <trkpt lat="59.3122155799" lon="34.6630314585"><ele>161.78</ele><time>2026-08-16T13:30:45.138Z</time><hdop>3.062</hdop><vdop>2.5</vdop><extensions><gom:speed>1.142</gom:speed></extensions></trkpt>
   <trkpt lat="59.312208581" lon="34.6630436961"><ele>161.899</ele><time>2026-08-16T13:30:45.972Z</time><hdop>3.062</hdop><vdop>2.5</vdop><extensions><gom:speed>1.201</gom:speed></extensions></trkpt>
   <trkpt lat="59.3121958825" lon="34.6630470488"><ele>161.876</ele><time>2026-08-16T13:30:47.138Z</time><hdop>3.0</hdop><vdop>2.5</vdop><extensions><gom:speed>1.305</gom:speed></extensions></trkpt>
   <trkpt lat="59.3121846926" lon="34.6630492281"><ele>161.943</ele><time>2026-08-16T13:30:48.138Z</time><hdop>3.0</hdop><vdop>2.5</vdop><extensions><gom:speed>1.278</gom:speed></extensions></trkpt>
   <trkpt lat="59.3121774842" lon="34.6630656567"><ele>161.982</ele><time>2026-08-16T13:30:48.946Z</time><hdop>3.0</hdop><vdop>2.5</vdop><extensions><gom:speed>1.272</gom:speed></extensions></trkpt>
   <trkpt lat="59.312175263" lon="34.6630777266"><ele>162.183</ele><time>2026-08-16T13:30:49.447Z</time><hdop>3.0</hdop><vdop>2.5</vdop><extensions><gom:speed>1.246</gom:speed></extensions></trkpt>
   <trkpt lat="59.3121720779" lon="34.6630930655"><ele>162.196</ele><time>2026-08-16T13:30:50.138Z</time><hdop>3.0</hdop><vdop>2.5</vdop><extensions><gom:speed>1.22</gom:speed></extensions></trkpt>
   <trkpt lat="59.3121697728" lon="34.6631049678"><ele>162.204</ele><time>2026-08-16T13:30:50.644Z</time><hdop>3.0</hdop><vdop>2.5</vdop><extensions><gom:speed>1.221</gom:speed></extensions></trkpt>
   <trkpt lat="59.3121675935" lon="34.6631154452"><ele>162.308</ele><time>2026-08-16T13:30:51.138Z</time><hdop>3.0</hdop><vdop>2.5</vdop><extensions><gom:speed>1.185</gom:speed></extensions></trkpt>
   <trkpt lat="59.3121639893" lon="34.6631291915"><ele>162.369</ele><time>2026-08-16T13:30:51.813Z</time><hdop>3.0</hdop><vdop>2.5</vdop><extensions><gom:speed>1.186</gom:speed></extensions></trkpt>
   <trkpt lat="59.3121605946" lon="34.6631392498"><ele>162.574</ele><time>2026-08-16T13:30:52.352Z</time><hdop>3.0</hdop><vdop>2.5</vdop><extensions><gom:speed>1.184</gom:speed></extensions></trkpt>
   <trkpt lat="59.3121563618" lon="34.6631496433"><ele>162.696</ele><time>2026-08-16T13:30:52.932Z</time><hdop>3.0</hdop><vdop>2.5</vdop><extensions><gom:speed>1.178</gom:speed></extensions></trkpt>
   <trkpt lat="59.3121490695" lon="34.6631660719"><ele>162.924</ele><time>2026-08-16T13:30:54.011Z</time><hdop>3.0</hdop><vdop>2.5</vdop><extensions><gom:speed>1.118</gom:speed></extensions></trkpt>
   <trkpt lat="59.3121421964" lon="34.6631844282"><ele>162.878</ele><time>2026-08-16T13:30:55.138Z</time><hdop>3.0</hdop><vdop>2.5</vdop><extensions><gom:speed>1.12</gom:speed></extensions></trkpt>
   <trkpt lat="59.3121374606" lon="34.6631988451"><ele>162.851</ele><time>2026-08-16T13:30:55.925Z</time><hdop>3.0</hdop><vdop>2.5</vdop><extensions><gom:speed>1.122</gom:speed></extensions></trkpt>
   <trkpt lat="59.3121339821" lon="34.6632089872"><ele>163.046</ele><time>2026-08-16T13:30:56.485Z</time><hdop>3.0</hdop><vdop>2.5</vdop><extensions><gom:speed>1.163</gom:speed></extensions></trkpt>
   <trkpt lat="59.3121308808" lon="34.6632217277"><ele>163.082</ele><time>2026-08-16T13:30:57.138Z</time><hdop>3.0</hdop><vdop>2.5</vdop><extensions><gom:speed>1.179</gom:speed></extensions></trkpt>
   <trkpt lat="59.312127989" lon="34.6632425986"><ele>163.038</ele><time>2026-08-16T13:30:58.138Z</time><hdop>3.0</hdop><vdop>2.5</vdop><extensions><gom:speed>1.167</gom:speed></extensions></trkpt>
   <trkpt lat="59.3121249716" lon="34.6632544171"><ele>163.012</ele><time>2026-08-16T13:30:58.752Z</time><hdop>3.0</hdop><vdop>2.5</vdop><extensions><gom:speed>1.175</gom:speed></extensions></trkpt>
   <trkpt lat="59.3121170926" lon="34.6632760424"><ele>163.17</ele><time>2026-08-16T13:30:59.870Z</time><hdop>3.0</hdop><vdop>2.5</vdop><extensions><gom:speed>1.233</gom:speed></extensions></trkpt>
   <trkpt lat="59.312113195" lon="34.6632883638"><ele>163.37</ele><time>2026-08-16T13:31:00.529Z</time><hdop>3.0</hdop><vdop>2.5</vdop><extensions><gom:speed>1.23</gom:speed></extensions></trkpt>
   <trkpt lat="59.3121102613" lon="34.6632978354"><ele>163.489</ele><time>2026-08-16T13:31:00.990Z</time><hdop>3.0</hdop><vdop>2.5</vdop><extensions><gom:speed>1.263</gom:speed></extensions></trkpt>
   <trkpt lat="59.312106699" lon="34.66330957"><ele>163.566</ele><time>2026-08-16T13:31:01.628Z</time><hdop>3.0</hdop><vdop>2.5</vdop><extensions><gom:speed>1.264</gom:speed></extensions></trkpt>
   <trkpt lat="59.312103472" lon="34.6633198798"><ele>163.612</ele><time>2026-08-16T13:31:02.129Z</time><hdop>3.0</hdop><vdop>2.5</vdop><extensions><gom:speed>1.277</gom:speed></extensions></trkpt>
   <trkpt lat="59.3120995744" lon="34.6633307763"><ele>163.573</ele><time>2026-08-16T13:31:02.708Z</time><hdop>3.0</hdop><vdop>2.5</vdop><extensions><gom:speed>1.284</gom:speed></extensions></trkpt>
   <trkpt lat="59.3120951739" lon="34.6633411698"><ele>163.537</ele><time>2026-08-16T13:31:03.307Z</time><hdop>3.0</hdop><vdop>2.5</vdop><extensions><gom:speed>1.257</gom:speed></extensions></trkpt>
   <trkpt lat="59.312091863" lon="34.6633534912"><ele>163.515</ele><time>2026-08-16T13:31:03.866Z</time><hdop>3.0</hdop><vdop>2.5</vdop><extensions><gom:speed>1.266</gom:speed></extensions></trkpt>
   <trkpt lat="59.3120821819" lon="34.6633760385"><ele>163.521</ele><time>2026-08-16T13:31:05.138Z</time><hdop>3.0</hdop><vdop>2.5</vdop><extensions><gom:speed>1.269</gom:speed></extensions></trkpt>
   <trkpt lat="59.312074261" lon="34.6633943949"><ele>163.458</ele><time>2026-08-16T13:31:06.138Z</time><hdop>3.0</hdop><vdop>2.5</vdop><extensions><gom:speed>1.252</gom:speed></extensions></trkpt>
   <trkpt lat="59.3120656696" lon="34.6634104882"><ele>163.142</ele><time>2026-08-16T13:31:07.138Z</time><hdop>3.0</hdop><vdop>2.5</vdop><extensions><gom:speed>1.251</gom:speed></extensions></trkpt>
   <trkpt lat="59.3120610595" lon="34.6634185348"><ele>162.953</ele><time>2026-08-16T13:31:07.645Z</time><hdop>3.0</hdop><vdop>2.5</vdop><extensions><gom:speed>1.258</gom:speed></extensions></trkpt>
   <trkpt lat="59.3120570781" lon="34.6634273358"><ele>162.84</ele><time>2026-08-16T13:31:08.106Z</time><hdop>3.0</hdop><vdop>2.5</vdop><extensions><gom:speed>1.256</gom:speed></extensions></trkpt>
   <trkpt lat="59.3120523843" lon="34.6634418365"><ele>162.963</ele><time>2026-08-16T13:31:08.931Z</time><hdop>3.0</hdop><vdop>2.5</vdop><extensions><gom:speed>1.222</gom:speed></extensions></trkpt>
   <trkpt lat="59.3120507917" lon="34.6634616178"><ele>163.134</ele><time>2026-08-16T13:31:09.931Z</time><hdop>3.0</hdop><vdop>2.5</vdop><extensions><gom:speed>1.198</gom:speed></extensions></trkpt>
   <trkpt lat="59.312051588" lon="34.663471676"><ele>163.295</ele><time>2026-08-16T13:31:10.590Z</time><hdop>3.0</hdop><vdop>2.5</vdop><extensions><gom:speed>1.157</gom:speed></extensions></trkpt>
   <trkpt lat="59.3120518814" lon="34.6634785492"><ele>163.504</ele><time>2026-08-16T13:31:11.138Z</time><hdop>3.0</hdop><vdop>2.5</vdop><extensions><gom:speed>1.1</gom:speed></extensions></trkpt>
   <trkpt lat="59.3120528872" lon="34.6634899486"><ele>163.629</ele><time>2026-08-16T13:31:11.807Z</time><hdop>3.0</hdop><vdop>2.5</vdop><extensions><gom:speed>1.096</gom:speed></extensions></trkpt>
   <trkpt lat="59.3120536835" lon="34.663503192"><ele>163.738</ele><time>2026-08-16T13:31:12.424Z</time><hdop>3.0</hdop><vdop>2.5</vdop><extensions><gom:speed>1.228</gom:speed></extensions></trkpt>
   <trkpt lat="59.3120551922" lon="34.6635149267"><ele>164.063</ele><time>2026-08-16T13:31:13.138Z</time><hdop>3.0</hdop><vdop>2.5</vdop><extensions><gom:speed>1.068</gom:speed></extensions></trkpt>
   <trkpt lat="59.3120581678" lon="34.6635280863"><ele>164.428</ele><time>2026-08-16T13:31:14.138Z</time><hdop>3.0</hdop><vdop>2.5</vdop><extensions><gom:speed>0.914</gom:speed></extensions></trkpt>
   <trkpt lat="59.3120612691" lon="34.6635341212"><ele>164.605</ele><time>2026-08-16T13:31:15.138Z</time><hdop>3.0</hdop><vdop>2.5</vdop><extensions><gom:speed>0.512</gom:speed></extensions></trkpt>
   <trkpt lat="59.3120627778" lon="34.6635343727"><ele>164.706</ele><time>2026-08-16T13:31:16.138Z</time><hdop>3.0</hdop><vdop>2.5</vdop><extensions><gom:speed>0.359</gom:speed></extensions></trkpt>
   <trkpt lat="59.312061772" lon="34.663536552"><ele>164.871</ele><time>2026-08-16T13:31:17.138Z</time><hdop>3.0</hdop><vdop>2.5</vdop><extensions><gom:speed>0.485</gom:speed></extensions></trkpt>
   <trkpt lat="59.3120609757" lon="34.6635418326"><ele>164.97</ele><time>2026-08-16T13:31:17.825Z</time><hdop>3.0</hdop><vdop>2.5</vdop><extensions><gom:speed>0.494</gom:speed></extensions></trkpt>
   <trkpt lat="59.3120586707" lon="34.6635526452"><ele>164.918</ele><time>2026-08-16T13:31:18.452Z</time><hdop>3.0</hdop><vdop>2.5</vdop><extensions><gom:speed>0.725</gom:speed></extensions></trkpt>
   <trkpt lat="59.3120572877" lon="34.66355692"><ele>164.887</ele><time>2026-08-16T13:31:18.964Z</time><hdop>3.0</hdop><vdop>2.5</vdop><extensions><gom:speed>0.56</gom:speed></extensions></trkpt>
   <trkpt lat="59.3120481933" lon="34.6635826524"><ele>164.949</ele><time>2026-08-16T13:31:20.053Z</time><hdop>3.0</hdop><vdop>2.5</vdop><extensions><gom:speed>1.093</gom:speed></extensions></trkpt>
   <trkpt lat="59.3120397695" lon="34.6635975722"><ele>164.806</ele><time>2026-08-16T13:31:20.750Z</time><hdop>3.062</hdop><vdop>2.5</vdop><extensions><gom:speed>1.195</gom:speed></extensions></trkpt>
   <trkpt lat="59.312029795" lon="34.6636189461"><ele>164.848</ele><time>2026-08-16T13:31:21.850Z</time><hdop>3.062</hdop><vdop>2.5</vdop><extensions><gom:speed>1.211</gom:speed></extensions></trkpt>
   <trkpt lat="59.31202288" lon="34.6636244781"><ele>165.287</ele><time>2026-08-16T13:31:22.331Z</time><hdop>3.062</hdop><vdop>2.5</vdop><extensions><gom:speed>1.223</gom:speed></extensions></trkpt>
   <trkpt lat="59.3120136599" lon="34.6636334468"><ele>165.363</ele><time>2026-08-16T13:31:23.138Z</time><hdop>3.062</hdop><vdop>2.5</vdop><extensions><gom:speed>1.232</gom:speed></extensions></trkpt>
   <trkpt lat="59.3120005841" lon="34.6636418287"><ele>165.464</ele><time>2026-08-16T13:31:24.138Z</time><hdop>3.062</hdop><vdop>2.5</vdop><extensions><gom:speed>1.232</gom:speed></extensions></trkpt>
   <trkpt lat="59.3119872988" lon="34.6636500429"><ele>165.408</ele><time>2026-08-16T13:31:25.138Z</time><hdop>3.062</hdop><vdop>2.5</vdop><extensions><gom:speed>1.21</gom:speed></extensions></trkpt>
   <trkpt lat="59.3119790845" lon="34.6636557426"><ele>165.375</ele><time>2026-08-16T13:31:25.805Z</time><hdop>3.062</hdop><vdop>2.5</vdop><extensions><gom:speed>1.202</gom:speed></extensions></trkpt>
   <trkpt lat="59.3119660926" lon="34.6636618614"><ele>165.395</ele><time>2026-08-16T13:31:26.865Z</time><hdop>3.0</hdop><vdop>2.5</vdop><extensions><gom:speed>1.229</gom:speed></extensions></trkpt>
   <trkpt lat="59.3119531845" lon="34.6636710815"><ele>165.554</ele><time>2026-08-16T13:31:27.965Z</time><hdop>3.0</hdop><vdop>2.5</vdop><extensions><gom:speed>1.248</gom:speed></extensions></trkpt>
   <trkpt lat="59.311945976" lon="34.6636797987"><ele>165.697</ele><time>2026-08-16T13:31:28.632Z</time><hdop>3.0</hdop><vdop>2.5</vdop><extensions><gom:speed>1.232</gom:speed></extensions></trkpt>
   <trkpt lat="59.3119400668" lon="34.6636851631"><ele>165.783</ele><time>2026-08-16T13:31:29.113Z</time><hdop>3.0</hdop><vdop>2.5</vdop><extensions><gom:speed>1.257</gom:speed></extensions></trkpt>
   <trkpt lat="59.3119321878" lon="34.6636949699"><ele>165.889</ele><time>2026-08-16T13:31:29.889Z</time><hdop>3.0</hdop><vdop>2.5</vdop><extensions><gom:speed>1.234</gom:speed></extensions></trkpt>
   <trkpt lat="59.3119198664" lon="34.6636998315"><ele>165.716</ele><time>2026-08-16T13:31:31.138Z</time><hdop>3.0</hdop><vdop>2.5</vdop><extensions><gom:speed>1.217</gom:speed></extensions></trkpt>
   <trkpt lat="59.3119095986" lon="34.6636969816"><ele>165.613</ele><time>2026-08-16T13:31:32.009Z</time><hdop>3.0</hdop><vdop>2.5</vdop><extensions><gom:speed>1.228</gom:speed></extensions></trkpt>
   <trkpt lat="59.3119056591" lon="34.6637077943"><ele>165.529</ele><time>2026-08-16T13:31:32.489Z</time><hdop>3.0</hdop><vdop>2.5</vdop><extensions><gom:speed>1.195</gom:speed></extensions></trkpt>
   <trkpt lat="59.3118990793" lon="34.6637166791"><ele>165.478</ele><time>2026-08-16T13:31:33.128Z</time><hdop>3.0</hdop><vdop>2.5</vdop><extensions><gom:speed>1.211</gom:speed></extensions></trkpt>
   <trkpt lat="59.3118955589" lon="34.6637268212"><ele>165.485</ele><time>2026-08-16T13:31:33.609Z</time><hdop>3.0</hdop><vdop>2.5</vdop><extensions><gom:speed>1.198</gom:speed></extensions></trkpt>
   <trkpt lat="59.3118912841" lon="34.6637360413"><ele>165.759</ele><time>2026-08-16T13:31:34.138Z</time><hdop>3.0</hdop><vdop>2.5</vdop><extensions><gom:speed>1.191</gom:speed></extensions></trkpt>
   <trkpt lat="59.3118854587" lon="34.6637443394"><ele>165.922</ele><time>2026-08-16T13:31:34.728Z</time><hdop>3.0</hdop><vdop>2.5</vdop><extensions><gom:speed>1.199</gom:speed></extensions></trkpt>
   <trkpt lat="59.3118802619" lon="34.6637499552"><ele>166.163</ele><time>2026-08-16T13:31:35.247Z</time><hdop>3.0</hdop><vdop>2.5</vdop><extensions><gom:speed>1.171</gom:speed></extensions></trkpt>
   <trkpt lat="59.3118706646" lon="34.6637507934"><ele>166.164</ele><time>2026-08-16T13:31:36.138Z</time><hdop>3.0</hdop><vdop>2.5</vdop><extensions><gom:speed>1.122</gom:speed></extensions></trkpt>
   <trkpt lat="59.3118631628" lon="34.6637411542"><ele>166.165</ele><time>2026-08-16T13:31:36.985Z</time><hdop>3.0</hdop><vdop>2.5</vdop><extensions><gom:speed>0.994</gom:speed></extensions></trkpt>
   <trkpt lat="59.3118581756" lon="34.6637315989"><ele>166.456</ele><time>2026-08-16T13:31:38.138Z</time><hdop>3.0</hdop><vdop>2.5</vdop><extensions><gom:speed>0.618</gom:speed></extensions></trkpt>
   <trkpt lat="59.3118570859" lon="34.6637291681"><ele>166.63</ele><time>2026-08-16T13:31:39.027Z</time><hdop>3.0</hdop><vdop>2.5</vdop><extensions><gom:speed>0.389</gom:speed></extensions></trkpt>
   <trkpt lat="59.3118562896" lon="34.6637339458"><ele>164.344</ele><time>2026-08-16T13:31:40.087Z</time><hdop>3.0</hdop><vdop>2.5</vdop><extensions><gom:speed>0.445</gom:speed></extensions></trkpt>
   <trkpt lat="59.3118558706" lon="34.663743585"><ele>163.097</ele><time>2026-08-16T13:31:40.588Z</time><hdop>3.0</hdop><vdop>2.5</vdop><extensions><gom:speed>0.516</gom:speed></extensions></trkpt>
   <trkpt lat="59.3118526854" lon="34.6637539785"><ele>162.232</ele><time>2026-08-16T13:31:41.138Z</time><hdop>3.0</hdop><vdop>2.5</vdop><extensions><gom:speed>0.72</gom:speed></extensions></trkpt>
   <trkpt lat="59.3118486621" lon="34.663763031"><ele>161.716</ele><time>2026-08-16T13:31:41.746Z</time><hdop>3.0</hdop><vdop>2.5</vdop><extensions><gom:speed>0.728</gom:speed></extensions></trkpt>
   <trkpt lat="59.3118422919" lon="34.663776945"><ele>161.728</ele><time>2026-08-16T13:31:42.383Z</time><hdop>3.0</hdop><vdop>2.5</vdop><extensions><gom:speed>0.936</gom:speed></extensions></trkpt>
   <trkpt lat="59.3118381847" lon="34.6637842372"><ele>161.735</ele><time>2026-08-16T13:31:42.885Z</time><hdop>3.0</hdop><vdop>2.5</vdop><extensions><gom:speed>0.949</gom:speed></extensions></trkpt>
   <trkpt lat="59.3118323593" lon="34.663803348"><ele>161.872</ele><time>2026-08-16T13:31:43.572Z</time><hdop>3.0</hdop><vdop>2.5</vdop><extensions><gom:speed>1.137</gom:speed></extensions></trkpt>
   <trkpt lat="59.3118282941" lon="34.6638138253"><ele>161.955</ele><time>2026-08-16T13:31:44.053Z</time><hdop>3.0</hdop><vdop>2.5</vdop><extensions><gom:speed>1.19</gom:speed></extensions></trkpt>
   <trkpt lat="59.3118203732" lon="34.6638391387"><ele>162.086</ele><time>2026-08-16T13:31:45.138Z</time><hdop>3.0</hdop><vdop>2.5</vdop><extensions><gom:speed>1.224</gom:speed></extensions></trkpt>
   <trkpt lat="59.311815386" lon="34.6638539747"><ele>162.164</ele><time>2026-08-16T13:31:45.829Z</time><hdop>3.0</hdop><vdop>2.5</vdop><extensions><gom:speed>1.223</gom:speed></extensions></trkpt>
   <trkpt lat="59.311811195" lon="34.6638623566"><ele>161.994</ele><time>2026-08-16T13:31:46.330Z</time><hdop>3.0</hdop><vdop>2.5</vdop><extensions><gom:speed>1.214</gom:speed></extensions></trkpt>
   <trkpt lat="59.3118062916" lon="34.6638729178"><ele>161.892</ele><time>2026-08-16T13:31:46.948Z</time><hdop>3.0</hdop><vdop>2.5</vdop><extensions><gom:speed>1.206</gom:speed></extensions></trkpt>
   <trkpt lat="59.3118018911" lon="34.663879288"><ele>161.791</ele><time>2026-08-16T13:31:47.429Z</time><hdop>3.0</hdop><vdop>2.5</vdop><extensions><gom:speed>1.2</gom:speed></extensions></trkpt>
   <trkpt lat="59.3117962752" lon="34.6638886757"><ele>161.73</ele><time>2026-08-16T13:31:48.048Z</time><hdop>3.0</hdop><vdop>2.5</vdop><extensions><gom:speed>1.23</gom:speed></extensions></trkpt>
   <trkpt lat="59.3117914975" lon="34.6638942916"><ele>161.85</ele><time>2026-08-16T13:31:48.529Z</time><hdop>3.0</hdop><vdop>2.5</vdop><extensions><gom:speed>1.237</gom:speed></extensions></trkpt>
   <trkpt lat="59.3117856721" lon="34.6639023382"><ele>161.965</ele><time>2026-08-16T13:31:49.137Z</time><hdop>3.0</hdop><vdop>2.5</vdop><extensions><gom:speed>1.23</gom:speed></extensions></trkpt>
   <trkpt lat="59.3117802658" lon="34.6639116421"><ele>162.034</ele><time>2026-08-16T13:31:49.726Z</time><hdop>3.0</hdop><vdop>2.5</vdop><extensions><gom:speed>1.234</gom:speed></extensions></trkpt>
   <trkpt lat="59.3117743985" lon="34.6639183477"><ele>161.955</ele><time>2026-08-16T13:31:50.344Z</time><hdop>3.0</hdop><vdop>2.5</vdop><extensions><gom:speed>1.187</gom:speed></extensions></trkpt>
   <trkpt lat="59.3117697884" lon="34.6639253885"><ele>161.908</ele><time>2026-08-16T13:31:50.865Z</time><hdop>3.0</hdop><vdop>2.5</vdop><extensions><gom:speed>1.174</gom:speed></extensions></trkpt>
   <trkpt lat="59.3117636696" lon="34.6639324293"><ele>162.007</ele><time>2026-08-16T13:31:51.443Z</time><hdop>3.0</hdop><vdop>2.5</vdop><extensions><gom:speed>1.204</gom:speed></extensions></trkpt>
   <trkpt lat="59.3117561678" lon="34.6639421523"><ele>162.186</ele><time>2026-08-16T13:31:52.138Z</time><hdop>3.0</hdop><vdop>2.5</vdop><extensions><gom:speed>1.244</gom:speed></extensions></trkpt>
   <trkpt lat="59.3117459838" lon="34.6639532164"><ele>162.293</ele><time>2026-08-16T13:31:53.024Z</time><hdop>3.0</hdop><vdop>2.5</vdop><extensions><gom:speed>1.279</gom:speed></extensions></trkpt>
   <trkpt lat="59.3117389849" lon="34.6639637776"><ele>162.297</ele><time>2026-08-16T13:31:53.691Z</time><hdop>3.0</hdop><vdop>2.5</vdop><extensions><gom:speed>1.285</gom:speed></extensions></trkpt>
   <trkpt lat="59.311734291" lon="34.6639723271"><ele>162.355</ele><time>2026-08-16T13:31:54.153Z</time><hdop>3.0</hdop><vdop>2.5</vdop><extensions><gom:speed>1.296</gom:speed></extensions></trkpt>
   <trkpt lat="59.311728298" lon="34.6639823854"><ele>162.39</ele><time>2026-08-16T13:31:54.771Z</time><hdop>3.0</hdop><vdop>2.5</vdop><extensions><gom:speed>1.302</gom:speed></extensions></trkpt>
   <trkpt lat="59.3117242747" lon="34.6639915217"><ele>162.325</ele><time>2026-08-16T13:31:55.252Z</time><hdop>3.0</hdop><vdop>2.5</vdop><extensions><gom:speed>1.277</gom:speed></extensions></trkpt>
   <trkpt lat="59.3117184912" lon="34.6640026696"><ele>162.286</ele><time>2026-08-16T13:31:55.890Z</time><hdop>3.0</hdop><vdop>2.5</vdop><extensions><gom:speed>1.277</gom:speed></extensions></trkpt>
   <trkpt lat="59.3117145936" lon="34.6640126441"><ele>162.321</ele><time>2026-08-16T13:31:56.391Z</time><hdop>3.0</hdop><vdop>2.5</vdop><extensions><gom:speed>1.29</gom:speed></extensions></trkpt>
   <trkpt lat="59.3117081814" lon="34.6640240435"><ele>162.342</ele><time>2026-08-16T13:31:57.049Z</time><hdop>3.0</hdop><vdop>2.5</vdop><extensions><gom:speed>1.291</gom:speed></extensions></trkpt>
   <trkpt lat="59.3117049963" lon="34.6640342694"><ele>162.46</ele><time>2026-08-16T13:31:57.549Z</time><hdop>3.0</hdop><vdop>2.5</vdop><extensions><gom:speed>1.284</gom:speed></extensions></trkpt>
   <trkpt lat="59.3116999672" lon="34.6640437409"><ele>162.53</ele><time>2026-08-16T13:31:58.109Z</time><hdop>3.0</hdop><vdop>2.5</vdop><extensions><gom:speed>1.272</gom:speed></extensions></trkpt>
   <trkpt lat="59.3116960696" lon="34.664053883"><ele>162.521</ele><time>2026-08-16T13:31:58.629Z</time><hdop>3.0</hdop><vdop>2.5</vdop><extensions><gom:speed>1.273</gom:speed></extensions></trkpt>
   <trkpt lat="59.311692172" lon="34.6640619297"><ele>162.367</ele><time>2026-08-16T13:31:59.138Z</time><hdop>3.0</hdop><vdop>2.5</vdop><extensions><gom:speed>1.27</gom:speed></extensions></trkpt>
   <trkpt lat="59.3116869752" lon="34.6640707307"><ele>162.275</ele><time>2026-08-16T13:31:59.689Z</time><hdop>3.0</hdop><vdop>2.5</vdop><extensions><gom:speed>1.274</gom:speed></extensions></trkpt>
   <trkpt lat="59.3116815689" lon="34.6640792802"><ele>162.267</ele><time>2026-08-16T13:32:00.307Z</time><hdop>3.0</hdop><vdop>2.5</vdop><extensions><gom:speed>1.269</gom:speed></extensions></trkpt>
   <trkpt lat="59.311676875" lon="34.6640864886"><ele>162.262</ele><time>2026-08-16T13:32:00.788Z</time><hdop>3.0</hdop><vdop>2.5</vdop><extensions><gom:speed>1.275</gom:speed></extensions></trkpt>
   <trkpt lat="59.3116706724" lon="34.6640933618"><ele>162.33</ele><time>2026-08-16T13:32:01.407Z</time><hdop>3.0</hdop><vdop>2.5</vdop><extensions><gom:speed>1.283</gom:speed></extensions></trkpt>
   <trkpt lat="59.311665769" lon="34.6640994806"><ele>162.372</ele><time>2026-08-16T13:32:01.868Z</time><hdop>3.0</hdop><vdop>2.5</vdop><extensions><gom:speed>1.285</gom:speed></extensions></trkpt>
   <trkpt lat="59.3116606979" lon="34.6641052641"><ele>162.445</ele><time>2026-08-16T13:32:02.447Z</time><hdop>3.0</hdop><vdop>2.5</vdop><extensions><gom:speed>1.275</gom:speed></extensions></trkpt>
   <trkpt lat="59.3116552916" lon="34.6641122211"><ele>162.488</ele><time>2026-08-16T13:32:02.966Z</time><hdop>3.0</hdop><vdop>2.5</vdop><extensions><gom:speed>1.317</gom:speed></extensions></trkpt>
   <trkpt lat="59.3116509749" lon="34.6641207706"><ele>162.498</ele><time>2026-08-16T13:32:03.566Z</time><hdop>3.0</hdop><vdop>2.5</vdop><extensions><gom:speed>1.31</gom:speed></extensions></trkpt>
   <trkpt lat="59.3116468678" lon="34.664128482"><ele>162.504</ele><time>2026-08-16T13:32:04.047Z</time><hdop>3.0</hdop><vdop>2.5</vdop><extensions><gom:speed>1.309</gom:speed></extensions></trkpt>
   <trkpt lat="59.3116426768" lon="34.6641376183"><ele>162.589</ele><time>2026-08-16T13:32:04.646Z</time><hdop>3.0</hdop><vdop>2.5</vdop><extensions><gom:speed>1.312</gom:speed></extensions></trkpt>
   <trkpt lat="59.3116381925" lon="34.6641440723"><ele>162.652</ele><time>2026-08-16T13:32:05.138Z</time><hdop>3.0</hdop><vdop>2.5</vdop><extensions><gom:speed>1.308</gom:speed></extensions></trkpt>
   <trkpt lat="59.3116336663" lon="34.6641526219"><ele>162.69</ele><time>2026-08-16T13:32:05.667Z</time><hdop>3.0</hdop><vdop>2.5</vdop><extensions><gom:speed>1.305</gom:speed></extensions></trkpt>
   <trkpt lat="59.3116295592" lon="34.6641602494"><ele>162.58</ele><time>2026-08-16T13:32:06.138Z</time><hdop>3.0</hdop><vdop>2.5</vdop><extensions><gom:speed>1.291</gom:speed></extensions></trkpt>
   <trkpt lat="59.3116235661" lon="34.6641739957"><ele>162.514</ele><time>2026-08-16T13:32:06.845Z</time><hdop>3.0</hdop><vdop>2.5</vdop><extensions><gom:speed>1.285</gom:speed></extensions></trkpt>
   <trkpt lat="59.311618998" lon="34.6641819585"><ele>162.293</ele><time>2026-08-16T13:32:07.384Z</time><hdop>3.0</hdop><vdop>2.5</vdop><extensions><gom:speed>1.255</gom:speed></extensions></trkpt>
   <trkpt lat="59.3116133821" lon="34.6641926874"><ele>162.161</ele><time>2026-08-16T13:32:07.993Z</time><hdop>3.0</hdop><vdop>2.5</vdop><extensions><gom:speed>1.278</gom:speed></extensions></trkpt>
   <trkpt lat="59.3116094845" lon="34.6641990576"><ele>162.052</ele><time>2026-08-16T13:32:08.444Z</time><hdop>3.0</hdop><vdop>2.5</vdop><extensions><gom:speed>1.282</gom:speed></extensions></trkpt>
   <trkpt lat="59.3116037848" lon="34.6642097864"><ele>162.114</ele><time>2026-08-16T13:32:09.138Z</time><hdop>3.0</hdop><vdop>2.5</vdop><extensions><gom:speed>1.285</gom:speed></extensions></trkpt>
   <trkpt lat="59.3115959896" lon="34.6642268855"><ele>161.974</ele><time>2026-08-16T13:32:10.138Z</time><hdop>3.0</hdop><vdop>2.5</vdop><extensions><gom:speed>1.29</gom:speed></extensions></trkpt>
   <trkpt lat="59.3115914634" lon="34.6642358542"><ele>161.89</ele><time>2026-08-16T13:32:10.653Z</time><hdop>3.0</hdop><vdop>2.5</vdop><extensions><gom:speed>1.287</gom:speed></extensions></trkpt>
   <trkpt lat="59.311587482" lon="34.6642442361"><ele>161.771</ele><time>2026-08-16T13:32:11.138Z</time><hdop>3.0</hdop><vdop>2.5</vdop><extensions><gom:speed>1.308</gom:speed></extensions></trkpt>
   <trkpt lat="59.3115811956" lon="34.6642562222"><ele>161.7</ele><time>2026-08-16T13:32:11.811Z</time><hdop>3.0</hdop><vdop>2.5</vdop><extensions><gom:speed>1.301</gom:speed></extensions></trkpt>
   <trkpt lat="59.3115720593" lon="34.6642737404"><ele>161.777</ele><time>2026-08-16T13:32:12.891Z</time><hdop>3.0</hdop><vdop>2.5</vdop><extensions><gom:speed>1.279</gom:speed></extensions></trkpt>
   <trkpt lat="59.3115665692" lon="34.6642823737"><ele>161.722</ele><time>2026-08-16T13:32:13.470Z</time><hdop>3.0</hdop><vdop>2.5</vdop><extensions><gom:speed>1.31</gom:speed></extensions></trkpt>
   <trkpt lat="59.3115614981" lon="34.6642893307"><ele>161.689</ele><time>2026-08-16T13:32:13.951Z</time><hdop>3.0</hdop><vdop>2.5</vdop><extensions><gom:speed>1.314</gom:speed></extensions></trkpt>
   <trkpt lat="59.3115559661" lon="34.6642991375"><ele>161.664</ele><time>2026-08-16T13:32:14.609Z</time><hdop>3.0</hdop><vdop>2.5</vdop><extensions><gom:speed>1.297</gom:speed></extensions></trkpt>
   <trkpt lat="59.3115513979" lon="34.6643059269"><ele>161.649</ele><time>2026-08-16T13:32:15.070Z</time><hdop>3.0</hdop><vdop>2.5</vdop><extensions><gom:speed>1.284</gom:speed></extensions></trkpt>
   <trkpt lat="59.3115460754" lon="34.6643178292"><ele>161.664</ele><time>2026-08-16T13:32:15.728Z</time><hdop>3.0</hdop><vdop>2.5</vdop><extensions><gom:speed>1.292</gom:speed></extensions></trkpt>
   <trkpt lat="59.3115340893" lon="34.6643421367"><ele>161.6</ele><time>2026-08-16T13:32:17.138Z</time><hdop>3.0</hdop><vdop>2.5</vdop><extensions><gom:speed>1.251</gom:speed></extensions></trkpt>
   <trkpt lat="59.3115253721" lon="34.6643594872"><ele>161.643</ele><time>2026-08-16T13:32:18.138Z</time><hdop>3.0</hdop><vdop>2.5</vdop><extensions><gom:speed>1.256</gom:speed></extensions></trkpt>
   <trkpt lat="59.3115144756" lon="34.6643723954"><ele>161.669</ele><time>2026-08-16T13:32:19.104Z</time><hdop>3.0</hdop><vdop>2.5</vdop><extensions><gom:speed>1.28</gom:speed></extensions></trkpt>
   <trkpt lat="59.3115021962" lon="34.664386477"><ele>161.46</ele><time>2026-08-16T13:32:20.138Z</time><hdop>3.0</hdop><vdop>2.5</vdop><extensions><gom:speed>1.303</gom:speed></extensions></trkpt>
   <trkpt lat="59.3114963707" lon="34.6643934339"><ele>161.334</ele><time>2026-08-16T13:32:20.645Z</time><hdop>3.0</hdop><vdop>2.5</vdop><extensions><gom:speed>1.294</gom:speed></extensions></trkpt>
   <trkpt lat="59.3114905872" lon="34.6643993851"><ele>161.251</ele><time>2026-08-16T13:32:21.138Z</time><hdop>3.0</hdop><vdop>2.5</vdop><extensions><gom:speed>1.286</gom:speed></extensions></trkpt>
   <trkpt lat="59.3114836721" lon="34.664405923"><ele>161.201</ele><time>2026-08-16T13:32:21.745Z</time><hdop>3.0</hdop><vdop>2.5</vdop><extensions><gom:speed>1.272</gom:speed></extensions></trkpt>
   <trkpt lat="59.3114709736" lon="34.6644148916"><ele>161.328</ele><time>2026-08-16T13:32:22.824Z</time><hdop>3.0</hdop><vdop>2.5</vdop><extensions><gom:speed>1.249</gom:speed></extensions></trkpt>
   <trkpt lat="59.3114571853" lon="34.6644254528"><ele>161.57</ele><time>2026-08-16T13:32:23.953Z</time><hdop>3.0</hdop><vdop>2.5</vdop><extensions><gom:speed>1.266</gom:speed></extensions></trkpt>
   <trkpt lat="59.3114492644" lon="34.6644328289"><ele>161.685</ele><time>2026-08-16T13:32:24.591Z</time><hdop>3.0</hdop><vdop>2.5</vdop><extensions><gom:speed>1.286</gom:speed></extensions></trkpt>
   <trkpt lat="59.3114434809" lon="34.6644370198"><ele>161.754</ele><time>2026-08-16T13:32:25.052Z</time><hdop>3.0</hdop><vdop>2.5</vdop><extensions><gom:speed>1.313</gom:speed></extensions></trkpt>
   <trkpt lat="59.3114302794" lon="34.6644467428"><ele>161.858</ele><time>2026-08-16T13:32:26.132Z</time><hdop>3.0</hdop><vdop>2.5</vdop><extensions><gom:speed>1.327</gom:speed></extensions></trkpt>
   <trkpt lat="59.3114221909" lon="34.6644528616"><ele>161.95</ele><time>2026-08-16T13:32:26.809Z</time><hdop>3.0</hdop><vdop>2.5</vdop><extensions><gom:speed>1.312</gom:speed></extensions></trkpt>
   <trkpt lat="59.311406391" lon="34.6644652669"><ele>162.27</ele><time>2026-08-16T13:32:28.138Z</time><hdop>3.0</hdop><vdop>2.5</vdop><extensions><gom:speed>1.327</gom:speed></extensions></trkpt>
   <trkpt lat="59.3113959974" lon="34.6644688711"><ele>162.462</ele><time>2026-08-16T13:32:28.949Z</time><hdop>3.0</hdop><vdop>2.5</vdop><extensions><gom:speed>1.336</gom:speed></extensions></trkpt>
   <trkpt lat="59.3113904654" lon="34.6644719724"><ele>162.469</ele><time>2026-08-16T13:32:29.430Z</time><hdop>3.0</hdop><vdop>2.5</vdop><extensions><gom:speed>1.312</gom:speed></extensions></trkpt>
   <trkpt lat="59.3113818739" lon="34.6644769177"><ele>162.583</ele><time>2026-08-16T13:32:30.138Z</time><hdop>3.0</hdop><vdop>2.5</vdop><extensions><gom:speed>1.3</gom:speed></extensions></trkpt>
   <trkpt lat="59.3113760904" lon="34.6644798514"><ele>162.652</ele><time>2026-08-16T13:32:30.588Z</time><hdop>3.0</hdop><vdop>2.5</vdop><extensions><gom:speed>1.304</gom:speed></extensions></trkpt>
   <trkpt lat="59.3113693849" lon="34.6644815277"><ele>162.693</ele><time>2026-08-16T13:32:31.109Z</time><hdop>3.0</hdop><vdop>2.5</vdop><extensions><gom:speed>1.309</gom:speed></extensions></trkpt>
   <trkpt lat="59.311362386" lon="34.6644849643"><ele>162.684</ele><time>2026-08-16T13:32:31.648Z</time><hdop>3.0</hdop><vdop>2.5</vdop><extensions><gom:speed>1.336</gom:speed></extensions></trkpt>
   <trkpt lat="59.3113562672" lon="34.6644877304"><ele>162.684</ele><time>2026-08-16T13:32:32.138Z</time><hdop>3.0</hdop><vdop>2.5</vdop><extensions><gom:speed>1.283</gom:speed></extensions></trkpt>
   <trkpt lat="59.3113483882" lon="34.6644910831"><ele>162.685</ele><time>2026-08-16T13:32:32.767Z</time><hdop>3.0</hdop><vdop>2.5</vdop><extensions><gom:speed>1.285</gom:speed></extensions></trkpt>
   <trkpt lat="59.3113419761" lon="34.6644973695"><ele>162.655</ele><time>2026-08-16T13:32:33.405Z</time><hdop>3.0</hdop><vdop>2.5</vdop><extensions><gom:speed>1.23</gom:speed></extensions></trkpt>
   <trkpt lat="59.3113361926" lon="34.6645004708"><ele>162.637</ele><time>2026-08-16T13:32:33.906Z</time><hdop>3.062</hdop><vdop>2.5</vdop><extensions><gom:speed>1.23</gom:speed></extensions></trkpt>
   <trkpt lat="59.3113289841" lon="34.6645050809"><ele>162.681</ele><time>2026-08-16T13:32:34.505Z</time><hdop>3.062</hdop><vdop>2.5</vdop><extensions><gom:speed>1.247</gom:speed></extensions></trkpt>
   <trkpt lat="59.3113233682" lon="34.6645066735"><ele>162.707</ele><time>2026-08-16T13:32:34.986Z</time><hdop>3.062</hdop><vdop>2.5</vdop><extensions><gom:speed>1.232</gom:speed></extensions></trkpt>
   <trkpt lat="59.3113098734" lon="34.6645077631"><ele>162.489</ele><time>2026-08-16T13:32:36.061Z</time><hdop>3.062</hdop><vdop>2.5</vdop><extensions><gom:speed>1.254</gom:speed></extensions></trkpt>
   <trkpt lat="59.3112998989" lon="34.6645148877"><ele>162.338</ele><time>2026-08-16T13:32:36.875Z</time><hdop>3.062</hdop><vdop>2.5</vdop><extensions><gom:speed>1.293</gom:speed></extensions></trkpt>
   <trkpt lat="59.3112934868" lon="34.6645182405"><ele>162.279</ele><time>2026-08-16T13:32:37.435Z</time><hdop>3.062</hdop><vdop>2.5</vdop><extensions><gom:speed>1.308</gom:speed></extensions></trkpt>
   <trkpt lat="59.3112870746" lon="34.6645211741"><ele>162.244</ele><time>2026-08-16T13:32:37.975Z</time><hdop>3.062</hdop><vdop>2.5</vdop><extensions><gom:speed>1.269</gom:speed></extensions></trkpt>
   <trkpt lat="59.3112792794" lon="34.6645190787"><ele>162.155</ele><time>2026-08-16T13:32:38.554Z</time><hdop>3.062</hdop><vdop>2.5</vdop><extensions><gom:speed>1.279</gom:speed></extensions></trkpt>
   <trkpt lat="59.3112728673" lon="34.6645219285"><ele>162.101</ele><time>2026-08-16T13:32:39.113Z</time><hdop>3.062</hdop><vdop>2.5</vdop><extensions><gom:speed>1.261</gom:speed></extensions></trkpt>
   <trkpt lat="59.3112692631" lon="34.6645191625"><ele>162.087</ele><time>2026-08-16T13:32:39.692Z</time><hdop>3.125</hdop><vdop>2.5</vdop><extensions><gom:speed>1.111</gom:speed></extensions></trkpt>
   <trkpt lat="59.3112675867" lon="34.6645154745"><ele>162.308</ele><time>2026-08-16T13:32:40.232Z</time><hdop>3.062</hdop><vdop>2.562</vdop><extensions><gom:speed>0.997</gom:speed></extensions></trkpt>
   <trkpt lat="59.3112633957" lon="34.664517067"><ele>162.44</ele><time>2026-08-16T13:32:40.752Z</time><hdop>3.125</hdop><vdop>2.562</vdop><extensions><gom:speed>0.996</gom:speed></extensions></trkpt>
   <trkpt lat="59.3112516611" lon="34.6645204198"><ele>162.465</ele><time>2026-08-16T13:32:42.057Z</time><hdop>3.125</hdop><vdop>2.812</vdop><extensions><gom:speed>1.036</gom:speed></extensions></trkpt>
   <trkpt lat="59.3112459614" lon="34.664517067"><ele>162.396</ele><time>2026-08-16T13:32:42.598Z</time><hdop>3.125</hdop><vdop>3.0</vdop><extensions><gom:speed>1.055</gom:speed></extensions></trkpt>
   <trkpt lat="59.3112403874" lon="34.6645148877"><ele>162.672</ele><time>2026-08-16T13:32:43.138Z</time><hdop>3.125</hdop><vdop>3.312</vdop><extensions><gom:speed>1.05</gom:speed></extensions></trkpt>
   <trkpt lat="59.3112346877" lon="34.6645138819"><ele>162.837</ele><time>2026-08-16T13:32:43.717Z</time><hdop>3.125</hdop><vdop>3.312</vdop><extensions><gom:speed>1.041</gom:speed></extensions></trkpt>
   <trkpt lat="59.3112238751" lon="34.6645126246"><ele>163.408</ele><time>2026-08-16T13:32:44.836Z</time><hdop>3.062</hdop><vdop>3.125</vdop><extensions><gom:speed>1.056</gom:speed></extensions></trkpt>
   <trkpt lat="59.3112134815" lon="34.6645146363"><ele>163.846</ele><time>2026-08-16T13:32:45.915Z</time><hdop>3.062</hdop><vdop>3.312</vdop><extensions><gom:speed>1.074</gom:speed></extensions></trkpt>
   <trkpt lat="59.3112073627" lon="34.6645180728"><ele>164.194</ele><time>2026-08-16T13:32:46.529Z</time><hdop>3.062</hdop><vdop>3.562</vdop><extensions><gom:speed>1.103</gom:speed></extensions></trkpt>
   <trkpt lat="59.311201663" lon="34.664519833"><ele>164.402</ele><time>2026-08-16T13:32:47.069Z</time><hdop>3.062</hdop><vdop>3.562</vdop><extensions><gom:speed>1.103</gom:speed></extensions></trkpt>
   <trkpt lat="59.311191479" lon="34.6645242754"><ele>165.043</ele><time>2026-08-16T13:32:48.138Z</time><hdop>3.062</hdop><vdop>3.375</vdop><extensions><gom:speed>1.01</gom:speed></extensions></trkpt>
   <trkpt lat="59.311186366" lon="34.6645270415"><ele>165.427</ele><time>2026-08-16T13:32:48.689Z</time><hdop>3.062</hdop><vdop>3.375</vdop><extensions><gom:speed>1.014</gom:speed></extensions></trkpt>
   <trkpt lat="59.3111815884" lon="34.664529556"><ele>165.455</ele><time>2026-08-16T13:32:49.228Z</time><hdop>3.0</hdop><vdop>3.437</vdop><extensions><gom:speed>1.025</gom:speed></extensions></trkpt>
   <trkpt lat="59.3111758887" lon="34.6645301428"><ele>165.472</ele><time>2026-08-16T13:32:49.809Z</time><hdop>3.0</hdop><vdop>3.437</vdop><extensions><gom:speed>1.029</gom:speed></extensions></trkpt>
   <trkpt lat="59.3111652856" lon="34.6645332441"><ele>165.287</ele><time>2026-08-16T13:32:50.921Z</time><hdop>3.0</hdop><vdop>3.562</vdop><extensions><gom:speed>1.043</gom:speed></extensions></trkpt>
   <trkpt lat="59.3111584962" lon="34.6645385247"><ele>165.257</ele><time>2026-08-16T13:32:51.461Z</time><hdop>3.0</hdop><vdop>3.562</vdop><extensions><gom:speed>1.126</gom:speed></extensions></trkpt>
   <trkpt lat="59.3111519583" lon="34.6645412907"><ele>165.24</ele><time>2026-08-16T13:32:52.001Z</time><hdop>3.062</hdop><vdop>3.562</vdop><extensions><gom:speed>1.16</gom:speed></extensions></trkpt>
   <trkpt lat="59.3111448756" lon="34.6645452302"><ele>165.249</ele><time>2026-08-16T13:32:52.561Z</time><hdop>3.0</hdop><vdop>3.562</vdop><extensions><gom:speed>1.171</gom:speed></extensions></trkpt>
   <trkpt lat="59.3111378767" lon="34.6645481639"><ele>165.254</ele><time>2026-08-16T13:32:53.130Z</time><hdop>3.062</hdop><vdop>3.562</vdop><extensions><gom:speed>1.196</gom:speed></extensions></trkpt>
   <trkpt lat="59.3111299977" lon="34.6645499241"><ele>166.025</ele><time>2026-08-16T13:32:53.650Z</time><hdop>3.062</hdop><vdop>3.312</vdop><extensions><gom:speed>1.277</gom:speed></extensions></trkpt>
   <trkpt lat="59.3111231665" lon="34.6645487506"><ele>166.702</ele><time>2026-08-16T13:32:54.138Z</time><hdop>3.062</hdop><vdop>3.062</vdop><extensions><gom:speed>1.249</gom:speed></extensions></trkpt>
   <trkpt lat="59.3111143655" lon="34.6645492535"><ele>167.106</ele><time>2026-08-16T13:32:54.808Z</time><hdop>3.062</hdop><vdop>3.062</vdop><extensions><gom:speed>1.254</gom:speed></extensions></trkpt>
   <trkpt lat="59.3111056902" lon="34.6645451464"><ele>167.347</ele><time>2026-08-16T13:32:55.368Z</time><hdop>3.062</hdop><vdop>3.0</vdop><extensions><gom:speed>1.269</gom:speed></extensions></trkpt>
   <trkpt lat="59.3110984818" lon="34.6645470742"><ele>167.492</ele><time>2026-08-16T13:32:55.926Z</time><hdop>3.062</hdop><vdop>3.0</vdop><extensions><gom:speed>1.278</gom:speed></extensions></trkpt>
   <trkpt lat="59.3110905609" lon="34.6645439729"><ele>167.36</ele><time>2026-08-16T13:32:56.467Z</time><hdop>3.062</hdop><vdop>3.187</vdop><extensions><gom:speed>1.26</gom:speed></extensions></trkpt>
   <trkpt lat="59.3110831848" lon="34.6645470742"><ele>167.281</ele><time>2026-08-16T13:32:57.066Z</time><hdop>3.125</hdop><vdop>3.187</vdop><extensions><gom:speed>1.25</gom:speed></extensions></trkpt>
   <trkpt lat="59.3110753896" lon="34.66454347"><ele>167.195</ele><time>2026-08-16T13:32:57.645Z</time><hdop>3.125</hdop><vdop>3.25</vdop><extensions><gom:speed>1.251</gom:speed></extensions></trkpt>
   <trkpt lat="59.3110692709" lon="34.6645400334"><ele>167.123</ele><time>2026-08-16T13:32:58.138Z</time><hdop>3.062</hdop><vdop>3.437</vdop><extensions><gom:speed>1.215</gom:speed></extensions></trkpt>
   <trkpt lat="59.3110616852" lon="34.6645394467"><ele>167.081</ele><time>2026-08-16T13:32:58.764Z</time><hdop>3.062</hdop><vdop>3.437</vdop><extensions><gom:speed>1.202</gom:speed></extensions></trkpt>
   <trkpt lat="59.3110556922" lon="34.6645394467"><ele>166.977</ele><time>2026-08-16T13:32:59.325Z</time><hdop>3.062</hdop><vdop>3.312</vdop><extensions><gom:speed>1.147</gom:speed></extensions></trkpt>
   <trkpt lat="59.3110477713" lon="34.6645445597"><ele>166.762</ele><time>2026-08-16T13:33:00.138Z</time><hdop>3.062</hdop><vdop>3.25</vdop><extensions><gom:speed>1.123</gom:speed></extensions></trkpt>
   <trkpt lat="59.3110379644" lon="34.6645517681"><ele>166.633</ele><time>2026-08-16T13:33:01.076Z</time><hdop>3.062</hdop><vdop>3.25</vdop><extensions><gom:speed>1.11</gom:speed></extensions></trkpt>
   <trkpt lat="59.311033983" lon="34.6645584736"><ele>166.498</ele><time>2026-08-16T13:33:01.596Z</time><hdop>3.0</hdop><vdop>3.125</vdop><extensions><gom:speed>1.084</gom:speed></extensions></trkpt>
   <trkpt lat="59.3110292892" lon="34.6645663526"><ele>166.3</ele><time>2026-08-16T13:33:02.138Z</time><hdop>3.0</hdop><vdop>3.25</vdop><extensions><gom:speed>1.16</gom:speed></extensions></trkpt>
   <trkpt lat="59.3110229608" lon="34.6645733934"><ele>166.181</ele><time>2026-08-16T13:33:02.735Z</time><hdop>3.0</hdop><vdop>3.25</vdop><extensions><gom:speed>1.162</gom:speed></extensions></trkpt>
   <trkpt lat="59.3110181832" lon="34.6645846252"><ele>165.768</ele><time>2026-08-16T13:33:03.275Z</time><hdop>3.0</hdop><vdop>3.25</vdop><extensions><gom:speed>1.188</gom:speed></extensions></trkpt>
   <trkpt lat="59.3110127768" lon="34.6645923365"><ele>165.522</ele><time>2026-08-16T13:33:03.834Z</time><hdop>3.0</hdop><vdop>3.25</vdop><extensions><gom:speed>1.187</gom:speed></extensions></trkpt>
   <trkpt lat="59.3110037663" lon="34.6646082621"><ele>165.732</ele><time>2026-08-16T13:33:04.393Z</time><hdop>3.0</hdop><vdop>3.187</vdop><extensions><gom:speed>1.386</gom:speed></extensions></trkpt>
   <trkpt lat="59.3109978989" lon="34.6646196615"><ele>165.858</ele><time>2026-08-16T13:33:04.973Z</time><hdop>3.0</hdop><vdop>3.187</vdop><extensions><gom:speed>1.281</gom:speed></extensions></trkpt>
   <trkpt lat="59.3109902714" lon="34.6646344975"><ele>165.552</ele><time>2026-08-16T13:33:05.552Z</time><hdop>3.0</hdop><vdop>3.25</vdop><extensions><gom:speed>1.344</gom:speed></extensions></trkpt>
   <trkpt lat="59.3109848651" lon="34.6646446396"><ele>165.369</ele><time>2026-08-16T13:33:06.111Z</time><hdop>3.0</hdop><vdop>3.25</vdop><extensions><gom:speed>1.274</gom:speed></extensions></trkpt>
   <trkpt lat="59.3109785787" lon="34.664656961"><ele>165.188</ele><time>2026-08-16T13:33:06.671Z</time><hdop>3.0</hdop><vdop>3.437</vdop><extensions><gom:speed>1.283</gom:speed></extensions></trkpt>
   <trkpt lat="59.3109738848" lon="34.6646670193"><ele>164.469</ele><time>2026-08-16T13:33:07.138Z</time><hdop>3.0</hdop><vdop>2.937</vdop><extensions><gom:speed>1.217</gom:speed></extensions></trkpt>
   <trkpt lat="59.310967766" lon="34.6646777481"><ele>164.04</ele><time>2026-08-16T13:33:07.750Z</time><hdop>3.0</hdop><vdop>2.937</vdop><extensions><gom:speed>1.2</gom:speed></extensions></trkpt>
   <trkpt lat="59.3109623597" lon="34.664689818"><ele>163.597</ele><time>2026-08-16T13:33:08.369Z</time><hdop>3.0</hdop><vdop>3.062</vdop><extensions><gom:speed>1.156</gom:speed></extensions></trkpt>
   <trkpt lat="59.3109560732" lon="34.6647040673"><ele>163.386</ele><time>2026-08-16T13:33:09.138Z</time><hdop>3.0</hdop><vdop>3.25</vdop><extensions><gom:speed>1.142</gom:speed></extensions></trkpt>
   <trkpt lat="59.3109493677" lon="34.6647195738"><ele>163.26</ele><time>2026-08-16T13:33:10.037Z</time><hdop>3.0</hdop><vdop>3.25</vdop><extensions><gom:speed>1.116</gom:speed></extensions></trkpt>
   <trkpt lat="59.3109437938" lon="34.664730135"><ele>162.94</ele><time>2026-08-16T13:33:10.636Z</time><hdop>3.0</hdop><vdop>3.562</vdop><extensions><gom:speed>1.154</gom:speed></extensions></trkpt>
   <trkpt lat="59.3109404829" lon="34.6647384331"><ele>162.749</ele><time>2026-08-16T13:33:11.117Z</time><hdop>3.0</hdop><vdop>3.562</vdop><extensions><gom:speed>1.146</gom:speed></extensions></trkpt>
   <trkpt lat="59.3109328973" lon="34.6647466473"><ele>163.023</ele><time>2026-08-16T13:33:11.755Z</time><hdop>3.0</hdop><vdop>3.5</vdop><extensions><gom:speed>1.171</gom:speed></extensions></trkpt>
   <trkpt lat="59.3109248926" lon="34.6647505868"><ele>163.884</ele><time>2026-08-16T13:33:12.256Z</time><hdop>3.0</hdop><vdop>3.687</vdop><extensions><gom:speed>1.177</gom:speed></extensions></trkpt>
   <trkpt lat="59.3109175584" lon="34.6647597231"><ele>164.398</ele><time>2026-08-16T13:33:12.992Z</time><hdop>3.0</hdop><vdop>3.687</vdop><extensions><gom:speed>1.131</gom:speed></extensions></trkpt>
   <trkpt lat="59.3109087993" lon="34.6647640817"><ele>164.637</ele><time>2026-08-16T13:33:13.532Z</time><hdop>3.0</hdop><vdop>3.812</vdop><extensions><gom:speed>1.184</gom:speed></extensions></trkpt>
   <trkpt lat="59.3109025967" lon="34.664770871"><ele>164.78</ele><time>2026-08-16T13:33:14.111Z</time><hdop>3.0</hdop><vdop>3.812</vdop><extensions><gom:speed>1.154</gom:speed></extensions></trkpt>
   <trkpt lat="59.3108882637" lon="34.664781097"><ele>164.541</ele><time>2026-08-16T13:33:15.138Z</time><hdop>3.0</hdop><vdop>4.25</vdop><extensions><gom:speed>1.2</gom:speed></extensions></trkpt>
   <trkpt lat="59.3108822706" lon="34.664787551"><ele>164.397</ele><time>2026-08-16T13:33:15.632Z</time><hdop>3.0</hdop><vdop>4.25</vdop><extensions><gom:speed>1.202</gom:speed></extensions></trkpt>
   <trkpt lat="59.3108763613" lon="34.6647929993"><ele>164.695</ele><time>2026-08-16T13:33:16.138Z</time><hdop>3.0</hdop><vdop>3.625</vdop><extensions><gom:speed>1.173</gom:speed></extensions></trkpt>
   <trkpt lat="59.3108692786" lon="34.6648027223"><ele>164.873</ele><time>2026-08-16T13:33:16.869Z</time><hdop>3.0</hdop><vdop>3.625</vdop><extensions><gom:speed>1.168</gom:speed></extensions></trkpt>
   <trkpt lat="59.3108621959" lon="34.6648098469"><ele>165.294</ele><time>2026-08-16T13:33:17.478Z</time><hdop>3.0</hdop><vdop>3.5</vdop><extensions><gom:speed>1.152</gom:speed></extensions></trkpt>
   <trkpt lat="59.3108566639" lon="34.6648163848"><ele>165.545</ele><time>2026-08-16T13:33:18.037Z</time><hdop>3.062</hdop><vdop>3.5</vdop><extensions><gom:speed>1.128</gom:speed></extensions></trkpt>
   <trkpt lat="59.310848282" lon="34.6648209948"><ele>165.724</ele><time>2026-08-16T13:33:18.636Z</time><hdop>3.062</hdop><vdop>3.625</vdop><extensions><gom:speed>1.181</gom:speed></extensions></trkpt>
   <trkpt lat="59.310843169" lon="34.6648250181"><ele>165.831</ele><time>2026-08-16T13:33:19.096Z</time><hdop>3.062</hdop><vdop>3.625</vdop><extensions><gom:speed>1.16</gom:speed></extensions></trkpt>
   <trkpt lat="59.3108301771" lon="34.6648302987"><ele>166.375</ele><time>2026-08-16T13:33:20.138Z</time><hdop>3.062</hdop><vdop>3.812</vdop><extensions><gom:speed>1.128</gom:speed></extensions></trkpt>
   <trkpt lat="59.3108192806" lon="34.664840357"><ele>165.946</ele><time>2026-08-16T13:33:21.138Z</time><hdop>3.062</hdop><vdop>2.937</vdop><extensions><gom:speed>1.177</gom:speed></extensions></trkpt>
   <trkpt lat="59.310810773" lon="34.664857959"><ele>165.819</ele><time>2026-08-16T13:33:22.138Z</time><hdop>3.062</hdop><vdop>2.937</vdop><extensions><gom:speed>1.219</gom:speed></extensions></trkpt>
   <trkpt lat="59.3108100605" lon="34.6648805902"><ele>165.744</ele><time>2026-08-16T13:33:22.954Z</time><hdop>3.062</hdop><vdop>2.937</vdop><extensions><gom:speed>1.206</gom:speed></extensions></trkpt>
   <trkpt lat="59.3108112759" lon="34.6648955938"><ele>165.381</ele><time>2026-08-16T13:33:23.455Z</time><hdop>3.0</hdop><vdop>2.812</vdop><extensions><gom:speed>1.224</gom:speed></extensions></trkpt>
   <trkpt lat="59.3108101862" lon="34.6649088372"><ele>165.165</ele><time>2026-08-16T13:33:24.093Z</time><hdop>3.0</hdop><vdop>2.812</vdop><extensions><gom:speed>1.159</gom:speed></extensions></trkpt>
   <trkpt lat="59.310799164" lon="34.6649271935"><ele>164.711</ele><time>2026-08-16T13:33:25.138Z</time><hdop>3.0</hdop><vdop>2.625</vdop><extensions><gom:speed>1.256</gom:speed></extensions></trkpt>
   <trkpt lat="59.310794093" lon="34.6649319712"><ele>164.44</ele><time>2026-08-16T13:33:25.595Z</time><hdop>3.062</hdop><vdop>2.625</vdop><extensions><gom:speed>1.256</gom:speed></extensions></trkpt>
   <trkpt lat="59.3107884771" lon="34.6649386767"><ele>164.342</ele><time>2026-08-16T13:33:26.138Z</time><hdop>3.062</hdop><vdop>2.562</vdop><extensions><gom:speed>1.206</gom:speed></extensions></trkpt>
   <trkpt lat="59.310782484" lon="34.6649471425"><ele>164.283</ele><time>2026-08-16T13:33:26.831Z</time><hdop>3.25</hdop><vdop>2.562</vdop><extensions><gom:speed>1.199</gom:speed></extensions></trkpt>
   <trkpt lat="59.3107746889" lon="34.6649661694"><ele>164.534</ele><time>2026-08-16T13:33:27.793Z</time><hdop>3.375</hdop><vdop>2.5</vdop><extensions><gom:speed>1.216</gom:speed></extensions></trkpt>
   <trkpt lat="59.3107650916" lon="34.6649921533"><ele>164.997</ele><time>2026-08-16T13:33:28.971Z</time><hdop>3.562</hdop><vdop>2.5</vdop><extensions><gom:speed>1.194</gom:speed></extensions></trkpt>
   <trkpt lat="59.3107615712" lon="34.6650114317"><ele>165.162</ele><time>2026-08-16T13:33:29.609Z</time><hdop>3.687</hdop><vdop>2.5</vdop><extensions><gom:speed>1.23</gom:speed></extensions></trkpt>
   <trkpt lat="59.3107570869" lon="34.6650212385"><ele>165.261</ele><time>2026-08-16T13:33:30.129Z</time><hdop>3.75</hdop><vdop>2.5</vdop><extensions><gom:speed>1.289</gom:speed></extensions></trkpt>
   <trkpt lat="59.3107484954" lon="34.6650408521"><ele>165.349</ele><time>2026-08-16T13:33:31.111Z</time><hdop>3.75</hdop><vdop>2.5</vdop><extensions><gom:speed>1.295</gom:speed></extensions></trkpt>
   <trkpt lat="59.3107425862" lon="34.6650538441"><ele>165.535</ele><time>2026-08-16T13:33:31.769Z</time><hdop>3.625</hdop><vdop>2.562</vdop><extensions><gom:speed>1.288</gom:speed></extensions></trkpt>
   <trkpt lat="59.3107304743" lon="34.6650707755"><ele>165.668</ele><time>2026-08-16T13:33:32.878Z</time><hdop>3.375</hdop><vdop>2.562</vdop><extensions><gom:speed>1.307</gom:speed></extensions></trkpt>
   <trkpt lat="59.3107124951" lon="34.665079828"><ele>165.936</ele><time>2026-08-16T13:33:34.138Z</time><hdop>3.187</hdop><vdop>2.5</vdop><extensions><gom:speed>1.349</gom:speed></extensions></trkpt>
   <trkpt lat="59.3106996708" lon="34.6650872879"><ele>166.097</ele><time>2026-08-16T13:33:35.076Z</time><hdop>3.125</hdop><vdop>2.5</vdop><extensions><gom:speed>1.321</gom:speed></extensions></trkpt>
   <trkpt lat="59.3106922948" lon="34.6650881261"><ele>166.276</ele><time>2026-08-16T13:33:35.597Z</time><hdop>3.0</hdop><vdop>2.5</vdop><extensions><gom:speed>1.31</gom:speed></extensions></trkpt>
   <trkpt lat="59.310684793" lon="34.6650880423"><ele>166.362</ele><time>2026-08-16T13:33:36.138Z</time><hdop>3.0</hdop><vdop>2.5</vdop><extensions><gom:speed>1.305</gom:speed></extensions></trkpt>
   <trkpt lat="59.310670879" lon="34.6650879584"><ele>166.318</ele><time>2026-08-16T13:33:37.138Z</time><hdop>3.0</hdop><vdop>2.5</vdop><extensions><gom:speed>1.292</gom:speed></extensions></trkpt>
   <trkpt lat="59.3106623714" lon="34.6650893834"><ele>166.293</ele><time>2026-08-16T13:33:37.756Z</time><hdop>3.0</hdop><vdop>2.5</vdop><extensions><gom:speed>1.285</gom:speed></extensions></trkpt>
   <trkpt lat="59.310648164" lon="34.6650889643"><ele>166.333</ele><time>2026-08-16T13:33:38.836Z</time><hdop>3.0</hdop><vdop>2.5</vdop><extensions><gom:speed>1.283</gom:speed></extensions></trkpt>
   <trkpt lat="59.3106386925" lon="34.66508536"><ele>166.389</ele><time>2026-08-16T13:33:39.533Z</time><hdop>3.0</hdop><vdop>2.5</vdop><extensions><gom:speed>1.243</gom:speed></extensions></trkpt>
   <trkpt lat="59.3106325737" lon="34.665085863"><ele>166.423</ele><time>2026-08-16T13:33:40.014Z</time><hdop>3.0</hdop><vdop>2.5</vdop><extensions><gom:speed>1.236</gom:speed></extensions></trkpt>
   <trkpt lat="59.3106182826" lon="34.6650875393"><ele>166.217</ele><time>2026-08-16T13:33:41.133Z</time><hdop>3.0</hdop><vdop>2.5</vdop><extensions><gom:speed>1.259</gom:speed></extensions></trkpt>
   <trkpt lat="59.3106106969" lon="34.6650888804"><ele>165.954</ele><time>2026-08-16T13:33:41.731Z</time><hdop>3.0</hdop><vdop>2.5</vdop><extensions><gom:speed>1.25</gom:speed></extensions></trkpt>
   <trkpt lat="59.3106043686" lon="34.6650890481"><ele>165.783</ele><time>2026-08-16T13:33:42.232Z</time><hdop>3.0</hdop><vdop>2.5</vdop><extensions><gom:speed>1.271</gom:speed></extensions></trkpt>
   <trkpt lat="59.3105968668" lon="34.6650916465"><ele>165.681</ele><time>2026-08-16T13:33:42.850Z</time><hdop>3.0</hdop><vdop>2.5</vdop><extensions><gom:speed>1.276</gom:speed></extensions></trkpt>
   <trkpt lat="59.3105907899" lon="34.6650931552"><ele>165.643</ele><time>2026-08-16T13:33:43.331Z</time><hdop>3.0</hdop><vdop>2.5</vdop><extensions><gom:speed>1.287</gom:speed></extensions></trkpt>
   <trkpt lat="59.3105825756" lon="34.6650949992"><ele>165.62</ele><time>2026-08-16T13:33:43.989Z</time><hdop>3.0</hdop><vdop>2.5</vdop><extensions><gom:speed>1.275</gom:speed></extensions></trkpt>
   <trkpt lat="59.3105765826" lon="34.6650948316"><ele>165.7</ele><time>2026-08-16T13:33:44.470Z</time><hdop>3.0</hdop><vdop>2.5</vdop><extensions><gom:speed>1.272</gom:speed></extensions></trkpt>
   <trkpt lat="59.310568494" lon="34.6650961727"><ele>165.747</ele><time>2026-08-16T13:33:45.088Z</time><hdop>3.0</hdop><vdop>2.5</vdop><extensions><gom:speed>1.274</gom:speed></extensions></trkpt>
   <trkpt lat="59.3105622914" lon="34.6650965918"><ele>165.746</ele><time>2026-08-16T13:33:45.550Z</time><hdop>3.0</hdop><vdop>2.5</vdop><extensions><gom:speed>1.294</gom:speed></extensions></trkpt>
   <trkpt lat="59.3105544963" lon="34.6650966756"><ele>165.751</ele><time>2026-08-16T13:33:46.138Z</time><hdop>3.0</hdop><vdop>2.5</vdop><extensions><gom:speed>1.27</gom:speed></extensions></trkpt>
   <trkpt lat="59.3105467849" lon="34.6650975976"><ele>165.753</ele><time>2026-08-16T13:33:46.737Z</time><hdop>3.0</hdop><vdop>2.5</vdop><extensions><gom:speed>1.269</gom:speed></extensions></trkpt>
   <trkpt lat="59.3105389897" lon="34.6650972623"><ele>165.792</ele><time>2026-08-16T13:33:47.336Z</time><hdop>3.0</hdop><vdop>2.5</vdop><extensions><gom:speed>1.261</gom:speed></extensions></trkpt>
   <trkpt lat="59.3105327871" lon="34.6650969271"><ele>165.815</ele><time>2026-08-16T13:33:47.817Z</time><hdop>3.0</hdop><vdop>2.5</vdop><extensions><gom:speed>1.265</gom:speed></extensions></trkpt>
   <trkpt lat="59.3105232737" lon="34.6650957536"><ele>165.952</ele><time>2026-08-16T13:33:48.455Z</time><hdop>3.0</hdop><vdop>2.5</vdop><extensions><gom:speed>1.322</gom:speed></extensions></trkpt>
   <trkpt lat="59.3105168615" lon="34.6650950831"><ele>166.035</ele><time>2026-08-16T13:33:48.916Z</time><hdop>3.0</hdop><vdop>2.5</vdop><extensions><gom:speed>1.317</gom:speed></extensions></trkpt>
   <trkpt lat="59.3105076833" lon="34.6650958374"><ele>165.732</ele><time>2026-08-16T13:33:49.554Z</time><hdop>3.0</hdop><vdop>2.5</vdop><extensions><gom:speed>1.351</gom:speed></extensions></trkpt>
   <trkpt lat="59.3105010616" lon="34.6650968433"><ele>165.552</ele><time>2026-08-16T13:33:50.075Z</time><hdop>3.0</hdop><vdop>2.5</vdop><extensions><gom:speed>1.333</gom:speed></extensions></trkpt>
   <trkpt lat="59.3104868962" lon="34.6650991902"><ele>165.388</ele><time>2026-08-16T13:33:51.138Z</time><hdop>3.0</hdop><vdop>2.5</vdop><extensions><gom:speed>1.362</gom:speed></extensions></trkpt>
   <trkpt lat="59.3104777599" lon="34.6650973462"><ele>165.29</ele><time>2026-08-16T13:33:51.792Z</time><hdop>3.0</hdop><vdop>2.5</vdop><extensions><gom:speed>1.357</gom:speed></extensions></trkpt>
   <trkpt lat="59.3104717669" lon="34.6650980167"><ele>165.374</ele><time>2026-08-16T13:33:52.254Z</time><hdop>3.0</hdop><vdop>2.5</vdop><extensions><gom:speed>1.34</gom:speed></extensions></trkpt>
   <trkpt lat="59.3104613733" lon="34.6650972623"><ele>165.315</ele><time>2026-08-16T13:33:53.138Z</time><hdop>3.0</hdop><vdop>2.5</vdop><extensions><gom:speed>1.278</gom:speed></extensions></trkpt>
   <trkpt lat="59.3104528657" lon="34.6650935743"><ele>165.28</ele><time>2026-08-16T13:33:53.834Z</time><hdop>3.0</hdop><vdop>2.5</vdop><extensions><gom:speed>1.27</gom:speed></extensions></trkpt>
   <trkpt lat="59.3104459925" lon="34.6650922332"><ele>165.475</ele><time>2026-08-16T13:33:54.452Z</time><hdop>3.0</hdop><vdop>2.5</vdop><extensions><gom:speed>1.281</gom:speed></extensions></trkpt>
   <trkpt lat="59.3104382812" lon="34.6650869526"><ele>165.855</ele><time>2026-08-16T13:33:55.138Z</time><hdop>3.0</hdop><vdop>2.5</vdop><extensions><gom:speed>1.26</gom:speed></extensions></trkpt>
   <trkpt lat="59.3104297735" lon="34.6650786545"><ele>166.083</ele><time>2026-08-16T13:33:55.895Z</time><hdop>3.0</hdop><vdop>2.5</vdop><extensions><gom:speed>1.265</gom:speed></extensions></trkpt>
   <trkpt lat="59.3104217688" lon="34.6650760561"><ele>166.139</ele><time>2026-08-16T13:33:56.631Z</time><hdop>3.0</hdop><vdop>2.5</vdop><extensions><gom:speed>1.218</gom:speed></extensions></trkpt>
   <trkpt lat="59.3104158596" lon="34.6650730386"><ele>166.142</ele><time>2026-08-16T13:33:57.138Z</time><hdop>3.0</hdop><vdop>2.5</vdop><extensions><gom:speed>1.185</gom:speed></extensions></trkpt>
   <trkpt lat="59.3104066814" lon="34.6650578674"><ele>166.42</ele><time>2026-08-16T13:33:58.138Z</time><hdop>3.0</hdop><vdop>2.625</vdop><extensions><gom:speed>1.319</gom:speed></extensions></trkpt>
   <trkpt lat="59.3104056756" lon="34.6650484797"><ele>166.584</ele><time>2026-08-16T13:33:59.138Z</time><hdop>3.0</hdop><vdop>2.562</vdop><extensions><gom:speed>0.786</gom:speed></extensions></trkpt>
   <trkpt lat="59.3104076872" lon="34.6650587894"><ele>166.683</ele><time>2026-08-16T13:34:00.138Z</time><hdop>3.0</hdop><vdop>2.562</vdop><extensions><gom:speed>0.359</gom:speed></extensions></trkpt>
   <trkpt lat="59.3104074777" lon="34.6650621422"><ele>166.743</ele><time>2026-08-16T13:34:00.715Z</time><hdop>3.0</hdop><vdop>2.562</vdop><extensions><gom:speed>0.367</gom:speed></extensions></trkpt>
   <trkpt lat="59.3104052984" lon="34.6650693506"><ele>166.876</ele><time>2026-08-16T13:34:01.332Z</time><hdop>3.0</hdop><vdop>2.75</vdop><extensions><gom:speed>0.394</gom:speed></extensions></trkpt>
   <trkpt lat="59.3104019875" lon="34.6650709432"><ele>166.955</ele><time>2026-08-16T13:34:02.137Z</time><hdop>3.0</hdop><vdop>2.75</vdop><extensions><gom:speed>0.439</gom:speed></extensions></trkpt>
   <trkpt lat="59.3103962878" lon="34.6650735416"><ele>166.619</ele><time>2026-08-16T13:34:02.629Z</time><hdop>3.0</hdop><vdop>2.562</vdop><extensions><gom:speed>0.658</gom:speed></extensions></trkpt>
   <trkpt lat="59.3103899595" lon="34.6650763914"><ele>166.51</ele><time>2026-08-16T13:34:03.138Z</time><hdop>3.0</hdop><vdop>2.625</vdop><extensions><gom:speed>0.839</gom:speed></extensions></trkpt>
   <trkpt lat="59.3103820805" lon="34.6650792413"><ele>166.445</ele><time>2026-08-16T13:34:03.875Z</time><hdop>3.0</hdop><vdop>2.625</vdop><extensions><gom:speed>0.845</gom:speed></extensions></trkpt>
   <trkpt lat="59.31037307" lon="34.6650809176"><ele>166.511</ele><time>2026-08-16T13:34:04.592Z</time><hdop>3.0</hdop><vdop>2.5</vdop><extensions><gom:speed>0.951</gom:speed></extensions></trkpt>
   <trkpt lat="59.3103670769" lon="34.6650809176"><ele>166.55</ele><time>2026-08-16T13:34:05.112Z</time><hdop>3.0</hdop><vdop>2.5</vdop><extensions><gom:speed>1.054</gom:speed></extensions></trkpt>
   <trkpt lat="59.3103595751" lon="34.6650797442"><ele>166.797</ele><time>2026-08-16T13:34:05.730Z</time><hdop>3.0</hdop><vdop>2.5</vdop><extensions><gom:speed>1.056</gom:speed></extensions></trkpt>
   <trkpt lat="59.3103480919" lon="34.6650729548"><ele>167.022</ele><time>2026-08-16T13:34:07.138Z</time><hdop>3.0</hdop><vdop>2.5</vdop><extensions><gom:speed>0.892</gom:speed></extensions></trkpt>
   <trkpt lat="59.3103459964" lon="34.665068261"><ele>166.999</ele><time>2026-08-16T13:34:08.138Z</time><hdop>3.0</hdop><vdop>2.5</vdop><extensions><gom:speed>0.519</gom:speed></extensions></trkpt>
   <trkpt lat="59.3103471699" lon="34.6650643215"><ele>166.958</ele><time>2026-08-16T13:34:09.138Z</time><hdop>3.0</hdop><vdop>2.5</vdop><extensions><gom:speed>0.177</gom:speed></extensions></trkpt>
   <trkpt lat="59.3103504807" lon="34.6650621422"><ele>166.936</ele><time>2026-08-16T13:34:10.138Z</time><hdop>3.0</hdop><vdop>2.5</vdop><extensions><gom:speed>0.078</gom:speed></extensions></trkpt>
   <trkpt lat="59.3103522829" lon="34.6650612202"><ele>166.916</ele><time>2026-08-16T13:34:11.138Z</time><hdop>3.0</hdop><vdop>2.5</vdop><extensions><gom:speed>0.062</gom:speed></extensions></trkpt>
   <trkpt lat="59.3103532887" lon="34.6650598791"><ele>166.896</ele><time>2026-08-16T13:34:12.138Z</time><hdop>3.0</hdop><vdop>2.5</vdop><extensions><gom:speed>0.021</gom:speed></extensions></trkpt>
   <trkpt lat="59.3103538754" lon="34.6650586218"><ele>166.889</ele><time>2026-08-16T13:34:13.138Z</time><hdop>3.0</hdop><vdop>2.5</vdop><extensions><gom:speed>0.013</gom:speed></extensions></trkpt>
   <trkpt lat="59.3103545879" lon="34.6650572807"><ele>166.881</ele><time>2026-08-16T13:34:14.138Z</time><hdop>3.0</hdop><vdop>2.5</vdop><extensions><gom:speed>0.065</gom:speed></extensions></trkpt>
   <trkpt lat="59.3103543783" lon="34.6650558557"><ele>166.876</ele><time>2026-08-16T13:34:14.790Z</time><hdop>3.0</hdop><vdop>2.5</vdop><extensions><gom:speed>0.106</gom:speed></extensions></trkpt>
   <trkpt lat="59.3103534982" lon="34.6650544308"><ele>166.778</ele><time>2026-08-16T13:34:16.138Z</time><hdop>3.0</hdop><vdop>2.5</vdop><extensions><gom:speed>0.035</gom:speed></extensions></trkpt>
   <trkpt lat="59.3103537916" lon="34.6650540955"><ele>166.718</ele><time>2026-08-16T13:34:17.138Z</time><hdop>3.0</hdop><vdop>2.5</vdop><extensions><gom:speed>0.039</gom:speed></extensions></trkpt>
   <trkpt lat="59.3103536659" lon="34.6650532574"><ele>166.717</ele><time>2026-08-16T13:34:18.137Z</time><hdop>3.0</hdop><vdop>2.5</vdop><extensions><gom:speed>0.067</gom:speed></extensions></trkpt>
   <trkpt lat="59.3103534982" lon="34.6650532574"><ele>166.72</ele><time>2026-08-16T13:34:19.138Z</time><hdop>3.0</hdop><vdop>2.5</vdop><extensions><gom:speed>0.031</gom:speed></extensions></trkpt>
   <trkpt lat="59.310353582" lon="34.6650542632"><ele>166.722</ele><time>2026-08-16T13:34:20.138Z</time><hdop>3.0</hdop><vdop>2.562</vdop><extensions><gom:speed>0.022</gom:speed></extensions></trkpt>
   <trkpt lat="59.310353582" lon="34.6650562748"><ele>166.722</ele><time>2026-08-16T13:34:21.138Z</time><hdop>3.0</hdop><vdop>2.5</vdop><extensions><gom:speed>0.022</gom:speed></extensions></trkpt>
   <trkpt lat="59.3103536659" lon="34.665058538"><ele>166.702</ele><time>2026-08-16T13:34:22.137Z</time><hdop>3.0</hdop><vdop>2.5</vdop><extensions><gom:speed>0.057</gom:speed></extensions></trkpt>
   <trkpt lat="59.3103539592" lon="34.6650605496"><ele>166.705</ele><time>2026-08-16T13:34:23.138Z</time><hdop>3.0</hdop><vdop>2.875</vdop><extensions><gom:speed>0.018</gom:speed></extensions></trkpt>
   <trkpt lat="59.3103536659" lon="34.6650621422"><ele>166.713</ele><time>2026-08-16T13:34:24.138Z</time><hdop>3.0</hdop><vdop>2.937</vdop><extensions><gom:speed>0.025</gom:speed></extensions></trkpt>
   <trkpt lat="59.3103539592" lon="34.6650642377"><ele>166.719</ele><time>2026-08-16T13:34:25.137Z</time><hdop>3.0</hdop><vdop>3.062</vdop><extensions><gom:speed>0.023</gom:speed></extensions></trkpt>
   <trkpt lat="59.3103539592" lon="34.6650653273"><ele>166.729</ele><time>2026-08-16T13:34:26.138Z</time><hdop>3.0</hdop><vdop>3.062</vdop><extensions><gom:speed>0.0</gom:speed></extensions></trkpt>
   <trkpt lat="59.310354085" lon="34.6650660817"><ele>166.731</ele><time>2026-08-16T13:34:27.138Z</time><hdop>3.0</hdop><vdop>3.125</vdop><extensions><gom:speed>0.014</gom:speed></extensions></trkpt>
   <trkpt lat="59.3103541688" lon="34.6650667522"><ele>166.736</ele><time>2026-08-16T13:34:28.138Z</time><hdop>3.0</hdop><vdop>3.187</vdop><extensions><gom:speed>0.026</gom:speed></extensions></trkpt>
   <trkpt lat="59.310354085" lon="34.6650675904"><ele>166.724</ele><time>2026-08-16T13:34:29.138Z</time><hdop>3.0</hdop><vdop>3.125</vdop><extensions><gom:speed>0.035</gom:speed></extensions></trkpt>
   <trkpt lat="59.3103538754" lon="34.6650684286"><ele>166.718</ele><time>2026-08-16T13:34:30.138Z</time><hdop>3.0</hdop><vdop>3.125</vdop><extensions><gom:speed>0.042</gom:speed></extensions></trkpt>
   <trkpt lat="59.3103536659" lon="34.6650692668"><ele>166.716</ele><time>2026-08-16T13:34:31.138Z</time><hdop>3.0</hdop><vdop>3.062</vdop><extensions><gom:speed>0.045</gom:speed></extensions></trkpt>
   <trkpt lat="59.3103533725" lon="34.6650699373"><ele>166.718</ele><time>2026-08-16T13:34:32.138Z</time><hdop>3.0</hdop><vdop>2.875</vdop><extensions><gom:speed>0.05</gom:speed></extensions></trkpt>
   <trkpt lat="59.3103530791" lon="34.6650707755"><ele>166.707</ele><time>2026-08-16T13:34:33.138Z</time><hdop>3.0</hdop><vdop>2.687</vdop><extensions><gom:speed>0.056</gom:speed></extensions></trkpt>
   <trkpt lat="59.3103527858" lon="34.6650713623"><ele>166.698</ele><time>2026-08-16T13:34:34.138Z</time><hdop>3.0</hdop><vdop>2.562</vdop><extensions><gom:speed>0.06</gom:speed></extensions></trkpt>
   <trkpt lat="59.3103525762" lon="34.665071949"><ele>166.687</ele><time>2026-08-16T13:34:35.138Z</time><hdop>3.0</hdop><vdop>2.562</vdop><extensions><gom:speed>0.063</gom:speed></extensions></trkpt>
   <trkpt lat="59.310352199" lon="34.6650722843"><ele>166.717</ele><time>2026-08-16T13:34:36.138Z</time><hdop>3.0</hdop><vdop>2.5</vdop><extensions><gom:speed>0.251</gom:speed></extensions></trkpt>
   <trkpt lat="59.3103507741" lon="34.665072871"><ele>166.647</ele><time>2026-08-16T13:34:37.138Z</time><hdop>3.0</hdop><vdop>2.5</vdop><extensions><gom:speed>0.214</gom:speed></extensions></trkpt>
   <trkpt lat="59.3103500616" lon="34.6650725357"><ele>166.624</ele><time>2026-08-16T13:34:38.138Z</time><hdop>3.0</hdop><vdop>2.5</vdop><extensions><gom:speed>0.086</gom:speed></extensions></trkpt>
   <trkpt lat="59.3103502712" lon="34.6650722843"><ele>166.62</ele><time>2026-08-16T13:34:39.138Z</time><hdop>3.0</hdop><vdop>2.625</vdop><extensions><gom:speed>0.07</gom:speed></extensions></trkpt>
   <trkpt lat="59.3103503969" lon="34.6650720328"><ele>166.638</ele><time>2026-08-16T13:34:40.138Z</time><hdop>3.0</hdop><vdop>2.562</vdop><extensions><gom:speed>0.063</gom:speed></extensions></trkpt>
   <trkpt lat="59.3103504807" lon="34.6650718652"><ele>166.663</ele><time>2026-08-16T13:34:41.138Z</time><hdop>3.0</hdop><vdop>2.5</vdop><extensions><gom:speed>0.06</gom:speed></extensions></trkpt>
   <trkpt lat="59.3103505646" lon="34.6650717814"><ele>166.692</ele><time>2026-08-16T13:34:42.138Z</time><hdop>3.0</hdop><vdop>2.562</vdop><extensions><gom:speed>0.059</gom:speed></extensions></trkpt>
   <trkpt lat="59.3103505646" lon="34.6650715299"><ele>166.726</ele><time>2026-08-16T13:34:43.138Z</time><hdop>3.0</hdop><vdop>2.562</vdop><extensions><gom:speed>0.057</gom:speed></extensions></trkpt>
   <trkpt lat="59.3103506903" lon="34.6650714461"><ele>166.762</ele><time>2026-08-16T13:34:44.138Z</time><hdop>3.0</hdop><vdop>2.625</vdop><extensions><gom:speed>0.057</gom:speed></extensions></trkpt>
   <trkpt lat="59.3103507741" lon="34.6650714461"><ele>166.799</ele><time>2026-08-16T13:34:45.138Z</time><hdop>3.0</hdop><vdop>2.687</vdop><extensions><gom:speed>0.061</gom:speed></extensions></trkpt>
   <trkpt lat="59.3103507741" lon="34.6650714461"><ele>166.838</ele><time>2026-08-16T13:34:46.138Z</time><hdop>3.0</hdop><vdop>2.625</vdop><extensions><gom:speed>0.059</gom:speed></extensions></trkpt>
   <trkpt lat="59.3103506903" lon="34.6650715299"><ele>166.927</ele><time>2026-08-16T13:34:47.138Z</time><hdop>3.0</hdop><vdop>2.75</vdop><extensions><gom:speed>0.201</gom:speed></extensions></trkpt>
   <trkpt lat="59.310349894" lon="34.665071949"><ele>166.981</ele><time>2026-08-16T13:34:48.137Z</time><hdop>3.0</hdop><vdop>2.562</vdop><extensions><gom:speed>0.391</gom:speed></extensions></trkpt>
   <trkpt lat="59.3103486786" lon="34.6650721166"><ele>167.014</ele><time>2026-08-16T13:34:48.869Z</time><hdop>3.0</hdop><vdop>2.562</vdop><extensions><gom:speed>0.411</gom:speed></extensions></trkpt>
   <trkpt lat="59.3103461641" lon="34.6650738768"><ele>166.876</ele><time>2026-08-16T13:34:49.773Z</time><hdop>3.0</hdop><vdop>2.5</vdop><extensions><gom:speed>0.779</gom:speed></extensions></trkpt>
   <trkpt lat="59.3103427694" lon="34.6650742959"><ele>167.096</ele><time>2026-08-16T13:34:50.253Z</time><hdop>3.125</hdop><vdop>2.5</vdop><extensions><gom:speed>1.212</gom:speed></extensions></trkpt>
   <trkpt lat="59.3103376983" lon="34.6650746312"><ele>167.228</ele><time>2026-08-16T13:34:50.989Z</time><hdop>3.312</hdop><vdop>2.5</vdop><extensions><gom:speed>1.256</gom:speed></extensions></trkpt>
   <trkpt lat="59.3103284782" lon="34.6650762238"><ele>167.366</ele><time>2026-08-16T13:34:51.510Z</time><hdop>3.625</hdop><vdop>2.5</vdop><extensions><gom:speed>1.262</gom:speed></extensions></trkpt>
   <trkpt lat="59.3103167855" lon="34.6650772296"><ele>167.462</ele><time>2026-08-16T13:34:52.138Z</time><hdop>3.625</hdop><vdop>2.5</vdop><extensions><gom:speed>1.17</gom:speed></extensions></trkpt>
   <trkpt lat="59.3103089903" lon="34.6650767267"><ele>167.52</ele><time>2026-08-16T13:34:52.717Z</time><hdop>3.687</hdop><vdop>2.5</vdop><extensions><gom:speed>1.169</gom:speed></extensions></trkpt>
   <trkpt lat="59.3102981777" lon="34.6650773972"><ele>167.753</ele><time>2026-08-16T13:34:53.493Z</time><hdop>3.687</hdop><vdop>2.5</vdop><extensions><gom:speed>1.152</gom:speed></extensions></trkpt>
   <trkpt lat="59.310292478" lon="34.6650762238"><ele>167.893</ele><time>2026-08-16T13:34:53.974Z</time><hdop>3.75</hdop><vdop>2.5</vdop><extensions><gom:speed>1.147</gom:speed></extensions></trkpt>
   <trkpt lat="59.3102832998" lon="34.6650826778"><ele>168.069</ele><time>2026-08-16T13:34:54.690Z</time><hdop>3.687</hdop><vdop>2.5</vdop><extensions><gom:speed>1.171</gom:speed></extensions></trkpt>
   <trkpt lat="59.3102770972" lon="34.6650888804"><ele>168.235</ele><time>2026-08-16T13:34:55.151Z</time><hdop>3.687</hdop><vdop>2.5</vdop><extensions><gom:speed>1.171</gom:speed></extensions></trkpt>
   <trkpt lat="59.3102684638" lon="34.6650917303"><ele>168.335</ele><time>2026-08-16T13:34:55.878Z</time><hdop>3.625</hdop><vdop>2.5</vdop><extensions><gom:speed>1.165</gom:speed></extensions></trkpt>
   <trkpt lat="59.3102627641" lon="34.6650960889"><ele>168.595</ele><time>2026-08-16T13:34:56.349Z</time><hdop>3.375</hdop><vdop>2.5</vdop><extensions><gom:speed>1.169</gom:speed></extensions></trkpt>
   <trkpt lat="59.3102537955" lon="34.6650987711"><ele>168.552</ele><time>2026-08-16T13:34:57.138Z</time><hdop>3.187</hdop><vdop>2.5</vdop><extensions><gom:speed>1.164</gom:speed></extensions></trkpt>
   <trkpt lat="59.3102466709" lon="34.6651004475"><ele>168.527</ele><time>2026-08-16T13:34:57.733Z</time><hdop>3.125</hdop><vdop>2.5</vdop><extensions><gom:speed>1.163</gom:speed></extensions></trkpt>
   <trkpt lat="59.3102361935" lon="34.6651021239"><ele>168.542</ele><time>2026-08-16T13:34:58.695Z</time><hdop>3.062</hdop><vdop>2.5</vdop><extensions><gom:speed>1.16</gom:speed></extensions></trkpt>
   <trkpt lat="59.3102234949" lon="34.6651085779"><ele>168.5</ele><time>2026-08-16T13:34:59.832Z</time><hdop>3.0</hdop><vdop>2.5</vdop><extensions><gom:speed>1.173</gom:speed></extensions></trkpt>
   <trkpt lat="59.3102158674" lon="34.6651179657"><ele>168.499</ele><time>2026-08-16T13:35:00.530Z</time><hdop>3.0</hdop><vdop>2.5</vdop><extensions><gom:speed>1.183</gom:speed></extensions></trkpt>
   <trkpt lat="59.3102100839" lon="34.6651218213"><ele>168.498</ele><time>2026-08-16T13:35:01.031Z</time><hdop>3.0</hdop><vdop>2.5</vdop><extensions><gom:speed>1.189</gom:speed></extensions></trkpt>
   <trkpt lat="59.3101982654" lon="34.6651366573"><ele>168.4</ele><time>2026-08-16T13:35:02.138Z</time><hdop>3.0</hdop><vdop>2.5</vdop><extensions><gom:speed>1.218</gom:speed></extensions></trkpt>
   <trkpt lat="59.310189171" lon="34.6651410997"><ele>168.342</ele><time>2026-08-16T13:35:02.896Z</time><hdop>3.0</hdop><vdop>2.5</vdop><extensions><gom:speed>1.215</gom:speed></extensions></trkpt>
   <trkpt lat="59.3101844772" lon="34.6651488949"><ele>168.26</ele><time>2026-08-16T13:35:03.377Z</time><hdop>3.0</hdop><vdop>2.5</vdop><extensions><gom:speed>1.225</gom:speed></extensions></trkpt>
   <trkpt lat="59.3101771849" lon="34.6651555166"><ele>168.212</ele><time>2026-08-16T13:35:04.034Z</time><hdop>3.0</hdop><vdop>2.5</vdop><extensions><gom:speed>1.23</gom:speed></extensions></trkpt>
   <trkpt lat="59.3101737902" lon="34.6651670836"><ele>168.104</ele><time>2026-08-16T13:35:04.496Z</time><hdop>3.0</hdop><vdop>2.5</vdop><extensions><gom:speed>1.22</gom:speed></extensions></trkpt>
   <trkpt lat="59.3101677972" lon="34.6651764713"><ele>168.039</ele><time>2026-08-16T13:35:05.114Z</time><hdop>3.0</hdop><vdop>2.5</vdop><extensions><gom:speed>1.228</gom:speed></extensions></trkpt>
   <trkpt lat="59.3101633967" lon="34.6651878707"><ele>167.966</ele><time>2026-08-16T13:35:05.634Z</time><hdop>3.0</hdop><vdop>2.5</vdop><extensions><gom:speed>1.246</gom:speed></extensions></trkpt>
   <trkpt lat="59.3101594991" lon="34.6651978452"><ele>167.973</ele><time>2026-08-16T13:35:06.138Z</time><hdop>3.0</hdop><vdop>2.5</vdop><extensions><gom:speed>1.264</gom:speed></extensions></trkpt>
   <trkpt lat="59.3101552662" lon="34.6652070653"><ele>167.977</ele><time>2026-08-16T13:35:06.616Z</time><hdop>3.0</hdop><vdop>2.5</vdop><extensions><gom:speed>1.266</gom:speed></extensions></trkpt>
   <trkpt lat="59.3101514944" lon="34.6652177941"><ele>167.869</ele><time>2026-08-16T13:35:07.138Z</time><hdop>3.0</hdop><vdop>2.5</vdop><extensions><gom:speed>1.23</gom:speed></extensions></trkpt>
   <trkpt lat="59.3101453756" lon="34.665230367"><ele>167.805</ele><time>2026-08-16T13:35:07.853Z</time><hdop>3.0</hdop><vdop>2.5</vdop><extensions><gom:speed>1.211</gom:speed></extensions></trkpt>
   <trkpt lat="59.3101407655" lon="34.6652427722"><ele>167.921</ele><time>2026-08-16T13:35:08.451Z</time><hdop>3.0</hdop><vdop>2.5</vdop><extensions><gom:speed>1.238</gom:speed></extensions></trkpt>
   <trkpt lat="59.3101365746" lon="34.6652515732"><ele>167.99</ele><time>2026-08-16T13:35:08.913Z</time><hdop>3.0</hdop><vdop>2.5</vdop><extensions><gom:speed>1.233</gom:speed></extensions></trkpt>
   <trkpt lat="59.310128486" lon="34.6652748749"><ele>168.22</ele><time>2026-08-16T13:35:09.952Z</time><hdop>3.0</hdop><vdop>2.5</vdop><extensions><gom:speed>1.274</gom:speed></extensions></trkpt>
   <trkpt lat="59.3101230797" lon="34.6652918901"><ele>168.221</ele><time>2026-08-16T13:35:10.691Z</time><hdop>3.0</hdop><vdop>2.5</vdop><extensions><gom:speed>1.261</gom:speed></extensions></trkpt>
   <trkpt lat="59.3101199784" lon="34.6653042954"><ele>168.157</ele><time>2026-08-16T13:35:11.172Z</time><hdop>3.0</hdop><vdop>2.5</vdop><extensions><gom:speed>1.284</gom:speed></extensions></trkpt>
   <trkpt lat="59.310115997" lon="34.6653200533"><ele>168.119</ele><time>2026-08-16T13:35:11.849Z</time><hdop>3.0</hdop><vdop>2.5</vdop><extensions><gom:speed>1.27</gom:speed></extensions></trkpt>
   <trkpt lat="59.3101162904" lon="34.665334554"><ele>168.086</ele><time>2026-08-16T13:35:12.349Z</time><hdop>3.0</hdop><vdop>2.5</vdop><extensions><gom:speed>1.287</gom:speed></extensions></trkpt>
   <trkpt lat="59.3101176734" lon="34.6653539162"><ele>167.665</ele><time>2026-08-16T13:35:13.138Z</time><hdop>3.0</hdop><vdop>2.5</vdop><extensions><gom:speed>1.226</gom:speed></extensions></trkpt>
   <trkpt lat="59.3101186792" lon="34.6653652318"><ele>167.413</ele><time>2026-08-16T13:35:13.596Z</time><hdop>3.0</hdop><vdop>2.5</vdop><extensions><gom:speed>1.226</gom:speed></extensions></trkpt>
   <trkpt lat="59.310120188" lon="34.6653774694"><ele>167.1</ele><time>2026-08-16T13:35:14.138Z</time><hdop>3.0</hdop><vdop>2.5</vdop><extensions><gom:speed>1.173</gom:speed></extensions></trkpt>
   <trkpt lat="59.3101217805" lon="34.665392473"><ele>166.912</ele><time>2026-08-16T13:35:14.793Z</time><hdop>3.0</hdop><vdop>2.5</vdop><extensions><gom:speed>1.164</gom:speed></extensions></trkpt>
   <trkpt lat="59.3101207747" lon="34.6654182892"><ele>166.844</ele><time>2026-08-16T13:35:15.932Z</time><hdop>3.0</hdop><vdop>2.5</vdop><extensions><gom:speed>1.189</gom:speed></extensions></trkpt>
   <trkpt lat="59.3101148654" lon="34.6654403336"><ele>167.024</ele><time>2026-08-16T13:35:17.110Z</time><hdop>3.0</hdop><vdop>2.5</vdop><extensions><gom:speed>1.193</gom:speed></extensions></trkpt>
   <trkpt lat="59.3101104649" lon="34.6654552534"><ele>167.03</ele><time>2026-08-16T13:35:18.138Z</time><hdop>3.0</hdop><vdop>2.5</vdop><extensions><gom:speed>1.167</gom:speed></extensions></trkpt>
   <trkpt lat="59.3101058968" lon="34.6654706761"><ele>167.0</ele><time>2026-08-16T13:35:19.138Z</time><hdop>3.0</hdop><vdop>2.5</vdop><extensions><gom:speed>1.131</gom:speed></extensions></trkpt>
   <trkpt lat="59.3101017897" lon="34.6654872723"><ele>166.933</ele><time>2026-08-16T13:35:20.138Z</time><hdop>3.0</hdop><vdop>2.5</vdop><extensions><gom:speed>1.158</gom:speed></extensions></trkpt>
   <trkpt lat="59.3100990656" lon="34.6654971629"><ele>166.893</ele><time>2026-08-16T13:35:20.653Z</time><hdop>3.0</hdop><vdop>2.5</vdop><extensions><gom:speed>1.164</gom:speed></extensions></trkpt>
   <trkpt lat="59.3100973892" lon="34.6655042876"><ele>166.934</ele><time>2026-08-16T13:35:21.138Z</time><hdop>3.0</hdop><vdop>2.5</vdop><extensions><gom:speed>1.152</gom:speed></extensions></trkpt>
   <trkpt lat="59.3100941621" lon="34.6655169442"><ele>166.959</ele><time>2026-08-16T13:35:21.812Z</time><hdop>3.0</hdop><vdop>2.5</vdop><extensions><gom:speed>1.147</gom:speed></extensions></trkpt>
   <trkpt lat="59.310090977" lon="34.6655259967"><ele>167.054</ele><time>2026-08-16T13:35:22.469Z</time><hdop>3.0</hdop><vdop>2.5</vdop><extensions><gom:speed>1.205</gom:speed></extensions></trkpt>
   <trkpt lat="59.3100879595" lon="34.6655342948"><ele>167.111</ele><time>2026-08-16T13:35:22.931Z</time><hdop>3.0</hdop><vdop>2.5</vdop><extensions><gom:speed>1.205</gom:speed></extensions></trkpt>
   <trkpt lat="59.3100803739" lon="34.665552735"><ele>167.34</ele><time>2026-08-16T13:35:24.030Z</time><hdop>3.0</hdop><vdop>2.5</vdop><extensions><gom:speed>1.259</gom:speed></extensions></trkpt>
   <trkpt lat="59.3100727883" lon="34.6655714266"><ele>167.548</ele><time>2026-08-16T13:35:25.149Z</time><hdop>3.0</hdop><vdop>2.5</vdop><extensions><gom:speed>1.281</gom:speed></extensions></trkpt>
   <trkpt lat="59.3100691841" lon="34.6655886933"><ele>167.673</ele><time>2026-08-16T13:35:26.138Z</time><hdop>3.0</hdop><vdop>2.5</vdop><extensions><gom:speed>1.277</gom:speed></extensions></trkpt>
   <trkpt lat="59.3100655799" lon="34.6656080555"><ele>167.712</ele><time>2026-08-16T13:35:27.138Z</time><hdop>3.0</hdop><vdop>2.5</vdop><extensions><gom:speed>1.262</gom:speed></extensions></trkpt>
   <trkpt lat="59.3100619756" lon="34.6656287588"><ele>167.811</ele><time>2026-08-16T13:35:28.138Z</time><hdop>3.0</hdop><vdop>2.5</vdop><extensions><gom:speed>1.281</gom:speed></extensions></trkpt>
   <trkpt lat="59.3100598802" lon="34.6656511385"><ele>167.87</ele><time>2026-08-16T13:35:29.095Z</time><hdop>3.0</hdop><vdop>2.5</vdop><extensions><gom:speed>1.287</gom:speed></extensions></trkpt>
   <trkpt lat="59.3100592934" lon="34.6656612806"><ele>167.916</ele><time>2026-08-16T13:35:29.654Z</time><hdop>3.0</hdop><vdop>2.5</vdop><extensions><gom:speed>1.275</gom:speed></extensions></trkpt>
   <trkpt lat="59.3100584971" lon="34.6656692434"><ele>168.097</ele><time>2026-08-16T13:35:30.138Z</time><hdop>3.0</hdop><vdop>2.5</vdop><extensions><gom:speed>1.263</gom:speed></extensions></trkpt>
   <trkpt lat="59.3100578685" lon="34.6656824868"><ele>168.205</ele><time>2026-08-16T13:35:30.753Z</time><hdop>3.0</hdop><vdop>2.5</vdop><extensions><gom:speed>1.267</gom:speed></extensions></trkpt>
   <trkpt lat="59.3100564855" lon="34.6657062914"><ele>168.273</ele><time>2026-08-16T13:35:31.872Z</time><hdop>3.0</hdop><vdop>2.5</vdop><extensions><gom:speed>1.245</gom:speed></extensions></trkpt>
   <trkpt lat="59.3100562759" lon="34.6657209598"><ele>168.427</ele><time>2026-08-16T13:35:32.550Z</time><hdop>3.0</hdop><vdop>2.5</vdop><extensions><gom:speed>1.252</gom:speed></extensions></trkpt>
   <trkpt lat="59.310055773" lon="34.6657323592"><ele>168.518</ele><time>2026-08-16T13:35:33.011Z</time><hdop>3.0</hdop><vdop>2.5</vdop><extensions><gom:speed>1.26</gom:speed></extensions></trkpt>
   <trkpt lat="59.3100568627" lon="34.6657462731"><ele>168.332</ele><time>2026-08-16T13:35:33.669Z</time><hdop>3.0</hdop><vdop>2.5</vdop><extensions><gom:speed>1.247</gom:speed></extensions></trkpt>
   <trkpt lat="59.3100562759" lon="34.6657566667"><ele>168.22</ele><time>2026-08-16T13:35:34.130Z</time><hdop>3.0</hdop><vdop>2.5</vdop><extensions><gom:speed>1.254</gom:speed></extensions></trkpt>
   <trkpt lat="59.3100547672" lon="34.6657758612"><ele>167.954</ele><time>2026-08-16T13:35:35.138Z</time><hdop>3.0</hdop><vdop>2.5</vdop><extensions><gom:speed>1.238</gom:speed></extensions></trkpt>
   <trkpt lat="59.3100524622" lon="34.6657930441"><ele>167.795</ele><time>2026-08-16T13:35:35.916Z</time><hdop>3.0</hdop><vdop>2.5</vdop><extensions><gom:speed>1.246</gom:speed></extensions></trkpt>
   <trkpt lat="59.310051163" lon="34.6658029348"><ele>167.817</ele><time>2026-08-16T13:35:36.397Z</time><hdop>3.0</hdop><vdop>2.5</vdop><extensions><gom:speed>1.276</gom:speed></extensions></trkpt>
   <trkpt lat="59.3100485646" lon="34.6658182737"><ele>167.829</ele><time>2026-08-16T13:35:37.075Z</time><hdop>3.0</hdop><vdop>2.5</vdop><extensions><gom:speed>1.255</gom:speed></extensions></trkpt>
   <trkpt lat="59.3100463853" lon="34.6658276614"><ele>167.642</ele><time>2026-08-16T13:35:37.556Z</time><hdop>3.0</hdop><vdop>2.5</vdop><extensions><gom:speed>1.251</gom:speed></extensions></trkpt>
   <trkpt lat="59.3100435774" lon="34.6658386417"><ele>167.174</ele><time>2026-08-16T13:35:38.138Z</time><hdop>3.0</hdop><vdop>2.5</vdop><extensions><gom:speed>1.211</gom:speed></extensions></trkpt>
   <trkpt lat="59.3100404761" lon="34.6658498734"><ele>166.895</ele><time>2026-08-16T13:35:38.714Z</time><hdop>3.0</hdop><vdop>2.5</vdop><extensions><gom:speed>1.219</gom:speed></extensions></trkpt>
   <trkpt lat="59.3100378777" lon="34.6658619434"><ele>166.639</ele><time>2026-08-16T13:35:39.293Z</time><hdop>3.0</hdop><vdop>2.5</vdop><extensions><gom:speed>1.249</gom:speed></extensions></trkpt>
   <trkpt lat="59.3100350697" lon="34.6658739295"><ele>166.486</ele><time>2026-08-16T13:35:39.832Z</time><hdop>3.0</hdop><vdop>2.5</vdop><extensions><gom:speed>1.236</gom:speed></extensions></trkpt>
   <trkpt lat="59.3100317589" lon="34.6658882626"><ele>166.429</ele><time>2026-08-16T13:35:40.471Z</time><hdop>3.0</hdop><vdop>2.5</vdop><extensions><gom:speed>1.264</gom:speed></extensions></trkpt>
   <trkpt lat="59.3100290767" lon="34.6658985723"><ele>166.396</ele><time>2026-08-16T13:35:40.932Z</time><hdop>3.0</hdop><vdop>2.5</vdop><extensions><gom:speed>1.26</gom:speed></extensions></trkpt>
   <trkpt lat="59.310025682" lon="34.6659124863"><ele>166.386</ele><time>2026-08-16T13:35:41.590Z</time><hdop>3.0</hdop><vdop>2.5</vdop><extensions><gom:speed>1.281</gom:speed></extensions></trkpt>
   <trkpt lat="59.310023377" lon="34.6659231313"><ele>166.38</ele><time>2026-08-16T13:35:42.051Z</time><hdop>3.0</hdop><vdop>2.5</vdop><extensions><gom:speed>1.285</gom:speed></extensions></trkpt>
   <trkpt lat="59.3100207786" lon="34.6659370452"><ele>166.347</ele><time>2026-08-16T13:35:42.689Z</time><hdop>3.0</hdop><vdop>2.5</vdop><extensions><gom:speed>1.276</gom:speed></extensions></trkpt>
   <trkpt lat="59.3100176773" lon="34.6659469359"><ele>166.177</ele><time>2026-08-16T13:35:43.190Z</time><hdop>3.0</hdop><vdop>2.5</vdop><extensions><gom:speed>1.297</gom:speed></extensions></trkpt>
   <trkpt lat="59.3100106784" lon="34.6659644541"><ele>166.077</ele><time>2026-08-16T13:35:44.138Z</time><hdop>3.0</hdop><vdop>2.5</vdop><extensions><gom:speed>1.298</gom:speed></extensions></trkpt>
   <trkpt lat="59.3100017936" lon="34.6659796253"><ele>166.107</ele><time>2026-08-16T13:35:45.138Z</time><hdop>3.0</hdop><vdop>2.5</vdop><extensions><gom:speed>1.277</gom:speed></extensions></trkpt>
   <trkpt lat="59.3099922801" lon="34.6659909409"><ele>166.126</ele><time>2026-08-16T13:35:46.056Z</time><hdop>3.0</hdop><vdop>2.5</vdop><extensions><gom:speed>1.257</gom:speed></extensions></trkpt>
   <trkpt lat="59.3099883825" lon="34.6659971435"><ele>166.061</ele><time>2026-08-16T13:35:46.537Z</time><hdop>3.0</hdop><vdop>2.5</vdop><extensions><gom:speed>1.242</gom:speed></extensions></trkpt>
   <trkpt lat="59.309983982" lon="34.6660064474"><ele>166.138</ele><time>2026-08-16T13:35:47.138Z</time><hdop>3.0</hdop><vdop>2.5</vdop><extensions><gom:speed>1.224</gom:speed></extensions></trkpt>
   <trkpt lat="59.3099795815" lon="34.666014494"><ele>166.184</ele><time>2026-08-16T13:35:47.656Z</time><hdop>3.0</hdop><vdop>2.5</vdop><extensions><gom:speed>1.212</gom:speed></extensions></trkpt>
   <trkpt lat="59.3099763964" lon="34.6660231274"><ele>166.146</ele><time>2026-08-16T13:35:48.138Z</time><hdop>3.0</hdop><vdop>2.5</vdop><extensions><gom:speed>1.214</gom:speed></extensions></trkpt>
   <trkpt lat="59.3099719959" lon="34.6660338562"><ele>166.124</ele><time>2026-08-16T13:35:48.735Z</time><hdop>3.0</hdop><vdop>2.5</vdop><extensions><gom:speed>1.211</gom:speed></extensions></trkpt>
   <trkpt lat="59.3099673859" lon="34.666046932"><ele>166.134</ele><time>2026-08-16T13:35:49.373Z</time><hdop>3.0</hdop><vdop>2.5</vdop><extensions><gom:speed>1.247</gom:speed></extensions></trkpt>
   <trkpt lat="59.3099630692" lon="34.6660555653"><ele>166.14</ele><time>2026-08-16T13:35:49.853Z</time><hdop>3.0</hdop><vdop>2.5</vdop><extensions><gom:speed>1.253</gom:speed></extensions></trkpt>
   <trkpt lat="59.3099522984" lon="34.6660739217"><ele>166.436</ele><time>2026-08-16T13:35:50.934Z</time><hdop>3.0</hdop><vdop>2.5</vdop><extensions><gom:speed>1.277</gom:speed></extensions></trkpt>
   <trkpt lat="59.3099398932" lon="34.6660902664"><ele>166.667</ele><time>2026-08-16T13:35:52.014Z</time><hdop>3.0</hdop><vdop>2.5</vdop><extensions><gom:speed>1.33</gom:speed></extensions></trkpt>
   <trkpt lat="59.3099308827" lon="34.666112227"><ele>166.881</ele><time>2026-08-16T13:35:53.138Z</time><hdop>3.0</hdop><vdop>2.5</vdop><extensions><gom:speed>1.299</gom:speed></extensions></trkpt>
   <trkpt lat="59.3099222912" lon="34.6661305834"><ele>167.067</ele><time>2026-08-16T13:35:54.138Z</time><hdop>3.0</hdop><vdop>2.5</vdop><extensions><gom:speed>1.258</gom:speed></extensions></trkpt>
   <trkpt lat="59.3099138674" lon="34.6661481854"><ele>166.99</ele><time>2026-08-16T13:35:55.138Z</time><hdop>3.0</hdop><vdop>2.5</vdop><extensions><gom:speed>1.221</gom:speed></extensions></trkpt>
   <trkpt lat="59.3099055693" lon="34.6661666256"><ele>166.964</ele><time>2026-08-16T13:35:56.138Z</time><hdop>3.0</hdop><vdop>2.5</vdop><extensions><gom:speed>1.188</gom:speed></extensions></trkpt>
   <trkpt lat="59.309897397" lon="34.6661842276"><ele>166.848</ele><time>2026-08-16T13:35:57.138Z</time><hdop>3.0</hdop><vdop>2.5</vdop><extensions><gom:speed>1.177</gom:speed></extensions></trkpt>
   <trkpt lat="59.3098934994" lon="34.6661917713"><ele>166.778</ele><time>2026-08-16T13:35:57.589Z</time><hdop>3.0</hdop><vdop>2.5</vdop><extensions><gom:speed>1.177</gom:speed></extensions></trkpt>
   <trkpt lat="59.3098883864" lon="34.6661998179"><ele>166.702</ele><time>2026-08-16T13:35:58.138Z</time><hdop>3.0</hdop><vdop>2.5</vdop><extensions><gom:speed>1.192</gom:speed></extensions></trkpt>
   <trkpt lat="59.3098820581" lon="34.6662066911"><ele>166.656</ele><time>2026-08-16T13:35:58.717Z</time><hdop>3.0</hdop><vdop>2.5</vdop><extensions><gom:speed>1.191</gom:speed></extensions></trkpt>
   <trkpt lat="59.30987376" lon="34.6662200183"><ele>166.609</ele><time>2026-08-16T13:35:59.493Z</time><hdop>3.0</hdop><vdop>2.5</vdop><extensions><gom:speed>1.24</gom:speed></extensions></trkpt>
   <trkpt lat="59.3098687728" lon="34.666233597"><ele>166.495</ele><time>2026-08-16T13:36:00.138Z</time><hdop>3.0</hdop><vdop>2.5</vdop><extensions><gom:speed>1.22</gom:speed></extensions></trkpt>
   <trkpt lat="59.3098626959" lon="34.6662510313"><ele>166.427</ele><time>2026-08-16T13:36:00.995Z</time><hdop>3.0</hdop><vdop>2.5</vdop><extensions><gom:speed>1.193</gom:speed></extensions></trkpt>
   <trkpt lat="59.3098536853" lon="34.6662728243"><ele>166.199</ele><time>2026-08-16T13:36:02.138Z</time><hdop>3.0</hdop><vdop>2.5</vdop><extensions><gom:speed>1.209</gom:speed></extensions></trkpt>
   <trkpt lat="59.3098457644" lon="34.6662925217"><ele>165.791</ele><time>2026-08-16T13:36:03.138Z</time><hdop>3.0</hdop><vdop>2.5</vdop><extensions><gom:speed>1.254</gom:speed></extensions></trkpt>
   <trkpt lat="59.3098393942" lon="34.6663156558"><ele>165.517</ele><time>2026-08-16T13:36:04.138Z</time><hdop>3.0</hdop><vdop>2.5</vdop><extensions><gom:speed>1.255</gom:speed></extensions></trkpt>
   <trkpt lat="59.3098335688" lon="34.6663386222"><ele>165.319</ele><time>2026-08-16T13:36:05.138Z</time><hdop>3.0</hdop><vdop>2.5</vdop><extensions><gom:speed>1.26</gom:speed></extensions></trkpt>
   <trkpt lat="59.3098278691" lon="34.6663611695"><ele>165.177</ele><time>2026-08-16T13:36:06.138Z</time><hdop>3.0</hdop><vdop>2.5</vdop><extensions><gom:speed>1.26</gom:speed></extensions></trkpt>
   <trkpt lat="59.3098211636" lon="34.6663814537"><ele>165.064</ele><time>2026-08-16T13:36:07.138Z</time><hdop>3.0</hdop><vdop>2.5</vdop><extensions><gom:speed>1.218</gom:speed></extensions></trkpt>
   <trkpt lat="59.3098178946" lon="34.6663907576"><ele>164.997</ele><time>2026-08-16T13:36:07.610Z</time><hdop>3.0</hdop><vdop>2.5</vdop><extensions><gom:speed>1.204</gom:speed></extensions></trkpt>
   <trkpt lat="59.3098145838" lon="34.6664000616"><ele>164.902</ele><time>2026-08-16T13:36:08.138Z</time><hdop>3.0</hdop><vdop>2.5</vdop><extensions><gom:speed>1.198</gom:speed></extensions></trkpt>
   <trkpt lat="59.3098109795" lon="34.6664110419"><ele>164.846</ele><time>2026-08-16T13:36:08.710Z</time><hdop>3.0</hdop><vdop>2.5</vdop><extensions><gom:speed>1.189</gom:speed></extensions></trkpt>
   <trkpt lat="59.3098048608" lon="34.6664325833"><ele>164.883</ele><time>2026-08-16T13:36:09.829Z</time><hdop>3.0</hdop><vdop>2.5</vdop><extensions><gom:speed>1.182</gom:speed></extensions></trkpt>
   <trkpt lat="59.3097995802" lon="34.6664563879"><ele>164.91</ele><time>2026-08-16T13:36:11.036Z</time><hdop>3.0</hdop><vdop>2.5</vdop><extensions><gom:speed>1.165</gom:speed></extensions></trkpt>
   <trkpt lat="59.3097953892" lon="34.6664779294"><ele>165.22</ele><time>2026-08-16T13:36:12.138Z</time><hdop>3.0</hdop><vdop>2.5</vdop><extensions><gom:speed>1.203</gom:speed></extensions></trkpt>
   <trkpt lat="59.3097905696" lon="34.6664985489"><ele>165.723</ele><time>2026-08-16T13:36:13.138Z</time><hdop>3.0</hdop><vdop>2.5</vdop><extensions><gom:speed>1.225</gom:speed></extensions></trkpt>
   <trkpt lat="59.3097851633" lon="34.6665195875"><ele>166.116</ele><time>2026-08-16T13:36:14.138Z</time><hdop>3.0</hdop><vdop>2.5</vdop><extensions><gom:speed>1.239</gom:speed></extensions></trkpt>
   <trkpt lat="59.3097800922" lon="34.6665407937"><ele>166.176</ele><time>2026-08-16T13:36:15.138Z</time><hdop>3.0</hdop><vdop>2.5</vdop><extensions><gom:speed>1.285</gom:speed></extensions></trkpt>
   <trkpt lat="59.3097748955" lon="34.666562419"><ele>166.219</ele><time>2026-08-16T13:36:16.138Z</time><hdop>3.0</hdop><vdop>2.5</vdop><extensions><gom:speed>1.28</gom:speed></extensions></trkpt>
   <trkpt lat="59.3097724647" lon="34.666572142"><ele>166.245</ele><time>2026-08-16T13:36:16.592Z</time><hdop>3.0</hdop><vdop>2.5</vdop><extensions><gom:speed>1.269</gom:speed></extensions></trkpt>
   <trkpt lat="59.3097705788" lon="34.6665830385"><ele>166.449</ele><time>2026-08-16T13:36:17.138Z</time><hdop>3.0</hdop><vdop>2.5</vdop><extensions><gom:speed>1.248</gom:speed></extensions></trkpt>
   <trkpt lat="59.3097684833" lon="34.6665945217"><ele>166.571</ele><time>2026-08-16T13:36:17.671Z</time><hdop>3.0</hdop><vdop>2.5</vdop><extensions><gom:speed>1.243</gom:speed></extensions></trkpt>
   <trkpt lat="59.3097670584" lon="34.6666040771"><ele>166.672</ele><time>2026-08-16T13:36:18.138Z</time><hdop>3.0</hdop><vdop>2.5</vdop><extensions><gom:speed>1.254</gom:speed></extensions></trkpt>
   <trkpt lat="59.3097643762" lon="34.6666183263"><ele>166.732</ele><time>2026-08-16T13:36:18.771Z</time><hdop>3.0</hdop><vdop>2.5</vdop><extensions><gom:speed>1.243</gom:speed></extensions></trkpt>
   <trkpt lat="59.3097578802" lon="34.6666393649"><ele>166.773</ele><time>2026-08-16T13:36:19.890Z</time><hdop>3.0</hdop><vdop>2.5</vdop><extensions><gom:speed>1.247</gom:speed></extensions></trkpt>
   <trkpt lat="59.3097504622" lon="34.666661996"><ele>166.725</ele><time>2026-08-16T13:36:21.097Z</time><hdop>3.0</hdop><vdop>2.5</vdop><extensions><gom:speed>1.273</gom:speed></extensions></trkpt>
   <trkpt lat="59.3097457683" lon="34.666681023"><ele>166.697</ele><time>2026-08-16T13:36:22.138Z</time><hdop>3.0</hdop><vdop>2.5</vdop><extensions><gom:speed>1.275</gom:speed></extensions></trkpt>
   <trkpt lat="59.309738979" lon="34.6666931767"><ele>166.68</ele><time>2026-08-16T13:36:22.893Z</time><hdop>3.0</hdop><vdop>2.5</vdop><extensions><gom:speed>1.278</gom:speed></extensions></trkpt>
   <trkpt lat="59.3097353748" lon="34.6667009719"><ele>166.585</ele><time>2026-08-16T13:36:23.353Z</time><hdop>3.0</hdop><vdop>2.5</vdop><extensions><gom:speed>1.253</gom:speed></extensions></trkpt>
   <trkpt lat="59.3097289626" lon="34.6667134609"><ele>166.605</ele><time>2026-08-16T13:36:24.138Z</time><hdop>3.0</hdop><vdop>2.5</vdop><extensions><gom:speed>1.227</gom:speed></extensions></trkpt>
   <trkpt lat="59.3097210836" lon="34.6667300571"><ele>166.757</ele><time>2026-08-16T13:36:25.138Z</time><hdop>3.0</hdop><vdop>2.5</vdop><extensions><gom:speed>1.209</gom:speed></extensions></trkpt>
   <trkpt lat="59.3097170603" lon="34.6667383552"><ele>166.848</ele><time>2026-08-16T13:36:25.632Z</time><hdop>3.0</hdop><vdop>2.5</vdop><extensions><gom:speed>1.214</gom:speed></extensions></trkpt>
   <trkpt lat="59.3097132885" lon="34.6667468209"><ele>166.722</ele><time>2026-08-16T13:36:26.138Z</time><hdop>3.0</hdop><vdop>2.5</vdop><extensions><gom:speed>1.215</gom:speed></extensions></trkpt>
   <trkpt lat="59.309708888" lon="34.6667598967"><ele>166.646</ele><time>2026-08-16T13:36:26.809Z</time><hdop>3.0</hdop><vdop>2.5</vdop><extensions><gom:speed>1.221</gom:speed></extensions></trkpt>
   <trkpt lat="59.3097041941" lon="34.6667699549"><ele>166.518</ele><time>2026-08-16T13:36:27.457Z</time><hdop>3.0</hdop><vdop>2.5</vdop><extensions><gom:speed>1.213</gom:speed></extensions></trkpt>
   <trkpt lat="59.3097008832" lon="34.666778253"><ele>166.441</ele><time>2026-08-16T13:36:27.909Z</time><hdop>3.0</hdop><vdop>2.5</vdop><extensions><gom:speed>1.207</gom:speed></extensions></trkpt>
   <trkpt lat="59.3096953931" lon="34.6667909935"><ele>166.349</ele><time>2026-08-16T13:36:28.617Z</time><hdop>3.0</hdop><vdop>2.5</vdop><extensions><gom:speed>1.236</gom:speed></extensions></trkpt>
   <trkpt lat="59.3096921661" lon="34.6667999622"><ele>166.294</ele><time>2026-08-16T13:36:29.069Z</time><hdop>3.0</hdop><vdop>2.5</vdop><extensions><gom:speed>1.226</gom:speed></extensions></trkpt>
   <trkpt lat="59.3096857958" lon="34.6668204978"><ele>165.986</ele><time>2026-08-16T13:36:30.138Z</time><hdop>3.0</hdop><vdop>2.5</vdop><extensions><gom:speed>1.222</gom:speed></extensions></trkpt>
   <trkpt lat="59.3096798866" lon="34.6668411173"><ele>165.957</ele><time>2026-08-16T13:36:31.138Z</time><hdop>3.0</hdop><vdop>2.5</vdop><extensions><gom:speed>1.233</gom:speed></extensions></trkpt>
   <trkpt lat="59.3096745641" lon="34.6668624912"><ele>165.896</ele><time>2026-08-16T13:36:32.138Z</time><hdop>3.0</hdop><vdop>2.5</vdop><extensions><gom:speed>1.24</gom:speed></extensions></trkpt>
   <trkpt lat="59.3096693673" lon="34.6668819372"><ele>165.859</ele><time>2026-08-16T13:36:33.035Z</time><hdop>3.0</hdop><vdop>2.5</vdop><extensions><gom:speed>1.253</gom:speed></extensions></trkpt>
   <trkpt lat="59.3096664755" lon="34.6668906544"><ele>165.825</ele><time>2026-08-16T13:36:33.496Z</time><hdop>3.0</hdop><vdop>2.5</vdop><extensions><gom:speed>1.254</gom:speed></extensions></trkpt>
   <trkpt lat="59.3096614883" lon="34.666900545"><ele>165.773</ele><time>2026-08-16T13:36:34.138Z</time><hdop>3.0</hdop><vdop>2.5</vdop><extensions><gom:speed>1.26</gom:speed></extensions></trkpt>
   <trkpt lat="59.309657465" lon="34.6669081725"><ele>165.742</ele><time>2026-08-16T13:36:34.596Z</time><hdop>3.0</hdop><vdop>2.5</vdop><extensions><gom:speed>1.261</gom:speed></extensions></trkpt>
   <trkpt lat="59.3096522682" lon="34.6669162192"><ele>165.597</ele><time>2026-08-16T13:36:35.138Z</time><hdop>3.0</hdop><vdop>2.5</vdop><extensions><gom:speed>1.281</gom:speed></extensions></trkpt>
   <trkpt lat="59.309647281" lon="34.6669268642"><ele>165.51</ele><time>2026-08-16T13:36:35.715Z</time><hdop>3.0</hdop><vdop>2.5</vdop><extensions><gom:speed>1.28</gom:speed></extensions></trkpt>
   <trkpt lat="59.3096408688" lon="34.6669367548"><ele>165.312</ele><time>2026-08-16T13:36:36.372Z</time><hdop>3.0</hdop><vdop>2.5</vdop><extensions><gom:speed>1.265</gom:speed></extensions></trkpt>
   <trkpt lat="59.3096367617" lon="34.6669455558"><ele>165.193</ele><time>2026-08-16T13:36:36.853Z</time><hdop>3.0</hdop><vdop>2.5</vdop><extensions><gom:speed>1.262</gom:speed></extensions></trkpt>
   <trkpt lat="59.3096266615" lon="34.6669634931"><ele>165.316</ele><time>2026-08-16T13:36:37.971Z</time><hdop>3.0</hdop><vdop>2.5</vdop><extensions><gom:speed>1.27</gom:speed></extensions></trkpt>
   <trkpt lat="59.3096211713" lon="34.6669741381"><ele>165.514</ele><time>2026-08-16T13:36:38.610Z</time><hdop>3.0</hdop><vdop>2.5</vdop><extensions><gom:speed>1.267</gom:speed></extensions></trkpt>
   <trkpt lat="59.3096174833" lon="34.6669841964"><ele>165.668</ele><time>2026-08-16T13:36:39.138Z</time><hdop>3.0</hdop><vdop>2.5</vdop><extensions><gom:speed>1.261</gom:speed></extensions></trkpt>
   <trkpt lat="59.30961346" lon="34.6669988647"><ele>165.759</ele><time>2026-08-16T13:36:39.798Z</time><hdop>3.0</hdop><vdop>2.5</vdop><extensions><gom:speed>1.27</gom:speed></extensions></trkpt>
   <trkpt lat="59.3096109873" lon="34.6670090906"><ele>165.912</ele><time>2026-08-16T13:36:40.289Z</time><hdop>3.0</hdop><vdop>2.5</vdop><extensions><gom:speed>1.247</gom:speed></extensions></trkpt>
   <trkpt lat="59.3096068802" lon="34.6670212444"><ele>166.003</ele><time>2026-08-16T13:36:40.897Z</time><hdop>3.0</hdop><vdop>2.5</vdop><extensions><gom:speed>1.24</gom:speed></extensions></trkpt>
   <trkpt lat="59.3096024797" lon="34.6670299616"><ele>165.959</ele><time>2026-08-16T13:36:41.437Z</time><hdop>3.0</hdop><vdop>2.5</vdop><extensions><gom:speed>1.269</gom:speed></extensions></trkpt>
   <trkpt lat="59.3095966962" lon="34.6670415286"><ele>165.933</ele><time>2026-08-16T13:36:42.075Z</time><hdop>3.0</hdop><vdop>2.5</vdop><extensions><gom:speed>1.268</gom:speed></extensions></trkpt>
   <trkpt lat="59.3095864703" lon="34.6670542691"><ele>165.989</ele><time>2026-08-16T13:36:43.137Z</time><hdop>3.0</hdop><vdop>2.5</vdop><extensions><gom:speed>1.244</gom:speed></extensions></trkpt>
   <trkpt lat="59.3095797647" lon="34.6670601364"><ele>166.023</ele><time>2026-08-16T13:36:43.734Z</time><hdop>3.0</hdop><vdop>2.5</vdop><extensions><gom:speed>1.252</gom:speed></extensions></trkpt>
   <trkpt lat="59.3095676948" lon="34.667071452"><ele>166.01</ele><time>2026-08-16T13:36:44.892Z</time><hdop>3.0</hdop><vdop>2.5</vdop><extensions><gom:speed>1.216</gom:speed></extensions></trkpt>
   <trkpt lat="59.3095613665" lon="34.6670780737"><ele>165.908</ele><time>2026-08-16T13:36:45.589Z</time><hdop>3.0</hdop><vdop>2.5</vdop><extensions><gom:speed>1.14</gom:speed></extensions></trkpt>
   <trkpt lat="59.3095559601" lon="34.6670843601"><ele>165.794</ele><time>2026-08-16T13:36:46.138Z</time><hdop>3.0</hdop><vdop>2.5</vdop><extensions><gom:speed>1.146</gom:speed></extensions></trkpt>
   <trkpt lat="59.3095458599" lon="34.6670966815"><ele>165.868</ele><time>2026-08-16T13:36:47.138Z</time><hdop>3.0</hdop><vdop>2.5</vdop><extensions><gom:speed>1.19</gom:speed></extensions></trkpt>
   <trkpt lat="59.3095380648" lon="34.6671033871"><ele>165.913</ele><time>2026-08-16T13:36:47.837Z</time><hdop>3.0</hdop><vdop>2.5</vdop><extensions><gom:speed>1.184</gom:speed></extensions></trkpt>
   <trkpt lat="59.3095241927" lon="34.6671184745"><ele>165.871</ele><time>2026-08-16T13:36:49.138Z</time><hdop>3.0</hdop><vdop>2.5</vdop><extensions><gom:speed>1.172</gom:speed></extensions></trkpt>
   <trkpt lat="59.3095143859" lon="34.6671308797"><ele>165.846</ele><time>2026-08-16T13:36:50.075Z</time><hdop>3.0</hdop><vdop>2.5</vdop><extensions><gom:speed>1.155</gom:speed></extensions></trkpt>
   <trkpt lat="59.3095091891" lon="34.6671357412"><ele>165.848</ele><time>2026-08-16T13:36:50.556Z</time><hdop>3.0</hdop><vdop>2.5</vdop><extensions><gom:speed>1.163</gom:speed></extensions></trkpt>
   <trkpt lat="59.3095042857" lon="34.6671408542"><ele>165.849</ele><time>2026-08-16T13:36:51.076Z</time><hdop>3.0</hdop><vdop>2.5</vdop><extensions><gom:speed>1.108</gom:speed></extensions></trkpt>
   <trkpt lat="59.3094973706" lon="34.6671482302"><ele>165.969</ele><time>2026-08-16T13:36:51.773Z</time><hdop>3.0</hdop><vdop>2.5</vdop><extensions><gom:speed>1.108</gom:speed></extensions></trkpt>
   <trkpt lat="59.3094909585" lon="34.6671539299"><ele>165.99</ele><time>2026-08-16T13:36:52.429Z</time><hdop>3.0</hdop><vdop>2.5</vdop><extensions><gom:speed>1.085</gom:speed></extensions></trkpt>
   <trkpt lat="59.3094866837" lon="34.6671607193"><ele>166.003</ele><time>2026-08-16T13:36:52.950Z</time><hdop>3.0</hdop><vdop>2.5</vdop><extensions><gom:speed>1.085</gom:speed></extensions></trkpt>
   <trkpt lat="59.3094802716" lon="34.667169185"><ele>165.969</ele><time>2026-08-16T13:36:53.696Z</time><hdop>3.0</hdop><vdop>2.5</vdop><extensions><gom:speed>1.057</gom:speed></extensions></trkpt>
   <trkpt lat="59.3094754939" lon="34.6671751361"><ele>165.727</ele><time>2026-08-16T13:36:54.256Z</time><hdop>3.0</hdop><vdop>2.5</vdop><extensions><gom:speed>1.012</gom:speed></extensions></trkpt>
   <trkpt lat="59.3094719735" lon="34.6671829313"><ele>165.582</ele><time>2026-08-16T13:36:54.796Z</time><hdop>3.0</hdop><vdop>2.5</vdop><extensions><gom:speed>1.009</gom:speed></extensions></trkpt>
   <trkpt lat="59.30946619" lon="34.6671906427"><ele>165.471</ele><time>2026-08-16T13:36:55.375Z</time><hdop>3.0</hdop><vdop>2.5</vdop><extensions><gom:speed>1.015</gom:speed></extensions></trkpt>
   <trkpt lat="59.3094621666" lon="34.6672005333"><ele>165.404</ele><time>2026-08-16T13:36:55.974Z</time><hdop>3.0</hdop><vdop>2.5</vdop><extensions><gom:speed>1.021</gom:speed></extensions></trkpt>
   <trkpt lat="59.3094576823" lon="34.6672074903"><ele>165.301</ele><time>2026-08-16T13:36:56.474Z</time><hdop>3.0</hdop><vdop>2.5</vdop><extensions><gom:speed>1.036</gom:speed></extensions></trkpt>
   <trkpt lat="59.3094539943" lon="34.6672191411"><ele>165.24</ele><time>2026-08-16T13:36:57.132Z</time><hdop>3.0</hdop><vdop>2.5</vdop><extensions><gom:speed>1.055</gom:speed></extensions></trkpt>
   <trkpt lat="59.3094487975" lon="34.667225679"><ele>165.266</ele><time>2026-08-16T13:36:57.691Z</time><hdop>3.0</hdop><vdop>2.5</vdop><extensions><gom:speed>1.036</gom:speed></extensions></trkpt>
   <trkpt lat="59.3094371886" lon="34.6672358211"><ele>165.457</ele><time>2026-08-16T13:36:58.810Z</time><hdop>3.0</hdop><vdop>2.5</vdop><extensions><gom:speed>1.09</gom:speed></extensions></trkpt>
   <trkpt lat="59.3094222688" lon="34.6672440354"><ele>165.6</ele><time>2026-08-16T13:36:59.998Z</time><hdop>3.0</hdop><vdop>2.5</vdop><extensions><gom:speed>1.169</gom:speed></extensions></trkpt>
   <trkpt lat="59.3094137612" lon="34.6672480587"><ele>165.844</ele><time>2026-08-16T13:37:00.636Z</time><hdop>3.0</hdop><vdop>2.5</vdop><extensions><gom:speed>1.195</gom:speed></extensions></trkpt>
   <trkpt lat="59.3094075585" lon="34.6672516629"><ele>165.989</ele><time>2026-08-16T13:37:01.137Z</time><hdop>3.0</hdop><vdop>2.5</vdop><extensions><gom:speed>1.225</gom:speed></extensions></trkpt>
   <trkpt lat="59.3093995957" lon="34.6672561891"><ele>166.03</ele><time>2026-08-16T13:37:01.775Z</time><hdop>3.0</hdop><vdop>2.5</vdop><extensions><gom:speed>1.223</gom:speed></extensions></trkpt>
   <trkpt lat="59.3093866876" lon="34.667265996"><ele>166.128</ele><time>2026-08-16T13:37:02.894Z</time><hdop>3.0</hdop><vdop>2.5</vdop><extensions><gom:speed>1.22</gom:speed></extensions></trkpt>
   <trkpt lat="59.3093820776" lon="34.6672708575"><ele>166.277</ele><time>2026-08-16T13:37:03.394Z</time><hdop>3.0</hdop><vdop>2.5</vdop><extensions><gom:speed>1.177</gom:speed></extensions></trkpt>
   <trkpt lat="59.3093764617" lon="34.6672774792"><ele>166.365</ele><time>2026-08-16T13:37:03.973Z</time><hdop>3.0</hdop><vdop>2.5</vdop><extensions><gom:speed>1.161</gom:speed></extensions></trkpt>
   <trkpt lat="59.3093724803" lon="34.6672868669"><ele>166.444</ele><time>2026-08-16T13:37:04.533Z</time><hdop>3.0</hdop><vdop>2.5</vdop><extensions><gom:speed>1.16</gom:speed></extensions></trkpt>
   <trkpt lat="59.309367493" lon="34.6672940754"><ele>166.355</ele><time>2026-08-16T13:37:05.138Z</time><hdop>3.0</hdop><vdop>2.5</vdop><extensions><gom:speed>1.148</gom:speed></extensions></trkpt>
   <trkpt lat="59.3093624639" lon="34.6672978472"><ele>166.302</ele><time>2026-08-16T13:37:05.612Z</time><hdop>3.0</hdop><vdop>2.5</vdop><extensions><gom:speed>1.143</gom:speed></extensions></trkpt>
   <trkpt lat="59.3093579796" lon="34.6673026249"><ele>166.221</ele><time>2026-08-16T13:37:06.138Z</time><hdop>3.0</hdop><vdop>2.5</vdop><extensions><gom:speed>1.092</gom:speed></extensions></trkpt>
   <trkpt lat="59.3093520703" lon="34.6673089951"><ele>166.173</ele><time>2026-08-16T13:37:06.790Z</time><hdop>3.0</hdop><vdop>2.5</vdop><extensions><gom:speed>1.079</gom:speed></extensions></trkpt>
   <trkpt lat="59.3093458677" lon="34.6673142757"><ele>166.139</ele><time>2026-08-16T13:37:07.428Z</time><hdop>3.0</hdop><vdop>2.5</vdop><extensions><gom:speed>1.123</gom:speed></extensions></trkpt>
   <trkpt lat="59.3093383659" lon="34.6673205622"><ele>166.083</ele><time>2026-08-16T13:37:08.138Z</time><hdop>3.0</hdop><vdop>2.5</vdop><extensions><gom:speed>1.183</gom:speed></extensions></trkpt>
   <trkpt lat="59.3093292716" lon="34.6673287764"><ele>166.049</ele><time>2026-08-16T13:37:09.008Z</time><hdop>3.0</hdop><vdop>2.5</vdop><extensions><gom:speed>1.161</gom:speed></extensions></trkpt>
   <trkpt lat="59.3093220631" lon="34.6673374936"><ele>165.965</ele><time>2026-08-16T13:37:09.715Z</time><hdop>3.0</hdop><vdop>2.5</vdop><extensions><gom:speed>1.159</gom:speed></extensions></trkpt>
   <trkpt lat="59.3093170759" lon="34.6673431933"><ele>165.832</ele><time>2026-08-16T13:37:10.177Z</time><hdop>3.0</hdop><vdop>2.5</vdop><extensions><gom:speed>1.169</gom:speed></extensions></trkpt>
   <trkpt lat="59.3093099932" lon="34.6673511561"><ele>165.753</ele><time>2026-08-16T13:37:10.873Z</time><hdop>3.0</hdop><vdop>2.5</vdop><extensions><gom:speed>1.177</gom:speed></extensions></trkpt>
   <trkpt lat="59.3092953668" lon="34.6673598733"><ele>165.568</ele><time>2026-08-16T13:37:12.138Z</time><hdop>3.0</hdop><vdop>2.5</vdop><extensions><gom:speed>1.108</gom:speed></extensions></trkpt>
   <trkpt lat="59.3092839674" lon="34.6673684228"><ele>165.365</ele><time>2026-08-16T13:37:13.138Z</time><hdop>3.0</hdop><vdop>2.5</vdop><extensions><gom:speed>1.129</gom:speed></extensions></trkpt>
   <trkpt lat="59.3092781839" lon="34.6673732843"><ele>165.244</ele><time>2026-08-16T13:37:13.651Z</time><hdop>3.0</hdop><vdop>2.5</vdop><extensions><gom:speed>1.12</gom:speed></extensions></trkpt>
   <trkpt lat="59.3092729871" lon="34.6673788164"><ele>165.261</ele><time>2026-08-16T13:37:14.138Z</time><hdop>3.0</hdop><vdop>2.5</vdop><extensions><gom:speed>1.128</gom:speed></extensions></trkpt>
   <trkpt lat="59.309266072" lon="34.6673857734"><ele>165.271</ele><time>2026-08-16T13:37:14.790Z</time><hdop>3.0</hdop><vdop>2.5</vdop><extensions><gom:speed>1.126</gom:speed></extensions></trkpt>
   <trkpt lat="59.3092591989" lon="34.6673930656"><ele>165.164</ele><time>2026-08-16T13:37:15.438Z</time><hdop>3.0</hdop><vdop>2.5</vdop><extensions><gom:speed>1.144</gom:speed></extensions></trkpt>
   <trkpt lat="59.3092537925" lon="34.6673963346"><ele>165.1</ele><time>2026-08-16T13:37:15.928Z</time><hdop>3.0</hdop><vdop>2.5</vdop><extensions><gom:speed>1.151</gom:speed></extensions></trkpt>
   <trkpt lat="59.309246165" lon="34.667402621"><ele>165.018</ele><time>2026-08-16T13:37:16.576Z</time><hdop>3.0</hdop><vdop>2.5</vdop><extensions><gom:speed>1.154</gom:speed></extensions></trkpt>
   <trkpt lat="59.3092409682" lon="34.6674059738"><ele>164.97</ele><time>2026-08-16T13:37:17.037Z</time><hdop>3.0</hdop><vdop>2.5</vdop><extensions><gom:speed>1.141</gom:speed></extensions></trkpt>
   <trkpt lat="59.3092327959" lon="34.6674148586"><ele>164.955</ele><time>2026-08-16T13:37:17.852Z</time><hdop>3.0</hdop><vdop>2.5</vdop><extensions><gom:speed>1.135</gom:speed></extensions></trkpt>
   <trkpt lat="59.3092266771" lon="34.6674217317"><ele>165.021</ele><time>2026-08-16T13:37:18.471Z</time><hdop>3.0</hdop><vdop>2.5</vdop><extensions><gom:speed>1.135</gom:speed></extensions></trkpt>
   <trkpt lat="59.3092200973" lon="34.6674287725"><ele>165.06</ele><time>2026-08-16T13:37:19.138Z</time><hdop>3.0</hdop><vdop>2.5</vdop><extensions><gom:speed>1.115</gom:speed></extensions></trkpt>
   <trkpt lat="59.3092106676" lon="34.6674397528"><ele>165.017</ele><time>2026-08-16T13:37:20.138Z</time><hdop>3.0</hdop><vdop>2.5</vdop><extensions><gom:speed>1.109</gom:speed></extensions></trkpt>
   <trkpt lat="59.3092037945" lon="34.667444782"><ele>164.99</ele><time>2026-08-16T13:37:20.777Z</time><hdop>3.0</hdop><vdop>2.5</vdop><extensions><gom:speed>1.118</gom:speed></extensions></trkpt>
   <trkpt lat="59.3091975919" lon="34.6674518228"><ele>164.746</ele><time>2026-08-16T13:37:21.415Z</time><hdop>3.0</hdop><vdop>2.5</vdop><extensions><gom:speed>1.149</gom:speed></extensions></trkpt>
   <trkpt lat="59.309191976" lon="34.6674590312"><ele>164.6</ele><time>2026-08-16T13:37:22.014Z</time><hdop>3.0</hdop><vdop>2.5</vdop><extensions><gom:speed>1.133</gom:speed></extensions></trkpt>
   <trkpt lat="59.3091816663" lon="34.6674728613"><ele>164.381</ele><time>2026-08-16T13:37:23.133Z</time><hdop>3.0</hdop><vdop>2.5</vdop><extensions><gom:speed>1.144</gom:speed></extensions></trkpt>
   <trkpt lat="59.3091732844" lon="34.6674865238"><ele>164.293</ele><time>2026-08-16T13:37:24.138Z</time><hdop>3.0</hdop><vdop>2.5</vdop><extensions><gom:speed>1.163</gom:speed></extensions></trkpt>
   <trkpt lat="59.3091626812" lon="34.6674987614"><ele>164.24</ele><time>2026-08-16T13:37:25.135Z</time><hdop>3.0</hdop><vdop>2.5</vdop><extensions><gom:speed>1.188</gom:speed></extensions></trkpt>
   <trkpt lat="59.3091581969" lon="34.6675056346"><ele>163.98</ele><time>2026-08-16T13:37:25.636Z</time><hdop>3.0</hdop><vdop>2.5</vdop><extensions><gom:speed>1.191</gom:speed></extensions></trkpt>
   <trkpt lat="59.3091539641" lon="34.6675116696"><ele>163.902</ele><time>2026-08-16T13:37:26.137Z</time><hdop>3.0</hdop><vdop>2.5</vdop><extensions><gom:speed>1.193</gom:speed></extensions></trkpt>
   <trkpt lat="59.3091466718" lon="34.6675208897"><ele>163.856</ele><time>2026-08-16T13:37:26.892Z</time><hdop>3.0</hdop><vdop>2.5</vdop><extensions><gom:speed>1.188</gom:speed></extensions></trkpt>
   <trkpt lat="59.3091416846" lon="34.6675242424"><ele>163.894</ele><time>2026-08-16T13:37:27.568Z</time><hdop>3.0</hdop><vdop>2.5</vdop><extensions><gom:speed>1.13</gom:speed></extensions></trkpt>
   <trkpt lat="59.3091365716" lon="34.6675249968"><ele>164.065</ele><time>2026-08-16T13:37:28.138Z</time><hdop>3.0</hdop><vdop>2.5</vdop><extensions><gom:speed>1.08</gom:speed></extensions></trkpt>
   <trkpt lat="59.3091276868" lon="34.667521644"><ele>164.131</ele><time>2026-08-16T13:37:29.138Z</time><hdop>3.0</hdop><vdop>2.5</vdop><extensions><gom:speed>1.037</gom:speed></extensions></trkpt>
   <trkpt lat="59.3091187601" lon="34.6675160281"><ele>164.268</ele><time>2026-08-16T13:37:30.138Z</time><hdop>3.0</hdop><vdop>2.5</vdop><extensions><gom:speed>1.071</gom:speed></extensions></trkpt>
   <trkpt lat="59.3091093723" lon="34.6675223984"><ele>164.647</ele><time>2026-08-16T13:37:31.138Z</time><hdop>3.0</hdop><vdop>2.5</vdop><extensions><gom:speed>1.009</gom:speed></extensions></trkpt>
   <trkpt lat="59.3091035888" lon="34.6675277628"><ele>164.873</ele><time>2026-08-16T13:37:31.809Z</time><hdop>3.0</hdop><vdop>2.5</vdop><extensions><gom:speed>0.997</gom:speed></extensions></trkpt>
   <trkpt lat="59.3090910998" lon="34.6675363962"><ele>165.262</ele><time>2026-08-16T13:37:32.948Z</time><hdop>3.0</hdop><vdop>2.5</vdop><extensions><gom:speed>1.082</gom:speed></extensions></trkpt>
   <trkpt lat="59.309079868" lon="34.667548969"><ele>165.581</ele><time>2026-08-16T13:37:34.116Z</time><hdop>3.0</hdop><vdop>2.5</vdop><extensions><gom:speed>1.085</gom:speed></extensions></trkpt>
   <trkpt lat="59.3090735816" lon="34.6675561775"><ele>165.814</ele><time>2026-08-16T13:37:34.793Z</time><hdop>3.0</hdop><vdop>2.5</vdop><extensions><gom:speed>1.108</gom:speed></extensions></trkpt>
   <trkpt lat="59.3090678819" lon="34.6675661519"><ele>165.936</ele><time>2026-08-16T13:37:35.451Z</time><hdop>3.0</hdop><vdop>2.5</vdop><extensions><gom:speed>1.109</gom:speed></extensions></trkpt>
   <trkpt lat="59.3090630623" lon="34.6675765455"><ele>166.122</ele><time>2026-08-16T13:37:36.138Z</time><hdop>3.0</hdop><vdop>2.5</vdop><extensions><gom:speed>1.053</gom:speed></extensions></trkpt>
   <trkpt lat="59.3090581589" lon="34.6675878611"><ele>166.233</ele><time>2026-08-16T13:37:36.835Z</time><hdop>3.0</hdop><vdop>2.5</vdop><extensions><gom:speed>1.053</gom:speed></extensions></trkpt>
   <trkpt lat="59.3090468853" lon="34.6676040381"><ele>166.316</ele><time>2026-08-16T13:37:38.072Z</time><hdop>3.0</hdop><vdop>2.5</vdop><extensions><gom:speed>1.08</gom:speed></extensions></trkpt>
   <trkpt lat="59.3090405988" lon="34.6676117495"><ele>166.419</ele><time>2026-08-16T13:37:38.749Z</time><hdop>3.0</hdop><vdop>2.5</vdop><extensions><gom:speed>1.08</gom:speed></extensions></trkpt>
   <trkpt lat="59.3090357792" lon="34.6676191256"><ele>166.509</ele><time>2026-08-16T13:37:39.289Z</time><hdop>3.0</hdop><vdop>2.5</vdop><extensions><gom:speed>1.143</gom:speed></extensions></trkpt>
   <trkpt lat="59.3090286965" lon="34.6676306926"><ele>166.619</ele><time>2026-08-16T13:37:40.138Z</time><hdop>3.0</hdop><vdop>2.5</vdop><extensions><gom:speed>1.176</gom:speed></extensions></trkpt>
   <trkpt lat="59.3090221586" lon="34.6676416729"><ele>166.685</ele><time>2026-08-16T13:37:40.849Z</time><hdop>3.0</hdop><vdop>2.5</vdop><extensions><gom:speed>1.167</gom:speed></extensions></trkpt>
   <trkpt lat="59.309016878" lon="34.6676512282"><ele>166.55</ele><time>2026-08-16T13:37:41.537Z</time><hdop>3.0</hdop><vdop>2.5</vdop><extensions><gom:speed>1.145</gom:speed></extensions></trkpt>
   <trkpt lat="59.3090130643" lon="34.6676594425"><ele>166.478</ele><time>2026-08-16T13:37:42.138Z</time><hdop>3.0</hdop><vdop>2.5</vdop><extensions><gom:speed>1.079</gom:speed></extensions></trkpt>
   <trkpt lat="59.3090092924" lon="34.6676667348"><ele>166.435</ele><time>2026-08-16T13:37:42.675Z</time><hdop>3.0</hdop><vdop>2.5</vdop><extensions><gom:speed>1.075</gom:speed></extensions></trkpt>
   <trkpt lat="59.3090062749" lon="34.6676715963"><ele>166.465</ele><time>2026-08-16T13:37:43.138Z</time><hdop>3.0</hdop><vdop>2.5</vdop><extensions><gom:speed>1.047</gom:speed></extensions></trkpt>
   <trkpt lat="59.3090009943" lon="34.6676831633"><ele>166.483</ele><time>2026-08-16T13:37:43.971Z</time><hdop>3.0</hdop><vdop>2.5</vdop><extensions><gom:speed>0.992</gom:speed></extensions></trkpt>
   <trkpt lat="59.3089977673" lon="34.6676913776"><ele>166.583</ele><time>2026-08-16T13:37:44.511Z</time><hdop>3.0</hdop><vdop>2.5</vdop><extensions><gom:speed>1.006</gom:speed></extensions></trkpt>
   <trkpt lat="59.308993283" lon="34.6676989213"><ele>167.08</ele><time>2026-08-16T13:37:45.137Z</time><hdop>3.0</hdop><vdop>2.5</vdop><extensions><gom:speed>0.95</gom:speed></extensions></trkpt>
   <trkpt lat="59.3089850687" lon="34.6677069679"><ele>167.528</ele><time>2026-08-16T13:37:46.138Z</time><hdop>3.0</hdop><vdop>2.5</vdop><extensions><gom:speed>0.883</gom:speed></extensions></trkpt>
   <trkpt lat="59.3089805844" lon="34.6677098177"><ele>167.796</ele><time>2026-08-16T13:37:46.650Z</time><hdop>3.0</hdop><vdop>2.5</vdop><extensions><gom:speed>0.881</gom:speed></extensions></trkpt>
   <trkpt lat="59.3089761839" lon="34.6677120809"><ele>167.912</ele><time>2026-08-16T13:37:47.137Z</time><hdop>3.0</hdop><vdop>2.5</vdop><extensions><gom:speed>0.874</gom:speed></extensions></trkpt>
   <trkpt lat="59.3089693946" lon="34.6677195408"><ele>167.982</ele><time>2026-08-16T13:37:48.034Z</time><hdop>3.0</hdop><vdop>2.5</vdop><extensions><gom:speed>0.844</gom:speed></extensions></trkpt>
   <trkpt lat="59.3089632758" lon="34.6677250728"><ele>168.067</ele><time>2026-08-16T13:37:48.751Z</time><hdop>3.0</hdop><vdop>2.5</vdop><extensions><gom:speed>0.863</gom:speed></extensions></trkpt>
   <trkpt lat="59.3089556901" lon="34.6677233964"><ele>168.459</ele><time>2026-08-16T13:37:49.516Z</time><hdop>3.0</hdop><vdop>2.5</vdop><extensions><gom:speed>0.877</gom:speed></extensions></trkpt>
   <trkpt lat="59.3089493618" lon="34.6677204628"><ele>168.88</ele><time>2026-08-16T13:37:50.138Z</time><hdop>3.0</hdop><vdop>2.5</vdop><extensions><gom:speed>0.839</gom:speed></extensions></trkpt>
   <trkpt lat="59.3089410637" lon="34.6677215524"><ele>169.132</ele><time>2026-08-16T13:37:51.116Z</time><hdop>3.0</hdop><vdop>2.5</vdop><extensions><gom:speed>0.809</gom:speed></extensions></trkpt>
   <trkpt lat="59.3089311731" lon="34.6677256595"><ele>169.556</ele><time>2026-08-16T13:37:52.137Z</time><hdop>3.0</hdop><vdop>2.5</vdop><extensions><gom:speed>0.934</gom:speed></extensions></trkpt>
   <trkpt lat="59.3089216596" lon="34.6677305211"><ele>169.974</ele><time>2026-08-16T13:37:53.138Z</time><hdop>3.0</hdop><vdop>2.5</vdop><extensions><gom:speed>0.972</gom:speed></extensions></trkpt>
   <trkpt lat="59.3089168819" lon="34.667731024"><ele>170.223</ele><time>2026-08-16T13:37:53.609Z</time><hdop>3.0</hdop><vdop>2.5</vdop><extensions><gom:speed>0.983</gom:speed></extensions></trkpt>
   <trkpt lat="59.3089111822" lon="34.6677338738"><ele>170.41</ele><time>2026-08-16T13:37:54.138Z</time><hdop>3.0</hdop><vdop>2.5</vdop><extensions><gom:speed>1.05</gom:speed></extensions></trkpt>
   <trkpt lat="59.3089034709" lon="34.6677386515"><ele>170.522</ele><time>2026-08-16T13:37:54.856Z</time><hdop>3.0</hdop><vdop>2.5</vdop><extensions><gom:speed>1.052</gom:speed></extensions></trkpt>
   <trkpt lat="59.3088956757" lon="34.6677478716"><ele>170.651</ele><time>2026-08-16T13:37:55.591Z</time><hdop>3.0</hdop><vdop>2.5</vdop><extensions><gom:speed>1.127</gom:speed></extensions></trkpt>
   <trkpt lat="59.3088892636" lon="34.6677524816"><ele>170.727</ele><time>2026-08-16T13:37:56.132Z</time><hdop>3.0</hdop><vdop>2.5</vdop><extensions><gom:speed>1.136</gom:speed></extensions></trkpt>
   <trkpt lat="59.3088799597" lon="34.6677684911"><ele>170.961</ele><time>2026-08-16T13:37:57.138Z</time><hdop>3.0</hdop><vdop>2.5</vdop><extensions><gom:speed>1.171</gom:speed></extensions></trkpt>
   <trkpt lat="59.3088707815" lon="34.6677819859"><ele>171.041</ele><time>2026-08-16T13:37:58.138Z</time><hdop>3.0</hdop><vdop>2.5</vdop><extensions><gom:speed>1.186</gom:speed></extensions></trkpt>
   <trkpt lat="59.3088609746" lon="34.667795397"><ele>171.089</ele><time>2026-08-16T13:37:59.135Z</time><hdop>3.0</hdop><vdop>2.5</vdop><extensions><gom:speed>1.185</gom:speed></extensions></trkpt>
   <trkpt lat="59.3088572866" lon="34.6678028569"><ele>171.214</ele><time>2026-08-16T13:37:59.656Z</time><hdop>3.0</hdop><vdop>2.5</vdop><extensions><gom:speed>1.169</gom:speed></extensions></trkpt>
   <trkpt lat="59.3088538919" lon="34.6678077184"><ele>171.391</ele><time>2026-08-16T13:38:00.138Z</time><hdop>3.0</hdop><vdop>2.5</vdop><extensions><gom:speed>1.177</gom:speed></extensions></trkpt>
   <trkpt lat="59.308847396" lon="34.6678123284"><ele>171.497</ele><time>2026-08-16T13:38:00.813Z</time><hdop>3.0</hdop><vdop>2.5</vdop><extensions><gom:speed>1.173</gom:speed></extensions></trkpt>
   <trkpt lat="59.3088403971" lon="34.6678200398"><ele>171.392</ele><time>2026-08-16T13:38:01.589Z</time><hdop>3.0</hdop><vdop>2.5</vdop><extensions><gom:speed>1.154</gom:speed></extensions></trkpt>
   <trkpt lat="59.3088359966" lon="34.6678263262"><ele>171.216</ele><time>2026-08-16T13:38:02.138Z</time><hdop>3.0</hdop><vdop>2.5</vdop><extensions><gom:speed>1.095</gom:speed></extensions></trkpt>
   <trkpt lat="59.308829291" lon="34.6678341214"><ele>171.111</ele><time>2026-08-16T13:38:02.895Z</time><hdop>3.0</hdop><vdop>2.5</vdop><extensions><gom:speed>1.1</gom:speed></extensions></trkpt>
   <trkpt lat="59.3088262736" lon="34.6678416651"><ele>171.144</ele><time>2026-08-16T13:38:03.356Z</time><hdop>3.0</hdop><vdop>2.5</vdop><extensions><gom:speed>1.116</gom:speed></extensions></trkpt>
   <trkpt lat="59.30882049" lon="34.6678503823"><ele>171.048</ele><time>2026-08-16T13:38:04.138Z</time><hdop>3.0</hdop><vdop>2.5</vdop><extensions><gom:speed>1.07</gom:speed></extensions></trkpt>
   <trkpt lat="59.3088126949" lon="34.6678594347"><ele>171.033</ele><time>2026-08-16T13:38:05.138Z</time><hdop>3.0</hdop><vdop>2.5</vdop><extensions><gom:speed>0.985</gom:speed></extensions></trkpt>
   <trkpt lat="59.3088058636" lon="34.6678657211"><ele>171.024</ele><time>2026-08-16T13:38:05.957Z</time><hdop>3.0</hdop><vdop>2.5</vdop><extensions><gom:speed>0.969</gom:speed></extensions></trkpt>
   <trkpt lat="59.3088003735" lon="34.6678732649"><ele>171.072</ele><time>2026-08-16T13:38:06.713Z</time><hdop>3.0</hdop><vdop>2.5</vdop><extensions><gom:speed>0.992</gom:speed></extensions></trkpt>
   <trkpt lat="59.3087969788" lon="34.6678832393"><ele>171.188</ele><time>2026-08-16T13:38:07.272Z</time><hdop>3.0</hdop><vdop>2.5</vdop><extensions><gom:speed>1.03</gom:speed></extensions></trkpt>
   <trkpt lat="59.308791782" lon="34.6678960636"><ele>171.195</ele><time>2026-08-16T13:38:08.138Z</time><hdop>3.0</hdop><vdop>2.5</vdop><extensions><gom:speed>1.024</gom:speed></extensions></trkpt>
   <trkpt lat="59.3087861662" lon="34.6679112349"><ele>171.272</ele><time>2026-08-16T13:38:09.138Z</time><hdop>3.0</hdop><vdop>2.5</vdop><extensions><gom:speed>0.982</gom:speed></extensions></trkpt>
   <trkpt lat="59.3087824781" lon="34.667919533"><ele>171.318</ele><time>2026-08-16T13:38:09.716Z</time><hdop>3.0</hdop><vdop>2.5</vdop><extensions><gom:speed>0.97</gom:speed></extensions></trkpt>
   <trkpt lat="59.3087763593" lon="34.6679235563"><ele>171.212</ele><time>2026-08-16T13:38:10.472Z</time><hdop>3.0</hdop><vdop>2.5</vdop><extensions><gom:speed>0.944</gom:speed></extensions></trkpt>
   <trkpt lat="59.3087707854" lon="34.6679231372"><ele>171.149</ele><time>2026-08-16T13:38:11.090Z</time><hdop>3.0</hdop><vdop>2.5</vdop><extensions><gom:speed>0.935</gom:speed></extensions></trkpt>
   <trkpt lat="59.308766762" lon="34.6679244783"><ele>171.437</ele><time>2026-08-16T13:38:11.552Z</time><hdop>3.0</hdop><vdop>2.5</vdop><extensions><gom:speed>0.973</gom:speed></extensions></trkpt>
   <trkpt lat="59.3087603918" lon="34.6679238916"><ele>171.263</ele><time>2026-08-16T13:38:12.138Z</time><hdop>3.0</hdop><vdop>2.5</vdop><extensions><gom:speed>1.107</gom:speed></extensions></trkpt>
   <trkpt lat="59.3087530995" lon="34.6679184433"><ele>171.11</ele><time>2026-08-16T13:38:13.138Z</time><hdop>3.0</hdop><vdop>2.5</vdop><extensions><gom:speed>0.729</gom:speed></extensions></trkpt>
   <trkpt lat="59.3087516746" lon="34.6679127436"><ele>170.997</ele><time>2026-08-16T13:38:14.138Z</time><hdop>3.0</hdop><vdop>2.5</vdop><extensions><gom:speed>0.341</gom:speed></extensions></trkpt>
   <trkpt lat="59.3087556979" lon="34.6679133304"><ele>170.915</ele><time>2026-08-16T13:38:15.138Z</time><hdop>3.0</hdop><vdop>2.5</vdop><extensions><gom:speed>0.107</gom:speed></extensions></trkpt>
   <trkpt lat="59.3087582963" lon="34.6679135818"><ele>170.891</ele><time>2026-08-16T13:38:16.138Z</time><hdop>3.0</hdop><vdop>2.5</vdop><extensions><gom:speed>0.041</gom:speed></extensions></trkpt>
   <trkpt lat="59.3087590926" lon="34.6679135818"><ele>170.876</ele><time>2026-08-16T13:38:17.137Z</time><hdop>3.0</hdop><vdop>2.5</vdop><extensions><gom:speed>0.06</gom:speed></extensions></trkpt>
   <trkpt lat="59.3087594698" lon="34.6679128274"><ele>170.896</ele><time>2026-08-16T13:38:18.138Z</time><hdop>3.0</hdop><vdop>2.5</vdop><extensions><gom:speed>0.067</gom:speed></extensions></trkpt>
   <trkpt lat="59.3087591764" lon="34.6679120731"><ele>170.878</ele><time>2026-08-16T13:38:19.138Z</time><hdop>3.0</hdop><vdop>2.5</vdop><extensions><gom:speed>0.018</gom:speed></extensions></trkpt>
   <trkpt lat="59.3087590926" lon="34.6679104805"><ele>170.701</ele><time>2026-08-16T13:38:20.138Z</time><hdop>3.0</hdop><vdop>2.5</vdop><extensions><gom:speed>0.056</gom:speed></extensions></trkpt>
   <trkpt lat="59.3087581706" lon="34.6679087203"><ele>170.562</ele><time>2026-08-16T13:38:21.138Z</time><hdop>3.0</hdop><vdop>2.5</vdop><extensions><gom:speed>0.072</gom:speed></extensions></trkpt>
   <trkpt lat="59.3087577934" lon="34.667907463"><ele>170.473</ele><time>2026-08-16T13:38:22.138Z</time><hdop>3.0</hdop><vdop>2.5</vdop><extensions><gom:speed>0.041</gom:speed></extensions></trkpt>
   <trkpt lat="59.3087536863" lon="34.6679021824"><ele>170.206</ele><time>2026-08-16T13:38:23.138Z</time><hdop>3.0</hdop><vdop>2.5</vdop><extensions><gom:speed>0.233</gom:speed></extensions></trkpt>
   <trkpt lat="59.3087513813" lon="34.667899584"><ele>170.046</ele><time>2026-08-16T13:38:23.771Z</time><hdop>3.0</hdop><vdop>2.5</vdop><extensions><gom:speed>0.27</gom:speed></extensions></trkpt>
   <trkpt lat="59.3087462683" lon="34.6678891905"><ele>169.587</ele><time>2026-08-16T13:38:24.410Z</time><hdop>3.0</hdop><vdop>2.5</vdop><extensions><gom:speed>0.495</gom:speed></extensions></trkpt>
   <trkpt lat="59.308739898" lon="34.6678775396"><ele>169.265</ele><time>2026-08-16T13:38:25.138Z</time><hdop>3.0</hdop><vdop>2.5</vdop><extensions><gom:speed>0.676</gom:speed></extensions></trkpt>
   <trkpt lat="59.3087304684" lon="34.6678674813"><ele>168.776</ele><time>2026-08-16T13:38:26.138Z</time><hdop>3.0</hdop><vdop>2.5</vdop><extensions><gom:speed>0.82</gom:speed></extensions></trkpt>
   <trkpt lat="59.3087219608" lon="34.6678616978"><ele>168.685</ele><time>2026-08-16T13:38:27.138Z</time><hdop>3.0</hdop><vdop>2.5</vdop><extensions><gom:speed>0.878</gom:speed></extensions></trkpt>
   <trkpt lat="59.3087168897" lon="34.6678572554"><ele>168.63</ele><time>2026-08-16T13:38:27.688Z</time><hdop>3.0</hdop><vdop>2.5</vdop><extensions><gom:speed>0.889</gom:speed></extensions></trkpt>
   <trkpt lat="59.3087140818" lon="34.6678480353"><ele>168.145</ele><time>2026-08-16T13:38:28.138Z</time><hdop>3.0</hdop><vdop>2.5</vdop><extensions><gom:speed>0.936</gom:speed></extensions></trkpt>
   <trkpt lat="59.3087074601" lon="34.6678318583"><ele>167.855</ele><time>2026-08-16T13:38:29.112Z</time><hdop>3.0</hdop><vdop>2.5</vdop><extensions><gom:speed>0.968</gom:speed></extensions></trkpt>
   <trkpt lat="59.3087049874" lon="34.6677964866"><ele>168.07</ele><time>2026-08-16T13:38:30.138Z</time><hdop>3.0</hdop><vdop>2.5</vdop><extensions><gom:speed>1.045</gom:speed></extensions></trkpt>
   <trkpt lat="59.3087026824" lon="34.6677663956"><ele>168.146</ele><time>2026-08-16T13:38:31.138Z</time><hdop>3.0</hdop><vdop>2.5</vdop><extensions><gom:speed>1.054</gom:speed></extensions></trkpt>
   <trkpt lat="59.3087008803" lon="34.6677539904"><ele>168.191</ele><time>2026-08-16T13:38:31.634Z</time><hdop>3.0</hdop><vdop>2.5</vdop><extensions><gom:speed>1.051</gom:speed></extensions></trkpt>
   <trkpt lat="59.3086999583" lon="34.6677386515"><ele>167.89</ele><time>2026-08-16T13:38:32.138Z</time><hdop>3.0</hdop><vdop>2.5</vdop><extensions><gom:speed>1.045</gom:speed></extensions></trkpt>
   <trkpt lat="59.3086973599" lon="34.667718032"><ele>167.71</ele><time>2026-08-16T13:38:33.038Z</time><hdop>3.0</hdop><vdop>2.5</vdop><extensions><gom:speed>1.049</gom:speed></extensions></trkpt>
   <trkpt lat="59.3086972761" lon="34.6676945627"><ele>167.437</ele><time>2026-08-16T13:38:33.813Z</time><hdop>3.0</hdop><vdop>2.5</vdop><extensions><gom:speed>1.063</gom:speed></extensions></trkpt>
   <trkpt lat="59.3086979885" lon="34.6676766254"><ele>167.756</ele><time>2026-08-16T13:38:34.353Z</time><hdop>3.0</hdop><vdop>2.5</vdop><extensions><gom:speed>1.06</gom:speed></extensions></trkpt>
   <trkpt lat="59.3086978628" lon="34.6676571794"><ele>168.093</ele><time>2026-08-16T13:38:35.138Z</time><hdop>3.0</hdop><vdop>2.5</vdop><extensions><gom:speed>1.017</gom:speed></extensions></trkpt>
   <trkpt lat="59.3086979885" lon="34.6676377334"><ele>168.294</ele><time>2026-08-16T13:38:36.051Z</time><hdop>3.0</hdop><vdop>2.5</vdop><extensions><gom:speed>0.964</gom:speed></extensions></trkpt>
   <trkpt lat="59.3087009641" lon="34.6676198799"><ele>168.375</ele><time>2026-08-16T13:38:36.777Z</time><hdop>3.0</hdop><vdop>2.5</vdop><extensions><gom:speed>1.004</gom:speed></extensions></trkpt>
   <trkpt lat="59.308703772" lon="34.6676064689"><ele>168.359</ele><time>2026-08-16T13:38:37.278Z</time><hdop>3.0</hdop><vdop>2.5</vdop><extensions><gom:speed>1.048</gom:speed></extensions></trkpt>
   <trkpt lat="59.3087072924" lon="34.6675888669"><ele>167.847</ele><time>2026-08-16T13:38:38.138Z</time><hdop>3.0</hdop><vdop>2.5</vdop><extensions><gom:speed>0.968</gom:speed></extensions></trkpt>
   <trkpt lat="59.3087075858" lon="34.6675789762"><ele>167.542</ele><time>2026-08-16T13:38:38.613Z</time><hdop>3.0</hdop><vdop>2.5</vdop><extensions><gom:speed>0.965</gom:speed></extensions></trkpt>
   <trkpt lat="59.30870658" lon="34.6675675769"><ele>167.181</ele><time>2026-08-16T13:38:39.138Z</time><hdop>3.0</hdop><vdop>2.5</vdop><extensions><gom:speed>0.992</gom:speed></extensions></trkpt>
   <trkpt lat="59.3087043588" lon="34.6675521542"><ele>166.966</ele><time>2026-08-16T13:38:39.908Z</time><hdop>3.0</hdop><vdop>2.5</vdop><extensions><gom:speed>0.997</gom:speed></extensions></trkpt>
   <trkpt lat="59.3086979885" lon="34.6675360609"><ele>166.832</ele><time>2026-08-16T13:38:40.772Z</time><hdop>3.0</hdop><vdop>2.5</vdop><extensions><gom:speed>1.036</gom:speed></extensions></trkpt>
   <trkpt lat="59.3086924984" lon="34.6675321214"><ele>166.756</ele><time>2026-08-16T13:38:41.233Z</time><hdop>3.0</hdop><vdop>2.5</vdop><extensions><gom:speed>1.003</gom:speed></extensions></trkpt>
   <trkpt lat="59.308684787" lon="34.6675230689"><ele>166.71</ele><time>2026-08-16T13:38:42.117Z</time><hdop>3.0</hdop><vdop>2.5</vdop><extensions><gom:speed>0.974</gom:speed></extensions></trkpt>
   <trkpt lat="59.3086782911" lon="34.6675210573"><ele>166.835</ele><time>2026-08-16T13:38:42.676Z</time><hdop>3.0</hdop><vdop>2.5</vdop><extensions><gom:speed>0.98</gom:speed></extensions></trkpt>
   <trkpt lat="59.3086731781" lon="34.6675208897"><ele>166.718</ele><time>2026-08-16T13:38:43.138Z</time><hdop>3.0</hdop><vdop>2.5</vdop><extensions><gom:speed>1.002</gom:speed></extensions></trkpt>
   <trkpt lat="59.3086655925" lon="34.6675195485"><ele>166.647</ele><time>2026-08-16T13:38:43.874Z</time><hdop>3.0</hdop><vdop>2.5</vdop><extensions><gom:speed>1.004</gom:speed></extensions></trkpt>
   <trkpt lat="59.3086508822" lon="34.6675282657"><ele>166.51</ele><time>2026-08-16T13:38:45.138Z</time><hdop>3.0</hdop><vdop>2.5</vdop><extensions><gom:speed>1.033</gom:speed></extensions></trkpt>
   <trkpt lat="59.3086416621" lon="34.6675342169"><ele>166.428</ele><time>2026-08-16T13:38:45.994Z</time><hdop>3.0</hdop><vdop>2.5</vdop><extensions><gom:speed>1.0</gom:speed></extensions></trkpt>
   <trkpt lat="59.3086368845" lon="34.6675378211"><ele>166.752</ele><time>2026-08-16T13:38:46.475Z</time><hdop>3.0</hdop><vdop>2.5</vdop><extensions><gom:speed>1.003</gom:speed></extensions></trkpt>
   <trkpt lat="59.3086298856" lon="34.6675381564"><ele>167.131</ele><time>2026-08-16T13:38:47.137Z</time><hdop>3.0</hdop><vdop>2.5</vdop><extensions><gom:speed>1.04</gom:speed></extensions></trkpt>
   <trkpt lat="59.3086200787" lon="34.6675338816"><ele>167.356</ele><time>2026-08-16T13:38:48.094Z</time><hdop>3.0</hdop><vdop>2.5</vdop><extensions><gom:speed>1.032</gom:speed></extensions></trkpt>
   <trkpt lat="59.3086142952" lon="34.6675301936"><ele>167.528</ele><time>2026-08-16T13:38:48.713Z</time><hdop>3.0</hdop><vdop>2.5</vdop><extensions><gom:speed>1.071</gom:speed></extensions></trkpt>
   <trkpt lat="59.3086105653" lon="34.6675229851"><ele>167.813</ele><time>2026-08-16T13:38:49.194Z</time><hdop>3.0</hdop><vdop>2.562</vdop><extensions><gom:speed>1.145</gom:speed></extensions></trkpt>
   <trkpt lat="59.3086045722" lon="34.6675085683"><ele>167.983</ele><time>2026-08-16T13:38:50.077Z</time><hdop>3.0</hdop><vdop>2.562</vdop><extensions><gom:speed>1.054</gom:speed></extensions></trkpt>
   <trkpt lat="59.3086008842" lon="34.667502198"><ele>167.912</ele><time>2026-08-16T13:38:50.548Z</time><hdop>3.0</hdop><vdop>2.5</vdop><extensions><gom:speed>1.077</gom:speed></extensions></trkpt>
   <trkpt lat="59.3085959808" lon="34.6674989291"><ele>168.22</ele><time>2026-08-16T13:38:51.138Z</time><hdop>3.0</hdop><vdop>2.5</vdop><extensions><gom:speed>0.985</gom:speed></extensions></trkpt>
   <trkpt lat="59.3085888981" lon="34.6674967498"><ele>168.403</ele><time>2026-08-16T13:38:51.893Z</time><hdop>3.0</hdop><vdop>2.5</vdop><extensions><gom:speed>0.978</gom:speed></extensions></trkpt>
   <trkpt lat="59.3085770796" lon="34.667501276"><ele>168.825</ele><time>2026-08-16T13:38:53.138Z</time><hdop>3.0</hdop><vdop>2.5</vdop><extensions><gom:speed>0.994</gom:speed></extensions></trkpt>
   <trkpt lat="59.3085679852" lon="34.6675042935"><ele>169.078</ele><time>2026-08-16T13:38:54.092Z</time><hdop>3.0</hdop><vdop>2.5</vdop><extensions><gom:speed>0.887</gom:speed></extensions></trkpt>
   <trkpt lat="59.3085614892" lon="34.6675025333"><ele>169.879</ele><time>2026-08-16T13:38:54.710Z</time><hdop>3.0</hdop><vdop>2.5</vdop><extensions><gom:speed>0.963</gom:speed></extensions></trkpt>
   <trkpt lat="59.3085533588" lon="34.667495241"><ele>170.679</ele><time>2026-08-16T13:38:55.515Z</time><hdop>3.0</hdop><vdop>2.5</vdop><extensions><gom:speed>1.055</gom:speed></extensions></trkpt>
   <trkpt lat="59.3085478686" lon="34.6674889546"><ele>171.157</ele><time>2026-08-16T13:38:56.113Z</time><hdop>3.0</hdop><vdop>2.5</vdop><extensions><gom:speed>1.033</gom:speed></extensions></trkpt>
   <trkpt lat="59.3085378942" lon="34.6674909663"><ele>171.418</ele><time>2026-08-16T13:38:56.849Z</time><hdop>3.0</hdop><vdop>2.5</vdop><extensions><gom:speed>1.123</gom:speed></extensions></trkpt>
   <trkpt lat="59.308530099" lon="34.6675010245"><ele>172.017</ele><time>2026-08-16T13:38:57.478Z</time><hdop>3.0</hdop><vdop>2.5</vdop><extensions><gom:speed>1.122</gom:speed></extensions></trkpt>
   <trkpt lat="59.3085227648" lon="34.667510077"><ele>172.592</ele><time>2026-08-16T13:38:58.138Z</time><hdop>3.0</hdop><vdop>2.5</vdop><extensions><gom:speed>1.113</gom:speed></extensions></trkpt>
   <trkpt lat="59.3085168975" lon="34.6675156929"><ele>172.936</ele><time>2026-08-16T13:38:58.695Z</time><hdop>3.0</hdop><vdop>2.5</vdop><extensions><gom:speed>1.113</gom:speed></extensions></trkpt>
   <trkpt lat="59.3085077612" lon="34.6675177883"><ele>173.492</ele><time>2026-08-16T13:38:59.509Z</time><hdop>3.0</hdop><vdop>2.5</vdop><extensions><gom:speed>1.109</gom:speed></extensions></trkpt>
   <trkpt lat="59.3085021873" lon="34.6675169502"><ele>173.825</ele><time>2026-08-16T13:39:00.010Z</time><hdop>3.0</hdop><vdop>2.5</vdop><extensions><gom:speed>1.102</gom:speed></extensions></trkpt>
   <trkpt lat="59.3084942664" lon="34.6675143518"><ele>174.369</ele><time>2026-08-16T13:39:00.717Z</time><hdop>3.0</hdop><vdop>2.5</vdop><extensions><gom:speed>1.132</gom:speed></extensions></trkpt>
   <trkpt lat="59.3084879799" lon="34.6675089873"><ele>175.045</ele><time>2026-08-16T13:39:01.296Z</time><hdop>3.0</hdop><vdop>2.5</vdop><extensions><gom:speed>1.131</gom:speed></extensions></trkpt>
   <trkpt lat="59.3084819869" lon="34.6675026171"><ele>175.448</ele><time>2026-08-16T13:39:01.895Z</time><hdop>3.0</hdop><vdop>2.5</vdop><extensions><gom:speed>1.135</gom:speed></extensions></trkpt>
   <trkpt lat="59.3084774607" lon="34.6674911339"><ele>175.762</ele><time>2026-08-16T13:39:02.474Z</time><hdop>3.0</hdop><vdop>2.812</vdop><extensions><gom:speed>1.159</gom:speed></extensions></trkpt>
   <trkpt lat="59.3084735631" lon="34.6674826682"><ele>175.95</ele><time>2026-08-16T13:39:02.955Z</time><hdop>3.0</hdop><vdop>2.812</vdop><extensions><gom:speed>1.162</gom:speed></extensions></trkpt>
   <trkpt lat="59.3084692883" lon="34.6674687542"><ele>175.718</ele><time>2026-08-16T13:39:03.632Z</time><hdop>3.0</hdop><vdop>2.625</vdop><extensions><gom:speed>1.139</gom:speed></extensions></trkpt>
   <trkpt lat="59.3084654745" lon="34.6674597856"><ele>175.638</ele><time>2026-08-16T13:39:04.138Z</time><hdop>3.0</hdop><vdop>2.687</vdop><extensions><gom:speed>1.117</gom:speed></extensions></trkpt>
   <trkpt lat="59.3084578889" lon="34.6674499788"><ele>175.59</ele><time>2026-08-16T13:39:04.937Z</time><hdop>3.0</hdop><vdop>2.687</vdop><extensions><gom:speed>1.117</gom:speed></extensions></trkpt>
   <trkpt lat="59.3084497585" lon="34.6674423512"><ele>175.592</ele><time>2026-08-16T13:39:05.713Z</time><hdop>3.0</hdop><vdop>2.625</vdop><extensions><gom:speed>1.145</gom:speed></extensions></trkpt>
   <trkpt lat="59.3084446874" lon="34.6674386632"><ele>175.621</ele><time>2026-08-16T13:39:06.233Z</time><hdop>3.0</hdop><vdop>2.625</vdop><extensions><gom:speed>1.138</gom:speed></extensions></trkpt>
   <trkpt lat="59.3084375628" lon="34.6674343884"><ele>175.638</ele><time>2026-08-16T13:39:06.910Z</time><hdop>3.0</hdop><vdop>2.625</vdop><extensions><gom:speed>1.145</gom:speed></extensions></trkpt>
   <trkpt lat="59.3084321984" lon="34.6674332988"><ele>175.669</ele><time>2026-08-16T13:39:07.431Z</time><hdop>3.0</hdop><vdop>2.687</vdop><extensions><gom:speed>1.145</gom:speed></extensions></trkpt>
   <trkpt lat="59.3084254929" lon="34.667430868"><ele>175.76</ele><time>2026-08-16T13:39:08.138Z</time><hdop>3.0</hdop><vdop>2.687</vdop><extensions><gom:speed>1.074</gom:speed></extensions></trkpt>
   <trkpt lat="59.3084185778" lon="34.6674287725"><ele>175.814</ele><time>2026-08-16T13:39:08.853Z</time><hdop>3.0</hdop><vdop>2.687</vdop><extensions><gom:speed>1.064</gom:speed></extensions></trkpt>
   <trkpt lat="59.3084121656" lon="34.6674321253"><ele>175.965</ele><time>2026-08-16T13:39:09.512Z</time><hdop>3.0</hdop><vdop>2.687</vdop><extensions><gom:speed>1.057</gom:speed></extensions></trkpt>
   <trkpt lat="59.3084072622" lon="34.6674391661"><ele>175.693</ele><time>2026-08-16T13:39:10.138Z</time><hdop>3.0</hdop><vdop>2.625</vdop><extensions><gom:speed>1.019</gom:speed></extensions></trkpt>
   <trkpt lat="59.3084005986" lon="34.6674522419"><ele>175.721</ele><time>2026-08-16T13:39:11.138Z</time><hdop>3.0</hdop><vdop>2.812</vdop><extensions><gom:speed>0.967</gom:speed></extensions></trkpt>
   <trkpt lat="59.3083915881" lon="34.6674560975"><ele>176.011</ele><time>2026-08-16T13:39:12.138Z</time><hdop>3.0</hdop><vdop>2.625</vdop><extensions><gom:speed>1.001</gom:speed></extensions></trkpt>
   <trkpt lat="59.3083831643" lon="34.6674485538"><ele>176.183</ele><time>2026-08-16T13:39:13.075Z</time><hdop>3.0</hdop><vdop>2.625</vdop><extensions><gom:speed>0.951</gom:speed></extensions></trkpt>
   <trkpt lat="59.3083766683" lon="34.6674364839"><ele>176.739</ele><time>2026-08-16T13:39:13.830Z</time><hdop>3.0</hdop><vdop>2.562</vdop><extensions><gom:speed>1.025</gom:speed></extensions></trkpt>
   <trkpt lat="59.308370298" lon="34.6674197201"><ele>177.208</ele><time>2026-08-16T13:39:14.557Z</time><hdop>3.0</hdop><vdop>2.5</vdop><extensions><gom:speed>1.133</gom:speed></extensions></trkpt>
   <trkpt lat="59.3083655623" lon="34.667407734"><ele>177.022</ele><time>2026-08-16T13:39:15.138Z</time><hdop>3.0</hdop><vdop>2.5</vdop><extensions><gom:speed>1.146</gom:speed></extensions></trkpt>
   <trkpt lat="59.3083593596" lon="34.667395664"><ele>176.911</ele><time>2026-08-16T13:39:15.872Z</time><hdop>3.0</hdop><vdop>2.5</vdop><extensions><gom:speed>1.139</gom:speed></extensions></trkpt>
   <trkpt lat="59.3083548753" lon="34.6673899643"><ele>176.916</ele><time>2026-08-16T13:39:16.392Z</time><hdop>3.0</hdop><vdop>2.5</vdop><extensions><gom:speed>1.126</gom:speed></extensions></trkpt>
   <trkpt lat="59.3083489661" lon="34.6673864439"><ele>177.368</ele><time>2026-08-16T13:39:17.138Z</time><hdop>3.0</hdop><vdop>2.5</vdop><extensions><gom:speed>1.046</gom:speed></extensions></trkpt>
   <trkpt lat="59.3083405842" lon="34.6673866954"><ele>177.674</ele><time>2026-08-16T13:39:18.138Z</time><hdop>3.0</hdop><vdop>2.5</vdop><extensions><gom:speed>1.033</gom:speed></extensions></trkpt>
   <trkpt lat="59.3083359741" lon="34.6673864439"><ele>177.856</ele><time>2026-08-16T13:39:18.630Z</time><hdop>3.0</hdop><vdop>2.5</vdop><extensions><gom:speed>1.033</gom:speed></extensions></trkpt>
   <trkpt lat="59.3083330824" lon="34.6673857734"><ele>177.879</ele><time>2026-08-16T13:39:19.138Z</time><hdop>3.0</hdop><vdop>2.687</vdop><extensions><gom:speed>0.913</gom:speed></extensions></trkpt>
   <trkpt lat="59.3083297715" lon="34.6673838455"><ele>177.893</ele><time>2026-08-16T13:39:19.612Z</time><hdop>3.0</hdop><vdop>2.687</vdop><extensions><gom:speed>0.91</gom:speed></extensions></trkpt>
   <trkpt lat="59.3083266702" lon="34.6673806604"><ele>178.103</ele><time>2026-08-16T13:39:20.138Z</time><hdop>3.0</hdop><vdop>2.75</vdop><extensions><gom:speed>0.863</gom:speed></extensions></trkpt>
   <trkpt lat="59.3083218925" lon="34.6673717756"><ele>178.229</ele><time>2026-08-16T13:39:21.113Z</time><hdop>3.0</hdop><vdop>2.75</vdop><extensions><gom:speed>0.702</gom:speed></extensions></trkpt>
   <trkpt lat="59.3083200904" lon="34.6673578616"><ele>178.261</ele><time>2026-08-16T13:39:21.850Z</time><hdop>3.0</hdop><vdop>2.812</vdop><extensions><gom:speed>0.831</gom:speed></extensions></trkpt>
   <trkpt lat="59.3083205933" lon="34.66733917"><ele>177.843</ele><time>2026-08-16T13:39:22.733Z</time><hdop>3.0</hdop><vdop>2.75</vdop><extensions><gom:speed>0.886</gom:speed></extensions></trkpt>
   <trkpt lat="59.3083204676" lon="34.6673218195"><ele>177.654</ele><time>2026-08-16T13:39:23.508Z</time><hdop>3.0</hdop><vdop>2.687</vdop><extensions><gom:speed>0.926</gom:speed></extensions></trkpt>
   <trkpt lat="59.3083187912" lon="34.6673116773"><ele>177.541</ele><time>2026-08-16T13:39:24.117Z</time><hdop>3.0</hdop><vdop>2.687</vdop><extensions><gom:speed>0.855</gom:speed></extensions></trkpt>
   <trkpt lat="59.3083185817" lon="34.6672956679"><ele>177.358</ele><time>2026-08-16T13:39:25.137Z</time><hdop>3.0</hdop><vdop>2.5</vdop><extensions><gom:speed>0.822</gom:speed></extensions></trkpt>
   <trkpt lat="59.3083186655" lon="34.6672839332"><ele>177.249</ele><time>2026-08-16T13:39:25.835Z</time><hdop>3.0</hdop><vdop>2.5</vdop><extensions><gom:speed>0.819</gom:speed></extensions></trkpt>
   <trkpt lat="59.3083190846" lon="34.6672616374"><ele>176.9</ele><time>2026-08-16T13:39:27.138Z</time><hdop>3.0</hdop><vdop>2.5</vdop><extensions><gom:speed>0.821</gom:speed></extensions></trkpt>
   <trkpt lat="59.3083184979" lon="34.6672493998"><ele>176.692</ele><time>2026-08-16T13:39:27.876Z</time><hdop>3.0</hdop><vdop>2.5</vdop><extensions><gom:speed>0.811</gom:speed></extensions></trkpt>
   <trkpt lat="59.3083195875" lon="34.6672347315"><ele>176.687</ele><time>2026-08-16T13:39:28.652Z</time><hdop>3.0</hdop><vdop>2.625</vdop><extensions><gom:speed>0.845</gom:speed></extensions></trkpt>
   <trkpt lat="59.3083186655" lon="34.6672254276"><ele>176.63</ele><time>2026-08-16T13:39:29.137Z</time><hdop>3.0</hdop><vdop>2.5</vdop><extensions><gom:speed>0.891</gom:speed></extensions></trkpt>
   <trkpt lat="59.3083143907" lon="34.6672135253"><ele>176.596</ele><time>2026-08-16T13:39:29.977Z</time><hdop>3.0</hdop><vdop>2.5</vdop><extensions><gom:speed>0.85</gom:speed></extensions></trkpt>
   <trkpt lat="59.3083083977" lon="34.6672057301"><ele>175.89</ele><time>2026-08-16T13:39:30.831Z</time><hdop>3.0</hdop><vdop>2.5</vdop><extensions><gom:speed>0.89</gom:speed></extensions></trkpt>
   <trkpt lat="59.3083030752" lon="34.6671993598"><ele>175.903</ele><time>2026-08-16T13:39:31.557Z</time><hdop>3.0</hdop><vdop>2.5</vdop><extensions><gom:speed>0.896</gom:speed></extensions></trkpt>
   <trkpt lat="59.3082995967" lon="34.6671941631"><ele>175.725</ele><time>2026-08-16T13:39:32.138Z</time><hdop>3.0</hdop><vdop>2.5</vdop><extensions><gom:speed>0.836</gom:speed></extensions></trkpt>
   <trkpt lat="59.3082944837" lon="34.6671827637"><ele>175.618</ele><time>2026-08-16T13:39:33.117Z</time><hdop>3.0</hdop><vdop>2.5</vdop><extensions><gom:speed>0.843</gom:speed></extensions></trkpt>
   <trkpt lat="59.3082937713" lon="34.6671692688"><ele>175.526</ele><time>2026-08-16T13:39:33.795Z</time><hdop>3.0</hdop><vdop>2.5</vdop><extensions><gom:speed>0.88</gom:speed></extensions></trkpt>
   <trkpt lat="59.3082939808" lon="34.6671495713"><ele>175.362</ele><time>2026-08-16T13:39:34.816Z</time><hdop>3.0</hdop><vdop>2.5</vdop><extensions><gom:speed>0.879</gom:speed></extensions></trkpt>
   <trkpt lat="59.3082939808" lon="34.6671324723"><ele>175.41</ele><time>2026-08-16T13:39:35.778Z</time><hdop>3.0</hdop><vdop>2.5</vdop><extensions><gom:speed>0.833</gom:speed></extensions></trkpt>
   <trkpt lat="59.3082954895" lon="34.6671178877"><ele>175.677</ele><time>2026-08-16T13:39:36.750Z</time><hdop>3.0</hdop><vdop>2.5</vdop><extensions><gom:speed>0.741</gom:speed></extensions></trkpt>
   <trkpt lat="59.3082927654" lon="34.6671048958"><ele>175.761</ele><time>2026-08-16T13:39:37.594Z</time><hdop>3.0</hdop><vdop>2.5</vdop><extensions><gom:speed>0.834</gom:speed></extensions></trkpt>
   <trkpt lat="59.3082898737" lon="34.6671012916"><ele>175.551</ele><time>2026-08-16T13:39:38.138Z</time><hdop>3.0</hdop><vdop>2.5</vdop><extensions><gom:speed>0.794</gom:speed></extensions></trkpt>
   <trkpt lat="59.3082871915" lon="34.6670956757"><ele>175.425</ele><time>2026-08-16T13:39:38.673Z</time><hdop>3.0</hdop><vdop>2.5</vdop><extensions><gom:speed>0.802</gom:speed></extensions></trkpt>
   <trkpt lat="59.3082842997" lon="34.6670929935"><ele>175.648</ele><time>2026-08-16T13:39:39.138Z</time><hdop>3.0</hdop><vdop>2.5</vdop><extensions><gom:speed>0.795</gom:speed></extensions></trkpt>
   <trkpt lat="59.3082802764" lon="34.6670929935"><ele>175.781</ele><time>2026-08-16T13:39:39.635Z</time><hdop>3.0</hdop><vdop>2.5</vdop><extensions><gom:speed>0.8</gom:speed></extensions></trkpt>
   <trkpt lat="59.3082763788" lon="34.6670962624"><ele>176.104</ele><time>2026-08-16T13:39:40.138Z</time><hdop>3.0</hdop><vdop>2.5</vdop><extensions><gom:speed>0.894</gom:speed></extensions></trkpt>
   <trkpt lat="59.3082682903" lon="34.6671009563"><ele>175.276</ele><time>2026-08-16T13:39:41.138Z</time><hdop>3.0</hdop><vdop>2.5</vdop><extensions><gom:speed>0.933</gom:speed></extensions></trkpt>
   <trkpt lat="59.3082616686" lon="34.6671004534"><ele>174.782</ele><time>2026-08-16T13:39:41.873Z</time><hdop>3.0</hdop><vdop>2.5</vdop><extensions><gom:speed>0.925</gom:speed></extensions></trkpt>
   <trkpt lat="59.3082561784" lon="34.6671039738"><ele>175.233</ele><time>2026-08-16T13:39:42.668Z</time><hdop>3.0</hdop><vdop>2.5</vdop><extensions><gom:speed>0.914</gom:speed></extensions></trkpt>
   <trkpt lat="59.3082531609" lon="34.6671045605"><ele>175.618</ele><time>2026-08-16T13:39:43.138Z</time><hdop>3.0</hdop><vdop>2.5</vdop><extensions><gom:speed>0.926</gom:speed></extensions></trkpt>
   <trkpt lat="59.3082465811" lon="34.6671004534"><ele>175.847</ele><time>2026-08-16T13:39:44.052Z</time><hdop>3.0</hdop><vdop>2.5</vdop><extensions><gom:speed>0.867</gom:speed></extensions></trkpt>
   <trkpt lat="59.3082473774" lon="34.6671018783"><ele>175.913</ele><time>2026-08-16T13:39:44.553Z</time><hdop>3.0</hdop><vdop>2.5</vdop><extensions><gom:speed>0.683</gom:speed></extensions></trkpt>
   <trkpt lat="59.3082444857" lon="34.6671012916"><ele>175.904</ele><time>2026-08-16T13:39:45.138Z</time><hdop>3.0</hdop><vdop>2.5</vdop><extensions><gom:speed>0.85</gom:speed></extensions></trkpt>
   <trkpt lat="59.3082397918" lon="34.6671004534"><ele>175.898</ele><time>2026-08-16T13:39:45.731Z</time><hdop>3.0</hdop><vdop>2.5</vdop><extensions><gom:speed>0.861</gom:speed></extensions></trkpt>
   <trkpt lat="59.3082375706" lon="34.6671030518"><ele>175.875</ele><time>2026-08-16T13:39:46.555Z</time><hdop>3.0</hdop><vdop>2.5</vdop><extensions><gom:speed>0.662</gom:speed></extensions></trkpt>
   <trkpt lat="59.3082339664" lon="34.6671001181"><ele>176.08</ele><time>2026-08-16T13:39:47.138Z</time><hdop>3.0</hdop><vdop>2.5</vdop><extensions><gom:speed>0.878</gom:speed></extensions></trkpt>
   <trkpt lat="59.308227177" lon="34.6670905627"><ele>176.203</ele><time>2026-08-16T13:39:47.988Z</time><hdop>3.0</hdop><vdop>2.5</vdop><extensions><gom:speed>0.943</gom:speed></extensions></trkpt>
   <trkpt lat="59.3082240757" lon="34.6670834381"><ele>176.181</ele><time>2026-08-16T13:39:48.508Z</time><hdop>3.0</hdop><vdop>2.5</vdop><extensions><gom:speed>0.984</gom:speed></extensions></trkpt>
   <trkpt lat="59.3082213935" lon="34.6670730446"><ele>176.173</ele><time>2026-08-16T13:39:49.138Z</time><hdop>3.0</hdop><vdop>2.5</vdop><extensions><gom:speed>1.034</gom:speed></extensions></trkpt>
   <trkpt lat="59.3082170768" lon="34.6670582924"><ele>176.169</ele><time>2026-08-16T13:39:49.950Z</time><hdop>3.0</hdop><vdop>2.5</vdop><extensions><gom:speed>1.043</gom:speed></extensions></trkpt>
   <trkpt lat="59.3082133888" lon="34.6670417801"><ele>176.37</ele><time>2026-08-16T13:39:50.874Z</time><hdop>3.0</hdop><vdop>2.5</vdop><extensions><gom:speed>1.082</gom:speed></extensions></trkpt>
   <trkpt lat="59.3082119639" lon="34.6670295425"><ele>176.719</ele><time>2026-08-16T13:39:51.355Z</time><hdop>3.0</hdop><vdop>2.5</vdop><extensions><gom:speed>1.226</gom:speed></extensions></trkpt>
   <trkpt lat="59.3082086949" lon="34.6670132816"><ele>176.928</ele><time>2026-08-16T13:39:52.111Z</time><hdop>3.0</hdop><vdop>2.5</vdop><extensions><gom:speed>1.185</gom:speed></extensions></trkpt>
   <trkpt lat="59.3082092817" lon="34.6669990324"><ele>176.992</ele><time>2026-08-16T13:39:52.592Z</time><hdop>3.0</hdop><vdop>2.5</vdop><extensions><gom:speed>1.198</gom:speed></extensions></trkpt>
   <trkpt lat="59.3082101618" lon="34.6669839449"><ele>177.124</ele><time>2026-08-16T13:39:53.138Z</time><hdop>3.0</hdop><vdop>2.5</vdop><extensions><gom:speed>1.199</gom:speed></extensions></trkpt>
   <trkpt lat="59.3082099941" lon="34.6669622358"><ele>177.203</ele><time>2026-08-16T13:39:53.997Z</time><hdop>3.0</hdop><vdop>2.5</vdop><extensions><gom:speed>1.164</gom:speed></extensions></trkpt>
   <trkpt lat="59.3082091979" lon="34.6669502497"><ele>177.074</ele><time>2026-08-16T13:39:54.477Z</time><hdop>3.0</hdop><vdop>2.5</vdop><extensions><gom:speed>1.174</gom:speed></extensions></trkpt>
   <trkpt lat="59.3082079825" lon="34.6669342402"><ele>176.865</ele><time>2026-08-16T13:39:55.138Z</time><hdop>3.0</hdop><vdop>2.5</vdop><extensions><gom:speed>1.162</gom:speed></extensions></trkpt>
   <trkpt lat="59.3082066833" lon="34.6669152971"><ele>176.74</ele><time>2026-08-16T13:39:55.930Z</time><hdop>3.0</hdop><vdop>2.5</vdop><extensions><gom:speed>1.165</gom:speed></extensions></trkpt>
   <trkpt lat="59.3082064737" lon="34.6669007965"><ele>176.56</ele><time>2026-08-16T13:39:56.548Z</time><hdop>3.0</hdop><vdop>2.5</vdop><extensions><gom:speed>1.147</gom:speed></extensions></trkpt>
   <trkpt lat="59.308204965" lon="34.666887553"><ele>176.466</ele><time>2026-08-16T13:39:57.138Z</time><hdop>3.0</hdop><vdop>2.5</vdop><extensions><gom:speed>1.151</gom:speed></extensions></trkpt>
   <trkpt lat="59.308201696" lon="34.6668669336"><ele>176.41</ele><time>2026-08-16T13:39:58.108Z</time><hdop>3.0</hdop><vdop>2.5</vdop><extensions><gom:speed>1.104</gom:speed></extensions></trkpt>
   <trkpt lat="59.308198469" lon="34.6668529358"><ele>176.422</ele><time>2026-08-16T13:39:58.669Z</time><hdop>3.0</hdop><vdop>2.5</vdop><extensions><gom:speed>1.151</gom:speed></extensions></trkpt>
   <trkpt lat="59.3081948648" lon="34.6668434642"><ele>176.57</ele><time>2026-08-16T13:39:59.138Z</time><hdop>3.0</hdop><vdop>2.5</vdop><extensions><gom:speed>1.166</gom:speed></extensions></trkpt>
   <trkpt lat="59.308187363" lon="34.6668298856"><ele>176.658</ele><time>2026-08-16T13:39:59.935Z</time><hdop>3.0</hdop><vdop>2.5</vdop><extensions><gom:speed>1.169</gom:speed></extensions></trkpt>
   <trkpt lat="59.3081775981" lon="34.6668219227"><ele>176.614</ele><time>2026-08-16T13:40:00.789Z</time><hdop>3.0</hdop><vdop>2.5</vdop><extensions><gom:speed>1.125</gom:speed></extensions></trkpt>
   <trkpt lat="59.3081668692" lon="34.6668180671"><ele>176.663</ele><time>2026-08-16T13:40:01.594Z</time><hdop>3.0</hdop><vdop>2.5</vdop><extensions><gom:speed>1.145</gom:speed></extensions></trkpt>
   <trkpt lat="59.3081594932" lon="34.6668184862"><ele>176.636</ele><time>2026-08-16T13:40:02.138Z</time><hdop>3.0</hdop><vdop>2.5</vdop><extensions><gom:speed>1.146</gom:speed></extensions></trkpt>
   <trkpt lat="59.3081491834" lon="34.6668224257"><ele>176.62</ele><time>2026-08-16T13:40:02.948Z</time><hdop>3.0</hdop><vdop>2.5</vdop><extensions><gom:speed>1.153</gom:speed></extensions></trkpt>
   <trkpt lat="59.308139167" lon="34.6668271195"><ele>176.508</ele><time>2026-08-16T13:40:03.714Z</time><hdop>3.0</hdop><vdop>2.5</vdop><extensions><gom:speed>1.139</gom:speed></extensions></trkpt>
   <trkpt lat="59.3081326711" lon="34.6668259461"><ele>176.643</ele><time>2026-08-16T13:40:04.391Z</time><hdop>3.0</hdop><vdop>2.5</vdop><extensions><gom:speed>1.101</gom:speed></extensions></trkpt>
   <trkpt lat="59.3081268876" lon="34.6668211684"><ele>177.347</ele><time>2026-08-16T13:40:05.138Z</time><hdop>3.0</hdop><vdop>2.5</vdop><extensions><gom:speed>1.086</gom:speed></extensions></trkpt>
   <trkpt lat="59.308122068" lon="34.6668120321"><ele>177.767</ele><time>2026-08-16T13:40:05.834Z</time><hdop>3.0</hdop><vdop>2.5</vdop><extensions><gom:speed>1.087</gom:speed></extensions></trkpt>
   <trkpt lat="59.3081176675" lon="34.6668111939"><ele>177.505</ele><time>2026-08-16T13:40:06.531Z</time><hdop>3.0</hdop><vdop>2.5</vdop><extensions><gom:speed>1.006</gom:speed></extensions></trkpt>
   <trkpt lat="59.3081138956" lon="34.6668131217"><ele>177.492</ele><time>2026-08-16T13:40:07.138Z</time><hdop>3.0</hdop><vdop>2.5</vdop><extensions><gom:speed>0.933</gom:speed></extensions></trkpt>
   <trkpt lat="59.3081063938" lon="34.6668199949"><ele>177.484</ele><time>2026-08-16T13:40:08.092Z</time><hdop>3.0</hdop><vdop>2.5</vdop><extensions><gom:speed>0.905</gom:speed></extensions></trkpt>
   <trkpt lat="59.3081029991" lon="34.666834328"><ele>177.187</ele><time>2026-08-16T13:40:08.818Z</time><hdop>3.0</hdop><vdop>2.5</vdop><extensions><gom:speed>0.921</gom:speed></extensions></trkpt>
   <trkpt lat="59.3081014904" lon="34.6668459788"><ele>176.312</ele><time>2026-08-16T13:40:09.289Z</time><hdop>3.0</hdop><vdop>2.5</vdop><extensions><gom:speed>0.936</gom:speed></extensions></trkpt>
   <trkpt lat="59.3080966708" lon="34.6668600604"><ele>175.594</ele><time>2026-08-16T13:40:10.137Z</time><hdop>3.0</hdop><vdop>2.5</vdop><extensions><gom:speed>0.972</gom:speed></extensions></trkpt>
   <trkpt lat="59.3080906777" lon="34.6668724656"><ele>175.166</ele><time>2026-08-16T13:40:10.958Z</time><hdop>3.0</hdop><vdop>2.5</vdop><extensions><gom:speed>0.972</gom:speed></extensions></trkpt>
   <trkpt lat="59.3080898815" lon="34.6668831945"><ele>175.187</ele><time>2026-08-16T13:40:11.537Z</time><hdop>3.0</hdop><vdop>2.5</vdop><extensions><gom:speed>0.884</gom:speed></extensions></trkpt>
   <trkpt lat="59.3080870735" lon="34.6668912411"><ele>175.226</ele><time>2026-08-16T13:40:12.138Z</time><hdop>3.0</hdop><vdop>2.5</vdop><extensions><gom:speed>0.928</gom:speed></extensions></trkpt>
   <trkpt lat="59.3080816672" lon="34.6668997906"><ele>175.182</ele><time>2026-08-16T13:40:13.138Z</time><hdop>3.0</hdop><vdop>2.5</vdop><extensions><gom:speed>0.92</gom:speed></extensions></trkpt>
   <trkpt lat="59.3080770991" lon="34.6669071667"><ele>175.156</ele><time>2026-08-16T13:40:13.834Z</time><hdop>3.0</hdop><vdop>2.5</vdop><extensions><gom:speed>0.921</gom:speed></extensions></trkpt>
   <trkpt lat="59.3080746683" lon="34.6669147942"><ele>175.166</ele><time>2026-08-16T13:40:14.511Z</time><hdop>3.0</hdop><vdop>2.5</vdop><extensions><gom:speed>0.903</gom:speed></extensions></trkpt>
   <trkpt lat="59.3080705612" lon="34.6669170573"><ele>175.172</ele><time>2026-08-16T13:40:15.012Z</time><hdop>3.0</hdop><vdop>2.5</vdop><extensions><gom:speed>0.901</gom:speed></extensions></trkpt>
   <trkpt lat="59.3080633946" lon="34.6669119444"><ele>174.652</ele><time>2026-08-16T13:40:15.816Z</time><hdop>3.0</hdop><vdop>2.5</vdop><extensions><gom:speed>1.023</gom:speed></extensions></trkpt>
   <trkpt lat="59.3080607963" lon="34.6669021376"><ele>174.542</ele><time>2026-08-16T13:40:16.297Z</time><hdop>3.0</hdop><vdop>2.5</vdop><extensions><gom:speed>1.034</gom:speed></extensions></trkpt>
   <trkpt lat="59.3080545936" lon="34.6668916602"><ele>174.476</ele><time>2026-08-16T13:40:17.092Z</time><hdop>3.0</hdop><vdop>2.5</vdop><extensions><gom:speed>1.041</gom:speed></extensions></trkpt>
   <trkpt lat="59.308046086" lon="34.6668910734"><ele>174.262</ele><time>2026-08-16T13:40:18.138Z</time><hdop>3.0</hdop><vdop>2.937</vdop><extensions><gom:speed>1.032</gom:speed></extensions></trkpt>
   <trkpt lat="59.30803959" lon="34.6668936718"><ele>174.134</ele><time>2026-08-16T13:40:18.830Z</time><hdop>3.0</hdop><vdop>2.937</vdop><extensions><gom:speed>1.032</gom:speed></extensions></trkpt>
   <trkpt lat="59.3080322978" lon="34.666893588"><ele>173.843</ele><time>2026-08-16T13:40:19.694Z</time><hdop>3.0</hdop><vdop>2.875</vdop><extensions><gom:speed>1.041</gom:speed></extensions></trkpt>
   <trkpt lat="59.308027562" lon="34.6668845356"><ele>173.176</ele><time>2026-08-16T13:40:20.597Z</time><hdop>3.0</hdop><vdop>2.937</vdop><extensions><gom:speed>0.965</gom:speed></extensions></trkpt>
   <trkpt lat="59.3080264724" lon="34.6668749802"><ele>172.869</ele><time>2026-08-16T13:40:21.138Z</time><hdop>3.0</hdop><vdop>3.125</vdop><extensions><gom:speed>0.927</gom:speed></extensions></trkpt>
   <trkpt lat="59.308024796" lon="34.6668550313"><ele>172.699</ele><time>2026-08-16T13:40:22.137Z</time><hdop>3.0</hdop><vdop>2.937</vdop><extensions><gom:speed>0.915</gom:speed></extensions></trkpt>
   <trkpt lat="59.3080232872" lon="34.6668423746"><ele>172.598</ele><time>2026-08-16T13:40:23.011Z</time><hdop>3.0</hdop><vdop>2.937</vdop><extensions><gom:speed>0.764</gom:speed></extensions></trkpt>
   <trkpt lat="59.3080186772" lon="34.6668302208"><ele>172.459</ele><time>2026-08-16T13:40:23.992Z</time><hdop>3.0</hdop><vdop>2.75</vdop><extensions><gom:speed>0.781</gom:speed></extensions></trkpt>
   <trkpt lat="59.3080128937" lon="34.6668192405"><ele>172.535</ele><time>2026-08-16T13:40:24.876Z</time><hdop>3.0</hdop><vdop>2.687</vdop><extensions><gom:speed>0.861</gom:speed></extensions></trkpt>
   <trkpt lat="59.3080084932" lon="34.666816726"><ele>172.387</ele><time>2026-08-16T13:40:25.593Z</time><hdop>3.0</hdop><vdop>3.0</vdop><extensions><gom:speed>0.816</gom:speed></extensions></trkpt>
   <trkpt lat="59.308004386" lon="34.6668172289"><ele>172.713</ele><time>2026-08-16T13:40:26.138Z</time><hdop>3.0</hdop><vdop>3.0</vdop><extensions><gom:speed>0.822</gom:speed></extensions></trkpt>
   <trkpt lat="59.3079987702" lon="34.6668219227"><ele>173.018</ele><time>2026-08-16T13:40:27.138Z</time><hdop>3.0</hdop><vdop>3.25</vdop><extensions><gom:speed>0.484</gom:speed></extensions></trkpt>
   <trkpt lat="59.307997471" lon="34.6668250241"><ele>173.256</ele><time>2026-08-16T13:40:28.137Z</time><hdop>3.0</hdop><vdop>3.562</vdop><extensions><gom:speed>0.212</gom:speed></extensions></trkpt>
   <trkpt lat="59.3079970938" lon="34.6668261975"><ele>173.379</ele><time>2026-08-16T13:40:29.138Z</time><hdop>3.0</hdop><vdop>3.687</vdop><extensions><gom:speed>0.06</gom:speed></extensions></trkpt>
   <trkpt lat="59.3079967585" lon="34.6668256946"><ele>173.454</ele><time>2026-08-16T13:40:30.138Z</time><hdop>3.0</hdop><vdop>3.75</vdop><extensions><gom:speed>0.07</gom:speed></extensions></trkpt>
   <trkpt lat="59.3079956689" lon="34.6668249402"><ele>173.505</ele><time>2026-08-16T13:40:31.138Z</time><hdop>3.0</hdop><vdop>3.812</vdop><extensions><gom:speed>0.062</gom:speed></extensions></trkpt>
   <trkpt lat="59.3079948726" lon="34.6668236829"><ele>173.549</ele><time>2026-08-16T13:40:32.138Z</time><hdop>3.0</hdop><vdop>3.937</vdop><extensions><gom:speed>0.022</gom:speed></extensions></trkpt>
   <trkpt lat="59.3079948726" lon="34.6668223418"><ele>173.645</ele><time>2026-08-16T13:40:33.138Z</time><hdop>3.0</hdop><vdop>3.937</vdop><extensions><gom:speed>0.016</gom:speed></extensions></trkpt>
   <trkpt lat="59.3079945792" lon="34.6668206655"><ele>173.724</ele><time>2026-08-16T13:40:34.138Z</time><hdop>3.0</hdop><vdop>4.062</vdop><extensions><gom:speed>0.057</gom:speed></extensions></trkpt>
   <trkpt lat="59.3079939925" lon="34.6668196596"><ele>173.762</ele><time>2026-08-16T13:40:35.138Z</time><hdop>3.0</hdop><vdop>4.0</vdop><extensions><gom:speed>0.06</gom:speed></extensions></trkpt>
   <trkpt lat="59.3079936991" lon="34.6668190729"><ele>173.782</ele><time>2026-08-16T13:40:36.138Z</time><hdop>3.0</hdop><vdop>4.187</vdop><extensions><gom:speed>0.017</gom:speed></extensions></trkpt>
   <trkpt lat="59.3079942859" lon="34.6668180671"><ele>173.782</ele><time>2026-08-16T13:40:37.138Z</time><hdop>3.0</hdop><vdop>4.312</vdop><extensions><gom:speed>0.012</gom:speed></extensions></trkpt>
   <trkpt lat="59.3079943697" lon="34.666817648"><ele>173.743</ele><time>2026-08-16T13:40:38.138Z</time><hdop>3.0</hdop><vdop>4.5</vdop><extensions><gom:speed>0.055</gom:speed></extensions></trkpt>
   <trkpt lat="59.3079949983" lon="34.6668179833"><ele>173.703</ele><time>2026-08-16T13:40:39.138Z</time><hdop>3.0</hdop><vdop>4.687</vdop><extensions><gom:speed>0.061</gom:speed></extensions></trkpt>
   <trkpt lat="59.3079953755" lon="34.6668184862"><ele>173.649</ele><time>2026-08-16T13:40:40.138Z</time><hdop>3.0</hdop><vdop>4.5</vdop><extensions><gom:speed>0.022</gom:speed></extensions></trkpt>
   <trkpt lat="59.3079950821" lon="34.66681857"><ele>173.615</ele><time>2026-08-16T13:40:41.138Z</time><hdop>3.0</hdop><vdop>4.187</vdop><extensions><gom:speed>0.039</gom:speed></extensions></trkpt>
   <trkpt lat="59.3079945792" lon="34.6668186538"><ele>173.634</ele><time>2026-08-16T13:40:42.138Z</time><hdop>3.0</hdop><vdop>4.187</vdop><extensions><gom:speed>0.069</gom:speed></extensions></trkpt>
   <trkpt lat="59.3079935734" lon="34.6668192405"><ele>173.639</ele><time>2026-08-16T13:40:43.138Z</time><hdop>3.0</hdop><vdop>3.875</vdop><extensions><gom:speed>0.068</gom:speed></extensions></trkpt>
   <trkpt lat="59.30799328" lon="34.666819492"><ele>173.615</ele><time>2026-08-16T13:40:44.138Z</time><hdop>3.0</hdop><vdop>3.5</vdop><extensions><gom:speed>0.028</gom:speed></extensions></trkpt>
   <trkpt lat="59.3079931962" lon="34.6668199949"><ele>173.621</ele><time>2026-08-16T13:40:45.138Z</time><hdop>3.0</hdop><vdop>3.562</vdop><extensions><gom:speed>0.029</gom:speed></extensions></trkpt>
   <trkpt lat="59.3079926933" lon="34.6668204978"><ele>173.642</ele><time>2026-08-16T13:40:46.138Z</time><hdop>3.0</hdop><vdop>3.75</vdop><extensions><gom:speed>0.054</gom:speed></extensions></trkpt>
   <trkpt lat="59.3079916875" lon="34.666821336"><ele>173.679</ele><time>2026-08-16T13:40:47.138Z</time><hdop>3.0</hdop><vdop>3.812</vdop><extensions><gom:speed>0.0</gom:speed></extensions></trkpt>
   <trkpt lat="59.3079915617" lon="34.6668216713"><ele>173.735</ele><time>2026-08-16T13:40:48.138Z</time><hdop>3.0</hdop><vdop>3.812</vdop><extensions><gom:speed>0.014</gom:speed></extensions></trkpt>
   <trkpt lat="59.3079914779" lon="34.6668219227"><ele>173.822</ele><time>2026-08-16T13:40:49.138Z</time><hdop>3.0</hdop><vdop>3.812</vdop><extensions><gom:speed>0.023</gom:speed></extensions></trkpt>
   <trkpt lat="59.3079912684" lon="34.6668223418"><ele>173.899</ele><time>2026-08-16T13:40:50.138Z</time><hdop>3.0</hdop><vdop>3.75</vdop><extensions><gom:speed>0.032</gom:speed></extensions></trkpt>
   <trkpt lat="59.3079910588" lon="34.6668227609"><ele>174.03</ele><time>2026-08-16T13:40:51.138Z</time><hdop>3.0</hdop><vdop>3.312</vdop><extensions><gom:speed>0.133</gom:speed></extensions></trkpt>
   <trkpt lat="59.3079904721" lon="34.6668236829"><ele>174.108</ele><time>2026-08-16T13:40:51.869Z</time><hdop>3.0</hdop><vdop>3.312</vdop><extensions><gom:speed>0.134</gom:speed></extensions></trkpt>
   <trkpt lat="59.3079901787" lon="34.6668259461"><ele>174.143</ele><time>2026-08-16T13:40:53.138Z</time><hdop>3.0</hdop><vdop>3.062</vdop><extensions><gom:speed>0.101</gom:speed></extensions></trkpt>
   <trkpt lat="59.3079901787" lon="34.666827371"><ele>174.181</ele><time>2026-08-16T13:40:54.138Z</time><hdop>3.0</hdop><vdop>3.0</vdop><extensions><gom:speed>0.091</gom:speed></extensions></trkpt>
   <trkpt lat="59.3079902625" lon="34.6668284606"><ele>174.212</ele><time>2026-08-16T13:40:55.138Z</time><hdop>3.0</hdop><vdop>2.875</vdop><extensions><gom:speed>0.082</gom:speed></extensions></trkpt>
   <trkpt lat="59.3079903883" lon="34.6668292988"><ele>174.254</ele><time>2026-08-16T13:40:56.138Z</time><hdop>3.0</hdop><vdop>3.062</vdop><extensions><gom:speed>0.076</gom:speed></extensions></trkpt>
   <trkpt lat="59.3079903883" lon="34.666830137"><ele>174.259</ele><time>2026-08-16T13:40:57.138Z</time><hdop>3.0</hdop><vdop>3.187</vdop><extensions><gom:speed>0.076</gom:speed></extensions></trkpt>
   <trkpt lat="59.3079903883" lon="34.6668302208"><ele>173.271</ele><time>2026-08-16T13:40:58.138Z</time><hdop>3.0</hdop><vdop>3.062</vdop><extensions><gom:speed>0.748</gom:speed></extensions></trkpt>
   <trkpt lat="59.3079930705" lon="34.6668365911"><ele>172.665</ele><time>2026-08-16T13:40:59.138Z</time><hdop>3.0</hdop><vdop>3.187</vdop><extensions><gom:speed>0.109</gom:speed></extensions></trkpt>
   <trkpt lat="59.3079940763" lon="34.666834328"><ele>172.679</ele><time>2026-08-16T13:41:00.138Z</time><hdop>3.0</hdop><vdop>3.5</vdop><extensions><gom:speed>0.09</gom:speed></extensions></trkpt>
   <trkpt lat="59.3079942859" lon="34.6668335736"><ele>172.32</ele><time>2026-08-16T13:41:01.138Z</time><hdop>3.0</hdop><vdop>3.437</vdop><extensions><gom:speed>0.083</gom:speed></extensions></trkpt>
   <trkpt lat="59.3079943697" lon="34.6668330707"><ele>172.105</ele><time>2026-08-16T13:41:02.138Z</time><hdop>3.0</hdop><vdop>3.5</vdop><extensions><gom:speed>0.079</gom:speed></extensions></trkpt>
   <trkpt lat="59.3079943697" lon="34.6668323163"><ele>171.967</ele><time>2026-08-16T13:41:03.138Z</time><hdop>3.0</hdop><vdop>3.562</vdop><extensions><gom:speed>0.072</gom:speed></extensions></trkpt>
   <trkpt lat="59.3079944954" lon="34.666831981"><ele>171.879</ele><time>2026-08-16T13:41:04.138Z</time><hdop>3.0</hdop><vdop>3.5</vdop><extensions><gom:speed>0.069</gom:speed></extensions></trkpt>
   <trkpt lat="59.3079945792" lon="34.6668317296"><ele>171.827</ele><time>2026-08-16T13:41:05.138Z</time><hdop>3.0</hdop><vdop>3.375</vdop><extensions><gom:speed>0.07</gom:speed></extensions></trkpt>
   <trkpt lat="59.307994663" lon="34.6668314781"><ele>171.802</ele><time>2026-08-16T13:41:06.138Z</time><hdop>3.0</hdop><vdop>3.437</vdop><extensions><gom:speed>0.069</gom:speed></extensions></trkpt>
   <trkpt lat="59.3079947888" lon="34.6668309752"><ele>171.83</ele><time>2026-08-16T13:41:07.138Z</time><hdop>3.0</hdop><vdop>3.125</vdop><extensions><gom:speed>0.123</gom:speed></extensions></trkpt>
   <trkpt lat="59.3079949983" lon="34.6668308914"><ele>171.854</ele><time>2026-08-16T13:41:08.138Z</time><hdop>3.0</hdop><vdop>3.125</vdop><extensions><gom:speed>0.099</gom:speed></extensions></trkpt>
   <trkpt lat="59.3079947888" lon="34.6668308914"><ele>171.835</ele><time>2026-08-16T13:41:09.138Z</time><hdop>3.0</hdop><vdop>3.0</vdop><extensions><gom:speed>0.376</gom:speed></extensions></trkpt>
   <trkpt lat="59.3079935734" lon="34.6668320648"><ele>172.004</ele><time>2026-08-16T13:41:10.138Z</time><hdop>3.0</hdop><vdop>2.75</vdop><extensions><gom:speed>0.89</gom:speed></extensions></trkpt>
   <trkpt lat="59.3079935734" lon="34.6668340765"><ele>172.105</ele><time>2026-08-16T13:41:10.812Z</time><hdop>3.0</hdop><vdop>2.75</vdop><extensions><gom:speed>0.883</gom:speed></extensions></trkpt>
   <trkpt lat="59.3079882928" lon="34.6668334898"><ele>172.048</ele><time>2026-08-16T13:41:11.715Z</time><hdop>3.0</hdop><vdop>2.562</vdop><extensions><gom:speed>0.824</gom:speed></extensions></trkpt>
   <trkpt lat="59.3079828865" lon="34.6668367587"><ele>172.012</ele><time>2026-08-16T13:41:12.196Z</time><hdop>3.062</hdop><vdop>2.5</vdop><extensions><gom:speed>0.765</gom:speed></extensions></trkpt>
   <trkpt lat="59.3079796594" lon="34.6668376807"><ele>171.99</ele><time>2026-08-16T13:41:12.872Z</time><hdop>3.125</hdop><vdop>2.5</vdop><extensions><gom:speed>0.758</gom:speed></extensions></trkpt>
   <trkpt lat="59.3079984768" lon="34.6668744773"><ele>170.635</ele><time>2026-08-16T13:41:13.590Z</time><hdop>3.187</hdop><vdop>2.5</vdop><extensions><gom:speed>0.93</gom:speed></extensions></trkpt>
   <trkpt lat="59.308007194" lon="34.6668929175"><ele>169.531</ele><time>2026-08-16T13:41:14.138Z</time><hdop>3.187</hdop><vdop>2.5</vdop><extensions><gom:speed>0.941</gom:speed></extensions></trkpt>
   <trkpt lat="59.3080140671" lon="34.6669050712"><ele>168.872</ele><time>2026-08-16T13:41:14.934Z</time><hdop>3.25</hdop><vdop>2.5</vdop><extensions><gom:speed>0.943</gom:speed></extensions></trkpt>
   <trkpt lat="59.3080157854" lon="34.6669309713"><ele>168.629</ele><time>2026-08-16T13:41:16.138Z</time><hdop>3.25</hdop><vdop>2.5</vdop><extensions><gom:speed>1.023</gom:speed></extensions></trkpt>
   <trkpt lat="59.3080086608" lon="34.6669451367"><ele>168.534</ele><time>2026-08-16T13:41:17.138Z</time><hdop>3.25</hdop><vdop>2.5</vdop><extensions><gom:speed>1.016</gom:speed></extensions></trkpt>
   <trkpt lat="59.3079995665" lon="34.666958883"><ele>168.165</ele><time>2026-08-16T13:41:18.138Z</time><hdop>3.125</hdop><vdop>2.5</vdop><extensions><gom:speed>0.948</gom:speed></extensions></trkpt>
   <trkpt lat="59.3079964651" lon="34.6669714559"><ele>167.945</ele><time>2026-08-16T13:41:18.929Z</time><hdop>3.062</hdop><vdop>2.5</vdop><extensions><gom:speed>0.956</gom:speed></extensions></trkpt>
   <trkpt lat="59.3079902625" lon="34.6669770718"><ele>168.005</ele><time>2026-08-16T13:41:19.774Z</time><hdop>3.0</hdop><vdop>2.5</vdop><extensions><gom:speed>0.832</gom:speed></extensions></trkpt>
   <trkpt lat="59.3079816711" lon="34.6669672649"><ele>168.094</ele><time>2026-08-16T13:41:21.138Z</time><hdop>3.0</hdop><vdop>2.5</vdop><extensions><gom:speed>0.388</gom:speed></extensions></trkpt>
   <trkpt lat="59.3079774801" lon="34.6669597212"><ele>168.249</ele><time>2026-08-16T13:41:22.138Z</time><hdop>3.0</hdop><vdop>2.5</vdop><extensions><gom:speed>0.29</gom:speed></extensions></trkpt>
   <trkpt lat="59.3079754685" lon="34.6669557817"><ele>168.29</ele><time>2026-08-16T13:41:23.138Z</time><hdop>3.0</hdop><vdop>2.562</vdop><extensions><gom:speed>0.251</gom:speed></extensions></trkpt>
   <trkpt lat="59.3079731635" lon="34.6669562847"><ele>168.35</ele><time>2026-08-16T13:41:24.138Z</time><hdop>3.0</hdop><vdop>2.5</vdop><extensions><gom:speed>0.38</gom:speed></extensions></trkpt>
   <trkpt lat="59.3079727863" lon="34.6669614814"><ele>168.387</ele><time>2026-08-16T13:41:25.015Z</time><hdop>3.0</hdop><vdop>2.5</vdop><extensions><gom:speed>0.354</gom:speed></extensions></trkpt>
   <trkpt lat="59.3079705651" lon="34.6669615653"><ele>168.444</ele><time>2026-08-16T13:41:25.751Z</time><hdop>3.0</hdop><vdop>2.5</vdop><extensions><gom:speed>0.378</gom:speed></extensions></trkpt>
   <trkpt lat="59.3079669608" lon="34.6669601403"><ele>168.302</ele><time>2026-08-16T13:41:26.693Z</time><hdop>3.0</hdop><vdop>2.5</vdop><extensions><gom:speed>0.342</gom:speed></extensions></trkpt>
   <trkpt lat="59.3079606744" lon="34.666962152"><ele>168.453</ele><time>2026-08-16T13:41:27.292Z</time><hdop>3.0</hdop><vdop>2.5</vdop><extensions><gom:speed>0.593</gom:speed></extensions></trkpt>
   <trkpt lat="59.307954388" lon="34.6669660915"><ele>168.638</ele><time>2026-08-16T13:41:28.138Z</time><hdop>3.0</hdop><vdop>2.5</vdop><extensions><gom:speed>0.657</gom:speed></extensions></trkpt>
   <trkpt lat="59.3079500713" lon="34.6669738867"><ele>168.749</ele><time>2026-08-16T13:41:29.010Z</time><hdop>3.0</hdop><vdop>2.5</vdop><extensions><gom:speed>0.661</gom:speed></extensions></trkpt>
   <trkpt lat="59.3079333913" lon="34.6669804245"><ele>168.918</ele><time>2026-08-16T13:41:30.138Z</time><hdop>3.0</hdop><vdop>2.5</vdop><extensions><gom:speed>0.884</gom:speed></extensions></trkpt>
   <trkpt lat="59.307922872" lon="34.6669763174"><ele>169.077</ele><time>2026-08-16T13:41:31.138Z</time><hdop>3.0</hdop><vdop>2.5</vdop><extensions><gom:speed>0.75</gom:speed></extensions></trkpt>
   <trkpt lat="59.307912688" lon="34.6669659238"><ele>168.951</ele><time>2026-08-16T13:41:32.138Z</time><hdop>3.0</hdop><vdop>2.5</vdop><extensions><gom:speed>0.898</gom:speed></extensions></trkpt>
   <trkpt lat="59.3079019592" lon="34.6669503335"><ele>169.05</ele><time>2026-08-16T13:41:33.138Z</time><hdop>3.0</hdop><vdop>2.5</vdop><extensions><gom:speed>0.748</gom:speed></extensions></trkpt>
   <trkpt lat="59.3078921943" lon="34.6669292949"><ele>169.057</ele><time>2026-08-16T13:41:34.138Z</time><hdop>3.0</hdop><vdop>2.5</vdop><extensions><gom:speed>0.598</gom:speed></extensions></trkpt>
   <trkpt lat="59.3078844829" lon="34.6669173926"><ele>169.059</ele><time>2026-08-16T13:41:35.138Z</time><hdop>3.0</hdop><vdop>2.5</vdop><extensions><gom:speed>0.442</gom:speed></extensions></trkpt>
   <trkpt lat="59.3078803758" lon="34.6669148781"><ele>169.061</ele><time>2026-08-16T13:41:35.948Z</time><hdop>3.0</hdop><vdop>2.5</vdop><extensions><gom:speed>0.432</gom:speed></extensions></trkpt>
   <trkpt lat="59.3078740894" lon="34.6669061609"><ele>169.066</ele><time>2026-08-16T13:41:36.774Z</time><hdop>3.0</hdop><vdop>2.5</vdop><extensions><gom:speed>0.499</gom:speed></extensions></trkpt>
   <trkpt lat="59.3078683897" lon="34.666897779"><ele>169.131</ele><time>2026-08-16T13:41:37.412Z</time><hdop>3.0</hdop><vdop>2.5</vdop><extensions><gom:speed>0.612</gom:speed></extensions></trkpt>
   <trkpt lat="59.3078623966" lon="34.6668911573"><ele>169.235</ele><time>2026-08-16T13:41:38.138Z</time><hdop>3.0</hdop><vdop>2.5</vdop><extensions><gom:speed>0.716</gom:speed></extensions></trkpt>
   <trkpt lat="59.3078564874" lon="34.6668882236"><ele>169.297</ele><time>2026-08-16T13:41:38.855Z</time><hdop>3.0</hdop><vdop>2.5</vdop><extensions><gom:speed>0.726</gom:speed></extensions></trkpt>
   <trkpt lat="59.3078525898" lon="34.6668805961"><ele>169.161</ele><time>2026-08-16T13:41:39.315Z</time><hdop>3.0</hdop><vdop>2.5</vdop><extensions><gom:speed>0.744</gom:speed></extensions></trkpt>
   <trkpt lat="59.3078459681" lon="34.666871376"><ele>168.922</ele><time>2026-08-16T13:41:40.138Z</time><hdop>3.0</hdop><vdop>2.5</vdop><extensions><gom:speed>0.85</gom:speed></extensions></trkpt>
   <trkpt lat="59.3078369994" lon="34.6668571267"><ele>169.051</ele><time>2026-08-16T13:41:41.138Z</time><hdop>3.0</hdop><vdop>2.5</vdop><extensions><gom:speed>1.019</gom:speed></extensions></trkpt>
   <trkpt lat="59.3078299586" lon="34.6668510918"><ele>169.128</ele><time>2026-08-16T13:41:41.809Z</time><hdop>3.0</hdop><vdop>2.5</vdop><extensions><gom:speed>1.038</gom:speed></extensions></trkpt>
   <trkpt lat="59.3078204871" lon="34.6668394409"><ele>169.175</ele><time>2026-08-16T13:41:42.712Z</time><hdop>3.0</hdop><vdop>2.5</vdop><extensions><gom:speed>1.116</gom:speed></extensions></trkpt>
   <trkpt lat="59.3078126919" lon="34.6668314781"><ele>169.285</ele><time>2026-08-16T13:41:43.458Z</time><hdop>3.0</hdop><vdop>2.5</vdop><extensions><gom:speed>1.092</gom:speed></extensions></trkpt>
   <trkpt lat="59.3078060702" lon="34.6668261975"><ele>169.006</ele><time>2026-08-16T13:41:44.138Z</time><hdop>3.0</hdop><vdop>2.5</vdop><extensions><gom:speed>1.044</gom:speed></extensions></trkpt>
   <trkpt lat="59.3077998676" lon="34.6668237668"><ele>168.84</ele><time>2026-08-16T13:41:44.734Z</time><hdop>3.0</hdop><vdop>2.5</vdop><extensions><gom:speed>1.038</gom:speed></extensions></trkpt>
   <trkpt lat="59.3077933716" lon="34.6668117806"><ele>168.742</ele><time>2026-08-16T13:41:45.656Z</time><hdop>3.0</hdop><vdop>2.5</vdop><extensions><gom:speed>0.965</gom:speed></extensions></trkpt>
   <trkpt lat="59.3077901865" lon="34.666803734"><ele>168.783</ele><time>2026-08-16T13:41:46.138Z</time><hdop>3.0</hdop><vdop>2.5</vdop><extensions><gom:speed>0.973</gom:speed></extensions></trkpt>
   <trkpt lat="59.3077836905" lon="34.6667953521"><ele>168.808</ele><time>2026-08-16T13:41:46.893Z</time><hdop>3.0</hdop><vdop>2.5</vdop><extensions><gom:speed>0.971</gom:speed></extensions></trkpt>
   <trkpt lat="59.307779793" lon="34.6667855453"><ele>168.575</ele><time>2026-08-16T13:41:47.492Z</time><hdop>3.0</hdop><vdop>2.5</vdop><extensions><gom:speed>0.954</gom:speed></extensions></trkpt>
   <trkpt lat="59.3077764821" lon="34.6667756546"><ele>168.12</ele><time>2026-08-16T13:41:48.138Z</time><hdop>3.0</hdop><vdop>2.5</vdop><extensions><gom:speed>0.914</gom:speed></extensions></trkpt>
   <trkpt lat="59.307770489" lon="34.66676392"><ele>168.387</ele><time>2026-08-16T13:41:49.138Z</time><hdop>3.0</hdop><vdop>2.5</vdop><extensions><gom:speed>0.886</gom:speed></extensions></trkpt>
   <trkpt lat="59.3077692737" lon="34.6667622436"><ele>168.263</ele><time>2026-08-16T13:41:50.138Z</time><hdop>3.0</hdop><vdop>2.5</vdop><extensions><gom:speed>0.667</gom:speed></extensions></trkpt>
   <trkpt lat="59.3077648732" lon="34.6667624951"><ele>168.188</ele><time>2026-08-16T13:41:51.133Z</time><hdop>3.0</hdop><vdop>2.5</vdop><extensions><gom:speed>0.719</gom:speed></extensions></trkpt>
   <trkpt lat="59.3077623586" lon="34.6667614892"><ele>168.138</ele><time>2026-08-16T13:41:52.095Z</time><hdop>3.0</hdop><vdop>2.5</vdop><extensions><gom:speed>0.77</gom:speed></extensions></trkpt>
   <trkpt lat="59.3077606822" lon="34.6667655964"><ele>167.947</ele><time>2026-08-16T13:41:52.733Z</time><hdop>3.0</hdop><vdop>2.5</vdop><extensions><gom:speed>0.821</gom:speed></extensions></trkpt>
   <trkpt lat="59.3077583772" lon="34.6667680271"><ele>168.266</ele><time>2026-08-16T13:41:53.489Z</time><hdop>3.0</hdop><vdop>2.5</vdop><extensions><gom:speed>0.769</gom:speed></extensions></trkpt>
   <trkpt lat="59.3077535995" lon="34.6667690329"><ele>168.457</ele><time>2026-08-16T13:41:54.117Z</time><hdop>3.0</hdop><vdop>2.5</vdop><extensions><gom:speed>0.826</gom:speed></extensions></trkpt>
   <trkpt lat="59.3077467683" lon="34.6667677757"><ele>168.477</ele><time>2026-08-16T13:41:54.873Z</time><hdop>3.0</hdop><vdop>2.5</vdop><extensions><gom:speed>0.885</gom:speed></extensions></trkpt>
   <trkpt lat="59.3077406914" lon="34.6667652611"><ele>168.508</ele><time>2026-08-16T13:41:55.511Z</time><hdop>3.0</hdop><vdop>2.5</vdop><extensions><gom:speed>0.927</gom:speed></extensions></trkpt>
   <trkpt lat="59.3077347821" lon="34.6667622436"><ele>168.441</ele><time>2026-08-16T13:41:56.138Z</time><hdop>3.0</hdop><vdop>2.5</vdop><extensions><gom:speed>0.982</gom:speed></extensions></trkpt>
   <trkpt lat="59.3077259811" lon="34.6667614892"><ele>168.4</ele><time>2026-08-16T13:41:57.013Z</time><hdop>3.0</hdop><vdop>2.5</vdop><extensions><gom:speed>0.943</gom:speed></extensions></trkpt>
   <trkpt lat="59.3077196947" lon="34.6667616569"><ele>168.498</ele><time>2026-08-16T13:41:57.788Z</time><hdop>3.0</hdop><vdop>2.5</vdop><extensions><gom:speed>0.938</gom:speed></extensions></trkpt>
   <trkpt lat="59.3077137855" lon="34.6667580526"><ele>168.46</ele><time>2026-08-16T13:41:58.515Z</time><hdop>3.0</hdop><vdop>2.5</vdop><extensions><gom:speed>0.947</gom:speed></extensions></trkpt>
   <trkpt lat="59.3077090916" lon="34.6667510957"><ele>168.286</ele><time>2026-08-16T13:41:59.138Z</time><hdop>3.0</hdop><vdop>2.5</vdop><extensions><gom:speed>0.939</gom:speed></extensions></trkpt>
   <trkpt lat="59.3077025956" lon="34.6667427976"><ele>168.183</ele><time>2026-08-16T13:41:59.908Z</time><hdop>3.0</hdop><vdop>2.5</vdop><extensions><gom:speed>0.938</gom:speed></extensions></trkpt>
   <trkpt lat="59.3076947585" lon="34.6667327393"><ele>168.124</ele><time>2026-08-16T13:42:01.096Z</time><hdop>3.0</hdop><vdop>2.5</vdop><extensions><gom:speed>0.843</gom:speed></extensions></trkpt>
   <trkpt lat="59.307691783" lon="34.6667227648"><ele>167.977</ele><time>2026-08-16T13:42:01.911Z</time><hdop>3.0</hdop><vdop>2.5</vdop><extensions><gom:speed>0.789</gom:speed></extensions></trkpt>
   <trkpt lat="59.3076905676" lon="34.666710192"><ele>167.845</ele><time>2026-08-16T13:42:02.618Z</time><hdop>3.0</hdop><vdop>2.5</vdop><extensions><gom:speed>0.811</gom:speed></extensions></trkpt>
   <trkpt lat="59.3076892684" lon="34.6666999661"><ele>167.594</ele><time>2026-08-16T13:42:03.138Z</time><hdop>3.0</hdop><vdop>2.5</vdop><extensions><gom:speed>0.906</gom:speed></extensions></trkpt>
   <trkpt lat="59.3076859995" lon="34.666681945"><ele>167.271</ele><time>2026-08-16T13:42:04.138Z</time><hdop>3.0</hdop><vdop>2.5</vdop><extensions><gom:speed>0.914</gom:speed></extensions></trkpt>
   <trkpt lat="59.3076824791" lon="34.6666738983"><ele>167.078</ele><time>2026-08-16T13:42:04.708Z</time><hdop>3.0</hdop><vdop>2.5</vdop><extensions><gom:speed>0.916</gom:speed></extensions></trkpt>
   <trkpt lat="59.3076763603" lon="34.6666651812"><ele>167.1</ele><time>2026-08-16T13:42:05.552Z</time><hdop>3.0</hdop><vdop>2.5</vdop><extensions><gom:speed>0.914</gom:speed></extensions></trkpt>
   <trkpt lat="59.3076720855" lon="34.666656464"><ele>166.998</ele><time>2026-08-16T13:42:06.138Z</time><hdop>3.0</hdop><vdop>2.5</vdop><extensions><gom:speed>0.989</gom:speed></extensions></trkpt>
   <trkpt lat="59.3076668887" lon="34.6666405384"><ele>166.938</ele><time>2026-08-16T13:42:07.015Z</time><hdop>3.0</hdop><vdop>2.5</vdop><extensions><gom:speed>0.993</gom:speed></extensions></trkpt>
   <trkpt lat="59.3076642903" lon="34.6666324917"><ele>166.739</ele><time>2026-08-16T13:42:07.535Z</time><hdop>3.0</hdop><vdop>2.5</vdop><extensions><gom:speed>0.964</gom:speed></extensions></trkpt>
   <trkpt lat="59.3076608957" lon="34.6666250318"><ele>166.656</ele><time>2026-08-16T13:42:08.138Z</time><hdop>3.0</hdop><vdop>2.5</vdop><extensions><gom:speed>0.959</gom:speed></extensions></trkpt>
   <trkpt lat="59.3076548607" lon="34.666616147"><ele>166.607</ele><time>2026-08-16T13:42:08.929Z</time><hdop>3.0</hdop><vdop>2.5</vdop><extensions><gom:speed>0.96</gom:speed></extensions></trkpt>
   <trkpt lat="59.3076475684" lon="34.6666101959"><ele>166.676</ele><time>2026-08-16T13:42:09.832Z</time><hdop>3.0</hdop><vdop>2.5</vdop><extensions><gom:speed>0.966</gom:speed></extensions></trkpt>
   <trkpt lat="59.3076416592" lon="34.6666071784"><ele>166.647</ele><time>2026-08-16T13:42:10.490Z</time><hdop>3.0</hdop><vdop>2.5</vdop><extensions><gom:speed>0.978</gom:speed></extensions></trkpt>
   <trkpt lat="59.3076355823" lon="34.6666043285"><ele>166.551</ele><time>2026-08-16T13:42:11.138Z</time><hdop>3.0</hdop><vdop>2.5</vdop><extensions><gom:speed>1.047</gom:speed></extensions></trkpt>
   <trkpt lat="59.3076288768" lon="34.6666015625"><ele>166.494</ele><time>2026-08-16T13:42:11.775Z</time><hdop>3.0</hdop><vdop>2.5</vdop><extensions><gom:speed>1.046</gom:speed></extensions></trkpt>
   <trkpt lat="59.3076167649" lon="34.6666000538"><ele>166.25</ele><time>2026-08-16T13:42:13.012Z</time><hdop>3.0</hdop><vdop>2.687</vdop><extensions><gom:speed>1.008</gom:speed></extensions></trkpt>
   <trkpt lat="59.3076087602" lon="34.6665958628"><ele>166.183</ele><time>2026-08-16T13:42:13.915Z</time><hdop>3.0</hdop><vdop>3.062</vdop><extensions><gom:speed>0.999</gom:speed></extensions></trkpt>
   <trkpt lat="59.3076062876" lon="34.6665973716"><ele>165.603</ele><time>2026-08-16T13:42:14.514Z</time><hdop>3.0</hdop><vdop>2.562</vdop><extensions><gom:speed>0.96</gom:speed></extensions></trkpt>
   <trkpt lat="59.3076032701" lon="34.6665992994"><ele>165.063</ele><time>2026-08-16T13:42:15.138Z</time><hdop>3.0</hdop><vdop>2.625</vdop><extensions><gom:speed>0.936</gom:speed></extensions></trkpt>
   <trkpt lat="59.3075962712" lon="34.6666012272"><ele>164.741</ele><time>2026-08-16T13:42:16.016Z</time><hdop>3.0</hdop><vdop>2.625</vdop><extensions><gom:speed>0.968</gom:speed></extensions></trkpt>
   <trkpt lat="59.3075914935" lon="34.6665988803"><ele>164.536</ele><time>2026-08-16T13:42:16.870Z</time><hdop>3.0</hdop><vdop>2.687</vdop><extensions><gom:speed>0.949</gom:speed></extensions></trkpt>
   <trkpt lat="59.3075867996" lon="34.666594857"><ele>164.581</ele><time>2026-08-16T13:42:17.595Z</time><hdop>3.0</hdop><vdop>2.812</vdop><extensions><gom:speed>0.99</gom:speed></extensions></trkpt>
   <trkpt lat="59.3075822734" lon="34.6665916719"><ele>165.014</ele><time>2026-08-16T13:42:18.138Z</time><hdop>3.0</hdop><vdop>2.875</vdop><extensions><gom:speed>1.05</gom:speed></extensions></trkpt>
   <trkpt lat="59.3075735981" lon="34.6665837929"><ele>165.574</ele><time>2026-08-16T13:42:19.138Z</time><hdop>3.0</hdop><vdop>2.875</vdop><extensions><gom:speed>1.058</gom:speed></extensions></trkpt>
   <trkpt lat="59.3075632884" lon="34.6665780932"><ele>166.226</ele><time>2026-08-16T13:42:20.138Z</time><hdop>3.0</hdop><vdop>2.687</vdop><extensions><gom:speed>1.073</gom:speed></extensions></trkpt>
   <trkpt lat="59.3075536911" lon="34.6665774226"><ele>166.615</ele><time>2026-08-16T13:42:20.953Z</time><hdop>3.0</hdop><vdop>2.687</vdop><extensions><gom:speed>1.06</gom:speed></extensions></trkpt>
   <trkpt lat="59.3075445967" lon="34.6665854693"><ele>166.936</ele><time>2026-08-16T13:42:21.797Z</time><hdop>3.0</hdop><vdop>2.625</vdop><extensions><gom:speed>0.985</gom:speed></extensions></trkpt>
   <trkpt lat="59.3075369692" lon="34.6665916719"><ele>167.366</ele><time>2026-08-16T13:42:22.514Z</time><hdop>3.0</hdop><vdop>2.5</vdop><extensions><gom:speed>0.993</gom:speed></extensions></trkpt>
   <trkpt lat="59.30753106" lon="34.6665932644"><ele>167.723</ele><time>2026-08-16T13:42:23.137Z</time><hdop>3.0</hdop><vdop>2.687</vdop><extensions><gom:speed>0.945</gom:speed></extensions></trkpt>
   <trkpt lat="59.3075236839" lon="34.6665898278"><ele>167.937</ele><time>2026-08-16T13:42:23.937Z</time><hdop>3.0</hdop><vdop>2.687</vdop><extensions><gom:speed>0.937</gom:speed></extensions></trkpt>
   <trkpt lat="59.3075194929" lon="34.6665840443"><ele>168.09</ele><time>2026-08-16T13:42:24.595Z</time><hdop>3.0</hdop><vdop>2.75</vdop><extensions><gom:speed>0.909</gom:speed></extensions></trkpt>
   <trkpt lat="59.3075168946" lon="34.6665816974"><ele>167.985</ele><time>2026-08-16T13:42:25.138Z</time><hdop>3.0</hdop><vdop>2.5</vdop><extensions><gom:speed>0.773</gom:speed></extensions></trkpt>
   <trkpt lat="59.3075146734" lon="34.6665825356"><ele>167.908</ele><time>2026-08-16T13:42:26.138Z</time><hdop>3.0</hdop><vdop>2.5</vdop><extensions><gom:speed>0.493</gom:speed></extensions></trkpt>
   <trkpt lat="59.3075161821" lon="34.6665849663"><ele>167.886</ele><time>2026-08-16T13:42:27.138Z</time><hdop>3.0</hdop><vdop>2.5</vdop><extensions><gom:speed>0.243</gom:speed></extensions></trkpt>
   <trkpt lat="59.3075193672" lon="34.6665861398"><ele>167.882</ele><time>2026-08-16T13:42:28.138Z</time><hdop>3.0</hdop><vdop>2.5</vdop><extensions><gom:speed>0.086</gom:speed></extensions></trkpt>
   <trkpt lat="59.3075221752" lon="34.6665868942"><ele>167.93</ele><time>2026-08-16T13:42:29.138Z</time><hdop>3.0</hdop><vdop>2.5</vdop><extensions><gom:speed>0.059</gom:speed></extensions></trkpt>
   <trkpt lat="59.3075236839" lon="34.6665875647"><ele>167.987</ele><time>2026-08-16T13:42:30.138Z</time><hdop>3.0</hdop><vdop>2.5</vdop><extensions><gom:speed>0.076</gom:speed></extensions></trkpt>
   <trkpt lat="59.3075237677" lon="34.6665877324"><ele>167.849</ele><time>2026-08-16T13:42:31.138Z</time><hdop>3.0</hdop><vdop>2.5</vdop><extensions><gom:speed>0.033</gom:speed></extensions></trkpt>
   <trkpt lat="59.3075226781" lon="34.6665874809"><ele>167.587</ele><time>2026-08-16T13:42:32.138Z</time><hdop>3.0</hdop><vdop>2.5</vdop><extensions><gom:speed>0.104</gom:speed></extensions></trkpt>
   <trkpt lat="59.3075216722" lon="34.6665874809"><ele>167.431</ele><time>2026-08-16T13:42:33.095Z</time><hdop>3.0</hdop><vdop>2.5</vdop><extensions><gom:speed>0.087</gom:speed></extensions></trkpt>
   <trkpt lat="59.3075191996" lon="34.6665870618"><ele>167.055</ele><time>2026-08-16T13:42:34.138Z</time><hdop>3.0</hdop><vdop>2.5</vdop><extensions><gom:speed>0.13</gom:speed></extensions></trkpt>
   <trkpt lat="59.3075183614" lon="34.6665873971"><ele>166.831</ele><time>2026-08-16T13:42:34.616Z</time><hdop>3.0</hdop><vdop>2.5</vdop><extensions><gom:speed>0.16</gom:speed></extensions></trkpt>
   <trkpt lat="59.3075144638" lon="34.6665893249"><ele>166.254</ele><time>2026-08-16T13:42:35.138Z</time><hdop>3.0</hdop><vdop>2.5</vdop><extensions><gom:speed>0.381</gom:speed></extensions></trkpt>
   <trkpt lat="59.307511572" lon="34.6665913366"><ele>165.91</ele><time>2026-08-16T13:42:35.637Z</time><hdop>3.0</hdop><vdop>2.5</vdop><extensions><gom:speed>0.395</gom:speed></extensions></trkpt>
   <trkpt lat="59.3075073811" lon="34.6665952761"><ele>165.812</ele><time>2026-08-16T13:42:36.138Z</time><hdop>3.0</hdop><vdop>2.5</vdop><extensions><gom:speed>0.478</gom:speed></extensions></trkpt>
   <trkpt lat="59.3074998793" lon="34.6666072622"><ele>165.77</ele><time>2026-08-16T13:42:37.138Z</time><hdop>3.0</hdop><vdop>2.5</vdop><extensions><gom:speed>0.765</gom:speed></extensions></trkpt>
   <trkpt lat="59.3074956883" lon="34.666616147"><ele>165.745</ele><time>2026-08-16T13:42:37.738Z</time><hdop>3.0</hdop><vdop>2.5</vdop><extensions><gom:speed>0.777</gom:speed></extensions></trkpt>
   <trkpt lat="59.3074870969" lon="34.6666376885"><ele>165.864</ele><time>2026-08-16T13:42:38.916Z</time><hdop>3.0</hdop><vdop>2.5</vdop><extensions><gom:speed>0.959</gom:speed></extensions></trkpt>
   <trkpt lat="59.3074812715" lon="34.6666469924"><ele>165.946</ele><time>2026-08-16T13:42:39.613Z</time><hdop>3.0</hdop><vdop>2.5</vdop><extensions><gom:speed>1.03</gom:speed></extensions></trkpt>
   <trkpt lat="59.3074767872" lon="34.6666537818"><ele>165.855</ele><time>2026-08-16T13:42:40.138Z</time><hdop>3.0</hdop><vdop>2.5</vdop><extensions><gom:speed>1.09</gom:speed></extensions></trkpt>
   <trkpt lat="59.3074694949" lon="34.666661996"><ele>165.8</ele><time>2026-08-16T13:42:40.869Z</time><hdop>3.0</hdop><vdop>2.5</vdop><extensions><gom:speed>1.092</gom:speed></extensions></trkpt>
   <trkpt lat="59.3074649687" lon="34.6666651812"><ele>165.69</ele><time>2026-08-16T13:42:41.370Z</time><hdop>3.0</hdop><vdop>2.5</vdop><extensions><gom:speed>1.065</gom:speed></extensions></trkpt>
   <trkpt lat="59.3074582631" lon="34.6666677795"><ele>165.72</ele><time>2026-08-16T13:42:42.138Z</time><hdop>3.0</hdop><vdop>2.5</vdop><extensions><gom:speed>0.994</gom:speed></extensions></trkpt>
   <trkpt lat="59.3074503842" lon="34.6666632533"><ele>165.753</ele><time>2026-08-16T13:42:43.138Z</time><hdop>3.0</hdop><vdop>2.5</vdop><extensions><gom:speed>0.932</gom:speed></extensions></trkpt>
   <trkpt lat="59.3074456903" lon="34.6666574698"><ele>165.773</ele><time>2026-08-16T13:42:43.794Z</time><hdop>3.062</hdop><vdop>2.5</vdop><extensions><gom:speed>0.925</gom:speed></extensions></trkpt>
   <trkpt lat="59.307439362" lon="34.6666510996"><ele>165.811</ele><time>2026-08-16T13:42:44.717Z</time><hdop>3.062</hdop><vdop>2.5</vdop><extensions><gom:speed>0.936</gom:speed></extensions></trkpt>
   <trkpt lat="59.3074354644" lon="34.6666528598"><ele>165.885</ele><time>2026-08-16T13:42:45.198Z</time><hdop>3.062</hdop><vdop>2.5</vdop><extensions><gom:speed>0.99</gom:speed></extensions></trkpt>
   <trkpt lat="59.3074275854" lon="34.6666497585"><ele>165.929</ele><time>2026-08-16T13:42:46.071Z</time><hdop>3.0</hdop><vdop>2.5</vdop><extensions><gom:speed>0.99</gom:speed></extensions></trkpt>
   <trkpt lat="59.307422682" lon="34.6666509319"><ele>165.684</ele><time>2026-08-16T13:42:46.611Z</time><hdop>3.0</hdop><vdop>2.5</vdop><extensions><gom:speed>0.989</gom:speed></extensions></trkpt>
   <trkpt lat="59.307417569" lon="34.6666486688"><ele>165.259</ele><time>2026-08-16T13:42:47.138Z</time><hdop>3.0</hdop><vdop>2.5</vdop><extensions><gom:speed>1.027</gom:speed></extensions></trkpt>
   <trkpt lat="59.3074116598" lon="34.6666358445"><ele>165.006</ele><time>2026-08-16T13:42:48.054Z</time><hdop>3.0</hdop><vdop>2.5</vdop><extensions><gom:speed>0.993</gom:speed></extensions></trkpt>
   <trkpt lat="59.3074109892" lon="34.6666204218"><ele>164.698</ele><time>2026-08-16T13:42:48.751Z</time><hdop>3.0</hdop><vdop>2.5</vdop><extensions><gom:speed>0.999</gom:speed></extensions></trkpt>
   <trkpt lat="59.3074084746" lon="34.6666101959"><ele>164.479</ele><time>2026-08-16T13:42:49.252Z</time><hdop>3.0</hdop><vdop>2.5</vdop><extensions><gom:speed>1.016</gom:speed></extensions></trkpt>
   <trkpt lat="59.3074038646" lon="34.6665964496"><ele>164.348</ele><time>2026-08-16T13:42:50.076Z</time><hdop>3.0</hdop><vdop>2.5</vdop><extensions><gom:speed>0.998</gom:speed></extensions></trkpt>
   <trkpt lat="59.3073983744" lon="34.6665943541"><ele>164.303</ele><time>2026-08-16T13:42:50.557Z</time><hdop>3.0</hdop><vdop>2.5</vdop><extensions><gom:speed>1.004</gom:speed></extensions></trkpt>
   <trkpt lat="59.307392088" lon="34.6665943541"><ele>164.249</ele><time>2026-08-16T13:42:51.138Z</time><hdop>3.0</hdop><vdop>2.5</vdop><extensions><gom:speed>0.997</gom:speed></extensions></trkpt>
   <trkpt lat="59.3073826584" lon="34.6665880676"><ele>164.217</ele><time>2026-08-16T13:42:52.108Z</time><hdop>3.0</hdop><vdop>2.5</vdop><extensions><gom:speed>0.981</gom:speed></extensions></trkpt>
   <trkpt lat="59.3073781741" lon="34.6665727288"><ele>164.211</ele><time>2026-08-16T13:42:52.875Z</time><hdop>3.0</hdop><vdop>2.5</vdop><extensions><gom:speed>1.059</gom:speed></extensions></trkpt>
   <trkpt lat="59.3073769587" lon="34.6665611617"><ele>164.307</ele><time>2026-08-16T13:42:53.375Z</time><hdop>3.0</hdop><vdop>2.5</vdop><extensions><gom:speed>1.095</gom:speed></extensions></trkpt>
   <trkpt lat="59.3073768749" lon="34.6665439788"><ele>164.537</ele><time>2026-08-16T13:42:54.138Z</time><hdop>3.0</hdop><vdop>2.5</vdop><extensions><gom:speed>1.096</gom:speed></extensions></trkpt>
   <trkpt lat="59.3073782998" lon="34.6665328309"><ele>164.674</ele><time>2026-08-16T13:42:54.632Z</time><hdop>3.0</hdop><vdop>2.5</vdop><extensions><gom:speed>1.098</gom:speed></extensions></trkpt>
   <trkpt lat="59.3073785932" lon="34.6665219344"><ele>164.917</ele><time>2026-08-16T13:42:55.138Z</time><hdop>3.0</hdop><vdop>2.625</vdop><extensions><gom:speed>1.113</gom:speed></extensions></trkpt>
   <trkpt lat="59.3073747794" lon="34.6665036619"><ele>165.062</ele><time>2026-08-16T13:42:56.015Z</time><hdop>3.0</hdop><vdop>2.625</vdop><extensions><gom:speed>1.086</gom:speed></extensions></trkpt>
   <trkpt lat="59.3073676967" lon="34.6664923463"><ele>165.3</ele><time>2026-08-16T13:42:56.772Z</time><hdop>3.0</hdop><vdop>2.5</vdop><extensions><gom:speed>1.102</gom:speed></extensions></trkpt>
   <trkpt lat="59.3073553753" lon="34.6664807793"><ele>165.173</ele><time>2026-08-16T13:42:58.138Z</time><hdop>3.0</hdop><vdop>2.5</vdop><extensions><gom:speed>1.039</gom:speed></extensions></trkpt>
   <trkpt lat="59.3073484602" lon="34.6664712239"><ele>165.004</ele><time>2026-08-16T13:42:59.138Z</time><hdop>3.0</hdop><vdop>2.5</vdop><extensions><gom:speed>0.972</gom:speed></extensions></trkpt>
   <trkpt lat="59.307344395" lon="34.6664662786"><ele>164.903</ele><time>2026-08-16T13:42:59.716Z</time><hdop>3.0</hdop><vdop>2.5</vdop><extensions><gom:speed>0.982</gom:speed></extensions></trkpt>
   <trkpt lat="59.3073354683" lon="34.6664751634"><ele>165.083</ele><time>2026-08-16T13:43:01.138Z</time><hdop>3.0</hdop><vdop>2.5</vdop><extensions><gom:speed>0.833</gom:speed></extensions></trkpt>
   <trkpt lat="59.3073320736" lon="34.6664836291"><ele>165.337</ele><time>2026-08-16T13:43:02.138Z</time><hdop>3.0</hdop><vdop>2.5</vdop><extensions><gom:speed>0.516</gom:speed></extensions></trkpt>
   <trkpt lat="59.3073298943" lon="34.6664877363"><ele>165.489</ele><time>2026-08-16T13:43:02.857Z</time><hdop>3.0</hdop><vdop>2.5</vdop><extensions><gom:speed>0.509</gom:speed></extensions></trkpt>
   <trkpt lat="59.3073280922" lon="34.6664862275"><ele>165.687</ele><time>2026-08-16T13:43:03.790Z</time><hdop>3.0</hdop><vdop>2.5</vdop><extensions><gom:speed>0.436</gom:speed></extensions></trkpt>
   <trkpt lat="59.3073192912" lon="34.6664831262"><ele>166.132</ele><time>2026-08-16T13:43:04.438Z</time><hdop>3.0</hdop><vdop>2.562</vdop><extensions><gom:speed>0.786</gom:speed></extensions></trkpt>
   <trkpt lat="59.3073141782" lon="34.6664785162"><ele>166.397</ele><time>2026-08-16T13:43:04.997Z</time><hdop>3.0</hdop><vdop>2.562</vdop><extensions><gom:speed>0.836</gom:speed></extensions></trkpt>
   <trkpt lat="59.3073043714" lon="34.6664736547"><ele>166.658</ele><time>2026-08-16T13:43:05.753Z</time><hdop>3.0</hdop><vdop>2.562</vdop><extensions><gom:speed>0.907</gom:speed></extensions></trkpt>
   <trkpt lat="59.3072964924" lon="34.6664705534"><ele>166.966</ele><time>2026-08-16T13:43:06.234Z</time><hdop>3.0</hdop><vdop>2.5</vdop><extensions><gom:speed>0.99</gom:speed></extensions></trkpt>
   <trkpt lat="59.3072886972" lon="34.6664635964"><ele>167.15</ele><time>2026-08-16T13:43:06.990Z</time><hdop>3.0</hdop><vdop>2.5</vdop><extensions><gom:speed>1.016</gom:speed></extensions></trkpt>
   <trkpt lat="59.3072811954" lon="34.6664589863"><ele>167.529</ele><time>2026-08-16T13:43:07.530Z</time><hdop>3.0</hdop><vdop>2.5</vdop><extensions><gom:speed>1.048</gom:speed></extensions></trkpt>
   <trkpt lat="59.3072741966" lon="34.6664541248"><ele>167.741</ele><time>2026-08-16T13:43:08.138Z</time><hdop>3.0</hdop><vdop>2.5</vdop><extensions><gom:speed>1.044</gom:speed></extensions></trkpt>
   <trkpt lat="59.3072671977" lon="34.6664500177"><ele>167.867</ele><time>2026-08-16T13:43:08.757Z</time><hdop>3.0</hdop><vdop>2.5</vdop><extensions><gom:speed>1.037</gom:speed></extensions></trkpt>
   <trkpt lat="59.3072603664" lon="34.666441552"><ele>167.694</ele><time>2026-08-16T13:43:09.434Z</time><hdop>3.0</hdop><vdop>2.562</vdop><extensions><gom:speed>1.078</gom:speed></extensions></trkpt>
   <trkpt lat="59.3072556725" lon="34.6664349303"><ele>167.59</ele><time>2026-08-16T13:43:09.992Z</time><hdop>3.0</hdop><vdop>2.562</vdop><extensions><gom:speed>1.0</gom:speed></extensions></trkpt>
   <trkpt lat="59.3072483803" lon="34.6664325833"><ele>167.46</ele><time>2026-08-16T13:43:10.710Z</time><hdop>3.0</hdop><vdop>2.75</vdop><extensions><gom:speed>0.999</gom:speed></extensions></trkpt>
   <trkpt lat="59.3072360589" lon="34.6664361876"><ele>167.85</ele><time>2026-08-16T13:43:12.138Z</time><hdop>3.0</hdop><vdop>2.812</vdop><extensions><gom:speed>0.939</gom:speed></extensions></trkpt>
   <trkpt lat="59.3072318679" lon="34.6664320804"><ele>168.084</ele><time>2026-08-16T13:43:12.614Z</time><hdop>3.0</hdop><vdop>2.812</vdop><extensions><gom:speed>0.939</gom:speed></extensions></trkpt>
   <trkpt lat="59.3072281799" lon="34.6664227765"><ele>167.945</ele><time>2026-08-16T13:43:13.138Z</time><hdop>3.0</hdop><vdop>2.937</vdop><extensions><gom:speed>1.023</gom:speed></extensions></trkpt>
   <trkpt lat="59.3072240728" lon="34.6664071862"><ele>167.862</ele><time>2026-08-16T13:43:13.929Z</time><hdop>3.0</hdop><vdop>2.937</vdop><extensions><gom:speed>1.026</gom:speed></extensions></trkpt>
   <trkpt lat="59.3072206781" lon="34.6663902547"><ele>167.762</ele><time>2026-08-16T13:43:14.734Z</time><hdop>3.0</hdop><vdop>3.062</vdop><extensions><gom:speed>1.029</gom:speed></extensions></trkpt>
   <trkpt lat="59.3072130925" lon="34.6663710602"><ele>167.543</ele><time>2026-08-16T13:43:15.991Z</time><hdop>3.0</hdop><vdop>3.062</vdop><extensions><gom:speed>1.023</gom:speed></extensions></trkpt>
   <trkpt lat="59.3072099912" lon="34.6663630974"><ele>167.254</ele><time>2026-08-16T13:43:16.590Z</time><hdop>3.0</hdop><vdop>2.875</vdop><extensions><gom:speed>0.993</gom:speed></extensions></trkpt>
   <trkpt lat="59.3072075604" lon="34.6663562242"><ele>167.041</ele><time>2026-08-16T13:43:17.138Z</time><hdop>3.0</hdop><vdop>2.562</vdop><extensions><gom:speed>0.959</gom:speed></extensions></trkpt>
   <trkpt lat="59.3072032857" lon="34.6663476747"><ele>166.914</ele><time>2026-08-16T13:43:17.856Z</time><hdop>3.0</hdop><vdop>2.562</vdop><extensions><gom:speed>0.952</gom:speed></extensions></trkpt>
   <trkpt lat="59.3071991785" lon="34.6663382869"><ele>166.846</ele><time>2026-08-16T13:43:18.651Z</time><hdop>3.0</hdop><vdop>2.625</vdop><extensions><gom:speed>0.968</gom:speed></extensions></trkpt>
   <trkpt lat="59.3071966639" lon="34.6663347665"><ele>166.894</ele><time>2026-08-16T13:43:19.138Z</time><hdop>3.0</hdop><vdop>2.812</vdop><extensions><gom:speed>0.969</gom:speed></extensions></trkpt>
   <trkpt lat="59.3071897908" lon="34.6663314976"><ele>167.294</ele><time>2026-08-16T13:43:20.138Z</time><hdop>3.0</hdop><vdop>3.0</vdop><extensions><gom:speed>0.953</gom:speed></extensions></trkpt>
   <trkpt lat="59.3071858932" lon="34.6663305756"><ele>167.532</ele><time>2026-08-16T13:43:20.594Z</time><hdop>3.0</hdop><vdop>3.0</vdop><extensions><gom:speed>0.955</gom:speed></extensions></trkpt>
   <trkpt lat="59.3071820794" lon="34.6663320843"><ele>167.833</ele><time>2026-08-16T13:43:21.138Z</time><hdop>3.0</hdop><vdop>2.75</vdop><extensions><gom:speed>0.967</gom:speed></extensions></trkpt>
   <trkpt lat="59.3071735718" lon="34.6663370296"><ele>168.012</ele><time>2026-08-16T13:43:22.096Z</time><hdop>3.0</hdop><vdop>2.75</vdop><extensions><gom:speed>1.003</gom:speed></extensions></trkpt>
   <trkpt lat="59.3071684588" lon="34.6663439866"><ele>167.897</ele><time>2026-08-16T13:43:22.832Z</time><hdop>3.0</hdop><vdop>2.687</vdop><extensions><gom:speed>0.984</gom:speed></extensions></trkpt>
   <trkpt lat="59.3071656928" lon="34.6663463336"><ele>168.128</ele><time>2026-08-16T13:43:23.294Z</time><hdop>3.0</hdop><vdop>2.562</vdop><extensions><gom:speed>1.006</gom:speed></extensions></trkpt>
   <trkpt lat="59.3071571852" lon="34.6663454954"><ele>168.266</ele><time>2026-08-16T13:43:24.138Z</time><hdop>3.0</hdop><vdop>2.562</vdop><extensions><gom:speed>1.046</gom:speed></extensions></trkpt>
   <trkpt lat="59.3071539582" lon="34.6663480938"><ele>168.408</ele><time>2026-08-16T13:43:24.629Z</time><hdop>3.0</hdop><vdop>2.687</vdop><extensions><gom:speed>0.994</gom:speed></extensions></trkpt>
   <trkpt lat="59.3071509826" lon="34.6663514465"><ele>167.9</ele><time>2026-08-16T13:43:25.138Z</time><hdop>3.0</hdop><vdop>2.687</vdop><extensions><gom:speed>1.004</gom:speed></extensions></trkpt>
   <trkpt lat="59.3071455762" lon="34.6663558889"><ele>167.597</ele><time>2026-08-16T13:43:25.816Z</time><hdop>3.0</hdop><vdop>2.687</vdop><extensions><gom:speed>1.006</gom:speed></extensions></trkpt>
   <trkpt lat="59.3071401699" lon="34.6663621754"><ele>167.43</ele><time>2026-08-16T13:43:26.610Z</time><hdop>3.0</hdop><vdop>2.625</vdop><extensions><gom:speed>1.013</gom:speed></extensions></trkpt>
   <trkpt lat="59.3071372782" lon="34.6663616724"><ele>167.089</ele><time>2026-08-16T13:43:27.138Z</time><hdop>3.0</hdop><vdop>2.562</vdop><extensions><gom:speed>0.955</gom:speed></extensions></trkpt>
   <trkpt lat="59.3071393736" lon="34.6663439866"><ele>166.723</ele><time>2026-08-16T13:43:28.138Z</time><hdop>3.0</hdop><vdop>2.812</vdop><extensions><gom:speed>1.167</gom:speed></extensions></trkpt>
   <trkpt lat="59.3071458696" lon="34.6663378678"><ele>166.505</ele><time>2026-08-16T13:43:28.673Z</time><hdop>3.0</hdop><vdop>2.812</vdop><extensions><gom:speed>1.17</gom:speed></extensions></trkpt>
   <trkpt lat="59.3071520722" lon="34.6663332578"><ele>167.399</ele><time>2026-08-16T13:43:29.138Z</time><hdop>3.0</hdop><vdop>2.75</vdop><extensions><gom:speed>1.171</gom:speed></extensions></trkpt>
   <trkpt lat="59.3071633878" lon="34.6663311623"><ele>167.933</ele><time>2026-08-16T13:43:30.096Z</time><hdop>3.0</hdop><vdop>2.75</vdop><extensions><gom:speed>1.096</gom:speed></extensions></trkpt>
   <trkpt lat="59.307172566" lon="34.6663306594"><ele>167.979</ele><time>2026-08-16T13:43:30.950Z</time><hdop>3.0</hdop><vdop>2.5</vdop><extensions><gom:speed>1.028</gom:speed></extensions></trkpt>
   <trkpt lat="59.307177176" lon="34.6663291507"><ele>168.032</ele><time>2026-08-16T13:43:31.470Z</time><hdop>3.0</hdop><vdop>2.5</vdop><extensions><gom:speed>0.958</gom:speed></extensions></trkpt>
   <trkpt lat="59.307182289" lon="34.6663286477"><ele>168.275</ele><time>2026-08-16T13:43:32.138Z</time><hdop>3.0</hdop><vdop>2.562</vdop><extensions><gom:speed>0.815</gom:speed></extensions></trkpt>
   <trkpt lat="59.3071909643" lon="34.6663345989"><ele>167.929</ele><time>2026-08-16T13:43:33.138Z</time><hdop>3.0</hdop><vdop>2.5</vdop><extensions><gom:speed>0.83</gom:speed></extensions></trkpt>
   <trkpt lat="59.3071925987" lon="34.6663483452"><ele>167.723</ele><time>2026-08-16T13:43:33.953Z</time><hdop>3.0</hdop><vdop>2.5</vdop><extensions><gom:speed>0.895</gom:speed></extensions></trkpt>
   <trkpt lat="59.307188282" lon="34.6663561404"><ele>167.765</ele><time>2026-08-16T13:43:34.474Z</time><hdop>3.0</hdop><vdop>2.5</vdop><extensions><gom:speed>0.938</gom:speed></extensions></trkpt>
   <trkpt lat="59.3071815765" lon="34.6663618401"><ele>167.571</ele><time>2026-08-16T13:43:35.138Z</time><hdop>3.0</hdop><vdop>2.5</vdop><extensions><gom:speed>1.083</gom:speed></extensions></trkpt>
   <trkpt lat="59.3071753739" lon="34.6663666178"><ele>167.455</ele><time>2026-08-16T13:43:35.691Z</time><hdop>3.0</hdop><vdop>2.5</vdop><extensions><gom:speed>1.092</gom:speed></extensions></trkpt>
   <trkpt lat="59.3071672854" lon="34.6663754188"><ele>167.325</ele><time>2026-08-16T13:43:36.555Z</time><hdop>3.0</hdop><vdop>2.562</vdop><extensions><gom:speed>1.085</gom:speed></extensions></trkpt>
   <trkpt lat="59.3071629687" lon="34.6663804479"><ele>166.671</ele><time>2026-08-16T13:43:37.138Z</time><hdop>3.0</hdop><vdop>2.5</vdop><extensions><gom:speed>0.943</gom:speed></extensions></trkpt>
   <trkpt lat="59.307155886" lon="34.6663830463"><ele>166.281</ele><time>2026-08-16T13:43:37.997Z</time><hdop>3.0</hdop><vdop>2.5</vdop><extensions><gom:speed>0.976</gom:speed></extensions></trkpt>
   <trkpt lat="59.3071520722" lon="34.6663838845"><ele>166.152</ele><time>2026-08-16T13:43:38.518Z</time><hdop>3.0</hdop><vdop>2.5</vdop><extensions><gom:speed>0.985</gom:speed></extensions></trkpt>
   <trkpt lat="59.3071466659" lon="34.6663828787"><ele>165.967</ele><time>2026-08-16T13:43:39.138Z</time><hdop>3.0</hdop><vdop>2.5</vdop><extensions><gom:speed>1.032</gom:speed></extensions></trkpt>
   <trkpt lat="59.3071411757" lon="34.6663825434"><ele>165.856</ele><time>2026-08-16T13:43:39.696Z</time><hdop>3.0</hdop><vdop>2.5</vdop><extensions><gom:speed>1.037</gom:speed></extensions></trkpt>
   <trkpt lat="59.3071310756" lon="34.666385477"><ele>166.004</ele><time>2026-08-16T13:43:40.549Z</time><hdop>3.0</hdop><vdop>2.687</vdop><extensions><gom:speed>1.125</gom:speed></extensions></trkpt>
   <trkpt lat="59.3071239928" lon="34.6663881593"><ele>165.796</ele><time>2026-08-16T13:43:41.138Z</time><hdop>3.0</hdop><vdop>2.875</vdop><extensions><gom:speed>1.104</gom:speed></extensions></trkpt>
   <trkpt lat="59.307116491" lon="34.6663894165"><ele>165.672</ele><time>2026-08-16T13:43:41.796Z</time><hdop>3.0</hdop><vdop>2.875</vdop><extensions><gom:speed>1.095</gom:speed></extensions></trkpt>
   <trkpt lat="59.3071111685" lon="34.6663900871"><ele>165.574</ele><time>2026-08-16T13:43:42.395Z</time><hdop>3.0</hdop><vdop>2.875</vdop><extensions><gom:speed>1.064</gom:speed></extensions></trkpt>
   <trkpt lat="59.307104463" lon="34.6663877402"><ele>165.515</ele><time>2026-08-16T13:43:43.072Z</time><hdop>3.0</hdop><vdop>2.875</vdop><extensions><gom:speed>1.035</gom:speed></extensions></trkpt>
   <trkpt lat="59.3071004816" lon="34.6663855609"><ele>165.586</ele><time>2026-08-16T13:43:43.632Z</time><hdop>3.0</hdop><vdop>2.875</vdop><extensions><gom:speed>0.996</gom:speed></extensions></trkpt>
   <trkpt lat="59.3070972965" lon="34.666383633"><ele>165.988</ele><time>2026-08-16T13:43:44.138Z</time><hdop>3.0</hdop><vdop>3.125</vdop><extensions><gom:speed>0.932</gom:speed></extensions></trkpt>
   <trkpt lat="59.3070912615" lon="34.6663791906"><ele>166.228</ele><time>2026-08-16T13:43:44.937Z</time><hdop>3.0</hdop><vdop>3.125</vdop><extensions><gom:speed>0.922</gom:speed></extensions></trkpt>
   <trkpt lat="59.3070828796" lon="34.6663744968"><ele>166.263</ele><time>2026-08-16T13:43:46.138Z</time><hdop>3.0</hdop><vdop>2.687</vdop><extensions><gom:speed>0.945</gom:speed></extensions></trkpt>
   <trkpt lat="59.3070748749" lon="34.6663705573"><ele>166.284</ele><time>2026-08-16T13:43:46.969Z</time><hdop>3.0</hdop><vdop>2.687</vdop><extensions><gom:speed>0.981</gom:speed></extensions></trkpt>
   <trkpt lat="59.3070698877" lon="34.6663675398"><ele>166.217</ele><time>2026-08-16T13:43:47.469Z</time><hdop>3.0</hdop><vdop>2.875</vdop><extensions><gom:speed>0.988</gom:speed></extensions></trkpt>
   <trkpt lat="59.3070645652" lon="34.6663640194"><ele>165.795</ele><time>2026-08-16T13:43:48.138Z</time><hdop>3.0</hdop><vdop>2.75</vdop><extensions><gom:speed>0.912</gom:speed></extensions></trkpt>
   <trkpt lat="59.3070594941" lon="34.666363265"><ele>165.543</ele><time>2026-08-16T13:43:48.716Z</time><hdop>3.0</hdop><vdop>2.75</vdop><extensions><gom:speed>0.924</gom:speed></extensions></trkpt>
   <trkpt lat="59.3070523695" lon="34.6663654443"><ele>165.271</ele><time>2026-08-16T13:43:49.511Z</time><hdop>3.0</hdop><vdop>2.937</vdop><extensions><gom:speed>0.926</gom:speed></extensions></trkpt>
   <trkpt lat="59.3070481785" lon="34.6663644385"><ele>164.69</ele><time>2026-08-16T13:43:50.138Z</time><hdop>3.0</hdop><vdop>2.875</vdop><extensions><gom:speed>0.804</gom:speed></extensions></trkpt>
   <trkpt lat="59.3070416826" lon="34.6663596608"><ele>164.343</ele><time>2026-08-16T13:43:50.993Z</time><hdop>3.0</hdop><vdop>2.875</vdop><extensions><gom:speed>0.873</gom:speed></extensions></trkpt>
   <trkpt lat="59.3070355638" lon="34.6663601637"><ele>164.383</ele><time>2026-08-16T13:43:51.631Z</time><hdop>3.0</hdop><vdop>2.75</vdop><extensions><gom:speed>0.913</gom:speed></extensions></trkpt>
   <trkpt lat="59.307031289" lon="34.666360499"><ele>164.669</ele><time>2026-08-16T13:43:52.138Z</time><hdop>3.0</hdop><vdop>2.562</vdop><extensions><gom:speed>0.869</gom:speed></extensions></trkpt>
   <trkpt lat="59.307026176" lon="34.6663589902"><ele>164.84</ele><time>2026-08-16T13:43:52.976Z</time><hdop>3.0</hdop><vdop>2.562</vdop><extensions><gom:speed>0.982</gom:speed></extensions></trkpt>
   <trkpt lat="59.3070246673" lon="34.6663542964"><ele>164.867</ele><time>2026-08-16T13:43:54.075Z</time><hdop>3.0</hdop><vdop>2.5</vdop><extensions><gom:speed>0.827</gom:speed></extensions></trkpt>
   <trkpt lat="59.3070193867" lon="34.6663577329"><ele>164.787</ele><time>2026-08-16T13:43:55.138Z</time><hdop>3.062</hdop><vdop>2.625</vdop><extensions><gom:speed>0.577</gom:speed></extensions></trkpt>
   <trkpt lat="59.3070134775" lon="34.6663648576"><ele>165.35</ele><time>2026-08-16T13:43:56.138Z</time><hdop>3.062</hdop><vdop>2.687</vdop><extensions><gom:speed>0.705</gom:speed></extensions></trkpt>
   <trkpt lat="59.307009077" lon="34.6663677912"><ele>165.686</ele><time>2026-08-16T13:43:56.990Z</time><hdop>3.25</hdop><vdop>2.687</vdop><extensions><gom:speed>0.712</gom:speed></extensions></trkpt>
   <trkpt lat="59.3069989768" lon="34.6663648576"><ele>166.026</ele><time>2026-08-16T13:43:57.717Z</time><hdop>3.375</hdop><vdop>2.875</vdop><extensions><gom:speed>0.853</gom:speed></extensions></trkpt>
   <trkpt lat="59.3069889604" lon="34.6663440704"><ele>166.383</ele><time>2026-08-16T13:43:58.973Z</time><hdop>3.437</hdop><vdop>3.062</vdop><extensions><gom:speed>0.928</gom:speed></extensions></trkpt>
   <trkpt lat="59.3069822968" lon="34.6663306594"><ele>166.565</ele><time>2026-08-16T13:43:59.729Z</time><hdop>3.437</hdop><vdop>3.187</vdop><extensions><gom:speed>0.969</gom:speed></extensions></trkpt>
   <trkpt lat="59.3069763875" lon="34.6663191762"><ele>166.475</ele><time>2026-08-16T13:44:00.475Z</time><hdop>3.375</hdop><vdop>3.25</vdop><extensions><gom:speed>0.961</gom:speed></extensions></trkpt>
   <trkpt lat="59.3069731605" lon="34.6663094532"><ele>166.422</ele><time>2026-08-16T13:44:01.113Z</time><hdop>3.375</hdop><vdop>3.25</vdop><extensions><gom:speed>0.964</gom:speed></extensions></trkpt>
   <trkpt lat="59.3069656587" lon="34.6663046755"><ele>166.354</ele><time>2026-08-16T13:44:01.692Z</time><hdop>3.312</hdop><vdop>3.187</vdop><extensions><gom:speed>0.978</gom:speed></extensions></trkpt>
   <trkpt lat="59.306956271" lon="34.6663027477"><ele>166.248</ele><time>2026-08-16T13:44:02.409Z</time><hdop>3.187</hdop><vdop>3.0</vdop><extensions><gom:speed>0.958</gom:speed></extensions></trkpt>
   <trkpt lat="59.3069500684" lon="34.6663011551"><ele>166.184</ele><time>2026-08-16T13:44:03.017Z</time><hdop>3.062</hdop><vdop>3.0</vdop><extensions><gom:speed>0.927</gom:speed></extensions></trkpt>
   <trkpt lat="59.3069420636" lon="34.6662969642"><ele>166.092</ele><time>2026-08-16T13:44:03.753Z</time><hdop>3.062</hdop><vdop>2.875</vdop><extensions><gom:speed>0.959</gom:speed></extensions></trkpt>
   <trkpt lat="59.3069379984" lon="34.6662893366"><ele>166.302</ele><time>2026-08-16T13:44:04.215Z</time><hdop>3.0</hdop><vdop>2.562</vdop><extensions><gom:speed>0.962</gom:speed></extensions></trkpt>
   <trkpt lat="59.3069312929" lon="34.6662756741"><ele>166.805</ele><time>2026-08-16T13:44:05.138Z</time><hdop>3.0</hdop><vdop>2.562</vdop><extensions><gom:speed>0.973</gom:speed></extensions></trkpt>
   <trkpt lat="59.306924294" lon="34.6662603352"><ele>167.006</ele><time>2026-08-16T13:44:06.138Z</time><hdop>3.0</hdop><vdop>2.5</vdop><extensions><gom:speed>0.954</gom:speed></extensions></trkpt>
   <trkpt lat="59.3069160797" lon="34.6662513666"><ele>167.127</ele><time>2026-08-16T13:44:07.130Z</time><hdop>3.0</hdop><vdop>2.5</vdop><extensions><gom:speed>0.923</gom:speed></extensions></trkpt>
   <trkpt lat="59.3069111763" lon="34.6662401348"><ele>166.793</ele><time>2026-08-16T13:44:07.974Z</time><hdop>3.0</hdop><vdop>2.5</vdop><extensions><gom:speed>0.884</gom:speed></extensions></trkpt>
   <trkpt lat="59.3069071949" lon="34.666235441"><ele>166.459</ele><time>2026-08-16T13:44:08.592Z</time><hdop>3.0</hdop><vdop>2.5</vdop><extensions><gom:speed>0.934</gom:speed></extensions></trkpt>
   <trkpt lat="59.3069044708" lon="34.6662386261"><ele>166.087</ele><time>2026-08-16T13:44:09.138Z</time><hdop>3.0</hdop><vdop>2.5</vdop><extensions><gom:speed>0.879</gom:speed></extensions></trkpt>
   <trkpt lat="59.30690116" lon="34.6662504446"><ele>165.865</ele><time>2026-08-16T13:44:09.996Z</time><hdop>3.0</hdop><vdop>2.5</vdop><extensions><gom:speed>0.838</gom:speed></extensions></trkpt>
   <trkpt lat="59.306899274" lon="34.6662621793"><ele>165.789</ele><time>2026-08-16T13:44:10.752Z</time><hdop>3.0</hdop><vdop>2.5</vdop><extensions><gom:speed>0.874</gom:speed></extensions></trkpt>
   <trkpt lat="59.3068962984" lon="34.666274333"><ele>166.168</ele><time>2026-08-16T13:44:11.557Z</time><hdop>3.0</hdop><vdop>2.5</vdop><extensions><gom:speed>0.901</gom:speed></extensions></trkpt>
   <trkpt lat="59.3068917722" lon="34.6662787754"><ele>166.394</ele><time>2026-08-16T13:44:12.097Z</time><hdop>3.0</hdop><vdop>2.5</vdop><extensions><gom:speed>0.892</gom:speed></extensions></trkpt>
   <trkpt lat="59.3068815882" lon="34.6662705612"><ele>166.232</ele><time>2026-08-16T13:44:13.029Z</time><hdop>3.0</hdop><vdop>2.5</vdop><extensions><gom:speed>0.887</gom:speed></extensions></trkpt>
   <trkpt lat="59.3068712785" lon="34.6662584912"><ele>166.74</ele><time>2026-08-16T13:44:14.137Z</time><hdop>3.0</hdop><vdop>2.5</vdop><extensions><gom:speed>0.902</gom:speed></extensions></trkpt>
   <trkpt lat="59.3068637767" lon="34.6662452478"><ele>167.318</ele><time>2026-08-16T13:44:15.138Z</time><hdop>3.0</hdop><vdop>2.5</vdop><extensions><gom:speed>0.907</gom:speed></extensions></trkpt>
   <trkpt lat="59.3068610945" lon="34.6662367821"><ele>167.663</ele><time>2026-08-16T13:44:15.669Z</time><hdop>3.0</hdop><vdop>2.5</vdop><extensions><gom:speed>0.9</gom:speed></extensions></trkpt>
   <trkpt lat="59.3068579931" lon="34.6662311662"><ele>167.894</ele><time>2026-08-16T13:44:16.138Z</time><hdop>3.0</hdop><vdop>2.5</vdop><extensions><gom:speed>0.896</gom:speed></extensions></trkpt>
   <trkpt lat="59.306850198" lon="34.6662218623"><ele>167.933</ele><time>2026-08-16T13:44:17.138Z</time><hdop>3.0</hdop><vdop>2.5</vdop><extensions><gom:speed>0.916</gom:speed></extensions></trkpt>
   <trkpt lat="59.3068418999" lon="34.6662157435"><ele>167.956</ele><time>2026-08-16T13:44:18.035Z</time><hdop>3.0</hdop><vdop>2.5</vdop><extensions><gom:speed>0.941</gom:speed></extensions></trkpt>
   <trkpt lat="59.3068350686" lon="34.6662195992"><ele>168.023</ele><time>2026-08-16T13:44:18.673Z</time><hdop>3.0</hdop><vdop>2.5</vdop><extensions><gom:speed>0.935</gom:speed></extensions></trkpt>
   <trkpt lat="59.3068307939" lon="34.6662231196"><ele>168.106</ele><time>2026-08-16T13:44:19.138Z</time><hdop>3.0</hdop><vdop>2.5</vdop><extensions><gom:speed>0.97</gom:speed></extensions></trkpt>
   <trkpt lat="59.3068232921" lon="34.6662283164"><ele>168.155</ele><time>2026-08-16T13:44:19.929Z</time><hdop>3.0</hdop><vdop>2.5</vdop><extensions><gom:speed>0.954</gom:speed></extensions></trkpt>
   <trkpt lat="59.3068185982" lon="34.6662319206"><ele>167.954</ele><time>2026-08-16T13:44:20.832Z</time><hdop>3.0</hdop><vdop>2.5</vdop><extensions><gom:speed>1.217</gom:speed></extensions></trkpt>
   <trkpt lat="59.30681776" lon="34.6662356924"><ele>167.783</ele><time>2026-08-16T13:44:21.569Z</time><hdop>3.0</hdop><vdop>2.5</vdop><extensions><gom:speed>1.031</gom:speed></extensions></trkpt>
   <trkpt lat="59.3068138624" lon="34.6662402187"><ele>167.602</ele><time>2026-08-16T13:44:22.138Z</time><hdop>3.0</hdop><vdop>2.5</vdop><extensions><gom:speed>1.053</gom:speed></extensions></trkpt>
   <trkpt lat="59.3068103839" lon="34.6662425656"><ele>167.494</ele><time>2026-08-16T13:44:23.051Z</time><hdop>3.25</hdop><vdop>2.5</vdop><extensions><gom:speed>0.972</gom:speed></extensions></trkpt>
   <trkpt lat="59.3068030917" lon="34.666252121"><ele>167.377</ele><time>2026-08-16T13:44:23.875Z</time><hdop>3.437</hdop><vdop>2.5</vdop><extensions><gom:speed>0.927</gom:speed></extensions></trkpt>
   <trkpt lat="59.3067978949" lon="34.6662615925"><ele>167.4</ele><time>2026-08-16T13:44:24.355Z</time><hdop>3.562</hdop><vdop>2.5</vdop><extensions><gom:speed>0.931</gom:speed></extensions></trkpt>
   <trkpt lat="59.3067913989" lon="34.6662727405"><ele>167.191</ele><time>2026-08-16T13:44:25.138Z</time><hdop>3.625</hdop><vdop>2.5</vdop><extensions><gom:speed>0.918</gom:speed></extensions></trkpt>
   <trkpt lat="59.3067851963" lon="34.6662859839"><ele>167.065</ele><time>2026-08-16T13:44:26.093Z</time><hdop>3.75</hdop><vdop>2.5</vdop><extensions><gom:speed>0.956</gom:speed></extensions></trkpt>
   <trkpt lat="59.3067819693" lon="34.666292857"><ele>167.072</ele><time>2026-08-16T13:44:26.574Z</time><hdop>3.75</hdop><vdop>2.5</vdop><extensions><gom:speed>0.946</gom:speed></extensions></trkpt>
   <trkpt lat="59.3067778622" lon="34.6663009875"><ele>167.288</ele><time>2026-08-16T13:44:27.138Z</time><hdop>3.687</hdop><vdop>2.5</vdop><extensions><gom:speed>1.081</gom:speed></extensions></trkpt>
   <trkpt lat="59.3067730845" lon="34.6663089503"><ele>167.418</ele><time>2026-08-16T13:44:27.693Z</time><hdop>3.687</hdop><vdop>2.5</vdop><extensions><gom:speed>1.091</gom:speed></extensions></trkpt>
   <trkpt lat="59.306762188" lon="34.6663189247"><ele>168.036</ele><time>2026-08-16T13:44:28.557Z</time><hdop>3.562</hdop><vdop>2.5</vdop><extensions><gom:speed>1.231</gom:speed></extensions></trkpt>
   <trkpt lat="59.3067522974" lon="34.6663196791"><ele>168.85</ele><time>2026-08-16T13:44:29.138Z</time><hdop>3.437</hdop><vdop>2.5</vdop><extensions><gom:speed>1.298</gom:speed></extensions></trkpt>
   <trkpt lat="59.3067355755" lon="34.6663118839"><ele>169.535</ele><time>2026-08-16T13:44:30.138Z</time><hdop>3.312</hdop><vdop>2.5</vdop><extensions><gom:speed>1.331</gom:speed></extensions></trkpt>
   <trkpt lat="59.3067191888" lon="34.6663079444"><ele>170.11</ele><time>2026-08-16T13:44:31.138Z</time><hdop>3.187</hdop><vdop>2.5</vdop><extensions><gom:speed>1.278</gom:speed></extensions></trkpt>
   <trkpt lat="59.3067077894" lon="34.6663091179"><ele>170.453</ele><time>2026-08-16T13:44:31.934Z</time><hdop>3.125</hdop><vdop>2.5</vdop><extensions><gom:speed>1.281</gom:speed></extensions></trkpt>
   <trkpt lat="59.3066984855" lon="34.6663088665"><ele>171.645</ele><time>2026-08-16T13:44:32.709Z</time><hdop>3.125</hdop><vdop>2.5</vdop><extensions><gom:speed>1.223</gom:speed></extensions></trkpt>
   <trkpt lat="59.306688092" lon="34.6663116325"><ele>172.342</ele><time>2026-08-16T13:44:33.593Z</time><hdop>3.0</hdop><vdop>2.5</vdop><extensions><gom:speed>1.208</gom:speed></extensions></trkpt>
   <trkpt lat="59.3066818894" lon="34.6663139794"><ele>172.759</ele><time>2026-08-16T13:44:34.138Z</time><hdop>3.0</hdop><vdop>2.5</vdop><extensions><gom:speed>1.175</gom:speed></extensions></trkpt>
   <trkpt lat="59.3066713701" lon="34.6663167454"><ele>173.008</ele><time>2026-08-16T13:44:35.055Z</time><hdop>3.0</hdop><vdop>2.5</vdop><extensions><gom:speed>1.058</gom:speed></extensions></trkpt>
   <trkpt lat="59.3066647903" lon="34.6663178351"><ele>173.856</ele><time>2026-08-16T13:44:35.693Z</time><hdop>3.0</hdop><vdop>2.5</vdop><extensions><gom:speed>1.089</gom:speed></extensions></trkpt>
   <trkpt lat="59.3066590906" lon="34.6663197629"><ele>174.261</ele><time>2026-08-16T13:44:36.370Z</time><hdop>3.0</hdop><vdop>2.5</vdop><extensions><gom:speed>1.063</gom:speed></extensions></trkpt>
   <trkpt lat="59.3066534747" lon="34.6663233671"><ele>174.503</ele><time>2026-08-16T13:44:37.010Z</time><hdop>3.0</hdop><vdop>2.5</vdop><extensions><gom:speed>0.972</gom:speed></extensions></trkpt>
   <trkpt lat="59.3066480684" lon="34.6663302403"><ele>174.56</ele><time>2026-08-16T13:44:37.814Z</time><hdop>3.0</hdop><vdop>2.5</vdop><extensions><gom:speed>0.973</gom:speed></extensions></trkpt>
   <trkpt lat="59.3066443803" lon="34.6663370296"><ele>173.479</ele><time>2026-08-16T13:44:38.649Z</time><hdop>3.0</hdop><vdop>2.5</vdop><extensions><gom:speed>0.946</gom:speed></extensions></trkpt>
   <trkpt lat="59.3066429973" lon="34.6663398795"><ele>172.644</ele><time>2026-08-16T13:44:39.138Z</time><hdop>3.0</hdop><vdop>2.562</vdop><extensions><gom:speed>0.937</gom:speed></extensions></trkpt>
   <trkpt lat="59.3066392674" lon="34.6663459983"><ele>172.224</ele><time>2026-08-16T13:44:40.138Z</time><hdop>3.0</hdop><vdop>2.687</vdop><extensions><gom:speed>0.845</gom:speed></extensions></trkpt>
   <trkpt lat="59.3066363756" lon="34.6663541287"><ele>171.973</ele><time>2026-08-16T13:44:40.955Z</time><hdop>3.0</hdop><vdop>2.687</vdop><extensions><gom:speed>0.846</gom:speed></extensions></trkpt>
   <trkpt lat="59.3066392674" lon="34.6663642708"><ele>171.12</ele><time>2026-08-16T13:44:41.574Z</time><hdop>3.0</hdop><vdop>2.875</vdop><extensions><gom:speed>0.932</gom:speed></extensions></trkpt>
   <trkpt lat="59.3066444642" lon="34.6663705573"><ele>171.023</ele><time>2026-08-16T13:44:42.138Z</time><hdop>3.0</hdop><vdop>3.062</vdop><extensions><gom:speed>0.895</gom:speed></extensions></trkpt>
   <trkpt lat="59.3066503734" lon="34.6663809508"><ele>170.965</ele><time>2026-08-16T13:44:42.958Z</time><hdop>3.0</hdop><vdop>3.062</vdop><extensions><gom:speed>0.891</gom:speed></extensions></trkpt>
   <trkpt lat="59.3066549835" lon="34.6663889974"><ele>170.865</ele><time>2026-08-16T13:44:43.714Z</time><hdop>3.0</hdop><vdop>3.437</vdop><extensions><gom:speed>0.805</gom:speed></extensions></trkpt>
   <trkpt lat="59.3066567856" lon="34.6663945295"><ele>171.26</ele><time>2026-08-16T13:44:44.352Z</time><hdop>3.0</hdop><vdop>3.375</vdop><extensions><gom:speed>0.791</gom:speed></extensions></trkpt>
   <trkpt lat="59.3066540614" lon="34.6664014865"><ele>171.658</ele><time>2026-08-16T13:44:45.138Z</time><hdop>3.0</hdop><vdop>3.0</vdop><extensions><gom:speed>0.824</gom:speed></extensions></trkpt>
   <trkpt lat="59.3066470626" lon="34.6664055936"><ele>171.612</ele><time>2026-08-16T13:44:46.138Z</time><hdop>3.0</hdop><vdop>2.75</vdop><extensions><gom:speed>0.846</gom:speed></extensions></trkpt>
   <trkpt lat="59.3066397703" lon="34.6664076891"><ele>171.584</ele><time>2026-08-16T13:44:47.051Z</time><hdop>3.0</hdop><vdop>2.75</vdop><extensions><gom:speed>0.866</gom:speed></extensions></trkpt>
   <trkpt lat="59.3066342802" lon="34.6664164901"><ele>169.704</ele><time>2026-08-16T13:44:48.137Z</time><hdop>3.0</hdop><vdop>2.5</vdop><extensions><gom:speed>0.891</gom:speed></extensions></trkpt>
   <trkpt lat="59.3066316818" lon="34.6664304879"><ele>168.582</ele><time>2026-08-16T13:44:48.935Z</time><hdop>3.0</hdop><vdop>2.5</vdop><extensions><gom:speed>0.896</gom:speed></extensions></trkpt>
   <trkpt lat="59.3066311788" lon="34.6664429769"><ele>167.966</ele><time>2026-08-16T13:44:49.750Z</time><hdop>3.0</hdop><vdop>2.5</vdop><extensions><gom:speed>0.903</gom:speed></extensions></trkpt>
   <trkpt lat="59.3066320589" lon="34.6664514426"><ele>167.597</ele><time>2026-08-16T13:44:50.457Z</time><hdop>3.0</hdop><vdop>2.5</vdop><extensions><gom:speed>0.914</gom:speed></extensions></trkpt>
   <trkpt lat="59.3066303826" lon="34.6664620876"><ele>167.377</ele><time>2026-08-16T13:44:51.133Z</time><hdop>3.0</hdop><vdop>2.5</vdop><extensions><gom:speed>0.916</gom:speed></extensions></trkpt>
   <trkpt lat="59.3066256887" lon="34.6664644346"><ele>167.268</ele><time>2026-08-16T13:44:51.752Z</time><hdop>3.0</hdop><vdop>2.5</vdop><extensions><gom:speed>0.896</gom:speed></extensions></trkpt>
   <trkpt lat="59.3066187736" lon="34.6664650213"><ele>167.16</ele><time>2026-08-16T13:44:52.488Z</time><hdop>3.0</hdop><vdop>2.5</vdop><extensions><gom:speed>0.921</gom:speed></extensions></trkpt>
   <trkpt lat="59.3066130739" lon="34.6664656919"><ele>167.003</ele><time>2026-08-16T13:44:53.138Z</time><hdop>3.0</hdop><vdop>2.5</vdop><extensions><gom:speed>0.877</gom:speed></extensions></trkpt>
   <trkpt lat="59.3066073742" lon="34.6664665301"><ele>166.909</ele><time>2026-08-16T13:44:53.794Z</time><hdop>3.0</hdop><vdop>2.5</vdop><extensions><gom:speed>0.878</gom:speed></extensions></trkpt>
   <trkpt lat="59.3066013812" lon="34.6664668653"><ele>166.943</ele><time>2026-08-16T13:44:54.589Z</time><hdop>3.0</hdop><vdop>2.5</vdop><extensions><gom:speed>0.918</gom:speed></extensions></trkpt>
   <trkpt lat="59.3065972741" lon="34.6664682903"><ele>167.065</ele><time>2026-08-16T13:44:55.138Z</time><hdop>3.0</hdop><vdop>2.5</vdop><extensions><gom:speed>0.917</gom:speed></extensions></trkpt>
   <trkpt lat="59.3065893951" lon="34.6664677873"><ele>166.908</ele><time>2026-08-16T13:44:56.138Z</time><hdop>3.0</hdop><vdop>2.5</vdop><extensions><gom:speed>0.933</gom:speed></extensions></trkpt>
   <trkpt lat="59.3065853717" lon="34.6664652728"><ele>166.813</ele><time>2026-08-16T13:44:56.650Z</time><hdop>3.0</hdop><vdop>2.5</vdop><extensions><gom:speed>0.928</gom:speed></extensions></trkpt>
   <trkpt lat="59.3065821866" lon="34.6664618362"><ele>166.885</ele><time>2026-08-16T13:44:57.138Z</time><hdop>3.0</hdop><vdop>2.5</vdop><extensions><gom:speed>0.926</gom:speed></extensions></trkpt>
   <trkpt lat="59.3065760678" lon="34.6664539572"><ele>166.928</ele><time>2026-08-16T13:44:57.995Z</time><hdop>3.0</hdop><vdop>2.5</vdop><extensions><gom:speed>0.929</gom:speed></extensions></trkpt>
   <trkpt lat="59.3065676859" lon="34.6664514426"><ele>167.107</ele><time>2026-08-16T13:44:58.828Z</time><hdop>3.0</hdop><vdop>2.5</vdop><extensions><gom:speed>0.984</gom:speed></extensions></trkpt>
   <trkpt lat="59.3065616929" lon="34.666453119"><ele>167.018</ele><time>2026-08-16T13:44:59.349Z</time><hdop>3.0</hdop><vdop>2.5</vdop><extensions><gom:speed>1.015</gom:speed></extensions></trkpt>
   <trkpt lat="59.3065539815" lon="34.6664520294"><ele>166.941</ele><time>2026-08-16T13:45:00.138Z</time><hdop>3.0</hdop><vdop>2.5</vdop><extensions><gom:speed>0.976</gom:speed></extensions></trkpt>
   <trkpt lat="59.3065490781" lon="34.6664493472"><ele>166.895</ele><time>2026-08-16T13:45:00.694Z</time><hdop>3.0</hdop><vdop>2.5</vdop><extensions><gom:speed>0.975</gom:speed></extensions></trkpt>
   <trkpt lat="59.3065411991" lon="34.6664504368"><ele>166.908</ele><time>2026-08-16T13:45:01.489Z</time><hdop>3.0</hdop><vdop>2.5</vdop><extensions><gom:speed>0.952</gom:speed></extensions></trkpt>
   <trkpt lat="59.3065360862" lon="34.6664505206"><ele>166.916</ele><time>2026-08-16T13:45:01.970Z</time><hdop>3.0</hdop><vdop>2.5</vdop><extensions><gom:speed>0.992</gom:speed></extensions></trkpt>
   <trkpt lat="59.3065304703" lon="34.6664578967"><ele>167.044</ele><time>2026-08-16T13:45:02.471Z</time><hdop>3.0</hdop><vdop>2.5</vdop><extensions><gom:speed>1.0</gom:speed></extensions></trkpt>
   <trkpt lat="59.3065235971" lon="34.6664640993"><ele>166.991</ele><time>2026-08-16T13:45:03.138Z</time><hdop>3.0</hdop><vdop>2.5</vdop><extensions><gom:speed>1.012</gom:speed></extensions></trkpt>
   <trkpt lat="59.3065137903" lon="34.6664709725"><ele>167.125</ele><time>2026-08-16T13:45:04.138Z</time><hdop>3.0</hdop><vdop>2.5</vdop><extensions><gom:speed>0.983</gom:speed></extensions></trkpt>
   <trkpt lat="59.3065082582" lon="34.666472565"><ele>167.204</ele><time>2026-08-16T13:45:04.689Z</time><hdop>3.0</hdop><vdop>2.5</vdop><extensions><gom:speed>0.976</gom:speed></extensions></trkpt>
   <trkpt lat="59.3064962721" lon="34.6664713916"><ele>167.431</ele><time>2026-08-16T13:45:06.014Z</time><hdop>3.0</hdop><vdop>2.5</vdop><extensions><gom:speed>1.027</gom:speed></extensions></trkpt>
   <trkpt lat="59.306488896" lon="34.6664690446"><ele>167.673</ele><time>2026-08-16T13:45:06.917Z</time><hdop>3.0</hdop><vdop>2.5</vdop><extensions><gom:speed>1.003</gom:speed></extensions></trkpt>
   <trkpt lat="59.3064845794" lon="34.6664686255"><ele>167.806</ele><time>2026-08-16T13:45:07.477Z</time><hdop>3.0</hdop><vdop>2.5</vdop><extensions><gom:speed>1.04</gom:speed></extensions></trkpt>
   <trkpt lat="59.3064790892" lon="34.6664614171"><ele>167.886</ele><time>2026-08-16T13:45:08.134Z</time><hdop>3.0</hdop><vdop>2.5</vdop><extensions><gom:speed>1.059</gom:speed></extensions></trkpt>
   <trkpt lat="59.3064740601" lon="34.6664604951"><ele>167.796</ele><time>2026-08-16T13:45:08.713Z</time><hdop>3.0</hdop><vdop>2.5</vdop><extensions><gom:speed>1.026</gom:speed></extensions></trkpt>
   <trkpt lat="59.306468067" lon="34.6664624229"><ele>167.9</ele><time>2026-08-16T13:45:09.312Z</time><hdop>3.0</hdop><vdop>2.5</vdop><extensions><gom:speed>1.011</gom:speed></extensions></trkpt>
   <trkpt lat="59.3064617806" lon="34.6664573938"><ele>167.963</ele><time>2026-08-16T13:45:10.009Z</time><hdop>3.0</hdop><vdop>2.5</vdop><extensions><gom:speed>1.0</gom:speed></extensions></trkpt>
   <trkpt lat="59.3064545721" lon="34.666458232"><ele>167.97</ele><time>2026-08-16T13:45:10.696Z</time><hdop>3.0</hdop><vdop>2.5</vdop><extensions><gom:speed>0.981</gom:speed></extensions></trkpt>
   <trkpt lat="59.3064449749" lon="34.6664649375"><ele>167.947</ele><time>2026-08-16T13:45:12.138Z</time><hdop>3.0</hdop><vdop>2.5</vdop><extensions><gom:speed>0.564</gom:speed></extensions></trkpt>
   <trkpt lat="59.3064440948" lon="34.6664664462"><ele>167.911</ele><time>2026-08-16T13:45:13.138Z</time><hdop>3.0</hdop><vdop>2.5</vdop><extensions><gom:speed>0.293</gom:speed></extensions></trkpt>
   <trkpt lat="59.3064448911" lon="34.6664669491"><ele>167.888</ele><time>2026-08-16T13:45:14.112Z</time><hdop>3.0</hdop><vdop>2.5</vdop><extensions><gom:speed>0.182</gom:speed></extensions></trkpt>
   <trkpt lat="59.3064380598" lon="34.6664666977"><ele>167.712</ele><time>2026-08-16T13:45:14.956Z</time><hdop>3.0</hdop><vdop>2.5</vdop><extensions><gom:speed>0.364</gom:speed></extensions></trkpt>
   <trkpt lat="59.3064322763" lon="34.6664624229"><ele>167.461</ele><time>2026-08-16T13:45:15.672Z</time><hdop>3.0</hdop><vdop>2.5</vdop><extensions><gom:speed>0.426</gom:speed></extensions></trkpt>
   <trkpt lat="59.3064305999" lon="34.6664605789"><ele>166.903</ele><time>2026-08-16T13:45:16.138Z</time><hdop>3.0</hdop><vdop>2.5</vdop><extensions><gom:speed>0.217</gom:speed></extensions></trkpt>
   <trkpt lat="59.3064282949" lon="34.6664590702"><ele>166.507</ele><time>2026-08-16T13:45:17.138Z</time><hdop>3.0</hdop><vdop>2.5</vdop><extensions><gom:speed>0.133</gom:speed></extensions></trkpt>
   <trkpt lat="59.30642687" lon="34.6664569747"><ele>166.272</ele><time>2026-08-16T13:45:18.137Z</time><hdop>3.0</hdop><vdop>2.5</vdop><extensions><gom:speed>0.102</gom:speed></extensions></trkpt>
   <trkpt lat="59.3064242716" lon="34.6664522808"><ele>166.108</ele><time>2026-08-16T13:45:19.137Z</time><hdop>3.0</hdop><vdop>2.5</vdop><extensions><gom:speed>0.155</gom:speed></extensions></trkpt>
   <trkpt lat="59.3064202902" lon="34.666446162"><ele>166.066</ele><time>2026-08-16T13:45:20.138Z</time><hdop>3.0</hdop><vdop>2.5</vdop><extensions><gom:speed>0.205</gom:speed></extensions></trkpt>
   <trkpt lat="59.3064145905" lon="34.6664386183"><ele>166.078</ele><time>2026-08-16T13:45:21.137Z</time><hdop>3.0</hdop><vdop>2.5</vdop><extensions><gom:speed>0.355</gom:speed></extensions></trkpt>
   <trkpt lat="59.3064109863" lon="34.6664348465"><ele>166.085</ele><time>2026-08-16T13:45:21.797Z</time><hdop>3.0</hdop><vdop>2.5</vdop><extensions><gom:speed>0.375</gom:speed></extensions></trkpt>
   <trkpt lat="59.3064026882" lon="34.6664273866"><ele>166.253</ele><time>2026-08-16T13:45:22.514Z</time><hdop>3.0</hdop><vdop>2.5</vdop><extensions><gom:speed>0.61</gom:speed></extensions></trkpt>
   <trkpt lat="59.3063982877" lon="34.6664231956"><ele>166.353</ele><time>2026-08-16T13:45:23.034Z</time><hdop>3.0</hdop><vdop>2.5</vdop><extensions><gom:speed>0.701</gom:speed></extensions></trkpt>
   <trkpt lat="59.3063891933" lon="34.6664120477"><ele>166.479</ele><time>2026-08-16T13:45:24.094Z</time><hdop>3.0</hdop><vdop>2.5</vdop><extensions><gom:speed>0.788</gom:speed></extensions></trkpt>
   <trkpt lat="59.30638517" lon="34.6664033305"><ele>166.654</ele><time>2026-08-16T13:45:24.712Z</time><hdop>3.0</hdop><vdop>2.5</vdop><extensions><gom:speed>0.793</gom:speed></extensions></trkpt>
   <trkpt lat="59.306382865" lon="34.6663876563"><ele>166.827</ele><time>2026-08-16T13:45:25.517Z</time><hdop>3.0</hdop><vdop>2.5</vdop><extensions><gom:speed>0.855</gom:speed></extensions></trkpt>
   <trkpt lat="59.3063820687" lon="34.6663759217"><ele>166.931</ele><time>2026-08-16T13:45:26.116Z</time><hdop>3.0</hdop><vdop>2.5</vdop><extensions><gom:speed>0.901</gom:speed></extensions></trkpt>
   <trkpt lat="59.3063820687" lon="34.6663607504"><ele>167.074</ele><time>2026-08-16T13:45:26.872Z</time><hdop>3.0</hdop><vdop>2.5</vdop><extensions><gom:speed>0.897</gom:speed></extensions></trkpt>
   <trkpt lat="59.3063820687" lon="34.6663455792"><ele>167.187</ele><time>2026-08-16T13:45:27.569Z</time><hdop>3.0</hdop><vdop>2.5</vdop><extensions><gom:speed>0.952</gom:speed></extensions></trkpt>
   <trkpt lat="59.3063818591" lon="34.6663339283"><ele>167.122</ele><time>2026-08-16T13:45:28.138Z</time><hdop>3.0</hdop><vdop>2.5</vdop><extensions><gom:speed>0.95</gom:speed></extensions></trkpt>
   <trkpt lat="59.3063815658" lon="34.6663228642"><ele>167.084</ele><time>2026-08-16T13:45:28.697Z</time><hdop>3.0</hdop><vdop>2.5</vdop><extensions><gom:speed>0.949</gom:speed></extensions></trkpt>
   <trkpt lat="59.3063818591" lon="34.6663081959"><ele>167.114</ele><time>2026-08-16T13:45:29.492Z</time><hdop>3.0</hdop><vdop>2.5</vdop><extensions><gom:speed>0.926</gom:speed></extensions></trkpt>
   <trkpt lat="59.3063827811" lon="34.666298892"><ele>167.132</ele><time>2026-08-16T13:45:29.993Z</time><hdop>3.0</hdop><vdop>2.5</vdop><extensions><gom:speed>0.959</gom:speed></extensions></trkpt>
   <trkpt lat="59.3063838708" lon="34.6662824635"><ele>167.218</ele><time>2026-08-16T13:45:30.876Z</time><hdop>3.0</hdop><vdop>2.5</vdop><extensions><gom:speed>0.922</gom:speed></extensions></trkpt>
   <trkpt lat="59.3063831583" lon="34.6662721537"><ele>167.349</ele><time>2026-08-16T13:45:31.397Z</time><hdop>3.0</hdop><vdop>2.5</vdop><extensions><gom:speed>0.94</gom:speed></extensions></trkpt>
   <trkpt lat="59.3063816915" lon="34.6662578207"><ele>167.492</ele><time>2026-08-16T13:45:32.138Z</time><hdop>3.0</hdop><vdop>2.5</vdop><extensions><gom:speed>0.963</gom:speed></extensions></trkpt>
   <trkpt lat="59.3063797637" lon="34.66624793"><ele>167.577</ele><time>2026-08-16T13:45:32.653Z</time><hdop>3.0</hdop><vdop>2.5</vdop><extensions><gom:speed>0.972</gom:speed></extensions></trkpt>
   <trkpt lat="59.3063774586" lon="34.6662401348"><ele>167.727</ele><time>2026-08-16T13:45:33.138Z</time><hdop>3.0</hdop><vdop>2.5</vdop><extensions><gom:speed>0.959</gom:speed></extensions></trkpt>
   <trkpt lat="59.306374986" lon="34.666233094"><ele>167.816</ele><time>2026-08-16T13:45:33.595Z</time><hdop>3.0</hdop><vdop>2.5</vdop><extensions><gom:speed>0.951</gom:speed></extensions></trkpt>
   <trkpt lat="59.3063723876" lon="34.6662250474"><ele>167.974</ele><time>2026-08-16T13:45:34.138Z</time><hdop>3.0</hdop><vdop>2.5</vdop><extensions><gom:speed>0.956</gom:speed></extensions></trkpt>
   <trkpt lat="59.3063687834" lon="34.6662160788"><ele>168.069</ele><time>2026-08-16T13:45:34.753Z</time><hdop>3.0</hdop><vdop>2.5</vdop><extensions><gom:speed>0.96</gom:speed></extensions></trkpt>
   <trkpt lat="59.3063654725" lon="34.666206272"><ele>168.072</ele><time>2026-08-16T13:45:35.372Z</time><hdop>3.0</hdop><vdop>2.5</vdop><extensions><gom:speed>0.962</gom:speed></extensions></trkpt>
   <trkpt lat="59.3063624969" lon="34.6661940344"><ele>167.958</ele><time>2026-08-16T13:45:36.138Z</time><hdop>3.0</hdop><vdop>2.5</vdop><extensions><gom:speed>0.948</gom:speed></extensions></trkpt>
   <trkpt lat="59.3063608625" lon="34.6661837246"><ele>167.89</ele><time>2026-08-16T13:45:36.716Z</time><hdop>3.0</hdop><vdop>2.5</vdop><extensions><gom:speed>0.941</gom:speed></extensions></trkpt>
   <trkpt lat="59.3063597728" lon="34.6661728282"><ele>167.765</ele><time>2026-08-16T13:45:37.315Z</time><hdop>3.0</hdop><vdop>2.5</vdop><extensions><gom:speed>0.966</gom:speed></extensions></trkpt>
   <trkpt lat="59.3063585994" lon="34.6661621831"><ele>167.691</ele><time>2026-08-16T13:45:37.894Z</time><hdop>3.0</hdop><vdop>2.5</vdop><extensions><gom:speed>0.961</gom:speed></extensions></trkpt>
   <trkpt lat="59.306358767" lon="34.6661465928"><ele>167.541</ele><time>2026-08-16T13:45:38.650Z</time><hdop>3.0</hdop><vdop>2.5</vdop><extensions><gom:speed>0.992</gom:speed></extensions></trkpt>
   <trkpt lat="59.3063593956" lon="34.6661360316"><ele>167.662</ele><time>2026-08-16T13:45:39.138Z</time><hdop>3.0</hdop><vdop>2.5</vdop><extensions><gom:speed>1.02</gom:speed></extensions></trkpt>
   <trkpt lat="59.3063598986" lon="34.66611734"><ele>167.735</ele><time>2026-08-16T13:45:40.034Z</time><hdop>3.0</hdop><vdop>2.5</vdop><extensions><gom:speed>1.027</gom:speed></extensions></trkpt>
   <trkpt lat="59.3063603596" lon="34.6661037613"><ele>167.781</ele><time>2026-08-16T13:45:40.691Z</time><hdop>3.0</hdop><vdop>2.5</vdop><extensions><gom:speed>1.013</gom:speed></extensions></trkpt>
   <trkpt lat="59.3063616588" lon="34.6660889253"><ele>167.72</ele><time>2026-08-16T13:45:41.438Z</time><hdop>3.0</hdop><vdop>2.5</vdop><extensions><gom:speed>0.97</gom:speed></extensions></trkpt>
   <trkpt lat="59.3063629999" lon="34.6660792861"><ele>167.684</ele><time>2026-08-16T13:45:41.938Z</time><hdop>3.0</hdop><vdop>2.5</vdop><extensions><gom:speed>0.954</gom:speed></extensions></trkpt>
   <trkpt lat="59.3063662688" lon="34.6660632767"><ele>167.61</ele><time>2026-08-16T13:45:42.772Z</time><hdop>3.0</hdop><vdop>2.5</vdop><extensions><gom:speed>0.989</gom:speed></extensions></trkpt>
   <trkpt lat="59.3063672746" lon="34.6660510391"><ele>167.735</ele><time>2026-08-16T13:45:43.253Z</time><hdop>3.0</hdop><vdop>2.5</vdop><extensions><gom:speed>1.027</gom:speed></extensions></trkpt>
   <trkpt lat="59.3063685738" lon="34.6660356164"><ele>167.81</ele><time>2026-08-16T13:45:44.029Z</time><hdop>3.0</hdop><vdop>2.5</vdop><extensions><gom:speed>1.006</gom:speed></extensions></trkpt>
   <trkpt lat="59.3063667717" lon="34.6660240494"><ele>167.903</ele><time>2026-08-16T13:45:44.569Z</time><hdop>3.0</hdop><vdop>2.5</vdop><extensions><gom:speed>0.975</gom:speed></extensions></trkpt>
   <trkpt lat="59.3063645924" lon="34.6660137396"><ele>167.839</ele><time>2026-08-16T13:45:45.138Z</time><hdop>3.0</hdop><vdop>2.5</vdop><extensions><gom:speed>0.971</gom:speed></extensions></trkpt>
   <trkpt lat="59.3063618683" lon="34.6659999933"><ele>167.8</ele><time>2026-08-16T13:45:45.894Z</time><hdop>3.0</hdop><vdop>2.5</vdop><extensions><gom:speed>0.974</gom:speed></extensions></trkpt>
   <trkpt lat="59.306356462" lon="34.6659887616"><ele>167.645</ele><time>2026-08-16T13:45:46.630Z</time><hdop>3.0</hdop><vdop>2.5</vdop><extensions><gom:speed>0.982</gom:speed></extensions></trkpt>
   <trkpt lat="59.3063532768" lon="34.6659810502"><ele>167.553</ele><time>2026-08-16T13:45:47.129Z</time><hdop>3.0</hdop><vdop>2.5</vdop><extensions><gom:speed>0.958</gom:speed></extensions></trkpt>
   <trkpt lat="59.3063493793" lon="34.6659687288"><ele>167.479</ele><time>2026-08-16T13:45:47.916Z</time><hdop>3.0</hdop><vdop>2.5</vdop><extensions><gom:speed>0.943</gom:speed></extensions></trkpt>
   <trkpt lat="59.3063483734" lon="34.6659560721"><ele>167.35</ele><time>2026-08-16T13:45:48.534Z</time><hdop>3.0</hdop><vdop>2.5</vdop><extensions><gom:speed>0.983</gom:speed></extensions></trkpt>
   <trkpt lat="59.3063475772" lon="34.6659442537"><ele>167.249</ele><time>2026-08-16T13:45:49.138Z</time><hdop>3.0</hdop><vdop>2.5</vdop><extensions><gom:speed>0.994</gom:speed></extensions></trkpt>
   <trkpt lat="59.306346278" lon="34.6659339439"><ele>167.19</ele><time>2026-08-16T13:45:49.672Z</time><hdop>3.0</hdop><vdop>2.5</vdop><extensions><gom:speed>1.001</gom:speed></extensions></trkpt>
   <trkpt lat="59.3063451883" lon="34.6659258973"><ele>167.328</ele><time>2026-08-16T13:45:50.138Z</time><hdop>3.0</hdop><vdop>2.5</vdop><extensions><gom:speed>0.997</gom:speed></extensions></trkpt>
   <trkpt lat="59.3063427995" lon="34.6659077924"><ele>167.41</ele><time>2026-08-16T13:45:51.076Z</time><hdop>3.0</hdop><vdop>2.5</vdop><extensions><gom:speed>1.031</gom:speed></extensions></trkpt>
   <trkpt lat="59.3063398658" lon="34.6658959739"><ele>167.578</ele><time>2026-08-16T13:45:51.811Z</time><hdop>3.0</hdop><vdop>2.5</vdop><extensions><gom:speed>1.0</gom:speed></extensions></trkpt>
   <trkpt lat="59.3063367645" lon="34.6658868376"><ele>167.884</ele><time>2026-08-16T13:45:52.391Z</time><hdop>3.0</hdop><vdop>2.5</vdop><extensions><gom:speed>0.992</gom:speed></extensions></trkpt>
   <trkpt lat="59.3063328669" lon="34.6658755221"><ele>167.952</ele><time>2026-08-16T13:45:53.138Z</time><hdop>3.0</hdop><vdop>2.5</vdop><extensions><gom:speed>0.999</gom:speed></extensions></trkpt>
   <trkpt lat="59.306325868" lon="34.6658652961"><ele>168.019</ele><time>2026-08-16T13:45:54.138Z</time><hdop>3.0</hdop><vdop>2.5</vdop><extensions><gom:speed>0.917</gom:speed></extensions></trkpt>
   <trkpt lat="59.3063192882" lon="34.6658553217"><ele>168.059</ele><time>2026-08-16T13:45:55.092Z</time><hdop>3.0</hdop><vdop>2.5</vdop><extensions><gom:speed>0.91</gom:speed></extensions></trkpt>
   <trkpt lat="59.3063160612" lon="34.6658491191"><ele>167.903</ele><time>2026-08-16T13:45:55.730Z</time><hdop>3.0</hdop><vdop>2.5</vdop><extensions><gom:speed>0.893</gom:speed></extensions></trkpt>
   <trkpt lat="59.3063129599" lon="34.6658441737"><ele>167.894</ele><time>2026-08-16T13:45:56.329Z</time><hdop>3.0</hdop><vdop>2.5</vdop><extensions><gom:speed>0.888</gom:speed></extensions></trkpt>
   <trkpt lat="59.3063076793" lon="34.6658377197"><ele>167.775</ele><time>2026-08-16T13:45:57.138Z</time><hdop>3.0</hdop><vdop>2.5</vdop><extensions><gom:speed>0.848</gom:speed></extensions></trkpt>
   <trkpt lat="59.3062988783" lon="34.6658357918"><ele>167.809</ele><time>2026-08-16T13:45:58.138Z</time><hdop>3.0</hdop><vdop>2.5</vdop><extensions><gom:speed>0.883</gom:speed></extensions></trkpt>
   <trkpt lat="59.3062925919" lon="34.6658350375"><ele>167.829</ele><time>2026-08-16T13:45:58.832Z</time><hdop>3.0</hdop><vdop>2.5</vdop><extensions><gom:speed>0.884</gom:speed></extensions></trkpt>
   <trkpt lat="59.3062867664" lon="34.6658314332"><ele>167.778</ele><time>2026-08-16T13:45:59.538Z</time><hdop>3.0</hdop><vdop>2.5</vdop><extensions><gom:speed>0.894</gom:speed></extensions></trkpt>
   <trkpt lat="59.3062826593" lon="34.6658256497"><ele>167.748</ele><time>2026-08-16T13:46:00.098Z</time><hdop>3.0</hdop><vdop>2.5</vdop><extensions><gom:speed>0.938</gom:speed></extensions></trkpt>
   <trkpt lat="59.3062773787" lon="34.6658141665"><ele>167.629</ele><time>2026-08-16T13:46:01.050Z</time><hdop>3.0</hdop><vdop>2.5</vdop><extensions><gom:speed>0.903</gom:speed></extensions></trkpt>
   <trkpt lat="59.3062762891" lon="34.6658057846"><ele>167.555</ele><time>2026-08-16T13:46:01.629Z</time><hdop>3.0</hdop><vdop>2.5</vdop><extensions><gom:speed>0.887</gom:speed></extensions></trkpt>
   <trkpt lat="59.3062756604" lon="34.6657979895"><ele>167.664</ele><time>2026-08-16T13:46:02.138Z</time><hdop>3.0</hdop><vdop>2.5</vdop><extensions><gom:speed>0.894</gom:speed></extensions></trkpt>
   <trkpt lat="59.306273565" lon="34.6657851651"><ele>167.729</ele><time>2026-08-16T13:46:02.934Z</time><hdop>3.0</hdop><vdop>2.5</vdop><extensions><gom:speed>0.895</gom:speed></extensions></trkpt>
   <trkpt lat="59.3062708827" lon="34.6657714188"><ele>167.809</ele><time>2026-08-16T13:46:03.857Z</time><hdop>3.0</hdop><vdop>2.5</vdop><extensions><gom:speed>0.91</gom:speed></extensions></trkpt>
   <trkpt lat="59.3062672785" lon="34.6657635398"><ele>167.75</ele><time>2026-08-16T13:46:04.554Z</time><hdop>3.0</hdop><vdop>2.5</vdop><extensions><gom:speed>0.882</gom:speed></extensions></trkpt>
   <trkpt lat="59.3062640934" lon="34.665756499"><ele>167.625</ele><time>2026-08-16T13:46:05.138Z</time><hdop>3.0</hdop><vdop>2.5</vdop><extensions><gom:speed>0.876</gom:speed></extensions></trkpt>
   <trkpt lat="59.3062607825" lon="34.6657481171"><ele>167.55</ele><time>2026-08-16T13:46:05.771Z</time><hdop>3.0</hdop><vdop>2.5</vdop><extensions><gom:speed>0.868</gom:speed></extensions></trkpt>
   <trkpt lat="59.3062567592" lon="34.665736131"><ele>167.552</ele><time>2026-08-16T13:46:06.615Z</time><hdop>3.0</hdop><vdop>2.5</vdop><extensions><gom:speed>0.892</gom:speed></extensions></trkpt>
   <trkpt lat="59.3062543704" lon="34.6657296769"><ele>167.552</ele><time>2026-08-16T13:46:07.096Z</time><hdop>3.0</hdop><vdop>2.5</vdop><extensions><gom:speed>0.889</gom:speed></extensions></trkpt>
   <trkpt lat="59.3062509757" lon="34.6657200378"><ele>167.781</ele><time>2026-08-16T13:46:07.891Z</time><hdop>3.0</hdop><vdop>2.5</vdop><extensions><gom:speed>0.865</gom:speed></extensions></trkpt>
   <trkpt lat="59.3062470781" lon="34.6657111529"><ele>167.95</ele><time>2026-08-16T13:46:08.657Z</time><hdop>3.0</hdop><vdop>2.5</vdop><extensions><gom:speed>0.866</gom:speed></extensions></trkpt>
   <trkpt lat="59.3062443959" lon="34.6657059562"><ele>167.816</ele><time>2026-08-16T13:46:09.138Z</time><hdop>3.0</hdop><vdop>2.5</vdop><extensions><gom:speed>0.845</gom:speed></extensions></trkpt>
   <trkpt lat="59.3062381933" lon="34.6656961493"><ele>167.717</ele><time>2026-08-16T13:46:10.138Z</time><hdop>3.0</hdop><vdop>2.5</vdop><extensions><gom:speed>0.832</gom:speed></extensions></trkpt>
   <trkpt lat="59.3062324936" lon="34.6656885218"><ele>167.658</ele><time>2026-08-16T13:46:10.934Z</time><hdop>3.0</hdop><vdop>2.5</vdop><extensions><gom:speed>0.842</gom:speed></extensions></trkpt>
   <trkpt lat="59.3062286799" lon="34.6656830736"><ele>167.492</ele><time>2026-08-16T13:46:11.591Z</time><hdop>3.0</hdop><vdop>2.5</vdop><extensions><gom:speed>0.815</gom:speed></extensions></trkpt>
   <trkpt lat="59.3062257881" lon="34.6656789664"><ele>167.508</ele><time>2026-08-16T13:46:12.138Z</time><hdop>3.0</hdop><vdop>2.5</vdop><extensions><gom:speed>0.781</gom:speed></extensions></trkpt>
   <trkpt lat="59.3062210942" lon="34.6656704169"><ele>167.517</ele><time>2026-08-16T13:46:13.015Z</time><hdop>3.0</hdop><vdop>2.5</vdop><extensions><gom:speed>0.79</gom:speed></extensions></trkpt>
   <trkpt lat="59.306218873" lon="34.6656599395"><ele>167.348</ele><time>2026-08-16T13:46:13.829Z</time><hdop>3.0</hdop><vdop>2.5</vdop><extensions><gom:speed>0.786</gom:speed></extensions></trkpt>
   <trkpt lat="59.3062172805" lon="34.6656534854"><ele>167.378</ele><time>2026-08-16T13:46:14.369Z</time><hdop>3.0</hdop><vdop>2.5</vdop><extensions><gom:speed>0.825</gom:speed></extensions></trkpt>
   <trkpt lat="59.3062161908" lon="34.6656483725"><ele>167.34</ele><time>2026-08-16T13:46:15.138Z</time><hdop>3.0</hdop><vdop>2.5</vdop><extensions><gom:speed>0.688</gom:speed></extensions></trkpt>
   <trkpt lat="59.3062149754" lon="34.6656446844"><ele>167.317</ele><time>2026-08-16T13:46:15.694Z</time><hdop>3.0</hdop><vdop>2.5</vdop><extensions><gom:speed>0.69</gom:speed></extensions></trkpt>
   <trkpt lat="59.3062139696" lon="34.665638398"><ele>167.49</ele><time>2026-08-16T13:46:16.352Z</time><hdop>3.0</hdop><vdop>2.5</vdop><extensions><gom:speed>0.744</gom:speed></extensions></trkpt>
   <trkpt lat="59.306211497" lon="34.6656289265"><ele>167.594</ele><time>2026-08-16T13:46:17.029Z</time><hdop>3.0</hdop><vdop>2.5</vdop><extensions><gom:speed>0.823</gom:speed></extensions></trkpt>
   <trkpt lat="59.3062102816" lon="34.6656188682"><ele>167.756</ele><time>2026-08-16T13:46:17.736Z</time><hdop>3.0</hdop><vdop>2.5</vdop><extensions><gom:speed>0.819</gom:speed></extensions></trkpt>
   <trkpt lat="59.3062089824" lon="34.6656115759"><ele>167.907</ele><time>2026-08-16T13:46:18.236Z</time><hdop>3.0</hdop><vdop>2.5</vdop><extensions><gom:speed>0.882</gom:speed></extensions></trkpt>
   <trkpt lat="59.3062062583" lon="34.665600428"><ele>167.998</ele><time>2026-08-16T13:46:19.012Z</time><hdop>3.0</hdop><vdop>2.5</vdop><extensions><gom:speed>0.874</gom:speed></extensions></trkpt>
   <trkpt lat="59.3062045819" lon="34.6655923814"><ele>168.126</ele><time>2026-08-16T13:46:19.610Z</time><hdop>3.0</hdop><vdop>2.5</vdop><extensions><gom:speed>0.87</gom:speed></extensions></trkpt>
   <trkpt lat="59.3062033665" lon="34.665583748"><ele>168.165</ele><time>2026-08-16T13:46:20.138Z</time><hdop>3.0</hdop><vdop>2.5</vdop><extensions><gom:speed>0.872</gom:speed></extensions></trkpt>
   <trkpt lat="59.3062020673" lon="34.6655743603"><ele>168.189</ele><time>2026-08-16T13:46:20.710Z</time><hdop>3.0</hdop><vdop>2.5</vdop><extensions><gom:speed>0.863</gom:speed></extensions></trkpt>
   <trkpt lat="59.3062010615" lon="34.6655616198"><ele>167.897</ele><time>2026-08-16T13:46:21.456Z</time><hdop>3.0</hdop><vdop>2.5</vdop><extensions><gom:speed>0.937</gom:speed></extensions></trkpt>
   <trkpt lat="59.3061996785" lon="34.6655525673"><ele>167.722</ele><time>2026-08-16T13:46:21.976Z</time><hdop>3.0</hdop><vdop>2.5</vdop><extensions><gom:speed>0.91</gom:speed></extensions></trkpt>
   <trkpt lat="59.3061947751" lon="34.6655400783"><ele>167.566</ele><time>2026-08-16T13:46:22.889Z</time><hdop>3.0</hdop><vdop>2.5</vdop><extensions><gom:speed>0.907</gom:speed></extensions></trkpt>
   <trkpt lat="59.3061906679" lon="34.6655371446"><ele>167.126</ele><time>2026-08-16T13:46:23.370Z</time><hdop>3.0</hdop><vdop>2.5</vdop><extensions><gom:speed>0.861</gom:speed></extensions></trkpt>
   <trkpt lat="59.306186477" lon="34.6655321993"><ele>166.864</ele><time>2026-08-16T13:46:23.949Z</time><hdop>3.0</hdop><vdop>2.5</vdop><extensions><gom:speed>0.848</gom:speed></extensions></trkpt>
   <trkpt lat="59.3061809868" lon="34.6655302715"><ele>166.476</ele><time>2026-08-16T13:46:24.518Z</time><hdop>3.0</hdop><vdop>2.5</vdop><extensions><gom:speed>0.875</gom:speed></extensions></trkpt>
   <trkpt lat="59.306175371" lon="34.6655276731"><ele>166.216</ele><time>2026-08-16T13:46:25.138Z</time><hdop>3.0</hdop><vdop>2.5</vdop><extensions><gom:speed>0.895</gom:speed></extensions></trkpt>
   <trkpt lat="59.3061694617" lon="34.6655235659"><ele>166.061</ele><time>2026-08-16T13:46:25.814Z</time><hdop>3.0</hdop><vdop>2.5</vdop><extensions><gom:speed>0.904</gom:speed></extensions></trkpt>
   <trkpt lat="59.3061644745" lon="34.6655208837"><ele>165.89</ele><time>2026-08-16T13:46:26.393Z</time><hdop>3.0</hdop><vdop>2.5</vdop><extensions><gom:speed>0.918</gom:speed></extensions></trkpt>
   <trkpt lat="59.3061597806" lon="34.6655176986"><ele>165.787</ele><time>2026-08-16T13:46:26.933Z</time><hdop>3.0</hdop><vdop>2.5</vdop><extensions><gom:speed>0.914</gom:speed></extensions></trkpt>
   <trkpt lat="59.3061536618" lon="34.665514262"><ele>165.812</ele><time>2026-08-16T13:46:27.718Z</time><hdop>3.0</hdop><vdop>2.5</vdop><extensions><gom:speed>0.924</gom:speed></extensions></trkpt>
   <trkpt lat="59.306151273" lon="34.6655104902"><ele>165.853</ele><time>2026-08-16T13:46:28.189Z</time><hdop>3.0</hdop><vdop>2.562</vdop><extensions><gom:speed>0.891</gom:speed></extensions></trkpt>
   <trkpt lat="59.3061466629" lon="34.6654979173"><ele>165.867</ele><time>2026-08-16T13:46:29.138Z</time><hdop>3.0</hdop><vdop>2.5</vdop><extensions><gom:speed>0.897</gom:speed></extensions></trkpt>
   <trkpt lat="59.3061432683" lon="34.6654837519"><ele>165.876</ele><time>2026-08-16T13:46:29.975Z</time><hdop>3.0</hdop><vdop>2.5</vdop><extensions><gom:speed>0.904</gom:speed></extensions></trkpt>
   <trkpt lat="59.3061379877" lon="34.6654755376"><ele>166.317</ele><time>2026-08-16T13:46:30.731Z</time><hdop>3.0</hdop><vdop>2.5</vdop><extensions><gom:speed>0.913</gom:speed></extensions></trkpt>
   <trkpt lat="59.306131366" lon="34.6654709276"><ele>166.197</ele><time>2026-08-16T13:46:31.575Z</time><hdop>3.0</hdop><vdop>2.5</vdop><extensions><gom:speed>0.894</gom:speed></extensions></trkpt>
   <trkpt lat="59.3061268816" lon="34.6654679939"><ele>166.001</ele><time>2026-08-16T13:46:32.138Z</time><hdop>3.0</hdop><vdop>2.5</vdop><extensions><gom:speed>0.902</gom:speed></extensions></trkpt>
   <trkpt lat="59.3061213915" lon="34.6654639706"><ele>165.884</ele><time>2026-08-16T13:46:32.773Z</time><hdop>3.0</hdop><vdop>2.5</vdop><extensions><gom:speed>0.901</gom:speed></extensions></trkpt>
   <trkpt lat="59.3061147698" lon="34.6654603664"><ele>165.739</ele><time>2026-08-16T13:46:33.597Z</time><hdop>3.0</hdop><vdop>2.5</vdop><extensions><gom:speed>0.903</gom:speed></extensions></trkpt>
   <trkpt lat="59.3061097826" lon="34.66545869"><ele>165.309</ele><time>2026-08-16T13:46:34.138Z</time><hdop>3.0</hdop><vdop>2.5</vdop><extensions><gom:speed>0.918</gom:speed></extensions></trkpt>
   <trkpt lat="59.3061011911" lon="34.665455924"><ele>164.915</ele><time>2026-08-16T13:46:35.138Z</time><hdop>3.0</hdop><vdop>2.5</vdop><extensions><gom:speed>0.948</gom:speed></extensions></trkpt>
   <trkpt lat="59.3060924739" lon="34.665451733"><ele>164.679</ele><time>2026-08-16T13:46:36.012Z</time><hdop>3.0</hdop><vdop>2.5</vdop><extensions><gom:speed>1.023</gom:speed></extensions></trkpt>
   <trkpt lat="59.3060879896" lon="34.6654481288"><ele>164.318</ele><time>2026-08-16T13:46:36.688Z</time><hdop>3.0</hdop><vdop>2.5</vdop><extensions><gom:speed>0.932</gom:speed></extensions></trkpt>
   <trkpt lat="59.3060845949" lon="34.6654418424"><ele>163.967</ele><time>2026-08-16T13:46:37.396Z</time><hdop>3.0</hdop><vdop>2.5</vdop><extensions><gom:speed>0.904</gom:speed></extensions></trkpt>
   <trkpt lat="59.3060812841" lon="34.6654356398"><ele>163.757</ele><time>2026-08-16T13:46:37.936Z</time><hdop>3.0</hdop><vdop>2.5</vdop><extensions><gom:speed>0.908</gom:speed></extensions></trkpt>
   <trkpt lat="59.306078099" lon="34.6654279284"><ele>163.737</ele><time>2026-08-16T13:46:38.691Z</time><hdop>3.0</hdop><vdop>2.5</vdop><extensions><gom:speed>0.918</gom:speed></extensions></trkpt>
   <trkpt lat="59.3060690884" lon="34.6654114999"><ele>163.622</ele><time>2026-08-16T13:46:40.016Z</time><hdop>3.0</hdop><vdop>2.5</vdop><extensions><gom:speed>0.996</gom:speed></extensions></trkpt>
   <trkpt lat="59.3060627601" lon="34.6653974183"><ele>163.565</ele><time>2026-08-16T13:46:41.138Z</time><hdop>3.0</hdop><vdop>2.5</vdop><extensions><gom:speed>0.977</gom:speed></extensions></trkpt>
   <trkpt lat="59.3060569766" lon="34.6653886173"><ele>163.531</ele><time>2026-08-16T13:46:41.930Z</time><hdop>3.0</hdop><vdop>2.5</vdop><extensions><gom:speed>0.983</gom:speed></extensions></trkpt>
   <trkpt lat="59.3060483851" lon="34.6653830852"><ele>163.726</ele><time>2026-08-16T13:46:42.912Z</time><hdop>3.0</hdop><vdop>2.5</vdop><extensions><gom:speed>0.962</gom:speed></extensions></trkpt>
   <trkpt lat="59.3060436913" lon="34.6653803192"><ele>163.872</ele><time>2026-08-16T13:46:43.511Z</time><hdop>3.0</hdop><vdop>2.5</vdop><extensions><gom:speed>0.938</gom:speed></extensions></trkpt>
   <trkpt lat="59.3060389974" lon="34.6653753739"><ele>163.831</ele><time>2026-08-16T13:46:44.137Z</time><hdop>3.0</hdop><vdop>2.5</vdop><extensions><gom:speed>0.941</gom:speed></extensions></trkpt>
   <trkpt lat="59.306033172" lon="34.6653689198"><ele>163.806</ele><time>2026-08-16T13:46:44.875Z</time><hdop>3.0</hdop><vdop>2.5</vdop><extensions><gom:speed>0.931</gom:speed></extensions></trkpt>
   <trkpt lat="59.3060272627" lon="34.6653613761"><ele>163.769</ele><time>2026-08-16T13:46:45.709Z</time><hdop>3.0</hdop><vdop>2.5</vdop><extensions><gom:speed>0.885</gom:speed></extensions></trkpt>
   <trkpt lat="59.3060244967" lon="34.6653522398"><ele>163.687</ele><time>2026-08-16T13:46:46.455Z</time><hdop>3.0</hdop><vdop>2.5</vdop><extensions><gom:speed>0.849</gom:speed></extensions></trkpt>
   <trkpt lat="59.3060214792" lon="34.665346624"><ele>163.638</ele><time>2026-08-16T13:46:46.975Z</time><hdop>3.0</hdop><vdop>2.5</vdop><extensions><gom:speed>0.842</gom:speed></extensions></trkpt>
   <trkpt lat="59.306014187" lon="34.6653462887"><ele>163.614</ele><time>2026-08-16T13:46:47.869Z</time><hdop>3.0</hdop><vdop>2.5</vdop><extensions><gom:speed>0.832</gom:speed></extensions></trkpt>
   <trkpt lat="59.3060061822" lon="34.6653491385"><ele>163.717</ele><time>2026-08-16T13:46:48.889Z</time><hdop>3.0</hdop><vdop>2.5</vdop><extensions><gom:speed>0.849</gom:speed></extensions></trkpt>
   <trkpt lat="59.3060014884" lon="34.6653423492"><ele>163.843</ele><time>2026-08-16T13:46:49.596Z</time><hdop>3.0</hdop><vdop>2.5</vdop><extensions><gom:speed>0.819</gom:speed></extensions></trkpt>
   <trkpt lat="59.3059978842" lon="34.6653362304"><ele>163.832</ele><time>2026-08-16T13:46:50.138Z</time><hdop>3.0</hdop><vdop>2.5</vdop><extensions><gom:speed>0.849</gom:speed></extensions></trkpt>
   <trkpt lat="59.3059901728" lon="34.6653269265"><ele>163.825</ele><time>2026-08-16T13:46:51.098Z</time><hdop>3.0</hdop><vdop>2.5</vdop><extensions><gom:speed>0.878</gom:speed></extensions></trkpt>
   <trkpt lat="59.305984976" lon="34.6653119229"><ele>163.835</ele><time>2026-08-16T13:46:51.971Z</time><hdop>3.0</hdop><vdop>2.5</vdop><extensions><gom:speed>0.963</gom:speed></extensions></trkpt>
   <trkpt lat="59.3059823776" lon="34.6653009426"><ele>163.922</ele><time>2026-08-16T13:46:52.531Z</time><hdop>3.0</hdop><vdop>2.5</vdop><extensions><gom:speed>0.975</gom:speed></extensions></trkpt>
   <trkpt lat="59.3059776838" lon="34.6652922254"><ele>164.486</ele><time>2026-08-16T13:46:53.137Z</time><hdop>3.0</hdop><vdop>2.5</vdop><extensions><gom:speed>1.023</gom:speed></extensions></trkpt>
   <trkpt lat="59.3059688828" lon="34.6652818319"><ele>164.824</ele><time>2026-08-16T13:46:54.112Z</time><hdop>3.0</hdop><vdop>2.5</vdop><extensions><gom:speed>1.014</gom:speed></extensions></trkpt>
   <trkpt lat="59.3059609619" lon="34.665274372"><ele>165.007</ele><time>2026-08-16T13:46:54.917Z</time><hdop>3.0</hdop><vdop>2.5</vdop><extensions><gom:speed>1.015</gom:speed></extensions></trkpt>
   <trkpt lat="59.3059490596" lon="34.6652609609"><ele>164.951</ele><time>2026-08-16T13:46:56.134Z</time><hdop>3.0</hdop><vdop>2.5</vdop><extensions><gom:speed>1.055</gom:speed></extensions></trkpt>
   <trkpt lat="59.3059424798" lon="34.665255345"><ele>165.269</ele><time>2026-08-16T13:46:56.733Z</time><hdop>3.0</hdop><vdop>2.5</vdop><extensions><gom:speed>1.054</gom:speed></extensions></trkpt>
   <trkpt lat="59.3059315833" lon="34.6652426884"><ele>165.795</ele><time>2026-08-16T13:46:57.832Z</time><hdop>3.0</hdop><vdop>2.5</vdop><extensions><gom:speed>1.068</gom:speed></extensions></trkpt>
   <trkpt lat="59.3059259674" lon="34.6652260922"><ele>166.246</ele><time>2026-08-16T13:46:58.735Z</time><hdop>3.0</hdop><vdop>2.5</vdop><extensions><gom:speed>1.09</gom:speed></extensions></trkpt>
   <trkpt lat="59.3059229919" lon="34.6652198896"><ele>166.354</ele><time>2026-08-16T13:46:59.196Z</time><hdop>3.0</hdop><vdop>2.5</vdop><extensions><gom:speed>1.05</gom:speed></extensions></trkpt>
   <trkpt lat="59.3059172922" lon="34.6652071491"><ele>166.418</ele><time>2026-08-16T13:47:00.089Z</time><hdop>3.0</hdop><vdop>2.5</vdop><extensions><gom:speed>1.021</gom:speed></extensions></trkpt>
   <trkpt lat="59.3059097904" lon="34.665207652"><ele>166.381</ele><time>2026-08-16T13:47:00.718Z</time><hdop>3.0</hdop><vdop>2.5</vdop><extensions><gom:speed>0.986</gom:speed></extensions></trkpt>
   <trkpt lat="59.3059004864" lon="34.6652108371"><ele>166.39</ele><time>2026-08-16T13:47:01.532Z</time><hdop>3.0</hdop><vdop>2.5</vdop><extensions><gom:speed>0.973</gom:speed></extensions></trkpt>
   <trkpt lat="59.3058956668" lon="34.6652117591"><ele>166.396</ele><time>2026-08-16T13:47:01.994Z</time><hdop>3.0</hdop><vdop>2.5</vdop><extensions><gom:speed>1.012</gom:speed></extensions></trkpt>
   <trkpt lat="59.305888165" lon="34.6652152795"><ele>166.575</ele><time>2026-08-16T13:47:02.593Z</time><hdop>3.0</hdop><vdop>2.5</vdop><extensions><gom:speed>1.014</gom:speed></extensions></trkpt>
   <trkpt lat="59.3058814595" lon="34.665218297"><ele>166.683</ele><time>2026-08-16T13:47:03.137Z</time><hdop>3.0</hdop><vdop>2.5</vdop><extensions><gom:speed>1.031</gom:speed></extensions></trkpt>
   <trkpt lat="59.3058702697" lon="34.665221566"><ele>166.748</ele><time>2026-08-16T13:47:04.114Z</time><hdop>3.0</hdop><vdop>2.5</vdop><extensions><gom:speed>1.042</gom:speed></extensions></trkpt>
   <trkpt lat="59.3058636899" lon="34.6652247511"><ele>166.854</ele><time>2026-08-16T13:47:04.693Z</time><hdop>3.0</hdop><vdop>2.5</vdop><extensions><gom:speed>1.046</gom:speed></extensions></trkpt>
   <trkpt lat="59.3058558947" lon="34.6652232424"><ele>166.91</ele><time>2026-08-16T13:47:05.409Z</time><hdop>3.0</hdop><vdop>2.5</vdop><extensions><gom:speed>1.013</gom:speed></extensions></trkpt>
   <trkpt lat="59.3058502788" lon="34.6652211469"><ele>166.944</ele><time>2026-08-16T13:47:05.949Z</time><hdop>3.0</hdop><vdop>2.5</vdop><extensions><gom:speed>1.007</gom:speed></extensions></trkpt>
   <trkpt lat="59.3058418969" lon="34.6652168721"><ele>166.878</ele><time>2026-08-16T13:47:07.138Z</time><hdop>3.0</hdop><vdop>2.5</vdop><extensions><gom:speed>0.647</gom:speed></extensions></trkpt>
   <trkpt lat="59.3058379994" lon="34.6652135193"><ele>167.013</ele><time>2026-08-16T13:47:08.138Z</time><hdop>3.0</hdop><vdop>2.5</vdop><extensions><gom:speed>0.558</gom:speed></extensions></trkpt>
   <trkpt lat="59.3058332636" lon="34.6652112562"><ele>167.02</ele><time>2026-08-16T13:47:09.138Z</time><hdop>3.0</hdop><vdop>2.5</vdop><extensions><gom:speed>0.544</gom:speed></extensions></trkpt>
   <trkpt lat="59.3058282763" lon="34.665212765"><ele>167.025</ele><time>2026-08-16T13:47:09.993Z</time><hdop>3.0</hdop><vdop>2.5</vdop><extensions><gom:speed>0.593</gom:speed></extensions></trkpt>
   <trkpt lat="59.305820565" lon="34.6652150281"><ele>166.998</ele><time>2026-08-16T13:47:10.798Z</time><hdop>3.0</hdop><vdop>2.5</vdop><extensions><gom:speed>0.725</gom:speed></extensions></trkpt>
   <trkpt lat="59.3058058967" lon="34.6652158663"><ele>166.856</ele><time>2026-08-16T13:47:12.054Z</time><hdop>3.0</hdop><vdop>2.5</vdop><extensions><gom:speed>0.902</gom:speed></extensions></trkpt>
   <trkpt lat="59.3057998617" lon="34.6652135193"><ele>167.086</ele><time>2026-08-16T13:47:12.575Z</time><hdop>3.0</hdop><vdop>2.5</vdop><extensions><gom:speed>0.921</gom:speed></extensions></trkpt>
   <trkpt lat="59.3057943715" lon="34.6652072329"><ele>167.296</ele><time>2026-08-16T13:47:13.138Z</time><hdop>3.0</hdop><vdop>2.5</vdop><extensions><gom:speed>1.01</gom:speed></extensions></trkpt>
   <trkpt lat="59.3057889652" lon="34.6651992701"><ele>167.421</ele><time>2026-08-16T13:47:13.713Z</time><hdop>3.0</hdop><vdop>2.5</vdop><extensions><gom:speed>1.017</gom:speed></extensions></trkpt>
   <trkpt lat="59.3057755961" lon="34.6651807461"><ele>167.68</ele><time>2026-08-16T13:47:15.138Z</time><hdop>3.0</hdop><vdop>2.5</vdop><extensions><gom:speed>1.068</gom:speed></extensions></trkpt>
   <trkpt lat="59.3057705669" lon="34.6651730348"><ele>167.834</ele><time>2026-08-16T13:47:15.696Z</time><hdop>3.0</hdop><vdop>2.5</vdop><extensions><gom:speed>1.06</gom:speed></extensions></trkpt>
   <trkpt lat="59.3057647834" lon="34.6651621383"><ele>168.204</ele><time>2026-08-16T13:47:16.452Z</time><hdop>3.0</hdop><vdop>2.5</vdop><extensions><gom:speed>1.08</gom:speed></extensions></trkpt>
   <trkpt lat="59.3057605925" lon="34.6651527505"><ele>168.52</ele><time>2026-08-16T13:47:17.138Z</time><hdop>3.0</hdop><vdop>2.5</vdop><extensions><gom:speed>1.068</gom:speed></extensions></trkpt>
   <trkpt lat="59.3057565692" lon="34.6651444525"><ele>168.709</ele><time>2026-08-16T13:47:17.718Z</time><hdop>3.0</hdop><vdop>2.5</vdop><extensions><gom:speed>1.071</gom:speed></extensions></trkpt>
   <trkpt lat="59.3057494865" lon="34.6651276887"><ele>168.866</ele><time>2026-08-16T13:47:18.954Z</time><hdop>3.0</hdop><vdop>2.5</vdop><extensions><gom:speed>0.983</gom:speed></extensions></trkpt>
   <trkpt lat="59.3057459661" lon="34.6651120983"><ele>169.628</ele><time>2026-08-16T13:47:20.138Z</time><hdop>3.0</hdop><vdop>2.5</vdop><extensions><gom:speed>0.904</gom:speed></extensions></trkpt>
   <trkpt lat="59.3057432838" lon="34.6651041355"><ele>170.083</ele><time>2026-08-16T13:47:20.751Z</time><hdop>3.0</hdop><vdop>2.5</vdop><extensions><gom:speed>0.902</gom:speed></extensions></trkpt>
   <trkpt lat="59.3057395958" lon="34.6650917303"><ele>170.262</ele><time>2026-08-16T13:47:21.575Z</time><hdop>3.0</hdop><vdop>2.5</vdop><extensions><gom:speed>0.928</gom:speed></extensions></trkpt>
   <trkpt lat="59.3057364945" lon="34.6650851924"><ele>170.448</ele><time>2026-08-16T13:47:22.138Z</time><hdop>3.0</hdop><vdop>2.5</vdop><extensions><gom:speed>0.905</gom:speed></extensions></trkpt>
   <trkpt lat="59.3057303757" lon="34.6650778163"><ele>170.559</ele><time>2026-08-16T13:47:22.998Z</time><hdop>3.0</hdop><vdop>2.5</vdop><extensions><gom:speed>0.905</gom:speed></extensions></trkpt>
   <trkpt lat="59.3057220776" lon="34.6650759723"><ele>170.528</ele><time>2026-08-16T13:47:24.009Z</time><hdop>3.0</hdop><vdop>2.5</vdop><extensions><gom:speed>0.881</gom:speed></extensions></trkpt>
   <trkpt lat="59.3057165875" lon="34.6650826778"><ele>170.345</ele><time>2026-08-16T13:47:24.794Z</time><hdop>3.0</hdop><vdop>2.5</vdop><extensions><gom:speed>0.858</gom:speed></extensions></trkpt>
   <trkpt lat="59.3057122708" lon="34.6650915627"><ele>170.201</ele><time>2026-08-16T13:47:25.393Z</time><hdop>3.0</hdop><vdop>2.5</vdop><extensions><gom:speed>0.923</gom:speed></extensions></trkpt>
   <trkpt lat="59.3057058586" lon="34.6650991902"><ele>170.115</ele><time>2026-08-16T13:47:26.129Z</time><hdop>3.0</hdop><vdop>2.5</vdop><extensions><gom:speed>1.018</gom:speed></extensions></trkpt>
   <trkpt lat="59.3057028831" lon="34.6651067339"><ele>169.789</ele><time>2026-08-16T13:47:26.591Z</time><hdop>3.0</hdop><vdop>2.5</vdop><extensions><gom:speed>0.998</gom:speed></extensions></trkpt>
   <trkpt lat="59.3056993627" lon="34.6651142776"><ele>169.373</ele><time>2026-08-16T13:47:27.138Z</time><hdop>3.0</hdop><vdop>2.5</vdop><extensions><gom:speed>1.012</gom:speed></extensions></trkpt>
   <trkpt lat="59.3056931601" lon="34.6651234977"><ele>169.124</ele><time>2026-08-16T13:47:27.916Z</time><hdop>3.0</hdop><vdop>2.5</vdop><extensions><gom:speed>1.011</gom:speed></extensions></trkpt>
   <trkpt lat="59.3056866641" lon="34.6651334722"><ele>168.858</ele><time>2026-08-16T13:47:28.770Z</time><hdop>3.0</hdop><vdop>2.5</vdop><extensions><gom:speed>1.082</gom:speed></extensions></trkpt>
   <trkpt lat="59.3056830599" lon="34.6651364897"><ele>168.699</ele><time>2026-08-16T13:47:29.250Z</time><hdop>3.0</hdop><vdop>2.5</vdop><extensions><gom:speed>1.066</gom:speed></extensions></trkpt>
   <trkpt lat="59.3056741751" lon="34.665139591"><ele>168.604</ele><time>2026-08-16T13:47:30.113Z</time><hdop>3.0</hdop><vdop>2.5</vdop><extensions><gom:speed>1.04</gom:speed></extensions></trkpt>
   <trkpt lat="59.305670487" lon="34.6651364897"><ele>168.635</ele><time>2026-08-16T13:47:30.654Z</time><hdop>3.0</hdop><vdop>2.5</vdop><extensions><gom:speed>0.983</gom:speed></extensions></trkpt>
   <trkpt lat="59.305666799" lon="34.6651339751"><ele>168.732</ele><time>2026-08-16T13:47:31.137Z</time><hdop>3.0</hdop><vdop>2.5</vdop><extensions><gom:speed>0.964</gom:speed></extensions></trkpt>
   <trkpt lat="59.305658459" lon="34.665133556"><ele>168.961</ele><time>2026-08-16T13:47:32.137Z</time><hdop>3.0</hdop><vdop>2.5</vdop><extensions><gom:speed>0.96</gom:speed></extensions></trkpt>
   <trkpt lat="59.3056530946" lon="34.6651354838"><ele>169.098</ele><time>2026-08-16T13:47:32.735Z</time><hdop>3.0</hdop><vdop>2.5</vdop><extensions><gom:speed>0.956</gom:speed></extensions></trkpt>
   <trkpt lat="59.3056426591" lon="34.665130287"><ele>169.28</ele><time>2026-08-16T13:47:34.138Z</time><hdop>3.0</hdop><vdop>2.5</vdop><extensions><gom:speed>0.777</gom:speed></extensions></trkpt>
   <trkpt lat="59.3056379652" lon="34.6651222404"><ele>169.389</ele><time>2026-08-16T13:47:34.952Z</time><hdop>3.0</hdop><vdop>2.5</vdop><extensions><gom:speed>0.708</gom:speed></extensions></trkpt>
   <trkpt lat="59.3056350735" lon="34.6651078235"><ele>169.554</ele><time>2026-08-16T13:47:35.778Z</time><hdop>3.0</hdop><vdop>2.5</vdop><extensions><gom:speed>0.759</gom:speed></extensions></trkpt>
   <trkpt lat="59.3056340676" lon="34.665095586"><ele>169.544</ele><time>2026-08-16T13:47:36.278Z</time><hdop>3.0</hdop><vdop>2.5</vdop><extensions><gom:speed>0.839</gom:speed></extensions></trkpt>
   <trkpt lat="59.3056326846" lon="34.6650789898"><ele>169.384</ele><time>2026-08-16T13:47:37.138Z</time><hdop>3.0</hdop><vdop>2.5</vdop><extensions><gom:speed>0.852</gom:speed></extensions></trkpt>
   <trkpt lat="59.3056311759" lon="34.665069183"><ele>169.289</ele><time>2026-08-16T13:47:37.652Z</time><hdop>3.0</hdop><vdop>2.5</vdop><extensions><gom:speed>0.848</gom:speed></extensions></trkpt>
   <trkpt lat="59.3056288709" lon="34.6650586218"><ele>169.287</ele><time>2026-08-16T13:47:38.138Z</time><hdop>3.0</hdop><vdop>2.5</vdop><extensions><gom:speed>0.912</gom:speed></extensions></trkpt>
   <trkpt lat="59.3056232969" lon="34.665040433"><ele>169.285</ele><time>2026-08-16T13:47:39.134Z</time><hdop>3.0</hdop><vdop>2.5</vdop><extensions><gom:speed>0.97</gom:speed></extensions></trkpt>
   <trkpt lat="59.305619567" lon="34.6650272735"><ele>169.363</ele><time>2026-08-16T13:47:39.792Z</time><hdop>3.0</hdop><vdop>2.5</vdop><extensions><gom:speed>0.972</gom:speed></extensions></trkpt>
   <trkpt lat="59.3056155856" lon="34.665016377"><ele>169.417</ele><time>2026-08-16T13:47:40.351Z</time><hdop>3.0</hdop><vdop>2.5</vdop><extensions><gom:speed>1.016</gom:speed></extensions></trkpt>
   <trkpt lat="59.305610263" lon="34.6650048938"><ele>169.515</ele><time>2026-08-16T13:47:41.138Z</time><hdop>3.0</hdop><vdop>2.5</vdop><extensions><gom:speed>0.989</gom:speed></extensions></trkpt>
   <trkpt lat="59.3056067846" lon="34.6649972662"><ele>169.573</ele><time>2026-08-16T13:47:41.657Z</time><hdop>3.0</hdop><vdop>2.5</vdop><extensions><gom:speed>0.991</gom:speed></extensions></trkpt>
   <trkpt lat="59.3056052758" lon="34.6649894711"><ele>169.482</ele><time>2026-08-16T13:47:42.138Z</time><hdop>3.0</hdop><vdop>2.5</vdop><extensions><gom:speed>0.951</gom:speed></extensions></trkpt>
   <trkpt lat="59.3056047729" lon="34.6649721205"><ele>169.427</ele><time>2026-08-16T13:47:43.070Z</time><hdop>3.0</hdop><vdop>2.5</vdop><extensions><gom:speed>0.964</gom:speed></extensions></trkpt>
   <trkpt lat="59.3056060721" lon="34.6649634872"><ele>169.51</ele><time>2026-08-16T13:47:43.551Z</time><hdop>3.0</hdop><vdop>2.5</vdop><extensions><gom:speed>0.935</gom:speed></extensions></trkpt>
   <trkpt lat="59.3056054854" lon="34.664952926"><ele>169.576</ele><time>2026-08-16T13:47:44.138Z</time><hdop>3.0</hdop><vdop>2.5</vdop><extensions><gom:speed>0.955</gom:speed></extensions></trkpt>
   <trkpt lat="59.305601462" lon="34.6649383415"><ele>169.428</ele><time>2026-08-16T13:47:45.138Z</time><hdop>3.0</hdop><vdop>2.5</vdop><extensions><gom:speed>0.908</gom:speed></extensions></trkpt>
   <trkpt lat="59.3055980674" lon="34.6649304625"><ele>169.339</ele><time>2026-08-16T13:47:45.750Z</time><hdop>3.0</hdop><vdop>2.5</vdop><extensions><gom:speed>0.914</gom:speed></extensions></trkpt>
   <trkpt lat="59.3055929963" lon="34.6649185602"><ele>169.05</ele><time>2026-08-16T13:47:46.672Z</time><hdop>3.0</hdop><vdop>2.5</vdop><extensions><gom:speed>0.92</gom:speed></extensions></trkpt>
   <trkpt lat="59.3055901884" lon="34.6649127767"><ele>168.643</ele><time>2026-08-16T13:47:47.138Z</time><hdop>3.0</hdop><vdop>2.5</vdop><extensions><gom:speed>0.925</gom:speed></extensions></trkpt>
   <trkpt lat="59.3055856622" lon="34.6649031375"><ele>168.399</ele><time>2026-08-16T13:47:47.869Z</time><hdop>3.0</hdop><vdop>2.5</vdop><extensions><gom:speed>0.911</gom:speed></extensions></trkpt>
   <trkpt lat="59.305580172" lon="34.6648950908"><ele>168.19</ele><time>2026-08-16T13:47:48.694Z</time><hdop>3.0</hdop><vdop>2.5</vdop><extensions><gom:speed>0.882</gom:speed></extensions></trkpt>
   <trkpt lat="59.3055732988" lon="34.6648877986"><ele>168.003</ele><time>2026-08-16T13:47:49.655Z</time><hdop>3.0</hdop><vdop>2.5</vdop><extensions><gom:speed>0.843</gom:speed></extensions></trkpt>
   <trkpt lat="59.3055696946" lon="34.6648861222"><ele>167.801</ele><time>2026-08-16T13:47:50.138Z</time><hdop>3.0</hdop><vdop>2.5</vdop><extensions><gom:speed>0.799</gom:speed></extensions></trkpt>
   <trkpt lat="59.3055619833" lon="34.6648835238"><ele>167.75</ele><time>2026-08-16T13:47:51.138Z</time><hdop>3.0</hdop><vdop>2.5</vdop><extensions><gom:speed>0.814</gom:speed></extensions></trkpt>
   <trkpt lat="59.3055575828" lon="34.6648805902"><ele>167.719</ele><time>2026-08-16T13:47:51.698Z</time><hdop>3.0</hdop><vdop>2.5</vdop><extensions><gom:speed>0.816</gom:speed></extensions></trkpt>
   <trkpt lat="59.3055506677" lon="34.6648752257"><ele>167.586</ele><time>2026-08-16T13:47:52.630Z</time><hdop>3.0</hdop><vdop>2.5</vdop><extensions><gom:speed>0.81</gom:speed></extensions></trkpt>
   <trkpt lat="59.3055468959" lon="34.6648723759"><ele>167.446</ele><time>2026-08-16T13:47:53.138Z</time><hdop>3.0</hdop><vdop>2.5</vdop><extensions><gom:speed>0.841</gom:speed></extensions></trkpt>
   <trkpt lat="59.3055418667" lon="34.6648646645"><ele>167.363</ele><time>2026-08-16T13:47:53.896Z</time><hdop>3.0</hdop><vdop>2.5</vdop><extensions><gom:speed>0.839</gom:speed></extensions></trkpt>
   <trkpt lat="59.3055373824" lon="34.6648582943"><ele>167.162</ele><time>2026-08-16T13:47:54.711Z</time><hdop>3.0</hdop><vdop>2.5</vdop><extensions><gom:speed>0.829</gom:speed></extensions></trkpt>
   <trkpt lat="59.305534784" lon="34.6648572885"><ele>167.317</ele><time>2026-08-16T13:47:55.171Z</time><hdop>3.0</hdop><vdop>2.5</vdop><extensions><gom:speed>0.804</gom:speed></extensions></trkpt>
   <trkpt lat="59.3055321856" lon="34.6648479845"><ele>167.41</ele><time>2026-08-16T13:47:56.016Z</time><hdop>3.0</hdop><vdop>2.5</vdop><extensions><gom:speed>0.751</gom:speed></extensions></trkpt>
   <trkpt lat="59.305532479" lon="34.664837591"><ele>167.345</ele><time>2026-08-16T13:47:56.555Z</time><hdop>3.0</hdop><vdop>2.5</vdop><extensions><gom:speed>0.914</gom:speed></extensions></trkpt>
   <trkpt lat="59.3055317665" lon="34.6648289576"><ele>166.657</ele><time>2026-08-16T13:47:57.138Z</time><hdop>3.0</hdop><vdop>2.5</vdop><extensions><gom:speed>0.819</gom:speed></extensions></trkpt>
   <trkpt lat="59.3055245581" lon="34.664824599"><ele>166.246</ele><time>2026-08-16T13:47:58.009Z</time><hdop>3.0</hdop><vdop>2.5</vdop><extensions><gom:speed>0.795</gom:speed></extensions></trkpt>
   <trkpt lat="59.3055207862" lon="34.6648213301"><ele>165.917</ele><time>2026-08-16T13:47:58.774Z</time><hdop>3.0</hdop><vdop>2.5</vdop><extensions><gom:speed>0.786</gom:speed></extensions></trkpt>
   <trkpt lat="59.3055180621" lon="34.6648178935"><ele>165.696</ele><time>2026-08-16T13:47:59.511Z</time><hdop>3.0</hdop><vdop>2.5</vdop><extensions><gom:speed>0.74</gom:speed></extensions></trkpt>
   <trkpt lat="59.3055145836" lon="34.6648156304"><ele>165.522</ele><time>2026-08-16T13:48:00.138Z</time><hdop>3.0</hdop><vdop>2.5</vdop><extensions><gom:speed>0.754</gom:speed></extensions></trkpt>
   <trkpt lat="59.3055081715" lon="34.6648123615"><ele>165.532</ele><time>2026-08-16T13:48:01.138Z</time><hdop>3.0</hdop><vdop>2.5</vdop><extensions><gom:speed>0.716</gom:speed></extensions></trkpt>
   <trkpt lat="59.3055030585" lon="34.6648091763"><ele>165.538</ele><time>2026-08-16T13:48:01.974Z</time><hdop>3.0</hdop><vdop>2.5</vdop><extensions><gom:speed>0.657</gom:speed></extensions></trkpt>
   <trkpt lat="59.3054963949" lon="34.6648125291"><ele>165.69</ele><time>2026-08-16T13:48:02.818Z</time><hdop>3.0</hdop><vdop>2.5</vdop><extensions><gom:speed>0.635</gom:speed></extensions></trkpt>
   <trkpt lat="59.3054919944" lon="34.6648156304"><ele>165.9</ele><time>2026-08-16T13:48:03.437Z</time><hdop>3.0</hdop><vdop>2.5</vdop><extensions><gom:speed>0.588</gom:speed></extensions></trkpt>
   <trkpt lat="59.3054902761" lon="34.6648125291"><ele>166.025</ele><time>2026-08-16T13:48:03.918Z</time><hdop>3.0</hdop><vdop>2.5</vdop><extensions><gom:speed>0.574</gom:speed></extensions></trkpt>
   <trkpt lat="59.3054794634" lon="34.6648029737"><ele>166.276</ele><time>2026-08-16T13:48:05.138Z</time><hdop>3.0</hdop><vdop>2.625</vdop><extensions><gom:speed>0.927</gom:speed></extensions></trkpt>
   <trkpt lat="59.3054720874" lon="34.6648078352"><ele>166.426</ele><time>2026-08-16T13:48:05.989Z</time><hdop>3.0</hdop><vdop>2.625</vdop><extensions><gom:speed>0.734</gom:speed></extensions></trkpt>
   <trkpt lat="59.3054645856" lon="34.6648207434"><ele>166.983</ele><time>2026-08-16T13:48:07.138Z</time><hdop>3.0</hdop><vdop>2.812</vdop><extensions><gom:speed>0.48</gom:speed></extensions></trkpt>
   <trkpt lat="59.3054628673" lon="34.6648266945"><ele>167.451</ele><time>2026-08-16T13:48:08.138Z</time><hdop>3.0</hdop><vdop>2.937</vdop><extensions><gom:speed>0.209</gom:speed></extensions></trkpt>
   <trkpt lat="59.3054619872" lon="34.6648297958"><ele>167.749</ele><time>2026-08-16T13:48:09.138Z</time><hdop>3.0</hdop><vdop>2.875</vdop><extensions><gom:speed>0.128</gom:speed></extensions></trkpt>
   <trkpt lat="59.3054609813" lon="34.6648325618"><ele>167.981</ele><time>2026-08-16T13:48:10.138Z</time><hdop>3.0</hdop><vdop>2.75</vdop><extensions><gom:speed>0.112</gom:speed></extensions></trkpt>
   <trkpt lat="59.3054604784" lon="34.6648358308"><ele>168.178</ele><time>2026-08-16T13:48:11.138Z</time><hdop>3.0</hdop><vdop>2.562</vdop><extensions><gom:speed>0.069</gom:speed></extensions></trkpt>
   <trkpt lat="59.3054604784" lon="34.6648365852"><ele>168.296</ele><time>2026-08-16T13:48:11.976Z</time><hdop>3.0</hdop><vdop>2.562</vdop><extensions><gom:speed>0.061</gom:speed></extensions></trkpt>
   <trkpt lat="59.3054586763" lon="34.6648401894"><ele>168.375</ele><time>2026-08-16T13:48:13.137Z</time><hdop>3.0</hdop><vdop>2.5</vdop><extensions><gom:speed>0.131</gom:speed></extensions></trkpt>
   <trkpt lat="59.3054576705" lon="34.6648424525"><ele>168.442</ele><time>2026-08-16T13:48:14.138Z</time><hdop>3.0</hdop><vdop>2.5</vdop><extensions><gom:speed>0.12</gom:speed></extensions></trkpt>
   <trkpt lat="59.30545327" lon="34.664843626"><ele>168.54</ele><time>2026-08-16T13:48:15.138Z</time><hdop>3.0</hdop><vdop>2.5</vdop><extensions><gom:speed>0.113</gom:speed></extensions></trkpt>
   <trkpt lat="59.3054519708" lon="34.6648440451"><ele>168.598</ele><time>2026-08-16T13:48:15.676Z</time><hdop>3.0</hdop><vdop>2.5</vdop><extensions><gom:speed>0.146</gom:speed></extensions></trkpt>
   <trkpt lat="59.3054513841" lon="34.6648444641"><ele>168.633</ele><time>2026-08-16T13:48:16.137Z</time><hdop>3.0</hdop><vdop>2.5</vdop><extensions><gom:speed>0.115</gom:speed></extensions></trkpt>
   <trkpt lat="59.305446774" lon="34.66484547"><ele>168.657</ele><time>2026-08-16T13:48:16.775Z</time><hdop>3.0</hdop><vdop>2.5</vdop><extensions><gom:speed>0.133</gom:speed></extensions></trkpt>
   <trkpt lat="59.3054377635" lon="34.6648493257"><ele>168.682</ele><time>2026-08-16T13:48:18.137Z</time><hdop>3.0</hdop><vdop>2.5</vdop><extensions><gom:speed>0.098</gom:speed></extensions></trkpt>
   <trkpt lat="59.3054337821" lon="34.6648521755"><ele>168.69</ele><time>2026-08-16T13:48:19.138Z</time><hdop>3.0</hdop><vdop>2.5</vdop><extensions><gom:speed>0.048</gom:speed></extensions></trkpt>
   <trkpt lat="59.3054301779" lon="34.6648562826"><ele>168.696</ele><time>2026-08-16T13:48:20.138Z</time><hdop>3.0</hdop><vdop>2.5</vdop><extensions><gom:speed>0.03</gom:speed></extensions></trkpt>
   <trkpt lat="59.3054272861" lon="34.6648585457"><ele>168.685</ele><time>2026-08-16T13:48:21.138Z</time><hdop>3.0</hdop><vdop>2.5</vdop><extensions><gom:speed>0.059</gom:speed></extensions></trkpt>
   <trkpt lat="59.3054246877" lon="34.6648587972"><ele>168.649</ele><time>2026-08-16T13:48:22.138Z</time><hdop>3.0</hdop><vdop>2.5</vdop><extensions><gom:speed>0.066</gom:speed></extensions></trkpt>
   <trkpt lat="59.305423179" lon="34.6648591325"><ele>168.614</ele><time>2026-08-16T13:48:23.138Z</time><hdop>3.0</hdop><vdop>2.5</vdop><extensions><gom:speed>0.018</gom:speed></extensions></trkpt>
   <trkpt lat="59.3054222989" lon="34.6648604736"><ele>168.582</ele><time>2026-08-16T13:48:24.138Z</time><hdop>3.0</hdop><vdop>2.5</vdop><extensions><gom:speed>0.014</gom:speed></extensions></trkpt>
   <trkpt lat="59.305421293" lon="34.6648614794"><ele>168.589</ele><time>2026-08-16T13:48:25.138Z</time><hdop>3.0</hdop><vdop>2.5</vdop><extensions><gom:speed>0.057</gom:speed></extensions></trkpt>
   <trkpt lat="59.3054204968" lon="34.6648606412"><ele>168.605</ele><time>2026-08-16T13:48:26.138Z</time><hdop>3.0</hdop><vdop>2.5</vdop><extensions><gom:speed>0.063</gom:speed></extensions></trkpt>
   <trkpt lat="59.3054201615" lon="34.6648600545"><ele>168.599</ele><time>2026-08-16T13:48:27.138Z</time><hdop>3.0</hdop><vdop>2.562</vdop><extensions><gom:speed>0.022</gom:speed></extensions></trkpt>
   <trkpt lat="59.3054200777" lon="34.6648590487"><ele>168.606</ele><time>2026-08-16T13:48:28.138Z</time><hdop>3.0</hdop><vdop>2.562</vdop><extensions><gom:speed>0.015</gom:speed></extensions></trkpt>
   <trkpt lat="59.3054199938" lon="34.664858881"><ele>168.628</ele><time>2026-08-16T13:48:29.138Z</time><hdop>3.0</hdop><vdop>2.75</vdop><extensions><gom:speed>0.061</gom:speed></extensions></trkpt>
   <trkpt lat="59.3054196586" lon="34.6648582943"><ele>168.66</ele><time>2026-08-16T13:48:30.138Z</time><hdop>3.0</hdop><vdop>2.875</vdop><extensions><gom:speed>0.013</gom:speed></extensions></trkpt>
   <trkpt lat="59.3054201615" lon="34.6648580428"><ele>168.691</ele><time>2026-08-16T13:48:31.138Z</time><hdop>3.0</hdop><vdop>3.062</vdop><extensions><gom:speed>0.015</gom:speed></extensions></trkpt>
   <trkpt lat="59.3054200777" lon="34.6648581267"><ele>168.734</ele><time>2026-08-16T13:48:32.138Z</time><hdop>3.0</hdop><vdop>3.187</vdop><extensions><gom:speed>0.012</gom:speed></extensions></trkpt>
   <trkpt lat="59.3054201615" lon="34.6648587972"><ele>168.765</ele><time>2026-08-16T13:48:33.138Z</time><hdop>3.0</hdop><vdop>3.375</vdop><extensions><gom:speed>0.055</gom:speed></extensions></trkpt>
   <trkpt lat="59.3054201615" lon="34.664858881"><ele>168.815</ele><time>2026-08-16T13:48:34.138Z</time><hdop>3.0</hdop><vdop>3.312</vdop><extensions><gom:speed>0.0</gom:speed></extensions></trkpt>
   <trkpt lat="59.3054202872" lon="34.6648592163"><ele>168.875</ele><time>2026-08-16T13:48:35.138Z</time><hdop>3.0</hdop><vdop>3.437</vdop><extensions><gom:speed>0.015</gom:speed></extensions></trkpt>
   <trkpt lat="59.3054201615" lon="34.6648598869"><ele>168.928</ele><time>2026-08-16T13:48:36.138Z</time><hdop>3.0</hdop><vdop>3.562</vdop><extensions><gom:speed>0.026</gom:speed></extensions></trkpt>
   <trkpt lat="59.3054199938" lon="34.6648602221"><ele>168.954</ele><time>2026-08-16T13:48:37.138Z</time><hdop>3.0</hdop><vdop>3.625</vdop><extensions><gom:speed>0.034</gom:speed></extensions></trkpt>
   <trkpt lat="59.3054197843" lon="34.6648606412"><ele>168.986</ele><time>2026-08-16T13:48:38.138Z</time><hdop>3.0</hdop><vdop>3.5</vdop><extensions><gom:speed>0.041</gom:speed></extensions></trkpt>
   <trkpt lat="59.3054194909" lon="34.6648610603"><ele>169.03</ele><time>2026-08-16T13:48:39.138Z</time><hdop>3.0</hdop><vdop>3.375</vdop><extensions><gom:speed>0.047</gom:speed></extensions></trkpt>
   <trkpt lat="59.3054191976" lon="34.6648613956"><ele>169.062</ele><time>2026-08-16T13:48:40.138Z</time><hdop>3.0</hdop><vdop>3.437</vdop><extensions><gom:speed>0.05</gom:speed></extensions></trkpt>
   <trkpt lat="59.3054190718" lon="34.6648616471"><ele>169.091</ele><time>2026-08-16T13:48:41.138Z</time><hdop>3.0</hdop><vdop>3.312</vdop><extensions><gom:speed>0.054</gom:speed></extensions></trkpt>
   <trkpt lat="59.3054188623" lon="34.6648619823"><ele>169.109</ele><time>2026-08-16T13:48:42.138Z</time><hdop>3.0</hdop><vdop>3.062</vdop><extensions><gom:speed>0.059</gom:speed></extensions></trkpt>
   <trkpt lat="59.3054186946" lon="34.6648623176"><ele>169.135</ele><time>2026-08-16T13:48:43.138Z</time><hdop>3.0</hdop><vdop>2.937</vdop><extensions><gom:speed>0.059</gom:speed></extensions></trkpt>
   <trkpt lat="59.3054184851" lon="34.6648625691"><ele>169.157</ele><time>2026-08-16T13:48:44.138Z</time><hdop>3.0</hdop><vdop>2.75</vdop><extensions><gom:speed>0.062</gom:speed></extensions></trkpt>
   <trkpt lat="59.3054183594" lon="34.6648628205"><ele>169.189</ele><time>2026-08-16T13:48:45.138Z</time><hdop>3.0</hdop><vdop>2.562</vdop><extensions><gom:speed>0.066</gom:speed></extensions></trkpt>
   <trkpt lat="59.3054182756" lon="34.664863072"><ele>169.225</ele><time>2026-08-16T13:48:46.138Z</time><hdop>3.0</hdop><vdop>2.5</vdop><extensions><gom:speed>0.067</gom:speed></extensions></trkpt>
   <trkpt lat="59.3054181917" lon="34.6648631558"><ele>169.258</ele><time>2026-08-16T13:48:47.138Z</time><hdop>3.0</hdop><vdop>2.5</vdop><extensions><gom:speed>0.067</gom:speed></extensions></trkpt>
   <trkpt lat="59.305418066" lon="34.6648632396"><ele>169.292</ele><time>2026-08-16T13:48:48.138Z</time><hdop>3.0</hdop><vdop>2.5</vdop><extensions><gom:speed>0.068</gom:speed></extensions></trkpt>
   <trkpt lat="59.305418066" lon="34.6648635749"><ele>169.313</ele><time>2026-08-16T13:48:49.138Z</time><hdop>3.0</hdop><vdop>2.5</vdop><extensions><gom:speed>0.067</gom:speed></extensions></trkpt>
   <trkpt lat="59.3054179822" lon="34.6648636587"><ele>169.324</ele><time>2026-08-16T13:48:50.138Z</time><hdop>3.0</hdop><vdop>2.5</vdop><extensions><gom:speed>0.069</gom:speed></extensions></trkpt>
   <trkpt lat="59.3054179822" lon="34.6648637425"><ele>169.332</ele><time>2026-08-16T13:48:51.138Z</time><hdop>3.0</hdop><vdop>2.5</vdop><extensions><gom:speed>0.07</gom:speed></extensions></trkpt>
   <trkpt lat="59.3054178984" lon="34.6648638263"><ele>169.338</ele><time>2026-08-16T13:48:52.138Z</time><hdop>3.0</hdop><vdop>2.5</vdop><extensions><gom:speed>0.069</gom:speed></extensions></trkpt>
   <trkpt lat="59.3054178984" lon="34.664863994"><ele>169.333</ele><time>2026-08-16T13:48:53.138Z</time><hdop>3.0</hdop><vdop>2.5</vdop><extensions><gom:speed>0.07</gom:speed></extensions></trkpt>
   <trkpt lat="59.3054179822" lon="34.6648641616"><ele>169.358</ele><time>2026-08-16T13:48:54.138Z</time><hdop>3.0</hdop><vdop>2.5</vdop><extensions><gom:speed>0.066</gom:speed></extensions></trkpt>
   <trkpt lat="59.3054179822" lon="34.6648642454"><ele>169.366</ele><time>2026-08-16T13:48:55.138Z</time><hdop>3.0</hdop><vdop>2.5</vdop><extensions><gom:speed>0.065</gom:speed></extensions></trkpt>
   <trkpt lat="59.3054177726" lon="34.6648644969"><ele>169.365</ele><time>2026-08-16T13:48:56.138Z</time><hdop>3.0</hdop><vdop>2.5</vdop><extensions><gom:speed>0.061</gom:speed></extensions></trkpt>
   <trkpt lat="59.3054178984" lon="34.6648647484"><ele>169.366</ele><time>2026-08-16T13:48:57.138Z</time><hdop>3.0</hdop><vdop>2.5</vdop><extensions><gom:speed>0.063</gom:speed></extensions></trkpt>
   <trkpt lat="59.3054178984" lon="34.6648650836"><ele>169.374</ele><time>2026-08-16T13:48:58.138Z</time><hdop>3.0</hdop><vdop>2.5</vdop><extensions><gom:speed>0.064</gom:speed></extensions></trkpt>
   <trkpt lat="59.3054177726" lon="34.6648653351"><ele>169.366</ele><time>2026-08-16T13:48:59.138Z</time><hdop>3.0</hdop><vdop>2.5</vdop><extensions><gom:speed>0.065</gom:speed></extensions></trkpt>
   <trkpt lat="59.3054177726" lon="34.664865838"><ele>169.35</ele><time>2026-08-16T13:49:00.138Z</time><hdop>3.0</hdop><vdop>2.5</vdop><extensions><gom:speed>0.066</gom:speed></extensions></trkpt>
   <trkpt lat="59.3054176888" lon="34.6648663409"><ele>169.34</ele><time>2026-08-16T13:49:01.138Z</time><hdop>3.0</hdop><vdop>2.5</vdop><extensions><gom:speed>0.067</gom:speed></extensions></trkpt>
   <trkpt lat="59.3054176888" lon="34.6648669277"><ele>169.332</ele><time>2026-08-16T13:49:02.138Z</time><hdop>3.0</hdop><vdop>2.5</vdop><extensions><gom:speed>0.065</gom:speed></extensions></trkpt>
   <trkpt lat="59.3054175631" lon="34.6648672629"><ele>169.327</ele><time>2026-08-16T13:49:02.908Z</time><hdop>3.0</hdop><vdop>2.5</vdop><extensions><gom:speed>0.065</gom:speed></extensions></trkpt>
   <trkpt lat="59.305415761" lon="34.6648689393"><ele>169.635</ele><time>2026-08-16T13:49:04.138Z</time><hdop>3.0</hdop><vdop>2.5</vdop><extensions><gom:speed>0.222</gom:speed></extensions></trkpt>
   <trkpt lat="59.3054155933" lon="34.6648692746"><ele>169.818</ele><time>2026-08-16T13:49:04.704Z</time><hdop>3.0</hdop><vdop>2.5</vdop><extensions><gom:speed>0.202</gom:speed></extensions></trkpt>
   <trkpt lat="59.3054173955" lon="34.6648688555"><ele>169.644</ele><time>2026-08-16T13:49:06.138Z</time><hdop>3.0</hdop><vdop>2.5</vdop><extensions><gom:speed>0.116</gom:speed></extensions></trkpt>
   <trkpt lat="59.3054175631" lon="34.6648689393"><ele>169.54</ele><time>2026-08-16T13:49:06.746Z</time><hdop>3.0</hdop><vdop>2.5</vdop><extensions><gom:speed>0.119</gom:speed></extensions></trkpt>
   <trkpt lat="59.3054176888" lon="34.6648692746"><ele>169.646</ele><time>2026-08-16T13:49:07.826Z</time><hdop>3.0</hdop><vdop>2.5</vdop><extensions><gom:speed>0.301</gom:speed></extensions></trkpt>
   <trkpt lat="59.3054172697" lon="34.664869526"><ele>169.645</ele><time>2026-08-16T13:49:08.621Z</time><hdop>3.0</hdop><vdop>2.5</vdop><extensions><gom:speed>0.43</gom:speed></extensions></trkpt>
   <trkpt lat="59.3054164734" lon="34.6648696937"><ele>169.792</ele><time>2026-08-16T13:49:09.138Z</time><hdop>3.0</hdop><vdop>2.5</vdop><extensions><gom:speed>0.524</gom:speed></extensions></trkpt>
   <trkpt lat="59.3054104804" lon="34.6648714539"><ele>170.039</ele><time>2026-08-16T13:49:10.138Z</time><hdop>3.125</hdop><vdop>2.5</vdop><extensions><gom:speed>0.715</gom:speed></extensions></trkpt>
   <trkpt lat="59.30540696" lon="34.6648728788"><ele>170.187</ele><time>2026-08-16T13:49:10.741Z</time><hdop>3.25</hdop><vdop>2.5</vdop><extensions><gom:speed>0.748</gom:speed></extensions></trkpt>
   <trkpt lat="59.3053962731" lon="34.6648728788"><ele>170.506</ele><time>2026-08-16T13:49:11.742Z</time><hdop>3.312</hdop><vdop>2.5</vdop><extensions><gom:speed>0.785</gom:speed></extensions></trkpt>
   <trkpt lat="59.3053910763" lon="34.664870951"><ele>170.925</ele><time>2026-08-16T13:49:12.223Z</time><hdop>3.375</hdop><vdop>2.5</vdop><extensions><gom:speed>0.817</gom:speed></extensions></trkpt>
   <trkpt lat="59.3053853766" lon="34.6648688555"><ele>171.176</ele><time>2026-08-16T13:49:12.939Z</time><hdop>3.437</hdop><vdop>2.5</vdop><extensions><gom:speed>0.82</gom:speed></extensions></trkpt>
   <trkpt lat="59.3053776652" lon="34.6648631558"><ele>171.402</ele><time>2026-08-16T13:49:14.138Z</time><hdop>3.375</hdop><vdop>2.5</vdop><extensions><gom:speed>0.733</gom:speed></extensions></trkpt>
   <trkpt lat="59.3053735581" lon="34.6648635749"><ele>171.669</ele><time>2026-08-16T13:49:15.138Z</time><hdop>3.375</hdop><vdop>2.5</vdop><extensions><gom:speed>0.68</gom:speed></extensions></trkpt>
   <trkpt lat="59.3053701634" lon="34.6648691908"><ele>171.738</ele><time>2026-08-16T13:49:16.138Z</time><hdop>3.187</hdop><vdop>2.5</vdop><extensions><gom:speed>0.678</gom:speed></extensions></trkpt>
   <trkpt lat="59.3053663916" lon="34.6648740523"><ele>171.695</ele><time>2026-08-16T13:49:17.138Z</time><hdop>3.062</hdop><vdop>2.5</vdop><extensions><gom:speed>0.733</gom:speed></extensions></trkpt>
   <trkpt lat="59.3053629969" lon="34.6648770698"><ele>171.669</ele><time>2026-08-16T13:49:17.720Z</time><hdop>3.062</hdop><vdop>2.5</vdop><extensions><gom:speed>0.747</gom:speed></extensions></trkpt>
   <trkpt lat="59.3053603985" lon="34.6648822665"><ele>171.429</ele><time>2026-08-16T13:49:18.308Z</time><hdop>3.0</hdop><vdop>2.5</vdop><extensions><gom:speed>0.837</gom:speed></extensions></trkpt>
   <trkpt lat="59.3053556627" lon="34.6648878824"><ele>171.286</ele><time>2026-08-16T13:49:18.986Z</time><hdop>3.0</hdop><vdop>2.5</vdop><extensions><gom:speed>0.843</gom:speed></extensions></trkpt>
   <trkpt lat="59.3053545731" lon="34.6648963481"><ele>170.735</ele><time>2026-08-16T13:49:19.781Z</time><hdop>3.0</hdop><vdop>2.5</vdop><extensions><gom:speed>0.766</gom:speed></extensions></trkpt>
   <trkpt lat="59.3053545731" lon="34.6649118547"><ele>170.219</ele><time>2026-08-16T13:49:21.138Z</time><hdop>3.0</hdop><vdop>2.5</vdop><extensions><gom:speed>0.753</gom:speed></extensions></trkpt>
   <trkpt lat="59.3053531901" lon="34.664918644"><ele>169.91</ele><time>2026-08-16T13:49:21.724Z</time><hdop>3.0</hdop><vdop>2.5</vdop><extensions><gom:speed>0.753</gom:speed></extensions></trkpt>
   <trkpt lat="59.305353693" lon="34.6649291214"><ele>169.65</ele><time>2026-08-16T13:49:22.500Z</time><hdop>3.0</hdop><vdop>2.5</vdop><extensions><gom:speed>0.772</gom:speed></extensions></trkpt>
   <trkpt lat="59.3053520585" lon="34.6649389282"><ele>169.495</ele><time>2026-08-16T13:49:23.108Z</time><hdop>3.0</hdop><vdop>2.5</vdop><extensions><gom:speed>0.845</gom:speed></extensions></trkpt>
   <trkpt lat="59.3053529805" lon="34.6649475616"><ele>169.225</ele><time>2026-08-16T13:49:23.785Z</time><hdop>3.0</hdop><vdop>2.5</vdop><extensions><gom:speed>0.809</gom:speed></extensions></trkpt>
   <trkpt lat="59.3053529805" lon="34.6649555244"><ele>169.204</ele><time>2026-08-16T13:49:24.384Z</time><hdop>3.0</hdop><vdop>2.5</vdop><extensions><gom:speed>0.905</gom:speed></extensions></trkpt>
   <trkpt lat="59.3053522681" lon="34.664959883"><ele>169.545</ele><time>2026-08-16T13:49:25.138Z</time><hdop>3.0</hdop><vdop>2.5</vdop><extensions><gom:speed>0.716</gom:speed></extensions></trkpt>
   <trkpt lat="59.305350885" lon="34.6649583742"><ele>169.76</ele><time>2026-08-16T13:49:26.138Z</time><hdop>3.0</hdop><vdop>2.5</vdop><extensions><gom:speed>0.398</gom:speed></extensions></trkpt>
   <trkpt lat="59.3053520585" lon="34.6649545185"><ele>169.881</ele><time>2026-08-16T13:49:27.138Z</time><hdop>3.0</hdop><vdop>2.5</vdop><extensions><gom:speed>0.149</gom:speed></extensions></trkpt>
   <trkpt lat="59.3053521842" lon="34.6649536803"><ele>169.954</ele><time>2026-08-16T13:49:27.869Z</time><hdop>3.0</hdop><vdop>2.5</vdop><extensions><gom:speed>0.178</gom:speed></extensions></trkpt>
   <trkpt lat="59.305352771" lon="34.6649532613"><ele>169.93</ele><time>2026-08-16T13:49:28.742Z</time><hdop>3.0</hdop><vdop>2.5</vdop><extensions><gom:speed>0.172</gom:speed></extensions></trkpt>
   <trkpt lat="59.3053526872" lon="34.6649544347"><ele>170.004</ele><time>2026-08-16T13:49:29.547Z</time><hdop>3.0</hdop><vdop>2.5</vdop><extensions><gom:speed>0.166</gom:speed></extensions></trkpt>
   <trkpt lat="59.3053522681" lon="34.6649562787"><ele>169.996</ele><time>2026-08-16T13:49:30.138Z</time><hdop>3.0</hdop><vdop>2.5</vdop><extensions><gom:speed>0.205</gom:speed></extensions></trkpt>
   <trkpt lat="59.3053510946" lon="34.66495938"><ele>169.991</ele><time>2026-08-16T13:49:31.049Z</time><hdop>3.0</hdop><vdop>2.5</vdop><extensions><gom:speed>0.239</gom:speed></extensions></trkpt>
   <trkpt lat="59.3053481609" lon="34.6649640739"><ele>170.086</ele><time>2026-08-16T13:49:31.608Z</time><hdop>3.0</hdop><vdop>2.5</vdop><extensions><gom:speed>0.42</gom:speed></extensions></trkpt>
   <trkpt lat="59.305344892" lon="34.6649692707"><ele>170.063</ele><time>2026-08-16T13:49:32.138Z</time><hdop>3.0</hdop><vdop>2.5</vdop><extensions><gom:speed>0.623</gom:speed></extensions></trkpt>
   <trkpt lat="59.305339779" lon="34.6649789937"><ele>170.144</ele><time>2026-08-16T13:49:33.137Z</time><hdop>3.0</hdop><vdop>2.5</vdop><extensions><gom:speed>0.697</gom:speed></extensions></trkpt>
   <trkpt lat="59.3053356719" lon="34.6649834361"><ele>170.193</ele><time>2026-08-16T13:49:33.827Z</time><hdop>3.0</hdop><vdop>2.5</vdop><extensions><gom:speed>0.709</gom:speed></extensions></trkpt>
   <trkpt lat="59.3053257812" lon="34.6649961766"><ele>170.282</ele><time>2026-08-16T13:49:35.083Z</time><hdop>3.0</hdop><vdop>2.5</vdop><extensions><gom:speed>0.897</gom:speed></extensions></trkpt>
   <trkpt lat="59.3053186985" lon="34.6650071569"><ele>170.237</ele><time>2026-08-16T13:49:36.064Z</time><hdop>3.062</hdop><vdop>2.5</vdop><extensions><gom:speed>0.957</gom:speed></extensions></trkpt>
   <trkpt lat="59.3053154715" lon="34.6650128566"><ele>170.165</ele><time>2026-08-16T13:49:36.585Z</time><hdop>3.062</hdop><vdop>2.5</vdop><extensions><gom:speed>0.91</gom:speed></extensions></trkpt>
   <trkpt lat="59.3053115739" lon="34.665018221"><ele>170.357</ele><time>2026-08-16T13:49:37.138Z</time><hdop>3.062</hdop><vdop>2.5</vdop><extensions><gom:speed>0.955</gom:speed></extensions></trkpt>
   <trkpt lat="59.3053052875" lon="34.665025178"><ele>170.472</ele><time>2026-08-16T13:49:37.900Z</time><hdop>3.062</hdop><vdop>2.5</vdop><extensions><gom:speed>0.951</gom:speed></extensions></trkpt>
   <trkpt lat="59.3052991687" lon="34.6650287822"><ele>170.558</ele><time>2026-08-16T13:49:38.724Z</time><hdop>3.062</hdop><vdop>2.5</vdop><extensions><gom:speed>0.916</gom:speed></extensions></trkpt>
   <trkpt lat="59.3052953969" lon="34.6650310453"><ele>170.621</ele><time>2026-08-16T13:49:39.245Z</time><hdop>3.062</hdop><vdop>2.5</vdop><extensions><gom:speed>0.972</gom:speed></extensions></trkpt>
   <trkpt lat="59.3052904934" lon="34.6650346495"><ele>170.658</ele><time>2026-08-16T13:49:39.824Z</time><hdop>3.062</hdop><vdop>2.5</vdop><extensions><gom:speed>0.968</gom:speed></extensions></trkpt>
   <trkpt lat="59.3052870988" lon="34.6650420256"><ele>170.564</ele><time>2026-08-16T13:49:40.403Z</time><hdop>3.062</hdop><vdop>2.5</vdop><extensions><gom:speed>1.006</gom:speed></extensions></trkpt>
   <trkpt lat="59.3052828659" lon="34.6650509942"><ele>170.406</ele><time>2026-08-16T13:49:41.138Z</time><hdop>3.0</hdop><vdop>2.5</vdop><extensions><gom:speed>1.004</gom:speed></extensions></trkpt>
   <trkpt lat="59.305279094" lon="34.6650602982"><ele>170.312</ele><time>2026-08-16T13:49:41.787Z</time><hdop>3.0</hdop><vdop>2.5</vdop><extensions><gom:speed>1.004</gom:speed></extensions></trkpt>
   <trkpt lat="59.3052753641" lon="34.6650669199"><ele>170.392</ele><time>2026-08-16T13:49:42.503Z</time><hdop>3.0</hdop><vdop>2.5</vdop><extensions><gom:speed>0.96</gom:speed></extensions></trkpt>
   <trkpt lat="59.3052704607" lon="34.6650725357"><ele>170.44</ele><time>2026-08-16T13:49:43.141Z</time><hdop>3.0</hdop><vdop>2.5</vdop><extensions><gom:speed>0.926</gom:speed></extensions></trkpt>
   <trkpt lat="59.305263378" lon="34.66507614"><ele>170.476</ele><time>2026-08-16T13:49:44.025Z</time><hdop>3.0</hdop><vdop>2.5</vdop><extensions><gom:speed>0.968</gom:speed></extensions></trkpt>
   <trkpt lat="59.3052604862" lon="34.6650769781"><ele>170.344</ele><time>2026-08-16T13:49:44.506Z</time><hdop>3.0</hdop><vdop>2.5</vdop><extensions><gom:speed>0.963</gom:speed></extensions></trkpt>
   <trkpt lat="59.3052569658" lon="34.6650804985"><ele>170.148</ele><time>2026-08-16T13:49:45.138Z</time><hdop>3.0</hdop><vdop>2.5</vdop><extensions><gom:speed>0.984</gom:speed></extensions></trkpt>
   <trkpt lat="59.3052536969" lon="34.6650857791"><ele>170.031</ele><time>2026-08-16T13:49:45.663Z</time><hdop>3.0</hdop><vdop>2.5</vdop><extensions><gom:speed>0.986</gom:speed></extensions></trkpt>
   <trkpt lat="59.3052513919" lon="34.6650884614"><ele>170.255</ele><time>2026-08-16T13:49:46.138Z</time><hdop>3.0</hdop><vdop>2.5</vdop><extensions><gom:speed>1.009</gom:speed></extensions></trkpt>
   <trkpt lat="59.3052458598" lon="34.6650943287"><ele>170.389</ele><time>2026-08-16T13:49:46.861Z</time><hdop>3.0</hdop><vdop>2.5</vdop><extensions><gom:speed>0.993</gom:speed></extensions></trkpt>
   <trkpt lat="59.3052384837" lon="34.6650899701"><ele>170.287</ele><time>2026-08-16T13:49:48.138Z</time><hdop>3.0</hdop><vdop>2.5</vdop><extensions><gom:speed>0.897</gom:speed></extensions></trkpt>
   <trkpt lat="59.3052321973" lon="34.6650870364"><ele>170.081</ele><time>2026-08-16T13:49:49.138Z</time><hdop>3.0</hdop><vdop>2.5</vdop><extensions><gom:speed>0.87</gom:speed></extensions></trkpt>
   <trkpt lat="59.3052257851" lon="34.6650889643"><ele>169.958</ele><time>2026-08-16T13:49:50.004Z</time><hdop>3.0</hdop><vdop>2.5</vdop><extensions><gom:speed>0.886</gom:speed></extensions></trkpt>
   <trkpt lat="59.3052200855" lon="34.6650877908"><ele>169.919</ele><time>2026-08-16T13:49:50.848Z</time><hdop>3.0</hdop><vdop>2.5</vdop><extensions><gom:speed>0.855</gom:speed></extensions></trkpt>
   <trkpt lat="59.3052141762" lon="34.6650870364"><ele>170.441</ele><time>2026-08-16T13:49:51.682Z</time><hdop>3.0</hdop><vdop>2.5</vdop><extensions><gom:speed>0.875</gom:speed></extensions></trkpt>
   <trkpt lat="59.3052116616" lon="34.6650883775"><ele>170.809</ele><time>2026-08-16T13:49:52.138Z</time><hdop>3.0</hdop><vdop>2.5</vdop><extensions><gom:speed>0.858</gom:speed></extensions></trkpt>
   <trkpt lat="59.3052074707" lon="34.665094664"><ele>171.029</ele><time>2026-08-16T13:49:52.860Z</time><hdop>3.0</hdop><vdop>2.5</vdop><extensions><gom:speed>0.866</gom:speed></extensions></trkpt>
   <trkpt lat="59.3052032797" lon="34.6651036326"><ele>170.905</ele><time>2026-08-16T13:49:53.724Z</time><hdop>3.0</hdop><vdop>2.5</vdop><extensions><gom:speed>0.884</gom:speed></extensions></trkpt>
   <trkpt lat="59.3051970771" lon="34.6651084941"><ele>170.932</ele><time>2026-08-16T13:49:54.646Z</time><hdop>3.0</hdop><vdop>2.5</vdop><extensions><gom:speed>0.863</gom:speed></extensions></trkpt>
   <trkpt lat="59.3051928862" lon="34.6651072368"><ele>170.988</ele><time>2026-08-16T13:49:55.138Z</time><hdop>3.0</hdop><vdop>2.5</vdop><extensions><gom:speed>0.863</gom:speed></extensions></trkpt>
   <trkpt lat="59.3051872703" lon="34.6651069854"><ele>171.021</ele><time>2026-08-16T13:49:55.785Z</time><hdop>3.0</hdop><vdop>2.5</vdop><extensions><gom:speed>0.86</gom:speed></extensions></trkpt>
   <trkpt lat="59.3051830793" lon="34.6651055604"><ele>171.087</ele><time>2026-08-16T13:49:56.285Z</time><hdop>3.0</hdop><vdop>2.5</vdop><extensions><gom:speed>0.837</gom:speed></extensions></trkpt>
   <trkpt lat="59.3051787627" lon="34.6651084941"><ele>171.126</ele><time>2026-08-16T13:49:56.844Z</time><hdop>3.0</hdop><vdop>2.5</vdop><extensions><gom:speed>0.835</gom:speed></extensions></trkpt>
   <trkpt lat="59.3051717638" lon="34.6651067339"><ele>171.128</ele><time>2026-08-16T13:49:57.866Z</time><hdop>3.0</hdop><vdop>2.5</vdop><extensions><gom:speed>0.787</gom:speed></extensions></trkpt>
   <trkpt lat="59.3051661898" lon="34.665098352"><ele>171.428</ele><time>2026-08-16T13:49:58.601Z</time><hdop>3.0</hdop><vdop>2.5</vdop><extensions><gom:speed>0.79</gom:speed></extensions></trkpt>
   <trkpt lat="59.3051614959" lon="34.6650917303"><ele>171.805</ele><time>2026-08-16T13:49:59.138Z</time><hdop>3.062</hdop><vdop>2.5</vdop><extensions><gom:speed>0.859</gom:speed></extensions></trkpt>
   <trkpt lat="59.3051580594" lon="34.6650872879"><ele>172.03</ele><time>2026-08-16T13:49:59.603Z</time><hdop>3.0</hdop><vdop>2.5</vdop><extensions><gom:speed>0.857</gom:speed></extensions></trkpt>
   <trkpt lat="59.3051533655" lon="34.6650841866"><ele>172.026</ele><time>2026-08-16T13:50:00.138Z</time><hdop>3.0</hdop><vdop>2.5</vdop><extensions><gom:speed>0.877</gom:speed></extensions></trkpt>
   <trkpt lat="59.3051449836" lon="34.6650869526"><ele>172.184</ele><time>2026-08-16T13:50:01.138Z</time><hdop>3.0</hdop><vdop>2.5</vdop><extensions><gom:speed>0.858</gom:speed></extensions></trkpt>
   <trkpt lat="59.3051399964" lon="34.6650918979"><ele>172.278</ele><time>2026-08-16T13:50:01.782Z</time><hdop>3.0</hdop><vdop>2.5</vdop><extensions><gom:speed>0.85</gom:speed></extensions></trkpt>
   <trkpt lat="59.3051301895" lon="34.6650942449"><ele>172.464</ele><time>2026-08-16T13:50:02.960Z</time><hdop>3.0</hdop><vdop>2.5</vdop><extensions><gom:speed>0.881</gom:speed></extensions></trkpt>
   <trkpt lat="59.3051249928" lon="34.6650915627"><ele>172.642</ele><time>2026-08-16T13:50:03.706Z</time><hdop>3.0</hdop><vdop>2.5</vdop><extensions><gom:speed>0.852</gom:speed></extensions></trkpt>
   <trkpt lat="59.3051213885" lon="34.6650899701"><ele>172.526</ele><time>2026-08-16T13:50:04.265Z</time><hdop>3.0</hdop><vdop>2.5</vdop><extensions><gom:speed>0.842</gom:speed></extensions></trkpt>
   <trkpt lat="59.3051163594" lon="34.6650868688"><ele>172.457</ele><time>2026-08-16T13:50:04.903Z</time><hdop>3.0</hdop><vdop>2.5</vdop><extensions><gom:speed>0.84</gom:speed></extensions></trkpt>
   <trkpt lat="59.3051118751" lon="34.6650836837"><ele>172.384</ele><time>2026-08-16T13:50:05.462Z</time><hdop>3.0</hdop><vdop>2.5</vdop><extensions><gom:speed>0.893</gom:speed></extensions></trkpt>
   <trkpt lat="59.3051065945" lon="34.6650815882"><ele>172.023</ele><time>2026-08-16T13:50:06.138Z</time><hdop>3.0</hdop><vdop>2.5</vdop><extensions><gom:speed>0.919</gom:speed></extensions></trkpt>
   <trkpt lat="59.3051019844" lon="34.6650814206"><ele>171.807</ele><time>2026-08-16T13:50:06.641Z</time><hdop>3.0</hdop><vdop>2.5</vdop><extensions><gom:speed>0.926</gom:speed></extensions></trkpt>
   <trkpt lat="59.3050978773" lon="34.6650827617"><ele>171.692</ele><time>2026-08-16T13:50:07.138Z</time><hdop>3.0</hdop><vdop>2.5</vdop><extensions><gom:speed>0.933</gom:speed></extensions></trkpt>
   <trkpt lat="59.3050891601" lon="34.6650840189"><ele>171.624</ele><time>2026-08-16T13:50:08.024Z</time><hdop>3.0</hdop><vdop>2.5</vdop><extensions><gom:speed>0.995</gom:speed></extensions></trkpt>
   <trkpt lat="59.3050821612" lon="34.66508075"><ele>171.521</ele><time>2026-08-16T13:50:08.820Z</time><hdop>3.0</hdop><vdop>2.5</vdop><extensions><gom:speed>0.958</gom:speed></extensions></trkpt>
   <trkpt lat="59.3050777607" lon="34.665075637"><ele>171.542</ele><time>2026-08-16T13:50:09.389Z</time><hdop>3.0</hdop><vdop>2.5</vdop><extensions><gom:speed>0.993</gom:speed></extensions></trkpt>
   <trkpt lat="59.3050738631" lon="34.6650667522"><ele>171.222</ele><time>2026-08-16T13:50:10.138Z</time><hdop>3.0</hdop><vdop>2.5</vdop><extensions><gom:speed>0.97</gom:speed></extensions></trkpt>
   <trkpt lat="59.3050721868" lon="34.6650514972"><ele>171.031</ele><time>2026-08-16T13:50:10.959Z</time><hdop>3.0</hdop><vdop>2.5</vdop><extensions><gom:speed>0.979</gom:speed></extensions></trkpt>
   <trkpt lat="59.3050752881" lon="34.6650382538"><ele>170.759</ele><time>2026-08-16T13:50:11.646Z</time><hdop>3.0</hdop><vdop>2.5</vdop><extensions><gom:speed>0.931</gom:speed></extensions></trkpt>
   <trkpt lat="59.3050746594" lon="34.6650299557"><ele>170.597</ele><time>2026-08-16T13:50:12.127Z</time><hdop>3.0</hdop><vdop>2.5</vdop><extensions><gom:speed>0.911</gom:speed></extensions></trkpt>
   <trkpt lat="59.3050705942" lon="34.6650208194"><ele>170.304</ele><time>2026-08-16T13:50:12.942Z</time><hdop>3.0</hdop><vdop>2.5</vdop><extensions><gom:speed>0.854</gom:speed></extensions></trkpt>
   <trkpt lat="59.3050659842" lon="34.6650169637"><ele>170.048</ele><time>2026-08-16T13:50:13.600Z</time><hdop>3.0</hdop><vdop>2.5</vdop><extensions><gom:speed>0.826</gom:speed></extensions></trkpt>
   <trkpt lat="59.3050623799" lon="34.6650137786"><ele>170.054</ele><time>2026-08-16T13:50:14.138Z</time><hdop>3.0</hdop><vdop>2.5</vdop><extensions><gom:speed>0.782</gom:speed></extensions></trkpt>
   <trkpt lat="59.3050571832" lon="34.6650106773"><ele>170.058</ele><time>2026-08-16T13:50:14.846Z</time><hdop>3.0</hdop><vdop>2.5</vdop><extensions><gom:speed>0.775</gom:speed></extensions></trkpt>
   <trkpt lat="59.3050503938" lon="34.6650106773"><ele>170.356</ele><time>2026-08-16T13:50:15.602Z</time><hdop>3.0</hdop><vdop>2.5</vdop><extensions><gom:speed>0.837</gom:speed></extensions></trkpt>
   <trkpt lat="59.3050447779" lon="34.6650090847"><ele>170.534</ele><time>2026-08-16T13:50:16.122Z</time><hdop>3.0</hdop><vdop>2.5</vdop><extensions><gom:speed>0.921</gom:speed></extensions></trkpt>
   <trkpt lat="59.3050381982" lon="34.6650081627"><ele>170.306</ele><time>2026-08-16T13:50:16.780Z</time><hdop>3.0</hdop><vdop>2.5</vdop><extensions><gom:speed>0.903</gom:speed></extensions></trkpt>
   <trkpt lat="59.3050326661" lon="34.6650071569"><ele>170.367</ele><time>2026-08-16T13:50:17.300Z</time><hdop>3.0</hdop><vdop>2.5</vdop><extensions><gom:speed>0.971</gom:speed></extensions></trkpt>
   <trkpt lat="59.3050246614" lon="34.6650023792"><ele>170.403</ele><time>2026-08-16T13:50:18.105Z</time><hdop>3.0</hdop><vdop>2.5</vdop><extensions><gom:speed>0.996</gom:speed></extensions></trkpt>
   <trkpt lat="59.3050205962" lon="34.6650002837"><ele>170.352</ele><time>2026-08-16T13:50:18.625Z</time><hdop>3.0</hdop><vdop>2.5</vdop><extensions><gom:speed>0.95</gom:speed></extensions></trkpt>
   <trkpt lat="59.3050171596" lon="34.6649972662"><ele>170.166</ele><time>2026-08-16T13:50:19.138Z</time><hdop>3.0</hdop><vdop>2.5</vdop><extensions><gom:speed>0.903</gom:speed></extensions></trkpt>
   <trkpt lat="59.305011879" lon="34.6649907284"><ele>170.055</ele><time>2026-08-16T13:50:19.881Z</time><hdop>3.0</hdop><vdop>2.5</vdop><extensions><gom:speed>0.897</gom:speed></extensions></trkpt>
   <trkpt lat="59.305006766" lon="34.6649847772"><ele>170.144</ele><time>2026-08-16T13:50:20.608Z</time><hdop>3.0</hdop><vdop>2.5</vdop><extensions><gom:speed>0.921</gom:speed></extensions></trkpt>
   <trkpt lat="59.3050026589" lon="34.6649828494"><ele>170.206</ele><time>2026-08-16T13:50:21.138Z</time><hdop>3.0</hdop><vdop>2.5</vdop><extensions><gom:speed>0.907</gom:speed></extensions></trkpt>
   <trkpt lat="59.3049958695" lon="34.6649795804"><ele>170.244</ele><time>2026-08-16T13:50:21.923Z</time><hdop>3.0</hdop><vdop>2.5</vdop><extensions><gom:speed>0.917</gom:speed></extensions></trkpt>
   <trkpt lat="59.3049903794" lon="34.6649772335"><ele>170.352</ele><time>2026-08-16T13:50:22.581Z</time><hdop>3.0</hdop><vdop>2.5</vdop><extensions><gom:speed>0.901</gom:speed></extensions></trkpt>
   <trkpt lat="59.3049858951" lon="34.6649746351"><ele>170.222</ele><time>2026-08-16T13:50:23.138Z</time><hdop>3.0</hdop><vdop>2.5</vdop><extensions><gom:speed>0.918</gom:speed></extensions></trkpt>
   <trkpt lat="59.3049778904" lon="34.6649670914"><ele>170.145</ele><time>2026-08-16T13:50:24.102Z</time><hdop>3.0</hdop><vdop>2.5</vdop><extensions><gom:speed>0.934</gom:speed></extensions></trkpt>
   <trkpt lat="59.3049721907" lon="34.6649628166"><ele>169.649</ele><time>2026-08-16T13:50:24.809Z</time><hdop>3.0</hdop><vdop>2.5</vdop><extensions><gom:speed>0.911</gom:speed></extensions></trkpt>
   <trkpt lat="59.3049668682" lon="34.6649627328"><ele>169.577</ele><time>2026-08-16T13:50:25.329Z</time><hdop>3.0</hdop><vdop>2.5</vdop><extensions><gom:speed>0.923</gom:speed></extensions></trkpt>
   <trkpt lat="59.3049593664" lon="34.6649602182"><ele>169.534</ele><time>2026-08-16T13:50:26.084Z</time><hdop>3.0</hdop><vdop>2.5</vdop><extensions><gom:speed>0.981</gom:speed></extensions></trkpt>
   <trkpt lat="59.3049536667" lon="34.6649602182"><ele>169.582</ele><time>2026-08-16T13:50:26.566Z</time><hdop>3.0</hdop><vdop>2.5</vdop><extensions><gom:speed>0.985</gom:speed></extensions></trkpt>
   <trkpt lat="59.3049475898" lon="34.6649587933"><ele>169.692</ele><time>2026-08-16T13:50:27.138Z</time><hdop>3.0</hdop><vdop>2.5</vdop><extensions><gom:speed>0.98</gom:speed></extensions></trkpt>
   <trkpt lat="59.3049378668" lon="34.6649548538"><ele>169.758</ele><time>2026-08-16T13:50:28.087Z</time><hdop>3.0</hdop><vdop>2.5</vdop><extensions><gom:speed>1.006</gom:speed></extensions></trkpt>
   <trkpt lat="59.3049300716" lon="34.6649509981"><ele>169.711</ele><time>2026-08-16T13:50:28.822Z</time><hdop>3.0</hdop><vdop>2.5</vdop><extensions><gom:speed>0.997</gom:speed></extensions></trkpt>
   <trkpt lat="59.3049230727" lon="34.6649444603"><ele>169.549</ele><time>2026-08-16T13:50:29.520Z</time><hdop>3.0</hdop><vdop>2.5</vdop><extensions><gom:speed>1.009</gom:speed></extensions></trkpt>
   <trkpt lat="59.3049178759" lon="34.664937168"><ele>169.495</ele><time>2026-08-16T13:50:30.138Z</time><hdop>3.0</hdop><vdop>2.5</vdop><extensions><gom:speed>1.001</gom:speed></extensions></trkpt>
   <trkpt lat="59.3049122601" lon="34.6649281994"><ele>169.462</ele><time>2026-08-16T13:50:30.845Z</time><hdop>3.0</hdop><vdop>2.5</vdop><extensions><gom:speed>0.995</gom:speed></extensions></trkpt>
   <trkpt lat="59.3049031657" lon="34.6649224997"><ele>169.756</ele><time>2026-08-16T13:50:31.806Z</time><hdop>3.0</hdop><vdop>2.5</vdop><extensions><gom:speed>0.998</gom:speed></extensions></trkpt>
   <trkpt lat="59.3048941971" lon="34.6649222482"><ele>169.478</ele><time>2026-08-16T13:50:32.622Z</time><hdop>3.0</hdop><vdop>2.5</vdop><extensions><gom:speed>1.002</gom:speed></extensions></trkpt>
   <trkpt lat="59.30488636" lon="34.6649213262"><ele>168.651</ele><time>2026-08-16T13:50:33.138Z</time><hdop>3.0</hdop><vdop>2.5</vdop><extensions><gom:speed>1.138</gom:speed></extensions></trkpt>
   <trkpt lat="59.3048760921" lon="34.6649189793"><ele>168.157</ele><time>2026-08-16T13:50:33.908Z</time><hdop>3.0</hdop><vdop>2.5</vdop><extensions><gom:speed>1.149</gom:speed></extensions></trkpt>
   <trkpt lat="59.3048685903" lon="34.6649142854"><ele>168.319</ele><time>2026-08-16T13:50:34.526Z</time><hdop>3.0</hdop><vdop>2.5</vdop><extensions><gom:speed>1.127</gom:speed></extensions></trkpt>
   <trkpt lat="59.3048627649" lon="34.6649099268"><ele>168.205</ele><time>2026-08-16T13:50:35.138Z</time><hdop>3.0</hdop><vdop>2.5</vdop><extensions><gom:speed>1.063</gom:speed></extensions></trkpt>
   <trkpt lat="59.3048546764" lon="34.6649009582"><ele>168.138</ele><time>2026-08-16T13:50:36.028Z</time><hdop>3.0</hdop><vdop>2.5</vdop><extensions><gom:speed>1.039</gom:speed></extensions></trkpt>
   <trkpt lat="59.3048463783" lon="34.6648939174"><ele>168.304</ele><time>2026-08-16T13:50:36.764Z</time><hdop>3.0</hdop><vdop>2.5</vdop><extensions><gom:speed>1.081</gom:speed></extensions></trkpt>
   <trkpt lat="59.3048389603" lon="34.6648875471"><ele>168.263</ele><time>2026-08-16T13:50:37.480Z</time><hdop>3.0</hdop><vdop>2.5</vdop><extensions><gom:speed>1.067</gom:speed></extensions></trkpt>
   <trkpt lat="59.3048318776" lon="34.6648831885"><ele>168.192</ele><time>2026-08-16T13:50:38.138Z</time><hdop>3.0</hdop><vdop>2.5</vdop><extensions><gom:speed>1.049</gom:speed></extensions></trkpt>
   <trkpt lat="59.304820562" lon="34.6648779918"><ele>168.465</ele><time>2026-08-16T13:50:39.138Z</time><hdop>3.0</hdop><vdop>2.5</vdop><extensions><gom:speed>1.033</gom:speed></extensions></trkpt>
   <trkpt lat="59.3048119706" lon="34.664876483"><ele>168.628</ele><time>2026-08-16T13:50:39.964Z</time><hdop>3.0</hdop><vdop>2.5</vdop><extensions><gom:speed>0.969</gom:speed></extensions></trkpt>
   <trkpt lat="59.3048050974" lon="34.664879752"><ele>168.466</ele><time>2026-08-16T13:50:40.621Z</time><hdop>3.0</hdop><vdop>2.5</vdop><extensions><gom:speed>0.977</gom:speed></extensions></trkpt>
   <trkpt lat="59.3048003616" lon="34.6648833562"><ele>168.425</ele><time>2026-08-16T13:50:41.137Z</time><hdop>3.0</hdop><vdop>2.5</vdop><extensions><gom:speed>0.94</gom:speed></extensions></trkpt>
   <trkpt lat="59.3047933628" lon="34.6648881339"><ele>168.401</ele><time>2026-08-16T13:50:41.946Z</time><hdop>3.0</hdop><vdop>2.5</vdop><extensions><gom:speed>0.941</gom:speed></extensions></trkpt>
   <trkpt lat="59.304789088" lon="34.664887631"><ele>168.302</ele><time>2026-08-16T13:50:42.447Z</time><hdop>3.0</hdop><vdop>2.5</vdop><extensions><gom:speed>0.934</gom:speed></extensions></trkpt>
   <trkpt lat="59.3047829692" lon="34.6648844458"><ele>168.39</ele><time>2026-08-16T13:50:43.138Z</time><hdop>3.0</hdop><vdop>2.5</vdop><extensions><gom:speed>0.936</gom:speed></extensions></trkpt>
   <trkpt lat="59.3047757608" lon="34.664880674"><ele>168.442</ele><time>2026-08-16T13:50:43.900Z</time><hdop>3.0</hdop><vdop>2.5</vdop><extensions><gom:speed>0.948</gom:speed></extensions></trkpt>
   <trkpt lat="59.3047713603" lon="34.6648767345"><ele>168.607</ele><time>2026-08-16T13:50:44.381Z</time><hdop>3.0</hdop><vdop>2.5</vdop><extensions><gom:speed>0.972</gom:speed></extensions></trkpt>
   <trkpt lat="59.3047644871" lon="34.6648698613"><ele>168.905</ele><time>2026-08-16T13:50:45.138Z</time><hdop>3.0</hdop><vdop>2.5</vdop><extensions><gom:speed>1.011</gom:speed></extensions></trkpt>
   <trkpt lat="59.304756189" lon="34.6648619823"><ele>169.083</ele><time>2026-08-16T13:50:45.980Z</time><hdop>3.0</hdop><vdop>2.5</vdop><extensions><gom:speed>1.058</gom:speed></extensions></trkpt>
   <trkpt lat="59.3047512856" lon="34.6648600545"><ele>169.306</ele><time>2026-08-16T13:50:46.540Z</time><hdop>3.0</hdop><vdop>2.5</vdop><extensions><gom:speed>1.036</gom:speed></extensions></trkpt>
   <trkpt lat="59.3047460888" lon="34.6648603898"><ele>169.392</ele><time>2026-08-16T13:50:47.138Z</time><hdop>3.0</hdop><vdop>2.5</vdop><extensions><gom:speed>1.07</gom:speed></extensions></trkpt>
   <trkpt lat="59.3047384613" lon="34.6648640778"><ele>169.443</ele><time>2026-08-16T13:50:47.904Z</time><hdop>3.0</hdop><vdop>2.5</vdop><extensions><gom:speed>1.076</gom:speed></extensions></trkpt>
   <trkpt lat="59.3047315881" lon="34.6648715377"><ele>169.448</ele><time>2026-08-16T13:50:48.680Z</time><hdop>3.0</hdop><vdop>2.5</vdop><extensions><gom:speed>1.076</gom:speed></extensions></trkpt>
   <trkpt lat="59.3047285706" lon="34.6648754772"><ele>169.527</ele><time>2026-08-16T13:50:49.138Z</time><hdop>3.0</hdop><vdop>2.5</vdop><extensions><gom:speed>1.068</gom:speed></extensions></trkpt>
   <trkpt lat="59.3047206917" lon="34.6648803387"><ele>169.574</ele><time>2026-08-16T13:50:50.005Z</time><hdop>3.0</hdop><vdop>2.5</vdop><extensions><gom:speed>1.058</gom:speed></extensions></trkpt>
   <trkpt lat="59.3047130641" lon="34.6648772374"><ele>170.039</ele><time>2026-08-16T13:50:51.138Z</time><hdop>3.0</hdop><vdop>2.5</vdop><extensions><gom:speed>0.992</gom:speed></extensions></trkpt>
   <trkpt lat="59.3047073644" lon="34.6648728788"><ele>170.317</ele><time>2026-08-16T13:50:51.821Z</time><hdop>3.0</hdop><vdop>2.5</vdop><extensions><gom:speed>0.987</gom:speed></extensions></trkpt>
   <trkpt lat="59.3047020838" lon="34.6648649998"><ele>170.369</ele><time>2026-08-16T13:50:52.625Z</time><hdop>3.0</hdop><vdop>2.5</vdop><extensions><gom:speed>1.003</gom:speed></extensions></trkpt>
   <trkpt lat="59.3046979767" lon="34.6648610603"><ele>170.4</ele><time>2026-08-16T13:50:53.087Z</time><hdop>3.0</hdop><vdop>2.5</vdop><extensions><gom:speed>0.999</gom:speed></extensions></trkpt>
   <trkpt lat="59.3046912712" lon="34.6648549415"><ele>170.307</ele><time>2026-08-16T13:50:53.921Z</time><hdop>3.0</hdop><vdop>2.5</vdop><extensions><gom:speed>0.998</gom:speed></extensions></trkpt>
   <trkpt lat="59.3046882956" lon="34.6648505829"><ele>170.402</ele><time>2026-08-16T13:50:54.382Z</time><hdop>3.0</hdop><vdop>2.5</vdop><extensions><gom:speed>0.975</gom:speed></extensions></trkpt>
   <trkpt lat="59.3046830988" lon="34.6648444641"><ele>170.438</ele><time>2026-08-16T13:50:55.138Z</time><hdop>3.0</hdop><vdop>2.5</vdop><extensions><gom:speed>0.927</gom:speed></extensions></trkpt>
   <trkpt lat="59.3046774829" lon="34.6648363337"><ele>170.459</ele><time>2026-08-16T13:50:55.923Z</time><hdop>3.0</hdop><vdop>2.5</vdop><extensions><gom:speed>0.917</gom:speed></extensions></trkpt>
   <trkpt lat="59.3046712803" lon="34.6648293767"><ele>170.548</ele><time>2026-08-16T13:50:56.826Z</time><hdop>3.0</hdop><vdop>2.5</vdop><extensions><gom:speed>0.893</gom:speed></extensions></trkpt>
   <trkpt lat="59.304666796" lon="34.6648271974"><ele>170.325</ele><time>2026-08-16T13:50:57.425Z</time><hdop>3.0</hdop><vdop>2.5</vdop><extensions><gom:speed>0.905</gom:speed></extensions></trkpt>
   <trkpt lat="59.3046620602" lon="34.664824599"><ele>170.016</ele><time>2026-08-16T13:50:58.138Z</time><hdop>3.0</hdop><vdop>2.5</vdop><extensions><gom:speed>0.885</gom:speed></extensions></trkpt>
   <trkpt lat="59.3046572826" lon="34.6648221683"><ele>169.831</ele><time>2026-08-16T13:50:58.760Z</time><hdop>3.0</hdop><vdop>2.5</vdop><extensions><gom:speed>0.883</gom:speed></extensions></trkpt>
   <trkpt lat="59.3046508704" lon="34.6648159657"><ele>169.852</ele><time>2026-08-16T13:50:59.624Z</time><hdop>3.0</hdop><vdop>2.5</vdop><extensions><gom:speed>0.901</gom:speed></extensions></trkpt>
   <trkpt lat="59.3046484816" lon="34.6648116909"><ele>169.965</ele><time>2026-08-16T13:51:00.138Z</time><hdop>3.0</hdop><vdop>2.5</vdop><extensions><gom:speed>0.87</gom:speed></extensions></trkpt>
   <trkpt lat="59.3046450869" lon="34.6648008783"><ele>170.136</ele><time>2026-08-16T13:51:01.138Z</time><hdop>3.0</hdop><vdop>2.5</vdop><extensions><gom:speed>0.865</gom:speed></extensions></trkpt>
   <trkpt lat="59.3046413989" lon="34.6647856232"><ele>170.238</ele><time>2026-08-16T13:51:02.127Z</time><hdop>3.0</hdop><vdop>2.5</vdop><extensions><gom:speed>0.902</gom:speed></extensions></trkpt>
   <trkpt lat="59.304640393" lon="34.664775062"><ele>169.871</ele><time>2026-08-16T13:51:02.922Z</time><hdop>3.0</hdop><vdop>2.5</vdop><extensions><gom:speed>0.838</gom:speed></extensions></trkpt>
   <trkpt lat="59.3046379623" lon="34.6647660934"><ele>169.659</ele><time>2026-08-16T13:51:03.746Z</time><hdop>3.0</hdop><vdop>2.5</vdop><extensions><gom:speed>0.837</gom:speed></extensions></trkpt>
   <trkpt lat="59.3046349867" lon="34.6647609804"><ele>169.69</ele><time>2026-08-16T13:51:04.482Z</time><hdop>3.0</hdop><vdop>2.5</vdop><extensions><gom:speed>0.856</gom:speed></extensions></trkpt>
   <trkpt lat="59.3046314663" lon="34.664758382"><ele>169.257</ele><time>2026-08-16T13:51:05.138Z</time><hdop>3.0</hdop><vdop>2.5</vdop><extensions><gom:speed>0.831</gom:speed></extensions></trkpt>
   <trkpt lat="59.3046257666" lon="34.6647548616"><ele>168.998</ele><time>2026-08-16T13:51:05.945Z</time><hdop>3.0</hdop><vdop>2.5</vdop><extensions><gom:speed>0.831</gom:speed></extensions></trkpt>
   <trkpt lat="59.3046213661" lon="34.6647580467"><ele>168.378</ele><time>2026-08-16T13:51:06.700Z</time><hdop>3.0</hdop><vdop>2.5</vdop><extensions><gom:speed>0.787</gom:speed></extensions></trkpt>
   <trkpt lat="59.304616798" lon="34.6647597231"><ele>168.091</ele><time>2026-08-16T13:51:07.466Z</time><hdop>3.0</hdop><vdop>2.5</vdop><extensions><gom:speed>0.741</gom:speed></extensions></trkpt>
   <trkpt lat="59.3046131938" lon="34.6647570409"><ele>167.88</ele><time>2026-08-16T13:51:08.138Z</time><hdop>3.0</hdop><vdop>2.5</vdop><extensions><gom:speed>0.735</gom:speed></extensions></trkpt>
   <trkpt lat="59.3046109725" lon="34.6647519279"><ele>167.753</ele><time>2026-08-16T13:51:08.664Z</time><hdop>3.0</hdop><vdop>2.5</vdop><extensions><gom:speed>0.747</gom:speed></extensions></trkpt>
   <trkpt lat="59.3046085837" lon="34.6647480723"><ele>167.517</ele><time>2026-08-16T13:51:09.138Z</time><hdop>3.0</hdop><vdop>2.5</vdop><extensions><gom:speed>0.75</gom:speed></extensions></trkpt>
   <trkpt lat="59.3046057758" lon="34.664744468"><ele>167.375</ele><time>2026-08-16T13:51:09.645Z</time><hdop>3.0</hdop><vdop>2.5</vdop><extensions><gom:speed>0.737</gom:speed></extensions></trkpt>
   <trkpt lat="59.3046023811" lon="34.6647432946"><ele>167.127</ele><time>2026-08-16T13:51:10.138Z</time><hdop>3.0</hdop><vdop>2.5</vdop><extensions><gom:speed>0.758</gom:speed></extensions></trkpt>
   <trkpt lat="59.3045964719" lon="34.6647394389"><ele>166.978</ele><time>2026-08-16T13:51:10.960Z</time><hdop>3.0</hdop><vdop>2.5</vdop><extensions><gom:speed>0.769</gom:speed></extensions></trkpt>
   <trkpt lat="59.3045919875" lon="34.6647322305"><ele>166.89</ele><time>2026-08-16T13:51:11.687Z</time><hdop>3.0</hdop><vdop>2.5</vdop><extensions><gom:speed>0.776</gom:speed></extensions></trkpt>
   <trkpt lat="59.3045909817" lon="34.6647249382"><ele>166.81</ele><time>2026-08-16T13:51:12.138Z</time><hdop>3.0</hdop><vdop>2.5</vdop><extensions><gom:speed>0.887</gom:speed></extensions></trkpt>
   <trkpt lat="59.3045910655" lon="34.6647078391"><ele>166.795</ele><time>2026-08-16T13:51:13.138Z</time><hdop>3.0</hdop><vdop>2.5</vdop><extensions><gom:speed>0.878</gom:speed></extensions></trkpt>
   <trkpt lat="59.3045874613" lon="34.6646934223"><ele>166.715</ele><time>2026-08-16T13:51:14.138Z</time><hdop>3.0</hdop><vdop>2.5</vdop><extensions><gom:speed>0.844</gom:speed></extensions></trkpt>
   <trkpt lat="59.304579289" lon="34.6646862976"><ele>166.548</ele><time>2026-08-16T13:51:15.138Z</time><hdop>3.0</hdop><vdop>2.5</vdop><extensions><gom:speed>0.826</gom:speed></extensions></trkpt>
   <trkpt lat="59.3045737988" lon="34.6646837831"><ele>166.448</ele><time>2026-08-16T13:51:15.760Z</time><hdop>3.0</hdop><vdop>2.5</vdop><extensions><gom:speed>0.825</gom:speed></extensions></trkpt>
   <trkpt lat="59.3045670933" lon="34.6646836992"><ele>166.258</ele><time>2026-08-16T13:51:16.505Z</time><hdop>3.0</hdop><vdop>2.5</vdop><extensions><gom:speed>0.829</gom:speed></extensions></trkpt>
   <trkpt lat="59.3045612679" lon="34.6646852918"><ele>165.975</ele><time>2026-08-16T13:51:17.138Z</time><hdop>3.0</hdop><vdop>2.5</vdop><extensions><gom:speed>0.849</gom:speed></extensions></trkpt>
   <trkpt lat="59.3045544785" lon="34.6646855433"><ele>165.806</ele><time>2026-08-16T13:51:17.968Z</time><hdop>3.0</hdop><vdop>2.5</vdop><extensions><gom:speed>0.83</gom:speed></extensions></trkpt>
   <trkpt lat="59.3045453842" lon="34.6646821905"><ele>165.87</ele><time>2026-08-16T13:51:18.744Z</time><hdop>3.0</hdop><vdop>2.5</vdop><extensions><gom:speed>0.943</gom:speed></extensions></trkpt>
   <trkpt lat="59.304537589" lon="34.6646758203"><ele>166.044</ele><time>2026-08-16T13:51:19.382Z</time><hdop>3.0</hdop><vdop>2.5</vdop><extensions><gom:speed>0.972</gom:speed></extensions></trkpt>
   <trkpt lat="59.3045297938" lon="34.6646686956"><ele>166.403</ele><time>2026-08-16T13:51:20.138Z</time><hdop>3.0</hdop><vdop>2.5</vdop><extensions><gom:speed>0.95</gom:speed></extensions></trkpt>
   <trkpt lat="59.3045205737" lon="34.6646633312"><ele>166.618</ele><time>2026-08-16T13:51:21.080Z</time><hdop>3.0</hdop><vdop>2.5</vdop><extensions><gom:speed>0.936</gom:speed></extensions></trkpt>
   <trkpt lat="59.3045132815" lon="34.6646632474"><ele>166.58</ele><time>2026-08-16T13:51:21.638Z</time><hdop>3.0</hdop><vdop>2.5</vdop><extensions><gom:speed>0.971</gom:speed></extensions></trkpt>
   <trkpt lat="59.3045078751" lon="34.6646649238"><ele>166.482</ele><time>2026-08-16T13:51:22.138Z</time><hdop>3.0</hdop><vdop>2.5</vdop><extensions><gom:speed>0.973</gom:speed></extensions></trkpt>
   <trkpt lat="59.3045012953" lon="34.6646693662"><ele>166.423</ele><time>2026-08-16T13:51:22.808Z</time><hdop>3.0</hdop><vdop>2.5</vdop><extensions><gom:speed>0.971</gom:speed></extensions></trkpt>
   <trkpt lat="59.3044933744" lon="34.6646760717"><ele>166.314</ele><time>2026-08-16T13:51:23.760Z</time><hdop>3.0</hdop><vdop>2.5</vdop><extensions><gom:speed>0.919</gom:speed></extensions></trkpt>
   <trkpt lat="59.3044877586" lon="34.6646812685"><ele>166.193</ele><time>2026-08-16T13:51:24.349Z</time><hdop>3.0</hdop><vdop>2.5</vdop><extensions><gom:speed>0.945</gom:speed></extensions></trkpt>
   <trkpt lat="59.3044807597" lon="34.6646858785"><ele>166.121</ele><time>2026-08-16T13:51:25.104Z</time><hdop>3.0</hdop><vdop>2.5</vdop><extensions><gom:speed>0.939</gom:speed></extensions></trkpt>
   <trkpt lat="59.3044744733" lon="34.6646876387"><ele>165.981</ele><time>2026-08-16T13:51:25.644Z</time><hdop>3.0</hdop><vdop>2.5</vdop><extensions><gom:speed>0.974</gom:speed></extensions></trkpt>
   <trkpt lat="59.3044687736" lon="34.6646892313"><ele>165.99</ele><time>2026-08-16T13:51:26.138Z</time><hdop>3.0</hdop><vdop>2.5</vdop><extensions><gom:speed>0.977</gom:speed></extensions></trkpt>
   <trkpt lat="59.3044598887" lon="34.66469074"><ele>165.995</ele><time>2026-08-16T13:51:26.989Z</time><hdop>3.0</hdop><vdop>2.5</vdop><extensions><gom:speed>0.971</gom:speed></extensions></trkpt>
   <trkpt lat="59.304454189" lon="34.6646920812"><ele>165.824</ele><time>2026-08-16T13:51:27.499Z</time><hdop>3.0</hdop><vdop>2.5</vdop><extensions><gom:speed>0.978</gom:speed></extensions></trkpt>
   <trkpt lat="59.3044478607" lon="34.6646931708"><ele>165.536</ele><time>2026-08-16T13:51:28.138Z</time><hdop>3.0</hdop><vdop>2.5</vdop><extensions><gom:speed>0.962</gom:speed></extensions></trkpt>
   <trkpt lat="59.3044398979" lon="34.6646956854"><ele>165.364</ele><time>2026-08-16T13:51:28.961Z</time><hdop>3.0</hdop><vdop>2.5</vdop><extensions><gom:speed>0.956</gom:speed></extensions></trkpt>
   <trkpt lat="59.3044348688" lon="34.6646989543"><ele>164.834</ele><time>2026-08-16T13:51:29.688Z</time><hdop>3.0</hdop><vdop>2.5</vdop><extensions><gom:speed>0.887</gom:speed></extensions></trkpt>
   <trkpt lat="59.3044320608" lon="34.6647011336"><ele>164.69</ele><time>2026-08-16T13:51:30.138Z</time><hdop>3.0</hdop><vdop>2.5</vdop><extensions><gom:speed>0.903</gom:speed></extensions></trkpt>
   <trkpt lat="59.3044244752" lon="34.6647056598"><ele>164.605</ele><time>2026-08-16T13:51:31.003Z</time><hdop>3.0</hdop><vdop>2.5</vdop><extensions><gom:speed>0.936</gom:speed></extensions></trkpt>
   <trkpt lat="59.3044189851" lon="34.6647092641"><ele>164.646</ele><time>2026-08-16T13:51:31.661Z</time><hdop>3.0</hdop><vdop>2.5</vdop><extensions><gom:speed>0.96</gom:speed></extensions></trkpt>
   <trkpt lat="59.3044155904" lon="34.6647116948"><ele>164.753</ele><time>2026-08-16T13:51:32.138Z</time><hdop>3.0</hdop><vdop>2.5</vdop><extensions><gom:speed>0.999</gom:speed></extensions></trkpt>
   <trkpt lat="59.3044081724" lon="34.6647149637"><ele>164.817</ele><time>2026-08-16T13:51:32.947Z</time><hdop>3.0</hdop><vdop>2.5</vdop><extensions><gom:speed>0.986</gom:speed></extensions></trkpt>
   <trkpt lat="59.3044030594" lon="34.6647153828"><ele>164.775</ele><time>2026-08-16T13:51:33.545Z</time><hdop>3.0</hdop><vdop>2.5</vdop><extensions><gom:speed>1.035</gom:speed></extensions></trkpt>
   <trkpt lat="59.3043982818" lon="34.6647155505"><ele>164.78</ele><time>2026-08-16T13:51:34.138Z</time><hdop>3.0</hdop><vdop>2.5</vdop><extensions><gom:speed>1.037</gom:speed></extensions></trkpt>
   <trkpt lat="59.3043918696" lon="34.664716221"><ele>164.783</ele><time>2026-08-16T13:51:34.801Z</time><hdop>3.0</hdop><vdop>2.5</vdop><extensions><gom:speed>1.045</gom:speed></extensions></trkpt>
   <trkpt lat="59.3043858765" lon="34.6647157181"><ele>164.889</ele><time>2026-08-16T13:51:35.587Z</time><hdop>3.0</hdop><vdop>2.5</vdop><extensions><gom:speed>1.057</gom:speed></extensions></trkpt>
   <trkpt lat="59.3043810989" lon="34.6647147961"><ele>164.953</ele><time>2026-08-16T13:51:36.068Z</time><hdop>3.0</hdop><vdop>2.5</vdop><extensions><gom:speed>1.078</gom:speed></extensions></trkpt>
   <trkpt lat="59.3043736809" lon="34.6647114433"><ele>164.848</ele><time>2026-08-16T13:51:37.138Z</time><hdop>3.0</hdop><vdop>2.5</vdop><extensions><gom:speed>1.051</gom:speed></extensions></trkpt>
   <trkpt lat="59.30436576" lon="34.664712533"><ele>164.713</ele><time>2026-08-16T13:51:38.138Z</time><hdop>3.0</hdop><vdop>2.5</vdop><extensions><gom:speed>1.002</gom:speed></extensions></trkpt>
   <trkpt lat="59.3043581743" lon="34.6647122815"><ele>164.632</ele><time>2026-08-16T13:51:38.983Z</time><hdop>3.0</hdop><vdop>2.5</vdop><extensions><gom:speed>1.025</gom:speed></extensions></trkpt>
   <trkpt lat="59.3043514688" lon="34.6647044864"><ele>164.73</ele><time>2026-08-16T13:51:40.024Z</time><hdop>3.0</hdop><vdop>2.5</vdop><extensions><gom:speed>0.971</gom:speed></extensions></trkpt>
   <trkpt lat="59.3043495829" lon="34.6646880578"><ele>164.903</ele><time>2026-08-16T13:51:41.103Z</time><hdop>3.0</hdop><vdop>2.5</vdop><extensions><gom:speed>0.872</gom:speed></extensions></trkpt>
   <trkpt lat="59.3043449728" lon="34.6646851242"><ele>164.94</ele><time>2026-08-16T13:51:42.138Z</time><hdop>3.0</hdop><vdop>2.5</vdop><extensions><gom:speed>0.877</gom:speed></extensions></trkpt>
   <trkpt lat="59.3043375968" lon="34.664683364"><ele>164.847</ele><time>2026-08-16T13:51:43.138Z</time><hdop>3.0</hdop><vdop>2.5</vdop><extensions><gom:speed>0.881</gom:speed></extensions></trkpt>
   <trkpt lat="59.3043331963" lon="34.6646799274"><ele>164.791</ele><time>2026-08-16T13:51:43.685Z</time><hdop>3.0</hdop><vdop>2.5</vdop><extensions><gom:speed>0.897</gom:speed></extensions></trkpt>
   <trkpt lat="59.3043309751" lon="34.6646758203"><ele>165.11</ele><time>2026-08-16T13:51:44.138Z</time><hdop>3.0</hdop><vdop>2.5</vdop><extensions><gom:speed>0.899</gom:speed></extensions></trkpt>
   <trkpt lat="59.30432406" lon="34.6646660973"><ele>165.3</ele><time>2026-08-16T13:51:45.049Z</time><hdop>3.0</hdop><vdop>2.5</vdop><extensions><gom:speed>0.947</gom:speed></extensions></trkpt>
   <trkpt lat="59.3043186956" lon="34.6646589726"><ele>165.416</ele><time>2026-08-16T13:51:45.923Z</time><hdop>3.0</hdop><vdop>2.5</vdop><extensions><gom:speed>0.908</gom:speed></extensions></trkpt>
   <trkpt lat="59.3043171868" lon="34.6646528538"><ele>165.263</ele><time>2026-08-16T13:51:46.580Z</time><hdop>3.0</hdop><vdop>2.5</vdop><extensions><gom:speed>0.856</gom:speed></extensions></trkpt>
   <trkpt lat="59.3043154686" lon="34.6646462321"><ele>165.172</ele><time>2026-08-16T13:51:47.042Z</time><hdop>3.0</hdop><vdop>2.5</vdop><extensions><gom:speed>0.864</gom:speed></extensions></trkpt>
   <trkpt lat="59.304315259" lon="34.6646276243"><ele>165.226</ele><time>2026-08-16T13:51:48.138Z</time><hdop>3.0</hdop><vdop>2.5</vdop><extensions><gom:speed>0.873</gom:speed></extensions></trkpt>
   <trkpt lat="59.304313876" lon="34.6646146324"><ele>165.259</ele><time>2026-08-16T13:51:48.905Z</time><hdop>3.0</hdop><vdop>2.5</vdop><extensions><gom:speed>0.878</gom:speed></extensions></trkpt>
   <trkpt lat="59.3043107747" lon="34.6645997964"><ele>165.241</ele><time>2026-08-16T13:51:49.721Z</time><hdop>3.0</hdop><vdop>2.5</vdop><extensions><gom:speed>0.936</gom:speed></extensions></trkpt>
   <trkpt lat="59.3043034824" lon="34.6645787578"><ele>165.248</ele><time>2026-08-16T13:51:51.125Z</time><hdop>3.0</hdop><vdop>2.5</vdop><extensions><gom:speed>0.976</gom:speed></extensions></trkpt>
   <trkpt lat="59.3042987886" lon="34.6645716332"><ele>164.978</ele><time>2026-08-16T13:51:51.822Z</time><hdop>3.0</hdop><vdop>2.5</vdop><extensions><gom:speed>0.982</gom:speed></extensions></trkpt>
   <trkpt lat="59.3042936756" lon="34.6645667717"><ele>164.921</ele><time>2026-08-16T13:51:52.509Z</time><hdop>3.0</hdop><vdop>2.5</vdop><extensions><gom:speed>0.967</gom:speed></extensions></trkpt>
   <trkpt lat="59.3042901971" lon="34.6645620778"><ele>164.563</ele><time>2026-08-16T13:51:53.138Z</time><hdop>3.0</hdop><vdop>2.5</vdop><extensions><gom:speed>0.937</gom:speed></extensions></trkpt>
   <trkpt lat="59.3042871796" lon="34.6645533607"><ele>164.35</ele><time>2026-08-16T13:51:53.804Z</time><hdop>3.0</hdop><vdop>2.5</vdop><extensions><gom:speed>0.938</gom:speed></extensions></trkpt>
   <trkpt lat="59.3042858804" lon="34.6645410393"><ele>164.329</ele><time>2026-08-16T13:51:54.599Z</time><hdop>3.0</hdop><vdop>2.5</vdop><extensions><gom:speed>0.916</gom:speed></extensions></trkpt>
   <trkpt lat="59.3042843717" lon="34.6645344176"><ele>164.462</ele><time>2026-08-16T13:51:55.138Z</time><hdop>3.0</hdop><vdop>2.5</vdop><extensions><gom:speed>0.904</gom:speed></extensions></trkpt>
   <trkpt lat="59.3042812704" lon="34.6645210903"><ele>164.542</ele><time>2026-08-16T13:51:56.023Z</time><hdop>3.0</hdop><vdop>2.5</vdop><extensions><gom:speed>0.919</gom:speed></extensions></trkpt>
   <trkpt lat="59.3042820667" lon="34.6645206712"><ele>164.447</ele><time>2026-08-16T13:51:56.503Z</time><hdop>3.0</hdop><vdop>2.5</vdop><extensions><gom:speed>0.729</gom:speed></extensions></trkpt>
   <trkpt lat="59.3042902809" lon="34.664507344"><ele>164.454</ele><time>2026-08-16T13:51:57.138Z</time><hdop>3.0</hdop><vdop>2.5</vdop><extensions><gom:speed>1.319</gom:speed></extensions></trkpt>
   <trkpt lat="59.3043014708" lon="34.6644893229"><ele>164.458</ele><time>2026-08-16T13:51:58.084Z</time><hdop>3.0</hdop><vdop>2.5</vdop><extensions><gom:speed>1.214</gom:speed></extensions></trkpt>
   <trkpt lat="59.3043107747" lon="34.6644787617"><ele>164.109</ele><time>2026-08-16T13:51:58.721Z</time><hdop>3.0</hdop><vdop>2.5</vdop><extensions><gom:speed>1.162</gom:speed></extensions></trkpt>
   <trkpt lat="59.3043144627" lon="34.6644538675"><ele>163.715</ele><time>2026-08-16T13:51:59.379Z</time><hdop>3.0</hdop><vdop>2.5</vdop><extensions><gom:speed>1.233</gom:speed></extensions></trkpt>
   <trkpt lat="59.3043136664" lon="34.6644405402"><ele>163.479</ele><time>2026-08-16T13:51:59.967Z</time><hdop>3.0</hdop><vdop>2.5</vdop><extensions><gom:speed>1.125</gom:speed></extensions></trkpt>
   <trkpt lat="59.3042986628" lon="34.6644218486"><ele>162.993</ele><time>2026-08-16T13:52:00.547Z</time><hdop>3.062</hdop><vdop>2.5</vdop><extensions><gom:speed>1.221</gom:speed></extensions></trkpt>
   <trkpt lat="59.3042859643" lon="34.6644127961"><ele>162.661</ele><time>2026-08-16T13:52:01.138Z</time><hdop>3.062</hdop><vdop>2.5</vdop><extensions><gom:speed>1.026</gom:speed></extensions></trkpt>
   <trkpt lat="59.3042706673" lon="34.6644011453"><ele>162.567</ele><time>2026-08-16T13:52:02.138Z</time><hdop>3.062</hdop><vdop>2.5</vdop><extensions><gom:speed>1.038</gom:speed></extensions></trkpt>
   <trkpt lat="59.3042636684" lon="34.6643919252"><ele>162.51</ele><time>2026-08-16T13:52:02.825Z</time><hdop>3.062</hdop><vdop>2.5</vdop><extensions><gom:speed>1.032</gom:speed></extensions></trkpt>
   <trkpt lat="59.304247659" lon="34.6643903326"><ele>162.654</ele><time>2026-08-16T13:52:04.138Z</time><hdop>3.0</hdop><vdop>2.5</vdop><extensions><gom:speed>0.855</gom:speed></extensions></trkpt>
   <trkpt lat="59.3042388999" lon="34.6643861417"><ele>162.97</ele><time>2026-08-16T13:52:05.138Z</time><hdop>3.0</hdop><vdop>2.5</vdop><extensions><gom:speed>0.909</gom:speed></extensions></trkpt>
   <trkpt lat="59.3042303922" lon="34.6643796876"><ele>163.255</ele><time>2026-08-16T13:52:06.138Z</time><hdop>3.0</hdop><vdop>2.5</vdop><extensions><gom:speed>0.941</gom:speed></extensions></trkpt>
   <trkpt lat="59.3042245668" lon="34.6643689588"><ele>163.574</ele><time>2026-08-16T13:52:07.138Z</time><hdop>3.0</hdop><vdop>2.5</vdop><extensions><gom:speed>0.991</gom:speed></extensions></trkpt>
   <trkpt lat="59.3042178613" lon="34.6643578947"><ele>164.188</ele><time>2026-08-16T13:52:08.138Z</time><hdop>3.0</hdop><vdop>2.5</vdop><extensions><gom:speed>0.952</gom:speed></extensions></trkpt>
   <trkpt lat="59.30421476" lon="34.6643487584"><ele>164.555</ele><time>2026-08-16T13:52:08.802Z</time><hdop>3.0</hdop><vdop>2.5</vdop><extensions><gom:speed>0.96</gom:speed></extensions></trkpt>
   <trkpt lat="59.3042110719" lon="34.6643400412"><ele>164.974</ele><time>2026-08-16T13:52:09.509Z</time><hdop>3.0</hdop><vdop>2.5</vdop><extensions><gom:speed>0.968</gom:speed></extensions></trkpt>
   <trkpt lat="59.3042076773" lon="34.6643321622"><ele>165.233</ele><time>2026-08-16T13:52:10.138Z</time><hdop>3.0</hdop><vdop>2.5</vdop><extensions><gom:speed>0.973</gom:speed></extensions></trkpt>
   <trkpt lat="59.3042036959" lon="34.6643226907"><ele>165.388</ele><time>2026-08-16T13:52:10.804Z</time><hdop>3.0</hdop><vdop>2.5</vdop><extensions><gom:speed>0.991</gom:speed></extensions></trkpt>
   <trkpt lat="59.3041983734" lon="34.6643143926"><ele>165.825</ele><time>2026-08-16T13:52:11.521Z</time><hdop>3.0</hdop><vdop>2.5</vdop><extensions><gom:speed>1.009</gom:speed></extensions></trkpt>
   <trkpt lat="59.3041937633" lon="34.6643078547"><ele>165.819</ele><time>2026-08-16T13:52:12.138Z</time><hdop>3.0</hdop><vdop>2.5</vdop><extensions><gom:speed>1.019</gom:speed></extensions></trkpt>
   <trkpt lat="59.3041907877" lon="34.6643010654"><ele>165.816</ele><time>2026-08-16T13:52:12.620Z</time><hdop>3.0</hdop><vdop>2.5</vdop><extensions><gom:speed>1.011</gom:speed></extensions></trkpt>
   <trkpt lat="59.3041889856" lon="34.6642955333"><ele>165.209</ele><time>2026-08-16T13:52:13.138Z</time><hdop>3.0</hdop><vdop>2.5</vdop><extensions><gom:speed>0.992</gom:speed></extensions></trkpt>
   <trkpt lat="59.3041843756" lon="34.6642821223"><ele>164.846</ele><time>2026-08-16T13:52:14.063Z</time><hdop>3.0</hdop><vdop>2.5</vdop><extensions><gom:speed>1.002</gom:speed></extensions></trkpt>
   <trkpt lat="59.3041813581" lon="34.664278518"><ele>164.474</ele><time>2026-08-16T13:52:14.662Z</time><hdop>3.0</hdop><vdop>2.5</vdop><extensions><gom:speed>0.967</gom:speed></extensions></trkpt>
   <trkpt lat="59.3041787597" lon="34.6642771769"><ele>164.31</ele><time>2026-08-16T13:52:15.138Z</time><hdop>3.0</hdop><vdop>2.5</vdop><extensions><gom:speed>0.929</gom:speed></extensions></trkpt>
   <trkpt lat="59.3041721799" lon="34.6642731536"><ele>164.212</ele><time>2026-08-16T13:52:16.005Z</time><hdop>3.0</hdop><vdop>2.5</vdop><extensions><gom:speed>0.94</gom:speed></extensions></trkpt>
   <trkpt lat="59.3041671927" lon="34.6642743271"><ele>164.125</ele><time>2026-08-16T13:52:16.723Z</time><hdop>3.0</hdop><vdop>2.5</vdop><extensions><gom:speed>0.944</gom:speed></extensions></trkpt>
   <trkpt lat="59.3041639657" lon="34.6642796915"><ele>163.982</ele><time>2026-08-16T13:52:17.243Z</time><hdop>3.0</hdop><vdop>2.5</vdop><extensions><gom:speed>0.966</gom:speed></extensions></trkpt>
   <trkpt lat="59.3041564638" lon="34.6642837986"><ele>163.896</ele><time>2026-08-16T13:52:18.107Z</time><hdop>3.0</hdop><vdop>2.5</vdop><extensions><gom:speed>0.964</gom:speed></extensions></trkpt>
   <trkpt lat="59.3041527758" lon="34.6642914262"><ele>163.576</ele><time>2026-08-16T13:52:18.686Z</time><hdop>3.0</hdop><vdop>2.5</vdop><extensions><gom:speed>0.931</gom:speed></extensions></trkpt>
   <trkpt lat="59.304149465" lon="34.6642976288"><ele>163.42</ele><time>2026-08-16T13:52:19.138Z</time><hdop>3.0</hdop><vdop>2.5</vdop><extensions><gom:speed>0.963</gom:speed></extensions></trkpt>
   <trkpt lat="59.3041423822" lon="34.6643019874"><ele>163.327</ele><time>2026-08-16T13:52:19.923Z</time><hdop>3.0</hdop><vdop>2.5</vdop><extensions><gom:speed>0.97</gom:speed></extensions></trkpt>
   <trkpt lat="59.3041342937" lon="34.6643090282"><ele>163.175</ele><time>2026-08-16T13:52:20.845Z</time><hdop>3.0</hdop><vdop>2.5</vdop><extensions><gom:speed>0.992</gom:speed></extensions></trkpt>
   <trkpt lat="59.304129977" lon="34.6643157337"><ele>163.15</ele><time>2026-08-16T13:52:21.307Z</time><hdop>3.0</hdop><vdop>2.5</vdop><extensions><gom:speed>1.027</gom:speed></extensions></trkpt>
   <trkpt lat="59.304122559" lon="34.6643210981"><ele>163.286</ele><time>2026-08-16T13:52:22.138Z</time><hdop>3.0</hdop><vdop>2.5</vdop><extensions><gom:speed>1.019</gom:speed></extensions></trkpt>
   <trkpt lat="59.3041140933" lon="34.6643233612"><ele>163.202</ele><time>2026-08-16T13:52:23.138Z</time><hdop>3.0</hdop><vdop>2.5</vdop><extensions><gom:speed>1.004</gom:speed></extensions></trkpt>
   <trkpt lat="59.3041080584" lon="34.664320679"><ele>163.152</ele><time>2026-08-16T13:52:23.800Z</time><hdop>3.0</hdop><vdop>2.5</vdop><extensions><gom:speed>1.006</gom:speed></extensions></trkpt>
   <trkpt lat="59.3041023587" lon="34.6643207628"><ele>163.091</ele><time>2026-08-16T13:52:24.546Z</time><hdop>3.0</hdop><vdop>2.5</vdop><extensions><gom:speed>0.96</gom:speed></extensions></trkpt>
   <trkpt lat="59.3040974972" lon="34.6643201761"><ele>163.054</ele><time>2026-08-16T13:52:25.027Z</time><hdop>3.0</hdop><vdop>2.5</vdop><extensions><gom:speed>1.012</gom:speed></extensions></trkpt>
   <trkpt lat="59.3040918813" lon="34.6643246185"><ele>162.813</ele><time>2026-08-16T13:52:25.763Z</time><hdop>3.0</hdop><vdop>2.5</vdop><extensions><gom:speed>0.975</gom:speed></extensions></trkpt>
   <trkpt lat="59.3040876903" lon="34.6643304858"><ele>162.63</ele><time>2026-08-16T13:52:26.341Z</time><hdop>3.0</hdop><vdop>2.5</vdop><extensions><gom:speed>1.001</gom:speed></extensions></trkpt>
   <trkpt lat="59.3040804819" lon="34.6643341739"><ele>162.521</ele><time>2026-08-16T13:52:27.068Z</time><hdop>3.0</hdop><vdop>2.5</vdop><extensions><gom:speed>1.021</gom:speed></extensions></trkpt>
   <trkpt lat="59.3040756623" lon="34.6643333357"><ele>162.314</ele><time>2026-08-16T13:52:27.647Z</time><hdop>3.0</hdop><vdop>2.5</vdop><extensions><gom:speed>0.998</gom:speed></extensions></trkpt>
   <trkpt lat="59.3040727705" lon="34.664332749"><ele>162.295</ele><time>2026-08-16T13:52:28.138Z</time><hdop>3.0</hdop><vdop>2.5</vdop><extensions><gom:speed>0.957</gom:speed></extensions></trkpt>
   <trkpt lat="59.3040663584" lon="34.6643333357"><ele>162.156</ele><time>2026-08-16T13:52:29.138Z</time><hdop>3.0</hdop><vdop>2.5</vdop><extensions><gom:speed>0.916</gom:speed></extensions></trkpt>
   <trkpt lat="59.3040598624" lon="34.6643339224"><ele>162.073</ele><time>2026-08-16T13:52:29.983Z</time><hdop>3.0</hdop><vdop>2.5</vdop><extensions><gom:speed>0.907</gom:speed></extensions></trkpt>
   <trkpt lat="59.3040568868" lon="34.6643412985"><ele>162.166</ele><time>2026-08-16T13:52:31.138Z</time><hdop>3.0</hdop><vdop>2.5</vdop><extensions><gom:speed>0.584</gom:speed></extensions></trkpt>
   <trkpt lat="59.3040592757" lon="34.6643449865"><ele>162.213</ele><time>2026-08-16T13:52:32.138Z</time><hdop>3.0</hdop><vdop>2.5</vdop><extensions><gom:speed>0.313</gom:speed></extensions></trkpt>
   <trkpt lat="59.3040627961" lon="34.6643435616"><ele>162.233</ele><time>2026-08-16T13:52:33.138Z</time><hdop>3.0</hdop><vdop>2.5</vdop><extensions><gom:speed>0.143</gom:speed></extensions></trkpt>
   <trkpt lat="59.3040649754" lon="34.6643413823"><ele>162.223</ele><time>2026-08-16T13:52:34.138Z</time><hdop>3.0</hdop><vdop>2.5</vdop><extensions><gom:speed>0.056</gom:speed></extensions></trkpt>
   <trkpt lat="59.3040663584" lon="34.6643394545"><ele>162.218</ele><time>2026-08-16T13:52:35.138Z</time><hdop>3.0</hdop><vdop>2.5</vdop><extensions><gom:speed>0.039</gom:speed></extensions></trkpt>
   <trkpt lat="59.3040663584" lon="34.6643389516"><ele>162.137</ele><time>2026-08-16T13:52:36.138Z</time><hdop>3.0</hdop><vdop>2.5</vdop><extensions><gom:speed>0.095</gom:speed></extensions></trkpt>
   <trkpt lat="59.3040665679" lon="34.6643395383"><ele>162.089</ele><time>2026-08-16T13:52:37.129Z</time><hdop>3.0</hdop><vdop>2.5</vdop><extensions><gom:speed>0.054</gom:speed></extensions></trkpt>
   <trkpt lat="59.3040659812" lon="34.6643411309"><ele>161.915</ele><time>2026-08-16T13:52:37.639Z</time><hdop>3.0</hdop><vdop>2.5</vdop><extensions><gom:speed>0.152</gom:speed></extensions></trkpt>
   <trkpt lat="59.3040652687" lon="34.6643422205"><ele>161.716</ele><time>2026-08-16T13:52:38.137Z</time><hdop>3.0</hdop><vdop>2.5</vdop><extensions><gom:speed>0.067</gom:speed></extensions></trkpt>
   <trkpt lat="59.3040649754" lon="34.6643432263"><ele>161.597</ele><time>2026-08-16T13:52:38.925Z</time><hdop>3.0</hdop><vdop>2.5</vdop><extensions><gom:speed>0.145</gom:speed></extensions></trkpt>
   <trkpt lat="59.3040650592" lon="34.6643494289"><ele>161.539</ele><time>2026-08-16T13:52:40.138Z</time><hdop>3.0</hdop><vdop>2.5</vdop><extensions><gom:speed>0.256</gom:speed></extensions></trkpt>
   <trkpt lat="59.3040645982" lon="34.6643604931"><ele>161.543</ele><time>2026-08-16T13:52:41.138Z</time><hdop>3.0</hdop><vdop>2.5</vdop><extensions><gom:speed>0.252</gom:speed></extensions></trkpt>
   <trkpt lat="59.3040644725" lon="34.6643650193"><ele>161.545</ele><time>2026-08-16T13:52:41.742Z</time><hdop>3.0</hdop><vdop>2.5</vdop><extensions><gom:speed>0.281</gom:speed></extensions></trkpt>
   <trkpt lat="59.3040636762" lon="34.664375329"><ele>161.558</ele><time>2026-08-16T13:52:42.586Z</time><hdop>3.0</hdop><vdop>2.5</vdop><extensions><gom:speed>0.357</gom:speed></extensions></trkpt>
   <trkpt lat="59.3040629637" lon="34.6643831242"><ele>161.45</ele><time>2026-08-16T13:52:43.138Z</time><hdop>3.0</hdop><vdop>2.5</vdop><extensions><gom:speed>0.563</gom:speed></extensions></trkpt>
   <trkpt lat="59.3040631733" lon="34.6643957809"><ele>161.385</ele><time>2026-08-16T13:52:44.049Z</time><hdop>3.0</hdop><vdop>2.5</vdop><extensions><gom:speed>0.59</gom:speed></extensions></trkpt>
   <trkpt lat="59.3040614969" lon="34.6644102816"><ele>161.222</ele><time>2026-08-16T13:52:45.019Z</time><hdop>3.0</hdop><vdop>2.5</vdop><extensions><gom:speed>0.706</gom:speed></extensions></trkpt>
   <trkpt lat="59.3040578927" lon="34.6644401211"><ele>160.869</ele><time>2026-08-16T13:52:46.138Z</time><hdop>3.0</hdop><vdop>2.5</vdop><extensions><gom:speed>0.92</gom:speed></extensions></trkpt>
   <trkpt lat="59.3040561744" lon="34.6644529455"><ele>160.658</ele><time>2026-08-16T13:52:46.826Z</time><hdop>3.0</hdop><vdop>2.5</vdop><extensions><gom:speed>0.918</gom:speed></extensions></trkpt>
   <trkpt lat="59.3040531988" lon="34.6644582261"><ele>160.534</ele><time>2026-08-16T13:52:47.700Z</time><hdop>3.0</hdop><vdop>2.5</vdop><extensions><gom:speed>0.817</gom:speed></extensions></trkpt>
   <trkpt lat="59.3040501813" lon="34.6644626685"><ele>160.617</ele><time>2026-08-16T13:52:48.987Z</time><hdop>3.0</hdop><vdop>2.5</vdop><extensions><gom:speed>0.656</gom:speed></extensions></trkpt>
   <trkpt lat="59.3040464933" lon="34.6644485869"><ele>160.645</ele><time>2026-08-16T13:52:50.138Z</time><hdop>3.0</hdop><vdop>2.5</vdop><extensions><gom:speed>0.377</gom:speed></extensions></trkpt>
   <trkpt lat="59.304043392" lon="34.664437858"><ele>160.631</ele><time>2026-08-16T13:52:51.138Z</time><hdop>3.0</hdop><vdop>2.5</vdop><extensions><gom:speed>0.335</gom:speed></extensions></trkpt>
   <trkpt lat="59.3040402907" lon="34.6644307334"><ele>160.674</ele><time>2026-08-16T13:52:52.138Z</time><hdop>3.0</hdop><vdop>2.5</vdop><extensions><gom:speed>0.374</gom:speed></extensions></trkpt>
   <trkpt lat="59.3040370636" lon="34.6644305658"><ele>160.529</ele><time>2026-08-16T13:52:53.138Z</time><hdop>3.0</hdop><vdop>2.5</vdop><extensions><gom:speed>0.441</gom:speed></extensions></trkpt>
   <trkpt lat="59.3040350939" lon="34.66443417"><ele>160.443</ele><time>2026-08-16T13:52:53.905Z</time><hdop>3.0</hdop><vdop>2.5</vdop><extensions><gom:speed>0.456</gom:speed></extensions></trkpt>
   <trkpt lat="59.304029478" lon="34.6644379418"><ele>160.423</ele><time>2026-08-16T13:52:54.983Z</time><hdop>3.0</hdop><vdop>2.5</vdop><extensions><gom:speed>0.554</gom:speed></extensions></trkpt>
   <trkpt lat="59.3040167794" lon="34.6644459885"><ele>160.78</ele><time>2026-08-16T13:52:55.907Z</time><hdop>3.0</hdop><vdop>2.5</vdop><extensions><gom:speed>0.894</gom:speed></extensions></trkpt>
   <trkpt lat="59.3040117922" lon="34.6644487545"><ele>161.424</ele><time>2026-08-16T13:52:56.623Z</time><hdop>3.0</hdop><vdop>2.5</vdop><extensions><gom:speed>0.787</gom:speed></extensions></trkpt>
   <trkpt lat="59.3040087747" lon="34.664452694"><ele>162.16</ele><time>2026-08-16T13:52:57.138Z</time><hdop>3.0</hdop><vdop>2.5</vdop><extensions><gom:speed>0.926</gom:speed></extensions></trkpt>
   <trkpt lat="59.3040035779" lon="34.6644621655"><ele>162.687</ele><time>2026-08-16T13:52:58.138Z</time><hdop>3.0</hdop><vdop>2.5</vdop><extensions><gom:speed>0.757</gom:speed></extensions></trkpt>
   <trkpt lat="59.3039980878" lon="34.6644626685"><ele>161.768</ele><time>2026-08-16T13:52:59.138Z</time><hdop>3.0</hdop><vdop>2.5</vdop><extensions><gom:speed>0.757</gom:speed></extensions></trkpt>
   <trkpt lat="59.3039943997" lon="34.6644577231"><ele>161.218</ele><time>2026-08-16T13:52:59.726Z</time><hdop>3.0</hdop><vdop>2.5</vdop><extensions><gom:speed>0.767</gom:speed></extensions></trkpt>
   <trkpt lat="59.303987359" lon="34.6644479163"><ele>161.144</ele><time>2026-08-16T13:53:01.042Z</time><hdop>3.0</hdop><vdop>2.5</vdop><extensions><gom:speed>0.714</gom:speed></extensions></trkpt>
   <trkpt lat="59.3039818688" lon="34.6644409593"><ele>160.928</ele><time>2026-08-16T13:53:01.886Z</time><hdop>3.0</hdop><vdop>2.5</vdop><extensions><gom:speed>0.757</gom:speed></extensions></trkpt>
   <trkpt lat="59.3039781808" lon="34.6644352596"><ele>160.781</ele><time>2026-08-16T13:53:02.367Z</time><hdop>3.0</hdop><vdop>2.5</vdop><extensions><gom:speed>0.829</gom:speed></extensions></trkpt>
   <trkpt lat="59.3039731935" lon="34.6644266263"><ele>160.786</ele><time>2026-08-16T13:53:03.138Z</time><hdop>3.0</hdop><vdop>2.5</vdop><extensions><gom:speed>0.833</gom:speed></extensions></trkpt>
   <trkpt lat="59.3039698827" lon="34.6644197531"><ele>160.789</ele><time>2026-08-16T13:53:03.701Z</time><hdop>3.0</hdop><vdop>2.5</vdop><extensions><gom:speed>0.829</gom:speed></extensions></trkpt>
   <trkpt lat="59.3039639734" lon="34.6644065935"><ele>160.696</ele><time>2026-08-16T13:53:04.663Z</time><hdop>3.0</hdop><vdop>2.5</vdop><extensions><gom:speed>0.867</gom:speed></extensions></trkpt>
   <trkpt lat="59.3039593634" lon="34.6643858902"><ele>159.194</ele><time>2026-08-16T13:53:05.138Z</time><hdop>3.0</hdop><vdop>2.5</vdop><extensions><gom:speed>0.935</gom:speed></extensions></trkpt>
   <trkpt lat="59.3039514844" lon="34.6643528655"><ele>158.198</ele><time>2026-08-16T13:53:06.138Z</time><hdop>3.0</hdop><vdop>2.5</vdop><extensions><gom:speed>0.927</gom:speed></extensions></trkpt>
   <trkpt lat="59.303946581" lon="34.6643368561"><ele>157.602</ele><time>2026-08-16T13:53:06.823Z</time><hdop>3.0</hdop><vdop>2.5</vdop><extensions><gom:speed>0.924</gom:speed></extensions></trkpt>
   <trkpt lat="59.30393778" lon="34.6643191703"><ele>157.28</ele><time>2026-08-16T13:53:07.686Z</time><hdop>3.0</hdop><vdop>2.5</vdop><extensions><gom:speed>0.857</gom:speed></extensions></trkpt>
   <trkpt lat="59.3039316612" lon="34.6643114589"><ele>156.972</ele><time>2026-08-16T13:53:08.138Z</time><hdop>3.0</hdop><vdop>2.5</vdop><extensions><gom:speed>0.853</gom:speed></extensions></trkpt>
   <trkpt lat="59.3039197589" lon="34.6643002272"><ele>156.832</ele><time>2026-08-16T13:53:09.138Z</time><hdop>3.0</hdop><vdop>2.5</vdop><extensions><gom:speed>0.911</gom:speed></extensions></trkpt>
   <trkpt lat="59.3039079823" lon="34.6642944437"><ele>156.78</ele><time>2026-08-16T13:53:10.138Z</time><hdop>3.0</hdop><vdop>2.5</vdop><extensions><gom:speed>0.917</gom:speed></extensions></trkpt>
   <trkpt lat="59.303900271" lon="34.6642886602"><ele>156.749</ele><time>2026-08-16T13:53:11.004Z</time><hdop>3.0</hdop><vdop>2.5</vdop><extensions><gom:speed>0.839</gom:speed></extensions></trkpt>
   <trkpt lat="59.3038921824" lon="34.6642861456"><ele>156.681</ele><time>2026-08-16T13:53:11.848Z</time><hdop>3.0</hdop><vdop>2.5</vdop><extensions><gom:speed>0.848</gom:speed></extensions></trkpt>
   <trkpt lat="59.3038867761" lon="34.664287319"><ele>156.693</ele><time>2026-08-16T13:53:12.388Z</time><hdop>3.0</hdop><vdop>2.5</vdop><extensions><gom:speed>0.833</gom:speed></extensions></trkpt>
   <trkpt lat="59.3038807831" lon="34.6642852236"><ele>156.625</ele><time>2026-08-16T13:53:13.138Z</time><hdop>3.0</hdop><vdop>2.5</vdop><extensions><gom:speed>0.838</gom:speed></extensions></trkpt>
   <trkpt lat="59.3038762987" lon="34.6642812841"><ele>156.585</ele><time>2026-08-16T13:53:13.762Z</time><hdop>3.0</hdop><vdop>2.5</vdop><extensions><gom:speed>0.834</gom:speed></extensions></trkpt>
   <trkpt lat="59.3038691741" lon="34.6642763388"><ele>156.584</ele><time>2026-08-16T13:53:14.685Z</time><hdop>3.0</hdop><vdop>2.5</vdop><extensions><gom:speed>0.84</gom:speed></extensions></trkpt>
   <trkpt lat="59.3038651927" lon="34.6642762549"><ele>156.514</ele><time>2026-08-16T13:53:15.138Z</time><hdop>3.0</hdop><vdop>2.5</vdop><extensions><gom:speed>0.833</gom:speed></extensions></trkpt>
   <trkpt lat="59.3038582776" lon="34.6642719802"><ele>156.458</ele><time>2026-08-16T13:53:16.138Z</time><hdop>3.0</hdop><vdop>2.5</vdop><extensions><gom:speed>0.782</gom:speed></extensions></trkpt>
   <trkpt lat="59.3038521589" lon="34.6642636821"><ele>156.425</ele><time>2026-08-16T13:53:17.129Z</time><hdop>3.0</hdop><vdop>2.5</vdop><extensions><gom:speed>0.799</gom:speed></extensions></trkpt>
   <trkpt lat="59.3038447828" lon="34.6642620895"><ele>156.588</ele><time>2026-08-16T13:53:18.042Z</time><hdop>3.0</hdop><vdop>2.5</vdop><extensions><gom:speed>0.78</gom:speed></extensions></trkpt>
   <trkpt lat="59.3038370714" lon="34.6642652746"><ele>156.9</ele><time>2026-08-16T13:53:18.680Z</time><hdop>3.0</hdop><vdop>2.5</vdop><extensions><gom:speed>0.818</gom:speed></extensions></trkpt>
   <trkpt lat="59.3038310784" lon="34.6642671187"><ele>157.121</ele><time>2026-08-16T13:53:19.138Z</time><hdop>3.0</hdop><vdop>2.5</vdop><extensions><gom:speed>0.936</gom:speed></extensions></trkpt>
   <trkpt lat="59.3038218583" lon="34.6642649394"><ele>157.253</ele><time>2026-08-16T13:53:20.005Z</time><hdop>3.0</hdop><vdop>2.5</vdop><extensions><gom:speed>0.933</gom:speed></extensions></trkpt>
   <trkpt lat="59.3038123867" lon="34.6642713934"><ele>157.416</ele><time>2026-08-16T13:53:20.819Z</time><hdop>3.0</hdop><vdop>2.5</vdop><extensions><gom:speed>0.935</gom:speed></extensions></trkpt>
   <trkpt lat="59.3038040886" lon="34.6642782666"><ele>157.482</ele><time>2026-08-16T13:53:21.742Z</time><hdop>3.0</hdop><vdop>2.5</vdop><extensions><gom:speed>0.841</gom:speed></extensions></trkpt>
   <trkpt lat="59.303802077" lon="34.6642796915"><ele>157.497</ele><time>2026-08-16T13:53:22.223Z</time><hdop>3.0</hdop><vdop>2.5</vdop><extensions><gom:speed>0.687</gom:speed></extensions></trkpt>
   <trkpt lat="59.3037982632" lon="34.6642802782"><ele>157.703</ele><time>2026-08-16T13:53:23.138Z</time><hdop>3.0</hdop><vdop>2.5</vdop><extensions><gom:speed>0.566</gom:speed></extensions></trkpt>
   <trkpt lat="59.3037954972" lon="34.6642822899"><ele>158.054</ele><time>2026-08-16T13:53:24.138Z</time><hdop>3.0</hdop><vdop>2.5</vdop><extensions><gom:speed>0.426</gom:speed></extensions></trkpt>
   <trkpt lat="59.303794659" lon="34.6642859779"><ele>158.264</ele><time>2026-08-16T13:53:25.138Z</time><hdop>3.0</hdop><vdop>2.5</vdop><extensions><gom:speed>0.228</gom:speed></extensions></trkpt>
   <trkpt lat="59.3037942818" lon="34.6642860618"><ele>158.38</ele><time>2026-08-16T13:53:26.138Z</time><hdop>3.0</hdop><vdop>2.5</vdop><extensions><gom:speed>0.108</gom:speed></extensions></trkpt>
   <trkpt lat="59.3037943656" lon="34.6642848883"><ele>158.47</ele><time>2026-08-16T13:53:27.137Z</time><hdop>3.0</hdop><vdop>2.5</vdop><extensions><gom:speed>0.099</gom:speed></extensions></trkpt>
   <trkpt lat="59.303794198" lon="34.6642837986"><ele>158.558</ele><time>2026-08-16T13:53:28.138Z</time><hdop>3.0</hdop><vdop>2.5</vdop><extensions><gom:speed>0.041</gom:speed></extensions></trkpt>
   <trkpt lat="59.3037938627" lon="34.6642829605"><ele>158.635</ele><time>2026-08-16T13:53:29.138Z</time><hdop>3.0</hdop><vdop>2.5</vdop><extensions><gom:speed>0.021</gom:speed></extensions></trkpt>
   <trkpt lat="59.3037935693" lon="34.6642823737"><ele>158.631</ele><time>2026-08-16T13:53:30.138Z</time><hdop>3.0</hdop><vdop>2.5</vdop><extensions><gom:speed>0.039</gom:speed></extensions></trkpt>
   <trkpt lat="59.3037934855" lon="34.6642825414"><ele>158.611</ele><time>2026-08-16T13:53:31.138Z</time><hdop>3.0</hdop><vdop>2.5</vdop><extensions><gom:speed>0.068</gom:speed></extensions></trkpt>
   <trkpt lat="59.3037930664" lon="34.6642823737"><ele>158.472</ele><time>2026-08-16T13:53:32.138Z</time><hdop>3.0</hdop><vdop>2.5</vdop><extensions><gom:speed>0.054</gom:speed></extensions></trkpt>
   <trkpt lat="59.3037927731" lon="34.6642824575"><ele>158.411</ele><time>2026-08-16T13:53:33.138Z</time><hdop>3.0</hdop><vdop>2.5</vdop><extensions><gom:speed>0.055</gom:speed></extensions></trkpt>
   <trkpt lat="59.3037925635" lon="34.6642826252"><ele>158.375</ele><time>2026-08-16T13:53:33.609Z</time><hdop>3.0</hdop><vdop>2.5</vdop><extensions><gom:speed>0.093</gom:speed></extensions></trkpt>
   <trkpt lat="59.3037924797" lon="34.6642824575"><ele>158.354</ele><time>2026-08-16T13:53:34.138Z</time><hdop>3.0</hdop><vdop>2.5</vdop><extensions><gom:speed>0.07</gom:speed></extensions></trkpt>
   <trkpt lat="59.3037925635" lon="34.6642818708"><ele>158.348</ele><time>2026-08-16T13:53:35.138Z</time><hdop>3.0</hdop><vdop>2.5</vdop><extensions><gom:speed>0.091</gom:speed></extensions></trkpt>
   <trkpt lat="59.3037925635" lon="34.6642810326"><ele>158.356</ele><time>2026-08-16T13:53:36.138Z</time><hdop>3.0</hdop><vdop>2.5</vdop><extensions><gom:speed>0.047</gom:speed></extensions></trkpt>
   <trkpt lat="59.3037923959" lon="34.6642807812"><ele>158.383</ele><time>2026-08-16T13:53:37.138Z</time><hdop>3.0</hdop><vdop>2.5</vdop><extensions><gom:speed>0.038</gom:speed></extensions></trkpt>
   <trkpt lat="59.3037924797" lon="34.6642802782"><ele>158.421</ele><time>2026-08-16T13:53:38.138Z</time><hdop>3.0</hdop><vdop>2.5</vdop><extensions><gom:speed>0.03</gom:speed></extensions></trkpt>
   <trkpt lat="59.3037928988" lon="34.6642794401"><ele>158.456</ele><time>2026-08-16T13:53:39.138Z</time><hdop>3.0</hdop><vdop>2.5</vdop><extensions><gom:speed>0.06</gom:speed></extensions></trkpt>
   <trkpt lat="59.3037927731" lon="34.6642791886"><ele>158.493</ele><time>2026-08-16T13:53:40.138Z</time><hdop>3.0</hdop><vdop>2.5</vdop><extensions><gom:speed>0.021</gom:speed></extensions></trkpt>
   <trkpt lat="59.3037924797" lon="34.6642793562"><ele>158.518</ele><time>2026-08-16T13:53:41.138Z</time><hdop>3.0</hdop><vdop>2.5</vdop><extensions><gom:speed>0.018</gom:speed></extensions></trkpt>
   <trkpt lat="59.3037927731" lon="34.664279021"><ele>158.548</ele><time>2026-08-16T13:53:42.138Z</time><hdop>3.0</hdop><vdop>2.5</vdop><extensions><gom:speed>0.015</gom:speed></extensions></trkpt>
   <trkpt lat="59.3037924797" lon="34.6642788533"><ele>158.577</ele><time>2026-08-16T13:53:43.138Z</time><hdop>3.0</hdop><vdop>2.5</vdop><extensions><gom:speed>0.0</gom:speed></extensions></trkpt>
   <trkpt lat="59.3037923959" lon="34.6642789371"><ele>158.614</ele><time>2026-08-16T13:53:44.138Z</time><hdop>3.0</hdop><vdop>2.5</vdop><extensions><gom:speed>0.015</gom:speed></extensions></trkpt>
   <trkpt lat="59.3037922702" lon="34.664279021"><ele>158.645</ele><time>2026-08-16T13:53:45.138Z</time><hdop>3.0</hdop><vdop>2.5</vdop><extensions><gom:speed>0.024</gom:speed></extensions></trkpt>
   <trkpt lat="59.3037919768" lon="34.6642791886"><ele>158.686</ele><time>2026-08-16T13:53:46.138Z</time><hdop>3.0</hdop><vdop>2.5</vdop><extensions><gom:speed>0.031</gom:speed></extensions></trkpt>
   <trkpt lat="59.3037917672" lon="34.6642793562"><ele>158.727</ele><time>2026-08-16T13:53:47.138Z</time><hdop>3.0</hdop><vdop>2.5</vdop><extensions><gom:speed>0.041</gom:speed></extensions></trkpt>
   <trkpt lat="59.3037914739" lon="34.6642795239"><ele>158.769</ele><time>2026-08-16T13:53:48.138Z</time><hdop>3.0</hdop><vdop>2.5</vdop><extensions><gom:speed>0.044</gom:speed></extensions></trkpt>
   <trkpt lat="59.3037911805" lon="34.6642797753"><ele>158.802</ele><time>2026-08-16T13:53:49.138Z</time><hdop>3.0</hdop><vdop>2.5</vdop><extensions><gom:speed>0.048</gom:speed></extensions></trkpt>
   <trkpt lat="59.3037907614" lon="34.664279943"><ele>158.834</ele><time>2026-08-16T13:53:50.138Z</time><hdop>3.0</hdop><vdop>2.5</vdop><extensions><gom:speed>0.053</gom:speed></extensions></trkpt>
   <trkpt lat="59.303790468" lon="34.6642801944"><ele>158.856</ele><time>2026-08-16T13:53:51.138Z</time><hdop>3.0</hdop><vdop>2.5</vdop><extensions><gom:speed>0.057</gom:speed></extensions></trkpt>
   <trkpt lat="59.3037900909" lon="34.6642802782"><ele>158.866</ele><time>2026-08-16T13:53:52.138Z</time><hdop>3.0</hdop><vdop>2.5</vdop><extensions><gom:speed>0.06</gom:speed></extensions></trkpt>
   <trkpt lat="59.3037896718" lon="34.6642804459"><ele>158.879</ele><time>2026-08-16T13:53:53.138Z</time><hdop>3.0</hdop><vdop>2.5</vdop><extensions><gom:speed>0.063</gom:speed></extensions></trkpt>
   <trkpt lat="59.3037893784" lon="34.6642805297"><ele>158.897</ele><time>2026-08-16T13:53:54.138Z</time><hdop>3.0</hdop><vdop>2.5</vdop><extensions><gom:speed>0.069</gom:speed></extensions></trkpt>
   <trkpt lat="59.3037889593" lon="34.6642807812"><ele>158.908</ele><time>2026-08-16T13:53:55.138Z</time><hdop>3.0</hdop><vdop>2.5</vdop><extensions><gom:speed>0.071</gom:speed></extensions></trkpt>
   <trkpt lat="59.3037885821" lon="34.6642809488"><ele>158.911</ele><time>2026-08-16T13:53:56.138Z</time><hdop>3.0</hdop><vdop>2.5</vdop><extensions><gom:speed>0.071</gom:speed></extensions></trkpt>
   <trkpt lat="59.3037884983" lon="34.6642811164"><ele>158.909</ele><time>2026-08-16T13:53:57.138Z</time><hdop>3.0</hdop><vdop>2.5</vdop><extensions><gom:speed>0.073</gom:speed></extensions></trkpt>
   <trkpt lat="59.3037883726" lon="34.6642814517"><ele>158.915</ele><time>2026-08-16T13:53:58.138Z</time><hdop>3.0</hdop><vdop>2.5</vdop><extensions><gom:speed>0.071</gom:speed></extensions></trkpt>
   <trkpt lat="59.3037882887" lon="34.664281787"><ele>158.92</ele><time>2026-08-16T13:53:59.138Z</time><hdop>3.0</hdop><vdop>2.5</vdop><extensions><gom:speed>0.069</gom:speed></extensions></trkpt>
   <trkpt lat="59.3037883726" lon="34.6642819546"><ele>158.942</ele><time>2026-08-16T13:54:00.138Z</time><hdop>3.0</hdop><vdop>2.5</vdop><extensions><gom:speed>0.386</gom:speed></extensions></trkpt>
   <trkpt lat="59.3037872829" lon="34.6642806973"><ele>158.919</ele><time>2026-08-16T13:54:01.138Z</time><hdop>3.0</hdop><vdop>2.5</vdop><extensions><gom:speed>0.13</gom:speed></extensions></trkpt>
   <trkpt lat="59.3037875763" lon="34.6642805297"><ele>158.897</ele><time>2026-08-16T13:54:02.138Z</time><hdop>3.0</hdop><vdop>2.5</vdop><extensions><gom:speed>0.099</gom:speed></extensions></trkpt>
   <trkpt lat="59.3037876601" lon="34.6642804459"><ele>158.792</ele><time>2026-08-16T13:54:03.138Z</time><hdop>3.0</hdop><vdop>2.5</vdop><extensions><gom:speed>0.333</gom:speed></extensions></trkpt>
   <trkpt lat="59.3037864866" lon="34.6642797753"><ele>158.729</ele><time>2026-08-16T13:54:03.800Z</time><hdop>3.0</hdop><vdop>2.5</vdop><extensions><gom:speed>0.333</gom:speed></extensions></trkpt>
   <trkpt lat="59.3037852713" lon="34.6642769255"><ele>158.7</ele><time>2026-08-16T13:54:04.605Z</time><hdop>3.0</hdop><vdop>2.5</vdop><extensions><gom:speed>0.536</gom:speed></extensions></trkpt>
   <trkpt lat="59.3037851874" lon="34.6642722316"><ele>158.47</ele><time>2026-08-16T13:54:05.138Z</time><hdop>3.0</hdop><vdop>2.5</vdop><extensions><gom:speed>0.795</gom:speed></extensions></trkpt>
   <trkpt lat="59.3037846845" lon="34.6642655261"><ele>158.333</ele><time>2026-08-16T13:54:05.842Z</time><hdop>3.0</hdop><vdop>2.5</vdop><extensions><gom:speed>0.796</gom:speed></extensions></trkpt>
   <trkpt lat="59.3037799907" lon="34.6642251253"><ele>158.524</ele><time>2026-08-16T13:54:07.138Z</time><hdop>3.0</hdop><vdop>2.5</vdop><extensions><gom:speed>1.062</gom:speed></extensions></trkpt>
   <trkpt lat="59.3037748777" lon="34.664202578"><ele>158.583</ele><time>2026-08-16T13:54:08.138Z</time><hdop>3.0</hdop><vdop>2.5</vdop><extensions><gom:speed>1.059</gom:speed></extensions></trkpt>
   <trkpt lat="59.3037682979" lon="34.6641836349"><ele>158.546</ele><time>2026-08-16T13:54:09.138Z</time><hdop>3.062</hdop><vdop>2.5</vdop><extensions><gom:speed>1.031</gom:speed></extensions></trkpt>
   <trkpt lat="59.3037622629" lon="34.6641734928"><ele>158.524</ele><time>2026-08-16T13:54:09.847Z</time><hdop>3.125</hdop><vdop>2.5</vdop><extensions><gom:speed>1.031</gom:speed></extensions></trkpt>
   <trkpt lat="59.3037537972" lon="34.6641677931"><ele>158.346</ele><time>2026-08-16T13:54:10.642Z</time><hdop>3.187</hdop><vdop>2.5</vdop><extensions><gom:speed>1.019</gom:speed></extensions></trkpt>
   <trkpt lat="59.3037480975" lon="34.6641666196"><ele>158.097</ele><time>2026-08-16T13:54:11.138Z</time><hdop>3.187</hdop><vdop>2.5</vdop><extensions><gom:speed>1.052</gom:speed></extensions></trkpt>
   <trkpt lat="59.3037356923" lon="34.6641658653"><ele>157.906</ele><time>2026-08-16T13:54:12.137Z</time><hdop>3.125</hdop><vdop>2.5</vdop><extensions><gom:speed>1.073</gom:speed></extensions></trkpt>
   <trkpt lat="59.3037235805" lon="34.6641659491"><ele>157.716</ele><time>2026-08-16T13:54:13.138Z</time><hdop>3.125</hdop><vdop>2.5</vdop><extensions><gom:speed>1.103</gom:speed></extensions></trkpt>
   <trkpt lat="59.3037169588" lon="34.6641640213"><ele>157.603</ele><time>2026-08-16T13:54:13.724Z</time><hdop>3.062</hdop><vdop>2.5</vdop><extensions><gom:speed>1.105</gom:speed></extensions></trkpt>
   <trkpt lat="59.3037065652" lon="34.6641639374"><ele>157.537</ele><time>2026-08-16T13:54:14.529Z</time><hdop>3.062</hdop><vdop>2.5</vdop><extensions><gom:speed>1.13</gom:speed></extensions></trkpt>
   <trkpt lat="59.3037002788" lon="34.6641611714"><ele>157.498</ele><time>2026-08-16T13:54:15.088Z</time><hdop>3.062</hdop><vdop>2.5</vdop><extensions><gom:speed>1.133</gom:speed></extensions></trkpt>
   <trkpt lat="59.3036914778" lon="34.6641634345"><ele>157.472</ele><time>2026-08-16T13:54:15.765Z</time><hdop>3.0</hdop><vdop>2.5</vdop><extensions><gom:speed>1.162</gom:speed></extensions></trkpt>
   <trkpt lat="59.303684898" lon="34.6641642727"><ele>157.433</ele><time>2026-08-16T13:54:16.305Z</time><hdop>3.0</hdop><vdop>2.5</vdop><extensions><gom:speed>1.168</gom:speed></extensions></trkpt>
   <trkpt lat="59.3036756779" lon="34.6641591597"><ele>157.4</ele><time>2026-08-16T13:54:17.138Z</time><hdop>3.0</hdop><vdop>2.5</vdop><extensions><gom:speed>1.163</gom:speed></extensions></trkpt>
   <trkpt lat="59.3036675893" lon="34.664145162"><ele>157.223</ele><time>2026-08-16T13:54:18.138Z</time><hdop>3.0</hdop><vdop>2.5</vdop><extensions><gom:speed>1.079</gom:speed></extensions></trkpt>
   <trkpt lat="59.3036636918" lon="34.6641348522"><ele>157.118</ele><time>2026-08-16T13:54:18.769Z</time><hdop>3.0</hdop><vdop>2.5</vdop><extensions><gom:speed>1.068</gom:speed></extensions></trkpt>
   <trkpt lat="59.3036565671" lon="34.6641095389"><ele>157.139</ele><time>2026-08-16T13:54:20.138Z</time><hdop>3.0</hdop><vdop>2.5</vdop><extensions><gom:speed>1.057</gom:speed></extensions></trkpt>
   <trkpt lat="59.3036497778" lon="34.6640950382"><ele>157.315</ele><time>2026-08-16T13:54:21.138Z</time><hdop>3.0</hdop><vdop>2.5</vdop><extensions><gom:speed>1.05</gom:speed></extensions></trkpt>
   <trkpt lat="59.3036411863" lon="34.6640848961"><ele>157.387</ele><time>2026-08-16T13:54:22.138Z</time><hdop>3.0</hdop><vdop>2.5</vdop><extensions><gom:speed>1.061</gom:speed></extensions></trkpt>
   <trkpt lat="59.3036360734" lon="34.6640799508"><ele>157.43</ele><time>2026-08-16T13:54:22.665Z</time><hdop>3.0</hdop><vdop>2.5</vdop><extensions><gom:speed>1.049</gom:speed></extensions></trkpt>
   <trkpt lat="59.3036315891" lon="34.6640772686"><ele>157.447</ele><time>2026-08-16T13:54:23.138Z</time><hdop>3.0</hdop><vdop>2.5</vdop><extensions><gom:speed>1.053</gom:speed></extensions></trkpt>
   <trkpt lat="59.3036224947" lon="34.6640697248"><ele>157.457</ele><time>2026-08-16T13:54:24.020Z</time><hdop>3.0</hdop><vdop>2.5</vdop><extensions><gom:speed>1.072</gom:speed></extensions></trkpt>
   <trkpt lat="59.3036113887" lon="34.6640641928"><ele>157.275</ele><time>2026-08-16T13:54:25.138Z</time><hdop>3.0</hdop><vdop>2.5</vdop><extensions><gom:speed>1.096</gom:speed></extensions></trkpt>
   <trkpt lat="59.3036021686" lon="34.6640584931"><ele>157.167</ele><time>2026-08-16T13:54:26.042Z</time><hdop>3.0</hdop><vdop>2.5</vdop><extensions><gom:speed>1.067</gom:speed></extensions></trkpt>
   <trkpt lat="59.3035921941" lon="34.664063187"><ele>156.992</ele><time>2026-08-16T13:54:26.906Z</time><hdop>3.0</hdop><vdop>2.5</vdop><extensions><gom:speed>1.099</gom:speed></extensions></trkpt>
   <trkpt lat="59.303587165" lon="34.6640739996"><ele>156.971</ele><time>2026-08-16T13:54:27.524Z</time><hdop>3.0</hdop><vdop>2.5</vdop><extensions><gom:speed>1.044</gom:speed></extensions></trkpt>
   <trkpt lat="59.3035817587" lon="34.664083555"><ele>156.908</ele><time>2026-08-16T13:54:28.138Z</time><hdop>3.0</hdop><vdop>2.5</vdop><extensions><gom:speed>1.102</gom:speed></extensions></trkpt>
   <trkpt lat="59.303571868" lon="34.6640943676"><ele>156.833</ele><time>2026-08-16T13:54:29.138Z</time><hdop>3.0</hdop><vdop>2.5</vdop><extensions><gom:speed>1.069</gom:speed></extensions></trkpt>
   <trkpt lat="59.3035666712" lon="34.6640965469"><ele>156.788</ele><time>2026-08-16T13:54:29.606Z</time><hdop>3.0</hdop><vdop>2.5</vdop><extensions><gom:speed>1.069</gom:speed></extensions></trkpt>
   <trkpt lat="59.3035613906" lon="34.6640980557"><ele>156.963</ele><time>2026-08-16T13:54:30.138Z</time><hdop>3.0</hdop><vdop>2.5</vdop><extensions><gom:speed>1.055</gom:speed></extensions></trkpt>
   <trkpt lat="59.3035537631" lon="34.6640996482"><ele>157.067</ele><time>2026-08-16T13:54:30.882Z</time><hdop>3.0</hdop><vdop>2.5</vdop><extensions><gom:speed>1.065</gom:speed></extensions></trkpt>
   <trkpt lat="59.3035443754" lon="34.6640995644"><ele>157.269</ele><time>2026-08-16T13:54:31.805Z</time><hdop>3.0</hdop><vdop>2.5</vdop><extensions><gom:speed>1.05</gom:speed></extensions></trkpt>
   <trkpt lat="59.3035312996" lon="34.6640970498"><ele>157.525</ele><time>2026-08-16T13:54:33.040Z</time><hdop>3.0</hdop><vdop>2.5</vdop><extensions><gom:speed>1.074</gom:speed></extensions></trkpt>
   <trkpt lat="59.3035214928" lon="34.6640935294"><ele>157.723</ele><time>2026-08-16T13:54:34.138Z</time><hdop>3.0</hdop><vdop>2.5</vdop><extensions><gom:speed>0.975</gom:speed></extensions></trkpt>
   <trkpt lat="59.3035169665" lon="34.6640857343"><ele>157.842</ele><time>2026-08-16T13:54:34.789Z</time><hdop>3.0</hdop><vdop>2.5</vdop><extensions><gom:speed>0.974</gom:speed></extensions></trkpt>
   <trkpt lat="59.3035123984" lon="34.6640674617"><ele>157.888</ele><time>2026-08-16T13:54:36.122Z</time><hdop>3.0</hdop><vdop>2.5</vdop><extensions><gom:speed>0.78</gom:speed></extensions></trkpt>
   <trkpt lat="59.3035095905" lon="34.6640629355"><ele>158.015</ele><time>2026-08-16T13:54:36.742Z</time><hdop>3.0</hdop><vdop>2.5</vdop><extensions><gom:speed>0.767</gom:speed></extensions></trkpt>
   <trkpt lat="59.3035039746" lon="34.6640612591"><ele>158.128</ele><time>2026-08-16T13:54:37.360Z</time><hdop>3.0</hdop><vdop>2.5</vdop><extensions><gom:speed>0.838</gom:speed></extensions></trkpt>
   <trkpt lat="59.303495467" lon="34.6640607562"><ele>158.651</ele><time>2026-08-16T13:54:38.138Z</time><hdop>3.0</hdop><vdop>2.5</vdop><extensions><gom:speed>1.009</gom:speed></extensions></trkpt>
   <trkpt lat="59.3034881747" lon="34.6640622649"><ele>158.964</ele><time>2026-08-16T13:54:38.764Z</time><hdop>3.0</hdop><vdop>2.5</vdop><extensions><gom:speed>1.015</gom:speed></extensions></trkpt>
   <trkpt lat="59.3034792899" lon="34.6640644442"><ele>159.222</ele><time>2026-08-16T13:54:39.479Z</time><hdop>3.0</hdop><vdop>2.5</vdop><extensions><gom:speed>1.067</gom:speed></extensions></trkpt>
   <trkpt lat="59.303472291" lon="34.6640663721"><ele>159.376</ele><time>2026-08-16T13:54:40.089Z</time><hdop>3.0</hdop><vdop>2.5</vdop><extensions><gom:speed>1.098</gom:speed></extensions></trkpt>
   <trkpt lat="59.30346349" lon="34.6640701439"><ele>159.591</ele><time>2026-08-16T13:54:40.727Z</time><hdop>3.0</hdop><vdop>2.5</vdop><extensions><gom:speed>1.134</gom:speed></extensions></trkpt>
   <trkpt lat="59.3034562816" lon="34.664070563"><ele>159.702</ele><time>2026-08-16T13:54:41.306Z</time><hdop>3.0</hdop><vdop>2.5</vdop><extensions><gom:speed>1.116</gom:speed></extensions></trkpt>
   <trkpt lat="59.3034471872" lon="34.6640703954"><ele>159.771</ele><time>2026-08-16T13:54:42.138Z</time><hdop>3.0</hdop><vdop>2.5</vdop><extensions><gom:speed>1.104</gom:speed></extensions></trkpt>
   <trkpt lat="59.303441278" lon="34.6640710659"><ele>159.813</ele><time>2026-08-16T13:54:42.680Z</time><hdop>3.0</hdop><vdop>2.5</vdop><extensions><gom:speed>1.104</gom:speed></extensions></trkpt>
   <trkpt lat="59.3034365841" lon="34.6640708983"><ele>159.783</ele><time>2026-08-16T13:54:43.138Z</time><hdop>3.0</hdop><vdop>2.5</vdop><extensions><gom:speed>1.103</gom:speed></extensions></trkpt>
   <trkpt lat="59.3034287889" lon="34.664071485"><ele>159.766</ele><time>2026-08-16T13:54:43.848Z</time><hdop>3.0</hdop><vdop>2.5</vdop><extensions><gom:speed>1.101</gom:speed></extensions></trkpt>
   <trkpt lat="59.3034190659" lon="34.6640695572"><ele>159.809</ele><time>2026-08-16T13:54:44.800Z</time><hdop>3.0</hdop><vdop>2.5</vdop><extensions><gom:speed>1.077</gom:speed></extensions></trkpt>
   <trkpt lat="59.3034073732" lon="34.6640620973"><ele>159.777</ele><time>2026-08-16T13:54:46.086Z</time><hdop>3.0</hdop><vdop>2.5</vdop><extensions><gom:speed>1.039</gom:speed></extensions></trkpt>
   <trkpt lat="59.303399578" lon="34.6640521228"><ele>159.669</ele><time>2026-08-16T13:54:47.138Z</time><hdop>3.0</hdop><vdop>2.5</vdop><extensions><gom:speed>1.048</gom:speed></extensions></trkpt>
   <trkpt lat="59.3033920762" lon="34.6640454173"><ele>159.605</ele><time>2026-08-16T13:54:47.941Z</time><hdop>3.0</hdop><vdop>2.5</vdop><extensions><gom:speed>1.037</gom:speed></extensions></trkpt>
   <trkpt lat="59.303387089" lon="34.6640357781"><ele>159.727</ele><time>2026-08-16T13:54:48.648Z</time><hdop>3.0</hdop><vdop>2.5</vdop><extensions><gom:speed>1.037</gom:speed></extensions></trkpt>
   <trkpt lat="59.3033844906" lon="34.6640276477"><ele>159.602</ele><time>2026-08-16T13:54:49.138Z</time><hdop>3.0</hdop><vdop>2.5</vdop><extensions><gom:speed>1.02</gom:speed></extensions></trkpt>
   <trkpt lat="59.3033789585" lon="34.6640138175"><ele>159.528</ele><time>2026-08-16T13:54:50.040Z</time><hdop>3.0</hdop><vdop>2.5</vdop><extensions><gom:speed>0.981</gom:speed></extensions></trkpt>
   <trkpt lat="59.3033756896" lon="34.6640057709"><ele>159.622</ele><time>2026-08-16T13:54:50.621Z</time><hdop>3.0</hdop><vdop>2.5</vdop><extensions><gom:speed>0.993</gom:speed></extensions></trkpt>
   <trkpt lat="59.3033726721" lon="34.6639991492"><ele>159.746</ele><time>2026-08-16T13:54:51.137Z</time><hdop>3.0</hdop><vdop>2.5</vdop><extensions><gom:speed>0.947</gom:speed></extensions></trkpt>
   <trkpt lat="59.3033669724" lon="34.6639888395"><ele>159.82</ele><time>2026-08-16T13:54:51.964Z</time><hdop>3.0</hdop><vdop>2.5</vdop><extensions><gom:speed>0.979</gom:speed></extensions></trkpt>
   <trkpt lat="59.3033570817" lon="34.6639759313"><ele>159.786</ele><time>2026-08-16T13:54:53.138Z</time><hdop>3.0</hdop><vdop>2.5</vdop><extensions><gom:speed>0.988</gom:speed></extensions></trkpt>
   <trkpt lat="59.3033501667" lon="34.6639670465"><ele>159.766</ele><time>2026-08-16T13:54:53.948Z</time><hdop>3.0</hdop><vdop>2.5</vdop><extensions><gom:speed>0.989</gom:speed></extensions></trkpt>
   <trkpt lat="59.303345389" lon="34.6639586646"><ele>159.69</ele><time>2026-08-16T13:54:54.566Z</time><hdop>3.0</hdop><vdop>2.5</vdop><extensions><gom:speed>1.002</gom:speed></extensions></trkpt>
   <trkpt lat="59.3033413657" lon="34.6639512885"><ele>159.573</ele><time>2026-08-16T13:54:55.138Z</time><hdop>3.0</hdop><vdop>2.5</vdop><extensions><gom:speed>1.022</gom:speed></extensions></trkpt>
   <trkpt lat="59.3033366718" lon="34.6639432419"><ele>159.502</ele><time>2026-08-16T13:54:55.744Z</time><hdop>3.0</hdop><vdop>2.5</vdop><extensions><gom:speed>1.0</gom:speed></extensions></trkpt>
   <trkpt lat="59.3033296729" lon="34.6639371231"><ele>159.313</ele><time>2026-08-16T13:54:56.588Z</time><hdop>3.0</hdop><vdop>2.5</vdop><extensions><gom:speed>0.989</gom:speed></extensions></trkpt>
   <trkpt lat="59.3033248952" lon="34.6639330998"><ele>159.201</ele><time>2026-08-16T13:54:57.128Z</time><hdop>3.0</hdop><vdop>2.5</vdop><extensions><gom:speed>1.006</gom:speed></extensions></trkpt>
   <trkpt lat="59.3033169743" lon="34.6639297471"><ele>159.11</ele><time>2026-08-16T13:54:57.884Z</time><hdop>3.0</hdop><vdop>2.5</vdop><extensions><gom:speed>1.026</gom:speed></extensions></trkpt>
   <trkpt lat="59.3033114842" lon="34.6639236283"><ele>158.991</ele><time>2026-08-16T13:54:58.541Z</time><hdop>3.0</hdop><vdop>2.5</vdop><extensions><gom:speed>0.994</gom:speed></extensions></trkpt>
   <trkpt lat="59.3033071675" lon="34.6639159169"><ele>158.746</ele><time>2026-08-16T13:54:59.138Z</time><hdop>3.0</hdop><vdop>2.5</vdop><extensions><gom:speed>0.964</gom:speed></extensions></trkpt>
   <trkpt lat="59.3033029766" lon="34.6639046852"><ele>158.6</ele><time>2026-08-16T13:54:59.867Z</time><hdop>3.0</hdop><vdop>2.5</vdop><extensions><gom:speed>0.95</gom:speed></extensions></trkpt>
   <trkpt lat="59.303296271" lon="34.6638819702"><ele>158.54</ele><time>2026-08-16T13:55:01.138Z</time><hdop>3.0</hdop><vdop>2.5</vdop><extensions><gom:speed>0.99</gom:speed></extensions></trkpt>
   <trkpt lat="59.3032915772" lon="34.6638676372"><ele>158.504</ele><time>2026-08-16T13:55:01.987Z</time><hdop>3.0</hdop><vdop>2.5</vdop><extensions><gom:speed>0.964</gom:speed></extensions></trkpt>
   <trkpt lat="59.3032878891" lon="34.6638581656"><ele>158.487</ele><time>2026-08-16T13:55:02.507Z</time><hdop>3.0</hdop><vdop>2.5</vdop><extensions><gom:speed>0.971</gom:speed></extensions></trkpt>
   <trkpt lat="59.3032842849" lon="34.663847772"><ele>158.37</ele><time>2026-08-16T13:55:03.138Z</time><hdop>3.0</hdop><vdop>2.5</vdop><extensions><gom:speed>0.977</gom:speed></extensions></trkpt>
   <trkpt lat="59.3032799682" lon="34.6638363727"><ele>158.3</ele><time>2026-08-16T13:55:03.842Z</time><hdop>3.0</hdop><vdop>2.5</vdop><extensions><gom:speed>0.991</gom:speed></extensions></trkpt>
   <trkpt lat="59.3032742685" lon="34.6638249733"><ele>158.289</ele><time>2026-08-16T13:55:04.529Z</time><hdop>3.0</hdop><vdop>2.5</vdop><extensions><gom:speed>1.008</gom:speed></extensions></trkpt>
   <trkpt lat="59.3032697842" lon="34.6638153341"><ele>158.283</ele><time>2026-08-16T13:55:05.127Z</time><hdop>3.0</hdop><vdop>2.5</vdop><extensions><gom:speed>1.015</gom:speed></extensions></trkpt>
   <trkpt lat="59.3032645874" lon="34.6638046891"><ele>158.399</ele><time>2026-08-16T13:55:05.805Z</time><hdop>3.0</hdop><vdop>2.5</vdop><extensions><gom:speed>1.008</gom:speed></extensions></trkpt>
   <trkpt lat="59.3032606899" lon="34.6637949661"><ele>158.445</ele><time>2026-08-16T13:55:06.345Z</time><hdop>3.0</hdop><vdop>2.5</vdop><extensions><gom:speed>1.004</gom:speed></extensions></trkpt>
   <trkpt lat="59.3032557864" lon="34.6637809683"><ele>158.472</ele><time>2026-08-16T13:55:07.119Z</time><hdop>3.0</hdop><vdop>2.5</vdop><extensions><gom:speed>1.049</gom:speed></extensions></trkpt>
   <trkpt lat="59.3032502963" lon="34.6637703233"><ele>158.41</ele><time>2026-08-16T13:55:07.845Z</time><hdop>3.0</hdop><vdop>2.5</vdop><extensions><gom:speed>1.044</gom:speed></extensions></trkpt>
   <trkpt lat="59.3032453929" lon="34.6637638692"><ele>158.267</ele><time>2026-08-16T13:55:08.524Z</time><hdop>3.0</hdop><vdop>2.5</vdop><extensions><gom:speed>0.996</gom:speed></extensions></trkpt>
   <trkpt lat="59.3032414953" lon="34.6637577504"><ele>158.181</ele><time>2026-08-16T13:55:09.005Z</time><hdop>3.0</hdop><vdop>2.5</vdop><extensions><gom:speed>1.066</gom:speed></extensions></trkpt>
   <trkpt lat="59.3032342869" lon="34.6637501229"><ele>158.031</ele><time>2026-08-16T13:55:09.780Z</time><hdop>3.0</hdop><vdop>2.5</vdop><extensions><gom:speed>1.075</gom:speed></extensions></trkpt>
   <trkpt lat="59.3032296768" lon="34.6637453452"><ele>158.143</ele><time>2026-08-16T13:55:10.300Z</time><hdop>3.0</hdop><vdop>2.5</vdop><extensions><gom:speed>1.075</gom:speed></extensions></trkpt>
   <trkpt lat="59.3032235999" lon="34.6637358736"><ele>158.21</ele><time>2026-08-16T13:55:11.066Z</time><hdop>3.0</hdop><vdop>2.5</vdop><extensions><gom:speed>1.07</gom:speed></extensions></trkpt>
   <trkpt lat="59.3032195766" lon="34.663731096"><ele>158.168</ele><time>2026-08-16T13:55:11.566Z</time><hdop>3.0</hdop><vdop>2.5</vdop><extensions><gom:speed>1.054</gom:speed></extensions></trkpt>
   <trkpt lat="59.3032149666" lon="34.6637251448"><ele>158.095</ele><time>2026-08-16T13:55:12.138Z</time><hdop>3.0</hdop><vdop>2.5</vdop><extensions><gom:speed>1.04</gom:speed></extensions></trkpt>
   <trkpt lat="59.303208764" lon="34.6637145836"><ele>158.051</ele><time>2026-08-16T13:55:12.960Z</time><hdop>3.0</hdop><vdop>2.5</vdop><extensions><gom:speed>1.034</gom:speed></extensions></trkpt>
   <trkpt lat="59.3032005916" lon="34.6636994962"><ele>157.887</ele><time>2026-08-16T13:55:14.089Z</time><hdop>3.0</hdop><vdop>2.5</vdop><extensions><gom:speed>1.05</gom:speed></extensions></trkpt>
   <trkpt lat="59.3031956882" lon="34.6636887673"><ele>157.62</ele><time>2026-08-16T13:55:14.845Z</time><hdop>3.0</hdop><vdop>2.5</vdop><extensions><gom:speed>1.049</gom:speed></extensions></trkpt>
   <trkpt lat="59.3031924612" lon="34.663681978"><ele>157.75</ele><time>2026-08-16T13:55:15.345Z</time><hdop>3.0</hdop><vdop>2.5</vdop><extensions><gom:speed>1.077</gom:speed></extensions></trkpt>
   <trkpt lat="59.3031873901" lon="34.6636728417"><ele>157.816</ele><time>2026-08-16T13:55:16.138Z</time><hdop>3.0</hdop><vdop>2.5</vdop><extensions><gom:speed>1.032</gom:speed></extensions></trkpt>
   <trkpt lat="59.3031828639" lon="34.6636666391"><ele>157.855</ele><time>2026-08-16T13:55:16.719Z</time><hdop>3.0</hdop><vdop>2.5</vdop><extensions><gom:speed>1.037</gom:speed></extensions></trkpt>
   <trkpt lat="59.3031770804" lon="34.6636599336"><ele>157.98</ele><time>2026-08-16T13:55:17.446Z</time><hdop>3.0</hdop><vdop>2.5</vdop><extensions><gom:speed>1.025</gom:speed></extensions></trkpt>
   <trkpt lat="59.3031726799" lon="34.6636532281"><ele>158.055</ele><time>2026-08-16T13:55:17.986Z</time><hdop>3.0</hdop><vdop>2.5</vdop><extensions><gom:speed>1.052</gom:speed></extensions></trkpt>
   <trkpt lat="59.3031664773" lon="34.663646774"><ele>158.033</ele><time>2026-08-16T13:55:18.702Z</time><hdop>3.0</hdop><vdop>2.5</vdop><extensions><gom:speed>1.048</gom:speed></extensions></trkpt>
   <trkpt lat="59.3031592688" lon="34.6636457682"><ele>157.902</ele><time>2026-08-16T13:55:19.448Z</time><hdop>3.0</hdop><vdop>2.5</vdop><extensions><gom:speed>0.953</gom:speed></extensions></trkpt>
   <trkpt lat="59.3031534853" lon="34.663650965"><ele>157.923</ele><time>2026-08-16T13:55:20.138Z</time><hdop>3.0</hdop><vdop>2.5</vdop><extensions><gom:speed>0.93</gom:speed></extensions></trkpt>
   <trkpt lat="59.3031496715" lon="34.6636571676"><ele>157.936</ele><time>2026-08-16T13:55:20.645Z</time><hdop>3.0</hdop><vdop>2.5</vdop><extensions><gom:speed>0.935</gom:speed></extensions></trkpt>
   <trkpt lat="59.3031450615" lon="34.6636573352"><ele>158.026</ele><time>2026-08-16T13:55:21.138Z</time><hdop>3.0</hdop><vdop>2.5</vdop><extensions><gom:speed>0.954</gom:speed></extensions></trkpt>
   <trkpt lat="59.3031361767" lon="34.6636490371"><ele>158.107</ele><time>2026-08-16T13:55:22.138Z</time><hdop>3.0</hdop><vdop>2.5</vdop><extensions><gom:speed>0.923</gom:speed></extensions></trkpt>
   <trkpt lat="59.3031275852" lon="34.6636544854"><ele>158.287</ele><time>2026-08-16T13:55:23.138Z</time><hdop>3.0</hdop><vdop>2.5</vdop><extensions><gom:speed>0.94</gom:speed></extensions></trkpt>
   <trkpt lat="59.3031235619" lon="34.6636598498"><ele>158.395</ele><time>2026-08-16T13:55:23.649Z</time><hdop>3.0</hdop><vdop>2.5</vdop><extensions><gom:speed>0.918</gom:speed></extensions></trkpt>
   <trkpt lat="59.3031178622" lon="34.6636598498"><ele>158.478</ele><time>2026-08-16T13:55:24.138Z</time><hdop>3.0</hdop><vdop>2.5</vdop><extensions><gom:speed>1.059</gom:speed></extensions></trkpt>
   <trkpt lat="59.3031121625" lon="34.6636548206"><ele>158.527</ele><time>2026-08-16T13:55:24.660Z</time><hdop>3.0</hdop><vdop>2.5</vdop><extensions><gom:speed>1.068</gom:speed></extensions></trkpt>
   <trkpt lat="59.3031073848" lon="34.6636503782"><ele>158.66</ele><time>2026-08-16T13:55:25.137Z</time><hdop>3.0</hdop><vdop>2.5</vdop><extensions><gom:speed>1.049</gom:speed></extensions></trkpt>
   <trkpt lat="59.3030988772" lon="34.6636424992"><ele>158.74</ele><time>2026-08-16T13:55:26.063Z</time><hdop>3.0</hdop><vdop>2.5</vdop><extensions><gom:speed>1.001</gom:speed></extensions></trkpt>
   <trkpt lat="59.3030940995" lon="34.6636345364"><ele>158.738</ele><time>2026-08-16T13:55:26.701Z</time><hdop>3.0</hdop><vdop>2.5</vdop><extensions><gom:speed>0.983</gom:speed></extensions></trkpt>
   <trkpt lat="59.3030903696" lon="34.6636255678"><ele>158.805</ele><time>2026-08-16T13:55:27.320Z</time><hdop>3.0</hdop><vdop>2.5</vdop><extensions><gom:speed>0.966</gom:speed></extensions></trkpt>
   <trkpt lat="59.3030870587" lon="34.663619449"><ele>158.844</ele><time>2026-08-16T13:55:27.781Z</time><hdop>3.0</hdop><vdop>2.5</vdop><extensions><gom:speed>0.966</gom:speed></extensions></trkpt>
   <trkpt lat="59.3030812752" lon="34.6636125758"><ele>158.736</ele><time>2026-08-16T13:55:28.566Z</time><hdop>3.0</hdop><vdop>2.5</vdop><extensions><gom:speed>0.96</gom:speed></extensions></trkpt>
   <trkpt lat="59.303077671" lon="34.6636086363"><ele>158.746</ele><time>2026-08-16T13:55:29.138Z</time><hdop>3.0</hdop><vdop>2.5</vdop><extensions><gom:speed>0.961</gom:speed></extensions></trkpt>
   <trkpt lat="59.3030737734" lon="34.6636046969"><ele>158.752</ele><time>2026-08-16T13:55:29.646Z</time><hdop>3.0</hdop><vdop>2.5</vdop><extensions><gom:speed>0.961</gom:speed></extensions></trkpt>
   <trkpt lat="59.3030702949" lon="34.6636012603"><ele>158.522</ele><time>2026-08-16T13:55:30.138Z</time><hdop>3.0</hdop><vdop>2.5</vdop><extensions><gom:speed>0.969</gom:speed></extensions></trkpt>
   <trkpt lat="59.3030633799" lon="34.6635931298"><ele>158.55</ele><time>2026-08-16T13:55:31.138Z</time><hdop>3.0</hdop><vdop>2.5</vdop><extensions><gom:speed>0.957</gom:speed></extensions></trkpt>
   <trkpt lat="59.3030571772" lon="34.6635847479"><ele>158.566</ele><time>2026-08-16T13:55:31.982Z</time><hdop>3.0</hdop><vdop>2.5</vdop><extensions><gom:speed>0.97</gom:speed></extensions></trkpt>
   <trkpt lat="59.3030542855" lon="34.6635777909"><ele>158.566</ele><time>2026-08-16T13:55:32.600Z</time><hdop>3.0</hdop><vdop>2.5</vdop><extensions><gom:speed>0.962</gom:speed></extensions></trkpt>
   <trkpt lat="59.3030499688" lon="34.6635707501"><ele>158.565</ele><time>2026-08-16T13:55:33.140Z</time><hdop>3.0</hdop><vdop>2.5</vdop><extensions><gom:speed>1.018</gom:speed></extensions></trkpt>
   <trkpt lat="59.3030451911" lon="34.6635615301"><ele>158.358</ele><time>2026-08-16T13:55:33.926Z</time><hdop>3.0</hdop><vdop>2.5</vdop><extensions><gom:speed>0.989</gom:speed></extensions></trkpt>
   <trkpt lat="59.3030430956" lon="34.6635560818"><ele>158.216</ele><time>2026-08-16T13:55:34.407Z</time><hdop>3.0</hdop><vdop>2.5</vdop><extensions><gom:speed>1.017</gom:speed></extensions></trkpt>
   <trkpt lat="59.3030405811" lon="34.6635458559"><ele>157.875</ele><time>2026-08-16T13:55:35.138Z</time><hdop>3.0</hdop><vdop>2.5</vdop><extensions><gom:speed>0.979</gom:speed></extensions></trkpt>
   <trkpt lat="59.3030391981" lon="34.6635341212"><ele>157.672</ele><time>2026-08-16T13:55:35.800Z</time><hdop>3.0</hdop><vdop>2.5</vdop><extensions><gom:speed>0.968</gom:speed></extensions></trkpt>
   <trkpt lat="59.3030414612" lon="34.6635203749"><ele>157.623</ele><time>2026-08-16T13:55:36.605Z</time><hdop>3.0</hdop><vdop>2.5</vdop><extensions><gom:speed>0.93</gom:speed></extensions></trkpt>
   <trkpt lat="59.3030416707" lon="34.6635100652"><ele>157.349</ele><time>2026-08-16T13:55:37.137Z</time><hdop>3.0</hdop><vdop>2.5</vdop><extensions><gom:speed>0.989</gom:speed></extensions></trkpt>
   <trkpt lat="59.303040162" lon="34.6634967379"><ele>157.185</ele><time>2026-08-16T13:55:37.822Z</time><hdop>3.0</hdop><vdop>2.5</vdop><extensions><gom:speed>0.989</gom:speed></extensions></trkpt>
   <trkpt lat="59.3030366835" lon="34.6634864282"><ele>157.194</ele><time>2026-08-16T13:55:38.460Z</time><hdop>3.0</hdop><vdop>2.5</vdop><extensions><gom:speed>0.995</gom:speed></extensions></trkpt>
   <trkpt lat="59.3030325764" lon="34.6634776272"><ele>157.18</ele><time>2026-08-16T13:55:39.138Z</time><hdop>3.0</hdop><vdop>2.5</vdop><extensions><gom:speed>0.934</gom:speed></extensions></trkpt>
   <trkpt lat="59.3030290979" lon="34.6634691615"><ele>157.172</ele><time>2026-08-16T13:55:39.746Z</time><hdop>3.0</hdop><vdop>2.5</vdop><extensions><gom:speed>0.928</gom:speed></extensions></trkpt>
   <trkpt lat="59.3030262899" lon="34.6634569239"><ele>157.231</ele><time>2026-08-16T13:55:40.521Z</time><hdop>3.0</hdop><vdop>2.5</vdop><extensions><gom:speed>0.925</gom:speed></extensions></trkpt>
   <trkpt lat="59.3030238592" lon="34.6634478714"><ele>157.176</ele><time>2026-08-16T13:55:41.138Z</time><hdop>3.0</hdop><vdop>2.5</vdop><extensions><gom:speed>0.914</gom:speed></extensions></trkpt>
   <trkpt lat="59.303018369" lon="34.6634354662"><ele>157.143</ele><time>2026-08-16T13:55:42.043Z</time><hdop>3.0</hdop><vdop>2.5</vdop><extensions><gom:speed>0.887</gom:speed></extensions></trkpt>
   <trkpt lat="59.3030108672" lon="34.6634286769"><ele>157.173</ele><time>2026-08-16T13:55:42.828Z</time><hdop>3.0</hdop><vdop>2.5</vdop><extensions><gom:speed>0.897</gom:speed></extensions></trkpt>
   <trkpt lat="59.3030043713" lon="34.6634245698"><ele>157.619</ele><time>2026-08-16T13:55:43.427Z</time><hdop>3.0</hdop><vdop>2.5</vdop><extensions><gom:speed>0.936</gom:speed></extensions></trkpt>
   <trkpt lat="59.3029991745" lon="34.6634210494"><ele>157.885</ele><time>2026-08-16T13:55:44.064Z</time><hdop>3.0</hdop><vdop>2.5</vdop><extensions><gom:speed>0.88</gom:speed></extensions></trkpt>
   <trkpt lat="59.3029869788" lon="34.6634279225"><ele>158.052</ele><time>2026-08-16T13:55:45.138Z</time><hdop>3.0</hdop><vdop>2.5</vdop><extensions><gom:speed>0.813</gom:speed></extensions></trkpt>
   <trkpt lat="59.3029810696" lon="34.663435131"><ele>158.152</ele><time>2026-08-16T13:55:45.861Z</time><hdop>3.0</hdop><vdop>2.5</vdop><extensions><gom:speed>0.81</gom:speed></extensions></trkpt>
   <trkpt lat="59.3029702988" lon="34.6634449378"><ele>158.595</ele><time>2026-08-16T13:55:46.725Z</time><hdop>3.0</hdop><vdop>2.5</vdop><extensions><gom:speed>1.007</gom:speed></extensions></trkpt>
   <trkpt lat="59.302956762" lon="34.663441585"><ele>159.04</ele><time>2026-08-16T13:55:47.942Z</time><hdop>3.0</hdop><vdop>2.5</vdop><extensions><gom:speed>1.044</gom:speed></extensions></trkpt>
   <trkpt lat="59.3029488831" lon="34.6634409983"><ele>159.372</ele><time>2026-08-16T13:55:48.688Z</time><hdop>3.0</hdop><vdop>2.5</vdop><extensions><gom:speed>1.043</gom:speed></extensions></trkpt>
   <trkpt lat="59.3029445664" lon="34.6634429261"><ele>159.705</ele><time>2026-08-16T13:55:49.138Z</time><hdop>3.0</hdop><vdop>2.5</vdop><extensions><gom:speed>1.015</gom:speed></extensions></trkpt>
   <trkpt lat="59.3029359749" lon="34.6634454407"><ele>159.904</ele><time>2026-08-16T13:55:50.042Z</time><hdop>3.0</hdop><vdop>2.5</vdop><extensions><gom:speed>0.997</gom:speed></extensions></trkpt>
   <trkpt lat="59.3029281798" lon="34.6634447701"><ele>160.663</ele><time>2026-08-16T13:55:50.847Z</time><hdop>3.0</hdop><vdop>2.5</vdop><extensions><gom:speed>0.999</gom:speed></extensions></trkpt>
   <trkpt lat="59.3029175766" lon="34.663438819"><ele>161.658</ele><time>2026-08-16T13:55:51.868Z</time><hdop>3.0</hdop><vdop>2.5</vdop><extensions><gom:speed>1.034</gom:speed></extensions></trkpt>
   <trkpt lat="59.302912296" lon="34.6634328678"><ele>162.473</ele><time>2026-08-16T13:55:52.349Z</time><hdop>3.0</hdop><vdop>2.5</vdop><extensions><gom:speed>1.099</gom:speed></extensions></trkpt>
   <trkpt lat="59.3029050876" lon="34.6634225581"><ele>163.416</ele><time>2026-08-16T13:55:53.138Z</time><hdop>3.0</hdop><vdop>2.5</vdop><extensions><gom:speed>1.093</gom:speed></extensions></trkpt>
   <trkpt lat="59.3028985916" lon="34.6634033635"><ele>163.731</ele><time>2026-08-16T13:55:54.138Z</time><hdop>3.0</hdop><vdop>2.5</vdop><extensions><gom:speed>1.098</gom:speed></extensions></trkpt>
   <trkpt lat="59.3028967895" lon="34.6633915451"><ele>163.92</ele><time>2026-08-16T13:55:54.646Z</time><hdop>3.0</hdop><vdop>2.5</vdop><extensions><gom:speed>1.097</gom:speed></extensions></trkpt>
   <trkpt lat="59.3028959932" lon="34.6633787207"><ele>163.958</ele><time>2026-08-16T13:55:55.138Z</time><hdop>3.0</hdop><vdop>2.5</vdop><extensions><gom:speed>1.107</gom:speed></extensions></trkpt>
   <trkpt lat="59.3028927662" lon="34.6633595262"><ele>163.981</ele><time>2026-08-16T13:55:56.000Z</time><hdop>3.0</hdop><vdop>2.5</vdop><extensions><gom:speed>1.105</gom:speed></extensions></trkpt>
   <trkpt lat="59.3028917604" lon="34.6633362245"><ele>163.933</ele><time>2026-08-16T13:55:56.825Z</time><hdop>3.0</hdop><vdop>2.5</vdop><extensions><gom:speed>1.157</gom:speed></extensions></trkpt>
   <trkpt lat="59.3028934787" lon="34.6633181196"><ele>163.97</ele><time>2026-08-16T13:55:57.325Z</time><hdop>3.0</hdop><vdop>2.5</vdop><extensions><gom:speed>1.2</gom:speed></extensions></trkpt>
   <trkpt lat="59.3028928919" lon="34.663298925"><ele>163.992</ele><time>2026-08-16T13:55:58.101Z</time><hdop>3.0</hdop><vdop>2.5</vdop><extensions><gom:speed>1.152</gom:speed></extensions></trkpt>
   <trkpt lat="59.3028935625" lon="34.6632850949"><ele>163.685</ele><time>2026-08-16T13:55:58.562Z</time><hdop>3.0</hdop><vdop>2.5</vdop><extensions><gom:speed>1.157</gom:speed></extensions></trkpt>
   <trkpt lat="59.3028931853" lon="34.6632711809"><ele>163.737</ele><time>2026-08-16T13:55:59.138Z</time><hdop>3.0</hdop><vdop>2.5</vdop><extensions><gom:speed>1.09</gom:speed></extensions></trkpt>
   <trkpt lat="59.3028913832" lon="34.6632534951"><ele>163.768</ele><time>2026-08-16T13:55:59.966Z</time><hdop>3.0</hdop><vdop>2.5</vdop><extensions><gom:speed>1.099</gom:speed></extensions></trkpt>
   <trkpt lat="59.3028890782" lon="34.6632370666"><ele>163.837</ele><time>2026-08-16T13:56:00.662Z</time><hdop>3.0</hdop><vdop>2.5</vdop><extensions><gom:speed>1.11</gom:speed></extensions></trkpt>
   <trkpt lat="59.3028872761" lon="34.6632249966"><ele>163.991</ele><time>2026-08-16T13:56:01.138Z</time><hdop>3.0</hdop><vdop>2.5</vdop><extensions><gom:speed>1.14</gom:speed></extensions></trkpt>
   <trkpt lat="59.3028845939" lon="34.6632100769"><ele>164.083</ele><time>2026-08-16T13:56:01.780Z</time><hdop>3.0</hdop><vdop>2.5</vdop><extensions><gom:speed>1.136</gom:speed></extensions></trkpt>
   <trkpt lat="59.302880361" lon="34.6631875295"><ele>164.026</ele><time>2026-08-16T13:56:02.783Z</time><hdop>3.0</hdop><vdop>2.5</vdop><extensions><gom:speed>1.125</gom:speed></extensions></trkpt>
   <trkpt lat="59.3028776788" lon="34.6631678321"><ele>164.097</ele><time>2026-08-16T13:56:03.725Z</time><hdop>3.0</hdop><vdop>2.5</vdop><extensions><gom:speed>1.03</gom:speed></extensions></trkpt>
   <trkpt lat="59.3028757929" lon="34.6631580252"><ele>164.365</ele><time>2026-08-16T13:56:04.265Z</time><hdop>3.0</hdop><vdop>2.5</vdop><extensions><gom:speed>1.017</gom:speed></extensions></trkpt>
   <trkpt lat="59.3028714762" lon="34.6631432731"><ele>164.526</ele><time>2026-08-16T13:56:05.148Z</time><hdop>3.0</hdop><vdop>2.5</vdop><extensions><gom:speed>1.013</gom:speed></extensions></trkpt>
   <trkpt lat="59.3028654831" lon="34.6631342206"><ele>164.735</ele><time>2026-08-16T13:56:05.963Z</time><hdop>3.0</hdop><vdop>2.5</vdop><extensions><gom:speed>0.99</gom:speed></extensions></trkpt>
   <trkpt lat="59.3028608731" lon="34.6631244976"><ele>164.93</ele><time>2026-08-16T13:56:06.727Z</time><hdop>3.0</hdop><vdop>2.5</vdop><extensions><gom:speed>1.004</gom:speed></extensions></trkpt>
   <trkpt lat="59.3028591967" lon="34.6631174568"><ele>165.735</ele><time>2026-08-16T13:56:07.288Z</time><hdop>3.0</hdop><vdop>2.5</vdop><extensions><gom:speed>0.96</gom:speed></extensions></trkpt>
   <trkpt lat="59.3028584842" lon="34.6631088235"><ele>166.209</ele><time>2026-08-16T13:56:08.138Z</time><hdop>3.0</hdop><vdop>2.5</vdop><extensions><gom:speed>0.739</gom:speed></extensions></trkpt>
   <trkpt lat="59.3028611664" lon="34.6631017827"><ele>166.433</ele><time>2026-08-16T13:56:09.138Z</time><hdop>3.0</hdop><vdop>2.5</vdop><extensions><gom:speed>0.561</gom:speed></extensions></trkpt>
   <trkpt lat="59.3028640582" lon="34.663096083"><ele>166.566</ele><time>2026-08-16T13:56:10.144Z</time><hdop>3.0</hdop><vdop>2.5</vdop><extensions><gom:speed>0.488</gom:speed></extensions></trkpt>
   <trkpt lat="59.3028653993" lon="34.6631016988"><ele>166.689</ele><time>2026-08-16T13:56:11.138Z</time><hdop>3.0</hdop><vdop>2.5</vdop><extensions><gom:speed>0.205</gom:speed></extensions></trkpt>
   <trkpt lat="59.3028662794" lon="34.6631016988"><ele>166.748</ele><time>2026-08-16T13:56:12.138Z</time><hdop>3.0</hdop><vdop>2.5</vdop><extensions><gom:speed>0.106</gom:speed></extensions></trkpt>
   <trkpt lat="59.3028670757" lon="34.6631008607"><ele>166.772</ele><time>2026-08-16T13:56:13.138Z</time><hdop>3.0</hdop><vdop>2.5</vdop><extensions><gom:speed>0.035</gom:speed></extensions></trkpt>
   <trkpt lat="59.3028669919" lon="34.6630991843"><ele>166.764</ele><time>2026-08-16T13:56:14.138Z</time><hdop>3.0</hdop><vdop>2.5</vdop><extensions><gom:speed>0.043</gom:speed></extensions></trkpt>
   <trkpt lat="59.3028670757" lon="34.6630975917"><ele>166.761</ele><time>2026-08-16T13:56:15.138Z</time><hdop>3.0</hdop><vdop>2.5</vdop><extensions><gom:speed>0.032</gom:speed></extensions></trkpt>
   <trkpt lat="59.3028665728" lon="34.6630973403"><ele>166.849</ele><time>2026-08-16T13:56:16.138Z</time><hdop>3.0</hdop><vdop>2.5</vdop><extensions><gom:speed>0.108</gom:speed></extensions></trkpt>
   <trkpt lat="59.3028654831" lon="34.6630980946"><ele>166.648</ele><time>2026-08-16T13:56:17.138Z</time><hdop>3.0</hdop><vdop>2.5</vdop><extensions><gom:speed>0.09</gom:speed></extensions></trkpt>
   <trkpt lat="59.3028649802" lon="34.6630986814"><ele>166.528</ele><time>2026-08-16T13:56:18.045Z</time><hdop>3.0</hdop><vdop>2.5</vdop><extensions><gom:speed>0.141</gom:speed></extensions></trkpt>
   <trkpt lat="59.3028637648" lon="34.663099771"><ele>166.346</ele><time>2026-08-16T13:56:19.138Z</time><hdop>3.0</hdop><vdop>2.5</vdop><extensions><gom:speed>0.212</gom:speed></extensions></trkpt>
   <trkpt lat="59.3028634715" lon="34.6631004416"><ele>166.286</ele><time>2026-08-16T13:56:20.138Z</time><hdop>3.0</hdop><vdop>2.5</vdop><extensions><gom:speed>0.179</gom:speed></extensions></trkpt>
   <trkpt lat="59.3028634715" lon="34.6631009445"><ele>166.25</ele><time>2026-08-16T13:56:20.803Z</time><hdop>3.0</hdop><vdop>2.5</vdop><extensions><gom:speed>0.198</gom:speed></extensions></trkpt>
   <trkpt lat="59.3028640582" lon="34.6631041296"><ele>166.322</ele><time>2026-08-16T13:56:21.667Z</time><hdop>3.0</hdop><vdop>2.5</vdop><extensions><gom:speed>0.313</gom:speed></extensions></trkpt>
   <trkpt lat="59.3028637648" lon="34.6631045487"><ele>166.399</ele><time>2026-08-16T13:56:22.138Z</time><hdop>3.0</hdop><vdop>2.5</vdop><extensions><gom:speed>0.334</gom:speed></extensions></trkpt>
   <trkpt lat="59.3028619627" lon="34.6630954962"><ele>166.421</ele><time>2026-08-16T13:56:23.138Z</time><hdop>3.0</hdop><vdop>2.5</vdop><extensions><gom:speed>0.697</gom:speed></extensions></trkpt>
   <trkpt lat="59.3028603702" lon="34.6630904671"><ele>166.435</ele><time>2026-08-16T13:56:23.679Z</time><hdop>3.062</hdop><vdop>2.5</vdop><extensions><gom:speed>0.726</gom:speed></extensions></trkpt>
   <trkpt lat="59.3028541676" lon="34.6630832587"><ele>166.608</ele><time>2026-08-16T13:56:24.138Z</time><hdop>3.125</hdop><vdop>2.5</vdop><extensions><gom:speed>0.87</gom:speed></extensions></trkpt>
   <trkpt lat="59.3028413851" lon="34.6630723622"><ele>166.772</ele><time>2026-08-16T13:56:25.138Z</time><hdop>3.187</hdop><vdop>2.5</vdop><extensions><gom:speed>1.008</gom:speed></extensions></trkpt>
   <trkpt lat="59.302832668" lon="34.6630615495"><ele>166.87</ele><time>2026-08-16T13:56:25.966Z</time><hdop>3.375</hdop><vdop>2.5</vdop><extensions><gom:speed>1.062</gom:speed></extensions></trkpt>
   <trkpt lat="59.3028265911" lon="34.6630564366"><ele>167.119</ele><time>2026-08-16T13:56:26.467Z</time><hdop>3.437</hdop><vdop>2.5</vdop><extensions><gom:speed>1.017</gom:speed></extensions></trkpt>
   <trkpt lat="59.3028202628" lon="34.6630509883"><ele>167.25</ele><time>2026-08-16T13:56:27.138Z</time><hdop>3.437</hdop><vdop>2.5</vdop><extensions><gom:speed>1.045</gom:speed></extensions></trkpt>
   <trkpt lat="59.3028102883" lon="34.663046043"><ele>167.448</ele><time>2026-08-16T13:56:28.138Z</time><hdop>3.437</hdop><vdop>2.5</vdop><extensions><gom:speed>1.059</gom:speed></extensions></trkpt>
   <trkpt lat="59.3028010682" lon="34.6630366553"><ele>167.566</ele><time>2026-08-16T13:56:29.106Z</time><hdop>3.375</hdop><vdop>2.5</vdop><extensions><gom:speed>1.086</gom:speed></extensions></trkpt>
   <trkpt lat="59.3027972963" lon="34.6630319614"><ele>167.671</ele><time>2026-08-16T13:56:29.647Z</time><hdop>3.25</hdop><vdop>2.5</vdop><extensions><gom:speed>1.046</gom:speed></extensions></trkpt>
   <trkpt lat="59.3027936921" lon="34.663029363"><ele>167.658</ele><time>2026-08-16T13:56:30.138Z</time><hdop>3.187</hdop><vdop>2.5</vdop><extensions><gom:speed>1.051</gom:speed></extensions></trkpt>
   <trkpt lat="59.302788663" lon="34.6630274352"><ele>167.651</ele><time>2026-08-16T13:56:30.648Z</time><hdop>3.187</hdop><vdop>2.5</vdop><extensions><gom:speed>1.048</gom:speed></extensions></trkpt>
   <trkpt lat="59.3027838853" lon="34.6630317938"><ele>167.549</ele><time>2026-08-16T13:56:31.138Z</time><hdop>3.062</hdop><vdop>2.5</vdop><extensions><gom:speed>1.026</gom:speed></extensions></trkpt>
   <trkpt lat="59.3027785628" lon="34.6630357333"><ele>167.487</ele><time>2026-08-16T13:56:31.668Z</time><hdop>3.0</hdop><vdop>2.5</vdop><extensions><gom:speed>1.012</gom:speed></extensions></trkpt>
   <trkpt lat="59.3027748747" lon="34.6630413491"><ele>167.314</ele><time>2026-08-16T13:56:32.138Z</time><hdop>3.0</hdop><vdop>2.5</vdop><extensions><gom:speed>0.988</gom:speed></extensions></trkpt>
   <trkpt lat="59.3027673729" lon="34.6630507369"><ele>167.304</ele><time>2026-08-16T13:56:33.138Z</time><hdop>3.0</hdop><vdop>2.5</vdop><extensions><gom:speed>0.969</gom:speed></extensions></trkpt>
   <trkpt lat="59.3027615894" lon="34.663051156"><ele>167.299</ele><time>2026-08-16T13:56:34.084Z</time><hdop>3.0</hdop><vdop>2.5</vdop><extensions><gom:speed>0.898</gom:speed></extensions></trkpt>
   <trkpt lat="59.3027611703" lon="34.6630547602"><ele>167.303</ele><time>2026-08-16T13:56:34.742Z</time><hdop>3.0</hdop><vdop>2.5</vdop><extensions><gom:speed>0.929</gom:speed></extensions></trkpt>
   <trkpt lat="59.3027582786" lon="34.6630650699"><ele>167.422</ele><time>2026-08-16T13:56:35.469Z</time><hdop>3.062</hdop><vdop>2.5</vdop><extensions><gom:speed>1.025</gom:speed></extensions></trkpt>
   <trkpt lat="59.3027558897" lon="34.6630699314"><ele>167.493</ele><time>2026-08-16T13:56:36.028Z</time><hdop>3.25</hdop><vdop>2.5</vdop><extensions><gom:speed>1.045</gom:speed></extensions></trkpt>
   <trkpt lat="59.3027468792" lon="34.66308636"><ele>167.411</ele><time>2026-08-16T13:56:36.961Z</time><hdop>3.437</hdop><vdop>2.5</vdop><extensions><gom:speed>1.077</gom:speed></extensions></trkpt>
   <trkpt lat="59.3027407604" lon="34.6630944904"><ele>167.323</ele><time>2026-08-16T13:56:37.422Z</time><hdop>3.5</hdop><vdop>2.5</vdop><extensions><gom:speed>1.053</gom:speed></extensions></trkpt>
   <trkpt lat="59.3027331748" lon="34.6631029561"><ele>167.17</ele><time>2026-08-16T13:56:38.138Z</time><hdop>3.562</hdop><vdop>2.5</vdop><extensions><gom:speed>1.055</gom:speed></extensions></trkpt>
   <trkpt lat="59.3027259663" lon="34.6631109189"><ele>167.079</ele><time>2026-08-16T13:56:38.865Z</time><hdop>3.625</hdop><vdop>2.5</vdop><extensions><gom:speed>1.056</gom:speed></extensions></trkpt>
   <trkpt lat="59.3027151956" lon="34.663120139"><ele>166.716</ele><time>2026-08-16T13:56:40.082Z</time><hdop>3.625</hdop><vdop>2.5</vdop><extensions><gom:speed>0.981</gom:speed></extensions></trkpt>
   <trkpt lat="59.3027083643" lon="34.6631234918"><ele>166.524</ele><time>2026-08-16T13:56:41.005Z</time><hdop>3.562</hdop><vdop>2.5</vdop><extensions><gom:speed>1.194</gom:speed></extensions></trkpt>
   <trkpt lat="59.3027054726" lon="34.6631244976"><ele>166.425</ele><time>2026-08-16T13:56:42.025Z</time><hdop>3.25</hdop><vdop>2.5</vdop><extensions><gom:speed>1.149</gom:speed></extensions></trkpt>
   <trkpt lat="59.3026997729" lon="34.6631183788"><ele>166.199</ele><time>2026-08-16T13:56:42.840Z</time><hdop>3.25</hdop><vdop>2.5</vdop><extensions><gom:speed>0.981</gom:speed></extensions></trkpt>
   <trkpt lat="59.3026829672" lon="34.6631084882"><ele>165.943</ele><time>2026-08-16T13:56:44.138Z</time><hdop>3.25</hdop><vdop>2.5</vdop><extensions><gom:speed>1.003</gom:speed></extensions></trkpt>
   <trkpt lat="59.3026763874" lon="34.663103962"><ele>165.789</ele><time>2026-08-16T13:56:44.744Z</time><hdop>3.312</hdop><vdop>2.5</vdop><extensions><gom:speed>1.004</gom:speed></extensions></trkpt>
   <trkpt lat="59.3026677959" lon="34.6631014474"><ele>165.619</ele><time>2026-08-16T13:56:45.480Z</time><hdop>3.312</hdop><vdop>2.5</vdop><extensions><gom:speed>1.011</gom:speed></extensions></trkpt>
   <trkpt lat="59.3026611742" lon="34.6630999386"><ele>165.447</ele><time>2026-08-16T13:56:46.138Z</time><hdop>3.375</hdop><vdop>2.5</vdop><extensions><gom:speed>0.976</gom:speed></extensions></trkpt>
   <trkpt lat="59.3026540915" lon="34.6630984299"><ele>165.344</ele><time>2026-08-16T13:56:46.864Z</time><hdop>3.375</hdop><vdop>2.5</vdop><extensions><gom:speed>0.974</gom:speed></extensions></trkpt>
   <trkpt lat="59.3026429855" lon="34.6631009445"><ele>165.305</ele><time>2026-08-16T13:56:48.138Z</time><hdop>3.187</hdop><vdop>2.5</vdop><extensions><gom:speed>0.927</gom:speed></extensions></trkpt>
   <trkpt lat="59.3026352741" lon="34.6631003577"><ele>165.281</ele><time>2026-08-16T13:56:48.984Z</time><hdop>3.187</hdop><vdop>2.5</vdop><extensions><gom:speed>0.944</gom:speed></extensions></trkpt>
   <trkpt lat="59.3026304965" lon="34.6631024532"><ele>165.32</ele><time>2026-08-16T13:56:49.603Z</time><hdop>3.125</hdop><vdop>2.5</vdop><extensions><gom:speed>0.943</gom:speed></extensions></trkpt>
   <trkpt lat="59.3026263893" lon="34.6631031238"><ele>165.271</ele><time>2026-08-16T13:56:50.138Z</time><hdop>3.062</hdop><vdop>2.5</vdop><extensions><gom:speed>0.948</gom:speed></extensions></trkpt>
   <trkpt lat="59.3026228689" lon="34.663100693"><ele>165.242</ele><time>2026-08-16T13:56:50.604Z</time><hdop>3.0</hdop><vdop>2.5</vdop><extensions><gom:speed>0.94</gom:speed></extensions></trkpt>
   <trkpt lat="59.3026187618" lon="34.6630990166"><ele>165.147</ele><time>2026-08-16T13:56:51.138Z</time><hdop>3.0</hdop><vdop>2.5</vdop><extensions><gom:speed>0.979</gom:speed></extensions></trkpt>
   <trkpt lat="59.3026139841" lon="34.6630982623"><ele>165.09</ele><time>2026-08-16T13:56:51.644Z</time><hdop>3.0</hdop><vdop>2.5</vdop><extensions><gom:speed>0.98</gom:speed></extensions></trkpt>
   <trkpt lat="59.302609877" lon="34.6630978432"><ele>164.92</ele><time>2026-08-16T13:56:52.138Z</time><hdop>3.0</hdop><vdop>2.5</vdop><extensions><gom:speed>0.992</gom:speed></extensions></trkpt>
   <trkpt lat="59.3026050993" lon="34.6630956639"><ele>164.818</ele><time>2026-08-16T13:56:52.685Z</time><hdop>3.0</hdop><vdop>2.5</vdop><extensions><gom:speed>0.993</gom:speed></extensions></trkpt>
   <trkpt lat="59.3026008664" lon="34.663094658"><ele>164.487</ele><time>2026-08-16T13:56:53.138Z</time><hdop>3.0</hdop><vdop>2.5</vdop><extensions><gom:speed>1.011</gom:speed></extensions></trkpt>
   <trkpt lat="59.3025956697" lon="34.6630957477"><ele>164.289</ele><time>2026-08-16T13:56:53.647Z</time><hdop>3.0</hdop><vdop>2.5</vdop><extensions><gom:speed>1.011</gom:speed></extensions></trkpt>
   <trkpt lat="59.3025916883" lon="34.6631000225"><ele>164.353</ele><time>2026-08-16T13:56:54.138Z</time><hdop>3.0</hdop><vdop>2.5</vdop><extensions><gom:speed>0.969</gom:speed></extensions></trkpt>
   <trkpt lat="59.3025844798" lon="34.6631079853"><ele>164.357</ele><time>2026-08-16T13:56:55.138Z</time><hdop>3.0</hdop><vdop>2.5</vdop><extensions><gom:speed>0.935</gom:speed></extensions></trkpt>
   <trkpt lat="59.3025790735" lon="34.6631101646"><ele>164.359</ele><time>2026-08-16T13:56:55.806Z</time><hdop>3.0</hdop><vdop>2.5</vdop><extensions><gom:speed>0.948</gom:speed></extensions></trkpt>
   <trkpt lat="59.3025727871" lon="34.6631111704"><ele>164.612</ele><time>2026-08-16T13:56:56.522Z</time><hdop>3.0</hdop><vdop>2.5</vdop><extensions><gom:speed>0.95</gom:speed></extensions></trkpt>
   <trkpt lat="59.3025672969" lon="34.6631105837"><ele>164.818</ele><time>2026-08-16T13:56:57.138Z</time><hdop>3.0</hdop><vdop>2.5</vdop><extensions><gom:speed>0.939</gom:speed></extensions></trkpt>
   <trkpt lat="59.3025609686" lon="34.6631090749"><ele>164.941</ele><time>2026-08-16T13:56:57.808Z</time><hdop>3.0</hdop><vdop>2.5</vdop><extensions><gom:speed>0.934</gom:speed></extensions></trkpt>
   <trkpt lat="59.3025535925" lon="34.6631091587"><ele>165.016</ele><time>2026-08-16T13:56:58.681Z</time><hdop>3.0</hdop><vdop>2.5</vdop><extensions><gom:speed>0.921</gom:speed></extensions></trkpt>
   <trkpt lat="59.3025504912" lon="34.6631125953"><ele>165.009</ele><time>2026-08-16T13:56:59.138Z</time><hdop>3.0</hdop><vdop>2.5</vdop><extensions><gom:speed>0.93</gom:speed></extensions></trkpt>
   <trkpt lat="59.3025444981" lon="34.6631194685"><ele>165.005</ele><time>2026-08-16T13:56:59.879Z</time><hdop>3.0</hdop><vdop>2.5</vdop><extensions><gom:speed>0.922</gom:speed></extensions></trkpt>
   <trkpt lat="59.3025384632" lon="34.6631327957"><ele>165.041</ele><time>2026-08-16T13:57:00.822Z</time><hdop>3.0</hdop><vdop>2.5</vdop><extensions><gom:speed>0.961</gom:speed></extensions></trkpt>
   <trkpt lat="59.3025333921" lon="34.6631439436"><ele>165.245</ele><time>2026-08-16T13:57:01.646Z</time><hdop>3.0</hdop><vdop>2.5</vdop><extensions><gom:speed>0.956</gom:speed></extensions></trkpt>
   <trkpt lat="59.3025299974" lon="34.6631484699"><ele>165.466</ele><time>2026-08-16T13:57:02.138Z</time><hdop>3.0</hdop><vdop>2.5</vdop><extensions><gom:speed>0.959</gom:speed></extensions></trkpt>
   <trkpt lat="59.302521867" lon="34.663155343"><ele>165.598</ele><time>2026-08-16T13:57:03.089Z</time><hdop>3.0</hdop><vdop>2.5</vdop><extensions><gom:speed>0.964</gom:speed></extensions></trkpt>
   <trkpt lat="59.3025164607" lon="34.6631575223"><ele>165.629</ele><time>2026-08-16T13:57:03.766Z</time><hdop>3.0</hdop><vdop>2.5</vdop><extensions><gom:speed>0.964</gom:speed></extensions></trkpt>
   <trkpt lat="59.3025118925" lon="34.6631629706"><ele>165.743</ele><time>2026-08-16T13:57:04.522Z</time><hdop>3.0</hdop><vdop>2.5</vdop><extensions><gom:speed>0.936</gom:speed></extensions></trkpt>
   <trkpt lat="59.3025079949" lon="34.6631678321"><ele>165.811</ele><time>2026-08-16T13:57:05.062Z</time><hdop>3.0</hdop><vdop>2.5</vdop><extensions><gom:speed>0.913</gom:speed></extensions></trkpt>
   <trkpt lat="59.3025040974" lon="34.6631762978"><ele>165.966</ele><time>2026-08-16T13:57:05.827Z</time><hdop>3.0</hdop><vdop>2.5</vdop><extensions><gom:speed>0.917</gom:speed></extensions></trkpt>
   <trkpt lat="59.3025011637" lon="34.6631822489"><ele>166.051</ele><time>2026-08-16T13:57:06.366Z</time><hdop>3.0</hdop><vdop>2.5</vdop><extensions><gom:speed>0.979</gom:speed></extensions></trkpt>
   <trkpt lat="59.3024956736" lon="34.6631887868"><ele>166.135</ele><time>2026-08-16T13:57:07.138Z</time><hdop>3.0</hdop><vdop>2.5</vdop><extensions><gom:speed>1.006</gom:speed></extensions></trkpt>
   <trkpt lat="59.3024905606" lon="34.6631922234"><ele>166.186</ele><time>2026-08-16T13:57:07.702Z</time><hdop>3.0</hdop><vdop>2.5</vdop><extensions><gom:speed>1.0</gom:speed></extensions></trkpt>
   <trkpt lat="59.3024836874" lon="34.6631957438"><ele>166.253</ele><time>2026-08-16T13:57:08.527Z</time><hdop>3.0</hdop><vdop>2.5</vdop><extensions><gom:speed>1.032</gom:speed></extensions></trkpt>
   <trkpt lat="59.3024788678" lon="34.6631981745"><ele>166.293</ele><time>2026-08-16T13:57:09.047Z</time><hdop>3.0</hdop><vdop>2.5</vdop><extensions><gom:speed>0.982</gom:speed></extensions></trkpt>
   <trkpt lat="59.3024726652" lon="34.6632023655"><ele>166.212</ele><time>2026-08-16T13:57:09.901Z</time><hdop>3.0</hdop><vdop>2.5</vdop><extensions><gom:speed>0.96</gom:speed></extensions></trkpt>
   <trkpt lat="59.3024687676" lon="34.6632047963"><ele>166.099</ele><time>2026-08-16T13:57:10.529Z</time><hdop>3.0</hdop><vdop>2.5</vdop><extensions><gom:speed>0.92</gom:speed></extensions></trkpt>
   <trkpt lat="59.3024644929" lon="34.6632069755"><ele>166.025</ele><time>2026-08-16T13:57:11.138Z</time><hdop>3.0</hdop><vdop>2.5</vdop><extensions><gom:speed>0.864</gom:speed></extensions></trkpt>
   <trkpt lat="59.3024600924" lon="34.6632105798"><ele>165.981</ele><time>2026-08-16T13:57:11.726Z</time><hdop>3.0</hdop><vdop>2.5</vdop><extensions><gom:speed>0.855</gom:speed></extensions></trkpt>
   <trkpt lat="59.302451459" lon="34.6632172853"><ele>165.927</ele><time>2026-08-16T13:57:13.042Z</time><hdop>3.0</hdop><vdop>2.5</vdop><extensions><gom:speed>0.768</gom:speed></extensions></trkpt>
   <trkpt lat="59.302446388" lon="34.6632196322"><ele>165.745</ele><time>2026-08-16T13:57:14.138Z</time><hdop>3.0</hdop><vdop>2.5</vdop><extensions><gom:speed>0.651</gom:speed></extensions></trkpt>
   <trkpt lat="59.3024411912" lon="34.6632215601"><ele>165.716</ele><time>2026-08-16T13:57:15.138Z</time><hdop>3.0</hdop><vdop>2.5</vdop><extensions><gom:speed>0.721</gom:speed></extensions></trkpt>
   <trkpt lat="59.3024377965" lon="34.663225751"><ele>165.698</ele><time>2026-08-16T13:57:15.720Z</time><hdop>3.0</hdop><vdop>2.5</vdop><extensions><gom:speed>0.729</gom:speed></extensions></trkpt>
   <trkpt lat="59.3024343599" lon="34.6632319536"><ele>165.601</ele><time>2026-08-16T13:57:16.585Z</time><hdop>3.0</hdop><vdop>2.5</vdop><extensions><gom:speed>0.69</gom:speed></extensions></trkpt>
   <trkpt lat="59.3024309653" lon="34.6632339653"><ele>165.542</ele><time>2026-08-16T13:57:17.066Z</time><hdop>3.0</hdop><vdop>2.5</vdop><extensions><gom:speed>0.737</gom:speed></extensions></trkpt>
   <trkpt lat="59.3024225834" lon="34.6632351387"><ele>165.57</ele><time>2026-08-16T13:57:18.008Z</time><hdop>3.0</hdop><vdop>2.5</vdop><extensions><gom:speed>0.884</gom:speed></extensions></trkpt>
   <trkpt lat="59.302418099" lon="34.6632370666"><ele>165.576</ele><time>2026-08-16T13:57:18.479Z</time><hdop>3.0</hdop><vdop>2.5</vdop><extensions><gom:speed>0.931</gom:speed></extensions></trkpt>
   <trkpt lat="59.3024123993" lon="34.6632412575"><ele>165.583</ele><time>2026-08-16T13:57:19.138Z</time><hdop>3.0</hdop><vdop>2.5</vdop><extensions><gom:speed>0.958</gom:speed></extensions></trkpt>
   <trkpt lat="59.3024065739" lon="34.6632468734"><ele>165.588</ele><time>2026-08-16T13:57:19.804Z</time><hdop>3.0</hdop><vdop>2.5</vdop><extensions><gom:speed>0.95</gom:speed></extensions></trkpt>
   <trkpt lat="59.3023994912" lon="34.6632536627"><ele>165.792</ele><time>2026-08-16T13:57:20.599Z</time><hdop>3.0</hdop><vdop>2.5</vdop><extensions><gom:speed>0.987</gom:speed></extensions></trkpt>
   <trkpt lat="59.3023946716" lon="34.6632557582"><ele>165.913</ele><time>2026-08-16T13:57:21.061Z</time><hdop>3.0</hdop><vdop>2.5</vdop><extensions><gom:speed>0.971</gom:speed></extensions></trkpt>
   <trkpt lat="59.3023869603" lon="34.6632621285"><ele>166.132</ele><time>2026-08-16T13:57:21.826Z</time><hdop>3.0</hdop><vdop>2.5</vdop><extensions><gom:speed>1.018</gom:speed></extensions></trkpt>
   <trkpt lat="59.302381973" lon="34.6632657327"><ele>166.314</ele><time>2026-08-16T13:57:22.405Z</time><hdop>3.0</hdop><vdop>2.5</vdop><extensions><gom:speed>0.956</gom:speed></extensions></trkpt>
   <trkpt lat="59.3023758962" lon="34.6632671576"><ele>166.51</ele><time>2026-08-16T13:57:23.138Z</time><hdop>3.0</hdop><vdop>2.5</vdop><extensions><gom:speed>0.88</gom:speed></extensions></trkpt>
   <trkpt lat="59.3023697774" lon="34.6632647269"><ele>166.627</ele><time>2026-08-16T13:57:23.887Z</time><hdop>3.0</hdop><vdop>2.5</vdop><extensions><gom:speed>0.865</gom:speed></extensions></trkpt>
   <trkpt lat="59.302364371" lon="34.6632610388"><ele>166.753</ele><time>2026-08-16T13:57:24.584Z</time><hdop>3.0</hdop><vdop>2.5</vdop><extensions><gom:speed>0.89</gom:speed></extensions></trkpt>
   <trkpt lat="59.3023601801" lon="34.6632571831"><ele>166.828</ele><time>2026-08-16T13:57:25.085Z</time><hdop>3.0</hdop><vdop>2.5</vdop><extensions><gom:speed>0.923</gom:speed></extensions></trkpt>
   <trkpt lat="59.3023524687" lon="34.6632537466"><ele>167.062</ele><time>2026-08-16T13:57:26.138Z</time><hdop>3.0</hdop><vdop>2.5</vdop><extensions><gom:speed>0.873</gom:speed></extensions></trkpt>
   <trkpt lat="59.3023464757" lon="34.6632561773"><ele>167.202</ele><time>2026-08-16T13:57:26.821Z</time><hdop>3.0</hdop><vdop>2.5</vdop><extensions><gom:speed>0.863</gom:speed></extensions></trkpt>
   <trkpt lat="59.3023392672" lon="34.6632681634"><ele>167.313</ele><time>2026-08-16T13:57:27.823Z</time><hdop>3.0</hdop><vdop>2.5</vdop><extensions><gom:speed>0.88</gom:speed></extensions></trkpt>
   <trkpt lat="59.302329167" lon="34.663277635"><ele>167.527</ele><time>2026-08-16T13:57:28.903Z</time><hdop>3.0</hdop><vdop>2.5</vdop><extensions><gom:speed>0.922</gom:speed></extensions></trkpt>
   <trkpt lat="59.3023207851" lon="34.6632802334"><ele>167.689</ele><time>2026-08-16T13:57:29.747Z</time><hdop>3.0</hdop><vdop>2.5</vdop><extensions><gom:speed>0.91</gom:speed></extensions></trkpt>
   <trkpt lat="59.3023151693" lon="34.6632820774"><ele>167.525</ele><time>2026-08-16T13:57:30.287Z</time><hdop>3.0</hdop><vdop>2.5</vdop><extensions><gom:speed>0.943</gom:speed></extensions></trkpt>
   <trkpt lat="59.30230926" lon="34.6632858493"><ele>167.427</ele><time>2026-08-16T13:57:31.062Z</time><hdop>3.0</hdop><vdop>2.5</vdop><extensions><gom:speed>0.843</gom:speed></extensions></trkpt>
   <trkpt lat="59.3023057815" lon="34.6632962428"><ele>167.239</ele><time>2026-08-16T13:57:32.138Z</time><hdop>3.0</hdop><vdop>2.5</vdop><extensions><gom:speed>0.729</gom:speed></extensions></trkpt>
   <trkpt lat="59.3023012972" lon="34.6633029483"><ele>166.974</ele><time>2026-08-16T13:57:33.138Z</time><hdop>3.0</hdop><vdop>2.5</vdop><extensions><gom:speed>0.751</gom:speed></extensions></trkpt>
   <trkpt lat="59.3022949689" lon="34.6633070555"><ele>166.816</ele><time>2026-08-16T13:57:33.968Z</time><hdop>3.0</hdop><vdop>2.5</vdop><extensions><gom:speed>0.818</gom:speed></extensions></trkpt>
   <trkpt lat="59.3022891854" lon="34.6633115817"><ele>166.551</ele><time>2026-08-16T13:57:34.743Z</time><hdop>3.0</hdop><vdop>2.5</vdop><extensions><gom:speed>0.874</gom:speed></extensions></trkpt>
   <trkpt lat="59.302284282" lon="34.6633151859"><ele>166.165</ele><time>2026-08-16T13:57:35.479Z</time><hdop>3.0</hdop><vdop>2.5</vdop><extensions><gom:speed>0.905</gom:speed></extensions></trkpt>
   <trkpt lat="59.3022801748" lon="34.6633147668"><ele>165.977</ele><time>2026-08-16T13:57:36.138Z</time><hdop>3.0</hdop><vdop>2.5</vdop><extensions><gom:speed>0.856</gom:speed></extensions></trkpt>
   <trkpt lat="59.3022767802" lon="34.663313761"><ele>165.865</ele><time>2026-08-16T13:57:36.608Z</time><hdop>3.0</hdop><vdop>2.5</vdop><extensions><gom:speed>0.853</gom:speed></extensions></trkpt>
   <trkpt lat="59.3022725892" lon="34.6633112464"><ele>165.773</ele><time>2026-08-16T13:57:37.138Z</time><hdop>3.0</hdop><vdop>2.5</vdop><extensions><gom:speed>0.958</gom:speed></extensions></trkpt>
   <trkpt lat="59.3022669733" lon="34.6633116655"><ele>165.719</ele><time>2026-08-16T13:57:37.747Z</time><hdop>3.0</hdop><vdop>2.5</vdop><extensions><gom:speed>0.957</gom:speed></extensions></trkpt>
   <trkpt lat="59.3022516764" lon="34.6633189578"><ele>165.734</ele><time>2026-08-16T13:57:39.137Z</time><hdop>3.0</hdop><vdop>2.5</vdop><extensions><gom:speed>1.146</gom:speed></extensions></trkpt>
   <trkpt lat="59.3022423724" lon="34.6633206342"><ele>165.743</ele><time>2026-08-16T13:57:40.043Z</time><hdop>3.0</hdop><vdop>2.5</vdop><extensions><gom:speed>0.99</gom:speed></extensions></trkpt>
   <trkpt lat="59.3022312664" lon="34.6633201312"><ele>165.076</ele><time>2026-08-16T13:57:40.868Z</time><hdop>3.0</hdop><vdop>2.5</vdop><extensions><gom:speed>1.115</gom:speed></extensions></trkpt>
   <trkpt lat="59.3022186936" lon="34.6633255795"><ele>164.663</ele><time>2026-08-16T13:57:41.889Z</time><hdop>3.0</hdop><vdop>2.5</vdop><extensions><gom:speed>1.153</gom:speed></extensions></trkpt>
   <trkpt lat="59.302202265" lon="34.6633268368"><ele>163.742</ele><time>2026-08-16T13:57:43.138Z</time><hdop>3.0</hdop><vdop>2.5</vdop><extensions><gom:speed>1.181</gom:speed></extensions></trkpt>
   <trkpt lat="59.3021925839" lon="34.6633237355"><ele>163.191</ele><time>2026-08-16T13:57:44.028Z</time><hdop>3.0</hdop><vdop>2.5</vdop><extensions><gom:speed>1.059</gom:speed></extensions></trkpt>
   <trkpt lat="59.3021916619" lon="34.6633199636"><ele>162.902</ele><time>2026-08-16T13:57:44.647Z</time><hdop>3.0</hdop><vdop>2.5</vdop><extensions><gom:speed>0.85</gom:speed></extensions></trkpt>
   <trkpt lat="59.3021886863" lon="34.6633170299"><ele>162.811</ele><time>2026-08-16T13:57:45.138Z</time><hdop>3.0</hdop><vdop>2.5</vdop><extensions><gom:speed>0.895</gom:speed></extensions></trkpt>
   <trkpt lat="59.3021815617" lon="34.6633098215"><ele>162.757</ele><time>2026-08-16T13:57:46.129Z</time><hdop>3.0</hdop><vdop>2.5</vdop><extensions><gom:speed>0.859</gom:speed></extensions></trkpt>
   <trkpt lat="59.302177287" lon="34.6632971648"><ele>162.61</ele><time>2026-08-16T13:57:46.729Z</time><hdop>3.0</hdop><vdop>2.5</vdop><extensions><gom:speed>0.939</gom:speed></extensions></trkpt>
   <trkpt lat="59.3021733894" lon="34.6632791437"><ele>162.53</ele><time>2026-08-16T13:57:47.543Z</time><hdop>3.0</hdop><vdop>2.5</vdop><extensions><gom:speed>0.927</gom:speed></extensions></trkpt>
   <trkpt lat="59.302169869" lon="34.6632682473"><ele>162.456</ele><time>2026-08-16T13:57:48.138Z</time><hdop>3.0</hdop><vdop>2.5</vdop><extensions><gom:speed>0.939</gom:speed></extensions></trkpt>
   <trkpt lat="59.3021644626" lon="34.6632592786"><ele>162.411</ele><time>2026-08-16T13:57:48.849Z</time><hdop>3.0</hdop><vdop>2.5</vdop><extensions><gom:speed>0.945</gom:speed></extensions></trkpt>
   <trkpt lat="59.3021578829" lon="34.663249388"><ele>162.413</ele><time>2026-08-16T13:57:49.683Z</time><hdop>3.0</hdop><vdop>2.5</vdop><extensions><gom:speed>0.935</gom:speed></extensions></trkpt>
   <trkpt lat="59.3021555778" lon="34.6632455323"><ele>162.678</ele><time>2026-08-16T13:57:50.138Z</time><hdop>3.0</hdop><vdop>2.5</vdop><extensions><gom:speed>0.88</gom:speed></extensions></trkpt>
   <trkpt lat="59.3021539853" lon="34.6632404193"><ele>162.866</ele><time>2026-08-16T13:57:51.138Z</time><hdop>3.0</hdop><vdop>2.5</vdop><extensions><gom:speed>0.428</gom:speed></extensions></trkpt>
   <trkpt lat="59.3021555778" lon="34.6632364798"><ele>162.968</ele><time>2026-08-16T13:57:52.138Z</time><hdop>3.0</hdop><vdop>2.5</vdop><extensions><gom:speed>0.174</gom:speed></extensions></trkpt>
   <trkpt lat="59.302156877" lon="34.6632358931"><ele>162.986</ele><time>2026-08-16T13:57:53.138Z</time><hdop>3.0</hdop><vdop>2.5</vdop><extensions><gom:speed>0.149</gom:speed></extensions></trkpt>
   <trkpt lat="59.3021563741" lon="34.6632359769"><ele>162.996</ele><time>2026-08-16T13:57:53.885Z</time><hdop>3.0</hdop><vdop>2.5</vdop><extensions><gom:speed>0.171</gom:speed></extensions></trkpt>
   <trkpt lat="59.3021570866" lon="34.6632338815"><ele>163.077</ele><time>2026-08-16T13:57:55.138Z</time><hdop>3.0</hdop><vdop>2.5</vdop><extensions><gom:speed>0.058</gom:speed></extensions></trkpt>
   <trkpt lat="59.3021571704" lon="34.6632321213"><ele>163.114</ele><time>2026-08-16T13:57:56.137Z</time><hdop>3.0</hdop><vdop>2.5</vdop><extensions><gom:speed>0.048</gom:speed></extensions></trkpt>
   <trkpt lat="59.3021571704" lon="34.6632309478"><ele>163.093</ele><time>2026-08-16T13:57:57.138Z</time><hdop>3.0</hdop><vdop>2.5</vdop><extensions><gom:speed>0.041</gom:speed></extensions></trkpt>
   <trkpt lat="59.3021572961" lon="34.6632300258"><ele>163.066</ele><time>2026-08-16T13:57:58.138Z</time><hdop>3.0</hdop><vdop>2.5</vdop><extensions><gom:speed>0.069</gom:speed></extensions></trkpt>
   <trkpt lat="59.3021575895" lon="34.6632296905"><ele>163.032</ele><time>2026-08-16T13:57:59.138Z</time><hdop>3.0</hdop><vdop>2.5</vdop><extensions><gom:speed>0.029</gom:speed></extensions></trkpt>
   <trkpt lat="59.3021584696" lon="34.6632297743"><ele>162.989</ele><time>2026-08-16T13:58:00.138Z</time><hdop>3.0</hdop><vdop>2.5</vdop><extensions><gom:speed>0.017</gom:speed></extensions></trkpt>
   <trkpt lat="59.3021588887" lon="34.6632291876"><ele>162.962</ele><time>2026-08-16T13:58:01.138Z</time><hdop>3.0</hdop><vdop>2.5</vdop><extensions><gom:speed>0.009</gom:speed></extensions></trkpt>
   <trkpt lat="59.3021588887" lon="34.66322902"><ele>162.906</ele><time>2026-08-16T13:58:02.138Z</time><hdop>3.0</hdop><vdop>2.5</vdop><extensions><gom:speed>0.056</gom:speed></extensions></trkpt>
   <trkpt lat="59.3021590982" lon="34.6632292714"><ele>162.844</ele><time>2026-08-16T13:58:03.138Z</time><hdop>3.0</hdop><vdop>2.5</vdop><extensions><gom:speed>0.015</gom:speed></extensions></trkpt>
   <trkpt lat="59.302159182" lon="34.6632289361"><ele>162.751</ele><time>2026-08-16T13:58:04.138Z</time><hdop>3.0</hdop><vdop>2.5</vdop><extensions><gom:speed>0.018</gom:speed></extensions></trkpt>
   <trkpt lat="59.3021588887" lon="34.6632279303"><ele>162.669</ele><time>2026-08-16T13:58:05.138Z</time><hdop>3.0</hdop><vdop>2.5</vdop><extensions><gom:speed>0.061</gom:speed></extensions></trkpt>
   <trkpt lat="59.3021584696" lon="34.6632271759"><ele>162.596</ele><time>2026-08-16T13:58:06.138Z</time><hdop>3.0</hdop><vdop>2.5</vdop><extensions><gom:speed>0.058</gom:speed></extensions></trkpt>
   <trkpt lat="59.3021580924" lon="34.663227595"><ele>162.535</ele><time>2026-08-16T13:58:07.138Z</time><hdop>3.0</hdop><vdop>2.5</vdop><extensions><gom:speed>0.012</gom:speed></extensions></trkpt>
   <trkpt lat="59.3021576733" lon="34.6632276788"><ele>162.481</ele><time>2026-08-16T13:58:08.138Z</time><hdop>3.0</hdop><vdop>2.5</vdop><extensions><gom:speed>0.01</gom:speed></extensions></trkpt>
   <trkpt lat="59.3021570866" lon="34.6632280979"><ele>162.399</ele><time>2026-08-16T13:58:09.138Z</time><hdop>3.0</hdop><vdop>2.5</vdop><extensions><gom:speed>0.056</gom:speed></extensions></trkpt>
   <trkpt lat="59.3021561646" lon="34.6632286847"><ele>162.335</ele><time>2026-08-16T13:58:10.138Z</time><hdop>3.0</hdop><vdop>2.5</vdop><extensions><gom:speed>0.053</gom:speed></extensions></trkpt>
   <trkpt lat="59.3021555778" lon="34.6632287685"><ele>162.264</ele><time>2026-08-16T13:58:11.138Z</time><hdop>3.0</hdop><vdop>2.5</vdop><extensions><gom:speed>0.0</gom:speed></extensions></trkpt>
   <trkpt lat="59.302155494" lon="34.66322902"><ele>162.21</ele><time>2026-08-16T13:58:12.138Z</time><hdop>3.0</hdop><vdop>2.5</vdop><extensions><gom:speed>0.015</gom:speed></extensions></trkpt>
   <trkpt lat="59.3021551587" lon="34.66322902"><ele>162.176</ele><time>2026-08-16T13:58:13.138Z</time><hdop>3.0</hdop><vdop>2.5</vdop><extensions><gom:speed>0.026</gom:speed></extensions></trkpt>
   <trkpt lat="59.3021549911" lon="34.6632291876"><ele>162.158</ele><time>2026-08-16T13:58:14.138Z</time><hdop>3.0</hdop><vdop>2.5</vdop><extensions><gom:speed>0.034</gom:speed></extensions></trkpt>
   <trkpt lat="59.3021546977" lon="34.6632291876"><ele>162.152</ele><time>2026-08-16T13:58:15.138Z</time><hdop>3.0</hdop><vdop>2.5</vdop><extensions><gom:speed>0.04</gom:speed></extensions></trkpt>
   <trkpt lat="59.3021543625" lon="34.6632292714"><ele>162.13</ele><time>2026-08-16T13:58:16.138Z</time><hdop>3.0</hdop><vdop>2.5</vdop><extensions><gom:speed>0.046</gom:speed></extensions></trkpt>
   <trkpt lat="59.3021541948" lon="34.6632293552"><ele>162.105</ele><time>2026-08-16T13:58:17.138Z</time><hdop>3.0</hdop><vdop>2.5</vdop><extensions><gom:speed>0.05</gom:speed></extensions></trkpt>
   <trkpt lat="59.3021538595" lon="34.663229439"><ele>162.117</ele><time>2026-08-16T13:58:18.138Z</time><hdop>3.0</hdop><vdop>2.5</vdop><extensions><gom:speed>0.055</gom:speed></extensions></trkpt>
   <trkpt lat="59.3021536919" lon="34.6632295229"><ele>162.132</ele><time>2026-08-16T13:58:19.138Z</time><hdop>3.0</hdop><vdop>2.5</vdop><extensions><gom:speed>0.057</gom:speed></extensions></trkpt>
   <trkpt lat="59.3021533985" lon="34.6632295229"><ele>162.128</ele><time>2026-08-16T13:58:20.138Z</time><hdop>3.0</hdop><vdop>2.5</vdop><extensions><gom:speed>0.06</gom:speed></extensions></trkpt>
   <trkpt lat="59.302153189" lon="34.6632296905"><ele>162.106</ele><time>2026-08-16T13:58:21.138Z</time><hdop>3.0</hdop><vdop>2.5</vdop><extensions><gom:speed>0.063</gom:speed></extensions></trkpt>
   <trkpt lat="59.3021528956" lon="34.6632297743"><ele>162.076</ele><time>2026-08-16T13:58:22.138Z</time><hdop>3.0</hdop><vdop>2.5</vdop><extensions><gom:speed>0.065</gom:speed></extensions></trkpt>
   <trkpt lat="59.3021525603" lon="34.6632298581"><ele>162.051</ele><time>2026-08-16T13:58:23.138Z</time><hdop>3.0</hdop><vdop>2.5</vdop><extensions><gom:speed>0.068</gom:speed></extensions></trkpt>
   <trkpt lat="59.302152267" lon="34.6632297743"><ele>162.031</ele><time>2026-08-16T13:58:24.138Z</time><hdop>3.0</hdop><vdop>2.5</vdop><extensions><gom:speed>0.069</gom:speed></extensions></trkpt>
   <trkpt lat="59.3021519736" lon="34.6632298581"><ele>162.022</ele><time>2026-08-16T13:58:25.138Z</time><hdop>3.0</hdop><vdop>2.5</vdop><extensions><gom:speed>0.074</gom:speed></extensions></trkpt>
   <trkpt lat="59.3021517641" lon="34.6632298581"><ele>162.02</ele><time>2026-08-16T13:58:26.138Z</time><hdop>3.0</hdop><vdop>2.5</vdop><extensions><gom:speed>0.075</gom:speed></extensions></trkpt>
   <trkpt lat="59.3021515964" lon="34.663229942"><ele>162.018</ele><time>2026-08-16T13:58:27.138Z</time><hdop>3.0</hdop><vdop>2.5</vdop><extensions><gom:speed>0.074</gom:speed></extensions></trkpt>
   <trkpt lat="59.3021514707" lon="34.6632300258"><ele>162.013</ele><time>2026-08-16T13:58:28.138Z</time><hdop>3.0</hdop><vdop>2.5</vdop><extensions><gom:speed>0.073</gom:speed></extensions></trkpt>
   <trkpt lat="59.3021513869" lon="34.6632300258"><ele>162.017</ele><time>2026-08-16T13:58:29.138Z</time><hdop>3.0</hdop><vdop>2.5</vdop><extensions><gom:speed>0.074</gom:speed></extensions></trkpt>
   <trkpt lat="59.3021512612" lon="34.6632301934"><ele>162.047</ele><time>2026-08-16T13:58:30.138Z</time><hdop>3.0</hdop><vdop>2.5</vdop><extensions><gom:speed>0.076</gom:speed></extensions></trkpt>
   <trkpt lat="59.3021512612" lon="34.6632302772"><ele>162.1</ele><time>2026-08-16T13:58:31.138Z</time><hdop>3.0</hdop><vdop>2.5</vdop><extensions><gom:speed>0.077</gom:speed></extensions></trkpt>
   <trkpt lat="59.3021511773" lon="34.663229942"><ele>162.161</ele><time>2026-08-16T13:58:32.138Z</time><hdop>3.0</hdop><vdop>2.5</vdop><extensions><gom:speed>0.078</gom:speed></extensions></trkpt>
   <trkpt lat="59.3021512612" lon="34.6632300258"><ele>162.222</ele><time>2026-08-16T13:58:33.138Z</time><hdop>3.0</hdop><vdop>2.5</vdop><extensions><gom:speed>0.075</gom:speed></extensions></trkpt>
   <trkpt lat="59.3021512612" lon="34.6632302772"><ele>162.283</ele><time>2026-08-16T13:58:34.138Z</time><hdop>3.0</hdop><vdop>2.5</vdop><extensions><gom:speed>0.075</gom:speed></extensions></trkpt>
   <trkpt lat="59.3021513869" lon="34.6632304449"><ele>162.325</ele><time>2026-08-16T13:58:35.138Z</time><hdop>3.0</hdop><vdop>2.5</vdop><extensions><gom:speed>0.072</gom:speed></extensions></trkpt>
   <trkpt lat="59.3021514707" lon="34.6632305287"><ele>162.376</ele><time>2026-08-16T13:58:36.138Z</time><hdop>3.0</hdop><vdop>2.5</vdop><extensions><gom:speed>0.072</gom:speed></extensions></trkpt>
   <trkpt lat="59.3021516802" lon="34.6632307802"><ele>162.437</ele><time>2026-08-16T13:58:37.138Z</time><hdop>3.0</hdop><vdop>2.5</vdop><extensions><gom:speed>0.072</gom:speed></extensions></trkpt>
   <trkpt lat="59.3021518898" lon="34.6632310316"><ele>162.475</ele><time>2026-08-16T13:58:38.138Z</time><hdop>3.0</hdop><vdop>2.5</vdop><extensions><gom:speed>0.076</gom:speed></extensions></trkpt>
   <trkpt lat="59.3021519736" lon="34.6632312831"><ele>162.484</ele><time>2026-08-16T13:58:39.138Z</time><hdop>3.0</hdop><vdop>2.5</vdop><extensions><gom:speed>0.076</gom:speed></extensions></trkpt>
   <trkpt lat="59.3021520993" lon="34.6632313669"><ele>162.49</ele><time>2026-08-16T13:58:40.138Z</time><hdop>3.0</hdop><vdop>2.5</vdop><extensions><gom:speed>0.075</gom:speed></extensions></trkpt>
   <trkpt lat="59.3021521832" lon="34.6632315345"><ele>162.509</ele><time>2026-08-16T13:58:41.138Z</time><hdop>3.0</hdop><vdop>2.5</vdop><extensions><gom:speed>0.075</gom:speed></extensions></trkpt>
   <trkpt lat="59.302152267" lon="34.6632316183"><ele>162.527</ele><time>2026-08-16T13:58:42.137Z</time><hdop>3.0</hdop><vdop>2.5</vdop><extensions><gom:speed>0.072</gom:speed></extensions></trkpt>
   <trkpt lat="59.3021523927" lon="34.663231786"><ele>162.54</ele><time>2026-08-16T13:58:43.138Z</time><hdop>3.0</hdop><vdop>2.5</vdop><extensions><gom:speed>0.068</gom:speed></extensions></trkpt>
   <trkpt lat="59.3021523927" lon="34.663231786"><ele>162.592</ele><time>2026-08-16T13:58:44.138Z</time><hdop>3.0</hdop><vdop>2.5</vdop><extensions><gom:speed>0.064</gom:speed></extensions></trkpt>
   <trkpt lat="59.3021525603" lon="34.6632318698"><ele>162.646</ele><time>2026-08-16T13:58:45.138Z</time><hdop>3.0</hdop><vdop>2.5</vdop><extensions><gom:speed>0.063</gom:speed></extensions></trkpt>
   <trkpt lat="59.3021527699" lon="34.6632318698"><ele>162.689</ele><time>2026-08-16T13:58:46.137Z</time><hdop>3.0</hdop><vdop>2.5</vdop><extensions><gom:speed>0.063</gom:speed></extensions></trkpt>
   <trkpt lat="59.3021529794" lon="34.663231786"><ele>162.72</ele><time>2026-08-16T13:58:47.138Z</time><hdop>3.0</hdop><vdop>2.5</vdop><extensions><gom:speed>0.063</gom:speed></extensions></trkpt>
   <trkpt lat="59.3021532728" lon="34.6632315345"><ele>162.732</ele><time>2026-08-16T13:58:48.138Z</time><hdop>3.0</hdop><vdop>2.5</vdop><extensions><gom:speed>0.063</gom:speed></extensions></trkpt>
   <trkpt lat="59.3021534824" lon="34.6632314507"><ele>162.75</ele><time>2026-08-16T13:58:49.138Z</time><hdop>3.0</hdop><vdop>2.5</vdop><extensions><gom:speed>0.065</gom:speed></extensions></trkpt>
   <trkpt lat="59.3021537757" lon="34.6632315345"><ele>162.768</ele><time>2026-08-16T13:58:50.138Z</time><hdop>3.0</hdop><vdop>2.5</vdop><extensions><gom:speed>0.068</gom:speed></extensions></trkpt>
   <trkpt lat="59.3021539853" lon="34.6632313669"><ele>162.792</ele><time>2026-08-16T13:58:51.137Z</time><hdop>3.0</hdop><vdop>2.5</vdop><extensions><gom:speed>0.069</gom:speed></extensions></trkpt>
   <trkpt lat="59.3021542786" lon="34.6632309478"><ele>162.794</ele><time>2026-08-16T13:58:52.138Z</time><hdop>3.0</hdop><vdop>2.5</vdop><extensions><gom:speed>0.072</gom:speed></extensions></trkpt>
   <trkpt lat="59.302154572" lon="34.6632306963"><ele>162.77</ele><time>2026-08-16T13:58:53.138Z</time><hdop>3.0</hdop><vdop>2.5</vdop><extensions><gom:speed>0.071</gom:speed></extensions></trkpt>
   <trkpt lat="59.3021548654" lon="34.6632302772"><ele>162.766</ele><time>2026-08-16T13:58:54.138Z</time><hdop>3.0</hdop><vdop>2.5</vdop><extensions><gom:speed>0.068</gom:speed></extensions></trkpt>
   <trkpt lat="59.3021552845" lon="34.6632300258"><ele>162.779</ele><time>2026-08-16T13:58:55.138Z</time><hdop>3.0</hdop><vdop>2.5</vdop><extensions><gom:speed>0.065</gom:speed></extensions></trkpt>
   <trkpt lat="59.3021557874" lon="34.6632296905"><ele>162.782</ele><time>2026-08-16T13:58:56.138Z</time><hdop>3.0</hdop><vdop>2.5</vdop><extensions><gom:speed>0.065</gom:speed></extensions></trkpt>
   <trkpt lat="59.3021562903" lon="34.6632293552"><ele>162.789</ele><time>2026-08-16T13:58:57.138Z</time><hdop>3.0</hdop><vdop>2.5</vdop><extensions><gom:speed>0.066</gom:speed></extensions></trkpt>
   <trkpt lat="59.3021565837" lon="34.6632292714"><ele>162.817</ele><time>2026-08-16T13:58:58.138Z</time><hdop>3.0</hdop><vdop>2.5</vdop><extensions><gom:speed>0.069</gom:speed></extensions></trkpt>
   <trkpt lat="59.3021569608" lon="34.66322902"><ele>162.845</ele><time>2026-08-16T13:58:59.138Z</time><hdop>3.0</hdop><vdop>2.5</vdop><extensions><gom:speed>0.067</gom:speed></extensions></trkpt>
   <trkpt lat="59.3021573799" lon="34.6632289361"><ele>162.882</ele><time>2026-08-16T13:59:00.138Z</time><hdop>3.0</hdop><vdop>2.5</vdop><extensions><gom:speed>0.064</gom:speed></extensions></trkpt>
   <trkpt lat="59.302157799" lon="34.6632288523"><ele>162.952</ele><time>2026-08-16T13:59:01.138Z</time><hdop>3.0</hdop><vdop>2.5</vdop><extensions><gom:speed>0.066</gom:speed></extensions></trkpt>
   <trkpt lat="59.3021578829" lon="34.6632287685"><ele>162.994</ele><time>2026-08-16T13:59:01.837Z</time><hdop>3.0</hdop><vdop>2.5</vdop><extensions><gom:speed>0.066</gom:speed></extensions></trkpt>
   <trkpt lat="59.3021588887" lon="34.6632281818"><ele>162.948</ele><time>2026-08-16T13:59:02.553Z</time><hdop>3.0</hdop><vdop>2.5</vdop><extensions><gom:speed>0.243</gom:speed></extensions></trkpt>
   <trkpt lat="59.3021597688" lon="34.6632276788"><ele>162.915</ele><time>2026-08-16T13:59:03.138Z</time><hdop>3.0</hdop><vdop>2.5</vdop><extensions><gom:speed>0.095</gom:speed></extensions></trkpt>
   <trkpt lat="59.3021599783" lon="34.6632276788"><ele>162.895</ele><time>2026-08-16T13:59:03.613Z</time><hdop>3.0</hdop><vdop>2.5</vdop><extensions><gom:speed>0.095</gom:speed></extensions></trkpt>
   <trkpt lat="59.3021602717" lon="34.663227595"><ele>162.987</ele><time>2026-08-16T13:59:04.138Z</time><hdop>3.0</hdop><vdop>2.5</vdop><extensions><gom:speed>0.75</gom:speed></extensions></trkpt>
   <trkpt lat="59.3021623672" lon="34.6632246614"><ele>163.042</ele><time>2026-08-16T13:59:04.978Z</time><hdop>3.0</hdop><vdop>2.5</vdop><extensions><gom:speed>0.716</gom:speed></extensions></trkpt>
   <trkpt lat="59.3021541948" lon="34.6632209733"><ele>162.438</ele><time>2026-08-16T13:59:06.138Z</time><hdop>3.062</hdop><vdop>2.5</vdop><extensions><gom:speed>0.782</gom:speed></extensions></trkpt>
   <trkpt lat="59.302142083" lon="34.6632174529"><ele>162.385</ele><time>2026-08-16T13:59:07.138Z</time><hdop>3.25</hdop><vdop>2.5</vdop><extensions><gom:speed>0.877</gom:speed></extensions></trkpt>
   <trkpt lat="59.3021305998" lon="34.6632208895"><ele>162.485</ele><time>2026-08-16T13:59:08.138Z</time><hdop>3.437</hdop><vdop>2.5</vdop><extensions><gom:speed>0.826</gom:speed></extensions></trkpt>
   <trkpt lat="59.3021252773" lon="34.6632274274"><ele>162.545</ele><time>2026-08-16T13:59:08.815Z</time><hdop>3.625</hdop><vdop>2.5</vdop><extensions><gom:speed>0.867</gom:speed></extensions></trkpt>
   <trkpt lat="59.3021194937" lon="34.6632306963"><ele>162.425</ele><time>2026-08-16T13:59:09.591Z</time><hdop>3.75</hdop><vdop>2.5</vdop><extensions><gom:speed>0.847</gom:speed></extensions></trkpt>
   <trkpt lat="59.3021154704" lon="34.6632276788"><ele>162.396</ele><time>2026-08-16T13:59:10.138Z</time><hdop>3.812</hdop><vdop>2.5</vdop><extensions><gom:speed>0.847</gom:speed></extensions></trkpt>
   <trkpt lat="59.3021076753" lon="34.6632228173"><ele>162.378</ele><time>2026-08-16T13:59:11.053Z</time><hdop>3.812</hdop><vdop>2.5</vdop><extensions><gom:speed>0.89</gom:speed></extensions></trkpt>
   <trkpt lat="59.3020990838" lon="34.6632164471"><ele>162.765</ele><time>2026-08-16T13:59:12.138Z</time><hdop>3.625</hdop><vdop>2.5</vdop><extensions><gom:speed>0.917</gom:speed></extensions></trkpt>
   <trkpt lat="59.3020907857" lon="34.6632161956"><ele>162.996</ele><time>2026-08-16T13:59:13.095Z</time><hdop>3.437</hdop><vdop>2.5</vdop><extensions><gom:speed>0.873</gom:speed></extensions></trkpt>
   <trkpt lat="59.3020871815" lon="34.663214184"><ele>163.276</ele><time>2026-08-16T13:59:13.752Z</time><hdop>3.312</hdop><vdop>2.5</vdop><extensions><gom:speed>0.872</gom:speed></extensions></trkpt>
   <trkpt lat="59.3020839964" lon="34.6632138487"><ele>163.349</ele><time>2026-08-16T13:59:14.538Z</time><hdop>3.187</hdop><vdop>2.5</vdop><extensions><gom:speed>0.824</gom:speed></extensions></trkpt>
   <trkpt lat="59.3020817752" lon="34.6632153574"><ele>163.27</ele><time>2026-08-16T13:59:15.138Z</time><hdop>3.125</hdop><vdop>2.5</vdop><extensions><gom:speed>0.79</gom:speed></extensions></trkpt>
   <trkpt lat="59.3020763688" lon="34.6632179558"><ele>163.223</ele><time>2026-08-16T13:59:16.049Z</time><hdop>3.062</hdop><vdop>2.5</vdop><extensions><gom:speed>0.747</gom:speed></extensions></trkpt>
   <trkpt lat="59.3020727646" lon="34.6632193808"><ele>163.333</ele><time>2026-08-16T13:59:16.874Z</time><hdop>3.062</hdop><vdop>2.5</vdop><extensions><gom:speed>0.744</gom:speed></extensions></trkpt>
   <trkpt lat="59.3020697891" lon="34.6632191293"><ele>163.546</ele><time>2026-08-16T13:59:17.532Z</time><hdop>3.062</hdop><vdop>2.5</vdop><extensions><gom:speed>0.801</gom:speed></extensions></trkpt>
   <trkpt lat="59.302066562" lon="34.6632185426"><ele>163.819</ele><time>2026-08-16T13:59:18.138Z</time><hdop>3.0</hdop><vdop>2.5</vdop><extensions><gom:speed>0.847</gom:speed></extensions></trkpt>
   <trkpt lat="59.3020597727" lon="34.6632161956"><ele>163.875</ele><time>2026-08-16T13:59:19.138Z</time><hdop>3.0</hdop><vdop>2.5</vdop><extensions><gom:speed>0.915</gom:speed></extensions></trkpt>
   <trkpt lat="59.3020529833" lon="34.6632159442"><ele>163.908</ele><time>2026-08-16T13:59:19.976Z</time><hdop>3.0</hdop><vdop>2.5</vdop><extensions><gom:speed>0.86</gom:speed></extensions></trkpt>
   <trkpt lat="59.3020483733" lon="34.6632213924"><ele>163.84</ele><time>2026-08-16T13:59:20.829Z</time><hdop>3.0</hdop><vdop>2.5</vdop><extensions><gom:speed>0.871</gom:speed></extensions></trkpt>
   <trkpt lat="59.3020392789" lon="34.6632292714"><ele>163.789</ele><time>2026-08-16T13:59:22.076Z</time><hdop>3.0</hdop><vdop>2.5</vdop><extensions><gom:speed>0.944</gom:speed></extensions></trkpt>
   <trkpt lat="59.3020325734" lon="34.66323363"><ele>163.815</ele><time>2026-08-16T13:59:22.950Z</time><hdop>3.0</hdop><vdop>2.5</vdop><extensions><gom:speed>0.962</gom:speed></extensions></trkpt>
   <trkpt lat="59.3020263708" lon="34.6632399164"><ele>163.878</ele><time>2026-08-16T13:59:23.833Z</time><hdop>3.0</hdop><vdop>2.5</vdop><extensions><gom:speed>0.984</gom:speed></extensions></trkpt>
   <trkpt lat="59.3020222637" lon="34.6632480469"><ele>164.266</ele><time>2026-08-16T13:59:24.569Z</time><hdop>3.0</hdop><vdop>2.5</vdop><extensions><gom:speed>0.979</gom:speed></extensions></trkpt>
   <trkpt lat="59.3020178632" lon="34.6632519864"><ele>164.57</ele><time>2026-08-16T13:59:25.138Z</time><hdop>3.0</hdop><vdop>2.5</vdop><extensions><gom:speed>1.053</gom:speed></extensions></trkpt>
   <trkpt lat="59.302010068" lon="34.6632548362"><ele>164.752</ele><time>2026-08-16T13:59:25.915Z</time><hdop>3.0</hdop><vdop>2.5</vdop><extensions><gom:speed>1.051</gom:speed></extensions></trkpt>
   <trkpt lat="59.3020025662" lon="34.6632510644"><ele>164.978</ele><time>2026-08-16T13:59:26.749Z</time><hdop>3.0</hdop><vdop>2.5</vdop><extensions><gom:speed>1.049</gom:speed></extensions></trkpt>
   <trkpt lat="59.301998962" lon="34.6632432692"><ele>165.268</ele><time>2026-08-16T13:59:27.250Z</time><hdop>3.0</hdop><vdop>2.5</vdop><extensions><gom:speed>1.036</gom:speed></extensions></trkpt>
   <trkpt lat="59.3019938909" lon="34.663229439"><ele>165.412</ele><time>2026-08-16T13:59:28.138Z</time><hdop>3.0</hdop><vdop>2.5</vdop><extensions><gom:speed>0.948</gom:speed></extensions></trkpt>
   <trkpt lat="59.3019904962" lon="34.6632168662"><ele>165.498</ele><time>2026-08-16T13:59:28.870Z</time><hdop>3.0</hdop><vdop>2.5</vdop><extensions><gom:speed>0.94</gom:speed></extensions></trkpt>
   <trkpt lat="59.3019879817" lon="34.6632040419"><ele>165.451</ele><time>2026-08-16T13:59:29.616Z</time><hdop>3.0</hdop><vdop>2.5</vdop><extensions><gom:speed>0.893</gom:speed></extensions></trkpt>
   <trkpt lat="59.3019857605" lon="34.6631962467"><ele>165.505</ele><time>2026-08-16T13:59:30.138Z</time><hdop>3.0</hdop><vdop>2.5</vdop><extensions><gom:speed>0.877</gom:speed></extensions></trkpt>
   <trkpt lat="59.3019803961" lon="34.6631869428"><ele>165.536</ele><time>2026-08-16T13:59:31.009Z</time><hdop>3.0</hdop><vdop>2.5</vdop><extensions><gom:speed>0.865</gom:speed></extensions></trkpt>
   <trkpt lat="59.3019759956" lon="34.6631842606"><ele>165.417</ele><time>2026-08-16T13:59:31.618Z</time><hdop>3.0</hdop><vdop>2.5</vdop><extensions><gom:speed>0.874</gom:speed></extensions></trkpt>
   <trkpt lat="59.3019724752" lon="34.6631845959"><ele>165.111</ele><time>2026-08-16T13:59:32.138Z</time><hdop>3.0</hdop><vdop>2.5</vdop><extensions><gom:speed>0.849</gom:speed></extensions></trkpt>
   <trkpt lat="59.3019663983" lon="34.6631883677"><ele>164.928</ele><time>2026-08-16T13:59:32.934Z</time><hdop>3.0</hdop><vdop>2.5</vdop><extensions><gom:speed>0.873</gom:speed></extensions></trkpt>
   <trkpt lat="59.3019620816" lon="34.6631899603"><ele>164.464</ele><time>2026-08-16T13:59:33.690Z</time><hdop>3.0</hdop><vdop>2.5</vdop><extensions><gom:speed>0.826</gom:speed></extensions></trkpt>
   <trkpt lat="59.3019536997" lon="34.6631966658"><ele>164.07</ele><time>2026-08-16T13:59:35.074Z</time><hdop>3.0</hdop><vdop>2.5</vdop><extensions><gom:speed>0.827</gom:speed></extensions></trkpt>
   <trkpt lat="59.3019513947" lon="34.6632018626"><ele>163.65</ele><time>2026-08-16T13:59:35.634Z</time><hdop>3.0</hdop><vdop>2.5</vdop><extensions><gom:speed>0.791</gom:speed></extensions></trkpt>
   <trkpt lat="59.3019481676" lon="34.6632040419"><ele>163.445</ele><time>2026-08-16T13:59:36.138Z</time><hdop>3.0</hdop><vdop>2.5</vdop><extensions><gom:speed>0.837</gom:speed></extensions></trkpt>
   <trkpt lat="59.3019443958" lon="34.6632064726"><ele>163.323</ele><time>2026-08-16T13:59:36.635Z</time><hdop>3.0</hdop><vdop>2.5</vdop><extensions><gom:speed>0.838</gom:speed></extensions></trkpt>
   <trkpt lat="59.3019417974" lon="34.6632102445"><ele>163.189</ele><time>2026-08-16T13:59:37.138Z</time><hdop>3.0</hdop><vdop>2.5</vdop><extensions><gom:speed>0.812</gom:speed></extensions></trkpt>
   <trkpt lat="59.3019369778" lon="34.6632191293"><ele>162.924</ele><time>2026-08-16T13:59:38.138Z</time><hdop>3.0</hdop><vdop>2.5</vdop><extensions><gom:speed>0.791</gom:speed></extensions></trkpt>
   <trkpt lat="59.3019330802" lon="34.6632262539"><ele>162.766</ele><time>2026-08-16T13:59:38.873Z</time><hdop>3.0</hdop><vdop>2.5</vdop><extensions><gom:speed>0.792</gom:speed></extensions></trkpt>
   <trkpt lat="59.3019284702" lon="34.6632349711"><ele>162.775</ele><time>2026-08-16T13:59:39.835Z</time><hdop>3.0</hdop><vdop>2.5</vdop><extensions><gom:speed>0.806</gom:speed></extensions></trkpt>
   <trkpt lat="59.3019264585" lon="34.663246119"><ele>162.777</ele><time>2026-08-16T13:59:40.669Z</time><hdop>3.0</hdop><vdop>2.5</vdop><extensions><gom:speed>0.813</gom:speed></extensions></trkpt>
   <trkpt lat="59.301925788" lon="34.6632517349"><ele>162.64</ele><time>2026-08-16T13:59:41.138Z</time><hdop>3.0</hdop><vdop>2.5</vdop><extensions><gom:speed>0.795</gom:speed></extensions></trkpt>
   <trkpt lat="59.3019223933" lon="34.6632639725"><ele>162.559</ele><time>2026-08-16T13:59:42.073Z</time><hdop>3.0</hdop><vdop>2.5</vdop><extensions><gom:speed>0.832</gom:speed></extensions></trkpt>
   <trkpt lat="59.3019179928" lon="34.6632746175"><ele>162.355</ele><time>2026-08-16T13:59:43.093Z</time><hdop>3.0</hdop><vdop>2.5</vdop><extensions><gom:speed>0.833</gom:speed></extensions></trkpt>
   <trkpt lat="59.3019138857" lon="34.6632833347"><ele>162.33</ele><time>2026-08-16T13:59:44.055Z</time><hdop>3.0</hdop><vdop>2.5</vdop><extensions><gom:speed>0.873</gom:speed></extensions></trkpt>
   <trkpt lat="59.3019098623" lon="34.6632890344"><ele>162.229</ele><time>2026-08-16T13:59:45.138Z</time><hdop>3.0</hdop><vdop>2.5</vdop><extensions><gom:speed>0.788</gom:speed></extensions></trkpt>
   <trkpt lat="59.3019055876" lon="34.6632935606"><ele>162.275</ele><time>2026-08-16T13:59:46.138Z</time><hdop>3.0</hdop><vdop>2.5</vdop><extensions><gom:speed>0.695</gom:speed></extensions></trkpt>
   <trkpt lat="59.3019021929" lon="34.6633020263"><ele>162.303</ele><time>2026-08-16T13:59:47.127Z</time><hdop>3.0</hdop><vdop>2.5</vdop><extensions><gom:speed>0.693</gom:speed></extensions></trkpt>
   <trkpt lat="59.3019023605" lon="34.6633089833"><ele>162.231</ele><time>2026-08-16T13:59:47.745Z</time><hdop>3.0</hdop><vdop>2.5</vdop><extensions><gom:speed>0.693</gom:speed></extensions></trkpt>
   <trkpt lat="59.301897499" lon="34.6633201312"><ele>162.286</ele><time>2026-08-16T13:59:49.138Z</time><hdop>3.0</hdop><vdop>2.5</vdop><extensions><gom:speed>0.673</gom:speed></extensions></trkpt>
   <trkpt lat="59.3018909611" lon="34.6633254957"><ele>162.319</ele><time>2026-08-16T13:59:50.023Z</time><hdop>3.0</hdop><vdop>2.5</vdop><extensions><gom:speed>0.76</gom:speed></extensions></trkpt>
   <trkpt lat="59.3018875665" lon="34.6633259986"><ele>162.261</ele><time>2026-08-16T13:59:50.504Z</time><hdop>3.0</hdop><vdop>2.5</vdop><extensions><gom:speed>0.721</gom:speed></extensions></trkpt>
   <trkpt lat="59.3018839623" lon="34.6633294352"><ele>162.087</ele><time>2026-08-16T13:59:51.138Z</time><hdop>3.0</hdop><vdop>2.5</vdop><extensions><gom:speed>0.679</gom:speed></extensions></trkpt>
   <trkpt lat="59.3018811962" lon="34.6633398287"><ele>161.984</ele><time>2026-08-16T13:59:51.986Z</time><hdop>3.0</hdop><vdop>2.5</vdop><extensions><gom:speed>0.756</gom:speed></extensions></trkpt>
   <trkpt lat="59.3018797713" lon="34.6633537427"><ele>161.874</ele><time>2026-08-16T13:59:52.918Z</time><hdop>3.0</hdop><vdop>2.5</vdop><extensions><gom:speed>0.775</gom:speed></extensions></trkpt>
   <trkpt lat="59.3018785978" lon="34.6633653935"><ele>161.833</ele><time>2026-08-16T13:59:53.665Z</time><hdop>3.0</hdop><vdop>2.5</vdop><extensions><gom:speed>0.779</gom:speed></extensions></trkpt>
   <trkpt lat="59.3018763766" lon="34.6633715961"><ele>161.867</ele><time>2026-08-16T13:59:54.138Z</time><hdop>3.0</hdop><vdop>2.5</vdop><extensions><gom:speed>0.846</gom:speed></extensions></trkpt>
   <trkpt lat="59.3018738621" lon="34.6633778826"><ele>161.888</ele><time>2026-08-16T13:59:54.607Z</time><hdop>3.0</hdop><vdop>2.5</vdop><extensions><gom:speed>0.847</gom:speed></extensions></trkpt>
   <trkpt lat="59.3018706769" lon="34.6633808162"><ele>161.728</ele><time>2026-08-16T13:59:55.138Z</time><hdop>3.0</hdop><vdop>2.5</vdop><extensions><gom:speed>0.779</gom:speed></extensions></trkpt>
   <trkpt lat="59.3018643905" lon="34.6633830793"><ele>161.633</ele><time>2026-08-16T13:59:55.981Z</time><hdop>3.0</hdop><vdop>2.5</vdop><extensions><gom:speed>0.773</gom:speed></extensions></trkpt>
   <trkpt lat="59.3018568887" lon="34.6633801457"><ele>161.832</ele><time>2026-08-16T13:59:56.904Z</time><hdop>3.0</hdop><vdop>2.5</vdop><extensions><gom:speed>0.782</gom:speed></extensions></trkpt>
   <trkpt lat="59.3018506861" lon="34.663370255"><ele>161.972</ele><time>2026-08-16T13:59:57.787Z</time><hdop>3.0</hdop><vdop>2.5</vdop><extensions><gom:speed>0.79</gom:speed></extensions></trkpt>
   <trkpt lat="59.3018455731" lon="34.6633636333"><ele>161.952</ele><time>2026-08-16T13:59:58.718Z</time><hdop>3.0</hdop><vdop>2.5</vdop><extensions><gom:speed>0.691</gom:speed></extensions></trkpt>
   <trkpt lat="59.301840083" lon="34.6633609511"><ele>161.963</ele><time>2026-08-16T13:59:59.740Z</time><hdop>3.0</hdop><vdop>2.5</vdop><extensions><gom:speed>0.659</gom:speed></extensions></trkpt>
   <trkpt lat="59.3018366883" lon="34.6633570954"><ele>161.973</ele><time>2026-08-16T14:00:00.338Z</time><hdop>3.0</hdop><vdop>2.5</vdop><extensions><gom:speed>0.713</gom:speed></extensions></trkpt>
   <trkpt lat="59.3018323716" lon="34.6633564249"><ele>162.012</ele><time>2026-08-16T14:00:01.138Z</time><hdop>3.0</hdop><vdop>2.5</vdop><extensions><gom:speed>0.709</gom:speed></extensions></trkpt>
   <trkpt lat="59.3018269653" lon="34.6633581851"><ele>162.035</ele><time>2026-08-16T14:00:02.007Z</time><hdop>3.0</hdop><vdop>2.5</vdop><extensions><gom:speed>0.7</gom:speed></extensions></trkpt>
   <trkpt lat="59.3018235706" lon="34.6633571793"><ele>161.923</ele><time>2026-08-16T14:00:02.743Z</time><hdop>3.0</hdop><vdop>2.5</vdop><extensions><gom:speed>0.679</gom:speed></extensions></trkpt>
   <trkpt lat="59.3018195892" lon="34.6633537427"><ele>161.709</ele><time>2026-08-16T14:00:03.608Z</time><hdop>3.0</hdop><vdop>2.5</vdop><extensions><gom:speed>0.638</gom:speed></extensions></trkpt>
   <trkpt lat="59.301817871" lon="34.663353575"><ele>161.579</ele><time>2026-08-16T14:00:04.138Z</time><hdop>3.0</hdop><vdop>2.5</vdop><extensions><gom:speed>0.516</gom:speed></extensions></trkpt>
   <trkpt lat="59.3018147696" lon="34.6633563411"><ele>161.502</ele><time>2026-08-16T14:00:04.942Z</time><hdop>3.0</hdop><vdop>2.5</vdop><extensions><gom:speed>0.516</gom:speed></extensions></trkpt>
   <trkpt lat="59.3018112912" lon="34.6633616217"><ele>161.474</ele><time>2026-08-16T14:00:06.003Z</time><hdop>3.0</hdop><vdop>2.5</vdop><extensions><gom:speed>0.49</gom:speed></extensions></trkpt>
   <trkpt lat="59.3018081899" lon="34.6633685786"><ele>161.333</ele><time>2026-08-16T14:00:06.739Z</time><hdop>3.0</hdop><vdop>2.5</vdop><extensions><gom:speed>0.549</gom:speed></extensions></trkpt>
   <trkpt lat="59.3018043761" lon="34.6633817382"><ele>161.305</ele><time>2026-08-16T14:00:08.064Z</time><hdop>3.0</hdop><vdop>2.5</vdop><extensions><gom:speed>0.549</gom:speed></extensions></trkpt>
   <trkpt lat="59.3017994727" lon="34.6633856777"><ele>161.095</ele><time>2026-08-16T14:00:08.859Z</time><hdop>3.0</hdop><vdop>2.5</vdop><extensions><gom:speed>0.564</gom:speed></extensions></trkpt>
   <trkpt lat="59.3017934796" lon="34.6633897849"><ele>160.936</ele><time>2026-08-16T14:00:09.546Z</time><hdop>3.0</hdop><vdop>2.5</vdop><extensions><gom:speed>0.71</gom:speed></extensions></trkpt>
   <trkpt lat="59.3017897916" lon="34.6633916289"><ele>160.981</ele><time>2026-08-16T14:00:10.138Z</time><hdop>3.0</hdop><vdop>2.5</vdop><extensions><gom:speed>0.663</gom:speed></extensions></trkpt>
   <trkpt lat="59.3017833794" lon="34.6633942273"><ele>161.094</ele><time>2026-08-16T14:00:11.138Z</time><hdop>3.0</hdop><vdop>2.5</vdop><extensions><gom:speed>0.662</gom:speed></extensions></trkpt>
   <trkpt lat="59.3017755843" lon="34.6633928862"><ele>161.13</ele><time>2026-08-16T14:00:12.138Z</time><hdop>3.0</hdop><vdop>2.5</vdop><extensions><gom:speed>0.661</gom:speed></extensions></trkpt>
   <trkpt lat="59.3017678729" lon="34.6633909583"><ele>160.854</ele><time>2026-08-16T14:00:13.138Z</time><hdop>3.0</hdop><vdop>2.5</vdop><extensions><gom:speed>0.691</gom:speed></extensions></trkpt>
   <trkpt lat="59.3017626761" lon="34.6633908745"><ele>160.689</ele><time>2026-08-16T14:00:13.806Z</time><hdop>3.0</hdop><vdop>2.5</vdop><extensions><gom:speed>0.698</gom:speed></extensions></trkpt>
   <trkpt lat="59.3017563897" lon="34.6633925509"><ele>160.484</ele><time>2026-08-16T14:00:14.622Z</time><hdop>3.0</hdop><vdop>2.5</vdop><extensions><gom:speed>0.749</gom:speed></extensions></trkpt>
   <trkpt lat="59.3017526597" lon="34.6633921318"><ele>160.501</ele><time>2026-08-16T14:00:15.138Z</time><hdop>3.0</hdop><vdop>2.5</vdop><extensions><gom:speed>0.785</gom:speed></extensions></trkpt>
   <trkpt lat="59.3017449903" lon="34.6633919641"><ele>160.511</ele><time>2026-08-16T14:00:16.123Z</time><hdop>3.0</hdop><vdop>2.5</vdop><extensions><gom:speed>0.783</gom:speed></extensions></trkpt>
   <trkpt lat="59.3017412604" lon="34.663381822"><ele>160.632</ele><time>2026-08-16T14:00:16.879Z</time><hdop>3.0</hdop><vdop>2.5</vdop><extensions><gom:speed>0.766</gom:speed></extensions></trkpt>
   <trkpt lat="59.3017380752" lon="34.6633714285"><ele>160.552</ele><time>2026-08-16T14:00:17.664Z</time><hdop>3.0</hdop><vdop>2.5</vdop><extensions><gom:speed>0.774</gom:speed></extensions></trkpt>
   <trkpt lat="59.3017357702" lon="34.6633667346"><ele>160.567</ele><time>2026-08-16T14:00:18.138Z</time><hdop>3.0</hdop><vdop>2.5</vdop><extensions><gom:speed>0.772</gom:speed></extensions></trkpt>
   <trkpt lat="59.3017300705" lon="34.6633608673"><ele>160.575</ele><time>2026-08-16T14:00:18.999Z</time><hdop>3.0</hdop><vdop>2.5</vdop><extensions><gom:speed>0.777</gom:speed></extensions></trkpt>
   <trkpt lat="59.3017270949" lon="34.6633582689"><ele>160.441</ele><time>2026-08-16T14:00:19.500Z</time><hdop>3.0</hdop><vdop>2.5</vdop><extensions><gom:speed>0.782</gom:speed></extensions></trkpt>
   <trkpt lat="59.3017225687" lon="34.663356844"><ele>160.36</ele><time>2026-08-16T14:00:20.079Z</time><hdop>3.0</hdop><vdop>2.5</vdop><extensions><gom:speed>0.809</gom:speed></extensions></trkpt>
   <trkpt lat="59.3017204732" lon="34.6633531559"><ele>160.142</ele><time>2026-08-16T14:00:20.619Z</time><hdop>3.0</hdop><vdop>2.5</vdop><extensions><gom:speed>0.753</gom:speed></extensions></trkpt>
   <trkpt lat="59.3017186711" lon="34.6633497194"><ele>159.698</ele><time>2026-08-16T14:00:21.138Z</time><hdop>3.0</hdop><vdop>2.5</vdop><extensions><gom:speed>0.705</gom:speed></extensions></trkpt>
   <trkpt lat="59.3017125942" lon="34.663348965"><ele>159.433</ele><time>2026-08-16T14:00:22.081Z</time><hdop>3.0</hdop><vdop>2.5</vdop><extensions><gom:speed>0.771</gom:speed></extensions></trkpt>
   <trkpt lat="59.3017075651" lon="34.6633518987"><ele>159.286</ele><time>2026-08-16T14:00:22.808Z</time><hdop>3.0</hdop><vdop>2.5</vdop><extensions><gom:speed>0.785</gom:speed></extensions></trkpt>
   <trkpt lat="59.3017062659" lon="34.6633530721"><ele>159.196</ele><time>2026-08-16T14:00:23.328Z</time><hdop>3.0</hdop><vdop>2.5</vdop><extensions><gom:speed>0.663</gom:speed></extensions></trkpt>
   <trkpt lat="59.3017021588" lon="34.6633530721"><ele>159.142</ele><time>2026-08-16T14:00:24.103Z</time><hdop>3.0</hdop><vdop>2.5</vdop><extensions><gom:speed>0.605</gom:speed></extensions></trkpt>
   <trkpt lat="59.3017032903" lon="34.6633514796"><ele>159.069</ele><time>2026-08-16T14:00:24.722Z</time><hdop>3.0</hdop><vdop>2.5</vdop><extensions><gom:speed>0.503</gom:speed></extensions></trkpt>
   <trkpt lat="59.3017033742" lon="34.6633473724"><ele>158.873</ele><time>2026-08-16T14:00:25.723Z</time><hdop>3.0</hdop><vdop>2.5</vdop><extensions><gom:speed>0.46</gom:speed></extensions></trkpt>
   <trkpt lat="59.3016980936" lon="34.6633444388"><ele>158.842</ele><time>2026-08-16T14:00:26.665Z</time><hdop>3.0</hdop><vdop>2.5</vdop><extensions><gom:speed>0.624</gom:speed></extensions></trkpt>
   <trkpt lat="59.3016940702" lon="34.6633437682"><ele>158.88</ele><time>2026-08-16T14:00:27.138Z</time><hdop>3.0</hdop><vdop>2.5</vdop><extensions><gom:speed>0.775</gom:speed></extensions></trkpt>
   <trkpt lat="59.3016862751" lon="34.6633420918"><ele>158.861</ele><time>2026-08-16T14:00:28.138Z</time><hdop>3.0</hdop><vdop>2.5</vdop><extensions><gom:speed>0.75</gom:speed></extensions></trkpt>
   <trkpt lat="59.301678899" lon="34.6633416727"><ele>158.849</ele><time>2026-08-16T14:00:29.138Z</time><hdop>3.0</hdop><vdop>2.5</vdop><extensions><gom:speed>0.758</gom:speed></extensions></trkpt>
   <trkpt lat="59.3016733669" lon="34.6633408345"><ele>158.842</ele><time>2026-08-16T14:00:29.845Z</time><hdop>3.0</hdop><vdop>2.5</vdop><extensions><gom:speed>0.768</gom:speed></extensions></trkpt>
   <trkpt lat="59.3016694694" lon="34.6633409184"><ele>158.624</ele><time>2026-08-16T14:00:30.307Z</time><hdop>3.0</hdop><vdop>2.5</vdop><extensions><gom:speed>0.847</gom:speed></extensions></trkpt>
   <trkpt lat="59.3016628896" lon="34.6633411698"><ele>158.189</ele><time>2026-08-16T14:00:31.138Z</time><hdop>3.0</hdop><vdop>2.5</vdop><extensions><gom:speed>0.894</gom:speed></extensions></trkpt>
   <trkpt lat="59.3016582795" lon="34.6633428462"><ele>157.929</ele><time>2026-08-16T14:00:31.661Z</time><hdop>3.0</hdop><vdop>2.5</vdop><extensions><gom:speed>0.893</gom:speed></extensions></trkpt>
   <trkpt lat="59.3016549687" lon="34.6633465342"><ele>157.982</ele><time>2026-08-16T14:00:32.138Z</time><hdop>3.0</hdop><vdop>2.5</vdop><extensions><gom:speed>0.919</gom:speed></extensions></trkpt>
   <trkpt lat="59.3016512806" lon="34.6633507252"><ele>158.014</ele><time>2026-08-16T14:00:32.604Z</time><hdop>3.0</hdop><vdop>2.5</vdop><extensions><gom:speed>0.919</gom:speed></extensions></trkpt>
   <trkpt lat="59.3016477602" lon="34.6633570954"><ele>157.995</ele><time>2026-08-16T14:00:33.138Z</time><hdop>3.0</hdop><vdop>2.5</vdop><extensions><gom:speed>0.962</gom:speed></extensions></trkpt>
   <trkpt lat="59.3016429825" lon="34.6633688301"><ele>158.443</ele><time>2026-08-16T14:00:34.138Z</time><hdop>3.0</hdop><vdop>2.5</vdop><extensions><gom:speed>0.851</gom:speed></extensions></trkpt>
   <trkpt lat="59.3016351874" lon="34.6633701712"><ele>158.71</ele><time>2026-08-16T14:00:35.106Z</time><hdop>3.0</hdop><vdop>2.5</vdop><extensions><gom:speed>0.859</gom:speed></extensions></trkpt>
   <trkpt lat="59.3016269731" lon="34.6633603644"><ele>158.816</ele><time>2026-08-16T14:00:36.059Z</time><hdop>3.0</hdop><vdop>2.5</vdop><extensions><gom:speed>0.846</gom:speed></extensions></trkpt>
   <trkpt lat="59.3016215668" lon="34.6633566763"><ele>158.963</ele><time>2026-08-16T14:00:36.726Z</time><hdop>3.0</hdop><vdop>2.5</vdop><extensions><gom:speed>0.839</gom:speed></extensions></trkpt>
   <trkpt lat="59.3016101674" lon="34.6633578498"><ele>158.895</ele><time>2026-08-16T14:00:38.041Z</time><hdop>3.0</hdop><vdop>2.5</vdop><extensions><gom:speed>0.863</gom:speed></extensions></trkpt>
   <trkpt lat="59.3016059764" lon="34.6633598615"><ele>158.793</ele><time>2026-08-16T14:00:38.620Z</time><hdop>3.0</hdop><vdop>2.5</vdop><extensions><gom:speed>0.82</gom:speed></extensions></trkpt>
   <trkpt lat="59.301601995" lon="34.6633606997"><ele>158.678</ele><time>2026-08-16T14:00:39.138Z</time><hdop>3.0</hdop><vdop>2.5</vdop><extensions><gom:speed>0.835</gom:speed></extensions></trkpt>
   <trkpt lat="59.3015941999" lon="34.6633633819"><ele>158.61</ele><time>2026-08-16T14:00:39.985Z</time><hdop>3.0</hdop><vdop>2.5</vdop><extensions><gom:speed>0.887</gom:speed></extensions></trkpt>
   <trkpt lat="59.3015911824" lon="34.6633620408"><ele>158.43</ele><time>2026-08-16T14:00:40.445Z</time><hdop>3.0</hdop><vdop>2.5</vdop><extensions><gom:speed>0.877</gom:speed></extensions></trkpt>
   <trkpt lat="59.3015869914" lon="34.6633575983"><ele>158.388</ele><time>2026-08-16T14:00:41.138Z</time><hdop>3.0</hdop><vdop>2.5</vdop><extensions><gom:speed>0.85</gom:speed></extensions></trkpt>
   <trkpt lat="59.3015839739" lon="34.663352653"><ele>158.363</ele><time>2026-08-16T14:00:41.604Z</time><hdop>3.0</hdop><vdop>2.5</vdop><extensions><gom:speed>0.855</gom:speed></extensions></trkpt>
   <trkpt lat="59.301581166" lon="34.6633453608"><ele>158.278</ele><time>2026-08-16T14:00:42.137Z</time><hdop>3.0</hdop><vdop>2.5</vdop><extensions><gom:speed>0.878</gom:speed></extensions></trkpt>
   <trkpt lat="59.3015757597" lon="34.6633354701"><ele>158.227</ele><time>2026-08-16T14:00:42.959Z</time><hdop>3.0</hdop><vdop>2.5</vdop><extensions><gom:speed>0.876</gom:speed></extensions></trkpt>
   <trkpt lat="59.3015710658" lon="34.6633294352"><ele>158.13</ele><time>2026-08-16T14:00:43.665Z</time><hdop>3.0</hdop><vdop>2.5</vdop><extensions><gom:speed>0.913</gom:speed></extensions></trkpt>
   <trkpt lat="59.3015679645" lon="34.6633278426"><ele>158.148</ele><time>2026-08-16T14:00:44.138Z</time><hdop>3.0</hdop><vdop>2.5</vdop><extensions><gom:speed>0.909</gom:speed></extensions></trkpt>
   <trkpt lat="59.3015600855" lon="34.6633246575"><ele>158.16</ele><time>2026-08-16T14:00:45.059Z</time><hdop>3.0</hdop><vdop>2.5</vdop><extensions><gom:speed>0.931</gom:speed></extensions></trkpt>
   <trkpt lat="59.3015569842" lon="34.6633258309"><ele>158.384</ele><time>2026-08-16T14:00:45.599Z</time><hdop>3.0</hdop><vdop>2.5</vdop><extensions><gom:speed>0.885</gom:speed></extensions></trkpt>
   <trkpt lat="59.3015534638" lon="34.6633247413"><ele>158.777</ele><time>2026-08-16T14:00:46.138Z</time><hdop>3.0</hdop><vdop>2.5</vdop><extensions><gom:speed>0.879</gom:speed></extensions></trkpt>
   <trkpt lat="59.301545962" lon="34.6633190416"><ele>159.012</ele><time>2026-08-16T14:00:47.100Z</time><hdop>3.0</hdop><vdop>2.5</vdop><extensions><gom:speed>0.926</gom:speed></extensions></trkpt>
   <trkpt lat="59.3015412681" lon="34.6633138448"><ele>159.251</ele><time>2026-08-16T14:00:47.984Z</time><hdop>3.0</hdop><vdop>2.5</vdop><extensions><gom:speed>0.876</gom:speed></extensions></trkpt>
   <trkpt lat="59.3015362809" lon="34.6633107435"><ele>159.556</ele><time>2026-08-16T14:00:48.927Z</time><hdop>3.0</hdop><vdop>2.5</vdop><extensions><gom:speed>0.839</gom:speed></extensions></trkpt>
   <trkpt lat="59.3015285696" lon="34.6633072231"><ele>159.456</ele><time>2026-08-16T14:00:50.138Z</time><hdop>3.0</hdop><vdop>2.5</vdop><extensions><gom:speed>0.861</gom:speed></extensions></trkpt>
   <trkpt lat="59.3015229956" lon="34.6633083966"><ele>159.396</ele><time>2026-08-16T14:00:50.842Z</time><hdop>3.0</hdop><vdop>2.5</vdop><extensions><gom:speed>0.858</gom:speed></extensions></trkpt>
   <trkpt lat="59.3015168768" lon="34.6633134257"><ele>159.397</ele><time>2026-08-16T14:00:51.647Z</time><hdop>3.0</hdop><vdop>2.5</vdop><extensions><gom:speed>0.837</gom:speed></extensions></trkpt>
   <trkpt lat="59.301513566" lon="34.6633166947"><ele>159.398</ele><time>2026-08-16T14:00:52.128Z</time><hdop>3.0</hdop><vdop>2.5</vdop><extensions><gom:speed>0.801</gom:speed></extensions></trkpt>
   <trkpt lat="59.301509375" lon="34.6633248251"><ele>159.259</ele><time>2026-08-16T14:00:52.785Z</time><hdop>3.0</hdop><vdop>2.5</vdop><extensions><gom:speed>0.829</gom:speed></extensions></trkpt>
   <trkpt lat="59.3015048907" lon="34.6633371465"><ele>159.352</ele><time>2026-08-16T14:00:53.619Z</time><hdop>3.0</hdop><vdop>2.5</vdop><extensions><gom:speed>0.842</gom:speed></extensions></trkpt>
   <trkpt lat="59.3015003645" lon="34.6633412536"><ele>159.596</ele><time>2026-08-16T14:00:54.138Z</time><hdop>3.0</hdop><vdop>2.5</vdop><extensions><gom:speed>0.924</gom:speed></extensions></trkpt>
   <trkpt lat="59.3014908929" lon="34.6633428462"><ele>159.741</ele><time>2026-08-16T14:00:55.043Z</time><hdop>3.0</hdop><vdop>2.5</vdop><extensions><gom:speed>0.984</gom:speed></extensions></trkpt>
   <trkpt lat="59.3014824691" lon="34.6633413375"><ele>160.255</ele><time>2026-08-16T14:00:55.848Z</time><hdop>3.0</hdop><vdop>2.5</vdop><extensions><gom:speed>1.003</gom:speed></extensions></trkpt>
   <trkpt lat="59.301475093" lon="34.6633352187"><ele>160.356</ele><time>2026-08-16T14:00:56.505Z</time><hdop>3.0</hdop><vdop>2.5</vdop><extensions><gom:speed>1.08</gom:speed></extensions></trkpt>
   <trkpt lat="59.3014687647" lon="34.6633298542"><ele>160.496</ele><time>2026-08-16T14:00:57.138Z</time><hdop>3.0</hdop><vdop>2.5</vdop><extensions><gom:speed>1.059</gom:speed></extensions></trkpt>
   <trkpt lat="59.3014615982" lon="34.6633195445"><ele>160.58</ele><time>2026-08-16T14:00:58.007Z</time><hdop>3.0</hdop><vdop>2.5</vdop><extensions><gom:speed>1.007</gom:speed></extensions></trkpt>
   <trkpt lat="59.3014592931" lon="34.6633103244"><ele>160.865</ele><time>2026-08-16T14:00:58.508Z</time><hdop>3.0</hdop><vdop>2.5</vdop><extensions><gom:speed>1.017</gom:speed></extensions></trkpt>
   <trkpt lat="59.3014572815" lon="34.6633004338"><ele>161.25</ele><time>2026-08-16T14:00:59.138Z</time><hdop>3.0</hdop><vdop>2.5</vdop><extensions><gom:speed>0.907</gom:speed></extensions></trkpt>
   <trkpt lat="59.3014527972" lon="34.6632880285"><ele>161.48</ele><time>2026-08-16T14:01:00.147Z</time><hdop>3.0</hdop><vdop>2.5</vdop><extensions><gom:speed>0.861</gom:speed></extensions></trkpt>
   <trkpt lat="59.3014488996" lon="34.6632860169"><ele>161.74</ele><time>2026-08-16T14:01:00.844Z</time><hdop>3.0</hdop><vdop>2.5</vdop><extensions><gom:speed>0.776</gom:speed></extensions></trkpt>
   <trkpt lat="59.3014455887" lon="34.6632899564"><ele>161.615</ele><time>2026-08-16T14:01:01.560Z</time><hdop>3.0</hdop><vdop>2.5</vdop><extensions><gom:speed>0.716</gom:speed></extensions></trkpt>
   <trkpt lat="59.3014421941" lon="34.6632932253"><ele>161.486</ele><time>2026-08-16T14:01:02.138Z</time><hdop>3.0</hdop><vdop>2.5</vdop><extensions><gom:speed>0.745</gom:speed></extensions></trkpt>
   <trkpt lat="59.3014365782" lon="34.6632967457"><ele>161.408</ele><time>2026-08-16T14:01:02.944Z</time><hdop>3.0</hdop><vdop>2.5</vdop><extensions><gom:speed>0.744</gom:speed></extensions></trkpt>
   <trkpt lat="59.3014218679" lon="34.6632975839"><ele>161.488</ele><time>2026-08-16T14:01:04.137Z</time><hdop>3.0</hdop><vdop>2.5</vdop><extensions><gom:speed>1.013</gom:speed></extensions></trkpt>
   <trkpt lat="59.3014118935" lon="34.6632949855"><ele>161.535</ele><time>2026-08-16T14:01:05.084Z</time><hdop>3.0</hdop><vdop>2.5</vdop><extensions><gom:speed>0.93</gom:speed></extensions></trkpt>
   <trkpt lat="59.3014079959" lon="34.6632911299"><ele>162.065</ele><time>2026-08-16T14:01:05.545Z</time><hdop>3.0</hdop><vdop>2.5</vdop><extensions><gom:speed>0.934</gom:speed></extensions></trkpt>
   <trkpt lat="59.3014047689" lon="34.6632853463"><ele>162.471</ele><time>2026-08-16T14:01:06.138Z</time><hdop>3.0</hdop><vdop>2.5</vdop><extensions><gom:speed>0.85</gom:speed></extensions></trkpt>
   <trkpt lat="59.301400997" lon="34.6632749528"><ele>162.713</ele><time>2026-08-16T14:01:06.959Z</time><hdop>3.0</hdop><vdop>2.5</vdop><extensions><gom:speed>0.855</gom:speed></extensions></trkpt>
   <trkpt lat="59.3013981891" lon="34.6632677443"><ele>162.981</ele><time>2026-08-16T14:01:07.744Z</time><hdop>3.0</hdop><vdop>2.5</vdop><extensions><gom:speed>0.967</gom:speed></extensions></trkpt>
   <trkpt lat="59.3013966803" lon="34.6632704266"><ele>163.114</ele><time>2026-08-16T14:01:08.421Z</time><hdop>3.0</hdop><vdop>2.5</vdop><extensions><gom:speed>0.71</gom:speed></extensions></trkpt>
   <trkpt lat="59.3013932856" lon="34.6632671576"><ele>163.079</ele><time>2026-08-16T14:01:09.138Z</time><hdop>3.0</hdop><vdop>2.5</vdop><extensions><gom:speed>0.708</gom:speed></extensions></trkpt>
   <trkpt lat="59.301391274" lon="34.6632641401"><ele>163.303</ele><time>2026-08-16T14:01:10.138Z</time><hdop>3.0</hdop><vdop>2.5</vdop><extensions><gom:speed>0.441</gom:speed></extensions></trkpt>
   <trkpt lat="59.3013916931" lon="34.6632644754"><ele>163.395</ele><time>2026-08-16T14:01:11.138Z</time><hdop>3.0</hdop><vdop>2.625</vdop><extensions><gom:speed>0.186</gom:speed></extensions></trkpt>
   <trkpt lat="59.3013933695" lon="34.6632647269"><ele>163.441</ele><time>2026-08-16T14:01:12.138Z</time><hdop>3.0</hdop><vdop>2.625</vdop><extensions><gom:speed>0.079</gom:speed></extensions></trkpt>
   <trkpt lat="59.3013944591" lon="34.6632656489"><ele>163.484</ele><time>2026-08-16T14:01:13.138Z</time><hdop>3.0</hdop><vdop>2.562</vdop><extensions><gom:speed>0.06</gom:speed></extensions></trkpt>
   <trkpt lat="59.3013953811" lon="34.6632663194"><ele>163.487</ele><time>2026-08-16T14:01:14.138Z</time><hdop>3.0</hdop><vdop>2.625</vdop><extensions><gom:speed>0.073</gom:speed></extensions></trkpt>
   <trkpt lat="59.3013960936" lon="34.6632662356"><ele>163.326</ele><time>2026-08-16T14:01:15.138Z</time><hdop>3.0</hdop><vdop>2.5</vdop><extensions><gom:speed>0.051</gom:speed></extensions></trkpt>
   <trkpt lat="59.3013961774" lon="34.6632644754"><ele>163.193</ele><time>2026-08-16T14:01:16.138Z</time><hdop>3.0</hdop><vdop>2.5</vdop><extensions><gom:speed>0.078</gom:speed></extensions></trkpt>
   <trkpt lat="59.3013959679" lon="34.6632617932"><ele>162.846</ele><time>2026-08-16T14:01:17.138Z</time><hdop>3.0</hdop><vdop>2.5</vdop><extensions><gom:speed>0.144</gom:speed></extensions></trkpt>
   <trkpt lat="59.3013957583" lon="34.6632604521"><ele>162.64</ele><time>2026-08-16T14:01:18.061Z</time><hdop>3.0</hdop><vdop>2.5</vdop><extensions><gom:speed>0.176</gom:speed></extensions></trkpt>
   <trkpt lat="59.301395884" lon="34.663255842"><ele>162.812</ele><time>2026-08-16T14:01:18.660Z</time><hdop>3.0</hdop><vdop>2.5</vdop><extensions><gom:speed>0.24</gom:speed></extensions></trkpt>
   <trkpt lat="59.3013964708" lon="34.6632505614"><ele>162.873</ele><time>2026-08-16T14:01:19.138Z</time><hdop>3.0</hdop><vdop>2.5</vdop><extensions><gom:speed>0.315</gom:speed></extensions></trkpt>
   <trkpt lat="59.3013989853" lon="34.6632311992"><ele>163.033</ele><time>2026-08-16T14:01:20.138Z</time><hdop>3.0</hdop><vdop>2.5</vdop><extensions><gom:speed>0.795</gom:speed></extensions></trkpt>
   <trkpt lat="59.3014006617" lon="34.6632203866"><ele>163.128</ele><time>2026-08-16T14:01:20.819Z</time><hdop>3.0</hdop><vdop>2.5</vdop><extensions><gom:speed>0.703</gom:speed></extensions></trkpt>
   <trkpt lat="59.3013928666" lon="34.6632216439"><ele>163.572</ele><time>2026-08-16T14:01:21.722Z</time><hdop>3.062</hdop><vdop>2.5</vdop><extensions><gom:speed>0.825</gom:speed></extensions></trkpt>
   <trkpt lat="59.3013849876" lon="34.6632167824"><ele>163.797</ele><time>2026-08-16T14:01:22.242Z</time><hdop>3.062</hdop><vdop>2.5</vdop><extensions><gom:speed>0.861</gom:speed></extensions></trkpt>
   <trkpt lat="59.3013805871" lon="34.6632124238"><ele>163.931</ele><time>2026-08-16T14:01:23.047Z</time><hdop>3.187</hdop><vdop>2.5</vdop><extensions><gom:speed>0.854</gom:speed></extensions></trkpt>
   <trkpt lat="59.3013707802" lon="34.6632027846"><ele>164.15</ele><time>2026-08-16T14:01:23.803Z</time><hdop>3.312</hdop><vdop>2.5</vdop><extensions><gom:speed>0.916</gom:speed></extensions></trkpt>
   <trkpt lat="59.30136068" lon="34.6631966658"><ele>164.016</ele><time>2026-08-16T14:01:24.521Z</time><hdop>3.375</hdop><vdop>2.5</vdop><extensions><gom:speed>0.909</gom:speed></extensions></trkpt>
   <trkpt lat="59.30135607" lon="34.663192391"><ele>163.937</ele><time>2026-08-16T14:01:25.041Z</time><hdop>3.437</hdop><vdop>2.5</vdop><extensions><gom:speed>0.969</gom:speed></extensions></trkpt>
   <trkpt lat="59.3013437905" lon="34.6631876972"><ele>163.776</ele><time>2026-08-16T14:01:26.138Z</time><hdop>3.437</hdop><vdop>2.5</vdop><extensions><gom:speed>0.92</gom:speed></extensions></trkpt>
   <trkpt lat="59.3013368754" lon="34.6631765492"><ele>163.67</ele><time>2026-08-16T14:01:27.138Z</time><hdop>3.5</hdop><vdop>2.5</vdop><extensions><gom:speed>0.885</gom:speed></extensions></trkpt>
   <trkpt lat="59.301332894" lon="34.6631648984"><ele>163.606</ele><time>2026-08-16T14:01:28.044Z</time><hdop>3.437</hdop><vdop>2.5</vdop><extensions><gom:speed>0.869</gom:speed></extensions></trkpt>
   <trkpt lat="59.3013262723" lon="34.6631580252"><ele>163.746</ele><time>2026-08-16T14:01:28.928Z</time><hdop>3.25</hdop><vdop>2.5</vdop><extensions><gom:speed>0.852</gom:speed></extensions></trkpt>
   <trkpt lat="59.3013189801" lon="34.6631591987"><ele>163.836</ele><time>2026-08-16T14:01:29.566Z</time><hdop>3.125</hdop><vdop>2.5</vdop><extensions><gom:speed>0.868</gom:speed></extensions></trkpt>
   <trkpt lat="59.3013136995" lon="34.6631615456"><ele>163.982</ele><time>2026-08-16T14:01:30.138Z</time><hdop>3.062</hdop><vdop>2.5</vdop><extensions><gom:speed>0.83</gom:speed></extensions></trkpt>
   <trkpt lat="59.3013059881" lon="34.6631622162"><ele>164.442</ele><time>2026-08-16T14:01:31.138Z</time><hdop>3.0</hdop><vdop>2.5</vdop><extensions><gom:speed>0.756</gom:speed></extensions></trkpt>
   <trkpt lat="59.3013003723" lon="34.6631554268"><ele>164.716</ele><time>2026-08-16T14:01:31.980Z</time><hdop>3.0</hdop><vdop>2.5</vdop><extensions><gom:speed>0.786</gom:speed></extensions></trkpt>
   <trkpt lat="59.3012964747" lon="34.6631513197"><ele>164.907</ele><time>2026-08-16T14:01:32.628Z</time><hdop>3.0</hdop><vdop>2.5</vdop><extensions><gom:speed>0.798</gom:speed></extensions></trkpt>
   <trkpt lat="59.3012940858" lon="34.6631496433"><ele>165.119</ele><time>2026-08-16T14:01:33.138Z</time><hdop>3.0</hdop><vdop>2.5</vdop><extensions><gom:speed>0.703</gom:speed></extensions></trkpt>
   <trkpt lat="59.3012923675" lon="34.6631499786"><ele>165.152</ele><time>2026-08-16T14:01:34.138Z</time><hdop>3.0</hdop><vdop>2.5</vdop><extensions><gom:speed>0.429</gom:speed></extensions></trkpt>
   <trkpt lat="59.3012935829" lon="34.6631526608"><ele>165.178</ele><time>2026-08-16T14:01:35.138Z</time><hdop>3.0</hdop><vdop>2.5</vdop><extensions><gom:speed>0.178</gom:speed></extensions></trkpt>
   <trkpt lat="59.3012961813" lon="34.6631542534"><ele>165.177</ele><time>2026-08-16T14:01:36.138Z</time><hdop>3.0</hdop><vdop>2.5</vdop><extensions><gom:speed>0.047</gom:speed></extensions></trkpt>
   <trkpt lat="59.3012984863" lon="34.6631555945"><ele>165.157</ele><time>2026-08-16T14:01:37.138Z</time><hdop>3.0</hdop><vdop>2.5</vdop><extensions><gom:speed>0.065</gom:speed></extensions></trkpt>
   <trkpt lat="59.3012989892" lon="34.6631573547"><ele>165.03</ele><time>2026-08-16T14:01:38.138Z</time><hdop>3.0</hdop><vdop>2.5</vdop><extensions><gom:speed>0.027</gom:speed></extensions></trkpt>
   <trkpt lat="59.3012994922" lon="34.66315769"><ele>165.05</ele><time>2026-08-16T14:01:39.138Z</time><hdop>3.0</hdop><vdop>2.5</vdop><extensions><gom:speed>0.024</gom:speed></extensions></trkpt>
   <trkpt lat="59.3013000789" lon="34.6631587796"><ele>164.965</ele><time>2026-08-16T14:01:40.138Z</time><hdop>3.0</hdop><vdop>2.5</vdop><extensions><gom:speed>0.026</gom:speed></extensions></trkpt>
   <trkpt lat="59.3012999951" lon="34.6631593663"><ele>164.906</ele><time>2026-08-16T14:01:41.138Z</time><hdop>3.0</hdop><vdop>2.5</vdop><extensions><gom:speed>0.059</gom:speed></extensions></trkpt>
   <trkpt lat="59.3012992826" lon="34.6631596178"><ele>164.871</ele><time>2026-08-16T14:01:42.138Z</time><hdop>3.0</hdop><vdop>2.5</vdop><extensions><gom:speed>0.032</gom:speed></extensions></trkpt>
   <trkpt lat="59.3012984863" lon="34.6631596178"><ele>164.804</ele><time>2026-08-16T14:01:43.138Z</time><hdop>3.0</hdop><vdop>2.5</vdop><extensions><gom:speed>0.059</gom:speed></extensions></trkpt>
   <trkpt lat="59.3012978996" lon="34.6631580252"><ele>164.661</ele><time>2026-08-16T14:01:44.138Z</time><hdop>3.0</hdop><vdop>2.5</vdop><extensions><gom:speed>0.096</gom:speed></extensions></trkpt>
   <trkpt lat="59.3012975643" lon="34.6631572709"><ele>164.575</ele><time>2026-08-16T14:01:44.662Z</time><hdop>3.0</hdop><vdop>2.5</vdop><extensions><gom:speed>0.134</gom:speed></extensions></trkpt>
   <trkpt lat="59.3012980672" lon="34.6631565165"><ele>164.42</ele><time>2026-08-16T14:01:45.138Z</time><hdop>3.0</hdop><vdop>2.5</vdop><extensions><gom:speed>0.177</gom:speed></extensions></trkpt>
   <trkpt lat="59.3012982768" lon="34.6631560974"><ele>164.328</ele><time>2026-08-16T14:01:45.799Z</time><hdop>3.0</hdop><vdop>2.5</vdop><extensions><gom:speed>0.206</gom:speed></extensions></trkpt>
   <trkpt lat="59.3012998693" lon="34.6631511521"><ele>164.127</ele><time>2026-08-16T14:01:46.320Z</time><hdop>3.0</hdop><vdop>2.5</vdop><extensions><gom:speed>0.304</gom:speed></extensions></trkpt>
   <trkpt lat="59.301300498" lon="34.6631505653"><ele>164.008</ele><time>2026-08-16T14:01:47.145Z</time><hdop>3.0</hdop><vdop>2.5</vdop><extensions><gom:speed>0.268</gom:speed></extensions></trkpt>
   <trkpt lat="59.3013014619" lon="34.6631399203"><ele>163.833</ele><time>2026-08-16T14:01:47.901Z</time><hdop>3.0</hdop><vdop>2.5</vdop><extensions><gom:speed>0.445</gom:speed></extensions></trkpt>
   <trkpt lat="59.301300959" lon="34.663121061"><ele>163.698</ele><time>2026-08-16T14:01:48.607Z</time><hdop>3.0</hdop><vdop>2.5</vdop><extensions><gom:speed>0.564</gom:speed></extensions></trkpt>
   <trkpt lat="59.3012997855" lon="34.6631068956"><ele>163.561</ele><time>2026-08-16T14:01:49.138Z</time><hdop>3.0</hdop><vdop>2.5</vdop><extensions><gom:speed>0.622</gom:speed></extensions></trkpt>
   <trkpt lat="59.3012987797" lon="34.6630969212"><ele>163.478</ele><time>2026-08-16T14:01:49.648Z</time><hdop>3.0</hdop><vdop>2.5</vdop><extensions><gom:speed>0.625</gom:speed></extensions></trkpt>
   <trkpt lat="59.3012965585" lon="34.6630866952"><ele>163.18</ele><time>2026-08-16T14:01:50.137Z</time><hdop>3.062</hdop><vdop>2.5</vdop><extensions><gom:speed>0.679</gom:speed></extensions></trkpt>
   <trkpt lat="59.3012950917" lon="34.6630824205"><ele>163.002</ele><time>2026-08-16T14:01:50.638Z</time><hdop>3.062</hdop><vdop>2.5</vdop><extensions><gom:speed>0.735</gom:speed></extensions></trkpt>
   <trkpt lat="59.3012925771" lon="34.6630795706"><ele>163.033</ele><time>2026-08-16T14:01:51.138Z</time><hdop>3.062</hdop><vdop>2.5</vdop><extensions><gom:speed>0.673</gom:speed></extensions></trkpt>
   <trkpt lat="59.3012873803" lon="34.6630609628"><ele>162.877</ele><time>2026-08-16T14:01:52.138Z</time><hdop>3.062</hdop><vdop>2.5</vdop><extensions><gom:speed>0.847</gom:speed></extensions></trkpt>
   <trkpt lat="59.3012861649" lon="34.6630504854"><ele>162.784</ele><time>2026-08-16T14:01:52.887Z</time><hdop>3.125</hdop><vdop>2.5</vdop><extensions><gom:speed>0.863</gom:speed></extensions></trkpt>
   <trkpt lat="59.3012779926" lon="34.6630376611"><ele>162.624</ele><time>2026-08-16T14:01:53.446Z</time><hdop>3.187</hdop><vdop>2.5</vdop><extensions><gom:speed>0.867</gom:speed></extensions></trkpt>
   <trkpt lat="59.301270868" lon="34.6630248368"><ele>162.54</ele><time>2026-08-16T14:01:54.138Z</time><hdop>3.187</hdop><vdop>2.5</vdop><extensions><gom:speed>0.81</gom:speed></extensions></trkpt>
   <trkpt lat="59.3012679762" lon="34.6630155329"><ele>162.49</ele><time>2026-08-16T14:01:54.722Z</time><hdop>3.187</hdop><vdop>2.5</vdop><extensions><gom:speed>0.792</gom:speed></extensions></trkpt>
   <trkpt lat="59.3012638691" lon="34.6630055584"><ele>162.398</ele><time>2026-08-16T14:01:55.184Z</time><hdop>3.187</hdop><vdop>2.5</vdop><extensions><gom:speed>0.845</gom:speed></extensions></trkpt>
   <trkpt lat="59.3012651683" lon="34.6629953325"><ele>162.343</ele><time>2026-08-16T14:01:55.841Z</time><hdop>3.187</hdop><vdop>2.5</vdop><extensions><gom:speed>0.849</gom:speed></extensions></trkpt>
   <trkpt lat="59.3012622765" lon="34.6629820891"><ele>162.264</ele><time>2026-08-16T14:01:56.401Z</time><hdop>3.187</hdop><vdop>2.5</vdop><extensions><gom:speed>0.926</gom:speed></extensions></trkpt>
   <trkpt lat="59.3012626956" lon="34.6629684266"><ele>162.216</ele><time>2026-08-16T14:01:57.127Z</time><hdop>3.187</hdop><vdop>2.5</vdop><extensions><gom:speed>0.898</gom:speed></extensions></trkpt>
   <trkpt lat="59.3012554872" lon="34.6629524171"><ele>162.003</ele><time>2026-08-16T14:01:57.961Z</time><hdop>3.125</hdop><vdop>2.5</vdop><extensions><gom:speed>0.905</gom:speed></extensions></trkpt>
   <trkpt lat="59.3012484883" lon="34.6629403472"><ele>161.649</ele><time>2026-08-16T14:01:58.668Z</time><hdop>3.062</hdop><vdop>2.5</vdop><extensions><gom:speed>0.873</gom:speed></extensions></trkpt>
   <trkpt lat="59.3012446745" lon="34.6629323844"><ele>161.403</ele><time>2026-08-16T14:01:59.138Z</time><hdop>3.062</hdop><vdop>2.5</vdop><extensions><gom:speed>0.883</gom:speed></extensions></trkpt>
   <trkpt lat="59.3012435849" lon="34.6629155368"><ele>161.257</ele><time>2026-08-16T14:02:00.140Z</time><hdop>3.062</hdop><vdop>2.5</vdop><extensions><gom:speed>0.884</gom:speed></extensions></trkpt>
   <trkpt lat="59.3012434591" lon="34.6629044727"><ele>161.211</ele><time>2026-08-16T14:02:00.828Z</time><hdop>3.062</hdop><vdop>2.5</vdop><extensions><gom:speed>0.871</gom:speed></extensions></trkpt>
   <trkpt lat="59.3012400645" lon="34.6628918998"><ele>161.389</ele><time>2026-08-16T14:02:01.623Z</time><hdop>3.062</hdop><vdop>2.5</vdop><extensions><gom:speed>0.926</gom:speed></extensions></trkpt>
   <trkpt lat="59.3012361669" lon="34.6628849428"><ele>161.707</ele><time>2026-08-16T14:02:02.138Z</time><hdop>3.0</hdop><vdop>2.5</vdop><extensions><gom:speed>0.881</gom:speed></extensions></trkpt>
   <trkpt lat="59.3012305929" lon="34.6628713641"><ele>161.957</ele><time>2026-08-16T14:02:03.138Z</time><hdop>3.0</hdop><vdop>2.5</vdop><extensions><gom:speed>0.936</gom:speed></extensions></trkpt>
   <trkpt lat="59.3012240969" lon="34.662857534"><ele>162.106</ele><time>2026-08-16T14:02:04.125Z</time><hdop>3.0</hdop><vdop>2.5</vdop><extensions><gom:speed>0.947</gom:speed></extensions></trkpt>
   <trkpt lat="59.3012094705" lon="34.6628627308"><ele>162.565</ele><time>2026-08-16T14:02:05.138Z</time><hdop>3.0</hdop><vdop>2.5</vdop><extensions><gom:speed>0.889</gom:speed></extensions></trkpt>
   <trkpt lat="59.3012046928" lon="34.662861725"><ele>162.839</ele><time>2026-08-16T14:02:05.608Z</time><hdop>3.0</hdop><vdop>2.5</vdop><extensions><gom:speed>0.891</gom:speed></extensions></trkpt>
   <trkpt lat="59.3011991608" lon="34.6628614735"><ele>163.117</ele><time>2026-08-16T14:02:06.138Z</time><hdop>3.0</hdop><vdop>2.5</vdop><extensions><gom:speed>0.912</gom:speed></extensions></trkpt>
   <trkpt lat="59.3011950955" lon="34.6628571987"><ele>163.283</ele><time>2026-08-16T14:02:06.648Z</time><hdop>3.0</hdop><vdop>2.5</vdop><extensions><gom:speed>0.913</gom:speed></extensions></trkpt>
   <trkpt lat="59.3011928743" lon="34.6628571987"><ele>163.559</ele><time>2026-08-16T14:02:07.138Z</time><hdop>3.0</hdop><vdop>2.5</vdop><extensions><gom:speed>0.74</gom:speed></extensions></trkpt>
   <trkpt lat="59.3011894797" lon="34.6628519181"><ele>163.724</ele><time>2026-08-16T14:02:07.865Z</time><hdop>3.0</hdop><vdop>2.5</vdop><extensions><gom:speed>0.72</gom:speed></extensions></trkpt>
   <trkpt lat="59.3011887672" lon="34.6628465537"><ele>163.554</ele><time>2026-08-16T14:02:08.503Z</time><hdop>3.0</hdop><vdop>2.5</vdop><extensions><gom:speed>0.76</gom:speed></extensions></trkpt>
   <trkpt lat="59.3011891863" lon="34.6628431171"><ele>163.386</ele><time>2026-08-16T14:02:09.138Z</time><hdop>3.0</hdop><vdop>2.5</vdop><extensions><gom:speed>0.661</gom:speed></extensions></trkpt>
   <trkpt lat="59.3011865879" lon="34.6628378365"><ele>163.317</ele><time>2026-08-16T14:02:10.138Z</time><hdop>3.0</hdop><vdop>2.5</vdop><extensions><gom:speed>0.651</gom:speed></extensions></trkpt>
   <trkpt lat="59.3011821874" lon="34.6628337294"><ele>163.276</ele><time>2026-08-16T14:02:11.045Z</time><hdop>3.0</hdop><vdop>2.5</vdop><extensions><gom:speed>0.616</gom:speed></extensions></trkpt>
   <trkpt lat="59.3011770745" lon="34.6628372498"><ele>162.977</ele><time>2026-08-16T14:02:11.840Z</time><hdop>3.0</hdop><vdop>2.5</vdop><extensions><gom:speed>0.647</gom:speed></extensions></trkpt>
   <trkpt lat="59.301172171" lon="34.6628434524"><ele>162.824</ele><time>2026-08-16T14:02:12.439Z</time><hdop>3.0</hdop><vdop>2.5</vdop><extensions><gom:speed>0.721</gom:speed></extensions></trkpt>
   <trkpt lat="59.3011679801" lon="34.6628492359"><ele>162.845</ele><time>2026-08-16T14:02:13.137Z</time><hdop>3.0</hdop><vdop>2.5</vdop><extensions><gom:speed>0.677</gom:speed></extensions></trkpt>
   <trkpt lat="59.3011627833" lon="34.6628500741"><ele>162.857</ele><time>2026-08-16T14:02:14.000Z</time><hdop>3.0</hdop><vdop>2.5</vdop><extensions><gom:speed>0.674</gom:speed></extensions></trkpt>
   <trkpt lat="59.3011567902" lon="34.6628472243"><ele>162.7</ele><time>2026-08-16T14:02:14.863Z</time><hdop>3.0</hdop><vdop>2.5</vdop><extensions><gom:speed>0.738</gom:speed></extensions></trkpt>
   <trkpt lat="59.3011521802" lon="34.662842698"><ele>162.366</ele><time>2026-08-16T14:02:15.600Z</time><hdop>3.0</hdop><vdop>2.5</vdop><extensions><gom:speed>0.762</gom:speed></extensions></trkpt>
   <trkpt lat="59.3011495818" lon="34.6628387585"><ele>162.238</ele><time>2026-08-16T14:02:16.138Z</time><hdop>3.0</hdop><vdop>2.5</vdop><extensions><gom:speed>0.746</gom:speed></extensions></trkpt>
   <trkpt lat="59.301145768" lon="34.6628307957"><ele>162.162</ele><time>2026-08-16T14:02:16.944Z</time><hdop>3.0</hdop><vdop>2.5</vdop><extensions><gom:speed>0.752</gom:speed></extensions></trkpt>
   <trkpt lat="59.3011441755" lon="34.6628161274"><ele>162.164</ele><time>2026-08-16T14:02:17.926Z</time><hdop>3.0</hdop><vdop>2.5</vdop><extensions><gom:speed>0.819</gom:speed></extensions></trkpt>
   <trkpt lat="59.3011410742" lon="34.6627988607"><ele>162.297</ele><time>2026-08-16T14:02:19.025Z</time><hdop>3.0</hdop><vdop>2.5</vdop><extensions><gom:speed>0.871</gom:speed></extensions></trkpt>
   <trkpt lat="59.301138392" lon="34.6627911493"><ele>162.201</ele><time>2026-08-16T14:02:19.702Z</time><hdop>3.0</hdop><vdop>2.5</vdop><extensions><gom:speed>0.841</gom:speed></extensions></trkpt>
   <trkpt lat="59.3011367994" lon="34.6627781574"><ele>162.224</ele><time>2026-08-16T14:02:20.586Z</time><hdop>3.0</hdop><vdop>2.5</vdop><extensions><gom:speed>0.885</gom:speed></extensions></trkpt>
   <trkpt lat="59.3011364641" lon="34.6627690211"><ele>162.356</ele><time>2026-08-16T14:02:21.138Z</time><hdop>3.0</hdop><vdop>2.5</vdop><extensions><gom:speed>0.909</gom:speed></extensions></trkpt>
   <trkpt lat="59.3011359612" lon="34.6627586275"><ele>162.434</ele><time>2026-08-16T14:02:21.744Z</time><hdop>3.0</hdop><vdop>2.5</vdop><extensions><gom:speed>0.91</gom:speed></extensions></trkpt>
   <trkpt lat="59.3011338657" lon="34.6627402712"><ele>162.6</ele><time>2026-08-16T14:02:22.901Z</time><hdop>3.0</hdop><vdop>2.5</vdop><extensions><gom:speed>0.889</gom:speed></extensions></trkpt>
   <trkpt lat="59.301128166" lon="34.6627267763"><ele>162.706</ele><time>2026-08-16T14:02:24.138Z</time><hdop>3.0</hdop><vdop>2.5</vdop><extensions><gom:speed>0.87</gom:speed></extensions></trkpt>
   <trkpt lat="59.3011223825" lon="34.6627187297"><ele>162.769</ele><time>2026-08-16T14:02:25.003Z</time><hdop>3.0</hdop><vdop>2.5</vdop><extensions><gom:speed>0.793</gom:speed></extensions></trkpt>
   <trkpt lat="59.3011128691" lon="34.6627229206"><ele>162.591</ele><time>2026-08-16T14:02:26.102Z</time><hdop>3.0</hdop><vdop>2.5</vdop><extensions><gom:speed>0.772</gom:speed></extensions></trkpt>
   <trkpt lat="59.3011040681" lon="34.6627276983"><ele>162.388</ele><time>2026-08-16T14:02:27.138Z</time><hdop>3.0</hdop><vdop>2.5</vdop><extensions><gom:speed>0.799</gom:speed></extensions></trkpt>
   <trkpt lat="59.3010985779" lon="34.6627187297"><ele>162.266</ele><time>2026-08-16T14:02:28.006Z</time><hdop>3.0</hdop><vdop>2.5</vdop><extensions><gom:speed>0.83</gom:speed></extensions></trkpt>
   <trkpt lat="59.3010962729" lon="34.6627094258"><ele>162.214</ele><time>2026-08-16T14:02:28.585Z</time><hdop>3.0</hdop><vdop>2.5</vdop><extensions><gom:speed>0.872</gom:speed></extensions></trkpt>
   <trkpt lat="59.3010942613" lon="34.6627011277"><ele>162.197</ele><time>2026-08-16T14:02:29.138Z</time><hdop>3.0</hdop><vdop>2.5</vdop><extensions><gom:speed>0.892</gom:speed></extensions></trkpt>
   <trkpt lat="59.3010876815" lon="34.662688471"><ele>162.404</ele><time>2026-08-16T14:02:30.138Z</time><hdop>3.0</hdop><vdop>2.5</vdop><extensions><gom:speed>0.95</gom:speed></extensions></trkpt>
   <trkpt lat="59.3010809759" lon="34.6626799215"><ele>162.527</ele><time>2026-08-16T14:02:30.921Z</time><hdop>3.0</hdop><vdop>2.5</vdop><extensions><gom:speed>0.95</gom:speed></extensions></trkpt>
   <trkpt lat="59.3010746895" lon="34.662671791"><ele>162.505</ele><time>2026-08-16T14:02:31.628Z</time><hdop>3.0</hdop><vdop>2.5</vdop><extensions><gom:speed>1.008</gom:speed></extensions></trkpt>
   <trkpt lat="59.3010720911" lon="34.6626651693"><ele>162.463</ele><time>2026-08-16T14:02:32.138Z</time><hdop>3.0</hdop><vdop>2.5</vdop><extensions><gom:speed>0.941</gom:speed></extensions></trkpt>
   <trkpt lat="59.3010691994" lon="34.6626512554"><ele>162.438</ele><time>2026-08-16T14:02:33.138Z</time><hdop>3.0</hdop><vdop>2.5</vdop><extensions><gom:speed>0.882</gom:speed></extensions></trkpt>
   <trkpt lat="59.3010627872" lon="34.6626457233"><ele>162.265</ele><time>2026-08-16T14:02:34.138Z</time><hdop>3.0</hdop><vdop>2.5</vdop><extensions><gom:speed>0.883</gom:speed></extensions></trkpt>
   <trkpt lat="59.3010560817" lon="34.662644466"><ele>162.237</ele><time>2026-08-16T14:02:35.138Z</time><hdop>3.0</hdop><vdop>2.5</vdop><extensions><gom:speed>0.799</gom:speed></extensions></trkpt>
   <trkpt lat="59.3010521841" lon="34.6626373414"><ele>162.219</ele><time>2026-08-16T14:02:36.138Z</time><hdop>3.0</hdop><vdop>2.5</vdop><extensions><gom:speed>0.721</gom:speed></extensions></trkpt>
   <trkpt lat="59.3010474902" lon="34.6626312226"><ele>162.208</ele><time>2026-08-16T14:02:37.007Z</time><hdop>3.0</hdop><vdop>2.5</vdop><extensions><gom:speed>0.737</gom:speed></extensions></trkpt>
   <trkpt lat="59.3010411619" lon="34.6626311388"><ele>161.988</ele><time>2026-08-16T14:02:37.762Z</time><hdop>3.0</hdop><vdop>2.5</vdop><extensions><gom:speed>0.842</gom:speed></extensions></trkpt>
   <trkpt lat="59.3010349593" lon="34.6626327314"><ele>161.916</ele><time>2026-08-16T14:02:38.322Z</time><hdop>3.0</hdop><vdop>2.5</vdop><extensions><gom:speed>0.958</gom:speed></extensions></trkpt>
   <trkpt lat="59.3010273737" lon="34.6626311388"><ele>161.873</ele><time>2026-08-16T14:02:39.107Z</time><hdop>3.0</hdop><vdop>2.5</vdop><extensions><gom:speed>0.996</gom:speed></extensions></trkpt>
   <trkpt lat="59.3010218835" lon="34.6626316417"><ele>161.851</ele><time>2026-08-16T14:02:39.608Z</time><hdop>3.0</hdop><vdop>2.5</vdop><extensions><gom:speed>1.004</gom:speed></extensions></trkpt>
   <trkpt lat="59.3010161838" lon="34.6626307197"><ele>161.872</ele><time>2026-08-16T14:02:40.138Z</time><hdop>3.0</hdop><vdop>2.5</vdop><extensions><gom:speed>1.024</gom:speed></extensions></trkpt>
   <trkpt lat="59.3010069637" lon="34.6626270317"><ele>161.884</ele><time>2026-08-16T14:02:41.021Z</time><hdop>3.0</hdop><vdop>2.5</vdop><extensions><gom:speed>1.026</gom:speed></extensions></trkpt>
   <trkpt lat="59.3010008868" lon="34.6626235951"><ele>161.829</ele><time>2026-08-16T14:02:41.659Z</time><hdop>3.0</hdop><vdop>2.5</vdop><extensions><gom:speed>1.024</gom:speed></extensions></trkpt>
   <trkpt lat="59.3009971988" lon="34.6626218349"><ele>161.894</ele><time>2026-08-16T14:02:42.138Z</time><hdop>3.0</hdop><vdop>2.5</vdop><extensions><gom:speed>0.921</gom:speed></extensions></trkpt>
   <trkpt lat="59.300992966" lon="34.6626155485"><ele>161.738</ele><time>2026-08-16T14:02:43.138Z</time><hdop>3.0</hdop><vdop>2.5</vdop><extensions><gom:speed>0.636</gom:speed></extensions></trkpt>
   <trkpt lat="59.3009942651" lon="34.6626124472"><ele>161.794</ele><time>2026-08-16T14:02:44.138Z</time><hdop>3.0</hdop><vdop>2.5</vdop><extensions><gom:speed>0.443</gom:speed></extensions></trkpt>
   <trkpt lat="59.3009973665" lon="34.6626124472"><ele>161.627</ele><time>2026-08-16T14:02:45.138Z</time><hdop>3.0</hdop><vdop>2.5</vdop><extensions><gom:speed>0.288</gom:speed></extensions></trkpt>
   <trkpt lat="59.3010010964" lon="34.6626157999"><ele>161.578</ele><time>2026-08-16T14:02:46.138Z</time><hdop>3.0</hdop><vdop>2.5</vdop><extensions><gom:speed>0.136</gom:speed></extensions></trkpt>
   <trkpt lat="59.3010017669" lon="34.662619488"><ele>161.533</ele><time>2026-08-16T14:02:47.138Z</time><hdop>3.0</hdop><vdop>2.5</vdop><extensions><gom:speed>0.144</gom:speed></extensions></trkpt>
   <trkpt lat="59.3010011802" lon="34.6626202423"><ele>161.507</ele><time>2026-08-16T14:02:47.902Z</time><hdop>3.0</hdop><vdop>2.5</vdop><extensions><gom:speed>0.182</gom:speed></extensions></trkpt>
   <trkpt lat="59.3009980789" lon="34.6626217511"><ele>161.632</ele><time>2026-08-16T14:02:48.463Z</time><hdop>3.0</hdop><vdop>2.5</vdop><extensions><gom:speed>0.348</gom:speed></extensions></trkpt>
   <trkpt lat="59.300993385" lon="34.6626236789"><ele>161.858</ele><time>2026-08-16T14:02:49.138Z</time><hdop>3.0</hdop><vdop>2.5</vdop><extensions><gom:speed>0.491</gom:speed></extensions></trkpt>
   <trkpt lat="59.3009884816" lon="34.6626252715"><ele>161.994</ele><time>2026-08-16T14:02:49.866Z</time><hdop>3.0</hdop><vdop>2.5</vdop><extensions><gom:speed>0.508</gom:speed></extensions></trkpt>
   <trkpt lat="59.300977669" lon="34.6626249362"><ele>161.984</ele><time>2026-08-16T14:02:50.602Z</time><hdop>3.0</hdop><vdop>2.5</vdop><extensions><gom:speed>0.843</gom:speed></extensions></trkpt>
   <trkpt lat="59.3009695804" lon="34.662622254"><ele>162.189</ele><time>2026-08-16T14:02:51.138Z</time><hdop>3.0</hdop><vdop>2.5</vdop><extensions><gom:speed>1.062</gom:speed></extensions></trkpt>
   <trkpt lat="59.3009584744" lon="34.6626167219"><ele>162.312</ele><time>2026-08-16T14:02:51.986Z</time><hdop>3.0</hdop><vdop>2.5</vdop><extensions><gom:speed>1.056</gom:speed></extensions></trkpt>
   <trkpt lat="59.3009505954" lon="34.6626136206"><ele>162.619</ele><time>2026-08-16T14:02:52.624Z</time><hdop>3.0</hdop><vdop>2.5</vdop><extensions><gom:speed>1.066</gom:speed></extensions></trkpt>
   <trkpt lat="59.300945692" lon="34.6626109384"><ele>162.803</ele><time>2026-08-16T14:02:53.138Z</time><hdop>3.0</hdop><vdop>2.5</vdop><extensions><gom:speed>1.017</gom:speed></extensions></trkpt>
   <trkpt lat="59.3009395732" lon="34.6626065798"><ele>162.912</ele><time>2026-08-16T14:02:53.782Z</time><hdop>3.0</hdop><vdop>2.5</vdop><extensions><gom:speed>1.007</gom:speed></extensions></trkpt>
   <trkpt lat="59.3009288863" lon="34.6625910733"><ele>162.986</ele><time>2026-08-16T14:02:55.138Z</time><hdop>3.0</hdop><vdop>2.5</vdop><extensions><gom:speed>1.029</gom:speed></extensions></trkpt>
   <trkpt lat="59.3009243601" lon="34.6625798416"><ele>163.03</ele><time>2026-08-16T14:02:55.824Z</time><hdop>3.0</hdop><vdop>2.5</vdop><extensions><gom:speed>1.039</gom:speed></extensions></trkpt>
   <trkpt lat="59.3009212588" lon="34.6625706215"><ele>163.03</ele><time>2026-08-16T14:02:56.482Z</time><hdop>3.0</hdop><vdop>2.5</vdop><extensions><gom:speed>0.991</gom:speed></extensions></trkpt>
   <trkpt lat="59.300918367" lon="34.662564335"><ele>162.905</ele><time>2026-08-16T14:02:57.138Z</time><hdop>3.0</hdop><vdop>2.5</vdop><extensions><gom:speed>0.882</gom:speed></extensions></trkpt>
   <trkpt lat="59.3009117872" lon="34.662562491"><ele>162.973</ele><time>2026-08-16T14:02:58.138Z</time><hdop>3.0</hdop><vdop>2.5</vdop><extensions><gom:speed>0.879</gom:speed></extensions></trkpt>
   <trkpt lat="59.3009045788" lon="34.6625728846"><ele>163.013</ele><time>2026-08-16T14:02:59.123Z</time><hdop>3.0</hdop><vdop>2.5</vdop><extensions><gom:speed>0.836</gom:speed></extensions></trkpt>
   <trkpt lat="59.3008987953" lon="34.6625812665"><ele>162.939</ele><time>2026-08-16T14:03:00.138Z</time><hdop>3.0</hdop><vdop>2.5</vdop><extensions><gom:speed>0.896</gom:speed></extensions></trkpt>
   <trkpt lat="59.300892886" lon="34.6625753991"><ele>162.895</ele><time>2026-08-16T14:03:00.802Z</time><hdop>3.0</hdop><vdop>2.5</vdop><extensions><gom:speed>0.897</gom:speed></extensions></trkpt>
   <trkpt lat="59.3008880664" lon="34.6625726331"><ele>162.858</ele><time>2026-08-16T14:03:01.342Z</time><hdop>3.0</hdop><vdop>2.5</vdop><extensions><gom:speed>0.923</gom:speed></extensions></trkpt>
   <trkpt lat="59.3008806904" lon="34.6625680231"><ele>162.639</ele><time>2026-08-16T14:03:02.138Z</time><hdop>3.0</hdop><vdop>2.5</vdop><extensions><gom:speed>1.029</gom:speed></extensions></trkpt>
   <trkpt lat="59.3008755774" lon="34.662566179"><ele>162.508</ele><time>2026-08-16T14:03:02.627Z</time><hdop>3.0</hdop><vdop>2.5</vdop><extensions><gom:speed>1.031</gom:speed></extensions></trkpt>
   <trkpt lat="59.3008702968" lon="34.6625663467"><ele>162.473</ele><time>2026-08-16T14:03:03.138Z</time><hdop>3.0</hdop><vdop>2.5</vdop><extensions><gom:speed>1.094</gom:speed></extensions></trkpt>
   <trkpt lat="59.3008603642" lon="34.6625718787"><ele>162.452</ele><time>2026-08-16T14:03:04.079Z</time><hdop>3.0</hdop><vdop>2.5</vdop><extensions><gom:speed>1.044</gom:speed></extensions></trkpt>
   <trkpt lat="59.3008589812" lon="34.6625820208"><ele>162.343</ele><time>2026-08-16T14:03:05.138Z</time><hdop>3.0</hdop><vdop>2.5</vdop><extensions><gom:speed>0.691</gom:speed></extensions></trkpt>
   <trkpt lat="59.300861873" lon="34.6625869662"><ele>162.285</ele><time>2026-08-16T14:03:06.138Z</time><hdop>3.0</hdop><vdop>2.5</vdop><extensions><gom:speed>0.398</gom:speed></extensions></trkpt>
   <trkpt lat="59.3008652677" lon="34.6625860442"><ele>162.278</ele><time>2026-08-16T14:03:07.138Z</time><hdop>3.0</hdop><vdop>2.5</vdop><extensions><gom:speed>0.137</gom:speed></extensions></trkpt>
   <trkpt lat="59.3008645971" lon="34.662594929"><ele>162.839</ele><time>2026-08-16T14:03:08.138Z</time><hdop>3.0</hdop><vdop>2.5</vdop><extensions><gom:speed>0.547</gom:speed></extensions></trkpt>
   <trkpt lat="59.3008615796" lon="34.6625974435"><ele>163.174</ele><time>2026-08-16T14:03:08.704Z</time><hdop>3.0</hdop><vdop>2.5</vdop><extensions><gom:speed>0.556</gom:speed></extensions></trkpt>
   <trkpt lat="59.3008544969" lon="34.6625747286"><ele>163.228</ele><time>2026-08-16T14:03:09.843Z</time><hdop>3.0</hdop><vdop>2.5</vdop><extensions><gom:speed>0.346</gom:speed></extensions></trkpt>
   <trkpt lat="59.3008462826" lon="34.6625369262"><ele>163.343</ele><time>2026-08-16T14:03:11.138Z</time><hdop>3.0</hdop><vdop>2.5</vdop><extensions><gom:speed>0.739</gom:speed></extensions></trkpt>
   <trkpt lat="59.3008472885" lon="34.6625288796"><ele>163.411</ele><time>2026-08-16T14:03:11.826Z</time><hdop>3.0</hdop><vdop>2.5</vdop><extensions><gom:speed>0.816</gom:speed></extensions></trkpt>
   <trkpt lat="59.3008385713" lon="34.6625137922"><ele>163.605</ele><time>2026-08-16T14:03:13.138Z</time><hdop>3.0</hdop><vdop>2.5</vdop><extensions><gom:speed>0.944</gom:speed></extensions></trkpt>
   <trkpt lat="59.300836392" lon="34.6625029795"><ele>163.65</ele><time>2026-08-16T14:03:14.138Z</time><hdop>3.0</hdop><vdop>2.5</vdop><extensions><gom:speed>0.601</gom:speed></extensions></trkpt>
   <trkpt lat="59.3008353862" lon="34.6625104394"><ele>163.676</ele><time>2026-08-16T14:03:15.006Z</time><hdop>3.0</hdop><vdop>2.5</vdop><extensions><gom:speed>0.601</gom:speed></extensions></trkpt>
   <trkpt lat="59.3008353862" lon="34.6625179831"><ele>163.654</ele><time>2026-08-16T14:03:15.820Z</time><hdop>3.187</hdop><vdop>2.5</vdop><extensions><gom:speed>0.684</gom:speed></extensions></trkpt>
   <trkpt lat="59.3008215979" lon="34.6624996267"><ele>163.449</ele><time>2026-08-16T14:03:17.138Z</time><hdop>3.25</hdop><vdop>2.5</vdop><extensions><gom:speed>0.672</gom:speed></extensions></trkpt>
   <trkpt lat="59.3008159821" lon="34.6624943461"><ele>163.327</ele><time>2026-08-16T14:03:17.862Z</time><hdop>3.312</hdop><vdop>2.5</vdop><extensions><gom:speed>0.676</gom:speed></extensions></trkpt>
   <trkpt lat="59.3008047922" lon="34.6624923345"><ele>163.032</ele><time>2026-08-16T14:03:18.685Z</time><hdop>3.312</hdop><vdop>2.5</vdop><extensions><gom:speed>0.799</gom:speed></extensions></trkpt>
   <trkpt lat="59.3008007689" lon="34.6624958549"><ele>162.935</ele><time>2026-08-16T14:03:19.138Z</time><hdop>3.312</hdop><vdop>2.5</vdop><extensions><gom:speed>0.729</gom:speed></extensions></trkpt>
   <trkpt lat="59.3007973742" lon="34.662505997"><ele>162.899</ele><time>2026-08-16T14:03:20.138Z</time><hdop>3.187</hdop><vdop>2.5</vdop><extensions><gom:speed>0.487</gom:speed></extensions></trkpt>
   <trkpt lat="59.3007982962" lon="34.6625113614"><ele>162.873</ele><time>2026-08-16T14:03:21.138Z</time><hdop>3.062</hdop><vdop>2.5</vdop><extensions><gom:speed>0.283</gom:speed></extensions></trkpt>
   <trkpt lat="59.3007987992" lon="34.6625118643"><ele>162.888</ele><time>2026-08-16T14:03:22.138Z</time><hdop>3.062</hdop><vdop>2.5</vdop><extensions><gom:speed>0.092</gom:speed></extensions></trkpt>
   <trkpt lat="59.3007990925" lon="34.6625139598"><ele>162.908</ele><time>2026-08-16T14:03:23.138Z</time><hdop>3.0</hdop><vdop>2.5</vdop><extensions><gom:speed>0.041</gom:speed></extensions></trkpt>
   <trkpt lat="59.3007991763" lon="34.6625169773"><ele>162.924</ele><time>2026-08-16T14:03:24.138Z</time><hdop>3.0</hdop><vdop>2.5</vdop><extensions><gom:speed>0.027</gom:speed></extensions></trkpt>
   <trkpt lat="59.3007989668" lon="34.6625196595"><ele>162.939</ele><time>2026-08-16T14:03:25.138Z</time><hdop>3.0</hdop><vdop>2.5</vdop><extensions><gom:speed>0.064</gom:speed></extensions></trkpt>
   <trkpt lat="59.3007985896" lon="34.6625213359"><ele>162.777</ele><time>2026-08-16T14:03:26.138Z</time><hdop>3.0</hdop><vdop>2.5</vdop><extensions><gom:speed>0.028</gom:speed></extensions></trkpt>
   <trkpt lat="59.3007978772" lon="34.6625220902"><ele>162.721</ele><time>2026-08-16T14:03:27.138Z</time><hdop>3.0</hdop><vdop>2.5</vdop><extensions><gom:speed>0.071</gom:speed></extensions></trkpt>
   <trkpt lat="59.300796578" lon="34.6625229284"><ele>162.694</ele><time>2026-08-16T14:03:28.138Z</time><hdop>3.0</hdop><vdop>2.5</vdop><extensions><gom:speed>0.069</gom:speed></extensions></trkpt>
   <trkpt lat="59.3007948597" lon="34.662522677"><ele>162.568</ele><time>2026-08-16T14:03:29.138Z</time><hdop>3.0</hdop><vdop>2.5</vdop><extensions><gom:speed>0.127</gom:speed></extensions></trkpt>
   <trkpt lat="59.3007911716" lon="34.6625228446"><ele>162.377</ele><time>2026-08-16T14:03:30.138Z</time><hdop>3.0</hdop><vdop>2.5</vdop><extensions><gom:speed>0.223</gom:speed></extensions></trkpt>
   <trkpt lat="59.3007888666" lon="34.6625236828"><ele>162.263</ele><time>2026-08-16T14:03:30.946Z</time><hdop>3.0</hdop><vdop>2.5</vdop><extensions><gom:speed>0.245</gom:speed></extensions></trkpt>
   <trkpt lat="59.3007788921" lon="34.6625283767"><ele>162.313</ele><time>2026-08-16T14:03:31.780Z</time><hdop>3.0</hdop><vdop>2.5</vdop><extensions><gom:speed>0.571</gom:speed></extensions></trkpt>
   <trkpt lat="59.3007699654" lon="34.6625331543"><ele>162.408</ele><time>2026-08-16T14:03:32.467Z</time><hdop>3.0</hdop><vdop>2.5</vdop><extensions><gom:speed>0.749</gom:speed></extensions></trkpt>
   <trkpt lat="59.3007627989" lon="34.6625352498"><ele>162.407</ele><time>2026-08-16T14:03:33.137Z</time><hdop>3.0</hdop><vdop>2.5</vdop><extensions><gom:speed>0.829</gom:speed></extensions></trkpt>
   <trkpt lat="59.3007528663" lon="34.6625371777"><ele>162.503</ele><time>2026-08-16T14:03:34.138Z</time><hdop>3.0</hdop><vdop>2.5</vdop><extensions><gom:speed>0.871</gom:speed></extensions></trkpt>
   <trkpt lat="59.3007481725" lon="34.6625367586"><ele>162.56</ele><time>2026-08-16T14:03:34.627Z</time><hdop>3.0</hdop><vdop>2.5</vdop><extensions><gom:speed>0.88</gom:speed></extensions></trkpt>
   <trkpt lat="59.3007430595" lon="34.6625321485"><ele>162.754</ele><time>2026-08-16T14:03:35.138Z</time><hdop>3.0</hdop><vdop>2.5</vdop><extensions><gom:speed>0.972</gom:speed></extensions></trkpt>
   <trkpt lat="59.3007352643" lon="34.6625173964"><ele>162.847</ele><time>2026-08-16T14:03:36.138Z</time><hdop>3.0</hdop><vdop>2.5</vdop><extensions><gom:speed>0.908</gom:speed></extensions></trkpt>
   <trkpt lat="59.3007295646" lon="34.662508763"><ele>162.903</ele><time>2026-08-16T14:03:36.904Z</time><hdop>3.0</hdop><vdop>2.5</vdop><extensions><gom:speed>0.905</gom:speed></extensions></trkpt>
   <trkpt lat="59.3007206798" lon="34.6624969445"><ele>162.961</ele><time>2026-08-16T14:03:37.925Z</time><hdop>3.0</hdop><vdop>2.5</vdop><extensions><gom:speed>0.972</gom:speed></extensions></trkpt>
   <trkpt lat="59.3007151897" lon="34.6624942623"><ele>162.996</ele><time>2026-08-16T14:03:38.463Z</time><hdop>3.0</hdop><vdop>2.5</vdop><extensions><gom:speed>0.977</gom:speed></extensions></trkpt>
   <trkpt lat="59.3007087775" lon="34.6624932565"><ele>163.058</ele><time>2026-08-16T14:03:39.138Z</time><hdop>3.0</hdop><vdop>2.5</vdop><extensions><gom:speed>0.965</gom:speed></extensions></trkpt>
   <trkpt lat="59.3007014853" lon="34.6624935918"><ele>163.094</ele><time>2026-08-16T14:03:39.926Z</time><hdop>3.0</hdop><vdop>2.5</vdop><extensions><gom:speed>0.968</gom:speed></extensions></trkpt>
   <trkpt lat="59.3006929776" lon="34.6624970283"><ele>162.934</ele><time>2026-08-16T14:03:40.702Z</time><hdop>3.0</hdop><vdop>2.5</vdop><extensions><gom:speed>1.082</gom:speed></extensions></trkpt>
   <trkpt lat="59.3006852663" lon="34.662503231"><ele>162.757</ele><time>2026-08-16T14:03:41.419Z</time><hdop>3.0</hdop><vdop>2.5</vdop><extensions><gom:speed>1.117</gom:speed></extensions></trkpt>
   <trkpt lat="59.300678896" lon="34.6625104394"><ele>162.648</ele><time>2026-08-16T14:03:42.138Z</time><hdop>3.0</hdop><vdop>2.5</vdop><extensions><gom:speed>1.08</gom:speed></extensions></trkpt>
   <trkpt lat="59.3006718972" lon="34.6625213359"><ele>162.396</ele><time>2026-08-16T14:03:43.138Z</time><hdop>3.0</hdop><vdop>2.5</vdop><extensions><gom:speed>1.027</gom:speed></extensions></trkpt>
   <trkpt lat="59.3006651916" lon="34.6625311427"><ele>162.211</ele><time>2026-08-16T14:03:44.138Z</time><hdop>3.0</hdop><vdop>2.5</vdop><extensions><gom:speed>0.986</gom:speed></extensions></trkpt>
   <trkpt lat="59.3006598691" lon="34.6625378482"><ele>162.101</ele><time>2026-08-16T14:03:44.825Z</time><hdop>3.0</hdop><vdop>2.5</vdop><extensions><gom:speed>0.992</gom:speed></extensions></trkpt>
   <trkpt lat="59.3006570612" lon="34.6625501696"><ele>162.211</ele><time>2026-08-16T14:03:45.481Z</time><hdop>3.0</hdop><vdop>2.5</vdop><extensions><gom:speed>0.993</gom:speed></extensions></trkpt>
   <trkpt lat="59.3006541694" lon="34.6625600603"><ele>162.14</ele><time>2026-08-16T14:03:46.138Z</time><hdop>3.0</hdop><vdop>2.5</vdop><extensions><gom:speed>0.948</gom:speed></extensions></trkpt>
   <trkpt lat="59.3006495594" lon="34.6625668496"><ele>162.098</ele><time>2026-08-16T14:03:46.788Z</time><hdop>3.0</hdop><vdop>2.5</vdop><extensions><gom:speed>0.936</gom:speed></extensions></trkpt>
   <trkpt lat="59.3006424767" lon="34.6625672687"><ele>161.942</ele><time>2026-08-16T14:03:47.583Z</time><hdop>3.0</hdop><vdop>2.5</vdop><extensions><gom:speed>0.967</gom:speed></extensions></trkpt>
   <trkpt lat="59.3006379924" lon="34.6625696994"><ele>161.79</ele><time>2026-08-16T14:03:48.138Z</time><hdop>3.0</hdop><vdop>2.5</vdop><extensions><gom:speed>1.005</gom:speed></extensions></trkpt>
   <trkpt lat="59.300631664" lon="34.6625763212"><ele>161.698</ele><time>2026-08-16T14:03:48.888Z</time><hdop>3.0</hdop><vdop>2.5</vdop><extensions><gom:speed>1.004</gom:speed></extensions></trkpt>
   <trkpt lat="59.3006282693" lon="34.6625838649"><ele>161.583</ele><time>2026-08-16T14:03:49.546Z</time><hdop>3.0</hdop><vdop>2.5</vdop><extensions><gom:speed>1.01</gom:speed></extensions></trkpt>
   <trkpt lat="59.3006250842" lon="34.6625909895"><ele>161.336</ele><time>2026-08-16T14:03:50.138Z</time><hdop>3.0</hdop><vdop>2.5</vdop><extensions><gom:speed>1.008</gom:speed></extensions></trkpt>
   <trkpt lat="59.3006208933" lon="34.6625996228"><ele>161.189</ele><time>2026-08-16T14:03:50.822Z</time><hdop>3.0</hdop><vdop>2.5</vdop><extensions><gom:speed>1.013</gom:speed></extensions></trkpt>
   <trkpt lat="59.3006154869" lon="34.6626044843"><ele>161.165</ele><time>2026-08-16T14:03:51.627Z</time><hdop>3.0</hdop><vdop>2.5</vdop><extensions><gom:speed>0.979</gom:speed></extensions></trkpt>
   <trkpt lat="59.3006107931" lon="34.6626072504"><ele>161.151</ele><time>2026-08-16T14:03:52.108Z</time><hdop>3.0</hdop><vdop>2.5</vdop><extensions><gom:speed>0.993</gom:speed></extensions></trkpt>
   <trkpt lat="59.3006031655" lon="34.6626094297"><ele>161.226</ele><time>2026-08-16T14:03:52.942Z</time><hdop>3.0</hdop><vdop>2.5</vdop><extensions><gom:speed>1.011</gom:speed></extensions></trkpt>
   <trkpt lat="59.3005976754" lon="34.6626094297"><ele>161.246</ele><time>2026-08-16T14:03:53.502Z</time><hdop>3.0</hdop><vdop>2.5</vdop><extensions><gom:speed>1.048</gom:speed></extensions></trkpt>
   <trkpt lat="59.3005916823" lon="34.6626110222"><ele>161.221</ele><time>2026-08-16T14:03:54.138Z</time><hdop>3.0</hdop><vdop>2.5</vdop><extensions><gom:speed>1.016</gom:speed></extensions></trkpt>
   <trkpt lat="59.3005860665" lon="34.6626130339"><ele>161.206</ele><time>2026-08-16T14:03:54.699Z</time><hdop>3.0</hdop><vdop>2.5</vdop><extensions><gom:speed>1.019</gom:speed></extensions></trkpt>
   <trkpt lat="59.3005763854" lon="34.6626212482"><ele>161.075</ele><time>2026-08-16T14:03:56.138Z</time><hdop>3.0</hdop><vdop>2.5</vdop><extensions><gom:speed>0.946</gom:speed></extensions></trkpt>
   <trkpt lat="59.3005696798" lon="34.6626234274"><ele>160.997</ele><time>2026-08-16T14:03:57.006Z</time><hdop>3.0</hdop><vdop>2.5</vdop><extensions><gom:speed>0.929</gom:speed></extensions></trkpt>
   <trkpt lat="59.3005669976" lon="34.662622254"><ele>160.861</ele><time>2026-08-16T14:03:57.506Z</time><hdop>3.0</hdop><vdop>2.5</vdop><extensions><gom:speed>0.912</gom:speed></extensions></trkpt>
   <trkpt lat="59.3005631839" lon="34.6626206614"><ele>160.897</ele><time>2026-08-16T14:03:58.138Z</time><hdop>3.0</hdop><vdop>2.5</vdop><extensions><gom:speed>0.857</gom:speed></extensions></trkpt>
   <trkpt lat="59.3005585738" lon="34.6626210805"><ele>160.918</ele><time>2026-08-16T14:03:58.782Z</time><hdop>3.0</hdop><vdop>2.5</vdop><extensions><gom:speed>0.87</gom:speed></extensions></trkpt>
   <trkpt lat="59.3005520778" lon="34.6626284566"><ele>161.017</ele><time>2026-08-16T14:03:59.783Z</time><hdop>3.0</hdop><vdop>2.5</vdop><extensions><gom:speed>0.82</gom:speed></extensions></trkpt>
   <trkpt lat="59.3005471744" lon="34.6626339886"><ele>160.811</ele><time>2026-08-16T14:04:00.559Z</time><hdop>3.0</hdop><vdop>2.5</vdop><extensions><gom:speed>0.815</gom:speed></extensions></trkpt>
   <trkpt lat="59.3005430673" lon="34.6626354974"><ele>160.669</ele><time>2026-08-16T14:04:01.138Z</time><hdop>3.0</hdop><vdop>2.5</vdop><extensions><gom:speed>0.852</gom:speed></extensions></trkpt>
   <trkpt lat="59.3005345597" lon="34.6626343239"><ele>160.584</ele><time>2026-08-16T14:04:02.119Z</time><hdop>3.0</hdop><vdop>2.5</vdop><extensions><gom:speed>0.907</gom:speed></extensions></trkpt>
   <trkpt lat="59.3005294886" lon="34.6626285404"><ele>160.57</ele><time>2026-08-16T14:04:02.846Z</time><hdop>3.0</hdop><vdop>2.5</vdop><extensions><gom:speed>0.873</gom:speed></extensions></trkpt>
   <trkpt lat="59.3005240823" lon="34.6626224216"><ele>160.621</ele><time>2026-08-16T14:04:03.523Z</time><hdop>3.0</hdop><vdop>2.5</vdop><extensions><gom:speed>0.939</gom:speed></extensions></trkpt>
   <trkpt lat="59.3005199752" lon="34.6626172248"><ele>160.768</ele><time>2026-08-16T14:04:04.138Z</time><hdop>3.0</hdop><vdop>2.5</vdop><extensions><gom:speed>0.894</gom:speed></extensions></trkpt>
   <trkpt lat="59.3005141916" lon="34.6626073342"><ele>160.856</ele><time>2026-08-16T14:04:05.005Z</time><hdop>3.0</hdop><vdop>2.5</vdop><extensions><gom:speed>0.899</gom:speed></extensions></trkpt>
   <trkpt lat="59.3005112999" lon="34.6625929173"><ele>160.787</ele><time>2026-08-16T14:04:05.927Z</time><hdop>3.0</hdop><vdop>2.5</vdop><extensions><gom:speed>0.855</gom:speed></extensions></trkpt>
   <trkpt lat="59.3005071928" lon="34.6625786681"><ele>160.733</ele><time>2026-08-16T14:04:06.782Z</time><hdop>3.0</hdop><vdop>2.5</vdop><extensions><gom:speed>0.926</gom:speed></extensions></trkpt>
   <trkpt lat="59.3005041753" lon="34.6625708729"><ele>160.63</ele><time>2026-08-16T14:04:07.400Z</time><hdop>3.0</hdop><vdop>2.5</vdop><extensions><gom:speed>0.904</gom:speed></extensions></trkpt>
   <trkpt lat="59.3004999843" lon="34.6625650894"><ele>160.535</ele><time>2026-08-16T14:04:08.138Z</time><hdop>3.0</hdop><vdop>2.5</vdop><extensions><gom:speed>0.829</gom:speed></extensions></trkpt>
   <trkpt lat="59.3004956676" lon="34.6625607308"><ele>160.479</ele><time>2026-08-16T14:04:08.784Z</time><hdop>3.0</hdop><vdop>2.5</vdop><extensions><gom:speed>0.821</gom:speed></extensions></trkpt>
   <trkpt lat="59.3004911833" lon="34.6625563722"><ele>160.234</ele><time>2026-08-16T14:04:09.402Z</time><hdop>3.0</hdop><vdop>2.5</vdop><extensions><gom:speed>0.849</gom:speed></extensions></trkpt>
   <trkpt lat="59.3004867828" lon="34.6625480741"><ele>159.998</ele><time>2026-08-16T14:04:10.138Z</time><hdop>3.0</hdop><vdop>2.5</vdop><extensions><gom:speed>0.878</gom:speed></extensions></trkpt>
   <trkpt lat="59.3004828852" lon="34.662537932"><ele>159.858</ele><time>2026-08-16T14:04:10.865Z</time><hdop>3.0</hdop><vdop>2.5</vdop><extensions><gom:speed>0.869</gom:speed></extensions></trkpt>
   <trkpt lat="59.3004794906" lon="34.6625249401"><ele>159.781</ele><time>2026-08-16T14:04:11.522Z</time><hdop>3.0</hdop><vdop>2.5</vdop><extensions><gom:speed>0.941</gom:speed></extensions></trkpt>
   <trkpt lat="59.3004775627" lon="34.66251572"><ele>159.735</ele><time>2026-08-16T14:04:11.984Z</time><hdop>3.0</hdop><vdop>2.5</vdop><extensions><gom:speed>0.982</gom:speed></extensions></trkpt>
   <trkpt lat="59.3004729946" lon="34.6624934241"><ele>159.85</ele><time>2026-08-16T14:04:13.137Z</time><hdop>3.0</hdop><vdop>2.5</vdop><extensions><gom:speed>0.899</gom:speed></extensions></trkpt>
   <trkpt lat="59.3004662891" lon="34.6624780852"><ele>159.8</ele><time>2026-08-16T14:04:14.138Z</time><hdop>3.0</hdop><vdop>2.5</vdop><extensions><gom:speed>0.888</gom:speed></extensions></trkpt>
   <trkpt lat="59.3004613857" lon="34.6624668535"><ele>159.77</ele><time>2026-08-16T14:04:14.919Z</time><hdop>3.0</hdop><vdop>2.5</vdop><extensions><gom:speed>0.876</gom:speed></extensions></trkpt>
   <trkpt lat="59.3004525847" lon="34.6624458987"><ele>159.612</ele><time>2026-08-16T14:04:16.137Z</time><hdop>3.0</hdop><vdop>2.5</vdop><extensions><gom:speed>0.901</gom:speed></extensions></trkpt>
   <trkpt lat="59.3004453762" lon="34.6624358405"><ele>159.518</ele><time>2026-08-16T14:04:16.960Z</time><hdop>3.0</hdop><vdop>2.5</vdop><extensions><gom:speed>0.937</gom:speed></extensions></trkpt>
   <trkpt lat="59.3004408919" lon="34.6624280453"><ele>159.71</ele><time>2026-08-16T14:04:17.500Z</time><hdop>3.0</hdop><vdop>2.5</vdop><extensions><gom:speed>0.933</gom:speed></extensions></trkpt>
   <trkpt lat="59.3004363657" lon="34.6624201663"><ele>159.973</ele><time>2026-08-16T14:04:18.138Z</time><hdop>3.0</hdop><vdop>2.5</vdop><extensions><gom:speed>0.874</gom:speed></extensions></trkpt>
   <trkpt lat="59.3004295763" lon="34.6624085993"><ele>160.185</ele><time>2026-08-16T14:04:19.138Z</time><hdop>3.0</hdop><vdop>2.5</vdop><extensions><gom:speed>0.901</gom:speed></extensions></trkpt>
   <trkpt lat="59.3004235833" lon="34.6623950206"><ele>160.469</ele><time>2026-08-16T14:04:20.138Z</time><hdop>3.0</hdop><vdop>2.5</vdop><extensions><gom:speed>0.903</gom:speed></extensions></trkpt>
   <trkpt lat="59.3004222841" lon="34.6623838727"><ele>160.638</ele><time>2026-08-16T14:04:20.739Z</time><hdop>3.0</hdop><vdop>2.5</vdop><extensions><gom:speed>0.908</gom:speed></extensions></trkpt>
   <trkpt lat="59.3004222841" lon="34.6623654325"><ele>160.741</ele><time>2026-08-16T14:04:21.603Z</time><hdop>3.0</hdop><vdop>2.5</vdop><extensions><gom:speed>0.932</gom:speed></extensions></trkpt>
   <trkpt lat="59.3004217812" lon="34.6623540331"><ele>160.918</ele><time>2026-08-16T14:04:22.138Z</time><hdop>3.0</hdop><vdop>2.5</vdop><extensions><gom:speed>0.929</gom:speed></extensions></trkpt>
   <trkpt lat="59.3004192666" lon="34.6623344194"><ele>161.085</ele><time>2026-08-16T14:04:23.138Z</time><hdop>3.0</hdop><vdop>2.5</vdop><extensions><gom:speed>0.948</gom:speed></extensions></trkpt>
   <trkpt lat="59.3004144889" lon="34.6623227686"><ele>161.185</ele><time>2026-08-16T14:04:23.900Z</time><hdop>3.0</hdop><vdop>2.5</vdop><extensions><gom:speed>0.937</gom:speed></extensions></trkpt>
   <trkpt lat="59.3004047659" lon="34.6623206731"><ele>161.137</ele><time>2026-08-16T14:04:24.744Z</time><hdop>3.0</hdop><vdop>2.5</vdop><extensions><gom:speed>0.988</gom:speed></extensions></trkpt>
   <trkpt lat="59.3003943723" lon="34.66232302"><ele>161.133</ele><time>2026-08-16T14:04:25.441Z</time><hdop>3.0</hdop><vdop>2.5</vdop><extensions><gom:speed>1.09</gom:speed></extensions></trkpt>
   <trkpt lat="59.3003880859" lon="34.6623195835"><ele>161.13</ele><time>2026-08-16T14:04:26.059Z</time><hdop>3.0</hdop><vdop>2.5</vdop><extensions><gom:speed>0.988</gom:speed></extensions></trkpt>
   <trkpt lat="59.300377399" lon="34.6623064239"><ele>161.212</ele><time>2026-08-16T14:04:26.824Z</time><hdop>3.0</hdop><vdop>2.5</vdop><extensions><gom:speed>1.17</gom:speed></extensions></trkpt>
   <trkpt lat="59.3003646585" lon="34.6622954436"><ele>161.364</ele><time>2026-08-16T14:04:27.580Z</time><hdop>3.0</hdop><vdop>2.5</vdop><extensions><gom:speed>1.329</gom:speed></extensions></trkpt>
   <trkpt lat="59.30035657" lon="34.6622870617"><ele>161.804</ele><time>2026-08-16T14:04:28.138Z</time><hdop>3.0</hdop><vdop>2.5</vdop><extensions><gom:speed>1.347</gom:speed></extensions></trkpt>
   <trkpt lat="59.3003464698" lon="34.6622757461"><ele>162.067</ele><time>2026-08-16T14:04:28.905Z</time><hdop>3.0</hdop><vdop>2.5</vdop><extensions><gom:speed>1.352</gom:speed></extensions></trkpt>
   <trkpt lat="59.3003390937" lon="34.6622651849"><ele>162.73</ele><time>2026-08-16T14:04:29.542Z</time><hdop>3.0</hdop><vdop>2.5</vdop><extensions><gom:speed>1.257</gom:speed></extensions></trkpt>
   <trkpt lat="59.3003331844" lon="34.6622555457"><ele>163.85</ele><time>2026-08-16T14:04:30.138Z</time><hdop>3.0</hdop><vdop>2.5</vdop><extensions><gom:speed>1.179</gom:speed></extensions></trkpt>
   <trkpt lat="59.3003255988" lon="34.662240123"><ele>164.519</ele><time>2026-08-16T14:04:31.104Z</time><hdop>3.0</hdop><vdop>2.5</vdop><extensions><gom:speed>1.047</gom:speed></extensions></trkpt>
   <trkpt lat="59.3003224975" lon="34.6622151449"><ele>165.089</ele><time>2026-08-16T14:04:32.007Z</time><hdop>3.0</hdop><vdop>2.5</vdop><extensions><gom:speed>1.085</gom:speed></extensions></trkpt>
   <trkpt lat="59.3003198991" lon="34.662194274"><ele>165.294</ele><time>2026-08-16T14:04:32.841Z</time><hdop>3.0</hdop><vdop>2.5</vdop><extensions><gom:speed>1.098</gom:speed></extensions></trkpt>
   <trkpt lat="59.3003133612" lon="34.662179941"><ele>165.335</ele><time>2026-08-16T14:04:33.744Z</time><hdop>3.0</hdop><vdop>2.5</vdop><extensions><gom:speed>1.078</gom:speed></extensions></trkpt>
   <trkpt lat="59.3003040992" lon="34.6621713914"><ele>165.447</ele><time>2026-08-16T14:04:35.001Z</time><hdop>3.0</hdop><vdop>2.5</vdop><extensions><gom:speed>0.871</gom:speed></extensions></trkpt>
   <trkpt lat="59.3002982738" lon="34.6621655241"><ele>165.458</ele><time>2026-08-16T14:04:35.786Z</time><hdop>3.0</hdop><vdop>2.5</vdop><extensions><gom:speed>0.949</gom:speed></extensions></trkpt>
   <trkpt lat="59.3002934961" lon="34.6621597406"><ele>165.661</ele><time>2026-08-16T14:04:36.522Z</time><hdop>3.0</hdop><vdop>2.5</vdop><extensions><gom:speed>0.968</gom:speed></extensions></trkpt>
   <trkpt lat="59.3002896824" lon="34.6621542923"><ele>165.781</ele><time>2026-08-16T14:04:37.003Z</time><hdop>3.0</hdop><vdop>2.5</vdop><extensions><gom:speed>0.976</gom:speed></extensions></trkpt>
   <trkpt lat="59.3002835636" lon="34.6621434797"><ele>165.146</ele><time>2026-08-16T14:04:37.847Z</time><hdop>3.0</hdop><vdop>2.5</vdop><extensions><gom:speed>1.04</gom:speed></extensions></trkpt>
   <trkpt lat="59.3002732957" lon="34.6621342596"><ele>164.521</ele><time>2026-08-16T14:04:39.105Z</time><hdop>3.0</hdop><vdop>2.5</vdop><extensions><gom:speed>1.037</gom:speed></extensions></trkpt>
   <trkpt lat="59.3002687695" lon="34.6621325832"><ele>163.603</ele><time>2026-08-16T14:04:39.743Z</time><hdop>3.0</hdop><vdop>2.5</vdop><extensions><gom:speed>1.022</gom:speed></extensions></trkpt>
   <trkpt lat="59.3002661711" lon="34.6621292304"><ele>163.2</ele><time>2026-08-16T14:04:40.361Z</time><hdop>3.0</hdop><vdop>2.5</vdop><extensions><gom:speed>0.968</gom:speed></extensions></trkpt>
   <trkpt lat="59.3002613934" lon="34.6621252909"><ele>162.959</ele><time>2026-08-16T14:04:40.999Z</time><hdop>3.0</hdop><vdop>2.5</vdop><extensions><gom:speed>0.929</gom:speed></extensions></trkpt>
   <trkpt lat="59.3002575797" lon="34.6621253748"><ele>162.672</ele><time>2026-08-16T14:04:41.745Z</time><hdop>3.0</hdop><vdop>2.5</vdop><extensions><gom:speed>0.868</gom:speed></extensions></trkpt>
   <trkpt lat="59.3002560709" lon="34.6621277217"><ele>162.2</ele><time>2026-08-16T14:04:42.245Z</time><hdop>3.0</hdop><vdop>2.5</vdop><extensions><gom:speed>0.813</gom:speed></extensions></trkpt>
   <trkpt lat="59.3002498683" lon="34.6621262968"><ele>161.918</ele><time>2026-08-16T14:04:43.119Z</time><hdop>3.0</hdop><vdop>2.5</vdop><extensions><gom:speed>0.808</gom:speed></extensions></trkpt>
   <trkpt lat="59.3002454678" lon="34.662122944"><ele>161.733</ele><time>2026-08-16T14:04:43.984Z</time><hdop>3.0</hdop><vdop>2.5</vdop><extensions><gom:speed>0.824</gom:speed></extensions></trkpt>
   <trkpt lat="59.3002411931" lon="34.662117831"><ele>161.602</ele><time>2026-08-16T14:04:44.848Z</time><hdop>3.0</hdop><vdop>2.5</vdop><extensions><gom:speed>0.841</gom:speed></extensions></trkpt>
   <trkpt lat="59.3002382594" lon="34.6621151488"><ele>161.578</ele><time>2026-08-16T14:04:45.388Z</time><hdop>3.0</hdop><vdop>2.5</vdop><extensions><gom:speed>0.864</gom:speed></extensions></trkpt>
   <trkpt lat="59.3002351581" lon="34.6621092815"><ele>161.525</ele><time>2026-08-16T14:04:46.138Z</time><hdop>3.0</hdop><vdop>2.5</vdop><extensions><gom:speed>0.871</gom:speed></extensions></trkpt>
   <trkpt lat="59.3002313862" lon="34.6621022407"><ele>161.492</ele><time>2026-08-16T14:04:46.821Z</time><hdop>3.0</hdop><vdop>2.5</vdop><extensions><gom:speed>0.872</gom:speed></extensions></trkpt>
   <trkpt lat="59.3002287878" lon="34.6620996423"><ele>161.671</ele><time>2026-08-16T14:04:47.527Z</time><hdop>3.0</hdop><vdop>2.5</vdop><extensions><gom:speed>0.804</gom:speed></extensions></trkpt>
   <trkpt lat="59.300226399" lon="34.662096541"><ele>161.935</ele><time>2026-08-16T14:04:48.138Z</time><hdop>3.0</hdop><vdop>2.5</vdop><extensions><gom:speed>0.818</gom:speed></extensions></trkpt>
   <trkpt lat="59.300224094" lon="34.6620915957"><ele>162.093</ele><time>2026-08-16T14:04:48.646Z</time><hdop>3.0</hdop><vdop>2.5</vdop><extensions><gom:speed>0.823</gom:speed></extensions></trkpt>
   <trkpt lat="59.3002213699" lon="34.662091931"><ele>162.168</ele><time>2026-08-16T14:04:49.138Z</time><hdop>3.0</hdop><vdop>2.5</vdop><extensions><gom:speed>0.755</gom:speed></extensions></trkpt>
   <trkpt lat="59.3002170951" lon="34.6620889973"><ele>162.213</ele><time>2026-08-16T14:04:49.785Z</time><hdop>3.0</hdop><vdop>2.5</vdop><extensions><gom:speed>0.752</gom:speed></extensions></trkpt>
   <trkpt lat="59.3002104734" lon="34.6620910928"><ele>162.418</ele><time>2026-08-16T14:04:50.668Z</time><hdop>3.0</hdop><vdop>2.5</vdop><extensions><gom:speed>0.789</gom:speed></extensions></trkpt>
   <trkpt lat="59.3002070787" lon="34.6620936912"><ele>162.726</ele><time>2026-08-16T14:04:51.138Z</time><hdop>3.0</hdop><vdop>2.5</vdop><extensions><gom:speed>0.818</gom:speed></extensions></trkpt>
   <trkpt lat="59.3001992835" lon="34.6620924339"><ele>162.91</ele><time>2026-08-16T14:04:52.101Z</time><hdop>3.0</hdop><vdop>2.5</vdop><extensions><gom:speed>0.836</gom:speed></extensions></trkpt>
   <trkpt lat="59.3001932905" lon="34.6620966248"><ele>162.72</ele><time>2026-08-16T14:04:52.700Z</time><hdop>3.0</hdop><vdop>2.5</vdop><extensions><gom:speed>0.938</gom:speed></extensions></trkpt>
   <trkpt lat="59.3001839866" lon="34.6621037495"><ele>162.433</ele><time>2026-08-16T14:04:53.544Z</time><hdop>3.0</hdop><vdop>2.5</vdop><extensions><gom:speed>1.027</gom:speed></extensions></trkpt>
   <trkpt lat="59.3001784964" lon="34.6621075213"><ele>162.262</ele><time>2026-08-16T14:04:54.064Z</time><hdop>3.0</hdop><vdop>2.5</vdop><extensions><gom:speed>1.034</gom:speed></extensions></trkpt>
   <trkpt lat="59.300168983" lon="34.6621138916"><ele>162.463</ele><time>2026-08-16T14:04:54.899Z</time><hdop>3.0</hdop><vdop>2.5</vdop><extensions><gom:speed>1.072</gom:speed></extensions></trkpt>
   <trkpt lat="59.3001627804" lon="34.6621149812"><ele>162.649</ele><time>2026-08-16T14:04:55.448Z</time><hdop>3.0</hdop><vdop>2.5</vdop><extensions><gom:speed>1.079</gom:speed></extensions></trkpt>
   <trkpt lat="59.3001566616" lon="34.6621116284"><ele>162.563</ele><time>2026-08-16T14:04:56.138Z</time><hdop>3.0</hdop><vdop>2.5</vdop><extensions><gom:speed>1.006</gom:speed></extensions></trkpt>
   <trkpt lat="59.3001521772" lon="34.6621061802"><ele>162.512</ele><time>2026-08-16T14:04:56.704Z</time><hdop>3.0</hdop><vdop>2.5</vdop><extensions><gom:speed>1.001</gom:speed></extensions></trkpt>
   <trkpt lat="59.3001482797" lon="34.6620920986"><ele>162.486</ele><time>2026-08-16T14:04:57.519Z</time><hdop>3.0</hdop><vdop>2.5</vdop><extensions><gom:speed>1.064</gom:speed></extensions></trkpt>
   <trkpt lat="59.3001467709" lon="34.66208313"><ele>162.47</ele><time>2026-08-16T14:04:57.981Z</time><hdop>3.0</hdop><vdop>2.5</vdop><extensions><gom:speed>1.032</gom:speed></extensions></trkpt>
   <trkpt lat="59.3001460585" lon="34.6620645221"><ele>162.627</ele><time>2026-08-16T14:04:58.903Z</time><hdop>3.0</hdop><vdop>2.5</vdop><extensions><gom:speed>1.019</gom:speed></extensions></trkpt>
   <trkpt lat="59.3001457651" lon="34.6620426454"><ele>162.583</ele><time>2026-08-16T14:05:00.138Z</time><hdop>3.0</hdop><vdop>2.5</vdop><extensions><gom:speed>0.974</gom:speed></extensions></trkpt>
   <trkpt lat="59.3001430829" lon="34.662027558"><ele>162.557</ele><time>2026-08-16T14:05:00.984Z</time><hdop>3.0</hdop><vdop>2.5</vdop><extensions><gom:speed>0.954</gom:speed></extensions></trkpt>
   <trkpt lat="59.3001405683" lon="34.6620129734"><ele>162.408</ele><time>2026-08-16T14:05:01.887Z</time><hdop>3.0</hdop><vdop>2.5</vdop><extensions><gom:speed>0.951</gom:speed></extensions></trkpt>
   <trkpt lat="59.30014258" lon="34.6620017417"><ele>162.321</ele><time>2026-08-16T14:05:02.545Z</time><hdop>3.0</hdop><vdop>2.5</vdop><extensions><gom:speed>0.912</gom:speed></extensions></trkpt>
   <trkpt lat="59.3001446754" lon="34.6619920187"><ele>162.351</ele><time>2026-08-16T14:05:03.138Z</time><hdop>3.0</hdop><vdop>2.5</vdop><extensions><gom:speed>0.926</gom:speed></extensions></trkpt>
   <trkpt lat="59.3001457651" lon="34.6619762607"><ele>162.368</ele><time>2026-08-16T14:05:04.066Z</time><hdop>3.0</hdop><vdop>2.5</vdop><extensions><gom:speed>0.899</gom:speed></extensions></trkpt>
   <trkpt lat="59.3001435858" lon="34.6619695552"><ele>162.113</ele><time>2026-08-16T14:05:04.684Z</time><hdop>3.0</hdop><vdop>2.5</vdop><extensions><gom:speed>0.863</gom:speed></extensions></trkpt>
   <trkpt lat="59.3001416999" lon="34.6619670406"><ele>161.916</ele><time>2026-08-16T14:05:05.138Z</time><hdop>3.0</hdop><vdop>2.5</vdop><extensions><gom:speed>0.849</gom:speed></extensions></trkpt>
   <trkpt lat="59.3001371736" lon="34.6619568985"><ele>161.799</ele><time>2026-08-16T14:05:06.058Z</time><hdop>3.0</hdop><vdop>2.5</vdop><extensions><gom:speed>0.93</gom:speed></extensions></trkpt>
   <trkpt lat="59.3001350782" lon="34.6619524561"><ele>161.557</ele><time>2026-08-16T14:05:06.579Z</time><hdop>3.0</hdop><vdop>2.5</vdop><extensions><gom:speed>0.927</gom:speed></extensions></trkpt>
   <trkpt lat="59.3001328989" lon="34.661947427"><ele>161.562</ele><time>2026-08-16T14:05:07.138Z</time><hdop>3.0</hdop><vdop>2.5</vdop><extensions><gom:speed>0.916</gom:speed></extensions></trkpt>
   <trkpt lat="59.3001277859" lon="34.6619357761"><ele>161.565</ele><time>2026-08-16T14:05:08.041Z</time><hdop>3.0</hdop><vdop>2.5</vdop><extensions><gom:speed>0.977</gom:speed></extensions></trkpt>
   <trkpt lat="59.3001196974" lon="34.6619313337"><ele>161.457</ele><time>2026-08-16T14:05:09.138Z</time><hdop>3.0</hdop><vdop>2.5</vdop><extensions><gom:speed>0.974</gom:speed></extensions></trkpt>
   <trkpt lat="59.3001132852" lon="34.6619270589"><ele>161.393</ele><time>2026-08-16T14:05:09.847Z</time><hdop>3.0</hdop><vdop>2.5</vdop><extensions><gom:speed>0.981</gom:speed></extensions></trkpt>
   <trkpt lat="59.300105993" lon="34.6619261369"><ele>161.024</ele><time>2026-08-16T14:05:10.662Z</time><hdop>3.0</hdop><vdop>2.5</vdop><extensions><gom:speed>0.983</gom:speed></extensions></trkpt>
   <trkpt lat="59.3001019696" lon="34.6619271428"><ele>160.665</ele><time>2026-08-16T14:05:11.137Z</time><hdop>3.0</hdop><vdop>2.5</vdop><extensions><gom:speed>0.95</gom:speed></extensions></trkpt>
   <trkpt lat="59.3000935877" lon="34.6619258855"><ele>160.398</ele><time>2026-08-16T14:05:12.138Z</time><hdop>3.0</hdop><vdop>2.5</vdop><extensions><gom:speed>0.981</gom:speed></extensions></trkpt>
   <trkpt lat="59.3000871756" lon="34.6619194314"><ele>160.238</ele><time>2026-08-16T14:05:12.900Z</time><hdop>3.0</hdop><vdop>2.5</vdop><extensions><gom:speed>0.997</gom:speed></extensions></trkpt>
   <trkpt lat="59.3000833618" lon="34.6619142346"><ele>160.142</ele><time>2026-08-16T14:05:13.548Z</time><hdop>3.0</hdop><vdop>2.5</vdop><extensions><gom:speed>0.971</gom:speed></extensions></trkpt>
   <trkpt lat="59.3000791709" lon="34.6619102951"><ele>159.995</ele><time>2026-08-16T14:05:14.138Z</time><hdop>3.0</hdop><vdop>2.5</vdop><extensions><gom:speed>1.003</gom:speed></extensions></trkpt>
   <trkpt lat="59.3000719624" lon="34.6619046792"><ele>159.908</ele><time>2026-08-16T14:05:14.941Z</time><hdop>3.0</hdop><vdop>2.5</vdop><extensions><gom:speed>1.0</gom:speed></extensions></trkpt>
   <trkpt lat="59.3000657598" lon="34.6618998177"><ele>159.793</ele><time>2026-08-16T14:05:15.619Z</time><hdop>3.0</hdop><vdop>2.5</vdop><extensions><gom:speed>1.04</gom:speed></extensions></trkpt>
   <trkpt lat="59.300061988" lon="34.6618954592"><ele>159.693</ele><time>2026-08-16T14:05:16.138Z</time><hdop>3.0</hdop><vdop>2.5</vdop><extensions><gom:speed>1.032</gom:speed></extensions></trkpt>
   <trkpt lat="59.3000563721" lon="34.6618854847"><ele>159.633</ele><time>2026-08-16T14:05:16.944Z</time><hdop>3.0</hdop><vdop>2.5</vdop><extensions><gom:speed>1.032</gom:speed></extensions></trkpt>
   <trkpt lat="59.3000528936" lon="34.6618808746"><ele>159.619</ele><time>2026-08-16T14:05:17.444Z</time><hdop>3.0</hdop><vdop>2.5</vdop><extensions><gom:speed>1.045</gom:speed></extensions></trkpt>
   <trkpt lat="59.3000479902" lon="34.6618738338"><ele>159.541</ele><time>2026-08-16T14:05:18.138Z</time><hdop>3.0</hdop><vdop>2.5</vdop><extensions><gom:speed>1.041</gom:speed></extensions></trkpt>
   <trkpt lat="59.3000417876" lon="34.6618665416"><ele>159.494</ele><time>2026-08-16T14:05:18.867Z</time><hdop>3.0</hdop><vdop>2.5</vdop><extensions><gom:speed>1.032</gom:speed></extensions></trkpt>
   <trkpt lat="59.3000295919" lon="34.6618573215"><ele>159.675</ele><time>2026-08-16T14:05:20.138Z</time><hdop>3.0</hdop><vdop>2.5</vdop><extensions><gom:speed>1.023</gom:speed></extensions></trkpt>
   <trkpt lat="59.3000206652" lon="34.6618502807"><ele>159.784</ele><time>2026-08-16T14:05:21.066Z</time><hdop>3.0</hdop><vdop>2.5</vdop><extensions><gom:speed>0.97</gom:speed></extensions></trkpt>
   <trkpt lat="59.3000155941" lon="34.6618470956"><ele>159.938</ele><time>2026-08-16T14:05:21.527Z</time><hdop>3.0</hdop><vdop>2.5</vdop><extensions><gom:speed>0.999</gom:speed></extensions></trkpt>
   <trkpt lat="59.3000107745" lon="34.6618416473"><ele>159.842</ele><time>2026-08-16T14:05:22.138Z</time><hdop>3.0</hdop><vdop>2.5</vdop><extensions><gom:speed>0.957</gom:speed></extensions></trkpt>
   <trkpt lat="59.3000046977" lon="34.6618346904"><ele>159.784</ele><time>2026-08-16T14:05:22.882Z</time><hdop>3.0</hdop><vdop>2.5</vdop><extensions><gom:speed>0.965</gom:speed></extensions></trkpt>
   <trkpt lat="59.2999971959" lon="34.6618258894"><ele>159.775</ele><time>2026-08-16T14:05:23.824Z</time><hdop>3.0</hdop><vdop>2.5</vdop><extensions><gom:speed>0.984</gom:speed></extensions></trkpt>
   <trkpt lat="59.2999921667" lon="34.6618170884"><ele>159.993</ele><time>2026-08-16T14:05:24.659Z</time><hdop>3.0</hdop><vdop>2.5</vdop><extensions><gom:speed>0.943</gom:speed></extensions></trkpt>
   <trkpt lat="59.2999910771" lon="34.6618103828"><ele>159.975</ele><time>2026-08-16T14:05:25.137Z</time><hdop>3.0</hdop><vdop>2.5</vdop><extensions><gom:speed>0.864</gom:speed></extensions></trkpt>
   <trkpt lat="59.2999898617" lon="34.6617942896"><ele>159.89</ele><time>2026-08-16T14:05:26.138Z</time><hdop>3.0</hdop><vdop>2.5</vdop><extensions><gom:speed>0.856</gom:speed></extensions></trkpt>
   <trkpt lat="59.2999872633" lon="34.6617822196"><ele>159.84</ele><time>2026-08-16T14:05:26.926Z</time><hdop>3.0</hdop><vdop>2.5</vdop><extensions><gom:speed>0.857</gom:speed></extensions></trkpt>
   <trkpt lat="59.2999828628" lon="34.6617770229"><ele>159.948</ele><time>2026-08-16T14:05:27.485Z</time><hdop>3.0</hdop><vdop>2.5</vdop><extensions><gom:speed>0.887</gom:speed></extensions></trkpt>
   <trkpt lat="59.2999775822" lon="34.6617720775"><ele>159.88</ele><time>2026-08-16T14:05:28.138Z</time><hdop>3.0</hdop><vdop>2.5</vdop><extensions><gom:speed>0.868</gom:speed></extensions></trkpt>
   <trkpt lat="59.2999715891" lon="34.6617670484"><ele>159.839</ele><time>2026-08-16T14:05:28.879Z</time><hdop>3.0</hdop><vdop>2.5</vdop><extensions><gom:speed>0.868</gom:speed></extensions></trkpt>
   <trkpt lat="59.2999643807" lon="34.6617605943"><ele>159.865</ele><time>2026-08-16T14:05:29.703Z</time><hdop>3.0</hdop><vdop>2.5</vdop><extensions><gom:speed>0.913</gom:speed></extensions></trkpt>
   <trkpt lat="59.2999602736" lon="34.6617573254"><ele>159.818</ele><time>2026-08-16T14:05:30.243Z</time><hdop>3.0</hdop><vdop>2.5</vdop><extensions><gom:speed>0.921</gom:speed></extensions></trkpt>
   <trkpt lat="59.299954071" lon="34.6617500331"><ele>159.79</ele><time>2026-08-16T14:05:31.048Z</time><hdop>3.0</hdop><vdop>2.5</vdop><extensions><gom:speed>0.945</gom:speed></extensions></trkpt>
   <trkpt lat="59.2999483713" lon="34.6617456745"><ele>159.855</ele><time>2026-08-16T14:05:31.843Z</time><hdop>3.0</hdop><vdop>2.5</vdop><extensions><gom:speed>0.902</gom:speed></extensions></trkpt>
   <trkpt lat="59.2999432583" lon="34.6617414836"><ele>159.92</ele><time>2026-08-16T14:05:32.787Z</time><hdop>3.0</hdop><vdop>2.5</vdop><extensions><gom:speed>0.804</gom:speed></extensions></trkpt>
   <trkpt lat="59.2999417915" lon="34.6617341913"><ele>160.088</ele><time>2026-08-16T14:05:34.138Z</time><hdop>3.0</hdop><vdop>2.5</vdop><extensions><gom:speed>0.561</gom:speed></extensions></trkpt>
   <trkpt lat="59.299937391" lon="34.6617278211"><ele>160.106</ele><time>2026-08-16T14:05:35.138Z</time><hdop>3.0</hdop><vdop>2.5</vdop><extensions><gom:speed>0.61</gom:speed></extensions></trkpt>
   <trkpt lat="59.2999326971" lon="34.6617279887"><ele>160.094</ele><time>2026-08-16T14:05:36.138Z</time><hdop>3.0</hdop><vdop>2.5</vdop><extensions><gom:speed>0.411</gom:speed></extensions></trkpt>
   <trkpt lat="59.2999311884" lon="34.6617290784"><ele>160.086</ele><time>2026-08-16T14:05:36.606Z</time><hdop>3.0</hdop><vdop>2.5</vdop><extensions><gom:speed>0.411</gom:speed></extensions></trkpt>
   <trkpt lat="59.2999313979" lon="34.6617304195"><ele>160.069</ele><time>2026-08-16T14:05:37.138Z</time><hdop>3.0</hdop><vdop>2.5</vdop><extensions><gom:speed>0.215</gom:speed></extensions></trkpt>
   <trkpt lat="59.2999313979" lon="34.6617308386"><ele>160.057</ele><time>2026-08-16T14:05:38.144Z</time><hdop>3.0</hdop><vdop>2.5</vdop><extensions><gom:speed>0.166</gom:speed></extensions></trkpt>
   <trkpt lat="59.299932278" lon="34.6617316768"><ele>160.034</ele><time>2026-08-16T14:05:39.134Z</time><hdop>3.0</hdop><vdop>2.5</vdop><extensions><gom:speed>0.114</gom:speed></extensions></trkpt>
   <trkpt lat="59.2999328647" lon="34.6617321797"><ele>160.022</ele><time>2026-08-16T14:05:40.147Z</time><hdop>3.0</hdop><vdop>2.5</vdop><extensions><gom:speed>0.061</gom:speed></extensions></trkpt>
   <trkpt lat="59.2999330743" lon="34.6617325988"><ele>160.025</ele><time>2026-08-16T14:05:41.147Z</time><hdop>3.0</hdop><vdop>2.5</vdop><extensions><gom:speed>0.034</gom:speed></extensions></trkpt>
   <trkpt lat="59.2999331581" lon="34.6617332693"><ele>160.04</ele><time>2026-08-16T14:05:42.146Z</time><hdop>3.0</hdop><vdop>2.5</vdop><extensions><gom:speed>0.075</gom:speed></extensions></trkpt>
   <trkpt lat="59.2999333677" lon="34.661734359"><ele>160.061</ele><time>2026-08-16T14:05:43.140Z</time><hdop>3.0</hdop><vdop>2.5</vdop><extensions><gom:speed>0.079</gom:speed></extensions></trkpt>
   <trkpt lat="59.299933661" lon="34.6617348619"><ele>160.067</ele><time>2026-08-16T14:05:44.141Z</time><hdop>3.0</hdop><vdop>2.5</vdop><extensions><gom:speed>0.021</gom:speed></extensions></trkpt>
   <trkpt lat="59.2999339963" lon="34.661735281"><ele>160.083</ele><time>2026-08-16T14:05:45.136Z</time><hdop>3.0</hdop><vdop>2.5</vdop><extensions><gom:speed>0.034</gom:speed></extensions></trkpt>
   <trkpt lat="59.2999342897" lon="34.6617351972"><ele>160.081</ele><time>2026-08-16T14:05:46.136Z</time><hdop>3.0</hdop><vdop>2.5</vdop><extensions><gom:speed>0.093</gom:speed></extensions></trkpt>
   <trkpt lat="59.2999342897" lon="34.6617353648"><ele>160.078</ele><time>2026-08-16T14:05:47.136Z</time><hdop>3.0</hdop><vdop>2.5</vdop><extensions><gom:speed>0.096</gom:speed></extensions></trkpt>
   <trkpt lat="59.2999342897" lon="34.6617358677"><ele>160.076</ele><time>2026-08-16T14:05:48.134Z</time><hdop>3.0</hdop><vdop>2.5</vdop><extensions><gom:speed>0.102</gom:speed></extensions></trkpt>
   <trkpt lat="59.2999344992" lon="34.6617349457"><ele>159.969</ele><time>2026-08-16T14:05:49.136Z</time><hdop>3.0</hdop><vdop>2.5</vdop><extensions><gom:speed>0.134</gom:speed></extensions></trkpt>
   <trkpt lat="59.2999352955" lon="34.6617355324"><ele>159.963</ele><time>2026-08-16T14:05:50.136Z</time><hdop>3.0</hdop><vdop>2.5</vdop><extensions><gom:speed>0.149</gom:speed></extensions></trkpt>
   <trkpt lat="59.2999362594" lon="34.6617348619"><ele>159.829</ele><time>2026-08-16T14:05:51.136Z</time><hdop>3.0</hdop><vdop>2.5</vdop><extensions><gom:speed>0.167</gom:speed></extensions></trkpt>
   <trkpt lat="59.2999369719" lon="34.6617356163"><ele>159.749</ele><time>2026-08-16T14:05:52.136Z</time><hdop>3.0</hdop><vdop>2.5</vdop><extensions><gom:speed>0.127</gom:speed></extensions></trkpt>
   <trkpt lat="59.2999370976" lon="34.6617377956"><ele>159.699</ele><time>2026-08-16T14:05:53.136Z</time><hdop>3.0</hdop><vdop>2.5</vdop><extensions><gom:speed>0.086</gom:speed></extensions></trkpt>
   <trkpt lat="59.2999365947" lon="34.6617388852"><ele>159.655</ele><time>2026-08-16T14:05:54.136Z</time><hdop>3.0</hdop><vdop>2.5</vdop><extensions><gom:speed>0.102</gom:speed></extensions></trkpt>
   <trkpt lat="59.2999360918" lon="34.6617408969"><ele>159.672</ele><time>2026-08-16T14:05:55.136Z</time><hdop>3.0</hdop><vdop>2.5</vdop><extensions><gom:speed>0.122</gom:speed></extensions></trkpt>
   <trkpt lat="59.2999356727" lon="34.6617426571"><ele>159.702</ele><time>2026-08-16T14:05:56.136Z</time><hdop>3.0</hdop><vdop>2.5</vdop><extensions><gom:speed>0.085</gom:speed></extensions></trkpt>
   <trkpt lat="59.2999356727" lon="34.6617436629"><ele>159.521</ele><time>2026-08-16T14:05:57.136Z</time><hdop>3.0</hdop><vdop>2.5</vdop><extensions><gom:speed>0.024</gom:speed></extensions></trkpt>
   <trkpt lat="59.2999353793" lon="34.6617443334"><ele>159.086</ele><time>2026-08-16T14:05:58.136Z</time><hdop>3.0</hdop><vdop>2.5</vdop><extensions><gom:speed>0.151</gom:speed></extensions></trkpt>
   <trkpt lat="59.2999355889" lon="34.6617456745"><ele>158.84</ele><time>2026-08-16T14:05:59.136Z</time><hdop>3.0</hdop><vdop>2.5</vdop><extensions><gom:speed>0.036</gom:speed></extensions></trkpt>
   <trkpt lat="59.2999356727" lon="34.6617463451"><ele>158.707</ele><time>2026-08-16T14:06:00.136Z</time><hdop>3.0</hdop><vdop>2.5</vdop><extensions><gom:speed>0.042</gom:speed></extensions></trkpt>
   <trkpt lat="59.2999356727" lon="34.6617470995"><ele>158.661</ele><time>2026-08-16T14:06:01.136Z</time><hdop>3.0</hdop><vdop>2.5</vdop><extensions><gom:speed>0.045</gom:speed></extensions></trkpt>
   <trkpt lat="59.2999356727" lon="34.6617475186"><ele>158.651</ele><time>2026-08-16T14:06:02.136Z</time><hdop>3.0</hdop><vdop>2.5</vdop><extensions><gom:speed>0.049</gom:speed></extensions></trkpt>
   <trkpt lat="59.2999356727" lon="34.6617482729"><ele>158.642</ele><time>2026-08-16T14:06:03.136Z</time><hdop>3.0</hdop><vdop>2.5</vdop><extensions><gom:speed>0.052</gom:speed></extensions></trkpt>
   <trkpt lat="59.2999356727" lon="34.661748692"><ele>158.675</ele><time>2026-08-16T14:06:04.136Z</time><hdop>3.0</hdop><vdop>2.5</vdop><extensions><gom:speed>0.052</gom:speed></extensions></trkpt>
   <trkpt lat="59.2999355889" lon="34.6617491949"><ele>158.69</ele><time>2026-08-16T14:06:05.135Z</time><hdop>3.0</hdop><vdop>2.5</vdop><extensions><gom:speed>0.053</gom:speed></extensions></trkpt>
   <trkpt lat="59.2999354631" lon="34.6617495302"><ele>158.724</ele><time>2026-08-16T14:06:06.136Z</time><hdop>3.0</hdop><vdop>2.5</vdop><extensions><gom:speed>0.057</gom:speed></extensions></trkpt>
   <trkpt lat="59.2999353793" lon="34.6617500331"><ele>158.743</ele><time>2026-08-16T14:06:07.136Z</time><hdop>3.0</hdop><vdop>2.5</vdop><extensions><gom:speed>0.06</gom:speed></extensions></trkpt>
   <trkpt lat="59.2999352955" lon="34.6617504522"><ele>158.748</ele><time>2026-08-16T14:06:08.136Z</time><hdop>3.0</hdop><vdop>2.5</vdop><extensions><gom:speed>0.062</gom:speed></extensions></trkpt>
   <trkpt lat="59.2999351698" lon="34.6617509551"><ele>158.741</ele><time>2026-08-16T14:06:09.136Z</time><hdop>3.0</hdop><vdop>2.5</vdop><extensions><gom:speed>0.065</gom:speed></extensions></trkpt>
   <trkpt lat="59.299935086" lon="34.6617513742"><ele>158.747</ele><time>2026-08-16T14:06:10.136Z</time><hdop>3.0</hdop><vdop>2.5</vdop><extensions><gom:speed>0.068</gom:speed></extensions></trkpt>
   <trkpt lat="59.2999348764" lon="34.6617516257"><ele>158.766</ele><time>2026-08-16T14:06:11.136Z</time><hdop>3.0</hdop><vdop>2.5</vdop><extensions><gom:speed>0.068</gom:speed></extensions></trkpt>
   <trkpt lat="59.299934583" lon="34.661751961"><ele>158.8</ele><time>2026-08-16T14:06:12.136Z</time><hdop>3.0</hdop><vdop>2.5</vdop><extensions><gom:speed>0.07</gom:speed></extensions></trkpt>
   <trkpt lat="59.2999343735" lon="34.6617521286"><ele>158.835</ele><time>2026-08-16T14:06:13.136Z</time><hdop>3.0</hdop><vdop>2.5</vdop><extensions><gom:speed>0.069</gom:speed></extensions></trkpt>
   <trkpt lat="59.2999341639" lon="34.6617525477"><ele>158.857</ele><time>2026-08-16T14:06:14.136Z</time><hdop>3.0</hdop><vdop>2.5</vdop><extensions><gom:speed>0.071</gom:speed></extensions></trkpt>
   <trkpt lat="59.2999339963" lon="34.6617527992"><ele>158.889</ele><time>2026-08-16T14:06:15.136Z</time><hdop>3.0</hdop><vdop>2.5</vdop><extensions><gom:speed>0.073</gom:speed></extensions></trkpt>
   <trkpt lat="59.2999337868" lon="34.661752883"><ele>158.905</ele><time>2026-08-16T14:06:16.136Z</time><hdop>3.0</hdop><vdop>2.5</vdop><extensions><gom:speed>0.075</gom:speed></extensions></trkpt>
   <trkpt lat="59.299933661" lon="34.6617530506"><ele>158.913</ele><time>2026-08-16T14:06:17.136Z</time><hdop>3.0</hdop><vdop>2.5</vdop><extensions><gom:speed>0.075</gom:speed></extensions></trkpt>
   <trkpt lat="59.2999334934" lon="34.6617531344"><ele>158.918</ele><time>2026-08-16T14:06:18.136Z</time><hdop>3.0</hdop><vdop>2.5</vdop><extensions><gom:speed>0.073</gom:speed></extensions></trkpt>
   <trkpt lat="59.2999333677" lon="34.6617532183"><ele>158.936</ele><time>2026-08-16T14:06:19.136Z</time><hdop>3.0</hdop><vdop>2.5</vdop><extensions><gom:speed>0.075</gom:speed></extensions></trkpt>
   <trkpt lat="59.2999331581" lon="34.6617532183"><ele>158.958</ele><time>2026-08-16T14:06:20.136Z</time><hdop>3.0</hdop><vdop>2.5</vdop><extensions><gom:speed>0.075</gom:speed></extensions></trkpt>
   <trkpt lat="59.2999330743" lon="34.6617531344"><ele>158.967</ele><time>2026-08-16T14:06:21.136Z</time><hdop>3.0</hdop><vdop>2.5</vdop><extensions><gom:speed>0.075</gom:speed></extensions></trkpt>
   <trkpt lat="59.2999330743" lon="34.6617529668"><ele>158.987</ele><time>2026-08-16T14:06:22.136Z</time><hdop>3.0</hdop><vdop>2.5</vdop><extensions><gom:speed>0.075</gom:speed></extensions></trkpt>
   <trkpt lat="59.2999332838" lon="34.6617530506"><ele>159.011</ele><time>2026-08-16T14:06:23.136Z</time><hdop>3.0</hdop><vdop>2.5</vdop><extensions><gom:speed>0.075</gom:speed></extensions></trkpt>
   <trkpt lat="59.2999333677" lon="34.6617529668"><ele>159.045</ele><time>2026-08-16T14:06:24.136Z</time><hdop>3.0</hdop><vdop>2.5</vdop><extensions><gom:speed>0.075</gom:speed></extensions></trkpt>
   <trkpt lat="59.2999334934" lon="34.6617525477"><ele>159.082</ele><time>2026-08-16T14:06:25.136Z</time><hdop>3.0</hdop><vdop>2.5</vdop><extensions><gom:speed>0.076</gom:speed></extensions></trkpt>
   <trkpt lat="59.2999335772" lon="34.6617522963"><ele>159.101</ele><time>2026-08-16T14:06:26.136Z</time><hdop>3.0</hdop><vdop>2.5</vdop><extensions><gom:speed>0.075</gom:speed></extensions></trkpt>
   <trkpt lat="59.299933661" lon="34.6617521286"><ele>159.113</ele><time>2026-08-16T14:06:27.136Z</time><hdop>3.0</hdop><vdop>2.5</vdop><extensions><gom:speed>0.075</gom:speed></extensions></trkpt>
   <trkpt lat="59.2999337868" lon="34.661751961"><ele>159.121</ele><time>2026-08-16T14:06:28.136Z</time><hdop>3.0</hdop><vdop>2.5</vdop><extensions><gom:speed>0.077</gom:speed></extensions></trkpt>
   <trkpt lat="59.2999338706" lon="34.6617518772"><ele>159.141</ele><time>2026-08-16T14:06:29.136Z</time><hdop>3.0</hdop><vdop>2.5</vdop><extensions><gom:speed>0.077</gom:speed></extensions></trkpt>
   <trkpt lat="59.2999339963" lon="34.6617517933"><ele>159.158</ele><time>2026-08-16T14:06:30.136Z</time><hdop>3.0</hdop><vdop>2.5</vdop><extensions><gom:speed>0.075</gom:speed></extensions></trkpt>
   <trkpt lat="59.2999340801" lon="34.6617514581"><ele>159.152</ele><time>2026-08-16T14:06:31.136Z</time><hdop>3.0</hdop><vdop>2.5</vdop><extensions><gom:speed>0.074</gom:speed></extensions></trkpt>
   <trkpt lat="59.2999340801" lon="34.6617512904"><ele>159.162</ele><time>2026-08-16T14:06:32.136Z</time><hdop>3.0</hdop><vdop>2.5</vdop><extensions><gom:speed>0.071</gom:speed></extensions></trkpt>
   <trkpt lat="59.2999341639" lon="34.661751039"><ele>159.189</ele><time>2026-08-16T14:06:33.136Z</time><hdop>3.0</hdop><vdop>2.5</vdop><extensions><gom:speed>0.071</gom:speed></extensions></trkpt>
   <trkpt lat="59.2999341639" lon="34.6617508713"><ele>159.233</ele><time>2026-08-16T14:06:34.136Z</time><hdop>3.0</hdop><vdop>2.5</vdop><extensions><gom:speed>0.07</gom:speed></extensions></trkpt>
   <trkpt lat="59.2999341639" lon="34.6617506199"><ele>159.276</ele><time>2026-08-16T14:06:35.136Z</time><hdop>3.0</hdop><vdop>2.5</vdop><extensions><gom:speed>0.069</gom:speed></extensions></trkpt>
   <trkpt lat="59.2999340801" lon="34.6617504522"><ele>159.324</ele><time>2026-08-16T14:06:36.136Z</time><hdop>3.0</hdop><vdop>2.5</vdop><extensions><gom:speed>0.066</gom:speed></extensions></trkpt>
   <trkpt lat="59.2999341639" lon="34.6617502846"><ele>159.365</ele><time>2026-08-16T14:06:37.136Z</time><hdop>3.0</hdop><vdop>2.5</vdop><extensions><gom:speed>0.064</gom:speed></extensions></trkpt>
   <trkpt lat="59.2999340801" lon="34.6617503684"><ele>159.413</ele><time>2026-08-16T14:06:38.136Z</time><hdop>3.0</hdop><vdop>2.5</vdop><extensions><gom:speed>0.064</gom:speed></extensions></trkpt>
   <trkpt lat="59.2999340801" lon="34.6617504522"><ele>159.444</ele><time>2026-08-16T14:06:39.136Z</time><hdop>3.0</hdop><vdop>2.5</vdop><extensions><gom:speed>0.063</gom:speed></extensions></trkpt>
   <trkpt lat="59.2999339963" lon="34.6617506199"><ele>159.499</ele><time>2026-08-16T14:06:40.136Z</time><hdop>3.0</hdop><vdop>2.5</vdop><extensions><gom:speed>0.066</gom:speed></extensions></trkpt>
   <trkpt lat="59.2999339963" lon="34.6617507875"><ele>159.546</ele><time>2026-08-16T14:06:41.136Z</time><hdop>3.0</hdop><vdop>2.5</vdop><extensions><gom:speed>0.068</gom:speed></extensions></trkpt>
   <trkpt lat="59.2999338706" lon="34.6617508713"><ele>159.592</ele><time>2026-08-16T14:06:42.136Z</time><hdop>3.0</hdop><vdop>2.5</vdop><extensions><gom:speed>0.069</gom:speed></extensions></trkpt>
   <trkpt lat="59.2999338706" lon="34.661751039"><ele>159.628</ele><time>2026-08-16T14:06:43.136Z</time><hdop>3.0</hdop><vdop>2.5</vdop><extensions><gom:speed>0.067</gom:speed></extensions></trkpt>
   <trkpt lat="59.2999338706" lon="34.6617509551"><ele>159.65</ele><time>2026-08-16T14:06:43.719Z</time><hdop>3.0</hdop><vdop>2.5</vdop><extensions><gom:speed>0.067</gom:speed></extensions></trkpt>
   <trkpt lat="59.2999340801" lon="34.6617529668"><ele>159.637</ele><time>2026-08-16T14:06:45.136Z</time><hdop>3.0</hdop><vdop>2.5</vdop><extensions><gom:speed>0.102</gom:speed></extensions></trkpt>
   <trkpt lat="59.2999342897" lon="34.661752883"><ele>159.627</ele><time>2026-08-16T14:06:46.136Z</time><hdop>3.0</hdop><vdop>2.5</vdop><extensions><gom:speed>0.087</gom:speed></extensions></trkpt>
   <trkpt lat="59.2999344992" lon="34.661752883"><ele>159.646</ele><time>2026-08-16T14:06:47.136Z</time><hdop>3.0</hdop><vdop>2.5</vdop><extensions><gom:speed>0.078</gom:speed></extensions></trkpt>
   <trkpt lat="59.2999347926" lon="34.6617531344"><ele>159.673</ele><time>2026-08-16T14:06:48.136Z</time><hdop>3.0</hdop><vdop>2.5</vdop><extensions><gom:speed>0.069</gom:speed></extensions></trkpt>
   <trkpt lat="59.2999348764" lon="34.6617532183"><ele>159.688</ele><time>2026-08-16T14:06:48.597Z</time><hdop>3.0</hdop><vdop>2.5</vdop><extensions><gom:speed>0.069</gom:speed></extensions></trkpt>
   <trkpt lat="59.2999349602" lon="34.6617538888"><ele>159.704</ele><time>2026-08-16T14:06:49.136Z</time><hdop>3.0</hdop><vdop>2.5</vdop><extensions><gom:speed>0.066</gom:speed></extensions></trkpt>
   <trkpt lat="59.2999351698" lon="34.6617545594"><ele>159.723</ele><time>2026-08-16T14:06:50.136Z</time><hdop>3.0</hdop><vdop>2.5</vdop><extensions><gom:speed>0.065</gom:speed></extensions></trkpt>
   <trkpt lat="59.2999352955" lon="34.6617550623"><ele>159.741</ele><time>2026-08-16T14:06:51.136Z</time><hdop>3.0</hdop><vdop>2.5</vdop><extensions><gom:speed>0.065</gom:speed></extensions></trkpt>
   <trkpt lat="59.2999354631" lon="34.6617555652"><ele>159.658</ele><time>2026-08-16T14:06:52.136Z</time><hdop>3.0</hdop><vdop>2.5</vdop><extensions><gom:speed>0.224</gom:speed></extensions></trkpt>
   <trkpt lat="59.2999356727" lon="34.6617567387"><ele>159.621</ele><time>2026-08-16T14:06:53.136Z</time><hdop>3.0</hdop><vdop>2.5</vdop><extensions><gom:speed>0.088</gom:speed></extensions></trkpt>
   <trkpt lat="59.2999353793" lon="34.6617566548"><ele>159.601</ele><time>2026-08-16T14:06:54.136Z</time><hdop>3.0</hdop><vdop>2.5</vdop><extensions><gom:speed>0.077</gom:speed></extensions></trkpt>
   <trkpt lat="59.2999354631" lon="34.6617566548"><ele>159.602</ele><time>2026-08-16T14:06:55.136Z</time><hdop>3.0</hdop><vdop>2.5</vdop><extensions><gom:speed>0.068</gom:speed></extensions></trkpt>
   <trkpt lat="59.2999351698" lon="34.6617566548"><ele>159.606</ele><time>2026-08-16T14:06:56.136Z</time><hdop>3.0</hdop><vdop>2.5</vdop><extensions><gom:speed>0.061</gom:speed></extensions></trkpt>
   <trkpt lat="59.299935086" lon="34.6617563196"><ele>159.608</ele><time>2026-08-16T14:06:56.616Z</time><hdop>3.0</hdop><vdop>2.5</vdop><extensions><gom:speed>0.103</gom:speed></extensions></trkpt>
   <trkpt lat="59.2999346669" lon="34.6617569901"><ele>159.552</ele><time>2026-08-16T14:06:57.136Z</time><hdop>3.0</hdop><vdop>2.5</vdop><extensions><gom:speed>0.083</gom:speed></extensions></trkpt>
   <trkpt lat="59.2999342897" lon="34.6617571578"><ele>159.519</ele><time>2026-08-16T14:06:57.618Z</time><hdop>3.0</hdop><vdop>2.5</vdop><extensions><gom:speed>0.121</gom:speed></extensions></trkpt>
   <trkpt lat="59.2999341639" lon="34.6617585827"><ele>159.509</ele><time>2026-08-16T14:06:58.136Z</time><hdop>3.0</hdop><vdop>2.5</vdop><extensions><gom:speed>0.085</gom:speed></extensions></trkpt>
   <trkpt lat="59.2999339963" lon="34.6617600914"><ele>159.504</ele><time>2026-08-16T14:06:59.136Z</time><hdop>3.0</hdop><vdop>2.5</vdop><extensions><gom:speed>0.081</gom:speed></extensions></trkpt>
   <trkpt lat="59.2999339963" lon="34.6617615163"><ele>159.501</ele><time>2026-08-16T14:07:00.136Z</time><hdop>3.0</hdop><vdop>2.5</vdop><extensions><gom:speed>0.105</gom:speed></extensions></trkpt>
   <trkpt lat="59.2999339963" lon="34.6617628574"><ele>159.501</ele><time>2026-08-16T14:07:01.136Z</time><hdop>3.0</hdop><vdop>2.5</vdop><extensions><gom:speed>0.102</gom:speed></extensions></trkpt>
   <trkpt lat="59.2999340801" lon="34.661763528"><ele>159.52</ele><time>2026-08-16T14:07:02.136Z</time><hdop>3.0</hdop><vdop>2.5</vdop><extensions><gom:speed>0.065</gom:speed></extensions></trkpt>
   <trkpt lat="59.2999344992" lon="34.6617642824"><ele>159.547</ele><time>2026-08-16T14:07:03.136Z</time><hdop>3.0</hdop><vdop>2.5</vdop><extensions><gom:speed>0.032</gom:speed></extensions></trkpt>
   <trkpt lat="59.2999344992" lon="34.6617649529"><ele>159.574</ele><time>2026-08-16T14:07:04.136Z</time><hdop>3.0</hdop><vdop>2.5</vdop><extensions><gom:speed>0.047</gom:speed></extensions></trkpt>
   <trkpt lat="59.2999341639" lon="34.661765372"><ele>159.6</ele><time>2026-08-16T14:07:05.136Z</time><hdop>3.0</hdop><vdop>2.5</vdop><extensions><gom:speed>0.067</gom:speed></extensions></trkpt>
   <trkpt lat="59.299933661" lon="34.6617654558"><ele>159.633</ele><time>2026-08-16T14:07:06.136Z</time><hdop>3.0</hdop><vdop>2.5</vdop><extensions><gom:speed>0.023</gom:speed></extensions></trkpt>
   <trkpt lat="59.2999337868" lon="34.6617661264"><ele>159.681</ele><time>2026-08-16T14:07:07.136Z</time><hdop>3.0</hdop><vdop>2.5</vdop><extensions><gom:speed>0.019</gom:speed></extensions></trkpt>
   <trkpt lat="59.2999340801" lon="34.6617664617"><ele>159.73</ele><time>2026-08-16T14:07:08.135Z</time><hdop>3.0</hdop><vdop>2.5</vdop><extensions><gom:speed>0.026</gom:speed></extensions></trkpt>
   <trkpt lat="59.2999343735" lon="34.6617670484"><ele>159.779</ele><time>2026-08-16T14:07:09.136Z</time><hdop>3.0</hdop><vdop>2.5</vdop><extensions><gom:speed>0.059</gom:speed></extensions></trkpt>
   <trkpt lat="59.2999344992" lon="34.6617668808"><ele>159.841</ele><time>2026-08-16T14:07:10.135Z</time><hdop>3.0</hdop><vdop>2.5</vdop><extensions><gom:speed>0.017</gom:speed></extensions></trkpt>
   <trkpt lat="59.299933661" lon="34.6617667969"><ele>159.901</ele><time>2026-08-16T14:07:11.136Z</time><hdop>3.0</hdop><vdop>2.5</vdop><extensions><gom:speed>0.021</gom:speed></extensions></trkpt>
   <trkpt lat="59.2999339963" lon="34.6617651206"><ele>159.962</ele><time>2026-08-16T14:07:12.136Z</time><hdop>3.0</hdop><vdop>2.5</vdop><extensions><gom:speed>0.018</gom:speed></extensions></trkpt>
   <trkpt lat="59.2999343735" lon="34.6617646176"><ele>160.015</ele><time>2026-08-16T14:07:13.136Z</time><hdop>3.0</hdop><vdop>2.5</vdop><extensions><gom:speed>0.063</gom:speed></extensions></trkpt>
   <trkpt lat="59.2999340801" lon="34.6617651206"><ele>160.055</ele><time>2026-08-16T14:07:14.136Z</time><hdop>3.0</hdop><vdop>2.5</vdop><extensions><gom:speed>0.023</gom:speed></extensions></trkpt>
   <trkpt lat="59.2999341639" lon="34.661765372"><ele>160.094</ele><time>2026-08-16T14:07:15.136Z</time><hdop>3.0</hdop><vdop>2.5</vdop><extensions><gom:speed>0.033</gom:speed></extensions></trkpt>
   <trkpt lat="59.2999340801" lon="34.661765372"><ele>160.133</ele><time>2026-08-16T14:07:16.136Z</time><hdop>3.0</hdop><vdop>2.5</vdop><extensions><gom:speed>0.041</gom:speed></extensions></trkpt>
   <trkpt lat="59.2999340801" lon="34.6617654558"><ele>160.156</ele><time>2026-08-16T14:07:17.136Z</time><hdop>3.0</hdop><vdop>2.5</vdop><extensions><gom:speed>0.046</gom:speed></extensions></trkpt>
   <trkpt lat="59.2999339963" lon="34.6617655397"><ele>160.19</ele><time>2026-08-16T14:07:18.136Z</time><hdop>3.0</hdop><vdop>2.5</vdop><extensions><gom:speed>0.049</gom:speed></extensions></trkpt>
   <trkpt lat="59.2999338706" lon="34.6617658749"><ele>160.211</ele><time>2026-08-16T14:07:19.055Z</time><hdop>3.0</hdop><vdop>2.5</vdop><extensions><gom:speed>0.05</gom:speed></extensions></trkpt>
   <trkpt lat="59.2999342897" lon="34.6617657911"><ele>160.235</ele><time>2026-08-16T14:07:19.594Z</time><hdop>3.062</hdop><vdop>2.5</vdop><extensions><gom:speed>0.05</gom:speed></extensions></trkpt>
   <trkpt lat="59.2999340801" lon="34.6617658749"><ele>160.485</ele><time>2026-08-16T14:07:20.136Z</time><hdop>3.062</hdop><vdop>2.5</vdop><extensions><gom:speed>0.226</gom:speed></extensions></trkpt>
   <trkpt lat="59.2999342897" lon="34.6617660426"><ele>160.61</ele><time>2026-08-16T14:07:21.135Z</time><hdop>3.062</hdop><vdop>2.5</vdop><extensions><gom:speed>0.24</gom:speed></extensions></trkpt>
   <trkpt lat="59.2999343735" lon="34.6617656235"><ele>160.545</ele><time>2026-08-16T14:07:22.136Z</time><hdop>3.062</hdop><vdop>2.5</vdop><extensions><gom:speed>0.698</gom:speed></extensions></trkpt>
   <trkpt lat="59.299934583" lon="34.6617666293"><ele>160.507</ele><time>2026-08-16T14:07:22.755Z</time><hdop>3.062</hdop><vdop>2.5</vdop><extensions><gom:speed>0.699</gom:speed></extensions></trkpt>
   <trkpt lat="59.2999339963" lon="34.6617642824"><ele>160.49</ele><time>2026-08-16T14:07:23.619Z</time><hdop>3.062</hdop><vdop>2.5</vdop><extensions><gom:speed>0.862</gom:speed></extensions></trkpt>
   <trkpt lat="59.2999283804" lon="34.6617496979"><ele>160.466</ele><time>2026-08-16T14:07:24.136Z</time><hdop>3.062</hdop><vdop>2.5</vdop><extensions><gom:speed>0.9</gom:speed></extensions></trkpt>
   <trkpt lat="59.2999226807" lon="34.6617216185"><ele>160.444</ele><time>2026-08-16T14:07:25.136Z</time><hdop>3.062</hdop><vdop>2.5</vdop><extensions><gom:speed>0.89</gom:speed></extensions></trkpt>
   <trkpt lat="59.2999194956" lon="34.6617011666"><ele>160.489</ele><time>2026-08-16T14:07:26.136Z</time><hdop>3.062</hdop><vdop>2.5</vdop><extensions><gom:speed>0.849</gom:speed></extensions></trkpt>
   <trkpt lat="59.299919789" lon="34.6616865821"><ele>160.515</ele><time>2026-08-16T14:07:26.976Z</time><hdop>3.125</hdop><vdop>2.5</vdop><extensions><gom:speed>0.868</gom:speed></extensions></trkpt>
   <trkpt lat="59.2999210882" lon="34.6616659626"><ele>160.585</ele><time>2026-08-16T14:07:27.820Z</time><hdop>3.125</hdop><vdop>2.5</vdop><extensions><gom:speed>0.915</gom:speed></extensions></trkpt>
   <trkpt lat="59.2999212977" lon="34.6616340276"><ele>160.738</ele><time>2026-08-16T14:07:29.136Z</time><hdop>3.062</hdop><vdop>2.5</vdop><extensions><gom:speed>0.886</gom:speed></extensions></trkpt>
   <trkpt lat="59.2999207948" lon="34.6616247237"><ele>160.829</ele><time>2026-08-16T14:07:29.655Z</time><hdop>3.062</hdop><vdop>2.5</vdop><extensions><gom:speed>0.89</gom:speed></extensions></trkpt>
   <trkpt lat="59.2999209624" lon="34.6616149169"><ele>160.935</ele><time>2026-08-16T14:07:30.135Z</time><hdop>3.062</hdop><vdop>2.5</vdop><extensions><gom:speed>0.884</gom:speed></extensions></trkpt>
   <trkpt lat="59.2999226807" lon="34.6615990751"><ele>160.998</ele><time>2026-08-16T14:07:31.039Z</time><hdop>3.0</hdop><vdop>2.5</vdop><extensions><gom:speed>0.879</gom:speed></extensions></trkpt>
   <trkpt lat="59.2999258659" lon="34.6615863346"><ele>160.942</ele><time>2026-08-16T14:07:31.854Z</time><hdop>3.0</hdop><vdop>2.5</vdop><extensions><gom:speed>0.857</gom:speed></extensions></trkpt>
   <trkpt lat="59.2999291767" lon="34.6615711633"><ele>160.937</ele><time>2026-08-16T14:07:32.816Z</time><hdop>3.0</hdop><vdop>2.5</vdop><extensions><gom:speed>0.85</gom:speed></extensions></trkpt>
   <trkpt lat="59.299929973" lon="34.6615530584"><ele>161.082</ele><time>2026-08-16T14:07:33.739Z</time><hdop>3.0</hdop><vdop>2.5</vdop><extensions><gom:speed>0.875</gom:speed></extensions></trkpt>
   <trkpt lat="59.2999304759" lon="34.661537049"><ele>161.232</ele><time>2026-08-16T14:07:34.475Z</time><hdop>3.0</hdop><vdop>2.5</vdop><extensions><gom:speed>0.889</gom:speed></extensions></trkpt>
   <trkpt lat="59.2999310626" lon="34.6615286671"><ele>161.321</ele><time>2026-08-16T14:07:34.936Z</time><hdop>3.0</hdop><vdop>2.5</vdop><extensions><gom:speed>0.892</gom:speed></extensions></trkpt>
   <trkpt lat="59.2999292605" lon="34.6615198661"><ele>161.413</ele><time>2026-08-16T14:07:35.456Z</time><hdop>3.0</hdop><vdop>2.5</vdop><extensions><gom:speed>0.778</gom:speed></extensions></trkpt>
   <trkpt lat="59.2999274584" lon="34.6615126576"><ele>161.468</ele><time>2026-08-16T14:07:36.075Z</time><hdop>3.0</hdop><vdop>2.5</vdop><extensions><gom:speed>0.68</gom:speed></extensions></trkpt>
   <trkpt lat="59.2999217587" lon="34.6615131606"><ele>161.602</ele><time>2026-08-16T14:07:37.136Z</time><hdop>3.0</hdop><vdop>2.5</vdop><extensions><gom:speed>0.341</gom:speed></extensions></trkpt>
   <trkpt lat="59.2999199985" lon="34.6615153398"><ele>161.704</ele><time>2026-08-16T14:07:38.135Z</time><hdop>3.0</hdop><vdop>2.5</vdop><extensions><gom:speed>0.175</gom:speed></extensions></trkpt>
   <trkpt lat="59.2999198728" lon="34.6615179382"><ele>161.763</ele><time>2026-08-16T14:07:39.136Z</time><hdop>3.0</hdop><vdop>2.5</vdop><extensions><gom:speed>0.06</gom:speed></extensions></trkpt>
   <trkpt lat="59.2999204595" lon="34.6615199499"><ele>161.801</ele><time>2026-08-16T14:07:40.135Z</time><hdop>3.0</hdop><vdop>2.5</vdop><extensions><gom:speed>0.07</gom:speed></extensions></trkpt>
   <trkpt lat="59.2999204595" lon="34.6615204528"><ele>161.82</ele><time>2026-08-16T14:07:41.136Z</time><hdop>3.0</hdop><vdop>2.5</vdop><extensions><gom:speed>0.068</gom:speed></extensions></trkpt>
   <trkpt lat="59.2999200823" lon="34.6615211234"><ele>161.862</ele><time>2026-08-16T14:07:42.136Z</time><hdop>3.0</hdop><vdop>2.5</vdop><extensions><gom:speed>0.024</gom:speed></extensions></trkpt>
   <trkpt lat="59.2999193699" lon="34.6615214586"><ele>161.887</ele><time>2026-08-16T14:07:43.103Z</time><hdop>3.0</hdop><vdop>2.5</vdop><extensions><gom:speed>0.039</gom:speed></extensions></trkpt>
   <trkpt lat="59.2999181964" lon="34.6615179382"><ele>161.809</ele><time>2026-08-16T14:07:43.780Z</time><hdop>3.0</hdop><vdop>2.5</vdop><extensions><gom:speed>0.124</gom:speed></extensions></trkpt>
   <trkpt lat="59.2999172744" lon="34.6615141664"><ele>161.696</ele><time>2026-08-16T14:07:44.379Z</time><hdop>3.0</hdop><vdop>2.5</vdop><extensions><gom:speed>0.129</gom:speed></extensions></trkpt>
   <trkpt lat="59.2999157657" lon="34.661509724"><ele>161.575</ele><time>2026-08-16T14:07:45.136Z</time><hdop>3.0</hdop><vdop>2.5</vdop><extensions><gom:speed>0.145</gom:speed></extensions></trkpt>
   <trkpt lat="59.2999119938" lon="34.6615002524"><ele>161.415</ele><time>2026-08-16T14:07:46.136Z</time><hdop>3.0</hdop><vdop>2.5</vdop><extensions><gom:speed>0.33</gom:speed></extensions></trkpt>
   <trkpt lat="59.2999053721" lon="34.6614855841"><ele>161.413</ele><time>2026-08-16T14:07:47.136Z</time><hdop>3.0</hdop><vdop>2.5</vdop><extensions><gom:speed>0.609</gom:speed></extensions></trkpt>
   <trkpt lat="59.2998997981" lon="34.6614755258"><ele>161.416</ele><time>2026-08-16T14:07:48.136Z</time><hdop>3.0</hdop><vdop>2.5</vdop><extensions><gom:speed>0.451</gom:speed></extensions></trkpt>
   <trkpt lat="59.2998990857" lon="34.6614706643"><ele>161.408</ele><time>2026-08-16T14:07:49.136Z</time><hdop>3.0</hdop><vdop>2.5</vdop><extensions><gom:speed>0.335</gom:speed></extensions></trkpt>
   <trkpt lat="59.2999005944" lon="34.6614686526"><ele>161.404</ele><time>2026-08-16T14:07:50.136Z</time><hdop>3.0</hdop><vdop>2.5</vdop><extensions><gom:speed>0.184</gom:speed></extensions></trkpt>
   <trkpt lat="59.2998992952" lon="34.6614697423"><ele>161.398</ele><time>2026-08-16T14:07:51.136Z</time><hdop>3.0</hdop><vdop>2.5</vdop><extensions><gom:speed>0.098</gom:speed></extensions></trkpt>
   <trkpt lat="59.2998978703" lon="34.6614709996"><ele>161.388</ele><time>2026-08-16T14:07:52.136Z</time><hdop>3.0</hdop><vdop>2.5</vdop><extensions><gom:speed>0.083</gom:speed></extensions></trkpt>
   <trkpt lat="59.2998964873" lon="34.6614728436"><ele>161.373</ele><time>2026-08-16T14:07:53.136Z</time><hdop>3.0</hdop><vdop>2.5</vdop><extensions><gom:speed>0.026</gom:speed></extensions></trkpt>
   <trkpt lat="59.2998950624" lon="34.6614737656"><ele>161.364</ele><time>2026-08-16T14:07:54.136Z</time><hdop>3.0</hdop><vdop>2.5</vdop><extensions><gom:speed>0.015</gom:speed></extensions></trkpt>
   <trkpt lat="59.2998946852" lon="34.6614734303"><ele>161.351</ele><time>2026-08-16T14:07:55.136Z</time><hdop>3.0</hdop><vdop>2.5</vdop><extensions><gom:speed>0.014</gom:speed></extensions></trkpt>
   <trkpt lat="59.2998939727" lon="34.66147452"><ele>161.348</ele><time>2026-08-16T14:07:56.136Z</time><hdop>3.0</hdop><vdop>2.5</vdop><extensions><gom:speed>0.053</gom:speed></extensions></trkpt>
   <trkpt lat="59.2998934698" lon="34.6614743523"><ele>161.356</ele><time>2026-08-16T14:07:57.136Z</time><hdop>3.0</hdop><vdop>2.5</vdop><extensions><gom:speed>0.012</gom:speed></extensions></trkpt>
   <trkpt lat="59.2998935955" lon="34.6614742685"><ele>161.379</ele><time>2026-08-16T14:07:58.136Z</time><hdop>3.0</hdop><vdop>2.5</vdop><extensions><gom:speed>0.018</gom:speed></extensions></trkpt>
   <trkpt lat="59.299893386" lon="34.6614736818"><ele>161.399</ele><time>2026-08-16T14:07:59.136Z</time><hdop>3.0</hdop><vdop>2.5</vdop><extensions><gom:speed>0.033</gom:speed></extensions></trkpt>
   <trkpt lat="59.2998932603" lon="34.6614731789"><ele>161.419</ele><time>2026-08-16T14:08:00.136Z</time><hdop>3.0</hdop><vdop>2.5</vdop><extensions><gom:speed>0.066</gom:speed></extensions></trkpt>
   <trkpt lat="59.2998929669" lon="34.6614732627"><ele>161.433</ele><time>2026-08-16T14:08:01.136Z</time><hdop>3.0</hdop><vdop>2.5</vdop><extensions><gom:speed>0.03</gom:speed></extensions></trkpt>
   <trkpt lat="59.2998927993" lon="34.6614732627"><ele>161.175</ele><time>2026-08-16T14:08:02.136Z</time><hdop>3.0</hdop><vdop>2.5</vdop><extensions><gom:speed>0.057</gom:speed></extensions></trkpt>
   <trkpt lat="59.2998913743" lon="34.6614725921"><ele>161.005</ele><time>2026-08-16T14:08:03.136Z</time><hdop>3.0</hdop><vdop>2.5</vdop><extensions><gom:speed>0.109</gom:speed></extensions></trkpt>
   <trkpt lat="59.2998903685" lon="34.6614730951"><ele>160.904</ele><time>2026-08-16T14:08:03.941Z</time><hdop>3.0</hdop><vdop>2.5</vdop><extensions><gom:speed>0.132</gom:speed></extensions></trkpt>
   <trkpt lat="59.2998879797" lon="34.6614733465"><ele>160.989</ele><time>2026-08-16T14:08:04.902Z</time><hdop>3.0</hdop><vdop>2.5</vdop><extensions><gom:speed>0.163</gom:speed></extensions></trkpt>
   <trkpt lat="59.2998854651" lon="34.6614731789"><ele>161.211</ele><time>2026-08-16T14:08:06.136Z</time><hdop>3.0</hdop><vdop>2.5</vdop><extensions><gom:speed>0.082</gom:speed></extensions></trkpt>
   <trkpt lat="59.299884585" lon="34.6614723407"><ele>161.369</ele><time>2026-08-16T14:08:07.136Z</time><hdop>3.0</hdop><vdop>2.5</vdop><extensions><gom:speed>0.123</gom:speed></extensions></trkpt>
   <trkpt lat="59.2998837887" lon="34.6614716701"><ele>161.463</ele><time>2026-08-16T14:08:07.995Z</time><hdop>3.0</hdop><vdop>2.5</vdop><extensions><gom:speed>0.155</gom:speed></extensions></trkpt>
   <trkpt lat="59.2998731856" lon="34.6614652999"><ele>161.757</ele><time>2026-08-16T14:08:09.136Z</time><hdop>3.0</hdop><vdop>2.5</vdop><extensions><gom:speed>0.182</gom:speed></extensions></trkpt>
   <trkpt lat="59.2998713835" lon="34.6614635397"><ele>161.932</ele><time>2026-08-16T14:08:09.820Z</time><hdop>3.0</hdop><vdop>2.5</vdop><extensions><gom:speed>0.205</gom:speed></extensions></trkpt>
   <trkpt lat="59.2998704615" lon="34.6614512183"><ele>162.208</ele><time>2026-08-16T14:08:11.096Z</time><hdop>3.0</hdop><vdop>2.5</vdop><extensions><gom:speed>0.17</gom:speed></extensions></trkpt>
   <trkpt lat="59.2998645941" lon="34.6614362985"><ele>162.366</ele><time>2026-08-16T14:08:12.117Z</time><hdop>3.0</hdop><vdop>2.5</vdop><extensions><gom:speed>0.23</gom:speed></extensions></trkpt>
   <trkpt lat="59.2998556674" lon="34.6614262402"><ele>162.468</ele><time>2026-08-16T14:08:13.001Z</time><hdop>3.0</hdop><vdop>2.5</vdop><extensions><gom:speed>0.283</gom:speed></extensions></trkpt>
   <trkpt lat="59.2998455672" lon="34.6614190318"><ele>162.685</ele><time>2026-08-16T14:08:13.599Z</time><hdop>3.0</hdop><vdop>2.5</vdop><extensions><gom:speed>0.524</gom:speed></extensions></trkpt>
   <trkpt lat="59.2998373949" lon="34.6614125777"><ele>163.103</ele><time>2026-08-16T14:08:14.136Z</time><hdop>3.0</hdop><vdop>2.5</vdop><extensions><gom:speed>0.689</gom:speed></extensions></trkpt>
   <trkpt lat="59.2998262888" lon="34.6613990829"><ele>162.883</ele><time>2026-08-16T14:08:15.136Z</time><hdop>3.0</hdop><vdop>2.5</vdop><extensions><gom:speed>0.819</gom:speed></extensions></trkpt>
   <trkpt lat="59.2998146799" lon="34.6613935508"><ele>162.678</ele><time>2026-08-16T14:08:16.135Z</time><hdop>3.0</hdop><vdop>2.5</vdop><extensions><gom:speed>0.777</gom:speed></extensions></trkpt>
   <trkpt lat="59.2998036996" lon="34.6613969874"><ele>162.27</ele><time>2026-08-16T14:08:17.136Z</time><hdop>3.0</hdop><vdop>2.5</vdop><extensions><gom:speed>0.774</gom:speed></extensions></trkpt>
   <trkpt lat="59.2997930965" lon="34.6613950595"><ele>162.344</ele><time>2026-08-16T14:08:18.136Z</time><hdop>3.0</hdop><vdop>2.5</vdop><extensions><gom:speed>0.852</gom:speed></extensions></trkpt>
   <trkpt lat="59.2997868939" lon="34.6613898628"><ele>162.389</ele><time>2026-08-16T14:08:18.802Z</time><hdop>3.0</hdop><vdop>2.5</vdop><extensions><gom:speed>0.866</gom:speed></extensions></trkpt>
   <trkpt lat="59.2997802722" lon="34.6613729313"><ele>162.488</ele><time>2026-08-16T14:08:19.901Z</time><hdop>3.0</hdop><vdop>2.5</vdop><extensions><gom:speed>0.906</gom:speed></extensions></trkpt>
   <trkpt lat="59.2997799788" lon="34.6613590174"><ele>162.458</ele><time>2026-08-16T14:08:20.539Z</time><hdop>3.0</hdop><vdop>2.5</vdop><extensions><gom:speed>0.958</gom:speed></extensions></trkpt>
   <trkpt lat="59.2997809847" lon="34.6613456901"><ele>161.863</ele><time>2026-08-16T14:08:21.136Z</time><hdop>3.0</hdop><vdop>2.5</vdop><extensions><gom:speed>0.984</gom:speed></extensions></trkpt>
   <trkpt lat="59.2997824934" lon="34.6613334525"><ele>161.508</ele><time>2026-08-16T14:08:21.717Z</time><hdop>3.0</hdop><vdop>2.5</vdop><extensions><gom:speed>0.989</gom:speed></extensions></trkpt>
   <trkpt lat="59.2997868939" lon="34.6613158506"><ele>161.588</ele><time>2026-08-16T14:08:22.600Z</time><hdop>3.0</hdop><vdop>2.5</vdop><extensions><gom:speed>0.981</gom:speed></extensions></trkpt>
   <trkpt lat="59.2997906658" lon="34.6613049541"><ele>161.572</ele><time>2026-08-16T14:08:23.136Z</time><hdop>3.0</hdop><vdop>2.5</vdop><extensions><gom:speed>0.995</gom:speed></extensions></trkpt>
   <trkpt lat="59.2997979999" lon="34.6612895314"><ele>161.568</ele><time>2026-08-16T14:08:24.136Z</time><hdop>3.0</hdop><vdop>2.5</vdop><extensions><gom:speed>0.836</gom:speed></extensions></trkpt>
   <trkpt lat="59.2998013946" lon="34.6612839993"><ele>161.566</ele><time>2026-08-16T14:08:24.622Z</time><hdop>3.0</hdop><vdop>2.5</vdop><extensions><gom:speed>0.828</gom:speed></extensions></trkpt>
   <trkpt lat="59.2998048731" lon="34.6612765394"><ele>161.488</ele><time>2026-08-16T14:08:25.136Z</time><hdop>3.0</hdop><vdop>2.5</vdop><extensions><gom:speed>0.854</gom:speed></extensions></trkpt>
   <trkpt lat="59.2998069686" lon="34.661262374"><ele>161.313</ele><time>2026-08-16T14:08:26.136Z</time><hdop>3.0</hdop><vdop>2.5</vdop><extensions><gom:speed>0.803</gom:speed></extensions></trkpt>
   <trkpt lat="59.2998032805" lon="34.6612503879"><ele>161.208</ele><time>2026-08-16T14:08:27.017Z</time><hdop>3.0</hdop><vdop>2.5</vdop><extensions><gom:speed>0.818</gom:speed></extensions></trkpt>
   <trkpt lat="59.2998005983" lon="34.6612491306"><ele>161.093</ele><time>2026-08-16T14:08:27.636Z</time><hdop>3.0</hdop><vdop>2.5</vdop><extensions><gom:speed>0.749</gom:speed></extensions></trkpt>
   <trkpt lat="59.2997996763" lon="34.6612470351"><ele>161.169</ele><time>2026-08-16T14:08:28.136Z</time><hdop>3.0</hdop><vdop>2.5</vdop><extensions><gom:speed>0.745</gom:speed></extensions></trkpt>
   <trkpt lat="59.2997973713" lon="34.6612348814"><ele>161.215</ele><time>2026-08-16T14:08:29.078Z</time><hdop>3.0</hdop><vdop>2.5</vdop><extensions><gom:speed>0.78</gom:speed></extensions></trkpt>
   <trkpt lat="59.2997956949" lon="34.6612285949"><ele>161.241</ele><time>2026-08-16T14:08:29.815Z</time><hdop>3.0</hdop><vdop>2.5</vdop><extensions><gom:speed>0.79</gom:speed></extensions></trkpt>
   <trkpt lat="59.2997881931" lon="34.6612297684"><ele>161.15</ele><time>2026-08-16T14:08:31.041Z</time><hdop>3.0</hdop><vdop>2.5</vdop><extensions><gom:speed>0.809</gom:speed></extensions></trkpt>
   <trkpt lat="59.2997821581" lon="34.6612309419"><ele>160.956</ele><time>2026-08-16T14:08:32.043Z</time><hdop>3.0</hdop><vdop>2.5</vdop><extensions><gom:speed>0.715</gom:speed></extensions></trkpt>
   <trkpt lat="59.2997783863" lon="34.6612288464"><ele>160.908</ele><time>2026-08-16T14:08:33.034Z</time><hdop>3.0</hdop><vdop>2.5</vdop><extensions><gom:speed>0.694</gom:speed></extensions></trkpt>
   <trkpt lat="59.2997780929" lon="34.6612244878"><ele>160.569</ele><time>2026-08-16T14:08:33.800Z</time><hdop>3.0</hdop><vdop>2.5</vdop><extensions><gom:speed>0.696</gom:speed></extensions></trkpt>
   <trkpt lat="59.2997803979" lon="34.6612194587"><ele>160.143</ele><time>2026-08-16T14:08:34.860Z</time><hdop>3.0</hdop><vdop>2.5</vdop><extensions><gom:speed>0.557</gom:speed></extensions></trkpt>
   <trkpt lat="59.2997817809" lon="34.6612175308"><ele>159.83</ele><time>2026-08-16T14:08:35.341Z</time><hdop>3.0</hdop><vdop>2.5</vdop><extensions><gom:speed>0.574</gom:speed></extensions></trkpt>
   <trkpt lat="59.2997810685" lon="34.6612106577"><ele>159.854</ele><time>2026-08-16T14:08:36.136Z</time><hdop>3.0</hdop><vdop>2.5</vdop><extensions><gom:speed>0.64</gom:speed></extensions></trkpt>
   <trkpt lat="59.2997779672" lon="34.6612047903"><ele>159.812</ele><time>2026-08-16T14:08:37.136Z</time><hdop>3.0</hdop><vdop>2.5</vdop><extensions><gom:speed>0.555</gom:speed></extensions></trkpt>
   <trkpt lat="59.2997757879" lon="34.6612001803"><ele>159.786</ele><time>2026-08-16T14:08:37.814Z</time><hdop>3.0</hdop><vdop>2.5</vdop><extensions><gom:speed>0.56</gom:speed></extensions></trkpt>
   <trkpt lat="59.2997734829" lon="34.6611964923"><ele>160.062</ele><time>2026-08-16T14:08:38.835Z</time><hdop>3.0</hdop><vdop>2.5</vdop><extensions><gom:speed>0.547</gom:speed></extensions></trkpt>
   <trkpt lat="59.2997677832" lon="34.6611932233"><ele>160.689</ele><time>2026-08-16T14:08:40.136Z</time><hdop>3.0</hdop><vdop>2.5</vdop><extensions><gom:speed>0.626</gom:speed></extensions></trkpt>
   <trkpt lat="59.2997618739" lon="34.6611891162"><ele>161.064</ele><time>2026-08-16T14:08:40.955Z</time><hdop>3.0</hdop><vdop>2.5</vdop><extensions><gom:speed>0.747</gom:speed></extensions></trkpt>
   <trkpt lat="59.2997549589" lon="34.6611889485"><ele>161.55</ele><time>2026-08-16T14:08:41.839Z</time><hdop>3.0</hdop><vdop>2.5</vdop><extensions><gom:speed>0.742</gom:speed></extensions></trkpt>
   <trkpt lat="59.299748882" lon="34.6611960732"><ele>161.902</ele><time>2026-08-16T14:08:42.683Z</time><hdop>3.0</hdop><vdop>2.5</vdop><extensions><gom:speed>0.751</gom:speed></extensions></trkpt>
   <trkpt lat="59.2997464931" lon="34.6611999288"><ele>162.212</ele><time>2026-08-16T14:08:43.136Z</time><hdop>3.0</hdop><vdop>2.5</vdop><extensions><gom:speed>0.695</gom:speed></extensions></trkpt>
   <trkpt lat="59.2997410868" lon="34.6611959893"><ele>162.397</ele><time>2026-08-16T14:08:43.998Z</time><hdop>3.0</hdop><vdop>2.5</vdop><extensions><gom:speed>0.761</gom:speed></extensions></trkpt>
   <trkpt lat="59.2997396619" lon="34.6611872722"><ele>162.596</ele><time>2026-08-16T14:08:44.862Z</time><hdop>3.0</hdop><vdop>2.5</vdop><extensions><gom:speed>0.708</gom:speed></extensions></trkpt>
   <trkpt lat="59.2997364768" lon="34.6611833327"><ele>162.639</ele><time>2026-08-16T14:08:45.735Z</time><hdop>3.0</hdop><vdop>2.5</vdop><extensions><gom:speed>0.685</gom:speed></extensions></trkpt>
   <trkpt lat="59.2997321601" lon="34.6611778844"><ele>162.514</ele><time>2026-08-16T14:08:46.658Z</time><hdop>3.0</hdop><vdop>2.5</vdop><extensions><gom:speed>0.688</gom:speed></extensions></trkpt>
   <trkpt lat="59.2997301903" lon="34.6611736935"><ele>162.381</ele><time>2026-08-16T14:08:47.136Z</time><hdop>3.0</hdop><vdop>2.5</vdop><extensions><gom:speed>0.707</gom:speed></extensions></trkpt>
   <trkpt lat="59.2997264604" lon="34.6611601986"><ele>162.301</ele><time>2026-08-16T14:08:48.121Z</time><hdop>3.0</hdop><vdop>2.5</vdop><extensions><gom:speed>0.807</gom:speed></extensions></trkpt>
   <trkpt lat="59.2997240715" lon="34.6611490507"><ele>162.373</ele><time>2026-08-16T14:08:48.935Z</time><hdop>3.0</hdop><vdop>2.5</vdop><extensions><gom:speed>0.78</gom:speed></extensions></trkpt>
   <trkpt lat="59.2997200901" lon="34.6611366455"><ele>162.312</ele><time>2026-08-16T14:08:49.809Z</time><hdop>3.0</hdop><vdop>2.5</vdop><extensions><gom:speed>0.84</gom:speed></extensions></trkpt>
   <trkpt lat="59.2997169888" lon="34.6611305267"><ele>162.33</ele><time>2026-08-16T14:08:50.408Z</time><hdop>3.0</hdop><vdop>2.5</vdop><extensions><gom:speed>0.884</gom:speed></extensions></trkpt>
   <trkpt lat="59.299712295" lon="34.6611219771"><ele>162.341</ele><time>2026-08-16T14:08:51.124Z</time><hdop>3.0</hdop><vdop>2.5</vdop><extensions><gom:speed>0.92</gom:speed></extensions></trkpt>
   <trkpt lat="59.2997084812" lon="34.6611203846"><ele>162.145</ele><time>2026-08-16T14:08:51.684Z</time><hdop>3.0</hdop><vdop>2.5</vdop><extensions><gom:speed>0.891</gom:speed></extensions></trkpt>
   <trkpt lat="59.2997052961" lon="34.6611204684"><ele>161.834</ele><time>2026-08-16T14:08:52.136Z</time><hdop>3.0</hdop><vdop>2.5</vdop><extensions><gom:speed>0.933</gom:speed></extensions></trkpt>
   <trkpt lat="59.2996973752" lon="34.6611185406"><ele>161.649</ele><time>2026-08-16T14:08:53.068Z</time><hdop>3.0</hdop><vdop>2.5</vdop><extensions><gom:speed>0.922</gom:speed></extensions></trkpt>
   <trkpt lat="59.2996890771" lon="34.6611192949"><ele>161.428</ele><time>2026-08-16T14:08:54.136Z</time><hdop>3.0</hdop><vdop>2.5</vdop><extensions><gom:speed>0.935</gom:speed></extensions></trkpt>
   <trkpt lat="59.2996811981" lon="34.661120636"><ele>160.902</ele><time>2026-08-16T14:08:55.136Z</time><hdop>3.0</hdop><vdop>2.5</vdop><extensions><gom:speed>0.899</gom:speed></extensions></trkpt>
   <trkpt lat="59.299676169" lon="34.6611192949"><ele>160.587</ele><time>2026-08-16T14:08:55.747Z</time><hdop>3.0</hdop><vdop>2.5</vdop><extensions><gom:speed>0.893</gom:speed></extensions></trkpt>
   <trkpt lat="59.2996715589" lon="34.6611128409"><ele>160.664</ele><time>2026-08-16T14:08:56.464Z</time><hdop>3.0</hdop><vdop>2.5</vdop><extensions><gom:speed>0.871</gom:speed></extensions></trkpt>
   <trkpt lat="59.2996681642" lon="34.6611070573"><ele>160.867</ele><time>2026-08-16T14:08:57.135Z</time><hdop>3.0</hdop><vdop>2.5</vdop><extensions><gom:speed>0.855</gom:speed></extensions></trkpt>
   <trkpt lat="59.2996647696" lon="34.6611001842"><ele>160.989</ele><time>2026-08-16T14:08:57.759Z</time><hdop>3.0</hdop><vdop>2.5</vdop><extensions><gom:speed>0.852</gom:speed></extensions></trkpt>
   <trkpt lat="59.2996586927" lon="34.6610841747"><ele>161.14</ele><time>2026-08-16T14:08:59.136Z</time><hdop>3.0</hdop><vdop>2.5</vdop><extensions><gom:speed>0.91</gom:speed></extensions></trkpt>
   <trkpt lat="59.2996550885" lon="34.6610705961"><ele>161.231</ele><time>2026-08-16T14:09:00.046Z</time><hdop>3.0</hdop><vdop>2.5</vdop><extensions><gom:speed>0.877</gom:speed></extensions></trkpt>
   <trkpt lat="59.2996509813" lon="34.661068333"><ele>161.454</ele><time>2026-08-16T14:09:00.526Z</time><hdop>3.0</hdop><vdop>2.5</vdop><extensions><gom:speed>0.865</gom:speed></extensions></trkpt>
   <trkpt lat="59.2996463713" lon="34.661065986"><ele>161.713</ele><time>2026-08-16T14:09:01.135Z</time><hdop>3.0</hdop><vdop>2.5</vdop><extensions><gom:speed>0.87</gom:speed></extensions></trkpt>
   <trkpt lat="59.2996377798" lon="34.6610616274"><ele>161.867</ele><time>2026-08-16T14:09:02.088Z</time><hdop>3.0</hdop><vdop>2.5</vdop><extensions><gom:speed>0.933</gom:speed></extensions></trkpt>
   <trkpt lat="59.2996317868" lon="34.6610586938"><ele>162.088</ele><time>2026-08-16T14:09:02.786Z</time><hdop>3.0</hdop><vdop>2.5</vdop><extensions><gom:speed>0.942</gom:speed></extensions></trkpt>
   <trkpt lat="59.29962659" lon="34.6610564306"><ele>162.217</ele><time>2026-08-16T14:09:03.326Z</time><hdop>3.0</hdop><vdop>2.5</vdop><extensions><gom:speed>1.007</gom:speed></extensions></trkpt>
   <trkpt lat="59.2996189625" lon="34.661054419"><ele>162.295</ele><time>2026-08-16T14:09:04.141Z</time><hdop>3.0</hdop><vdop>2.5</vdop><extensions><gom:speed>0.992</gom:speed></extensions></trkpt>
   <trkpt lat="59.2996159869" lon="34.661061376"><ele>162.139</ele><time>2026-08-16T14:09:04.622Z</time><hdop>3.0</hdop><vdop>2.5</vdop><extensions><gom:speed>0.954</gom:speed></extensions></trkpt>
   <trkpt lat="59.2996139752" lon="34.6610694226"><ele>161.973</ele><time>2026-08-16T14:09:05.136Z</time><hdop>3.0</hdop><vdop>2.5</vdop><extensions><gom:speed>0.928</gom:speed></extensions></trkpt>
   <trkpt lat="59.2996070602" lon="34.6610772178"><ele>161.874</ele><time>2026-08-16T14:09:06.044Z</time><hdop>3.0</hdop><vdop>2.5</vdop><extensions><gom:speed>0.962</gom:speed></extensions></trkpt>
   <trkpt lat="59.2996026597" lon="34.6610759605"><ele>162.205</ele><time>2026-08-16T14:09:06.722Z</time><hdop>3.0</hdop><vdop>2.5</vdop><extensions><gom:speed>0.953</gom:speed></extensions></trkpt>
   <trkpt lat="59.2995993907" lon="34.6610722724"><ele>162.482</ele><time>2026-08-16T14:09:07.380Z</time><hdop>3.0</hdop><vdop>2.5</vdop><extensions><gom:speed>0.909</gom:speed></extensions></trkpt>
   <trkpt lat="59.2995942778" lon="34.6610681653"><ele>162.759</ele><time>2026-08-16T14:09:08.136Z</time><hdop>3.0</hdop><vdop>2.5</vdop><extensions><gom:speed>0.899</gom:speed></extensions></trkpt>
   <trkpt lat="59.2995892905" lon="34.6610662375"><ele>162.925</ele><time>2026-08-16T14:09:08.764Z</time><hdop>3.0</hdop><vdop>2.5</vdop><extensions><gom:speed>0.905</gom:speed></extensions></trkpt>
   <trkpt lat="59.2995859797" lon="34.6610627171"><ele>162.934</ele><time>2026-08-16T14:09:09.362Z</time><hdop>3.0</hdop><vdop>2.5</vdop><extensions><gom:speed>0.866</gom:speed></extensions></trkpt>
   <trkpt lat="59.2995817887" lon="34.6610584423"><ele>162.939</ele><time>2026-08-16T14:09:09.943Z</time><hdop>3.0</hdop><vdop>2.5</vdop><extensions><gom:speed>0.865</gom:speed></extensions></trkpt>
   <trkpt lat="59.2995767596" lon="34.6610524912"><ele>163.015</ele><time>2026-08-16T14:09:10.766Z</time><hdop>3.0</hdop><vdop>2.5</vdop><extensions><gom:speed>0.85</gom:speed></extensions></trkpt>
   <trkpt lat="59.2995731973" lon="34.6610495575"><ele>163.183</ele><time>2026-08-16T14:09:11.248Z</time><hdop>3.0</hdop><vdop>2.5</vdop><extensions><gom:speed>0.909</gom:speed></extensions></trkpt>
   <trkpt lat="59.2995667851" lon="34.6610443607"><ele>163.283</ele><time>2026-08-16T14:09:12.063Z</time><hdop>3.0</hdop><vdop>2.5</vdop><extensions><gom:speed>0.904</gom:speed></extensions></trkpt>
   <trkpt lat="59.299561295" lon="34.6610388287"><ele>163.572</ele><time>2026-08-16T14:09:12.868Z</time><hdop>3.0</hdop><vdop>2.5</vdop><extensions><gom:speed>0.909</gom:speed></extensions></trkpt>
   <trkpt lat="59.2995562658" lon="34.6610328775"><ele>163.761</ele><time>2026-08-16T14:09:13.604Z</time><hdop>3.0</hdop><vdop>2.5</vdop><extensions><gom:speed>0.898</gom:speed></extensions></trkpt>
   <trkpt lat="59.2995518653" lon="34.6610287704"><ele>163.873</ele><time>2026-08-16T14:09:14.105Z</time><hdop>3.0</hdop><vdop>2.5</vdop><extensions><gom:speed>0.957</gom:speed></extensions></trkpt>
   <trkpt lat="59.2995469619" lon="34.6610229869"><ele>163.926</ele><time>2026-08-16T14:09:15.136Z</time><hdop>3.0</hdop><vdop>2.5</vdop><extensions><gom:speed>0.853</gom:speed></extensions></trkpt>
   <trkpt lat="59.2995426872" lon="34.6610147726"><ele>163.843</ele><time>2026-08-16T14:09:16.136Z</time><hdop>3.0</hdop><vdop>2.5</vdop><extensions><gom:speed>0.865</gom:speed></extensions></trkpt>
   <trkpt lat="59.2995363588" lon="34.6610142697"><ele>163.794</ele><time>2026-08-16T14:09:16.922Z</time><hdop>3.0</hdop><vdop>2.5</vdop><extensions><gom:speed>0.867</gom:speed></extensions></trkpt>
   <trkpt lat="59.2995312878" lon="34.6610251661"><ele>163.533</ele><time>2026-08-16T14:09:17.786Z</time><hdop>3.0</hdop><vdop>2.5</vdop><extensions><gom:speed>0.832</gom:speed></extensions></trkpt>
   <trkpt lat="59.2995275997" lon="34.6610276807"><ele>163.198</ele><time>2026-08-16T14:09:18.463Z</time><hdop>3.0</hdop><vdop>2.5</vdop><extensions><gom:speed>0.813</gom:speed></extensions></trkpt>
   <trkpt lat="59.2995245822" lon="34.6610227354"><ele>162.998</ele><time>2026-08-16T14:09:19.022Z</time><hdop>3.0</hdop><vdop>2.5</vdop><extensions><gom:speed>0.796</gom:speed></extensions></trkpt>
   <trkpt lat="59.2995231992" lon="34.6610159461"><ele>162.783</ele><time>2026-08-16T14:09:19.827Z</time><hdop>3.0</hdop><vdop>2.5</vdop><extensions><gom:speed>0.736</gom:speed></extensions></trkpt>
   <trkpt lat="59.2995215648" lon="34.6610110846"><ele>162.586</ele><time>2026-08-16T14:09:20.642Z</time><hdop>3.0</hdop><vdop>2.5</vdop><extensions><gom:speed>0.697</gom:speed></extensions></trkpt>
   <trkpt lat="59.2995200979" lon="34.6610083185"><ele>162.509</ele><time>2026-08-16T14:09:21.135Z</time><hdop>3.0</hdop><vdop>2.5</vdop><extensions><gom:speed>0.705</gom:speed></extensions></trkpt>
   <trkpt lat="59.2995168709" lon="34.6610014454"><ele>162.663</ele><time>2026-08-16T14:09:22.136Z</time><hdop>3.0</hdop><vdop>2.5</vdop><extensions><gom:speed>0.673</gom:speed></extensions></trkpt>
   <trkpt lat="59.2995132667" lon="34.6609999366"><ele>162.756</ele><time>2026-08-16T14:09:22.723Z</time><hdop>3.0</hdop><vdop>2.5</vdop><extensions><gom:speed>0.66</gom:speed></extensions></trkpt>
   <trkpt lat="59.2995105845" lon="34.6609989308"><ele>162.666</ele><time>2026-08-16T14:09:23.439Z</time><hdop>3.0</hdop><vdop>2.5</vdop><extensions><gom:speed>0.58</gom:speed></extensions></trkpt>
   <trkpt lat="59.299508489" lon="34.6609926444"><ele>162.584</ele><time>2026-08-16T14:09:24.136Z</time><hdop>3.0</hdop><vdop>2.5</vdop><extensions><gom:speed>0.654</gom:speed></extensions></trkpt>
   <trkpt lat="59.299505262" lon="34.6609796524"><ele>162.536</ele><time>2026-08-16T14:09:25.020Z</time><hdop>3.0</hdop><vdop>2.5</vdop><extensions><gom:speed>0.781</gom:speed></extensions></trkpt>
   <trkpt lat="59.2995050943" lon="34.6609698456"><ele>162.581</ele><time>2026-08-16T14:09:25.667Z</time><hdop>3.0</hdop><vdop>2.5</vdop><extensions><gom:speed>0.769</gom:speed></extensions></trkpt>
   <trkpt lat="59.2995046752" lon="34.6609622181"><ele>162.573</ele><time>2026-08-16T14:09:26.136Z</time><hdop>3.0</hdop><vdop>2.5</vdop><extensions><gom:speed>0.842</gom:speed></extensions></trkpt>
   <trkpt lat="59.2995020768" lon="34.6609498967"><ele>162.568</ele><time>2026-08-16T14:09:26.943Z</time><hdop>3.0</hdop><vdop>2.5</vdop><extensions><gom:speed>0.836</gom:speed></extensions></trkpt>
   <trkpt lat="59.2995021607" lon="34.6609385811"><ele>162.44</ele><time>2026-08-16T14:09:27.680Z</time><hdop>3.0</hdop><vdop>2.5</vdop><extensions><gom:speed>0.808</gom:speed></extensions></trkpt>
   <trkpt lat="59.2995025797" lon="34.6609308697"><ele>162.312</ele><time>2026-08-16T14:09:28.136Z</time><hdop>3.0</hdop><vdop>2.5</vdop><extensions><gom:speed>0.838</gom:speed></extensions></trkpt>
   <trkpt lat="59.2995008615" lon="34.6609140221"><ele>162.236</ele><time>2026-08-16T14:09:29.122Z</time><hdop>3.0</hdop><vdop>2.5</vdop><extensions><gom:speed>0.855</gom:speed></extensions></trkpt>
   <trkpt lat="59.2994967962" lon="34.660906646"><ele>162.211</ele><time>2026-08-16T14:09:29.839Z</time><hdop>3.0</hdop><vdop>2.5</vdop><extensions><gom:speed>0.881</gom:speed></extensions></trkpt>
   <trkpt lat="59.2994906774" lon="34.6609053888"><ele>162.247</ele><time>2026-08-16T14:09:30.605Z</time><hdop>3.0</hdop><vdop>2.5</vdop><extensions><gom:speed>0.85</gom:speed></extensions></trkpt>
   <trkpt lat="59.2994861931" lon="34.6609050535"><ele>162.309</ele><time>2026-08-16T14:09:31.136Z</time><hdop>3.0</hdop><vdop>2.5</vdop><extensions><gom:speed>0.87</gom:speed></extensions></trkpt>
   <trkpt lat="59.2994809963" lon="34.6609044667"><ele>162.347</ele><time>2026-08-16T14:09:31.743Z</time><hdop>3.0</hdop><vdop>2.5</vdop><extensions><gom:speed>0.872</gom:speed></extensions></trkpt>
   <trkpt lat="59.2994754643" lon="34.6609045506"><ele>162.17</ele><time>2026-08-16T14:09:32.283Z</time><hdop>3.0</hdop><vdop>2.5</vdop><extensions><gom:speed>0.932</gom:speed></extensions></trkpt>
   <trkpt lat="59.2994683816" lon="34.6609014493"><ele>162.065</ele><time>2026-08-16T14:09:33.039Z</time><hdop>3.0</hdop><vdop>2.5</vdop><extensions><gom:speed>0.935</gom:speed></extensions></trkpt>
   <trkpt lat="59.2994651965" lon="34.6608970907"><ele>161.87</ele><time>2026-08-16T14:09:33.520Z</time><hdop>3.0</hdop><vdop>2.5</vdop><extensions><gom:speed>0.912</gom:speed></extensions></trkpt>
   <trkpt lat="59.2994629753" lon="34.6608889602"><ele>161.638</ele><time>2026-08-16T14:09:34.136Z</time><hdop>3.0</hdop><vdop>2.5</vdop><extensions><gom:speed>0.884</gom:speed></extensions></trkpt>
   <trkpt lat="59.299460293" lon="34.660873789"><ele>161.5</ele><time>2026-08-16T14:09:35.002Z</time><hdop>3.0</hdop><vdop>2.5</vdop><extensions><gom:speed>0.95</gom:speed></extensions></trkpt>
   <trkpt lat="59.2994619694" lon="34.6608609647"><ele>161.49</ele><time>2026-08-16T14:09:35.601Z</time><hdop>3.0</hdop><vdop>2.5</vdop><extensions><gom:speed>0.962</gom:speed></extensions></trkpt>
   <trkpt lat="59.2994623885" lon="34.6608505711"><ele>161.484</ele><time>2026-08-16T14:09:36.121Z</time><hdop>3.0</hdop><vdop>2.5</vdop><extensions><gom:speed>0.994</gom:speed></extensions></trkpt>
   <trkpt lat="59.2994630591" lon="34.6608347293"><ele>161.344</ele><time>2026-08-16T14:09:36.905Z</time><hdop>3.0</hdop><vdop>2.5</vdop><extensions><gom:speed>0.985</gom:speed></extensions></trkpt>
   <trkpt lat="59.2994634782" lon="34.6608236652"><ele>161.034</ele><time>2026-08-16T14:09:37.466Z</time><hdop>3.0</hdop><vdop>2.5</vdop><extensions><gom:speed>0.996</gom:speed></extensions></trkpt>
   <trkpt lat="59.299463562" lon="34.6608141936"><ele>160.848</ele><time>2026-08-16T14:09:37.947Z</time><hdop>3.0</hdop><vdop>2.5</vdop><extensions><gom:speed>0.996</gom:speed></extensions></trkpt>
   <trkpt lat="59.2994632686" lon="34.660793658"><ele>160.483</ele><time>2026-08-16T14:09:38.948Z</time><hdop>3.0</hdop><vdop>2.5</vdop><extensions><gom:speed>1.042</gom:speed></extensions></trkpt>
   <trkpt lat="59.2994606702" lon="34.6607812528"><ele>160.072</ele><time>2026-08-16T14:09:39.566Z</time><hdop>3.0</hdop><vdop>2.5</vdop><extensions><gom:speed>1.094</gom:speed></extensions></trkpt>
   <trkpt lat="59.2994569822" lon="34.6607721165"><ele>159.975</ele><time>2026-08-16T14:09:40.136Z</time><hdop>3.0</hdop><vdop>2.5</vdop><extensions><gom:speed>1.069</gom:speed></extensions></trkpt>
   <trkpt lat="59.2994527912" lon="34.6607628964"><ele>159.917</ele><time>2026-08-16T14:09:40.724Z</time><hdop>3.0</hdop><vdop>2.5</vdop><extensions><gom:speed>1.066</gom:speed></extensions></trkpt>
   <trkpt lat="59.29945057" lon="34.6607480604"><ele>159.861</ele><time>2026-08-16T14:09:41.647Z</time><hdop>3.0</hdop><vdop>2.5</vdop><extensions><gom:speed>0.935</gom:speed></extensions></trkpt>
   <trkpt lat="59.2994502767" lon="34.6607410196"><ele>159.858</ele><time>2026-08-16T14:09:42.136Z</time><hdop>3.0</hdop><vdop>2.5</vdop><extensions><gom:speed>0.85</gom:speed></extensions></trkpt>
   <trkpt lat="59.2994506958" lon="34.6607331406"><ele>159.651</ele><time>2026-08-16T14:09:43.136Z</time><hdop>3.0</hdop><vdop>2.5</vdop><extensions><gom:speed>0.623</gom:speed></extensions></trkpt>
   <trkpt lat="59.2994503605" lon="34.6607285306"><ele>159.543</ele><time>2026-08-16T14:09:44.136Z</time><hdop>3.0</hdop><vdop>2.5</vdop><extensions><gom:speed>0.567</gom:speed></extensions></trkpt>
   <trkpt lat="59.2994502767" lon="34.6607246749"><ele>159.479</ele><time>2026-08-16T14:09:44.621Z</time><hdop>3.0</hdop><vdop>2.5</vdop><extensions><gom:speed>0.562</gom:speed></extensions></trkpt>
   <trkpt lat="59.2994502767" lon="34.6607208192"><ele>159.52</ele><time>2026-08-16T14:09:45.136Z</time><hdop>3.0</hdop><vdop>2.5</vdop><extensions><gom:speed>0.64</gom:speed></extensions></trkpt>
   <trkpt lat="59.2994492708" lon="34.6607114315"><ele>159.544</ele><time>2026-08-16T14:09:46.064Z</time><hdop>3.0</hdop><vdop>2.5</vdop><extensions><gom:speed>0.605</gom:speed></extensions></trkpt>
   <trkpt lat="59.2994461695" lon="34.6607127726"><ele>159.49</ele><time>2026-08-16T14:09:47.136Z</time><hdop>3.0</hdop><vdop>2.5</vdop><extensions><gom:speed>0.51</gom:speed></extensions></trkpt>
   <trkpt lat="59.2994421881" lon="34.660709839"><ele>159.497</ele><time>2026-08-16T14:09:48.136Z</time><hdop>3.0</hdop><vdop>2.5</vdop><extensions><gom:speed>0.552</gom:speed></extensions></trkpt>
   <trkpt lat="59.2994393802" lon="34.6607030496"><ele>159.448</ele><time>2026-08-16T14:09:49.135Z</time><hdop>3.0</hdop><vdop>2.5</vdop><extensions><gom:speed>0.632</gom:speed></extensions></trkpt>
   <trkpt lat="59.2994387935" lon="34.6606899738"><ele>159.418</ele><time>2026-08-16T14:09:50.108Z</time><hdop>3.0</hdop><vdop>2.5</vdop><extensions><gom:speed>0.681</gom:speed></extensions></trkpt>
   <trkpt lat="59.2994419786" lon="34.6606773172"><ele>159.386</ele><time>2026-08-16T14:09:50.883Z</time><hdop>3.0</hdop><vdop>2.5</vdop><extensions><gom:speed>0.744</gom:speed></extensions></trkpt>
   <trkpt lat="59.2994450799" lon="34.6606624812"><ele>159.129</ele><time>2026-08-16T14:09:51.747Z</time><hdop>3.0</hdop><vdop>2.5</vdop><extensions><gom:speed>0.789</gom:speed></extensions></trkpt>
   <trkpt lat="59.2994464629" lon="34.6606474776"><ele>159.007</ele><time>2026-08-16T14:09:52.659Z</time><hdop>3.0</hdop><vdop>2.5</vdop><extensions><gom:speed>0.772</gom:speed></extensions></trkpt>
   <trkpt lat="59.2994461695" lon="34.6606393471"><ele>158.935</ele><time>2026-08-16T14:09:53.161Z</time><hdop>3.0</hdop><vdop>2.5</vdop><extensions><gom:speed>0.795</gom:speed></extensions></trkpt>
   <trkpt lat="59.2994439902" lon="34.6606225833"><ele>158.92</ele><time>2026-08-16T14:09:54.136Z</time><hdop>3.0</hdop><vdop>2.5</vdop><extensions><gom:speed>0.872</gom:speed></extensions></trkpt>
   <trkpt lat="59.2994408889" lon="34.6606110163"><ele>158.912</ele><time>2026-08-16T14:09:54.839Z</time><hdop>3.0</hdop><vdop>2.5</vdop><extensions><gom:speed>0.873</gom:speed></extensions></trkpt>
   <trkpt lat="59.2994387935" lon="34.6605991978"><ele>159.076</ele><time>2026-08-16T14:09:55.467Z</time><hdop>3.0</hdop><vdop>2.5</vdop><extensions><gom:speed>0.933</gom:speed></extensions></trkpt>
   <trkpt lat="59.2994373685" lon="34.6605865412"><ele>159.174</ele><time>2026-08-16T14:09:56.125Z</time><hdop>3.0</hdop><vdop>2.5</vdop><extensions><gom:speed>0.974</gom:speed></extensions></trkpt>
   <trkpt lat="59.2994361951" lon="34.6605711185"><ele>159.499</ele><time>2026-08-16T14:09:56.881Z</time><hdop>3.0</hdop><vdop>2.5</vdop><extensions><gom:speed>0.977</gom:speed></extensions></trkpt>
   <trkpt lat="59.2994365723" lon="34.6605575398"><ele>159.619</ele><time>2026-08-16T14:09:57.528Z</time><hdop>3.0</hdop><vdop>2.5</vdop><extensions><gom:speed>0.973</gom:speed></extensions></trkpt>
   <trkpt lat="59.2994378715" lon="34.6605468948"><ele>159.662</ele><time>2026-08-16T14:09:58.136Z</time><hdop>3.0</hdop><vdop>2.5</vdop><extensions><gom:speed>0.886</gom:speed></extensions></trkpt>
   <trkpt lat="59.2994386677" lon="34.6605348248"><ele>159.688</ele><time>2026-08-16T14:09:58.824Z</time><hdop>3.0</hdop><vdop>2.5</vdop><extensions><gom:speed>0.88</gom:speed></extensions></trkpt>
   <trkpt lat="59.2994369914" lon="34.6605154626"><ele>159.763</ele><time>2026-08-16T14:10:00.135Z</time><hdop>3.0</hdop><vdop>2.5</vdop><extensions><gom:speed>0.769</gom:speed></extensions></trkpt>
   <trkpt lat="59.2994336805" lon="34.6605030574"><ele>159.787</ele><time>2026-08-16T14:10:01.136Z</time><hdop>3.0</hdop><vdop>2.5</vdop><extensions><gom:speed>0.73</gom:speed></extensions></trkpt>
   <trkpt lat="59.2994326747" lon="34.660490736"><ele>159.802</ele><time>2026-08-16T14:10:02.063Z</time><hdop>3.0</hdop><vdop>2.5</vdop><extensions><gom:speed>0.697</gom:speed></extensions></trkpt>
   <trkpt lat="59.2994328842" lon="34.6604796719"><ele>159.788</ele><time>2026-08-16T14:10:02.966Z</time><hdop>3.0</hdop><vdop>2.5</vdop><extensions><gom:speed>0.678</gom:speed></extensions></trkpt>
   <trkpt lat="59.2994364884" lon="34.6604706194"><ele>159.755</ele><time>2026-08-16T14:10:03.820Z</time><hdop>3.0</hdop><vdop>2.5</vdop><extensions><gom:speed>0.684</gom:speed></extensions></trkpt>
   <trkpt lat="59.2994413919" lon="34.6604654227"><ele>159.819</ele><time>2026-08-16T14:10:04.664Z</time><hdop>3.0</hdop><vdop>2.5</vdop><extensions><gom:speed>0.616</gom:speed></extensions></trkpt>
   <trkpt lat="59.2994452894" lon="34.6604616508"><ele>159.676</ele><time>2026-08-16T14:10:05.136Z</time><hdop>3.0</hdop><vdop>2.5</vdop><extensions><gom:speed>0.711</gom:speed></extensions></trkpt>
   <trkpt lat="59.2994516597" lon="34.6604511734"><ele>159.522</ele><time>2026-08-16T14:10:06.136Z</time><hdop>3.0</hdop><vdop>2.5</vdop><extensions><gom:speed>0.796</gom:speed></extensions></trkpt>
   <trkpt lat="59.2994527912" lon="34.6604359184"><ele>159.598</ele><time>2026-08-16T14:10:07.136Z</time><hdop>3.0</hdop><vdop>2.5</vdop><extensions><gom:speed>0.751</gom:speed></extensions></trkpt>
   <trkpt lat="59.2994498995" lon="34.6604269497"><ele>159.644</ele><time>2026-08-16T14:10:07.766Z</time><hdop>3.0</hdop><vdop>2.5</vdop><extensions><gom:speed>0.755</gom:speed></extensions></trkpt>
   <trkpt lat="59.2994478878" lon="34.6604195736"><ele>159.766</ele><time>2026-08-16T14:10:08.345Z</time><hdop>3.0</hdop><vdop>2.5</vdop><extensions><gom:speed>0.77</gom:speed></extensions></trkpt>
   <trkpt lat="59.2994455828" lon="34.6604093477"><ele>159.839</ele><time>2026-08-16T14:10:09.081Z</time><hdop>3.0</hdop><vdop>2.5</vdop><extensions><gom:speed>0.815</gom:speed></extensions></trkpt>
   <trkpt lat="59.2994437807" lon="34.6603956852"><ele>159.884</ele><time>2026-08-16T14:10:09.983Z</time><hdop>3.0</hdop><vdop>2.5</vdop><extensions><gom:speed>0.848</gom:speed></extensions></trkpt>
   <trkpt lat="59.2994428587" lon="34.6603774965"><ele>159.943</ele><time>2026-08-16T14:10:11.136Z</time><hdop>3.0</hdop><vdop>2.5</vdop><extensions><gom:speed>0.857</gom:speed></extensions></trkpt>
   <trkpt lat="59.2994410985" lon="34.6603662647"><ele>159.979</ele><time>2026-08-16T14:10:11.820Z</time><hdop>3.0</hdop><vdop>2.5</vdop><extensions><gom:speed>0.851</gom:speed></extensions></trkpt>
   <trkpt lat="59.299436698" lon="34.6603536919"><ele>159.966</ele><time>2026-08-16T14:10:12.703Z</time><hdop>3.0</hdop><vdop>2.5</vdop><extensions><gom:speed>0.881</gom:speed></extensions></trkpt>
   <trkpt lat="59.2994328842" lon="34.6603479922"><ele>159.935</ele><time>2026-08-16T14:10:13.204Z</time><hdop>3.0</hdop><vdop>2.5</vdop><extensions><gom:speed>0.932</gom:speed></extensions></trkpt>
   <trkpt lat="59.2994272683" lon="34.6603376825"><ele>159.916</ele><time>2026-08-16T14:10:14.028Z</time><hdop>3.0</hdop><vdop>2.5</vdop><extensions><gom:speed>0.964</gom:speed></extensions></trkpt>
   <trkpt lat="59.2994220716" lon="34.6603352517"><ele>159.899</ele><time>2026-08-16T14:10:14.607Z</time><hdop>3.0</hdop><vdop>2.5</vdop><extensions><gom:speed>0.963</gom:speed></extensions></trkpt>
   <trkpt lat="59.2994176711" lon="34.6603344973"><ele>159.841</ele><time>2026-08-16T14:10:15.136Z</time><hdop>3.0</hdop><vdop>2.5</vdop><extensions><gom:speed>0.901</gom:speed></extensions></trkpt>
   <trkpt lat="59.2994098759" lon="34.6603326533"><ele>159.863</ele><time>2026-08-16T14:10:16.136Z</time><hdop>3.0</hdop><vdop>2.5</vdop><extensions><gom:speed>0.855</gom:speed></extensions></trkpt>
   <trkpt lat="59.2994044696" lon="34.660324942"><ele>159.859</ele><time>2026-08-16T14:10:17.136Z</time><hdop>3.0</hdop><vdop>2.5</vdop><extensions><gom:speed>0.868</gom:speed></extensions></trkpt>
   <trkpt lat="59.2993996919" lon="34.6603126206"><ele>159.857</ele><time>2026-08-16T14:10:18.043Z</time><hdop>3.0</hdop><vdop>2.5</vdop><extensions><gom:speed>0.864</gom:speed></extensions></trkpt>
   <trkpt lat="59.2993947885" lon="34.6603032328"><ele>159.965</ele><time>2026-08-16T14:10:18.926Z</time><hdop>3.0</hdop><vdop>2.5</vdop><extensions><gom:speed>0.876</gom:speed></extensions></trkpt>
   <trkpt lat="59.2993898851" lon="34.6602959406"><ele>160.032</ele><time>2026-08-16T14:10:19.761Z</time><hdop>3.0</hdop><vdop>2.5</vdop><extensions><gom:speed>0.858</gom:speed></extensions></trkpt>
   <trkpt lat="59.299386197" lon="34.6602891512"><ele>159.992</ele><time>2026-08-16T14:10:20.359Z</time><hdop>3.0</hdop><vdop>2.5</vdop><extensions><gom:speed>0.895</gom:speed></extensions></trkpt>
   <trkpt lat="59.299380665" lon="34.6602824457"><ele>160.077</ele><time>2026-08-16T14:10:21.136Z</time><hdop>3.0</hdop><vdop>2.5</vdop><extensions><gom:speed>0.916</gom:speed></extensions></trkpt>
   <trkpt lat="59.2993729955" lon="34.6602773327"><ele>160.129</ele><time>2026-08-16T14:10:22.008Z</time><hdop>3.0</hdop><vdop>2.5</vdop><extensions><gom:speed>0.912</gom:speed></extensions></trkpt>
   <trkpt lat="59.2993674635" lon="34.6602774166"><ele>160.079</ele><time>2026-08-16T14:10:22.587Z</time><hdop>3.0</hdop><vdop>2.5</vdop><extensions><gom:speed>0.919</gom:speed></extensions></trkpt>
   <trkpt lat="59.2993629792" lon="34.6602762431"><ele>159.999</ele><time>2026-08-16T14:10:23.136Z</time><hdop>3.0</hdop><vdop>2.5</vdop><extensions><gom:speed>0.893</gom:speed></extensions></trkpt>
   <trkpt lat="59.2993555612" lon="34.6602680288"><ele>160.018</ele><time>2026-08-16T14:10:24.136Z</time><hdop>3.0</hdop><vdop>2.5</vdop><extensions><gom:speed>0.919</gom:speed></extensions></trkpt>
   <trkpt lat="59.2993510768" lon="34.6602551207"><ele>160.03</ele><time>2026-08-16T14:10:24.963Z</time><hdop>3.0</hdop><vdop>2.5</vdop><extensions><gom:speed>0.944</gom:speed></extensions></trkpt>
   <trkpt lat="59.2993491909" lon="34.6602429669"><ele>160.138</ele><time>2026-08-16T14:10:25.660Z</time><hdop>3.0</hdop><vdop>2.5</vdop><extensions><gom:speed>0.928</gom:speed></extensions></trkpt>
   <trkpt lat="59.2993474726" lon="34.6602353394"><ele>160.181</ele><time>2026-08-16T14:10:26.136Z</time><hdop>3.0</hdop><vdop>2.5</vdop><extensions><gom:speed>0.972</gom:speed></extensions></trkpt>
   <trkpt lat="59.2993433655" lon="34.6602235209"><ele>160.207</ele><time>2026-08-16T14:10:26.906Z</time><hdop>3.0</hdop><vdop>2.5</vdop><extensions><gom:speed>0.989</gom:speed></extensions></trkpt>
   <trkpt lat="59.2993350674" lon="34.6602138817"><ele>160.115</ele><time>2026-08-16T14:10:27.907Z</time><hdop>3.0</hdop><vdop>2.5</vdop><extensions><gom:speed>0.975</gom:speed></extensions></trkpt>
   <trkpt lat="59.2993227879" lon="34.6602130436"><ele>160.121</ele><time>2026-08-16T14:10:29.136Z</time><hdop>3.0</hdop><vdop>2.5</vdop><extensions><gom:speed>0.91</gom:speed></extensions></trkpt>
   <trkpt lat="59.2993168787" lon="34.660216564"><ele>160.125</ele><time>2026-08-16T14:10:29.723Z</time><hdop>3.0</hdop><vdop>2.5</vdop><extensions><gom:speed>0.916</gom:speed></extensions></trkpt>
   <trkpt lat="59.299306988" lon="34.6602215931"><ele>160.097</ele><time>2026-08-16T14:10:30.646Z</time><hdop>3.0</hdop><vdop>2.5</vdop><extensions><gom:speed>0.96</gom:speed></extensions></trkpt>
   <trkpt lat="59.2993013722" lon="34.6602233533"><ele>160.062</ele><time>2026-08-16T14:10:31.136Z</time><hdop>3.0</hdop><vdop>2.5</vdop><extensions><gom:speed>1.01</gom:speed></extensions></trkpt>
   <trkpt lat="59.299293577" lon="34.66022394"><ele>160.041</ele><time>2026-08-16T14:10:31.863Z</time><hdop>3.0</hdop><vdop>2.5</vdop><extensions><gom:speed>1.023</gom:speed></extensions></trkpt>
   <trkpt lat="59.2992865781" lon="34.6602283824"><ele>160.027</ele><time>2026-08-16T14:10:32.442Z</time><hdop>3.0</hdop><vdop>2.5</vdop><extensions><gom:speed>1.01</gom:speed></extensions></trkpt>
   <trkpt lat="59.2992793697" lon="34.6602313999"><ele>160.052</ele><time>2026-08-16T14:10:33.136Z</time><hdop>3.0</hdop><vdop>2.5</vdop><extensions><gom:speed>1.006</gom:speed></extensions></trkpt>
   <trkpt lat="59.2992743824" lon="34.6602311485"><ele>160.067</ele><time>2026-08-16T14:10:33.600Z</time><hdop>3.0</hdop><vdop>2.5</vdop><extensions><gom:speed>1.009</gom:speed></extensions></trkpt>
   <trkpt lat="59.2992703591" lon="34.6602307294"><ele>160.139</ele><time>2026-08-16T14:10:34.136Z</time><hdop>3.0</hdop><vdop>2.5</vdop><extensions><gom:speed>0.942</gom:speed></extensions></trkpt>
   <trkpt lat="59.2992627735" lon="34.6602261193"><ele>160.182</ele><time>2026-08-16T14:10:35.024Z</time><hdop>3.0</hdop><vdop>2.5</vdop><extensions><gom:speed>0.958</gom:speed></extensions></trkpt>
   <trkpt lat="59.2992568643" lon="34.6602219284"><ele>160.241</ele><time>2026-08-16T14:10:35.760Z</time><hdop>3.0</hdop><vdop>2.5</vdop><extensions><gom:speed>0.967</gom:speed></extensions></trkpt>
   <trkpt lat="59.2992519608" lon="34.6602226827"><ele>160.204</ele><time>2026-08-16T14:10:36.388Z</time><hdop>3.0</hdop><vdop>2.5</vdop><extensions><gom:speed>0.912</gom:speed></extensions></trkpt>
   <trkpt lat="59.2992460935" lon="34.6602259517"><ele>160.051</ele><time>2026-08-16T14:10:37.136Z</time><hdop>3.0</hdop><vdop>2.5</vdop><extensions><gom:speed>0.875</gom:speed></extensions></trkpt>
   <trkpt lat="59.299238466" lon="34.6602280472"><ele>159.96</ele><time>2026-08-16T14:10:38.007Z</time><hdop>3.0</hdop><vdop>2.5</vdop><extensions><gom:speed>0.904</gom:speed></extensions></trkpt>
   <trkpt lat="59.2992321796" lon="34.6602277957"><ele>159.863</ele><time>2026-08-16T14:10:38.625Z</time><hdop>3.0</hdop><vdop>2.5</vdop><extensions><gom:speed>0.95</gom:speed></extensions></trkpt>
   <trkpt lat="59.2992269828" lon="34.6602282986"><ele>159.972</ele><time>2026-08-16T14:10:39.136Z</time><hdop>3.0</hdop><vdop>2.5</vdop><extensions><gom:speed>1.022</gom:speed></extensions></trkpt>
   <trkpt lat="59.2992161701" lon="34.6602296397"><ele>160.113</ele><time>2026-08-16T14:10:40.136Z</time><hdop>3.0</hdop><vdop>2.5</vdop><extensions><gom:speed>1.044</gom:speed></extensions></trkpt>
   <trkpt lat="59.2992097999" lon="34.6602314837"><ele>160.197</ele><time>2026-08-16T14:10:40.726Z</time><hdop>3.0</hdop><vdop>2.5</vdop><extensions><gom:speed>1.047</gom:speed></extensions></trkpt>
   <trkpt lat="59.2992003702" lon="34.6602365967"><ele>160.301</ele><time>2026-08-16T14:10:41.600Z</time><hdop>3.0</hdop><vdop>2.5</vdop><extensions><gom:speed>1.066</gom:speed></extensions></trkpt>
   <trkpt lat="59.2991950896" lon="34.6602414582"><ele>160.397</ele><time>2026-08-16T14:10:42.136Z</time><hdop>3.0</hdop><vdop>2.5</vdop><extensions><gom:speed>1.051</gom:speed></extensions></trkpt>
   <trkpt lat="59.2991882584" lon="34.6602501754"><ele>160.455</ele><time>2026-08-16T14:10:42.905Z</time><hdop>3.0</hdop><vdop>2.5</vdop><extensions><gom:speed>1.06</gom:speed></extensions></trkpt>
   <trkpt lat="59.299184277" lon="34.6602574676"><ele>160.513</ele><time>2026-08-16T14:10:43.465Z</time><hdop>3.0</hdop><vdop>2.5</vdop><extensions><gom:speed>1.047</gom:speed></extensions></trkpt>
   <trkpt lat="59.2991779905" lon="34.6602598984"><ele>160.64</ele><time>2026-08-16T14:10:44.136Z</time><hdop>3.0</hdop><vdop>2.5</vdop><extensions><gom:speed>1.002</gom:speed></extensions></trkpt>
   <trkpt lat="59.2991699858" lon="34.660260066"><ele>160.715</ele><time>2026-08-16T14:10:44.947Z</time><hdop>3.0</hdop><vdop>2.5</vdop><extensions><gom:speed>1.003</gom:speed></extensions></trkpt>
   <trkpt lat="59.2991621907" lon="34.6602580544"><ele>160.836</ele><time>2026-08-16T14:10:45.742Z</time><hdop>3.0</hdop><vdop>2.5</vdop><extensions><gom:speed>0.978</gom:speed></extensions></trkpt>
   <trkpt lat="59.2991484862" lon="34.6602533605"><ele>160.856</ele><time>2026-08-16T14:10:47.007Z</time><hdop>3.0</hdop><vdop>2.5</vdop><extensions><gom:speed>0.998</gom:speed></extensions></trkpt>
   <trkpt lat="59.299142577" lon="34.6602519356"><ele>160.848</ele><time>2026-08-16T14:10:47.607Z</time><hdop>3.0</hdop><vdop>2.5</vdop><extensions><gom:speed>1.012</gom:speed></extensions></trkpt>
   <trkpt lat="59.299137464" lon="34.6602476608"><ele>160.792</ele><time>2026-08-16T14:10:48.136Z</time><hdop>3.0</hdop><vdop>2.5</vdop><extensions><gom:speed>1.029</gom:speed></extensions></trkpt>
   <trkpt lat="59.2991294593" lon="34.6602429669"><ele>160.759</ele><time>2026-08-16T14:10:48.903Z</time><hdop>3.0</hdop><vdop>2.5</vdop><extensions><gom:speed>1.032</gom:speed></extensions></trkpt>
   <trkpt lat="59.2991213708" lon="34.6602390275"><ele>160.866</ele><time>2026-08-16T14:10:49.688Z</time><hdop>3.0</hdop><vdop>2.5</vdop><extensions><gom:speed>1.018</gom:speed></extensions></trkpt>
   <trkpt lat="59.2991156711" lon="34.6602380216"><ele>161.07</ele><time>2026-08-16T14:10:50.325Z</time><hdop>3.0</hdop><vdop>2.5</vdop><extensions><gom:speed>0.969</gom:speed></extensions></trkpt>
   <trkpt lat="59.2991099714" lon="34.6602366805"><ele>161.191</ele><time>2026-08-16T14:10:50.925Z</time><hdop>3.0</hdop><vdop>2.5</vdop><extensions><gom:speed>0.972</gom:speed></extensions></trkpt>
   <trkpt lat="59.2991035592" lon="34.6602359261"><ele>161.25</ele><time>2026-08-16T14:10:51.582Z</time><hdop>3.0</hdop><vdop>2.5</vdop><extensions><gom:speed>0.965</gom:speed></extensions></trkpt>
   <trkpt lat="59.299098572" lon="34.6602366805"><ele>161.461</ele><time>2026-08-16T14:10:52.136Z</time><hdop>3.0</hdop><vdop>2.5</vdop><extensions><gom:speed>0.932</gom:speed></extensions></trkpt>
   <trkpt lat="59.2990904835" lon="34.6602329925"><ele>161.602</ele><time>2026-08-16T14:10:53.136Z</time><hdop>3.0</hdop><vdop>2.5</vdop><extensions><gom:speed>0.889</gom:speed></extensions></trkpt>
   <trkpt lat="59.2990875917" lon="34.6602247782"><ele>161.686</ele><time>2026-08-16T14:10:53.643Z</time><hdop>3.0</hdop><vdop>2.5</vdop><extensions><gom:speed>0.886</gom:speed></extensions></trkpt>
   <trkpt lat="59.2990863763" lon="34.6602176536"><ele>161.736</ele><time>2026-08-16T14:10:54.124Z</time><hdop>3.0</hdop><vdop>2.5</vdop><extensions><gom:speed>0.779</gom:speed></extensions></trkpt>
   <trkpt lat="59.299086083" lon="34.6602039911"><ele>161.884</ele><time>2026-08-16T14:10:54.880Z</time><hdop>3.0</hdop><vdop>2.5</vdop><extensions><gom:speed>0.817</gom:speed></extensions></trkpt>
   <trkpt lat="59.2990865859" lon="34.6601843774"><ele>160.882</ele><time>2026-08-16T14:10:55.999Z</time><hdop>3.0</hdop><vdop>2.5</vdop><extensions><gom:speed>0.834</gom:speed></extensions></trkpt>
   <trkpt lat="59.2990798804" lon="34.6601791807"><ele>160.244</ele><time>2026-08-16T14:10:56.942Z</time><hdop>3.0</hdop><vdop>2.5</vdop><extensions><gom:speed>0.881</gom:speed></extensions></trkpt>
   <trkpt lat="59.2990761923" lon="34.6601796836"><ele>159.89</ele><time>2026-08-16T14:10:57.403Z</time><hdop>3.0</hdop><vdop>2.5</vdop><extensions><gom:speed>0.912</gom:speed></extensions></trkpt>
   <trkpt lat="59.299069864" lon="34.6601806894"><ele>159.672</ele><time>2026-08-16T14:10:58.136Z</time><hdop>3.0</hdop><vdop>2.5</vdop><extensions><gom:speed>0.898</gom:speed></extensions></trkpt>
   <trkpt lat="59.2990641643" lon="34.6601798512"><ele>159.542</ele><time>2026-08-16T14:10:58.864Z</time><hdop>3.062</hdop><vdop>2.5</vdop><extensions><gom:speed>0.882</gom:speed></extensions></trkpt>
   <trkpt lat="59.2990516753" lon="34.6601789292"><ele>159.353</ele><time>2026-08-16T14:11:00.135Z</time><hdop>3.062</hdop><vdop>2.5</vdop><extensions><gom:speed>0.933</gom:speed></extensions></trkpt>
   <trkpt lat="59.2990428743" lon="34.6601743192"><ele>159.101</ele><time>2026-08-16T14:11:01.136Z</time><hdop>3.062</hdop><vdop>2.5</vdop><extensions><gom:speed>0.886</gom:speed></extensions></trkpt>
   <trkpt lat="59.2990386833" lon="34.6601706311"><ele>158.951</ele><time>2026-08-16T14:11:01.682Z</time><hdop>3.062</hdop><vdop>2.5</vdop><extensions><gom:speed>0.888</gom:speed></extensions></trkpt>
   <trkpt lat="59.2990348696" lon="34.6601651829"><ele>158.861</ele><time>2026-08-16T14:11:02.144Z</time><hdop>3.062</hdop><vdop>2.5</vdop><extensions><gom:speed>0.961</gom:speed></extensions></trkpt>
   <trkpt lat="59.2990294632" lon="34.6601546217"><ele>158.845</ele><time>2026-08-16T14:11:02.939Z</time><hdop>3.062</hdop><vdop>2.5</vdop><extensions><gom:speed>0.973</gom:speed></extensions></trkpt>
   <trkpt lat="59.2990247694" lon="34.6601414621"><ele>158.93</ele><time>2026-08-16T14:11:03.724Z</time><hdop>3.062</hdop><vdop>2.5</vdop><extensions><gom:speed>1.032</gom:speed></extensions></trkpt>
   <trkpt lat="59.2990214585" lon="34.6601315715"><ele>159.093</ele><time>2026-08-16T14:11:04.382Z</time><hdop>3.0</hdop><vdop>2.5</vdop><extensions><gom:speed>0.981</gom:speed></extensions></trkpt>
   <trkpt lat="59.29901798" lon="34.6601236925"><ele>159.191</ele><time>2026-08-16T14:11:04.980Z</time><hdop>3.0</hdop><vdop>2.5</vdop><extensions><gom:speed>0.947</gom:speed></extensions></trkpt>
   <trkpt lat="59.2990130766" lon="34.6601110358"><ele>159.34</ele><time>2026-08-16T14:11:05.864Z</time><hdop>3.0</hdop><vdop>2.5</vdop><extensions><gom:speed>0.973</gom:speed></extensions></trkpt>
   <trkpt lat="59.2990107716" lon="34.6601008937"><ele>159.397</ele><time>2026-08-16T14:11:06.463Z</time><hdop>3.0</hdop><vdop>2.5</vdop><extensions><gom:speed>0.985</gom:speed></extensions></trkpt>
   <trkpt lat="59.2990080894" lon="34.6600888237"><ele>159.428</ele><time>2026-08-16T14:11:07.136Z</time><hdop>3.0</hdop><vdop>2.5</vdop><extensions><gom:speed>0.994</gom:speed></extensions></trkpt>
   <trkpt lat="59.2990039822" lon="34.6600777596"><ele>159.447</ele><time>2026-08-16T14:11:07.807Z</time><hdop>3.0</hdop><vdop>2.5</vdop><extensions><gom:speed>0.995</gom:speed></extensions></trkpt>
   <trkpt lat="59.2989986597" lon="34.6600695454"><ele>159.433</ele><time>2026-08-16T14:11:08.543Z</time><hdop>3.0</hdop><vdop>2.5</vdop><extensions><gom:speed>0.98</gom:speed></extensions></trkpt>
   <trkpt lat="59.298994385" lon="34.6600650191"><ele>159.391</ele><time>2026-08-16T14:11:09.136Z</time><hdop>3.0</hdop><vdop>2.5</vdop><extensions><gom:speed>0.911</gom:speed></extensions></trkpt>
   <trkpt lat="59.2989884757" lon="34.6600603253"><ele>159.366</ele><time>2026-08-16T14:11:09.887Z</time><hdop>3.0</hdop><vdop>2.5</vdop><extensions><gom:speed>0.908</gom:speed></extensions></trkpt>
   <trkpt lat="59.2989783755" lon="34.660070635"><ele>159.233</ele><time>2026-08-16T14:11:11.136Z</time><hdop>3.0</hdop><vdop>2.5</vdop><extensions><gom:speed>0.892</gom:speed></extensions></trkpt>
   <trkpt lat="59.2989729692" lon="34.6600846328"><ele>159.152</ele><time>2026-08-16T14:11:11.958Z</time><hdop>3.0</hdop><vdop>2.5</vdop><extensions><gom:speed>0.933</gom:speed></extensions></trkpt>
   <trkpt lat="59.2989669761" lon="34.6600995526"><ele>159.249</ele><time>2026-08-16T14:11:12.862Z</time><hdop>3.0</hdop><vdop>2.5</vdop><extensions><gom:speed>0.9</gom:speed></extensions></trkpt>
   <trkpt lat="59.2989624918" lon="34.6601120416"><ele>159.507</ele><time>2026-08-16T14:11:13.608Z</time><hdop>3.0</hdop><vdop>2.5</vdop><extensions><gom:speed>0.901</gom:speed></extensions></trkpt>
   <trkpt lat="59.2989592648" lon="34.6601212617"><ele>159.834</ele><time>2026-08-16T14:11:14.136Z</time><hdop>3.0</hdop><vdop>2.5</vdop><extensions><gom:speed>0.917</gom:speed></extensions></trkpt>
   <trkpt lat="59.2989533975" lon="34.6601323258"><ele>160.133</ele><time>2026-08-16T14:11:15.136Z</time><hdop>3.0</hdop><vdop>2.5</vdop><extensions><gom:speed>0.869</gom:speed></extensions></trkpt>
   <trkpt lat="59.2989476978" lon="34.6601354271"><ele>160.311</ele><time>2026-08-16T14:11:15.965Z</time><hdop>3.0</hdop><vdop>2.5</vdop><extensions><gom:speed>0.842</gom:speed></extensions></trkpt>
   <trkpt lat="59.2989454766" lon="34.6601330802"><ele>160.299</ele><time>2026-08-16T14:11:16.642Z</time><hdop>3.0</hdop><vdop>2.5</vdop><extensions><gom:speed>0.793</gom:speed></extensions></trkpt>
   <trkpt lat="59.2989436744" lon="34.6601290569"><ele>160.566</ele><time>2026-08-16T14:11:17.136Z</time><hdop>3.0</hdop><vdop>2.5</vdop><extensions><gom:speed>0.845</gom:speed></extensions></trkpt>
   <trkpt lat="59.2989381843" lon="34.6601196691"><ele>160.825</ele><time>2026-08-16T14:11:18.136Z</time><hdop>3.0</hdop><vdop>2.5</vdop><extensions><gom:speed>0.872</gom:speed></extensions></trkpt>
   <trkpt lat="59.2989312692" lon="34.6601112872"><ele>161.079</ele><time>2026-08-16T14:11:19.136Z</time><hdop>3.0</hdop><vdop>2.5</vdop><extensions><gom:speed>0.92</gom:speed></extensions></trkpt>
   <trkpt lat="59.2989273716" lon="34.6601088565"><ele>161.232</ele><time>2026-08-16T14:11:19.587Z</time><hdop>3.0</hdop><vdop>2.5</vdop><extensions><gom:speed>0.93</gom:speed></extensions></trkpt>
   <trkpt lat="59.2989228873" lon="34.6601069287"><ele>161.336</ele><time>2026-08-16T14:11:20.136Z</time><hdop>3.0</hdop><vdop>2.5</vdop><extensions><gom:speed>0.93</gom:speed></extensions></trkpt>
   <trkpt lat="59.2989184868" lon="34.6601066772"><ele>161.399</ele><time>2026-08-16T14:11:20.647Z</time><hdop>3.0</hdop><vdop>2.5</vdop><extensions><gom:speed>0.936</gom:speed></extensions></trkpt>
   <trkpt lat="59.2989143797" lon="34.6601052523"><ele>161.306</ele><time>2026-08-16T14:11:21.136Z</time><hdop>3.0</hdop><vdop>2.5</vdop><extensions><gom:speed>0.932</gom:speed></extensions></trkpt>
   <trkpt lat="59.2989054949" lon="34.6601016481"><ele>161.251</ele><time>2026-08-16T14:11:22.100Z</time><hdop>3.0</hdop><vdop>2.5</vdop><extensions><gom:speed>0.95</gom:speed></extensions></trkpt>
   <trkpt lat="59.2989006753" lon="34.6600995526"><ele>161.146</ele><time>2026-08-16T14:11:22.708Z</time><hdop>3.0</hdop><vdop>2.5</vdop><extensions><gom:speed>0.909</gom:speed></extensions></trkpt>
   <trkpt lat="59.2988936764" lon="34.6600953616"><ele>161.113</ele><time>2026-08-16T14:11:23.425Z</time><hdop>3.0</hdop><vdop>2.5</vdop><extensions><gom:speed>0.981</gom:speed></extensions></trkpt>
   <trkpt lat="59.2988872642" lon="34.660090081"><ele>161.012</ele><time>2026-08-16T14:11:24.136Z</time><hdop>3.0</hdop><vdop>2.5</vdop><extensions><gom:speed>0.961</gom:speed></extensions></trkpt>
   <trkpt lat="59.298878589" lon="34.6600814477"><ele>161.028</ele><time>2026-08-16T14:11:25.136Z</time><hdop>3.0</hdop><vdop>2.5</vdop><extensions><gom:speed>0.934</gom:speed></extensions></trkpt>
   <trkpt lat="59.2988732665" lon="34.6600778435"><ele>161.039</ele><time>2026-08-16T14:11:25.722Z</time><hdop>3.0</hdop><vdop>2.5</vdop><extensions><gom:speed>0.937</gom:speed></extensions></trkpt>
   <trkpt lat="59.2988667705" lon="34.6600739878"><ele>161.169</ele><time>2026-08-16T14:11:26.507Z</time><hdop>3.0</hdop><vdop>2.5</vdop><extensions><gom:speed>0.884</gom:speed></extensions></trkpt>
   <trkpt lat="59.2988617833" lon="34.6600707188"><ele>161.212</ele><time>2026-08-16T14:11:27.136Z</time><hdop>3.0</hdop><vdop>2.5</vdop><extensions><gom:speed>0.901</gom:speed></extensions></trkpt>
   <trkpt lat="59.2988560836" lon="34.6600666955"><ele>161.238</ele><time>2026-08-16T14:11:27.803Z</time><hdop>3.0</hdop><vdop>2.5</vdop><extensions><gom:speed>0.901</gom:speed></extensions></trkpt>
   <trkpt lat="59.2988510963" lon="34.6600625884"><ele>161.256</ele><time>2026-08-16T14:11:28.323Z</time><hdop>3.0</hdop><vdop>2.5</vdop><extensions><gom:speed>0.926</gom:speed></extensions></trkpt>
   <trkpt lat="59.2988436783" lon="34.6600594871"><ele>161.254</ele><time>2026-08-16T14:11:29.135Z</time><hdop>3.0</hdop><vdop>2.5</vdop><extensions><gom:speed>0.935</gom:speed></extensions></trkpt>
   <trkpt lat="59.2988381882" lon="34.6600597385"><ele>161.253</ele><time>2026-08-16T14:11:29.687Z</time><hdop>3.0</hdop><vdop>2.5</vdop><extensions><gom:speed>0.932</gom:speed></extensions></trkpt>
   <trkpt lat="59.2988339972" lon="34.6600635942"><ele>161.412</ele><time>2026-08-16T14:11:30.168Z</time><hdop>3.0</hdop><vdop>2.5</vdop><extensions><gom:speed>0.951</gom:speed></extensions></trkpt>
   <trkpt lat="59.2988261602" lon="34.6600737363"><ele>161.471</ele><time>2026-08-16T14:11:31.136Z</time><hdop>3.0</hdop><vdop>2.5</vdop><extensions><gom:speed>0.99</gom:speed></extensions></trkpt>
   <trkpt lat="59.2988190775" lon="34.6600818668"><ele>161.506</ele><time>2026-08-16T14:11:31.945Z</time><hdop>3.0</hdop><vdop>2.5</vdop><extensions><gom:speed>0.999</gom:speed></extensions></trkpt>
   <trkpt lat="59.2988137969" lon="34.6600834593"><ele>161.574</ele><time>2026-08-16T14:11:32.740Z</time><hdop>3.0</hdop><vdop>2.5</vdop><extensions><gom:speed>0.9</gom:speed></extensions></trkpt>
   <trkpt lat="59.2988083905" lon="34.6600816991"><ele>161.675</ele><time>2026-08-16T14:11:33.564Z</time><hdop>3.0</hdop><vdop>2.5</vdop><extensions><gom:speed>0.883</gom:speed></extensions></trkpt>
   <trkpt lat="59.2988042834" lon="34.6600821182"><ele>161.808</ele><time>2026-08-16T14:11:34.136Z</time><hdop>3.0</hdop><vdop>2.5</vdop><extensions><gom:speed>0.873</gom:speed></extensions></trkpt>
   <trkpt lat="59.2987978712" lon="34.6600849681"><ele>161.873</ele><time>2026-08-16T14:11:35.136Z</time><hdop>3.0</hdop><vdop>2.5</vdop><extensions><gom:speed>0.776</gom:speed></extensions></trkpt>
   <trkpt lat="59.2987920877" lon="34.6600822859"><ele>161.912</ele><time>2026-08-16T14:11:36.008Z</time><hdop>3.0</hdop><vdop>2.5</vdop><extensions><gom:speed>0.781</gom:speed></extensions></trkpt>
   <trkpt lat="59.2987884835" lon="34.6600733172"><ele>161.876</ele><time>2026-08-16T14:11:36.645Z</time><hdop>3.0</hdop><vdop>2.5</vdop><extensions><gom:speed>0.839</gom:speed></extensions></trkpt>
   <trkpt lat="59.2987860947" lon="34.6600654382"><ele>161.742</ele><time>2026-08-16T14:11:37.136Z</time><hdop>3.0</hdop><vdop>2.5</vdop><extensions><gom:speed>0.863</gom:speed></extensions></trkpt>
   <trkpt lat="59.2987796825" lon="34.6600520272"><ele>161.681</ele><time>2026-08-16T14:11:38.135Z</time><hdop>3.0</hdop><vdop>2.5</vdop><extensions><gom:speed>0.883</gom:speed></extensions></trkpt>
   <trkpt lat="59.2987737733" lon="34.6600472495"><ele>161.645</ele><time>2026-08-16T14:11:38.806Z</time><hdop>3.0</hdop><vdop>2.5</vdop><extensions><gom:speed>0.887</gom:speed></extensions></trkpt>
   <trkpt lat="59.2987676964" lon="34.6600471657"><ele>161.734</ele><time>2026-08-16T14:11:39.463Z</time><hdop>3.0</hdop><vdop>2.5</vdop><extensions><gom:speed>0.87</gom:speed></extensions></trkpt>
   <trkpt lat="59.2987615776" lon="34.6600477524"><ele>161.839</ele><time>2026-08-16T14:11:40.136Z</time><hdop>3.0</hdop><vdop>2.5</vdop><extensions><gom:speed>0.881</gom:speed></extensions></trkpt>
   <trkpt lat="59.2987549978" lon="34.6600456569"><ele>161.902</ele><time>2026-08-16T14:11:40.887Z</time><hdop>3.0</hdop><vdop>2.5</vdop><extensions><gom:speed>0.897</gom:speed></extensions></trkpt>
   <trkpt lat="59.2987461968" lon="34.6600280549"><ele>161.801</ele><time>2026-08-16T14:11:42.136Z</time><hdop>3.0</hdop><vdop>2.5</vdop><extensions><gom:speed>0.918</gom:speed></extensions></trkpt>
   <trkpt lat="59.2987421735" lon="34.6600158174"><ele>161.741</ele><time>2026-08-16T14:11:42.879Z</time><hdop>3.0</hdop><vdop>2.5</vdop><extensions><gom:speed>0.916</gom:speed></extensions></trkpt>
   <trkpt lat="59.2987390722" lon="34.6600030769"><ele>161.704</ele><time>2026-08-16T14:11:43.664Z</time><hdop>3.0</hdop><vdop>2.5</vdop><extensions><gom:speed>0.895</gom:speed></extensions></trkpt>
   <trkpt lat="59.2987368929" lon="34.6599949464"><ele>161.62</ele><time>2026-08-16T14:11:44.136Z</time><hdop>3.0</hdop><vdop>2.5</vdop><extensions><gom:speed>0.937</gom:speed></extensions></trkpt>
   <trkpt lat="59.2987331629" lon="34.659977093"><ele>161.57</ele><time>2026-08-16T14:11:45.127Z</time><hdop>3.0</hdop><vdop>2.5</vdop><extensions><gom:speed>0.922</gom:speed></extensions></trkpt>
   <trkpt lat="59.298727589" lon="34.6599702198"><ele>161.658</ele><time>2026-08-16T14:11:45.883Z</time><hdop>3.0</hdop><vdop>2.5</vdop><extensions><gom:speed>0.917</gom:speed></extensions></trkpt>
   <trkpt lat="59.2987208835" lon="34.6599735726"><ele>161.903</ele><time>2026-08-16T14:11:46.540Z</time><hdop>3.0</hdop><vdop>2.5</vdop><extensions><gom:speed>0.869</gom:speed></extensions></trkpt>
   <trkpt lat="59.2987160639" lon="34.6599699684"><ele>162.05</ele><time>2026-08-16T14:11:47.139Z</time><hdop>3.0</hdop><vdop>2.5</vdop><extensions><gom:speed>0.883</gom:speed></extensions></trkpt>
   <trkpt lat="59.2987111605" lon="34.6599602454"><ele>162.349</ele><time>2026-08-16T14:11:47.924Z</time><hdop>3.0</hdop><vdop>2.5</vdop><extensions><gom:speed>0.901</gom:speed></extensions></trkpt>
   <trkpt lat="59.2987072629" lon="34.6599551324"><ele>162.406</ele><time>2026-08-16T14:11:48.464Z</time><hdop>3.0</hdop><vdop>2.5</vdop><extensions><gom:speed>0.924</gom:speed></extensions></trkpt>
   <trkpt lat="59.2987013955" lon="34.6599504385"><ele>162.392</ele><time>2026-08-16T14:11:49.136Z</time><hdop>3.0</hdop><vdop>2.5</vdop><extensions><gom:speed>0.933</gom:speed></extensions></trkpt>
   <trkpt lat="59.2986931813" lon="34.6599473372"><ele>162.384</ele><time>2026-08-16T14:11:49.966Z</time><hdop>3.0</hdop><vdop>2.5</vdop><extensions><gom:speed>0.933</gom:speed></extensions></trkpt>
   <trkpt lat="59.2986834583" lon="34.6599541266"><ele>161.948</ele><time>2026-08-16T14:11:50.947Z</time><hdop>3.0</hdop><vdop>2.5</vdop><extensions><gom:speed>0.91</gom:speed></extensions></trkpt>
   <trkpt lat="59.2986731904" lon="34.6599672862"><ele>161.582</ele><time>2026-08-16T14:11:51.899Z</time><hdop>3.0</hdop><vdop>2.5</vdop><extensions><gom:speed>0.972</gom:speed></extensions></trkpt>
   <trkpt lat="59.2986624616" lon="34.659977093"><ele>160.876</ele><time>2026-08-16T14:11:52.822Z</time><hdop>3.0</hdop><vdop>2.5</vdop><extensions><gom:speed>1.015</gom:speed></extensions></trkpt>
   <trkpt lat="59.2986553789" lon="34.6599810325"><ele>160.491</ele><time>2026-08-16T14:11:53.460Z</time><hdop>3.0</hdop><vdop>2.5</vdop><extensions><gom:speed>1.025</gom:speed></extensions></trkpt>
   <trkpt lat="59.2986491763" lon="34.6599817868"><ele>160.262</ele><time>2026-08-16T14:11:54.000Z</time><hdop>3.0</hdop><vdop>2.5</vdop><extensions><gom:speed>1.089</gom:speed></extensions></trkpt>
   <trkpt lat="59.2986425965" lon="34.6599856425"><ele>160.212</ele><time>2026-08-16T14:11:54.686Z</time><hdop>3.0</hdop><vdop>2.5</vdop><extensions><gom:speed>1.062</gom:speed></extensions></trkpt>
   <trkpt lat="59.2986352623" lon="34.6599860616"><ele>160.335</ele><time>2026-08-16T14:11:55.541Z</time><hdop>3.0</hdop><vdop>2.5</vdop><extensions><gom:speed>1.061</gom:speed></extensions></trkpt>
   <trkpt lat="59.2986305685" lon="34.6599837985"><ele>160.545</ele><time>2026-08-16T14:11:56.136Z</time><hdop>3.0</hdop><vdop>2.5</vdop><extensions><gom:speed>1.086</gom:speed></extensions></trkpt>
   <trkpt lat="59.2986259584" lon="34.659982625"><ele>160.67</ele><time>2026-08-16T14:11:56.621Z</time><hdop>3.0</hdop><vdop>2.5</vdop><extensions><gom:speed>1.073</gom:speed></extensions></trkpt>
   <trkpt lat="59.2986222704" lon="34.6599825412"><ele>160.639</ele><time>2026-08-16T14:11:57.136Z</time><hdop>3.0</hdop><vdop>2.5</vdop><extensions><gom:speed>1.047</gom:speed></extensions></trkpt>
   <trkpt lat="59.2986144752" lon="34.6599809487"><ele>160.62</ele><time>2026-08-16T14:11:57.965Z</time><hdop>3.0</hdop><vdop>2.5</vdop><extensions><gom:speed>1.041</gom:speed></extensions></trkpt>
   <trkpt lat="59.2986106614" lon="34.6599765901"><ele>160.73</ele><time>2026-08-16T14:11:58.584Z</time><hdop>3.0</hdop><vdop>2.5</vdop><extensions><gom:speed>1.0</gom:speed></extensions></trkpt>
   <trkpt lat="59.2986075601" lon="34.6599740755"><ele>160.827</ele><time>2026-08-16T14:11:59.136Z</time><hdop>3.0</hdop><vdop>2.5</vdop><extensions><gom:speed>0.949</gom:speed></extensions></trkpt>
   <trkpt lat="59.29860207" lon="34.6599777635"><ele>161.21</ele><time>2026-08-16T14:12:00.136Z</time><hdop>3.0</hdop><vdop>2.5</vdop><extensions><gom:speed>0.869</gom:speed></extensions></trkpt>
   <trkpt lat="59.2985966637" lon="34.6599802781"><ele>161.439</ele><time>2026-08-16T14:12:00.900Z</time><hdop>3.0</hdop><vdop>2.5</vdop><extensions><gom:speed>0.877</gom:speed></extensions></trkpt>
   <trkpt lat="59.2985913831" lon="34.6599776797"><ele>161.716</ele><time>2026-08-16T14:12:01.744Z</time><hdop>3.0</hdop><vdop>2.5</vdop><extensions><gom:speed>0.834</gom:speed></extensions></trkpt>
   <trkpt lat="59.2985889942" lon="34.6599730697"><ele>162.107</ele><time>2026-08-16T14:12:02.343Z</time><hdop>3.0</hdop><vdop>2.5</vdop><extensions><gom:speed>0.744</gom:speed></extensions></trkpt>
   <trkpt lat="59.2985848871" lon="34.6599670347"><ele>162.34</ele><time>2026-08-16T14:12:03.020Z</time><hdop>3.0</hdop><vdop>2.5</vdop><extensions><gom:speed>0.768</gom:speed></extensions></trkpt>
   <trkpt lat="59.2985812829" lon="34.6599593233"><ele>162.672</ele><time>2026-08-16T14:12:03.825Z</time><hdop>3.0</hdop><vdop>2.5</vdop><extensions><gom:speed>0.773</gom:speed></extensions></trkpt>
   <trkpt lat="59.2985764633" lon="34.6599548809"><ele>162.796</ele><time>2026-08-16T14:12:04.601Z</time><hdop>3.0</hdop><vdop>2.5</vdop><extensions><gom:speed>0.817</gom:speed></extensions></trkpt>
   <trkpt lat="59.2985731943" lon="34.6599514444"><ele>162.869</ele><time>2026-08-16T14:12:05.135Z</time><hdop>3.0</hdop><vdop>2.5</vdop><extensions><gom:speed>0.819</gom:speed></extensions></trkpt>
   <trkpt lat="59.2985685843" lon="34.6599496842"><ele>162.913</ele><time>2026-08-16T14:12:05.759Z</time><hdop>3.0</hdop><vdop>2.5</vdop><extensions><gom:speed>0.815</gom:speed></extensions></trkpt>
   <trkpt lat="59.298562675" lon="34.6599411346"><ele>163.054</ele><time>2026-08-16T14:12:06.583Z</time><hdop>3.0</hdop><vdop>2.5</vdop><extensions><gom:speed>0.83</gom:speed></extensions></trkpt>
   <trkpt lat="59.2985587775" lon="34.6599373628"><ele>163.139</ele><time>2026-08-16T14:12:07.123Z</time><hdop>3.0</hdop><vdop>2.5</vdop><extensions><gom:speed>0.827</gom:speed></extensions></trkpt>
   <trkpt lat="59.2985550894" lon="34.6599252928"><ele>162.953</ele><time>2026-08-16T14:12:07.741Z</time><hdop>3.062</hdop><vdop>2.5</vdop><extensions><gom:speed>0.854</gom:speed></extensions></trkpt>
   <trkpt lat="59.2985510661" lon="34.6599081937"><ele>162.672</ele><time>2026-08-16T14:12:08.507Z</time><hdop>3.062</hdop><vdop>2.5</vdop><extensions><gom:speed>0.874</gom:speed></extensions></trkpt>
   <trkpt lat="59.2985461627" lon="34.6598998956"><ele>162.577</ele><time>2026-08-16T14:12:09.136Z</time><hdop>3.062</hdop><vdop>2.5</vdop><extensions><gom:speed>0.953</gom:speed></extensions></trkpt>
   <trkpt lat="59.2985397924" lon="34.6598950341"><ele>162.52</ele><time>2026-08-16T14:12:09.783Z</time><hdop>3.062</hdop><vdop>2.5</vdop><extensions><gom:speed>0.954</gom:speed></extensions></trkpt>
   <trkpt lat="59.2985328774" lon="34.6598908432"><ele>162.643</ele><time>2026-08-16T14:12:10.500Z</time><hdop>3.062</hdop><vdop>2.5</vdop><extensions><gom:speed>0.948</gom:speed></extensions></trkpt>
   <trkpt lat="59.298527471" lon="34.659886317"><ele>162.85</ele><time>2026-08-16T14:12:11.135Z</time><hdop>3.062</hdop><vdop>2.5</vdop><extensions><gom:speed>0.965</gom:speed></extensions></trkpt>
   <trkpt lat="59.2985226934" lon="34.6598824613"><ele>162.975</ele><time>2026-08-16T14:12:11.668Z</time><hdop>3.062</hdop><vdop>2.5</vdop><extensions><gom:speed>0.958</gom:speed></extensions></trkpt>
   <trkpt lat="59.2985187958" lon="34.6598819584"><ele>163.092</ele><time>2026-08-16T14:12:12.136Z</time><hdop>3.0</hdop><vdop>2.5</vdop><extensions><gom:speed>0.993</gom:speed></extensions></trkpt>
   <trkpt lat="59.2985134733" lon="34.659883048"><ele>163.162</ele><time>2026-08-16T14:12:12.708Z</time><hdop>3.0</hdop><vdop>2.5</vdop><extensions><gom:speed>0.989</gom:speed></extensions></trkpt>
   <trkpt lat="59.2985083603" lon="34.6598829642"><ele>163.238</ele><time>2026-08-16T14:12:13.366Z</time><hdop>3.0</hdop><vdop>2.5</vdop><extensions><gom:speed>0.953</gom:speed></extensions></trkpt>
   <trkpt lat="59.2985041694" lon="34.659882126"><ele>163.284</ele><time>2026-08-16T14:12:13.827Z</time><hdop>3.0</hdop><vdop>2.5</vdop><extensions><gom:speed>0.956</gom:speed></extensions></trkpt>
   <trkpt lat="59.2984978829" lon="34.6598807849"><ele>163.42</ele><time>2026-08-16T14:12:14.641Z</time><hdop>3.0</hdop><vdop>2.5</vdop><extensions><gom:speed>0.937</gom:speed></extensions></trkpt>
   <trkpt lat="59.2984946978" lon="34.6598778512"><ele>163.5</ele><time>2026-08-16T14:12:15.136Z</time><hdop>3.0</hdop><vdop>2.5</vdop><extensions><gom:speed>0.906</gom:speed></extensions></trkpt>
   <trkpt lat="59.2984880761" lon="34.6598685473"><ele>163.547</ele><time>2026-08-16T14:12:16.124Z</time><hdop>3.0</hdop><vdop>2.5</vdop><extensions><gom:speed>0.914</gom:speed></extensions></trkpt>
   <trkpt lat="59.2984846814" lon="34.6598604169"><ele>163.808</ele><time>2026-08-16T14:12:16.801Z</time><hdop>3.0</hdop><vdop>2.5</vdop><extensions><gom:speed>0.898</gom:speed></extensions></trkpt>
   <trkpt lat="59.2984802809" lon="34.6598392945"><ele>163.34</ele><time>2026-08-16T14:12:18.136Z</time><hdop>3.0</hdop><vdop>2.5</vdop><extensions><gom:speed>0.961</gom:speed></extensions></trkpt>
   <trkpt lat="59.2984803647" lon="34.6598236203"><ele>163.06</ele><time>2026-08-16T14:12:18.882Z</time><hdop>3.0</hdop><vdop>2.5</vdop><extensions><gom:speed>0.963</gom:speed></extensions></trkpt>
   <trkpt lat="59.2984759642" lon="34.6598176692"><ele>162.555</ele><time>2026-08-16T14:12:19.422Z</time><hdop>3.0</hdop><vdop>2.5</vdop><extensions><gom:speed>0.928</gom:speed></extensions></trkpt>
   <trkpt lat="59.2984711866" lon="34.6598204352"><ele>162.395</ele><time>2026-08-16T14:12:20.136Z</time><hdop>3.0</hdop><vdop>2.5</vdop><extensions><gom:speed>0.647</gom:speed></extensions></trkpt>
   <trkpt lat="59.2984703903" lon="34.6598347683"><ele>162.15</ele><time>2026-08-16T14:12:21.136Z</time><hdop>3.0</hdop><vdop>2.5</vdop><extensions><gom:speed>0.32</gom:speed></extensions></trkpt>
   <trkpt lat="59.2984716895" lon="34.6598475926"><ele>162.432</ele><time>2026-08-16T14:12:22.136Z</time><hdop>3.0</hdop><vdop>2.5</vdop><extensions><gom:speed>0.392</gom:speed></extensions></trkpt>
   <trkpt lat="59.2984697616" lon="34.6598532923"><ele>162.6</ele><time>2026-08-16T14:12:23.123Z</time><hdop>3.0</hdop><vdop>2.5</vdop><extensions><gom:speed>0.297</gom:speed></extensions></trkpt>
   <trkpt lat="59.2984638943" lon="34.65985807"><ele>163.488</ele><time>2026-08-16T14:12:24.136Z</time><hdop>3.0</hdop><vdop>2.5</vdop><extensions><gom:speed>0.537</gom:speed></extensions></trkpt>
   <trkpt lat="59.2984599967" lon="34.6598540466"><ele>164.018</ele><time>2026-08-16T14:12:24.939Z</time><hdop>3.0</hdop><vdop>2.5</vdop><extensions><gom:speed>0.547</gom:speed></extensions></trkpt>
   <trkpt lat="59.2984545904" lon="34.6598516997"><ele>164.586</ele><time>2026-08-16T14:12:25.744Z</time><hdop>3.0</hdop><vdop>2.812</vdop><extensions><gom:speed>0.772</gom:speed></extensions></trkpt>
   <trkpt lat="59.2984478849" lon="34.6598522864"><ele>165.084</ele><time>2026-08-16T14:12:26.461Z</time><hdop>3.0</hdop><vdop>2.75</vdop><extensions><gom:speed>0.849</gom:speed></extensions></trkpt>
   <trkpt lat="59.2984410955" lon="34.6598512806"><ele>165.362</ele><time>2026-08-16T14:12:27.136Z</time><hdop>3.0</hdop><vdop>2.625</vdop><extensions><gom:speed>0.901</gom:speed></extensions></trkpt>
   <trkpt lat="59.2984296961" lon="34.6598505262"><ele>165.355</ele><time>2026-08-16T14:12:28.136Z</time><hdop>3.0</hdop><vdop>2.562</vdop><extensions><gom:speed>0.893</gom:speed></extensions></trkpt>
   <trkpt lat="59.2984225715" lon="34.6598477602"><ele>165.351</ele><time>2026-08-16T14:12:28.846Z</time><hdop>3.0</hdop><vdop>2.562</vdop><extensions><gom:speed>0.892</gom:speed></extensions></trkpt>
   <trkpt lat="59.2984081966" lon="34.6598348521"><ele>165.367</ele><time>2026-08-16T14:12:30.136Z</time><hdop>3.0</hdop><vdop>2.562</vdop><extensions><gom:speed>0.905</gom:speed></extensions></trkpt>
   <trkpt lat="59.2983999823" lon="34.6598248776"><ele>165.377</ele><time>2026-08-16T14:12:31.044Z</time><hdop>3.0</hdop><vdop>2.562</vdop><extensions><gom:speed>0.925</gom:speed></extensions></trkpt>
   <trkpt lat="59.2983950789" lon="34.6598129753"><ele>165.089</ele><time>2026-08-16T14:12:31.604Z</time><hdop>3.0</hdop><vdop>2.5</vdop><extensions><gom:speed>0.942</gom:speed></extensions></trkpt>
   <trkpt lat="59.2983915585" lon="34.6598003186"><ele>165.025</ele><time>2026-08-16T14:12:32.136Z</time><hdop>3.0</hdop><vdop>2.5</vdop><extensions><gom:speed>0.962</gom:speed></extensions></trkpt>
   <trkpt lat="59.2983875771" lon="34.6597846445"><ele>164.986</ele><time>2026-08-16T14:12:32.900Z</time><hdop>3.0</hdop><vdop>2.5</vdop><extensions><gom:speed>0.965</gom:speed></extensions></trkpt>
   <trkpt lat="59.2983851882" lon="34.6597639412"><ele>164.95</ele><time>2026-08-16T14:12:33.645Z</time><hdop>3.0</hdop><vdop>2.5</vdop><extensions><gom:speed>1.032</gom:speed></extensions></trkpt>
   <trkpt lat="59.2983837633" lon="34.6597504463"><ele>164.677</ele><time>2026-08-16T14:12:34.136Z</time><hdop>3.0</hdop><vdop>2.625</vdop><extensions><gom:speed>1.048</gom:speed></extensions></trkpt>
   <trkpt lat="59.2983804944" lon="34.6597310841"><ele>164.515</ele><time>2026-08-16T14:12:35.020Z</time><hdop>3.0</hdop><vdop>2.625</vdop><extensions><gom:speed>1.046</gom:speed></extensions></trkpt>
   <trkpt lat="59.2983761777" lon="34.659716332"><ele>164.496</ele><time>2026-08-16T14:12:35.579Z</time><hdop>3.0</hdop><vdop>2.5</vdop><extensions><gom:speed>1.073</gom:speed></extensions></trkpt>
   <trkpt lat="59.2983715676" lon="34.6597055193"><ele>164.255</ele><time>2026-08-16T14:12:36.136Z</time><hdop>3.0</hdop><vdop>2.625</vdop><extensions><gom:speed>1.059</gom:speed></extensions></trkpt>
   <trkpt lat="59.2983658679" lon="34.6596967183"><ele>164.111</ele><time>2026-08-16T14:12:36.747Z</time><hdop>3.0</hdop><vdop>2.625</vdop><extensions><gom:speed>1.063</gom:speed></extensions></trkpt>
   <trkpt lat="59.2983589948" lon="34.6596860733"><ele>163.861</ele><time>2026-08-16T14:12:37.444Z</time><hdop>3.0</hdop><vdop>2.687</vdop><extensions><gom:speed>1.045</gom:speed></extensions></trkpt>
   <trkpt lat="59.2983546781" lon="34.6596796192"><ele>163.711</ele><time>2026-08-16T14:12:37.964Z</time><hdop>3.0</hdop><vdop>2.687</vdop><extensions><gom:speed>0.996</gom:speed></extensions></trkpt>
   <trkpt lat="59.2983470925" lon="34.6596702315"><ele>163.493</ele><time>2026-08-16T14:12:38.759Z</time><hdop>3.0</hdop><vdop>2.75</vdop><extensions><gom:speed>0.99</gom:speed></extensions></trkpt>
   <trkpt lat="59.2983406803" lon="34.6596605923"><ele>163.493</ele><time>2026-08-16T14:12:39.446Z</time><hdop>3.0</hdop><vdop>2.625</vdop><extensions><gom:speed>0.979</gom:speed></extensions></trkpt>
   <trkpt lat="59.2983364894" lon="34.659651456"><ele>163.494</ele><time>2026-08-16T14:12:40.084Z</time><hdop>3.0</hdop><vdop>2.625</vdop><extensions><gom:speed>0.949</gom:speed></extensions></trkpt>
   <trkpt lat="59.2983335976" lon="34.6596421521"><ele>163.655</ele><time>2026-08-16T14:12:40.605Z</time><hdop>3.0</hdop><vdop>2.562</vdop><extensions><gom:speed>0.948</gom:speed></extensions></trkpt>
   <trkpt lat="59.2983312926" lon="34.6596326806"><ele>164.026</ele><time>2026-08-16T14:12:41.136Z</time><hdop>3.0</hdop><vdop>2.562</vdop><extensions><gom:speed>0.908</gom:speed></extensions></trkpt>
   <trkpt lat="59.2983292809" lon="34.6596194372"><ele>164.247</ele><time>2026-08-16T14:12:41.881Z</time><hdop>3.0</hdop><vdop>2.562</vdop><extensions><gom:speed>0.903</gom:speed></extensions></trkpt>
   <trkpt lat="59.2983229945" lon="34.659602841"><ele>164.522</ele><time>2026-08-16T14:12:42.980Z</time><hdop>3.0</hdop><vdop>2.562</vdop><extensions><gom:speed>0.895</gom:speed></extensions></trkpt>
   <trkpt lat="59.2983154927" lon="34.6595997397"><ele>164.873</ele><time>2026-08-16T14:12:43.460Z</time><hdop>3.0</hdop><vdop>2.5</vdop><extensions><gom:speed>0.999</gom:speed></extensions></trkpt>
   <trkpt lat="59.2983049734" lon="34.6595971413"><ele>164.947</ele><time>2026-08-16T14:12:44.136Z</time><hdop>3.0</hdop><vdop>2.5</vdop><extensions><gom:speed>1.18</gom:speed></extensions></trkpt>
   <trkpt lat="59.2982934902" lon="34.6595956326"><ele>164.991</ele><time>2026-08-16T14:12:44.923Z</time><hdop>3.0</hdop><vdop>2.5</vdop><extensions><gom:speed>1.177</gom:speed></extensions></trkpt>
   <trkpt lat="59.2982836834" lon="34.6595960517"><ele>165.432</ele><time>2026-08-16T14:12:45.463Z</time><hdop>3.0</hdop><vdop>2.5</vdop><extensions><gom:speed>1.243</gom:speed></extensions></trkpt>
   <trkpt lat="59.2982738766" lon="34.6595981471"><ele>165.929</ele><time>2026-08-16T14:12:46.136Z</time><hdop>3.0</hdop><vdop>2.5</vdop><extensions><gom:speed>1.231</gom:speed></extensions></trkpt>
   <trkpt lat="59.2982624772" lon="34.6596010808"><ele>166.227</ele><time>2026-08-16T14:12:47.024Z</time><hdop>3.0</hdop><vdop>2.5</vdop><extensions><gom:speed>1.136</gom:speed></extensions></trkpt>
   <trkpt lat="59.2982530894" lon="34.6596020866"><ele>166.434</ele><time>2026-08-16T14:12:47.623Z</time><hdop>3.0</hdop><vdop>2.5</vdop><extensions><gom:speed>1.214</gom:speed></extensions></trkpt>
   <trkpt lat="59.2982462582" lon="34.6596013323"><ele>167.108</ele><time>2026-08-16T14:12:48.136Z</time><hdop>3.0</hdop><vdop>2.5</vdop><extensions><gom:speed>1.189</gom:speed></extensions></trkpt>
   <trkpt lat="59.2982366609" lon="34.6595988177"><ele>167.511</ele><time>2026-08-16T14:12:48.908Z</time><hdop>3.0</hdop><vdop>2.5</vdop><extensions><gom:speed>1.192</gom:speed></extensions></trkpt>
   <trkpt lat="59.2982255968" lon="34.6595983986"><ele>167.639</ele><time>2026-08-16T14:12:49.988Z</time><hdop>3.0</hdop><vdop>2.5</vdop><extensions><gom:speed>1.024</gom:speed></extensions></trkpt>
   <trkpt lat="59.298217173" lon="34.6595886756"><ele>167.882</ele><time>2026-08-16T14:12:50.763Z</time><hdop>3.0</hdop><vdop>2.5</vdop><extensions><gom:speed>1.107</gom:speed></extensions></trkpt>
   <trkpt lat="59.2982123953" lon="34.6595784497"><ele>167.842</ele><time>2026-08-16T14:12:51.264Z</time><hdop>3.0</hdop><vdop>2.5</vdop><extensions><gom:speed>1.128</gom:speed></extensions></trkpt>
   <trkpt lat="59.298206989" lon="34.659564871"><ele>167.819</ele><time>2026-08-16T14:12:52.020Z</time><hdop>3.0</hdop><vdop>2.5</vdop><extensions><gom:speed>1.099</gom:speed></extensions></trkpt>
   <trkpt lat="59.2982042649" lon="34.6595479395"><ele>167.558</ele><time>2026-08-16T14:12:52.687Z</time><hdop>3.0</hdop><vdop>2.5</vdop><extensions><gom:speed>1.119</gom:speed></extensions></trkpt>
   <trkpt lat="59.2981986909" lon="34.6595241349"><ele>167.37</ele><time>2026-08-16T14:12:53.787Z</time><hdop>3.0</hdop><vdop>2.5</vdop><extensions><gom:speed>1.09</gom:speed></extensions></trkpt>
   <trkpt lat="59.2981984813" lon="34.6595044375"><ele>166.983</ele><time>2026-08-16T14:12:54.680Z</time><hdop>3.0</hdop><vdop>2.5</vdop><extensions><gom:speed>1.026</gom:speed></extensions></trkpt>
   <trkpt lat="59.2981994872" lon="34.6594950497"><ele>166.536</ele><time>2026-08-16T14:12:55.136Z</time><hdop>3.0</hdop><vdop>2.5</vdop><extensions><gom:speed>0.968</gom:speed></extensions></trkpt>
   <trkpt lat="59.2981988585" lon="34.6594776992"><ele>165.836</ele><time>2026-08-16T14:12:56.135Z</time><hdop>3.0</hdop><vdop>2.5</vdop><extensions><gom:speed>0.95</gom:speed></extensions></trkpt>
   <trkpt lat="59.2981976851" lon="34.6594636176"><ele>165.418</ele><time>2026-08-16T14:12:56.907Z</time><hdop>3.0</hdop><vdop>2.5</vdop><extensions><gom:speed>0.938</gom:speed></extensions></trkpt>
   <trkpt lat="59.2982016665" lon="34.65944677"><ele>165.153</ele><time>2026-08-16T14:12:57.703Z</time><hdop>3.0</hdop><vdop>2.5</vdop><extensions><gom:speed>0.95</gom:speed></extensions></trkpt>
   <trkpt lat="59.2982049773" lon="34.6594357897"><ele>164.685</ele><time>2026-08-16T14:12:58.164Z</time><hdop>3.0</hdop><vdop>2.5</vdop><extensions><gom:speed>0.977</gom:speed></extensions></trkpt>
   <trkpt lat="59.2982077853" lon="34.6594198641"><ele>164.406</ele><time>2026-08-16T14:12:59.028Z</time><hdop>3.0</hdop><vdop>2.5</vdop><extensions><gom:speed>0.978</gom:speed></extensions></trkpt>
   <trkpt lat="59.2982098807" lon="34.6593941316"><ele>163.824</ele><time>2026-08-16T14:13:00.136Z</time><hdop>3.0</hdop><vdop>2.5</vdop><extensions><gom:speed>0.961</gom:speed></extensions></trkpt>
   <trkpt lat="59.2982099645" lon="34.6593789604"><ele>163.476</ele><time>2026-08-16T14:13:00.883Z</time><hdop>3.0</hdop><vdop>2.5</vdop><extensions><gom:speed>0.963</gom:speed></extensions></trkpt>
   <trkpt lat="59.2982068632" lon="34.6593597658"><ele>163.191</ele><time>2026-08-16T14:13:01.806Z</time><hdop>3.0</hdop><vdop>2.5</vdop><extensions><gom:speed>1.054</gom:speed></extensions></trkpt>
   <trkpt lat="59.2982009959" lon="34.6593516354"><ele>162.931</ele><time>2026-08-16T14:13:02.463Z</time><hdop>3.0</hdop><vdop>2.5</vdop><extensions><gom:speed>1.007</gom:speed></extensions></trkpt>
   <trkpt lat="59.2981963859" lon="34.6593427505"><ele>162.776</ele><time>2026-08-16T14:13:03.082Z</time><hdop>3.0</hdop><vdop>2.5</vdop><extensions><gom:speed>1.013</gom:speed></extensions></trkpt>
   <trkpt lat="59.298191692" lon="34.6593344525"><ele>162.411</ele><time>2026-08-16T14:13:03.720Z</time><hdop>3.0</hdop><vdop>2.5</vdop><extensions><gom:speed>1.0</gom:speed></extensions></trkpt>
   <trkpt lat="59.2981888841" lon="34.6593227178"><ele>162.248</ele><time>2026-08-16T14:13:04.485Z</time><hdop>3.0</hdop><vdop>2.5</vdop><extensions><gom:speed>0.992</gom:speed></extensions></trkpt>
   <trkpt lat="59.2981875849" lon="34.6593135815"><ele>162.15</ele><time>2026-08-16T14:13:04.986Z</time><hdop>3.0</hdop><vdop>2.5</vdop><extensions><gom:speed>0.99</gom:speed></extensions></trkpt>
   <trkpt lat="59.2981845674" lon="34.6593037747"><ele>162.297</ele><time>2026-08-16T14:13:05.663Z</time><hdop>3.0</hdop><vdop>2.5</vdop><extensions><gom:speed>0.992</gom:speed></extensions></trkpt>
   <trkpt lat="59.298181969" lon="34.6592985779"><ele>162.357</ele><time>2026-08-16T14:13:06.136Z</time><hdop>3.0</hdop><vdop>2.5</vdop><extensions><gom:speed>0.984</gom:speed></extensions></trkpt>
   <trkpt lat="59.2981778619" lon="34.6592825685"><ele>162.394</ele><time>2026-08-16T14:13:07.126Z</time><hdop>3.0</hdop><vdop>2.5</vdop><extensions><gom:speed>0.992</gom:speed></extensions></trkpt>
   <trkpt lat="59.2981711982" lon="34.6592740189"><ele>162.453</ele><time>2026-08-16T14:13:07.921Z</time><hdop>3.0</hdop><vdop>2.5</vdop><extensions><gom:speed>0.99</gom:speed></extensions></trkpt>
   <trkpt lat="59.2981641994" lon="34.6592687383"><ele>162.566</ele><time>2026-08-16T14:13:08.608Z</time><hdop>3.0</hdop><vdop>2.5</vdop><extensions><gom:speed>0.967</gom:speed></extensions></trkpt>
   <trkpt lat="59.2981588769" lon="34.6592644636"><ele>162.9</ele><time>2026-08-16T14:13:09.136Z</time><hdop>3.0</hdop><vdop>2.5</vdop><extensions><gom:speed>0.953</gom:speed></extensions></trkpt>
   <trkpt lat="59.2981528838" lon="34.6592546567"><ele>163.099</ele><time>2026-08-16T14:13:09.962Z</time><hdop>3.0</hdop><vdop>2.5</vdop><extensions><gom:speed>0.908</gom:speed></extensions></trkpt>
   <trkpt lat="59.2981479804" lon="34.6592501305"><ele>163.541</ele><time>2026-08-16T14:13:10.561Z</time><hdop>3.0</hdop><vdop>2.562</vdop><extensions><gom:speed>0.909</gom:speed></extensions></trkpt>
   <trkpt lat="59.2981449629" lon="34.6592432574"><ele>163.69</ele><time>2026-08-16T14:13:11.136Z</time><hdop>3.0</hdop><vdop>2.562</vdop><extensions><gom:speed>0.908</gom:speed></extensions></trkpt>
   <trkpt lat="59.2981460944" lon="34.6592336182"><ele>163.779</ele><time>2026-08-16T14:13:11.719Z</time><hdop>3.0</hdop><vdop>2.562</vdop><extensions><gom:speed>0.912</gom:speed></extensions></trkpt>
   <trkpt lat="59.298149992" lon="34.6592293434"><ele>163.838</ele><time>2026-08-16T14:13:12.524Z</time><hdop>3.0</hdop><vdop>2.5</vdop><extensions><gom:speed>0.776</gom:speed></extensions></trkpt>
   <trkpt lat="59.298153261" lon="34.6592243981"><ele>163.873</ele><time>2026-08-16T14:13:13.084Z</time><hdop>3.0</hdop><vdop>2.5</vdop><extensions><gom:speed>0.796</gom:speed></extensions></trkpt>
   <trkpt lat="59.2981525904" lon="34.6592097297"><ele>163.948</ele><time>2026-08-16T14:13:14.046Z</time><hdop>3.0</hdop><vdop>2.5</vdop><extensions><gom:speed>0.843</gom:speed></extensions></trkpt>
   <trkpt lat="59.2981469745" lon="34.6592018508"><ele>164.077</ele><time>2026-08-16T14:13:14.801Z</time><hdop>3.0</hdop><vdop>2.5</vdop><extensions><gom:speed>0.749</gom:speed></extensions></trkpt>
   <trkpt lat="59.298142574" lon="34.6591938879"><ele>164.356</ele><time>2026-08-16T14:13:15.586Z</time><hdop>3.0</hdop><vdop>2.562</vdop><extensions><gom:speed>0.721</gom:speed></extensions></trkpt>
   <trkpt lat="59.2981393889" lon="34.6591877692"><ele>164.866</ele><time>2026-08-16T14:13:16.135Z</time><hdop>3.0</hdop><vdop>2.5</vdop><extensions><gom:speed>0.779</gom:speed></extensions></trkpt>
   <trkpt lat="59.2981337731" lon="34.659175783"><ele>165.177</ele><time>2026-08-16T14:13:17.136Z</time><hdop>3.0</hdop><vdop>2.5</vdop><extensions><gom:speed>0.823</gom:speed></extensions></trkpt>
   <trkpt lat="59.2981313842" lon="34.6591695804"><ele>165.363</ele><time>2026-08-16T14:13:17.599Z</time><hdop>3.0</hdop><vdop>2.5</vdop><extensions><gom:speed>0.807</gom:speed></extensions></trkpt>
   <trkpt lat="59.2981302946" lon="34.659165138"><ele>165.609</ele><time>2026-08-16T14:13:18.136Z</time><hdop>3.0</hdop><vdop>2.5</vdop><extensions><gom:speed>0.724</gom:speed></extensions></trkpt>
   <trkpt lat="59.298130085" lon="34.659153571"><ele>165.797</ele><time>2026-08-16T14:13:19.136Z</time><hdop>3.0</hdop><vdop>2.5</vdop><extensions><gom:speed>0.787</gom:speed></extensions></trkpt>
   <trkpt lat="59.2981304622" lon="34.6591392379"><ele>165.909</ele><time>2026-08-16T14:13:20.062Z</time><hdop>3.0</hdop><vdop>2.5</vdop><extensions><gom:speed>0.799</gom:speed></extensions></trkpt>
   <trkpt lat="59.2981248882" lon="34.6591248211"><ele>166.715</ele><time>2026-08-16T14:13:20.925Z</time><hdop>3.0</hdop><vdop>2.5</vdop><extensions><gom:speed>0.956</gom:speed></extensions></trkpt>
   <trkpt lat="59.2981173864" lon="34.6591194566"><ele>167.335</ele><time>2026-08-16T14:13:21.544Z</time><hdop>3.0</hdop><vdop>2.5</vdop><extensions><gom:speed>0.975</gom:speed></extensions></trkpt>
   <trkpt lat="59.2981126926" lon="34.6591127511"><ele>167.706</ele><time>2026-08-16T14:13:22.124Z</time><hdop>3.0</hdop><vdop>2.5</vdop><extensions><gom:speed>0.966</gom:speed></extensions></trkpt>
   <trkpt lat="59.298107873" lon="34.6590960711"><ele>168.144</ele><time>2026-08-16T14:13:22.987Z</time><hdop>3.0</hdop><vdop>2.5</vdop><extensions><gom:speed>1.02</gom:speed></extensions></trkpt>
   <trkpt lat="59.2981057775" lon="34.6590869349"><ele>168.086</ele><time>2026-08-16T14:13:23.467Z</time><hdop>3.0</hdop><vdop>2.5</vdop><extensions><gom:speed>0.976</gom:speed></extensions></trkpt>
   <trkpt lat="59.2981042688" lon="34.659075284"><ele>167.879</ele><time>2026-08-16T14:13:24.136Z</time><hdop>3.0</hdop><vdop>2.5</vdop><extensions><gom:speed>0.902</gom:speed></extensions></trkpt>
   <trkpt lat="59.2981031791" lon="34.6590585202"><ele>167.888</ele><time>2026-08-16T14:13:25.136Z</time><hdop>3.0</hdop><vdop>2.5</vdop><extensions><gom:speed>0.938</gom:speed></extensions></trkpt>
   <trkpt lat="59.2981028857" lon="34.6590455283"><ele>167.894</ele><time>2026-08-16T14:13:25.844Z</time><hdop>3.0</hdop><vdop>2.5</vdop><extensions><gom:speed>0.939</gom:speed></extensions></trkpt>
   <trkpt lat="59.2981033887" lon="34.6590343803"><ele>167.971</ele><time>2026-08-16T14:13:26.364Z</time><hdop>3.0</hdop><vdop>2.5</vdop><extensions><gom:speed>0.999</gom:speed></extensions></trkpt>
   <trkpt lat="59.2981053584" lon="34.6590204664"><ele>167.93</ele><time>2026-08-16T14:13:27.136Z</time><hdop>3.0</hdop><vdop>2.5</vdop><extensions><gom:speed>1.013</gom:speed></extensions></trkpt>
   <trkpt lat="59.2981057775" lon="34.6590042893"><ele>167.905</ele><time>2026-08-16T14:13:28.003Z</time><hdop>3.0</hdop><vdop>2.5</vdop><extensions><gom:speed>0.978</gom:speed></extensions></trkpt>
   <trkpt lat="59.2981055679" lon="34.6589917164"><ele>167.597</ele><time>2026-08-16T14:13:28.700Z</time><hdop>3.0</hdop><vdop>2.5</vdop><extensions><gom:speed>1.035</gom:speed></extensions></trkpt>
   <trkpt lat="59.2981039754" lon="34.6589819934"><ele>167.609</ele><time>2026-08-16T14:13:29.240Z</time><hdop>3.0</hdop><vdop>2.5</vdop><extensions><gom:speed>1.071</gom:speed></extensions></trkpt>
   <trkpt lat="59.2980994911" lon="34.6589670736"><ele>167.616</ele><time>2026-08-16T14:13:30.084Z</time><hdop>3.0</hdop><vdop>2.5</vdop><extensions><gom:speed>1.064</gom:speed></extensions></trkpt>
   <trkpt lat="59.2980972699" lon="34.6589602843"><ele>167.59</ele><time>2026-08-16T14:13:30.545Z</time><hdop>3.0</hdop><vdop>2.5</vdop><extensions><gom:speed>1.056</gom:speed></extensions></trkpt>
   <trkpt lat="59.2980950906" lon="34.6589519862"><ele>167.412</ele><time>2026-08-16T14:13:31.136Z</time><hdop>3.0</hdop><vdop>2.5</vdop><extensions><gom:speed>0.988</gom:speed></extensions></trkpt>
   <trkpt lat="59.2980905643" lon="34.6589385752"><ele>167.306</ele><time>2026-08-16T14:13:32.066Z</time><hdop>3.0</hdop><vdop>2.5</vdop><extensions><gom:speed>0.943</gom:speed></extensions></trkpt>
   <trkpt lat="59.2980855771" lon="34.6589336299"><ele>167.023</ele><time>2026-08-16T14:13:32.862Z</time><hdop>3.0</hdop><vdop>2.5</vdop><extensions><gom:speed>0.89</gom:speed></extensions></trkpt>
   <trkpt lat="59.2980794583" lon="34.6589314506"><ele>166.988</ele><time>2026-08-16T14:13:33.441Z</time><hdop>3.0</hdop><vdop>2.5</vdop><extensions><gom:speed>1.017</gom:speed></extensions></trkpt>
   <trkpt lat="59.2980743873" lon="34.658925667"><ele>166.663</ele><time>2026-08-16T14:13:34.136Z</time><hdop>3.0</hdop><vdop>2.5</vdop><extensions><gom:speed>0.966</gom:speed></extensions></trkpt>
   <trkpt lat="59.2980696934" lon="34.6589174528"><ele>166.469</ele><time>2026-08-16T14:13:34.825Z</time><hdop>3.0</hdop><vdop>2.5</vdop><extensions><gom:speed>0.971</gom:speed></extensions></trkpt>
   <trkpt lat="59.2980616887" lon="34.6589110825"><ele>166.266</ele><time>2026-08-16T14:13:35.561Z</time><hdop>3.0</hdop><vdop>2.5</vdop><extensions><gom:speed>1.085</gom:speed></extensions></trkpt>
   <trkpt lat="59.2980567853" lon="34.6589072269"><ele>166.144</ele><time>2026-08-16T14:13:36.022Z</time><hdop>3.0</hdop><vdop>2.5</vdop><extensions><gom:speed>1.056</gom:speed></extensions></trkpt>
   <trkpt lat="59.298048571" lon="34.658908065"><ele>165.93</ele><time>2026-08-16T14:13:37.136Z</time><hdop>3.0</hdop><vdop>2.5</vdop><extensions><gom:speed>0.947</gom:speed></extensions></trkpt>
   <trkpt lat="59.29803977" lon="34.6589069754"><ele>165.802</ele><time>2026-08-16T14:13:38.123Z</time><hdop>3.0</hdop><vdop>2.5</vdop><extensions><gom:speed>0.941</gom:speed></extensions></trkpt>
   <trkpt lat="59.2980340703" lon="34.658906221"><ele>165.68</ele><time>2026-08-16T14:13:38.780Z</time><hdop>3.0</hdop><vdop>2.5</vdop><extensions><gom:speed>0.933</gom:speed></extensions></trkpt>
   <trkpt lat="59.2980293764" lon="34.6589048799"><ele>165.856</ele><time>2026-08-16T14:13:39.467Z</time><hdop>3.0</hdop><vdop>2.5</vdop><extensions><gom:speed>0.899</gom:speed></extensions></trkpt>
   <trkpt lat="59.298024473" lon="34.6589011919"><ele>165.961</ele><time>2026-08-16T14:13:40.086Z</time><hdop>3.0</hdop><vdop>2.5</vdop><extensions><gom:speed>0.925</gom:speed></extensions></trkpt>
   <trkpt lat="59.2980202821" lon="34.6588949893"><ele>165.9</ele><time>2026-08-16T14:13:40.704Z</time><hdop>3.0</hdop><vdop>2.5</vdop><extensions><gom:speed>0.92</gom:speed></extensions></trkpt>
   <trkpt lat="59.2980153787" lon="34.6588881999"><ele>165.861</ele><time>2026-08-16T14:13:41.401Z</time><hdop>3.0</hdop><vdop>2.5</vdop><extensions><gom:speed>0.925</gom:speed></extensions></trkpt>
   <trkpt lat="59.2980097628" lon="34.6588860206"><ele>165.51</ele><time>2026-08-16T14:13:42.136Z</time><hdop>3.0</hdop><vdop>2.5</vdop><extensions><gom:speed>0.911</gom:speed></extensions></trkpt>
   <trkpt lat="59.298002261" lon="34.6588969171"><ele>165.524</ele><time>2026-08-16T14:13:43.136Z</time><hdop>3.0</hdop><vdop>2.5</vdop><extensions><gom:speed>0.901</gom:speed></extensions></trkpt>
   <trkpt lat="59.2979984891" lon="34.6589042932"><ele>165.532</ele><time>2026-08-16T14:13:43.707Z</time><hdop>3.0</hdop><vdop>2.5</vdop><extensions><gom:speed>0.891</gom:speed></extensions></trkpt>
   <trkpt lat="59.2979960584" lon="34.6589066401"><ele>165.628</ele><time>2026-08-16T14:13:44.188Z</time><hdop>3.0</hdop><vdop>2.5</vdop><extensions><gom:speed>0.876</gom:speed></extensions></trkpt>
   <trkpt lat="59.2979903587" lon="34.6589045446"><ele>165.686</ele><time>2026-08-16T14:13:44.885Z</time><hdop>3.0</hdop><vdop>2.5</vdop><extensions><gom:speed>0.871</gom:speed></extensions></trkpt>
   <trkpt lat="59.2979858744" lon="34.6588981744"><ele>166.003</ele><time>2026-08-16T14:13:45.620Z</time><hdop>3.0</hdop><vdop>2.5</vdop><extensions><gom:speed>0.878</gom:speed></extensions></trkpt>
   <trkpt lat="59.2979835693" lon="34.6588914689"><ele>166.274</ele><time>2026-08-16T14:13:46.136Z</time><hdop>3.0</hdop><vdop>2.5</vdop><extensions><gom:speed>0.873</gom:speed></extensions></trkpt>
   <trkpt lat="59.297978163" lon="34.6588806562"><ele>166.437</ele><time>2026-08-16T14:13:47.045Z</time><hdop>3.0</hdop><vdop>2.5</vdop><extensions><gom:speed>0.87</gom:speed></extensions></trkpt>
   <trkpt lat="59.2979701583" lon="34.6588730287"><ele>166.514</ele><time>2026-08-16T14:13:47.986Z</time><hdop>3.0</hdop><vdop>2.5</vdop><extensions><gom:speed>0.899</gom:speed></extensions></trkpt>
   <trkpt lat="59.2979644586" lon="34.6588683348"><ele>166.677</ele><time>2026-08-16T14:13:48.605Z</time><hdop>3.0</hdop><vdop>2.5</vdop><extensions><gom:speed>0.925</gom:speed></extensions></trkpt>
   <trkpt lat="59.2979607706" lon="34.658862719"><ele>166.843</ele><time>2026-08-16T14:13:49.136Z</time><hdop>3.0</hdop><vdop>2.5</vdop><extensions><gom:speed>0.904</gom:speed></extensions></trkpt>
   <trkpt lat="59.297954568" lon="34.6588534989"><ele>166.942</ele><time>2026-08-16T14:13:49.978Z</time><hdop>3.0</hdop><vdop>2.5</vdop><extensions><gom:speed>0.944</gom:speed></extensions></trkpt>
   <trkpt lat="59.2979496645" lon="34.6588417642"><ele>167.075</ele><time>2026-08-16T14:13:50.686Z</time><hdop>3.0</hdop><vdop>2.5</vdop><extensions><gom:speed>0.951</gom:speed></extensions></trkpt>
   <trkpt lat="59.297946689" lon="34.6588341367"><ele>167.092</ele><time>2026-08-16T14:13:51.136Z</time><hdop>3.0</hdop><vdop>2.5</vdop><extensions><gom:speed>0.959</gom:speed></extensions></trkpt>
   <trkpt lat="59.2979398996" lon="34.6588221505"><ele>167.103</ele><time>2026-08-16T14:13:52.021Z</time><hdop>3.0</hdop><vdop>2.5</vdop><extensions><gom:speed>0.985</gom:speed></extensions></trkpt>
   <trkpt lat="59.2979357925" lon="34.6588136848"><ele>167.024</ele><time>2026-08-16T14:13:52.679Z</time><hdop>3.0</hdop><vdop>2.5</vdop><extensions><gom:speed>0.989</gom:speed></extensions></trkpt>
   <trkpt lat="59.2979324816" lon="34.658808991"><ele>166.754</ele><time>2026-08-16T14:13:53.136Z</time><hdop>3.0</hdop><vdop>2.5</vdop><extensions><gom:speed>1.0</gom:speed></extensions></trkpt>
   <trkpt lat="59.2979243931" lon="34.658802034"><ele>166.592</ele><time>2026-08-16T14:13:54.082Z</time><hdop>3.0</hdop><vdop>2.5</vdop><extensions><gom:speed>0.982</gom:speed></extensions></trkpt>
   <trkpt lat="59.2979211661" lon="34.6587968372"><ele>166.546</ele><time>2026-08-16T14:13:54.642Z</time><hdop>3.0</hdop><vdop>2.5</vdop><extensions><gom:speed>0.96</gom:speed></extensions></trkpt>
   <trkpt lat="59.2979183581" lon="34.658791389"><ele>166.268</ele><time>2026-08-16T14:13:55.136Z</time><hdop>3.0</hdop><vdop>2.5</vdop><extensions><gom:speed>0.972</gom:speed></extensions></trkpt>
   <trkpt lat="59.2979129937" lon="34.6587775588"><ele>166.104</ele><time>2026-08-16T14:13:56.136Z</time><hdop>3.0</hdop><vdop>2.5</vdop><extensions><gom:speed>0.987</gom:speed></extensions></trkpt>
   <trkpt lat="59.2979101858" lon="34.6587694284"><ele>166.006</ele><time>2026-08-16T14:13:56.643Z</time><hdop>3.0</hdop><vdop>2.5</vdop><extensions><gom:speed>0.987</gom:speed></extensions></trkpt>
   <trkpt lat="59.2979069588" lon="34.6587629743"><ele>165.905</ele><time>2026-08-16T14:13:57.136Z</time><hdop>3.0</hdop><vdop>2.5</vdop><extensions><gom:speed>0.972</gom:speed></extensions></trkpt>
   <trkpt lat="59.2979015943" lon="34.658755263"><ele>165.846</ele><time>2026-08-16T14:13:57.842Z</time><hdop>3.0</hdop><vdop>2.5</vdop><extensions><gom:speed>0.98</gom:speed></extensions></trkpt>
   <trkpt lat="59.2978954755" lon="34.6587437797"><ele>165.975</ele><time>2026-08-16T14:13:58.686Z</time><hdop>3.0</hdop><vdop>2.5</vdop><extensions><gom:speed>1.002</gom:speed></extensions></trkpt>
   <trkpt lat="59.2978931705" lon="34.6587358169"><ele>165.528</ele><time>2026-08-16T14:13:59.136Z</time><hdop>3.0</hdop><vdop>2.562</vdop><extensions><gom:speed>1.006</gom:speed></extensions></trkpt>
   <trkpt lat="59.2978901949" lon="34.6587226573"><ele>165.261</ele><time>2026-08-16T14:13:59.844Z</time><hdop>3.0</hdop><vdop>2.562</vdop><extensions><gom:speed>1.004</gom:speed></extensions></trkpt>
   <trkpt lat="59.2978855849" lon="34.6587085758"><ele>165.062</ele><time>2026-08-16T14:14:00.688Z</time><hdop>3.0</hdop><vdop>2.687</vdop><extensions><gom:speed>0.997</gom:speed></extensions></trkpt>
   <trkpt lat="59.2978789632" lon="34.6587004453"><ele>165.102</ele><time>2026-08-16T14:14:01.503Z</time><hdop>3.0</hdop><vdop>2.687</vdop><extensions><gom:speed>1.002</gom:speed></extensions></trkpt>
   <trkpt lat="59.2978740598" lon="34.6586966734"><ele>165.126</ele><time>2026-08-16T14:14:02.023Z</time><hdop>3.0</hdop><vdop>2.687</vdop><extensions><gom:speed>1.023</gom:speed></extensions></trkpt>
   <trkpt lat="59.2978647978" lon="34.6586946618"><ele>165.221</ele><time>2026-08-16T14:14:03.024Z</time><hdop>3.0</hdop><vdop>2.5</vdop><extensions><gom:speed>1.012</gom:speed></extensions></trkpt>
   <trkpt lat="59.2978585952" lon="34.6586984336"><ele>165.41</ele><time>2026-08-16T14:14:04.136Z</time><hdop>3.0</hdop><vdop>2.5</vdop><extensions><gom:speed>0.949</gom:speed></extensions></trkpt>
   <trkpt lat="59.2978536918" lon="34.6586949971"><ele>165.524</ele><time>2026-08-16T14:14:04.820Z</time><hdop>3.0</hdop><vdop>2.5</vdop><extensions><gom:speed>0.953</gom:speed></extensions></trkpt>
   <trkpt lat="59.2978471958" lon="34.6586810831"><ele>165.9</ele><time>2026-08-16T14:14:05.939Z</time><hdop>3.0</hdop><vdop>2.5</vdop><extensions><gom:speed>1.017</gom:speed></extensions></trkpt>
   <trkpt lat="59.2978470701" lon="34.6586647384"><ele>165.622</ele><time>2026-08-16T14:14:06.823Z</time><hdop>3.0</hdop><vdop>2.5</vdop><extensions><gom:speed>1.024</gom:speed></extensions></trkpt>
   <trkpt lat="59.2978496684" lon="34.6586550992"><ele>165.2</ele><time>2026-08-16T14:14:07.304Z</time><hdop>3.0</hdop><vdop>2.5</vdop><extensions><gom:speed>1.038</gom:speed></extensions></trkpt>
   <trkpt lat="59.2978510934" lon="34.6586384192"><ele>165.138</ele><time>2026-08-16T14:14:08.136Z</time><hdop>3.0</hdop><vdop>2.5</vdop><extensions><gom:speed>1.048</gom:speed></extensions></trkpt>
   <trkpt lat="59.2978505905" lon="34.6586275227"><ele>165.101</ele><time>2026-08-16T14:14:08.667Z</time><hdop>3.0</hdop><vdop>2.5</vdop><extensions><gom:speed>1.045</gom:speed></extensions></trkpt>
   <trkpt lat="59.2978505905" lon="34.6586194761"><ele>165.554</ele><time>2026-08-16T14:14:09.136Z</time><hdop>3.0</hdop><vdop>2.5</vdop><extensions><gom:speed>1.024</gom:speed></extensions></trkpt>
   <trkpt lat="59.2978473634" lon="34.6586017903"><ele>165.639</ele><time>2026-08-16T14:14:10.136Z</time><hdop>3.0</hdop><vdop>2.5</vdop><extensions><gom:speed>1.061</gom:speed></extensions></trkpt>
   <trkpt lat="59.2978445974" lon="34.658581087"><ele>165.69</ele><time>2026-08-16T14:14:11.141Z</time><hdop>3.0</hdop><vdop>2.5</vdop><extensions><gom:speed>1.057</gom:speed></extensions></trkpt>
   <trkpt lat="59.297844765" lon="34.6585682627"><ele>165.213</ele><time>2026-08-16T14:14:11.662Z</time><hdop>3.0</hdop><vdop>2.5</vdop><extensions><gom:speed>1.132</gom:speed></extensions></trkpt>
   <trkpt lat="59.2978443878" lon="34.6585568633"><ele>165.089</ele><time>2026-08-16T14:14:12.136Z</time><hdop>3.0</hdop><vdop>2.5</vdop><extensions><gom:speed>1.15</gom:speed></extensions></trkpt>
   <trkpt lat="59.2978428791" lon="34.6585452963"><ele>165.014</ele><time>2026-08-16T14:14:12.642Z</time><hdop>3.0</hdop><vdop>2.5</vdop><extensions><gom:speed>1.161</gom:speed></extensions></trkpt>
   <trkpt lat="59.2978403645" lon="34.6585354895"><ele>164.97</ele><time>2026-08-16T14:14:13.144Z</time><hdop>3.0</hdop><vdop>2.5</vdop><extensions><gom:speed>1.113</gom:speed></extensions></trkpt>
   <trkpt lat="59.2978365927" lon="34.6585197315"><ele>164.875</ele><time>2026-08-16T14:14:14.106Z</time><hdop>3.0</hdop><vdop>2.5</vdop><extensions><gom:speed>1.028</gom:speed></extensions></trkpt>
   <trkpt lat="59.2978365927" lon="34.6585132774"><ele>164.66</ele><time>2026-08-16T14:14:14.704Z</time><hdop>3.0</hdop><vdop>2.5</vdop><extensions><gom:speed>0.948</gom:speed></extensions></trkpt>
   <trkpt lat="59.2978358802" lon="34.6585013751"><ele>164.446</ele><time>2026-08-16T14:14:15.588Z</time><hdop>3.0</hdop><vdop>2.5</vdop><extensions><gom:speed>0.918</gom:speed></extensions></trkpt>
   <trkpt lat="59.2978352935" lon="34.658495424"><ele>164.44</ele><time>2026-08-16T14:14:16.136Z</time><hdop>3.0</hdop><vdop>2.5</vdop><extensions><gom:speed>0.877</gom:speed></extensions></trkpt>
   <trkpt lat="59.2978328627" lon="34.6584837731"><ele>164.557</ele><time>2026-08-16T14:14:17.136Z</time><hdop>3.0</hdop><vdop>2.5</vdop><extensions><gom:speed>0.836</gom:speed></extensions></trkpt>
   <trkpt lat="59.2978295938" lon="34.6584725414"><ele>164.7</ele><time>2026-08-16T14:14:18.135Z</time><hdop>3.0</hdop><vdop>2.5</vdop><extensions><gom:speed>0.865</gom:speed></extensions></trkpt>
   <trkpt lat="59.2978263668" lon="34.6584582921"><ele>164.786</ele><time>2026-08-16T14:14:19.024Z</time><hdop>3.0</hdop><vdop>2.5</vdop><extensions><gom:speed>0.901</gom:speed></extensions></trkpt>
   <trkpt lat="59.2978245646" lon="34.6584483177"><ele>164.74</ele><time>2026-08-16T14:14:19.819Z</time><hdop>3.0</hdop><vdop>2.5</vdop><extensions><gom:speed>0.865</gom:speed></extensions></trkpt>
   <trkpt lat="59.2978227625" lon="34.6584418636"><ele>164.638</ele><time>2026-08-16T14:14:20.644Z</time><hdop>3.0</hdop><vdop>2.5</vdop><extensions><gom:speed>0.765</gom:speed></extensions></trkpt>
   <trkpt lat="59.2978215891" lon="34.6584405225"><ele>164.479</ele><time>2026-08-16T14:14:21.136Z</time><hdop>3.0</hdop><vdop>2.5</vdop><extensions><gom:speed>0.64</gom:speed></extensions></trkpt>
   <trkpt lat="59.2978185716" lon="34.6584361639"><ele>164.384</ele><time>2026-08-16T14:14:21.900Z</time><hdop>3.0</hdop><vdop>2.5</vdop><extensions><gom:speed>0.64</gom:speed></extensions></trkpt>
   <trkpt lat="59.2978154703" lon="34.6584320568"><ele>164.739</ele><time>2026-08-16T14:14:22.629Z</time><hdop>3.0</hdop><vdop>2.5</vdop><extensions><gom:speed>0.672</gom:speed></extensions></trkpt>
   <trkpt lat="59.2978135843" lon="34.6584262733"><ele>164.952</ele><time>2026-08-16T14:14:23.110Z</time><hdop>3.0</hdop><vdop>2.5</vdop><extensions><gom:speed>0.731</gom:speed></extensions></trkpt>
   <trkpt lat="59.2978136682" lon="34.6584270276"><ele>165.151</ele><time>2026-08-16T14:14:24.136Z</time><hdop>3.0</hdop><vdop>2.5</vdop><extensions><gom:speed>0.427</gom:speed></extensions></trkpt>
   <trkpt lat="59.2978141711" lon="34.6584310509"><ele>165.261</ele><time>2026-08-16T14:14:25.136Z</time><hdop>3.0</hdop><vdop>2.562</vdop><extensions><gom:speed>0.302</gom:speed></extensions></trkpt>
   <trkpt lat="59.2978179848" lon="34.6584299613"><ele>165.275</ele><time>2026-08-16T14:14:26.136Z</time><hdop>3.0</hdop><vdop>2.75</vdop><extensions><gom:speed>0.145</gom:speed></extensions></trkpt>
   <trkpt lat="59.2978190745" lon="34.6584290393"><ele>165.283</ele><time>2026-08-16T14:14:26.889Z</time><hdop>3.0</hdop><vdop>2.75</vdop><extensions><gom:speed>0.175</gom:speed></extensions></trkpt>
   <trkpt lat="59.2978277917" lon="34.658425938"><ele>165.332</ele><time>2026-08-16T14:14:28.136Z</time><hdop>3.0</hdop><vdop>2.812</vdop><extensions><gom:speed>0.11</gom:speed></extensions></trkpt>
   <trkpt lat="59.2978335752" lon="34.6584263571"><ele>165.355</ele><time>2026-08-16T14:14:29.136Z</time><hdop>3.0</hdop><vdop>2.812</vdop><extensions><gom:speed>0.093</gom:speed></extensions></trkpt>
   <trkpt lat="59.2978384786" lon="34.6584270276"><ele>165.134</ele><time>2026-08-16T14:14:30.136Z</time><hdop>3.0</hdop><vdop>2.687</vdop><extensions><gom:speed>0.187</gom:speed></extensions></trkpt>
   <trkpt lat="59.2978423762" lon="34.6584262733"><ele>164.734</ele><time>2026-08-16T14:14:31.136Z</time><hdop>3.0</hdop><vdop>2.812</vdop><extensions><gom:speed>0.204</gom:speed></extensions></trkpt>
   <trkpt lat="59.2978434658" lon="34.6584285364"><ele>164.324</ele><time>2026-08-16T14:14:32.136Z</time><hdop>3.0</hdop><vdop>2.5</vdop><extensions><gom:speed>0.195</gom:speed></extensions></trkpt>
   <trkpt lat="59.2978434658" lon="34.6584267762"><ele>164.426</ele><time>2026-08-16T14:14:33.136Z</time><hdop>3.0</hdop><vdop>2.687</vdop><extensions><gom:speed>0.565</gom:speed></extensions></trkpt>
   <trkpt lat="59.2978435916" lon="34.6584221661"><ele>164.487</ele><time>2026-08-16T14:14:33.779Z</time><hdop>3.0</hdop><vdop>2.687</vdop><extensions><gom:speed>0.573</gom:speed></extensions></trkpt>
   <trkpt lat="59.2978397778" lon="34.6584143709"><ele>164.488</ele><time>2026-08-16T14:14:34.594Z</time><hdop>3.0</hdop><vdop>2.875</vdop><extensions><gom:speed>0.785</gom:speed></extensions></trkpt>
   <trkpt lat="59.2978382691" lon="34.6584126946"><ele>164.433</ele><time>2026-08-16T14:14:35.136Z</time><hdop>3.0</hdop><vdop>3.187</vdop><extensions><gom:speed>0.739</gom:speed></extensions></trkpt>
   <trkpt lat="59.2978381852" lon="34.6584126946"><ele>164.437</ele><time>2026-08-16T14:14:36.136Z</time><hdop>3.0</hdop><vdop>2.75</vdop><extensions><gom:speed>0.296</gom:speed></extensions></trkpt>
   <trkpt lat="59.2978382691" lon="34.6584078331"><ele>164.439</ele><time>2026-08-16T14:14:36.871Z</time><hdop>3.0</hdop><vdop>2.75</vdop><extensions><gom:speed>0.338</gom:speed></extensions></trkpt>
   <trkpt lat="59.2978377661" lon="34.6584040612"><ele>164.451</ele><time>2026-08-16T14:14:38.136Z</time><hdop>3.0</hdop><vdop>2.75</vdop><extensions><gom:speed>0.119</gom:speed></extensions></trkpt>
   <trkpt lat="59.2978374728" lon="34.6584028877"><ele>164.469</ele><time>2026-08-16T14:14:39.136Z</time><hdop>3.0</hdop><vdop>2.812</vdop><extensions><gom:speed>0.094</gom:speed></extensions></trkpt>
   <trkpt lat="59.2978366765" lon="34.6584010437"><ele>164.609</ele><time>2026-08-16T14:14:40.136Z</time><hdop>3.0</hdop><vdop>2.875</vdop><extensions><gom:speed>0.107</gom:speed></extensions></trkpt>
   <trkpt lat="59.2978355868" lon="34.6584003732"><ele>164.668</ele><time>2026-08-16T14:14:41.136Z</time><hdop>3.0</hdop><vdop>2.75</vdop><extensions><gom:speed>0.086</gom:speed></extensions></trkpt>
   <trkpt lat="59.2978350839" lon="34.6584000379"><ele>164.81</ele><time>2026-08-16T14:14:42.136Z</time><hdop>3.0</hdop><vdop>2.625</vdop><extensions><gom:speed>0.063</gom:speed></extensions></trkpt>
   <trkpt lat="59.2978344972" lon="34.6584002894"><ele>164.628</ele><time>2026-08-16T14:14:43.136Z</time><hdop>3.0</hdop><vdop>2.5</vdop><extensions><gom:speed>0.121</gom:speed></extensions></trkpt>
   <trkpt lat="59.297833659" lon="34.658400457"><ele>164.538</ele><time>2026-08-16T14:14:44.136Z</time><hdop>3.0</hdop><vdop>2.5</vdop><extensions><gom:speed>0.116</gom:speed></extensions></trkpt>
   <trkpt lat="59.297833198" lon="34.6584006246"><ele>164.484</ele><time>2026-08-16T14:14:44.659Z</time><hdop>3.0</hdop><vdop>2.5</vdop><extensions><gom:speed>0.134</gom:speed></extensions></trkpt>
   <trkpt lat="59.2978327789" lon="34.6583998703"><ele>164.58</ele><time>2026-08-16T14:14:45.135Z</time><hdop>3.0</hdop><vdop>2.5</vdop><extensions><gom:speed>0.085</gom:speed></extensions></trkpt>
   <trkpt lat="59.297832276" lon="34.6583986968"><ele>164.633</ele><time>2026-08-16T14:14:46.136Z</time><hdop>3.0</hdop><vdop>2.5</vdop><extensions><gom:speed>0.056</gom:speed></extensions></trkpt>
   <trkpt lat="59.2978321922" lon="34.6583977748"><ele>164.651</ele><time>2026-08-16T14:14:47.136Z</time><hdop>3.0</hdop><vdop>2.5</vdop><extensions><gom:speed>0.046</gom:speed></extensions></trkpt>
   <trkpt lat="59.297832276" lon="34.6583965175"><ele>164.648</ele><time>2026-08-16T14:14:48.136Z</time><hdop>3.0</hdop><vdop>2.5</vdop><extensions><gom:speed>0.072</gom:speed></extensions></trkpt>
   <trkpt lat="59.2978323598" lon="34.6583961822"><ele>164.639</ele><time>2026-08-16T14:14:49.136Z</time><hdop>3.0</hdop><vdop>2.5</vdop><extensions><gom:speed>0.026</gom:speed></extensions></trkpt>
   <trkpt lat="59.2978324855" lon="34.6583946735"><ele>164.624</ele><time>2026-08-16T14:14:50.136Z</time><hdop>3.0</hdop><vdop>2.5</vdop><extensions><gom:speed>0.02</gom:speed></extensions></trkpt>
   <trkpt lat="59.297832276" lon="34.6583945897"><ele>164.611</ele><time>2026-08-16T14:14:51.136Z</time><hdop>3.0</hdop><vdop>2.5</vdop><extensions><gom:speed>0.022</gom:speed></extensions></trkpt>
   <trkpt lat="59.2978318988" lon="34.6583951764"><ele>164.605</ele><time>2026-08-16T14:14:52.136Z</time><hdop>3.0</hdop><vdop>2.5</vdop><extensions><gom:speed>0.065</gom:speed></extensions></trkpt>
   <trkpt lat="59.2978318988" lon="34.6583947573"><ele>164.603</ele><time>2026-08-16T14:14:53.136Z</time><hdop>3.0</hdop><vdop>2.5</vdop><extensions><gom:speed>0.022</gom:speed></extensions></trkpt>
   <trkpt lat="59.2978315635" lon="34.6583934162"><ele>164.613</ele><time>2026-08-16T14:14:54.136Z</time><hdop>3.0</hdop><vdop>2.625</vdop><extensions><gom:speed>0.017</gom:speed></extensions></trkpt>
   <trkpt lat="59.2978310606" lon="34.6583930809"><ele>164.619</ele><time>2026-08-16T14:14:55.136Z</time><hdop>3.0</hdop><vdop>2.562</vdop><extensions><gom:speed>0.062</gom:speed></extensions></trkpt>
   <trkpt lat="59.2978309768" lon="34.6583937515"><ele>164.627</ele><time>2026-08-16T14:14:56.136Z</time><hdop>3.0</hdop><vdop>2.625</vdop><extensions><gom:speed>0.061</gom:speed></extensions></trkpt>
   <trkpt lat="59.2978307673" lon="34.6583940867"><ele>164.632</ele><time>2026-08-16T14:14:57.136Z</time><hdop>3.0</hdop><vdop>2.687</vdop><extensions><gom:speed>0.0</gom:speed></extensions></trkpt>
   <trkpt lat="59.297830893" lon="34.6583938353"><ele>164.636</ele><time>2026-08-16T14:14:58.136Z</time><hdop>3.0</hdop><vdop>2.687</vdop><extensions><gom:speed>0.014</gom:speed></extensions></trkpt>
   <trkpt lat="59.297830893" lon="34.6583937515"><ele>164.635</ele><time>2026-08-16T14:14:59.136Z</time><hdop>3.0</hdop><vdop>2.75</vdop><extensions><gom:speed>0.025</gom:speed></extensions></trkpt>
   <trkpt lat="59.297830893" lon="34.6583936676"><ele>164.645</ele><time>2026-08-16T14:15:00.136Z</time><hdop>3.0</hdop><vdop>2.75</vdop><extensions><gom:speed>0.035</gom:speed></extensions></trkpt>
   <trkpt lat="59.2978307673" lon="34.6583935838"><ele>164.639</ele><time>2026-08-16T14:15:01.136Z</time><hdop>3.0</hdop><vdop>2.812</vdop><extensions><gom:speed>0.041</gom:speed></extensions></trkpt>
   <trkpt lat="59.297830893" lon="34.6583933324"><ele>164.625</ele><time>2026-08-16T14:15:02.136Z</time><hdop>3.0</hdop><vdop>2.75</vdop><extensions><gom:speed>0.046</gom:speed></extensions></trkpt>
   <trkpt lat="59.2978307673" lon="34.6583933324"><ele>164.624</ele><time>2026-08-16T14:15:03.136Z</time><hdop>3.0</hdop><vdop>2.687</vdop><extensions><gom:speed>0.05</gom:speed></extensions></trkpt>
   <trkpt lat="59.2978305996" lon="34.6583934162"><ele>164.627</ele><time>2026-08-16T14:15:04.136Z</time><hdop>3.0</hdop><vdop>2.937</vdop><extensions><gom:speed>0.054</gom:speed></extensions></trkpt>
   <trkpt lat="59.2978303901" lon="34.6583934162"><ele>164.619</ele><time>2026-08-16T14:15:05.136Z</time><hdop>3.0</hdop><vdop>3.125</vdop><extensions><gom:speed>0.056</gom:speed></extensions></trkpt>
   <trkpt lat="59.2978301805" lon="34.6583934162"><ele>164.611</ele><time>2026-08-16T14:15:06.136Z</time><hdop>3.0</hdop><vdop>3.125</vdop><extensions><gom:speed>0.062</gom:speed></extensions></trkpt>
   <trkpt lat="59.297829971" lon="34.6583934162"><ele>164.603</ele><time>2026-08-16T14:15:07.136Z</time><hdop>3.0</hdop><vdop>3.312</vdop><extensions><gom:speed>0.066</gom:speed></extensions></trkpt>
   <trkpt lat="59.2978297614" lon="34.6583934162"><ele>164.588</ele><time>2026-08-16T14:15:08.136Z</time><hdop>3.0</hdop><vdop>3.437</vdop><extensions><gom:speed>0.069</gom:speed></extensions></trkpt>
   <trkpt lat="59.2978296776" lon="34.6583933324"><ele>164.567</ele><time>2026-08-16T14:15:09.136Z</time><hdop>3.0</hdop><vdop>3.5</vdop><extensions><gom:speed>0.07</gom:speed></extensions></trkpt>
   <trkpt lat="59.2978295938" lon="34.6583931647"><ele>164.534</ele><time>2026-08-16T14:15:10.136Z</time><hdop>3.0</hdop><vdop>3.562</vdop><extensions><gom:speed>0.069</gom:speed></extensions></trkpt>
   <trkpt lat="59.2978294681" lon="34.6583930809"><ele>164.496</ele><time>2026-08-16T14:15:11.136Z</time><hdop>3.0</hdop><vdop>3.687</vdop><extensions><gom:speed>0.07</gom:speed></extensions></trkpt>
   <trkpt lat="59.2978293842" lon="34.6583926618"><ele>164.456</ele><time>2026-08-16T14:15:12.136Z</time><hdop>3.0</hdop><vdop>3.75</vdop><extensions><gom:speed>0.072</gom:speed></extensions></trkpt>
   <trkpt lat="59.2978292585" lon="34.6583924942"><ele>164.426</ele><time>2026-08-16T14:15:13.136Z</time><hdop>3.0</hdop><vdop>3.75</vdop><extensions><gom:speed>0.073</gom:speed></extensions></trkpt>
   <trkpt lat="59.2978291747" lon="34.6583921589"><ele>164.402</ele><time>2026-08-16T14:15:14.136Z</time><hdop>3.0</hdop><vdop>3.812</vdop><extensions><gom:speed>0.073</gom:speed></extensions></trkpt>
   <trkpt lat="59.2978290909" lon="34.6583919913"><ele>164.389</ele><time>2026-08-16T14:15:15.136Z</time><hdop>3.0</hdop><vdop>3.937</vdop><extensions><gom:speed>0.074</gom:speed></extensions></trkpt>
   <trkpt lat="59.2978289651" lon="34.6583915722"><ele>164.375</ele><time>2026-08-16T14:15:16.136Z</time><hdop>3.0</hdop><vdop>4.062</vdop><extensions><gom:speed>0.071</gom:speed></extensions></trkpt>
   <trkpt lat="59.2978289651" lon="34.6583911531"><ele>164.36</ele><time>2026-08-16T14:15:17.136Z</time><hdop>3.0</hdop><vdop>4.0</vdop><extensions><gom:speed>0.072</gom:speed></extensions></trkpt>
   <trkpt lat="59.2978288813" lon="34.6583906502"><ele>164.356</ele><time>2026-08-16T14:15:18.136Z</time><hdop>3.0</hdop><vdop>3.937</vdop><extensions><gom:speed>0.07</gom:speed></extensions></trkpt>
   <trkpt lat="59.2978287975" lon="34.6583903987"><ele>164.357</ele><time>2026-08-16T14:15:19.136Z</time><hdop>3.0</hdop><vdop>3.625</vdop><extensions><gom:speed>0.069</gom:speed></extensions></trkpt>
   <trkpt lat="59.2978284622" lon="34.6583897282"><ele>164.377</ele><time>2026-08-16T14:15:20.136Z</time><hdop>3.0</hdop><vdop>3.312</vdop><extensions><gom:speed>0.073</gom:speed></extensions></trkpt>
   <trkpt lat="59.2978283784" lon="34.6583891414"><ele>164.39</ele><time>2026-08-16T14:15:21.136Z</time><hdop>3.0</hdop><vdop>3.25</vdop><extensions><gom:speed>0.074</gom:speed></extensions></trkpt>
   <trkpt lat="59.2978283784" lon="34.6583887223"><ele>164.402</ele><time>2026-08-16T14:15:22.136Z</time><hdop>3.0</hdop><vdop>3.187</vdop><extensions><gom:speed>0.075</gom:speed></extensions></trkpt>
   <trkpt lat="59.2978282946" lon="34.6583882194"><ele>164.4</ele><time>2026-08-16T14:15:23.136Z</time><hdop>3.0</hdop><vdop>3.062</vdop><extensions><gom:speed>0.072</gom:speed></extensions></trkpt>
   <trkpt lat="59.2978281689" lon="34.6583880518"><ele>164.397</ele><time>2026-08-16T14:15:24.135Z</time><hdop>3.0</hdop><vdop>3.0</vdop><extensions><gom:speed>0.074</gom:speed></extensions></trkpt>
   <trkpt lat="59.2978281689" lon="34.6583877165"><ele>164.404</ele><time>2026-08-16T14:15:25.136Z</time><hdop>3.0</hdop><vdop>3.187</vdop><extensions><gom:speed>0.076</gom:speed></extensions></trkpt>
   <trkpt lat="59.2978278755" lon="34.6583871298"><ele>164.416</ele><time>2026-08-16T14:15:26.136Z</time><hdop>3.0</hdop><vdop>3.062</vdop><extensions><gom:speed>0.077</gom:speed></extensions></trkpt>
   <trkpt lat="59.2978277917" lon="34.6583866268"><ele>164.434</ele><time>2026-08-16T14:15:27.136Z</time><hdop>3.0</hdop><vdop>2.875</vdop><extensions><gom:speed>0.077</gom:speed></extensions></trkpt>
   <trkpt lat="59.2978275821" lon="34.6583863754"><ele>164.459</ele><time>2026-08-16T14:15:28.136Z</time><hdop>3.0</hdop><vdop>2.75</vdop><extensions><gom:speed>0.074</gom:speed></extensions></trkpt>
   <trkpt lat="59.2978273726" lon="34.6583859563"><ele>164.482</ele><time>2026-08-16T14:15:29.135Z</time><hdop>3.0</hdop><vdop>2.687</vdop><extensions><gom:speed>0.074</gom:speed></extensions></trkpt>
   <trkpt lat="59.297827163" lon="34.6583855372"><ele>164.5</ele><time>2026-08-16T14:15:30.135Z</time><hdop>3.0</hdop><vdop>2.687</vdop><extensions><gom:speed>0.073</gom:speed></extensions></trkpt>
   <trkpt lat="59.2978270792" lon="34.6583852857"><ele>164.526</ele><time>2026-08-16T14:15:31.136Z</time><hdop>3.0</hdop><vdop>2.5</vdop><extensions><gom:speed>0.073</gom:speed></extensions></trkpt>
   <trkpt lat="59.2978268697" lon="34.6583848667"><ele>164.553</ele><time>2026-08-16T14:15:32.136Z</time><hdop>3.0</hdop><vdop>2.5</vdop><extensions><gom:speed>0.069</gom:speed></extensions></trkpt>
   <trkpt lat="59.2978267858" lon="34.6583845314"><ele>164.584</ele><time>2026-08-16T14:15:33.136Z</time><hdop>3.0</hdop><vdop>2.5</vdop><extensions><gom:speed>0.07</gom:speed></extensions></trkpt>
   <trkpt lat="59.2978266601" lon="34.6583841961"><ele>164.617</ele><time>2026-08-16T14:15:34.136Z</time><hdop>3.0</hdop><vdop>2.5</vdop><extensions><gom:speed>0.069</gom:speed></extensions></trkpt>
   <trkpt lat="59.2978264925" lon="34.658383777"><ele>164.662</ele><time>2026-08-16T14:15:35.136Z</time><hdop>3.0</hdop><vdop>2.5</vdop><extensions><gom:speed>0.069</gom:speed></extensions></trkpt>
   <trkpt lat="59.2978263668" lon="34.6583833579"><ele>164.722</ele><time>2026-08-16T14:15:36.136Z</time><hdop>3.0</hdop><vdop>2.5</vdop><extensions><gom:speed>0.069</gom:speed></extensions></trkpt>
   <trkpt lat="59.2978260734" lon="34.6583829388"><ele>164.756</ele><time>2026-08-16T14:15:37.136Z</time><hdop>3.0</hdop><vdop>2.5</vdop><extensions><gom:speed>0.068</gom:speed></extensions></trkpt>
   <trkpt lat="59.2978258638" lon="34.658382855"><ele>164.974</ele><time>2026-08-16T14:15:38.136Z</time><hdop>3.0</hdop><vdop>2.5</vdop><extensions><gom:speed>0.23</gom:speed></extensions></trkpt>
   <trkpt lat="59.2978254867" lon="34.6583813463"><ele>165.104</ele><time>2026-08-16T14:15:39.077Z</time><hdop>3.0</hdop><vdop>2.5</vdop><extensions><gom:speed>0.232</gom:speed></extensions></trkpt>
   <trkpt lat="59.2978240617" lon="34.6583767362"><ele>165.207</ele><time>2026-08-16T14:15:40.039Z</time><hdop>3.0</hdop><vdop>2.5</vdop><extensions><gom:speed>0.536</gom:speed></extensions></trkpt>
   <trkpt lat="59.2978222596" lon="34.6583722938"><ele>165.222</ele><time>2026-08-16T14:15:40.638Z</time><hdop>3.0</hdop><vdop>2.5</vdop><extensions><gom:speed>0.682</gom:speed></extensions></trkpt>
   <trkpt lat="59.2978196612" lon="34.6583674323"><ele>165.09</ele><time>2026-08-16T14:15:41.136Z</time><hdop>3.0</hdop><vdop>2.5</vdop><extensions><gom:speed>0.73</gom:speed></extensions></trkpt>
   <trkpt lat="59.2978162666" lon="34.6583617326"><ele>165.011</ele><time>2026-08-16T14:15:41.992Z</time><hdop>3.187</hdop><vdop>2.5</vdop><extensions><gom:speed>0.77</gom:speed></extensions></trkpt>
   <trkpt lat="59.2978071722" lon="34.6583489921"><ele>164.983</ele><time>2026-08-16T14:15:42.876Z</time><hdop>3.25</hdop><vdop>2.5</vdop><extensions><gom:speed>0.774</gom:speed></extensions></trkpt>
   <trkpt lat="59.297801682" lon="34.6583401911"><ele>164.813</ele><time>2026-08-16T14:15:43.474Z</time><hdop>3.25</hdop><vdop>2.5</vdop><extensions><gom:speed>0.774</gom:speed></extensions></trkpt>
   <trkpt lat="59.2977978683" lon="34.6583372574"><ele>164.635</ele><time>2026-08-16T14:15:44.136Z</time><hdop>3.25</hdop><vdop>2.5</vdop><extensions><gom:speed>0.698</gom:speed></extensions></trkpt>
   <trkpt lat="59.2977941802" lon="34.6583331503"><ele>164.528</ele><time>2026-08-16T14:15:44.800Z</time><hdop>3.312</hdop><vdop>2.5</vdop><extensions><gom:speed>0.69</gom:speed></extensions></trkpt>
   <trkpt lat="59.2977932582" lon="34.6583299652"><ele>164.436</ele><time>2026-08-16T14:15:45.251Z</time><hdop>3.312</hdop><vdop>2.5</vdop><extensions><gom:speed>0.735</gom:speed></extensions></trkpt>
   <trkpt lat="59.2977918752" lon="34.6583248522"><ele>164.23</ele><time>2026-08-16T14:15:46.136Z</time><hdop>3.25</hdop><vdop>2.5</vdop><extensions><gom:speed>0.601</gom:speed></extensions></trkpt>
   <trkpt lat="59.2977941802" lon="34.6583216671"><ele>164.061</ele><time>2026-08-16T14:15:47.136Z</time><hdop>3.125</hdop><vdop>2.5</vdop><extensions><gom:speed>0.427</gom:speed></extensions></trkpt>
   <trkpt lat="59.2977985807" lon="34.6583224215"><ele>163.955</ele><time>2026-08-16T14:15:48.136Z</time><hdop>3.062</hdop><vdop>2.5</vdop><extensions><gom:speed>0.23</gom:speed></extensions></trkpt>
   <trkpt lat="59.2978005924" lon="34.6583267801"><ele>163.889</ele><time>2026-08-16T14:15:49.136Z</time><hdop>3.0</hdop><vdop>2.5</vdop><extensions><gom:speed>0.075</gom:speed></extensions></trkpt>
   <trkpt lat="59.2978020592" lon="34.6583314739"><ele>163.845</ele><time>2026-08-16T14:15:50.136Z</time><hdop>3.0</hdop><vdop>2.5</vdop><extensions><gom:speed>0.065</gom:speed></extensions></trkpt>
   <trkpt lat="59.2978025621" lon="34.6583326474"><ele>163.821</ele><time>2026-08-16T14:15:51.136Z</time><hdop>3.0</hdop><vdop>2.5</vdop><extensions><gom:speed>0.066</gom:speed></extensions></trkpt>
   <trkpt lat="59.2978033584" lon="34.6583333179"><ele>163.791</ele><time>2026-08-16T14:15:52.136Z</time><hdop>3.0</hdop><vdop>2.5</vdop><extensions><gom:speed>0.021</gom:speed></extensions></trkpt>
   <trkpt lat="59.2978033584" lon="34.6583336532"><ele>163.772</ele><time>2026-08-16T14:15:52.996Z</time><hdop>3.0</hdop><vdop>2.5</vdop><extensions><gom:speed>0.05</gom:speed></extensions></trkpt>
   <trkpt lat="59.2978033584" lon="34.6583333179"><ele>163.774</ele><time>2026-08-16T14:15:54.136Z</time><hdop>3.0</hdop><vdop>2.5</vdop><extensions><gom:speed>0.065</gom:speed></extensions></trkpt>
   <trkpt lat="59.2978034842" lon="34.6583335694"><ele>163.805</ele><time>2026-08-16T14:15:55.136Z</time><hdop>3.0</hdop><vdop>2.5</vdop><extensions><gom:speed>0.09</gom:speed></extensions></trkpt>
   <trkpt lat="59.2978037775" lon="34.6583335694"><ele>163.836</ele><time>2026-08-16T14:15:56.136Z</time><hdop>3.0</hdop><vdop>2.5</vdop><extensions><gom:speed>0.042</gom:speed></extensions></trkpt>
   <trkpt lat="59.2978032746" lon="34.6583335694"><ele>163.887</ele><time>2026-08-16T14:15:57.136Z</time><hdop>3.0</hdop><vdop>2.5</vdop><extensions><gom:speed>0.047</gom:speed></extensions></trkpt>
   <trkpt lat="59.2978026879" lon="34.6583341561"><ele>163.925</ele><time>2026-08-16T14:15:58.136Z</time><hdop>3.0</hdop><vdop>2.5</vdop><extensions><gom:speed>0.079</gom:speed></extensions></trkpt>
   <trkpt lat="59.2978020592" lon="34.6583339885"><ele>163.949</ele><time>2026-08-16T14:15:59.136Z</time><hdop>3.0</hdop><vdop>2.5</vdop><extensions><gom:speed>0.068</gom:speed></extensions></trkpt>
   <trkpt lat="59.2978013887" lon="34.6583335694"><ele>163.963</ele><time>2026-08-16T14:15:59.817Z</time><hdop>3.0</hdop><vdop>2.5</vdop><extensions><gom:speed>0.103</gom:speed></extensions></trkpt>
   <trkpt lat="59.2978003829" lon="34.6583320607"><ele>163.84</ele><time>2026-08-16T14:16:01.136Z</time><hdop>3.0</hdop><vdop>2.5</vdop><extensions><gom:speed>0.05</gom:speed></extensions></trkpt>
   <trkpt lat="59.2978001733" lon="34.6583312225"><ele>163.767</ele><time>2026-08-16T14:16:02.036Z</time><hdop>3.0</hdop><vdop>2.5</vdop><extensions><gom:speed>0.087</gom:speed></extensions></trkpt>
   <trkpt lat="59.2977958985" lon="34.6583271992"><ele>163.612</ele><time>2026-08-16T14:16:03.136Z</time><hdop>3.0</hdop><vdop>2.5</vdop><extensions><gom:speed>0.246</gom:speed></extensions></trkpt>
   <trkpt lat="59.2977941802" lon="34.6583247684"><ele>163.519</ele><time>2026-08-16T14:16:03.714Z</time><hdop>3.0</hdop><vdop>2.5</vdop><extensions><gom:speed>0.271</gom:speed></extensions></trkpt>
   <trkpt lat="59.2977872652" lon="34.658316638"><ele>163.543</ele><time>2026-08-16T14:16:04.931Z</time><hdop>3.0</hdop><vdop>2.5</vdop><extensions><gom:speed>0.427</gom:speed></extensions></trkpt>
   <trkpt lat="59.2977779613" lon="34.6583177276"><ele>163.419</ele><time>2026-08-16T14:16:05.756Z</time><hdop>3.0</hdop><vdop>2.5</vdop><extensions><gom:speed>0.709</gom:speed></extensions></trkpt>
   <trkpt lat="59.2977705852" lon="34.6583194878"><ele>163.21</ele><time>2026-08-16T14:16:06.237Z</time><hdop>3.0</hdop><vdop>2.5</vdop><extensions><gom:speed>0.93</gom:speed></extensions></trkpt>
   <trkpt lat="59.2977625805" lon="34.6583152969"><ele>163.086</ele><time>2026-08-16T14:16:07.051Z</time><hdop>3.0</hdop><vdop>2.5</vdop><extensions><gom:speed>0.93</gom:speed></extensions></trkpt>
   <trkpt lat="59.2977574675" lon="34.6583044842"><ele>163.109</ele><time>2026-08-16T14:16:08.136Z</time><hdop>3.0</hdop><vdop>2.5</vdop><extensions><gom:speed>0.826</gom:speed></extensions></trkpt>
   <trkpt lat="59.2977533604" lon="34.6582964376"><ele>163.123</ele><time>2026-08-16T14:16:09.015Z</time><hdop>3.0</hdop><vdop>2.5</vdop><extensions><gom:speed>0.732</gom:speed></extensions></trkpt>
   <trkpt lat="59.2977414581" lon="34.6583032269"><ele>163.185</ele><time>2026-08-16T14:16:10.136Z</time><hdop>3.0</hdop><vdop>2.5</vdop><extensions><gom:speed>0.808</gom:speed></extensions></trkpt>
   <trkpt lat="59.297735465" lon="34.658304568"><ele>163.222</ele><time>2026-08-16T14:16:10.811Z</time><hdop>3.0</hdop><vdop>2.5</vdop><extensions><gom:speed>0.802</gom:speed></extensions></trkpt>
   <trkpt lat="59.2977259935" lon="34.6583056577"><ele>163.218</ele><time>2026-08-16T14:16:11.832Z</time><hdop>3.062</hdop><vdop>2.5</vdop><extensions><gom:speed>0.842</gom:speed></extensions></trkpt>
   <trkpt lat="59.2977171925" lon="34.6583066635"><ele>163.331</ele><time>2026-08-16T14:16:12.637Z</time><hdop>3.0</hdop><vdop>2.5</vdop><extensions><gom:speed>0.898</gom:speed></extensions></trkpt>
   <trkpt lat="59.2977125824" lon="34.6583053224"><ele>163.281</ele><time>2026-08-16T14:16:13.136Z</time><hdop>3.0</hdop><vdop>2.5</vdop><extensions><gom:speed>0.861</gom:speed></extensions></trkpt>
   <trkpt lat="59.2977065894" lon="34.6583006285"><ele>163.252</ele><time>2026-08-16T14:16:13.893Z</time><hdop>3.0</hdop><vdop>2.5</vdop><extensions><gom:speed>0.859</gom:speed></extensions></trkpt>
   <trkpt lat="59.2977007639" lon="34.6582950965"><ele>163.342</ele><time>2026-08-16T14:16:14.639Z</time><hdop>3.0</hdop><vdop>2.5</vdop><extensions><gom:speed>0.894</gom:speed></extensions></trkpt>
   <trkpt lat="59.2976967825" lon="34.6582905702"><ele>163.487</ele><time>2026-08-16T14:16:15.135Z</time><hdop>3.0</hdop><vdop>2.5</vdop><extensions><gom:speed>0.881</gom:speed></extensions></trkpt>
   <trkpt lat="59.2976901608" lon="34.6582810987"><ele>163.574</ele><time>2026-08-16T14:16:16.034Z</time><hdop>3.0</hdop><vdop>2.5</vdop><extensions><gom:speed>0.894</gom:speed></extensions></trkpt>
   <trkpt lat="59.2976858861" lon="34.6582727168"><ele>163.707</ele><time>2026-08-16T14:16:16.593Z</time><hdop>3.0</hdop><vdop>2.5</vdop><extensions><gom:speed>0.914</gom:speed></extensions></trkpt>
   <trkpt lat="59.297682659" lon="34.658265676"><ele>163.683</ele><time>2026-08-16T14:16:17.136Z</time><hdop>3.0</hdop><vdop>2.5</vdop><extensions><gom:speed>0.879</gom:speed></extensions></trkpt>
   <trkpt lat="59.2976749896" lon="34.6582586352"><ele>163.669</ele><time>2026-08-16T14:16:18.095Z</time><hdop>3.0</hdop><vdop>2.5</vdop><extensions><gom:speed>0.886</gom:speed></extensions></trkpt>
   <trkpt lat="59.2976697928" lon="34.6582566235"><ele>163.569</ele><time>2026-08-16T14:16:18.812Z</time><hdop>3.0</hdop><vdop>2.5</vdop><extensions><gom:speed>0.901</gom:speed></extensions></trkpt>
   <trkpt lat="59.2976638836" lon="34.6582535222"><ele>163.527</ele><time>2026-08-16T14:16:19.538Z</time><hdop>3.0</hdop><vdop>2.5</vdop><extensions><gom:speed>0.945</gom:speed></extensions></trkpt>
   <trkpt lat="59.297659064" lon="34.6582486607"><ele>163.376</ele><time>2026-08-16T14:16:20.136Z</time><hdop>3.0</hdop><vdop>2.5</vdop><extensions><gom:speed>0.951</gom:speed></extensions></trkpt>
   <trkpt lat="59.2976532805" lon="34.6582402788"><ele>163.286</ele><time>2026-08-16T14:16:20.873Z</time><hdop>3.0</hdop><vdop>2.5</vdop><extensions><gom:speed>0.961</gom:speed></extensions></trkpt>
   <trkpt lat="59.2976471617" lon="34.6582294662"><ele>163.217</ele><time>2026-08-16T14:16:21.737Z</time><hdop>3.0</hdop><vdop>2.5</vdop><extensions><gom:speed>0.981</gom:speed></extensions></trkpt>
   <trkpt lat="59.2976433898" lon="34.6582261972"><ele>163.073</ele><time>2026-08-16T14:16:22.218Z</time><hdop>3.0</hdop><vdop>2.5</vdop><extensions><gom:speed>0.988</gom:speed></extensions></trkpt>
   <trkpt lat="59.2976366843" lon="34.6582211681"><ele>162.987</ele><time>2026-08-16T14:16:22.973Z</time><hdop>3.0</hdop><vdop>2.5</vdop><extensions><gom:speed>0.98</gom:speed></extensions></trkpt>
   <trkpt lat="59.2976322838" lon="34.6582228445"><ele>162.957</ele><time>2026-08-16T14:16:23.435Z</time><hdop>3.0</hdop><vdop>2.5</vdop><extensions><gom:speed>0.959</gom:speed></extensions></trkpt>
   <trkpt lat="59.2976268775" lon="34.6582243532"><ele>162.954</ele><time>2026-08-16T14:16:24.136Z</time><hdop>3.0</hdop><vdop>2.5</vdop><extensions><gom:speed>0.896</gom:speed></extensions></trkpt>
   <trkpt lat="59.2976217645" lon="34.6582250238"><ele>162.953</ele><time>2026-08-16T14:16:24.760Z</time><hdop>3.0</hdop><vdop>2.5</vdop><extensions><gom:speed>0.885</gom:speed></extensions></trkpt>
   <trkpt lat="59.2976112871" lon="34.6582213357"><ele>163.067</ele><time>2026-08-16T14:16:26.036Z</time><hdop>3.0</hdop><vdop>2.5</vdop><extensions><gom:speed>0.94</gom:speed></extensions></trkpt>
   <trkpt lat="59.2976053779" lon="34.6582140435"><ele>163.172</ele><time>2026-08-16T14:16:26.919Z</time><hdop>3.0</hdop><vdop>2.5</vdop><extensions><gom:speed>0.918</gom:speed></extensions></trkpt>
   <trkpt lat="59.297602989" lon="34.6582058292"><ele>163.349</ele><time>2026-08-16T14:16:27.655Z</time><hdop>3.0</hdop><vdop>2.5</vdop><extensions><gom:speed>0.842</gom:speed></extensions></trkpt>
   <trkpt lat="59.2976017737" lon="34.6581988722"><ele>163.359</ele><time>2026-08-16T14:16:28.136Z</time><hdop>3.0</hdop><vdop>2.5</vdop><extensions><gom:speed>0.862</gom:speed></extensions></trkpt>
   <trkpt lat="59.2975988819" lon="34.6581876405"><ele>163.366</ele><time>2026-08-16T14:16:28.892Z</time><hdop>3.0</hdop><vdop>2.5</vdop><extensions><gom:speed>0.871</gom:speed></extensions></trkpt>
   <trkpt lat="59.2975967864" lon="34.6581749838"><ele>163.369</ele><time>2026-08-16T14:16:29.638Z</time><hdop>3.0</hdop><vdop>2.5</vdop><extensions><gom:speed>0.892</gom:speed></extensions></trkpt>
   <trkpt lat="59.2975952777" lon="34.6581675239"><ele>163.365</ele><time>2026-08-16T14:16:30.136Z</time><hdop>3.0</hdop><vdop>2.5</vdop><extensions><gom:speed>0.903</gom:speed></extensions></trkpt>
   <trkpt lat="59.2975896618" lon="34.658156376"><ele>163.363</ele><time>2026-08-16T14:16:31.032Z</time><hdop>3.0</hdop><vdop>2.5</vdop><extensions><gom:speed>0.94</gom:speed></extensions></trkpt>
   <trkpt lat="59.2975836687" lon="34.6581507601"><ele>163.38</ele><time>2026-08-16T14:16:31.758Z</time><hdop>3.0</hdop><vdop>2.5</vdop><extensions><gom:speed>0.959</gom:speed></extensions></trkpt>
   <trkpt lat="59.2975769632" lon="34.6581478264"><ele>163.443</ele><time>2026-08-16T14:16:32.553Z</time><hdop>3.0</hdop><vdop>2.5</vdop><extensions><gom:speed>0.925</gom:speed></extensions></trkpt>
   <trkpt lat="59.2975713893" lon="34.6581479941"><ele>163.331</ele><time>2026-08-16T14:16:33.136Z</time><hdop>3.0</hdop><vdop>2.5</vdop><extensions><gom:speed>0.97</gom:speed></extensions></trkpt>
   <trkpt lat="59.2975634684" lon="34.6581479941"><ele>163.264</ele><time>2026-08-16T14:16:33.977Z</time><hdop>3.0</hdop><vdop>2.5</vdop><extensions><gom:speed>0.94</gom:speed></extensions></trkpt>
   <trkpt lat="59.2975556732" lon="34.6581477426"><ele>163.106</ele><time>2026-08-16T14:16:34.811Z</time><hdop>3.0</hdop><vdop>2.5</vdop><extensions><gom:speed>0.933</gom:speed></extensions></trkpt>
   <trkpt lat="59.2975494706" lon="34.6581420429"><ele>162.927</ele><time>2026-08-16T14:16:35.635Z</time><hdop>3.0</hdop><vdop>2.5</vdop><extensions><gom:speed>0.94</gom:speed></extensions></trkpt>
   <trkpt lat="59.2975466626" lon="34.6581366785"><ele>162.772</ele><time>2026-08-16T14:16:36.136Z</time><hdop>3.0</hdop><vdop>2.5</vdop><extensions><gom:speed>0.924</gom:speed></extensions></trkpt>
   <trkpt lat="59.297541382" lon="34.6581245247"><ele>162.679</ele><time>2026-08-16T14:16:36.990Z</time><hdop>3.0</hdop><vdop>2.5</vdop><extensions><gom:speed>0.978</gom:speed></extensions></trkpt>
   <trkpt lat="59.2975373587" lon="34.6581197471"><ele>162.576</ele><time>2026-08-16T14:16:37.530Z</time><hdop>3.0</hdop><vdop>2.5</vdop><extensions><gom:speed>0.956</gom:speed></extensions></trkpt>
   <trkpt lat="59.2975329582" lon="34.6581149694"><ele>162.623</ele><time>2026-08-16T14:16:38.136Z</time><hdop>3.0</hdop><vdop>2.5</vdop><extensions><gom:speed>0.973</gom:speed></extensions></trkpt>
   <trkpt lat="59.2975273843" lon="34.6581091859"><ele>162.652</ele><time>2026-08-16T14:16:38.806Z</time><hdop>3.0</hdop><vdop>2.5</vdop><extensions><gom:speed>0.969</gom:speed></extensions></trkpt>
   <trkpt lat="59.2975219779" lon="34.6581041567"><ele>162.633</ele><time>2026-08-16T14:16:39.552Z</time><hdop>3.0</hdop><vdop>2.5</vdop><extensions><gom:speed>0.963</gom:speed></extensions></trkpt>
   <trkpt lat="59.2975182899" lon="34.6581001334"><ele>162.592</ele><time>2026-08-16T14:16:40.136Z</time><hdop>3.0</hdop><vdop>2.5</vdop><extensions><gom:speed>0.93</gom:speed></extensions></trkpt>
   <trkpt lat="59.2975130931" lon="34.6580951881"><ele>162.567</ele><time>2026-08-16T14:16:40.828Z</time><hdop>3.0</hdop><vdop>2.5</vdop><extensions><gom:speed>0.922</gom:speed></extensions></trkpt>
   <trkpt lat="59.2975085669" lon="34.6580909971"><ele>162.621</ele><time>2026-08-16T14:16:41.407Z</time><hdop>3.0</hdop><vdop>2.5</vdop><extensions><gom:speed>0.968</gom:speed></extensions></trkpt>
   <trkpt lat="59.2975034958" lon="34.6580861356"><ele>162.697</ele><time>2026-08-16T14:16:42.136Z</time><hdop>3.0</hdop><vdop>2.5</vdop><extensions><gom:speed>0.938</gom:speed></extensions></trkpt>
   <trkpt lat="59.2974991792" lon="34.6580812741"><ele>162.742</ele><time>2026-08-16T14:16:42.712Z</time><hdop>3.0</hdop><vdop>2.5</vdop><extensions><gom:speed>0.934</gom:speed></extensions></trkpt>
   <trkpt lat="59.297493689" lon="34.658073898"><ele>162.484</ele><time>2026-08-16T14:16:43.508Z</time><hdop>3.0</hdop><vdop>2.5</vdop><extensions><gom:speed>0.953</gom:speed></extensions></trkpt>
   <trkpt lat="59.2974887856" lon="34.6580661867"><ele>162.329</ele><time>2026-08-16T14:16:44.087Z</time><hdop>3.0</hdop><vdop>2.5</vdop><extensions><gom:speed>1.006</gom:speed></extensions></trkpt>
   <trkpt lat="59.2974847623" lon="34.6580563799"><ele>162.122</ele><time>2026-08-16T14:16:44.833Z</time><hdop>3.0</hdop><vdop>2.5</vdop><extensions><gom:speed>0.975</gom:speed></extensions></trkpt>
   <trkpt lat="59.2974810743" lon="34.6580485847"><ele>161.779</ele><time>2026-08-16T14:16:45.412Z</time><hdop>3.0</hdop><vdop>2.5</vdop><extensions><gom:speed>0.978</gom:speed></extensions></trkpt>
   <trkpt lat="59.2974767995" lon="34.6580389455"><ele>161.79</ele><time>2026-08-16T14:16:46.136Z</time><hdop>3.0</hdop><vdop>2.5</vdop><extensions><gom:speed>0.954</gom:speed></extensions></trkpt>
   <trkpt lat="59.2974716865" lon="34.6580311503"><ele>161.796</ele><time>2026-08-16T14:16:46.835Z</time><hdop>3.0</hdop><vdop>2.5</vdop><extensions><gom:speed>0.95</gom:speed></extensions></trkpt>
   <trkpt lat="59.2974662802" lon="34.6580247801"><ele>161.788</ele><time>2026-08-16T14:16:47.552Z</time><hdop>3.0</hdop><vdop>2.5</vdop><extensions><gom:speed>0.922</gom:speed></extensions></trkpt>
   <trkpt lat="59.2974610834" lon="34.6580210921"><ele>161.784</ele><time>2026-08-16T14:16:48.091Z</time><hdop>3.0</hdop><vdop>2.5</vdop><extensions><gom:speed>0.948</gom:speed></extensions></trkpt>
   <trkpt lat="59.2974542941" lon="34.6580167335"><ele>161.747</ele><time>2026-08-16T14:16:48.847Z</time><hdop>3.0</hdop><vdop>2.5</vdop><extensions><gom:speed>0.962</gom:speed></extensions></trkpt>
   <trkpt lat="59.2974478819" lon="34.6580149733"><ele>161.523</ele><time>2026-08-16T14:16:49.554Z</time><hdop>3.0</hdop><vdop>2.5</vdop><extensions><gom:speed>0.969</gom:speed></extensions></trkpt>
   <trkpt lat="59.2974423918" lon="34.6580150571"><ele>161.41</ele><time>2026-08-16T14:16:50.136Z</time><hdop>3.0</hdop><vdop>2.5</vdop><extensions><gom:speed>0.999</gom:speed></extensions></trkpt>
   <trkpt lat="59.2974352671" lon="34.6580175717"><ele>161.342</ele><time>2026-08-16T14:16:50.830Z</time><hdop>3.0</hdop><vdop>2.5</vdop><extensions><gom:speed>1.01</gom:speed></extensions></trkpt>
   <trkpt lat="59.2974301961" lon="34.6580188289"><ele>161.608</ele><time>2026-08-16T14:16:51.330Z</time><hdop>3.0</hdop><vdop>2.5</vdop><extensions><gom:speed>1.012</gom:speed></extensions></trkpt>
   <trkpt lat="59.2974225686" lon="34.6580196671"><ele>161.748</ele><time>2026-08-16T14:16:52.136Z</time><hdop>3.0</hdop><vdop>2.5</vdop><extensions><gom:speed>0.986</gom:speed></extensions></trkpt>
   <trkpt lat="59.297413097" lon="34.65802017"><ele>162.085</ele><time>2026-08-16T14:16:53.136Z</time><hdop>3.0</hdop><vdop>2.5</vdop><extensions><gom:speed>1.008</gom:speed></extensions></trkpt>
   <trkpt lat="59.2974038769" lon="34.6580175717"><ele>162.061</ele><time>2026-08-16T14:16:54.136Z</time><hdop>3.0</hdop><vdop>2.5</vdop><extensions><gom:speed>1.01</gom:speed></extensions></trkpt>
   <trkpt lat="59.2973964589" lon="34.6580130454"><ele>162.046</ele><time>2026-08-16T14:16:54.893Z</time><hdop>3.0</hdop><vdop>2.5</vdop><extensions><gom:speed>1.016</gom:speed></extensions></trkpt>
   <trkpt lat="59.2973912622" lon="34.6580048312"><ele>162.073</ele><time>2026-08-16T14:16:55.571Z</time><hdop>3.0</hdop><vdop>2.5</vdop><extensions><gom:speed>1.002</gom:speed></extensions></trkpt>
   <trkpt lat="59.2973867778" lon="34.6579983771"><ele>162.073</ele><time>2026-08-16T14:16:56.136Z</time><hdop>3.0</hdop><vdop>2.5</vdop><extensions><gom:speed>0.997</gom:speed></extensions></trkpt>
   <trkpt lat="59.297381162" lon="34.657990079"><ele>162.072</ele><time>2026-08-16T14:16:56.827Z</time><hdop>3.0</hdop><vdop>2.5</vdop><extensions><gom:speed>0.993</gom:speed></extensions></trkpt>
   <trkpt lat="59.2973754623" lon="34.6579837926"><ele>161.897</ele><time>2026-08-16T14:16:57.514Z</time><hdop>3.0</hdop><vdop>2.5</vdop><extensions><gom:speed>0.964</gom:speed></extensions></trkpt>
   <trkpt lat="59.2973705589" lon="34.6579791825"><ele>161.873</ele><time>2026-08-16T14:16:58.136Z</time><hdop>3.0</hdop><vdop>2.5</vdop><extensions><gom:speed>0.924</gom:speed></extensions></trkpt>
   <trkpt lat="59.2973650687" lon="34.6579767518"><ele>161.858</ele><time>2026-08-16T14:16:58.751Z</time><hdop>3.0</hdop><vdop>2.5</vdop><extensions><gom:speed>0.925</gom:speed></extensions></trkpt>
   <trkpt lat="59.2973582794" lon="34.6579770871"><ele>161.84</ele><time>2026-08-16T14:16:59.526Z</time><hdop>3.0</hdop><vdop>2.5</vdop><extensions><gom:speed>0.905</gom:speed></extensions></trkpt>
   <trkpt lat="59.2973529988" lon="34.6579767518"><ele>161.829</ele><time>2026-08-16T14:17:00.066Z</time><hdop>3.0</hdop><vdop>2.5</vdop><extensions><gom:speed>0.947</gom:speed></extensions></trkpt>
   <trkpt lat="59.2973459999" lon="34.6579771709"><ele>162.342</ele><time>2026-08-16T14:17:00.851Z</time><hdop>3.0</hdop><vdop>2.5</vdop><extensions><gom:speed>0.928</gom:speed></extensions></trkpt>
   <trkpt lat="59.297341767" lon="34.6579783443"><ele>162.698</ele><time>2026-08-16T14:17:01.332Z</time><hdop>3.0</hdop><vdop>2.5</vdop><extensions><gom:speed>0.975</gom:speed></extensions></trkpt>
   <trkpt lat="59.2973340976" lon="34.6579761651"><ele>162.911</ele><time>2026-08-16T14:17:02.129Z</time><hdop>3.0</hdop><vdop>2.5</vdop><extensions><gom:speed>0.957</gom:speed></extensions></trkpt>
   <trkpt lat="59.2973300743" lon="34.6579714712"><ele>162.679</ele><time>2026-08-16T14:17:03.136Z</time><hdop>3.0</hdop><vdop>2.5</vdop><extensions><gom:speed>0.856</gom:speed></extensions></trkpt>
   <trkpt lat="59.2973244584" lon="34.6579619996"><ele>162.541</ele><time>2026-08-16T14:17:04.110Z</time><hdop>3.0</hdop><vdop>2.5</vdop><extensions><gom:speed>0.891</gom:speed></extensions></trkpt>
   <trkpt lat="59.2973191778" lon="34.6579625864"><ele>162.304</ele><time>2026-08-16T14:17:04.926Z</time><hdop>3.0</hdop><vdop>2.5</vdop><extensions><gom:speed>0.848</gom:speed></extensions></trkpt>
   <trkpt lat="59.2973168728" lon="34.657959988"><ele>161.772</ele><time>2026-08-16T14:17:06.136Z</time><hdop>3.0</hdop><vdop>2.5</vdop><extensions><gom:speed>0.431</gom:speed></extensions></trkpt>
   <trkpt lat="59.2973159927" lon="34.6579588983"><ele>161.454</ele><time>2026-08-16T14:17:06.771Z</time><hdop>3.0</hdop><vdop>2.5</vdop><extensions><gom:speed>0.438</gom:speed></extensions></trkpt>
   <trkpt lat="59.2973140648" lon="34.6579586469"><ele>160.863</ele><time>2026-08-16T14:17:07.655Z</time><hdop>3.0</hdop><vdop>2.562</vdop><extensions><gom:speed>0.497</gom:speed></extensions></trkpt>
   <trkpt lat="59.2973109635" lon="34.6579619996"><ele>160.692</ele><time>2026-08-16T14:17:08.136Z</time><hdop>3.0</hdop><vdop>2.625</vdop><extensions><gom:speed>0.672</gom:speed></extensions></trkpt>
   <trkpt lat="59.2973041742" lon="34.6579700463"><ele>160.59</ele><time>2026-08-16T14:17:09.049Z</time><hdop>3.0</hdop><vdop>2.625</vdop><extensions><gom:speed>0.811</gom:speed></extensions></trkpt>
   <trkpt lat="59.2973000671" lon="34.6579784282"><ele>160.217</ele><time>2026-08-16T14:17:09.588Z</time><hdop>3.0</hdop><vdop>2.562</vdop><extensions><gom:speed>0.856</gom:speed></extensions></trkpt>
   <trkpt lat="59.2972970915" lon="34.6579861395"><ele>160.076</ele><time>2026-08-16T14:17:10.136Z</time><hdop>3.0</hdop><vdop>2.625</vdop><extensions><gom:speed>0.856</gom:speed></extensions></trkpt>
   <trkpt lat="59.2972920623" lon="34.6580002211"><ele>159.993</ele><time>2026-08-16T14:17:11.110Z</time><hdop>3.0</hdop><vdop>2.625</vdop><extensions><gom:speed>0.914</gom:speed></extensions></trkpt>
   <trkpt lat="59.2972884581" lon="34.6580106985"><ele>159.98</ele><time>2026-08-16T14:17:11.826Z</time><hdop>3.0</hdop><vdop>2.625</vdop><extensions><gom:speed>0.881</gom:speed></extensions></trkpt>
   <trkpt lat="59.29728389" lon="34.6580174878"><ele>160.305</ele><time>2026-08-16T14:17:12.435Z</time><hdop>3.0</hdop><vdop>2.75</vdop><extensions><gom:speed>0.933</gom:speed></extensions></trkpt>
   <trkpt lat="59.2972785675" lon="34.6580226846"><ele>160.288</ele><time>2026-08-16T14:17:13.136Z</time><hdop>3.0</hdop><vdop>2.75</vdop><extensions><gom:speed>0.939</gom:speed></extensions></trkpt>
   <trkpt lat="59.2972733707" lon="34.6580261212"><ele>160.278</ele><time>2026-08-16T14:17:13.750Z</time><hdop>3.0</hdop><vdop>2.75</vdop><extensions><gom:speed>0.93</gom:speed></extensions></trkpt>
   <trkpt lat="59.2972672938" lon="34.6580305636"><ele>160.294</ele><time>2026-08-16T14:17:14.634Z</time><hdop>3.0</hdop><vdop>2.812</vdop><extensions><gom:speed>0.925</gom:speed></extensions></trkpt>
   <trkpt lat="59.2972647792" lon="34.6580350898"><ele>160.514</ele><time>2026-08-16T14:17:15.136Z</time><hdop>3.0</hdop><vdop>3.0</vdop><extensions><gom:speed>0.894</gom:speed></extensions></trkpt>
   <trkpt lat="59.2972601692" lon="34.6580439746"><ele>160.646</ele><time>2026-08-16T14:17:15.949Z</time><hdop>3.0</hdop><vdop>3.0</vdop><extensions><gom:speed>0.895</gom:speed></extensions></trkpt>
   <trkpt lat="59.2972585766" lon="34.6580536977"><ele>160.931</ele><time>2026-08-16T14:17:16.607Z</time><hdop>3.0</hdop><vdop>2.937</vdop><extensions><gom:speed>0.923</gom:speed></extensions></trkpt>
   <trkpt lat="59.2972576965" lon="34.6580602355"><ele>161.159</ele><time>2026-08-16T14:17:17.136Z</time><hdop>3.0</hdop><vdop>3.0</vdop><extensions><gom:speed>0.921</gom:speed></extensions></trkpt>
   <trkpt lat="59.2972543857" lon="34.6580726408"><ele>161.409</ele><time>2026-08-16T14:17:18.136Z</time><hdop>3.0</hdop><vdop>2.625</vdop><extensions><gom:speed>0.937</gom:speed></extensions></trkpt>
   <trkpt lat="59.297250069" lon="34.6580827829"><ele>161.559</ele><time>2026-08-16T14:17:18.933Z</time><hdop>3.0</hdop><vdop>2.625</vdop><extensions><gom:speed>0.947</gom:speed></extensions></trkpt>
   <trkpt lat="59.2972491889" lon="34.658093847"><ele>161.543</ele><time>2026-08-16T14:17:19.669Z</time><hdop>3.0</hdop><vdop>2.687</vdop><extensions><gom:speed>0.945</gom:speed></extensions></trkpt>
   <trkpt lat="59.2972490632" lon="34.6581011392"><ele>161.285</ele><time>2026-08-16T14:17:20.136Z</time><hdop>3.0</hdop><vdop>2.625</vdop><extensions><gom:speed>0.929</gom:speed></extensions></trkpt>
   <trkpt lat="59.2972469677" lon="34.6581138797"><ele>161.188</ele><time>2026-08-16T14:17:21.136Z</time><hdop>3.0</hdop><vdop>2.5</vdop><extensions><gom:speed>0.89</gom:speed></extensions></trkpt>
   <trkpt lat="59.29724219" lon="34.658118825"><ele>161.267</ele><time>2026-08-16T14:17:22.136Z</time><hdop>3.0</hdop><vdop>2.5</vdop><extensions><gom:speed>0.868</gom:speed></extensions></trkpt>
   <trkpt lat="59.2972386696" lon="34.6581204176"><ele>161.315</ele><time>2026-08-16T14:17:22.633Z</time><hdop>3.0</hdop><vdop>2.5</vdop><extensions><gom:speed>0.862</gom:speed></extensions></trkpt>
   <trkpt lat="59.2972360712" lon="34.658119328"><ele>161.284</ele><time>2026-08-16T14:17:23.136Z</time><hdop>3.0</hdop><vdop>2.5</vdop><extensions><gom:speed>0.822</gom:speed></extensions></trkpt>
   <trkpt lat="59.2972299943" lon="34.6581148855"><ele>161.273</ele><time>2026-08-16T14:17:24.136Z</time><hdop>3.0</hdop><vdop>2.625</vdop><extensions><gom:speed>0.778</gom:speed></extensions></trkpt>
   <trkpt lat="59.2972267673" lon="34.6581083477"><ele>161.324</ele><time>2026-08-16T14:17:25.136Z</time><hdop>3.0</hdop><vdop>2.5</vdop><extensions><gom:speed>0.487</gom:speed></extensions></trkpt>
   <trkpt lat="59.2972257615" lon="34.6581097726"><ele>161.355</ele><time>2026-08-16T14:17:25.696Z</time><hdop>3.0</hdop><vdop>2.5</vdop><extensions><gom:speed>0.481</gom:speed></extensions></trkpt>
   <trkpt lat="59.2972224925" lon="34.6581175678"><ele>161.562</ele><time>2026-08-16T14:17:26.451Z</time><hdop>3.0</hdop><vdop>2.5</vdop><extensions><gom:speed>0.674</gom:speed></extensions></trkpt>
   <trkpt lat="59.2972200618" lon="34.6581212558"><ele>161.686</ele><time>2026-08-16T14:17:27.011Z</time><hdop>3.0</hdop><vdop>2.5</vdop><extensions><gom:speed>0.573</gom:speed></extensions></trkpt>
   <trkpt lat="59.2972145716" lon="34.6581184898"><ele>161.891</ele><time>2026-08-16T14:17:28.130Z</time><hdop>3.0</hdop><vdop>2.5</vdop><extensions><gom:speed>0.593</gom:speed></extensions></trkpt>
   <trkpt lat="59.2972095844" lon="34.6581121195"><ele>161.9</ele><time>2026-08-16T14:17:28.974Z</time><hdop>3.0</hdop><vdop>2.5</vdop><extensions><gom:speed>0.696</gom:speed></extensions></trkpt>
   <trkpt lat="59.2972041781" lon="34.6581070904"><ele>162.168</ele><time>2026-08-16T14:17:29.710Z</time><hdop>3.0</hdop><vdop>2.5</vdop><extensions><gom:speed>0.738</gom:speed></extensions></trkpt>
   <trkpt lat="59.2971967601" lon="34.6581029832"><ele>162.73</ele><time>2026-08-16T14:17:30.495Z</time><hdop>3.0</hdop><vdop>2.5</vdop><extensions><gom:speed>0.838</gom:speed></extensions></trkpt>
   <trkpt lat="59.2971908928" lon="34.6580988761"><ele>163.291</ele><time>2026-08-16T14:17:31.136Z</time><hdop>3.0</hdop><vdop>2.5</vdop><extensions><gom:speed>0.914</gom:speed></extensions></trkpt>
   <trkpt lat="59.297184774" lon="34.6580952719"><ele>163.626</ele><time>2026-08-16T14:17:31.771Z</time><hdop>3.0</hdop><vdop>2.5</vdop><extensions><gom:speed>0.929</gom:speed></extensions></trkpt>
   <trkpt lat="59.2971787809" lon="34.6580902428"><ele>164.063</ele><time>2026-08-16T14:17:32.448Z</time><hdop>3.0</hdop><vdop>2.5</vdop><extensions><gom:speed>0.906</gom:speed></extensions></trkpt>
   <trkpt lat="59.2971728717" lon="34.6580883987"><ele>164.484</ele><time>2026-08-16T14:17:33.136Z</time><hdop>3.0</hdop><vdop>2.5</vdop><extensions><gom:speed>0.89</gom:speed></extensions></trkpt>
   <trkpt lat="59.2971667948" lon="34.6580881473"><ele>164.736</ele><time>2026-08-16T14:17:33.833Z</time><hdop>3.0</hdop><vdop>2.5</vdop><extensions><gom:speed>0.895</gom:speed></extensions></trkpt>
   <trkpt lat="59.2971619752" lon="34.6580858842"><ele>164.69</ele><time>2026-08-16T14:17:34.353Z</time><hdop>3.0</hdop><vdop>2.5</vdop><extensions><gom:speed>0.946</gom:speed></extensions></trkpt>
   <trkpt lat="59.2971545991" lon="34.6580804359"><ele>164.662</ele><time>2026-08-16T14:17:35.128Z</time><hdop>3.0</hdop><vdop>2.5</vdop><extensions><gom:speed>0.969</gom:speed></extensions></trkpt>
   <trkpt lat="59.2971496957" lon="34.6580722217"><ele>164.567</ele><time>2026-08-16T14:17:35.747Z</time><hdop>3.0</hdop><vdop>2.5</vdop><extensions><gom:speed>0.971</gom:speed></extensions></trkpt>
   <trkpt lat="59.2971437865" lon="34.6580616605"><ele>164.353</ele><time>2026-08-16T14:17:36.609Z</time><hdop>3.0</hdop><vdop>2.5</vdop><extensions><gom:speed>0.969</gom:speed></extensions></trkpt>
   <trkpt lat="59.2971405594" lon="34.6580564637"><ele>164.18</ele><time>2026-08-16T14:17:37.135Z</time><hdop>3.0</hdop><vdop>2.5</vdop><extensions><gom:speed>0.927</gom:speed></extensions></trkpt>
   <trkpt lat="59.2971344826" lon="34.6580484171"><ele>164.295</ele><time>2026-08-16T14:17:38.136Z</time><hdop>3.0</hdop><vdop>2.5</vdop><extensions><gom:speed>0.872</gom:speed></extensions></trkpt>
   <trkpt lat="59.2971302916" lon="34.6580442261"><ele>164.363</ele><time>2026-08-16T14:17:38.770Z</time><hdop>3.0</hdop><vdop>2.5</vdop><extensions><gom:speed>0.878</gom:speed></extensions></trkpt>
   <trkpt lat="59.2971260587" lon="34.658040119"><ele>164.544</ele><time>2026-08-16T14:17:39.506Z</time><hdop>3.0</hdop><vdop>2.5</vdop><extensions><gom:speed>0.853</gom:speed></extensions></trkpt>
   <trkpt lat="59.2971221612" lon="34.6580370177"><ele>164.652</ele><time>2026-08-16T14:17:39.987Z</time><hdop>3.0</hdop><vdop>2.5</vdop><extensions><gom:speed>0.883</gom:speed></extensions></trkpt>
   <trkpt lat="59.2971161681" lon="34.6580337487"><ele>164.314</ele><time>2026-08-16T14:17:40.831Z</time><hdop>3.0</hdop><vdop>2.5</vdop><extensions><gom:speed>0.866</gom:speed></extensions></trkpt>
   <trkpt lat="59.2971126896" lon="34.6580296416"><ele>164.438</ele><time>2026-08-16T14:17:41.469Z</time><hdop>3.0</hdop><vdop>2.5</vdop><extensions><gom:speed>0.846</gom:speed></extensions></trkpt>
   <trkpt lat="59.2971084987" lon="34.6580260374"><ele>164.483</ele><time>2026-08-16T14:17:42.136Z</time><hdop>3.0</hdop><vdop>2.5</vdop><extensions><gom:speed>0.866</gom:speed></extensions></trkpt>
   <trkpt lat="59.2971006616" lon="34.6580235228"><ele>164.511</ele><time>2026-08-16T14:17:43.069Z</time><hdop>3.0</hdop><vdop>2.5</vdop><extensions><gom:speed>0.889</gom:speed></extensions></trkpt>
   <trkpt lat="59.2970952972" lon="34.6580283843"><ele>164.609</ele><time>2026-08-16T14:17:43.746Z</time><hdop>3.0</hdop><vdop>2.5</vdop><extensions><gom:speed>0.9</gom:speed></extensions></trkpt>
   <trkpt lat="59.2970907709" lon="34.6580326591"><ele>164.567</ele><time>2026-08-16T14:17:44.335Z</time><hdop>3.0</hdop><vdop>2.5</vdop><extensions><gom:speed>0.89</gom:speed></extensions></trkpt>
   <trkpt lat="59.2970840654" lon="34.6580330782"><ele>164.699</ele><time>2026-08-16T14:17:45.136Z</time><hdop>3.0</hdop><vdop>2.5</vdop><extensions><gom:speed>0.933</gom:speed></extensions></trkpt>
   <trkpt lat="59.2970745939" lon="34.658028049"><ele>164.778</ele><time>2026-08-16T14:17:46.092Z</time><hdop>3.0</hdop><vdop>2.5</vdop><extensions><gom:speed>1.026</gom:speed></extensions></trkpt>
   <trkpt lat="59.2970692713" lon="34.6580228523"><ele>164.996</ele><time>2026-08-16T14:17:46.730Z</time><hdop>3.0</hdop><vdop>2.5</vdop><extensions><gom:speed>0.996</gom:speed></extensions></trkpt>
   <trkpt lat="59.2970646613" lon="34.6580156438"><ele>164.982</ele><time>2026-08-16T14:17:47.407Z</time><hdop>3.0</hdop><vdop>2.5</vdop><extensions><gom:speed>1.016</gom:speed></extensions></trkpt>
   <trkpt lat="59.2970594645" lon="34.6580065914"><ele>165.095</ele><time>2026-08-16T14:17:48.136Z</time><hdop>3.0</hdop><vdop>2.5</vdop><extensions><gom:speed>1.04</gom:speed></extensions></trkpt>
   <trkpt lat="59.2970541839" lon="34.6579975389"><ele>165.162</ele><time>2026-08-16T14:17:48.831Z</time><hdop>3.0</hdop><vdop>2.5</vdop><extensions><gom:speed>1.048</gom:speed></extensions></trkpt>
   <trkpt lat="59.2970500768" lon="34.6579857204"><ele>165.392</ele><time>2026-08-16T14:17:49.547Z</time><hdop>3.0</hdop><vdop>2.5</vdop><extensions><gom:speed>1.034</gom:speed></extensions></trkpt>
   <trkpt lat="59.297046263" lon="34.6579781767"><ele>165.529</ele><time>2026-08-16T14:17:50.067Z</time><hdop>3.0</hdop><vdop>2.5</vdop><extensions><gom:speed>1.034</gom:speed></extensions></trkpt>
   <trkpt lat="59.2970427845" lon="34.6579684537"><ele>165.772</ele><time>2026-08-16T14:17:50.892Z</time><hdop>3.0</hdop><vdop>2.5</vdop><extensions><gom:speed>0.946</gom:speed></extensions></trkpt>
   <trkpt lat="59.2970382583" lon="34.6579632569"><ele>165.912</ele><time>2026-08-16T14:17:51.589Z</time><hdop>3.0</hdop><vdop>2.5</vdop><extensions><gom:speed>0.956</gom:speed></extensions></trkpt>
   <trkpt lat="59.2970344864" lon="34.6579606585"><ele>165.977</ele><time>2026-08-16T14:17:52.136Z</time><hdop>3.0</hdop><vdop>2.5</vdop><extensions><gom:speed>0.891</gom:speed></extensions></trkpt>
   <trkpt lat="59.297029583" lon="34.6579577249"><ele>166.015</ele><time>2026-08-16T14:17:52.767Z</time><hdop>3.0</hdop><vdop>2.5</vdop><extensions><gom:speed>0.89</gom:speed></extensions></trkpt>
   <trkpt lat="59.2970228775" lon="34.6579531986"><ele>166.018</ele><time>2026-08-16T14:17:53.532Z</time><hdop>3.0</hdop><vdop>2.5</vdop><extensions><gom:speed>0.916</gom:speed></extensions></trkpt>
   <trkpt lat="59.297018477" lon="34.6579508517"><ele>165.86</ele><time>2026-08-16T14:17:54.136Z</time><hdop>3.0</hdop><vdop>2.5</vdop><extensions><gom:speed>0.866</gom:speed></extensions></trkpt>
   <trkpt lat="59.2970126935" lon="34.6579485886"><ele>165.765</ele><time>2026-08-16T14:17:54.848Z</time><hdop>3.0</hdop><vdop>2.5</vdop><extensions><gom:speed>0.859</gom:speed></extensions></trkpt>
   <trkpt lat="59.2970084606" lon="34.6579504326"><ele>165.679</ele><time>2026-08-16T14:17:55.387Z</time><hdop>3.0</hdop><vdop>2.5</vdop><extensions><gom:speed>0.85</gom:speed></extensions></trkpt>
   <trkpt lat="59.2970021742" lon="34.6579501812"><ele>165.71</ele><time>2026-08-16T14:17:56.136Z</time><hdop>3.0</hdop><vdop>2.5</vdop><extensions><gom:speed>0.877</gom:speed></extensions></trkpt>
   <trkpt lat="59.2969964745" lon="34.6579481695"><ele>165.728</ele><time>2026-08-16T14:17:56.771Z</time><hdop>3.0</hdop><vdop>2.5</vdop><extensions><gom:speed>0.886</gom:speed></extensions></trkpt>
   <trkpt lat="59.2969926608" lon="34.6579476666"><ele>165.602</ele><time>2026-08-16T14:17:57.233Z</time><hdop>3.0</hdop><vdop>2.5</vdop><extensions><gom:speed>0.891</gom:speed></extensions></trkpt>
   <trkpt lat="59.2969867934" lon="34.65794423"><ele>165.527</ele><time>2026-08-16T14:17:57.949Z</time><hdop>3.0</hdop><vdop>2.5</vdop><extensions><gom:speed>0.896</gom:speed></extensions></trkpt>
   <trkpt lat="59.2969785792" lon="34.6579424698"><ele>165.335</ele><time>2026-08-16T14:17:58.715Z</time><hdop>3.0</hdop><vdop>2.5</vdop><extensions><gom:speed>0.986</gom:speed></extensions></trkpt>
   <trkpt lat="59.2969710774" lon="34.6579458226"><ele>164.989</ele><time>2026-08-16T14:17:59.255Z</time><hdop>3.0</hdop><vdop>2.5</vdop><extensions><gom:speed>1.061</gom:speed></extensions></trkpt>
   <trkpt lat="59.2969632822" lon="34.65794884"><ele>164.783</ele><time>2026-08-16T14:17:59.971Z</time><hdop>3.0</hdop><vdop>2.5</vdop><extensions><gom:speed>1.029</gom:speed></extensions></trkpt>
   <trkpt lat="59.2969576663" lon="34.6579537854"><ele>164.233</ele><time>2026-08-16T14:18:00.531Z</time><hdop>3.0</hdop><vdop>2.5</vdop><extensions><gom:speed>1.024</gom:speed></extensions></trkpt>
   <trkpt lat="59.2969501645" lon="34.6579554618"><ele>164.042</ele><time>2026-08-16T14:18:01.136Z</time><hdop>3.0</hdop><vdop>2.5</vdop><extensions><gom:speed>1.142</gom:speed></extensions></trkpt>
   <trkpt lat="59.2969409863" lon="34.6579526957"><ele>163.928</ele><time>2026-08-16T14:18:01.875Z</time><hdop>3.0</hdop><vdop>2.5</vdop><extensions><gom:speed>1.155</gom:speed></extensions></trkpt>
   <trkpt lat="59.2969306766" lon="34.6579522766"><ele>164.071</ele><time>2026-08-16T14:18:02.690Z</time><hdop>3.0</hdop><vdop>2.5</vdop><extensions><gom:speed>1.142</gom:speed></extensions></trkpt>
   <trkpt lat="59.2969250607" lon="34.6579558808"><ele>164.255</ele><time>2026-08-16T14:18:03.171Z</time><hdop>3.0</hdop><vdop>2.5</vdop><extensions><gom:speed>1.146</gom:speed></extensions></trkpt>
   <trkpt lat="59.2969167626" lon="34.6579587307"><ele>164.365</ele><time>2026-08-16T14:18:03.966Z</time><hdop>3.0</hdop><vdop>2.5</vdop><extensions><gom:speed>1.093</gom:speed></extensions></trkpt>
   <trkpt lat="59.2969108953" lon="34.6579631731"><ele>164.634</ele><time>2026-08-16T14:18:04.447Z</time><hdop>3.0</hdop><vdop>2.5</vdop><extensions><gom:speed>1.134</gom:speed></extensions></trkpt>
   <trkpt lat="59.2969033935" lon="34.657966442"><ele>164.816</ele><time>2026-08-16T14:18:05.136Z</time><hdop>3.0</hdop><vdop>2.5</vdop><extensions><gom:speed>1.122</gom:speed></extensions></trkpt>
   <trkpt lat="59.2968948859" lon="34.6579713874"><ele>164.925</ele><time>2026-08-16T14:18:05.929Z</time><hdop>3.0</hdop><vdop>2.5</vdop><extensions><gom:speed>1.107</gom:speed></extensions></trkpt>
   <trkpt lat="59.2968838636" lon="34.6579764165"><ele>165.349</ele><time>2026-08-16T14:18:07.136Z</time><hdop>3.0</hdop><vdop>2.5</vdop><extensions><gom:speed>1.048</gom:speed></extensions></trkpt>
   <trkpt lat="59.2968757751" lon="34.6579728961"><ele>165.602</ele><time>2026-08-16T14:18:07.932Z</time><hdop>3.0</hdop><vdop>2.5</vdop><extensions><gom:speed>1.05</gom:speed></extensions></trkpt>
   <trkpt lat="59.2968729672" lon="34.6579673641"><ele>166.077</ele><time>2026-08-16T14:18:08.471Z</time><hdop>3.0</hdop><vdop>2.687</vdop><extensions><gom:speed>0.956</gom:speed></extensions></trkpt>
   <trkpt lat="59.2968691953" lon="34.6579626702"><ele>166.061</ele><time>2026-08-16T14:18:09.136Z</time><hdop>3.0</hdop><vdop>2.687</vdop><extensions><gom:speed>0.886</gom:speed></extensions></trkpt>
   <trkpt lat="59.2968617773" lon="34.6579561323"><ele>166.051</ele><time>2026-08-16T14:18:10.150Z</time><hdop>3.0</hdop><vdop>2.687</vdop><extensions><gom:speed>0.893</gom:speed></extensions></trkpt>
   <trkpt lat="59.2968585922" lon="34.6579486724"><ele>166.022</ele><time>2026-08-16T14:18:10.806Z</time><hdop>3.0</hdop><vdop>2.812</vdop><extensions><gom:speed>0.834</gom:speed></extensions></trkpt>
   <trkpt lat="59.2968566644" lon="34.657940039"><ele>165.581</ele><time>2026-08-16T14:18:11.347Z</time><hdop>3.0</hdop><vdop>2.812</vdop><extensions><gom:speed>0.907</gom:speed></extensions></trkpt>
   <trkpt lat="59.2968513838" lon="34.6579304837"><ele>165.317</ele><time>2026-08-16T14:18:12.133Z</time><hdop>3.0</hdop><vdop>2.812</vdop><extensions><gom:speed>0.963</gom:speed></extensions></trkpt>
   <trkpt lat="59.2968479891" lon="34.6579194196"><ele>164.85</ele><time>2026-08-16T14:18:12.947Z</time><hdop>3.0</hdop><vdop>2.875</vdop><extensions><gom:speed>0.883</gom:speed></extensions></trkpt>
   <trkpt lat="59.2968447621" lon="34.6579093613"><ele>164.317</ele><time>2026-08-16T14:18:13.595Z</time><hdop>3.0</hdop><vdop>2.937</vdop><extensions><gom:speed>0.909</gom:speed></extensions></trkpt>
   <trkpt lat="59.2968409902" lon="34.6579010632"><ele>163.889</ele><time>2026-08-16T14:18:14.136Z</time><hdop>3.0</hdop><vdop>2.875</vdop><extensions><gom:speed>0.968</gom:speed></extensions></trkpt>
   <trkpt lat="59.2968338656" lon="34.6578893285"><ele>163.634</ele><time>2026-08-16T14:18:15.028Z</time><hdop>3.0</hdop><vdop>2.875</vdop><extensions><gom:speed>0.98</gom:speed></extensions></trkpt>
   <trkpt lat="59.2968301776" lon="34.6578818686"><ele>163.704</ele><time>2026-08-16T14:18:15.529Z</time><hdop>3.0</hdop><vdop>2.812</vdop><extensions><gom:speed>0.927</gom:speed></extensions></trkpt>
   <trkpt lat="59.2968269924" lon="34.6578721456"><ele>163.822</ele><time>2026-08-16T14:18:16.136Z</time><hdop>3.0</hdop><vdop>2.687</vdop><extensions><gom:speed>0.83</gom:speed></extensions></trkpt>
   <trkpt lat="59.2968237654" lon="34.6578578964"><ele>163.893</ele><time>2026-08-16T14:18:17.011Z</time><hdop>3.0</hdop><vdop>2.687</vdop><extensions><gom:speed>0.851</gom:speed></extensions></trkpt>
   <trkpt lat="59.2968208736" lon="34.6578421384"><ele>164.071</ele><time>2026-08-16T14:18:17.816Z</time><hdop>3.0</hdop><vdop>2.5</vdop><extensions><gom:speed>0.895</gom:speed></extensions></trkpt>
   <trkpt lat="59.2968185686" lon="34.6578303199"><ele>164.295</ele><time>2026-08-16T14:18:18.513Z</time><hdop>3.0</hdop><vdop>2.5</vdop><extensions><gom:speed>0.839</gom:speed></extensions></trkpt>
   <trkpt lat="59.2968154673" lon="34.6578235306"><ele>164.572</ele><time>2026-08-16T14:18:19.136Z</time><hdop>3.0</hdop><vdop>2.5</vdop><extensions><gom:speed>0.776</gom:speed></extensions></trkpt>
   <trkpt lat="59.2968096838" lon="34.6578179985"><ele>164.681</ele><time>2026-08-16T14:18:20.136Z</time><hdop>3.0</hdop><vdop>2.5</vdop><extensions><gom:speed>0.698</gom:speed></extensions></trkpt>
   <trkpt lat="59.296807295" lon="34.6578149811"><ele>164.746</ele><time>2026-08-16T14:18:20.593Z</time><hdop>3.0</hdop><vdop>2.5</vdop><extensions><gom:speed>0.691</gom:speed></extensions></trkpt>
   <trkpt lat="59.2968050738" lon="34.6578100357"><ele>164.937</ele><time>2026-08-16T14:18:21.136Z</time><hdop>3.0</hdop><vdop>2.5</vdop><extensions><gom:speed>0.696</gom:speed></extensions></trkpt>
   <trkpt lat="59.2968038584" lon="34.6578047551"><ele>165.051</ele><time>2026-08-16T14:18:21.614Z</time><hdop>3.0</hdop><vdop>2.5</vdop><extensions><gom:speed>0.696</gom:speed></extensions></trkpt>
   <trkpt lat="59.296803565" lon="34.6577971276"><ele>165.309</ele><time>2026-08-16T14:18:22.136Z</time><hdop>3.0</hdop><vdop>2.5</vdop><extensions><gom:speed>0.762</gom:speed></extensions></trkpt>
   <trkpt lat="59.2968019725" lon="34.6577855606"><ele>165.463</ele><time>2026-08-16T14:18:22.910Z</time><hdop>3.0</hdop><vdop>2.5</vdop><extensions><gom:speed>0.771</gom:speed></extensions></trkpt>
   <trkpt lat="59.2967979911" lon="34.6577766758"><ele>165.275</ele><time>2026-08-16T14:18:23.587Z</time><hdop>3.0</hdop><vdop>2.5</vdop><extensions><gom:speed>0.818</gom:speed></extensions></trkpt>
   <trkpt lat="59.2967939677" lon="34.6577710599"><ele>165.133</ele><time>2026-08-16T14:18:24.136Z</time><hdop>3.0</hdop><vdop>2.5</vdop><extensions><gom:speed>0.827</gom:speed></extensions></trkpt>
   <trkpt lat="59.2967885614" lon="34.6577649411"><ele>165.048</ele><time>2026-08-16T14:18:24.853Z</time><hdop>3.0</hdop><vdop>2.5</vdop><extensions><gom:speed>0.829</gom:speed></extensions></trkpt>
   <trkpt lat="59.2967811853" lon="34.6577623427"><ele>165.407</ele><time>2026-08-16T14:18:25.668Z</time><hdop>3.0</hdop><vdop>2.5</vdop><extensions><gom:speed>0.817</gom:speed></extensions></trkpt>
   <trkpt lat="59.296777162" lon="34.6577614207"><ele>165.507</ele><time>2026-08-16T14:18:26.136Z</time><hdop>3.0</hdop><vdop>2.5</vdop><extensions><gom:speed>0.859</gom:speed></extensions></trkpt>
   <trkpt lat="59.2967672714" lon="34.6577551343"><ele>165.654</ele><time>2026-08-16T14:18:27.136Z</time><hdop>3.0</hdop><vdop>2.5</vdop><extensions><gom:speed>0.977</gom:speed></extensions></trkpt>
   <trkpt lat="59.2967615717" lon="34.6577467524"><ele>165.743</ele><time>2026-08-16T14:18:27.788Z</time><hdop>3.0</hdop><vdop>2.5</vdop><extensions><gom:speed>0.987</gom:speed></extensions></trkpt>
   <trkpt lat="59.2967555786" lon="34.6577403821"><ele>165.675</ele><time>2026-08-16T14:18:28.474Z</time><hdop>3.0</hdop><vdop>2.5</vdop><extensions><gom:speed>0.941</gom:speed></extensions></trkpt>
   <trkpt lat="59.2967504657" lon="34.6577348501"><ele>165.635</ele><time>2026-08-16T14:18:29.054Z</time><hdop>3.0</hdop><vdop>2.5</vdop><extensions><gom:speed>0.967</gom:speed></extensions></trkpt>
   <trkpt lat="59.2967424609" lon="34.6577357721"><ele>165.48</ele><time>2026-08-16T14:18:30.136Z</time><hdop>3.0</hdop><vdop>2.5</vdop><extensions><gom:speed>1.17</gom:speed></extensions></trkpt>
   <trkpt lat="59.2967401978" lon="34.6577437349"><ele>165.387</ele><time>2026-08-16T14:18:31.134Z</time><hdop>3.062</hdop><vdop>2.5</vdop><extensions><gom:speed>1.042</gom:speed></extensions></trkpt>
   <trkpt lat="59.2967364679" lon="34.6577502728"><ele>165.265</ele><time>2026-08-16T14:18:31.793Z</time><hdop>3.125</hdop><vdop>2.5</vdop><extensions><gom:speed>0.976</gom:speed></extensions></trkpt>
   <trkpt lat="59.2967332828" lon="34.6577785198"><ele>165.52</ele><time>2026-08-16T14:18:32.715Z</time><hdop>3.25</hdop><vdop>2.5</vdop><extensions><gom:speed>1.039</gom:speed></extensions></trkpt>
   <trkpt lat="59.2967361745" lon="34.6577991393"><ele>165.465</ele><time>2026-08-16T14:18:33.471Z</time><hdop>3.25</hdop><vdop>2.5</vdop><extensions><gom:speed>0.971</gom:speed></extensions></trkpt>
   <trkpt lat="59.2967393596" lon="34.6578086946"><ele>165.432</ele><time>2026-08-16T14:18:34.129Z</time><hdop>3.312</hdop><vdop>2.5</vdop><extensions><gom:speed>0.905</gom:speed></extensions></trkpt>
   <trkpt lat="59.2967442631" lon="34.6578188367"><ele>165.598</ele><time>2026-08-16T14:18:34.806Z</time><hdop>3.312</hdop><vdop>2.5</vdop><extensions><gom:speed>0.922</gom:speed></extensions></trkpt>
   <trkpt lat="59.2967490826" lon="34.6578277215"><ele>165.489</ele><time>2026-08-16T14:18:35.454Z</time><hdop>3.312</hdop><vdop>2.5</vdop><extensions><gom:speed>0.862</gom:speed></extensions></trkpt>
   <trkpt lat="59.2967494598" lon="34.6578370255"><ele>165.694</ele><time>2026-08-16T14:18:36.136Z</time><hdop>3.25</hdop><vdop>2.5</vdop><extensions><gom:speed>0.854</gom:speed></extensions></trkpt>
   <trkpt lat="59.2967425867" lon="34.6578445692"><ele>165.816</ele><time>2026-08-16T14:18:37.053Z</time><hdop>3.187</hdop><vdop>2.5</vdop><extensions><gom:speed>0.856</gom:speed></extensions></trkpt>
   <trkpt lat="59.2967360907" lon="34.657845575"><ele>165.831</ele><time>2026-08-16T14:18:38.055Z</time><hdop>3.062</hdop><vdop>2.5</vdop><extensions><gom:speed>0.769</gom:speed></extensions></trkpt>
   <trkpt lat="59.2967336599" lon="34.6578508556"><ele>166.012</ele><time>2026-08-16T14:18:38.889Z</time><hdop>3.062</hdop><vdop>2.5</vdop><extensions><gom:speed>0.741</gom:speed></extensions></trkpt>
   <trkpt lat="59.2967318997" lon="34.6578514423"><ele>165.95</ele><time>2026-08-16T14:18:39.675Z</time><hdop>3.0</hdop><vdop>2.5</vdop><extensions><gom:speed>0.621</gom:speed></extensions></trkpt>
   <trkpt lat="59.2967293852" lon="34.6578505203"><ele>165.984</ele><time>2026-08-16T14:18:40.136Z</time><hdop>3.0</hdop><vdop>2.5</vdop><extensions><gom:speed>0.639</gom:speed></extensions></trkpt>
   <trkpt lat="59.2967244818" lon="34.6578508556"><ele>166.005</ele><time>2026-08-16T14:18:40.911Z</time><hdop>3.0</hdop><vdop>2.5</vdop><extensions><gom:speed>0.653</gom:speed></extensions></trkpt>
   <trkpt lat="59.29671698" lon="34.6578485925"><ele>166.423</ele><time>2026-08-16T14:18:41.726Z</time><hdop>3.0</hdop><vdop>2.5</vdop><extensions><gom:speed>0.757</gom:speed></extensions></trkpt>
   <trkpt lat="59.296710484" lon="34.6578396238"><ele>166.592</ele><time>2026-08-16T14:18:42.492Z</time><hdop>3.0</hdop><vdop>2.5</vdop><extensions><gom:speed>0.812</gom:speed></extensions></trkpt>
   <trkpt lat="59.2967052872" lon="34.6578302361"><ele>166.2</ele><time>2026-08-16T14:18:43.136Z</time><hdop>3.0</hdop><vdop>2.5</vdop><extensions><gom:speed>0.82</gom:speed></extensions></trkpt>
   <trkpt lat="59.2966992941" lon="34.6578243688"><ele>165.966</ele><time>2026-08-16T14:18:43.845Z</time><hdop>3.0</hdop><vdop>2.5</vdop><extensions><gom:speed>0.813</gom:speed></extensions></trkpt>
   <trkpt lat="59.2966922953" lon="34.6578195911"><ele>165.971</ele><time>2026-08-16T14:18:44.553Z</time><hdop>3.0</hdop><vdop>2.5</vdop><extensions><gom:speed>0.83</gom:speed></extensions></trkpt>
   <trkpt lat="59.296686386" lon="34.6578169927"><ele>166.049</ele><time>2026-08-16T14:18:45.136Z</time><hdop>3.0</hdop><vdop>2.5</vdop><extensions><gom:speed>0.839</gom:speed></extensions></trkpt>
   <trkpt lat="59.2966806863" lon="34.6578149811"><ele>166.096</ele><time>2026-08-16T14:18:45.750Z</time><hdop>3.0</hdop><vdop>2.5</vdop><extensions><gom:speed>0.834</gom:speed></extensions></trkpt>
   <trkpt lat="59.2966743999" lon="34.657808527"><ele>166.024</ele><time>2026-08-16T14:18:46.467Z</time><hdop>3.0</hdop><vdop>2.5</vdop><extensions><gom:speed>0.818</gom:speed></extensions></trkpt>
   <trkpt lat="59.2966688678" lon="34.6578039169"><ele>165.968</ele><time>2026-08-16T14:18:47.136Z</time><hdop>3.0</hdop><vdop>2.5</vdop><extensions><gom:speed>0.788</gom:speed></extensions></trkpt>
   <trkpt lat="59.2966612822" lon="34.6577967923"><ele>165.935</ele><time>2026-08-16T14:18:48.086Z</time><hdop>3.0</hdop><vdop>2.5</vdop><extensions><gom:speed>0.823</gom:speed></extensions></trkpt>
   <trkpt lat="59.2966558759" lon="34.657789081"><ele>165.99</ele><time>2026-08-16T14:18:48.734Z</time><hdop>3.0</hdop><vdop>2.5</vdop><extensions><gom:speed>0.828</gom:speed></extensions></trkpt>
   <trkpt lat="59.2966507629" lon="34.6577822916"><ele>165.884</ele><time>2026-08-16T14:18:49.274Z</time><hdop>3.0</hdop><vdop>2.5</vdop><extensions><gom:speed>0.903</gom:speed></extensions></trkpt>
   <trkpt lat="59.2966432611" lon="34.6577787712"><ele>165.821</ele><time>2026-08-16T14:18:50.089Z</time><hdop>3.0</hdop><vdop>2.5</vdop><extensions><gom:speed>0.943</gom:speed></extensions></trkpt>
   <trkpt lat="59.2966371842" lon="34.6577771787"><ele>165.44</ele><time>2026-08-16T14:18:50.835Z</time><hdop>3.0</hdop><vdop>2.5</vdop><extensions><gom:speed>0.91</gom:speed></extensions></trkpt>
   <trkpt lat="59.296626162" lon="34.6577788551"><ele>165.41</ele><time>2026-08-16T14:18:52.136Z</time><hdop>3.0</hdop><vdop>2.5</vdop><extensions><gom:speed>0.986</gom:speed></extensions></trkpt>
   <trkpt lat="59.2966150979" lon="34.6577754185"><ele>165.416</ele><time>2026-08-16T14:18:53.136Z</time><hdop>3.0</hdop><vdop>2.5</vdop><extensions><gom:speed>1.084</gom:speed></extensions></trkpt>
   <trkpt lat="59.2966076799" lon="34.6577618398"><ele>165.419</ele><time>2026-08-16T14:18:53.925Z</time><hdop>3.0</hdop><vdop>2.5</vdop><extensions><gom:speed>1.101</gom:speed></extensions></trkpt>
   <trkpt lat="59.2966005972" lon="34.6577461656"><ele>165.279</ele><time>2026-08-16T14:18:54.574Z</time><hdop>3.0</hdop><vdop>2.5</vdop><extensions><gom:speed>1.184</gom:speed></extensions></trkpt>
   <trkpt lat="59.2965942689" lon="34.6577389572"><ele>165.082</ele><time>2026-08-16T14:18:55.136Z</time><hdop>3.0</hdop><vdop>2.5</vdop><extensions><gom:speed>1.147</gom:speed></extensions></trkpt>
   <trkpt lat="59.2965844621" lon="34.6577386219"><ele>164.964</ele><time>2026-08-16T14:18:55.988Z</time><hdop>3.0</hdop><vdop>2.5</vdop><extensions><gom:speed>1.065</gom:speed></extensions></trkpt>
   <trkpt lat="59.2965725598" lon="34.6577386219"><ele>165.088</ele><time>2026-08-16T14:18:56.832Z</time><hdop>3.0</hdop><vdop>2.5</vdop><extensions><gom:speed>1.173</gom:speed></extensions></trkpt>
   <trkpt lat="59.2965596935" lon="34.657739041"><ele>164.933</ele><time>2026-08-16T14:18:57.990Z</time><hdop>3.0</hdop><vdop>2.5</vdop><extensions><gom:speed>1.151</gom:speed></extensions></trkpt>
   <trkpt lat="59.2965493838" lon="34.657737197"><ele>164.576</ele><time>2026-08-16T14:18:58.873Z</time><hdop>3.062</hdop><vdop>2.5</vdop><extensions><gom:speed>1.203</gom:speed></extensions></trkpt>
   <trkpt lat="59.2965435584" lon="34.6577326708"><ele>164.269</ele><time>2026-08-16T14:18:59.413Z</time><hdop>3.0</hdop><vdop>2.5</vdop><extensions><gom:speed>1.217</gom:speed></extensions></trkpt>
   <trkpt lat="59.2965360985" lon="34.6577306591"><ele>163.959</ele><time>2026-08-16T14:19:00.136Z</time><hdop>3.0</hdop><vdop>2.5</vdop><extensions><gom:speed>1.161</gom:speed></extensions></trkpt>
   <trkpt lat="59.2965303988" lon="34.657729318"><ele>163.773</ele><time>2026-08-16T14:19:00.669Z</time><hdop>3.0</hdop><vdop>2.5</vdop><extensions><gom:speed>1.159</gom:speed></extensions></trkpt>
   <trkpt lat="59.2965254954" lon="34.6577278931"><ele>163.663</ele><time>2026-08-16T14:19:01.131Z</time><hdop>3.0</hdop><vdop>2.5</vdop><extensions><gom:speed>1.088</gom:speed></extensions></trkpt>
   <trkpt lat="59.2965181612" lon="34.6577208523"><ele>163.714</ele><time>2026-08-16T14:19:02.054Z</time><hdop>3.0</hdop><vdop>2.5</vdop><extensions><gom:speed>1.039</gom:speed></extensions></trkpt>
   <trkpt lat="59.2965145989" lon="34.6577132247"><ele>163.634</ele><time>2026-08-16T14:19:02.612Z</time><hdop>3.0</hdop><vdop>2.5</vdop><extensions><gom:speed>1.058</gom:speed></extensions></trkpt>
   <trkpt lat="59.2965120843" lon="34.6577092853"><ele>163.414</ele><time>2026-08-16T14:19:03.136Z</time><hdop>3.0</hdop><vdop>2.5</vdop><extensions><gom:speed>0.952</gom:speed></extensions></trkpt>
   <trkpt lat="59.2965069714" lon="34.6577071898"><ele>163.283</ele><time>2026-08-16T14:19:03.850Z</time><hdop>3.0</hdop><vdop>2.5</vdop><extensions><gom:speed>0.949</gom:speed></extensions></trkpt>
   <trkpt lat="59.2965030738" lon="34.6577058487"><ele>163.309</ele><time>2026-08-16T14:19:04.615Z</time><hdop>3.0</hdop><vdop>2.5</vdop><extensions><gom:speed>0.892</gom:speed></extensions></trkpt>
   <trkpt lat="59.2964984637" lon="34.6577035856"><ele>163.326</ele><time>2026-08-16T14:19:05.136Z</time><hdop>3.0</hdop><vdop>2.5</vdop><extensions><gom:speed>0.967</gom:speed></extensions></trkpt>
   <trkpt lat="59.2964949853" lon="34.6576988917"><ele>163.134</ele><time>2026-08-16T14:19:05.774Z</time><hdop>3.0</hdop><vdop>2.5</vdop><extensions><gom:speed>0.964</gom:speed></extensions></trkpt>
   <trkpt lat="59.2964929736" lon="34.6576900907"><ele>162.891</ele><time>2026-08-16T14:19:06.510Z</time><hdop>3.0</hdop><vdop>2.5</vdop><extensions><gom:speed>0.93</gom:speed></extensions></trkpt>
   <trkpt lat="59.296489076" lon="34.6576828823"><ele>162.746</ele><time>2026-08-16T14:19:07.069Z</time><hdop>3.0</hdop><vdop>2.5</vdop><extensions><gom:speed>1.0</gom:speed></extensions></trkpt>
   <trkpt lat="59.2964872739" lon="34.6576761767"><ele>162.387</ele><time>2026-08-16T14:19:07.648Z</time><hdop>3.0</hdop><vdop>2.5</vdop><extensions><gom:speed>0.958</gom:speed></extensions></trkpt>
   <trkpt lat="59.2964858909" lon="34.6576706447"><ele>162.243</ele><time>2026-08-16T14:19:08.136Z</time><hdop>3.0</hdop><vdop>2.5</vdop><extensions><gom:speed>0.95</gom:speed></extensions></trkpt>
   <trkpt lat="59.2964800655" lon="34.6576596644"><ele>162.156</ele><time>2026-08-16T14:19:08.993Z</time><hdop>3.0</hdop><vdop>2.5</vdop><extensions><gom:speed>1.034</gom:speed></extensions></trkpt>
   <trkpt lat="59.2964767965" lon="34.6576412242"><ele>162.283</ele><time>2026-08-16T14:19:10.135Z</time><hdop>3.0</hdop><vdop>2.5</vdop><extensions><gom:speed>1.006</gom:speed></extensions></trkpt>
   <trkpt lat="59.2964728989" lon="34.6576263882"><ele>162.359</ele><time>2026-08-16T14:19:10.976Z</time><hdop>3.0</hdop><vdop>2.5</vdop><extensions><gom:speed>1.025</gom:speed></extensions></trkpt>
   <trkpt lat="59.2964710968" lon="34.6576094568"><ele>162.193</ele><time>2026-08-16T14:19:11.751Z</time><hdop>3.0</hdop><vdop>2.5</vdop><extensions><gom:speed>1.04</gom:speed></extensions></trkpt>
   <trkpt lat="59.296467786" lon="34.6575898431"><ele>162.28</ele><time>2026-08-16T14:19:12.752Z</time><hdop>3.0</hdop><vdop>2.5</vdop><extensions><gom:speed>1.026</gom:speed></extensions></trkpt>
   <trkpt lat="59.2964660677" lon="34.6575813774"><ele>162.309</ele><time>2026-08-16T14:19:13.253Z</time><hdop>3.0</hdop><vdop>2.5</vdop><extensions><gom:speed>1.012</gom:speed></extensions></trkpt>
   <trkpt lat="59.2964601584" lon="34.6575696427"><ele>162.403</ele><time>2026-08-16T14:19:14.136Z</time><hdop>3.0</hdop><vdop>2.5</vdop><extensions><gom:speed>1.049</gom:speed></extensions></trkpt>
   <trkpt lat="59.2964557999" lon="34.657564446"><ele>162.459</ele><time>2026-08-16T14:19:14.627Z</time><hdop>3.0</hdop><vdop>2.5</vdop><extensions><gom:speed>1.049</gom:speed></extensions></trkpt>
   <trkpt lat="59.2964530757" lon="34.6575623505"><ele>162.67</ele><time>2026-08-16T14:19:15.136Z</time><hdop>3.0</hdop><vdop>2.5</vdop><extensions><gom:speed>0.914</gom:speed></extensions></trkpt>
   <trkpt lat="59.2964464959" lon="34.6575591654"><ele>162.796</ele><time>2026-08-16T14:19:16.050Z</time><hdop>3.0</hdop><vdop>2.5</vdop><extensions><gom:speed>0.893</gom:speed></extensions></trkpt>
   <trkpt lat="59.2964420954" lon="34.6575541362"><ele>162.864</ele><time>2026-08-16T14:19:16.806Z</time><hdop>3.0</hdop><vdop>2.5</vdop><extensions><gom:speed>0.897</gom:speed></extensions></trkpt>
   <trkpt lat="59.2964465798" lon="34.6575326786"><ele>162.963</ele><time>2026-08-16T14:19:18.136Z</time><hdop>3.0</hdop><vdop>2.5</vdop><extensions><gom:speed>1.112</gom:speed></extensions></trkpt>
   <trkpt lat="59.2964521956" lon="34.6575169206"><ele>162.797</ele><time>2026-08-16T14:19:19.136Z</time><hdop>3.0</hdop><vdop>2.5</vdop><extensions><gom:speed>0.672</gom:speed></extensions></trkpt>
   <trkpt lat="59.2964519861" lon="34.6575113885"><ele>162.698</ele><time>2026-08-16T14:19:19.652Z</time><hdop>3.0</hdop><vdop>2.5</vdop><extensions><gom:speed>0.669</gom:speed></extensions></trkpt>
   <trkpt lat="59.2964516927" lon="34.6575082872"><ele>162.623</ele><time>2026-08-16T14:19:20.136Z</time><hdop>3.0</hdop><vdop>2.5</vdop><extensions><gom:speed>0.545</gom:speed></extensions></trkpt>
   <trkpt lat="59.2964487591" lon="34.6575038448"><ele>162.471</ele><time>2026-08-16T14:19:21.136Z</time><hdop>3.0</hdop><vdop>2.5</vdop><extensions><gom:speed>0.551</gom:speed></extensions></trkpt>
   <trkpt lat="59.2964460768" lon="34.657502839"><ele>162.38</ele><time>2026-08-16T14:19:21.655Z</time><hdop>3.0</hdop><vdop>2.5</vdop><extensions><gom:speed>0.554</gom:speed></extensions></trkpt>
   <trkpt lat="59.2964449872" lon="34.6575031743"><ele>162.334</ele><time>2026-08-16T14:19:22.136Z</time><hdop>3.0</hdop><vdop>2.5</vdop><extensions><gom:speed>0.4</gom:speed></extensions></trkpt>
   <trkpt lat="59.2964410896" lon="34.6575003244"><ele>162.306</ele><time>2026-08-16T14:19:23.127Z</time><hdop>3.0</hdop><vdop>2.5</vdop><extensions><gom:speed>0.562</gom:speed></extensions></trkpt>
   <trkpt lat="59.2964347613" lon="34.6574941218"><ele>162.293</ele><time>2026-08-16T14:19:24.030Z</time><hdop>3.0</hdop><vdop>2.5</vdop><extensions><gom:speed>0.763</gom:speed></extensions></trkpt>
   <trkpt lat="59.2964256669" lon="34.6574919425"><ele>162.297</ele><time>2026-08-16T14:19:25.136Z</time><hdop>3.0</hdop><vdop>2.562</vdop><extensions><gom:speed>0.809</gom:speed></extensions></trkpt>
   <trkpt lat="59.2964180813" lon="34.657491272"><ele>162.299</ele><time>2026-08-16T14:19:25.954Z</time><hdop>3.0</hdop><vdop>2.562</vdop><extensions><gom:speed>0.878</gom:speed></extensions></trkpt>
   <trkpt lat="59.2964103699" lon="34.6574891765"><ele>162.539</ele><time>2026-08-16T14:19:26.886Z</time><hdop>3.0</hdop><vdop>2.5</vdop><extensions><gom:speed>0.862</gom:speed></extensions></trkpt>
   <trkpt lat="59.2964048798" lon="34.6574834768"><ele>162.716</ele><time>2026-08-16T14:19:27.632Z</time><hdop>3.0</hdop><vdop>2.5</vdop><extensions><gom:speed>0.874</gom:speed></extensions></trkpt>
   <trkpt lat="59.296401988" lon="34.6574795373"><ele>162.898</ele><time>2026-08-16T14:19:28.136Z</time><hdop>3.0</hdop><vdop>2.5</vdop><extensions><gom:speed>0.804</gom:speed></extensions></trkpt>
   <trkpt lat="59.2963966655" lon="34.6574738376"><ele>163.007</ele><time>2026-08-16T14:19:28.908Z</time><hdop>3.0</hdop><vdop>2.5</vdop><extensions><gom:speed>0.803</gom:speed></extensions></trkpt>
   <trkpt lat="59.2963898762" lon="34.6574698981"><ele>162.737</ele><time>2026-08-16T14:19:29.811Z</time><hdop>3.0</hdop><vdop>2.5</vdop><extensions><gom:speed>0.84</gom:speed></extensions></trkpt>
   <trkpt lat="59.2963736991" lon="34.6574675512"><ele>162.782</ele><time>2026-08-16T14:19:31.136Z</time><hdop>3.0</hdop><vdop>2.5</vdop><extensions><gom:speed>1.053</gom:speed></extensions></trkpt>
   <trkpt lat="59.2963673708" lon="34.6574665453"><ele>162.81</ele><time>2026-08-16T14:19:31.647Z</time><hdop>3.0</hdop><vdop>2.5</vdop><extensions><gom:speed>1.068</gom:speed></extensions></trkpt>
   <trkpt lat="59.2963611682" lon="34.6574671321"><ele>162.873</ele><time>2026-08-16T14:19:32.136Z</time><hdop>3.0</hdop><vdop>2.5</vdop><extensions><gom:speed>1.046</gom:speed></extensions></trkpt>
   <trkpt lat="59.296349685" lon="34.6574670483"><ele>162.988</ele><time>2026-08-16T14:19:33.136Z</time><hdop>3.0</hdop><vdop>2.5</vdop><extensions><gom:speed>1.026</gom:speed></extensions></trkpt>
   <trkpt lat="59.296340884" lon="34.657464366"><ele>163.056</ele><time>2026-08-16T14:19:34.012Z</time><hdop>3.0</hdop><vdop>2.5</vdop><extensions><gom:speed>0.975</gom:speed></extensions></trkpt>
   <trkpt lat="59.2963350585" lon="34.6574644499"><ele>163.031</ele><time>2026-08-16T14:19:34.591Z</time><hdop>3.0</hdop><vdop>2.5</vdop><extensions><gom:speed>0.97</gom:speed></extensions></trkpt>
   <trkpt lat="59.2963303647" lon="34.657464366"><ele>162.745</ele><time>2026-08-16T14:19:35.136Z</time><hdop>3.0</hdop><vdop>2.5</vdop><extensions><gom:speed>0.942</gom:speed></extensions></trkpt>
   <trkpt lat="59.296321899" lon="34.6574623544"><ele>162.575</ele><time>2026-08-16T14:19:36.015Z</time><hdop>3.0</hdop><vdop>2.5</vdop><extensions><gom:speed>0.928</gom:speed></extensions></trkpt>
   <trkpt lat="59.2963147743" lon="34.6574621867"><ele>162.278</ele><time>2026-08-16T14:19:36.869Z</time><hdop>3.0</hdop><vdop>2.5</vdop><extensions><gom:speed>0.91</gom:speed></extensions></trkpt>
   <trkpt lat="59.2963092842" lon="34.6574603427"><ele>162.003</ele><time>2026-08-16T14:19:37.467Z</time><hdop>3.0</hdop><vdop>2.5</vdop><extensions><gom:speed>0.937</gom:speed></extensions></trkpt>
   <trkpt lat="59.2963026625" lon="34.6574572414"><ele>161.821</ele><time>2026-08-16T14:19:38.136Z</time><hdop>3.0</hdop><vdop>2.5</vdop><extensions><gom:speed>1.002</gom:speed></extensions></trkpt>
   <trkpt lat="59.2962967952" lon="34.6574559841"><ele>161.713</ele><time>2026-08-16T14:19:38.694Z</time><hdop>3.0</hdop><vdop>2.5</vdop><extensions><gom:speed>1.004</gom:speed></extensions></trkpt>
   <trkpt lat="59.2962854796" lon="34.6574595884"><ele>161.905</ele><time>2026-08-16T14:19:39.695Z</time><hdop>3.0</hdop><vdop>2.5</vdop><extensions><gom:speed>1.035</gom:speed></extensions></trkpt>
   <trkpt lat="59.296277391" lon="34.6574635279"><ele>161.763</ele><time>2026-08-16T14:19:40.451Z</time><hdop>3.0</hdop><vdop>2.5</vdop><extensions><gom:speed>1.026</gom:speed></extensions></trkpt>
   <trkpt lat="59.2962703922" lon="34.6574640308"><ele>161.865</ele><time>2026-08-16T14:19:41.136Z</time><hdop>3.0</hdop><vdop>2.625</vdop><extensions><gom:speed>1.04</gom:speed></extensions></trkpt>
   <trkpt lat="59.2962650696" lon="34.6574629411"><ele>161.926</ele><time>2026-08-16T14:19:41.649Z</time><hdop>3.0</hdop><vdop>2.625</vdop><extensions><gom:speed>1.041</gom:speed></extensions></trkpt>
   <trkpt lat="59.2962599986" lon="34.6574614324"><ele>161.775</ele><time>2026-08-16T14:19:42.136Z</time><hdop>3.0</hdop><vdop>2.562</vdop><extensions><gom:speed>0.998</gom:speed></extensions></trkpt>
   <trkpt lat="59.2962512814" lon="34.6574576605"><ele>161.685</ele><time>2026-08-16T14:19:43.013Z</time><hdop>3.0</hdop><vdop>2.562</vdop><extensions><gom:speed>0.997</gom:speed></extensions></trkpt>
   <trkpt lat="59.2962422709" lon="34.6574581634"><ele>161.622</ele><time>2026-08-16T14:19:43.710Z</time><hdop>3.0</hdop><vdop>2.625</vdop><extensions><gom:speed>1.035</gom:speed></extensions></trkpt>
   <trkpt lat="59.2962360683" lon="34.6574581634"><ele>161.615</ele><time>2026-08-16T14:19:44.191Z</time><hdop>3.0</hdop><vdop>2.625</vdop><extensions><gom:speed>1.081</gom:speed></extensions></trkpt>
   <trkpt lat="59.2962269739" lon="34.6574578282"><ele>161.61</ele><time>2026-08-16T14:19:45.035Z</time><hdop>3.0</hdop><vdop>2.625</vdop><extensions><gom:speed>1.048</gom:speed></extensions></trkpt>
   <trkpt lat="59.2962187596" lon="34.6574558165"><ele>161.359</ele><time>2026-08-16T14:19:45.850Z</time><hdop>3.0</hdop><vdop>2.5</vdop><extensions><gom:speed>1.019</gom:speed></extensions></trkpt>
   <trkpt lat="59.2962108806" lon="34.6574521285"><ele>161.235</ele><time>2026-08-16T14:19:46.635Z</time><hdop>3.0</hdop><vdop>2.5</vdop><extensions><gom:speed>1.018</gom:speed></extensions></trkpt>
   <trkpt lat="59.296206061" lon="34.6574503683"><ele>161.161</ele><time>2026-08-16T14:19:47.086Z</time><hdop>3.0</hdop><vdop>2.5</vdop><extensions><gom:speed>1.064</gom:speed></extensions></trkpt>
   <trkpt lat="59.296196799" lon="34.6574462611"><ele>161.215</ele><time>2026-08-16T14:19:48.028Z</time><hdop>3.0</hdop><vdop>2.5</vdop><extensions><gom:speed>1.06</gom:speed></extensions></trkpt>
   <trkpt lat="59.2961865731" lon="34.6574354485"><ele>161.498</ele><time>2026-08-16T14:19:49.136Z</time><hdop>3.0</hdop><vdop>2.5</vdop><extensions><gom:speed>1.032</gom:speed></extensions></trkpt>
   <trkpt lat="59.2961832623" lon="34.657426396"><ele>161.473</ele><time>2026-08-16T14:19:50.136Z</time><hdop>3.0</hdop><vdop>2.5</vdop><extensions><gom:speed>0.742</gom:speed></extensions></trkpt>
   <trkpt lat="59.2961837652" lon="34.6574168407"><ele>161.399</ele><time>2026-08-16T14:19:51.136Z</time><hdop>3.0</hdop><vdop>2.5</vdop><extensions><gom:speed>0.712</gom:speed></extensions></trkpt>
   <trkpt lat="59.2961826755" lon="34.6574084587"><ele>161.354</ele><time>2026-08-16T14:19:52.112Z</time><hdop>3.0</hdop><vdop>2.5</vdop><extensions><gom:speed>0.576</gom:speed></extensions></trkpt>
   <trkpt lat="59.2961821726" lon="34.6574086264"><ele>161.266</ele><time>2026-08-16T14:19:53.136Z</time><hdop>3.0</hdop><vdop>2.5</vdop><extensions><gom:speed>0.304</gom:speed></extensions></trkpt>
   <trkpt lat="59.2961838909" lon="34.6574119791"><ele>161.192</ele><time>2026-08-16T14:19:54.136Z</time><hdop>3.0</hdop><vdop>2.5</vdop><extensions><gom:speed>0.129</gom:speed></extensions></trkpt>
   <trkpt lat="59.2961860702" lon="34.6574145775"><ele>161.147</ele><time>2026-08-16T14:19:55.135Z</time><hdop>3.0</hdop><vdop>2.5</vdop><extensions><gom:speed>0.039</gom:speed></extensions></trkpt>
   <trkpt lat="59.2961873694" lon="34.6574162539"><ele>161.136</ele><time>2026-08-16T14:19:56.136Z</time><hdop>3.0</hdop><vdop>2.5</vdop><extensions><gom:speed>0.046</gom:speed></extensions></trkpt>
   <trkpt lat="59.2961884591" lon="34.657416673"><ele>161.109</ele><time>2026-08-16T14:19:57.136Z</time><hdop>3.0</hdop><vdop>2.5</vdop><extensions><gom:speed>0.075</gom:speed></extensions></trkpt>
   <trkpt lat="59.2961887943" lon="34.6574169245"><ele>161.064</ele><time>2026-08-16T14:19:58.135Z</time><hdop>3.0</hdop><vdop>2.5</vdop><extensions><gom:speed>0.074</gom:speed></extensions></trkpt>
   <trkpt lat="59.2961882914" lon="34.6574156672"><ele>161.037</ele><time>2026-08-16T14:19:58.973Z</time><hdop>3.0</hdop><vdop>2.5</vdop><extensions><gom:speed>0.037</gom:speed></extensions></trkpt>
   <trkpt lat="59.2961888781" lon="34.6574146614"><ele>161.057</ele><time>2026-08-16T14:20:00.136Z</time><hdop>3.0</hdop><vdop>2.5</vdop><extensions><gom:speed>0.047</gom:speed></extensions></trkpt>
   <trkpt lat="59.296188962" lon="34.6574146614"><ele>161.091</ele><time>2026-08-16T14:20:01.136Z</time><hdop>3.0</hdop><vdop>2.5</vdop><extensions><gom:speed>0.074</gom:speed></extensions></trkpt>
   <trkpt lat="59.2961888781" lon="34.6574147452"><ele>161.145</ele><time>2026-08-16T14:20:02.136Z</time><hdop>3.0</hdop><vdop>2.5</vdop><extensions><gom:speed>0.096</gom:speed></extensions></trkpt>
   <trkpt lat="59.2961890877" lon="34.6574145775"><ele>161.173</ele><time>2026-08-16T14:20:03.136Z</time><hdop>3.0</hdop><vdop>2.5</vdop><extensions><gom:speed>0.101</gom:speed></extensions></trkpt>
   <trkpt lat="59.296189884" lon="34.6574142423"><ele>161.154</ele><time>2026-08-16T14:20:04.136Z</time><hdop>3.0</hdop><vdop>2.5</vdop><extensions><gom:speed>0.163</gom:speed></extensions></trkpt>
   <trkpt lat="59.2961909736" lon="34.657417595"><ele>161.133</ele><time>2026-08-16T14:20:05.136Z</time><hdop>3.0</hdop><vdop>2.5</vdop><extensions><gom:speed>0.126</gom:speed></extensions></trkpt>
   <trkpt lat="59.2961927757" lon="34.6574223727"><ele>161.108</ele><time>2026-08-16T14:20:06.136Z</time><hdop>3.0</hdop><vdop>2.5</vdop><extensions><gom:speed>0.129</gom:speed></extensions></trkpt>
   <trkpt lat="59.2961940749" lon="34.6574262284"><ele>161.082</ele><time>2026-08-16T14:20:07.136Z</time><hdop>3.0</hdop><vdop>2.5</vdop><extensions><gom:speed>0.096</gom:speed></extensions></trkpt>
   <trkpt lat="59.2961946617" lon="34.6574299164"><ele>161.033</ele><time>2026-08-16T14:20:08.136Z</time><hdop>3.0</hdop><vdop>2.5</vdop><extensions><gom:speed>0.075</gom:speed></extensions></trkpt>
   <trkpt lat="59.2961954999" lon="34.6574315928"><ele>160.996</ele><time>2026-08-16T14:20:09.136Z</time><hdop>3.0</hdop><vdop>2.5</vdop><extensions><gom:speed>0.076</gom:speed></extensions></trkpt>
   <trkpt lat="59.2961959609" lon="34.6574327663"><ele>160.968</ele><time>2026-08-16T14:20:10.136Z</time><hdop>3.0</hdop><vdop>2.5</vdop><extensions><gom:speed>0.073</gom:speed></extensions></trkpt>
   <trkpt lat="59.2961960866" lon="34.6574340236"><ele>160.938</ele><time>2026-08-16T14:20:11.136Z</time><hdop>3.0</hdop><vdop>2.5</vdop><extensions><gom:speed>0.0</gom:speed></extensions></trkpt>
   <trkpt lat="59.2961964638" lon="34.6574343588"><ele>160.907</ele><time>2026-08-16T14:20:12.136Z</time><hdop>3.0</hdop><vdop>2.5</vdop><extensions><gom:speed>0.014</gom:speed></extensions></trkpt>
   <trkpt lat="59.296196799" lon="34.6574348617"><ele>160.876</ele><time>2026-08-16T14:20:13.136Z</time><hdop>3.0</hdop><vdop>2.5</vdop><extensions><gom:speed>0.026</gom:speed></extensions></trkpt>
   <trkpt lat="59.2961970924" lon="34.6574353647"><ele>160.843</ele><time>2026-08-16T14:20:14.136Z</time><hdop>3.0</hdop><vdop>2.5</vdop><extensions><gom:speed>0.031</gom:speed></extensions></trkpt>
   <trkpt lat="59.2961972601" lon="34.6574360352"><ele>160.823</ele><time>2026-08-16T14:20:15.136Z</time><hdop>3.0</hdop><vdop>2.5</vdop><extensions><gom:speed>0.039</gom:speed></extensions></trkpt>
   <trkpt lat="59.2961973858" lon="34.6574366219"><ele>160.818</ele><time>2026-08-16T14:20:16.136Z</time><hdop>3.0</hdop><vdop>2.5</vdop><extensions><gom:speed>0.044</gom:speed></extensions></trkpt>
   <trkpt lat="59.2961974696" lon="34.6574372925"><ele>160.822</ele><time>2026-08-16T14:20:17.136Z</time><hdop>3.0</hdop><vdop>2.5</vdop><extensions><gom:speed>0.048</gom:speed></extensions></trkpt>
   <trkpt lat="59.2961973858" lon="34.6574378792"><ele>160.827</ele><time>2026-08-16T14:20:18.136Z</time><hdop>3.0</hdop><vdop>2.5</vdop><extensions><gom:speed>0.051</gom:speed></extensions></trkpt>
   <trkpt lat="59.2961973858" lon="34.657438466"><ele>160.821</ele><time>2026-08-16T14:20:19.136Z</time><hdop>3.0</hdop><vdop>2.5</vdop><extensions><gom:speed>0.055</gom:speed></extensions></trkpt>
   <trkpt lat="59.2961971762" lon="34.6574389689"><ele>160.817</ele><time>2026-08-16T14:20:19.969Z</time><hdop>3.0</hdop><vdop>2.5</vdop><extensions><gom:speed>0.055</gom:speed></extensions></trkpt>
   <trkpt lat="59.2961933625" lon="34.6574399747"><ele>160.908</ele><time>2026-08-16T14:20:21.136Z</time><hdop>3.0</hdop><vdop>2.5</vdop><extensions><gom:speed>0.381</gom:speed></extensions></trkpt>
   <trkpt lat="59.2961901773" lon="34.6574391365"><ele>160.962</ele><time>2026-08-16T14:20:22.049Z</time><hdop>3.0</hdop><vdop>2.5</vdop><extensions><gom:speed>0.39</gom:speed></extensions></trkpt>
   <trkpt lat="59.2961873694" lon="34.6574353647"><ele>160.884</ele><time>2026-08-16T14:20:22.649Z</time><hdop>3.0</hdop><vdop>2.5</vdop><extensions><gom:speed>0.621</gom:speed></extensions></trkpt>
   <trkpt lat="59.2961854835" lon="34.6574319281"><ele>160.833</ele><time>2026-08-16T14:20:23.136Z</time><hdop>3.0</hdop><vdop>2.5</vdop><extensions><gom:speed>0.092</gom:speed></extensions></trkpt>
   <trkpt lat="59.2961850644" lon="34.6574292459"><ele>160.81</ele><time>2026-08-16T14:20:24.136Z</time><hdop>3.0</hdop><vdop>2.5</vdop><extensions><gom:speed>0.068</gom:speed></extensions></trkpt>
   <trkpt lat="59.2961848967" lon="34.6574270666"><ele>160.9</ele><time>2026-08-16T14:20:25.136Z</time><hdop>3.0</hdop><vdop>2.5</vdop><extensions><gom:speed>0.23</gom:speed></extensions></trkpt>
   <trkpt lat="59.2961840586" lon="34.657424552"><ele>160.953</ele><time>2026-08-16T14:20:25.848Z</time><hdop>3.0</hdop><vdop>2.5</vdop><extensions><gom:speed>0.265</gom:speed></extensions></trkpt>
   <trkpt lat="59.2961819631" lon="34.6574141584"><ele>160.929</ele><time>2026-08-16T14:20:26.771Z</time><hdop>3.0</hdop><vdop>2.5</vdop><extensions><gom:speed>0.411</gom:speed></extensions></trkpt>
   <trkpt lat="59.2961799933" lon="34.6574026752"><ele>160.83</ele><time>2026-08-16T14:20:27.596Z</time><hdop>3.0</hdop><vdop>2.5</vdop><extensions><gom:speed>0.449</gom:speed></extensions></trkpt>
   <trkpt lat="59.2961792809" lon="34.6573998254"><ele>160.772</ele><time>2026-08-16T14:20:28.067Z</time><hdop>3.0</hdop><vdop>2.5</vdop><extensions><gom:speed>0.417</gom:speed></extensions></trkpt>
   <trkpt lat="59.29617597" lon="34.6573832292"><ele>160.637</ele><time>2026-08-16T14:20:29.029Z</time><hdop>3.062</hdop><vdop>2.5</vdop><extensions><gom:speed>0.582</gom:speed></extensions></trkpt>
   <trkpt lat="59.2961726592" lon="34.6573700696"><ele>160.846</ele><time>2026-08-16T14:20:29.529Z</time><hdop>3.062</hdop><vdop>2.5</vdop><extensions><gom:speed>0.729</gom:speed></extensions></trkpt>
   <trkpt lat="59.296168091" lon="34.6573589217"><ele>161.192</ele><time>2026-08-16T14:20:30.136Z</time><hdop>3.062</hdop><vdop>2.5</vdop><extensions><gom:speed>0.819</gom:speed></extensions></trkpt>
   <trkpt lat="59.2961637743" lon="34.6573470194"><ele>161.399</ele><time>2026-08-16T14:20:30.893Z</time><hdop>3.062</hdop><vdop>2.5</vdop><extensions><gom:speed>0.828</gom:speed></extensions></trkpt>
   <trkpt lat="59.2961557696" lon="34.6573349495"><ele>161.696</ele><time>2026-08-16T14:20:31.806Z</time><hdop>3.062</hdop><vdop>2.5</vdop><extensions><gom:speed>0.826</gom:speed></extensions></trkpt>
   <trkpt lat="59.2961503633" lon="34.6573269867"><ele>161.964</ele><time>2026-08-16T14:20:32.395Z</time><hdop>3.062</hdop><vdop>2.5</vdop><extensions><gom:speed>0.853</gom:speed></extensions></trkpt>
   <trkpt lat="59.2961454599" lon="34.6573179342"><ele>162.114</ele><time>2026-08-16T14:20:33.136Z</time><hdop>3.062</hdop><vdop>2.5</vdop><extensions><gom:speed>0.84</gom:speed></extensions></trkpt>
   <trkpt lat="59.2961413947" lon="34.6573081274"><ele>162.203</ele><time>2026-08-16T14:20:33.868Z</time><hdop>3.062</hdop><vdop>2.5</vdop><extensions><gom:speed>0.835</gom:speed></extensions></trkpt>
   <trkpt lat="59.2961367846" lon="34.6573018409"><ele>162.051</ele><time>2026-08-16T14:20:34.515Z</time><hdop>3.0</hdop><vdop>2.5</vdop><extensions><gom:speed>0.823</gom:speed></extensions></trkpt>
   <trkpt lat="59.2961335995" lon="34.6572988235"><ele>161.981</ele><time>2026-08-16T14:20:35.136Z</time><hdop>3.0</hdop><vdop>2.5</vdop><extensions><gom:speed>0.705</gom:speed></extensions></trkpt>
   <trkpt lat="59.2961302886" lon="34.6572965603"><ele>161.953</ele><time>2026-08-16T14:20:36.136Z</time><hdop>3.0</hdop><vdop>2.5</vdop><extensions><gom:speed>0.505</gom:speed></extensions></trkpt>
   <trkpt lat="59.2961299953" lon="34.6572958898"><ele>161.989</ele><time>2026-08-16T14:20:37.136Z</time><hdop>3.0</hdop><vdop>2.5</vdop><extensions><gom:speed>0.255</gom:speed></extensions></trkpt>
   <trkpt lat="59.2961304982" lon="34.6572974824"><ele>162.026</ele><time>2026-08-16T14:20:38.136Z</time><hdop>3.0</hdop><vdop>2.5</vdop><extensions><gom:speed>0.063</gom:speed></extensions></trkpt>
   <trkpt lat="59.2961308754" lon="34.6573001646"><ele>162.056</ele><time>2026-08-16T14:20:39.136Z</time><hdop>3.0</hdop><vdop>2.5</vdop><extensions><gom:speed>0.031</gom:speed></extensions></trkpt>
   <trkpt lat="59.2961309592" lon="34.6573028468"><ele>162.066</ele><time>2026-08-16T14:20:40.136Z</time><hdop>3.0</hdop><vdop>2.5</vdop><extensions><gom:speed>0.059</gom:speed></extensions></trkpt>
   <trkpt lat="59.2961308754" lon="34.6573040202"><ele>162.09</ele><time>2026-08-16T14:20:41.136Z</time><hdop>3.0</hdop><vdop>2.5</vdop><extensions><gom:speed>0.068</gom:speed></extensions></trkpt>
   <trkpt lat="59.2961306658" lon="34.6573040202"><ele>162.104</ele><time>2026-08-16T14:20:41.710Z</time><hdop>3.0</hdop><vdop>2.5</vdop><extensions><gom:speed>0.101</gom:speed></extensions></trkpt>
   <trkpt lat="59.2961303725" lon="34.6573047746"><ele>162.1</ele><time>2026-08-16T14:20:42.446Z</time><hdop>3.0</hdop><vdop>2.5</vdop><extensions><gom:speed>0.072</gom:speed></extensions></trkpt>
   <trkpt lat="59.2961295762" lon="34.6573037688"><ele>162.229</ele><time>2026-08-16T14:20:43.136Z</time><hdop>3.0</hdop><vdop>2.5</vdop><extensions><gom:speed>0.068</gom:speed></extensions></trkpt>
   <trkpt lat="59.2961278998" lon="34.6573006675"><ele>162.079</ele><time>2026-08-16T14:20:44.136Z</time><hdop>3.0</hdop><vdop>2.5</vdop><extensions><gom:speed>0.166</gom:speed></extensions></trkpt>
   <trkpt lat="59.2961269778" lon="34.65729765"><ele>161.989</ele><time>2026-08-16T14:20:44.871Z</time><hdop>3.0</hdop><vdop>2.5</vdop><extensions><gom:speed>0.199</gom:speed></extensions></trkpt>
   <trkpt lat="59.2961211943" lon="34.6572827302"><ele>161.897</ele><time>2026-08-16T14:20:46.136Z</time><hdop>3.0</hdop><vdop>2.5</vdop><extensions><gom:speed>0.511</gom:speed></extensions></trkpt>
   <trkpt lat="59.2961159975" lon="34.657271247"><ele>161.842</ele><time>2026-08-16T14:20:46.991Z</time><hdop>3.0</hdop><vdop>2.5</vdop><extensions><gom:speed>0.699</gom:speed></extensions></trkpt>
   <trkpt lat="59.2961107588" lon="34.6572616916"><ele>161.656</ele><time>2026-08-16T14:20:47.472Z</time><hdop>3.0</hdop><vdop>2.5</vdop><extensions><gom:speed>0.805</gom:speed></extensions></trkpt>
   <trkpt lat="59.2961065679" lon="34.6572516333"><ele>161.367</ele><time>2026-08-16T14:20:48.136Z</time><hdop>3.0</hdop><vdop>2.5</vdop><extensions><gom:speed>0.81</gom:speed></extensions></trkpt>
   <trkpt lat="59.2961049753" lon="34.6572401501"><ele>161.195</ele><time>2026-08-16T14:20:48.826Z</time><hdop>3.0</hdop><vdop>2.5</vdop><extensions><gom:speed>0.802</gom:speed></extensions></trkpt>
   <trkpt lat="59.2961104654" lon="34.6572167646"><ele>161.05</ele><time>2026-08-16T14:20:50.136Z</time><hdop>3.0</hdop><vdop>2.5</vdop><extensions><gom:speed>0.829</gom:speed></extensions></trkpt>
   <trkpt lat="59.2961142792" lon="34.6571986597"><ele>161.064</ele><time>2026-08-16T14:20:51.136Z</time><hdop>3.0</hdop><vdop>2.5</vdop><extensions><gom:speed>0.838</gom:speed></extensions></trkpt>
   <trkpt lat="59.2961119742" lon="34.6571818959"><ele>161.072</ele><time>2026-08-16T14:20:52.154Z</time><hdop>3.0</hdop><vdop>2.5</vdop><extensions><gom:speed>0.776</gom:speed></extensions></trkpt>
   <trkpt lat="59.2961120999" lon="34.6571647968"><ele>161.028</ele><time>2026-08-16T14:20:52.929Z</time><hdop>3.0</hdop><vdop>2.5</vdop><extensions><gom:speed>0.839</gom:speed></extensions></trkpt>
   <trkpt lat="59.2961127705" lon="34.6571467757"><ele>160.887</ele><time>2026-08-16T14:20:53.626Z</time><hdop>3.0</hdop><vdop>2.5</vdop><extensions><gom:speed>0.889</gom:speed></extensions></trkpt>
   <trkpt lat="59.2961126866" lon="34.6571359631"><ele>160.803</ele><time>2026-08-16T14:20:54.127Z</time><hdop>3.0</hdop><vdop>2.5</vdop><extensions><gom:speed>0.944</gom:speed></extensions></trkpt>
   <trkpt lat="59.2961116808" lon="34.6571222168"><ele>160.739</ele><time>2026-08-16T14:20:54.714Z</time><hdop>3.0</hdop><vdop>2.5</vdop><extensions><gom:speed>0.96</gom:speed></extensions></trkpt>
   <trkpt lat="59.2961079928" lon="34.6570995856"><ele>160.479</ele><time>2026-08-16T14:20:55.687Z</time><hdop>3.0</hdop><vdop>2.5</vdop><extensions><gom:speed>1.05</gom:speed></extensions></trkpt>
   <trkpt lat="59.296104179" lon="34.6570854202"><ele>160.559</ele><time>2026-08-16T14:20:56.355Z</time><hdop>3.0</hdop><vdop>2.5</vdop><extensions><gom:speed>1.044</gom:speed></extensions></trkpt>
   <trkpt lat="59.296101874" lon="34.6570769545"><ele>160.606</ele><time>2026-08-16T14:20:56.806Z</time><hdop>3.0</hdop><vdop>2.5</vdop><extensions><gom:speed>1.039</gom:speed></extensions></trkpt>
   <trkpt lat="59.2960983955" lon="34.6570626214"><ele>160.808</ele><time>2026-08-16T14:20:57.532Z</time><hdop>3.0</hdop><vdop>2.5</vdop><extensions><gom:speed>1.077</gom:speed></extensions></trkpt>
   <trkpt lat="59.2960966772" lon="34.6570508868"><ele>160.929</ele><time>2026-08-16T14:20:58.092Z</time><hdop>3.0</hdop><vdop>2.5</vdop><extensions><gom:speed>1.1</gom:speed></extensions></trkpt>
   <trkpt lat="59.2960942884" lon="34.6570388168"><ele>160.814</ele><time>2026-08-16T14:20:58.750Z</time><hdop>3.0</hdop><vdop>2.5</vdop><extensions><gom:speed>1.073</gom:speed></extensions></trkpt>
   <trkpt lat="59.2960910613" lon="34.6570301835"><ele>160.637</ele><time>2026-08-16T14:20:59.348Z</time><hdop>3.0</hdop><vdop>2.5</vdop><extensions><gom:speed>1.049</gom:speed></extensions></trkpt>
   <trkpt lat="59.2960880858" lon="34.6570204605"><ele>160.531</ele><time>2026-08-16T14:20:59.908Z</time><hdop>3.0</hdop><vdop>2.5</vdop><extensions><gom:speed>1.053</gom:speed></extensions></trkpt>
   <trkpt lat="59.296084272" lon="34.6570124976"><ele>160.348</ele><time>2026-08-16T14:21:00.487Z</time><hdop>3.0</hdop><vdop>2.5</vdop><extensions><gom:speed>1.059</gom:speed></extensions></trkpt>
   <trkpt lat="59.2960811707" lon="34.6570034452"><ele>160.112</ele><time>2026-08-16T14:21:01.136Z</time><hdop>3.0</hdop><vdop>2.5</vdop><extensions><gom:speed>0.979</gom:speed></extensions></trkpt>
   <trkpt lat="59.2960794943" lon="34.656992884"><ele>159.972</ele><time>2026-08-16T14:21:01.773Z</time><hdop>3.0</hdop><vdop>2.5</vdop><extensions><gom:speed>0.991</gom:speed></extensions></trkpt>
   <trkpt lat="59.2960775665" lon="34.6569833286"><ele>159.938</ele><time>2026-08-16T14:21:02.410Z</time><hdop>3.0</hdop><vdop>2.5</vdop><extensions><gom:speed>0.928</gom:speed></extensions></trkpt>
   <trkpt lat="59.2960745909" lon="34.6569738571"><ele>159.918</ele><time>2026-08-16T14:21:03.049Z</time><hdop>3.0</hdop><vdop>2.5</vdop><extensions><gom:speed>0.9</gom:speed></extensions></trkpt>
   <trkpt lat="59.2960701904" lon="34.6569670677"><ele>160.11</ele><time>2026-08-16T14:21:03.608Z</time><hdop>3.0</hdop><vdop>2.5</vdop><extensions><gom:speed>0.94</gom:speed></extensions></trkpt>
   <trkpt lat="59.2960670891" lon="34.6569601946"><ele>160.224</ele><time>2026-08-16T14:21:04.089Z</time><hdop>3.0</hdop><vdop>2.5</vdop><extensions><gom:speed>0.952</gom:speed></extensions></trkpt>
   <trkpt lat="59.2960613894" lon="34.6569494657"><ele>160.319</ele><time>2026-08-16T14:21:04.874Z</time><hdop>3.0</hdop><vdop>2.5</vdop><extensions><gom:speed>0.968</gom:speed></extensions></trkpt>
   <trkpt lat="59.2960567794" lon="34.6569413353"><ele>160.477</ele><time>2026-08-16T14:21:05.473Z</time><hdop>3.0</hdop><vdop>2.5</vdop><extensions><gom:speed>0.973</gom:speed></extensions></trkpt>
   <trkpt lat="59.2960526722" lon="34.6569304388"><ele>160.699</ele><time>2026-08-16T14:21:06.136Z</time><hdop>3.0</hdop><vdop>2.5</vdop><extensions><gom:speed>1.045</gom:speed></extensions></trkpt>
   <trkpt lat="59.2960498643" lon="34.6569192909"><ele>160.832</ele><time>2026-08-16T14:21:06.730Z</time><hdop>3.0</hdop><vdop>2.5</vdop><extensions><gom:speed>1.037</gom:speed></extensions></trkpt>
   <trkpt lat="59.2960448771" lon="34.656909987"><ele>160.986</ele><time>2026-08-16T14:21:07.407Z</time><hdop>3.0</hdop><vdop>2.5</vdop><extensions><gom:speed>1.033</gom:speed></extensions></trkpt>
   <trkpt lat="59.2960410633" lon="34.6569032814"><ele>161.078</ele><time>2026-08-16T14:21:07.888Z</time><hdop>3.0</hdop><vdop>2.5</vdop><extensions><gom:speed>1.026</gom:speed></extensions></trkpt>
   <trkpt lat="59.2960269817" lon="34.6568943966"><ele>161.031</ele><time>2026-08-16T14:21:09.136Z</time><hdop>3.0</hdop><vdop>2.5</vdop><extensions><gom:speed>1.045</gom:speed></extensions></trkpt>
   <trkpt lat="59.2960185998" lon="34.6568879426"><ele>161.002</ele><time>2026-08-16T14:21:09.948Z</time><hdop>3.0</hdop><vdop>2.5</vdop><extensions><gom:speed>1.038</gom:speed></extensions></trkpt>
   <trkpt lat="59.2960135706" lon="34.6568811532"><ele>161.0</ele><time>2026-08-16T14:21:10.508Z</time><hdop>3.0</hdop><vdop>2.5</vdop><extensions><gom:speed>1.0</gom:speed></extensions></trkpt>
   <trkpt lat="59.2960096731" lon="34.6568713464"><ele>160.821</ele><time>2026-08-16T14:21:11.136Z</time><hdop>3.0</hdop><vdop>2.5</vdop><extensions><gom:speed>0.933</gom:speed></extensions></trkpt>
   <trkpt lat="59.2960064879" lon="34.6568626292"><ele>160.714</ele><time>2026-08-16T14:21:11.755Z</time><hdop>3.0</hdop><vdop>2.5</vdop><extensions><gom:speed>0.934</gom:speed></extensions></trkpt>
   <trkpt lat="59.2960023808" lon="34.6568543311"><ele>160.889</ele><time>2026-08-16T14:21:12.452Z</time><hdop>3.0</hdop><vdop>2.5</vdop><extensions><gom:speed>0.906</gom:speed></extensions></trkpt>
   <trkpt lat="59.2959983994" lon="34.6568458654"><ele>160.993</ele><time>2026-08-16T14:21:13.051Z</time><hdop>3.0</hdop><vdop>2.5</vdop><extensions><gom:speed>0.935</gom:speed></extensions></trkpt>
   <trkpt lat="59.295989766" lon="34.6568369806"><ele>160.917</ele><time>2026-08-16T14:21:14.136Z</time><hdop>3.0</hdop><vdop>2.5</vdop><extensions><gom:speed>0.924</gom:speed></extensions></trkpt>
   <trkpt lat="59.2959816775" lon="34.6568306942"><ele>160.963</ele><time>2026-08-16T14:21:15.136Z</time><hdop>3.0</hdop><vdop>2.5</vdop><extensions><gom:speed>0.928</gom:speed></extensions></trkpt>
   <trkpt lat="59.2959738823" lon="34.6568244916"><ele>160.99</ele><time>2026-08-16T14:21:16.093Z</time><hdop>3.0</hdop><vdop>2.5</vdop><extensions><gom:speed>0.918</gom:speed></extensions></trkpt>
   <trkpt lat="59.2959705715" lon="34.6568156906"><ele>160.937</ele><time>2026-08-16T14:21:16.692Z</time><hdop>3.0</hdop><vdop>2.5</vdop><extensions><gom:speed>0.96</gom:speed></extensions></trkpt>
   <trkpt lat="59.2959687694" lon="34.6568032853"><ele>161.112</ele><time>2026-08-16T14:21:17.252Z</time><hdop>3.0</hdop><vdop>2.5</vdop><extensions><gom:speed>0.998</gom:speed></extensions></trkpt>
   <trkpt lat="59.2959649975" lon="34.6567917183"><ele>161.216</ele><time>2026-08-16T14:21:17.949Z</time><hdop>3.0</hdop><vdop>2.5</vdop><extensions><gom:speed>0.987</gom:speed></extensions></trkpt>
   <trkpt lat="59.2959604713" lon="34.6567827497"><ele>161.417</ele><time>2026-08-16T14:21:18.429Z</time><hdop>3.0</hdop><vdop>2.5</vdop><extensions><gom:speed>1.072</gom:speed></extensions></trkpt>
   <trkpt lat="59.2959557774" lon="34.6567726914"><ele>161.677</ele><time>2026-08-16T14:21:19.136Z</time><hdop>3.0</hdop><vdop>2.5</vdop><extensions><gom:speed>1.048</gom:speed></extensions></trkpt>
   <trkpt lat="59.2959526761" lon="34.6567621302"><ele>161.832</ele><time>2026-08-16T14:21:19.715Z</time><hdop>3.0</hdop><vdop>2.5</vdop><extensions><gom:speed>1.052</gom:speed></extensions></trkpt>
   <trkpt lat="59.2959488623" lon="34.6567462884"><ele>162.022</ele><time>2026-08-16T14:21:20.648Z</time><hdop>3.0</hdop><vdop>2.5</vdop><extensions><gom:speed>1.049</gom:speed></extensions></trkpt>
   <trkpt lat="59.2959465992" lon="34.6567380741"><ele>162.301</ele><time>2026-08-16T14:21:21.136Z</time><hdop>3.0</hdop><vdop>2.5</vdop><extensions><gom:speed>1.057</gom:speed></extensions></trkpt>
   <trkpt lat="59.2959417796" lon="34.6567261718"><ele>162.468</ele><time>2026-08-16T14:21:21.913Z</time><hdop>3.0</hdop><vdop>2.5</vdop><extensions><gom:speed>1.056</gom:speed></extensions></trkpt>
   <trkpt lat="59.2959371696" lon="34.656723322"><ele>162.491</ele><time>2026-08-16T14:21:22.374Z</time><hdop>3.0</hdop><vdop>2.5</vdop><extensions><gom:speed>1.089</gom:speed></extensions></trkpt>
   <trkpt lat="59.2959308832" lon="34.6567158621"><ele>162.642</ele><time>2026-08-16T14:21:23.135Z</time><hdop>3.0</hdop><vdop>2.5</vdop><extensions><gom:speed>1.079</gom:speed></extensions></trkpt>
   <trkpt lat="59.2959266922" lon="34.6567094918"><ele>162.732</ele><time>2026-08-16T14:21:23.651Z</time><hdop>3.0</hdop><vdop>2.5</vdop><extensions><gom:speed>1.077</gom:speed></extensions></trkpt>
   <trkpt lat="59.2959237585" lon="34.6567019481"><ele>162.834</ele><time>2026-08-16T14:21:24.136Z</time><hdop>3.0</hdop><vdop>2.5</vdop><extensions><gom:speed>1.044</gom:speed></extensions></trkpt>
   <trkpt lat="59.2959177655" lon="34.656686274"><ele>162.896</ele><time>2026-08-16T14:21:25.114Z</time><hdop>3.0</hdop><vdop>2.5</vdop><extensions><gom:speed>1.04</gom:speed></extensions></trkpt>
   <trkpt lat="59.2959124849" lon="34.6566744555"><ele>163.059</ele><time>2026-08-16T14:21:25.909Z</time><hdop>3.0</hdop><vdop>2.5</vdop><extensions><gom:speed>1.023</gom:speed></extensions></trkpt>
   <trkpt lat="59.2959089645" lon="34.6566638943"><ele>163.305</ele><time>2026-08-16T14:21:26.635Z</time><hdop>3.0</hdop><vdop>2.5</vdop><extensions><gom:speed>0.994</gom:speed></extensions></trkpt>
   <trkpt lat="59.2959067852" lon="34.6566560991"><ele>163.367</ele><time>2026-08-16T14:21:27.136Z</time><hdop>3.0</hdop><vdop>2.5</vdop><extensions><gom:speed>0.977</gom:speed></extensions></trkpt>
   <trkpt lat="59.2959036839" lon="34.6566451188"><ele>163.405</ele><time>2026-08-16T14:21:27.793Z</time><hdop>3.0</hdop><vdop>2.5</vdop><extensions><gom:speed>0.988</gom:speed></extensions></trkpt>
   <trkpt lat="59.2958981937" lon="34.6566385809"><ele>163.592</ele><time>2026-08-16T14:21:28.628Z</time><hdop>3.0</hdop><vdop>2.5</vdop><extensions><gom:speed>0.923</gom:speed></extensions></trkpt>
   <trkpt lat="59.2958937932" lon="34.6566353958"><ele>163.704</ele><time>2026-08-16T14:21:29.128Z</time><hdop>3.0</hdop><vdop>2.5</vdop><extensions><gom:speed>0.948</gom:speed></extensions></trkpt>
   <trkpt lat="59.2958853694" lon="34.6566354796"><ele>163.802</ele><time>2026-08-16T14:21:30.031Z</time><hdop>3.0</hdop><vdop>2.5</vdop><extensions><gom:speed>0.957</gom:speed></extensions></trkpt>
   <trkpt lat="59.2958810947" lon="34.6566347253"><ele>163.649</ele><time>2026-08-16T14:21:30.532Z</time><hdop>3.0</hdop><vdop>2.5</vdop><extensions><gom:speed>0.952</gom:speed></extensions></trkpt>
   <trkpt lat="59.2958770713" lon="34.6566307858"><ele>163.27</ele><time>2026-08-16T14:21:31.136Z</time><hdop>3.0</hdop><vdop>2.5</vdop><extensions><gom:speed>0.904</gom:speed></extensions></trkpt>
   <trkpt lat="59.2958721679" lon="34.656619554"><ele>163.043</ele><time>2026-08-16T14:21:32.055Z</time><hdop>3.0</hdop><vdop>2.5</vdop><extensions><gom:speed>0.9</gom:speed></extensions></trkpt>
   <trkpt lat="59.2958670969" lon="34.6566104177"><ele>162.706</ele><time>2026-08-16T14:21:32.850Z</time><hdop>3.0</hdop><vdop>2.5</vdop><extensions><gom:speed>0.917</gom:speed></extensions></trkpt>
   <trkpt lat="59.2958629898" lon="34.6566054724"><ele>162.263</ele><time>2026-08-16T14:21:33.369Z</time><hdop>3.0</hdop><vdop>2.5</vdop><extensions><gom:speed>0.937</gom:speed></extensions></trkpt>
   <trkpt lat="59.2958571643" lon="34.6565942407"><ele>161.998</ele><time>2026-08-16T14:21:34.106Z</time><hdop>3.0</hdop><vdop>2.5</vdop><extensions><gom:speed>1.021</gom:speed></extensions></trkpt>
   <trkpt lat="59.2958516742" lon="34.6565853559"><ele>162.038</ele><time>2026-08-16T14:21:34.912Z</time><hdop>3.0</hdop><vdop>2.562</vdop><extensions><gom:speed>0.996</gom:speed></extensions></trkpt>
   <trkpt lat="59.2958469803" lon="34.6565781474"><ele>161.588</ele><time>2026-08-16T14:21:35.550Z</time><hdop>3.0</hdop><vdop>2.5</vdop><extensions><gom:speed>1.043</gom:speed></extensions></trkpt>
   <trkpt lat="59.2958427894" lon="34.6565698493"><ele>161.319</ele><time>2026-08-16T14:21:36.090Z</time><hdop>3.0</hdop><vdop>2.5</vdop><extensions><gom:speed>1.106</gom:speed></extensions></trkpt>
   <trkpt lat="59.2958365868" lon="34.6565586176"><ele>161.213</ele><time>2026-08-16T14:21:36.914Z</time><hdop>3.0</hdop><vdop>2.5</vdop><extensions><gom:speed>1.083</gom:speed></extensions></trkpt>
   <trkpt lat="59.2958307613" lon="34.6565527503"><ele>161.396</ele><time>2026-08-16T14:21:37.435Z</time><hdop>3.0</hdop><vdop>2.5</vdop><extensions><gom:speed>1.145</gom:speed></extensions></trkpt>
   <trkpt lat="59.2958210802" lon="34.6565459609"><ele>161.422</ele><time>2026-08-16T14:21:38.136Z</time><hdop>3.0</hdop><vdop>2.5</vdop><extensions><gom:speed>1.243</gom:speed></extensions></trkpt>
   <trkpt lat="59.2958136623" lon="34.6565420214"><ele>161.437</ele><time>2026-08-16T14:21:38.671Z</time><hdop>3.0</hdop><vdop>2.5</vdop><extensions><gom:speed>1.242</gom:speed></extensions></trkpt>
   <trkpt lat="59.2958069986" lon="34.6565379981"><ele>161.797</ele><time>2026-08-16T14:21:39.136Z</time><hdop>3.0</hdop><vdop>2.5</vdop><extensions><gom:speed>1.269</gom:speed></extensions></trkpt>
   <trkpt lat="59.2957976947" lon="34.6565252576"><ele>162.012</ele><time>2026-08-16T14:21:40.006Z</time><hdop>3.0</hdop><vdop>2.5</vdop><extensions><gom:speed>1.187</gom:speed></extensions></trkpt>
   <trkpt lat="59.2957870916" lon="34.6565088291"><ele>161.798</ele><time>2026-08-16T14:21:41.136Z</time><hdop>3.0</hdop><vdop>2.5</vdop><extensions><gom:speed>1.084</gom:speed></extensions></trkpt>
   <trkpt lat="59.2957812662" lon="34.6564966753"><ele>161.671</ele><time>2026-08-16T14:21:41.951Z</time><hdop>3.0</hdop><vdop>2.5</vdop><extensions><gom:speed>1.082</gom:speed></extensions></trkpt>
   <trkpt lat="59.2957792964" lon="34.6564864494"><ele>161.615</ele><time>2026-08-16T14:21:42.589Z</time><hdop>3.0</hdop><vdop>2.5</vdop><extensions><gom:speed>1.027</gom:speed></extensions></trkpt>
   <trkpt lat="59.2957773686" lon="34.6564774808"><ele>161.233</ele><time>2026-08-16T14:21:43.136Z</time><hdop>3.0</hdop><vdop>2.5</vdop><extensions><gom:speed>0.985</gom:speed></extensions></trkpt>
   <trkpt lat="59.2957749798" lon="34.656468093"><ele>161.004</ele><time>2026-08-16T14:21:43.727Z</time><hdop>3.0</hdop><vdop>2.5</vdop><extensions><gom:speed>0.992</gom:speed></extensions></trkpt>
   <trkpt lat="59.2957698668" lon="34.656449569"><ele>161.09</ele><time>2026-08-16T14:21:44.866Z</time><hdop>3.0</hdop><vdop>2.5</vdop><extensions><gom:speed>0.988</gom:speed></extensions></trkpt>
   <trkpt lat="59.2957656759" lon="34.6564367447"><ele>161.233</ele><time>2026-08-16T14:21:45.612Z</time><hdop>3.0</hdop><vdop>2.5</vdop><extensions><gom:speed>1.093</gom:speed></extensions></trkpt>
   <trkpt lat="59.2957615687" lon="34.6564297877"><ele>161.557</ele><time>2026-08-16T14:21:46.136Z</time><hdop>3.0</hdop><vdop>2.5</vdop><extensions><gom:speed>1.122</gom:speed></extensions></trkpt>
   <trkpt lat="59.2957551985" lon="34.6564193942"><ele>161.751</ele><time>2026-08-16T14:21:46.908Z</time><hdop>3.0</hdop><vdop>2.5</vdop><extensions><gom:speed>1.129</gom:speed></extensions></trkpt>
   <trkpt lat="59.2957487863" lon="34.6564182207"><ele>161.969</ele><time>2026-08-16T14:21:47.408Z</time><hdop>3.0</hdop><vdop>2.5</vdop><extensions><gom:speed>1.159</gom:speed></extensions></trkpt>
   <trkpt lat="59.2957398596" lon="34.6564177178"><ele>162.287</ele><time>2026-08-16T14:21:48.136Z</time><hdop>3.0</hdop><vdop>2.5</vdop><extensions><gom:speed>1.148</gom:speed></extensions></trkpt>
   <trkpt lat="59.2957313939" lon="34.6564179693"><ele>162.476</ele><time>2026-08-16T14:21:48.831Z</time><hdop>3.0</hdop><vdop>2.5</vdop><extensions><gom:speed>1.154</gom:speed></extensions></trkpt>
   <trkpt lat="59.2957231796" lon="34.6564212382"><ele>162.889</ele><time>2026-08-16T14:21:49.489Z</time><hdop>3.0</hdop><vdop>2.5</vdop><extensions><gom:speed>1.158</gom:speed></extensions></trkpt>
   <trkpt lat="59.2957163903" lon="34.6564219926"><ele>163.136</ele><time>2026-08-16T14:21:50.029Z</time><hdop>3.0</hdop><vdop>2.5</vdop><extensions><gom:speed>1.15</gom:speed></extensions></trkpt>
   <trkpt lat="59.2957078826" lon="34.6564248424"><ele>163.504</ele><time>2026-08-16T14:21:50.706Z</time><hdop>3.0</hdop><vdop>2.5</vdop><extensions><gom:speed>1.153</gom:speed></extensions></trkpt>
   <trkpt lat="59.2957009676" lon="34.6564234175"><ele>164.191</ele><time>2026-08-16T14:21:51.334Z</time><hdop>3.0</hdop><vdop>2.5</vdop><extensions><gom:speed>1.148</gom:speed></extensions></trkpt>
   <trkpt lat="59.2956935915" lon="34.6564169634"><ele>164.602</ele><time>2026-08-16T14:21:52.090Z</time><hdop>3.0</hdop><vdop>2.5</vdop><extensions><gom:speed>1.102</gom:speed></extensions></trkpt>
   <trkpt lat="59.2956894844" lon="34.656412521"><ele>164.745</ele><time>2026-08-16T14:21:52.551Z</time><hdop>3.0</hdop><vdop>2.5</vdop><extensions><gom:speed>1.101</gom:speed></extensions></trkpt>
   <trkpt lat="59.2956849581" lon="34.6564059831"><ele>164.636</ele><time>2026-08-16T14:21:53.136Z</time><hdop>3.0</hdop><vdop>2.5</vdop><extensions><gom:speed>1.046</gom:speed></extensions></trkpt>
   <trkpt lat="59.2956789651" lon="34.6563902252"><ele>164.354</ele><time>2026-08-16T14:21:54.136Z</time><hdop>3.0</hdop><vdop>2.5</vdop><extensions><gom:speed>1.047</gom:speed></extensions></trkpt>
   <trkpt lat="59.2956760733" lon="34.6563697733"><ele>164.171</ele><time>2026-08-16T14:21:55.136Z</time><hdop>3.0</hdop><vdop>2.5</vdop><extensions><gom:speed>1.102</gom:speed></extensions></trkpt>
   <trkpt lat="59.2956732654" lon="34.6563489862"><ele>164.0</ele><time>2026-08-16T14:21:56.136Z</time><hdop>3.0</hdop><vdop>2.5</vdop><extensions><gom:speed>1.088</gom:speed></extensions></trkpt>
   <trkpt lat="59.2956665599" lon="34.6563311327"><ele>163.915</ele><time>2026-08-16T14:21:57.136Z</time><hdop>3.0</hdop><vdop>2.5</vdop><extensions><gom:speed>1.198</gom:speed></extensions></trkpt>
   <trkpt lat="59.2956651768" lon="34.6563137822"><ele>163.864</ele><time>2026-08-16T14:21:57.970Z</time><hdop>3.0</hdop><vdop>2.5</vdop><extensions><gom:speed>1.084</gom:speed></extensions></trkpt>
   <trkpt lat="59.2956556634" lon="34.6563118544"><ele>164.209</ele><time>2026-08-16T14:21:58.549Z</time><hdop>3.0</hdop><vdop>2.5</vdop><extensions><gom:speed>1.114</gom:speed></extensions></trkpt>
   <trkpt lat="59.2956504666" lon="34.656310178"><ele>164.415</ele><time>2026-08-16T14:21:59.048Z</time><hdop>3.0</hdop><vdop>2.5</vdop><extensions><gom:speed>1.021</gom:speed></extensions></trkpt>
   <trkpt lat="59.2956417913" lon="34.6563090883"><ele>164.574</ele><time>2026-08-16T14:21:59.933Z</time><hdop>3.062</hdop><vdop>2.5</vdop><extensions><gom:speed>0.933</gom:speed></extensions></trkpt>
   <trkpt lat="59.2956348763" lon="34.656308334"><ele>164.684</ele><time>2026-08-16T14:22:00.512Z</time><hdop>3.062</hdop><vdop>2.5</vdop><extensions><gom:speed>0.936</gom:speed></extensions></trkpt>
   <trkpt lat="59.2956316911" lon="34.656307831"><ele>164.725</ele><time>2026-08-16T14:22:01.136Z</time><hdop>3.062</hdop><vdop>2.5</vdop><extensions><gom:speed>0.729</gom:speed></extensions></trkpt>
   <trkpt lat="59.2956254885" lon="34.656305987"><ele>165.094</ele><time>2026-08-16T14:22:02.136Z</time><hdop>3.062</hdop><vdop>2.5</vdop><extensions><gom:speed>1.001</gom:speed></extensions></trkpt>
   <trkpt lat="59.2956160589" lon="34.6563061547"><ele>165.54</ele><time>2026-08-16T14:22:03.136Z</time><hdop>3.062</hdop><vdop>2.5</vdop><extensions><gom:speed>0.983</gom:speed></extensions></trkpt>
   <trkpt lat="59.2956094791" lon="34.6563030534"><ele>165.732</ele><time>2026-08-16T14:22:04.136Z</time><hdop>3.0</hdop><vdop>2.5</vdop><extensions><gom:speed>0.84</gom:speed></extensions></trkpt>
   <trkpt lat="59.2956040728" lon="34.656297186"><ele>165.847</ele><time>2026-08-16T14:22:05.006Z</time><hdop>3.0</hdop><vdop>2.5</vdop><extensions><gom:speed>0.809</gom:speed></extensions></trkpt>
   <trkpt lat="59.2955973672" lon="34.6562948391"><ele>165.981</ele><time>2026-08-16T14:22:06.136Z</time><hdop>3.0</hdop><vdop>2.5</vdop><extensions><gom:speed>0.816</gom:speed></extensions></trkpt>
   <trkpt lat="59.2955907874" lon="34.656287463"><ele>165.629</ele><time>2026-08-16T14:22:07.136Z</time><hdop>3.0</hdop><vdop>2.5</vdop><extensions><gom:speed>0.878</gom:speed></extensions></trkpt>
   <trkpt lat="59.2955870994" lon="34.656278662"><ele>165.419</ele><time>2026-08-16T14:22:07.755Z</time><hdop>3.0</hdop><vdop>2.5</vdop><extensions><gom:speed>0.873</gom:speed></extensions></trkpt>
   <trkpt lat="59.2955853811" lon="34.6562677655"><ele>165.156</ele><time>2026-08-16T14:22:08.452Z</time><hdop>3.0</hdop><vdop>2.5</vdop><extensions><gom:speed>0.807</gom:speed></extensions></trkpt>
   <trkpt lat="59.2955823636" lon="34.6562576234"><ele>164.999</ele><time>2026-08-16T14:22:09.130Z</time><hdop>3.0</hdop><vdop>2.5</vdop><extensions><gom:speed>0.827</gom:speed></extensions></trkpt>
   <trkpt lat="59.2955800586" lon="34.6562408596"><ele>164.976</ele><time>2026-08-16T14:22:09.974Z</time><hdop>3.0</hdop><vdop>2.5</vdop><extensions><gom:speed>0.886</gom:speed></extensions></trkpt>
   <trkpt lat="59.2955771669" lon="34.6562199887"><ele>164.8</ele><time>2026-08-16T14:22:11.136Z</time><hdop>3.0</hdop><vdop>2.5</vdop><extensions><gom:speed>0.935</gom:speed></extensions></trkpt>
   <trkpt lat="59.2955735626" lon="34.6562089246"><ele>164.694</ele><time>2026-08-16T14:22:11.848Z</time><hdop>3.0</hdop><vdop>2.5</vdop><extensions><gom:speed>0.932</gom:speed></extensions></trkpt>
   <trkpt lat="59.2955696651" lon="34.656193921"><ele>164.547</ele><time>2026-08-16T14:22:12.751Z</time><hdop>3.0</hdop><vdop>2.5</vdop><extensions><gom:speed>0.993</gom:speed></extensions></trkpt>
   <trkpt lat="59.2955683659" lon="34.6561854553"><ele>164.498</ele><time>2026-08-16T14:22:13.272Z</time><hdop>3.0</hdop><vdop>2.5</vdop><extensions><gom:speed>1.001</gom:speed></extensions></trkpt>
   <trkpt lat="59.2955643845" lon="34.6561729662"><ele>164.377</ele><time>2026-08-16T14:22:14.136Z</time><hdop>3.0</hdop><vdop>2.5</vdop><extensions><gom:speed>0.975</gom:speed></extensions></trkpt>
   <trkpt lat="59.2955603611" lon="34.6561660931"><ele>164.305</ele><time>2026-08-16T14:22:14.714Z</time><hdop>3.0</hdop><vdop>2.5</vdop><extensions><gom:speed>0.98</gom:speed></extensions></trkpt>
   <trkpt lat="59.2955540747" lon="34.6561627403"><ele>164.019</ele><time>2026-08-16T14:22:15.528Z</time><hdop>3.0</hdop><vdop>2.5</vdop><extensions><gom:speed>1.007</gom:speed></extensions></trkpt>
   <trkpt lat="59.295548375" lon="34.6561574597"><ele>163.675</ele><time>2026-08-16T14:22:16.138Z</time><hdop>3.0</hdop><vdop>2.5</vdop><extensions><gom:speed>1.033</gom:speed></extensions></trkpt>
   <trkpt lat="59.2955450642" lon="34.6561532687"><ele>163.47</ele><time>2026-08-16T14:22:16.895Z</time><hdop>3.0</hdop><vdop>2.5</vdop><extensions><gom:speed>0.958</gom:speed></extensions></trkpt>
   <trkpt lat="59.2955438907" lon="34.6561450545"><ele>163.156</ele><time>2026-08-16T14:22:17.572Z</time><hdop>3.0</hdop><vdop>2.5</vdop><extensions><gom:speed>0.938</gom:speed></extensions></trkpt>
   <trkpt lat="59.2955428849" lon="34.6561382651"><ele>163.212</ele><time>2026-08-16T14:22:18.136Z</time><hdop>3.0</hdop><vdop>2.5</vdop><extensions><gom:speed>0.932</gom:speed></extensions></trkpt>
   <trkpt lat="59.2955391968" lon="34.6561277878"><ele>163.246</ele><time>2026-08-16T14:22:18.976Z</time><hdop>3.0</hdop><vdop>2.5</vdop><extensions><gom:speed>0.883</gom:speed></extensions></trkpt>
   <trkpt lat="59.2955338743" lon="34.6561222557"><ele>163.02</ele><time>2026-08-16T14:22:19.928Z</time><hdop>3.0</hdop><vdop>2.5</vdop><extensions><gom:speed>0.875</gom:speed></extensions></trkpt>
   <trkpt lat="59.29552939" lon="34.6561214175"><ele>162.742</ele><time>2026-08-16T14:22:20.634Z</time><hdop>3.0</hdop><vdop>2.5</vdop><extensions><gom:speed>0.846</gom:speed></extensions></trkpt>
   <trkpt lat="59.2955277974" lon="34.6561202441"><ele>162.626</ele><time>2026-08-16T14:22:21.135Z</time><hdop>3.0</hdop><vdop>2.5</vdop><extensions><gom:speed>0.849</gom:speed></extensions></trkpt>
   <trkpt lat="59.2955248638" lon="34.6561132871"><ele>162.568</ele><time>2026-08-16T14:22:22.136Z</time><hdop>3.0</hdop><vdop>2.5</vdop><extensions><gom:speed>0.809</gom:speed></extensions></trkpt>
   <trkpt lat="59.295522894" lon="34.6561036479"><ele>162.534</ele><time>2026-08-16T14:22:22.951Z</time><hdop>3.0</hdop><vdop>2.5</vdop><extensions><gom:speed>0.813</gom:speed></extensions></trkpt>
   <trkpt lat="59.2955171943" lon="34.6561041508"><ele>162.82</ele><time>2026-08-16T14:22:24.136Z</time><hdop>3.0</hdop><vdop>2.5</vdop><extensions><gom:speed>0.75</gom:speed></extensions></trkpt>
   <trkpt lat="59.295513171" lon="34.6561063301"><ele>162.991</ele><time>2026-08-16T14:22:24.688Z</time><hdop>3.0</hdop><vdop>2.5</vdop><extensions><gom:speed>0.743</gom:speed></extensions></trkpt>
   <trkpt lat="59.2955058788" lon="34.6561171427"><ele>162.789</ele><time>2026-08-16T14:22:26.136Z</time><hdop>3.0</hdop><vdop>2.5</vdop><extensions><gom:speed>0.609</gom:speed></extensions></trkpt>
   <trkpt lat="59.2955022745" lon="34.6561163884"><ele>162.669</ele><time>2026-08-16T14:22:26.955Z</time><hdop>3.0</hdop><vdop>2.5</vdop><extensions><gom:speed>0.511</gom:speed></extensions></trkpt>
   <trkpt lat="59.2955011849" lon="34.6561167237"><ele>162.499</ele><time>2026-08-16T14:22:27.515Z</time><hdop>3.0</hdop><vdop>2.5</vdop><extensions><gom:speed>0.432</gom:speed></extensions></trkpt>
   <trkpt lat="59.295498377" lon="34.6561164722"><ele>162.584</ele><time>2026-08-16T14:22:28.136Z</time><hdop>3.0</hdop><vdop>2.5</vdop><extensions><gom:speed>0.488</gom:speed></extensions></trkpt>
   <trkpt lat="59.2954951918" lon="34.6561160531"><ele>162.668</ele><time>2026-08-16T14:22:29.136Z</time><hdop>3.0</hdop><vdop>2.5</vdop><extensions><gom:speed>0.338</gom:speed></extensions></trkpt>
   <trkpt lat="59.2954933897" lon="34.6561145444"><ele>162.718</ele><time>2026-08-16T14:22:30.008Z</time><hdop>3.0</hdop><vdop>2.5</vdop><extensions><gom:speed>0.314</gom:speed></extensions></trkpt>
   <trkpt lat="59.2954908752" lon="34.6561200764"><ele>162.427</ele><time>2026-08-16T14:22:30.793Z</time><hdop>3.0</hdop><vdop>2.5</vdop><extensions><gom:speed>0.338</gom:speed></extensions></trkpt>
   <trkpt lat="59.2954868938" lon="34.6561256923"><ele>162.496</ele><time>2026-08-16T14:22:31.528Z</time><hdop>3.0</hdop><vdop>2.5</vdop><extensions><gom:speed>0.42</gom:speed></extensions></trkpt>
   <trkpt lat="59.2954821999" lon="34.6561302185"><ele>162.691</ele><time>2026-08-16T14:22:32.136Z</time><hdop>3.0</hdop><vdop>2.5</vdop><extensions><gom:speed>0.589</gom:speed></extensions></trkpt>
   <trkpt lat="59.2954762906" lon="34.6561330684"><ele>162.807</ele><time>2026-08-16T14:22:32.933Z</time><hdop>3.0</hdop><vdop>2.5</vdop><extensions><gom:speed>0.595</gom:speed></extensions></trkpt>
   <trkpt lat="59.2954675735" lon="34.6561449707"><ele>162.954</ele><time>2026-08-16T14:22:33.856Z</time><hdop>3.0</hdop><vdop>2.5</vdop><extensions><gom:speed>0.779</gom:speed></extensions></trkpt>
   <trkpt lat="59.2954626701" lon="34.6561567891"><ele>163.196</ele><time>2026-08-16T14:22:34.494Z</time><hdop>3.0</hdop><vdop>2.5</vdop><extensions><gom:speed>0.808</gom:speed></extensions></trkpt>
   <trkpt lat="59.2954574733" lon="34.6561623212"><ele>163.341</ele><time>2026-08-16T14:22:35.112Z</time><hdop>3.0</hdop><vdop>2.5</vdop><extensions><gom:speed>0.877</gom:speed></extensions></trkpt>
   <trkpt lat="59.2954498877" lon="34.6561670989"><ele>163.608</ele><time>2026-08-16T14:22:35.907Z</time><hdop>3.0</hdop><vdop>2.5</vdop><extensions><gom:speed>0.899</gom:speed></extensions></trkpt>
   <trkpt lat="59.2954458643" lon="34.6561660931"><ele>163.651</ele><time>2026-08-16T14:22:36.555Z</time><hdop>3.0</hdop><vdop>2.5</vdop><extensions><gom:speed>0.85</gom:speed></extensions></trkpt>
   <trkpt lat="59.2954424697" lon="34.6561649196"><ele>163.829</ele><time>2026-08-16T14:22:37.135Z</time><hdop>3.0</hdop><vdop>2.5</vdop><extensions><gom:speed>0.845</gom:speed></extensions></trkpt>
   <trkpt lat="59.2954379854" lon="34.6561651711"><ele>163.935</ele><time>2026-08-16T14:22:37.752Z</time><hdop>3.0</hdop><vdop>2.5</vdop><extensions><gom:speed>0.842</gom:speed></extensions></trkpt>
   <trkpt lat="59.2954347583" lon="34.65616844"><ele>163.877</ele><time>2026-08-16T14:22:38.331Z</time><hdop>3.0</hdop><vdop>2.5</vdop><extensions><gom:speed>0.895</gom:speed></extensions></trkpt>
   <trkpt lat="59.2954293939" lon="34.6561739721"><ele>163.762</ele><time>2026-08-16T14:22:39.136Z</time><hdop>3.0</hdop><vdop>2.5</vdop><extensions><gom:speed>0.953</gom:speed></extensions></trkpt>
   <trkpt lat="59.2954231913" lon="34.6561791688"><ele>163.693</ele><time>2026-08-16T14:22:39.874Z</time><hdop>3.0</hdop><vdop>2.5</vdop><extensions><gom:speed>0.945</gom:speed></extensions></trkpt>
   <trkpt lat="59.2954179945" lon="34.6561812643"><ele>163.394</ele><time>2026-08-16T14:22:40.649Z</time><hdop>3.0</hdop><vdop>2.5</vdop><extensions><gom:speed>0.928</gom:speed></extensions></trkpt>
   <trkpt lat="59.2954144741" lon="34.656180929"><ele>163.497</ele><time>2026-08-16T14:22:41.136Z</time><hdop>3.0</hdop><vdop>2.5</vdop><extensions><gom:speed>0.947</gom:speed></extensions></trkpt>
   <trkpt lat="59.295408062" lon="34.6561806776"><ele>163.559</ele><time>2026-08-16T14:22:41.866Z</time><hdop>3.0</hdop><vdop>2.5</vdop><extensions><gom:speed>0.959</gom:speed></extensions></trkpt>
   <trkpt lat="59.2954019851" lon="34.6561800908"><ele>163.445</ele><time>2026-08-16T14:22:42.631Z</time><hdop>3.0</hdop><vdop>2.5</vdop><extensions><gom:speed>0.956</gom:speed></extensions></trkpt>
   <trkpt lat="59.2953989676" lon="34.6561786659"><ele>163.576</ele><time>2026-08-16T14:22:43.136Z</time><hdop>3.0</hdop><vdop>2.5</vdop><extensions><gom:speed>0.905</gom:speed></extensions></trkpt>
   <trkpt lat="59.2953916753" lon="34.6561761513"><ele>163.654</ele><time>2026-08-16T14:22:44.055Z</time><hdop>3.0</hdop><vdop>2.5</vdop><extensions><gom:speed>0.916</gom:speed></extensions></trkpt>
   <trkpt lat="59.2953868977" lon="34.6561696973"><ele>163.962</ele><time>2026-08-16T14:22:44.830Z</time><hdop>3.0</hdop><vdop>2.5</vdop><extensions><gom:speed>0.886</gom:speed></extensions></trkpt>
   <trkpt lat="59.2953824972" lon="34.6561616507"><ele>164.222</ele><time>2026-08-16T14:22:45.566Z</time><hdop>3.0</hdop><vdop>2.5</vdop><extensions><gom:speed>0.889</gom:speed></extensions></trkpt>
   <trkpt lat="59.2953781805" lon="34.6561582979"><ele>164.378</ele><time>2026-08-16T14:22:46.047Z</time><hdop>3.0</hdop><vdop>2.5</vdop><extensions><gom:speed>0.947</gom:speed></extensions></trkpt>
   <trkpt lat="59.2953721874" lon="34.6561529335"><ele>164.434</ele><time>2026-08-16T14:22:46.911Z</time><hdop>3.0</hdop><vdop>2.5</vdop><extensions><gom:speed>0.924</gom:speed></extensions></trkpt>
   <trkpt lat="59.2953689604" lon="34.6561504189"><ele>164.501</ele><time>2026-08-16T14:22:47.431Z</time><hdop>3.0</hdop><vdop>2.5</vdop><extensions><gom:speed>0.954</gom:speed></extensions></trkpt>
   <trkpt lat="59.2953651885" lon="34.6561458927"><ele>164.413</ele><time>2026-08-16T14:22:48.136Z</time><hdop>3.0</hdop><vdop>2.5</vdop><extensions><gom:speed>0.88</gom:speed></extensions></trkpt>
   <trkpt lat="59.2953605785" lon="34.6561384328"><ele>164.36</ele><time>2026-08-16T14:22:48.874Z</time><hdop>3.0</hdop><vdop>2.5</vdop><extensions><gom:speed>0.876</gom:speed></extensions></trkpt>
   <trkpt lat="59.2953555912" lon="34.6561316434"><ele>164.522</ele><time>2026-08-16T14:22:49.728Z</time><hdop>3.0</hdop><vdop>2.5</vdop><extensions><gom:speed>0.886</gom:speed></extensions></trkpt>
   <trkpt lat="59.2953498915" lon="34.6561266981"><ele>164.781</ele><time>2026-08-16T14:22:50.495Z</time><hdop>3.0</hdop><vdop>2.5</vdop><extensions><gom:speed>0.906</gom:speed></extensions></trkpt>
   <trkpt lat="59.2953447786" lon="34.6561237645"><ele>164.936</ele><time>2026-08-16T14:22:51.094Z</time><hdop>3.0</hdop><vdop>2.5</vdop><extensions><gom:speed>0.9</gom:speed></extensions></trkpt>
   <trkpt lat="59.2953389951" lon="34.6561135385"><ele>165.074</ele><time>2026-08-16T14:22:52.007Z</time><hdop>3.0</hdop><vdop>2.5</vdop><extensions><gom:speed>0.918</gom:speed></extensions></trkpt>
   <trkpt lat="59.2953308646" lon="34.6561088447"><ele>164.332</ele><time>2026-08-16T14:22:53.136Z</time><hdop>3.0</hdop><vdop>2.5</vdop><extensions><gom:speed>0.984</gom:speed></extensions></trkpt>
   <trkpt lat="59.2953261708" lon="34.6561142929"><ele>163.889</ele><time>2026-08-16T14:22:53.656Z</time><hdop>3.0</hdop><vdop>2.5</vdop><extensions><gom:speed>0.997</gom:speed></extensions></trkpt>
   <trkpt lat="59.2953225665" lon="34.6561154664"><ele>163.796</ele><time>2026-08-16T14:22:54.136Z</time><hdop>3.0</hdop><vdop>2.5</vdop><extensions><gom:speed>0.988</gom:speed></extensions></trkpt>
   <trkpt lat="59.2953148971" lon="34.6561164722"><ele>163.595</ele><time>2026-08-16T14:22:55.136Z</time><hdop>3.0</hdop><vdop>2.5</vdop><extensions><gom:speed>0.963</gom:speed></extensions></trkpt>
   <trkpt lat="59.2953102871" lon="34.6561170589"><ele>163.476</ele><time>2026-08-16T14:22:55.707Z</time><hdop>3.0</hdop><vdop>2.5</vdop><extensions><gom:speed>0.971</gom:speed></extensions></trkpt>
   <trkpt lat="59.2953027853" lon="34.6561163884"><ele>163.447</ele><time>2026-08-16T14:22:56.590Z</time><hdop>3.0</hdop><vdop>2.5</vdop><extensions><gom:speed>0.966</gom:speed></extensions></trkpt>
   <trkpt lat="59.2952985943" lon="34.6561166398"><ele>163.412</ele><time>2026-08-16T14:22:57.136Z</time><hdop>3.0</hdop><vdop>2.5</vdop><extensions><gom:speed>0.996</gom:speed></extensions></trkpt>
   <trkpt lat="59.2952915954" lon="34.6561192382"><ele>163.391</ele><time>2026-08-16T14:22:57.915Z</time><hdop>3.0</hdop><vdop>2.5</vdop><extensions><gom:speed>0.993</gom:speed></extensions></trkpt>
   <trkpt lat="59.2952865663" lon="34.6561175618"><ele>163.066</ele><time>2026-08-16T14:22:58.534Z</time><hdop>3.0</hdop><vdop>2.5</vdop><extensions><gom:speed>1.011</gom:speed></extensions></trkpt>
   <trkpt lat="59.295282082" lon="34.6561138738"><ele>162.769</ele><time>2026-08-16T14:22:59.136Z</time><hdop>3.0</hdop><vdop>2.5</vdop><extensions><gom:speed>0.971</gom:speed></extensions></trkpt>
   <trkpt lat="59.2952742868" lon="34.6561120298"><ele>162.592</ele><time>2026-08-16T14:23:00.035Z</time><hdop>3.0</hdop><vdop>2.5</vdop><extensions><gom:speed>0.958</gom:speed></extensions></trkpt>
   <trkpt lat="59.2952680842" lon="34.6560992893"><ele>162.425</ele><time>2026-08-16T14:23:01.066Z</time><hdop>3.062</hdop><vdop>2.5</vdop><extensions><gom:speed>0.934</gom:speed></extensions></trkpt>
   <trkpt lat="59.2952634741" lon="34.6560895663"><ele>162.459</ele><time>2026-08-16T14:23:01.891Z</time><hdop>3.062</hdop><vdop>2.5</vdop><extensions><gom:speed>0.936</gom:speed></extensions></trkpt>
   <trkpt lat="59.295260289" lon="34.6560815197"><ele>162.084</ele><time>2026-08-16T14:23:02.628Z</time><hdop>3.062</hdop><vdop>2.5</vdop><extensions><gom:speed>0.987</gom:speed></extensions></trkpt>
   <trkpt lat="59.2952587803" lon="34.6560766582"><ele>162.08</ele><time>2026-08-16T14:23:03.136Z</time><hdop>3.062</hdop><vdop>2.5</vdop><extensions><gom:speed>0.895</gom:speed></extensions></trkpt>
   <trkpt lat="59.2952536673" lon="34.6560689468"><ele>162.078</ele><time>2026-08-16T14:23:04.012Z</time><hdop>3.062</hdop><vdop>2.5</vdop><extensions><gom:speed>0.877</gom:speed></extensions></trkpt>
   <trkpt lat="59.2952519909" lon="34.6560632471"><ele>161.985</ele><time>2026-08-16T14:23:04.493Z</time><hdop>3.062</hdop><vdop>2.5</vdop><extensions><gom:speed>0.862</gom:speed></extensions></trkpt>
   <trkpt lat="59.2952487639" lon="34.6560565416"><ele>161.952</ele><time>2026-08-16T14:23:05.136Z</time><hdop>3.062</hdop><vdop>2.5</vdop><extensions><gom:speed>0.894</gom:speed></extensions></trkpt>
   <trkpt lat="59.29524407" lon="34.6560472377"><ele>161.932</ele><time>2026-08-16T14:23:05.906Z</time><hdop>3.0</hdop><vdop>2.5</vdop><extensions><gom:speed>0.891</gom:speed></extensions></trkpt>
   <trkpt lat="59.2952409687" lon="34.6560377661"><ele>162.032</ele><time>2026-08-16T14:23:06.593Z</time><hdop>3.0</hdop><vdop>2.5</vdop><extensions><gom:speed>0.928</gom:speed></extensions></trkpt>
   <trkpt lat="59.2952383703" lon="34.6560289651"><ele>162.092</ele><time>2026-08-16T14:23:07.074Z</time><hdop>3.0</hdop><vdop>2.5</vdop><extensions><gom:speed>1.012</gom:speed></extensions></trkpt>
   <trkpt lat="59.2952341794" lon="34.6560166437"><ele>161.923</ele><time>2026-08-16T14:23:07.928Z</time><hdop>3.0</hdop><vdop>2.5</vdop><extensions><gom:speed>0.991</gom:speed></extensions></trkpt>
   <trkpt lat="59.29522739" lon="34.6560039871"><ele>161.688</ele><time>2026-08-16T14:23:09.136Z</time><hdop>3.0</hdop><vdop>2.5</vdop><extensions><gom:speed>1.016</gom:speed></extensions></trkpt>
   <trkpt lat="59.2952220675" lon="34.6559990417"><ele>161.548</ele><time>2026-08-16T14:23:09.734Z</time><hdop>3.0</hdop><vdop>2.5</vdop><extensions><gom:speed>1.017</gom:speed></extensions></trkpt>
   <trkpt lat="59.2952133923" lon="34.6559955213"><ele>161.473</ele><time>2026-08-16T14:23:10.588Z</time><hdop>3.0</hdop><vdop>2.5</vdop><extensions><gom:speed>1.038</gom:speed></extensions></trkpt>
   <trkpt lat="59.2952092851" lon="34.655991498"><ele>161.521</ele><time>2026-08-16T14:23:11.136Z</time><hdop>3.0</hdop><vdop>2.5</vdop><extensions><gom:speed>1.004</gom:speed></extensions></trkpt>
   <trkpt lat="59.2952044655" lon="34.6559786737"><ele>161.55</ele><time>2026-08-16T14:23:11.953Z</time><hdop>3.0</hdop><vdop>2.5</vdop><extensions><gom:speed>1.0</gom:speed></extensions></trkpt>
   <trkpt lat="59.2952021605" lon="34.6559708785"><ele>161.624</ele><time>2026-08-16T14:23:12.473Z</time><hdop>3.0</hdop><vdop>2.5</vdop><extensions><gom:speed>0.981</gom:speed></extensions></trkpt>
   <trkpt lat="59.2951982629" lon="34.655963251"><ele>162.103</ele><time>2026-08-16T14:23:13.136Z</time><hdop>3.0</hdop><vdop>2.5</vdop><extensions><gom:speed>0.978</gom:speed></extensions></trkpt>
   <trkpt lat="59.2951909707" lon="34.6559578866"><ele>162.382</ele><time>2026-08-16T14:23:14.136Z</time><hdop>3.0</hdop><vdop>2.5</vdop><extensions><gom:speed>0.901</gom:speed></extensions></trkpt>
   <trkpt lat="59.2951844747" lon="34.6559585571"><ele>162.548</ele><time>2026-08-16T14:23:14.887Z</time><hdop>3.0</hdop><vdop>2.5</vdop><extensions><gom:speed>0.896</gom:speed></extensions></trkpt>
   <trkpt lat="59.2951821697" lon="34.6559563778"><ele>162.71</ele><time>2026-08-16T14:23:15.446Z</time><hdop>3.0</hdop><vdop>2.5</vdop><extensions><gom:speed>0.836</gom:speed></extensions></trkpt>
   <trkpt lat="59.2951788588" lon="34.6559491694"><ele>162.778</ele><time>2026-08-16T14:23:16.136Z</time><hdop>3.0</hdop><vdop>2.5</vdop><extensions><gom:speed>0.832</gom:speed></extensions></trkpt>
   <trkpt lat="59.2951737878" lon="34.6559357584"><ele>162.819</ele><time>2026-08-16T14:23:17.086Z</time><hdop>3.0</hdop><vdop>2.5</vdop><extensions><gom:speed>0.873</gom:speed></extensions></trkpt>
   <trkpt lat="59.2951718599" lon="34.6559276279"><ele>162.975</ele><time>2026-08-16T14:23:17.773Z</time><hdop>3.0</hdop><vdop>2.5</vdop><extensions><gom:speed>0.821</gom:speed></extensions></trkpt>
   <trkpt lat="59.2951712732" lon="34.6559224311"><ele>162.973</ele><time>2026-08-16T14:23:18.313Z</time><hdop>3.0</hdop><vdop>2.5</vdop><extensions><gom:speed>0.783</gom:speed></extensions></trkpt>
   <trkpt lat="59.2951696806" lon="34.6559145521"><ele>162.972</ele><time>2026-08-16T14:23:18.931Z</time><hdop>3.0</hdop><vdop>2.5</vdop><extensions><gom:speed>0.775</gom:speed></extensions></trkpt>
   <trkpt lat="59.2951640648" lon="34.6559069246"><ele>162.925</ele><time>2026-08-16T14:23:20.136Z</time><hdop>3.0</hdop><vdop>2.5</vdop><extensions><gom:speed>0.71</gom:speed></extensions></trkpt>
   <trkpt lat="59.2951571916" lon="34.6559063379"><ele>163.226</ele><time>2026-08-16T14:23:21.136Z</time><hdop>3.0</hdop><vdop>2.5</vdop><extensions><gom:speed>0.706</gom:speed></extensions></trkpt>
   <trkpt lat="59.2951521625" lon="34.6559091877"><ele>163.406</ele><time>2026-08-16T14:23:21.807Z</time><hdop>3.0</hdop><vdop>2.5</vdop><extensions><gom:speed>0.703</gom:speed></extensions></trkpt>
   <trkpt lat="59.2951515757" lon="34.6559166476"><ele>163.596</ele><time>2026-08-16T14:23:23.136Z</time><hdop>3.0</hdop><vdop>2.5</vdop><extensions><gom:speed>0.299</gom:speed></extensions></trkpt>
   <trkpt lat="59.2951511985" lon="34.6559173182"><ele>163.702</ele><time>2026-08-16T14:23:24.136Z</time><hdop>3.0</hdop><vdop>2.5</vdop><extensions><gom:speed>0.18</gom:speed></extensions></trkpt>
   <trkpt lat="59.2951513662" lon="34.6559165638"><ele>163.755</ele><time>2026-08-16T14:23:25.136Z</time><hdop>3.0</hdop><vdop>2.5</vdop><extensions><gom:speed>0.084</gom:speed></extensions></trkpt>
   <trkpt lat="59.2951512824" lon="34.6559161447"><ele>163.781</ele><time>2026-08-16T14:23:26.136Z</time><hdop>3.0</hdop><vdop>2.5</vdop><extensions><gom:speed>0.041</gom:speed></extensions></trkpt>
   <trkpt lat="59.2951513662" lon="34.6559168991"><ele>163.799</ele><time>2026-08-16T14:23:27.136Z</time><hdop>3.0</hdop><vdop>2.5</vdop><extensions><gom:speed>0.064</gom:speed></extensions></trkpt>
   <trkpt lat="59.2951510728" lon="34.6559169829"><ele>163.815</ele><time>2026-08-16T14:23:28.136Z</time><hdop>3.0</hdop><vdop>2.5</vdop><extensions><gom:speed>0.027</gom:speed></extensions></trkpt>
   <trkpt lat="59.2951513662" lon="34.6559170667"><ele>163.824</ele><time>2026-08-16T14:23:29.136Z</time><hdop>3.0</hdop><vdop>2.5</vdop><extensions><gom:speed>0.021</gom:speed></extensions></trkpt>
   <trkpt lat="59.2951508633" lon="34.6559169829"><ele>163.848</ele><time>2026-08-16T14:23:30.136Z</time><hdop>3.0</hdop><vdop>2.5</vdop><extensions><gom:speed>0.022</gom:speed></extensions></trkpt>
   <trkpt lat="59.2951507794" lon="34.6559162285"><ele>163.855</ele><time>2026-08-16T14:23:31.136Z</time><hdop>3.0</hdop><vdop>2.5</vdop><extensions><gom:speed>0.057</gom:speed></extensions></trkpt>
   <trkpt lat="59.2951506956" lon="34.6559167314"><ele>163.846</ele><time>2026-08-16T14:23:32.136Z</time><hdop>3.0</hdop><vdop>2.5</vdop><extensions><gom:speed>0.014</gom:speed></extensions></trkpt>
   <trkpt lat="59.2951505699" lon="34.6559158933"><ele>163.833</ele><time>2026-08-16T14:23:33.136Z</time><hdop>3.0</hdop><vdop>2.5</vdop><extensions><gom:speed>0.022</gom:speed></extensions></trkpt>
   <trkpt lat="59.2951505699" lon="34.6559152227"><ele>163.841</ele><time>2026-08-16T14:23:34.136Z</time><hdop>3.0</hdop><vdop>2.5</vdop><extensions><gom:speed>0.029</gom:speed></extensions></trkpt>
   <trkpt lat="59.295150067" lon="34.6559167314"><ele>163.764</ele><time>2026-08-16T14:23:35.136Z</time><hdop>3.0</hdop><vdop>2.5</vdop><extensions><gom:speed>0.073</gom:speed></extensions></trkpt>
   <trkpt lat="59.2951496898" lon="34.6559168991"><ele>163.718</ele><time>2026-08-16T14:23:35.794Z</time><hdop>3.0</hdop><vdop>2.5</vdop><extensions><gom:speed>0.11</gom:speed></extensions></trkpt>
   <trkpt lat="59.2951476781" lon="34.6559153903"><ele>163.477</ele><time>2026-08-16T14:23:36.669Z</time><hdop>3.0</hdop><vdop>2.5</vdop><extensions><gom:speed>0.116</gom:speed></extensions></trkpt>
   <trkpt lat="59.2951453731" lon="34.6559118699"><ele>163.298</ele><time>2026-08-16T14:23:37.136Z</time><hdop>3.0</hdop><vdop>2.5</vdop><extensions><gom:speed>0.192</gom:speed></extensions></trkpt>
   <trkpt lat="59.2951430681" lon="34.6559066732"><ele>163.191</ele><time>2026-08-16T14:23:37.994Z</time><hdop>3.0</hdop><vdop>2.5</vdop><extensions><gom:speed>0.312</gom:speed></extensions></trkpt>
   <trkpt lat="59.2951377875" lon="34.6559019793"><ele>162.94</ele><time>2026-08-16T14:23:38.769Z</time><hdop>3.0</hdop><vdop>2.5</vdop><extensions><gom:speed>0.402</gom:speed></extensions></trkpt>
   <trkpt lat="59.2951322973" lon="34.6558982913"><ele>162.841</ele><time>2026-08-16T14:23:39.329Z</time><hdop>3.0</hdop><vdop>2.5</vdop><extensions><gom:speed>0.551</gom:speed></extensions></trkpt>
   <trkpt lat="59.2951271844" lon="34.6558958605"><ele>162.781</ele><time>2026-08-16T14:23:40.075Z</time><hdop>3.0</hdop><vdop>2.5</vdop><extensions><gom:speed>0.671</gom:speed></extensions></trkpt>
   <trkpt lat="59.295122281" lon="34.6558907475"><ele>162.856</ele><time>2026-08-16T14:23:40.575Z</time><hdop>3.0</hdop><vdop>2.5</vdop><extensions><gom:speed>0.716</gom:speed></extensions></trkpt>
   <trkpt lat="59.2951172937" lon="34.6558856346"><ele>163.172</ele><time>2026-08-16T14:23:41.136Z</time><hdop>3.0</hdop><vdop>2.5</vdop><extensions><gom:speed>0.771</gom:speed></extensions></trkpt>
   <trkpt lat="59.2951123903" lon="34.655880354"><ele>163.361</ele><time>2026-08-16T14:23:41.812Z</time><hdop>3.0</hdop><vdop>2.5</vdop><extensions><gom:speed>0.775</gom:speed></extensions></trkpt>
   <trkpt lat="59.2951071935" lon="34.6558768336"><ele>163.697</ele><time>2026-08-16T14:23:42.449Z</time><hdop>3.0</hdop><vdop>2.5</vdop><extensions><gom:speed>0.822</gom:speed></extensions></trkpt>
   <trkpt lat="59.2951019968" lon="34.6558730617"><ele>163.898</ele><time>2026-08-16T14:23:43.008Z</time><hdop>3.0</hdop><vdop>2.5</vdop><extensions><gom:speed>0.913</gom:speed></extensions></trkpt>
   <trkpt lat="59.2950951655" lon="34.6558730617"><ele>163.787</ele><time>2026-08-16T14:23:43.814Z</time><hdop>3.0</hdop><vdop>2.5</vdop><extensions><gom:speed>0.858</gom:speed></extensions></trkpt>
   <trkpt lat="59.2950902621" lon="34.6558747381"><ele>163.817</ele><time>2026-08-16T14:23:44.306Z</time><hdop>3.0</hdop><vdop>2.5</vdop><extensions><gom:speed>0.927</gom:speed></extensions></trkpt>
   <trkpt lat="59.2950821736" lon="34.6558722235"><ele>163.836</ele><time>2026-08-16T14:23:45.091Z</time><hdop>3.0</hdop><vdop>2.5</vdop><extensions><gom:speed>1.005</gom:speed></extensions></trkpt>
   <trkpt lat="59.2950769768" lon="34.655874319"><ele>163.72</ele><time>2026-08-16T14:23:45.592Z</time><hdop>3.0</hdop><vdop>2.5</vdop><extensions><gom:speed>0.975</gom:speed></extensions></trkpt>
   <trkpt lat="59.2950713609" lon="34.655874319"><ele>163.41</ele><time>2026-08-16T14:23:46.136Z</time><hdop>3.0</hdop><vdop>2.5</vdop><extensions><gom:speed>0.992</gom:speed></extensions></trkpt>
   <trkpt lat="59.2950647811" lon="34.6558712177"><ele>163.224</ele><time>2026-08-16T14:23:46.789Z</time><hdop>3.0</hdop><vdop>2.5</vdop><extensions><gom:speed>0.993</gom:speed></extensions></trkpt>
   <trkpt lat="59.2950558963" lon="34.6558718883"><ele>162.981</ele><time>2026-08-16T14:23:47.575Z</time><hdop>3.0</hdop><vdop>2.5</vdop><extensions><gom:speed>0.988</gom:speed></extensions></trkpt>
   <trkpt lat="59.2950496937" lon="34.6558711339"><ele>162.835</ele><time>2026-08-16T14:23:48.115Z</time><hdop>3.0</hdop><vdop>2.5</vdop><extensions><gom:speed>1.04</gom:speed></extensions></trkpt>
   <trkpt lat="59.2950422757" lon="34.6558756601"><ele>162.37</ele><time>2026-08-16T14:23:48.792Z</time><hdop>3.0</hdop><vdop>2.5</vdop><extensions><gom:speed>1.011</gom:speed></extensions></trkpt>
   <trkpt lat="59.2950364922" lon="34.6558777556"><ele>162.051</ele><time>2026-08-16T14:23:49.312Z</time><hdop>3.0</hdop><vdop>2.5</vdop><extensions><gom:speed>1.038</gom:speed></extensions></trkpt>
   <trkpt lat="59.2950285713" lon="34.6558767498"><ele>161.861</ele><time>2026-08-16T14:23:50.029Z</time><hdop>3.0</hdop><vdop>2.5</vdop><extensions><gom:speed>1.06</gom:speed></extensions></trkpt>
   <trkpt lat="59.2950236679" lon="34.6558783423"><ele>161.796</ele><time>2026-08-16T14:23:50.568Z</time><hdop>3.0</hdop><vdop>2.5</vdop><extensions><gom:speed>1.038</gom:speed></extensions></trkpt>
   <trkpt lat="59.2950181777" lon="34.6558788452"><ele>161.711</ele><time>2026-08-16T14:23:51.136Z</time><hdop>3.0</hdop><vdop>2.5</vdop><extensions><gom:speed>1.002</gom:speed></extensions></trkpt>
   <trkpt lat="59.2950116818" lon="34.6558764983"><ele>161.66</ele><time>2026-08-16T14:23:51.815Z</time><hdop>3.0</hdop><vdop>2.5</vdop><extensions><gom:speed>1.002</gom:speed></extensions></trkpt>
   <trkpt lat="59.2950004919" lon="34.6558674459"><ele>161.621</ele><time>2026-08-16T14:23:53.052Z</time><hdop>3.0</hdop><vdop>2.5</vdop><extensions><gom:speed>1.028</gom:speed></extensions></trkpt>
   <trkpt lat="59.294994876" lon="34.6558621653"><ele>161.52</ele><time>2026-08-16T14:23:53.749Z</time><hdop>3.0</hdop><vdop>2.5</vdop><extensions><gom:speed>0.996</gom:speed></extensions></trkpt>
   <trkpt lat="59.2949899726" lon="34.6558583934"><ele>161.615</ele><time>2026-08-16T14:23:54.367Z</time><hdop>3.0</hdop><vdop>2.5</vdop><extensions><gom:speed>0.973</gom:speed></extensions></trkpt>
   <trkpt lat="59.2949843987" lon="34.6558529452"><ele>161.672</ele><time>2026-08-16T14:23:55.093Z</time><hdop>3.0</hdop><vdop>2.5</vdop><extensions><gom:speed>0.919</gom:speed></extensions></trkpt>
   <trkpt lat="59.2949805849" lon="34.6558515202"><ele>161.833</ele><time>2026-08-16T14:23:55.594Z</time><hdop>3.0</hdop><vdop>2.5</vdop><extensions><gom:speed>0.906</gom:speed></extensions></trkpt>
   <trkpt lat="59.2949763939" lon="34.6558491733"><ele>161.929</ele><time>2026-08-16T14:23:56.075Z</time><hdop>3.0</hdop><vdop>2.5</vdop><extensions><gom:speed>0.912</gom:speed></extensions></trkpt>
   <trkpt lat="59.2949702752" lon="34.6558466587"><ele>162.132</ele><time>2026-08-16T14:23:56.791Z</time><hdop>3.0</hdop><vdop>2.5</vdop><extensions><gom:speed>0.896</gom:speed></extensions></trkpt>
   <trkpt lat="59.2949645755" lon="34.6558411267"><ele>162.31</ele><time>2026-08-16T14:23:57.487Z</time><hdop>3.0</hdop><vdop>2.5</vdop><extensions><gom:speed>0.923</gom:speed></extensions></trkpt>
   <trkpt lat="59.294959672" lon="34.6558351755"><ele>162.416</ele><time>2026-08-16T14:23:58.067Z</time><hdop>3.0</hdop><vdop>2.5</vdop><extensions><gom:speed>0.974</gom:speed></extensions></trkpt>
   <trkpt lat="59.2949549782" lon="34.6558264583"><ele>162.537</ele><time>2026-08-16T14:23:58.754Z</time><hdop>3.0</hdop><vdop>2.5</vdop><extensions><gom:speed>0.97</gom:speed></extensions></trkpt>
   <trkpt lat="59.2949515835" lon="34.6558203396"><ele>162.654</ele><time>2026-08-16T14:23:59.235Z</time><hdop>3.0</hdop><vdop>2.5</vdop><extensions><gom:speed>0.988</gom:speed></extensions></trkpt>
   <trkpt lat="59.294944878" lon="34.6558104489"><ele>162.791</ele><time>2026-08-16T14:24:00.136Z</time><hdop>3.0</hdop><vdop>2.5</vdop><extensions><gom:speed>1.023</gom:speed></extensions></trkpt>
   <trkpt lat="59.2949380886" lon="34.6557987981"><ele>163.011</ele><time>2026-08-16T14:24:01.136Z</time><hdop>3.0</hdop><vdop>2.5</vdop><extensions><gom:speed>1.003</gom:speed></extensions></trkpt>
   <trkpt lat="59.2949336881" lon="34.6557873987"><ele>163.143</ele><time>2026-08-16T14:24:01.894Z</time><hdop>3.0</hdop><vdop>2.5</vdop><extensions><gom:speed>1.013</gom:speed></extensions></trkpt>
   <trkpt lat="59.2949317603" lon="34.6557770889"><ele>162.853</ele><time>2026-08-16T14:24:02.572Z</time><hdop>3.0</hdop><vdop>2.5</vdop><extensions><gom:speed>0.999</gom:speed></extensions></trkpt>
   <trkpt lat="59.2949297906" lon="34.6557676174"><ele>162.68</ele><time>2026-08-16T14:24:03.093Z</time><hdop>3.0</hdop><vdop>2.5</vdop><extensions><gom:speed>1.001</gom:speed></extensions></trkpt>
   <trkpt lat="59.2949296648" lon="34.6557516918"><ele>162.784</ele><time>2026-08-16T14:24:03.907Z</time><hdop>3.0</hdop><vdop>2.5</vdop><extensions><gom:speed>0.96</gom:speed></extensions></trkpt>
   <trkpt lat="59.2949296648" lon="34.6557394542"><ele>162.844</ele><time>2026-08-16T14:24:04.547Z</time><hdop>3.0</hdop><vdop>2.5</vdop><extensions><gom:speed>0.938</gom:speed></extensions></trkpt>
   <trkpt lat="59.2949282818" lon="34.6557297312"><ele>163.011</ele><time>2026-08-16T14:24:05.136Z</time><hdop>3.0</hdop><vdop>2.5</vdop><extensions><gom:speed>0.905</gom:speed></extensions></trkpt>
   <trkpt lat="59.2949255996" lon="34.6557171583"><ele>163.11</ele><time>2026-08-16T14:24:06.009Z</time><hdop>3.0</hdop><vdop>2.5</vdop><extensions><gom:speed>0.83</gom:speed></extensions></trkpt>
   <trkpt lat="59.2949265635" lon="34.6557018194"><ele>162.89</ele><time>2026-08-16T14:24:07.136Z</time><hdop>3.0</hdop><vdop>2.5</vdop><extensions><gom:speed>0.529</gom:speed></extensions></trkpt>
   <trkpt lat="59.2949265635" lon="34.6556977961"><ele>162.762</ele><time>2026-08-16T14:24:08.136Z</time><hdop>3.0</hdop><vdop>2.5</vdop><extensions><gom:speed>0.321</gom:speed></extensions></trkpt>
   <trkpt lat="59.294923588" lon="34.6556883246"><ele>162.701</ele><time>2026-08-16T14:24:09.136Z</time><hdop>3.0</hdop><vdop>2.5</vdop><extensions><gom:speed>0.514</gom:speed></extensions></trkpt>
   <trkpt lat="59.2949165891" lon="34.6556758355"><ele>162.686</ele><time>2026-08-16T14:24:10.136Z</time><hdop>3.0</hdop><vdop>2.5</vdop><extensions><gom:speed>0.676</gom:speed></extensions></trkpt>
   <trkpt lat="59.2949113923" lon="34.6556712255"><ele>162.677</ele><time>2026-08-16T14:24:10.789Z</time><hdop>3.0</hdop><vdop>2.5</vdop><extensions><gom:speed>0.672</gom:speed></extensions></trkpt>
   <trkpt lat="59.2949033876" lon="34.6556688786"><ele>162.334</ele><time>2026-08-16T14:24:11.368Z</time><hdop>3.0</hdop><vdop>2.5</vdop><extensions><gom:speed>0.845</gom:speed></extensions></trkpt>
   <trkpt lat="59.2948989871" lon="34.6556729857"><ele>161.947</ele><time>2026-08-16T14:24:12.136Z</time><hdop>3.0</hdop><vdop>2.5</vdop><extensions><gom:speed>0.636</gom:speed></extensions></trkpt>
   <trkpt lat="59.2948899765" lon="34.6556731533"><ele>161.928</ele><time>2026-08-16T14:24:13.136Z</time><hdop>3.0</hdop><vdop>2.5</vdop><extensions><gom:speed>1.023</gom:speed></extensions></trkpt>
   <trkpt lat="59.2948816784" lon="34.6556696329"><ele>161.916</ele><time>2026-08-16T14:24:13.812Z</time><hdop>3.0</hdop><vdop>2.5</vdop><extensions><gom:speed>1.018</gom:speed></extensions></trkpt>
   <trkpt lat="59.2948724583" lon="34.6556628436"><ele>162.179</ele><time>2026-08-16T14:24:14.607Z</time><hdop>3.0</hdop><vdop>2.5</vdop><extensions><gom:speed>1.121</gom:speed></extensions></trkpt>
   <trkpt lat="59.2948673873" lon="34.655656641"><ele>162.336</ele><time>2026-08-16T14:24:15.108Z</time><hdop>3.0</hdop><vdop>2.5</vdop><extensions><gom:speed>1.122</gom:speed></extensions></trkpt>
   <trkpt lat="59.2948590892" lon="34.6556477562"><ele>162.486</ele><time>2026-08-16T14:24:15.972Z</time><hdop>3.0</hdop><vdop>2.5</vdop><extensions><gom:speed>1.103</gom:speed></extensions></trkpt>
   <trkpt lat="59.2948534733" lon="34.6556435652"><ele>162.428</ele><time>2026-08-16T14:24:16.609Z</time><hdop>3.0</hdop><vdop>2.5</vdop><extensions><gom:speed>1.052</gom:speed></extensions></trkpt>
   <trkpt lat="59.2948475641" lon="34.6556387875"><ele>162.387</ele><time>2026-08-16T14:24:17.136Z</time><hdop>3.0</hdop><vdop>2.5</vdop><extensions><gom:speed>1.127</gom:speed></extensions></trkpt>
   <trkpt lat="59.2948389726" lon="34.6556329202"><ele>162.362</ele><time>2026-08-16T14:24:17.895Z</time><hdop>3.0</hdop><vdop>2.5</vdop><extensions><gom:speed>1.137</gom:speed></extensions></trkpt>
   <trkpt lat="59.2948351589" lon="34.6556346804"><ele>162.601</ele><time>2026-08-16T14:24:18.367Z</time><hdop>3.0</hdop><vdop>2.5</vdop><extensions><gom:speed>1.015</gom:speed></extensions></trkpt>
   <trkpt lat="59.2948278666" lon="34.6556344289"><ele>162.744</ele><time>2026-08-16T14:24:19.132Z</time><hdop>3.0</hdop><vdop>2.5</vdop><extensions><gom:speed>0.995</gom:speed></extensions></trkpt>
   <trkpt lat="59.2948203648" lon="34.6556314953"><ele>163.179</ele><time>2026-08-16T14:24:20.055Z</time><hdop>3.0</hdop><vdop>2.5</vdop><extensions><gom:speed>1.004</gom:speed></extensions></trkpt>
   <trkpt lat="59.2948130726" lon="34.6556202635"><ele>163.411</ele><time>2026-08-16T14:24:20.909Z</time><hdop>3.0</hdop><vdop>2.5</vdop><extensions><gom:speed>1.076</gom:speed></extensions></trkpt>
   <trkpt lat="59.294809175" lon="34.6556093671"><ele>163.92</ele><time>2026-08-16T14:24:21.655Z</time><hdop>3.0</hdop><vdop>2.5</vdop><extensions><gom:speed>1.041</gom:speed></extensions></trkpt>
   <trkpt lat="59.2948074986" lon="34.6556018233"><ele>164.058</ele><time>2026-08-16T14:24:22.136Z</time><hdop>3.0</hdop><vdop>2.5</vdop><extensions><gom:speed>0.983</gom:speed></extensions></trkpt>
   <trkpt lat="59.294804062" lon="34.6555893343"><ele>164.141</ele><time>2026-08-16T14:24:22.911Z</time><hdop>3.0</hdop><vdop>2.5</vdop><extensions><gom:speed>0.979</gom:speed></extensions></trkpt>
   <trkpt lat="59.2948013798" lon="34.6555810362"><ele>164.542</ele><time>2026-08-16T14:24:23.588Z</time><hdop>3.0</hdop><vdop>2.5</vdop><extensions><gom:speed>0.937</gom:speed></extensions></trkpt>
   <trkpt lat="59.2947988652" lon="34.6555778511"><ele>164.42</ele><time>2026-08-16T14:24:24.136Z</time><hdop>3.0</hdop><vdop>2.5</vdop><extensions><gom:speed>0.825</gom:speed></extensions></trkpt>
   <trkpt lat="59.2947946743" lon="34.655577432"><ele>164.334</ele><time>2026-08-16T14:24:25.136Z</time><hdop>3.0</hdop><vdop>2.5</vdop><extensions><gom:speed>0.617</gom:speed></extensions></trkpt>
   <trkpt lat="59.2947913634" lon="34.6555766776"><ele>164.284</ele><time>2026-08-16T14:24:26.032Z</time><hdop>3.0</hdop><vdop>2.5</vdop><extensions><gom:speed>0.518</gom:speed></extensions></trkpt>
   <trkpt lat="59.2947935846" lon="34.6555832993"><ele>164.137</ele><time>2026-08-16T14:24:27.136Z</time><hdop>3.0</hdop><vdop>2.5</vdop><extensions><gom:speed>0.408</gom:speed></extensions></trkpt>
   <trkpt lat="59.2947900642" lon="34.6555846404"><ele>164.111</ele><time>2026-08-16T14:24:28.136Z</time><hdop>3.0</hdop><vdop>2.5</vdop><extensions><gom:speed>0.598</gom:speed></extensions></trkpt>
   <trkpt lat="59.2947865857" lon="34.6555822935"><ele>164.09</ele><time>2026-08-16T14:24:29.135Z</time><hdop>3.0</hdop><vdop>2.5</vdop><extensions><gom:speed>0.543</gom:speed></extensions></trkpt>
   <trkpt lat="59.2947843645" lon="34.6555727381"><ele>163.96</ele><time>2026-08-16T14:24:30.136Z</time><hdop>3.0</hdop><vdop>2.5</vdop><extensions><gom:speed>0.736</gom:speed></extensions></trkpt>
   <trkpt lat="59.2947838616" lon="34.6555605844"><ele>163.883</ele><time>2026-08-16T14:24:30.871Z</time><hdop>3.0</hdop><vdop>2.5</vdop><extensions><gom:speed>0.746</gom:speed></extensions></trkpt>
   <trkpt lat="59.2947854961" lon="34.6555508614"><ele>163.768</ele><time>2026-08-16T14:24:31.412Z</time><hdop>3.0</hdop><vdop>2.5</vdop><extensions><gom:speed>0.783</gom:speed></extensions></trkpt>
   <trkpt lat="59.2947877592" lon="34.6555384562"><ele>163.31</ele><time>2026-08-16T14:24:32.136Z</time><hdop>3.0</hdop><vdop>2.5</vdop><extensions><gom:speed>0.841</gom:speed></extensions></trkpt>
   <trkpt lat="59.2947896871" lon="34.6555292361"><ele>163.036</ele><time>2026-08-16T14:24:32.669Z</time><hdop>3.0</hdop><vdop>2.5</vdop><extensions><gom:speed>0.845</gom:speed></extensions></trkpt>
   <trkpt lat="59.2947937942" lon="34.6555201836"><ele>163.011</ele><time>2026-08-16T14:24:33.136Z</time><hdop>3.0</hdop><vdop>2.5</vdop><extensions><gom:speed>0.93</gom:speed></extensions></trkpt>
   <trkpt lat="59.2947991586" lon="34.6555059344"><ele>162.996</ele><time>2026-08-16T14:24:33.974Z</time><hdop>3.0</hdop><vdop>2.5</vdop><extensions><gom:speed>0.943</gom:speed></extensions></trkpt>
   <trkpt lat="59.294806367" lon="34.6554924395"><ele>162.715</ele><time>2026-08-16T14:24:34.691Z</time><hdop>3.0</hdop><vdop>2.5</vdop><extensions><gom:speed>0.927</gom:speed></extensions></trkpt>
   <trkpt lat="59.2948139946" lon="34.6554813754"><ele>162.355</ele><time>2026-08-16T14:24:35.387Z</time><hdop>3.0</hdop><vdop>2.5</vdop><extensions><gom:speed>0.951</gom:speed></extensions></trkpt>
   <trkpt lat="59.2948169701" lon="34.6554679643"><ele>162.14</ele><time>2026-08-16T14:24:36.133Z</time><hdop>3.0</hdop><vdop>2.5</vdop><extensions><gom:speed>0.989</gom:speed></extensions></trkpt>
   <trkpt lat="59.2948204905" lon="34.6554539666"><ele>161.881</ele><time>2026-08-16T14:24:36.732Z</time><hdop>3.0</hdop><vdop>2.5</vdop><extensions><gom:speed>1.093</gom:speed></extensions></trkpt>
   <trkpt lat="59.2948232985" lon="34.6554406393"><ele>161.87</ele><time>2026-08-16T14:24:37.390Z</time><hdop>3.0</hdop><vdop>2.5</vdop><extensions><gom:speed>1.021</gom:speed></extensions></trkpt>
   <trkpt lat="59.2948245977" lon="34.6554300781"><ele>161.863</ele><time>2026-08-16T14:24:37.930Z</time><hdop>3.0</hdop><vdop>2.5</vdop><extensions><gom:speed>1.015</gom:speed></extensions></trkpt>
   <trkpt lat="59.2948274894" lon="34.6554137334"><ele>161.859</ele><time>2026-08-16T14:24:38.735Z</time><hdop>3.0</hdop><vdop>2.5</vdop><extensions><gom:speed>1.005</gom:speed></extensions></trkpt>
   <trkpt lat="59.2948294592" lon="34.6554017473"><ele>161.563</ele><time>2026-08-16T14:24:39.294Z</time><hdop>3.0</hdop><vdop>2.5</vdop><extensions><gom:speed>1.031</gom:speed></extensions></trkpt>
   <trkpt lat="59.2948317642" lon="34.6553877495"><ele>161.386</ele><time>2026-08-16T14:24:40.029Z</time><hdop>3.0</hdop><vdop>2.5</vdop><extensions><gom:speed>1.048</gom:speed></extensions></trkpt>
   <trkpt lat="59.2948324767" lon="34.6553766854"><ele>161.66</ele><time>2026-08-16T14:24:40.569Z</time><hdop>3.0</hdop><vdop>2.5</vdop><extensions><gom:speed>1.019</gom:speed></extensions></trkpt>
   <trkpt lat="59.2948319738" lon="34.6553641964"><ele>162.071</ele><time>2026-08-16T14:24:41.136Z</time><hdop>3.0</hdop><vdop>2.5</vdop><extensions><gom:speed>1.066</gom:speed></extensions></trkpt>
   <trkpt lat="59.2948314708" lon="34.6553487737"><ele>162.317</ele><time>2026-08-16T14:24:41.826Z</time><hdop>3.0</hdop><vdop>2.5</vdop><extensions><gom:speed>1.069</gom:speed></extensions></trkpt>
   <trkpt lat="59.2948301716" lon="34.6553338539"><ele>162.844</ele><time>2026-08-16T14:24:42.591Z</time><hdop>3.0</hdop><vdop>2.5</vdop><extensions><gom:speed>1.043</gom:speed></extensions></trkpt>
   <trkpt lat="59.2948287886" lon="34.6553233765"><ele>163.263</ele><time>2026-08-16T14:24:43.136Z</time><hdop>3.0</hdop><vdop>2.5</vdop><extensions><gom:speed>1.021</gom:speed></extensions></trkpt>
   <trkpt lat="59.2948270703" lon="34.655311558"><ele>163.514</ele><time>2026-08-16T14:24:43.770Z</time><hdop>3.0</hdop><vdop>2.5</vdop><extensions><gom:speed>1.017</gom:speed></extensions></trkpt>
   <trkpt lat="59.2948194847" lon="34.6553031761"><ele>163.61</ele><time>2026-08-16T14:24:45.136Z</time><hdop>3.0</hdop><vdop>2.5</vdop><extensions><gom:speed>0.73</gom:speed></extensions></trkpt>
   <trkpt lat="59.2948145813" lon="34.6553044334"><ele>163.552</ele><time>2026-08-16T14:24:46.136Z</time><hdop>3.0</hdop><vdop>2.5</vdop><extensions><gom:speed>0.449</gom:speed></extensions></trkpt>
   <trkpt lat="59.2948135755" lon="34.6553088758"><ele>163.518</ele><time>2026-08-16T14:24:47.136Z</time><hdop>3.0</hdop><vdop>2.5</vdop><extensions><gom:speed>0.21</gom:speed></extensions></trkpt>
   <trkpt lat="59.2948140784" lon="34.6553135697"><ele>163.5</ele><time>2026-08-16T14:24:48.136Z</time><hdop>3.0</hdop><vdop>2.5</vdop><extensions><gom:speed>0.08</gom:speed></extensions></trkpt>
   <trkpt lat="59.2948146651" lon="34.6553169225"><ele>163.49</ele><time>2026-08-16T14:24:49.135Z</time><hdop>3.0</hdop><vdop>2.5</vdop><extensions><gom:speed>0.079</gom:speed></extensions></trkpt>
   <trkpt lat="59.2948150842" lon="34.6553198561"><ele>163.491</ele><time>2026-08-16T14:24:50.136Z</time><hdop>3.0</hdop><vdop>2.5</vdop><extensions><gom:speed>0.077</gom:speed></extensions></trkpt>
   <trkpt lat="59.2948150842" lon="34.6553218678"><ele>163.51</ele><time>2026-08-16T14:24:51.136Z</time><hdop>3.0</hdop><vdop>2.5</vdop><extensions><gom:speed>0.028</gom:speed></extensions></trkpt>
   <trkpt lat="59.2948145813" lon="34.6553231251"><ele>163.43</ele><time>2026-08-16T14:24:52.136Z</time><hdop>3.0</hdop><vdop>2.5</vdop><extensions><gom:speed>0.048</gom:speed></extensions></trkpt>
   <trkpt lat="59.294812863" lon="34.6553226221"><ele>163.234</ele><time>2026-08-16T14:24:53.136Z</time><hdop>3.0</hdop><vdop>2.5</vdop><extensions><gom:speed>0.11</gom:speed></extensions></trkpt>
   <trkpt lat="59.2948118991" lon="34.6553216163"><ele>163.117</ele><time>2026-08-16T14:24:53.595Z</time><hdop>3.0</hdop><vdop>2.5</vdop><extensions><gom:speed>0.132</gom:speed></extensions></trkpt>
   <trkpt lat="59.2948104742" lon="34.6553214487"><ele>163.054</ele><time>2026-08-16T14:24:54.135Z</time><hdop>3.0</hdop><vdop>2.5</vdop><extensions><gom:speed>0.094</gom:speed></extensions></trkpt>
   <trkpt lat="59.2948092588" lon="34.6553204428"><ele>163.016</ele><time>2026-08-16T14:24:55.029Z</time><hdop>3.0</hdop><vdop>2.5</vdop><extensions><gom:speed>0.107</gom:speed></extensions></trkpt>
   <trkpt lat="59.2948060737" lon="34.6553156652"><ele>162.828</ele><time>2026-08-16T14:24:55.795Z</time><hdop>3.0</hdop><vdop>2.5</vdop><extensions><gom:speed>0.241</gom:speed></extensions></trkpt>
   <trkpt lat="59.2948002902" lon="34.6553017512"><ele>162.778</ele><time>2026-08-16T14:24:56.315Z</time><hdop>3.0</hdop><vdop>2.5</vdop><extensions><gom:speed>0.646</gom:speed></extensions></trkpt>
   <trkpt lat="59.2947946743" lon="34.6552853227"><ele>162.977</ele><time>2026-08-16T14:24:57.136Z</time><hdop>3.0</hdop><vdop>2.5</vdop><extensions><gom:speed>0.9</gom:speed></extensions></trkpt>
   <trkpt lat="59.2947919921" lon="34.6552750968"><ele>163.096</ele><time>2026-08-16T14:24:57.591Z</time><hdop>3.0</hdop><vdop>2.5</vdop><extensions><gom:speed>0.925</gom:speed></extensions></trkpt>
   <trkpt lat="59.2947904833" lon="34.6552628592"><ele>163.167</ele><time>2026-08-16T14:24:58.072Z</time><hdop>3.0</hdop><vdop>2.5</vdop><extensions><gom:speed>1.06</gom:speed></extensions></trkpt>
   <trkpt lat="59.2947866696" lon="34.6552469336"><ele>163.325</ele><time>2026-08-16T14:24:58.867Z</time><hdop>3.0</hdop><vdop>2.5</vdop><extensions><gom:speed>1.064</gom:speed></extensions></trkpt>
   <trkpt lat="59.2947825624" lon="34.6552313432"><ele>163.11</ele><time>2026-08-16T14:24:59.770Z</time><hdop>3.0</hdop><vdop>2.5</vdop><extensions><gom:speed>1.069</gom:speed></extensions></trkpt>
   <trkpt lat="59.2947794611" lon="34.655205527"><ele>162.852</ele><time>2026-08-16T14:25:00.987Z</time><hdop>3.0</hdop><vdop>2.5</vdop><extensions><gom:speed>1.182</gom:speed></extensions></trkpt>
   <trkpt lat="59.2947781619" lon="34.655194379"><ele>162.551</ele><time>2026-08-16T14:25:01.488Z</time><hdop>3.0</hdop><vdop>2.5</vdop><extensions><gom:speed>1.217</gom:speed></extensions></trkpt>
   <trkpt lat="59.2947765694" lon="34.6551808842"><ele>162.474</ele><time>2026-08-16T14:25:02.136Z</time><hdop>3.0</hdop><vdop>2.5</vdop><extensions><gom:speed>1.198</gom:speed></extensions></trkpt>
   <trkpt lat="59.2947758988" lon="34.6551638689"><ele>162.429</ele><time>2026-08-16T14:25:02.891Z</time><hdop>3.0</hdop><vdop>2.5</vdop><extensions><gom:speed>1.201</gom:speed></extensions></trkpt>
   <trkpt lat="59.2947728813" lon="34.6551540621"><ele>162.506</ele><time>2026-08-16T14:25:03.588Z</time><hdop>3.0</hdop><vdop>2.5</vdop><extensions><gom:speed>1.085</gom:speed></extensions></trkpt>
   <trkpt lat="59.2947703668" lon="34.6551476918"><ele>162.885</ele><time>2026-08-16T14:25:04.136Z</time><hdop>3.0</hdop><vdop>2.5</vdop><extensions><gom:speed>1.043</gom:speed></extensions></trkpt>
   <trkpt lat="59.2947673912" lon="34.65513185"><ele>163.111</ele><time>2026-08-16T14:25:05.051Z</time><hdop>3.0</hdop><vdop>2.5</vdop><extensions><gom:speed>1.002</gom:speed></extensions></trkpt>
   <trkpt lat="59.2947643737" lon="34.6551251445"><ele>163.506</ele><time>2026-08-16T14:25:05.689Z</time><hdop>3.0</hdop><vdop>2.5</vdop><extensions><gom:speed>0.952</gom:speed></extensions></trkpt>
   <trkpt lat="59.294759596" lon="34.6551201992"><ele>163.956</ele><time>2026-08-16T14:25:06.376Z</time><hdop>3.0</hdop><vdop>2.5</vdop><extensions><gom:speed>0.909</gom:speed></extensions></trkpt>
   <trkpt lat="59.2947564947" lon="34.6551161759"><ele>163.965</ele><time>2026-08-16T14:25:07.136Z</time><hdop>3.0</hdop><vdop>2.5</vdop><extensions><gom:speed>0.797</gom:speed></extensions></trkpt>
   <trkpt lat="59.2947527648" lon="34.6551082969"><ele>163.752</ele><time>2026-08-16T14:25:08.136Z</time><hdop>3.0</hdop><vdop>2.5</vdop><extensions><gom:speed>0.799</gom:speed></extensions></trkpt>
   <trkpt lat="59.2947505855" lon="34.6551007532"><ele>163.625</ele><time>2026-08-16T14:25:08.751Z</time><hdop>3.0</hdop><vdop>2.5</vdop><extensions><gom:speed>0.797</gom:speed></extensions></trkpt>
   <trkpt lat="59.2947479871" lon="34.6550903596"><ele>163.447</ele><time>2026-08-16T14:25:09.615Z</time><hdop>3.0</hdop><vdop>2.5</vdop><extensions><gom:speed>0.82</gom:speed></extensions></trkpt>
   <trkpt lat="59.2947449696" lon="34.6550812233"><ele>163.341</ele><time>2026-08-16T14:25:10.115Z</time><hdop>3.0</hdop><vdop>2.5</vdop><extensions><gom:speed>0.965</gom:speed></extensions></trkpt>
   <trkpt lat="59.2947416587" lon="34.6550772838"><ele>163.34</ele><time>2026-08-16T14:25:10.567Z</time><hdop>3.0</hdop><vdop>2.5</vdop><extensions><gom:speed>0.988</gom:speed></extensions></trkpt>
   <trkpt lat="59.2947370906" lon="34.6550738473"><ele>163.185</ele><time>2026-08-16T14:25:11.136Z</time><hdop>3.0</hdop><vdop>2.5</vdop><extensions><gom:speed>1.002</gom:speed></extensions></trkpt>
   <trkpt lat="59.2947306785" lon="34.6550638728"><ele>163.092</ele><time>2026-08-16T14:25:12.049Z</time><hdop>3.0</hdop><vdop>2.5</vdop><extensions><gom:speed>1.031</gom:speed></extensions></trkpt>
   <trkpt lat="59.2947279962" lon="34.6550606877"><ele>162.947</ele><time>2026-08-16T14:25:12.854Z</time><hdop>3.0</hdop><vdop>2.5</vdop><extensions><gom:speed>0.944</gom:speed></extensions></trkpt>
   <trkpt lat="59.2947247692" lon="34.6550555747"><ele>163.23</ele><time>2026-08-16T14:25:13.452Z</time><hdop>3.0</hdop><vdop>2.5</vdop><extensions><gom:speed>1.081</gom:speed></extensions></trkpt>
   <trkpt lat="59.2947196982" lon="34.6550474443"><ele>163.59</ele><time>2026-08-16T14:25:14.136Z</time><hdop>3.0</hdop><vdop>2.5</vdop><extensions><gom:speed>1.141</gom:speed></extensions></trkpt>
   <trkpt lat="59.2947113582" lon="34.6550372183"><ele>164.028</ele><time>2026-08-16T14:25:15.136Z</time><hdop>3.0</hdop><vdop>2.5</vdop><extensions><gom:speed>1.124</gom:speed></extensions></trkpt>
   <trkpt lat="59.2947020962" lon="34.655031351"><ele>164.176</ele><time>2026-08-16T14:25:16.136Z</time><hdop>3.0</hdop><vdop>2.5</vdop><extensions><gom:speed>1.089</gom:speed></extensions></trkpt>
   <trkpt lat="59.294694762" lon="34.6550255675"><ele>164.265</ele><time>2026-08-16T14:25:16.909Z</time><hdop>3.0</hdop><vdop>2.5</vdop><extensions><gom:speed>1.086</gom:speed></extensions></trkpt>
   <trkpt lat="59.2946820634" lon="34.6550348714"><ele>164.388</ele><time>2026-08-16T14:25:17.753Z</time><hdop>3.062</hdop><vdop>2.5</vdop><extensions><gom:speed>1.158</gom:speed></extensions></trkpt>
   <trkpt lat="59.2946763637" lon="34.6550459355"><ele>164.321</ele><time>2026-08-16T14:25:18.273Z</time><hdop>3.062</hdop><vdop>2.5</vdop><extensions><gom:speed>1.081</gom:speed></extensions></trkpt>
   <trkpt lat="59.2946688619" lon="34.6550497912"><ele>164.281</ele><time>2026-08-16T14:25:19.009Z</time><hdop>3.062</hdop><vdop>2.5</vdop><extensions><gom:speed>1.057</gom:speed></extensions></trkpt>
   <trkpt lat="59.2946647967" lon="34.6550509647"><ele>164.085</ele><time>2026-08-16T14:25:19.647Z</time><hdop>3.062</hdop><vdop>2.5</vdop><extensions><gom:speed>0.938</gom:speed></extensions></trkpt>
   <trkpt lat="59.294661863" lon="34.6550491206"><ele>163.996</ele><time>2026-08-16T14:25:20.136Z</time><hdop>3.062</hdop><vdop>2.5</vdop><extensions><gom:speed>0.903</gom:speed></extensions></trkpt>
   <trkpt lat="59.294656792" lon="34.655044343"><ele>163.943</ele><time>2026-08-16T14:25:20.854Z</time><hdop>3.062</hdop><vdop>2.5</vdop><extensions><gom:speed>0.901</gom:speed></extensions></trkpt>
   <trkpt lat="59.2946509666" lon="34.6550435886"><ele>163.54</ele><time>2026-08-16T14:25:21.748Z</time><hdop>3.062</hdop><vdop>2.5</vdop><extensions><gom:speed>0.88</gom:speed></extensions></trkpt>
   <trkpt lat="59.2946457698" lon="34.6550453488"><ele>163.065</ele><time>2026-08-16T14:25:22.533Z</time><hdop>3.062</hdop><vdop>2.5</vdop><extensions><gom:speed>0.921</gom:speed></extensions></trkpt>
   <trkpt lat="59.2946425846" lon="34.6550427504"><ele>162.856</ele><time>2026-08-16T14:25:23.136Z</time><hdop>3.0</hdop><vdop>2.5</vdop><extensions><gom:speed>0.875</gom:speed></extensions></trkpt>
   <trkpt lat="59.2946377651" lon="34.6550359611"><ele>162.731</ele><time>2026-08-16T14:25:23.907Z</time><hdop>3.0</hdop><vdop>2.5</vdop><extensions><gom:speed>0.866</gom:speed></extensions></trkpt>
   <trkpt lat="59.2946347895" lon="34.6550253999"><ele>162.639</ele><time>2026-08-16T14:25:24.692Z</time><hdop>3.0</hdop><vdop>2.5</vdop><extensions><gom:speed>0.878</gom:speed></extensions></trkpt>
   <trkpt lat="59.2946329874" lon="34.6550207898"><ele>162.494</ele><time>2026-08-16T14:25:25.193Z</time><hdop>3.0</hdop><vdop>2.5</vdop><extensions><gom:speed>0.901</gom:speed></extensions></trkpt>
   <trkpt lat="59.2946283773" lon="34.6550175209"><ele>162.407</ele><time>2026-08-16T14:25:25.811Z</time><hdop>3.0</hdop><vdop>2.5</vdop><extensions><gom:speed>0.89</gom:speed></extensions></trkpt>
   <trkpt lat="59.2946207917" lon="34.6550255675"><ele>162.3</ele><time>2026-08-16T14:25:26.812Z</time><hdop>3.0</hdop><vdop>2.5</vdop><extensions><gom:speed>0.915</gom:speed></extensions></trkpt>
   <trkpt lat="59.2946143795" lon="34.6550300937"><ele>162.394</ele><time>2026-08-16T14:25:27.607Z</time><hdop>3.0</hdop><vdop>2.5</vdop><extensions><gom:speed>0.949</gom:speed></extensions></trkpt>
   <trkpt lat="59.2946103981" lon="34.6550332788"><ele>162.311</ele><time>2026-08-16T14:25:28.136Z</time><hdop>3.0</hdop><vdop>2.5</vdop><extensions><gom:speed>0.947</gom:speed></extensions></trkpt>
   <trkpt lat="59.2946028963" lon="34.6550391462"><ele>162.261</ele><time>2026-08-16T14:25:28.991Z</time><hdop>3.0</hdop><vdop>2.5</vdop><extensions><gom:speed>0.968</gom:speed></extensions></trkpt>
   <trkpt lat="59.2945983701" lon="34.655041074"><ele>162.291</ele><time>2026-08-16T14:25:29.551Z</time><hdop>3.0</hdop><vdop>2.5</vdop><extensions><gom:speed>0.954</gom:speed></extensions></trkpt>
   <trkpt lat="59.2945938858" lon="34.6550425828"><ele>162.185</ele><time>2026-08-16T14:25:30.136Z</time><hdop>3.0</hdop><vdop>2.5</vdop><extensions><gom:speed>0.972</gom:speed></extensions></trkpt>
   <trkpt lat="59.2945881861" lon="34.6550451811"><ele>162.122</ele><time>2026-08-16T14:25:30.787Z</time><hdop>3.0</hdop><vdop>2.5</vdop><extensions><gom:speed>0.967</gom:speed></extensions></trkpt>
   <trkpt lat="59.2945808938" lon="34.6550468575"><ele>162.266</ele><time>2026-08-16T14:25:31.612Z</time><hdop>3.0</hdop><vdop>2.5</vdop><extensions><gom:speed>0.979</gom:speed></extensions></trkpt>
   <trkpt lat="59.2945772896" lon="34.6550459355"><ele>162.229</ele><time>2026-08-16T14:25:32.136Z</time><hdop>3.0</hdop><vdop>2.5</vdop><extensions><gom:speed>0.942</gom:speed></extensions></trkpt>
   <trkpt lat="59.2945689915" lon="34.6550425828"><ele>162.207</ele><time>2026-08-16T14:25:33.074Z</time><hdop>3.0</hdop><vdop>2.5</vdop><extensions><gom:speed>0.936</gom:speed></extensions></trkpt>
   <trkpt lat="59.2945640881" lon="34.6550420798"><ele>161.992</ele><time>2026-08-16T14:25:33.928Z</time><hdop>3.0</hdop><vdop>2.5</vdop><extensions><gom:speed>0.852</gom:speed></extensions></trkpt>
   <trkpt lat="59.294559981" lon="34.6550467737"><ele>161.93</ele><time>2026-08-16T14:25:35.136Z</time><hdop>3.0</hdop><vdop>2.5</vdop><extensions><gom:speed>0.756</gom:speed></extensions></trkpt>
   <trkpt lat="59.2945545747" lon="34.6550512999"><ele>161.892</ele><time>2026-08-16T14:25:36.009Z</time><hdop>3.0</hdop><vdop>2.5</vdop><extensions><gom:speed>0.787</gom:speed></extensions></trkpt>
   <trkpt lat="59.2945492941" lon="34.6550564967"><ele>162.172</ele><time>2026-08-16T14:25:37.136Z</time><hdop>3.0</hdop><vdop>2.5</vdop><extensions><gom:speed>0.793</gom:speed></extensions></trkpt>
   <trkpt lat="59.294542379" lon="34.65506052"><ele>162.339</ele><time>2026-08-16T14:25:38.110Z</time><hdop>3.0</hdop><vdop>2.5</vdop><extensions><gom:speed>0.801</gom:speed></extensions></trkpt>
   <trkpt lat="59.2945390681" lon="34.6550639566"><ele>162.539</ele><time>2026-08-16T14:25:38.807Z</time><hdop>3.0</hdop><vdop>2.5</vdop><extensions><gom:speed>0.779</gom:speed></extensions></trkpt>
   <trkpt lat="59.2945344581" lon="34.6550696563"><ele>162.549</ele><time>2026-08-16T14:25:39.710Z</time><hdop>3.0</hdop><vdop>2.5</vdop><extensions><gom:speed>0.793</gom:speed></extensions></trkpt>
   <trkpt lat="59.2945315663" lon="34.6550752722"><ele>162.624</ele><time>2026-08-16T14:25:40.406Z</time><hdop>3.0</hdop><vdop>2.5</vdop><extensions><gom:speed>0.762</gom:speed></extensions></trkpt>
   <trkpt lat="59.2945279621" lon="34.6550791279"><ele>162.53</ele><time>2026-08-16T14:25:41.136Z</time><hdop>3.0</hdop><vdop>2.5</vdop><extensions><gom:speed>0.739</gom:speed></extensions></trkpt>
   <trkpt lat="59.2945219691" lon="34.6550805528"><ele>162.473</ele><time>2026-08-16T14:25:42.026Z</time><hdop>3.0</hdop><vdop>2.5</vdop><extensions><gom:speed>0.757</gom:speed></extensions></trkpt>
   <trkpt lat="59.2945172752" lon="34.655081391"><ele>162.29</ele><time>2026-08-16T14:25:42.850Z</time><hdop>3.0</hdop><vdop>2.5</vdop><extensions><gom:speed>0.769</gom:speed></extensions></trkpt>
   <trkpt lat="59.2945125813" lon="34.6550819777"><ele>162.16</ele><time>2026-08-16T14:25:43.852Z</time><hdop>3.0</hdop><vdop>2.5</vdop><extensions><gom:speed>0.721</gom:speed></extensions></trkpt>
   <trkpt lat="59.2945091867" lon="34.6550768647"><ele>162.318</ele><time>2026-08-16T14:25:44.665Z</time><hdop>3.0</hdop><vdop>2.5</vdop><extensions><gom:speed>0.713</gom:speed></extensions></trkpt>
   <trkpt lat="59.2945078875" lon="34.6550720871"><ele>162.391</ele><time>2026-08-16T14:25:45.136Z</time><hdop>3.0</hdop><vdop>2.5</vdop><extensions><gom:speed>0.711</gom:speed></extensions></trkpt>
   <trkpt lat="59.2945033612" lon="34.6550603524"><ele>162.317</ele><time>2026-08-16T14:25:46.136Z</time><hdop>3.0</hdop><vdop>2.5</vdop><extensions><gom:speed>0.748</gom:speed></extensions></trkpt>
   <trkpt lat="59.2944993798" lon="34.6550522219"><ele>162.274</ele><time>2026-08-16T14:25:46.875Z</time><hdop>3.0</hdop><vdop>2.5</vdop><extensions><gom:speed>0.752</gom:speed></extensions></trkpt>
   <trkpt lat="59.2944958594" lon="34.6550386433"><ele>162.392</ele><time>2026-08-16T14:25:47.807Z</time><hdop>3.0</hdop><vdop>2.5</vdop><extensions><gom:speed>0.761</gom:speed></extensions></trkpt>
   <trkpt lat="59.2944931772" lon="34.6550274953"><ele>162.467</ele><time>2026-08-16T14:25:48.533Z</time><hdop>3.0</hdop><vdop>2.5</vdop><extensions><gom:speed>0.775</gom:speed></extensions></trkpt>
   <trkpt lat="59.2944907884" lon="34.6550174371"><ele>162.523</ele><time>2026-08-16T14:25:49.136Z</time><hdop>3.0</hdop><vdop>2.5</vdop><extensions><gom:speed>0.844</gom:speed></extensions></trkpt>
   <trkpt lat="59.2944855916" lon="34.6550044451"><ele>162.556</ele><time>2026-08-16T14:25:50.035Z</time><hdop>3.0</hdop><vdop>2.5</vdop><extensions><gom:speed>0.861</gom:speed></extensions></trkpt>
   <trkpt lat="59.2944823646" lon="34.6549974881"><ele>162.712</ele><time>2026-08-16T14:25:50.526Z</time><hdop>3.0</hdop><vdop>2.5</vdop><extensions><gom:speed>0.885</gom:speed></extensions></trkpt>
   <trkpt lat="59.2944794728" lon="34.6549913693"><ele>162.805</ele><time>2026-08-16T14:25:51.076Z</time><hdop>3.0</hdop><vdop>2.5</vdop><extensions><gom:speed>0.838</gom:speed></extensions></trkpt>
   <trkpt lat="59.2944781736" lon="34.6549740188"><ele>162.568</ele><time>2026-08-16T14:25:52.136Z</time><hdop>3.0</hdop><vdop>2.5</vdop><extensions><gom:speed>0.625</gom:speed></extensions></trkpt>
   <trkpt lat="59.2944806882" lon="34.6549666427"><ele>162.445</ele><time>2026-08-16T14:25:53.136Z</time><hdop>3.0</hdop><vdop>2.5</vdop><extensions><gom:speed>0.304</gom:speed></extensions></trkpt>
   <trkpt lat="59.2944813587" lon="34.6549653854"><ele>162.351</ele><time>2026-08-16T14:25:54.136Z</time><hdop>3.0</hdop><vdop>2.5</vdop><extensions><gom:speed>0.157</gom:speed></extensions></trkpt>
   <trkpt lat="59.2944814845" lon="34.6549668942"><ele>162.321</ele><time>2026-08-16T14:25:55.136Z</time><hdop>3.0</hdop><vdop>2.5</vdop><extensions><gom:speed>0.069</gom:speed></extensions></trkpt>
   <trkpt lat="59.2944818617" lon="34.6549699955"><ele>162.329</ele><time>2026-08-16T14:25:56.136Z</time><hdop>3.0</hdop><vdop>2.5</vdop><extensions><gom:speed>0.023</gom:speed></extensions></trkpt>
   <trkpt lat="59.2944824903" lon="34.6549728453"><ele>162.355</ele><time>2026-08-16T14:25:57.136Z</time><hdop>3.0</hdop><vdop>2.5</vdop><extensions><gom:speed>0.05</gom:speed></extensions></trkpt>
   <trkpt lat="59.2944838733" lon="34.6549733482"><ele>162.177</ele><time>2026-08-16T14:25:58.136Z</time><hdop>3.0</hdop><vdop>2.5</vdop><extensions><gom:speed>0.094</gom:speed></extensions></trkpt>
   <trkpt lat="59.2944854659" lon="34.6549714204"><ele>161.711</ele><time>2026-08-16T14:25:59.136Z</time><hdop>3.0</hdop><vdop>2.5</vdop><extensions><gom:speed>0.065</gom:speed></extensions></trkpt>
   <trkpt lat="59.2944860945" lon="34.6549709175"><ele>161.433</ele><time>2026-08-16T14:25:59.791Z</time><hdop>3.0</hdop><vdop>2.5</vdop><extensions><gom:speed>0.141</gom:speed></extensions></trkpt>
   <trkpt lat="59.2944888605" lon="34.6549691573"><ele>161.497</ele><time>2026-08-16T14:26:01.136Z</time><hdop>3.0</hdop><vdop>2.5</vdop><extensions><gom:speed>0.048</gom:speed></extensions></trkpt>
   <trkpt lat="59.2944894892" lon="34.654966978"><ele>161.319</ele><time>2026-08-16T14:26:02.136Z</time><hdop>3.0</hdop><vdop>2.5</vdop><extensions><gom:speed>0.073</gom:speed></extensions></trkpt>
   <trkpt lat="59.2944900759" lon="34.6549645472"><ele>161.223</ele><time>2026-08-16T14:26:03.135Z</time><hdop>3.0</hdop><vdop>2.5</vdop><extensions><gom:speed>0.029</gom:speed></extensions></trkpt>
   <trkpt lat="59.2944908722" lon="34.6549631223"><ele>161.183</ele><time>2026-08-16T14:26:04.136Z</time><hdop>3.0</hdop><vdop>2.5</vdop><extensions><gom:speed>0.03</gom:speed></extensions></trkpt>
   <trkpt lat="59.2944914589" lon="34.6549622841"><ele>161.163</ele><time>2026-08-16T14:26:05.136Z</time><hdop>3.0</hdop><vdop>2.5</vdop><extensions><gom:speed>0.012</gom:speed></extensions></trkpt>
   <trkpt lat="59.2944917942" lon="34.6549622841"><ele>161.15</ele><time>2026-08-16T14:26:06.136Z</time><hdop>3.0</hdop><vdop>2.5</vdop><extensions><gom:speed>0.06</gom:speed></extensions></trkpt>
   <trkpt lat="59.294491878" lon="34.654961865"><ele>161.142</ele><time>2026-08-16T14:26:06.830Z</time><hdop>3.0</hdop><vdop>2.5</vdop><extensions><gom:speed>0.105</gom:speed></extensions></trkpt>
   <trkpt lat="59.2944921714" lon="34.6549617812"><ele>161.245</ele><time>2026-08-16T14:26:08.136Z</time><hdop>3.0</hdop><vdop>2.5</vdop><extensions><gom:speed>0.09</gom:speed></extensions></trkpt>
   <trkpt lat="59.2944916685" lon="34.6549635414"><ele>161.099</ele><time>2026-08-16T14:26:09.136Z</time><hdop>3.0</hdop><vdop>2.5</vdop><extensions><gom:speed>0.113</gom:speed></extensions></trkpt>
   <trkpt lat="59.2944903693" lon="34.6549643796"><ele>160.925</ele><time>2026-08-16T14:26:10.136Z</time><hdop>3.0</hdop><vdop>2.5</vdop><extensions><gom:speed>0.144</gom:speed></extensions></trkpt>
   <trkpt lat="59.2944892796" lon="34.6549646311"><ele>160.84</ele><time>2026-08-16T14:26:11.136Z</time><hdop>3.0</hdop><vdop>2.5</vdop><extensions><gom:speed>0.105</gom:speed></extensions></trkpt>
   <trkpt lat="59.2944889863" lon="34.6549647987"><ele>160.792</ele><time>2026-08-16T14:26:12.136Z</time><hdop>3.0</hdop><vdop>2.5</vdop><extensions><gom:speed>0.014</gom:speed></extensions></trkpt>
   <trkpt lat="59.2944894892" lon="34.6549647987"><ele>160.646</ele><time>2026-08-16T14:26:13.136Z</time><hdop>3.0</hdop><vdop>2.5</vdop><extensions><gom:speed>0.391</gom:speed></extensions></trkpt>
   <trkpt lat="59.2944884834" lon="34.6549700793"><ele>160.573</ele><time>2026-08-16T14:26:14.136Z</time><hdop>3.0</hdop><vdop>2.5</vdop><extensions><gom:speed>0.094</gom:speed></extensions></trkpt>
   <trkpt lat="59.2944892796" lon="34.6549712528"><ele>160.507</ele><time>2026-08-16T14:26:15.136Z</time><hdop>3.0</hdop><vdop>2.5</vdop><extensions><gom:speed>0.08</gom:speed></extensions></trkpt>
   <trkpt lat="59.2944898664" lon="34.6549717557"><ele>160.467</ele><time>2026-08-16T14:26:16.136Z</time><hdop>3.0</hdop><vdop>2.5</vdop><extensions><gom:speed>0.073</gom:speed></extensions></trkpt>
   <trkpt lat="59.2944903693" lon="34.654972091"><ele>160.434</ele><time>2026-08-16T14:26:17.136Z</time><hdop>3.0</hdop><vdop>2.5</vdop><extensions><gom:speed>0.068</gom:speed></extensions></trkpt>
   <trkpt lat="59.2944907884" lon="34.654972091"><ele>160.411</ele><time>2026-08-16T14:26:18.136Z</time><hdop>3.0</hdop><vdop>2.5</vdop><extensions><gom:speed>0.066</gom:speed></extensions></trkpt>
   <trkpt lat="59.2944910817" lon="34.6549721748"><ele>160.401</ele><time>2026-08-16T14:26:19.136Z</time><hdop>3.0</hdop><vdop>2.5</vdop><extensions><gom:speed>0.065</gom:speed></extensions></trkpt>
   <trkpt lat="59.2944912913" lon="34.6549722586"><ele>160.375</ele><time>2026-08-16T14:26:20.135Z</time><hdop>3.0</hdop><vdop>2.5</vdop><extensions><gom:speed>0.058</gom:speed></extensions></trkpt>
   <trkpt lat="59.2944912913" lon="34.6549725939"><ele>160.36</ele><time>2026-08-16T14:26:20.994Z</time><hdop>3.0</hdop><vdop>2.5</vdop><extensions><gom:speed>0.059</gom:speed></extensions></trkpt>
   <trkpt lat="59.2944912913" lon="34.6549734321"><ele>160.336</ele><time>2026-08-16T14:26:21.494Z</time><hdop>3.0</hdop><vdop>2.5</vdop><extensions><gom:speed>0.216</gom:speed></extensions></trkpt>
   <trkpt lat="59.2944910817" lon="34.654974857"><ele>160.323</ele><time>2026-08-16T14:26:22.136Z</time><hdop>3.0</hdop><vdop>2.5</vdop><extensions><gom:speed>0.096</gom:speed></extensions></trkpt>
   <trkpt lat="59.2944910817" lon="34.6549753599"><ele>160.29</ele><time>2026-08-16T14:26:23.136Z</time><hdop>3.0</hdop><vdop>2.5</vdop><extensions><gom:speed>0.083</gom:speed></extensions></trkpt>
   <trkpt lat="59.2944911656" lon="34.6549759466"><ele>160.25</ele><time>2026-08-16T14:26:24.136Z</time><hdop>3.0</hdop><vdop>2.5</vdop><extensions><gom:speed>0.078</gom:speed></extensions></trkpt>
   <trkpt lat="59.2944911656" lon="34.6549764495"><ele>160.223</ele><time>2026-08-16T14:26:25.136Z</time><hdop>3.0</hdop><vdop>2.5</vdop><extensions><gom:speed>0.076</gom:speed></extensions></trkpt>
   <trkpt lat="59.2944912913" lon="34.6549769525"><ele>160.203</ele><time>2026-08-16T14:26:26.135Z</time><hdop>3.0</hdop><vdop>2.5</vdop><extensions><gom:speed>0.068</gom:speed></extensions></trkpt>
   <trkpt lat="59.2944913751" lon="34.6549773716"><ele>160.173</ele><time>2026-08-16T14:26:27.136Z</time><hdop>3.0</hdop><vdop>2.5</vdop><extensions><gom:speed>0.067</gom:speed></extensions></trkpt>
   <trkpt lat="59.2944913751" lon="34.6549775392"><ele>160.135</ele><time>2026-08-16T14:26:28.136Z</time><hdop>3.0</hdop><vdop>2.5</vdop><extensions><gom:speed>0.067</gom:speed></extensions></trkpt>
   <trkpt lat="59.2944913751" lon="34.6549775392"><ele>160.241</ele><time>2026-08-16T14:26:29.136Z</time><hdop>3.0</hdop><vdop>2.5</vdop><extensions><gom:speed>0.219</gom:speed></extensions></trkpt>
   <trkpt lat="59.2944907884" lon="34.654978545"><ele>160.297</ele><time>2026-08-16T14:26:30.136Z</time><hdop>3.0</hdop><vdop>2.5</vdop><extensions><gom:speed>0.09</gom:speed></extensions></trkpt>
   <trkpt lat="59.2944906627" lon="34.6549777906"><ele>160.3</ele><time>2026-08-16T14:26:31.136Z</time><hdop>3.0</hdop><vdop>2.5</vdop><extensions><gom:speed>0.076</gom:speed></extensions></trkpt>
   <trkpt lat="59.2944906627" lon="34.6549773716"><ele>160.307</ele><time>2026-08-16T14:26:32.136Z</time><hdop>3.0</hdop><vdop>2.5</vdop><extensions><gom:speed>0.069</gom:speed></extensions></trkpt>
   <trkpt lat="59.2944906627" lon="34.6549775392"><ele>160.291</ele><time>2026-08-16T14:26:33.136Z</time><hdop>3.0</hdop><vdop>2.5</vdop><extensions><gom:speed>0.267</gom:speed></extensions></trkpt>
   <trkpt lat="59.2944903693" lon="34.6549799699"><ele>160.278</ele><time>2026-08-16T14:26:34.136Z</time><hdop>3.0</hdop><vdop>2.5</vdop><extensions><gom:speed>0.093</gom:speed></extensions></trkpt>
   <trkpt lat="59.294490495" lon="34.654980389"><ele>160.27</ele><time>2026-08-16T14:26:34.931Z</time><hdop>3.0</hdop><vdop>2.5</vdop><extensions><gom:speed>0.089</gom:speed></extensions></trkpt>
   <trkpt lat="59.2944910817" lon="34.6549811434"><ele>160.247</ele><time>2026-08-16T14:26:36.136Z</time><hdop>3.0</hdop><vdop>2.5</vdop><extensions><gom:speed>0.07</gom:speed></extensions></trkpt>
   <trkpt lat="59.2944913751" lon="34.6549814787"><ele>160.239</ele><time>2026-08-16T14:26:37.136Z</time><hdop>3.0</hdop><vdop>2.5</vdop><extensions><gom:speed>0.065</gom:speed></extensions></trkpt>
   <trkpt lat="59.2944915847" lon="34.6549817301"><ele>160.233</ele><time>2026-08-16T14:26:38.136Z</time><hdop>3.0</hdop><vdop>2.5</vdop><extensions><gom:speed>0.062</gom:speed></extensions></trkpt>
   <trkpt lat="59.2944916685" lon="34.6549821492"><ele>160.215</ele><time>2026-08-16T14:26:39.136Z</time><hdop>3.0</hdop><vdop>2.5</vdop><extensions><gom:speed>0.061</gom:speed></extensions></trkpt>
   <trkpt lat="59.2944917942" lon="34.6549825683"><ele>160.19</ele><time>2026-08-16T14:26:40.136Z</time><hdop>3.0</hdop><vdop>2.5</vdop><extensions><gom:speed>0.063</gom:speed></extensions></trkpt>
   <trkpt lat="59.2944917942" lon="34.6549829874"><ele>160.173</ele><time>2026-08-16T14:26:41.136Z</time><hdop>3.0</hdop><vdop>2.5</vdop><extensions><gom:speed>0.064</gom:speed></extensions></trkpt>
   <trkpt lat="59.2944919618" lon="34.6549830712"><ele>160.17</ele><time>2026-08-16T14:26:42.136Z</time><hdop>3.0</hdop><vdop>2.5</vdop><extensions><gom:speed>0.065</gom:speed></extensions></trkpt>
   <trkpt lat="59.2944919618" lon="34.6549834903"><ele>160.181</ele><time>2026-08-16T14:26:43.136Z</time><hdop>3.0</hdop><vdop>2.5</vdop><extensions><gom:speed>0.066</gom:speed></extensions></trkpt>
   <trkpt lat="59.2944919618" lon="34.6549834903"><ele>160.198</ele><time>2026-08-16T14:26:44.136Z</time><hdop>3.0</hdop><vdop>2.5</vdop><extensions><gom:speed>0.067</gom:speed></extensions></trkpt>
   <trkpt lat="59.2944920876" lon="34.654983658"><ele>160.214</ele><time>2026-08-16T14:26:45.136Z</time><hdop>3.0</hdop><vdop>2.625</vdop><extensions><gom:speed>0.066</gom:speed></extensions></trkpt>
   <trkpt lat="59.2944921714" lon="34.6549839933"><ele>160.235</ele><time>2026-08-16T14:26:46.136Z</time><hdop>3.0</hdop><vdop>2.625</vdop><extensions><gom:speed>0.065</gom:speed></extensions></trkpt>
   <trkpt lat="59.2944922971" lon="34.6549841609"><ele>160.273</ele><time>2026-08-16T14:26:47.136Z</time><hdop>3.0</hdop><vdop>2.625</vdop><extensions><gom:speed>0.067</gom:speed></extensions></trkpt>
   <trkpt lat="59.2944923809" lon="34.6549844962"><ele>160.312</ele><time>2026-08-16T14:26:48.136Z</time><hdop>3.0</hdop><vdop>2.625</vdop><extensions><gom:speed>0.066</gom:speed></extensions></trkpt>
   <trkpt lat="59.2944924648" lon="34.6549847476"><ele>160.356</ele><time>2026-08-16T14:26:49.136Z</time><hdop>3.0</hdop><vdop>2.625</vdop><extensions><gom:speed>0.067</gom:speed></extensions></trkpt>
   <trkpt lat="59.2944925905" lon="34.6549850829"><ele>160.405</ele><time>2026-08-16T14:26:50.136Z</time><hdop>3.0</hdop><vdop>2.625</vdop><extensions><gom:speed>0.068</gom:speed></extensions></trkpt>
   <trkpt lat="59.2944927581" lon="34.6549852505"><ele>160.452</ele><time>2026-08-16T14:26:51.136Z</time><hdop>3.0</hdop><vdop>2.625</vdop><extensions><gom:speed>0.064</gom:speed></extensions></trkpt>
   <trkpt lat="59.2944927581" lon="34.6549854182"><ele>160.644</ele><time>2026-08-16T14:26:52.135Z</time><hdop>3.0</hdop><vdop>2.5</vdop><extensions><gom:speed>0.336</gom:speed></extensions></trkpt>
   <trkpt lat="59.2944920876" lon="34.6549863402"><ele>160.628</ele><time>2026-08-16T14:26:53.136Z</time><hdop>3.0</hdop><vdop>2.5</vdop><extensions><gom:speed>0.396</gom:speed></extensions></trkpt>
   <trkpt lat="59.2944912913" lon="34.6549869269"><ele>160.618</ele><time>2026-08-16T14:26:53.974Z</time><hdop>3.0</hdop><vdop>2.5</vdop><extensions><gom:speed>0.396</gom:speed></extensions></trkpt>
   <trkpt lat="59.2944914589" lon="34.6549867593"><ele>160.644</ele><time>2026-08-16T14:26:55.136Z</time><hdop>3.0</hdop><vdop>2.5</vdop><extensions><gom:speed>0.071</gom:speed></extensions></trkpt>
   <trkpt lat="59.2944913751" lon="34.6549871784"><ele>160.669</ele><time>2026-08-16T14:26:56.136Z</time><hdop>3.0</hdop><vdop>2.5</vdop><extensions><gom:speed>0.064</gom:speed></extensions></trkpt>
   <trkpt lat="59.2944910817" lon="34.6549875975"><ele>160.56</ele><time>2026-08-16T14:26:57.136Z</time><hdop>3.0</hdop><vdop>2.5</vdop><extensions><gom:speed>0.502</gom:speed></extensions></trkpt>
   <trkpt lat="59.2944894892" lon="34.6549887709"><ele>160.474</ele><time>2026-08-16T14:26:58.136Z</time><hdop>3.0</hdop><vdop>2.5</vdop><extensions><gom:speed>0.092</gom:speed></extensions></trkpt>
   <trkpt lat="59.2944891958" lon="34.6549866755"><ele>160.432</ele><time>2026-08-16T14:26:59.136Z</time><hdop>3.0</hdop><vdop>2.5</vdop><extensions><gom:speed>0.076</gom:speed></extensions></trkpt>
   <trkpt lat="59.2944888605" lon="34.6549851667"><ele>160.407</ele><time>2026-08-16T14:27:00.135Z</time><hdop>3.0</hdop><vdop>2.5</vdop><extensions><gom:speed>0.07</gom:speed></extensions></trkpt>
   <trkpt lat="59.2944885672" lon="34.6549839933"><ele>160.392</ele><time>2026-08-16T14:27:01.136Z</time><hdop>3.0</hdop><vdop>2.5</vdop><extensions><gom:speed>0.064</gom:speed></extensions></trkpt>
   <trkpt lat="59.2944884834" lon="34.6549828198"><ele>160.383</ele><time>2026-08-16T14:27:02.136Z</time><hdop>3.0</hdop><vdop>2.5</vdop><extensions><gom:speed>0.063</gom:speed></extensions></trkpt>
   <trkpt lat="59.29448819" lon="34.6549820654"><ele>160.399</ele><time>2026-08-16T14:27:03.136Z</time><hdop>3.0</hdop><vdop>2.5</vdop><extensions><gom:speed>0.063</gom:speed></extensions></trkpt>
   <trkpt lat="59.2944878966" lon="34.6549812272"><ele>160.422</ele><time>2026-08-16T14:27:04.136Z</time><hdop>3.0</hdop><vdop>2.5</vdop><extensions><gom:speed>0.063</gom:speed></extensions></trkpt>
   <trkpt lat="59.2944874775" lon="34.6549804729"><ele>160.409</ele><time>2026-08-16T14:27:05.136Z</time><hdop>3.0</hdop><vdop>2.5</vdop><extensions><gom:speed>0.065</gom:speed></extensions></trkpt>
   <trkpt lat="59.2944873937" lon="34.654979467"><ele>160.4</ele><time>2026-08-16T14:27:06.136Z</time><hdop>3.0</hdop><vdop>2.5</vdop><extensions><gom:speed>0.064</gom:speed></extensions></trkpt>
   <trkpt lat="59.294487268" lon="34.6549789641"><ele>160.397</ele><time>2026-08-16T14:27:07.136Z</time><hdop>3.0</hdop><vdop>2.5</vdop><extensions><gom:speed>0.063</gom:speed></extensions></trkpt>
   <trkpt lat="59.2944871842" lon="34.6549781259"><ele>160.382</ele><time>2026-08-16T14:27:08.136Z</time><hdop>3.0</hdop><vdop>2.5</vdop><extensions><gom:speed>0.066</gom:speed></extensions></trkpt>
   <trkpt lat="59.2944869746" lon="34.6549768686"><ele>160.32</ele><time>2026-08-16T14:27:09.136Z</time><hdop>3.0</hdop><vdop>2.5</vdop><extensions><gom:speed>0.398</gom:speed></extensions></trkpt>
   <trkpt lat="59.2944857592" lon="34.6549737673"><ele>160.276</ele><time>2026-08-16T14:27:10.136Z</time><hdop>3.0</hdop><vdop>2.5</vdop><extensions><gom:speed>0.1</gom:speed></extensions></trkpt>
   <trkpt lat="59.2944857592" lon="34.6549735997"><ele>160.25</ele><time>2026-08-16T14:27:10.641Z</time><hdop>3.0</hdop><vdop>2.5</vdop><extensions><gom:speed>0.101</gom:speed></extensions></trkpt>
   <trkpt lat="59.2944856754" lon="34.6549726777"><ele>160.242</ele><time>2026-08-16T14:27:11.136Z</time><hdop>3.0</hdop><vdop>2.5</vdop><extensions><gom:speed>0.087</gom:speed></extensions></trkpt>
   <trkpt lat="59.2944852982" lon="34.654971588"><ele>160.236</ele><time>2026-08-16T14:27:12.136Z</time><hdop>3.0</hdop><vdop>2.5</vdop><extensions><gom:speed>0.077</gom:speed></extensions></trkpt>
   <trkpt lat="59.2944850887" lon="34.6549707498"><ele>160.236</ele><time>2026-08-16T14:27:13.136Z</time><hdop>3.0</hdop><vdop>2.5</vdop><extensions><gom:speed>0.07</gom:speed></extensions></trkpt>
   <trkpt lat="59.294484963" lon="34.6549702469"><ele>160.246</ele><time>2026-08-16T14:27:14.136Z</time><hdop>3.0</hdop><vdop>2.5</vdop><extensions><gom:speed>0.064</gom:speed></extensions></trkpt>
   <trkpt lat="59.2944846696" lon="34.6549696602"><ele>160.248</ele><time>2026-08-16T14:27:15.136Z</time><hdop>3.0</hdop><vdop>2.5</vdop><extensions><gom:speed>0.064</gom:speed></extensions></trkpt>
   <trkpt lat="59.2944843762" lon="34.6549691573"><ele>160.245</ele><time>2026-08-16T14:27:16.136Z</time><hdop>3.0</hdop><vdop>2.5</vdop><extensions><gom:speed>0.064</gom:speed></extensions></trkpt>
   <trkpt lat="59.2944840829" lon="34.6549686544"><ele>160.223</ele><time>2026-08-16T14:27:17.136Z</time><hdop>3.0</hdop><vdop>2.5</vdop><extensions><gom:speed>0.064</gom:speed></extensions></trkpt>
   <trkpt lat="59.294483999" lon="34.6549682353"><ele>160.209</ele><time>2026-08-16T14:27:17.835Z</time><hdop>3.0</hdop><vdop>2.5</vdop><extensions><gom:speed>0.064</gom:speed></extensions></trkpt>
   <trkpt lat="59.2944834961" lon="34.6549676485"><ele>160.2</ele><time>2026-08-16T14:27:19.135Z</time><hdop>3.0</hdop><vdop>2.5</vdop><extensions><gom:speed>0.061</gom:speed></extensions></trkpt>
   <trkpt lat="59.2944832866" lon="34.6549668942"><ele>160.204</ele><time>2026-08-16T14:27:20.136Z</time><hdop>3.0</hdop><vdop>2.5</vdop><extensions><gom:speed>0.065</gom:speed></extensions></trkpt>
   <trkpt lat="59.2944829932" lon="34.6549664751"><ele>160.198</ele><time>2026-08-16T14:27:21.136Z</time><hdop>3.0</hdop><vdop>2.5</vdop><extensions><gom:speed>0.068</gom:speed></extensions></trkpt>
   <trkpt lat="59.2944826998" lon="34.6549661398"><ele>160.2</ele><time>2026-08-16T14:27:22.136Z</time><hdop>3.0</hdop><vdop>2.5</vdop><extensions><gom:speed>0.068</gom:speed></extensions></trkpt>
   <trkpt lat="59.2944823646" lon="34.6549657207"><ele>160.204</ele><time>2026-08-16T14:27:23.136Z</time><hdop>3.0</hdop><vdop>2.5</vdop><extensions><gom:speed>0.068</gom:speed></extensions></trkpt>
   <trkpt lat="59.2944822808" lon="34.6549653854"><ele>160.207</ele><time>2026-08-16T14:27:24.039Z</time><hdop>3.0</hdop><vdop>2.5</vdop><extensions><gom:speed>0.068</gom:speed></extensions></trkpt>
   <trkpt lat="59.2944819874" lon="34.6549652178"><ele>160.224</ele><time>2026-08-16T14:27:25.136Z</time><hdop>3.0</hdop><vdop>2.5</vdop><extensions><gom:speed>0.063</gom:speed></extensions></trkpt>
   <trkpt lat="59.2944814845" lon="34.6549648825"><ele>160.227</ele><time>2026-08-16T14:27:26.136Z</time><hdop>3.0</hdop><vdop>2.5</vdop><extensions><gom:speed>0.025</gom:speed></extensions></trkpt>
   <trkpt lat="59.2944813587" lon="34.6549657207"><ele>160.224</ele><time>2026-08-16T14:27:27.136Z</time><hdop>3.0</hdop><vdop>2.5</vdop><extensions><gom:speed>0.025</gom:speed></extensions></trkpt>
   <trkpt lat="59.2944815683" lon="34.654966056"><ele>160.213</ele><time>2026-08-16T14:27:28.136Z</time><hdop>3.0</hdop><vdop>2.5</vdop><extensions><gom:speed>0.064</gom:speed></extensions></trkpt>
   <trkpt lat="59.2944818617" lon="34.6549662236"><ele>160.204</ele><time>2026-08-16T14:27:29.136Z</time><hdop>3.0</hdop><vdop>2.5</vdop><extensions><gom:speed>0.064</gom:speed></extensions></trkpt>
   <trkpt lat="59.2944817778" lon="34.6549659722"><ele>160.195</ele><time>2026-08-16T14:27:30.136Z</time><hdop>3.0</hdop><vdop>2.5</vdop><extensions><gom:speed>0.024</gom:speed></extensions></trkpt>
   <trkpt lat="59.2944813587" lon="34.6549659722"><ele>160.194</ele><time>2026-08-16T14:27:31.136Z</time><hdop>3.0</hdop><vdop>2.5</vdop><extensions><gom:speed>0.017</gom:speed></extensions></trkpt>
   <trkpt lat="59.2944812749" lon="34.6549657207"><ele>160.201</ele><time>2026-08-16T14:27:32.136Z</time><hdop>3.0</hdop><vdop>2.5</vdop><extensions><gom:speed>0.052</gom:speed></extensions></trkpt>
   <trkpt lat="59.2944808977" lon="34.6549653854"><ele>160.212</ele><time>2026-08-16T14:27:33.136Z</time><hdop>3.0</hdop><vdop>2.5</vdop><extensions><gom:speed>0.091</gom:speed></extensions></trkpt>
   <trkpt lat="59.2944806882" lon="34.6549645472"><ele>160.225</ele><time>2026-08-16T14:27:34.135Z</time><hdop>3.0</hdop><vdop>2.5</vdop><extensions><gom:speed>0.088</gom:speed></extensions></trkpt>
   <trkpt lat="59.2944804786" lon="34.6549638767"><ele>160.216</ele><time>2026-08-16T14:27:35.136Z</time><hdop>3.0</hdop><vdop>2.5</vdop><extensions><gom:speed>0.086</gom:speed></extensions></trkpt>
   <trkpt lat="59.2944803948" lon="34.6549631223"><ele>160.216</ele><time>2026-08-16T14:27:36.136Z</time><hdop>3.0</hdop><vdop>2.5</vdop><extensions><gom:speed>0.083</gom:speed></extensions></trkpt>
   <trkpt lat="59.2944802691" lon="34.654962787"><ele>160.201</ele><time>2026-08-16T14:27:37.136Z</time><hdop>3.0</hdop><vdop>2.5</vdop><extensions><gom:speed>0.08</gom:speed></extensions></trkpt>
   <trkpt lat="59.2944801853" lon="34.6549624518"><ele>160.156</ele><time>2026-08-16T14:27:38.136Z</time><hdop>3.0</hdop><vdop>2.5</vdop><extensions><gom:speed>0.079</gom:speed></extensions></trkpt>
   <trkpt lat="59.2944800595" lon="34.6549621165"><ele>160.13</ele><time>2026-08-16T14:27:39.135Z</time><hdop>3.0</hdop><vdop>2.5</vdop><extensions><gom:speed>0.08</gom:speed></extensions></trkpt>
   <trkpt lat="59.2944799757" lon="34.6549617812"><ele>160.125</ele><time>2026-08-16T14:27:40.136Z</time><hdop>3.0</hdop><vdop>2.5</vdop><extensions><gom:speed>0.083</gom:speed></extensions></trkpt>
   <trkpt lat="59.2944798919" lon="34.6549613621"><ele>160.112</ele><time>2026-08-16T14:27:41.136Z</time><hdop>3.0</hdop><vdop>2.5</vdop><extensions><gom:speed>0.082</gom:speed></extensions></trkpt>
   <trkpt lat="59.2944796824" lon="34.654960943"><ele>160.099</ele><time>2026-08-16T14:27:42.136Z</time><hdop>3.0</hdop><vdop>2.5</vdop><extensions><gom:speed>0.079</gom:speed></extensions></trkpt>
   <trkpt lat="59.2944795985" lon="34.6549607754"><ele>160.091</ele><time>2026-08-16T14:27:42.679Z</time><hdop>3.0</hdop><vdop>2.5</vdop><extensions><gom:speed>0.079</gom:speed></extensions></trkpt>
   <trkpt lat="59.2944795985" lon="34.6549608592"><ele>160.093</ele><time>2026-08-16T14:27:43.136Z</time><hdop>3.0</hdop><vdop>2.5</vdop><extensions><gom:speed>0.075</gom:speed></extensions></trkpt>
   <trkpt lat="59.2944796824" lon="34.6549616974"><ele>160.106</ele><time>2026-08-16T14:27:44.136Z</time><hdop>3.0</hdop><vdop>2.5</vdop><extensions><gom:speed>0.076</gom:speed></extensions></trkpt>
   <trkpt lat="59.2944796824" lon="34.654961865"><ele>160.111</ele><time>2026-08-16T14:27:45.136Z</time><hdop>3.0</hdop><vdop>2.5</vdop><extensions><gom:speed>0.078</gom:speed></extensions></trkpt>
   <trkpt lat="59.2944796824" lon="34.6549620327"><ele>160.117</ele><time>2026-08-16T14:27:46.136Z</time><hdop>3.0</hdop><vdop>2.5</vdop><extensions><gom:speed>0.077</gom:speed></extensions></trkpt>
   <trkpt lat="59.2944795985" lon="34.6549621165"><ele>160.125</ele><time>2026-08-16T14:27:47.136Z</time><hdop>3.0</hdop><vdop>2.5</vdop><extensions><gom:speed>0.077</gom:speed></extensions></trkpt>
   <trkpt lat="59.2944795985" lon="34.6549622841"><ele>160.109</ele><time>2026-08-16T14:27:48.136Z</time><hdop>3.0</hdop><vdop>2.5</vdop><extensions><gom:speed>0.076</gom:speed></extensions></trkpt>
   <trkpt lat="59.2944795985" lon="34.6549622841"><ele>160.092</ele><time>2026-08-16T14:27:49.136Z</time><hdop>3.0</hdop><vdop>2.5</vdop><extensions><gom:speed>0.078</gom:speed></extensions></trkpt>
   <trkpt lat="59.2944795985" lon="34.6549619489"><ele>160.075</ele><time>2026-08-16T14:27:50.136Z</time><hdop>3.0</hdop><vdop>2.5</vdop><extensions><gom:speed>0.078</gom:speed></extensions></trkpt>
   <trkpt lat="59.2944794728" lon="34.6549619489"><ele>160.059</ele><time>2026-08-16T14:27:51.136Z</time><hdop>3.0</hdop><vdop>2.5</vdop><extensions><gom:speed>0.078</gom:speed></extensions></trkpt>
   <trkpt lat="59.294479389" lon="34.6549620327"><ele>160.044</ele><time>2026-08-16T14:27:52.136Z</time><hdop>3.0</hdop><vdop>2.5</vdop><extensions><gom:speed>0.079</gom:speed></extensions></trkpt>
   <trkpt lat="59.294479389" lon="34.6549622841"><ele>160.031</ele><time>2026-08-16T14:27:53.136Z</time><hdop>3.0</hdop><vdop>2.5</vdop><extensions><gom:speed>0.076</gom:speed></extensions></trkpt>
   <trkpt lat="59.2944795985" lon="34.6549620327"><ele>160.034</ele><time>2026-08-16T14:27:54.136Z</time><hdop>3.0</hdop><vdop>2.5</vdop><extensions><gom:speed>0.078</gom:speed></extensions></trkpt>
   <trkpt lat="59.2944794728" lon="34.6549622841"><ele>160.04</ele><time>2026-08-16T14:27:55.135Z</time><hdop>3.0</hdop><vdop>2.5</vdop><extensions><gom:speed>0.074</gom:speed></extensions></trkpt>
   <trkpt lat="59.2944795985" lon="34.6549624518"><ele>160.037</ele><time>2026-08-16T14:27:56.136Z</time><hdop>3.0</hdop><vdop>2.5</vdop><extensions><gom:speed>0.072</gom:speed></extensions></trkpt>
   <trkpt lat="59.2944796824" lon="34.654962787"><ele>160.036</ele><time>2026-08-16T14:27:57.136Z</time><hdop>3.0</hdop><vdop>2.5</vdop><extensions><gom:speed>0.071</gom:speed></extensions></trkpt>
   <trkpt lat="59.2944795985" lon="34.6549630385"><ele>160.028</ele><time>2026-08-16T14:27:58.136Z</time><hdop>3.0</hdop><vdop>2.5</vdop><extensions><gom:speed>0.07</gom:speed></extensions></trkpt>
   <trkpt lat="59.2944795985" lon="34.6549633738"><ele>160.021</ele><time>2026-08-16T14:27:59.136Z</time><hdop>3.0</hdop><vdop>2.5</vdop><extensions><gom:speed>0.07</gom:speed></extensions></trkpt>
   <trkpt lat="59.2944795985" lon="34.6549635414"><ele>160.017</ele><time>2026-08-16T14:28:00.136Z</time><hdop>3.0</hdop><vdop>2.5</vdop><extensions><gom:speed>0.071</gom:speed></extensions></trkpt>
   <trkpt lat="59.2944795985" lon="34.6549638767"><ele>160.022</ele><time>2026-08-16T14:28:01.136Z</time><hdop>3.0</hdop><vdop>2.5</vdop><extensions><gom:speed>0.07</gom:speed></extensions></trkpt>
   <trkpt lat="59.2944795985" lon="34.6549641281"><ele>160.025</ele><time>2026-08-16T14:28:02.136Z</time><hdop>3.0</hdop><vdop>2.5</vdop><extensions><gom:speed>0.067</gom:speed></extensions></trkpt>
   <trkpt lat="59.2944794728" lon="34.6549643796"><ele>160.024</ele><time>2026-08-16T14:28:03.136Z</time><hdop>3.0</hdop><vdop>2.5</vdop><extensions><gom:speed>0.066</gom:speed></extensions></trkpt>
   <trkpt lat="59.2944794728" lon="34.6549639605"><ele>160.019</ele><time>2026-08-16T14:28:04.136Z</time><hdop>3.0</hdop><vdop>2.5</vdop><extensions><gom:speed>0.068</gom:speed></extensions></trkpt>
   <trkpt lat="59.2944794728" lon="34.6549641281"><ele>160.013</ele><time>2026-08-16T14:28:05.136Z</time><hdop>3.0</hdop><vdop>2.5</vdop><extensions><gom:speed>0.069</gom:speed></extensions></trkpt>
   <trkpt lat="59.2944794728" lon="34.6549643796"><ele>159.996</ele><time>2026-08-16T14:28:06.136Z</time><hdop>3.0</hdop><vdop>2.5</vdop><extensions><gom:speed>0.067</gom:speed></extensions></trkpt>
   <trkpt lat="59.2944794728" lon="34.6549644634"><ele>159.98</ele><time>2026-08-16T14:28:07.136Z</time><hdop>3.0</hdop><vdop>2.5</vdop><extensions><gom:speed>0.066</gom:speed></extensions></trkpt>
   <trkpt lat="59.2944794728" lon="34.6549643796"><ele>159.964</ele><time>2026-08-16T14:28:08.136Z</time><hdop>3.0</hdop><vdop>2.5</vdop><extensions><gom:speed>0.066</gom:speed></extensions></trkpt>
   <trkpt lat="59.2944794728" lon="34.6549642958"><ele>159.958</ele><time>2026-08-16T14:28:09.136Z</time><hdop>3.0</hdop><vdop>2.5</vdop><extensions><gom:speed>0.065</gom:speed></extensions></trkpt>
   <trkpt lat="59.2944794728" lon="34.6549641281"><ele>159.954</ele><time>2026-08-16T14:28:10.136Z</time><hdop>3.0</hdop><vdop>2.5</vdop><extensions><gom:speed>0.064</gom:speed></extensions></trkpt>
   <trkpt lat="59.2944792633" lon="34.6549635414"><ele>159.958</ele><time>2026-08-16T14:28:11.136Z</time><hdop>3.0</hdop><vdop>2.5</vdop><extensions><gom:speed>0.064</gom:speed></extensions></trkpt>
   <trkpt lat="59.294479389" lon="34.6549634576"><ele>159.963</ele><time>2026-08-16T14:28:12.136Z</time><hdop>3.0</hdop><vdop>2.5</vdop><extensions><gom:speed>0.065</gom:speed></extensions></trkpt>
   <trkpt lat="59.294479389" lon="34.6549636252"><ele>159.966</ele><time>2026-08-16T14:28:13.136Z</time><hdop>3.0</hdop><vdop>2.5</vdop><extensions><gom:speed>0.068</gom:speed></extensions></trkpt>
   <trkpt lat="59.2944794728" lon="34.6549636252"><ele>159.973</ele><time>2026-08-16T14:28:14.136Z</time><hdop>3.0</hdop><vdop>2.5</vdop><extensions><gom:speed>0.068</gom:speed></extensions></trkpt>
   <trkpt lat="59.2944794728" lon="34.6549636252"><ele>159.978</ele><time>2026-08-16T14:28:15.136Z</time><hdop>3.0</hdop><vdop>2.5</vdop><extensions><gom:speed>0.069</gom:speed></extensions></trkpt>
   <trkpt lat="59.2944794728" lon="34.6549635414"><ele>159.979</ele><time>2026-08-16T14:28:16.135Z</time><hdop>3.0</hdop><vdop>2.5</vdop><extensions><gom:speed>0.071</gom:speed></extensions></trkpt>
   <trkpt lat="59.2944794728" lon="34.6549634576"><ele>159.978</ele><time>2026-08-16T14:28:17.136Z</time><hdop>3.0</hdop><vdop>2.5</vdop><extensions><gom:speed>0.071</gom:speed></extensions></trkpt>
   <trkpt lat="59.2944794728" lon="34.6549629547"><ele>159.975</ele><time>2026-08-16T14:28:18.136Z</time><hdop>3.0</hdop><vdop>2.5</vdop><extensions><gom:speed>0.068</gom:speed></extensions></trkpt>
   <trkpt lat="59.294479389" lon="34.654962787"><ele>159.975</ele><time>2026-08-16T14:28:19.135Z</time><hdop>3.0</hdop><vdop>2.5</vdop><extensions><gom:speed>0.067</gom:speed></extensions></trkpt>
   <trkpt lat="59.294479389" lon="34.6549628709"><ele>159.967</ele><time>2026-08-16T14:28:20.136Z</time><hdop>3.0</hdop><vdop>2.5</vdop><extensions><gom:speed>0.067</gom:speed></extensions></trkpt>
   <trkpt lat="59.294479389" lon="34.6549628709"><ele>159.954</ele><time>2026-08-16T14:28:21.136Z</time><hdop>3.0</hdop><vdop>2.5</vdop><extensions><gom:speed>0.067</gom:speed></extensions></trkpt>
   <trkpt lat="59.2944792633" lon="34.6549628709"><ele>159.95</ele><time>2026-08-16T14:28:22.136Z</time><hdop>3.0</hdop><vdop>2.5</vdop><extensions><gom:speed>0.07</gom:speed></extensions></trkpt>
   <trkpt lat="59.2944792633" lon="34.654962787"><ele>159.957</ele><time>2026-08-16T14:28:23.136Z</time><hdop>3.0</hdop><vdop>2.5</vdop><extensions><gom:speed>0.069</gom:speed></extensions></trkpt>
   <trkpt lat="59.2944792633" lon="34.6549625356"><ele>159.983</ele><time>2026-08-16T14:28:24.136Z</time><hdop>3.0</hdop><vdop>2.5</vdop><extensions><gom:speed>0.068</gom:speed></extensions></trkpt>
   <trkpt lat="59.2944791794" lon="34.6549625356"><ele>160.003</ele><time>2026-08-16T14:28:25.136Z</time><hdop>3.0</hdop><vdop>2.5</vdop><extensions><gom:speed>0.066</gom:speed></extensions></trkpt>
   <trkpt lat="59.2944791794" lon="34.6549620327"><ele>160.029</ele><time>2026-08-16T14:28:26.136Z</time><hdop>3.0</hdop><vdop>2.5</vdop><extensions><gom:speed>0.066</gom:speed></extensions></trkpt>
   <trkpt lat="59.2944792633" lon="34.654961865"><ele>160.061</ele><time>2026-08-16T14:28:27.136Z</time><hdop>3.0</hdop><vdop>2.5</vdop><extensions><gom:speed>0.065</gom:speed></extensions></trkpt>
   <trkpt lat="59.2944794728" lon="34.6549616974"><ele>160.164</ele><time>2026-08-16T14:28:28.136Z</time><hdop>3.0</hdop><vdop>2.5</vdop><extensions><gom:speed>0.119</gom:speed></extensions></trkpt>
   <trkpt lat="59.2944796824" lon="34.6549611945"><ele>160.224</ele><time>2026-08-16T14:28:29.136Z</time><hdop>3.0</hdop><vdop>2.5</vdop><extensions><gom:speed>0.087</gom:speed></extensions></trkpt>
   <trkpt lat="59.2944795985" lon="34.654960021"><ele>160.261</ele><time>2026-08-16T14:28:30.136Z</time><hdop>3.0</hdop><vdop>2.5</vdop><extensions><gom:speed>0.077</gom:speed></extensions></trkpt>
   <trkpt lat="59.2944795985" lon="34.6549596857"><ele>160.278</ele><time>2026-08-16T14:28:31.136Z</time><hdop>3.0</hdop><vdop>2.5</vdop><extensions><gom:speed>0.067</gom:speed></extensions></trkpt>
   <trkpt lat="59.2944795985" lon="34.6549593505"><ele>160.289</ele><time>2026-08-16T14:28:32.136Z</time><hdop>3.0</hdop><vdop>2.5</vdop><extensions><gom:speed>0.06</gom:speed></extensions></trkpt>
   <trkpt lat="59.2944796824" lon="34.6549592666"><ele>160.3</ele><time>2026-08-16T14:28:33.136Z</time><hdop>3.0</hdop><vdop>2.5</vdop><extensions><gom:speed>0.058</gom:speed></extensions></trkpt>
   <trkpt lat="59.2944796824" lon="34.6549589314"><ele>160.304</ele><time>2026-08-16T14:28:34.136Z</time><hdop>3.0</hdop><vdop>2.5</vdop><extensions><gom:speed>0.061</gom:speed></extensions></trkpt>
   <trkpt lat="59.2944796824" lon="34.6549587637"><ele>160.302</ele><time>2026-08-16T14:28:35.136Z</time><hdop>3.0</hdop><vdop>2.5</vdop><extensions><gom:speed>0.058</gom:speed></extensions></trkpt>
   <trkpt lat="59.2944795985" lon="34.6549584285"><ele>160.187</ele><time>2026-08-16T14:28:36.136Z</time><hdop>3.0</hdop><vdop>2.5</vdop><extensions><gom:speed>0.325</gom:speed></extensions></trkpt>
   <trkpt lat="59.2944791794" lon="34.6549591828"><ele>160.117</ele><time>2026-08-16T14:28:37.136Z</time><hdop>3.0</hdop><vdop>2.5</vdop><extensions><gom:speed>0.517</gom:speed></extensions></trkpt>
   <trkpt lat="59.2944789699" lon="34.6549591828"><ele>160.076</ele><time>2026-08-16T14:28:37.637Z</time><hdop>3.0</hdop><vdop>2.5</vdop><extensions><gom:speed>0.517</gom:speed></extensions></trkpt>
   <trkpt lat="59.2944776707" lon="34.6549597696"><ele>160.148</ele><time>2026-08-16T14:28:38.136Z</time><hdop>3.0</hdop><vdop>2.5</vdop><extensions><gom:speed>0.761</gom:speed></extensions></trkpt>
   <trkpt lat="59.2944763715" lon="34.6549593505"><ele>160.191</ele><time>2026-08-16T14:28:38.599Z</time><hdop>3.0</hdop><vdop>2.5</vdop><extensions><gom:speed>0.757</gom:speed></extensions></trkpt>
   <trkpt lat="59.2944741922" lon="34.6549629547"><ele>160.16</ele><time>2026-08-16T14:28:39.136Z</time><hdop>3.0</hdop><vdop>2.5</vdop><extensions><gom:speed>0.766</gom:speed></extensions></trkpt>
   <trkpt lat="59.2944688697" lon="34.6549773716"><ele>160.131</ele><time>2026-08-16T14:28:40.135Z</time><hdop>3.062</hdop><vdop>2.5</vdop><extensions><gom:speed>0.718</gom:speed></extensions></trkpt>
   <trkpt lat="59.2944642597" lon="34.6549953926"><ele>159.974</ele><time>2026-08-16T14:28:41.136Z</time><hdop>3.062</hdop><vdop>2.5</vdop><extensions><gom:speed>0.71</gom:speed></extensions></trkpt>
   <trkpt lat="59.2944626671" lon="34.655002182"><ele>159.88</ele><time>2026-08-16T14:28:41.641Z</time><hdop>3.125</hdop><vdop>2.5</vdop><extensions><gom:speed>0.704</gom:speed></extensions></trkpt>
   <trkpt lat="59.2944620804" lon="34.655008217"><ele>159.856</ele><time>2026-08-16T14:28:42.136Z</time><hdop>3.125</hdop><vdop>2.5</vdop><extensions><gom:speed>0.511</gom:speed></extensions></trkpt>
   <trkpt lat="59.294459482" lon="34.655014671"><ele>159.936</ele><time>2026-08-16T14:28:43.136Z</time><hdop>3.125</hdop><vdop>2.5</vdop><extensions><gom:speed>0.355</gom:speed></extensions></trkpt>
   <trkpt lat="59.2944581828" lon="34.6550136652"><ele>159.903</ele><time>2026-08-16T14:28:44.136Z</time><hdop>3.125</hdop><vdop>2.5</vdop><extensions><gom:speed>0.299</gom:speed></extensions></trkpt>
   <trkpt lat="59.2944598592" lon="34.6550102286"><ele>159.876</ele><time>2026-08-16T14:28:45.136Z</time><hdop>3.062</hdop><vdop>2.5</vdop><extensions><gom:speed>0.209</gom:speed></extensions></trkpt>
   <trkpt lat="59.2944616613" lon="34.6550094742"><ele>159.851</ele><time>2026-08-16T14:28:46.136Z</time><hdop>3.062</hdop><vdop>2.5</vdop><extensions><gom:speed>0.132</gom:speed></extensions></trkpt>
   <trkpt lat="59.2944626671" lon="34.655010061"><ele>159.827</ele><time>2026-08-16T14:28:47.136Z</time><hdop>3.0</hdop><vdop>2.5</vdop><extensions><gom:speed>0.058</gom:speed></extensions></trkpt>
   <trkpt lat="59.2944633796" lon="34.655010983"><ele>159.803</ele><time>2026-08-16T14:28:48.136Z</time><hdop>3.0</hdop><vdop>2.5</vdop><extensions><gom:speed>0.03</gom:speed></extensions></trkpt>
   <trkpt lat="59.2944639663" lon="34.6550120726"><ele>159.784</ele><time>2026-08-16T14:28:49.136Z</time><hdop>3.0</hdop><vdop>2.5</vdop><extensions><gom:speed>0.063</gom:speed></extensions></trkpt>
   <trkpt lat="59.2944642597" lon="34.6550131623"><ele>159.776</ele><time>2026-08-16T14:28:50.136Z</time><hdop>3.0</hdop><vdop>2.5</vdop><extensions><gom:speed>0.014</gom:speed></extensions></trkpt>
   <trkpt lat="59.2944641758" lon="34.6550145872"><ele>159.779</ele><time>2026-08-16T14:28:51.136Z</time><hdop>3.0</hdop><vdop>2.5</vdop><extensions><gom:speed>0.013</gom:speed></extensions></trkpt>
   <trkpt lat="59.294464092" lon="34.6550149225"><ele>159.779</ele><time>2026-08-16T14:28:52.136Z</time><hdop>3.0</hdop><vdop>2.5</vdop><extensions><gom:speed>0.054</gom:speed></extensions></trkpt>
   <trkpt lat="59.2944643854" lon="34.6550151739"><ele>159.752</ele><time>2026-08-16T14:28:53.136Z</time><hdop>3.0</hdop><vdop>2.5</vdop><extensions><gom:speed>0.059</gom:speed></extensions></trkpt>
   <trkpt lat="59.2944648883" lon="34.6550151739"><ele>159.75</ele><time>2026-08-16T14:28:54.136Z</time><hdop>3.0</hdop><vdop>2.5</vdop><extensions><gom:speed>0.015</gom:speed></extensions></trkpt>
   <trkpt lat="59.2944656846" lon="34.6550161798"><ele>159.773</ele><time>2026-08-16T14:28:55.136Z</time><hdop>3.0</hdop><vdop>2.5</vdop><extensions><gom:speed>0.014</gom:speed></extensions></trkpt>
   <trkpt lat="59.2944664809" lon="34.655015593"><ele>159.812</ele><time>2026-08-16T14:28:56.136Z</time><hdop>3.0</hdop><vdop>2.5</vdop><extensions><gom:speed>0.065</gom:speed></extensions></trkpt>
   <trkpt lat="59.2944671933" lon="34.6550152578"><ele>159.845</ele><time>2026-08-16T14:28:57.136Z</time><hdop>3.0</hdop><vdop>2.5</vdop><extensions><gom:speed>0.069</gom:speed></extensions></trkpt>
   <trkpt lat="59.2944674867" lon="34.6550147548"><ele>159.864</ele><time>2026-08-16T14:28:57.660Z</time><hdop>3.0</hdop><vdop>2.5</vdop><extensions><gom:speed>0.104</gom:speed></extensions></trkpt>
   <trkpt lat="59.294467361" lon="34.6550143357"><ele>159.887</ele><time>2026-08-16T14:28:58.136Z</time><hdop>3.0</hdop><vdop>2.5</vdop><extensions><gom:speed>0.025</gom:speed></extensions></trkpt>
   <trkpt lat="59.2944675705" lon="34.6550143357"><ele>159.9</ele><time>2026-08-16T14:28:59.136Z</time><hdop>3.0</hdop><vdop>2.5</vdop><extensions><gom:speed>0.02</gom:speed></extensions></trkpt>
   <trkpt lat="59.2944675705" lon="34.6550144196"><ele>159.921</ele><time>2026-08-16T14:29:00.136Z</time><hdop>3.0</hdop><vdop>2.5</vdop><extensions><gom:speed>0.066</gom:speed></extensions></trkpt>
   <trkpt lat="59.2944676962" lon="34.6550142519"><ele>159.952</ele><time>2026-08-16T14:29:01.136Z</time><hdop>3.0</hdop><vdop>2.5</vdop><extensions><gom:speed>0.073</gom:speed></extensions></trkpt>
   <trkpt lat="59.2944671933" lon="34.6550144196"><ele>159.974</ele><time>2026-08-16T14:29:02.136Z</time><hdop>3.0</hdop><vdop>2.5</vdop><extensions><gom:speed>0.023</gom:speed></extensions></trkpt>
   <trkpt lat="59.294467361" lon="34.6550142519"><ele>159.996</ele><time>2026-08-16T14:29:03.136Z</time><hdop>3.0</hdop><vdop>2.5</vdop><extensions><gom:speed>0.0</gom:speed></extensions></trkpt>
   <trkpt lat="59.2944672771" lon="34.6550141681"><ele>160.025</ele><time>2026-08-16T14:29:04.136Z</time><hdop>3.0</hdop><vdop>2.5</vdop><extensions><gom:speed>0.013</gom:speed></extensions></trkpt>
   <trkpt lat="59.2944671933" lon="34.6550140843"><ele>160.055</ele><time>2026-08-16T14:29:05.136Z</time><hdop>3.0</hdop><vdop>2.5</vdop><extensions><gom:speed>0.023</gom:speed></extensions></trkpt>
   <trkpt lat="59.2944671933" lon="34.655013749"><ele>160.062</ele><time>2026-08-16T14:29:06.136Z</time><hdop>3.0</hdop><vdop>2.5</vdop><extensions><gom:speed>0.03</gom:speed></extensions></trkpt>
   <trkpt lat="59.2944671933" lon="34.6550133299"><ele>160.071</ele><time>2026-08-16T14:29:07.136Z</time><hdop>3.0</hdop><vdop>2.5</vdop><extensions><gom:speed>0.037</gom:speed></extensions></trkpt>
   <trkpt lat="59.2944671933" lon="34.655012827"><ele>160.093</ele><time>2026-08-16T14:29:08.136Z</time><hdop>3.0</hdop><vdop>2.5</vdop><extensions><gom:speed>0.041</gom:speed></extensions></trkpt>
   <trkpt lat="59.2944671933" lon="34.6550123241"><ele>160.112</ele><time>2026-08-16T14:29:09.136Z</time><hdop>3.0</hdop><vdop>2.5</vdop><extensions><gom:speed>0.047</gom:speed></extensions></trkpt>
   <trkpt lat="59.2944650979" lon="34.6550117374"><ele>160.123</ele><time>2026-08-16T14:29:10.136Z</time><hdop>3.125</hdop><vdop>2.5</vdop><extensions><gom:speed>0.047</gom:speed></extensions></trkpt>
   <trkpt lat="59.2944665647" lon="34.6550117374"><ele>160.129</ele><time>2026-08-16T14:29:10.893Z</time><hdop>3.125</hdop><vdop>2.5</vdop><extensions><gom:speed>0.047</gom:speed></extensions></trkpt>
   <trkpt lat="59.2944667742" lon="34.6550141681"><ele>159.999</ele><time>2026-08-16T14:29:11.737Z</time><hdop>3.062</hdop><vdop>2.5</vdop><extensions><gom:speed>0.615</gom:speed></extensions></trkpt>
   <trkpt lat="59.2944657684" lon="34.6550151739"><ele>159.551</ele><time>2026-08-16T14:29:12.277Z</time><hdop>3.062</hdop><vdop>2.5</vdop><extensions><gom:speed>0.679</gom:speed></extensions></trkpt>
   <trkpt lat="59.294464092" lon="34.6550191972"><ele>159.575</ele><time>2026-08-16T14:29:13.136Z</time><hdop>3.062</hdop><vdop>2.5</vdop><extensions><gom:speed>0.358</gom:speed></extensions></trkpt>
   <trkpt lat="59.2944614936" lon="34.6550208736"><ele>159.271</ele><time>2026-08-16T14:29:14.136Z</time><hdop>3.062</hdop><vdop>2.5</vdop><extensions><gom:speed>0.331</gom:speed></extensions></trkpt>
   <trkpt lat="59.294457596" lon="34.6550255675"><ele>159.147</ele><time>2026-08-16T14:29:15.136Z</time><hdop>3.062</hdop><vdop>2.5</vdop><extensions><gom:speed>0.384</gom:speed></extensions></trkpt>
   <trkpt lat="59.2944489627" lon="34.6550214604"><ele>159.048</ele><time>2026-08-16T14:29:16.136Z</time><hdop>3.0</hdop><vdop>2.5</vdop><extensions><gom:speed>0.489</gom:speed></extensions></trkpt>
   <trkpt lat="59.2944444784" lon="34.655018862"><ele>158.989</ele><time>2026-08-16T14:29:17.037Z</time><hdop>3.0</hdop><vdop>2.5</vdop><extensions><gom:speed>0.648</gom:speed></extensions></trkpt>
   <trkpt lat="59.2944273793" lon="34.6550129946"><ele>159.072</ele><time>2026-08-16T14:29:17.716Z</time><hdop>3.062</hdop><vdop>2.5</vdop><extensions><gom:speed>0.656</gom:speed></extensions></trkpt>
   <trkpt lat="59.2944101964" lon="34.6549908664"><ele>159.384</ele><time>2026-08-16T14:29:18.559Z</time><hdop>3.125</hdop><vdop>2.5</vdop><extensions><gom:speed>0.93</gom:speed></extensions></trkpt>
   <trkpt lat="59.2943996771" lon="34.6549824845"><ele>159.85</ele><time>2026-08-16T14:29:19.136Z</time><hdop>3.187</hdop><vdop>2.5</vdop><extensions><gom:speed>1.042</gom:speed></extensions></trkpt>
   <trkpt lat="59.2943892835" lon="34.6549681515"><ele>160.129</ele><time>2026-08-16T14:29:20.101Z</time><hdop>3.312</hdop><vdop>2.5</vdop><extensions><gom:speed>1.043</gom:speed></extensions></trkpt>
   <trkpt lat="59.2943789738" lon="34.6549848314"><ele>160.098</ele><time>2026-08-16T14:29:20.621Z</time><hdop>3.375</hdop><vdop>2.5</vdop><extensions><gom:speed>0.998</gom:speed></extensions></trkpt>
   <trkpt lat="59.2943731903" lon="34.6549941354"><ele>160.288</ele><time>2026-08-16T14:29:21.136Z</time><hdop>3.375</hdop><vdop>2.5</vdop><extensions><gom:speed>1.002</gom:speed></extensions></trkpt>
   <trkpt lat="59.2943646827" lon="34.6550029364"><ele>160.527</ele><time>2026-08-16T14:29:22.136Z</time><hdop>3.375</hdop><vdop>2.5</vdop><extensions><gom:speed>0.958</gom:speed></extensions></trkpt>
   <trkpt lat="59.2943578933" lon="34.6550066244"><ele>160.67</ele><time>2026-08-16T14:29:22.938Z</time><hdop>3.312</hdop><vdop>2.5</vdop><extensions><gom:speed>0.951</gom:speed></extensions></trkpt>
   <trkpt lat="59.2943546663" lon="34.6550107315"><ele>160.967</ele><time>2026-08-16T14:29:23.477Z</time><hdop>3.312</hdop><vdop>2.5</vdop><extensions><gom:speed>0.968</gom:speed></extensions></trkpt>
   <trkpt lat="59.294350182" lon="34.6550126594"><ele>161.299</ele><time>2026-08-16T14:29:24.136Z</time><hdop>3.25</hdop><vdop>2.5</vdop><extensions><gom:speed>0.936</gom:speed></extensions></trkpt>
   <trkpt lat="59.2943454881" lon="34.6550156769"><ele>161.299</ele><time>2026-08-16T14:29:25.136Z</time><hdop>3.062</hdop><vdop>2.5</vdop><extensions><gom:speed>0.684</gom:speed></extensions></trkpt>
   <trkpt lat="59.2943410876" lon="34.6550190296"><ele>161.4</ele><time>2026-08-16T14:29:26.136Z</time><hdop>3.0</hdop><vdop>2.5</vdop><extensions><gom:speed>0.738</gom:speed></extensions></trkpt>
   <trkpt lat="59.2943369805" lon="34.6550218795"><ele>161.412</ele><time>2026-08-16T14:29:27.136Z</time><hdop>3.0</hdop><vdop>2.5</vdop><extensions><gom:speed>0.588</gom:speed></extensions></trkpt>
   <trkpt lat="59.2943328733" lon="34.6550235558"><ele>161.42</ele><time>2026-08-16T14:29:28.061Z</time><hdop>3.0</hdop><vdop>2.5</vdop><extensions><gom:speed>0.588</gom:speed></extensions></trkpt>
   <trkpt lat="59.2943298978" lon="34.6550288364"><ele>161.533</ele><time>2026-08-16T14:29:28.621Z</time><hdop>3.0</hdop><vdop>2.5</vdop><extensions><gom:speed>0.634</gom:speed></extensions></trkpt>
   <trkpt lat="59.2943269641" lon="34.6550310996"><ele>161.603</ele><time>2026-08-16T14:29:29.136Z</time><hdop>3.0</hdop><vdop>2.5</vdop><extensions><gom:speed>0.661</gom:speed></extensions></trkpt>
   <trkpt lat="59.294320971" lon="34.6550319377"><ele>161.644</ele><time>2026-08-16T14:29:29.956Z</time><hdop>3.0</hdop><vdop>2.5</vdop><extensions><gom:speed>0.726</gom:speed></extensions></trkpt>
   <trkpt lat="59.2943137626" lon="34.6550308481"><ele>161.762</ele><time>2026-08-16T14:29:30.838Z</time><hdop>3.0</hdop><vdop>2.5</vdop><extensions><gom:speed>0.744</gom:speed></extensions></trkpt>
   <trkpt lat="59.2943086915" lon="34.6550298423"><ele>161.756</ele><time>2026-08-16T14:29:31.320Z</time><hdop>3.0</hdop><vdop>2.5</vdop><extensions><gom:speed>0.853</gom:speed></extensions></trkpt>
   <trkpt lat="59.2943015669" lon="34.6550302614"><ele>161.753</ele><time>2026-08-16T14:29:32.115Z</time><hdop>3.0</hdop><vdop>2.5</vdop><extensions><gom:speed>0.866</gom:speed></extensions></trkpt>
   <trkpt lat="59.2942967892" lon="34.6550310996"><ele>161.778</ele><time>2026-08-16T14:29:32.694Z</time><hdop>3.0</hdop><vdop>2.5</vdop><extensions><gom:speed>0.858</gom:speed></extensions></trkpt>
   <trkpt lat="59.2942881978" lon="34.6550333627"><ele>161.783</ele><time>2026-08-16T14:29:33.617Z</time><hdop>3.0</hdop><vdop>2.5</vdop><extensions><gom:speed>0.897</gom:speed></extensions></trkpt>
   <trkpt lat="59.2942841745" lon="34.6550334465"><ele>161.98</ele><time>2026-08-16T14:29:34.136Z</time><hdop>3.0</hdop><vdop>2.5</vdop><extensions><gom:speed>0.875</gom:speed></extensions></trkpt>
   <trkpt lat="59.294276966" lon="34.6550266571"><ele>162.105</ele><time>2026-08-16T14:29:35.136Z</time><hdop>3.0</hdop><vdop>2.5</vdop><extensions><gom:speed>0.875</gom:speed></extensions></trkpt>
   <trkpt lat="59.2942712663" lon="34.6550122403"><ele>162.083</ele><time>2026-08-16T14:29:36.136Z</time><hdop>3.0</hdop><vdop>2.5</vdop><extensions><gom:speed>0.936</gom:speed></extensions></trkpt>
   <trkpt lat="59.2942637645" lon="34.655006792"><ele>161.942</ele><time>2026-08-16T14:29:37.136Z</time><hdop>3.0</hdop><vdop>2.5</vdop><extensions><gom:speed>0.889</gom:speed></extensions></trkpt>
   <trkpt lat="59.2942575619" lon="34.6550064568"><ele>161.857</ele><time>2026-08-16T14:29:37.936Z</time><hdop>3.0</hdop><vdop>2.5</vdop><extensions><gom:speed>0.881</gom:speed></extensions></trkpt>
   <trkpt lat="59.2942534967" lon="34.6550004218"><ele>161.798</ele><time>2026-08-16T14:29:38.534Z</time><hdop>3.0</hdop><vdop>2.5</vdop><extensions><gom:speed>0.931</gom:speed></extensions></trkpt>
   <trkpt lat="59.2942501859" lon="34.6549943868"><ele>161.866</ele><time>2026-08-16T14:29:39.135Z</time><hdop>3.0</hdop><vdop>2.5</vdop><extensions><gom:speed>0.88</gom:speed></extensions></trkpt>
   <trkpt lat="59.2942453663" lon="34.6549810596"><ele>161.972</ele><time>2026-08-16T14:29:40.136Z</time><hdop>3.062</hdop><vdop>2.5</vdop><extensions><gom:speed>0.844</gom:speed></extensions></trkpt>
   <trkpt lat="59.2942399599" lon="34.6549676485"><ele>161.977</ele><time>2026-08-16T14:29:41.136Z</time><hdop>3.062</hdop><vdop>2.5</vdop><extensions><gom:speed>0.832</gom:speed></extensions></trkpt>
   <trkpt lat="59.2942336735" lon="34.654960021"><ele>161.981</ele><time>2026-08-16T14:29:42.097Z</time><hdop>3.125</hdop><vdop>2.5</vdop><extensions><gom:speed>0.821</gom:speed></extensions></trkpt>
   <trkpt lat="59.2942318714" lon="34.6549645472"><ele>161.963</ele><time>2026-08-16T14:29:42.559Z</time><hdop>3.187</hdop><vdop>2.5</vdop><extensions><gom:speed>0.73</gom:speed></extensions></trkpt>
   <trkpt lat="59.2942327934" lon="34.6549718395"><ele>161.92</ele><time>2026-08-16T14:29:43.136Z</time><hdop>3.125</hdop><vdop>2.5</vdop><extensions><gom:speed>0.435</gom:speed></extensions></trkpt>
   <trkpt lat="59.2942356852" lon="34.6549788803"><ele>161.914</ele><time>2026-08-16T14:29:44.136Z</time><hdop>3.125</hdop><vdop>2.5</vdop><extensions><gom:speed>0.252</gom:speed></extensions></trkpt>
   <trkpt lat="59.2942363976" lon="34.6549847476"><ele>161.946</ele><time>2026-08-16T14:29:45.136Z</time><hdop>3.125</hdop><vdop>2.5</vdop><extensions><gom:speed>0.305</gom:speed></extensions></trkpt>
   <trkpt lat="59.2942352661" lon="34.6549898606"><ele>161.835</ele><time>2026-08-16T14:29:46.136Z</time><hdop>3.125</hdop><vdop>2.5</vdop><extensions><gom:speed>0.224</gom:speed></extensions></trkpt>
   <trkpt lat="59.2942337992" lon="34.6549921237"><ele>161.875</ele><time>2026-08-16T14:29:47.136Z</time><hdop>3.0</hdop><vdop>2.5</vdop><extensions><gom:speed>0.16</gom:speed></extensions></trkpt>
   <trkpt lat="59.2942327934" lon="34.654992459"><ele>161.87</ele><time>2026-08-16T14:29:48.136Z</time><hdop>3.0</hdop><vdop>2.5</vdop><extensions><gom:speed>0.119</gom:speed></extensions></trkpt>
   <trkpt lat="59.2942325839" lon="34.6549917884"><ele>161.849</ele><time>2026-08-16T14:29:49.136Z</time><hdop>3.0</hdop><vdop>2.5</vdop><extensions><gom:speed>0.076</gom:speed></extensions></trkpt>
   <trkpt lat="59.2942324581" lon="34.6549912855"><ele>161.839</ele><time>2026-08-16T14:29:50.135Z</time><hdop>3.0</hdop><vdop>2.5</vdop><extensions><gom:speed>0.078</gom:speed></extensions></trkpt>
   <trkpt lat="59.2942327934" lon="34.6549918722"><ele>161.833</ele><time>2026-08-16T14:29:51.136Z</time><hdop>3.0</hdop><vdop>2.5</vdop><extensions><gom:speed>0.052</gom:speed></extensions></trkpt>
   <trkpt lat="59.2942330868" lon="34.6549918722"><ele>161.829</ele><time>2026-08-16T14:29:52.119Z</time><hdop>3.0</hdop><vdop>2.5</vdop><extensions><gom:speed>0.087</gom:speed></extensions></trkpt>
   <trkpt lat="59.2942322905" lon="34.6549899444"><ele>161.811</ele><time>2026-08-16T14:29:52.698Z</time><hdop>3.0</hdop><vdop>2.5</vdop><extensions><gom:speed>0.136</gom:speed></extensions></trkpt>
   <trkpt lat="59.2942294826" lon="34.6549828198"><ele>161.727</ele><time>2026-08-16T14:29:53.493Z</time><hdop>3.0</hdop><vdop>2.5</vdop><extensions><gom:speed>0.224</gom:speed></extensions></trkpt>
   <trkpt lat="59.2942288958" lon="34.6549810596"><ele>161.677</ele><time>2026-08-16T14:29:54.102Z</time><hdop>3.0</hdop><vdop>2.5</vdop><extensions><gom:speed>0.215</gom:speed></extensions></trkpt>
   <trkpt lat="59.2942244953" lon="34.6549687382"><ele>161.525</ele><time>2026-08-16T14:29:54.857Z</time><hdop>3.0</hdop><vdop>2.5</vdop><extensions><gom:speed>0.415</gom:speed></extensions></trkpt>
   <trkpt lat="59.2942195919" lon="34.6549358811"><ele>161.368</ele><time>2026-08-16T14:29:56.136Z</time><hdop>3.0</hdop><vdop>2.5</vdop><extensions><gom:speed>0.709</gom:speed></extensions></trkpt>
   <trkpt lat="59.2942159877" lon="34.6549139205"><ele>161.404</ele><time>2026-08-16T14:29:57.136Z</time><hdop>3.0</hdop><vdop>2.5</vdop><extensions><gom:speed>0.724</gom:speed></extensions></trkpt>
   <trkpt lat="59.2942107909" lon="34.6549041975"><ele>161.425</ele><time>2026-08-16T14:29:57.959Z</time><hdop>3.0</hdop><vdop>2.5</vdop><extensions><gom:speed>0.731</gom:speed></extensions></trkpt>
   <trkpt lat="59.2942006907" lon="34.6548923791"><ele>161.76</ele><time>2026-08-16T14:29:59.136Z</time><hdop>3.0</hdop><vdop>2.5</vdop><extensions><gom:speed>0.733</gom:speed></extensions></trkpt>
   <trkpt lat="59.2941955778" lon="34.6548893616"><ele>161.961</ele><time>2026-08-16T14:29:59.736Z</time><hdop>3.0</hdop><vdop>2.5</vdop><extensions><gom:speed>0.736</gom:speed></extensions></trkpt>
   <trkpt lat="59.2941907582" lon="34.6548864279"><ele>162.12</ele><time>2026-08-16T14:30:00.472Z</time><hdop>3.0</hdop><vdop>2.5</vdop><extensions><gom:speed>0.681</gom:speed></extensions></trkpt>
   <trkpt lat="59.2941870701" lon="34.6548825722"><ele>162.181</ele><time>2026-08-16T14:30:01.136Z</time><hdop>3.0</hdop><vdop>2.5</vdop><extensions><gom:speed>0.676</gom:speed></extensions></trkpt>
   <trkpt lat="59.2941813704" lon="34.6548778784"><ele>162.365</ele><time>2026-08-16T14:30:02.136Z</time><hdop>3.0</hdop><vdop>2.5</vdop><extensions><gom:speed>0.71</gom:speed></extensions></trkpt>
   <trkpt lat="59.2941762994" lon="34.6548782975"><ele>162.474</ele><time>2026-08-16T14:30:02.818Z</time><hdop>3.0</hdop><vdop>2.5</vdop><extensions><gom:speed>0.726</gom:speed></extensions></trkpt>
   <trkpt lat="59.2941702644" lon="34.6548889425"><ele>162.462</ele><time>2026-08-16T14:30:03.741Z</time><hdop>3.0</hdop><vdop>2.5</vdop><extensions><gom:speed>0.759</gom:speed></extensions></trkpt>
   <trkpt lat="59.2941637684" lon="34.6548963185"><ele>162.51</ele><time>2026-08-16T14:30:04.613Z</time><hdop>3.0</hdop><vdop>2.5</vdop><extensions><gom:speed>0.794</gom:speed></extensions></trkpt>
   <trkpt lat="59.2941602899" lon="34.6548957318"><ele>162.574</ele><time>2026-08-16T14:30:05.136Z</time><hdop>3.0</hdop><vdop>2.5</vdop><extensions><gom:speed>0.808</gom:speed></extensions></trkpt>
   <trkpt lat="59.2941542969" lon="34.6548889425"><ele>162.597</ele><time>2026-08-16T14:30:06.136Z</time><hdop>3.0</hdop><vdop>2.5</vdop><extensions><gom:speed>0.795</gom:speed></extensions></trkpt>
   <trkpt lat="59.2941484715" lon="34.6548819855"><ele>162.74</ele><time>2026-08-16T14:30:07.136Z</time><hdop>3.0</hdop><vdop>2.5</vdop><extensions><gom:speed>0.74</gom:speed></extensions></trkpt>
   <trkpt lat="59.2941423946" lon="34.6548774593"><ele>162.825</ele><time>2026-08-16T14:30:08.079Z</time><hdop>3.0</hdop><vdop>2.5</vdop><extensions><gom:speed>0.71</gom:speed></extensions></trkpt>
   <trkpt lat="59.2941371978" lon="34.6548723463"><ele>162.831</ele><time>2026-08-16T14:30:08.933Z</time><hdop>3.0</hdop><vdop>2.5</vdop><extensions><gom:speed>0.74</gom:speed></extensions></trkpt>
   <trkpt lat="59.2941335936" lon="34.6548637968"><ele>162.746</ele><time>2026-08-16T14:30:09.679Z</time><hdop>3.0</hdop><vdop>2.5</vdop><extensions><gom:speed>0.777</gom:speed></extensions></trkpt>
   <trkpt lat="59.2941307856" lon="34.6548574265"><ele>162.671</ele><time>2026-08-16T14:30:10.136Z</time><hdop>3.0</hdop><vdop>2.5</vdop><extensions><gom:speed>0.848</gom:speed></extensions></trkpt>
   <trkpt lat="59.2941249602" lon="34.6548468653"><ele>162.626</ele><time>2026-08-16T14:30:10.975Z</time><hdop>3.0</hdop><vdop>2.5</vdop><extensions><gom:speed>0.882</gom:speed></extensions></trkpt>
   <trkpt lat="59.2941182966" lon="34.6548399922"><ele>162.668</ele><time>2026-08-16T14:30:11.799Z</time><hdop>3.0</hdop><vdop>2.5</vdop><extensions><gom:speed>0.877</gom:speed></extensions></trkpt>
   <trkpt lat="59.2941131836" lon="34.6548393216"><ele>162.749</ele><time>2026-08-16T14:30:12.359Z</time><hdop>3.0</hdop><vdop>2.5</vdop><extensions><gom:speed>0.902</gom:speed></extensions></trkpt>
   <trkpt lat="59.2941066877" lon="34.65484192"><ele>162.762</ele><time>2026-08-16T14:30:13.136Z</time><hdop>3.0</hdop><vdop>2.5</vdop><extensions><gom:speed>0.856</gom:speed></extensions></trkpt>
   <trkpt lat="59.2940995631" lon="34.6548467815"><ele>162.769</ele><time>2026-08-16T14:30:13.998Z</time><hdop>3.0</hdop><vdop>2.5</vdop><extensions><gom:speed>0.862</gom:speed></extensions></trkpt>
   <trkpt lat="59.2940953721" lon="34.6548509725"><ele>162.68</ele><time>2026-08-16T14:30:14.597Z</time><hdop>3.0</hdop><vdop>2.5</vdop><extensions><gom:speed>0.836</gom:speed></extensions></trkpt>
   <trkpt lat="59.2940909716" lon="34.6548537385"><ele>162.471</ele><time>2026-08-16T14:30:15.135Z</time><hdop>3.0</hdop><vdop>2.5</vdop><extensions><gom:speed>0.897</gom:speed></extensions></trkpt>
   <trkpt lat="59.2940826735" lon="34.654853487"><ele>162.347</ele><time>2026-08-16T14:30:16.040Z</time><hdop>3.0</hdop><vdop>2.5</vdop><extensions><gom:speed>0.931</gom:speed></extensions></trkpt>
   <trkpt lat="59.2940783987" lon="34.6548544929"><ele>162.32</ele><time>2026-08-16T14:30:16.520Z</time><hdop>3.0</hdop><vdop>2.5</vdop><extensions><gom:speed>0.943</gom:speed></extensions></trkpt>
   <trkpt lat="59.2940728667" lon="34.6548551634"><ele>162.244</ele><time>2026-08-16T14:30:17.136Z</time><hdop>3.0</hdop><vdop>2.5</vdop><extensions><gom:speed>0.99</gom:speed></extensions></trkpt>
   <trkpt lat="59.2940662869" lon="34.6548551634"><ele>162.198</ele><time>2026-08-16T14:30:17.777Z</time><hdop>3.0</hdop><vdop>2.5</vdop><extensions><gom:speed>0.998</gom:speed></extensions></trkpt>
   <trkpt lat="59.2940578631" lon="34.6548598573"><ele>162.087</ele><time>2026-08-16T14:30:18.680Z</time><hdop>3.0</hdop><vdop>2.5</vdop><extensions><gom:speed>1.014</gom:speed></extensions></trkpt>
   <trkpt lat="59.2940540912" lon="34.6548634615"><ele>162.117</ele><time>2026-08-16T14:30:19.136Z</time><hdop>3.0</hdop><vdop>2.5</vdop><extensions><gom:speed>0.969</gom:speed></extensions></trkpt>
   <trkpt lat="59.2940490621" lon="34.654865557"><ele>162.135</ele><time>2026-08-16T14:30:19.681Z</time><hdop>3.0</hdop><vdop>2.5</vdop><extensions><gom:speed>0.964</gom:speed></extensions></trkpt>
   <trkpt lat="59.2940457931" lon="34.654866479"><ele>162.245</ele><time>2026-08-16T14:30:20.136Z</time><hdop>3.0</hdop><vdop>2.5</vdop><extensions><gom:speed>0.964</gom:speed></extensions></trkpt>
   <trkpt lat="59.2940396744" lon="34.6548651379"><ele>162.31</ele><time>2026-08-16T14:30:20.820Z</time><hdop>3.0</hdop><vdop>2.5</vdop><extensions><gom:speed>0.963</gom:speed></extensions></trkpt>
   <trkpt lat="59.2940308734" lon="34.6548605278"><ele>162.281</ele><time>2026-08-16T14:30:22.136Z</time><hdop>3.0</hdop><vdop>2.5</vdop><extensions><gom:speed>0.85</gom:speed></extensions></trkpt>
   <trkpt lat="59.2940259699" lon="34.6548500504"><ele>162.264</ele><time>2026-08-16T14:30:23.038Z</time><hdop>3.0</hdop><vdop>2.5</vdop><extensions><gom:speed>0.842</gom:speed></extensions></trkpt>
   <trkpt lat="59.2940222819" lon="34.6548405789"><ele>162.297</ele><time>2026-08-16T14:30:23.793Z</time><hdop>3.0</hdop><vdop>2.5</vdop><extensions><gom:speed>0.846</gom:speed></extensions></trkpt>
   <trkpt lat="59.294017588" lon="34.6548325323"><ele>162.317</ele><time>2026-08-16T14:30:24.599Z</time><hdop>3.0</hdop><vdop>2.5</vdop><extensions><gom:speed>0.83</gom:speed></extensions></trkpt>
   <trkpt lat="59.2940145706" lon="34.654828928"><ele>162.176</ele><time>2026-08-16T14:30:25.136Z</time><hdop>3.0</hdop><vdop>2.5</vdop><extensions><gom:speed>0.817</gom:speed></extensions></trkpt>
   <trkpt lat="59.2940093738" lon="34.6548250724"><ele>162.142</ele><time>2026-08-16T14:30:26.136Z</time><hdop>3.0</hdop><vdop>2.5</vdop><extensions><gom:speed>0.726</gom:speed></extensions></trkpt>
   <trkpt lat="59.2940033807" lon="34.6548213843"><ele>162.121</ele><time>2026-08-16T14:30:27.053Z</time><hdop>3.0</hdop><vdop>2.5</vdop><extensions><gom:speed>0.732</gom:speed></extensions></trkpt>
   <trkpt lat="59.2940010757" lon="34.6548135892"><ele>162.119</ele><time>2026-08-16T14:30:28.136Z</time><hdop>3.0</hdop><vdop>2.5</vdop><extensions><gom:speed>0.698</gom:speed></extensions></trkpt>
   <trkpt lat="59.2939965914" lon="34.6548074704"><ele>161.967</ele><time>2026-08-16T14:30:29.136Z</time><hdop>3.0</hdop><vdop>2.5</vdop><extensions><gom:speed>0.741</gom:speed></extensions></trkpt>
   <trkpt lat="59.2939912689" lon="34.6548046205"><ele>161.626</ele><time>2026-08-16T14:30:30.136Z</time><hdop>3.0</hdop><vdop>2.5</vdop><extensions><gom:speed>0.706</gom:speed></extensions></trkpt>
   <trkpt lat="59.2939856949" lon="34.6547977474"><ele>161.422</ele><time>2026-08-16T14:30:31.116Z</time><hdop>3.0</hdop><vdop>2.5</vdop><extensions><gom:speed>0.734</gom:speed></extensions></trkpt>
   <trkpt lat="59.2939783607" lon="34.6547974959"><ele>161.33</ele><time>2026-08-16T14:30:32.060Z</time><hdop>3.0</hdop><vdop>2.5</vdop><extensions><gom:speed>0.864</gom:speed></extensions></trkpt>
   <trkpt lat="59.2939795761" lon="34.6548142597"><ele>161.14</ele><time>2026-08-16T14:30:32.933Z</time><hdop>3.0</hdop><vdop>2.5</vdop><extensions><gom:speed>0.594</gom:speed></extensions></trkpt>
   <trkpt lat="59.2939806658" lon="34.6548192889"><ele>161.131</ele><time>2026-08-16T14:30:33.719Z</time><hdop>3.0</hdop><vdop>2.5</vdop><extensions><gom:speed>0.372</gom:speed></extensions></trkpt>
   <trkpt lat="59.2939783607" lon="34.6548218872"><ele>160.935</ele><time>2026-08-16T14:30:34.455Z</time><hdop>3.0</hdop><vdop>2.687</vdop><extensions><gom:speed>0.518</gom:speed></extensions></trkpt>
   <trkpt lat="59.2939748822" lon="34.6548216358"><ele>160.773</ele><time>2026-08-16T14:30:35.136Z</time><hdop>3.0</hdop><vdop>3.0</vdop><extensions><gom:speed>0.645</gom:speed></extensions></trkpt>
   <trkpt lat="59.2939728706" lon="34.654818283"><ele>160.675</ele><time>2026-08-16T14:30:35.760Z</time><hdop>3.0</hdop><vdop>3.0</vdop><extensions><gom:speed>0.676</gom:speed></extensions></trkpt>
   <trkpt lat="59.293969895" lon="34.6548140921"><ele>161.113</ele><time>2026-08-16T14:30:36.594Z</time><hdop>3.0</hdop><vdop>2.687</vdop><extensions><gom:speed>0.739</gom:speed></extensions></trkpt>
   <trkpt lat="59.2939690987" lon="34.6548081409"><ele>161.374</ele><time>2026-08-16T14:30:37.134Z</time><hdop>3.0</hdop><vdop>2.687</vdop><extensions><gom:speed>0.781</gom:speed></extensions></trkpt>
   <trkpt lat="59.2939594595" lon="34.6547943946"><ele>161.772</ele><time>2026-08-16T14:30:38.136Z</time><hdop>3.0</hdop><vdop>2.687</vdop><extensions><gom:speed>0.801</gom:speed></extensions></trkpt>
   <trkpt lat="59.2939557715" lon="34.6547871862"><ele>162.01</ele><time>2026-08-16T14:30:38.636Z</time><hdop>3.0</hdop><vdop>2.687</vdop><extensions><gom:speed>0.802</gom:speed></extensions></trkpt>
   <trkpt lat="59.2939526702" lon="34.6547772955"><ele>162.221</ele><time>2026-08-16T14:30:39.135Z</time><hdop>3.0</hdop><vdop>2.562</vdop><extensions><gom:speed>0.797</gom:speed></extensions></trkpt>
   <trkpt lat="59.2939510776" lon="34.6547692489"><ele>162.347</ele><time>2026-08-16T14:30:39.597Z</time><hdop>3.0</hdop><vdop>2.562</vdop><extensions><gom:speed>0.802</gom:speed></extensions></trkpt>
   <trkpt lat="59.2939488983" lon="34.6547584362"><ele>162.377</ele><time>2026-08-16T14:30:40.136Z</time><hdop>3.0</hdop><vdop>2.687</vdop><extensions><gom:speed>0.817</gom:speed></extensions></trkpt>
   <trkpt lat="59.2939455875" lon="34.6547394931"><ele>162.311</ele><time>2026-08-16T14:30:41.136Z</time><hdop>3.0</hdop><vdop>2.625</vdop><extensions><gom:speed>0.865</gom:speed></extensions></trkpt>
   <trkpt lat="59.2939444978" lon="34.6547240704"><ele>162.272</ele><time>2026-08-16T14:30:41.954Z</time><hdop>3.0</hdop><vdop>2.625</vdop><extensions><gom:speed>0.877</gom:speed></extensions></trkpt>
   <trkpt lat="59.2939414804" lon="34.6547165267"><ele>162.168</ele><time>2026-08-16T14:30:42.415Z</time><hdop>3.0</hdop><vdop>2.562</vdop><extensions><gom:speed>0.843</gom:speed></extensions></trkpt>
   <trkpt lat="59.2939382952" lon="34.6547054626"><ele>162.105</ele><time>2026-08-16T14:30:43.073Z</time><hdop>3.0</hdop><vdop>2.562</vdop><extensions><gom:speed>0.929</gom:speed></extensions></trkpt>
   <trkpt lat="59.2939303743" lon="34.6546934765"><ele>162.02</ele><time>2026-08-16T14:30:43.956Z</time><hdop>3.0</hdop><vdop>2.687</vdop><extensions><gom:speed>0.929</gom:speed></extensions></trkpt>
   <trkpt lat="59.2939246746" lon="34.6546868548"><ele>162.052</ele><time>2026-08-16T14:30:44.437Z</time><hdop>3.0</hdop><vdop>2.5</vdop><extensions><gom:speed>1.008</gom:speed></extensions></trkpt>
   <trkpt lat="59.2939183882" lon="34.6546804845"><ele>162.246</ele><time>2026-08-16T14:30:45.136Z</time><hdop>3.0</hdop><vdop>2.5</vdop><extensions><gom:speed>1.012</gom:speed></extensions></trkpt>
   <trkpt lat="59.2939103835" lon="34.6546724379"><ele>162.363</ele><time>2026-08-16T14:30:46.017Z</time><hdop>3.0</hdop><vdop>2.5</vdop><extensions><gom:speed>0.998</gom:speed></extensions></trkpt>
   <trkpt lat="59.2939041809" lon="34.6546630502"><ele>162.545</ele><time>2026-08-16T14:30:47.136Z</time><hdop>3.0</hdop><vdop>2.5</vdop><extensions><gom:speed>0.85</gom:speed></extensions></trkpt>
   <trkpt lat="59.293902295" lon="34.6546565961"><ele>162.654</ele><time>2026-08-16T14:30:47.637Z</time><hdop>3.0</hdop><vdop>2.5</vdop><extensions><gom:speed>0.848</gom:speed></extensions></trkpt>
   <trkpt lat="59.2939023788" lon="34.6546516508"><ele>162.58</ele><time>2026-08-16T14:30:48.136Z</time><hdop>3.0</hdop><vdop>2.5</vdop><extensions><gom:speed>0.676</gom:speed></extensions></trkpt>
   <trkpt lat="59.2939060668" lon="34.6546457835"><ele>162.353</ele><time>2026-08-16T14:30:49.136Z</time><hdop>3.0</hdop><vdop>2.5</vdop><extensions><gom:speed>0.419</gom:speed></extensions></trkpt>
   <trkpt lat="59.2939092939" lon="34.6546459511"><ele>162.227</ele><time>2026-08-16T14:30:50.136Z</time><hdop>3.0</hdop><vdop>2.5</vdop><extensions><gom:speed>0.186</gom:speed></extensions></trkpt>
   <trkpt lat="59.2939103835" lon="34.6546480466"><ele>162.203</ele><time>2026-08-16T14:30:51.136Z</time><hdop>3.0</hdop><vdop>2.5</vdop><extensions><gom:speed>0.081</gom:speed></extensions></trkpt>
   <trkpt lat="59.2939113893" lon="34.6546502259"><ele>162.213</ele><time>2026-08-16T14:30:52.135Z</time><hdop>3.0</hdop><vdop>2.5</vdop><extensions><gom:speed>0.04</gom:speed></extensions></trkpt>
   <trkpt lat="59.2939116827" lon="34.6546502259"><ele>162.219</ele><time>2026-08-16T14:30:52.800Z</time><hdop>3.0</hdop><vdop>2.5</vdop><extensions><gom:speed>0.081</gom:speed></extensions></trkpt>
   <trkpt lat="59.2939123952" lon="34.654651567"><ele>162.2</ele><time>2026-08-16T14:30:54.136Z</time><hdop>3.0</hdop><vdop>2.5</vdop><extensions><gom:speed>0.076</gom:speed></extensions></trkpt>
   <trkpt lat="59.2939122694" lon="34.6546536625"><ele>162.3</ele><time>2026-08-16T14:30:55.136Z</time><hdop>3.0</hdop><vdop>2.5</vdop><extensions><gom:speed>0.049</gom:speed></extensions></trkpt>
   <trkpt lat="59.2939123952" lon="34.6546559256"><ele>162.25</ele><time>2026-08-16T14:30:56.136Z</time><hdop>3.0</hdop><vdop>2.5</vdop><extensions><gom:speed>0.064</gom:speed></extensions></trkpt>
   <trkpt lat="59.2939126885" lon="34.654657099"><ele>162.254</ele><time>2026-08-16T14:30:57.136Z</time><hdop>3.0</hdop><vdop>2.625</vdop><extensions><gom:speed>0.093</gom:speed></extensions></trkpt>
   <trkpt lat="59.2939127723" lon="34.6546573505"><ele>162.26</ele><time>2026-08-16T14:30:58.136Z</time><hdop>3.0</hdop><vdop>2.562</vdop><extensions><gom:speed>0.048</gom:speed></extensions></trkpt>
   <trkpt lat="59.2939133591" lon="34.6546589431"><ele>162.429</ele><time>2026-08-16T14:30:59.136Z</time><hdop>3.0</hdop><vdop>2.625</vdop><extensions><gom:speed>0.091</gom:speed></extensions></trkpt>
   <trkpt lat="59.2939140715" lon="34.6546595298"><ele>162.537</ele><time>2026-08-16T14:31:00.136Z</time><hdop>3.0</hdop><vdop>2.5</vdop><extensions><gom:speed>0.085</gom:speed></extensions></trkpt>
   <trkpt lat="59.2939153707" lon="34.6546607871"><ele>162.591</ele><time>2026-08-16T14:31:01.136Z</time><hdop>3.0</hdop><vdop>2.5</vdop><extensions><gom:speed>0.096</gom:speed></extensions></trkpt>
   <trkpt lat="59.2939169633" lon="34.6546629664"><ele>162.629</ele><time>2026-08-16T14:31:02.136Z</time><hdop>3.0</hdop><vdop>2.5</vdop><extensions><gom:speed>0.114</gom:speed></extensions></trkpt>
   <trkpt lat="59.2939174662" lon="34.6546636369"><ele>162.457</ele><time>2026-08-16T14:31:03.136Z</time><hdop>3.0</hdop><vdop>2.5</vdop><extensions><gom:speed>0.156</gom:speed></extensions></trkpt>
   <trkpt lat="59.2939167957" lon="34.6546643913"><ele>162.36</ele><time>2026-08-16T14:31:04.136Z</time><hdop>3.0</hdop><vdop>2.5</vdop><extensions><gom:speed>0.126</gom:speed></extensions></trkpt>
   <trkpt lat="59.2939164604" lon="34.6546652295"><ele>162.305</ele><time>2026-08-16T14:31:05.136Z</time><hdop>3.0</hdop><vdop>2.5</vdop><extensions><gom:speed>0.103</gom:speed></extensions></trkpt>
   <trkpt lat="59.2939158736" lon="34.654664056"><ele>162.272</ele><time>2026-08-16T14:31:06.136Z</time><hdop>3.0</hdop><vdop>2.5</vdop><extensions><gom:speed>0.056</gom:speed></extensions></trkpt>
   <trkpt lat="59.2939154965" lon="34.654663134"><ele>162.256</ele><time>2026-08-16T14:31:07.136Z</time><hdop>3.0</hdop><vdop>2.5</vdop><extensions><gom:speed>0.039</gom:speed></extensions></trkpt>
   <trkpt lat="59.2939153707" lon="34.6546626311"><ele>162.251</ele><time>2026-08-16T14:31:08.136Z</time><hdop>3.0</hdop><vdop>2.562</vdop><extensions><gom:speed>0.0</gom:speed></extensions></trkpt>
   <trkpt lat="59.2939153707" lon="34.6546625473"><ele>162.244</ele><time>2026-08-16T14:31:09.136Z</time><hdop>3.0</hdop><vdop>2.625</vdop><extensions><gom:speed>0.014</gom:speed></extensions></trkpt>
   <trkpt lat="59.2939152869" lon="34.6546622958"><ele>162.244</ele><time>2026-08-16T14:31:10.136Z</time><hdop>3.0</hdop><vdop>2.5</vdop><extensions><gom:speed>0.024</gom:speed></extensions></trkpt>
   <trkpt lat="59.2939150774" lon="34.6546617929"><ele>162.36</ele><time>2026-08-16T14:31:11.136Z</time><hdop>3.0</hdop><vdop>2.5</vdop><extensions><gom:speed>0.18</gom:speed></extensions></trkpt>
   <trkpt lat="59.2939144906" lon="34.6546609547"><ele>162.533</ele><time>2026-08-16T14:31:12.136Z</time><hdop>3.0</hdop><vdop>2.625</vdop><extensions><gom:speed>0.257</gom:speed></extensions></trkpt>
   <trkpt lat="59.2939137782" lon="34.6546613738"><ele>162.625</ele><time>2026-08-16T14:31:13.136Z</time><hdop>3.0</hdop><vdop>2.687</vdop><extensions><gom:speed>0.09</gom:speed></extensions></trkpt>
   <trkpt lat="59.293913862" lon="34.6546629664"><ele>162.684</ele><time>2026-08-16T14:31:14.136Z</time><hdop>3.0</hdop><vdop>3.0</vdop><extensions><gom:speed>0.075</gom:speed></extensions></trkpt>
   <trkpt lat="59.293913862" lon="34.6546638884"><ele>162.737</ele><time>2026-08-16T14:31:15.136Z</time><hdop>3.0</hdop><vdop>3.125</vdop><extensions><gom:speed>0.072</gom:speed></extensions></trkpt>
   <trkpt lat="59.293913862" lon="34.6546643913"><ele>162.766</ele><time>2026-08-16T14:31:16.136Z</time><hdop>3.0</hdop><vdop>3.25</vdop><extensions><gom:speed>0.069</gom:speed></extensions></trkpt>
   <trkpt lat="59.293913862" lon="34.6546648942"><ele>162.762</ele><time>2026-08-16T14:31:17.136Z</time><hdop>3.0</hdop><vdop>3.25</vdop><extensions><gom:speed>0.066</gom:speed></extensions></trkpt>
   <trkpt lat="59.293913862" lon="34.6546653971"><ele>162.772</ele><time>2026-08-16T14:31:18.136Z</time><hdop>3.0</hdop><vdop>3.312</vdop><extensions><gom:speed>0.276</gom:speed></extensions></trkpt>
   <trkpt lat="59.2939136943" lon="34.6546653971"><ele>162.549</ele><time>2026-08-16T14:31:19.136Z</time><hdop>3.0</hdop><vdop>3.187</vdop><extensions><gom:speed>0.552</gom:speed></extensions></trkpt>
   <trkpt lat="59.2939143649" lon="34.6546633855"><ele>162.458</ele><time>2026-08-16T14:31:20.136Z</time><hdop>3.0</hdop><vdop>3.125</vdop><extensions><gom:speed>0.082</gom:speed></extensions></trkpt>
   <trkpt lat="59.2939153707" lon="34.6546648942"><ele>162.411</ele><time>2026-08-16T14:31:21.136Z</time><hdop>3.0</hdop><vdop>3.25</vdop><extensions><gom:speed>0.072</gom:speed></extensions></trkpt>
   <trkpt lat="59.2939159994" lon="34.6546655648"><ele>162.354</ele><time>2026-08-16T14:31:22.136Z</time><hdop>3.0</hdop><vdop>3.0</vdop><extensions><gom:speed>0.371</gom:speed></extensions></trkpt>
   <trkpt lat="59.2939165861" lon="34.6546658162"><ele>162.32</ele><time>2026-08-16T14:31:22.742Z</time><hdop>3.0</hdop><vdop>3.0</vdop><extensions><gom:speed>0.371</gom:speed></extensions></trkpt>
   <trkpt lat="59.2939167957" lon="34.6546690852"><ele>162.15</ele><time>2026-08-16T14:31:23.891Z</time><hdop>3.0</hdop><vdop>2.687</vdop><extensions><gom:speed>0.556</gom:speed></extensions></trkpt>
   <trkpt lat="59.2939156641" lon="34.6546713483"><ele>161.713</ele><time>2026-08-16T14:31:25.136Z</time><hdop>3.0</hdop><vdop>2.625</vdop><extensions><gom:speed>0.832</gom:speed></extensions></trkpt>
   <trkpt lat="59.2939146583" lon="34.6546724379"><ele>161.452</ele><time>2026-08-16T14:31:25.805Z</time><hdop>3.0</hdop><vdop>2.625</vdop><extensions><gom:speed>0.843</gom:speed></extensions></trkpt>
   <trkpt lat="59.2939089586" lon="34.6546752878"><ele>161.359</ele><time>2026-08-16T14:31:27.136Z</time><hdop>3.0</hdop><vdop>2.5</vdop><extensions><gom:speed>0.356</gom:speed></extensions></trkpt>
   <trkpt lat="59.2939083718" lon="34.6546768803"><ele>161.316</ele><time>2026-08-16T14:31:28.136Z</time><hdop>3.0</hdop><vdop>2.562</vdop><extensions><gom:speed>0.211</gom:speed></extensions></trkpt>
   <trkpt lat="59.293908288" lon="34.6546786405"><ele>161.295</ele><time>2026-08-16T14:31:29.136Z</time><hdop>3.0</hdop><vdop>2.5</vdop><extensions><gom:speed>0.087</gom:speed></extensions></trkpt>
   <trkpt lat="59.2939077851" lon="34.6546804845"><ele>161.302</ele><time>2026-08-16T14:31:30.136Z</time><hdop>3.0</hdop><vdop>2.5</vdop><extensions><gom:speed>0.068</gom:speed></extensions></trkpt>
   <trkpt lat="59.2939081623" lon="34.654684424"><ele>161.179</ele><time>2026-08-16T14:31:31.136Z</time><hdop>3.0</hdop><vdop>2.5</vdop><extensions><gom:speed>0.042</gom:speed></extensions></trkpt>
   <trkpt lat="59.2939095872" lon="34.6546866872"><ele>161.11</ele><time>2026-08-16T14:31:32.136Z</time><hdop>3.0</hdop><vdop>2.5</vdop><extensions><gom:speed>0.067</gom:speed></extensions></trkpt>
   <trkpt lat="59.2939104673" lon="34.6546874415"><ele>161.04</ele><time>2026-08-16T14:31:33.136Z</time><hdop>3.0</hdop><vdop>2.5</vdop><extensions><gom:speed>0.02</gom:speed></extensions></trkpt>
   <trkpt lat="59.2939104673" lon="34.6546889503"><ele>161.01</ele><time>2026-08-16T14:31:34.136Z</time><hdop>3.0</hdop><vdop>2.5</vdop><extensions><gom:speed>0.047</gom:speed></extensions></trkpt>
   <trkpt lat="59.2939103835" lon="34.6546897885"><ele>160.974</ele><time>2026-08-16T14:31:35.136Z</time><hdop>3.0</hdop><vdop>2.5</vdop><extensions><gom:speed>0.028</gom:speed></extensions></trkpt>
   <trkpt lat="59.2939106769" lon="34.6546901237"><ele>160.849</ele><time>2026-08-16T14:31:36.136Z</time><hdop>3.0</hdop><vdop>2.5</vdop><extensions><gom:speed>0.092</gom:speed></extensions></trkpt>
   <trkpt lat="59.2939108864" lon="34.6546892855"><ele>160.88</ele><time>2026-08-16T14:31:37.136Z</time><hdop>3.0</hdop><vdop>2.5</vdop><extensions><gom:speed>0.065</gom:speed></extensions></trkpt>
   <trkpt lat="59.2939104673" lon="34.6546871901"><ele>160.901</ele><time>2026-08-16T14:31:38.136Z</time><hdop>3.0</hdop><vdop>2.5</vdop><extensions><gom:speed>0.06</gom:speed></extensions></trkpt>
   <trkpt lat="59.2939103835" lon="34.6546854299"><ele>160.913</ele><time>2026-08-16T14:31:39.025Z</time><hdop>3.0</hdop><vdop>2.5</vdop><extensions><gom:speed>0.083</gom:speed></extensions></trkpt>
   <trkpt lat="59.293911096" lon="34.6546845917"><ele>160.94</ele><time>2026-08-16T14:31:39.586Z</time><hdop>3.0</hdop><vdop>2.5</vdop><extensions><gom:speed>0.118</gom:speed></extensions></trkpt>
   <trkpt lat="59.2939117665" lon="34.6546840888"><ele>160.956</ele><time>2026-08-16T14:31:40.136Z</time><hdop>3.0</hdop><vdop>2.5</vdop><extensions><gom:speed>0.113</gom:speed></extensions></trkpt>
   <trkpt lat="59.2939118922" lon="34.6546839211"><ele>160.925</ele><time>2026-08-16T14:31:41.136Z</time><hdop>3.0</hdop><vdop>2.5</vdop><extensions><gom:speed>0.186</gom:speed></extensions></trkpt>
   <trkpt lat="59.2939104673" lon="34.6546829991"><ele>161.184</ele><time>2026-08-16T14:31:42.136Z</time><hdop>3.0</hdop><vdop>2.5</vdop><extensions><gom:speed>0.16</gom:speed></extensions></trkpt>
   <trkpt lat="59.2939084976" lon="34.6546810713"><ele>161.415</ele><time>2026-08-16T14:31:43.135Z</time><hdop>3.0</hdop><vdop>2.5</vdop><extensions><gom:speed>0.176</gom:speed></extensions></trkpt>
   <trkpt lat="59.2939078689" lon="34.6546780538"><ele>161.542</ele><time>2026-08-16T14:31:44.136Z</time><hdop>3.0</hdop><vdop>2.5</vdop><extensions><gom:speed>0.113</gom:speed></extensions></trkpt>
   <trkpt lat="59.2939078689" lon="34.6546749525"><ele>161.613</ele><time>2026-08-16T14:31:45.136Z</time><hdop>3.0</hdop><vdop>2.5</vdop><extensions><gom:speed>0.055</gom:speed></extensions></trkpt>
   <trkpt lat="59.2939080785" lon="34.6546735276"><ele>161.688</ele><time>2026-08-16T14:31:46.136Z</time><hdop>3.0</hdop><vdop>2.5</vdop><extensions><gom:speed>0.0</gom:speed></extensions></trkpt>
   <trkpt lat="59.2939081623" lon="34.6546721865"><ele>161.69</ele><time>2026-08-16T14:31:47.136Z</time><hdop>3.0</hdop><vdop>2.5</vdop><extensions><gom:speed>0.228</gom:speed></extensions></trkpt>
   <trkpt lat="59.2939085814" lon="34.6546692528"><ele>161.54</ele><time>2026-08-16T14:31:48.136Z</time><hdop>3.0</hdop><vdop>2.5</vdop><extensions><gom:speed>0.217</gom:speed></extensions></trkpt>
   <trkpt lat="59.2939091681" lon="34.6546671573"><ele>161.476</ele><time>2026-08-16T14:31:49.136Z</time><hdop>3.0</hdop><vdop>2.5</vdop><extensions><gom:speed>0.068</gom:speed></extensions></trkpt>
   <trkpt lat="59.2939092939" lon="34.6546663191"><ele>161.459</ele><time>2026-08-16T14:31:50.136Z</time><hdop>3.0</hdop><vdop>2.5</vdop><extensions><gom:speed>0.056</gom:speed></extensions></trkpt>
   <trkpt lat="59.2939093777" lon="34.6546655648"><ele>161.456</ele><time>2026-08-16T14:31:51.136Z</time><hdop>3.0</hdop><vdop>2.5</vdop><extensions><gom:speed>0.052</gom:speed></extensions></trkpt>
   <trkpt lat="59.2939094615" lon="34.6546651457"><ele>161.455</ele><time>2026-08-16T14:31:52.139Z</time><hdop>3.0</hdop><vdop>2.5</vdop><extensions><gom:speed>0.052</gom:speed></extensions></trkpt>
   <trkpt lat="59.293909671" lon="34.6546646427"><ele>161.459</ele><time>2026-08-16T14:31:53.043Z</time><hdop>3.0</hdop><vdop>2.5</vdop><extensions><gom:speed>0.051</gom:speed></extensions></trkpt>
   <trkpt lat="59.293909671" lon="34.6546637207"><ele>161.443</ele><time>2026-08-16T14:31:54.136Z</time><hdop>3.0</hdop><vdop>2.5</vdop><extensions><gom:speed>0.047</gom:speed></extensions></trkpt>
   <trkpt lat="59.2939097968" lon="34.6546630502"><ele>161.455</ele><time>2026-08-16T14:31:55.136Z</time><hdop>3.0</hdop><vdop>2.562</vdop><extensions><gom:speed>0.05</gom:speed></extensions></trkpt>
   <trkpt lat="59.2939098806" lon="34.6546624635"><ele>161.466</ele><time>2026-08-16T14:31:56.136Z</time><hdop>3.0</hdop><vdop>2.562</vdop><extensions><gom:speed>0.055</gom:speed></extensions></trkpt>
   <trkpt lat="59.2939097968" lon="34.6546617929"><ele>161.312</ele><time>2026-08-16T14:31:57.136Z</time><hdop>3.0</hdop><vdop>2.5</vdop><extensions><gom:speed>0.341</gom:speed></extensions></trkpt>
   <trkpt lat="59.2939097968" lon="34.6546589431"><ele>161.171</ele><time>2026-08-16T14:31:58.136Z</time><hdop>3.0</hdop><vdop>2.562</vdop><extensions><gom:speed>0.393</gom:speed></extensions></trkpt>
   <trkpt lat="59.2939054801" lon="34.6546538301"><ele>160.478</ele><time>2026-08-16T14:31:59.136Z</time><hdop>3.0</hdop><vdop>2.5</vdop><extensions><gom:speed>0.579</gom:speed></extensions></trkpt>
   <trkpt lat="59.2938981878" lon="34.6546453644"><ele>160.022</ele><time>2026-08-16T14:32:00.136Z</time><hdop>3.062</hdop><vdop>2.5</vdop><extensions><gom:speed>0.733</gom:speed></extensions></trkpt>
   <trkpt lat="59.2938961762" lon="34.654638575"><ele>159.749</ele><time>2026-08-16T14:32:00.853Z</time><hdop>3.187</hdop><vdop>2.5</vdop><extensions><gom:speed>0.743</gom:speed></extensions></trkpt>
   <trkpt lat="59.2938819688" lon="34.6546338812"><ele>159.384</ele><time>2026-08-16T14:32:01.510Z</time><hdop>3.312</hdop><vdop>2.562</vdop><extensions><gom:speed>0.888</gom:speed></extensions></trkpt>
   <trkpt lat="59.2938697732" lon="34.6546325401"><ele>159.088</ele><time>2026-08-16T14:32:02.136Z</time><hdop>3.312</hdop><vdop>2.75</vdop><extensions><gom:speed>0.923</gom:speed></extensions></trkpt>
   <trkpt lat="59.2938595892" lon="34.6546252478"><ele>158.912</ele><time>2026-08-16T14:32:03.110Z</time><hdop>3.437</hdop><vdop>2.75</vdop><extensions><gom:speed>0.92</gom:speed></extensions></trkpt>
   <trkpt lat="59.2938518778" lon="34.6546275947"><ele>158.869</ele><time>2026-08-16T14:32:03.590Z</time><hdop>3.5</hdop><vdop>2.75</vdop><extensions><gom:speed>0.844</gom:speed></extensions></trkpt>
   <trkpt lat="59.2938463877" lon="34.6546265889"><ele>158.617</ele><time>2026-08-16T14:32:04.136Z</time><hdop>3.437</hdop><vdop>2.562</vdop><extensions><gom:speed>0.747</gom:speed></extensions></trkpt>
   <trkpt lat="59.2938391792" lon="34.6546252478"><ele>158.448</ele><time>2026-08-16T14:32:05.136Z</time><hdop>3.437</hdop><vdop>2.5</vdop><extensions><gom:speed>0.499</gom:speed></extensions></trkpt>
   <trkpt lat="59.2938334795" lon="34.6546243258"><ele>158.287</ele><time>2026-08-16T14:32:06.136Z</time><hdop>3.312</hdop><vdop>2.5</vdop><extensions><gom:speed>0.42</gom:speed></extensions></trkpt>
   <trkpt lat="59.293830965" lon="34.6546238229"><ele>158.191</ele><time>2026-08-16T14:32:06.647Z</time><hdop>3.187</hdop><vdop>2.5</vdop><extensions><gom:speed>0.42</gom:speed></extensions></trkpt>
   <trkpt lat="59.2938297915" lon="34.6546237391"><ele>158.124</ele><time>2026-08-16T14:32:07.136Z</time><hdop>3.125</hdop><vdop>2.5</vdop><extensions><gom:speed>0.296</gom:speed></extensions></trkpt>
   <trkpt lat="59.2938280732" lon="34.6546227332"><ele>158.084</ele><time>2026-08-16T14:32:08.109Z</time><hdop>3.125</hdop><vdop>2.5</vdop><extensions><gom:speed>0.241</gom:speed></extensions></trkpt>
   <trkpt lat="59.2938270674" lon="34.6546201348"><ele>158.052</ele><time>2026-08-16T14:32:09.136Z</time><hdop>3.0</hdop><vdop>2.5</vdop><extensions><gom:speed>0.135</gom:speed></extensions></trkpt>
   <trkpt lat="59.2938256844" lon="34.6546195481"><ele>158.184</ele><time>2026-08-16T14:32:10.136Z</time><hdop>3.0</hdop><vdop>2.5</vdop><extensions><gom:speed>0.165</gom:speed></extensions></trkpt>
   <trkpt lat="59.2938235889" lon="34.6546183746"><ele>158.108</ele><time>2026-08-16T14:32:11.136Z</time><hdop>3.0</hdop><vdop>2.5</vdop><extensions><gom:speed>0.262</gom:speed></extensions></trkpt>
   <trkpt lat="59.2938153746" lon="34.6546118368"><ele>158.389</ele><time>2026-08-16T14:32:12.135Z</time><hdop>3.0</hdop><vdop>2.5</vdop><extensions><gom:speed>0.554</gom:speed></extensions></trkpt>
   <trkpt lat="59.293811477" lon="34.6546071429"><ele>158.206</ele><time>2026-08-16T14:32:13.136Z</time><hdop>3.0</hdop><vdop>2.5</vdop><extensions><gom:speed>0.357</gom:speed></extensions></trkpt>
   <trkpt lat="59.2938074956" lon="34.6546107471"><ele>158.011</ele><time>2026-08-16T14:32:14.136Z</time><hdop>3.0</hdop><vdop>2.5</vdop><extensions><gom:speed>0.439</gom:speed></extensions></trkpt>
   <trkpt lat="59.2938037657" lon="34.654613094"><ele>157.954</ele><time>2026-08-16T14:32:15.136Z</time><hdop>3.0</hdop><vdop>2.625</vdop><extensions><gom:speed>0.418</gom:speed></extensions></trkpt>
   <trkpt lat="59.2938011673" lon="34.6546124235"><ele>157.919</ele><time>2026-08-16T14:32:15.733Z</time><hdop>3.0</hdop><vdop>2.625</vdop><extensions><gom:speed>0.432</gom:speed></extensions></trkpt>
   <trkpt lat="59.2937974793" lon="34.6546073943"><ele>157.728</ele><time>2026-08-16T14:32:16.194Z</time><hdop>3.0</hdop><vdop>2.937</vdop><extensions><gom:speed>0.674</gom:speed></extensions></trkpt>
   <trkpt lat="59.2937956772" lon="34.6546087355"><ele>157.614</ele><time>2026-08-16T14:32:17.127Z</time><hdop>3.0</hdop><vdop>2.937</vdop><extensions><gom:speed>0.767</gom:speed></extensions></trkpt>
   <trkpt lat="59.2937939589" lon="34.6545947377"><ele>157.52</ele><time>2026-08-16T14:32:17.853Z</time><hdop>3.125</hdop><vdop>3.0</vdop><extensions><gom:speed>0.464</gom:speed></extensions></trkpt>
   <trkpt lat="59.2937897679" lon="34.6545639761"><ele>157.582</ele><time>2026-08-16T14:32:19.136Z</time><hdop>3.125</hdop><vdop>2.562</vdop><extensions><gom:speed>0.765</gom:speed></extensions></trkpt>
   <trkpt lat="59.2937853674" lon="34.6545454521"><ele>157.387</ele><time>2026-08-16T14:32:20.136Z</time><hdop>3.125</hdop><vdop>2.5</vdop><extensions><gom:speed>0.822</gom:speed></extensions></trkpt>
   <trkpt lat="59.2937785781" lon="34.6545312867"><ele>157.397</ele><time>2026-08-16T14:32:21.136Z</time><hdop>3.187</hdop><vdop>2.5</vdop><extensions><gom:speed>0.869</gom:speed></extensions></trkpt>
   <trkpt lat="59.2937755606" lon="34.6545227371"><ele>157.403</ele><time>2026-08-16T14:32:21.730Z</time><hdop>3.25</hdop><vdop>2.5</vdop><extensions><gom:speed>0.889</gom:speed></extensions></trkpt>
   <trkpt lat="59.2937682683" lon="34.6545136847"><ele>157.534</ele><time>2026-08-16T14:32:22.447Z</time><hdop>3.25</hdop><vdop>2.5</vdop><extensions><gom:speed>0.949</gom:speed></extensions></trkpt>
   <trkpt lat="59.2937661729" lon="34.6545027882"><ele>157.613</ele><time>2026-08-16T14:32:23.036Z</time><hdop>3.25</hdop><vdop>2.5</vdop><extensions><gom:speed>1.006</gom:speed></extensions></trkpt>
   <trkpt lat="59.2937590901" lon="34.6544963341"><ele>157.671</ele><time>2026-08-16T14:32:23.772Z</time><hdop>3.25</hdop><vdop>2.5</vdop><extensions><gom:speed>0.975</gom:speed></extensions></trkpt>
   <trkpt lat="59.2937519655" lon="34.6544954959"><ele>157.936</ele><time>2026-08-16T14:32:24.292Z</time><hdop>3.25</hdop><vdop>2.5</vdop><extensions><gom:speed>0.999</gom:speed></extensions></trkpt>
   <trkpt lat="59.2937494929" lon="34.6544905506"><ele>158.095</ele><time>2026-08-16T14:32:24.989Z</time><hdop>3.25</hdop><vdop>2.5</vdop><extensions><gom:speed>1.034</gom:speed></extensions></trkpt>
   <trkpt lat="59.2937439608" lon="34.6544946577"><ele>157.968</ele><time>2026-08-16T14:32:25.568Z</time><hdop>3.25</hdop><vdop>2.5</vdop><extensions><gom:speed>1.128</gom:speed></extensions></trkpt>
   <trkpt lat="59.2937368781" lon="34.6544979267"><ele>157.826</ele><time>2026-08-16T14:32:26.136Z</time><hdop>3.25</hdop><vdop>2.5</vdop><extensions><gom:speed>1.06</gom:speed></extensions></trkpt>
   <trkpt lat="59.2937311784" lon="34.6545017824"><ele>157.741</ele><time>2026-08-16T14:32:26.874Z</time><hdop>3.312</hdop><vdop>2.5</vdop><extensions><gom:speed>0.967</gom:speed></extensions></trkpt>
   <trkpt lat="59.2937159653" lon="34.654507985"><ele>157.899</ele><time>2026-08-16T14:32:28.136Z</time><hdop>3.312</hdop><vdop>2.5</vdop><extensions><gom:speed>0.954</gom:speed></extensions></trkpt>
   <trkpt lat="59.2937079605" lon="34.6545100805"><ele>157.994</ele><time>2026-08-16T14:32:28.955Z</time><hdop>3.375</hdop><vdop>2.5</vdop><extensions><gom:speed>0.964</gom:speed></extensions></trkpt>
   <trkpt lat="59.2937048592" lon="34.6545076497"><ele>158.387</ele><time>2026-08-16T14:32:29.436Z</time><hdop>3.375</hdop><vdop>2.5</vdop><extensions><gom:speed>0.891</gom:speed></extensions></trkpt>
   <trkpt lat="59.2936981956" lon="34.6545084879"><ele>158.622</ele><time>2026-08-16T14:32:30.074Z</time><hdop>3.437</hdop><vdop>2.5</vdop><extensions><gom:speed>1.005</gom:speed></extensions></trkpt>
   <trkpt lat="59.2936908615" lon="34.6545014471"><ele>158.855</ele><time>2026-08-16T14:32:30.849Z</time><hdop>3.562</hdop><vdop>2.5</vdop><extensions><gom:speed>1.006</gom:speed></extensions></trkpt>
   <trkpt lat="59.2936835692" lon="34.6544980943"><ele>159.128</ele><time>2026-08-16T14:32:31.890Z</time><hdop>3.687</hdop><vdop>2.687</vdop><extensions><gom:speed>1.475</gom:speed></extensions></trkpt>
   <trkpt lat="59.2936834854" lon="34.6545055542"><ele>158.978</ele><time>2026-08-16T14:32:32.616Z</time><hdop>3.75</hdop><vdop>2.875</vdop><extensions><gom:speed>1.254</gom:speed></extensions></trkpt>
   <trkpt lat="59.2936795878" lon="34.6545084879"><ele>159.105</ele><time>2026-08-16T14:32:33.136Z</time><hdop>3.75</hdop><vdop>2.687</vdop><extensions><gom:speed>1.346</gom:speed></extensions></trkpt>
   <trkpt lat="59.2936746844" lon="34.6545068953"><ele>159.18</ele><time>2026-08-16T14:32:34.108Z</time><hdop>4.0</hdop><vdop>2.687</vdop><extensions><gom:speed>1.037</gom:speed></extensions></trkpt>
   <trkpt lat="59.2936651709" lon="34.654503794"><ele>159.518</ele><time>2026-08-16T14:32:35.089Z</time><hdop>4.125</hdop><vdop>2.5</vdop><extensions><gom:speed>0.904</gom:speed></extensions></trkpt>
   <trkpt lat="59.2936522628" lon="34.6545094937"><ele>159.872</ele><time>2026-08-16T14:32:36.136Z</time><hdop>4.0</hdop><vdop>2.562</vdop><extensions><gom:speed>0.847</gom:speed></extensions></trkpt>
   <trkpt lat="59.2936437971" lon="34.6545100805"><ele>160.288</ele><time>2026-08-16T14:32:37.135Z</time><hdop>3.75</hdop><vdop>2.562</vdop><extensions><gom:speed>0.824</gom:speed></extensions></trkpt>
   <trkpt lat="59.293638265" lon="34.6545026206"><ele>160.537</ele><time>2026-08-16T14:32:37.995Z</time><hdop>3.625</hdop><vdop>2.562</vdop><extensions><gom:speed>0.817</gom:speed></extensions></trkpt>
   <trkpt lat="59.2936339902" lon="34.6544930652"><ele>160.785</ele><time>2026-08-16T14:32:38.594Z</time><hdop>3.5</hdop><vdop>2.5</vdop><extensions><gom:speed>0.88</gom:speed></extensions></trkpt>
   <trkpt lat="59.2936307632" lon="34.654488539"><ele>160.933</ele><time>2026-08-16T14:32:39.054Z</time><hdop>3.5</hdop><vdop>2.5</vdop><extensions><gom:speed>0.855</gom:speed></extensions></trkpt>
   <trkpt lat="59.2936237643" lon="34.6544827554"><ele>161.285</ele><time>2026-08-16T14:32:39.986Z</time><hdop>3.312</hdop><vdop>2.5</vdop><extensions><gom:speed>0.827</gom:speed></extensions></trkpt>
   <trkpt lat="59.2936191962" lon="34.6544732839"><ele>161.548</ele><time>2026-08-16T14:32:40.694Z</time><hdop>3.125</hdop><vdop>2.5</vdop><extensions><gom:speed>0.847</gom:speed></extensions></trkpt>
   <trkpt lat="59.2936158853" lon="34.65446398"><ele>161.907</ele><time>2026-08-16T14:32:41.273Z</time><hdop>3.062</hdop><vdop>2.5</vdop><extensions><gom:speed>0.831</gom:speed></extensions></trkpt>
   <trkpt lat="59.2936129936" lon="34.6544592861"><ele>162.121</ele><time>2026-08-16T14:32:41.735Z</time><hdop>3.062</hdop><vdop>2.5</vdop><extensions><gom:speed>0.833</gom:speed></extensions></trkpt>
   <trkpt lat="59.2936050727" lon="34.654454257"><ele>162.098</ele><time>2026-08-16T14:32:42.647Z</time><hdop>3.062</hdop><vdop>2.5</vdop><extensions><gom:speed>0.886</gom:speed></extensions></trkpt>
   <trkpt lat="59.293600295" lon="34.6544524968"><ele>162.204</ele><time>2026-08-16T14:32:43.136Z</time><hdop>3.062</hdop><vdop>2.5</vdop><extensions><gom:speed>0.931</gom:speed></extensions></trkpt>
   <trkpt lat="59.2935933799" lon="34.6544504851"><ele>162.266</ele><time>2026-08-16T14:32:43.835Z</time><hdop>3.062</hdop><vdop>2.5</vdop><extensions><gom:speed>0.935</gom:speed></extensions></trkpt>
   <trkpt lat="59.2935853752" lon="34.654449144"><ele>162.7</ele><time>2026-08-16T14:32:44.532Z</time><hdop>3.0</hdop><vdop>2.5</vdop><extensions><gom:speed>0.977</gom:speed></extensions></trkpt>
   <trkpt lat="59.2935792983" lon="34.6544467971"><ele>162.721</ele><time>2026-08-16T14:32:45.136Z</time><hdop>3.0</hdop><vdop>2.5</vdop><extensions><gom:speed>0.998</gom:speed></extensions></trkpt>
   <trkpt lat="59.2935695753" lon="34.6544400916"><ele>162.953</ele><time>2026-08-16T14:32:46.136Z</time><hdop>3.0</hdop><vdop>2.5</vdop><extensions><gom:speed>1.019</gom:speed></extensions></trkpt>
   <trkpt lat="59.2935611934" lon="34.6544327993"><ele>163.091</ele><time>2026-08-16T14:32:46.976Z</time><hdop>3.0</hdop><vdop>2.5</vdop><extensions><gom:speed>1.087</gom:speed></extensions></trkpt>
   <trkpt lat="59.2935563738" lon="34.6544314582"><ele>163.18</ele><time>2026-08-16T14:32:47.447Z</time><hdop>3.0</hdop><vdop>2.5</vdop><extensions><gom:speed>1.1</gom:speed></extensions></trkpt>
   <trkpt lat="59.2935500874" lon="34.6544305362"><ele>162.97</ele><time>2026-08-16T14:32:48.136Z</time><hdop>3.0</hdop><vdop>2.5</vdop><extensions><gom:speed>1.077</gom:speed></extensions></trkpt>
   <trkpt lat="59.2935446811" lon="34.6544314582"><ele>162.844</ele><time>2026-08-16T14:32:48.655Z</time><hdop>3.0</hdop><vdop>2.5</vdop><extensions><gom:speed>1.073</gom:speed></extensions></trkpt>
   <trkpt lat="59.2935397776" lon="34.6544325478"><ele>162.746</ele><time>2026-08-16T14:32:49.136Z</time><hdop>3.0</hdop><vdop>2.5</vdop><extensions><gom:speed>1.086</gom:speed></extensions></trkpt>
   <trkpt lat="59.2935317729" lon="34.6544332184"><ele>162.687</ele><time>2026-08-16T14:32:49.852Z</time><hdop>3.0</hdop><vdop>2.5</vdop><extensions><gom:speed>1.087</gom:speed></extensions></trkpt>
   <trkpt lat="59.2935246902" lon="34.6544326317"><ele>162.457</ele><time>2026-08-16T14:32:50.529Z</time><hdop>3.0</hdop><vdop>2.5</vdop><extensions><gom:speed>1.092</gom:speed></extensions></trkpt>
   <trkpt lat="59.2935191582" lon="34.6544304524"><ele>162.32</ele><time>2026-08-16T14:32:51.050Z</time><hdop>3.0</hdop><vdop>2.5</vdop><extensions><gom:speed>1.1</gom:speed></extensions></trkpt>
   <trkpt lat="59.2935124946" lon="34.6544313744"><ele>161.982</ele><time>2026-08-16T14:32:51.707Z</time><hdop>3.0</hdop><vdop>2.5</vdop><extensions><gom:speed>1.08</gom:speed></extensions></trkpt>
   <trkpt lat="59.2935074654" lon="34.6544322964"><ele>161.768</ele><time>2026-08-16T14:32:52.188Z</time><hdop>3.0</hdop><vdop>2.5</vdop><extensions><gom:speed>1.105</gom:speed></extensions></trkpt>
   <trkpt lat="59.2934994607" lon="34.6544288598"><ele>161.64</ele><time>2026-08-16T14:32:52.934Z</time><hdop>3.0</hdop><vdop>2.5</vdop><extensions><gom:speed>1.09</gom:speed></extensions></trkpt>
   <trkpt lat="59.2934928809" lon="34.6544295304"><ele>161.81</ele><time>2026-08-16T14:32:53.533Z</time><hdop>3.0</hdop><vdop>2.5</vdop><extensions><gom:speed>1.104</gom:speed></extensions></trkpt>
   <trkpt lat="59.2934867621" lon="34.6544280216"><ele>161.678</ele><time>2026-08-16T14:32:54.136Z</time><hdop>3.0</hdop><vdop>2.5</vdop><extensions><gom:speed>1.109</gom:speed></extensions></trkpt>
   <trkpt lat="59.2934802661" lon="34.6544222381"><ele>161.598</ele><time>2026-08-16T14:32:54.789Z</time><hdop>3.0</hdop><vdop>2.5</vdop><extensions><gom:speed>1.114</gom:speed></extensions></trkpt>
   <trkpt lat="59.293473393" lon="34.6544192206"><ele>161.631</ele><time>2026-08-16T14:32:55.496Z</time><hdop>3.0</hdop><vdop>2.5</vdop><extensions><gom:speed>1.121</gom:speed></extensions></trkpt>
   <trkpt lat="59.2934669808" lon="34.6544170413"><ele>161.651</ele><time>2026-08-16T14:32:56.036Z</time><hdop>3.0</hdop><vdop>2.5</vdop><extensions><gom:speed>1.164</gom:speed></extensions></trkpt>
   <trkpt lat="59.2934601915" lon="34.6544112578"><ele>161.469</ele><time>2026-08-16T14:32:56.751Z</time><hdop>3.0</hdop><vdop>2.5</vdop><extensions><gom:speed>1.151</gom:speed></extensions></trkpt>
   <trkpt lat="59.2934475767" lon="34.6544015348"><ele>161.848</ele><time>2026-08-16T14:32:58.136Z</time><hdop>3.0</hdop><vdop>2.5</vdop><extensions><gom:speed>1.109</gom:speed></extensions></trkpt>
   <trkpt lat="59.293438189" lon="34.6543946616"><ele>162.088</ele><time>2026-08-16T14:32:59.135Z</time><hdop>3.0</hdop><vdop>2.5</vdop><extensions><gom:speed>1.089</gom:speed></extensions></trkpt>
   <trkpt lat="59.2934334951" lon="34.6543876208"><ele>162.232</ele><time>2026-08-16T14:32:59.668Z</time><hdop>3.0</hdop><vdop>2.5</vdop><extensions><gom:speed>1.092</gom:speed></extensions></trkpt>
   <trkpt lat="59.2934297652" lon="34.6543811668"><ele>162.469</ele><time>2026-08-16T14:33:00.136Z</time><hdop>3.0</hdop><vdop>2.5</vdop><extensions><gom:speed>1.073</gom:speed></extensions></trkpt>
   <trkpt lat="59.2934222634" lon="34.6543675881"><ele>162.611</ele><time>2026-08-16T14:33:01.091Z</time><hdop>3.0</hdop><vdop>2.5</vdop><extensions><gom:speed>1.055</gom:speed></extensions></trkpt>
   <trkpt lat="59.2934158931" lon="34.6543616369"><ele>162.976</ele><time>2026-08-16T14:33:01.788Z</time><hdop>3.0</hdop><vdop>2.5</vdop><extensions><gom:speed>1.037</gom:speed></extensions></trkpt>
   <trkpt lat="59.293410864" lon="34.654362559"><ele>163.338</ele><time>2026-08-16T14:33:02.249Z</time><hdop>3.0</hdop><vdop>2.5</vdop><extensions><gom:speed>1.057</gom:speed></extensions></trkpt>
   <trkpt lat="59.2934018953" lon="34.6543658279"><ele>163.399</ele><time>2026-08-16T14:33:03.136Z</time><hdop>3.0</hdop><vdop>2.5</vdop><extensions><gom:speed>1.034</gom:speed></extensions></trkpt>
   <trkpt lat="59.293395567" lon="34.6543693483"><ele>163.436</ele><time>2026-08-16T14:33:03.731Z</time><hdop>3.0</hdop><vdop>2.5</vdop><extensions><gom:speed>1.039</gom:speed></extensions></trkpt>
   <trkpt lat="59.293383078" lon="34.6543769758"><ele>163.692</ele><time>2026-08-16T14:33:05.136Z</time><hdop>3.0</hdop><vdop>2.5</vdop><extensions><gom:speed>0.999</gom:speed></extensions></trkpt>
   <trkpt lat="59.2933767915" lon="34.6543714438"><ele>163.845</ele><time>2026-08-16T14:33:05.851Z</time><hdop>3.0</hdop><vdop>2.5</vdop><extensions><gom:speed>1.002</gom:speed></extensions></trkpt>
   <trkpt lat="59.2933717624" lon="34.6543659955"><ele>164.093</ele><time>2026-08-16T14:33:06.529Z</time><hdop>3.0</hdop><vdop>2.5</vdop><extensions><gom:speed>1.023</gom:speed></extensions></trkpt>
   <trkpt lat="59.2933680744" lon="34.6543633971"><ele>163.993</ele><time>2026-08-16T14:33:07.136Z</time><hdop>3.0</hdop><vdop>2.5</vdop><extensions><gom:speed>0.945</gom:speed></extensions></trkpt>
   <trkpt lat="59.2933624585" lon="34.6543554343"><ele>163.934</ele><time>2026-08-16T14:33:08.030Z</time><hdop>3.0</hdop><vdop>2.5</vdop><extensions><gom:speed>0.864</gom:speed></extensions></trkpt>
   <trkpt lat="59.2933638834" lon="34.6543507405"><ele>163.984</ele><time>2026-08-16T14:33:09.136Z</time><hdop>3.0</hdop><vdop>2.5</vdop><extensions><gom:speed>0.631</gom:speed></extensions></trkpt>
   <trkpt lat="59.2933646797" lon="34.6543498185"><ele>163.927</ele><time>2026-08-16T14:33:10.136Z</time><hdop>3.0</hdop><vdop>2.5</vdop><extensions><gom:speed>0.325</gom:speed></extensions></trkpt>
   <trkpt lat="59.2933659789" lon="34.6543530874"><ele>163.896</ele><time>2026-08-16T14:33:11.136Z</time><hdop>3.0</hdop><vdop>2.5</vdop><extensions><gom:speed>0.095</gom:speed></extensions></trkpt>
   <trkpt lat="59.2933679905" lon="34.6543557696"><ele>163.897</ele><time>2026-08-16T14:33:12.136Z</time><hdop>3.0</hdop><vdop>2.5</vdop><extensions><gom:speed>0.077</gom:speed></extensions></trkpt>
   <trkpt lat="59.2933683677" lon="34.6543560211"><ele>163.897</ele><time>2026-08-16T14:33:12.673Z</time><hdop>3.0</hdop><vdop>2.5</vdop><extensions><gom:speed>0.11</gom:speed></extensions></trkpt>
   <trkpt lat="59.2933681582" lon="34.6543567754"><ele>163.898</ele><time>2026-08-16T14:33:13.135Z</time><hdop>3.0</hdop><vdop>2.5</vdop><extensions><gom:speed>0.042</gom:speed></extensions></trkpt>
   <trkpt lat="59.2933681582" lon="34.654357446"><ele>163.961</ele><time>2026-08-16T14:33:13.851Z</time><hdop>3.0</hdop><vdop>2.5</vdop><extensions><gom:speed>0.138</gom:speed></extensions></trkpt>
   <trkpt lat="59.2933669847" lon="34.6543587871"><ele>163.779</ele><time>2026-08-16T14:33:14.587Z</time><hdop>3.0</hdop><vdop>2.5</vdop><extensions><gom:speed>0.132</gom:speed></extensions></trkpt>
   <trkpt lat="59.2933669847" lon="34.6543596253"><ele>163.67</ele><time>2026-08-16T14:33:15.048Z</time><hdop>3.0</hdop><vdop>2.5</vdop><extensions><gom:speed>0.091</gom:speed></extensions></trkpt>
   <trkpt lat="59.2933633805" lon="34.6543599606"><ele>163.405</ele><time>2026-08-16T14:33:15.736Z</time><hdop>3.0</hdop><vdop>2.5</vdop><extensions><gom:speed>0.233</gom:speed></extensions></trkpt>
   <trkpt lat="59.293356675" lon="34.6543578651"><ele>163.05</ele><time>2026-08-16T14:33:16.295Z</time><hdop>3.0</hdop><vdop>2.5</vdop><extensions><gom:speed>0.51</gom:speed></extensions></trkpt>
   <trkpt lat="59.2933483769" lon="34.6543521654"><ele>162.552</ele><time>2026-08-16T14:33:17.136Z</time><hdop>3.0</hdop><vdop>2.5</vdop><extensions><gom:speed>0.732</gom:speed></extensions></trkpt>
   <trkpt lat="59.2933386958" lon="34.6543422747"><ele>162.152</ele><time>2026-08-16T14:33:18.136Z</time><hdop>3.0</hdop><vdop>2.5</vdop><extensions><gom:speed>0.907</gom:speed></extensions></trkpt>
   <trkpt lat="59.2933330799" lon="34.6543348987"><ele>161.912</ele><time>2026-08-16T14:33:18.749Z</time><hdop>3.0</hdop><vdop>2.5</vdop><extensions><gom:speed>0.906</gom:speed></extensions></trkpt>
   <trkpt lat="59.2933226864" lon="34.6543179672"><ele>161.733</ele><time>2026-08-16T14:33:20.015Z</time><hdop>3.0</hdop><vdop>2.5</vdop><extensions><gom:speed>1.058</gom:speed></extensions></trkpt>
   <trkpt lat="59.2933119994" lon="34.6543107588"><ele>161.292</ele><time>2026-08-16T14:33:21.136Z</time><hdop>3.0</hdop><vdop>2.5</vdop><extensions><gom:speed>1.076</gom:speed></extensions></trkpt>
   <trkpt lat="59.2933060902" lon="34.6543038856"><ele>161.028</ele><time>2026-08-16T14:33:21.753Z</time><hdop>3.0</hdop><vdop>2.5</vdop><extensions><gom:speed>1.079</gom:speed></extensions></trkpt>
   <trkpt lat="59.293301564" lon="34.6542981859"><ele>160.853</ele><time>2026-08-16T14:33:22.273Z</time><hdop>3.0</hdop><vdop>2.5</vdop><extensions><gom:speed>1.103</gom:speed></extensions></trkpt>
   <trkpt lat="59.293297373" lon="34.6542887982"><ele>160.748</ele><time>2026-08-16T14:33:22.852Z</time><hdop>3.0</hdop><vdop>2.5</vdop><extensions><gom:speed>1.114</gom:speed></extensions></trkpt>
   <trkpt lat="59.2932913799" lon="34.6542780694"><ele>160.647</ele><time>2026-08-16T14:33:23.755Z</time><hdop>3.0</hdop><vdop>2.5</vdop><extensions><gom:speed>1.096</gom:speed></extensions></trkpt>
   <trkpt lat="59.2932836686" lon="34.6542678434"><ele>160.272</ele><time>2026-08-16T14:33:24.756Z</time><hdop>3.0</hdop><vdop>2.5</vdop><extensions><gom:speed>1.078</gom:speed></extensions></trkpt>
   <trkpt lat="59.293279771" lon="34.6542625629"><ele>159.963</ele><time>2026-08-16T14:33:25.335Z</time><hdop>3.0</hdop><vdop>2.5</vdop><extensions><gom:speed>1.071</gom:speed></extensions></trkpt>
   <trkpt lat="59.2932766697" lon="34.6542556897"><ele>159.779</ele><time>2026-08-16T14:33:25.787Z</time><hdop>3.0</hdop><vdop>2.5</vdop><extensions><gom:speed>1.072</gom:speed></extensions></trkpt>
   <trkpt lat="59.2932736941" lon="34.6542442903"><ele>159.478</ele><time>2026-08-16T14:33:26.533Z</time><hdop>3.0</hdop><vdop>2.5</vdop><extensions><gom:speed>1.065</gom:speed></extensions></trkpt>
   <trkpt lat="59.2932719758" lon="34.6542343997"><ele>159.189</ele><time>2026-08-16T14:33:27.136Z</time><hdop>3.0</hdop><vdop>2.5</vdop><extensions><gom:speed>1.013</gom:speed></extensions></trkpt>
   <trkpt lat="59.2932684974" lon="34.6542187255"><ele>159.026</ele><time>2026-08-16T14:33:28.136Z</time><hdop>3.0</hdop><vdop>2.5</vdop><extensions><gom:speed>0.992</gom:speed></extensions></trkpt>
   <trkpt lat="59.2932631748" lon="34.6542033866"><ele>158.869</ele><time>2026-08-16T14:33:29.136Z</time><hdop>3.0</hdop><vdop>2.5</vdop><extensions><gom:speed>1.018</gom:speed></extensions></trkpt>
   <trkpt lat="59.2932505601" lon="34.6541988604"><ele>158.687</ele><time>2026-08-16T14:33:30.136Z</time><hdop>3.0</hdop><vdop>2.5</vdop><extensions><gom:speed>1.271</gom:speed></extensions></trkpt>
   <trkpt lat="59.2932374843" lon="34.6542095892"><ele>158.56</ele><time>2026-08-16T14:33:31.136Z</time><hdop>3.0</hdop><vdop>2.5</vdop><extensions><gom:speed>0.862</gom:speed></extensions></trkpt>
   <trkpt lat="59.2932303597" lon="34.6542185579"><ele>158.441</ele><time>2026-08-16T14:33:32.136Z</time><hdop>3.0</hdop><vdop>2.5</vdop><extensions><gom:speed>0.865</gom:speed></extensions></trkpt>
   <trkpt lat="59.2932261687" lon="34.6542241737"><ele>158.37</ele><time>2026-08-16T14:33:32.707Z</time><hdop>3.0</hdop><vdop>2.5</vdop><extensions><gom:speed>0.873</gom:speed></extensions></trkpt>
   <trkpt lat="59.2932258754" lon="34.6542191446"><ele>158.318</ele><time>2026-08-16T14:33:34.136Z</time><hdop>3.0</hdop><vdop>2.5</vdop><extensions><gom:speed>0.206</gom:speed></extensions></trkpt>
   <trkpt lat="59.2932272584" lon="34.6542156242"><ele>158.195</ele><time>2026-08-16T14:33:35.136Z</time><hdop>3.0</hdop><vdop>2.5</vdop><extensions><gom:speed>0.147</gom:speed></extensions></trkpt>
   <trkpt lat="59.2932280966" lon="34.6542131934"><ele>158.106</ele><time>2026-08-16T14:33:36.136Z</time><hdop>3.0</hdop><vdop>2.5</vdop><extensions><gom:speed>0.114</gom:speed></extensions></trkpt>
   <trkpt lat="59.293227887" lon="34.6542111818"><ele>157.944</ele><time>2026-08-16T14:33:37.136Z</time><hdop>3.0</hdop><vdop>2.5</vdop><extensions><gom:speed>0.097</gom:speed></extensions></trkpt>
   <trkpt lat="59.2932273841" lon="34.6542081643"><ele>158.07</ele><time>2026-08-16T14:33:38.136Z</time><hdop>3.0</hdop><vdop>2.5</vdop><extensions><gom:speed>0.183</gom:speed></extensions></trkpt>
   <trkpt lat="59.2932263783" lon="34.6542030513"><ele>158.256</ele><time>2026-08-16T14:33:39.136Z</time><hdop>3.0</hdop><vdop>2.5</vdop><extensions><gom:speed>0.138</gom:speed></extensions></trkpt>
   <trkpt lat="59.2932252886" lon="34.6541966811"><ele>158.43</ele><time>2026-08-16T14:33:40.136Z</time><hdop>3.0</hdop><vdop>2.5</vdop><extensions><gom:speed>0.155</gom:speed></extensions></trkpt>
   <trkpt lat="59.2932243666" lon="34.6541903947"><ele>158.643</ele><time>2026-08-16T14:33:41.136Z</time><hdop>3.0</hdop><vdop>2.5</vdop><extensions><gom:speed>0.147</gom:speed></extensions></trkpt>
   <trkpt lat="59.2932237799" lon="34.6541870419"><ele>158.771</ele><time>2026-08-16T14:33:41.894Z</time><hdop>3.0</hdop><vdop>2.5</vdop><extensions><gom:speed>0.188</gom:speed></extensions></trkpt>
   <trkpt lat="59.29322466" lon="34.6541769836"><ele>158.727</ele><time>2026-08-16T14:33:43.135Z</time><hdop>3.0</hdop><vdop>2.5</vdop><extensions><gom:speed>0.148</gom:speed></extensions></trkpt>
   <trkpt lat="59.2932244924" lon="34.6541739661"><ele>158.7</ele><time>2026-08-16T14:33:43.769Z</time><hdop>3.0</hdop><vdop>2.5</vdop><extensions><gom:speed>0.169</gom:speed></extensions></trkpt>
   <trkpt lat="59.2932249953" lon="34.6541681826"><ele>158.549</ele><time>2026-08-16T14:33:45.136Z</time><hdop>3.0</hdop><vdop>2.5</vdop><extensions><gom:speed>0.15</gom:speed></extensions></trkpt>
   <trkpt lat="59.2932252886" lon="34.6541618962"><ele>158.492</ele><time>2026-08-16T14:33:46.136Z</time><hdop>3.0</hdop><vdop>2.5</vdop><extensions><gom:speed>0.254</gom:speed></extensions></trkpt>
   <trkpt lat="59.2932240733" lon="34.6541515865"><ele>158.34</ele><time>2026-08-16T14:33:47.136Z</time><hdop>3.0</hdop><vdop>2.5</vdop><extensions><gom:speed>0.401</gom:speed></extensions></trkpt>
   <trkpt lat="59.2932219778" lon="34.6541395165"><ele>158.281</ele><time>2026-08-16T14:33:48.136Z</time><hdop>3.0</hdop><vdop>2.5</vdop><extensions><gom:speed>0.487</gom:speed></extensions></trkpt>
   <trkpt lat="59.2932210977" lon="34.6541262731"><ele>158.23</ele><time>2026-08-16T14:33:49.136Z</time><hdop>3.0</hdop><vdop>2.5</vdop><extensions><gom:speed>0.457</gom:speed></extensions></trkpt>
   <trkpt lat="59.2932207624" lon="34.6541126944"><ele>158.219</ele><time>2026-08-16T14:33:50.136Z</time><hdop>3.0</hdop><vdop>2.5</vdop><extensions><gom:speed>0.49</gom:speed></extensions></trkpt>
   <trkpt lat="59.293219086" lon="34.6540945895"><ele>158.514</ele><time>2026-08-16T14:33:51.135Z</time><hdop>3.0</hdop><vdop>2.5</vdop><extensions><gom:speed>0.723</gom:speed></extensions></trkpt>
   <trkpt lat="59.2932168648" lon="34.6540732995"><ele>158.538</ele><time>2026-08-16T14:33:52.136Z</time><hdop>3.0</hdop><vdop>2.5</vdop><extensions><gom:speed>0.882</gom:speed></extensions></trkpt>
   <trkpt lat="59.2932163619" lon="34.6540546917"><ele>158.752</ele><time>2026-08-16T14:33:53.136Z</time><hdop>3.0</hdop><vdop>2.5</vdop><extensions><gom:speed>0.892</gom:speed></extensions></trkpt>
   <trkpt lat="59.2932169906" lon="34.6540373411"><ele>158.879</ele><time>2026-08-16T14:33:54.134Z</time><hdop>3.0</hdop><vdop>2.5</vdop><extensions><gom:speed>0.826</gom:speed></extensions></trkpt>
   <trkpt lat="59.2932106622" lon="34.6540200744"><ele>158.858</ele><time>2026-08-16T14:33:54.988Z</time><hdop>3.0</hdop><vdop>2.5</vdop><extensions><gom:speed>0.881</gom:speed></extensions></trkpt>
   <trkpt lat="59.2932001848" lon="34.6540073339"><ele>158.95</ele><time>2026-08-16T14:33:55.655Z</time><hdop>3.0</hdop><vdop>2.5</vdop><extensions><gom:speed>0.939</gom:speed></extensions></trkpt>
   <trkpt lat="59.2931927669" lon="34.654000796"><ele>158.86</ele><time>2026-08-16T14:33:56.136Z</time><hdop>3.0</hdop><vdop>2.5</vdop><extensions><gom:speed>0.948</gom:speed></extensions></trkpt>
   <trkpt lat="59.2931847621" lon="34.6539876364"><ele>158.806</ele><time>2026-08-16T14:33:57.010Z</time><hdop>3.0</hdop><vdop>2.5</vdop><extensions><gom:speed>0.974</gom:speed></extensions></trkpt>
   <trkpt lat="59.293175584" lon="34.6539756503"><ele>159.094</ele><time>2026-08-16T14:33:57.893Z</time><hdop>3.0</hdop><vdop>2.5</vdop><extensions><gom:speed>0.994</gom:speed></extensions></trkpt>
   <trkpt lat="59.2931693813" lon="34.6539699506"><ele>159.298</ele><time>2026-08-16T14:33:58.413Z</time><hdop>3.0</hdop><vdop>2.5</vdop><extensions><gom:speed>1.011</gom:speed></extensions></trkpt>
   <trkpt lat="59.2931615862" lon="34.6539642509"><ele>159.311</ele><time>2026-08-16T14:33:59.136Z</time><hdop>3.0</hdop><vdop>2.5</vdop><extensions><gom:speed>1.006</gom:speed></extensions></trkpt>
   <trkpt lat="59.2931530785" lon="34.6539588865"><ele>159.318</ele><time>2026-08-16T14:33:59.915Z</time><hdop>3.0</hdop><vdop>2.5</vdop><extensions><gom:speed>1.021</gom:speed></extensions></trkpt>
   <trkpt lat="59.2931446966" lon="34.6539494988"><ele>159.205</ele><time>2026-08-16T14:34:00.750Z</time><hdop>3.0</hdop><vdop>2.5</vdop><extensions><gom:speed>1.055</gom:speed></extensions></trkpt>
   <trkpt lat="59.2931397932" lon="34.6539421227"><ele>159.37</ele><time>2026-08-16T14:34:01.455Z</time><hdop>3.0</hdop><vdop>2.5</vdop><extensions><gom:speed>0.988</gom:speed></extensions></trkpt>
   <trkpt lat="59.2931368596" lon="34.6539340761"><ele>159.28</ele><time>2026-08-16T14:34:02.136Z</time><hdop>3.0</hdop><vdop>2.5</vdop><extensions><gom:speed>0.976</gom:speed></extensions></trkpt>
   <trkpt lat="59.2931350994" lon="34.6539242692"><ele>159.226</ele><time>2026-08-16T14:34:02.752Z</time><hdop>3.0</hdop><vdop>2.5</vdop><extensions><gom:speed>0.974</gom:speed></extensions></trkpt>
   <trkpt lat="59.2931331715" lon="34.653912786"><ele>159.058</ele><time>2026-08-16T14:34:03.567Z</time><hdop>3.0</hdop><vdop>2.5</vdop><extensions><gom:speed>0.978</gom:speed></extensions></trkpt>
   <trkpt lat="59.2931327943" lon="34.6539022248"><ele>158.957</ele><time>2026-08-16T14:34:04.067Z</time><hdop>3.0</hdop><vdop>2.5</vdop><extensions><gom:speed>1.046</gom:speed></extensions></trkpt>
   <trkpt lat="59.2931322914" lon="34.6538901549"><ele>158.815</ele><time>2026-08-16T14:34:04.891Z</time><hdop>3.0</hdop><vdop>2.5</vdop><extensions><gom:speed>1.011</gom:speed></extensions></trkpt>
   <trkpt lat="59.2931314951" lon="34.6538818568"><ele>158.655</ele><time>2026-08-16T14:34:05.549Z</time><hdop>3.0</hdop><vdop>2.5</vdop><extensions><gom:speed>0.994</gom:speed></extensions></trkpt>
   <trkpt lat="59.2931307827" lon="34.65387205"><ele>158.442</ele><time>2026-08-16T14:34:06.136Z</time><hdop>3.0</hdop><vdop>2.5</vdop><extensions><gom:speed>1.008</gom:speed></extensions></trkpt>
   <trkpt lat="59.2931295673" lon="34.6538593933"><ele>158.315</ele><time>2026-08-16T14:34:06.854Z</time><hdop>3.0</hdop><vdop>2.5</vdop><extensions><gom:speed>1.016</gom:speed></extensions></trkpt>
   <trkpt lat="59.293128771" lon="34.6538470719"><ele>158.275</ele><time>2026-08-16T14:34:07.570Z</time><hdop>3.0</hdop><vdop>2.5</vdop><extensions><gom:speed>1.049</gom:speed></extensions></trkpt>
   <trkpt lat="59.2931302798" lon="34.6538365945"><ele>158.22</ele><time>2026-08-16T14:34:08.136Z</time><hdop>3.0</hdop><vdop>2.5</vdop><extensions><gom:speed>1.019</gom:speed></extensions></trkpt>
   <trkpt lat="59.2931355604" lon="34.6538187411"><ele>158.188</ele><time>2026-08-16T14:34:09.112Z</time><hdop>3.0</hdop><vdop>2.5</vdop><extensions><gom:speed>1.054</gom:speed></extensions></trkpt>
   <trkpt lat="59.2931404638" lon="34.653811365"><ele>158.017</ele><time>2026-08-16T14:34:09.593Z</time><hdop>3.0</hdop><vdop>2.5</vdop><extensions><gom:speed>1.047</gom:speed></extensions></trkpt>
   <trkpt lat="59.2931447805" lon="34.6538036537"><ele>157.994</ele><time>2026-08-16T14:34:10.136Z</time><hdop>3.0</hdop><vdop>2.5</vdop><extensions><gom:speed>1.028</gom:speed></extensions></trkpt>
   <trkpt lat="59.2931499772" lon="34.6537872251"><ele>157.938</ele><time>2026-08-16T14:34:11.136Z</time><hdop>3.0</hdop><vdop>2.5</vdop><extensions><gom:speed>1.006</gom:speed></extensions></trkpt>
   <trkpt lat="59.2931524918" lon="34.6537722215"><ele>157.904</ele><time>2026-08-16T14:34:11.929Z</time><hdop>3.0</hdop><vdop>2.5</vdop><extensions><gom:speed>1.002</gom:speed></extensions></trkpt>
   <trkpt lat="59.2931553836" lon="34.6537635882"><ele>157.821</ele><time>2026-08-16T14:34:12.507Z</time><hdop>3.0</hdop><vdop>2.5</vdop><extensions><gom:speed>1.002</gom:speed></extensions></trkpt>
   <trkpt lat="59.2931583591" lon="34.6537535299"><ele>157.634</ele><time>2026-08-16T14:34:13.136Z</time><hdop>3.0</hdop><vdop>2.5</vdop><extensions><gom:speed>1.0</gom:speed></extensions></trkpt>
   <trkpt lat="59.2931611671" lon="34.6537421305"><ele>157.522</ele><time>2026-08-16T14:34:13.814Z</time><hdop>3.0</hdop><vdop>2.5</vdop><extensions><gom:speed>1.007</gom:speed></extensions></trkpt>
   <trkpt lat="59.2931644779" lon="34.6537221816"><ele>157.758</ele><time>2026-08-16T14:34:14.874Z</time><hdop>3.0</hdop><vdop>2.5</vdop><extensions><gom:speed>1.064</gom:speed></extensions></trkpt>
   <trkpt lat="59.2931653999" lon="34.6537054177"><ele>157.989</ele><time>2026-08-16T14:34:15.954Z</time><hdop>3.0</hdop><vdop>2.5</vdop><extensions><gom:speed>0.965</gom:speed></extensions></trkpt>
   <trkpt lat="59.2931656933" lon="34.6536893245"><ele>158.512</ele><time>2026-08-16T14:34:16.916Z</time><hdop>3.0</hdop><vdop>2.5</vdop><extensions><gom:speed>0.977</gom:speed></extensions></trkpt>
   <trkpt lat="59.2931697585" lon="34.653678428"><ele>158.641</ele><time>2026-08-16T14:34:17.711Z</time><hdop>3.0</hdop><vdop>2.5</vdop><extensions><gom:speed>0.956</gom:speed></extensions></trkpt>
   <trkpt lat="59.2931743686" lon="34.6536661904"><ele>158.788</ele><time>2026-08-16T14:34:18.516Z</time><hdop>3.0</hdop><vdop>2.5</vdop><extensions><gom:speed>0.962</gom:speed></extensions></trkpt>
   <trkpt lat="59.2931772603" lon="34.6536567189"><ele>158.689</ele><time>2026-08-16T14:34:19.136Z</time><hdop>3.0</hdop><vdop>2.5</vdop><extensions><gom:speed>0.855</gom:speed></extensions></trkpt>
   <trkpt lat="59.2931798587" lon="34.6536431402"><ele>158.601</ele><time>2026-08-16T14:34:20.136Z</time><hdop>3.0</hdop><vdop>2.5</vdop><extensions><gom:speed>0.734</gom:speed></extensions></trkpt>
   <trkpt lat="59.2931794815" lon="34.6536322437"><ele>158.548</ele><time>2026-08-16T14:34:20.891Z</time><hdop>3.0</hdop><vdop>2.5</vdop><extensions><gom:speed>0.718</gom:speed></extensions></trkpt>
   <trkpt lat="59.2931793977" lon="34.6536172401"><ele>158.428</ele><time>2026-08-16T14:34:21.755Z</time><hdop>3.0</hdop><vdop>2.5</vdop><extensions><gom:speed>0.784</gom:speed></extensions></trkpt>
   <trkpt lat="59.2931776794" lon="34.6536054216"><ele>158.443</ele><time>2026-08-16T14:34:22.432Z</time><hdop>3.0</hdop><vdop>2.5</vdop><extensions><gom:speed>0.858</gom:speed></extensions></trkpt>
   <trkpt lat="59.2931749972" lon="34.6535958663"><ele>158.519</ele><time>2026-08-16T14:34:23.136Z</time><hdop>3.0</hdop><vdop>2.5</vdop><extensions><gom:speed>0.874</gom:speed></extensions></trkpt>
   <trkpt lat="59.2931714768" lon="34.6535877358"><ele>158.565</ele><time>2026-08-16T14:34:23.747Z</time><hdop>3.0</hdop><vdop>2.5</vdop><extensions><gom:speed>0.878</gom:speed></extensions></trkpt>
   <trkpt lat="59.2931682917" lon="34.6535752468"><ele>158.593</ele><time>2026-08-16T14:34:24.631Z</time><hdop>3.0</hdop><vdop>2.5</vdop><extensions><gom:speed>0.889</gom:speed></extensions></trkpt>
   <trkpt lat="59.2931671601" lon="34.6535681222"><ele>158.529</ele><time>2026-08-16T14:34:25.136Z</time><hdop>3.0</hdop><vdop>2.5</vdop><extensions><gom:speed>0.933</gom:speed></extensions></trkpt>
   <trkpt lat="59.2931653999" lon="34.6535546273"><ele>158.32</ele><time>2026-08-16T14:34:26.136Z</time><hdop>3.0</hdop><vdop>2.5</vdop><extensions><gom:speed>0.92</gom:speed></extensions></trkpt>
   <trkpt lat="59.2931632626" lon="34.6535457425"><ele>158.196</ele><time>2026-08-16T14:34:26.772Z</time><hdop>3.0</hdop><vdop>2.5</vdop><extensions><gom:speed>0.903</gom:speed></extensions></trkpt>
   <trkpt lat="59.2931601613" lon="34.6535423897"><ele>158.186</ele><time>2026-08-16T14:34:27.547Z</time><hdop>3.0</hdop><vdop>2.5</vdop><extensions><gom:speed>0.814</gom:speed></extensions></trkpt>
   <trkpt lat="59.2931571857" lon="34.6535370253"><ele>158.18</ele><time>2026-08-16T14:34:28.048Z</time><hdop>3.0</hdop><vdop>2.5</vdop><extensions><gom:speed>0.852</gom:speed></extensions></trkpt>
   <trkpt lat="59.2931548807" lon="34.6535262965"><ele>158.25</ele><time>2026-08-16T14:34:28.950Z</time><hdop>3.0</hdop><vdop>2.5</vdop><extensions><gom:speed>0.857</gom:speed></extensions></trkpt>
   <trkpt lat="59.2931549645" lon="34.6535186689"><ele>158.287</ele><time>2026-08-16T14:34:29.510Z</time><hdop>3.0</hdop><vdop>2.5</vdop><extensions><gom:speed>0.897</gom:speed></extensions></trkpt>
   <trkpt lat="59.2931544616" lon="34.6535099518"><ele>158.202</ele><time>2026-08-16T14:34:30.136Z</time><hdop>3.0</hdop><vdop>2.5</vdop><extensions><gom:speed>0.891</gom:speed></extensions></trkpt>
   <trkpt lat="59.2931549645" lon="34.6534943614"><ele>158.151</ele><time>2026-08-16T14:34:31.071Z</time><hdop>3.0</hdop><vdop>2.5</vdop><extensions><gom:speed>0.883</gom:speed></extensions></trkpt>
   <trkpt lat="59.2931578981" lon="34.6534854766"><ele>158.298</ele><time>2026-08-16T14:34:31.748Z</time><hdop>3.0</hdop><vdop>2.5</vdop><extensions><gom:speed>0.866</gom:speed></extensions></trkpt>
   <trkpt lat="59.2931622986" lon="34.6534769271"><ele>158.465</ele><time>2026-08-16T14:34:32.435Z</time><hdop>3.0</hdop><vdop>2.5</vdop><extensions><gom:speed>0.882</gom:speed></extensions></trkpt>
   <trkpt lat="59.2931669925" lon="34.6534688804"><ele>158.273</ele><time>2026-08-16T14:34:33.136Z</time><hdop>3.0</hdop><vdop>2.5</vdop><extensions><gom:speed>0.863</gom:speed></extensions></trkpt>
   <trkpt lat="59.2931708901" lon="34.6534609176"><ele>158.159</ele><time>2026-08-16T14:34:33.749Z</time><hdop>3.0</hdop><vdop>2.5</vdop><extensions><gom:speed>0.854</gom:speed></extensions></trkpt>
   <trkpt lat="59.293175584" lon="34.6534497697"><ele>158.136</ele><time>2026-08-16T14:34:34.574Z</time><hdop>3.0</hdop><vdop>2.5</vdop><extensions><gom:speed>0.882</gom:speed></extensions></trkpt>
   <trkpt lat="59.2931771765" lon="34.6534420583"><ele>158.15</ele><time>2026-08-16T14:34:35.136Z</time><hdop>3.0</hdop><vdop>2.5</vdop><extensions><gom:speed>0.902</gom:speed></extensions></trkpt>
   <trkpt lat="59.2931776794" lon="34.6534281444"><ele>158.158</ele><time>2026-08-16T14:34:35.969Z</time><hdop>3.0</hdop><vdop>2.5</vdop><extensions><gom:speed>0.933</gom:speed></extensions></trkpt>
   <trkpt lat="59.2931785595" lon="34.6534194272"><ele>158.037</ele><time>2026-08-16T14:34:36.469Z</time><hdop>3.0</hdop><vdop>2.5</vdop><extensions><gom:speed>1.004</gom:speed></extensions></trkpt>
   <trkpt lat="59.2931797749" lon="34.6534092851"><ele>158.054</ele><time>2026-08-16T14:34:37.136Z</time><hdop>3.0</hdop><vdop>2.562</vdop><extensions><gom:speed>1.007</gom:speed></extensions></trkpt>
   <trkpt lat="59.2931850974" lon="34.6533969637"><ele>158.271</ele><time>2026-08-16T14:34:38.135Z</time><hdop>3.0</hdop><vdop>2.562</vdop><extensions><gom:speed>0.942</gom:speed></extensions></trkpt>
   <trkpt lat="59.2931897913" lon="34.6533821277"><ele>158.401</ele><time>2026-08-16T14:34:39.110Z</time><hdop>3.0</hdop><vdop>2.562</vdop><extensions><gom:speed>0.992</gom:speed></extensions></trkpt>
   <trkpt lat="59.2931908809" lon="34.65336813"><ele>158.637</ele><time>2026-08-16T14:34:39.836Z</time><hdop>3.0</hdop><vdop>2.625</vdop><extensions><gom:speed>1.003</gom:speed></extensions></trkpt>
   <trkpt lat="59.2931897913" lon="34.6533558924"><ele>158.503</ele><time>2026-08-16T14:34:40.670Z</time><hdop>3.0</hdop><vdop>2.5</vdop><extensions><gom:speed>0.906</gom:speed></extensions></trkpt>
   <trkpt lat="59.293188995" lon="34.6533511985"><ele>158.307</ele><time>2026-08-16T14:34:41.136Z</time><hdop>3.0</hdop><vdop>2.5</vdop><extensions><gom:speed>0.824</gom:speed></extensions></trkpt>
   <trkpt lat="59.2931886597" lon="34.6533422299"><ele>157.987</ele><time>2026-08-16T14:34:42.136Z</time><hdop>3.0</hdop><vdop>2.5</vdop><extensions><gom:speed>0.681</gom:speed></extensions></trkpt>
   <trkpt lat="59.2931901685" lon="34.6533326745"><ele>157.796</ele><time>2026-08-16T14:34:43.016Z</time><hdop>3.0</hdop><vdop>2.5</vdop><extensions><gom:speed>0.743</gom:speed></extensions></trkpt>
   <trkpt lat="59.2931916772" lon="34.6533216942"><ele>157.692</ele><time>2026-08-16T14:34:43.909Z</time><hdop>3.0</hdop><vdop>2.5</vdop><extensions><gom:speed>0.765</gom:speed></extensions></trkpt>
   <trkpt lat="59.2931896656" lon="34.6533115521"><ele>157.457</ele><time>2026-08-16T14:34:44.832Z</time><hdop>3.0</hdop><vdop>2.75</vdop><extensions><gom:speed>0.749</gom:speed></extensions></trkpt>
   <trkpt lat="59.2931842592" lon="34.653308367"><ele>157.57</ele><time>2026-08-16T14:34:45.568Z</time><hdop>3.0</hdop><vdop>2.75</vdop><extensions><gom:speed>0.827</gom:speed></extensions></trkpt>
   <trkpt lat="59.2931789786" lon="34.6533084508"><ele>157.639</ele><time>2026-08-16T14:34:46.136Z</time><hdop>3.0</hdop><vdop>2.625</vdop><extensions><gom:speed>0.841</gom:speed></extensions></trkpt>
   <trkpt lat="59.2931726922" lon="34.6533077803"><ele>157.68</ele><time>2026-08-16T14:34:46.854Z</time><hdop>3.0</hdop><vdop>2.625</vdop><extensions><gom:speed>0.848</gom:speed></extensions></trkpt>
   <trkpt lat="59.2931634721" lon="34.6533099596"><ele>157.812</ele><time>2026-08-16T14:34:47.708Z</time><hdop>3.0</hdop><vdop>2.687</vdop><extensions><gom:speed>0.925</gom:speed></extensions></trkpt>
   <trkpt lat="59.2931561799" lon="34.6533125579"><ele>158.241</ele><time>2026-08-16T14:34:48.248Z</time><hdop>3.0</hdop><vdop>2.5</vdop><extensions><gom:speed>0.989</gom:speed></extensions></trkpt>
   <trkpt lat="59.2931475884" lon="34.6533095405"><ele>158.623</ele><time>2026-08-16T14:34:49.136Z</time><hdop>3.0</hdop><vdop>2.5</vdop><extensions><gom:speed>0.929</gom:speed></extensions></trkpt>
   <trkpt lat="59.293142685" lon="34.6532978896"><ele>158.851</ele><time>2026-08-16T14:34:49.947Z</time><hdop>3.0</hdop><vdop>2.5</vdop><extensions><gom:speed>0.926</gom:speed></extensions></trkpt>
   <trkpt lat="59.293138494" lon="34.6532868255"><ele>159.115</ele><time>2026-08-16T14:34:50.870Z</time><hdop>3.0</hdop><vdop>2.5</vdop><extensions><gom:speed>0.84</gom:speed></extensions></trkpt>
   <trkpt lat="59.2931353927" lon="34.6532803714"><ele>159.111</ele><time>2026-08-16T14:34:51.468Z</time><hdop>3.0</hdop><vdop>2.5</vdop><extensions><gom:speed>0.851</gom:speed></extensions></trkpt>
   <trkpt lat="59.2931324591" lon="34.6532753423"><ele>158.842</ele><time>2026-08-16T14:34:52.136Z</time><hdop>3.0</hdop><vdop>2.5</vdop><extensions><gom:speed>0.809</gom:speed></extensions></trkpt>
   <trkpt lat="59.2931289806" lon="34.6532721572"><ele>158.681</ele><time>2026-08-16T14:34:52.627Z</time><hdop>3.0</hdop><vdop>2.5</vdop><extensions><gom:speed>0.811</gom:speed></extensions></trkpt>
   <trkpt lat="59.2931259631" lon="34.6532727439"><ele>158.51</ele><time>2026-08-16T14:34:53.136Z</time><hdop>3.0</hdop><vdop>2.5</vdop><extensions><gom:speed>0.858</gom:speed></extensions></trkpt>
   <trkpt lat="59.2931202634" lon="34.6532693911"><ele>158.515</ele><time>2026-08-16T14:34:54.136Z</time><hdop>3.0</hdop><vdop>2.5</vdop><extensions><gom:speed>0.876</gom:speed></extensions></trkpt>
   <trkpt lat="59.2931175812" lon="34.6532603387"><ele>158.518</ele><time>2026-08-16T14:34:54.855Z</time><hdop>3.0</hdop><vdop>2.5</vdop><extensions><gom:speed>0.894</gom:speed></extensions></trkpt>
   <trkpt lat="59.2931144799" lon="34.6532529626"><ele>158.53</ele><time>2026-08-16T14:34:55.669Z</time><hdop>3.0</hdop><vdop>2.5</vdop><extensions><gom:speed>0.919</gom:speed></extensions></trkpt>
   <trkpt lat="59.2931121749" lon="34.6532501966"><ele>158.717</ele><time>2026-08-16T14:34:56.136Z</time><hdop>3.0</hdop><vdop>2.5</vdop><extensions><gom:speed>0.946</gom:speed></extensions></trkpt>
   <trkpt lat="59.2931052598" lon="34.6532435749"><ele>158.965</ele><time>2026-08-16T14:34:57.136Z</time><hdop>3.0</hdop><vdop>2.5</vdop><extensions><gom:speed>0.926</gom:speed></extensions></trkpt>
   <trkpt lat="59.29309868" lon="34.653240725"><ele>159.113</ele><time>2026-08-16T14:34:57.888Z</time><hdop>3.0</hdop><vdop>2.5</vdop><extensions><gom:speed>0.922</gom:speed></extensions></trkpt>
   <trkpt lat="59.2930905915" lon="34.6532402221"><ele>159.054</ele><time>2026-08-16T14:34:58.810Z</time><hdop>3.0</hdop><vdop>2.5</vdop><extensions><gom:speed>0.917</gom:speed></extensions></trkpt>
   <trkpt lat="59.2930821676" lon="34.6532368694"><ele>158.849</ele><time>2026-08-16T14:34:59.988Z</time><hdop>3.0</hdop><vdop>2.5</vdop><extensions><gom:speed>0.841</gom:speed></extensions></trkpt>
   <trkpt lat="59.2930790663" lon="34.653235193"><ele>158.839</ele><time>2026-08-16T14:35:00.655Z</time><hdop>3.0</hdop><vdop>2.5</vdop><extensions><gom:speed>0.813</gom:speed></extensions></trkpt>
   <trkpt lat="59.2930766775" lon="34.6532329299"><ele>158.84</ele><time>2026-08-16T14:35:01.136Z</time><hdop>3.0</hdop><vdop>2.5</vdop><extensions><gom:speed>0.826</gom:speed></extensions></trkpt>
   <trkpt lat="59.2930704749" lon="34.6532250509"><ele>158.841</ele><time>2026-08-16T14:35:02.128Z</time><hdop>3.0</hdop><vdop>2.5</vdop><extensions><gom:speed>0.825</gom:speed></extensions></trkpt>
   <trkpt lat="59.2930660744" lon="34.653220357"><ele>159.005</ele><time>2026-08-16T14:35:03.090Z</time><hdop>3.0</hdop><vdop>2.5</vdop><extensions><gom:speed>0.773</gom:speed></extensions></trkpt>
   <trkpt lat="59.2930633922" lon="34.6532167528"><ele>158.891</ele><time>2026-08-16T14:35:03.787Z</time><hdop>3.0</hdop><vdop>2.5</vdop><extensions><gom:speed>0.769</gom:speed></extensions></trkpt>
   <trkpt lat="59.2930614643" lon="34.6532123942"><ele>158.68</ele><time>2026-08-16T14:35:04.356Z</time><hdop>3.0</hdop><vdop>2.5</vdop><extensions><gom:speed>0.766</gom:speed></extensions></trkpt>
   <trkpt lat="59.2930591593" lon="34.6532047667"><ele>158.534</ele><time>2026-08-16T14:35:05.136Z</time><hdop>3.0</hdop><vdop>2.5</vdop><extensions><gom:speed>0.772</gom:speed></extensions></trkpt>
   <trkpt lat="59.2930564771" lon="34.6531956304"><ele>158.446</ele><time>2026-08-16T14:35:05.888Z</time><hdop>3.0</hdop><vdop>2.5</vdop><extensions><gom:speed>0.766</gom:speed></extensions></trkpt>
   <trkpt lat="59.2930534596" lon="34.6531859912"><ele>158.575</ele><time>2026-08-16T14:35:06.674Z</time><hdop>3.0</hdop><vdop>2.5</vdop><extensions><gom:speed>0.808</gom:speed></extensions></trkpt>
   <trkpt lat="59.2930507774" lon="34.6531816326"><ele>158.615</ele><time>2026-08-16T14:35:07.136Z</time><hdop>3.0</hdop><vdop>2.5</vdop><extensions><gom:speed>0.809</gom:speed></extensions></trkpt>
   <trkpt lat="59.2930445748" lon="34.6531761844"><ele>158.638</ele><time>2026-08-16T14:35:07.989Z</time><hdop>3.0</hdop><vdop>2.5</vdop><extensions><gom:speed>0.809</gom:speed></extensions></trkpt>
   <trkpt lat="59.2930394618" lon="34.6531701494"><ele>158.663</ele><time>2026-08-16T14:35:08.676Z</time><hdop>3.0</hdop><vdop>2.5</vdop><extensions><gom:speed>0.823</gom:speed></extensions></trkpt>
   <trkpt lat="59.2930372826" lon="34.6531631924"><ele>158.632</ele><time>2026-08-16T14:35:09.136Z</time><hdop>3.0</hdop><vdop>2.5</vdop><extensions><gom:speed>0.815</gom:speed></extensions></trkpt>
   <trkpt lat="59.2930345584" lon="34.6531503681"><ele>158.614</ele><time>2026-08-16T14:35:09.932Z</time><hdop>3.0</hdop><vdop>2.5</vdop><extensions><gom:speed>0.814</gom:speed></extensions></trkpt>
   <trkpt lat="59.2930322953" lon="34.6531342749"><ele>158.895</ele><time>2026-08-16T14:35:10.795Z</time><hdop>3.0</hdop><vdop>2.5</vdop><extensions><gom:speed>0.871</gom:speed></extensions></trkpt>
   <trkpt lat="59.2930276853" lon="34.6531174272"><ele>158.974</ele><time>2026-08-16T14:35:11.856Z</time><hdop>3.0</hdop><vdop>2.5</vdop><extensions><gom:speed>0.883</gom:speed></extensions></trkpt>
   <trkpt lat="59.2930222789" lon="34.6531017531"><ele>158.917</ele><time>2026-08-16T14:35:13.073Z</time><hdop>3.0</hdop><vdop>2.5</vdop><extensions><gom:speed>0.829</gom:speed></extensions></trkpt>
   <trkpt lat="59.2930191776" lon="34.653092533"><ele>158.809</ele><time>2026-08-16T14:35:14.136Z</time><hdop>3.0</hdop><vdop>2.5</vdop><extensions><gom:speed>0.704</gom:speed></extensions></trkpt>
   <trkpt lat="59.2930186747" lon="34.6530920301"><ele>158.537</ele><time>2026-08-16T14:35:15.136Z</time><hdop>3.0</hdop><vdop>2.5</vdop><extensions><gom:speed>0.333</gom:speed></extensions></trkpt>
   <trkpt lat="59.2930215665" lon="34.6530938741"><ele>158.375</ele><time>2026-08-16T14:35:16.136Z</time><hdop>3.0</hdop><vdop>2.5</vdop><extensions><gom:speed>0.128</gom:speed></extensions></trkpt>
   <trkpt lat="59.2930239972" lon="34.6530968916"><ele>158.279</ele><time>2026-08-16T14:35:17.136Z</time><hdop>3.0</hdop><vdop>2.5</vdop><extensions><gom:speed>0.084</gom:speed></extensions></trkpt>
   <trkpt lat="59.2930257993" lon="34.653098065"><ele>158.23</ele><time>2026-08-16T14:35:18.136Z</time><hdop>3.0</hdop><vdop>2.5</vdop><extensions><gom:speed>0.066</gom:speed></extensions></trkpt>
   <trkpt lat="59.2930266794" lon="34.6530988194"><ele>158.182</ele><time>2026-08-16T14:35:19.136Z</time><hdop>3.0</hdop><vdop>2.5</vdop><extensions><gom:speed>0.023</gom:speed></extensions></trkpt>
   <trkpt lat="59.2930267633" lon="34.6530992385"><ele>158.153</ele><time>2026-08-16T14:35:19.836Z</time><hdop>3.0</hdop><vdop>2.5</vdop><extensions><gom:speed>0.116</gom:speed></extensions></trkpt>
   <trkpt lat="59.2930276853" lon="34.6531025913"><ele>158.168</ele><time>2026-08-16T14:35:21.136Z</time><hdop>3.0</hdop><vdop>2.5</vdop><extensions><gom:speed>0.088</gom:speed></extensions></trkpt>
   <trkpt lat="59.2930273919" lon="34.6531029265"><ele>158.176</ele><time>2026-08-16T14:35:21.593Z</time><hdop>3.0</hdop><vdop>2.5</vdop><extensions><gom:speed>0.109</gom:speed></extensions></trkpt>
   <trkpt lat="59.2930276853" lon="34.6531033456"><ele>158.2</ele><time>2026-08-16T14:35:22.136Z</time><hdop>3.0</hdop><vdop>2.5</vdop><extensions><gom:speed>0.086</gom:speed></extensions></trkpt>
   <trkpt lat="59.2930254641" lon="34.6531033456"><ele>158.839</ele><time>2026-08-16T14:35:23.136Z</time><hdop>3.0</hdop><vdop>2.5</vdop><extensions><gom:speed>0.269</gom:speed></extensions></trkpt>
   <trkpt lat="59.2930216922" lon="34.6531018369"><ele>159.245</ele><time>2026-08-16T14:35:24.136Z</time><hdop>3.0</hdop><vdop>2.5</vdop><extensions><gom:speed>0.184</gom:speed></extensions></trkpt>
   <trkpt lat="59.2930195967" lon="34.6530983165"><ele>159.496</ele><time>2026-08-16T14:35:25.136Z</time><hdop>3.0</hdop><vdop>2.5</vdop><extensions><gom:speed>0.161</gom:speed></extensions></trkpt>
   <trkpt lat="59.293018088" lon="34.6530968916"><ele>159.646</ele><time>2026-08-16T14:35:25.951Z</time><hdop>3.0</hdop><vdop>2.5</vdop><extensions><gom:speed>0.177</gom:speed></extensions></trkpt>
   <trkpt lat="59.2930181718" lon="34.6530942932"><ele>159.723</ele><time>2026-08-16T14:35:26.589Z</time><hdop>3.0</hdop><vdop>2.5</vdop><extensions><gom:speed>0.124</gom:speed></extensions></trkpt>
   <trkpt lat="59.2930183814" lon="34.653092533"><ele>159.774</ele><time>2026-08-16T14:35:27.136Z</time><hdop>3.0</hdop><vdop>2.5</vdop><extensions><gom:speed>0.077</gom:speed></extensions></trkpt>
   <trkpt lat="59.2930178784" lon="34.6530903537"><ele>159.848</ele><time>2026-08-16T14:35:28.136Z</time><hdop>3.0</hdop><vdop>2.5</vdop><extensions><gom:speed>0.085</gom:speed></extensions></trkpt>
   <trkpt lat="59.2930175851" lon="34.6530888449"><ele>159.943</ele><time>2026-08-16T14:35:29.136Z</time><hdop>3.0</hdop><vdop>2.5</vdop><extensions><gom:speed>0.083</gom:speed></extensions></trkpt>
   <trkpt lat="59.293017166" lon="34.653086498"><ele>160.086</ele><time>2026-08-16T14:35:30.136Z</time><hdop>3.0</hdop><vdop>2.5</vdop><extensions><gom:speed>0.121</gom:speed></extensions></trkpt>
   <trkpt lat="59.2930167888" lon="34.6530836482"><ele>160.192</ele><time>2026-08-16T14:35:31.136Z</time><hdop>3.0</hdop><vdop>2.5</vdop><extensions><gom:speed>0.125</gom:speed></extensions></trkpt>
   <trkpt lat="59.2930158668" lon="34.6530813851"><ele>160.269</ele><time>2026-08-16T14:35:32.136Z</time><hdop>3.0</hdop><vdop>2.5</vdop><extensions><gom:speed>0.112</gom:speed></extensions></trkpt>
   <trkpt lat="59.2930151962" lon="34.6530792896"><ele>160.198</ele><time>2026-08-16T14:35:33.136Z</time><hdop>3.0</hdop><vdop>2.5</vdop><extensions><gom:speed>0.108</gom:speed></extensions></trkpt>
   <trkpt lat="59.2930151962" lon="34.6530763559"><ele>160.215</ele><time>2026-08-16T14:35:34.136Z</time><hdop>3.0</hdop><vdop>2.5</vdop><extensions><gom:speed>0.058</gom:speed></extensions></trkpt>
   <trkpt lat="59.2930153639" lon="34.6530729193"><ele>160.182</ele><time>2026-08-16T14:35:35.136Z</time><hdop>3.0</hdop><vdop>2.5</vdop><extensions><gom:speed>0.049</gom:speed></extensions></trkpt>
   <trkpt lat="59.2930144838" lon="34.653069818"><ele>160.148</ele><time>2026-08-16T14:35:36.136Z</time><hdop>3.0</hdop><vdop>2.5</vdop><extensions><gom:speed>0.049</gom:speed></extensions></trkpt>
   <trkpt lat="59.293014358" lon="34.6530673873"><ele>160.141</ele><time>2026-08-16T14:35:37.136Z</time><hdop>3.0</hdop><vdop>2.5</vdop><extensions><gom:speed>0.07</gom:speed></extensions></trkpt>
   <trkpt lat="59.2930139809" lon="34.6530666329"><ele>160.137</ele><time>2026-08-16T14:35:37.848Z</time><hdop>3.0</hdop><vdop>2.5</vdop><extensions><gom:speed>0.113</gom:speed></extensions></trkpt>
   <trkpt lat="59.2930142742" lon="34.6530697342"><ele>160.176</ele><time>2026-08-16T14:35:39.136Z</time><hdop>3.0</hdop><vdop>2.5</vdop><extensions><gom:speed>0.139</gom:speed></extensions></trkpt>
   <trkpt lat="59.2930140647" lon="34.6530720811"><ele>160.2</ele><time>2026-08-16T14:35:40.047Z</time><hdop>3.0</hdop><vdop>2.5</vdop><extensions><gom:speed>0.096</gom:speed></extensions></trkpt>
   <trkpt lat="59.2930135618" lon="34.6530777808"><ele>159.921</ele><time>2026-08-16T14:35:40.636Z</time><hdop>3.0</hdop><vdop>2.5</vdop><extensions><gom:speed>0.188</gom:speed></extensions></trkpt>
   <trkpt lat="59.2930121788" lon="34.6530835644"><ele>159.35</ele><time>2026-08-16T14:35:41.136Z</time><hdop>3.0</hdop><vdop>2.5</vdop><extensions><gom:speed>0.24</gom:speed></extensions></trkpt>
   <trkpt lat="59.2930111729" lon="34.6530890964"><ele>159.009</ele><time>2026-08-16T14:35:41.932Z</time><hdop>3.0</hdop><vdop>2.5</vdop><extensions><gom:speed>0.262</gom:speed></extensions></trkpt>
   <trkpt lat="59.2930000669" lon="34.6531034295"><ele>158.398</ele><time>2026-08-16T14:35:42.707Z</time><hdop>3.0</hdop><vdop>2.5</vdop><extensions><gom:speed>0.886</gom:speed></extensions></trkpt>
   <trkpt lat="59.2929815848" lon="34.6531150803"><ele>157.634</ele><time>2026-08-16T14:35:43.875Z</time><hdop>3.125</hdop><vdop>2.5</vdop><extensions><gom:speed>1.101</gom:speed></extensions></trkpt>
   <trkpt lat="59.2929780644" lon="34.6531199418"><ele>157.193</ele><time>2026-08-16T14:35:44.552Z</time><hdop>3.187</hdop><vdop>2.5</vdop><extensions><gom:speed>1.052</gom:speed></extensions></trkpt>
   <trkpt lat="59.2929783997" lon="34.6531294972"><ele>156.972</ele><time>2026-08-16T14:35:45.136Z</time><hdop>3.187</hdop><vdop>2.5</vdop><extensions><gom:speed>1.012</gom:speed></extensions></trkpt>
   <trkpt lat="59.2929761785" lon="34.6531438302"><ele>156.841</ele><time>2026-08-16T14:35:45.956Z</time><hdop>3.187</hdop><vdop>2.5</vdop><extensions><gom:speed>1.014</gom:speed></extensions></trkpt>
   <trkpt lat="59.2929788607" lon="34.6531609293"><ele>156.622</ele><time>2026-08-16T14:35:46.672Z</time><hdop>3.187</hdop><vdop>2.5</vdop><extensions><gom:speed>1.012</gom:speed></extensions></trkpt>
   <trkpt lat="59.292980579" lon="34.6531719934"><ele>156.702</ele><time>2026-08-16T14:35:47.136Z</time><hdop>3.187</hdop><vdop>2.5</vdop><extensions><gom:speed>1.018</gom:speed></extensions></trkpt>
   <trkpt lat="59.292978274" lon="34.653187919"><ele>156.75</ele><time>2026-08-16T14:35:48.007Z</time><hdop>3.187</hdop><vdop>2.5</vdop><extensions><gom:speed>1.039</gom:speed></extensions></trkpt>
   <trkpt lat="59.2929783997" lon="34.6531985641"><ele>156.608</ele><time>2026-08-16T14:35:48.547Z</time><hdop>3.062</hdop><vdop>2.5</vdop><extensions><gom:speed>1.026</gom:speed></extensions></trkpt>
   <trkpt lat="59.2929800761" lon="34.6532119751"><ele>156.365</ele><time>2026-08-16T14:35:49.136Z</time><hdop>3.062</hdop><vdop>2.5</vdop><extensions><gom:speed>0.949</gom:speed></extensions></trkpt>
   <trkpt lat="59.2929835965" lon="34.6532297447"><ele>156.219</ele><time>2026-08-16T14:35:49.931Z</time><hdop>3.0</hdop><vdop>2.5</vdop><extensions><gom:speed>0.963</gom:speed></extensions></trkpt>
   <trkpt lat="59.2929970913" lon="34.6532576565"><ele>157.758</ele><time>2026-08-16T14:35:50.707Z</time><hdop>3.0</hdop><vdop>2.5</vdop><extensions><gom:speed>0.961</gom:speed></extensions></trkpt>
   <trkpt lat="59.2930077783" lon="34.6532802876"><ele>158.671</ele><time>2026-08-16T14:35:51.207Z</time><hdop>3.0</hdop><vdop>2.5</vdop><extensions><gom:speed>0.929</gom:speed></extensions></trkpt>
   <trkpt lat="59.2930098737" lon="34.6532973867"><ele>159.216</ele><time>2026-08-16T14:35:51.973Z</time><hdop>3.0</hdop><vdop>2.5</vdop><extensions><gom:speed>0.921</gom:speed></extensions></trkpt>
   <trkpt lat="59.2930121788" lon="34.6533211913"><ele>159.683</ele><time>2026-08-16T14:35:52.591Z</time><hdop>3.0</hdop><vdop>2.5</vdop><extensions><gom:speed>0.927</gom:speed></extensions></trkpt>
   <trkpt lat="59.2930109634" lon="34.6533362787"><ele>160.005</ele><time>2026-08-16T14:35:53.136Z</time><hdop>3.0</hdop><vdop>2.5</vdop><extensions><gom:speed>0.896</gom:speed></extensions></trkpt>
   <trkpt lat="59.2930073592" lon="34.6533487678"><ele>160.198</ele><time>2026-08-16T14:35:53.808Z</time><hdop>3.0</hdop><vdop>2.5</vdop><extensions><gom:speed>0.895</gom:speed></extensions></trkpt>
   <trkpt lat="59.2929996897" lon="34.6533635199"><ele>160.385</ele><time>2026-08-16T14:35:54.633Z</time><hdop>3.0</hdop><vdop>2.5</vdop><extensions><gom:speed>0.962</gom:speed></extensions></trkpt>
   <trkpt lat="59.2929957921" lon="34.6533710636"><ele>160.522</ele><time>2026-08-16T14:35:55.136Z</time><hdop>3.0</hdop><vdop>2.5</vdop><extensions><gom:speed>0.844</gom:speed></extensions></trkpt>
   <trkpt lat="59.2929885837" lon="34.6533783559"><ele>160.604</ele><time>2026-08-16T14:35:55.987Z</time><hdop>3.0</hdop><vdop>2.5</vdop><extensions><gom:speed>0.922</gom:speed></extensions></trkpt>
   <trkpt lat="59.292984267" lon="34.6533780206"><ele>160.594</ele><time>2026-08-16T14:35:56.851Z</time><hdop>3.0</hdop><vdop>2.5</vdop><extensions><gom:speed>0.718</gom:speed></extensions></trkpt>
   <trkpt lat="59.2929730772" lon="34.6533686329"><ele>160.595</ele><time>2026-08-16T14:35:57.793Z</time><hdop>3.0</hdop><vdop>2.5</vdop><extensions><gom:speed>1.03</gom:speed></extensions></trkpt>
   <trkpt lat="59.2929667907" lon="34.6533567306"><ele>160.488</ele><time>2026-08-16T14:35:58.608Z</time><hdop>3.0</hdop><vdop>2.5</vdop><extensions><gom:speed>0.958</gom:speed></extensions></trkpt>
   <trkpt lat="59.2929634799" lon="34.6533488516"><ele>160.419</ele><time>2026-08-16T14:35:59.136Z</time><hdop>3.0</hdop><vdop>2.5</vdop><extensions><gom:speed>0.938</gom:speed></extensions></trkpt>
   <trkpt lat="59.2929589956" lon="34.6533405535"><ele>160.379</ele><time>2026-08-16T14:35:59.776Z</time><hdop>3.0</hdop><vdop>2.5</vdop><extensions><gom:speed>0.94</gom:speed></extensions></trkpt>
   <trkpt lat="59.2929470933" lon="34.6533256337"><ele>160.635</ele><time>2026-08-16T14:36:01.072Z</time><hdop>3.0</hdop><vdop>2.5</vdop><extensions><gom:speed>0.983</gom:speed></extensions></trkpt>
   <trkpt lat="59.2929389628" lon="34.6533212751"><ele>160.518</ele><time>2026-08-16T14:36:01.955Z</time><hdop>3.0</hdop><vdop>2.5</vdop><extensions><gom:speed>0.944</gom:speed></extensions></trkpt>
   <trkpt lat="59.2929336822" lon="34.6533151563"><ele>160.533</ele><time>2026-08-16T14:36:02.456Z</time><hdop>3.0</hdop><vdop>2.5</vdop><extensions><gom:speed>0.987</gom:speed></extensions></trkpt>
   <trkpt lat="59.2929274796" lon="34.6533080317"><ele>160.493</ele><time>2026-08-16T14:36:03.136Z</time><hdop>3.0</hdop><vdop>2.5</vdop><extensions><gom:speed>0.943</gom:speed></extensions></trkpt>
   <trkpt lat="59.292921277" lon="34.6533044275"><ele>160.469</ele><time>2026-08-16T14:36:03.790Z</time><hdop>3.0</hdop><vdop>2.5</vdop><extensions><gom:speed>0.941</gom:speed></extensions></trkpt>
   <trkpt lat="59.292912476" lon="34.6533079479"><ele>160.407</ele><time>2026-08-16T14:36:04.595Z</time><hdop>3.0</hdop><vdop>2.5</vdop><extensions><gom:speed>1.008</gom:speed></extensions></trkpt>
   <trkpt lat="59.2929070697" lon="34.6533106301"><ele>160.344</ele><time>2026-08-16T14:36:05.136Z</time><hdop>3.0</hdop><vdop>2.5</vdop><extensions><gom:speed>0.983</gom:speed></extensions></trkpt>
   <trkpt lat="59.292899065" lon="34.6533104625"><ele>160.306</ele><time>2026-08-16T14:36:05.911Z</time><hdop>3.0</hdop><vdop>2.5</vdop><extensions><gom:speed>0.982</gom:speed></extensions></trkpt>
   <trkpt lat="59.2928932815" lon="34.6533086185"><ele>160.502</ele><time>2026-08-16T14:36:06.390Z</time><hdop>3.0</hdop><vdop>2.5</vdop><extensions><gom:speed>1.023</gom:speed></extensions></trkpt>
   <trkpt lat="59.292886073" lon="34.653304679"><ele>160.471</ele><time>2026-08-16T14:36:07.136Z</time><hdop>3.0</hdop><vdop>2.5</vdop><extensions><gom:speed>0.983</gom:speed></extensions></trkpt>
   <trkpt lat="59.292879577" lon="34.6533015777"><ele>160.453</ele><time>2026-08-16T14:36:07.815Z</time><hdop>3.0</hdop><vdop>2.5</vdop><extensions><gom:speed>0.984</gom:speed></extensions></trkpt>
   <trkpt lat="59.2928703989" lon="34.6533017453"><ele>160.617</ele><time>2026-08-16T14:36:08.874Z</time><hdop>3.0</hdop><vdop>2.5</vdop><extensions><gom:speed>0.907</gom:speed></extensions></trkpt>
   <trkpt lat="59.2928656631" lon="34.6533028349"><ele>160.641</ele><time>2026-08-16T14:36:09.395Z</time><hdop>3.0</hdop><vdop>2.5</vdop><extensions><gom:speed>0.924</gom:speed></extensions></trkpt>
   <trkpt lat="59.29285967" lon="34.6533016615"><ele>160.95</ele><time>2026-08-16T14:36:10.136Z</time><hdop>3.0</hdop><vdop>2.5</vdop><extensions><gom:speed>0.895</gom:speed></extensions></trkpt>
   <trkpt lat="59.2928525873" lon="34.6532970514"><ele>161.135</ele><time>2026-08-16T14:36:10.995Z</time><hdop>3.0</hdop><vdop>2.5</vdop><extensions><gom:speed>0.864</gom:speed></extensions></trkpt>
   <trkpt lat="59.292846259" lon="34.6532956265"><ele>161.184</ele><time>2026-08-16T14:36:11.672Z</time><hdop>3.0</hdop><vdop>2.5</vdop><extensions><gom:speed>0.906</gom:speed></extensions></trkpt>
   <trkpt lat="59.2928412717" lon="34.653295878"><ele>161.224</ele><time>2026-08-16T14:36:12.136Z</time><hdop>3.0</hdop><vdop>2.5</vdop><extensions><gom:speed>0.971</gom:speed></extensions></trkpt>
   <trkpt lat="59.2928314649" lon="34.6532931957"><ele>161.249</ele><time>2026-08-16T14:36:13.075Z</time><hdop>3.0</hdop><vdop>2.5</vdop><extensions><gom:speed>1.009</gom:speed></extensions></trkpt>
   <trkpt lat="59.2928246756" lon="34.653291687"><ele>161.335</ele><time>2026-08-16T14:36:13.753Z</time><hdop>3.0</hdop><vdop>2.5</vdop><extensions><gom:speed>0.99</gom:speed></extensions></trkpt>
   <trkpt lat="59.2928183892" lon="34.6532851491"><ele>161.779</ele><time>2026-08-16T14:36:14.547Z</time><hdop>3.0</hdop><vdop>2.5</vdop><extensions><gom:speed>0.992</gom:speed></extensions></trkpt>
   <trkpt lat="59.2928155812" lon="34.6532788627"><ele>162.406</ele><time>2026-08-16T14:36:15.136Z</time><hdop>3.0</hdop><vdop>2.5</vdop><extensions><gom:speed>0.885</gom:speed></extensions></trkpt>
   <trkpt lat="59.2928112645" lon="34.6532718219"><ele>162.78</ele><time>2026-08-16T14:36:15.853Z</time><hdop>3.0</hdop><vdop>2.5</vdop><extensions><gom:speed>0.874</gom:speed></extensions></trkpt>
   <trkpt lat="59.2928016673" lon="34.653260674"><ele>163.14</ele><time>2026-08-16T14:36:17.012Z</time><hdop>3.0</hdop><vdop>2.5</vdop><extensions><gom:speed>0.954</gom:speed></extensions></trkpt>
   <trkpt lat="59.2927958837" lon="34.6532557286"><ele>163.548</ele><time>2026-08-16T14:36:17.748Z</time><hdop>3.0</hdop><vdop>2.5</vdop><extensions><gom:speed>0.971</gom:speed></extensions></trkpt>
   <trkpt lat="59.2927840653" lon="34.6532462571"><ele>163.668</ele><time>2026-08-16T14:36:19.034Z</time><hdop>3.0</hdop><vdop>2.5</vdop><extensions><gom:speed>1.053</gom:speed></extensions></trkpt>
   <trkpt lat="59.2927712829" lon="34.6532419823"><ele>163.943</ele><time>2026-08-16T14:36:20.136Z</time><hdop>3.0</hdop><vdop>2.5</vdop><extensions><gom:speed>1.078</gom:speed></extensions></trkpt>
   <trkpt lat="59.2927589615" lon="34.6532429881"><ele>164.055</ele><time>2026-08-16T14:36:21.136Z</time><hdop>3.0</hdop><vdop>2.5</vdop><extensions><gom:speed>1.1</gom:speed></extensions></trkpt>
   <trkpt lat="59.2927462629" lon="34.6532455865"><ele>164.124</ele><time>2026-08-16T14:36:22.136Z</time><hdop>3.0</hdop><vdop>2.5</vdop><extensions><gom:speed>1.113</gom:speed></extensions></trkpt>
   <trkpt lat="59.2927383839" lon="34.6532443293"><ele>164.164</ele><time>2026-08-16T14:36:22.792Z</time><hdop>3.0</hdop><vdop>2.5</vdop><extensions><gom:speed>1.118</gom:speed></extensions></trkpt>
   <trkpt lat="59.2927279903" lon="34.6532420661"><ele>164.414</ele><time>2026-08-16T14:36:23.568Z</time><hdop>3.0</hdop><vdop>2.5</vdop><extensions><gom:speed>1.142</gom:speed></extensions></trkpt>
   <trkpt lat="59.2927208657" lon="34.6532410603"><ele>164.625</ele><time>2026-08-16T14:36:24.136Z</time><hdop>3.0</hdop><vdop>2.5</vdop><extensions><gom:speed>1.108</gom:speed></extensions></trkpt>
   <trkpt lat="59.2927134896" lon="34.6532402221"><ele>164.751</ele><time>2026-08-16T14:36:24.776Z</time><hdop>3.0</hdop><vdop>2.5</vdop><extensions><gom:speed>1.107</gom:speed></extensions></trkpt>
   <trkpt lat="59.2926989889" lon="34.6532387972"><ele>164.821</ele><time>2026-08-16T14:36:26.110Z</time><hdop>3.0</hdop><vdop>2.5</vdop><extensions><gom:speed>1.052</gom:speed></extensions></trkpt>
   <trkpt lat="59.2926928702" lon="34.6532363664"><ele>164.486</ele><time>2026-08-16T14:36:26.690Z</time><hdop>3.0</hdop><vdop>2.5</vdop><extensions><gom:speed>1.07</gom:speed></extensions></trkpt>
   <trkpt lat="59.2926865837" lon="34.6532315888"><ele>164.315</ele><time>2026-08-16T14:36:27.249Z</time><hdop>3.0</hdop><vdop>2.5</vdop><extensions><gom:speed>1.107</gom:speed></extensions></trkpt>
   <trkpt lat="59.2926813869" lon="34.6532262243"><ele>164.213</ele><time>2026-08-16T14:36:27.769Z</time><hdop>3.0</hdop><vdop>2.5</vdop><extensions><gom:speed>1.108</gom:speed></extensions></trkpt>
   <trkpt lat="59.2926708677" lon="34.6532103825"><ele>164.297</ele><time>2026-08-16T14:36:28.996Z</time><hdop>3.0</hdop><vdop>2.5</vdop><extensions><gom:speed>1.081</gom:speed></extensions></trkpt>
   <trkpt lat="59.2926650841" lon="34.653199067"><ele>164.282</ele><time>2026-08-16T14:36:29.772Z</time><hdop>3.0</hdop><vdop>2.5</vdop><extensions><gom:speed>1.057</gom:speed></extensions></trkpt>
   <trkpt lat="59.292659594" lon="34.6531953789"><ele>164.297</ele><time>2026-08-16T14:36:30.331Z</time><hdop>3.0</hdop><vdop>2.5</vdop><extensions><gom:speed>1.04</gom:speed></extensions></trkpt>
   <trkpt lat="59.2926508768" lon="34.6531937864"><ele>164.412</ele><time>2026-08-16T14:36:31.136Z</time><hdop>3.0</hdop><vdop>2.5</vdop><extensions><gom:speed>1.049</gom:speed></extensions></trkpt>
   <trkpt lat="59.292639687" lon="34.6531935349"><ele>164.579</ele><time>2026-08-16T14:36:32.136Z</time><hdop>3.0</hdop><vdop>2.5</vdop><extensions><gom:speed>1.052</gom:speed></extensions></trkpt>
   <trkpt lat="59.2926323947" lon="34.6531933673"><ele>164.679</ele><time>2026-08-16T14:36:32.775Z</time><hdop>3.0</hdop><vdop>2.5</vdop><extensions><gom:speed>1.047</gom:speed></extensions></trkpt>
   <trkpt lat="59.2926201991" lon="34.6531857397"><ele>164.829</ele><time>2026-08-16T14:36:34.071Z</time><hdop>3.0</hdop><vdop>2.5</vdop><extensions><gom:speed>1.035</gom:speed></extensions></trkpt>
   <trkpt lat="59.2926148765" lon="34.6531767711"><ele>164.75</ele><time>2026-08-16T14:36:34.787Z</time><hdop>3.0</hdop><vdop>2.5</vdop><extensions><gom:speed>1.011</gom:speed></extensions></trkpt>
   <trkpt lat="59.2926121943" lon="34.6531694789"><ele>164.621</ele><time>2026-08-16T14:36:35.307Z</time><hdop>3.0</hdop><vdop>2.5</vdop><extensions><gom:speed>1.025</gom:speed></extensions></trkpt>
   <trkpt lat="59.2926055726" lon="34.6531627733"><ele>164.765</ele><time>2026-08-16T14:36:36.136Z</time><hdop>3.0</hdop><vdop>2.5</vdop><extensions><gom:speed>1.056</gom:speed></extensions></trkpt>
   <trkpt lat="59.2925973584" lon="34.6531601749"><ele>164.851</ele><time>2026-08-16T14:36:36.946Z</time><hdop>3.0</hdop><vdop>2.5</vdop><extensions><gom:speed>1.06</gom:speed></extensions></trkpt>
   <trkpt lat="59.2925919939" lon="34.6531626895"><ele>164.962</ele><time>2026-08-16T14:36:37.575Z</time><hdop>3.0</hdop><vdop>2.5</vdop><extensions><gom:speed>1.047</gom:speed></extensions></trkpt>
   <trkpt lat="59.2925865876" lon="34.6531667966"><ele>165.028</ele><time>2026-08-16T14:36:38.134Z</time><hdop>3.0</hdop><vdop>2.5</vdop><extensions><gom:speed>1.014</gom:speed></extensions></trkpt>
   <trkpt lat="59.2925816842" lon="34.6531685568"><ele>164.668</ele><time>2026-08-16T14:36:38.792Z</time><hdop>3.0</hdop><vdop>2.5</vdop><extensions><gom:speed>1.003</gom:speed></extensions></trkpt>
   <trkpt lat="59.2925781638" lon="34.653166629"><ele>164.706</ele><time>2026-08-16T14:36:39.273Z</time><hdop>3.0</hdop><vdop>2.5</vdop><extensions><gom:speed>1.006</gom:speed></extensions></trkpt>
   <trkpt lat="59.2925712906" lon="34.6531646174"><ele>164.729</ele><time>2026-08-16T14:36:40.009Z</time><hdop>3.0</hdop><vdop>2.5</vdop><extensions><gom:speed>1.006</gom:speed></extensions></trkpt>
   <trkpt lat="59.2925676864" lon="34.6531593368"><ele>164.405</ele><time>2026-08-16T14:36:40.549Z</time><hdop>3.0</hdop><vdop>2.5</vdop><extensions><gom:speed>1.001</gom:speed></extensions></trkpt>
   <trkpt lat="59.2925642918" lon="34.6531546429"><ele>163.979</ele><time>2026-08-16T14:36:41.136Z</time><hdop>3.0</hdop><vdop>2.5</vdop><extensions><gom:speed>0.936</gom:speed></extensions></trkpt>
   <trkpt lat="59.2925573767" lon="34.653150871"><ele>163.724</ele><time>2026-08-16T14:36:42.031Z</time><hdop>3.0</hdop><vdop>2.5</vdop><extensions><gom:speed>0.903</gom:speed></extensions></trkpt>
   <trkpt lat="59.2925540658" lon="34.6531430759"><ele>163.752</ele><time>2026-08-16T14:36:42.688Z</time><hdop>3.0</hdop><vdop>2.5</vdop><extensions><gom:speed>0.898</gom:speed></extensions></trkpt>
   <trkpt lat="59.2925514674" lon="34.6531343587"><ele>164.025</ele><time>2026-08-16T14:36:43.268Z</time><hdop>3.0</hdop><vdop>2.5</vdop><extensions><gom:speed>0.961</gom:speed></extensions></trkpt>
   <trkpt lat="59.2925468993" lon="34.6531250548"><ele>164.189</ele><time>2026-08-16T14:36:43.974Z</time><hdop>3.0</hdop><vdop>2.5</vdop><extensions><gom:speed>0.983</gom:speed></extensions></trkpt>
   <trkpt lat="59.2925440914" lon="34.6531167567"><ele>164.507</ele><time>2026-08-16T14:36:44.494Z</time><hdop>3.0</hdop><vdop>2.5</vdop><extensions><gom:speed>1.006</gom:speed></extensions></trkpt>
   <trkpt lat="59.2925398585" lon="34.653107369"><ele>164.828</ele><time>2026-08-16T14:36:45.136Z</time><hdop>3.0</hdop><vdop>2.5</vdop><extensions><gom:speed>1.038</gom:speed></extensions></trkpt>
   <trkpt lat="59.2925356676" lon="34.6530978974"><ele>165.019</ele><time>2026-08-16T14:36:45.751Z</time><hdop>3.0</hdop><vdop>2.5</vdop><extensions><gom:speed>1.044</gom:speed></extensions></trkpt>
   <trkpt lat="59.2925309737" lon="34.6530843187"><ele>165.097</ele><time>2026-08-16T14:36:46.575Z</time><hdop>3.0</hdop><vdop>2.5</vdop><extensions><gom:speed>1.061</gom:speed></extensions></trkpt>
   <trkpt lat="59.2925265732" lon="34.653077697"><ele>165.297</ele><time>2026-08-16T14:36:47.136Z</time><hdop>3.0</hdop><vdop>2.5</vdop><extensions><gom:speed>1.041</gom:speed></extensions></trkpt>
   <trkpt lat="59.2925161796" lon="34.6530720811"><ele>165.79</ele><time>2026-08-16T14:36:48.136Z</time><hdop>3.0</hdop><vdop>2.5</vdop><extensions><gom:speed>1.031</gom:speed></extensions></trkpt>
   <trkpt lat="59.2925059956" lon="34.6530704886"><ele>166.085</ele><time>2026-08-16T14:36:49.049Z</time><hdop>3.0</hdop><vdop>2.5</vdop><extensions><gom:speed>1.038</gom:speed></extensions></trkpt>
   <trkpt lat="59.2924998768" lon="34.653071662"><ele>165.76</ele><time>2026-08-16T14:36:49.589Z</time><hdop>3.0</hdop><vdop>2.5</vdop><extensions><gom:speed>1.023</gom:speed></extensions></trkpt>
   <trkpt lat="59.2924940933" lon="34.6530727517"><ele>165.682</ele><time>2026-08-16T14:36:50.136Z</time><hdop>3.0</hdop><vdop>2.5</vdop><extensions><gom:speed>1.03</gom:speed></extensions></trkpt>
   <trkpt lat="59.292486382" lon="34.6530751824"><ele>165.635</ele><time>2026-08-16T14:36:50.874Z</time><hdop>3.0</hdop><vdop>2.5</vdop><extensions><gom:speed>1.025</gom:speed></extensions></trkpt>
   <trkpt lat="59.2924776648" lon="34.6530810498"><ele>165.565</ele><time>2026-08-16T14:36:51.748Z</time><hdop>3.0</hdop><vdop>2.5</vdop><extensions><gom:speed>1.016</gom:speed></extensions></trkpt>
   <trkpt lat="59.2924731805" lon="34.6530854922"><ele>165.495</ele><time>2026-08-16T14:36:52.327Z</time><hdop>3.0</hdop><vdop>2.5</vdop><extensions><gom:speed>0.952</gom:speed></extensions></trkpt>
   <trkpt lat="59.2924667683" lon="34.6530830614"><ele>165.453</ele><time>2026-08-16T14:36:53.014Z</time><hdop>3.0</hdop><vdop>2.5</vdop><extensions><gom:speed>0.987</gom:speed></extensions></trkpt>
   <trkpt lat="59.2924624935" lon="34.6530785352"><ele>165.258</ele><time>2026-08-16T14:36:53.613Z</time><hdop>3.0</hdop><vdop>2.5</vdop><extensions><gom:speed>0.965</gom:speed></extensions></trkpt>
   <trkpt lat="59.292458596" lon="34.653075853"><ele>165.171</ele><time>2026-08-16T14:36:54.136Z</time><hdop>3.0</hdop><vdop>2.5</vdop><extensions><gom:speed>0.96</gom:speed></extensions></trkpt>
   <trkpt lat="59.2924529801" lon="34.6530706562"><ele>165.119</ele><time>2026-08-16T14:36:54.850Z</time><hdop>3.0</hdop><vdop>2.5</vdop><extensions><gom:speed>0.952</gom:speed></extensions></trkpt>
   <trkpt lat="59.2924466937" lon="34.6530692313"><ele>164.659</ele><time>2026-08-16T14:36:55.576Z</time><hdop>3.0</hdop><vdop>2.5</vdop><extensions><gom:speed>1.01</gom:speed></extensions></trkpt>
   <trkpt lat="59.2924417902" lon="34.653072165"><ele>164.3</ele><time>2026-08-16T14:36:56.136Z</time><hdop>3.0</hdop><vdop>2.5</vdop><extensions><gom:speed>1.005</gom:speed></extensions></trkpt>
   <trkpt lat="59.2924353781" lon="34.6530769426"><ele>164.085</ele><time>2026-08-16T14:36:56.813Z</time><hdop>3.0</hdop><vdop>2.5</vdop><extensions><gom:speed>1.004</gom:speed></extensions></trkpt>
   <trkpt lat="59.2924318996" lon="34.6530810498"><ele>164.099</ele><time>2026-08-16T14:36:57.274Z</time><hdop>3.0</hdop><vdop>2.5</vdop><extensions><gom:speed>1.005</gom:speed></extensions></trkpt>
   <trkpt lat="59.2924243978" lon="34.6530823909"><ele>164.108</ele><time>2026-08-16T14:36:58.069Z</time><hdop>3.0</hdop><vdop>2.5</vdop><extensions><gom:speed>0.974</gom:speed></extensions></trkpt>
   <trkpt lat="59.2924185724" lon="34.653084654"><ele>164.4</ele><time>2026-08-16T14:36:58.747Z</time><hdop>3.0</hdop><vdop>2.5</vdop><extensions><gom:speed>0.949</gom:speed></extensions></trkpt>
   <trkpt lat="59.292413669" lon="34.6530878391"><ele>164.522</ele><time>2026-08-16T14:36:59.395Z</time><hdop>3.0</hdop><vdop>2.5</vdop><extensions><gom:speed>0.886</gom:speed></extensions></trkpt>
   <trkpt lat="59.2924092685" lon="34.65308742"><ele>164.595</ele><time>2026-08-16T14:36:59.915Z</time><hdop>3.0</hdop><vdop>2.5</vdop><extensions><gom:speed>0.873</gom:speed></extensions></trkpt>
   <trkpt lat="59.2924031916" lon="34.6530834805"><ele>164.7</ele><time>2026-08-16T14:37:00.710Z</time><hdop>3.0</hdop><vdop>2.5</vdop><extensions><gom:speed>0.918</gom:speed></extensions></trkpt>
   <trkpt lat="59.2923985815" lon="34.6530614361"><ele>164.207</ele><time>2026-08-16T14:37:01.928Z</time><hdop>3.0</hdop><vdop>2.5</vdop><extensions><gom:speed>1.03</gom:speed></extensions></trkpt>
   <trkpt lat="59.2923922951" lon="34.6530472707"><ele>163.576</ele><time>2026-08-16T14:37:03.115Z</time><hdop>3.0</hdop><vdop>2.5</vdop><extensions><gom:speed>1.044</gom:speed></extensions></trkpt>
   <trkpt lat="59.292389571" lon="34.6530322671"><ele>163.674</ele><time>2026-08-16T14:37:03.969Z</time><hdop>3.062</hdop><vdop>2.5</vdop><extensions><gom:speed>1.095</gom:speed></extensions></trkpt>
   <trkpt lat="59.292391876" lon="34.6530282438"><ele>163.556</ele><time>2026-08-16T14:37:04.509Z</time><hdop>3.062</hdop><vdop>2.5</vdop><extensions><gom:speed>0.832</gom:speed></extensions></trkpt>
   <trkpt lat="59.292390493" lon="34.6530247234"><ele>163.378</ele><time>2026-08-16T14:37:05.136Z</time><hdop>3.125</hdop><vdop>2.5</vdop><extensions><gom:speed>0.863</gom:speed></extensions></trkpt>
   <trkpt lat="59.2923858829" lon="34.6530181855"><ele>163.271</ele><time>2026-08-16T14:37:05.990Z</time><hdop>3.25</hdop><vdop>2.5</vdop><extensions><gom:speed>0.916</gom:speed></extensions></trkpt>
   <trkpt lat="59.2923799737" lon="34.6530205324"><ele>162.929</ele><time>2026-08-16T14:37:06.668Z</time><hdop>3.312</hdop><vdop>2.5</vdop><extensions><gom:speed>0.854</gom:speed></extensions></trkpt>
   <trkpt lat="59.2923745674" lon="34.6530227956"><ele>162.424</ele><time>2026-08-16T14:37:07.136Z</time><hdop>3.312</hdop><vdop>2.5</vdop><extensions><gom:speed>0.91</gom:speed></extensions></trkpt>
   <trkpt lat="59.2923665627" lon="34.6530217897"><ele>162.122</ele><time>2026-08-16T14:37:07.954Z</time><hdop>3.437</hdop><vdop>2.5</vdop><extensions><gom:speed>0.898</gom:speed></extensions></trkpt>
   <trkpt lat="59.2923607791" lon="34.6530229632"><ele>161.902</ele><time>2026-08-16T14:37:08.435Z</time><hdop>3.437</hdop><vdop>2.5</vdop><extensions><gom:speed>0.915</gom:speed></extensions></trkpt>
   <trkpt lat="59.2923541994" lon="34.6530222926"><ele>161.565</ele><time>2026-08-16T14:37:09.136Z</time><hdop>3.375</hdop><vdop>2.5</vdop><extensions><gom:speed>0.915</gom:speed></extensions></trkpt>
   <trkpt lat="59.2923479967" lon="34.6530209515"><ele>161.364</ele><time>2026-08-16T14:37:09.790Z</time><hdop>3.375</hdop><vdop>2.5</vdop><extensions><gom:speed>0.925</gom:speed></extensions></trkpt>
   <trkpt lat="59.2923407883" lon="34.6530206163"><ele>161.291</ele><time>2026-08-16T14:37:10.536Z</time><hdop>3.312</hdop><vdop>2.5</vdop><extensions><gom:speed>0.918</gom:speed></extensions></trkpt>
   <trkpt lat="59.2923356753" lon="34.6530199457"><ele>161.248</ele><time>2026-08-16T14:37:11.056Z</time><hdop>3.25</hdop><vdop>2.5</vdop><extensions><gom:speed>0.945</gom:speed></extensions></trkpt>
   <trkpt lat="59.2923276706" lon="34.6530216221"><ele>161.123</ele><time>2026-08-16T14:37:11.811Z</time><hdop>3.187</hdop><vdop>2.5</vdop><extensions><gom:speed>0.946</gom:speed></extensions></trkpt>
   <trkpt lat="59.2923217614" lon="34.6530261483"><ele>161.173</ele><time>2026-08-16T14:37:12.332Z</time><hdop>3.125</hdop><vdop>2.5</vdop><extensions><gom:speed>0.969</gom:speed></extensions></trkpt>
   <trkpt lat="59.2923141758" lon="34.653029082"><ele>161.203</ele><time>2026-08-16T14:37:13.106Z</time><hdop>3.062</hdop><vdop>2.5</vdop><extensions><gom:speed>0.978</gom:speed></extensions></trkpt>
   <trkpt lat="59.2923095657" lon="34.6530314289"><ele>161.123</ele><time>2026-08-16T14:37:13.568Z</time><hdop>3.062</hdop><vdop>2.5</vdop><extensions><gom:speed>0.942</gom:speed></extensions></trkpt>
   <trkpt lat="59.2923046623" lon="34.6530348655"><ele>160.91</ele><time>2026-08-16T14:37:14.136Z</time><hdop>3.062</hdop><vdop>2.5</vdop><extensions><gom:speed>0.927</gom:speed></extensions></trkpt>
   <trkpt lat="59.2922977891" lon="34.6530398946"><ele>160.782</ele><time>2026-08-16T14:37:14.913Z</time><hdop>3.0</hdop><vdop>2.5</vdop><extensions><gom:speed>0.925</gom:speed></extensions></trkpt>
   <trkpt lat="59.2922909998" lon="34.6530479413"><ele>160.968</ele><time>2026-08-16T14:37:15.728Z</time><hdop>3.0</hdop><vdop>2.5</vdop><extensions><gom:speed>0.937</gom:speed></extensions></trkpt>
   <trkpt lat="59.2922868927" lon="34.6530546468"><ele>160.9</ele><time>2026-08-16T14:37:16.268Z</time><hdop>3.0</hdop><vdop>2.5</vdop><extensions><gom:speed>0.945</gom:speed></extensions></trkpt>
   <trkpt lat="59.292278888" lon="34.6530586701"><ele>160.859</ele><time>2026-08-16T14:37:17.131Z</time><hdop>3.0</hdop><vdop>2.5</vdop><extensions><gom:speed>0.956</gom:speed></extensions></trkpt>
   <trkpt lat="59.2922748646" lon="34.6530599274"><ele>160.903</ele><time>2026-08-16T14:37:17.691Z</time><hdop>3.0</hdop><vdop>2.5</vdop><extensions><gom:speed>0.911</gom:speed></extensions></trkpt>
   <trkpt lat="59.2922719729" lon="34.6530513778"><ele>160.855</ele><time>2026-08-16T14:37:19.136Z</time><hdop>3.0</hdop><vdop>2.5</vdop><extensions><gom:speed>0.492</gom:speed></extensions></trkpt>
   <trkpt lat="59.2922733978" lon="34.6530520484"><ele>160.83</ele><time>2026-08-16T14:37:20.136Z</time><hdop>3.0</hdop><vdop>2.5</vdop><extensions><gom:speed>0.227</gom:speed></extensions></trkpt>
   <trkpt lat="59.2922733978" lon="34.6530525513"><ele>160.815</ele><time>2026-08-16T14:37:20.870Z</time><hdop>3.0</hdop><vdop>2.5</vdop><extensions><gom:speed>0.244</gom:speed></extensions></trkpt>
   <trkpt lat="59.2922703803" lon="34.6530480251"><ele>160.623</ele><time>2026-08-16T14:37:21.352Z</time><hdop>3.0</hdop><vdop>2.5</vdop><extensions><gom:speed>0.533</gom:speed></extensions></trkpt>
   <trkpt lat="59.2922660636" lon="34.6530425768"><ele>160.36</ele><time>2026-08-16T14:37:22.136Z</time><hdop>3.0</hdop><vdop>2.5</vdop><extensions><gom:speed>0.544</gom:speed></extensions></trkpt>
   <trkpt lat="59.292259861" lon="34.6530365419"><ele>160.355</ele><time>2026-08-16T14:37:23.136Z</time><hdop>3.0</hdop><vdop>2.5</vdop><extensions><gom:speed>0.53</gom:speed></extensions></trkpt>
   <trkpt lat="59.2922522754" lon="34.6530350331"><ele>160.545</ele><time>2026-08-16T14:37:24.136Z</time><hdop>3.0</hdop><vdop>2.5</vdop><extensions><gom:speed>0.634</gom:speed></extensions></trkpt>
   <trkpt lat="59.2922448993" lon="34.6530363742"><ele>160.658</ele><time>2026-08-16T14:37:25.131Z</time><hdop>3.0</hdop><vdop>2.5</vdop><extensions><gom:speed>0.654</gom:speed></extensions></trkpt>
   <trkpt lat="59.2922356792" lon="34.6530392241"><ele>161.049</ele><time>2026-08-16T14:37:26.136Z</time><hdop>3.0</hdop><vdop>2.5</vdop><extensions><gom:speed>0.731</gom:speed></extensions></trkpt>
   <trkpt lat="59.2922299795" lon="34.6530430798"><ele>161.282</ele><time>2026-08-16T14:37:26.888Z</time><hdop>3.0</hdop><vdop>2.5</vdop><extensions><gom:speed>0.73</gom:speed></extensions></trkpt>
   <trkpt lat="59.29222516" lon="34.6530463487"><ele>161.523</ele><time>2026-08-16T14:37:27.536Z</time><hdop>3.0</hdop><vdop>2.5</vdop><extensions><gom:speed>0.756</gom:speed></extensions></trkpt>
   <trkpt lat="59.2922214719" lon="34.6530484442"><ele>161.596</ele><time>2026-08-16T14:37:28.136Z</time><hdop>3.0</hdop><vdop>2.5</vdop><extensions><gom:speed>0.758</gom:speed></extensions></trkpt>
   <trkpt lat="59.2922145988" lon="34.6530491985"><ele>161.533</ele><time>2026-08-16T14:37:29.136Z</time><hdop>3.0</hdop><vdop>2.5</vdop><extensions><gom:speed>0.821</gom:speed></extensions></trkpt>
   <trkpt lat="59.2922068874" lon="34.6530478574"><ele>161.495</ele><time>2026-08-16T14:37:30.048Z</time><hdop>3.0</hdop><vdop>2.5</vdop><extensions><gom:speed>0.889</gom:speed></extensions></trkpt>
   <trkpt lat="59.2922027803" lon="34.653048528"><ele>161.617</ele><time>2026-08-16T14:37:30.549Z</time><hdop>3.0</hdop><vdop>2.5</vdop><extensions><gom:speed>0.886</gom:speed></extensions></trkpt>
   <trkpt lat="59.2921978769" lon="34.6530506235"><ele>161.854</ele><time>2026-08-16T14:37:31.136Z</time><hdop>3.0</hdop><vdop>2.5</vdop><extensions><gom:speed>0.897</gom:speed></extensions></trkpt>
   <trkpt lat="59.2921916743" lon="34.6530538924"><ele>161.996</ele><time>2026-08-16T14:37:31.874Z</time><hdop>3.0</hdop><vdop>2.5</vdop><extensions><gom:speed>0.889</gom:speed></extensions></trkpt>
   <trkpt lat="59.2921838791" lon="34.6530606818"><ele>162.056</ele><time>2026-08-16T14:37:32.836Z</time><hdop>3.0</hdop><vdop>2.5</vdop><extensions><gom:speed>0.884</gom:speed></extensions></trkpt>
   <trkpt lat="59.292179269" lon="34.6530671358"><ele>162.245</ele><time>2026-08-16T14:37:33.376Z</time><hdop>3.0</hdop><vdop>2.5</vdop><extensions><gom:speed>0.904</gom:speed></extensions></trkpt>
   <trkpt lat="59.2921728988" lon="34.6530742604"><ele>162.397</ele><time>2026-08-16T14:37:34.136Z</time><hdop>3.0</hdop><vdop>2.5</vdop><extensions><gom:speed>0.927</gom:speed></extensions></trkpt>
   <trkpt lat="59.2921678696" lon="34.6530780323"><ele>162.488</ele><time>2026-08-16T14:37:34.691Z</time><hdop>3.0</hdop><vdop>2.5</vdop><extensions><gom:speed>0.93</gom:speed></extensions></trkpt>
   <trkpt lat="59.2921656904" lon="34.6530761883"><ele>162.509</ele><time>2026-08-16T14:37:36.135Z</time><hdop>3.0</hdop><vdop>2.5</vdop><extensions><gom:speed>0.407</gom:speed></extensions></trkpt>
   <trkpt lat="59.2921685821" lon="34.6530728355"><ele>162.484</ele><time>2026-08-16T14:37:37.136Z</time><hdop>3.0</hdop><vdop>2.5</vdop><extensions><gom:speed>0.302</gom:speed></extensions></trkpt>
   <trkpt lat="59.292170971" lon="34.6530665491"><ele>162.05</ele><time>2026-08-16T14:37:38.136Z</time><hdop>3.0</hdop><vdop>2.5</vdop><extensions><gom:speed>0.366</gom:speed></extensions></trkpt>
   <trkpt lat="59.2921737789" lon="34.6530626934"><ele>161.791</ele><time>2026-08-16T14:37:38.872Z</time><hdop>3.0</hdop><vdop>2.5</vdop><extensions><gom:speed>0.366</gom:speed></extensions></trkpt>
   <trkpt lat="59.2921846754" lon="34.6530489471"><ele>163.234</ele><time>2026-08-16T14:37:39.667Z</time><hdop>3.0</hdop><vdop>2.5</vdop><extensions><gom:speed>0.866</gom:speed></extensions></trkpt>
   <trkpt lat="59.2921891597" lon="34.6530440856"><ele>164.213</ele><time>2026-08-16T14:37:40.138Z</time><hdop>3.0</hdop><vdop>2.5</vdop><extensions><gom:speed>0.878</gom:speed></extensions></trkpt>
   <trkpt lat="59.2921993856" lon="34.6530316804"><ele>164.798</ele><time>2026-08-16T14:37:41.110Z</time><hdop>3.0</hdop><vdop>2.5</vdop><extensions><gom:speed>0.915</gom:speed></extensions></trkpt>
   <trkpt lat="59.2922063845" lon="34.6530243881"><ele>165.199</ele><time>2026-08-16T14:37:41.827Z</time><hdop>3.0</hdop><vdop>2.5</vdop><extensions><gom:speed>0.901</gom:speed></extensions></trkpt>
   <trkpt lat="59.2922126709" lon="34.6530174311"><ele>165.392</ele><time>2026-08-16T14:37:42.514Z</time><hdop>3.0</hdop><vdop>2.5</vdop><extensions><gom:speed>0.894</gom:speed></extensions></trkpt>
   <trkpt lat="59.2922178677" lon="34.6530128211"><ele>165.508</ele><time>2026-08-16T14:37:43.132Z</time><hdop>3.0</hdop><vdop>2.5</vdop><extensions><gom:speed>0.912</gom:speed></extensions></trkpt>
   <trkpt lat="59.2922253695" lon="34.6530084625"><ele>165.281</ele><time>2026-08-16T14:37:43.868Z</time><hdop>3.0</hdop><vdop>2.5</vdop><extensions><gom:speed>0.918</gom:speed></extensions></trkpt>
   <trkpt lat="59.292233961" lon="34.6530069538"><ele>165.147</ele><time>2026-08-16T14:37:44.850Z</time><hdop>3.0</hdop><vdop>2.5</vdop><extensions><gom:speed>0.861</gom:speed></extensions></trkpt>
   <trkpt lat="59.2922409598" lon="34.6530098874"><ele>164.91</ele><time>2026-08-16T14:37:45.694Z</time><hdop>3.0</hdop><vdop>2.5</vdop><extensions><gom:speed>0.846</gom:speed></extensions></trkpt>
   <trkpt lat="59.2922506829" lon="34.6530149166"><ele>164.73</ele><time>2026-08-16T14:37:46.774Z</time><hdop>3.0</hdop><vdop>2.5</vdop><extensions><gom:speed>0.836</gom:speed></extensions></trkpt>
   <trkpt lat="59.2922578913" lon="34.65301148"><ele>164.612</ele><time>2026-08-16T14:37:47.490Z</time><hdop>3.0</hdop><vdop>2.5</vdop><extensions><gom:speed>0.86</gom:speed></extensions></trkpt>
   <trkpt lat="59.2922621661" lon="34.6530056965"><ele>164.541</ele><time>2026-08-16T14:37:48.049Z</time><hdop>3.0</hdop><vdop>2.5</vdop><extensions><gom:speed>0.914</gom:speed></extensions></trkpt>
   <trkpt lat="59.2922670695" lon="34.6529935427"><ele>164.281</ele><time>2026-08-16T14:37:48.854Z</time><hdop>3.0</hdop><vdop>2.5</vdop><extensions><gom:speed>0.883</gom:speed></extensions></trkpt>
   <trkpt lat="59.2922716795" lon="34.6529814728"><ele>163.94</ele><time>2026-08-16T14:37:49.630Z</time><hdop>3.0</hdop><vdop>2.5</vdop><extensions><gom:speed>0.899</gom:speed></extensions></trkpt>
   <trkpt lat="59.2922747808" lon="34.6529749349"><ele>163.762</ele><time>2026-08-16T14:37:50.136Z</time><hdop>3.0</hdop><vdop>2.5</vdop><extensions><gom:speed>0.88</gom:speed></extensions></trkpt>
   <trkpt lat="59.292278888" lon="34.6529654633"><ele>163.656</ele><time>2026-08-16T14:37:50.847Z</time><hdop>3.0</hdop><vdop>2.5</vdop><extensions><gom:speed>0.88</gom:speed></extensions></trkpt>
   <trkpt lat="59.2922843781" lon="34.6529552374"><ele>163.541</ele><time>2026-08-16T14:37:51.592Z</time><hdop>3.0</hdop><vdop>2.5</vdop><extensions><gom:speed>0.89</gom:speed></extensions></trkpt>
   <trkpt lat="59.292287689" lon="34.6529458497"><ele>163.473</ele><time>2026-08-16T14:37:52.133Z</time><hdop>3.0</hdop><vdop>2.5</vdop><extensions><gom:speed>0.974</gom:speed></extensions></trkpt>
   <trkpt lat="59.2922907903" lon="34.6529327739"><ele>163.23</ele><time>2026-08-16T14:37:52.947Z</time><hdop>3.0</hdop><vdop>2.5</vdop><extensions><gom:speed>0.947</gom:speed></extensions></trkpt>
   <trkpt lat="59.2922940592" lon="34.6529140823"><ele>163.016</ele><time>2026-08-16T14:37:54.136Z</time><hdop>3.0</hdop><vdop>2.5</vdop><extensions><gom:speed>1.0</gom:speed></extensions></trkpt>
   <trkpt lat="59.2922956937" lon="34.6528999169"><ele>162.888</ele><time>2026-08-16T14:37:54.851Z</time><hdop>3.0</hdop><vdop>2.5</vdop><extensions><gom:speed>1.006</gom:speed></extensions></trkpt>
   <trkpt lat="59.292295065" lon="34.6528911997"><ele>162.555</ele><time>2026-08-16T14:37:55.332Z</time><hdop>3.0</hdop><vdop>2.5</vdop><extensions><gom:speed>0.982</gom:speed></extensions></trkpt>
   <trkpt lat="59.2922916704" lon="34.652876699"><ele>162.368</ele><time>2026-08-16T14:37:56.136Z</time><hdop>3.0</hdop><vdop>2.5</vdop><extensions><gom:speed>1.018</gom:speed></extensions></trkpt>
   <trkpt lat="59.2922853839" lon="34.6528635394"><ele>162.257</ele><time>2026-08-16T14:37:57.050Z</time><hdop>3.0</hdop><vdop>2.5</vdop><extensions><gom:speed>0.966</gom:speed></extensions></trkpt>
   <trkpt lat="59.2922793909" lon="34.6528537326"><ele>162.542</ele><time>2026-08-16T14:37:57.727Z</time><hdop>3.0</hdop><vdop>2.5</vdop><extensions><gom:speed>0.98</gom:speed></extensions></trkpt>
   <trkpt lat="59.2922767925" lon="34.652842417"><ele>162.714</ele><time>2026-08-16T14:37:58.356Z</time><hdop>3.0</hdop><vdop>2.5</vdop><extensions><gom:speed>0.945</gom:speed></extensions></trkpt>
   <trkpt lat="59.2922748646" lon="34.6528306823"><ele>162.817</ele><time>2026-08-16T14:37:58.974Z</time><hdop>3.0</hdop><vdop>2.5</vdop><extensions><gom:speed>0.969</gom:speed></extensions></trkpt>
   <trkpt lat="59.2922738588" lon="34.6528165169"><ele>162.939</ele><time>2026-08-16T14:37:59.749Z</time><hdop>3.0</hdop><vdop>2.5</vdop><extensions><gom:speed>0.949</gom:speed></extensions></trkpt>
   <trkpt lat="59.2922751999" lon="34.6528012619"><ele>162.945</ele><time>2026-08-16T14:38:00.750Z</time><hdop>3.0</hdop><vdop>2.5</vdop><extensions><gom:speed>0.885</gom:speed></extensions></trkpt>
   <trkpt lat="59.2922778821" lon="34.6527911197"><ele>162.793</ele><time>2026-08-16T14:38:01.595Z</time><hdop>3.0</hdop><vdop>2.5</vdop><extensions><gom:speed>0.788</gom:speed></extensions></trkpt>
   <trkpt lat="59.2922805643" lon="34.652786845"><ele>162.613</ele><time>2026-08-16T14:38:02.135Z</time><hdop>3.0</hdop><vdop>2.5</vdop><extensions><gom:speed>0.776</gom:speed></extensions></trkpt>
   <trkpt lat="59.2922850906" lon="34.6527816482"><ele>162.45</ele><time>2026-08-16T14:38:03.136Z</time><hdop>3.0</hdop><vdop>2.5</vdop><extensions><gom:speed>0.628</gom:speed></extensions></trkpt>
   <trkpt lat="59.2922872699" lon="34.6527799718"><ele>162.353</ele><time>2026-08-16T14:38:03.675Z</time><hdop>3.0</hdop><vdop>2.5</vdop><extensions><gom:speed>0.626</gom:speed></extensions></trkpt>
   <trkpt lat="59.2922912932" lon="34.6527760323"><ele>161.978</ele><time>2026-08-16T14:38:04.136Z</time><hdop>3.0</hdop><vdop>2.5</vdop><extensions><gom:speed>0.809</gom:speed></extensions></trkpt>
   <trkpt lat="59.2922949812" lon="34.6527696621"><ele>161.754</ele><time>2026-08-16T14:38:04.666Z</time><hdop>3.0</hdop><vdop>2.5</vdop><extensions><gom:speed>0.817</gom:speed></extensions></trkpt>
   <trkpt lat="59.2922983759" lon="34.6527656388"><ele>161.692</ele><time>2026-08-16T14:38:05.136Z</time><hdop>3.0</hdop><vdop>2.5</vdop><extensions><gom:speed>0.786</gom:speed></extensions></trkpt>
   <trkpt lat="59.2923018963" lon="34.652760442"><ele>161.655</ele><time>2026-08-16T14:38:05.687Z</time><hdop>3.0</hdop><vdop>2.5</vdop><extensions><gom:speed>0.785</gom:speed></extensions></trkpt>
   <trkpt lat="59.2923083923" lon="34.6527503837"><ele>161.612</ele><time>2026-08-16T14:38:06.689Z</time><hdop>3.0</hdop><vdop>2.5</vdop><extensions><gom:speed>0.808</gom:speed></extensions></trkpt>
   <trkpt lat="59.2923138824" lon="34.6527346257"><ele>161.752</ele><time>2026-08-16T14:38:07.415Z</time><hdop>3.0</hdop><vdop>2.5</vdop><extensions><gom:speed>1.052</gom:speed></extensions></trkpt>
   <trkpt lat="59.2923162712" lon="34.6527249865"><ele>161.835</ele><time>2026-08-16T14:38:07.896Z</time><hdop>3.0</hdop><vdop>2.5</vdop><extensions><gom:speed>1.041</gom:speed></extensions></trkpt>
   <trkpt lat="59.292321468" lon="34.6527083904"><ele>162.007</ele><time>2026-08-16T14:38:08.976Z</time><hdop>3.0</hdop><vdop>2.5</vdop><extensions><gom:speed>0.957</gom:speed></extensions></trkpt>
   <trkpt lat="59.292325659" lon="34.6526974939"><ele>162.115</ele><time>2026-08-16T14:38:10.136Z</time><hdop>3.0</hdop><vdop>2.5</vdop><extensions><gom:speed>0.879</gom:speed></extensions></trkpt>
   <trkpt lat="59.2923289698" lon="34.6526897825"><ele>162.18</ele><time>2026-08-16T14:38:10.772Z</time><hdop>3.0</hdop><vdop>2.5</vdop><extensions><gom:speed>0.876</gom:speed></extensions></trkpt>
   <trkpt lat="59.2923346695" lon="34.6526867651"><ele>162.432</ele><time>2026-08-16T14:38:12.136Z</time><hdop>3.0</hdop><vdop>2.5</vdop><extensions><gom:speed>0.689</gom:speed></extensions></trkpt>
   <trkpt lat="59.2923377708" lon="34.6526799757"><ele>162.793</ele><time>2026-08-16T14:38:13.136Z</time><hdop>3.0</hdop><vdop>2.5</vdop><extensions><gom:speed>0.706</gom:speed></extensions></trkpt>
   <trkpt lat="59.2923407883" lon="34.6526708394"><ele>163.009</ele><time>2026-08-16T14:38:14.070Z</time><hdop>3.0</hdop><vdop>2.5</vdop><extensions><gom:speed>0.654</gom:speed></extensions></trkpt>
   <trkpt lat="59.2923393634" lon="34.6526671514"><ele>163.055</ele><time>2026-08-16T14:38:15.136Z</time><hdop>3.0</hdop><vdop>2.5</vdop><extensions><gom:speed>0.398</gom:speed></extensions></trkpt>
   <trkpt lat="59.2923387767" lon="34.6526650559"><ele>163.083</ele><time>2026-08-16T14:38:15.670Z</time><hdop>3.0</hdop><vdop>2.5</vdop><extensions><gom:speed>0.393</gom:speed></extensions></trkpt>
   <trkpt lat="59.2923379804" lon="34.6526648883"><ele>163.107</ele><time>2026-08-16T14:38:16.136Z</time><hdop>3.0</hdop><vdop>2.5</vdop><extensions><gom:speed>0.317</gom:speed></extensions></trkpt>
   <trkpt lat="59.2923363878" lon="34.6526553329"><ele>163.178</ele><time>2026-08-16T14:38:17.136Z</time><hdop>3.0</hdop><vdop>2.5</vdop><extensions><gom:speed>0.616</gom:speed></extensions></trkpt>
   <trkpt lat="59.2923352982" lon="34.6526450232"><ele>163.22</ele><time>2026-08-16T14:38:17.849Z</time><hdop>3.0</hdop><vdop>2.5</vdop><extensions><gom:speed>0.628</gom:speed></extensions></trkpt>
   <trkpt lat="59.2923315682" lon="34.6526305225"><ele>163.549</ele><time>2026-08-16T14:38:19.135Z</time><hdop>3.0</hdop><vdop>2.5</vdop><extensions><gom:speed>0.662</gom:speed></extensions></trkpt>
   <trkpt lat="59.2923264972" lon="34.6526156865"><ele>163.733</ele><time>2026-08-16T14:38:20.136Z</time><hdop>3.0</hdop><vdop>2.5</vdop><extensions><gom:speed>0.733</gom:speed></extensions></trkpt>
   <trkpt lat="59.2923246951" lon="34.6526073884"><ele>163.843</ele><time>2026-08-16T14:38:20.656Z</time><hdop>3.0</hdop><vdop>2.5</vdop><extensions><gom:speed>0.739</gom:speed></extensions></trkpt>
   <trkpt lat="59.2923238988" lon="34.6526054606"><ele>163.847</ele><time>2026-08-16T14:38:21.136Z</time><hdop>3.0</hdop><vdop>2.5</vdop><extensions><gom:speed>0.628</gom:speed></extensions></trkpt>
   <trkpt lat="59.2923235635" lon="34.652602024"><ele>163.849</ele><time>2026-08-16T14:38:21.588Z</time><hdop>3.0</hdop><vdop>2.5</vdop><extensions><gom:speed>0.613</gom:speed></extensions></trkpt>
   <trkpt lat="59.292324276" lon="34.6525867689"><ele>163.805</ele><time>2026-08-16T14:38:22.136Z</time><hdop>3.0</hdop><vdop>2.5</vdop><extensions><gom:speed>0.978</gom:speed></extensions></trkpt>
   <trkpt lat="59.2923253656" lon="34.652571933"><ele>163.779</ele><time>2026-08-16T14:38:22.707Z</time><hdop>3.0</hdop><vdop>2.5</vdop><extensions><gom:speed>1.048</gom:speed></extensions></trkpt>
   <trkpt lat="59.2923291794" lon="34.6525665686"><ele>163.932</ele><time>2026-08-16T14:38:23.689Z</time><hdop>3.0</hdop><vdop>2.5</vdop><extensions><gom:speed>0.739</gom:speed></extensions></trkpt>
   <trkpt lat="59.2923351724" lon="34.6525529899"><ele>164.34</ele><time>2026-08-16T14:38:24.474Z</time><hdop>3.0</hdop><vdop>2.5</vdop><extensions><gom:speed>0.851</gom:speed></extensions></trkpt>
   <trkpt lat="59.2923384833" lon="34.6525405847"><ele>164.735</ele><time>2026-08-16T14:38:25.136Z</time><hdop>3.0</hdop><vdop>2.5</vdop><extensions><gom:speed>0.907</gom:speed></extensions></trkpt>
   <trkpt lat="59.2923386928" lon="34.6525208872"><ele>165.54</ele><time>2026-08-16T14:38:26.136Z</time><hdop>3.0</hdop><vdop>2.5</vdop><extensions><gom:speed>1.016</gom:speed></extensions></trkpt>
   <trkpt lat="59.2923361783" lon="34.6525048778"><ele>166.021</ele><time>2026-08-16T14:38:26.928Z</time><hdop>3.0</hdop><vdop>2.5</vdop><extensions><gom:speed>1.027</gom:speed></extensions></trkpt>
   <trkpt lat="59.2923307719" lon="34.652489958"><ele>166.506</ele><time>2026-08-16T14:38:28.155Z</time><hdop>3.0</hdop><vdop>2.5</vdop><extensions><gom:speed>0.877</gom:speed></extensions></trkpt>
   <trkpt lat="59.2923278802" lon="34.6524868567"><ele>166.559</ele><time>2026-08-16T14:38:28.812Z</time><hdop>3.0</hdop><vdop>2.5</vdop><extensions><gom:speed>0.788</gom:speed></extensions></trkpt>
   <trkpt lat="59.2923229768" lon="34.6524831686"><ele>166.403</ele><time>2026-08-16T14:38:29.715Z</time><hdop>3.0</hdop><vdop>2.5</vdop><extensions><gom:speed>0.781</gom:speed></extensions></trkpt>
   <trkpt lat="59.2923179895" lon="34.6524793968"><ele>165.972</ele><time>2026-08-16T14:38:30.569Z</time><hdop>3.0</hdop><vdop>2.5</vdop><extensions><gom:speed>0.779</gom:speed></extensions></trkpt>
   <trkpt lat="59.292315475" lon="34.6524784748"><ele>165.553</ele><time>2026-08-16T14:38:31.136Z</time><hdop>3.0</hdop><vdop>2.5</vdop><extensions><gom:speed>0.736</gom:speed></extensions></trkpt>
   <trkpt lat="59.2923117869" lon="34.6524747867"><ele>165.302</ele><time>2026-08-16T14:38:31.767Z</time><hdop>3.0</hdop><vdop>2.5</vdop><extensions><gom:speed>0.727</gom:speed></extensions></trkpt>
   <trkpt lat="59.2923072607" lon="34.652468165"><ele>165.13</ele><time>2026-08-16T14:38:32.611Z</time><hdop>3.0</hdop><vdop>2.5</vdop><extensions><gom:speed>0.809</gom:speed></extensions></trkpt>
   <trkpt lat="59.2923050814" lon="34.652466321"><ele>164.522</ele><time>2026-08-16T14:38:33.136Z</time><hdop>3.0</hdop><vdop>2.5</vdop><extensions><gom:speed>0.841</gom:speed></extensions></trkpt>
   <trkpt lat="59.2922990883" lon="34.6524579391"><ele>164.159</ele><time>2026-08-16T14:38:34.054Z</time><hdop>3.0</hdop><vdop>2.5</vdop><extensions><gom:speed>0.878</gom:speed></extensions></trkpt>
   <trkpt lat="59.2922945621" lon="34.6524590287"><ele>163.844</ele><time>2026-08-16T14:38:34.692Z</time><hdop>3.0</hdop><vdop>2.5</vdop><extensions><gom:speed>0.845</gom:speed></extensions></trkpt>
   <trkpt lat="59.2922893653" lon="34.6524620462"><ele>163.625</ele><time>2026-08-16T14:38:35.516Z</time><hdop>3.0</hdop><vdop>2.5</vdop><extensions><gom:speed>0.807</gom:speed></extensions></trkpt>
   <trkpt lat="59.2922847972" lon="34.6524594478"><ele>163.495</ele><time>2026-08-16T14:38:36.095Z</time><hdop>3.0</hdop><vdop>2.5</vdop><extensions><gom:speed>0.849</gom:speed></extensions></trkpt>
   <trkpt lat="59.2922815702" lon="34.6524679974"><ele>163.133</ele><time>2026-08-16T14:38:37.008Z</time><hdop>3.0</hdop><vdop>2.5</vdop><extensions><gom:speed>0.719</gom:speed></extensions></trkpt>
   <trkpt lat="59.2922786784" lon="34.6524897903"><ele>163.047</ele><time>2026-08-16T14:38:38.136Z</time><hdop>3.0</hdop><vdop>2.5</vdop><extensions><gom:speed>0.827</gom:speed></extensions></trkpt>
   <trkpt lat="59.2922738588" lon="34.6524989266"><ele>162.996</ele><time>2026-08-16T14:38:38.775Z</time><hdop>3.0</hdop><vdop>2.5</vdop><extensions><gom:speed>0.838</gom:speed></extensions></trkpt>
   <trkpt lat="59.2922697936" lon="34.6525093202"><ele>162.937</ele><time>2026-08-16T14:38:39.295Z</time><hdop>3.0</hdop><vdop>2.5</vdop><extensions><gom:speed>0.864</gom:speed></extensions></trkpt>
   <trkpt lat="59.2922619984" lon="34.6525142655"><ele>162.902</ele><time>2026-08-16T14:38:40.129Z</time><hdop>3.0</hdop><vdop>2.5</vdop><extensions><gom:speed>0.921</gom:speed></extensions></trkpt>
   <trkpt lat="59.2922582685" lon="34.6525212225"><ele>162.623</ele><time>2026-08-16T14:38:40.669Z</time><hdop>3.0</hdop><vdop>2.5</vdop><extensions><gom:speed>0.91</gom:speed></extensions></trkpt>
   <trkpt lat="59.2922555863" lon="34.6525267545"><ele>162.558</ele><time>2026-08-16T14:38:41.136Z</time><hdop>3.0</hdop><vdop>2.5</vdop><extensions><gom:speed>0.941</gom:speed></extensions></trkpt>
   <trkpt lat="59.2922493837" lon="34.6525343821"><ele>162.519</ele><time>2026-08-16T14:38:41.935Z</time><hdop>3.0</hdop><vdop>2.5</vdop><extensions><gom:speed>0.944</gom:speed></extensions></trkpt>
   <trkpt lat="59.2922428877" lon="34.6525429316"><ele>162.487</ele><time>2026-08-16T14:38:42.750Z</time><hdop>3.0</hdop><vdop>2.5</vdop><extensions><gom:speed>1.001</gom:speed></extensions></trkpt>
   <trkpt lat="59.2922391996" lon="34.6525504753"><ele>162.512</ele><time>2026-08-16T14:38:43.290Z</time><hdop>3.0</hdop><vdop>2.5</vdop><extensions><gom:speed>1.035</gom:speed></extensions></trkpt>
   <trkpt lat="59.2922340867" lon="34.6525604498"><ele>162.527</ele><time>2026-08-16T14:38:43.987Z</time><hdop>3.0</hdop><vdop>2.5</vdop><extensions><gom:speed>1.044</gom:speed></extensions></trkpt>
   <trkpt lat="59.2922328713" lon="34.6525724359"><ele>162.353</ele><time>2026-08-16T14:38:44.527Z</time><hdop>3.0</hdop><vdop>2.5</vdop><extensions><gom:speed>1.048</gom:speed></extensions></trkpt>
   <trkpt lat="59.2922307758" lon="34.6525846735"><ele>162.194</ele><time>2026-08-16T14:38:45.136Z</time><hdop>3.0</hdop><vdop>2.5</vdop><extensions><gom:speed>1.046</gom:speed></extensions></trkpt>
   <trkpt lat="59.2922270878" lon="34.6525980845"><ele>162.099</ele><time>2026-08-16T14:38:45.852Z</time><hdop>3.0</hdop><vdop>2.5</vdop><extensions><gom:speed>1.053</gom:speed></extensions></trkpt>
   <trkpt lat="59.2922188735" lon="34.652615938"><ele>162.182</ele><time>2026-08-16T14:38:47.136Z</time><hdop>3.0</hdop><vdop>2.5</vdop><extensions><gom:speed>0.959</gom:speed></extensions></trkpt>
   <trkpt lat="59.2922117908" lon="34.652624739"><ele>162.232</ele><time>2026-08-16T14:38:47.991Z</time><hdop>3.0</hdop><vdop>2.5</vdop><extensions><gom:speed>0.984</gom:speed></extensions></trkpt>
   <trkpt lat="59.2922087733" lon="34.6526275888"><ele>162.233</ele><time>2026-08-16T14:38:48.472Z</time><hdop>3.0</hdop><vdop>2.5</vdop><extensions><gom:speed>0.945</gom:speed></extensions></trkpt>
   <trkpt lat="59.2922044986" lon="34.6526305225"><ele>162.247</ele><time>2026-08-16T14:38:49.136Z</time><hdop>3.0</hdop><vdop>2.5</vdop><extensions><gom:speed>0.9</gom:speed></extensions></trkpt>
   <trkpt lat="59.2921973739" lon="34.6526331209"><ele>162.256</ele><time>2026-08-16T14:38:49.994Z</time><hdop>3.0</hdop><vdop>2.5</vdop><extensions><gom:speed>0.924</gom:speed></extensions></trkpt>
   <trkpt lat="59.2921946917" lon="34.6526363898"><ele>162.245</ele><time>2026-08-16T14:38:50.573Z</time><hdop>3.0</hdop><vdop>2.5</vdop><extensions><gom:speed>0.898</gom:speed></extensions></trkpt>
   <trkpt lat="59.2921919676" lon="34.6526433468"><ele>162.239</ele><time>2026-08-16T14:38:51.093Z</time><hdop>3.0</hdop><vdop>2.5</vdop><extensions><gom:speed>0.881</gom:speed></extensions></trkpt>
   <trkpt lat="59.2921911713" lon="34.6526586857"><ele>162.098</ele><time>2026-08-16T14:38:52.136Z</time><hdop>3.0</hdop><vdop>2.5</vdop><extensions><gom:speed>0.804</gom:speed></extensions></trkpt>
   <trkpt lat="59.2921870642" lon="34.652672432"><ele>162.108</ele><time>2026-08-16T14:38:53.135Z</time><hdop>3.0</hdop><vdop>2.5</vdop><extensions><gom:speed>0.834</gom:speed></extensions></trkpt>
   <trkpt lat="59.2921830828" lon="34.6526843343"><ele>162.026</ele><time>2026-08-16T14:38:54.136Z</time><hdop>3.0</hdop><vdop>2.5</vdop><extensions><gom:speed>0.757</gom:speed></extensions></trkpt>
   <trkpt lat="59.2921809873" lon="34.6526890282"><ele>161.977</ele><time>2026-08-16T14:38:54.628Z</time><hdop>3.0</hdop><vdop>2.5</vdop><extensions><gom:speed>0.747</gom:speed></extensions></trkpt>
   <trkpt lat="59.2921791852" lon="34.6526926324"><ele>161.808</ele><time>2026-08-16T14:38:55.136Z</time><hdop>3.0</hdop><vdop>2.5</vdop><extensions><gom:speed>0.73</gom:speed></extensions></trkpt>
   <trkpt lat="59.2921768802" lon="34.652696991"><ele>161.707</ele><time>2026-08-16T14:38:55.609Z</time><hdop>3.0</hdop><vdop>2.5</vdop><extensions><gom:speed>0.735</gom:speed></extensions></trkpt>
   <trkpt lat="59.2921774669" lon="34.6526974939"><ele>161.511</ele><time>2026-08-16T14:38:56.136Z</time><hdop>3.0</hdop><vdop>2.5</vdop><extensions><gom:speed>0.619</gom:speed></extensions></trkpt>
   <trkpt lat="59.2921752876" lon="34.6527044509"><ele>161.394</ele><time>2026-08-16T14:38:56.973Z</time><hdop>3.0</hdop><vdop>2.5</vdop><extensions><gom:speed>0.748</gom:speed></extensions></trkpt>
   <trkpt lat="59.2921726892" lon="34.6527157664"><ele>161.216</ele><time>2026-08-16T14:38:58.014Z</time><hdop>3.0</hdop><vdop>2.5</vdop><extensions><gom:speed>0.843</gom:speed></extensions></trkpt>
   <trkpt lat="59.2921738627" lon="34.6527207956"><ele>160.969</ele><time>2026-08-16T14:38:58.593Z</time><hdop>3.0</hdop><vdop>2.5</vdop><extensions><gom:speed>0.805</gom:speed></extensions></trkpt>
   <trkpt lat="59.2921764611" lon="34.6527283393"><ele>160.86</ele><time>2026-08-16T14:38:59.136Z</time><hdop>3.0</hdop><vdop>2.5</vdop><extensions><gom:speed>0.873</gom:speed></extensions></trkpt>
   <trkpt lat="59.292182077" lon="34.652737727"><ele>160.566</ele><time>2026-08-16T14:39:00.136Z</time><hdop>3.0</hdop><vdop>2.5</vdop><extensions><gom:speed>0.698</gom:speed></extensions></trkpt>
   <trkpt lat="59.2921811969" lon="34.6527455222"><ele>160.39</ele><time>2026-08-16T14:39:00.949Z</time><hdop>3.0</hdop><vdop>2.5</vdop><extensions><gom:speed>0.695</gom:speed></extensions></trkpt>
   <trkpt lat="59.2921757905" lon="34.6527458575"><ele>160.042</ele><time>2026-08-16T14:39:02.028Z</time><hdop>3.0</hdop><vdop>2.5</vdop><extensions><gom:speed>0.65</gom:speed></extensions></trkpt>
   <trkpt lat="59.2921716834" lon="34.6527414989"><ele>159.715</ele><time>2026-08-16T14:39:02.696Z</time><hdop>3.0</hdop><vdop>2.5</vdop><extensions><gom:speed>0.593</gom:speed></extensions></trkpt>
   <trkpt lat="59.2921671991" lon="34.6527370565"><ele>159.439</ele><time>2026-08-16T14:39:03.187Z</time><hdop>3.0</hdop><vdop>2.5</vdop><extensions><gom:speed>0.693</gom:speed></extensions></trkpt>
   <trkpt lat="59.2921605774" lon="34.6527360506"><ele>159.273</ele><time>2026-08-16T14:39:04.070Z</time><hdop>3.0</hdop><vdop>2.5</vdop><extensions><gom:speed>0.728</gom:speed></extensions></trkpt>
   <trkpt lat="59.2921548777" lon="34.6527392358"><ele>159.334</ele><time>2026-08-16T14:39:04.973Z</time><hdop>3.0</hdop><vdop>2.5</vdop><extensions><gom:speed>0.666</gom:speed></extensions></trkpt>
   <trkpt lat="59.2921520698" lon="34.652746528"><ele>159.288</ele><time>2026-08-16T14:39:05.768Z</time><hdop>3.0</hdop><vdop>2.5</vdop><extensions><gom:speed>0.652</gom:speed></extensions></trkpt>
   <trkpt lat="59.2921481722" lon="34.6527572569"><ele>159.295</ele><time>2026-08-16T14:39:06.789Z</time><hdop>3.0</hdop><vdop>2.5</vdop><extensions><gom:speed>0.677</gom:speed></extensions></trkpt>
   <trkpt lat="59.2921435621" lon="34.6527656388"><ele>159.459</ele><time>2026-08-16T14:39:07.769Z</time><hdop>3.0</hdop><vdop>2.5</vdop><extensions><gom:speed>0.634</gom:speed></extensions></trkpt>
   <trkpt lat="59.2921383653" lon="34.6527716737"><ele>159.666</ele><time>2026-08-16T14:39:08.575Z</time><hdop>3.0</hdop><vdop>2.5</vdop><extensions><gom:speed>0.702</gom:speed></extensions></trkpt>
   <trkpt lat="59.2921343839" lon="34.6527769543"><ele>159.833</ele><time>2026-08-16T14:39:09.136Z</time><hdop>3.0</hdop><vdop>2.5</vdop><extensions><gom:speed>0.721</gom:speed></extensions></trkpt>
   <trkpt lat="59.2921296901" lon="34.6527906168"><ele>159.796</ele><time>2026-08-16T14:39:10.136Z</time><hdop>3.0</hdop><vdop>2.5</vdop><extensions><gom:speed>0.771</gom:speed></extensions></trkpt>
   <trkpt lat="59.2921295643" lon="34.6528076321"><ele>159.773</ele><time>2026-08-16T14:39:11.127Z</time><hdop>3.0</hdop><vdop>2.5</vdop><extensions><gom:speed>0.814</gom:speed></extensions></trkpt>
   <trkpt lat="59.2921283909" lon="34.6528213784"><ele>159.8</ele><time>2026-08-16T14:39:11.971Z</time><hdop>3.0</hdop><vdop>2.5</vdop><extensions><gom:speed>0.747</gom:speed></extensions></trkpt>
   <trkpt lat="59.2921229846" lon="34.6528320234"><ele>160.018</ele><time>2026-08-16T14:39:12.746Z</time><hdop>3.0</hdop><vdop>2.5</vdop><extensions><gom:speed>0.79</gom:speed></extensions></trkpt>
   <trkpt lat="59.292118165" lon="34.65283546"><ele>159.892</ele><time>2026-08-16T14:39:13.316Z</time><hdop>3.0</hdop><vdop>2.5</vdop><extensions><gom:speed>0.767</gom:speed></extensions></trkpt>
   <trkpt lat="59.2921114594" lon="34.6528384775"><ele>159.817</ele><time>2026-08-16T14:39:14.111Z</time><hdop>3.0</hdop><vdop>2.5</vdop><extensions><gom:speed>0.826</gom:speed></extensions></trkpt>
   <trkpt lat="59.2921085677" lon="34.6528347895"><ele>159.594</ele><time>2026-08-16T14:39:14.867Z</time><hdop>3.0</hdop><vdop>2.5</vdop><extensions><gom:speed>0.66</gom:speed></extensions></trkpt>
   <trkpt lat="59.292100563" lon="34.6528351247"><ele>159.974</ele><time>2026-08-16T14:39:15.613Z</time><hdop>3.0</hdop><vdop>2.5</vdop><extensions><gom:speed>0.922</gom:speed></extensions></trkpt>
   <trkpt lat="59.292096372" lon="34.6528346218"><ele>160.212</ele><time>2026-08-16T14:39:16.136Z</time><hdop>3.0</hdop><vdop>2.5</vdop><extensions><gom:speed>0.852</gom:speed></extensions></trkpt>
   <trkpt lat="59.2920916781" lon="34.6528358791"><ele>160.355</ele><time>2026-08-16T14:39:16.712Z</time><hdop>3.0</hdop><vdop>2.5</vdop><extensions><gom:speed>0.857</gom:speed></extensions></trkpt>
   <trkpt lat="59.292087571" lon="34.6528357953"><ele>160.29</ele><time>2026-08-16T14:39:17.291Z</time><hdop>3.0</hdop><vdop>2.5</vdop><extensions><gom:speed>0.853</gom:speed></extensions></trkpt>
   <trkpt lat="59.2920809912" lon="34.6528374717"><ele>160.523</ele><time>2026-08-16T14:39:18.136Z</time><hdop>3.0</hdop><vdop>2.5</vdop><extensions><gom:speed>0.864</gom:speed></extensions></trkpt>
   <trkpt lat="59.2920723998" lon="34.6528445963"><ele>160.647</ele><time>2026-08-16T14:39:19.135Z</time><hdop>3.0</hdop><vdop>2.5</vdop><extensions><gom:speed>0.897</gom:speed></extensions></trkpt>
   <trkpt lat="59.292065359" lon="34.6528482843"><ele>160.721</ele><time>2026-08-16T14:39:19.892Z</time><hdop>3.0</hdop><vdop>2.5</vdop><extensions><gom:speed>0.898</gom:speed></extensions></trkpt>
   <trkpt lat="59.2920596593" lon="34.65284753"><ele>160.884</ele><time>2026-08-16T14:39:20.471Z</time><hdop>3.0</hdop><vdop>2.5</vdop><extensions><gom:speed>0.89</gom:speed></extensions></trkpt>
   <trkpt lat="59.2920544625" lon="34.6528499607"><ele>160.618</ele><time>2026-08-16T14:39:21.136Z</time><hdop>3.0</hdop><vdop>2.5</vdop><extensions><gom:speed>0.822</gom:speed></extensions></trkpt>
   <trkpt lat="59.2920516965" lon="34.6528573368"><ele>160.459</ele><time>2026-08-16T14:39:21.669Z</time><hdop>3.0</hdop><vdop>2.5</vdop><extensions><gom:speed>0.814</gom:speed></extensions></trkpt>
   <trkpt lat="59.2920512774" lon="34.6528648805"><ele>160.457</ele><time>2026-08-16T14:39:22.136Z</time><hdop>3.0</hdop><vdop>2.5</vdop><extensions><gom:speed>0.795</gom:speed></extensions></trkpt>
   <trkpt lat="59.2920517803" lon="34.6528729271"><ele>160.456</ele><time>2026-08-16T14:39:22.631Z</time><hdop>3.0</hdop><vdop>2.5</vdop><extensions><gom:speed>0.797</gom:speed></extensions></trkpt>
   <trkpt lat="59.292050984" lon="34.6528799679"><ele>160.298</ele><time>2026-08-16T14:39:23.136Z</time><hdop>3.0</hdop><vdop>2.5</vdop><extensions><gom:speed>0.793</gom:speed></extensions></trkpt>
   <trkpt lat="59.292047296" lon="34.6528881822"><ele>160.204</ele><time>2026-08-16T14:39:23.848Z</time><hdop>3.0</hdop><vdop>2.5</vdop><extensions><gom:speed>0.798</gom:speed></extensions></trkpt>
   <trkpt lat="59.2920405904" lon="34.6528907806"><ele>160.158</ele><time>2026-08-16T14:39:24.535Z</time><hdop>3.0</hdop><vdop>2.5</vdop><extensions><gom:speed>0.804</gom:speed></extensions></trkpt>
   <trkpt lat="59.292034765" lon="34.6528911997"><ele>159.933</ele><time>2026-08-16T14:39:25.136Z</time><hdop>3.0</hdop><vdop>2.5</vdop><extensions><gom:speed>0.826</gom:speed></extensions></trkpt>
   <trkpt lat="59.2920255868" lon="34.6528953906"><ele>159.798</ele><time>2026-08-16T14:39:26.115Z</time><hdop>3.0</hdop><vdop>2.5</vdop><extensions><gom:speed>0.881</gom:speed></extensions></trkpt>
   <trkpt lat="59.2920193842" lon="34.6529019285"><ele>159.688</ele><time>2026-08-16T14:39:26.890Z</time><hdop>3.0</hdop><vdop>2.5</vdop><extensions><gom:speed>0.867</gom:speed></extensions></trkpt>
   <trkpt lat="59.2920132654" lon="34.6529080473"><ele>159.704</ele><time>2026-08-16T14:39:27.656Z</time><hdop>3.0</hdop><vdop>2.5</vdop><extensions><gom:speed>0.905</gom:speed></extensions></trkpt>
   <trkpt lat="59.2920100803" lon="34.6529134955"><ele>159.753</ele><time>2026-08-16T14:39:28.136Z</time><hdop>3.0</hdop><vdop>2.5</vdop><extensions><gom:speed>0.905</gom:speed></extensions></trkpt>
   <trkpt lat="59.2920062666" lon="34.6529242244"><ele>159.782</ele><time>2026-08-16T14:39:28.853Z</time><hdop>3.0</hdop><vdop>2.5</vdop><extensions><gom:speed>0.904</gom:speed></extensions></trkpt>
   <trkpt lat="59.2920025785" lon="34.6529402338"><ele>159.809</ele><time>2026-08-16T14:39:29.668Z</time><hdop>3.0</hdop><vdop>2.5</vdop><extensions><gom:speed>1.022</gom:speed></extensions></trkpt>
   <trkpt lat="59.2919994772" lon="34.6529488672"><ele>159.826</ele><time>2026-08-16T14:39:30.128Z</time><hdop>3.0</hdop><vdop>2.5</vdop><extensions><gom:speed>1.052</gom:speed></extensions></trkpt>
   <trkpt lat="59.2919936937" lon="34.6529589254"><ele>159.803</ele><time>2026-08-16T14:39:30.915Z</time><hdop>3.0</hdop><vdop>2.5</vdop><extensions><gom:speed>1.032</gom:speed></extensions></trkpt>
   <trkpt lat="59.2919876587" lon="34.6529647928"><ele>159.795</ele><time>2026-08-16T14:39:31.611Z</time><hdop>3.0</hdop><vdop>2.5</vdop><extensions><gom:speed>1.038</gom:speed></extensions></trkpt>
   <trkpt lat="59.2919830906" lon="34.652969319"><ele>159.887</ele><time>2026-08-16T14:39:32.136Z</time><hdop>3.0</hdop><vdop>2.5</vdop><extensions><gom:speed>1.029</gom:speed></extensions></trkpt>
   <trkpt lat="59.2919749601" lon="34.6529733423"><ele>159.942</ele><time>2026-08-16T14:39:32.976Z</time><hdop>3.0</hdop><vdop>2.5</vdop><extensions><gom:speed>0.984</gom:speed></extensions></trkpt>
   <trkpt lat="59.2919656981" lon="34.652968397"><ele>160.269</ele><time>2026-08-16T14:39:33.869Z</time><hdop>3.0</hdop><vdop>2.5</vdop><extensions><gom:speed>1.033</gom:speed></extensions></trkpt>
   <trkpt lat="59.2919596632" lon="34.6529587578"><ele>160.453</ele><time>2026-08-16T14:39:34.507Z</time><hdop>3.0</hdop><vdop>2.5</vdop><extensions><gom:speed>0.996</gom:speed></extensions></trkpt>
   <trkpt lat="59.291954173" lon="34.6529495377"><ele>160.705</ele><time>2026-08-16T14:39:35.136Z</time><hdop>3.0</hdop><vdop>2.5</vdop><extensions><gom:speed>0.99</gom:speed></extensions></trkpt>
   <trkpt lat="59.2919456654" lon="34.6529396471"><ele>160.855</ele><time>2026-08-16T14:39:36.107Z</time><hdop>3.0</hdop><vdop>2.5</vdop><extensions><gom:speed>0.982</gom:speed></extensions></trkpt>
   <trkpt lat="59.2919384989" lon="34.6529270742"><ele>160.847</ele><time>2026-08-16T14:39:37.030Z</time><hdop>3.0</hdop><vdop>2.5</vdop><extensions><gom:speed>0.99</gom:speed></extensions></trkpt>
   <trkpt lat="59.2919326734" lon="34.6529076282"><ele>160.557</ele><time>2026-08-16T14:39:38.136Z</time><hdop>3.0</hdop><vdop>2.5</vdop><extensions><gom:speed>0.947</gom:speed></extensions></trkpt>
   <trkpt lat="59.2919274767" lon="34.652896145"><ele>160.384</ele><time>2026-08-16T14:39:38.934Z</time><hdop>3.0</hdop><vdop>2.5</vdop><extensions><gom:speed>0.964</gom:speed></extensions></trkpt>
   <trkpt lat="59.2919218608" lon="34.652883656"><ele>160.083</ele><time>2026-08-16T14:39:39.847Z</time><hdop>3.0</hdop><vdop>2.5</vdop><extensions><gom:speed>0.979</gom:speed></extensions></trkpt>
   <trkpt lat="59.2919170831" lon="34.6528723404"><ele>159.817</ele><time>2026-08-16T14:39:40.632Z</time><hdop>3.0</hdop><vdop>2.5</vdop><extensions><gom:speed>0.991</gom:speed></extensions></trkpt>
   <trkpt lat="59.2919144847" lon="34.6528656349"><ele>159.467</ele><time>2026-08-16T14:39:41.136Z</time><hdop>3.0</hdop><vdop>2.5</vdop><extensions><gom:speed>0.96</gom:speed></extensions></trkpt>
   <trkpt lat="59.2919092879" lon="34.652855828"><ele>159.258</ele><time>2026-08-16T14:39:41.908Z</time><hdop>3.0</hdop><vdop>2.5</vdop><extensions><gom:speed>0.962</gom:speed></extensions></trkpt>
   <trkpt lat="59.2919040912" lon="34.6528504636"><ele>159.038</ele><time>2026-08-16T14:39:42.595Z</time><hdop>3.0</hdop><vdop>2.5</vdop><extensions><gom:speed>0.994</gom:speed></extensions></trkpt>
   <trkpt lat="59.2918993973" lon="34.6528465241"><ele>158.908</ele><time>2026-08-16T14:39:43.056Z</time><hdop>3.0</hdop><vdop>2.5</vdop><extensions><gom:speed>1.041</gom:speed></extensions></trkpt>
   <trkpt lat="59.2918915602" lon="34.6528435905"><ele>158.774</ele><time>2026-08-16T14:39:43.969Z</time><hdop>3.0</hdop><vdop>2.5</vdop><extensions><gom:speed>0.966</gom:speed></extensions></trkpt>
   <trkpt lat="59.2918871597" lon="34.6528418303"><ele>158.625</ele><time>2026-08-16T14:39:44.489Z</time><hdop>3.0</hdop><vdop>2.5</vdop><extensions><gom:speed>0.962</gom:speed></extensions></trkpt>
   <trkpt lat="59.2918811666" lon="34.6528377231"><ele>158.615</ele><time>2026-08-16T14:39:45.136Z</time><hdop>3.0</hdop><vdop>2.5</vdop><extensions><gom:speed>1.005</gom:speed></extensions></trkpt>
   <trkpt lat="59.2918738744" lon="34.6528333645"><ele>158.609</ele><time>2026-08-16T14:39:45.872Z</time><hdop>3.0</hdop><vdop>2.5</vdop><extensions><gom:speed>1.0</gom:speed></extensions></trkpt>
   <trkpt lat="59.2918667917" lon="34.6528316882"><ele>158.587</ele><time>2026-08-16T14:39:46.570Z</time><hdop>3.0</hdop><vdop>2.5</vdop><extensions><gom:speed>1.012</gom:speed></extensions></trkpt>
   <trkpt lat="59.2918622655" lon="34.6528283354"><ele>158.574</ele><time>2026-08-16T14:39:47.051Z</time><hdop>3.0</hdop><vdop>2.5</vdop><extensions><gom:speed>1.043</gom:speed></extensions></trkpt>
   <trkpt lat="59.2918560628" lon="34.6528262399"><ele>158.624</ele><time>2026-08-16T14:39:47.709Z</time><hdop>3.0</hdop><vdop>2.5</vdop><extensions><gom:speed>1.035</gom:speed></extensions></trkpt>
   <trkpt lat="59.2918492735" lon="34.6528237254"><ele>158.722</ele><time>2026-08-16T14:39:48.435Z</time><hdop>3.0</hdop><vdop>2.5</vdop><extensions><gom:speed>1.039</gom:speed></extensions></trkpt>
   <trkpt lat="59.2918421908" lon="34.6528215461"><ele>158.574</ele><time>2026-08-16T14:39:49.136Z</time><hdop>3.0</hdop><vdop>2.5</vdop><extensions><gom:speed>1.059</gom:speed></extensions></trkpt>
   <trkpt lat="59.2918341861" lon="34.6528197859"><ele>158.486</ele><time>2026-08-16T14:39:49.907Z</time><hdop>3.0</hdop><vdop>2.5</vdop><extensions><gom:speed>1.06</gom:speed></extensions></trkpt>
   <trkpt lat="59.2918260975" lon="34.6528236415"><ele>158.457</ele><time>2026-08-16T14:39:50.712Z</time><hdop>3.0</hdop><vdop>2.5</vdop><extensions><gom:speed>1.059</gom:speed></extensions></trkpt>
   <trkpt lat="59.2918205655" lon="34.6528291736"><ele>158.434</ele><time>2026-08-16T14:39:51.212Z</time><hdop>3.0</hdop><vdop>2.5</vdop><extensions><gom:speed>1.118</gom:speed></extensions></trkpt>
   <trkpt lat="59.2918117645" lon="34.6528355438"><ele>158.42</ele><time>2026-08-16T14:39:52.047Z</time><hdop>3.0</hdop><vdop>2.5</vdop><extensions><gom:speed>1.14</gom:speed></extensions></trkpt>
   <trkpt lat="59.291805981" lon="34.6528443448"><ele>158.256</ele><time>2026-08-16T14:39:52.734Z</time><hdop>3.0</hdop><vdop>2.5</vdop><extensions><gom:speed>1.093</gom:speed></extensions></trkpt>
   <trkpt lat="59.2918003651" lon="34.652853062"><ele>158.396</ele><time>2026-08-16T14:39:53.392Z</time><hdop>3.0</hdop><vdop>2.5</vdop><extensions><gom:speed>1.121</gom:speed></extensions></trkpt>
   <trkpt lat="59.2917955874" lon="34.6528597675"><ele>158.479</ele><time>2026-08-16T14:39:53.912Z</time><hdop>3.0</hdop><vdop>2.5</vdop><extensions><gom:speed>1.112</gom:speed></extensions></trkpt>
   <trkpt lat="59.2917904745" lon="34.6528726757"><ele>158.58</ele><time>2026-08-16T14:39:54.776Z</time><hdop>3.0</hdop><vdop>2.5</vdop><extensions><gom:speed>1.055</gom:speed></extensions></trkpt>
   <trkpt lat="59.2917888819" lon="34.652880387"><ele>158.479</ele><time>2026-08-16T14:39:55.276Z</time><hdop>3.0</hdop><vdop>2.5</vdop><extensions><gom:speed>1.029</gom:speed></extensions></trkpt>
   <trkpt lat="59.2917837689" lon="34.6528912835"><ele>158.419</ele><time>2026-08-16T14:39:56.032Z</time><hdop>3.0</hdop><vdop>2.5</vdop><extensions><gom:speed>1.025</gom:speed></extensions></trkpt>
   <trkpt lat="59.2917793684" lon="34.6528962288"><ele>158.332</ele><time>2026-08-16T14:39:56.729Z</time><hdop>3.0</hdop><vdop>2.5</vdop><extensions><gom:speed>0.977</gom:speed></extensions></trkpt>
   <trkpt lat="59.2917690587" lon="34.6529027667"><ele>158.323</ele><time>2026-08-16T14:39:58.113Z</time><hdop>3.0</hdop><vdop>2.5</vdop><extensions><gom:speed>0.918</gom:speed></extensions></trkpt>
   <trkpt lat="59.2917637781" lon="34.6529023476"><ele>158.335</ele><time>2026-08-16T14:39:58.888Z</time><hdop>3.0</hdop><vdop>2.5</vdop><extensions><gom:speed>0.911</gom:speed></extensions></trkpt>
   <trkpt lat="59.2917603834" lon="34.6528955583"><ele>158.384</ele><time>2026-08-16T14:39:59.389Z</time><hdop>3.0</hdop><vdop>2.5</vdop><extensions><gom:speed>0.945</gom:speed></extensions></trkpt>
   <trkpt lat="59.29175548" lon="34.6528868411"><ele>158.438</ele><time>2026-08-16T14:40:00.136Z</time><hdop>3.0</hdop><vdop>2.5</vdop><extensions><gom:speed>0.9</gom:speed></extensions></trkpt>
   <trkpt lat="59.2917511633" lon="34.6528812252"><ele>158.47</ele><time>2026-08-16T14:40:00.733Z</time><hdop>3.0</hdop><vdop>2.5</vdop><extensions><gom:speed>0.889</gom:speed></extensions></trkpt>
   <trkpt lat="59.2917453798" lon="34.65287343"><ele>158.393</ele><time>2026-08-16T14:40:01.656Z</time><hdop>3.0</hdop><vdop>2.5</vdop><extensions><gom:speed>0.866</gom:speed></extensions></trkpt>
   <trkpt lat="59.2917423623" lon="34.652870664"><ele>158.158</ele><time>2026-08-16T14:40:02.136Z</time><hdop>3.0</hdop><vdop>2.5</vdop><extensions><gom:speed>0.915</gom:speed></extensions></trkpt>
   <trkpt lat="59.2917366626" lon="34.6528694905"><ele>158.018</ele><time>2026-08-16T14:40:02.814Z</time><hdop>3.0</hdop><vdop>2.5</vdop><extensions><gom:speed>0.924</gom:speed></extensions></trkpt>
   <trkpt lat="59.2917303762" lon="34.6528737653"><ele>157.841</ele><time>2026-08-16T14:40:03.727Z</time><hdop>3.0</hdop><vdop>2.5</vdop><extensions><gom:speed>0.948</gom:speed></extensions></trkpt>
   <trkpt lat="59.2917285741" lon="34.6528781239"><ele>157.506</ele><time>2026-08-16T14:40:04.188Z</time><hdop>3.0</hdop><vdop>2.5</vdop><extensions><gom:speed>0.959</gom:speed></extensions></trkpt>
   <trkpt lat="59.2917214914" lon="34.6528866734"><ele>157.305</ele><time>2026-08-16T14:40:05.131Z</time><hdop>3.0</hdop><vdop>2.5</vdop><extensions><gom:speed>0.958</gom:speed></extensions></trkpt>
   <trkpt lat="59.291718893" lon="34.6528960612"><ele>157.283</ele><time>2026-08-16T14:40:05.896Z</time><hdop>3.0</hdop><vdop>2.5</vdop><extensions><gom:speed>0.914</gom:speed></extensions></trkpt>
   <trkpt lat="59.2917151631" lon="34.6529093884"><ele>157.447</ele><time>2026-08-16T14:40:07.136Z</time><hdop>3.0</hdop><vdop>2.5</vdop><extensions><gom:speed>0.804</gom:speed></extensions></trkpt>
   <trkpt lat="59.2917116846" lon="34.6529158425"><ele>157.544</ele><time>2026-08-16T14:40:07.830Z</time><hdop>3.0</hdop><vdop>2.5</vdop><extensions><gom:speed>0.795</gom:speed></extensions></trkpt>
   <trkpt lat="59.2917076613" lon="34.6529232185"><ele>157.61</ele><time>2026-08-16T14:40:08.595Z</time><hdop>3.0</hdop><vdop>2.5</vdop><extensions><gom:speed>0.835</gom:speed></extensions></trkpt>
   <trkpt lat="59.291704979" lon="34.6529269904"><ele>157.637</ele><time>2026-08-16T14:40:09.136Z</time><hdop>3.0</hdop><vdop>2.5</vdop><extensions><gom:speed>0.854</gom:speed></extensions></trkpt>
   <trkpt lat="59.2916988603" lon="34.652932271"><ele>157.859</ele><time>2026-08-16T14:40:10.135Z</time><hdop>3.0</hdop><vdop>2.5</vdop><extensions><gom:speed>0.875</gom:speed></extensions></trkpt>
   <trkpt lat="59.2916940826" lon="34.6529377192"><ele>157.991</ele><time>2026-08-16T14:40:10.813Z</time><hdop>3.0</hdop><vdop>2.5</vdop><extensions><gom:speed>0.866</gom:speed></extensions></trkpt>
   <trkpt lat="59.2916895983" lon="34.6529420778"><ele>158.251</ele><time>2026-08-16T14:40:11.452Z</time><hdop>3.0</hdop><vdop>2.5</vdop><extensions><gom:speed>0.952</gom:speed></extensions></trkpt>
   <trkpt lat="59.291685072" lon="34.6529471908"><ele>158.406</ele><time>2026-08-16T14:40:11.972Z</time><hdop>3.0</hdop><vdop>2.5</vdop><extensions><gom:speed>1.002</gom:speed></extensions></trkpt>
   <trkpt lat="59.2916787856" lon="34.6529488672"><ele>158.578</ele><time>2026-08-16T14:40:12.796Z</time><hdop>3.0</hdop><vdop>2.5</vdop><extensions><gom:speed>0.952</gom:speed></extensions></trkpt>
   <trkpt lat="59.291674888" lon="34.6529473584"><ele>158.72</ele><time>2026-08-16T14:40:13.336Z</time><hdop>3.0</hdop><vdop>2.5</vdop><extensions><gom:speed>0.909</gom:speed></extensions></trkpt>
   <trkpt lat="59.2916694817" lon="34.6529487833"><ele>158.806</ele><time>2026-08-16T14:40:13.974Z</time><hdop>3.0</hdop><vdop>2.5</vdop><extensions><gom:speed>0.891</gom:speed></extensions></trkpt>
   <trkpt lat="59.2916657936" lon="34.6529510465"><ele>158.897</ele><time>2026-08-16T14:40:14.612Z</time><hdop>3.0</hdop><vdop>2.5</vdop><extensions><gom:speed>0.861</gom:speed></extensions></trkpt>
   <trkpt lat="59.2916622732" lon="34.6529567462"><ele>159.505</ele><time>2026-08-16T14:40:15.136Z</time><hdop>3.0</hdop><vdop>2.5</vdop><extensions><gom:speed>0.901</gom:speed></extensions></trkpt>
   <trkpt lat="59.2916583757" lon="34.6529639546"><ele>159.869</ele><time>2026-08-16T14:40:15.751Z</time><hdop>3.0</hdop><vdop>2.5</vdop><extensions><gom:speed>0.905</gom:speed></extensions></trkpt>
   <trkpt lat="59.2916523826" lon="34.652970241"><ele>160.231</ele><time>2026-08-16T14:40:16.575Z</time><hdop>3.0</hdop><vdop>2.5</vdop><extensions><gom:speed>0.888</gom:speed></extensions></trkpt>
   <trkpt lat="59.2916485688" lon="34.6529757731"><ele>160.347</ele><time>2026-08-16T14:40:17.135Z</time><hdop>3.0</hdop><vdop>2.5</vdop><extensions><gom:speed>0.865</gom:speed></extensions></trkpt>
   <trkpt lat="59.2916445874" lon="34.652986921"><ele>160.416</ele><time>2026-08-16T14:40:17.910Z</time><hdop>3.0</hdop><vdop>2.5</vdop><extensions><gom:speed>0.861</gom:speed></extensions></trkpt>
   <trkpt lat="59.2916412766" lon="34.6529927883"><ele>160.774</ele><time>2026-08-16T14:40:18.450Z</time><hdop>3.0</hdop><vdop>2.5</vdop><extensions><gom:speed>0.856</gom:speed></extensions></trkpt>
   <trkpt lat="59.2916388877" lon="34.6529960573"><ele>161.007</ele><time>2026-08-16T14:40:19.136Z</time><hdop>3.0</hdop><vdop>2.5</vdop><extensions><gom:speed>0.612</gom:speed></extensions></trkpt>
   <trkpt lat="59.2916381753" lon="34.6529965602"><ele>161.162</ele><time>2026-08-16T14:40:20.136Z</time><hdop>3.0</hdop><vdop>2.5</vdop><extensions><gom:speed>0.328</gom:speed></extensions></trkpt>
   <trkpt lat="59.2916378819" lon="34.6529956382"><ele>161.254</ele><time>2026-08-16T14:40:21.031Z</time><hdop>3.0</hdop><vdop>2.5</vdop><extensions><gom:speed>0.259</gom:speed></extensions></trkpt>
   <trkpt lat="59.2916379657" lon="34.6529919501"><ele>161.242</ele><time>2026-08-16T14:40:21.629Z</time><hdop>3.0</hdop><vdop>2.5</vdop><extensions><gom:speed>0.292</gom:speed></extensions></trkpt>
   <trkpt lat="59.2916357864" lon="34.6529892679"><ele>161.526</ele><time>2026-08-16T14:40:22.136Z</time><hdop>3.0</hdop><vdop>2.5</vdop><extensions><gom:speed>0.39</gom:speed></extensions></trkpt>
   <trkpt lat="59.2916326851" lon="34.652986921"><ele>161.632</ele><time>2026-08-16T14:40:23.136Z</time><hdop>3.0</hdop><vdop>2.5</vdop><extensions><gom:speed>0.135</gom:speed></extensions></trkpt>
   <trkpt lat="59.2916313859" lon="34.6529854961"><ele>161.701</ele><time>2026-08-16T14:40:24.136Z</time><hdop>3.0</hdop><vdop>2.5</vdop><extensions><gom:speed>0.066</gom:speed></extensions></trkpt>
   <trkpt lat="59.2916298772" lon="34.6529837359"><ele>161.778</ele><time>2026-08-16T14:40:25.135Z</time><hdop>3.0</hdop><vdop>2.5</vdop><extensions><gom:speed>0.073</gom:speed></extensions></trkpt>
   <trkpt lat="59.2916287875" lon="34.652981389"><ele>161.855</ele><time>2026-08-16T14:40:26.136Z</time><hdop>3.0</hdop><vdop>2.5</vdop><extensions><gom:speed>0.082</gom:speed></extensions></trkpt>
   <trkpt lat="59.2916275722" lon="34.6529797964"><ele>161.923</ele><time>2026-08-16T14:40:27.136Z</time><hdop>3.0</hdop><vdop>2.5</vdop><extensions><gom:speed>0.02</gom:speed></extensions></trkpt>
   <trkpt lat="59.2916268597" lon="34.6529780362"><ele>162.01</ele><time>2026-08-16T14:40:28.136Z</time><hdop>3.0</hdop><vdop>2.5</vdop><extensions><gom:speed>0.015</gom:speed></extensions></trkpt>
   <trkpt lat="59.2916265663" lon="34.6529770304"><ele>162.103</ele><time>2026-08-16T14:40:29.136Z</time><hdop>3.0</hdop><vdop>2.5</vdop><extensions><gom:speed>0.058</gom:speed></extensions></trkpt>
   <trkpt lat="59.2916259796" lon="34.6529764436"><ele>162.188</ele><time>2026-08-16T14:40:30.135Z</time><hdop>3.0</hdop><vdop>2.5</vdop><extensions><gom:speed>0.056</gom:speed></extensions></trkpt>
   <trkpt lat="59.2916257701" lon="34.6529756893"><ele>162.27</ele><time>2026-08-16T14:40:31.136Z</time><hdop>3.0</hdop><vdop>2.5</vdop><extensions><gom:speed>0.012</gom:speed></extensions></trkpt>
   <trkpt lat="59.2916257701" lon="34.6529749349"><ele>162.334</ele><time>2026-08-16T14:40:32.136Z</time><hdop>3.0</hdop><vdop>2.5</vdop><extensions><gom:speed>0.014</gom:speed></extensions></trkpt>
   <trkpt lat="59.2916258958" lon="34.652974432"><ele>162.493</ele><time>2026-08-16T14:40:33.136Z</time><hdop>3.0</hdop><vdop>2.5</vdop><extensions><gom:speed>0.065</gom:speed></extensions></trkpt>
   <trkpt lat="59.2916259796" lon="34.6529741805"><ele>162.588</ele><time>2026-08-16T14:40:33.830Z</time><hdop>3.0</hdop><vdop>2.5</vdop><extensions><gom:speed>0.098</gom:speed></extensions></trkpt>
   <trkpt lat="59.2916260634" lon="34.6529751863"><ele>162.581</ele><time>2026-08-16T14:40:35.136Z</time><hdop>3.0</hdop><vdop>2.5</vdop><extensions><gom:speed>0.042</gom:speed></extensions></trkpt>
   <trkpt lat="59.2916260634" lon="34.6529743482"><ele>162.566</ele><time>2026-08-16T14:40:36.136Z</time><hdop>3.0</hdop><vdop>2.5</vdop><extensions><gom:speed>0.062</gom:speed></extensions></trkpt>
   <trkpt lat="59.291626273" lon="34.6529727556"><ele>162.555</ele><time>2026-08-16T14:40:37.136Z</time><hdop>3.0</hdop><vdop>2.5</vdop><extensions><gom:speed>0.089</gom:speed></extensions></trkpt>
   <trkpt lat="59.2916263987" lon="34.6529707439"><ele>162.555</ele><time>2026-08-16T14:40:38.136Z</time><hdop>3.0</hdop><vdop>2.5</vdop><extensions><gom:speed>0.087</gom:speed></extensions></trkpt>
   <trkpt lat="59.291626273" lon="34.6529690676"><ele>162.558</ele><time>2026-08-16T14:40:39.136Z</time><hdop>3.0</hdop><vdop>2.5</vdop><extensions><gom:speed>0.04</gom:speed></extensions></trkpt>
   <trkpt lat="59.2916263987" lon="34.6529673912"><ele>162.563</ele><time>2026-08-16T14:40:40.136Z</time><hdop>3.0</hdop><vdop>2.5</vdop><extensions><gom:speed>0.034</gom:speed></extensions></trkpt>
   <trkpt lat="59.2916263987" lon="34.6529671397"><ele>162.567</ele><time>2026-08-16T14:40:40.671Z</time><hdop>3.0</hdop><vdop>2.5</vdop><extensions><gom:speed>0.035</gom:speed></extensions></trkpt>
   <trkpt lat="59.291626273" lon="34.6529668883"><ele>162.57</ele><time>2026-08-16T14:40:41.136Z</time><hdop>3.0</hdop><vdop>2.5</vdop><extensions><gom:speed>0.055</gom:speed></extensions></trkpt>
   <trkpt lat="59.2916259796" lon="34.652966553"><ele>162.568</ele><time>2026-08-16T14:40:42.135Z</time><hdop>3.0</hdop><vdop>2.5</vdop><extensions><gom:speed>0.076</gom:speed></extensions></trkpt>
   <trkpt lat="59.2916259796" lon="34.6529651281"><ele>162.576</ele><time>2026-08-16T14:40:43.136Z</time><hdop>3.0</hdop><vdop>2.5</vdop><extensions><gom:speed>0.0</gom:speed></extensions></trkpt>
   <trkpt lat="59.2916259796" lon="34.6529652957"><ele>162.58</ele><time>2026-08-16T14:40:43.616Z</time><hdop>3.0</hdop><vdop>2.5</vdop><extensions><gom:speed>0.001</gom:speed></extensions></trkpt>
   <trkpt lat="59.2916260634" lon="34.6529651281"><ele>162.578</ele><time>2026-08-16T14:40:44.136Z</time><hdop>3.0</hdop><vdop>2.5</vdop><extensions><gom:speed>0.012</gom:speed></extensions></trkpt>
   <trkpt lat="59.2916260634" lon="34.6529650442"><ele>162.6</ele><time>2026-08-16T14:40:45.136Z</time><hdop>3.0</hdop><vdop>2.5</vdop><extensions><gom:speed>0.018</gom:speed></extensions></trkpt>
   <trkpt lat="59.2916261892" lon="34.6529646251"><ele>162.691</ele><time>2026-08-16T14:40:46.136Z</time><hdop>3.0</hdop><vdop>2.5</vdop><extensions><gom:speed>0.104</gom:speed></extensions></trkpt>
   <trkpt lat="59.2916263987" lon="34.6529642899"><ele>162.849</ele><time>2026-08-16T14:40:47.136Z</time><hdop>3.0</hdop><vdop>2.5</vdop><extensions><gom:speed>0.356</gom:speed></extensions></trkpt>
   <trkpt lat="59.2916266921" lon="34.6529634517"><ele>162.955</ele><time>2026-08-16T14:40:48.136Z</time><hdop>3.0</hdop><vdop>2.5</vdop><extensions><gom:speed>0.118</gom:speed></extensions></trkpt>
   <trkpt lat="59.2916264825" lon="34.6529640384"><ele>163.008</ele><time>2026-08-16T14:40:49.136Z</time><hdop>3.0</hdop><vdop>2.5</vdop><extensions><gom:speed>0.1</gom:speed></extensions></trkpt>
   <trkpt lat="59.291626273" lon="34.6529654633"><ele>163.028</ele><time>2026-08-16T14:40:50.136Z</time><hdop>3.0</hdop><vdop>2.5</vdop><extensions><gom:speed>0.085</gom:speed></extensions></trkpt>
   <trkpt lat="59.2916261892" lon="34.6529662177"><ele>163.053</ele><time>2026-08-16T14:40:51.136Z</time><hdop>3.0</hdop><vdop>2.5</vdop><extensions><gom:speed>0.073</gom:speed></extensions></trkpt>
   <trkpt lat="59.291626273" lon="34.6529671397"><ele>163.078</ele><time>2026-08-16T14:40:52.135Z</time><hdop>3.0</hdop><vdop>2.5</vdop><extensions><gom:speed>0.09</gom:speed></extensions></trkpt>
   <trkpt lat="59.291626273" lon="34.6529657986"><ele>163.108</ele><time>2026-08-16T14:40:53.136Z</time><hdop>3.0</hdop><vdop>2.5</vdop><extensions><gom:speed>0.076</gom:speed></extensions></trkpt>
   <trkpt lat="59.291626273" lon="34.652965631"><ele>163.126</ele><time>2026-08-16T14:40:53.711Z</time><hdop>3.0</hdop><vdop>2.5</vdop><extensions><gom:speed>0.107</gom:speed></extensions></trkpt>
   <trkpt lat="59.2916267759" lon="34.6529668883"><ele>163.264</ele><time>2026-08-16T14:40:54.487Z</time><hdop>3.0</hdop><vdop>2.5</vdop><extensions><gom:speed>0.112</gom:speed></extensions></trkpt>
   <trkpt lat="59.2916272788" lon="34.6529666368"><ele>163.357</ele><time>2026-08-16T14:40:55.136Z</time><hdop>3.0</hdop><vdop>2.5</vdop><extensions><gom:speed>0.073</gom:speed></extensions></trkpt>
   <trkpt lat="59.2916274883" lon="34.6529657986"><ele>163.335</ele><time>2026-08-16T14:40:56.136Z</time><hdop>3.0</hdop><vdop>2.5</vdop><extensions><gom:speed>0.089</gom:speed></extensions></trkpt>
   <trkpt lat="59.2916273626" lon="34.6529651281"><ele>163.4</ele><time>2026-08-16T14:40:57.136Z</time><hdop>3.0</hdop><vdop>2.5</vdop><extensions><gom:speed>0.125</gom:speed></extensions></trkpt>
   <trkpt lat="59.2916273626" lon="34.6529645413"><ele>163.439</ele><time>2026-08-16T14:40:57.775Z</time><hdop>3.0</hdop><vdop>2.5</vdop><extensions><gom:speed>0.144</gom:speed></extensions></trkpt>
   <trkpt lat="59.291627195" lon="34.652963787"><ele>163.468</ele><time>2026-08-16T14:40:59.136Z</time><hdop>3.0</hdop><vdop>2.5</vdop><extensions><gom:speed>0.074</gom:speed></extensions></trkpt>
   <trkpt lat="59.2916268597" lon="34.6529644575"><ele>163.488</ele><time>2026-08-16T14:41:00.136Z</time><hdop>3.0</hdop><vdop>2.5</vdop><extensions><gom:speed>0.06</gom:speed></extensions></trkpt>
   <trkpt lat="59.2916261892" lon="34.6529652957"><ele>163.463</ele><time>2026-08-16T14:41:01.136Z</time><hdop>3.0</hdop><vdop>2.5</vdop><extensions><gom:speed>0.119</gom:speed></extensions></trkpt>
   <trkpt lat="59.2916258958" lon="34.6529657986"><ele>163.448</ele><time>2026-08-16T14:41:02.136Z</time><hdop>3.0</hdop><vdop>2.5</vdop><extensions><gom:speed>0.087</gom:speed></extensions></trkpt>
   <trkpt lat="59.29162489" lon="34.6529664692"><ele>163.442</ele><time>2026-08-16T14:41:03.136Z</time><hdop>3.0</hdop><vdop>2.5</vdop><extensions><gom:speed>0.094</gom:speed></extensions></trkpt>
   <trkpt lat="59.2916240937" lon="34.652966553"><ele>163.446</ele><time>2026-08-16T14:41:04.136Z</time><hdop>3.0</hdop><vdop>2.5</vdop><extensions><gom:speed>0.08</gom:speed></extensions></trkpt>
   <trkpt lat="59.2916237584" lon="34.6529671397"><ele>163.462</ele><time>2026-08-16T14:41:05.136Z</time><hdop>3.0</hdop><vdop>2.5</vdop><extensions><gom:speed>0.085</gom:speed></extensions></trkpt>
   <trkpt lat="59.2916233812" lon="34.6529673912"><ele>163.473</ele><time>2026-08-16T14:41:06.136Z</time><hdop>3.0</hdop><vdop>2.5</vdop><extensions><gom:speed>0.05</gom:speed></extensions></trkpt>
   <trkpt lat="59.2916225849" lon="34.6529680617"><ele>163.489</ele><time>2026-08-16T14:41:07.136Z</time><hdop>3.0</hdop><vdop>2.5</vdop><extensions><gom:speed>0.055</gom:speed></extensions></trkpt>
   <trkpt lat="59.2916226688" lon="34.6529701572"><ele>163.173</ele><time>2026-08-16T14:41:08.136Z</time><hdop>3.0</hdop><vdop>2.5</vdop><extensions><gom:speed>0.154</gom:speed></extensions></trkpt>
   <trkpt lat="59.291623465" lon="34.6529722527"><ele>163.017</ele><time>2026-08-16T14:41:09.136Z</time><hdop>3.0</hdop><vdop>2.5</vdop><extensions><gom:speed>0.102</gom:speed></extensions></trkpt>
   <trkpt lat="59.2916242613" lon="34.6529745996"><ele>162.972</ele><time>2026-08-16T14:41:10.136Z</time><hdop>3.0</hdop><vdop>2.5</vdop><extensions><gom:speed>0.078</gom:speed></extensions></trkpt>
   <trkpt lat="59.29162489" lon="34.652976276"><ele>162.942</ele><time>2026-08-16T14:41:11.136Z</time><hdop>3.0</hdop><vdop>2.5</vdop><extensions><gom:speed>0.117</gom:speed></extensions></trkpt>
   <trkpt lat="59.2916251833" lon="34.6529788744"><ele>162.87</ele><time>2026-08-16T14:41:12.135Z</time><hdop>3.0</hdop><vdop>2.5</vdop><extensions><gom:speed>0.092</gom:speed></extensions></trkpt>
   <trkpt lat="59.291626273" lon="34.6529833168"><ele>162.668</ele><time>2026-08-16T14:41:13.136Z</time><hdop>3.0</hdop><vdop>2.5</vdop><extensions><gom:speed>0.122</gom:speed></extensions></trkpt>
   <trkpt lat="59.2916282846" lon="34.6529883459"><ele>162.328</ele><time>2026-08-16T14:41:14.136Z</time><hdop>3.0</hdop><vdop>2.75</vdop><extensions><gom:speed>0.173</gom:speed></extensions></trkpt>
   <trkpt lat="59.2916307992" lon="34.6529918663"><ele>162.178</ele><time>2026-08-16T14:41:15.136Z</time><hdop>3.0</hdop><vdop>2.687</vdop><extensions><gom:speed>0.136</gom:speed></extensions></trkpt>
   <trkpt lat="59.2916330623" lon="34.6529948838"><ele>162.105</ele><time>2026-08-16T14:41:16.136Z</time><hdop>3.0</hdop><vdop>2.75</vdop><extensions><gom:speed>0.121</gom:speed></extensions></trkpt>
   <trkpt lat="59.2916340681" lon="34.6529961411"><ele>162.064</ele><time>2026-08-16T14:41:17.136Z</time><hdop>3.0</hdop><vdop>2.812</vdop><extensions><gom:speed>0.106</gom:speed></extensions></trkpt>
   <trkpt lat="59.2916348644" lon="34.6529969793"><ele>162.048</ele><time>2026-08-16T14:41:18.136Z</time><hdop>3.0</hdop><vdop>2.875</vdop><extensions><gom:speed>0.099</gom:speed></extensions></trkpt>
   <trkpt lat="59.2916352835" lon="34.6529976498"><ele>162.06</ele><time>2026-08-16T14:41:19.136Z</time><hdop>3.0</hdop><vdop>2.75</vdop><extensions><gom:speed>0.095</gom:speed></extensions></trkpt>
   <trkpt lat="59.2916355769" lon="34.6529981528"><ele>162.067</ele><time>2026-08-16T14:41:20.135Z</time><hdop>3.0</hdop><vdop>2.687</vdop><extensions><gom:speed>0.087</gom:speed></extensions></trkpt>
   <trkpt lat="59.2916357864" lon="34.6529985719"><ele>162.06</ele><time>2026-08-16T14:41:21.136Z</time><hdop>3.0</hdop><vdop>2.687</vdop><extensions><gom:speed>0.086</gom:speed></extensions></trkpt>
   <trkpt lat="59.291635996" lon="34.6529989909"><ele>162.055</ele><time>2026-08-16T14:41:22.136Z</time><hdop>3.0</hdop><vdop>2.687</vdop><extensions><gom:speed>0.084</gom:speed></extensions></trkpt>
   <trkpt lat="59.2916361636" lon="34.6529992424"><ele>162.054</ele><time>2026-08-16T14:41:23.136Z</time><hdop>3.0</hdop><vdop>2.625</vdop><extensions><gom:speed>0.082</gom:speed></extensions></trkpt>
   <trkpt lat="59.2916362893" lon="34.6529995777"><ele>162.054</ele><time>2026-08-16T14:41:24.136Z</time><hdop>3.0</hdop><vdop>2.625</vdop><extensions><gom:speed>0.078</gom:speed></extensions></trkpt>
   <trkpt lat="59.2916362893" lon="34.6529999968"><ele>162.058</ele><time>2026-08-16T14:41:25.135Z</time><hdop>3.0</hdop><vdop>2.687</vdop><extensions><gom:speed>0.074</gom:speed></extensions></trkpt>
   <trkpt lat="59.2916362893" lon="34.6530005835"><ele>162.058</ele><time>2026-08-16T14:41:26.136Z</time><hdop>3.0</hdop><vdop>2.812</vdop><extensions><gom:speed>0.072</gom:speed></extensions></trkpt>
   <trkpt lat="59.2916363732" lon="34.653000835"><ele>162.054</ele><time>2026-08-16T14:41:27.136Z</time><hdop>3.0</hdop><vdop>2.937</vdop><extensions><gom:speed>0.073</gom:speed></extensions></trkpt>
   <trkpt lat="59.2916363732" lon="34.6530013379"><ele>162.045</ele><time>2026-08-16T14:41:28.136Z</time><hdop>3.0</hdop><vdop>2.812</vdop><extensions><gom:speed>0.069</gom:speed></extensions></trkpt>
   <trkpt lat="59.2916364989" lon="34.653001757"><ele>162.042</ele><time>2026-08-16T14:41:29.136Z</time><hdop>3.0</hdop><vdop>2.75</vdop><extensions><gom:speed>0.068</gom:speed></extensions></trkpt>
   <trkpt lat="59.2916364989" lon="34.6530019246"><ele>162.039</ele><time>2026-08-16T14:41:30.136Z</time><hdop>3.0</hdop><vdop>2.687</vdop><extensions><gom:speed>0.069</gom:speed></extensions></trkpt>
   <trkpt lat="59.2916364989" lon="34.6530023437"><ele>162.041</ele><time>2026-08-16T14:41:31.136Z</time><hdop>3.0</hdop><vdop>3.0</vdop><extensions><gom:speed>0.066</gom:speed></extensions></trkpt>
   <trkpt lat="59.2916362893" lon="34.6530025952"><ele>161.991</ele><time>2026-08-16T14:41:32.136Z</time><hdop>3.0</hdop><vdop>2.875</vdop><extensions><gom:speed>0.065</gom:speed></extensions></trkpt>
   <trkpt lat="59.2916361636" lon="34.6530029304"><ele>161.97</ele><time>2026-08-16T14:41:33.136Z</time><hdop>3.0</hdop><vdop>3.0</vdop><extensions><gom:speed>0.067</gom:speed></extensions></trkpt>
   <trkpt lat="59.2916362893" lon="34.6530032657"><ele>161.943</ele><time>2026-08-16T14:41:34.136Z</time><hdop>3.0</hdop><vdop>3.25</vdop><extensions><gom:speed>0.069</gom:speed></extensions></trkpt>
   <trkpt lat="59.2916363732" lon="34.6530035172"><ele>161.973</ele><time>2026-08-16T14:41:35.136Z</time><hdop>3.0</hdop><vdop>3.0</vdop><extensions><gom:speed>0.071</gom:speed></extensions></trkpt>
   <trkpt lat="59.2916364989" lon="34.6530042715"><ele>162.0</ele><time>2026-08-16T14:41:36.136Z</time><hdop>3.0</hdop><vdop>3.062</vdop><extensions><gom:speed>0.072</gom:speed></extensions></trkpt>
   <trkpt lat="59.2916365827" lon="34.6530046906"><ele>162.026</ele><time>2026-08-16T14:41:37.136Z</time><hdop>3.0</hdop><vdop>2.937</vdop><extensions><gom:speed>0.073</gom:speed></extensions></trkpt>
   <trkpt lat="59.2916364989" lon="34.6530050259"><ele>162.07</ele><time>2026-08-16T14:41:38.136Z</time><hdop>3.0</hdop><vdop>2.875</vdop><extensions><gom:speed>0.073</gom:speed></extensions></trkpt>
   <trkpt lat="59.2916362893" lon="34.6530056965"><ele>162.122</ele><time>2026-08-16T14:41:39.136Z</time><hdop>3.0</hdop><vdop>2.812</vdop><extensions><gom:speed>0.072</gom:speed></extensions></trkpt>
   <trkpt lat="59.2916360798" lon="34.6530061994"><ele>162.187</ele><time>2026-08-16T14:41:40.136Z</time><hdop>3.0</hdop><vdop>2.687</vdop><extensions><gom:speed>0.072</gom:speed></extensions></trkpt>
   <trkpt lat="59.2916358703" lon="34.6530066185"><ele>162.254</ele><time>2026-08-16T14:41:41.136Z</time><hdop>3.0</hdop><vdop>2.625</vdop><extensions><gom:speed>0.071</gom:speed></extensions></trkpt>
   <trkpt lat="59.2916355769" lon="34.653007289"><ele>162.333</ele><time>2026-08-16T14:41:42.136Z</time><hdop>3.0</hdop><vdop>2.562</vdop><extensions><gom:speed>0.074</gom:speed></extensions></trkpt>
   <trkpt lat="59.2916351997" lon="34.6530078758"><ele>162.396</ele><time>2026-08-16T14:41:43.136Z</time><hdop>3.0</hdop><vdop>2.625</vdop><extensions><gom:speed>0.073</gom:speed></extensions></trkpt>
   <trkpt lat="59.2916347806" lon="34.6530083787"><ele>162.43</ele><time>2026-08-16T14:41:44.136Z</time><hdop>3.0</hdop><vdop>2.625</vdop><extensions><gom:speed>0.071</gom:speed></extensions></trkpt>
   <trkpt lat="59.2916342777" lon="34.6530090492"><ele>162.448</ele><time>2026-08-16T14:41:45.136Z</time><hdop>3.0</hdop><vdop>2.687</vdop><extensions><gom:speed>0.068</gom:speed></extensions></trkpt>
   <trkpt lat="59.2916338586" lon="34.653009636"><ele>162.466</ele><time>2026-08-16T14:41:46.136Z</time><hdop>3.0</hdop><vdop>2.75</vdop><extensions><gom:speed>0.069</gom:speed></extensions></trkpt>
   <trkpt lat="59.2916334814" lon="34.6530101389"><ele>162.492</ele><time>2026-08-16T14:41:47.136Z</time><hdop>3.0</hdop><vdop>2.812</vdop><extensions><gom:speed>0.067</gom:speed></extensions></trkpt>
   <trkpt lat="59.2916332719" lon="34.6530106418"><ele>162.355</ele><time>2026-08-16T14:41:48.136Z</time><hdop>3.0</hdop><vdop>2.937</vdop><extensions><gom:speed>0.202</gom:speed></extensions></trkpt>
   <trkpt lat="59.291632266" lon="34.6530119829"><ele>162.398</ele><time>2026-08-16T14:41:49.136Z</time><hdop>3.0</hdop><vdop>2.625</vdop><extensions><gom:speed>0.355</gom:speed></extensions></trkpt>
   <trkpt lat="59.2916319727" lon="34.653014246"><ele>162.424</ele><time>2026-08-16T14:41:50.136Z</time><hdop>3.0</hdop><vdop>2.562</vdop><extensions><gom:speed>0.103</gom:speed></extensions></trkpt>
   <trkpt lat="59.291632266" lon="34.6530143298"><ele>162.44</ele><time>2026-08-16T14:41:51.136Z</time><hdop>3.0</hdop><vdop>2.5</vdop><extensions><gom:speed>0.079</gom:speed></extensions></trkpt>
   <trkpt lat="59.2916323918" lon="34.6530143298"><ele>162.45</ele><time>2026-08-16T14:41:51.631Z</time><hdop>3.0</hdop><vdop>2.5</vdop><extensions><gom:speed>0.079</gom:speed></extensions></trkpt>
   <trkpt lat="59.2916323918" lon="34.653014246"><ele>162.456</ele><time>2026-08-16T14:41:52.136Z</time><hdop>3.0</hdop><vdop>2.5</vdop><extensions><gom:speed>0.067</gom:speed></extensions></trkpt>
   <trkpt lat="59.2916321822" lon="34.6530144975"><ele>162.477</ele><time>2026-08-16T14:41:53.136Z</time><hdop>3.0</hdop><vdop>2.5</vdop><extensions><gom:speed>0.059</gom:speed></extensions></trkpt>
   <trkpt lat="59.2916318888" lon="34.6530146651"><ele>162.499</ele><time>2026-08-16T14:41:54.136Z</time><hdop>3.0</hdop><vdop>2.5</vdop><extensions><gom:speed>0.056</gom:speed></extensions></trkpt>
   <trkpt lat="59.2916314698" lon="34.6530149166"><ele>162.507</ele><time>2026-08-16T14:41:55.136Z</time><hdop>3.0</hdop><vdop>2.5</vdop><extensions><gom:speed>0.052</gom:speed></extensions></trkpt>
   <trkpt lat="59.2916312602" lon="34.653015168"><ele>162.523</ele><time>2026-08-16T14:41:56.136Z</time><hdop>3.0</hdop><vdop>2.5</vdop><extensions><gom:speed>0.302</gom:speed></extensions></trkpt>
   <trkpt lat="59.2916309668" lon="34.6530173473"><ele>162.329</ele><time>2026-08-16T14:41:57.136Z</time><hdop>3.0</hdop><vdop>2.5</vdop><extensions><gom:speed>0.113</gom:speed></extensions></trkpt>
   <trkpt lat="59.2916309668" lon="34.6530170959"><ele>162.133</ele><time>2026-08-16T14:41:58.135Z</time><hdop>3.0</hdop><vdop>2.5</vdop><extensions><gom:speed>0.321</gom:speed></extensions></trkpt>
   <trkpt lat="59.2916316793" lon="34.6530174311"><ele>162.001</ele><time>2026-08-16T14:41:59.136Z</time><hdop>3.0</hdop><vdop>2.5</vdop><extensions><gom:speed>0.103</gom:speed></extensions></trkpt>
   <trkpt lat="59.2916313859" lon="34.6530168444"><ele>161.913</ele><time>2026-08-16T14:42:00.136Z</time><hdop>3.0</hdop><vdop>2.5</vdop><extensions><gom:speed>0.084</gom:speed></extensions></trkpt>
   <trkpt lat="59.2916307992" lon="34.65301609"><ele>161.742</ele><time>2026-08-16T14:42:01.136Z</time><hdop>3.0</hdop><vdop>2.625</vdop><extensions><gom:speed>0.247</gom:speed></extensions></trkpt>
   <trkpt lat="59.2916301706" lon="34.6530165929"><ele>161.64</ele><time>2026-08-16T14:42:01.790Z</time><hdop>3.0</hdop><vdop>2.625</vdop><extensions><gom:speed>0.275</gom:speed></extensions></trkpt>
   <trkpt lat="59.2916300867" lon="34.6530152518"><ele>161.583</ele><time>2026-08-16T14:42:02.408Z</time><hdop>3.0</hdop><vdop>2.625</vdop><extensions><gom:speed>0.095</gom:speed></extensions></trkpt>
   <trkpt lat="59.2916300867" lon="34.6530144975"><ele>161.557</ele><time>2026-08-16T14:42:03.136Z</time><hdop>3.0</hdop><vdop>2.75</vdop><extensions><gom:speed>0.08</gom:speed></extensions></trkpt>
   <trkpt lat="59.2916302963" lon="34.6530139946"><ele>161.543</ele><time>2026-08-16T14:42:04.136Z</time><hdop>3.0</hdop><vdop>2.812</vdop><extensions><gom:speed>0.076</gom:speed></extensions></trkpt>
   <trkpt lat="59.2916307992" lon="34.6530135755"><ele>161.538</ele><time>2026-08-16T14:42:05.135Z</time><hdop>3.0</hdop><vdop>2.75</vdop><extensions><gom:speed>0.073</gom:speed></extensions></trkpt>
   <trkpt lat="59.291630883" lon="34.6530129887"><ele>161.535</ele><time>2026-08-16T14:42:06.136Z</time><hdop>3.0</hdop><vdop>2.687</vdop><extensions><gom:speed>0.071</gom:speed></extensions></trkpt>
   <trkpt lat="59.2916309668" lon="34.6530124858"><ele>161.531</ele><time>2026-08-16T14:42:07.135Z</time><hdop>3.0</hdop><vdop>2.687</vdop><extensions><gom:speed>0.067</gom:speed></extensions></trkpt>
   <trkpt lat="59.2916310926" lon="34.6530119829"><ele>161.528</ele><time>2026-08-16T14:42:08.136Z</time><hdop>3.0</hdop><vdop>2.687</vdop><extensions><gom:speed>0.068</gom:speed></extensions></trkpt>
   <trkpt lat="59.2916310926" lon="34.6530115638"><ele>161.526</ele><time>2026-08-16T14:42:09.136Z</time><hdop>3.0</hdop><vdop>2.625</vdop><extensions><gom:speed>0.067</gom:speed></extensions></trkpt>
   <trkpt lat="59.2916310926" lon="34.6530110609"><ele>161.537</ele><time>2026-08-16T14:42:10.135Z</time><hdop>3.0</hdop><vdop>2.5</vdop><extensions><gom:speed>0.066</gom:speed></extensions></trkpt>
   <trkpt lat="59.2916311764" lon="34.6530108932"><ele>161.547</ele><time>2026-08-16T14:42:11.135Z</time><hdop>3.0</hdop><vdop>2.5</vdop><extensions><gom:speed>0.068</gom:speed></extensions></trkpt>
   <trkpt lat="59.2916311764" lon="34.6530107256"><ele>161.553</ele><time>2026-08-16T14:42:11.751Z</time><hdop>3.0</hdop><vdop>2.5</vdop><extensions><gom:speed>0.068</gom:speed></extensions></trkpt>
   <trkpt lat="59.2916303801" lon="34.6530141622"><ele>161.526</ele><time>2026-08-16T14:42:13.136Z</time><hdop>3.0</hdop><vdop>2.5</vdop><extensions><gom:speed>0.293</gom:speed></extensions></trkpt>
   <trkpt lat="59.2916291647" lon="34.6530143298"><ele>161.506</ele><time>2026-08-16T14:42:14.136Z</time><hdop>3.0</hdop><vdop>2.5</vdop><extensions><gom:speed>0.083</gom:speed></extensions></trkpt>
   <trkpt lat="59.2916283684" lon="34.653013324"><ele>161.515</ele><time>2026-08-16T14:42:15.135Z</time><hdop>3.0</hdop><vdop>2.562</vdop><extensions><gom:speed>0.119</gom:speed></extensions></trkpt>
   <trkpt lat="59.2916279913" lon="34.6530128211"><ele>161.52</ele><time>2026-08-16T14:42:15.840Z</time><hdop>3.0</hdop><vdop>2.562</vdop><extensions><gom:speed>0.123</gom:speed></extensions></trkpt>
   <trkpt lat="59.291626273" lon="34.6530085463"><ele>161.659</ele><time>2026-08-16T14:42:17.136Z</time><hdop>3.0</hdop><vdop>2.5</vdop><extensions><gom:speed>0.079</gom:speed></extensions></trkpt>
   <trkpt lat="59.2916259796" lon="34.6530092169"><ele>161.742</ele><time>2026-08-16T14:42:18.058Z</time><hdop>3.0</hdop><vdop>2.5</vdop><extensions><gom:speed>0.089</gom:speed></extensions></trkpt>
   <trkpt lat="59.2916257701" lon="34.6530053612"><ele>161.8</ele><time>2026-08-16T14:42:18.804Z</time><hdop>3.0</hdop><vdop>2.5</vdop><extensions><gom:speed>0.109</gom:speed></extensions></trkpt>
   <trkpt lat="59.2916267759" lon="34.652997566"><ele>161.875</ele><time>2026-08-16T14:42:20.136Z</time><hdop>3.0</hdop><vdop>2.5</vdop><extensions><gom:speed>0.097</gom:speed></extensions></trkpt>
   <trkpt lat="59.2916267759" lon="34.6529968955"><ele>161.919</ele><time>2026-08-16T14:42:20.815Z</time><hdop>3.0</hdop><vdop>2.5</vdop><extensions><gom:speed>0.126</gom:speed></extensions></trkpt>
   <trkpt lat="59.2916275722" lon="34.6529944647"><ele>161.849</ele><time>2026-08-16T14:42:22.024Z</time><hdop>3.0</hdop><vdop>2.5</vdop><extensions><gom:speed>0.093</gom:speed></extensions></trkpt>
   <trkpt lat="59.2916300867" lon="34.6529893518"><ele>161.821</ele><time>2026-08-16T14:42:23.136Z</time><hdop>3.0</hdop><vdop>2.5</vdop><extensions><gom:speed>0.089</gom:speed></extensions></trkpt>
   <trkpt lat="59.2916315955" lon="34.6529868372"><ele>161.856</ele><time>2026-08-16T14:42:24.136Z</time><hdop>3.0</hdop><vdop>2.5</vdop><extensions><gom:speed>0.134</gom:speed></extensions></trkpt>
   <trkpt lat="59.2916324756" lon="34.6529863343"><ele>161.869</ele><time>2026-08-16T14:42:25.136Z</time><hdop>3.0</hdop><vdop>2.5</vdop><extensions><gom:speed>0.113</gom:speed></extensions></trkpt>
   <trkpt lat="59.2916334814" lon="34.6529864181"><ele>161.886</ele><time>2026-08-16T14:42:26.136Z</time><hdop>3.0</hdop><vdop>2.5</vdop><extensions><gom:speed>0.083</gom:speed></extensions></trkpt>
   <trkpt lat="59.2916337748" lon="34.6529863343"><ele>161.896</ele><time>2026-08-16T14:42:26.882Z</time><hdop>3.0</hdop><vdop>2.5</vdop><extensions><gom:speed>0.124</gom:speed></extensions></trkpt>
   <trkpt lat="59.2916342777" lon="34.6529866695"><ele>161.9</ele><time>2026-08-16T14:42:27.697Z</time><hdop>3.0</hdop><vdop>2.5</vdop><extensions><gom:speed>0.118</gom:speed></extensions></trkpt>
   <trkpt lat="59.2916342777" lon="34.6529861666"><ele>161.93</ele><time>2026-08-16T14:42:28.865Z</time><hdop>3.0</hdop><vdop>2.5</vdop><extensions><gom:speed>0.122</gom:speed></extensions></trkpt>
   <trkpt lat="59.2916347806" lon="34.652985999"><ele>161.953</ele><time>2026-08-16T14:42:29.404Z</time><hdop>3.0</hdop><vdop>2.5</vdop><extensions><gom:speed>0.097</gom:speed></extensions></trkpt>
   <trkpt lat="59.291635074" lon="34.6529857475"><ele>161.978</ele><time>2026-08-16T14:42:30.135Z</time><hdop>3.0</hdop><vdop>2.5</vdop><extensions><gom:speed>0.061</gom:speed></extensions></trkpt>
   <trkpt lat="59.2916357864" lon="34.6529867534"><ele>162.045</ele><time>2026-08-16T14:42:31.136Z</time><hdop>3.0</hdop><vdop>2.5</vdop><extensions><gom:speed>0.095</gom:speed></extensions></trkpt>
   <trkpt lat="59.2916371694" lon="34.6529885974"><ele>161.992</ele><time>2026-08-16T14:42:32.136Z</time><hdop>3.0</hdop><vdop>2.5</vdop><extensions><gom:speed>0.097</gom:speed></extensions></trkpt>
   <trkpt lat="59.2916378819" lon="34.6529903576"><ele>161.944</ele><time>2026-08-16T14:42:33.136Z</time><hdop>3.0</hdop><vdop>2.5</vdop><extensions><gom:speed>0.051</gom:speed></extensions></trkpt>
   <trkpt lat="59.291638762" lon="34.6529919501"><ele>161.903</ele><time>2026-08-16T14:42:34.135Z</time><hdop>3.0</hdop><vdop>2.5</vdop><extensions><gom:speed>0.045</gom:speed></extensions></trkpt>
   <trkpt lat="59.2916394745" lon="34.6529945485"><ele>161.883</ele><time>2026-08-16T14:42:35.136Z</time><hdop>3.0</hdop><vdop>2.5</vdop><extensions><gom:speed>0.066</gom:speed></extensions></trkpt>
   <trkpt lat="59.291639684" lon="34.6529960573"><ele>161.875</ele><time>2026-08-16T14:42:36.136Z</time><hdop>3.0</hdop><vdop>2.5</vdop><extensions><gom:speed>0.069</gom:speed></extensions></trkpt>
   <trkpt lat="59.2916399774" lon="34.6529968955"><ele>161.878</ele><time>2026-08-16T14:42:37.136Z</time><hdop>3.0</hdop><vdop>2.5</vdop><extensions><gom:speed>0.042</gom:speed></extensions></trkpt>
   <trkpt lat="59.2916406898" lon="34.6529974822"><ele>161.859</ele><time>2026-08-16T14:42:38.136Z</time><hdop>3.0</hdop><vdop>2.5</vdop><extensions><gom:speed>0.036</gom:speed></extensions></trkpt>
   <trkpt lat="59.2916411928" lon="34.6529982366"><ele>161.866</ele><time>2026-08-16T14:42:39.136Z</time><hdop>3.0</hdop><vdop>2.5</vdop><extensions><gom:speed>0.092</gom:speed></extensions></trkpt>
   <trkpt lat="59.2916412766" lon="34.6529979851"><ele>161.87</ele><time>2026-08-16T14:42:39.643Z</time><hdop>3.0</hdop><vdop>2.5</vdop><extensions><gom:speed>0.121</gom:speed></extensions></trkpt>
   <trkpt lat="59.2916411928" lon="34.6529976498"><ele>161.876</ele><time>2026-08-16T14:42:40.135Z</time><hdop>3.0</hdop><vdop>2.5</vdop><extensions><gom:speed>0.1</gom:speed></extensions></trkpt>
   <trkpt lat="59.291641067" lon="34.6529973984"><ele>161.879</ele><time>2026-08-16T14:42:40.802Z</time><hdop>3.0</hdop><vdop>2.5</vdop><extensions><gom:speed>0.131</gom:speed></extensions></trkpt>
   <trkpt lat="59.2916403965" lon="34.6529972307"><ele>162.123</ele><time>2026-08-16T14:42:41.665Z</time><hdop>3.0</hdop><vdop>2.5</vdop><extensions><gom:speed>0.206</gom:speed></extensions></trkpt>
   <trkpt lat="59.2916393907" lon="34.6529985719"><ele>162.485</ele><time>2026-08-16T14:42:42.136Z</time><hdop>3.0</hdop><vdop>2.5</vdop><extensions><gom:speed>0.347</gom:speed></extensions></trkpt>
   <trkpt lat="59.291635074" lon="34.6530003321"><ele>162.464</ele><time>2026-08-16T14:42:43.136Z</time><hdop>3.0</hdop><vdop>2.5</vdop><extensions><gom:speed>0.462</gom:speed></extensions></trkpt>
   <trkpt lat="59.2916253929" lon="34.6530056965"><ele>162.454</ele><time>2026-08-16T14:42:44.136Z</time><hdop>3.0</hdop><vdop>2.5</vdop><extensions><gom:speed>0.63</gom:speed></extensions></trkpt>
   <trkpt lat="59.2916137839" lon="34.6530141622"><ele>162.519</ele><time>2026-08-16T14:42:45.136Z</time><hdop>3.0</hdop><vdop>2.5</vdop><extensions><gom:speed>0.711</gom:speed></extensions></trkpt>
   <trkpt lat="59.2916084614" lon="34.6530209515"><ele>162.557</ele><time>2026-08-16T14:42:45.739Z</time><hdop>3.0</hdop><vdop>2.5</vdop><extensions><gom:speed>0.715</gom:speed></extensions></trkpt>
   <trkpt lat="59.2915988642" lon="34.6530363742"><ele>162.418</ele><time>2026-08-16T14:42:47.064Z</time><hdop>3.0</hdop><vdop>2.5</vdop><extensions><gom:speed>0.73</gom:speed></extensions></trkpt>
   <trkpt lat="59.2915881772" lon="34.6530464325"><ele>162.431</ele><time>2026-08-16T14:42:48.136Z</time><hdop>3.0</hdop><vdop>2.5</vdop><extensions><gom:speed>0.832</gom:speed></extensions></trkpt>
   <trkpt lat="59.2915840701" lon="34.6530506235"><ele>162.438</ele><time>2026-08-16T14:42:48.625Z</time><hdop>3.0</hdop><vdop>2.5</vdop><extensions><gom:speed>0.833</gom:speed></extensions></trkpt>
   <trkpt lat="59.2915802982" lon="34.6530547306"><ele>162.628</ele><time>2026-08-16T14:42:49.136Z</time><hdop>3.0</hdop><vdop>2.5</vdop><extensions><gom:speed>0.849</gom:speed></extensions></trkpt>
   <trkpt lat="59.2915745985" lon="34.6530589216"><ele>162.741</ele><time>2026-08-16T14:42:49.861Z</time><hdop>3.0</hdop><vdop>2.5</vdop><extensions><gom:speed>0.848</gom:speed></extensions></trkpt>
   <trkpt lat="59.2915641631" lon="34.6530637831"><ele>162.698</ele><time>2026-08-16T14:42:51.039Z</time><hdop>3.0</hdop><vdop>2.5</vdop><extensions><gom:speed>0.912</gom:speed></extensions></trkpt>
   <trkpt lat="59.2915555716" lon="34.6530741766"><ele>162.645</ele><time>2026-08-16T14:42:52.136Z</time><hdop>3.0</hdop><vdop>2.5</vdop><extensions><gom:speed>0.974</gom:speed></extensions></trkpt>
   <trkpt lat="59.2915507939" lon="34.6530832291"><ele>162.613</ele><time>2026-08-16T14:42:52.756Z</time><hdop>3.0</hdop><vdop>2.5</vdop><extensions><gom:speed>0.983</gom:speed></extensions></trkpt>
   <trkpt lat="59.2915462677" lon="34.6530944608"><ele>162.583</ele><time>2026-08-16T14:42:53.522Z</time><hdop>3.0</hdop><vdop>2.5</vdop><extensions><gom:speed>0.976</gom:speed></extensions></trkpt>
   <trkpt lat="59.2915423701" lon="34.6531014178"><ele>162.566</ele><time>2026-08-16T14:42:54.023Z</time><hdop>3.0</hdop><vdop>2.5</vdop><extensions><gom:speed>1.004</gom:speed></extensions></trkpt>
   <trkpt lat="59.2915388916" lon="34.6531135716"><ele>162.394</ele><time>2026-08-16T14:42:54.818Z</time><hdop>3.0</hdop><vdop>2.5</vdop><extensions><gom:speed>0.973</gom:speed></extensions></trkpt>
   <trkpt lat="59.2915360837" lon="34.6531224564"><ele>162.462</ele><time>2026-08-16T14:42:55.397Z</time><hdop>3.0</hdop><vdop>2.5</vdop><extensions><gom:speed>0.994</gom:speed></extensions></trkpt>
   <trkpt lat="59.291530384" lon="34.6531303354"><ele>162.502</ele><time>2026-08-16T14:42:56.103Z</time><hdop>3.0</hdop><vdop>2.5</vdop><extensions><gom:speed>1.004</gom:speed></extensions></trkpt>
   <trkpt lat="59.2915277856" lon="34.6531348616"><ele>162.311</ele><time>2026-08-16T14:42:56.584Z</time><hdop>3.0</hdop><vdop>2.5</vdop><extensions><gom:speed>0.963</gom:speed></extensions></trkpt>
   <trkpt lat="59.2915244748" lon="34.6531398907"><ele>162.239</ele><time>2026-08-16T14:42:57.136Z</time><hdop>3.0</hdop><vdop>2.5</vdop><extensions><gom:speed>0.946</gom:speed></extensions></trkpt>
   <trkpt lat="59.2915175597" lon="34.6531511225"><ele>162.179</ele><time>2026-08-16T14:42:58.136Z</time><hdop>3.0</hdop><vdop>2.5</vdop><extensions><gom:speed>1.0</gom:speed></extensions></trkpt>
   <trkpt lat="59.2915123629" lon="34.6531705685"><ele>162.436</ele><time>2026-08-16T14:42:59.136Z</time><hdop>3.0</hdop><vdop>2.5</vdop><extensions><gom:speed>0.997</gom:speed></extensions></trkpt>
   <trkpt lat="59.2915112733" lon="34.6531840634"><ele>162.589</ele><time>2026-08-16T14:42:59.716Z</time><hdop>3.0</hdop><vdop>2.5</vdop><extensions><gom:speed>1.003</gom:speed></extensions></trkpt>
   <trkpt lat="59.291509094" lon="34.6532006595"><ele>162.806</ele><time>2026-08-16T14:43:00.521Z</time><hdop>3.0</hdop><vdop>2.5</vdop><extensions><gom:speed>1.005</gom:speed></extensions></trkpt>
   <trkpt lat="59.2915071661" lon="34.6532132324"><ele>162.783</ele><time>2026-08-16T14:43:01.136Z</time><hdop>3.0</hdop><vdop>2.5</vdop><extensions><gom:speed>0.996</gom:speed></extensions></trkpt>
   <trkpt lat="59.2915052802" lon="34.6532224525"><ele>162.769</ele><time>2026-08-16T14:43:01.620Z</time><hdop>3.0</hdop><vdop>2.5</vdop><extensions><gom:speed>1.0</gom:speed></extensions></trkpt>
   <trkpt lat="59.291503981" lon="34.6532326784"><ele>162.884</ele><time>2026-08-16T14:43:02.136Z</time><hdop>3.0</hdop><vdop>2.5</vdop><extensions><gom:speed>1.029</gom:speed></extensions></trkpt>
   <trkpt lat="59.291502598" lon="34.6532522921"><ele>163.093</ele><time>2026-08-16T14:43:03.136Z</time><hdop>3.0</hdop><vdop>2.5</vdop><extensions><gom:speed>1.016</gom:speed></extensions></trkpt>
   <trkpt lat="59.2915022627" lon="34.6532686368"><ele>163.218</ele><time>2026-08-16T14:43:03.937Z</time><hdop>3.0</hdop><vdop>2.5</vdop><extensions><gom:speed>1.006</gom:speed></extensions></trkpt>
   <trkpt lat="59.2915028914" lon="34.6532793656"><ele>163.328</ele><time>2026-08-16T14:43:04.722Z</time><hdop>3.0</hdop><vdop>2.5</vdop><extensions><gom:speed>0.94</gom:speed></extensions></trkpt>
   <trkpt lat="59.2915027656" lon="34.6532862388"><ele>163.533</ele><time>2026-08-16T14:43:05.556Z</time><hdop>3.0</hdop><vdop>2.5</vdop><extensions><gom:speed>0.799</gom:speed></extensions></trkpt>
   <trkpt lat="59.2915033943" lon="34.6532888372"><ele>163.925</ele><time>2026-08-16T14:43:06.136Z</time><hdop>3.0</hdop><vdop>2.5</vdop><extensions><gom:speed>0.617</gom:speed></extensions></trkpt>
   <trkpt lat="59.2915024723" lon="34.6532948721"><ele>164.16</ele><time>2026-08-16T14:43:06.960Z</time><hdop>3.0</hdop><vdop>2.5</vdop><extensions><gom:speed>0.609</gom:speed></extensions></trkpt>
   <trkpt lat="59.2914970659" lon="34.6533116359"><ele>164.397</ele><time>2026-08-16T14:43:07.902Z</time><hdop>3.0</hdop><vdop>2.5</vdop><extensions><gom:speed>0.912</gom:speed></extensions></trkpt>
   <trkpt lat="59.2914918692" lon="34.6533247955"><ele>165.078</ele><time>2026-08-16T14:43:08.923Z</time><hdop>3.0</hdop><vdop>2.5</vdop><extensions><gom:speed>0.884</gom:speed></extensions></trkpt>
   <trkpt lat="59.2914873848" lon="34.6533265557"><ele>165.479</ele><time>2026-08-16T14:43:09.463Z</time><hdop>3.0</hdop><vdop>2.5</vdop><extensions><gom:speed>0.904</gom:speed></extensions></trkpt>
   <trkpt lat="59.2914814756" lon="34.6533286512"><ele>165.791</ele><time>2026-08-16T14:43:10.136Z</time><hdop>3.0</hdop><vdop>2.5</vdop><extensions><gom:speed>0.953</gom:speed></extensions></trkpt>
   <trkpt lat="59.2914751892" lon="34.6533353567"><ele>165.978</ele><time>2026-08-16T14:43:10.906Z</time><hdop>3.0</hdop><vdop>2.5</vdop><extensions><gom:speed>0.954</gom:speed></extensions></trkpt>
   <trkpt lat="59.2914720879" lon="34.6533390448"><ele>166.074</ele><time>2026-08-16T14:43:11.563Z</time><hdop>3.0</hdop><vdop>2.5</vdop><extensions><gom:speed>0.935</gom:speed></extensions></trkpt>
   <trkpt lat="59.291471585" lon="34.6533434872"><ele>166.073</ele><time>2026-08-16T14:43:12.136Z</time><hdop>3.0</hdop><vdop>2.5</vdop><extensions><gom:speed>0.9</gom:speed></extensions></trkpt>
   <trkpt lat="59.2914733871" lon="34.6533477619"><ele>165.991</ele><time>2026-08-16T14:43:13.136Z</time><hdop>3.0</hdop><vdop>2.5</vdop><extensions><gom:speed>0.602</gom:speed></extensions></trkpt>
   <trkpt lat="59.2914753987" lon="34.6533522882"><ele>165.942</ele><time>2026-08-16T14:43:13.859Z</time><hdop>3.0</hdop><vdop>2.5</vdop><extensions><gom:speed>0.605</gom:speed></extensions></trkpt>
   <trkpt lat="59.2914772846" lon="34.6533871569"><ele>165.863</ele><time>2026-08-16T14:43:15.077Z</time><hdop>3.0</hdop><vdop>2.5</vdop><extensions><gom:speed>1.061</gom:speed></extensions></trkpt>
   <trkpt lat="59.29147389" lon="34.6534013223"><ele>166.036</ele><time>2026-08-16T14:43:15.804Z</time><hdop>3.0</hdop><vdop>2.5</vdop><extensions><gom:speed>1.076</gom:speed></extensions></trkpt>
   <trkpt lat="59.2914704953" lon="34.6534113806"><ele>166.277</ele><time>2026-08-16T14:43:16.343Z</time><hdop>3.0</hdop><vdop>2.5</vdop><extensions><gom:speed>1.138</gom:speed></extensions></trkpt>
   <trkpt lat="59.2914646699" lon="34.65342278"><ele>166.421</ele><time>2026-08-16T14:43:17.119Z</time><hdop>3.0</hdop><vdop>2.5</vdop><extensions><gom:speed>1.088</gom:speed></extensions></trkpt>
   <trkpt lat="59.2914600598" lon="34.6534285635"><ele>166.48</ele><time>2026-08-16T14:43:17.639Z</time><hdop>3.0</hdop><vdop>2.5</vdop><extensions><gom:speed>1.115</gom:speed></extensions></trkpt>
   <trkpt lat="59.2914563718" lon="34.6534346823"><ele>166.516</ele><time>2026-08-16T14:43:18.120Z</time><hdop>3.0</hdop><vdop>2.5</vdop><extensions><gom:speed>1.055</gom:speed></extensions></trkpt>
   <trkpt lat="59.291451175" lon="34.6534470875"><ele>167.333</ele><time>2026-08-16T14:43:19.136Z</time><hdop>3.0</hdop><vdop>2.5</vdop><extensions><gom:speed>0.996</gom:speed></extensions></trkpt>
   <trkpt lat="59.2914491634" lon="34.6534578163"><ele>167.822</ele><time>2026-08-16T14:43:19.779Z</time><hdop>3.0</hdop><vdop>2.5</vdop><extensions><gom:speed>0.998</gom:speed></extensions></trkpt>
   <trkpt lat="59.291447487" lon="34.6534609176"><ele>168.008</ele><time>2026-08-16T14:43:20.417Z</time><hdop>3.0</hdop><vdop>2.5</vdop><extensions><gom:speed>0.794</gom:speed></extensions></trkpt>
   <trkpt lat="59.2914449724" lon="34.6534688804"><ele>168.119</ele><time>2026-08-16T14:43:21.143Z</time><hdop>3.0</hdop><vdop>2.5</vdop><extensions><gom:speed>0.78</gom:speed></extensions></trkpt>
   <trkpt lat="59.2914427931" lon="34.6534828782"><ele>168.01</ele><time>2026-08-16T14:43:21.919Z</time><hdop>3.0</hdop><vdop>2.5</vdop><extensions><gom:speed>0.93</gom:speed></extensions></trkpt>
   <trkpt lat="59.2914413682" lon="34.6535009831"><ele>168.169</ele><time>2026-08-16T14:43:22.557Z</time><hdop>3.0</hdop><vdop>2.5</vdop><extensions><gom:speed>1.093</gom:speed></extensions></trkpt>
   <trkpt lat="59.291440069" lon="34.6535124663"><ele>168.265</ele><time>2026-08-16T14:43:23.116Z</time><hdop>3.062</hdop><vdop>2.5</vdop><extensions><gom:speed>0.978</gom:speed></extensions></trkpt>
   <trkpt lat="59.2914401947" lon="34.6535432279"><ele>168.042</ele><time>2026-08-16T14:43:24.136Z</time><hdop>3.062</hdop><vdop>2.75</vdop><extensions><gom:speed>1.238</gom:speed></extensions></trkpt>
   <trkpt lat="59.2914424997" lon="34.6535702176"><ele>168.612</ele><time>2026-08-16T14:43:25.136Z</time><hdop>3.062</hdop><vdop>2.75</vdop><extensions><gom:speed>1.231</gom:speed></extensions></trkpt>
   <trkpt lat="59.2914441761" lon="34.6535860594"><ele>168.953</ele><time>2026-08-16T14:43:25.756Z</time><hdop>3.062</hdop><vdop>2.75</vdop><extensions><gom:speed>1.222</gom:speed></extensions></trkpt>
   <trkpt lat="59.2914459782" lon="34.653596453"><ele>168.81</ele><time>2026-08-16T14:43:26.218Z</time><hdop>3.0</hdop><vdop>2.5</vdop><extensions><gom:speed>1.209</gom:speed></extensions></trkpt>
   <trkpt lat="59.2914490795" lon="34.6536142226"><ele>168.934</ele><time>2026-08-16T14:43:27.136Z</time><hdop>3.0</hdop><vdop>2.5</vdop><extensions><gom:speed>1.196</gom:speed></extensions></trkpt>
   <trkpt lat="59.291449792" lon="34.6536315732"><ele>169.009</ele><time>2026-08-16T14:43:27.985Z</time><hdop>3.0</hdop><vdop>2.5</vdop><extensions><gom:speed>1.101</gom:speed></extensions></trkpt>
   <trkpt lat="59.291449792" lon="34.6536418829"><ele>168.866</ele><time>2026-08-16T14:43:28.780Z</time><hdop>3.0</hdop><vdop>2.5</vdop><extensions><gom:speed>1.081</gom:speed></extensions></trkpt>
   <trkpt lat="59.2914516779" lon="34.6536584791"><ele>168.799</ele><time>2026-08-16T14:43:29.957Z</time><hdop>3.0</hdop><vdop>2.5</vdop><extensions><gom:speed>1.036</gom:speed></extensions></trkpt>
   <trkpt lat="59.2914565813" lon="34.6536637597"><ele>168.532</ele><time>2026-08-16T14:43:30.821Z</time><hdop>3.0</hdop><vdop>2.5</vdop><extensions><gom:speed>0.959</gom:speed></extensions></trkpt>
   <trkpt lat="59.2914590959" lon="34.6536625862"><ele>168.473</ele><time>2026-08-16T14:43:31.420Z</time><hdop>3.0</hdop><vdop>2.5</vdop><extensions><gom:speed>0.92</gom:speed></extensions></trkpt>
   <trkpt lat="59.2914601856" lon="34.653672393"><ele>168.438</ele><time>2026-08-16T14:43:32.078Z</time><hdop>3.0</hdop><vdop>2.5</vdop><extensions><gom:speed>0.948</gom:speed></extensions></trkpt>
   <trkpt lat="59.2914618619" lon="34.6536746562"><ele>168.235</ele><time>2026-08-16T14:43:32.706Z</time><hdop>3.0</hdop><vdop>2.5</vdop><extensions><gom:speed>0.91</gom:speed></extensions></trkpt>
   <trkpt lat="59.2914638736" lon="34.653673818"><ele>168.004</ele><time>2026-08-16T14:43:33.304Z</time><hdop>3.0</hdop><vdop>2.5</vdop><extensions><gom:speed>0.782</gom:speed></extensions></trkpt>
   <trkpt lat="59.2914667654" lon="34.6536803559"><ele>167.866</ele><time>2026-08-16T14:43:33.942Z</time><hdop>3.0</hdop><vdop>2.5</vdop><extensions><gom:speed>0.779</gom:speed></extensions></trkpt>
   <trkpt lat="59.2914704953" lon="34.653672896"><ele>167.998</ele><time>2026-08-16T14:43:35.136Z</time><hdop>3.0</hdop><vdop>2.687</vdop><extensions><gom:speed>0.4</gom:speed></extensions></trkpt>
   <trkpt lat="59.2914754825" lon="34.6536742371"><ele>167.963</ele><time>2026-08-16T14:43:36.136Z</time><hdop>3.0</hdop><vdop>2.812</vdop><extensions><gom:speed>0.561</gom:speed></extensions></trkpt>
   <trkpt lat="59.2914830682" lon="34.6536785957"><ele>167.443</ele><time>2026-08-16T14:43:37.136Z</time><hdop>3.0</hdop><vdop>2.687</vdop><extensions><gom:speed>0.634</gom:speed></extensions></trkpt>
   <trkpt lat="59.2914915758" lon="34.6536827866"><ele>167.114</ele><time>2026-08-16T14:43:38.136Z</time><hdop>3.0</hdop><vdop>2.75</vdop><extensions><gom:speed>0.75</gom:speed></extensions></trkpt>
   <trkpt lat="59.291498868" lon="34.6536892407"><ele>166.916</ele><time>2026-08-16T14:43:39.017Z</time><hdop>3.0</hdop><vdop>2.75</vdop><extensions><gom:speed>0.801</gom:speed></extensions></trkpt>
   <trkpt lat="59.2915037715" lon="34.653694186"><ele>167.293</ele><time>2026-08-16T14:43:39.577Z</time><hdop>3.0</hdop><vdop>2.5</vdop><extensions><gom:speed>0.819</gom:speed></extensions></trkpt>
   <trkpt lat="59.2915072919" lon="34.6536997181"><ele>167.55</ele><time>2026-08-16T14:43:40.136Z</time><hdop>3.0</hdop><vdop>2.5</vdop><extensions><gom:speed>0.849</gom:speed></extensions></trkpt>
   <trkpt lat="59.2915111894" lon="34.6537106983"><ele>167.705</ele><time>2026-08-16T14:43:40.941Z</time><hdop>3.0</hdop><vdop>2.5</vdop><extensions><gom:speed>0.849</gom:speed></extensions></trkpt>
   <trkpt lat="59.2915153804" lon="34.6537193317"><ele>167.739</ele><time>2026-08-16T14:43:41.716Z</time><hdop>3.0</hdop><vdop>2.75</vdop><extensions><gom:speed>0.831</gom:speed></extensions></trkpt>
   <trkpt lat="59.2915223793" lon="34.6537333295"><ele>167.296</ele><time>2026-08-16T14:43:42.983Z</time><hdop>3.0</hdop><vdop>2.5</vdop><extensions><gom:speed>0.832</gom:speed></extensions></trkpt>
   <trkpt lat="59.2915263607" lon="34.653740957"><ele>166.603</ele><time>2026-08-16T14:43:43.699Z</time><hdop>3.0</hdop><vdop>2.5</vdop><extensions><gom:speed>0.844</gom:speed></extensions></trkpt>
   <trkpt lat="59.2915332758" lon="34.6537537813"><ele>166.242</ele><time>2026-08-16T14:43:45.044Z</time><hdop>3.0</hdop><vdop>2.5</vdop><extensions><gom:speed>0.8</gom:speed></extensions></trkpt>
   <trkpt lat="59.2915339882" lon="34.6537567988"><ele>165.899</ele><time>2026-08-16T14:43:45.623Z</time><hdop>3.0</hdop><vdop>2.5</vdop><extensions><gom:speed>0.686</gom:speed></extensions></trkpt>
   <trkpt lat="59.291535497" lon="34.6537602354"><ele>165.807</ele><time>2026-08-16T14:43:46.136Z</time><hdop>3.0</hdop><vdop>2.5</vdop><extensions><gom:speed>0.765</gom:speed></extensions></trkpt>
   <trkpt lat="59.2915370895" lon="34.6537640911"><ele>165.751</ele><time>2026-08-16T14:43:46.603Z</time><hdop>3.0</hdop><vdop>2.5</vdop><extensions><gom:speed>0.764</gom:speed></extensions></trkpt>
   <trkpt lat="59.2915379696" lon="34.6537685335"><ele>165.548</ele><time>2026-08-16T14:43:47.136Z</time><hdop>3.0</hdop><vdop>2.5</vdop><extensions><gom:speed>0.838</gom:speed></extensions></trkpt>
   <trkpt lat="59.2915408614" lon="34.6537765801"><ele>165.427</ele><time>2026-08-16T14:43:47.802Z</time><hdop>3.0</hdop><vdop>2.5</vdop><extensions><gom:speed>0.845</gom:speed></extensions></trkpt>
   <trkpt lat="59.2915413643" lon="34.6537861355"><ele>165.222</ele><time>2026-08-16T14:43:48.499Z</time><hdop>3.0</hdop><vdop>2.5</vdop><extensions><gom:speed>0.885</gom:speed></extensions></trkpt>
   <trkpt lat="59.2915445913" lon="34.6537950203"><ele>165.1</ele><time>2026-08-16T14:43:49.058Z</time><hdop>3.0</hdop><vdop>2.5</vdop><extensions><gom:speed>0.979</gom:speed></extensions></trkpt>
   <trkpt lat="59.2915450942" lon="34.6538063359"><ele>164.992</ele><time>2026-08-16T14:43:49.824Z</time><hdop>3.0</hdop><vdop>2.5</vdop><extensions><gom:speed>0.963</gom:speed></extensions></trkpt>
   <trkpt lat="59.291544298" lon="34.653815975"><ele>165.138</ele><time>2026-08-16T14:43:50.442Z</time><hdop>3.0</hdop><vdop>2.5</vdop><extensions><gom:speed>0.992</gom:speed></extensions></trkpt>
   <trkpt lat="59.291547986" lon="34.6538270392"><ele>165.226</ele><time>2026-08-16T14:43:51.100Z</time><hdop>3.0</hdop><vdop>2.5</vdop><extensions><gom:speed>1.048</gom:speed></extensions></trkpt>
   <trkpt lat="59.2915484889" lon="34.6538346667"><ele>164.745</ele><time>2026-08-16T14:43:51.619Z</time><hdop>3.0</hdop><vdop>2.5</vdop><extensions><gom:speed>1.001</gom:speed></extensions></trkpt>
   <trkpt lat="59.2915494947" lon="34.6538430486"><ele>164.501</ele><time>2026-08-16T14:43:52.136Z</time><hdop>3.0</hdop><vdop>2.5</vdop><extensions><gom:speed>1.061</gom:speed></extensions></trkpt>
   <trkpt lat="59.291551674" lon="34.6538559567"><ele>164.355</ele><time>2026-08-16T14:43:52.818Z</time><hdop>3.0</hdop><vdop>2.5</vdop><extensions><gom:speed>1.067</gom:speed></extensions></trkpt>
   <trkpt lat="59.2915511711" lon="34.6538700383"><ele>164.446</ele><time>2026-08-16T14:43:53.524Z</time><hdop>3.0</hdop><vdop>2.5</vdop><extensions><gom:speed>1.099</gom:speed></extensions></trkpt>
   <trkpt lat="59.2915513807" lon="34.6538824435"><ele>164.5</ele><time>2026-08-16T14:43:54.103Z</time><hdop>3.0</hdop><vdop>2.5</vdop><extensions><gom:speed>1.098</gom:speed></extensions></trkpt>
   <trkpt lat="59.2915467706" lon="34.6539006323"><ele>164.633</ele><time>2026-08-16T14:43:55.136Z</time><hdop>3.0</hdop><vdop>2.5</vdop><extensions><gom:speed>1.012</gom:speed></extensions></trkpt>
   <trkpt lat="59.2915453876" lon="34.6539177314"><ele>164.81</ele><time>2026-08-16T14:43:56.136Z</time><hdop>3.0</hdop><vdop>2.5</vdop><extensions><gom:speed>0.973</gom:speed></extensions></trkpt>
   <trkpt lat="59.2915458905" lon="34.6539319806"><ele>164.916</ele><time>2026-08-16T14:43:56.901Z</time><hdop>3.0</hdop><vdop>2.5</vdop><extensions><gom:speed>0.982</gom:speed></extensions></trkpt>
   <trkpt lat="59.291544298" lon="34.6539422903"><ele>164.884</ele><time>2026-08-16T14:43:57.558Z</time><hdop>3.0</hdop><vdop>2.5</vdop><extensions><gom:speed>0.941</gom:speed></extensions></trkpt>
   <trkpt lat="59.291543795" lon="34.6539533544"><ele>164.864</ele><time>2026-08-16T14:43:58.118Z</time><hdop>3.0</hdop><vdop>2.5</vdop><extensions><gom:speed>1.006</gom:speed></extensions></trkpt>
   <trkpt lat="59.291544759" lon="34.6539671846"><ele>164.745</ele><time>2026-08-16T14:43:58.864Z</time><hdop>3.0</hdop><vdop>2.5</vdop><extensions><gom:speed>1.086</gom:speed></extensions></trkpt>
   <trkpt lat="59.291543795" lon="34.6539779972"><ele>165.151</ele><time>2026-08-16T14:43:59.522Z</time><hdop>3.0</hdop><vdop>2.625</vdop><extensions><gom:speed>1.072</gom:speed></extensions></trkpt>
   <trkpt lat="59.2915406937" lon="34.6539853733"><ele>165.468</ele><time>2026-08-16T14:44:00.136Z</time><hdop>3.0</hdop><vdop>2.5</vdop><extensions><gom:speed>0.942</gom:speed></extensions></trkpt>
   <trkpt lat="59.2915359999" lon="34.6539932523"><ele>165.657</ele><time>2026-08-16T14:44:00.856Z</time><hdop>3.0</hdop><vdop>2.5</vdop><extensions><gom:speed>0.946</gom:speed></extensions></trkpt>
   <trkpt lat="59.2915305935" lon="34.6540006284"><ele>165.775</ele><time>2026-08-16T14:44:01.642Z</time><hdop>3.0</hdop><vdop>2.5</vdop><extensions><gom:speed>0.903</gom:speed></extensions></trkpt>
   <trkpt lat="59.2915281628" lon="34.6540063281"><ele>166.004</ele><time>2026-08-16T14:44:02.136Z</time><hdop>3.0</hdop><vdop>2.562</vdop><extensions><gom:speed>0.856</gom:speed></extensions></trkpt>
   <trkpt lat="59.291525774" lon="34.6540215831"><ele>165.904</ele><time>2026-08-16T14:44:03.136Z</time><hdop>3.0</hdop><vdop>2.687</vdop><extensions><gom:speed>0.889</gom:speed></extensions></trkpt>
   <trkpt lat="59.2915260673" lon="34.6540383469"><ele>166.118</ele><time>2026-08-16T14:44:04.136Z</time><hdop>3.0</hdop><vdop>2.687</vdop><extensions><gom:speed>0.901</gom:speed></extensions></trkpt>
   <trkpt lat="59.2915263607" lon="34.654054524"><ele>166.372</ele><time>2026-08-16T14:44:05.136Z</time><hdop>3.0</hdop><vdop>2.75</vdop><extensions><gom:speed>0.836</gom:speed></extensions></trkpt>
   <trkpt lat="59.2915273665" lon="34.6540645823"><ele>166.524</ele><time>2026-08-16T14:44:05.803Z</time><hdop>3.0</hdop><vdop>2.75</vdop><extensions><gom:speed>0.834</gom:speed></extensions></trkpt>
   <trkpt lat="59.2915282885" lon="34.6540779933"><ele>167.062</ele><time>2026-08-16T14:44:06.638Z</time><hdop>3.0</hdop><vdop>2.625</vdop><extensions><gom:speed>0.835</gom:speed></extensions></trkpt>
   <trkpt lat="59.2915275761" lon="34.6540853694"><ele>167.384</ele><time>2026-08-16T14:44:07.138Z</time><hdop>3.0</hdop><vdop>2.625</vdop><extensions><gom:speed>0.803</gom:speed></extensions></trkpt>
   <trkpt lat="59.2915227984" lon="34.6540998701"><ele>167.567</ele><time>2026-08-16T14:44:08.136Z</time><hdop>3.0</hdop><vdop>2.625</vdop><extensions><gom:speed>0.762</gom:speed></extensions></trkpt>
   <trkpt lat="59.2915207867" lon="34.6541075815"><ele>167.677</ele><time>2026-08-16T14:44:08.681Z</time><hdop>3.0</hdop><vdop>2.625</vdop><extensions><gom:speed>0.762</gom:speed></extensions></trkpt>
   <trkpt lat="59.2915204934" lon="34.6541158795"><ele>167.674</ele><time>2026-08-16T14:44:09.136Z</time><hdop>3.0</hdop><vdop>2.562</vdop><extensions><gom:speed>0.86</gom:speed></extensions></trkpt>
   <trkpt lat="59.2915250615" lon="34.6541307993"><ele>167.673</ele><time>2026-08-16T14:44:10.104Z</time><hdop>3.0</hdop><vdop>2.562</vdop><extensions><gom:speed>0.926</gom:speed></extensions></trkpt>
   <trkpt lat="59.2915300906" lon="34.6541390974"><ele>167.659</ele><time>2026-08-16T14:44:10.761Z</time><hdop>3.0</hdop><vdop>2.625</vdop><extensions><gom:speed>0.96</gom:speed></extensions></trkpt>
   <trkpt lat="59.2915343654" lon="34.6541444618"><ele>167.491</ele><time>2026-08-16T14:44:11.242Z</time><hdop>3.0</hdop><vdop>2.562</vdop><extensions><gom:speed>1.019</gom:speed></extensions></trkpt>
   <trkpt lat="59.2915395622" lon="34.6541554421"><ele>167.391</ele><time>2026-08-16T14:44:11.979Z</time><hdop>3.0</hdop><vdop>2.562</vdop><extensions><gom:speed>1.051</gom:speed></extensions></trkpt>
   <trkpt lat="59.2915417834" lon="34.6541615609"><ele>167.7</ele><time>2026-08-16T14:44:12.459Z</time><hdop>3.0</hdop><vdop>2.625</vdop><extensions><gom:speed>1.005</gom:speed></extensions></trkpt>
   <trkpt lat="59.2915434598" lon="34.6541724574"><ele>168.025</ele><time>2026-08-16T14:44:13.136Z</time><hdop>3.0</hdop><vdop>2.812</vdop><extensions><gom:speed>1.016</gom:speed></extensions></trkpt>
   <trkpt lat="59.2915439627" lon="34.6541918196"><ele>168.219</ele><time>2026-08-16T14:44:14.079Z</time><hdop>3.0</hdop><vdop>2.812</vdop><extensions><gom:speed>1.081</gom:speed></extensions></trkpt>
   <trkpt lat="59.2915458905" lon="34.6542040572"><ele>167.93</ele><time>2026-08-16T14:44:14.884Z</time><hdop>3.0</hdop><vdop>2.937</vdop><extensions><gom:speed>1.034</gom:speed></extensions></trkpt>
   <trkpt lat="59.2915483632" lon="34.6542116847"><ele>167.805</ele><time>2026-08-16T14:44:15.443Z</time><hdop>3.0</hdop><vdop>2.75</vdop><extensions><gom:speed>1.071</gom:speed></extensions></trkpt>
   <trkpt lat="59.2915504587" lon="34.6542260178"><ele>167.73</ele><time>2026-08-16T14:44:16.140Z</time><hdop>3.0</hdop><vdop>2.75</vdop><extensions><gom:speed>1.116</gom:speed></extensions></trkpt>
   <trkpt lat="59.2915515902" lon="34.6542346511"><ele>167.511</ele><time>2026-08-16T14:44:16.660Z</time><hdop>3.0</hdop><vdop>2.625</vdop><extensions><gom:speed>1.102</gom:speed></extensions></trkpt>
   <trkpt lat="59.2915513807" lon="34.6542412728"><ele>167.463</ele><time>2026-08-16T14:44:17.135Z</time><hdop>3.0</hdop><vdop>2.562</vdop><extensions><gom:speed>1.066</gom:speed></extensions></trkpt>
   <trkpt lat="59.2915517998" lon="34.654257869"><ele>167.435</ele><time>2026-08-16T14:44:17.986Z</time><hdop>3.0</hdop><vdop>2.562</vdop><extensions><gom:speed>1.124</gom:speed></extensions></trkpt>
   <trkpt lat="59.2915510873" lon="34.6542699389"><ele>167.194</ele><time>2026-08-16T14:44:18.624Z</time><hdop>3.0</hdop><vdop>2.5</vdop><extensions><gom:speed>1.125</gom:speed></extensions></trkpt>
   <trkpt lat="59.2915503748" lon="34.6542811707"><ele>167.303</ele><time>2026-08-16T14:44:19.136Z</time><hdop>3.0</hdop><vdop>2.5</vdop><extensions><gom:speed>1.158</gom:speed></extensions></trkpt>
   <trkpt lat="59.2915497881" lon="34.6542990241"><ele>167.368</ele><time>2026-08-16T14:44:19.919Z</time><hdop>3.0</hdop><vdop>2.5</vdop><extensions><gom:speed>1.169</gom:speed></extensions></trkpt>
   <trkpt lat="59.2915484889" lon="34.6543078251"><ele>167.129</ele><time>2026-08-16T14:44:20.420Z</time><hdop>3.0</hdop><vdop>2.5</vdop><extensions><gom:speed>1.093</gom:speed></extensions></trkpt>
   <trkpt lat="59.2915469802" lon="34.6543189731"><ele>166.944</ele><time>2026-08-16T14:44:21.136Z</time><hdop>3.0</hdop><vdop>2.5</vdop><extensions><gom:speed>1.014</gom:speed></extensions></trkpt>
   <trkpt lat="59.2915444656" lon="34.6543274388"><ele>166.833</ele><time>2026-08-16T14:44:21.676Z</time><hdop>3.0</hdop><vdop>2.5</vdop><extensions><gom:speed>1.008</gom:speed></extensions></trkpt>
   <trkpt lat="59.2915418672" lon="34.6543343958"><ele>166.392</ele><time>2026-08-16T14:44:22.135Z</time><hdop>3.0</hdop><vdop>2.5</vdop><extensions><gom:speed>1.001</gom:speed></extensions></trkpt>
   <trkpt lat="59.2915396879" lon="34.6543426938"><ele>166.129</ele><time>2026-08-16T14:44:22.659Z</time><hdop>3.0</hdop><vdop>2.5</vdop><extensions><gom:speed>0.989</gom:speed></extensions></trkpt>
   <trkpt lat="59.2915375924" lon="34.6543500699"><ele>166.094</ele><time>2026-08-16T14:44:23.136Z</time><hdop>3.0</hdop><vdop>2.5</vdop><extensions><gom:speed>0.986</gom:speed></extensions></trkpt>
   <trkpt lat="59.2915371733" lon="34.6543679234"><ele>166.072</ele><time>2026-08-16T14:44:24.121Z</time><hdop>3.0</hdop><vdop>2.5</vdop><extensions><gom:speed>0.945</gom:speed></extensions></trkpt>
   <trkpt lat="59.2915396879" lon="34.6543761376"><ele>165.622</ele><time>2026-08-16T14:44:24.701Z</time><hdop>3.0</hdop><vdop>2.5</vdop><extensions><gom:speed>0.948</gom:speed></extensions></trkpt>
   <trkpt lat="59.291543795" lon="34.6543851901"><ele>165.257</ele><time>2026-08-16T14:44:25.437Z</time><hdop>3.0</hdop><vdop>2.5</vdop><extensions><gom:speed>0.953</gom:speed></extensions></trkpt>
   <trkpt lat="59.2915471897" lon="34.6543922309"><ele>165.038</ele><time>2026-08-16T14:44:25.976Z</time><hdop>3.0</hdop><vdop>2.5</vdop><extensions><gom:speed>0.968</gom:speed></extensions></trkpt>
   <trkpt lat="59.291553099" lon="34.6544008643"><ele>164.956</ele><time>2026-08-16T14:44:26.644Z</time><hdop>3.0</hdop><vdop>2.5</vdop><extensions><gom:speed>1.016</gom:speed></extensions></trkpt>
   <trkpt lat="59.2915565774" lon="34.6544077374"><ele>164.907</ele><time>2026-08-16T14:44:27.124Z</time><hdop>3.0</hdop><vdop>2.5</vdop><extensions><gom:speed>0.995</gom:speed></extensions></trkpt>
   <trkpt lat="59.2915617742" lon="34.6544147782"><ele>164.5</ele><time>2026-08-16T14:44:27.822Z</time><hdop>3.0</hdop><vdop>2.5</vdop><extensions><gom:speed>0.958</gom:speed></extensions></trkpt>
   <trkpt lat="59.2915661747" lon="34.6544177957"><ele>164.373</ele><time>2026-08-16T14:44:28.401Z</time><hdop>3.0</hdop><vdop>2.5</vdop><extensions><gom:speed>0.903</gom:speed></extensions></trkpt>
   <trkpt lat="59.291569276" lon="34.6544242498"><ele>164.298</ele><time>2026-08-16T14:44:28.941Z</time><hdop>3.0</hdop><vdop>2.5</vdop><extensions><gom:speed>0.891</gom:speed></extensions></trkpt>
   <trkpt lat="59.291575772" lon="34.6544282731"><ele>164.231</ele><time>2026-08-16T14:44:29.657Z</time><hdop>3.0</hdop><vdop>2.5</vdop><extensions><gom:speed>0.888</gom:speed></extensions></trkpt>
   <trkpt lat="59.2915804659" lon="34.6544312906"><ele>164.187</ele><time>2026-08-16T14:44:30.136Z</time><hdop>3.0</hdop><vdop>2.937</vdop><extensions><gom:speed>0.866</gom:speed></extensions></trkpt>
   <trkpt lat="59.2915872971" lon="34.6544411812"><ele>163.935</ele><time>2026-08-16T14:44:31.136Z</time><hdop>3.0</hdop><vdop>2.875</vdop><extensions><gom:speed>0.846</gom:speed></extensions></trkpt>
   <trkpt lat="59.2915888897" lon="34.6544521615"><ele>163.785</ele><time>2026-08-16T14:44:31.835Z</time><hdop>3.0</hdop><vdop>2.875</vdop><extensions><gom:speed>0.849</gom:speed></extensions></trkpt>
   <trkpt lat="59.2915890992" lon="34.6544613816"><ele>163.215</ele><time>2026-08-16T14:44:32.445Z</time><hdop>3.0</hdop><vdop>3.0</vdop><extensions><gom:speed>0.883</gom:speed></extensions></trkpt>
   <trkpt lat="59.2915894764" lon="34.6544723619"><ele>162.976</ele><time>2026-08-16T14:44:33.136Z</time><hdop>3.0</hdop><vdop>3.0</vdop><extensions><gom:speed>0.893</gom:speed></extensions></trkpt>
   <trkpt lat="59.2915912785" lon="34.6544827554"><ele>162.833</ele><time>2026-08-16T14:44:33.760Z</time><hdop>3.0</hdop><vdop>3.0</vdop><extensions><gom:speed>0.889</gom:speed></extensions></trkpt>
   <trkpt lat="59.2915960981" lon="34.6544938196"><ele>162.748</ele><time>2026-08-16T14:44:34.663Z</time><hdop>3.0</hdop><vdop>3.0</vdop><extensions><gom:speed>0.847</gom:speed></extensions></trkpt>
   <trkpt lat="59.2915988642" lon="34.6544998545"><ele>162.664</ele><time>2026-08-16T14:44:35.135Z</time><hdop>3.0</hdop><vdop>2.875</vdop><extensions><gom:speed>0.871</gom:speed></extensions></trkpt>
   <trkpt lat="59.2916036837" lon="34.6545153611"><ele>162.614</ele><time>2026-08-16T14:44:36.096Z</time><hdop>3.0</hdop><vdop>2.875</vdop><extensions><gom:speed>0.919</gom:speed></extensions></trkpt>
   <trkpt lat="59.2916045638" lon="34.6545250841"><ele>162.52</ele><time>2026-08-16T14:44:36.577Z</time><hdop>3.0</hdop><vdop>3.0</vdop><extensions><gom:speed>0.909</gom:speed></extensions></trkpt>
   <trkpt lat="59.2916049829" lon="34.6545356453"><ele>161.916</ele><time>2026-08-16T14:44:37.136Z</time><hdop>3.0</hdop><vdop>2.75</vdop><extensions><gom:speed>0.939</gom:speed></extensions></trkpt>
   <trkpt lat="59.2916051925" lon="34.6545497269"><ele>161.556</ele><time>2026-08-16T14:44:37.863Z</time><hdop>3.0</hdop><vdop>2.75</vdop><extensions><gom:speed>0.948</gom:speed></extensions></trkpt>
   <trkpt lat="59.2916066593" lon="34.6545655687"><ele>161.306</ele><time>2026-08-16T14:44:38.658Z</time><hdop>3.0</hdop><vdop>2.625</vdop><extensions><gom:speed>0.984</gom:speed></extensions></trkpt>
   <trkpt lat="59.2916076651" lon="34.654576046"><ele>161.36</ele><time>2026-08-16T14:44:39.136Z</time><hdop>3.0</hdop><vdop>2.562</vdop><extensions><gom:speed>1.021</gom:speed></extensions></trkpt>
   <trkpt lat="59.2916089643" lon="34.6545903791"><ele>161.392</ele><time>2026-08-16T14:44:39.816Z</time><hdop>3.0</hdop><vdop>2.562</vdop><extensions><gom:speed>1.02</gom:speed></extensions></trkpt>
   <trkpt lat="59.2916122752" lon="34.6546004374"><ele>161.636</ele><time>2026-08-16T14:44:40.425Z</time><hdop>3.0</hdop><vdop>2.625</vdop><extensions><gom:speed>0.965</gom:speed></extensions></trkpt>
   <trkpt lat="59.2916201961" lon="34.6546080649"><ele>162.209</ele><time>2026-08-16T14:44:41.136Z</time><hdop>3.0</hdop><vdop>2.75</vdop><extensions><gom:speed>1.031</gom:speed></extensions></trkpt>
   <trkpt lat="59.2916298772" lon="34.6546104957"><ele>162.551</ele><time>2026-08-16T14:44:41.917Z</time><hdop>3.0</hdop><vdop>2.75</vdop><extensions><gom:speed>1.038</gom:speed></extensions></trkpt>
   <trkpt lat="59.2916394745" lon="34.6546243258"><ele>162.219</ele><time>2026-08-16T14:44:43.124Z</time><hdop>3.0</hdop><vdop>2.687</vdop><extensions><gom:speed>0.912</gom:speed></extensions></trkpt>
   <trkpt lat="59.2916428691" lon="34.6546278462"><ele>161.588</ele><time>2026-08-16T14:44:43.605Z</time><hdop>3.0</hdop><vdop>2.562</vdop><extensions><gom:speed>0.856</gom:speed></extensions></trkpt>
   <trkpt lat="59.2916491975" lon="34.6546283491"><ele>161.645</ele><time>2026-08-16T14:44:44.136Z</time><hdop>3.0</hdop><vdop>2.625</vdop><extensions><gom:speed>1.164</gom:speed></extensions></trkpt>
   <trkpt lat="59.2916599682" lon="34.6546225656"><ele>161.679</ele><time>2026-08-16T14:44:44.901Z</time><hdop>3.0</hdop><vdop>2.625</vdop><extensions><gom:speed>1.216</gom:speed></extensions></trkpt>
   <trkpt lat="59.2916671767" lon="34.6546038739"><ele>161.867</ele><time>2026-08-16T14:44:45.823Z</time><hdop>3.0</hdop><vdop>2.812</vdop><extensions><gom:speed>0.959</gom:speed></extensions></trkpt>
   <trkpt lat="59.291725389" lon="34.6545750402"><ele>163.367</ele><time>2026-08-16T14:44:47.136Z</time><hdop>3.062</hdop><vdop>2.5</vdop><extensions><gom:speed>4.23</gom:speed></extensions></trkpt>
   <trkpt lat="59.2917236707" lon="34.6545852661"><ele>164.717</ele><time>2026-08-16T14:44:48.136Z</time><hdop>3.062</hdop><vdop>2.625</vdop><extensions><gom:speed>1.601</gom:speed></extensions></trkpt>
   <trkpt lat="59.2917218686" lon="34.6545918878"><ele>165.436</ele><time>2026-08-16T14:44:49.136Z</time><hdop>3.25</hdop><vdop>2.812</vdop><extensions><gom:speed>1.634</gom:speed></extensions></trkpt>
   <trkpt lat="59.2917176776" lon="34.6545902953"><ele>165.866</ele><time>2026-08-16T14:44:50.133Z</time><hdop>3.937</hdop><vdop>2.812</vdop><extensions><gom:speed>1.175</gom:speed></extensions></trkpt>
   <trkpt lat="59.2917447931" lon="34.6546342164"><ele>166.237</ele><time>2026-08-16T14:44:50.614Z</time><hdop>3.875</hdop><vdop>2.75</vdop><extensions><gom:speed>1.382</gom:speed></extensions></trkpt>
   <trkpt lat="59.2917534684" lon="34.6546689175"><ele>167.011</ele><time>2026-08-16T14:44:51.136Z</time><hdop>4.0</hdop><vdop>2.812</vdop><extensions><gom:speed>1.691</gom:speed></extensions></trkpt>
   <trkpt lat="59.2917629818" lon="34.654698338"><ele>167.473</ele><time>2026-08-16T14:44:51.998Z</time><hdop>3.812</hdop><vdop>2.812</vdop><extensions><gom:speed>1.428</gom:speed></extensions></trkpt>
   <trkpt lat="59.291757785" lon="34.6547563408"><ele>168.033</ele><time>2026-08-16T14:44:53.136Z</time><hdop>3.75</hdop><vdop>2.875</vdop><extensions><gom:speed>1.395</gom:speed></extensions></trkpt>
   <trkpt lat="59.2917543904" lon="34.6547926344"><ele>168.552</ele><time>2026-08-16T14:44:54.136Z</time><hdop>3.562</hdop><vdop>2.937</vdop><extensions><gom:speed>1.388</gom:speed></extensions></trkpt>
   <trkpt lat="59.2917545999" lon="34.6548108231"><ele>168.861</ele><time>2026-08-16T14:44:54.855Z</time><hdop>3.375</hdop><vdop>2.937</vdop><extensions><gom:speed>1.239</gom:speed></extensions></trkpt>
   <trkpt lat="59.2917526721" lon="34.6548311912"><ele>168.984</ele><time>2026-08-16T14:44:55.571Z</time><hdop>3.062</hdop><vdop>2.875</vdop><extensions><gom:speed>1.21</gom:speed></extensions></trkpt>
   <trkpt lat="59.2917535941" lon="34.6548435964"><ele>169.057</ele><time>2026-08-16T14:44:56.091Z</time><hdop>3.0</hdop><vdop>2.875</vdop><extensions><gom:speed>1.206</gom:speed></extensions></trkpt>
   <trkpt lat="59.291746679" lon="34.6548703346"><ele>168.834</ele><time>2026-08-16T14:44:57.112Z</time><hdop>3.0</hdop><vdop>2.687</vdop><extensions><gom:speed>1.196</gom:speed></extensions></trkpt>
   <trkpt lat="59.2917409793" lon="34.6548901998"><ele>168.434</ele><time>2026-08-16T14:44:57.819Z</time><hdop>3.0</hdop><vdop>2.5</vdop><extensions><gom:speed>1.161</gom:speed></extensions></trkpt>
   <trkpt lat="59.2917338966" lon="34.654909059"><ele>167.811</ele><time>2026-08-16T14:44:58.457Z</time><hdop>3.0</hdop><vdop>2.5</vdop><extensions><gom:speed>1.199</gom:speed></extensions></trkpt>
   <trkpt lat="59.2917317592" lon="34.6549215481"><ele>167.439</ele><time>2026-08-16T14:44:58.977Z</time><hdop>3.0</hdop><vdop>2.5</vdop><extensions><gom:speed>1.194</gom:speed></extensions></trkpt>
   <trkpt lat="59.291721659" lon="34.6549446821"><ele>167.056</ele><time>2026-08-16T14:44:59.792Z</time><hdop>3.0</hdop><vdop>2.5</vdop><extensions><gom:speed>1.204</gom:speed></extensions></trkpt>
   <trkpt lat="59.2917113912" lon="34.6549617812"><ele>166.778</ele><time>2026-08-16T14:45:00.331Z</time><hdop>3.0</hdop><vdop>2.5</vdop><extensions><gom:speed>1.324</gom:speed></extensions></trkpt>
   <trkpt lat="59.2917087928" lon="34.6549780421"><ele>166.612</ele><time>2026-08-16T14:45:01.077Z</time><hdop>3.0</hdop><vdop>2.5</vdop><extensions><gom:speed>1.178</gom:speed></extensions></trkpt>
   <trkpt lat="59.2917015844" lon="34.6549870946"><ele>166.623</ele><time>2026-08-16T14:45:01.577Z</time><hdop>3.0</hdop><vdop>2.5</vdop><extensions><gom:speed>1.172</gom:speed></extensions></trkpt>
   <trkpt lat="59.2916926996" lon="34.654997991"><ele>166.608</ele><time>2026-08-16T14:45:02.136Z</time><hdop>3.0</hdop><vdop>2.5</vdop><extensions><gom:speed>1.246</gom:speed></extensions></trkpt>
   <trkpt lat="59.2916784922" lon="34.6550167665"><ele>165.872</ele><time>2026-08-16T14:45:03.136Z</time><hdop>3.0</hdop><vdop>2.5</vdop><extensions><gom:speed>1.187</gom:speed></extensions></trkpt>
   <trkpt lat="59.2916678891" lon="34.655033195"><ele>165.629</ele><time>2026-08-16T14:45:04.136Z</time><hdop>3.0</hdop><vdop>2.562</vdop><extensions><gom:speed>1.096</gom:speed></extensions></trkpt>
   <trkpt lat="59.2916592977" lon="34.6550453488"><ele>165.194</ele><time>2026-08-16T14:45:05.136Z</time><hdop>3.0</hdop><vdop>2.5</vdop><extensions><gom:speed>0.978</gom:speed></extensions></trkpt>
   <trkpt lat="59.2916543943" lon="34.655056832"><ele>164.935</ele><time>2026-08-16T14:45:05.975Z</time><hdop>3.0</hdop><vdop>2.5</vdop><extensions><gom:speed>0.961</gom:speed></extensions></trkpt>
   <trkpt lat="59.2916482755" lon="34.6550638728"><ele>164.757</ele><time>2026-08-16T14:45:06.731Z</time><hdop>3.0</hdop><vdop>2.5</vdop><extensions><gom:speed>0.951</gom:speed></extensions></trkpt>
   <trkpt lat="59.2916425758" lon="34.6550735958"><ele>164.791</ele><time>2026-08-16T14:45:07.860Z</time><hdop>3.0</hdop><vdop>2.5</vdop><extensions><gom:speed>0.939</gom:speed></extensions></trkpt>
   <trkpt lat="59.2916383848" lon="34.6550696563"><ele>165.392</ele><time>2026-08-16T14:45:08.773Z</time><hdop>3.0</hdop><vdop>2.5</vdop><extensions><gom:speed>0.722</gom:speed></extensions></trkpt>
   <trkpt lat="59.2916389716" lon="34.6550690696"><ele>166.054</ele><time>2026-08-16T14:45:09.617Z</time><hdop>3.187</hdop><vdop>2.5</vdop><extensions><gom:speed>0.629</gom:speed></extensions></trkpt>
   <trkpt lat="59.2916439588" lon="34.6550666388"><ele>166.231</ele><time>2026-08-16T14:45:10.136Z</time><hdop>3.25</hdop><vdop>2.5</vdop><extensions><gom:speed>0.663</gom:speed></extensions></trkpt>
   <trkpt lat="59.2916501614" lon="34.6550603524"><ele>166.337</ele><time>2026-08-16T14:45:11.060Z</time><hdop>3.562</hdop><vdop>2.5</vdop><extensions><gom:speed>0.883</gom:speed></extensions></trkpt>
   <trkpt lat="59.2916590881" lon="34.6550581731"><ele>166.576</ele><time>2026-08-16T14:45:11.757Z</time><hdop>3.875</hdop><vdop>2.5</vdop><extensions><gom:speed>0.906</gom:speed></extensions></trkpt>
   <trkpt lat="59.2916684759" lon="34.6550631184"><ele>167.042</ele><time>2026-08-16T14:45:12.395Z</time><hdop>4.0</hdop><vdop>2.5</vdop><extensions><gom:speed>0.838</gom:speed></extensions></trkpt>
   <trkpt lat="59.2916753909" lon="34.6550710812"><ele>167.444</ele><time>2026-08-16T14:45:13.136Z</time><hdop>4.187</hdop><vdop>2.5</vdop><extensions><gom:speed>0.926</gom:speed></extensions></trkpt>
   <trkpt lat="59.2916809649" lon="34.6550810557"><ele>167.683</ele><time>2026-08-16T14:45:13.916Z</time><hdop>4.187</hdop><vdop>2.5</vdop><extensions><gom:speed>0.892</gom:speed></extensions></trkpt>
   <trkpt lat="59.2916807973" lon="34.6550991606"><ele>167.763</ele><time>2026-08-16T14:45:14.613Z</time><hdop>4.125</hdop><vdop>2.5</vdop><extensions><gom:speed>0.912</gom:speed></extensions></trkpt>
   <trkpt lat="59.2916772769" lon="34.6551121526"><ele>167.489</ele><time>2026-08-16T14:45:15.136Z</time><hdop>4.062</hdop><vdop>2.5</vdop><extensions><gom:speed>0.889</gom:speed></extensions></trkpt>
   <trkpt lat="59.2916731697" lon="34.6551284973"><ele>167.325</ele><time>2026-08-16T14:45:16.056Z</time><hdop>3.937</hdop><vdop>2.5</vdop><extensions><gom:speed>0.871</gom:speed></extensions></trkpt>
   <trkpt lat="59.2916655841" lon="34.6551418245"><ele>167.293</ele><time>2026-08-16T14:45:16.694Z</time><hdop>3.687</hdop><vdop>2.5</vdop><extensions><gom:speed>0.908</gom:speed></extensions></trkpt>
   <trkpt lat="59.2916468925" lon="34.6551643718"><ele>166.468</ele><time>2026-08-16T14:45:18.136Z</time><hdop>3.312</hdop><vdop>2.5</vdop><extensions><gom:speed>0.954</gom:speed></extensions></trkpt>
   <trkpt lat="59.2916345711" lon="34.6551640365"><ele>165.975</ele><time>2026-08-16T14:45:19.098Z</time><hdop>3.187</hdop><vdop>2.5</vdop><extensions><gom:speed>0.929</gom:speed></extensions></trkpt>
   <trkpt lat="59.2916204895" lon="34.6551705744"><ele>165.637</ele><time>2026-08-16T14:45:20.011Z</time><hdop>3.125</hdop><vdop>2.5</vdop><extensions><gom:speed>1.019</gom:speed></extensions></trkpt>
   <trkpt lat="59.2916110598" lon="34.6551932894"><ele>165.678</ele><time>2026-08-16T14:45:20.757Z</time><hdop>3.062</hdop><vdop>2.5</vdop><extensions><gom:speed>1.192</gom:speed></extensions></trkpt>
   <trkpt lat="59.2916064917" lon="34.6552127354"><ele>166.142</ele><time>2026-08-16T14:45:21.237Z</time><hdop>3.062</hdop><vdop>2.5</vdop><extensions><gom:speed>1.453</gom:speed></extensions></trkpt>
   <trkpt lat="59.2916054859" lon="34.6552232966"><ele>166.419</ele><time>2026-08-16T14:45:22.131Z</time><hdop>3.125</hdop><vdop>2.5</vdop><extensions><gom:speed>1.293</gom:speed></extensions></trkpt>
   <trkpt lat="59.2916003729" lon="34.65524115"><ele>166.739</ele><time>2026-08-16T14:45:22.877Z</time><hdop>3.187</hdop><vdop>2.5</vdop><extensions><gom:speed>1.21</gom:speed></extensions></trkpt>
   <trkpt lat="59.2915948827" lon="34.6552656252"><ele>166.899</ele><time>2026-08-16T14:45:23.496Z</time><hdop>3.25</hdop><vdop>2.5</vdop><extensions><gom:speed>1.137</gom:speed></extensions></trkpt>
   <trkpt lat="59.2915918653" lon="34.6552783657"><ele>166.995</ele><time>2026-08-16T14:45:24.134Z</time><hdop>3.375</hdop><vdop>2.5</vdop><extensions><gom:speed>1.121</gom:speed></extensions></trkpt>
   <trkpt lat="59.2915927873" lon="34.6552979793"><ele>167.867</ele><time>2026-08-16T14:45:24.615Z</time><hdop>3.375</hdop><vdop>2.5</vdop><extensions><gom:speed>1.078</gom:speed></extensions></trkpt>
   <trkpt lat="59.2915999957" lon="34.6553189341"><ele>168.701</ele><time>2026-08-16T14:45:25.135Z</time><hdop>3.437</hdop><vdop>2.625</vdop><extensions><gom:speed>1.442</gom:speed></extensions></trkpt>
   <trkpt lat="59.2916116885" lon="34.655334273"><ele>168.572</ele><time>2026-08-16T14:45:26.136Z</time><hdop>3.437</hdop><vdop>2.5</vdop><extensions><gom:speed>0.902</gom:speed></extensions></trkpt>
   <trkpt lat="59.2916163823" lon="34.6553362846"><ele>168.248</ele><time>2026-08-16T14:45:27.135Z</time><hdop>3.437</hdop><vdop>2.5</vdop><extensions><gom:speed>0.577</gom:speed></extensions></trkpt>
   <trkpt lat="59.2916179749" lon="34.6553377934"><ele>168.086</ele><time>2026-08-16T14:45:28.136Z</time><hdop>3.312</hdop><vdop>2.5</vdop><extensions><gom:speed>0.338</gom:speed></extensions></trkpt>
   <trkpt lat="59.2916181844" lon="34.6553382963"><ele>167.902</ele><time>2026-08-16T14:45:29.136Z</time><hdop>3.062</hdop><vdop>2.5</vdop><extensions><gom:speed>0.224</gom:speed></extensions></trkpt>
   <trkpt lat="59.2916175977" lon="34.6553385478"><ele>167.793</ele><time>2026-08-16T14:45:30.092Z</time><hdop>3.0</hdop><vdop>2.5</vdop><extensions><gom:speed>0.147</gom:speed></extensions></trkpt>
   <trkpt lat="59.2916189807" lon="34.6553377934"><ele>167.506</ele><time>2026-08-16T14:45:30.650Z</time><hdop>3.0</hdop><vdop>2.5</vdop><extensions><gom:speed>0.2</gom:speed></extensions></trkpt>
   <trkpt lat="59.2916209924" lon="34.6553383801"><ele>167.495</ele><time>2026-08-16T14:45:31.136Z</time><hdop>3.0</hdop><vdop>2.5</vdop><extensions><gom:speed>0.282</gom:speed></extensions></trkpt>
   <trkpt lat="59.2916224592" lon="34.6553407271"><ele>167.488</ele><time>2026-08-16T14:45:32.035Z</time><hdop>3.0</hdop><vdop>2.5</vdop><extensions><gom:speed>0.277</gom:speed></extensions></trkpt>
   <trkpt lat="59.2916283684" lon="34.6553442475"><ele>167.235</ele><time>2026-08-16T14:45:32.997Z</time><hdop>3.0</hdop><vdop>2.5</vdop><extensions><gom:speed>0.402</gom:speed></extensions></trkpt>
   <trkpt lat="59.2916349902" lon="34.6553472649"><ele>166.693</ele><time>2026-08-16T14:45:33.771Z</time><hdop>3.0</hdop><vdop>2.5</vdop><extensions><gom:speed>0.523</gom:speed></extensions></trkpt>
   <trkpt lat="59.2916453837" lon="34.6553534675"><ele>166.617</ele><time>2026-08-16T14:45:34.774Z</time><hdop>3.0</hdop><vdop>2.5</vdop><extensions><gom:speed>0.72</gom:speed></extensions></trkpt>
   <trkpt lat="59.2916529693" lon="34.655356485"><ele>166.562</ele><time>2026-08-16T14:45:35.431Z</time><hdop>3.0</hdop><vdop>2.5</vdop><extensions><gom:speed>0.84</gom:speed></extensions></trkpt>
   <trkpt lat="59.2916605969" lon="34.6553579938"><ele>166.494</ele><time>2026-08-16T14:45:36.136Z</time><hdop>3.0</hdop><vdop>2.5</vdop><extensions><gom:speed>0.924</gom:speed></extensions></trkpt>
   <trkpt lat="59.2916685597" lon="34.6553563174"><ele>166.454</ele><time>2026-08-16T14:45:36.835Z</time><hdop>3.0</hdop><vdop>2.5</vdop><extensions><gom:speed>0.943</gom:speed></extensions></trkpt>
   <trkpt lat="59.2916807973" lon="34.6553426549"><ele>166.579</ele><time>2026-08-16T14:45:37.954Z</time><hdop>3.0</hdop><vdop>2.5</vdop><extensions><gom:speed>0.956</gom:speed></extensions></trkpt>
   <trkpt lat="59.2916904784" lon="34.6553313393"><ele>166.607</ele><time>2026-08-16T14:45:39.151Z</time><hdop>3.0</hdop><vdop>2.5</vdop><extensions><gom:speed>1.259</gom:speed></extensions></trkpt>
   <trkpt lat="59.2916900593" lon="34.6553309202"><ele>166.723</ele><time>2026-08-16T14:45:39.858Z</time><hdop>3.0</hdop><vdop>2.5</vdop><extensions><gom:speed>0.612</gom:speed></extensions></trkpt>
   <trkpt lat="59.2916929929" lon="34.6553202752"><ele>166.707</ele><time>2026-08-16T14:45:40.555Z</time><hdop>3.062</hdop><vdop>2.5</vdop><extensions><gom:speed>0.949</gom:speed></extensions></trkpt>
   <trkpt lat="59.2916967648" lon="34.6553215325"><ele>166.499</ele><time>2026-08-16T14:45:41.136Z</time><hdop>3.25</hdop><vdop>2.5</vdop><extensions><gom:speed>0.97</gom:speed></extensions></trkpt>
   <trkpt lat="59.2917013748" lon="34.6553243823"><ele>166.375</ele><time>2026-08-16T14:45:41.693Z</time><hdop>3.375</hdop><vdop>2.5</vdop><extensions><gom:speed>0.99</gom:speed></extensions></trkpt>
   <trkpt lat="59.2917051886" lon="34.6553413976"><ele>165.933</ele><time>2026-08-16T14:45:42.371Z</time><hdop>3.5</hdop><vdop>2.5</vdop><extensions><gom:speed>0.958</gom:speed></extensions></trkpt>
   <trkpt lat="59.2917078708" lon="34.6553605922"><ele>165.502</ele><time>2026-08-16T14:45:43.136Z</time><hdop>3.625</hdop><vdop>2.5</vdop><extensions><gom:speed>0.949</gom:speed></extensions></trkpt>
   <trkpt lat="59.2917103854" lon="34.6553727459"><ele>165.244</ele><time>2026-08-16T14:45:43.715Z</time><hdop>3.75</hdop><vdop>2.5</vdop><extensions><gom:speed>0.965</gom:speed></extensions></trkpt>
   <trkpt lat="59.2917128999" lon="34.6553885877"><ele>165.162</ele><time>2026-08-16T14:45:44.412Z</time><hdop>3.687</hdop><vdop>2.5</vdop><extensions><gom:speed>0.95</gom:speed></extensions></trkpt>
   <trkpt lat="59.2917160851" lon="34.6553985622"><ele>165.113</ele><time>2026-08-16T14:45:45.011Z</time><hdop>3.75</hdop><vdop>2.5</vdop><extensions><gom:speed>0.962</gom:speed></extensions></trkpt>
   <trkpt lat="59.291718893" lon="34.6554101292"><ele>164.55</ele><time>2026-08-16T14:45:45.659Z</time><hdop>3.687</hdop><vdop>2.5</vdop><extensions><gom:speed>0.981</gom:speed></extensions></trkpt>
   <trkpt lat="59.2917199827" lon="34.6554189302"><ele>164.016</ele><time>2026-08-16T14:45:46.135Z</time><hdop>3.562</hdop><vdop>2.5</vdop><extensions><gom:speed>0.978</gom:speed></extensions></trkpt>
   <trkpt lat="59.2917221619" lon="34.6554376219"><ele>163.808</ele><time>2026-08-16T14:45:47.136Z</time><hdop>3.375</hdop><vdop>2.5</vdop><extensions><gom:speed>0.978</gom:speed></extensions></trkpt>
   <trkpt lat="59.2917235869" lon="34.6554497756"><ele>163.684</ele><time>2026-08-16T14:45:47.720Z</time><hdop>3.25</hdop><vdop>2.5</vdop><extensions><gom:speed>1.007</gom:speed></extensions></trkpt>
   <trkpt lat="59.2917235869" lon="34.6554637734"><ele>163.556</ele><time>2026-08-16T14:45:48.476Z</time><hdop>3.187</hdop><vdop>2.5</vdop><extensions><gom:speed>0.984</gom:speed></extensions></trkpt>
   <trkpt lat="59.2917246765" lon="34.6554755919"><ele>163.48</ele><time>2026-08-16T14:45:49.094Z</time><hdop>3.062</hdop><vdop>2.5</vdop><extensions><gom:speed>0.987</gom:speed></extensions></trkpt>
   <trkpt lat="59.2917236707" lon="34.6554891706"><ele>163.109</ele><time>2026-08-16T14:45:49.997Z</time><hdop>3.062</hdop><vdop>2.5</vdop><extensions><gom:speed>0.925</gom:speed></extensions></trkpt>
   <trkpt lat="59.2917233773" lon="34.6555015758"><ele>162.921</ele><time>2026-08-16T14:45:50.920Z</time><hdop>3.0</hdop><vdop>2.5</vdop><extensions><gom:speed>0.867</gom:speed></extensions></trkpt>
   <trkpt lat="59.2917221619" lon="34.6555098739"><ele>162.483</ele><time>2026-08-16T14:45:51.676Z</time><hdop>3.0</hdop><vdop>2.5</vdop><extensions><gom:speed>0.851</gom:speed></extensions></trkpt>
   <trkpt lat="59.2917208628" lon="34.6555169985"><ele>162.07</ele><time>2026-08-16T14:45:52.136Z</time><hdop>3.0</hdop><vdop>2.5</vdop><extensions><gom:speed>0.885</gom:speed></extensions></trkpt>
   <trkpt lat="59.2917206951" lon="34.6555310801"><ele>161.622</ele><time>2026-08-16T14:45:53.136Z</time><hdop>3.0</hdop><vdop>2.5</vdop><extensions><gom:speed>0.838</gom:speed></extensions></trkpt>
   <trkpt lat="59.2917229582" lon="34.6555402164"><ele>161.354</ele><time>2026-08-16T14:45:53.855Z</time><hdop>3.0</hdop><vdop>2.5</vdop><extensions><gom:speed>0.871</gom:speed></extensions></trkpt>
   <trkpt lat="59.2917243832" lon="34.6555469219"><ele>161.353</ele><time>2026-08-16T14:45:54.571Z</time><hdop>3.0</hdop><vdop>2.5</vdop><extensions><gom:speed>0.838</gom:speed></extensions></trkpt>
   <trkpt lat="59.291726772" lon="34.6555524539"><ele>161.353</ele><time>2026-08-16T14:45:55.091Z</time><hdop>3.0</hdop><vdop>2.5</vdop><extensions><gom:speed>0.836</gom:speed></extensions></trkpt>
   <trkpt lat="59.2917300828" lon="34.6555604167"><ele>161.437</ele><time>2026-08-16T14:45:55.955Z</time><hdop>3.0</hdop><vdop>2.5</vdop><extensions><gom:speed>0.846</gom:speed></extensions></trkpt>
   <trkpt lat="59.2917314659" lon="34.6555676252"><ele>161.414</ele><time>2026-08-16T14:45:56.691Z</time><hdop>3.0</hdop><vdop>2.5</vdop><extensions><gom:speed>0.806</gom:speed></extensions></trkpt>
   <trkpt lat="59.2917320945" lon="34.6555744983"><ele>161.144</ele><time>2026-08-16T14:45:57.319Z</time><hdop>3.0</hdop><vdop>2.562</vdop><extensions><gom:speed>0.777</gom:speed></extensions></trkpt>
   <trkpt lat="59.2917330584" lon="34.6555840537"><ele>160.982</ele><time>2026-08-16T14:45:57.957Z</time><hdop>3.0</hdop><vdop>2.562</vdop><extensions><gom:speed>0.797</gom:speed></extensions></trkpt>
   <trkpt lat="59.2917335613" lon="34.6555969618"><ele>161.255</ele><time>2026-08-16T14:45:58.772Z</time><hdop>3.0</hdop><vdop>2.5</vdop><extensions><gom:speed>0.85</gom:speed></extensions></trkpt>
   <trkpt lat="59.2917338966" lon="34.6556031644"><ele>161.569</ele><time>2026-08-16T14:45:59.233Z</time><hdop>3.0</hdop><vdop>2.5</vdop><extensions><gom:speed>0.805</gom:speed></extensions></trkpt>
   <trkpt lat="59.2917349863" lon="34.6556143962"><ele>161.563</ele><time>2026-08-16T14:46:00.136Z</time><hdop>3.0</hdop><vdop>2.5</vdop><extensions><gom:speed>0.804</gom:speed></extensions></trkpt>
   <trkpt lat="59.2917367884" lon="34.6556204312"><ele>161.56</ele><time>2026-08-16T14:46:00.598Z</time><hdop>3.0</hdop><vdop>2.5</vdop><extensions><gom:speed>0.839</gom:speed></extensions></trkpt>
   <trkpt lat="59.2917387581" lon="34.6556257956"><ele>161.51</ele><time>2026-08-16T14:46:01.136Z</time><hdop>3.0</hdop><vdop>2.5</vdop><extensions><gom:speed>0.818</gom:speed></extensions></trkpt>
   <trkpt lat="59.2917435777" lon="34.6556329202"><ele>161.455</ele><time>2026-08-16T14:46:02.136Z</time><hdop>3.0</hdop><vdop>2.5</vdop><extensions><gom:speed>0.77</gom:speed></extensions></trkpt>
   <trkpt lat="59.2917501994" lon="34.6556370273"><ele>161.423</ele><time>2026-08-16T14:46:03.071Z</time><hdop>3.0</hdop><vdop>2.5</vdop><extensions><gom:speed>0.775</gom:speed></extensions></trkpt>
   <trkpt lat="59.2917551866" lon="34.6556374464"><ele>161.239</ele><time>2026-08-16T14:46:03.680Z</time><hdop>3.0</hdop><vdop>2.5</vdop><extensions><gom:speed>0.849</gom:speed></extensions></trkpt>
   <trkpt lat="59.2917588747" lon="34.6556391228"><ele>161.477</ele><time>2026-08-16T14:46:04.135Z</time><hdop>3.0</hdop><vdop>2.5</vdop><extensions><gom:speed>0.839</gom:speed></extensions></trkpt>
   <trkpt lat="59.2917662927" lon="34.6556456607"><ele>161.62</ele><time>2026-08-16T14:46:05.132Z</time><hdop>3.0</hdop><vdop>2.5</vdop><extensions><gom:speed>0.845</gom:speed></extensions></trkpt>
   <trkpt lat="59.2917704836" lon="34.6556540426"><ele>161.455</ele><time>2026-08-16T14:46:06.016Z</time><hdop>3.0</hdop><vdop>2.5</vdop><extensions><gom:speed>0.833</gom:speed></extensions></trkpt>
   <trkpt lat="59.2917698969" lon="34.655661251"><ele>161.263</ele><time>2026-08-16T14:46:06.810Z</time><hdop>3.0</hdop><vdop>2.5</vdop><extensions><gom:speed>0.739</gom:speed></extensions></trkpt>
   <trkpt lat="59.291769394" lon="34.6556673698"><ele>160.985</ele><time>2026-08-16T14:46:07.733Z</time><hdop>3.0</hdop><vdop>2.5</vdop><extensions><gom:speed>0.662</gom:speed></extensions></trkpt>
   <trkpt lat="59.2917740878" lon="34.6556757517"><ele>160.737</ele><time>2026-08-16T14:46:09.000Z</time><hdop>3.0</hdop><vdop>2.5</vdop><extensions><gom:speed>0.687</gom:speed></extensions></trkpt>
   <trkpt lat="59.2917797875" lon="34.655677931"><ele>160.481</ele><time>2026-08-16T14:46:09.833Z</time><hdop>3.0</hdop><vdop>2.5</vdop><extensions><gom:speed>0.739</gom:speed></extensions></trkpt>
   <trkpt lat="59.2917847748" lon="34.6556776796"><ele>160.426</ele><time>2026-08-16T14:46:10.393Z</time><hdop>3.0</hdop><vdop>2.5</vdop><extensions><gom:speed>0.811</gom:speed></extensions></trkpt>
   <trkpt lat="59.2917898877" lon="34.655680697"><ele>160.129</ele><time>2026-08-16T14:46:11.135Z</time><hdop>3.0</hdop><vdop>2.5</vdop><extensions><gom:speed>0.795</gom:speed></extensions></trkpt>
   <trkpt lat="59.2917955874" lon="34.6556868997"><ele>159.952</ele><time>2026-08-16T14:46:11.934Z</time><hdop>3.0</hdop><vdop>2.5</vdop><extensions><gom:speed>0.822</gom:speed></extensions></trkpt>
   <trkpt lat="59.2917995688" lon="34.6556924317"><ele>159.998</ele><time>2026-08-16T14:46:12.700Z</time><hdop>3.0</hdop><vdop>2.5</vdop><extensions><gom:speed>0.763</gom:speed></extensions></trkpt>
   <trkpt lat="59.2918030892" lon="34.6556995563"><ele>160.047</ele><time>2026-08-16T14:46:13.632Z</time><hdop>3.0</hdop><vdop>2.5</vdop><extensions><gom:speed>0.734</gom:speed></extensions></trkpt>
   <trkpt lat="59.2918044722" lon="34.6557026576"><ele>159.988</ele><time>2026-08-16T14:46:14.136Z</time><hdop>3.0</hdop><vdop>2.5</vdop><extensions><gom:speed>0.708</gom:speed></extensions></trkpt>
   <trkpt lat="59.2918080765" lon="34.6557074353"><ele>159.672</ele><time>2026-08-16T14:46:15.136Z</time><hdop>3.0</hdop><vdop>2.5</vdop><extensions><gom:speed>0.763</gom:speed></extensions></trkpt>
   <trkpt lat="59.2918135666" lon="34.6557124645"><ele>159.483</ele><time>2026-08-16T14:46:16.096Z</time><hdop>3.0</hdop><vdop>2.5</vdop><extensions><gom:speed>0.739</gom:speed></extensions></trkpt>
   <trkpt lat="59.2918140695" lon="34.6557174936"><ele>159.49</ele><time>2026-08-16T14:46:16.871Z</time><hdop>3.0</hdop><vdop>2.5</vdop><extensions><gom:speed>0.676</gom:speed></extensions></trkpt>
   <trkpt lat="59.2918118902" lon="34.6557255402"><ele>159.37</ele><time>2026-08-16T14:46:17.657Z</time><hdop>3.0</hdop><vdop>2.5</vdop><extensions><gom:speed>0.562</gom:speed></extensions></trkpt>
   <trkpt lat="59.2918110939" lon="34.6557305694"><ele>159.145</ele><time>2026-08-16T14:46:18.136Z</time><hdop>3.0</hdop><vdop>2.5</vdop><extensions><gom:speed>0.594</gom:speed></extensions></trkpt>
   <trkpt lat="59.2918121836" lon="34.6557411306"><ele>159.012</ele><time>2026-08-16T14:46:19.080Z</time><hdop>3.0</hdop><vdop>2.5</vdop><extensions><gom:speed>0.585</gom:speed></extensions></trkpt>
   <trkpt lat="59.2918127703" lon="34.6557508536"><ele>158.987</ele><time>2026-08-16T14:46:19.777Z</time><hdop>3.0</hdop><vdop>2.5</vdop><extensions><gom:speed>0.644</gom:speed></extensions></trkpt>
   <trkpt lat="59.2918131894" lon="34.6557709701"><ele>158.8</ele><time>2026-08-16T14:46:21.092Z</time><hdop>3.0</hdop><vdop>2.5</vdop><extensions><gom:speed>0.686</gom:speed></extensions></trkpt>
   <trkpt lat="59.2918148658" lon="34.6557828724"><ele>158.571</ele><time>2026-08-16T14:46:21.838Z</time><hdop>3.0</hdop><vdop>2.5</vdop><extensions><gom:speed>0.775</gom:speed></extensions></trkpt>
   <trkpt lat="59.2918181766" lon="34.6557954453"><ele>158.29</ele><time>2026-08-16T14:46:22.751Z</time><hdop>3.0</hdop><vdop>2.5</vdop><extensions><gom:speed>0.826</gom:speed></extensions></trkpt>
   <trkpt lat="59.2918210684" lon="34.6558032405"><ele>158.204</ele><time>2026-08-16T14:46:23.477Z</time><hdop>3.0</hdop><vdop>2.5</vdop><extensions><gom:speed>0.832</gom:speed></extensions></trkpt>
   <trkpt lat="59.291824966" lon="34.6558065932"><ele>157.853</ele><time>2026-08-16T14:46:24.136Z</time><hdop>3.0</hdop><vdop>2.5</vdop><extensions><gom:speed>0.762</gom:speed></extensions></trkpt>
   <trkpt lat="59.291832384" lon="34.6558058389"><ele>157.518</ele><time>2026-08-16T14:46:25.136Z</time><hdop>3.0</hdop><vdop>2.5</vdop><extensions><gom:speed>0.785</gom:speed></extensions></trkpt>
   <trkpt lat="59.2918366587" lon="34.6558064256"><ele>157.318</ele><time>2026-08-16T14:46:25.676Z</time><hdop>3.0</hdop><vdop>2.5</vdop><extensions><gom:speed>0.835</gom:speed></extensions></trkpt>
   <trkpt lat="59.2918399696" lon="34.6558054198"><ele>157.103</ele><time>2026-08-16T14:46:26.136Z</time><hdop>3.0</hdop><vdop>2.5</vdop><extensions><gom:speed>0.817</gom:speed></extensions></trkpt>
   <trkpt lat="59.2918472619" lon="34.6558065932"><ele>156.961</ele><time>2026-08-16T14:46:27.136Z</time><hdop>3.0</hdop><vdop>2.5</vdop><extensions><gom:speed>0.807</gom:speed></extensions></trkpt>
   <trkpt lat="59.2918498602" lon="34.6558096945"><ele>156.877</ele><time>2026-08-16T14:46:27.630Z</time><hdop>3.0</hdop><vdop>2.5</vdop><extensions><gom:speed>0.74</gom:speed></extensions></trkpt>
   <trkpt lat="59.2918516624" lon="34.6558146399"><ele>156.809</ele><time>2026-08-16T14:46:28.136Z</time><hdop>3.0</hdop><vdop>2.5</vdop><extensions><gom:speed>0.766</gom:speed></extensions></trkpt>
   <trkpt lat="59.2918525844" lon="34.6558236923"><ele>156.769</ele><time>2026-08-16T14:46:28.857Z</time><hdop>3.0</hdop><vdop>2.5</vdop><extensions><gom:speed>0.723</gom:speed></extensions></trkpt>
   <trkpt lat="59.2918549732" lon="34.6558314875"><ele>156.709</ele><time>2026-08-16T14:46:29.476Z</time><hdop>3.0</hdop><vdop>2.5</vdop><extensions><gom:speed>0.814</gom:speed></extensions></trkpt>
   <trkpt lat="59.2918575716" lon="34.6558412943"><ele>156.757</ele><time>2026-08-16T14:46:30.136Z</time><hdop>3.0</hdop><vdop>2.5</vdop><extensions><gom:speed>0.824</gom:speed></extensions></trkpt>
   <trkpt lat="59.2918595832" lon="34.6558498439"><ele>156.785</ele><time>2026-08-16T14:46:30.712Z</time><hdop>3.0</hdop><vdop>2.5</vdop><extensions><gom:speed>0.824</gom:speed></extensions></trkpt>
   <trkpt lat="59.2918643609" lon="34.6558626682"><ele>156.394</ele><time>2026-08-16T14:46:31.694Z</time><hdop>3.0</hdop><vdop>2.5</vdop><extensions><gom:speed>0.806</gom:speed></extensions></trkpt>
   <trkpt lat="59.2918677975" lon="34.6558670268"><ele>156.06</ele><time>2026-08-16T14:46:32.273Z</time><hdop>3.0</hdop><vdop>2.5</vdop><extensions><gom:speed>0.761</gom:speed></extensions></trkpt>
   <trkpt lat="59.2918725752" lon="34.6558738999"><ele>155.693</ele><time>2026-08-16T14:46:33.136Z</time><hdop>3.0</hdop><vdop>2.5</vdop><extensions><gom:speed>0.732</gom:speed></extensions></trkpt>
   <trkpt lat="59.2918785683" lon="34.6558809407"><ele>155.473</ele><time>2026-08-16T14:46:34.059Z</time><hdop>3.0</hdop><vdop>2.5</vdop><extensions><gom:speed>0.775</gom:speed></extensions></trkpt>
   <trkpt lat="59.2918855671" lon="34.65588312"><ele>155.337</ele><time>2026-08-16T14:46:34.835Z</time><hdop>3.0</hdop><vdop>2.5</vdop><extensions><gom:speed>0.83</gom:speed></extensions></trkpt>
   <trkpt lat="59.2918891714" lon="34.6558817789"><ele>155.415</ele><time>2026-08-16T14:46:35.296Z</time><hdop>3.0</hdop><vdop>2.5</vdop><extensions><gom:speed>0.792</gom:speed></extensions></trkpt>
   <trkpt lat="59.291895374" lon="34.6558832876"><ele>155.484</ele><time>2026-08-16T14:46:36.136Z</time><hdop>3.0</hdop><vdop>2.5</vdop><extensions><gom:speed>0.805</gom:speed></extensions></trkpt>
   <trkpt lat="59.2918998583" lon="34.6558871433"><ele>155.526</ele><time>2026-08-16T14:46:36.699Z</time><hdop>3.0</hdop><vdop>2.5</vdop><extensions><gom:speed>0.822</gom:speed></extensions></trkpt>
   <trkpt lat="59.2919032949" lon="34.6558898255"><ele>155.55</ele><time>2026-08-16T14:46:37.338Z</time><hdop>3.0</hdop><vdop>2.5</vdop><extensions><gom:speed>0.825</gom:speed></extensions></trkpt>
   <trkpt lat="59.2919071925" lon="34.6558963634"><ele>155.565</ele><time>2026-08-16T14:46:37.956Z</time><hdop>3.0</hdop><vdop>2.5</vdop><extensions><gom:speed>0.829</gom:speed></extensions></trkpt>
   <trkpt lat="59.2919098747" lon="34.6558975369"><ele>155.957</ele><time>2026-08-16T14:46:38.417Z</time><hdop>3.0</hdop><vdop>2.5</vdop><extensions><gom:speed>0.875</gom:speed></extensions></trkpt>
   <trkpt lat="59.2919134789" lon="34.6559015602"><ele>156.192</ele><time>2026-08-16T14:46:38.898Z</time><hdop>3.0</hdop><vdop>2.5</vdop><extensions><gom:speed>0.876</gom:speed></extensions></trkpt>
   <trkpt lat="59.2919194719" lon="34.6559084334"><ele>156.59</ele><time>2026-08-16T14:46:39.879Z</time><hdop>3.0</hdop><vdop>2.5</vdop><extensions><gom:speed>0.851</gom:speed></extensions></trkpt>
   <trkpt lat="59.2919233695" lon="34.655912289"><ele>157.019</ele><time>2026-08-16T14:46:40.537Z</time><hdop>3.0</hdop><vdop>2.5</vdop><extensions><gom:speed>0.807</gom:speed></extensions></trkpt>
   <trkpt lat="59.2919270995" lon="34.6559159771"><ele>157.173</ele><time>2026-08-16T14:46:41.136Z</time><hdop>3.0</hdop><vdop>2.5</vdop><extensions><gom:speed>0.768</gom:speed></extensions></trkpt>
   <trkpt lat="59.2919324639" lon="34.655924359"><ele>157.266</ele><time>2026-08-16T14:46:42.039Z</time><hdop>3.0</hdop><vdop>2.5</vdop><extensions><gom:speed>0.785</gom:speed></extensions></trkpt>
   <trkpt lat="59.2919350623" lon="34.6559302263"><ele>157.25</ele><time>2026-08-16T14:46:42.520Z</time><hdop>3.0</hdop><vdop>2.5</vdop><extensions><gom:speed>0.831</gom:speed></extensions></trkpt>
   <trkpt lat="59.2919370739" lon="34.6559380215"><ele>157.41</ele><time>2026-08-16T14:46:43.136Z</time><hdop>3.0</hdop><vdop>2.5</vdop><extensions><gom:speed>0.804</gom:speed></extensions></trkpt>
   <trkpt lat="59.2919401752" lon="34.6559481636"><ele>157.506</ele><time>2026-08-16T14:46:43.835Z</time><hdop>3.0</hdop><vdop>2.5</vdop><extensions><gom:speed>0.845</gom:speed></extensions></trkpt>
   <trkpt lat="59.2919427736" lon="34.6559585571"><ele>157.734</ele><time>2026-08-16T14:46:44.679Z</time><hdop>3.0</hdop><vdop>2.5</vdop><extensions><gom:speed>0.828</gom:speed></extensions></trkpt>
   <trkpt lat="59.291943989" lon="34.6559634186"><ele>158.118</ele><time>2026-08-16T14:46:45.136Z</time><hdop>3.0</hdop><vdop>2.5</vdop><extensions><gom:speed>0.791</gom:speed></extensions></trkpt>
   <trkpt lat="59.2919474675" lon="34.6559712976"><ele>158.347</ele><time>2026-08-16T14:46:45.818Z</time><hdop>3.0</hdop><vdop>2.5</vdop><extensions><gom:speed>0.858</gom:speed></extensions></trkpt>
   <trkpt lat="59.2919547598" lon="34.6559819426"><ele>158.549</ele><time>2026-08-16T14:46:46.898Z</time><hdop>3.0</hdop><vdop>2.5</vdop><extensions><gom:speed>0.904</gom:speed></extensions></trkpt>
   <trkpt lat="59.2919623873" lon="34.6559812721"><ele>158.565</ele><time>2026-08-16T14:46:47.673Z</time><hdop>3.0</hdop><vdop>2.5</vdop><extensions><gom:speed>0.958</gom:speed></extensions></trkpt>
   <trkpt lat="59.2919666621" lon="34.6559792604"><ele>158.575</ele><time>2026-08-16T14:46:48.134Z</time><hdop>3.0</hdop><vdop>2.5</vdop><extensions><gom:speed>0.956</gom:speed></extensions></trkpt>
   <trkpt lat="59.2919766784" lon="34.6559862174"><ele>157.666</ele><time>2026-08-16T14:46:49.136Z</time><hdop>3.0</hdop><vdop>2.5</vdop><extensions><gom:speed>0.998</gom:speed></extensions></trkpt>
   <trkpt lat="59.2919840964" lon="34.6559994608"><ele>156.929</ele><time>2026-08-16T14:46:50.135Z</time><hdop>3.0</hdop><vdop>2.5</vdop><extensions><gom:speed>0.946</gom:speed></extensions></trkpt>
   <trkpt lat="59.2919882874" lon="34.6560068369"><ele>156.489</ele><time>2026-08-16T14:46:50.834Z</time><hdop>3.0</hdop><vdop>2.5</vdop><extensions><gom:speed>0.903</gom:speed></extensions></trkpt>
   <trkpt lat="59.2919959987" lon="34.6560281269"><ele>156.811</ele><time>2026-08-16T14:46:52.136Z</time><hdop>3.0</hdop><vdop>2.562</vdop><extensions><gom:speed>0.932</gom:speed></extensions></trkpt>
   <trkpt lat="59.2919989743" lon="34.6560407836"><ele>157.003</ele><time>2026-08-16T14:46:52.816Z</time><hdop>3.0</hdop><vdop>2.562</vdop><extensions><gom:speed>0.961</gom:speed></extensions></trkpt>
   <trkpt lat="59.2920007764" lon="34.6560542785"><ele>157.251</ele><time>2026-08-16T14:46:53.415Z</time><hdop>3.0</hdop><vdop>2.625</vdop><extensions><gom:speed>0.968</gom:speed></extensions></trkpt>
   <trkpt lat="59.2920028719" lon="34.6560695335"><ele>157.683</ele><time>2026-08-16T14:46:54.136Z</time><hdop>3.0</hdop><vdop>2.625</vdop><extensions><gom:speed>0.974</gom:speed></extensions></trkpt>
   <trkpt lat="59.2920065599" lon="34.656089231"><ele>157.94</ele><time>2026-08-16T14:46:55.113Z</time><hdop>3.0</hdop><vdop>2.625</vdop><extensions><gom:speed>1.027</gom:speed></extensions></trkpt>
   <trkpt lat="59.2920141875" lon="34.6561052404"><ele>158.215</ele><time>2026-08-16T14:46:56.136Z</time><hdop>3.0</hdop><vdop>2.5</vdop><extensions><gom:speed>1.023</gom:speed></extensions></trkpt>
   <trkpt lat="59.2920215635" lon="34.6561201602"><ele>158.379</ele><time>2026-08-16T14:46:57.135Z</time><hdop>3.0</hdop><vdop>2.5</vdop><extensions><gom:speed>1.01</gom:speed></extensions></trkpt>
   <trkpt lat="59.2920227789" lon="34.6561289612"><ele>158.369</ele><time>2026-08-16T14:46:57.636Z</time><hdop>3.0</hdop><vdop>2.5</vdop><extensions><gom:speed>1.004</gom:speed></extensions></trkpt>
   <trkpt lat="59.2920244972" lon="34.6561364211"><ele>158.332</ele><time>2026-08-16T14:46:58.136Z</time><hdop>3.0</hdop><vdop>2.5</vdop><extensions><gom:speed>0.937</gom:speed></extensions></trkpt>
   <trkpt lat="59.2920303645" lon="34.656143881"><ele>158.31</ele><time>2026-08-16T14:46:58.970Z</time><hdop>3.0</hdop><vdop>2.5</vdop><extensions><gom:speed>0.935</gom:speed></extensions></trkpt>
   <trkpt lat="59.2920350584" lon="34.6561493293"><ele>158.578</ele><time>2026-08-16T14:46:59.677Z</time><hdop>3.0</hdop><vdop>2.5</vdop><extensions><gom:speed>0.894</gom:speed></extensions></trkpt>
   <trkpt lat="59.2920378663" lon="34.6561531849"><ele>158.746</ele><time>2026-08-16T14:47:00.136Z</time><hdop>3.0</hdop><vdop>2.5</vdop><extensions><gom:speed>0.849</gom:speed></extensions></trkpt>
   <trkpt lat="59.2920431888" lon="34.6561620697"><ele>158.912</ele><time>2026-08-16T14:47:01.136Z</time><hdop>3.0</hdop><vdop>2.5</vdop><extensions><gom:speed>0.811</gom:speed></extensions></trkpt>
   <trkpt lat="59.2920461644" lon="34.6561761513"><ele>159.761</ele><time>2026-08-16T14:47:02.136Z</time><hdop>3.0</hdop><vdop>2.5</vdop><extensions><gom:speed>0.903</gom:speed></extensions></trkpt>
   <trkpt lat="59.2920454939" lon="34.6561924961"><ele>160.269</ele><time>2026-08-16T14:47:03.054Z</time><hdop>3.0</hdop><vdop>2.5</vdop><extensions><gom:speed>0.888</gom:speed></extensions></trkpt>
   <trkpt lat="59.2920454939" lon="34.6562055718"><ele>160.748</ele><time>2026-08-16T14:47:03.672Z</time><hdop>3.0</hdop><vdop>2.625</vdop><extensions><gom:speed>0.951</gom:speed></extensions></trkpt>
   <trkpt lat="59.2920462901" lon="34.6562187314"><ele>161.348</ele><time>2026-08-16T14:47:04.136Z</time><hdop>3.0</hdop><vdop>2.687</vdop><extensions><gom:speed>1.095</gom:speed></extensions></trkpt>
   <trkpt lat="59.2920506906" lon="34.656240692"><ele>161.707</ele><time>2026-08-16T14:47:05.134Z</time><hdop>3.0</hdop><vdop>2.687</vdop><extensions><gom:speed>1.078</gom:speed></extensions></trkpt>
   <trkpt lat="59.2920651913" lon="34.6562621497"><ele>162.685</ele><time>2026-08-16T14:47:06.136Z</time><hdop>3.0</hdop><vdop>2.812</vdop><extensions><gom:speed>1.346</gom:speed></extensions></trkpt>
   <trkpt lat="59.2920814941" lon="34.6562696934"><ele>163.154</ele><time>2026-08-16T14:47:07.136Z</time><hdop>3.0</hdop><vdop>2.687</vdop><extensions><gom:speed>1.261</gom:speed></extensions></trkpt>
   <trkpt lat="59.2920877806" lon="34.6562715374"><ele>163.435</ele><time>2026-08-16T14:47:07.637Z</time><hdop>3.0</hdop><vdop>2.687</vdop><extensions><gom:speed>1.187</gom:speed></extensions></trkpt>
   <trkpt lat="59.2920955757" lon="34.6562728785"><ele>163.384</ele><time>2026-08-16T14:47:08.136Z</time><hdop>3.0</hdop><vdop>2.687</vdop><extensions><gom:speed>1.19</gom:speed></extensions></trkpt>
   <trkpt lat="59.2921053826" lon="34.6562748902"><ele>163.354</ele><time>2026-08-16T14:47:08.854Z</time><hdop>3.0</hdop><vdop>2.687</vdop><extensions><gom:speed>1.152</gom:speed></extensions></trkpt>
   <trkpt lat="59.292114896" lon="34.6562750578"><ele>162.941</ele><time>2026-08-16T14:47:09.738Z</time><hdop>3.0</hdop><vdop>2.687</vdop><extensions><gom:speed>1.044</gom:speed></extensions></trkpt>
   <trkpt lat="59.2921193803" lon="34.6562757284"><ele>162.348</ele><time>2026-08-16T14:47:10.238Z</time><hdop>3.0</hdop><vdop>2.562</vdop><extensions><gom:speed>0.966</gom:speed></extensions></trkpt>
   <trkpt lat="59.2921255829" lon="34.6562815957"><ele>161.981</ele><time>2026-08-16T14:47:11.136Z</time><hdop>3.0</hdop><vdop>2.625</vdop><extensions><gom:speed>0.94</gom:speed></extensions></trkpt>
   <trkpt lat="59.2921286843" lon="34.6562970184"><ele>161.68</ele><time>2026-08-16T14:47:12.136Z</time><hdop>3.0</hdop><vdop>2.5</vdop><extensions><gom:speed>0.968</gom:speed></extensions></trkpt>
   <trkpt lat="59.2921296901" lon="34.6563087531"><ele>161.499</ele><time>2026-08-16T14:47:12.751Z</time><hdop>3.0</hdop><vdop>2.5</vdop><extensions><gom:speed>1.018</gom:speed></extensions></trkpt>
   <trkpt lat="59.2921333781" lon="34.6563195657"><ele>161.244</ele><time>2026-08-16T14:47:13.576Z</time><hdop>3.0</hdop><vdop>2.5</vdop><extensions><gom:speed>0.998</gom:speed></extensions></trkpt>
   <trkpt lat="59.2921377786" lon="34.6563236728"><ele>161.196</ele><time>2026-08-16T14:47:14.136Z</time><hdop>3.0</hdop><vdop>2.5</vdop><extensions><gom:speed>0.975</gom:speed></extensions></trkpt>
   <trkpt lat="59.292144568" lon="34.6563288696"><ele>161.168</ele><time>2026-08-16T14:47:14.940Z</time><hdop>3.0</hdop><vdop>2.5</vdop><extensions><gom:speed>0.938</gom:speed></extensions></trkpt>
   <trkpt lat="59.2921539976" lon="34.6563278638"><ele>161.33</ele><time>2026-08-16T14:47:16.136Z</time><hdop>3.0</hdop><vdop>2.5</vdop><extensions><gom:speed>0.871</gom:speed></extensions></trkpt>
   <trkpt lat="59.2921596973" lon="34.6563261874"><ele>161.428</ele><time>2026-08-16T14:47:16.932Z</time><hdop>3.0</hdop><vdop>2.5</vdop><extensions><gom:speed>0.788</gom:speed></extensions></trkpt>
   <trkpt lat="59.2921631758" lon="34.6563276962"><ele>161.148</ele><time>2026-08-16T14:47:17.570Z</time><hdop>3.0</hdop><vdop>2.5</vdop><extensions><gom:speed>0.749</gom:speed></extensions></trkpt>
   <trkpt lat="59.2921659837" lon="34.6563297916"><ele>161.157</ele><time>2026-08-16T14:47:18.136Z</time><hdop>3.0</hdop><vdop>2.5</vdop><extensions><gom:speed>0.702</gom:speed></extensions></trkpt>
   <trkpt lat="59.2921726892" lon="34.6563335635"><ele>161.162</ele><time>2026-08-16T14:47:18.994Z</time><hdop>3.0</hdop><vdop>2.5</vdop><extensions><gom:speed>0.782</gom:speed></extensions></trkpt>
   <trkpt lat="59.2921793948" lon="34.6563377544"><ele>161.353</ele><time>2026-08-16T14:47:19.857Z</time><hdop>3.0</hdop><vdop>2.5</vdop><extensions><gom:speed>0.846</gom:speed></extensions></trkpt>
   <trkpt lat="59.2921830828" lon="34.6563374192"><ele>161.606</ele><time>2026-08-16T14:47:20.417Z</time><hdop>3.0</hdop><vdop>2.5</vdop><extensions><gom:speed>0.812</gom:speed></extensions></trkpt>
   <trkpt lat="59.2921871899" lon="34.6563394308"><ele>162.07</ele><time>2026-08-16T14:47:21.136Z</time><hdop>3.0</hdop><vdop>2.5</vdop><extensions><gom:speed>0.796</gom:speed></extensions></trkpt>
   <trkpt lat="59.2921942726" lon="34.6563449629"><ele>162.347</ele><time>2026-08-16T14:47:22.115Z</time><hdop>3.0</hdop><vdop>2.5</vdop><extensions><gom:speed>0.831</gom:speed></extensions></trkpt>
   <trkpt lat="59.2921937697" lon="34.6563496567"><ele>162.284</ele><time>2026-08-16T14:47:22.615Z</time><hdop>3.0</hdop><vdop>2.5</vdop><extensions><gom:speed>0.663</gom:speed></extensions></trkpt>
   <trkpt lat="59.2921917581" lon="34.656354183"><ele>161.881</ele><time>2026-08-16T14:47:23.136Z</time><hdop>3.0</hdop><vdop>2.5</vdop><extensions><gom:speed>0.542</gom:speed></extensions></trkpt>
   <trkpt lat="59.2921856812" lon="34.6563581225"><ele>161.618</ele><time>2026-08-16T14:47:24.136Z</time><hdop>3.0</hdop><vdop>2.5</vdop><extensions><gom:speed>0.342</gom:speed></extensions></trkpt>
   <trkpt lat="59.2921812807" lon="34.6563570328"><ele>161.422</ele><time>2026-08-16T14:47:25.136Z</time><hdop>3.0</hdop><vdop>2.5</vdop><extensions><gom:speed>0.195</gom:speed></extensions></trkpt>
   <trkpt lat="59.2921800653" lon="34.656356949"><ele>161.305</ele><time>2026-08-16T14:47:25.894Z</time><hdop>3.0</hdop><vdop>2.5</vdop><extensions><gom:speed>0.145</gom:speed></extensions></trkpt>
   <trkpt lat="59.2921687917" lon="34.6563676778"><ele>161.763</ele><time>2026-08-16T14:47:27.136Z</time><hdop>3.0</hdop><vdop>2.5</vdop><extensions><gom:speed>0.165</gom:speed></extensions></trkpt>
   <trkpt lat="59.2921664866" lon="34.6563789934"><ele>162.201</ele><time>2026-08-16T14:47:28.136Z</time><hdop>3.0</hdop><vdop>2.5</vdop><extensions><gom:speed>0.396</gom:speed></extensions></trkpt>
   <trkpt lat="59.2921700909" lon="34.6563897222"><ele>162.548</ele><time>2026-08-16T14:47:29.136Z</time><hdop>3.0</hdop><vdop>2.562</vdop><extensions><gom:speed>0.6</gom:speed></extensions></trkpt>
   <trkpt lat="59.292174198" lon="34.6563922368"><ele>162.812</ele><time>2026-08-16T14:47:30.136Z</time><hdop>3.0</hdop><vdop>2.5</vdop><extensions><gom:speed>0.358</gom:speed></extensions></trkpt>
   <trkpt lat="59.2921742818" lon="34.6563896384"><ele>162.941</ele><time>2026-08-16T14:47:31.136Z</time><hdop>3.0</hdop><vdop>2.5</vdop><extensions><gom:speed>0.215</gom:speed></extensions></trkpt>
   <trkpt lat="59.2921734855" lon="34.6563899737"><ele>162.994</ele><time>2026-08-16T14:47:32.136Z</time><hdop>3.0</hdop><vdop>2.5</vdop><extensions><gom:speed>0.155</gom:speed></extensions></trkpt>
   <trkpt lat="59.2921735693" lon="34.6563926559"><ele>162.902</ele><time>2026-08-16T14:47:33.136Z</time><hdop>3.0</hdop><vdop>2.5</vdop><extensions><gom:speed>0.139</gom:speed></extensions></trkpt>
   <trkpt lat="59.2921734855" lon="34.6563944999"><ele>162.847</ele><time>2026-08-16T14:47:33.932Z</time><hdop>3.0</hdop><vdop>2.5</vdop><extensions><gom:speed>0.107</gom:speed></extensions></trkpt>
   <trkpt lat="59.2921739884" lon="34.6563973498"><ele>162.752</ele><time>2026-08-16T14:47:34.572Z</time><hdop>3.0</hdop><vdop>2.5</vdop><extensions><gom:speed>0.118</gom:speed></extensions></trkpt>
   <trkpt lat="59.2921752876" lon="34.6564001996"><ele>162.666</ele><time>2026-08-16T14:47:35.135Z</time><hdop>3.0</hdop><vdop>2.5</vdop><extensions><gom:speed>0.195</gom:speed></extensions></trkpt>
   <trkpt lat="59.2921759582" lon="34.6564022951"><ele>162.614</ele><time>2026-08-16T14:47:35.632Z</time><hdop>3.0</hdop><vdop>2.5</vdop><extensions><gom:speed>0.152</gom:speed></extensions></trkpt>
   <trkpt lat="59.2921804844" lon="34.6564011216"><ele>162.694</ele><time>2026-08-16T14:47:36.136Z</time><hdop>3.0</hdop><vdop>2.5</vdop><extensions><gom:speed>0.278</gom:speed></extensions></trkpt>
   <trkpt lat="59.2921912971" lon="34.6564024627"><ele>163.543</ele><time>2026-08-16T14:47:37.135Z</time><hdop>3.0</hdop><vdop>2.5</vdop><extensions><gom:speed>0.714</gom:speed></extensions></trkpt>
   <trkpt lat="59.2922054625" lon="34.6564085815"><ele>163.886</ele><time>2026-08-16T14:47:38.136Z</time><hdop>3.0</hdop><vdop>2.5</vdop><extensions><gom:speed>0.898</gom:speed></extensions></trkpt>
   <trkpt lat="59.2922142635" lon="34.6564149518"><ele>164.092</ele><time>2026-08-16T14:47:38.812Z</time><hdop>3.0</hdop><vdop>2.5</vdop><extensions><gom:speed>0.936</gom:speed></extensions></trkpt>
   <trkpt lat="59.2922243637" lon="34.656417634"><ele>164.335</ele><time>2026-08-16T14:47:39.636Z</time><hdop>3.0</hdop><vdop>2.5</vdop><extensions><gom:speed>0.96</gom:speed></extensions></trkpt>
   <trkpt lat="59.2922305663" lon="34.6564167958"><ele>164.646</ele><time>2026-08-16T14:47:40.136Z</time><hdop>3.0</hdop><vdop>2.5</vdop><extensions><gom:speed>0.951</gom:speed></extensions></trkpt>
   <trkpt lat="59.2922407922" lon="34.65641579"><ele>165.052</ele><time>2026-08-16T14:47:41.136Z</time><hdop>3.0</hdop><vdop>2.5</vdop><extensions><gom:speed>0.928</gom:speed></extensions></trkpt>
   <trkpt lat="59.2922488807" lon="34.6564186398"><ele>164.957</ele><time>2026-08-16T14:47:42.136Z</time><hdop>3.0</hdop><vdop>2.5</vdop><extensions><gom:speed>0.849</gom:speed></extensions></trkpt>
   <trkpt lat="59.2922497608" lon="34.6564331405"><ele>164.908</ele><time>2026-08-16T14:47:43.136Z</time><hdop>3.0</hdop><vdop>2.5</vdop><extensions><gom:speed>0.567</gom:speed></extensions></trkpt>
   <trkpt lat="59.2922476654" lon="34.6564462163"><ele>165.086</ele><time>2026-08-16T14:47:44.135Z</time><hdop>3.0</hdop><vdop>2.562</vdop><extensions><gom:speed>0.558</gom:speed></extensions></trkpt>
   <trkpt lat="59.2922480845" lon="34.6564516645"><ele>165.193</ele><time>2026-08-16T14:47:44.740Z</time><hdop>3.0</hdop><vdop>2.562</vdop><extensions><gom:speed>0.445</gom:speed></extensions></trkpt>
   <trkpt lat="59.2922513953" lon="34.6564668357"><ele>165.548</ele><time>2026-08-16T14:47:45.977Z</time><hdop>3.0</hdop><vdop>2.562</vdop><extensions><gom:speed>0.513</gom:speed></extensions></trkpt>
   <trkpt lat="59.2922550833" lon="34.6564818394"><ele>165.789</ele><time>2026-08-16T14:47:46.880Z</time><hdop>3.0</hdop><vdop>2.75</vdop><extensions><gom:speed>0.649</gom:speed></extensions></trkpt>
   <trkpt lat="59.2922580589" lon="34.6564914785"><ele>165.776</ele><time>2026-08-16T14:47:47.439Z</time><hdop>3.0</hdop><vdop>3.0</vdop><extensions><gom:speed>0.753</gom:speed></extensions></trkpt>
   <trkpt lat="59.292261286" lon="34.6564999443"><ele>165.805</ele><time>2026-08-16T14:47:48.136Z</time><hdop>3.0</hdop><vdop>3.062</vdop><extensions><gom:speed>0.738</gom:speed></extensions></trkpt>
   <trkpt lat="59.2922647644" lon="34.6565094996"><ele>165.823</ele><time>2026-08-16T14:47:48.853Z</time><hdop>3.0</hdop><vdop>3.062</vdop><extensions><gom:speed>0.805</gom:speed></extensions></trkpt>
   <trkpt lat="59.2922677819" lon="34.656521821"><ele>165.879</ele><time>2026-08-16T14:47:49.677Z</time><hdop>3.0</hdop><vdop>3.312</vdop><extensions><gom:speed>0.872</gom:speed></extensions></trkpt>
   <trkpt lat="59.2922691649" lon="34.6565284427"><ele>166.072</ele><time>2026-08-16T14:47:50.136Z</time><hdop>3.0</hdop><vdop>3.5</vdop><extensions><gom:speed>0.855</gom:speed></extensions></trkpt>
   <trkpt lat="59.2922717633" lon="34.6565450389"><ele>166.187</ele><time>2026-08-16T14:47:51.071Z</time><hdop>3.0</hdop><vdop>3.5</vdop><extensions><gom:speed>0.937</gom:speed></extensions></trkpt>
   <trkpt lat="59.2922719729" lon="34.6565559354"><ele>165.73</ele><time>2026-08-16T14:47:51.738Z</time><hdop>3.0</hdop><vdop>3.625</vdop><extensions><gom:speed>0.91</gom:speed></extensions></trkpt>
   <trkpt lat="59.2922715957" lon="34.6565677539"><ele>165.774</ele><time>2026-08-16T14:47:52.533Z</time><hdop>3.0</hdop><vdop>3.312</vdop><extensions><gom:speed>0.896</gom:speed></extensions></trkpt>
   <trkpt lat="59.2922706737" lon="34.6565761358"><ele>165.8</ele><time>2026-08-16T14:47:53.054Z</time><hdop>3.0</hdop><vdop>3.312</vdop><extensions><gom:speed>0.9</gom:speed></extensions></trkpt>
   <trkpt lat="59.2922680753" lon="34.6565916423"><ele>165.943</ele><time>2026-08-16T14:47:53.957Z</time><hdop>3.062</hdop><vdop>3.062</vdop><extensions><gom:speed>0.909</gom:speed></extensions></trkpt>
   <trkpt lat="59.292264974" lon="34.6566081546"><ele>166.321</ele><time>2026-08-16T14:47:54.535Z</time><hdop>3.062</hdop><vdop>3.187</vdop><extensions><gom:speed>1.045</gom:speed></extensions></trkpt>
   <trkpt lat="59.2922624594" lon="34.6566248346"><ele>166.658</ele><time>2026-08-16T14:47:55.135Z</time><hdop>3.062</hdop><vdop>3.187</vdop><extensions><gom:speed>1.129</gom:speed></extensions></trkpt>
   <trkpt lat="59.2922619984" lon="34.6566441968"><ele>166.86</ele><time>2026-08-16T14:47:55.871Z</time><hdop>3.062</hdop><vdop>3.187</vdop><extensions><gom:speed>1.138</gom:speed></extensions></trkpt>
   <trkpt lat="59.2922627947" lon="34.6566643972"><ele>167.676</ele><time>2026-08-16T14:47:56.695Z</time><hdop>3.0</hdop><vdop>3.062</vdop><extensions><gom:speed>1.139</gom:speed></extensions></trkpt>
   <trkpt lat="59.2922677819" lon="34.6566922251"><ele>168.792</ele><time>2026-08-16T14:47:57.971Z</time><hdop>3.0</hdop><vdop>2.875</vdop><extensions><gom:speed>1.129</gom:speed></extensions></trkpt>
   <trkpt lat="59.2922692907" lon="34.656702451"><ele>169.581</ele><time>2026-08-16T14:47:58.530Z</time><hdop>3.0</hdop><vdop>2.75</vdop><extensions><gom:speed>1.061</gom:speed></extensions></trkpt>
   <trkpt lat="59.2922703803" lon="34.6567120902"><ele>169.961</ele><time>2026-08-16T14:47:59.136Z</time><hdop>3.0</hdop><vdop>2.812</vdop><extensions><gom:speed>0.999</gom:speed></extensions></trkpt>
   <trkpt lat="59.2922722663" lon="34.656726088"><ele>170.189</ele><time>2026-08-16T14:47:59.953Z</time><hdop>3.0</hdop><vdop>2.812</vdop><extensions><gom:speed>0.975</gom:speed></extensions></trkpt>
   <trkpt lat="59.2922738588" lon="34.6567382418"><ele>170.29</ele><time>2026-08-16T14:48:00.896Z</time><hdop>3.0</hdop><vdop>2.625</vdop><extensions><gom:speed>0.904</gom:speed></extensions></trkpt>
   <trkpt lat="59.2922757867" lon="34.656741846"><ele>170.068</ele><time>2026-08-16T14:48:01.436Z</time><hdop>3.0</hdop><vdop>2.625</vdop><extensions><gom:speed>0.856</gom:speed></extensions></trkpt>
   <trkpt lat="59.2922804805" lon="34.6567465399"><ele>169.94</ele><time>2026-08-16T14:48:02.136Z</time><hdop>3.0</hdop><vdop>2.5</vdop><extensions><gom:speed>0.861</gom:speed></extensions></trkpt>
   <trkpt lat="59.292287186" lon="34.656749725"><ele>169.863</ele><time>2026-08-16T14:48:02.859Z</time><hdop>3.0</hdop><vdop>2.5</vdop><extensions><gom:speed>0.893</gom:speed></extensions></trkpt>
   <trkpt lat="59.2922949812" lon="34.6567480486"><ele>169.75</ele><time>2026-08-16T14:48:03.674Z</time><hdop>3.0</hdop><vdop>2.5</vdop><extensions><gom:speed>0.915</gom:speed></extensions></trkpt>
   <trkpt lat="59.2922995913" lon="34.6567447797"><ele>169.568</ele><time>2026-08-16T14:48:04.136Z</time><hdop>3.0</hdop><vdop>2.5</vdop><extensions><gom:speed>0.914</gom:speed></extensions></trkpt>
   <trkpt lat="59.2923092724" lon="34.6567430195"><ele>169.459</ele><time>2026-08-16T14:48:05.136Z</time><hdop>3.0</hdop><vdop>2.5</vdop><extensions><gom:speed>0.932</gom:speed></extensions></trkpt>
   <trkpt lat="59.2923157683" lon="34.6567383256"><ele>169.561</ele><time>2026-08-16T14:48:05.696Z</time><hdop>3.0</hdop><vdop>2.562</vdop><extensions><gom:speed>0.979</gom:speed></extensions></trkpt>
   <trkpt lat="59.2923255752" lon="34.6567359787"><ele>169.731</ele><time>2026-08-16T14:48:06.618Z</time><hdop>3.0</hdop><vdop>2.5</vdop><extensions><gom:speed>0.985</gom:speed></extensions></trkpt>
   <trkpt lat="59.2923300595" lon="34.6567361463"><ele>169.98</ele><time>2026-08-16T14:48:07.136Z</time><hdop>3.0</hdop><vdop>2.5</vdop><extensions><gom:speed>0.969</gom:speed></extensions></trkpt>
   <trkpt lat="59.2923377708" lon="34.6567400858"><ele>170.129</ele><time>2026-08-16T14:48:08.136Z</time><hdop>3.0</hdop><vdop>2.812</vdop><extensions><gom:speed>0.943</gom:speed></extensions></trkpt>
   <trkpt lat="59.2923437639" lon="34.6567445282"><ele>170.218</ele><time>2026-08-16T14:48:08.856Z</time><hdop>3.0</hdop><vdop>2.812</vdop><extensions><gom:speed>0.952</gom:speed></extensions></trkpt>
   <trkpt lat="59.2923512657" lon="34.656746456"><ele>170.028</ele><time>2026-08-16T14:48:09.759Z</time><hdop>3.0</hdop><vdop>2.75</vdop><extensions><gom:speed>0.938</gom:speed></extensions></trkpt>
   <trkpt lat="59.292357594" lon="34.6567477971"><ele>170.295</ele><time>2026-08-16T14:48:10.515Z</time><hdop>3.0</hdop><vdop>2.625</vdop><extensions><gom:speed>0.942</gom:speed></extensions></trkpt>
   <trkpt lat="59.2923622879" lon="34.6567525748"><ele>170.454</ele><time>2026-08-16T14:48:11.074Z</time><hdop>3.0</hdop><vdop>2.625</vdop><extensions><gom:speed>0.943</gom:speed></extensions></trkpt>
   <trkpt lat="59.2923629584" lon="34.6567680813"><ele>170.572</ele><time>2026-08-16T14:48:12.136Z</time><hdop>3.0</hdop><vdop>2.5</vdop><extensions><gom:speed>1.162</gom:speed></extensions></trkpt>
   <trkpt lat="59.2923483739" lon="34.6567801513"><ele>170.275</ele><time>2026-08-16T14:48:13.136Z</time><hdop>3.0</hdop><vdop>2.5</vdop><extensions><gom:speed>1.236</gom:speed></extensions></trkpt>
   <trkpt lat="59.2923371841" lon="34.6567692548"><ele>169.787</ele><time>2026-08-16T14:48:14.136Z</time><hdop>3.0</hdop><vdop>2.5</vdop><extensions><gom:speed>0.802</gom:speed></extensions></trkpt>
   <trkpt lat="59.29233446" lon="34.6567604538"><ele>169.465</ele><time>2026-08-16T14:48:15.136Z</time><hdop>3.0</hdop><vdop>2.5</vdop><extensions><gom:speed>0.361</gom:speed></extensions></trkpt>
   <trkpt lat="59.2923329931" lon="34.6567574363"><ele>169.288</ele><time>2026-08-16T14:48:16.136Z</time><hdop>3.0</hdop><vdop>2.5</vdop><extensions><gom:speed>0.185</gom:speed></extensions></trkpt>
   <trkpt lat="59.2923318616" lon="34.6567553409"><ele>169.172</ele><time>2026-08-16T14:48:17.136Z</time><hdop>3.0</hdop><vdop>2.5</vdop><extensions><gom:speed>0.123</gom:speed></extensions></trkpt>
   <trkpt lat="59.2923308977" lon="34.6567538321"><ele>169.163</ele><time>2026-08-16T14:48:18.136Z</time><hdop>3.0</hdop><vdop>2.5</vdop><extensions><gom:speed>0.072</gom:speed></extensions></trkpt>
   <trkpt lat="59.2923280897" lon="34.6567532454"><ele>169.118</ele><time>2026-08-16T14:48:19.136Z</time><hdop>3.0</hdop><vdop>2.5</vdop><extensions><gom:speed>0.139</gom:speed></extensions></trkpt>
   <trkpt lat="59.2923248627" lon="34.6567554247"><ele>169.404</ele><time>2026-08-16T14:48:20.136Z</time><hdop>3.0</hdop><vdop>2.5</vdop><extensions><gom:speed>0.151</gom:speed></extensions></trkpt>
   <trkpt lat="59.2923243598" lon="34.6567593642"><ele>169.575</ele><time>2026-08-16T14:48:21.115Z</time><hdop>3.0</hdop><vdop>2.5</vdop><extensions><gom:speed>0.155</gom:speed></extensions></trkpt>
   <trkpt lat="59.2923164808" lon="34.656758526"><ele>169.097</ele><time>2026-08-16T14:48:22.136Z</time><hdop>3.0</hdop><vdop>2.5</vdop><extensions><gom:speed>0.141</gom:speed></extensions></trkpt>
   <trkpt lat="59.2923142596" lon="34.6567579392"><ele>169.192</ele><time>2026-08-16T14:48:23.136Z</time><hdop>3.0</hdop><vdop>2.5</vdop><extensions><gom:speed>0.182</gom:speed></extensions></trkpt>
   <trkpt lat="59.2923131699" lon="34.6567575201"><ele>169.256</ele><time>2026-08-16T14:48:24.136Z</time><hdop>3.0</hdop><vdop>2.5</vdop><extensions><gom:speed>0.162</gom:speed></extensions></trkpt>
   <trkpt lat="59.2923122898" lon="34.6567575201"><ele>169.31</ele><time>2026-08-16T14:48:25.136Z</time><hdop>3.0</hdop><vdop>2.5</vdop><extensions><gom:speed>0.144</gom:speed></extensions></trkpt>
   <trkpt lat="59.2923113678" lon="34.6567572687"><ele>169.351</ele><time>2026-08-16T14:48:26.136Z</time><hdop>3.0</hdop><vdop>2.5</vdop><extensions><gom:speed>0.105</gom:speed></extensions></trkpt>
   <trkpt lat="59.2923101944" lon="34.6567570172"><ele>169.401</ele><time>2026-08-16T14:48:27.136Z</time><hdop>3.0</hdop><vdop>2.5</vdop><extensions><gom:speed>0.083</gom:speed></extensions></trkpt>
   <trkpt lat="59.2923097753" lon="34.6567567658"><ele>169.42</ele><time>2026-08-16T14:48:28.136Z</time><hdop>3.0</hdop><vdop>2.5</vdop><extensions><gom:speed>0.117</gom:speed></extensions></trkpt>
   <trkpt lat="59.2923095657" lon="34.6567569334"><ele>169.484</ele><time>2026-08-16T14:48:29.136Z</time><hdop>3.0</hdop><vdop>2.5</vdop><extensions><gom:speed>0.145</gom:speed></extensions></trkpt>
   <trkpt lat="59.2923098591" lon="34.6567572687"><ele>169.527</ele><time>2026-08-16T14:48:30.136Z</time><hdop>3.0</hdop><vdop>2.5</vdop><extensions><gom:speed>0.102</gom:speed></extensions></trkpt>
   <trkpt lat="59.2923093981" lon="34.656756682"><ele>169.566</ele><time>2026-08-16T14:48:31.136Z</time><hdop>3.0</hdop><vdop>2.5</vdop><extensions><gom:speed>0.086</gom:speed></extensions></trkpt>
   <trkpt lat="59.2923090628" lon="34.6567562629"><ele>169.584</ele><time>2026-08-16T14:48:32.136Z</time><hdop>3.0</hdop><vdop>2.5</vdop><extensions><gom:speed>0.099</gom:speed></extensions></trkpt>
   <trkpt lat="59.2923088952" lon="34.6567554247"><ele>169.595</ele><time>2026-08-16T14:48:32.952Z</time><hdop>3.0</hdop><vdop>2.5</vdop><extensions><gom:speed>0.098</gom:speed></extensions></trkpt>
   <trkpt lat="59.2923093981" lon="34.6567554247"><ele>169.521</ele><time>2026-08-16T14:48:33.992Z</time><hdop>3.0</hdop><vdop>2.5</vdop><extensions><gom:speed>0.111</gom:speed></extensions></trkpt>
   <trkpt lat="59.2923090628" lon="34.6567558438"><ele>169.114</ele><time>2026-08-16T14:48:35.136Z</time><hdop>3.0</hdop><vdop>2.5</vdop><extensions><gom:speed>0.108</gom:speed></extensions></trkpt>
   <trkpt lat="59.2923082665" lon="34.6567556761"><ele>168.93</ele><time>2026-08-16T14:48:36.136Z</time><hdop>3.0</hdop><vdop>2.5</vdop><extensions><gom:speed>0.165</gom:speed></extensions></trkpt>
   <trkpt lat="59.2923071769" lon="34.6567553409"><ele>168.621</ele><time>2026-08-16T14:48:37.136Z</time><hdop>3.0</hdop><vdop>2.5</vdop><extensions><gom:speed>0.207</gom:speed></extensions></trkpt>
   <trkpt lat="59.2923052909" lon="34.656756682"><ele>168.329</ele><time>2026-08-16T14:48:38.136Z</time><hdop>3.0</hdop><vdop>2.5</vdop><extensions><gom:speed>0.227</gom:speed></extensions></trkpt>
   <trkpt lat="59.292303866" lon="34.656756179"><ele>167.966</ele><time>2026-08-16T14:48:39.136Z</time><hdop>3.0</hdop><vdop>2.5</vdop><extensions><gom:speed>0.215</gom:speed></extensions></trkpt>
   <trkpt lat="59.292303866" lon="34.6567536645"><ele>167.745</ele><time>2026-08-16T14:48:40.136Z</time><hdop>3.0</hdop><vdop>2.5</vdop><extensions><gom:speed>0.157</gom:speed></extensions></trkpt>
   <trkpt lat="59.2923048719" lon="34.656750647"><ele>167.547</ele><time>2026-08-16T14:48:41.136Z</time><hdop>3.0</hdop><vdop>2.5</vdop><extensions><gom:speed>0.129</gom:speed></extensions></trkpt>
   <trkpt lat="59.2923059615" lon="34.656747881"><ele>167.663</ele><time>2026-08-16T14:48:42.136Z</time><hdop>3.0</hdop><vdop>2.5</vdop><extensions><gom:speed>0.158</gom:speed></extensions></trkpt>
   <trkpt lat="59.2923062968" lon="34.656745534"><ele>167.732</ele><time>2026-08-16T14:48:43.033Z</time><hdop>3.0</hdop><vdop>2.5</vdop><extensions><gom:speed>0.156</gom:speed></extensions></trkpt>
   <trkpt lat="59.2923082665" lon="34.6567444444"><ele>167.771</ele><time>2026-08-16T14:48:44.112Z</time><hdop>3.0</hdop><vdop>2.5</vdop><extensions><gom:speed>0.161</gom:speed></extensions></trkpt>
   <trkpt lat="59.2923099848" lon="34.6567480486"><ele>167.86</ele><time>2026-08-16T14:48:45.136Z</time><hdop>3.0</hdop><vdop>2.5</vdop><extensions><gom:speed>0.116</gom:speed></extensions></trkpt>
   <trkpt lat="59.2923101944" lon="34.6567514852"><ele>167.813</ele><time>2026-08-16T14:48:46.136Z</time><hdop>3.0</hdop><vdop>2.5</vdop><extensions><gom:speed>0.095</gom:speed></extensions></trkpt>
   <trkpt lat="59.2923101944" lon="34.6567554247"><ele>167.776</ele><time>2026-08-16T14:48:47.136Z</time><hdop>3.0</hdop><vdop>2.5</vdop><extensions><gom:speed>0.1</gom:speed></extensions></trkpt>
   <trkpt lat="59.2923097753" lon="34.6567569334"><ele>167.754</ele><time>2026-08-16T14:48:47.597Z</time><hdop>3.0</hdop><vdop>2.5</vdop><extensions><gom:speed>0.106</gom:speed></extensions></trkpt>
   <trkpt lat="59.292308979" lon="34.6567596994"><ele>167.708</ele><time>2026-08-16T14:48:48.135Z</time><hdop>3.0</hdop><vdop>2.5</vdop><extensions><gom:speed>0.112</gom:speed></extensions></trkpt>
   <trkpt lat="59.2923078893" lon="34.6567618787"><ele>167.675</ele><time>2026-08-16T14:48:49.136Z</time><hdop>3.0</hdop><vdop>2.5</vdop><extensions><gom:speed>0.081</gom:speed></extensions></trkpt>
   <trkpt lat="59.2923070931" lon="34.6567635551"><ele>167.657</ele><time>2026-08-16T14:48:50.136Z</time><hdop>3.0</hdop><vdop>2.5</vdop><extensions><gom:speed>0.087</gom:speed></extensions></trkpt>
   <trkpt lat="59.292306171" lon="34.6567657344"><ele>167.607</ele><time>2026-08-16T14:48:51.136Z</time><hdop>3.0</hdop><vdop>2.5</vdop><extensions><gom:speed>0.133</gom:speed></extensions></trkpt>
   <trkpt lat="59.2923057939" lon="34.6567667402"><ele>167.578</ele><time>2026-08-16T14:48:51.896Z</time><hdop>3.0</hdop><vdop>2.5</vdop><extensions><gom:speed>0.1</gom:speed></extensions></trkpt>
   <trkpt lat="59.2923040756" lon="34.6567677461"><ele>167.402</ele><time>2026-08-16T14:48:52.514Z</time><hdop>3.0</hdop><vdop>2.5</vdop><extensions><gom:speed>0.119</gom:speed></extensions></trkpt>
   <trkpt lat="59.2923036984" lon="34.6567680813"><ele>167.298</ele><time>2026-08-16T14:48:53.133Z</time><hdop>3.0</hdop><vdop>2.5</vdop><extensions><gom:speed>0.151</gom:speed></extensions></trkpt>
   <trkpt lat="59.2922998846" lon="34.6567748707"><ele>167.402</ele><time>2026-08-16T14:48:54.136Z</time><hdop>3.0</hdop><vdop>2.5</vdop><extensions><gom:speed>0.267</gom:speed></extensions></trkpt>
   <trkpt lat="59.2922993817" lon="34.6567860186"><ele>167.337</ele><time>2026-08-16T14:48:55.136Z</time><hdop>3.0</hdop><vdop>2.5</vdop><extensions><gom:speed>0.457</gom:speed></extensions></trkpt>
   <trkpt lat="59.2923000942" lon="34.6567944843"><ele>167.298</ele><time>2026-08-16T14:48:55.940Z</time><hdop>3.0</hdop><vdop>2.5</vdop><extensions><gom:speed>0.528</gom:speed></extensions></trkpt>
   <trkpt lat="59.292297873" lon="34.656813176"><ele>167.19</ele><time>2026-08-16T14:48:56.872Z</time><hdop>3.062</hdop><vdop>2.5</vdop><extensions><gom:speed>0.589</gom:speed></extensions></trkpt>
   <trkpt lat="59.2922935982" lon="34.6568312809"><ele>166.92</ele><time>2026-08-16T14:48:57.559Z</time><hdop>3.125</hdop><vdop>2.5</vdop><extensions><gom:speed>0.684</gom:speed></extensions></trkpt>
   <trkpt lat="59.2922893653" lon="34.656843267"><ele>166.767</ele><time>2026-08-16T14:48:58.136Z</time><hdop>3.125</hdop><vdop>2.5</vdop><extensions><gom:speed>0.688</gom:speed></extensions></trkpt>
   <trkpt lat="59.2922856773" lon="34.6568530738"><ele>166.675</ele><time>2026-08-16T14:48:58.835Z</time><hdop>3.125</hdop><vdop>2.5</vdop><extensions><gom:speed>0.694</gom:speed></extensions></trkpt>
   <trkpt lat="59.2922809834" lon="34.6568686642"><ele>166.615</ele><time>2026-08-16T14:48:59.679Z</time><hdop>3.125</hdop><vdop>2.5</vdop><extensions><gom:speed>0.77</gom:speed></extensions></trkpt>
   <trkpt lat="59.2922784689" lon="34.6568769623"><ele>166.476</ele><time>2026-08-16T14:49:00.136Z</time><hdop>3.125</hdop><vdop>2.5</vdop><extensions><gom:speed>0.757</gom:speed></extensions></trkpt>
   <trkpt lat="59.292273775" lon="34.6568939775"><ele>166.415</ele><time>2026-08-16T14:49:01.136Z</time><hdop>3.062</hdop><vdop>2.5</vdop><extensions><gom:speed>0.779</gom:speed></extensions></trkpt>
   <trkpt lat="59.2922703803" lon="34.6569070533"><ele>166.379</ele><time>2026-08-16T14:49:01.996Z</time><hdop>3.0</hdop><vdop>2.5</vdop><extensions><gom:speed>0.758</gom:speed></extensions></trkpt>
   <trkpt lat="59.2922676981" lon="34.6569223922"><ele>166.208</ele><time>2026-08-16T14:49:02.791Z</time><hdop>3.0</hdop><vdop>2.5</vdop><extensions><gom:speed>0.774</gom:speed></extensions></trkpt>
   <trkpt lat="59.2922656865" lon="34.6569341268"><ele>166.062</ele><time>2026-08-16T14:49:03.458Z</time><hdop>3.0</hdop><vdop>2.5</vdop><extensions><gom:speed>0.722</gom:speed></extensions></trkpt>
   <trkpt lat="59.2922640939" lon="34.6569458615"><ele>165.843</ele><time>2026-08-16T14:49:04.136Z</time><hdop>3.0</hdop><vdop>2.5</vdop><extensions><gom:speed>0.767</gom:speed></extensions></trkpt>
   <trkpt lat="59.2922617889" lon="34.6569563389"><ele>165.713</ele><time>2026-08-16T14:49:04.813Z</time><hdop>3.0</hdop><vdop>2.5</vdop><extensions><gom:speed>0.774</gom:speed></extensions></trkpt>
   <trkpt lat="59.2922594838" lon="34.6569763716"><ele>165.74</ele><time>2026-08-16T14:49:05.833Z</time><hdop>3.0</hdop><vdop>2.5</vdop><extensions><gom:speed>0.862</gom:speed></extensions></trkpt>
   <trkpt lat="59.2922576817" lon="34.656999841"><ele>165.687</ele><time>2026-08-16T14:49:07.051Z</time><hdop>3.0</hdop><vdop>2.5</vdop><extensions><gom:speed>0.901</gom:speed></extensions></trkpt>
   <trkpt lat="59.2922572626" lon="34.6570105698"><ele>165.931</ele><time>2026-08-16T14:49:07.531Z</time><hdop>3.0</hdop><vdop>2.5</vdop><extensions><gom:speed>0.963</gom:speed></extensions></trkpt>
   <trkpt lat="59.2922572626" lon="34.657022975"><ele>165.836</ele><time>2026-08-16T14:49:08.136Z</time><hdop>3.0</hdop><vdop>2.5</vdop><extensions><gom:speed>0.99</gom:speed></extensions></trkpt>
   <trkpt lat="59.2922578913" lon="34.6570379786"><ele>165.78</ele><time>2026-08-16T14:49:08.857Z</time><hdop>3.0</hdop><vdop>2.5</vdop><extensions><gom:speed>1.037</gom:speed></extensions></trkpt>
   <trkpt lat="59.2922615793" lon="34.6570612803"><ele>165.765</ele><time>2026-08-16T14:49:10.054Z</time><hdop>3.0</hdop><vdop>2.5</vdop><extensions><gom:speed>1.003</gom:speed></extensions></trkpt>
   <trkpt lat="59.2922640939" lon="34.6570774574"><ele>165.783</ele><time>2026-08-16T14:49:10.859Z</time><hdop>3.0</hdop><vdop>2.5</vdop><extensions><gom:speed>0.996</gom:speed></extensions></trkpt>
   <trkpt lat="59.2922667761" lon="34.6570920419"><ele>165.83</ele><time>2026-08-16T14:49:11.477Z</time><hdop>3.0</hdop><vdop>2.5</vdop><extensions><gom:speed>1.031</gom:speed></extensions></trkpt>
   <trkpt lat="59.2922693745" lon="34.6571075484"><ele>165.979</ele><time>2026-08-16T14:49:12.136Z</time><hdop>3.0</hdop><vdop>2.5</vdop><extensions><gom:speed>1.078</gom:speed></extensions></trkpt>
   <trkpt lat="59.2922713862" lon="34.6571201213"><ele>166.068</ele><time>2026-08-16T14:49:12.655Z</time><hdop>3.0</hdop><vdop>2.5</vdop><extensions><gom:speed>1.074</gom:speed></extensions></trkpt>
   <trkpt lat="59.292273775" lon="34.6571316883"><ele>166.396</ele><time>2026-08-16T14:49:13.136Z</time><hdop>3.0</hdop><vdop>2.5</vdop><extensions><gom:speed>1.1</gom:speed></extensions></trkpt>
   <trkpt lat="59.2922756609" lon="34.6571517211"><ele>166.592</ele><time>2026-08-16T14:49:14.000Z</time><hdop>3.0</hdop><vdop>2.5</vdop><extensions><gom:speed>1.091</gom:speed></extensions></trkpt>
   <trkpt lat="59.292280271" lon="34.6571638748"><ele>166.826</ele><time>2026-08-16T14:49:14.677Z</time><hdop>3.0</hdop><vdop>2.5</vdop><extensions><gom:speed>1.076</gom:speed></extensions></trkpt>
   <trkpt lat="59.2922836656" lon="34.6571712509"><ele>167.072</ele><time>2026-08-16T14:49:15.136Z</time><hdop>3.0</hdop><vdop>2.5</vdop><extensions><gom:speed>1.009</gom:speed></extensions></trkpt>
   <trkpt lat="59.2922865993" lon="34.6571865898"><ele>167.219</ele><time>2026-08-16T14:49:15.953Z</time><hdop>3.0</hdop><vdop>2.5</vdop><extensions><gom:speed>1.078</gom:speed></extensions></trkpt>
   <trkpt lat="59.2922882757" lon="34.6571955584"><ele>167.235</ele><time>2026-08-16T14:49:16.493Z</time><hdop>3.0</hdop><vdop>2.5</vdop><extensions><gom:speed>1.129</gom:speed></extensions></trkpt>
   <trkpt lat="59.2922877728" lon="34.6572064549"><ele>167.005</ele><time>2026-08-16T14:49:17.135Z</time><hdop>3.0</hdop><vdop>2.5</vdop><extensions><gom:speed>1.071</gom:speed></extensions></trkpt>
   <trkpt lat="59.2922872699" lon="34.6572255656"><ele>166.797</ele><time>2026-08-16T14:49:18.136Z</time><hdop>3.0</hdop><vdop>2.5</vdop><extensions><gom:speed>1.054</gom:speed></extensions></trkpt>
   <trkpt lat="59.2922883595" lon="34.6572388928"><ele>166.673</ele><time>2026-08-16T14:49:18.859Z</time><hdop>3.0</hdop><vdop>2.5</vdop><extensions><gom:speed>1.029</gom:speed></extensions></trkpt>
   <trkpt lat="59.2922909998" lon="34.6572518848"><ele>166.224</ele><time>2026-08-16T14:49:19.674Z</time><hdop>3.0</hdop><vdop>2.5</vdop><extensions><gom:speed>0.993</gom:speed></extensions></trkpt>
   <trkpt lat="59.292292299" lon="34.6572578359"><ele>165.868</ele><time>2026-08-16T14:49:20.136Z</time><hdop>3.0</hdop><vdop>2.5</vdop><extensions><gom:speed>0.933</gom:speed></extensions></trkpt>
   <trkpt lat="59.2922955679" lon="34.6572713308"><ele>165.413</ele><time>2026-08-16T14:49:21.136Z</time><hdop>3.0</hdop><vdop>2.5</vdop><extensions><gom:speed>0.898</gom:speed></extensions></trkpt>
   <trkpt lat="59.2922980825" lon="34.6572819758"><ele>165.141</ele><time>2026-08-16T14:49:21.853Z</time><hdop>3.0</hdop><vdop>2.5</vdop><extensions><gom:speed>0.873</gom:speed></extensions></trkpt>
   <trkpt lat="59.2923012676" lon="34.6572955545"><ele>164.783</ele><time>2026-08-16T14:49:22.737Z</time><hdop>3.0</hdop><vdop>2.5</vdop><extensions><gom:speed>0.912</gom:speed></extensions></trkpt>
   <trkpt lat="59.2923043689" lon="34.6573118992"><ele>164.801</ele><time>2026-08-16T14:49:23.797Z</time><hdop>3.0</hdop><vdop>2.5</vdop><extensions><gom:speed>0.927</gom:speed></extensions></trkpt>
   <trkpt lat="59.292310362" lon="34.6573321834"><ele>164.849</ele><time>2026-08-16T14:49:25.136Z</time><hdop>3.0</hdop><vdop>2.5</vdop><extensions><gom:speed>0.969</gom:speed></extensions></trkpt>
   <trkpt lat="59.2923124994" lon="34.6573489472"><ele>164.794</ele><time>2026-08-16T14:49:26.136Z</time><hdop>3.0</hdop><vdop>2.5</vdop><extensions><gom:speed>0.977</gom:speed></extensions></trkpt>
   <trkpt lat="59.2923129604" lon="34.6573684771"><ele>164.568</ele><time>2026-08-16T14:49:27.136Z</time><hdop>3.0</hdop><vdop>2.5</vdop><extensions><gom:speed>0.985</gom:speed></extensions></trkpt>
   <trkpt lat="59.2923147625" lon="34.657381469"><ele>164.433</ele><time>2026-08-16T14:49:27.831Z</time><hdop>3.0</hdop><vdop>2.5</vdop><extensions><gom:speed>0.996</gom:speed></extensions></trkpt>
   <trkpt lat="59.2923161874" lon="34.657394461"><ele>164.161</ele><time>2026-08-16T14:49:28.773Z</time><hdop>3.0</hdop><vdop>2.5</vdop><extensions><gom:speed>0.946</gom:speed></extensions></trkpt>
   <trkpt lat="59.2923168999" lon="34.6574002445"><ele>164.026</ele><time>2026-08-16T14:49:29.273Z</time><hdop>3.0</hdop><vdop>2.5</vdop><extensions><gom:speed>0.918</gom:speed></extensions></trkpt>
   <trkpt lat="59.2923167742" lon="34.6574135717"><ele>163.946</ele><time>2026-08-16T14:49:30.019Z</time><hdop>3.0</hdop><vdop>2.5</vdop><extensions><gom:speed>0.945</gom:speed></extensions></trkpt>
   <trkpt lat="59.2923167742" lon="34.6574270666"><ele>164.341</ele><time>2026-08-16T14:49:30.813Z</time><hdop>3.0</hdop><vdop>2.5</vdop><extensions><gom:speed>0.883</gom:speed></extensions></trkpt>
   <trkpt lat="59.2923176962" lon="34.6574450877"><ele>164.747</ele><time>2026-08-16T14:49:32.051Z</time><hdop>3.062</hdop><vdop>2.5</vdop><extensions><gom:speed>0.827</gom:speed></extensions></trkpt>
   <trkpt lat="59.2923171933" lon="34.6574600913"><ele>164.966</ele><time>2026-08-16T14:49:32.974Z</time><hdop>3.062</hdop><vdop>2.5</vdop><extensions><gom:speed>0.896</gom:speed></extensions></trkpt>
   <trkpt lat="59.2923170675" lon="34.6574679703"><ele>165.32</ele><time>2026-08-16T14:49:33.473Z</time><hdop>3.062</hdop><vdop>2.5</vdop><extensions><gom:speed>0.919</gom:speed></extensions></trkpt>
   <trkpt lat="59.2923158941" lon="34.6574786991"><ele>165.647</ele><time>2026-08-16T14:49:34.136Z</time><hdop>3.062</hdop><vdop>2.5</vdop><extensions><gom:speed>0.888</gom:speed></extensions></trkpt>
   <trkpt lat="59.2923145949" lon="34.6574923616"><ele>165.842</ele><time>2026-08-16T14:49:34.819Z</time><hdop>3.062</hdop><vdop>2.5</vdop><extensions><gom:speed>0.968</gom:speed></extensions></trkpt>
   <trkpt lat="59.2923148882" lon="34.6575025875"><ele>166.314</ele><time>2026-08-16T14:49:35.516Z</time><hdop>3.062</hdop><vdop>2.5</vdop><extensions><gom:speed>0.96</gom:speed></extensions></trkpt>
   <trkpt lat="59.2923166903" lon="34.6575120591"><ele>166.596</ele><time>2026-08-16T14:49:36.056Z</time><hdop>3.062</hdop><vdop>2.5</vdop><extensions><gom:speed>0.965</gom:speed></extensions></trkpt>
   <trkpt lat="59.2923169837" lon="34.657522285"><ele>166.983</ele><time>2026-08-16T14:49:36.753Z</time><hdop>3.062</hdop><vdop>2.5</vdop><extensions><gom:speed>0.929</gom:speed></extensions></trkpt>
   <trkpt lat="59.2923138824" lon="34.6575381268"><ele>167.16</ele><time>2026-08-16T14:49:37.813Z</time><hdop>3.0</hdop><vdop>2.5</vdop><extensions><gom:speed>0.919</gom:speed></extensions></trkpt>
   <trkpt lat="59.2923116612" lon="34.6575517893"><ele>167.303</ele><time>2026-08-16T14:49:38.833Z</time><hdop>3.0</hdop><vdop>2.5</vdop><extensions><gom:speed>0.874</gom:speed></extensions></trkpt>
   <trkpt lat="59.2923114936" lon="34.657564446"><ele>167.449</ele><time>2026-08-16T14:49:39.736Z</time><hdop>3.0</hdop><vdop>2.5</vdop><extensions><gom:speed>0.862</gom:speed></extensions></trkpt>
   <trkpt lat="59.292312667" lon="34.657573247"><ele>167.693</ele><time>2026-08-16T14:49:40.315Z</time><hdop>3.0</hdop><vdop>2.5</vdop><extensions><gom:speed>0.846</gom:speed></extensions></trkpt>
   <trkpt lat="59.2923123737" lon="34.6575832214"><ele>167.839</ele><time>2026-08-16T14:49:40.914Z</time><hdop>3.0</hdop><vdop>2.5</vdop><extensions><gom:speed>0.871</gom:speed></extensions></trkpt>
   <trkpt lat="59.2923106973" lon="34.6575942855"><ele>168.203</ele><time>2026-08-16T14:49:41.680Z</time><hdop>3.0</hdop><vdop>2.5</vdop><extensions><gom:speed>0.798</gom:speed></extensions></trkpt>
   <trkpt lat="59.2923078893" lon="34.6576004882"><ele>168.287</ele><time>2026-08-16T14:49:42.135Z</time><hdop>3.0</hdop><vdop>2.5</vdop><extensions><gom:speed>0.798</gom:speed></extensions></trkpt>
   <trkpt lat="59.2923045785" lon="34.6576063555"><ele>168.337</ele><time>2026-08-16T14:49:42.652Z</time><hdop>3.0</hdop><vdop>2.5</vdop><extensions><gom:speed>0.819</gom:speed></extensions></trkpt>
   <trkpt lat="59.2923004714" lon="34.6576132286"><ele>168.251</ele><time>2026-08-16T14:49:43.136Z</time><hdop>3.0</hdop><vdop>2.5</vdop><extensions><gom:speed>0.84</gom:speed></extensions></trkpt>
   <trkpt lat="59.2922947717" lon="34.6576245442"><ele>168.199</ele><time>2026-08-16T14:49:44.075Z</time><hdop>3.0</hdop><vdop>2.5</vdop><extensions><gom:speed>0.816</gom:speed></extensions></trkpt>
   <trkpt lat="59.2922909998" lon="34.6576387934"><ele>168.047</ele><time>2026-08-16T14:49:44.752Z</time><hdop>3.0</hdop><vdop>2.5</vdop><extensions><gom:speed>0.867</gom:speed></extensions></trkpt>
   <trkpt lat="59.2922878985" lon="34.6576654479"><ele>167.772</ele><time>2026-08-16T14:49:46.136Z</time><hdop>3.0</hdop><vdop>2.5</vdop><extensions><gom:speed>0.86</gom:speed></extensions></trkpt>
   <trkpt lat="59.2922861802" lon="34.6576817926"><ele>167.607</ele><time>2026-08-16T14:49:47.059Z</time><hdop>3.0</hdop><vdop>2.5</vdop><extensions><gom:speed>0.879</gom:speed></extensions></trkpt>
   <trkpt lat="59.2922801871" lon="34.6576905936"><ele>167.782</ele><time>2026-08-16T14:49:47.913Z</time><hdop>3.0</hdop><vdop>2.5</vdop><extensions><gom:speed>0.781</gom:speed></extensions></trkpt>
   <trkpt lat="59.292270087" lon="34.6576970477"><ele>168.023</ele><time>2026-08-16T14:49:49.136Z</time><hdop>3.0</hdop><vdop>2.5</vdop><extensions><gom:speed>0.836</gom:speed></extensions></trkpt>
   <trkpt lat="59.2922663989" lon="34.6577076927"><ele>168.167</ele><time>2026-08-16T14:49:49.895Z</time><hdop>3.0</hdop><vdop>2.5</vdop><extensions><gom:speed>0.76</gom:speed></extensions></trkpt>
   <trkpt lat="59.2922656865" lon="34.6577228639"><ele>168.225</ele><time>2026-08-16T14:49:50.514Z</time><hdop>3.0</hdop><vdop>2.5</vdop><extensions><gom:speed>0.828</gom:speed></extensions></trkpt>
   <trkpt lat="59.2922657703" lon="34.6577363588"><ele>168.391</ele><time>2026-08-16T14:49:51.136Z</time><hdop>3.0</hdop><vdop>2.5</vdop><extensions><gom:speed>0.849</gom:speed></extensions></trkpt>
   <trkpt lat="59.2922664827" lon="34.6577488478"><ele>168.49</ele><time>2026-08-16T14:49:51.799Z</time><hdop>3.0</hdop><vdop>2.5</vdop><extensions><gom:speed>0.847</gom:speed></extensions></trkpt>
   <trkpt lat="59.2922703803" lon="34.6577624265"><ele>168.51</ele><time>2026-08-16T14:49:52.693Z</time><hdop>3.0</hdop><vdop>2.5</vdop><extensions><gom:speed>0.864</gom:speed></extensions></trkpt>
   <trkpt lat="59.2922738588" lon="34.6577679586"><ele>168.394</ele><time>2026-08-16T14:49:53.232Z</time><hdop>3.0</hdop><vdop>2.5</vdop><extensions><gom:speed>0.843</gom:speed></extensions></trkpt>
   <trkpt lat="59.292277463" lon="34.6577814534"><ele>168.325</ele><time>2026-08-16T14:49:54.116Z</time><hdop>3.0</hdop><vdop>2.5</vdop><extensions><gom:speed>0.859</gom:speed></extensions></trkpt>
   <trkpt lat="59.2922801871" lon="34.6577863988"><ele>168.095</ele><time>2026-08-16T14:49:54.577Z</time><hdop>3.0</hdop><vdop>2.5</vdop><extensions><gom:speed>0.86</gom:speed></extensions></trkpt>
   <trkpt lat="59.2922837914" lon="34.6577898353"><ele>167.688</ele><time>2026-08-16T14:49:55.136Z</time><hdop>3.0</hdop><vdop>2.5</vdop><extensions><gom:speed>0.828</gom:speed></extensions></trkpt>
   <trkpt lat="59.2922894911" lon="34.6577945292"><ele>167.444</ele><time>2026-08-16T14:49:55.814Z</time><hdop>3.0</hdop><vdop>2.5</vdop><extensions><gom:speed>0.879</gom:speed></extensions></trkpt>
   <trkpt lat="59.2923019801" lon="34.6577948645"><ele>167.376</ele><time>2026-08-16T14:49:57.119Z</time><hdop>3.0</hdop><vdop>2.5</vdop><extensions><gom:speed>0.964</gom:speed></extensions></trkpt>
   <trkpt lat="59.2923100686" lon="34.6577900868"><ele>167.276</ele><time>2026-08-16T14:49:57.855Z</time><hdop>3.0</hdop><vdop>2.5</vdop><extensions><gom:speed>0.961</gom:speed></extensions></trkpt>
   <trkpt lat="59.2923160617" lon="34.6577835489"><ele>167.104</ele><time>2026-08-16T14:49:58.356Z</time><hdop>3.0</hdop><vdop>2.562</vdop><extensions><gom:speed>1.026</gom:speed></extensions></trkpt>
   <trkpt lat="59.2923233959" lon="34.6577856444"><ele>167.001</ele><time>2026-08-16T14:49:59.033Z</time><hdop>3.0</hdop><vdop>2.562</vdop><extensions><gom:speed>1.037</gom:speed></extensions></trkpt>
   <trkpt lat="59.2923351724" lon="34.6577795256"><ele>167.013</ele><time>2026-08-16T14:50:00.113Z</time><hdop>3.0</hdop><vdop>2.812</vdop><extensions><gom:speed>1.045</gom:speed></extensions></trkpt>
   <trkpt lat="59.2923431772" lon="34.6577721495"><ele>166.837</ele><time>2026-08-16T14:50:00.800Z</time><hdop>3.0</hdop><vdop>2.812</vdop><extensions><gom:speed>1.062</gom:speed></extensions></trkpt>
   <trkpt lat="59.2923558757" lon="34.6577756699"><ele>166.97</ele><time>2026-08-16T14:50:02.076Z</time><hdop>3.0</hdop><vdop>2.812</vdop><extensions><gom:speed>1.037</gom:speed></extensions></trkpt>
   <trkpt lat="59.2923629584" lon="34.6577758376"><ele>167.457</ele><time>2026-08-16T14:50:02.979Z</time><hdop>3.0</hdop><vdop>3.0</vdop><extensions><gom:speed>0.962</gom:speed></extensions></trkpt>
   <trkpt lat="59.2923701669" lon="34.6577598281"><ele>167.798</ele><time>2026-08-16T14:50:04.136Z</time><hdop>3.0</hdop><vdop>2.687</vdop><extensions><gom:speed>0.848</gom:speed></extensions></trkpt>
   <trkpt lat="59.2923706698" lon="34.6577498537"><ele>168.002</ele><time>2026-08-16T14:50:04.638Z</time><hdop>3.0</hdop><vdop>2.687</vdop><extensions><gom:speed>0.815</gom:speed></extensions></trkpt>
   <trkpt lat="59.292369664" lon="34.6577435672"><ele>168.183</ele><time>2026-08-16T14:50:05.136Z</time><hdop>3.0</hdop><vdop>2.562</vdop><extensions><gom:speed>0.582</gom:speed></extensions></trkpt>
   <trkpt lat="59.2923702926" lon="34.6577376999"><ele>168.292</ele><time>2026-08-16T14:50:05.737Z</time><hdop>3.0</hdop><vdop>2.562</vdop><extensions><gom:speed>0.581</gom:speed></extensions></trkpt>
   <trkpt lat="59.2923752798" lon="34.6577278931"><ele>168.357</ele><time>2026-08-16T14:50:06.915Z</time><hdop>3.0</hdop><vdop>2.5</vdop><extensions><gom:speed>0.529</gom:speed></extensions></trkpt>
   <trkpt lat="59.2923809795" lon="34.6577216905"><ele>168.147</ele><time>2026-08-16T14:50:08.136Z</time><hdop>3.0</hdop><vdop>2.875</vdop><extensions><gom:speed>0.426</gom:speed></extensions></trkpt>
   <trkpt lat="59.2923803928" lon="34.6577250432"><ele>168.021</ele><time>2026-08-16T14:50:09.015Z</time><hdop>3.0</hdop><vdop>2.875</vdop><extensions><gom:speed>0.271</gom:speed></extensions></trkpt>
   <trkpt lat="59.2923783811" lon="34.6577248756"><ele>167.947</ele><time>2026-08-16T14:50:10.136Z</time><hdop>3.0</hdop><vdop>3.125</vdop><extensions><gom:speed>0.119</gom:speed></extensions></trkpt>
   <trkpt lat="59.2923780878" lon="34.6577247918"><ele>167.903</ele><time>2026-08-16T14:50:10.919Z</time><hdop>3.0</hdop><vdop>3.125</vdop><extensions><gom:speed>0.125</gom:speed></extensions></trkpt>
   <trkpt lat="59.2923776687" lon="34.6577237859"><ele>167.703</ele><time>2026-08-16T14:50:12.136Z</time><hdop>3.0</hdop><vdop>3.312</vdop><extensions><gom:speed>0.135</gom:speed></extensions></trkpt>
   <trkpt lat="59.2923776687" lon="34.6577248756"><ele>167.281</ele><time>2026-08-16T14:50:13.136Z</time><hdop>3.0</hdop><vdop>3.187</vdop><extensions><gom:speed>0.128</gom:speed></extensions></trkpt>
   <trkpt lat="59.2923775849" lon="34.6577245403"><ele>166.992</ele><time>2026-08-16T14:50:14.136Z</time><hdop>3.0</hdop><vdop>3.437</vdop><extensions><gom:speed>0.108</gom:speed></extensions></trkpt>
   <trkpt lat="59.2923777944" lon="34.6577244565"><ele>166.819</ele><time>2026-08-16T14:50:14.855Z</time><hdop>3.0</hdop><vdop>3.437</vdop><extensions><gom:speed>0.111</gom:speed></extensions></trkpt>
   <trkpt lat="59.2923778782" lon="34.6577247918"><ele>166.454</ele><time>2026-08-16T14:50:15.935Z</time><hdop>3.0</hdop><vdop>3.062</vdop><extensions><gom:speed>0.114</gom:speed></extensions></trkpt>
   <trkpt lat="59.2923772915" lon="34.657728396"><ele>165.917</ele><time>2026-08-16T14:50:17.136Z</time><hdop>3.0</hdop><vdop>3.062</vdop><extensions><gom:speed>0.144</gom:speed></extensions></trkpt>
   <trkpt lat="59.2923767886" lon="34.6577309944"><ele>165.607</ele><time>2026-08-16T14:50:18.136Z</time><hdop>3.0</hdop><vdop>3.187</vdop><extensions><gom:speed>0.096</gom:speed></extensions></trkpt>
   <trkpt lat="59.2923760761" lon="34.6577325869"><ele>165.422</ele><time>2026-08-16T14:50:19.136Z</time><hdop>3.0</hdop><vdop>3.125</vdop><extensions><gom:speed>0.075</gom:speed></extensions></trkpt>
   <trkpt lat="59.2923756989" lon="34.6577333413"><ele>165.326</ele><time>2026-08-16T14:50:20.136Z</time><hdop>3.0</hdop><vdop>3.062</vdop><extensions><gom:speed>0.101</gom:speed></extensions></trkpt>
   <trkpt lat="59.2923754894" lon="34.6577336766"><ele>165.251</ele><time>2026-08-16T14:50:21.136Z</time><hdop>3.0</hdop><vdop>3.062</vdop><extensions><gom:speed>0.073</gom:speed></extensions></trkpt>
   <trkpt lat="59.292375196" lon="34.6577347662"><ele>165.277</ele><time>2026-08-16T14:50:22.136Z</time><hdop>3.0</hdop><vdop>3.187</vdop><extensions><gom:speed>0.08</gom:speed></extensions></trkpt>
   <trkpt lat="59.2923752798" lon="34.6577360235"><ele>165.158</ele><time>2026-08-16T14:50:23.136Z</time><hdop>3.0</hdop><vdop>3.25</vdop><extensions><gom:speed>0.093</gom:speed></extensions></trkpt>
   <trkpt lat="59.2923750703" lon="34.6577365264"><ele>165.12</ele><time>2026-08-16T14:50:24.136Z</time><hdop>3.0</hdop><vdop>3.187</vdop><extensions><gom:speed>0.105</gom:speed></extensions></trkpt>
   <trkpt lat="59.2923748607" lon="34.6577377837"><ele>165.109</ele><time>2026-08-16T14:50:25.136Z</time><hdop>3.0</hdop><vdop>3.25</vdop><extensions><gom:speed>0.07</gom:speed></extensions></trkpt>
   <trkpt lat="59.2923744836" lon="34.6577377837"><ele>165.102</ele><time>2026-08-16T14:50:25.878Z</time><hdop>3.0</hdop><vdop>3.25</vdop><extensions><gom:speed>0.072</gom:speed></extensions></trkpt>
   <trkpt lat="59.2923736873" lon="34.6577389572"><ele>165.764</ele><time>2026-08-16T14:50:26.977Z</time><hdop>3.0</hdop><vdop>3.062</vdop><extensions><gom:speed>0.113</gom:speed></extensions></trkpt>
   <trkpt lat="59.2923724719" lon="34.6577393763"><ele>165.931</ele><time>2026-08-16T14:50:28.136Z</time><hdop>3.0</hdop><vdop>3.0</vdop><extensions><gom:speed>0.118</gom:speed></extensions></trkpt>
   <trkpt lat="59.2923753637" lon="34.6577351853"><ele>166.36</ele><time>2026-08-16T14:50:29.136Z</time><hdop>3.0</hdop><vdop>3.062</vdop><extensions><gom:speed>0.187</gom:speed></extensions></trkpt>
   <trkpt lat="59.292378465" lon="34.6577329222"><ele>166.6</ele><time>2026-08-16T14:50:30.136Z</time><hdop>3.0</hdop><vdop>3.0</vdop><extensions><gom:speed>0.092</gom:speed></extensions></trkpt>
   <trkpt lat="59.2923818596" lon="34.6577307429"><ele>167.007</ele><time>2026-08-16T14:50:31.136Z</time><hdop>3.0</hdop><vdop>3.0</vdop><extensions><gom:speed>0.103</gom:speed></extensions></trkpt>
   <trkpt lat="59.2923842904" lon="34.6577295695"><ele>167.249</ele><time>2026-08-16T14:50:32.136Z</time><hdop>3.0</hdop><vdop>2.812</vdop><extensions><gom:speed>0.106</gom:speed></extensions></trkpt>
   <trkpt lat="59.2923860925" lon="34.657729318"><ele>167.389</ele><time>2026-08-16T14:50:33.136Z</time><hdop>3.0</hdop><vdop>2.875</vdop><extensions><gom:speed>0.082</gom:speed></extensions></trkpt>
   <trkpt lat="59.2923874755" lon="34.6577284798"><ele>167.471</ele><time>2026-08-16T14:50:34.136Z</time><hdop>3.0</hdop><vdop>2.937</vdop><extensions><gom:speed>0.076</gom:speed></extensions></trkpt>
   <trkpt lat="59.2923886909" lon="34.6577271387"><ele>167.527</ele><time>2026-08-16T14:50:35.136Z</time><hdop>3.0</hdop><vdop>2.812</vdop><extensions><gom:speed>0.104</gom:speed></extensions></trkpt>
   <trkpt lat="59.2923897805" lon="34.6577259652"><ele>167.584</ele><time>2026-08-16T14:50:36.136Z</time><hdop>3.0</hdop><vdop>2.75</vdop><extensions><gom:speed>0.112</gom:speed></extensions></trkpt>
   <trkpt lat="59.2923909959" lon="34.657723283"><ele>167.51</ele><time>2026-08-16T14:50:37.136Z</time><hdop>3.0</hdop><vdop>2.75</vdop><extensions><gom:speed>0.187</gom:speed></extensions></trkpt>
   <trkpt lat="59.2923913731" lon="34.6577200979"><ele>167.636</ele><time>2026-08-16T14:50:38.135Z</time><hdop>3.0</hdop><vdop>2.75</vdop><extensions><gom:speed>0.166</gom:speed></extensions></trkpt>
   <trkpt lat="59.2923911635" lon="34.6577156555"><ele>167.713</ele><time>2026-08-16T14:50:39.136Z</time><hdop>3.0</hdop><vdop>2.75</vdop><extensions><gom:speed>0.139</gom:speed></extensions></trkpt>
   <trkpt lat="59.2923910797" lon="34.6577128895"><ele>167.781</ele><time>2026-08-16T14:50:40.136Z</time><hdop>3.0</hdop><vdop>2.625</vdop><extensions><gom:speed>0.135</gom:speed></extensions></trkpt>
   <trkpt lat="59.2923909959" lon="34.6577108778"><ele>167.855</ele><time>2026-08-16T14:50:41.136Z</time><hdop>3.0</hdop><vdop>2.5</vdop><extensions><gom:speed>0.112</gom:speed></extensions></trkpt>
   <trkpt lat="59.2923909959" lon="34.6577105425"><ele>167.9</ele><time>2026-08-16T14:50:41.697Z</time><hdop>3.0</hdop><vdop>2.5</vdop><extensions><gom:speed>0.061</gom:speed></extensions></trkpt>
   <trkpt lat="59.2923915826" lon="34.6577104587"><ele>167.9</ele><time>2026-08-16T14:50:42.717Z</time><hdop>3.0</hdop><vdop>2.5</vdop><extensions><gom:speed>0.1</gom:speed></extensions></trkpt>
   <trkpt lat="59.2923922951" lon="34.6577104587"><ele>167.885</ele><time>2026-08-16T14:50:43.758Z</time><hdop>3.0</hdop><vdop>2.5</vdop><extensions><gom:speed>0.11</gom:speed></extensions></trkpt>
   <trkpt lat="59.2923922951" lon="34.6577114645"><ele>167.599</ele><time>2026-08-16T14:50:45.136Z</time><hdop>3.0</hdop><vdop>2.5</vdop><extensions><gom:speed>0.136</gom:speed></extensions></trkpt>
   <trkpt lat="59.2923922951" lon="34.6577119675"><ele>167.427</ele><time>2026-08-16T14:50:45.692Z</time><hdop>3.0</hdop><vdop>2.5</vdop><extensions><gom:speed>0.18</gom:speed></extensions></trkpt>
   <trkpt lat="59.2923928818" lon="34.6577137277"><ele>167.01</ele><time>2026-08-16T14:50:46.536Z</time><hdop>3.0</hdop><vdop>2.5</vdop><extensions><gom:speed>0.213</gom:speed></extensions></trkpt>
   <trkpt lat="59.2923936781" lon="34.6577154879"><ele>166.786</ele><time>2026-08-16T14:50:47.136Z</time><hdop>3.0</hdop><vdop>2.5</vdop><extensions><gom:speed>0.173</gom:speed></extensions></trkpt>
   <trkpt lat="59.2923945582" lon="34.6577167451"><ele>166.66</ele><time>2026-08-16T14:50:48.135Z</time><hdop>3.0</hdop><vdop>2.5</vdop><extensions><gom:speed>0.149</gom:speed></extensions></trkpt>
   <trkpt lat="59.2923950611" lon="34.6577176672"><ele>166.599</ele><time>2026-08-16T14:50:49.135Z</time><hdop>3.0</hdop><vdop>2.5</vdop><extensions><gom:speed>0.083</gom:speed></extensions></trkpt>
   <trkpt lat="59.2923951869" lon="34.6577192597"><ele>166.565</ele><time>2026-08-16T14:50:50.136Z</time><hdop>3.0</hdop><vdop>2.5</vdop><extensions><gom:speed>0.078</gom:speed></extensions></trkpt>
   <trkpt lat="59.2923946839" lon="34.6577204332"><ele>166.477</ele><time>2026-08-16T14:50:51.136Z</time><hdop>3.0</hdop><vdop>2.5</vdop><extensions><gom:speed>0.123</gom:speed></extensions></trkpt>
   <trkpt lat="59.2923943906" lon="34.6577216905"><ele>166.34</ele><time>2026-08-16T14:50:52.136Z</time><hdop>3.0</hdop><vdop>2.5</vdop><extensions><gom:speed>0.112</gom:speed></extensions></trkpt>
   <trkpt lat="59.2923937619" lon="34.6577228639"><ele>166.305</ele><time>2026-08-16T14:50:53.136Z</time><hdop>3.0</hdop><vdop>2.5</vdop><extensions><gom:speed>0.106</gom:speed></extensions></trkpt>
   <trkpt lat="59.2923940972" lon="34.6577251271"><ele>165.899</ele><time>2026-08-16T14:50:54.136Z</time><hdop>3.0</hdop><vdop>2.75</vdop><extensions><gom:speed>0.114</gom:speed></extensions></trkpt>
   <trkpt lat="59.292395564" lon="34.6577268873"><ele>165.621</ele><time>2026-08-16T14:50:55.136Z</time><hdop>3.0</hdop><vdop>2.812</vdop><extensions><gom:speed>0.104</gom:speed></extensions></trkpt>
   <trkpt lat="59.2923966956" lon="34.6577272225"><ele>165.455</ele><time>2026-08-16T14:50:55.939Z</time><hdop>3.0</hdop><vdop>2.812</vdop><extensions><gom:speed>0.101</gom:speed></extensions></trkpt>
   <trkpt lat="59.292399294" lon="34.6577326708"><ele>165.136</ele><time>2026-08-16T14:50:57.136Z</time><hdop>3.0</hdop><vdop>3.0</vdop><extensions><gom:speed>0.142</gom:speed></extensions></trkpt>
   <trkpt lat="59.2924012637" lon="34.6577356882"><ele>164.99</ele><time>2026-08-16T14:50:58.136Z</time><hdop>3.0</hdop><vdop>3.0</vdop><extensions><gom:speed>0.134</gom:speed></extensions></trkpt>
   <trkpt lat="59.2924024791" lon="34.6577394601"><ele>164.883</ele><time>2026-08-16T14:50:59.136Z</time><hdop>3.0</hdop><vdop>3.062</vdop><extensions><gom:speed>0.133</gom:speed></extensions></trkpt>
   <trkpt lat="59.2924033592" lon="34.6577429805"><ele>164.819</ele><time>2026-08-16T14:51:00.136Z</time><hdop>3.0</hdop><vdop>3.062</vdop><extensions><gom:speed>0.116</gom:speed></extensions></trkpt>
   <trkpt lat="59.2924040717" lon="34.6577454951"><ele>164.774</ele><time>2026-08-16T14:51:01.136Z</time><hdop>3.0</hdop><vdop>3.062</vdop><extensions><gom:speed>0.065</gom:speed></extensions></trkpt>
   <trkpt lat="59.2924044908" lon="34.6577474229"><ele>164.743</ele><time>2026-08-16T14:51:02.136Z</time><hdop>3.0</hdop><vdop>3.0</vdop><extensions><gom:speed>0.067</gom:speed></extensions></trkpt>
   <trkpt lat="59.292404868" lon="34.657748764"><ele>164.724</ele><time>2026-08-16T14:51:03.136Z</time><hdop>3.0</hdop><vdop>3.062</vdop><extensions><gom:speed>0.087</gom:speed></extensions></trkpt>
   <trkpt lat="59.2924052871" lon="34.657749686"><ele>164.716</ele><time>2026-08-16T14:51:04.136Z</time><hdop>3.0</hdop><vdop>3.0</vdop><extensions><gom:speed>0.092</gom:speed></extensions></trkpt>
   <trkpt lat="59.29240579" lon="34.6577505242"><ele>164.71</ele><time>2026-08-16T14:51:05.136Z</time><hdop>3.0</hdop><vdop>2.937</vdop><extensions><gom:speed>0.063</gom:speed></extensions></trkpt>
   <trkpt lat="59.2924060833" lon="34.6577505242"><ele>164.703</ele><time>2026-08-16T14:51:06.136Z</time><hdop>3.0</hdop><vdop>2.937</vdop><extensions><gom:speed>0.059</gom:speed></extensions></trkpt>
   <trkpt lat="59.2924069634" lon="34.6577499375"><ele>164.479</ele><time>2026-08-16T14:51:07.136Z</time><hdop>3.0</hdop><vdop>2.812</vdop><extensions><gom:speed>0.101</gom:speed></extensions></trkpt>
   <trkpt lat="59.2924070892" lon="34.6577492669"><ele>164.158</ele><time>2026-08-16T14:51:08.136Z</time><hdop>3.0</hdop><vdop>2.812</vdop><extensions><gom:speed>0.136</gom:speed></extensions></trkpt>
   <trkpt lat="59.2924067958" lon="34.6577494346"><ele>163.834</ele><time>2026-08-16T14:51:09.136Z</time><hdop>3.0</hdop><vdop>2.75</vdop><extensions><gom:speed>0.37</gom:speed></extensions></trkpt>
   <trkpt lat="59.2924076759" lon="34.6577518653"><ele>163.641</ele><time>2026-08-16T14:51:10.131Z</time><hdop>3.0</hdop><vdop>2.75</vdop><extensions><gom:speed>0.514</gom:speed></extensions></trkpt>
   <trkpt lat="59.2924050775" lon="34.6577506919"><ele>162.994</ele><time>2026-08-16T14:51:11.136Z</time><hdop>3.0</hdop><vdop>2.687</vdop><extensions><gom:speed>0.265</gom:speed></extensions></trkpt>
   <trkpt lat="59.2924021858" lon="34.6577474229"><ele>162.681</ele><time>2026-08-16T14:51:12.136Z</time><hdop>3.0</hdop><vdop>2.812</vdop><extensions><gom:speed>0.214</gom:speed></extensions></trkpt>
   <trkpt lat="59.2923997969" lon="34.657744154"><ele>162.421</ele><time>2026-08-16T14:51:13.135Z</time><hdop>3.0</hdop><vdop>3.125</vdop><extensions><gom:speed>0.184</gom:speed></extensions></trkpt>
   <trkpt lat="59.2923976595" lon="34.6577425614"><ele>162.33</ele><time>2026-08-16T14:51:14.136Z</time><hdop>3.0</hdop><vdop>2.812</vdop><extensions><gom:speed>0.133</gom:speed></extensions></trkpt>
   <trkpt lat="59.2923957736" lon="34.657740885"><ele>162.244</ele><time>2026-08-16T14:51:15.136Z</time><hdop>3.0</hdop><vdop>2.812</vdop><extensions><gom:speed>0.109</gom:speed></extensions></trkpt>
   <trkpt lat="59.2923936781" lon="34.657739041"><ele>162.186</ele><time>2026-08-16T14:51:16.135Z</time><hdop>3.0</hdop><vdop>2.812</vdop><extensions><gom:speed>0.124</gom:speed></extensions></trkpt>
   <trkpt lat="59.2923919598" lon="34.6577382866"><ele>162.107</ele><time>2026-08-16T14:51:17.136Z</time><hdop>3.0</hdop><vdop>2.687</vdop><extensions><gom:speed>0.079</gom:speed></extensions></trkpt>
   <trkpt lat="59.2923909959" lon="34.6577380352"><ele>162.035</ele><time>2026-08-16T14:51:18.136Z</time><hdop>3.0</hdop><vdop>2.562</vdop><extensions><gom:speed>0.0</gom:speed></extensions></trkpt>
   <trkpt lat="59.2923903673" lon="34.6577382866"><ele>161.96</ele><time>2026-08-16T14:51:19.136Z</time><hdop>3.0</hdop><vdop>2.562</vdop><extensions><gom:speed>0.014</gom:speed></extensions></trkpt>
   <trkpt lat="59.2923899901" lon="34.6577380352"><ele>161.881</ele><time>2026-08-16T14:51:20.136Z</time><hdop>3.0</hdop><vdop>2.5</vdop><extensions><gom:speed>0.023</gom:speed></extensions></trkpt>
   <trkpt lat="59.2923894872" lon="34.6577379514"><ele>161.809</ele><time>2026-08-16T14:51:21.136Z</time><hdop>3.0</hdop><vdop>2.5</vdop><extensions><gom:speed>0.032</gom:speed></extensions></trkpt>
   <trkpt lat="59.2923889843" lon="34.6577376999"><ele>161.738</ele><time>2026-08-16T14:51:22.136Z</time><hdop>3.0</hdop><vdop>2.5</vdop><extensions><gom:speed>0.037</gom:speed></extensions></trkpt>
   <trkpt lat="59.2923885652" lon="34.6577374484"><ele>161.691</ele><time>2026-08-16T14:51:23.136Z</time><hdop>3.0</hdop><vdop>2.5</vdop><extensions><gom:speed>0.042</gom:speed></extensions></trkpt>
   <trkpt lat="59.2923880622" lon="34.6577370294"><ele>161.648</ele><time>2026-08-16T14:51:24.136Z</time><hdop>3.0</hdop><vdop>2.5</vdop><extensions><gom:speed>0.049</gom:speed></extensions></trkpt>
   <trkpt lat="59.2923875593" lon="34.6577367779"><ele>161.614</ele><time>2026-08-16T14:51:25.136Z</time><hdop>3.0</hdop><vdop>2.5</vdop><extensions><gom:speed>0.052</gom:speed></extensions></trkpt>
   <trkpt lat="59.2923870983" lon="34.6577363588"><ele>161.591</ele><time>2026-08-16T14:51:26.136Z</time><hdop>3.0</hdop><vdop>2.5</vdop><extensions><gom:speed>0.056</gom:speed></extensions></trkpt>
   <trkpt lat="59.2923865954" lon="34.6577361912"><ele>161.565</ele><time>2026-08-16T14:51:27.136Z</time><hdop>3.0</hdop><vdop>2.5</vdop><extensions><gom:speed>0.117</gom:speed></extensions></trkpt>
   <trkpt lat="59.2923863859" lon="34.6577357721"><ele>161.55</ele><time>2026-08-16T14:51:27.799Z</time><hdop>3.0</hdop><vdop>2.5</vdop><extensions><gom:speed>0.12</gom:speed></extensions></trkpt>
   <trkpt lat="59.29238538" lon="34.6577319164"><ele>161.008</ele><time>2026-08-16T14:51:29.136Z</time><hdop>3.0</hdop><vdop>2.5</vdop><extensions><gom:speed>0.547</gom:speed></extensions></trkpt>
   <trkpt lat="59.2923851705" lon="34.6577286475"><ele>160.684</ele><time>2026-08-16T14:51:29.958Z</time><hdop>3.0</hdop><vdop>2.5</vdop><extensions><gom:speed>0.4</gom:speed></extensions></trkpt>
   <trkpt lat="59.2923815663" lon="34.6577238698"><ele>160.527</ele><time>2026-08-16T14:51:30.675Z</time><hdop>3.0</hdop><vdop>2.625</vdop><extensions><gom:speed>0.422</gom:speed></extensions></trkpt>
   <trkpt lat="59.2923779621" lon="34.6577202655"><ele>160.404</ele><time>2026-08-16T14:51:31.136Z</time><hdop>3.0</hdop><vdop>2.562</vdop><extensions><gom:speed>0.395</gom:speed></extensions></trkpt>
   <trkpt lat="59.2923753637" lon="34.6577176672"><ele>160.331</ele><time>2026-08-16T14:51:31.597Z</time><hdop>3.0</hdop><vdop>2.562</vdop><extensions><gom:speed>0.431</gom:speed></extensions></trkpt>
   <trkpt lat="59.2923718852" lon="34.657714482"><ele>160.069</ele><time>2026-08-16T14:51:32.136Z</time><hdop>3.0</hdop><vdop>2.5</vdop><extensions><gom:speed>0.322</gom:speed></extensions></trkpt>
   <trkpt lat="59.2923676942" lon="34.6577110455"><ele>159.87</ele><time>2026-08-16T14:51:33.136Z</time><hdop>3.0</hdop><vdop>2.625</vdop><extensions><gom:speed>0.252</gom:speed></extensions></trkpt>
   <trkpt lat="59.2923644672" lon="34.657708028"><ele>159.903</ele><time>2026-08-16T14:51:34.136Z</time><hdop>3.0</hdop><vdop>2.562</vdop><extensions><gom:speed>0.191</gom:speed></extensions></trkpt>
   <trkpt lat="59.2923619945" lon="34.6577042561"><ele>159.798</ele><time>2026-08-16T14:51:35.136Z</time><hdop>3.0</hdop><vdop>2.562</vdop><extensions><gom:speed>0.148</gom:speed></extensions></trkpt>
   <trkpt lat="59.2923605696" lon="34.6576998975"><ele>159.71</ele><time>2026-08-16T14:51:36.136Z</time><hdop>3.0</hdop><vdop>2.5</vdop><extensions><gom:speed>0.119</gom:speed></extensions></trkpt>
   <trkpt lat="59.2923590609" lon="34.6576956228"><ele>159.666</ele><time>2026-08-16T14:51:37.136Z</time><hdop>3.0</hdop><vdop>2.562</vdop><extensions><gom:speed>0.117</gom:speed></extensions></trkpt>
   <trkpt lat="59.2923571749" lon="34.6576912642"><ele>159.646</ele><time>2026-08-16T14:51:38.136Z</time><hdop>3.0</hdop><vdop>2.75</vdop><extensions><gom:speed>0.108</gom:speed></extensions></trkpt>
   <trkpt lat="59.2923555824" lon="34.6576875761"><ele>159.634</ele><time>2026-08-16T14:51:39.136Z</time><hdop>3.0</hdop><vdop>2.75</vdop><extensions><gom:speed>0.113</gom:speed></extensions></trkpt>
   <trkpt lat="59.2923542832" lon="34.6576844748"><ele>159.617</ele><time>2026-08-16T14:51:40.136Z</time><hdop>3.0</hdop><vdop>2.625</vdop><extensions><gom:speed>0.089</gom:speed></extensions></trkpt>
   <trkpt lat="59.292352984" lon="34.6576829661"><ele>159.613</ele><time>2026-08-16T14:51:41.136Z</time><hdop>3.0</hdop><vdop>2.562</vdop><extensions><gom:speed>0.093</gom:speed></extensions></trkpt>
   <trkpt lat="59.2923522715" lon="34.6576836366"><ele>159.623</ele><time>2026-08-16T14:51:42.136Z</time><hdop>3.0</hdop><vdop>2.5</vdop><extensions><gom:speed>0.117</gom:speed></extensions></trkpt>
   <trkpt lat="59.2923522715" lon="34.6576844748"><ele>159.629</ele><time>2026-08-16T14:51:42.934Z</time><hdop>3.0</hdop><vdop>2.5</vdop><extensions><gom:speed>0.094</gom:speed></extensions></trkpt>
   <trkpt lat="59.2923527744" lon="34.657687157"><ele>159.488</ele><time>2026-08-16T14:51:43.798Z</time><hdop>3.0</hdop><vdop>2.562</vdop><extensions><gom:speed>0.126</gom:speed></extensions></trkpt>
   <trkpt lat="59.2923569654" lon="34.6576920185"><ele>159.391</ele><time>2026-08-16T14:51:45.136Z</time><hdop>3.0</hdop><vdop>2.5</vdop><extensions><gom:speed>0.098</gom:speed></extensions></trkpt>
   <trkpt lat="59.2923638805" lon="34.6576987241"><ele>159.413</ele><time>2026-08-16T14:51:46.136Z</time><hdop>3.0</hdop><vdop>2.812</vdop><extensions><gom:speed>0.263</gom:speed></extensions></trkpt>
   <trkpt lat="59.2923680714" lon="34.6577069383"><ele>159.164</ele><time>2026-08-16T14:51:47.136Z</time><hdop>3.0</hdop><vdop>2.625</vdop><extensions><gom:speed>0.209</gom:speed></extensions></trkpt>
   <trkpt lat="59.2923718852" lon="34.6577132247"><ele>159.005</ele><time>2026-08-16T14:51:48.136Z</time><hdop>3.0</hdop><vdop>2.75</vdop><extensions><gom:speed>0.135</gom:speed></extensions></trkpt>
   <trkpt lat="59.2923754894" lon="34.6577187568"><ele>158.917</ele><time>2026-08-16T14:51:49.136Z</time><hdop>3.0</hdop><vdop>2.75</vdop><extensions><gom:speed>0.112</gom:speed></extensions></trkpt>
   <trkpt lat="59.2923762857" lon="34.6577207685"><ele>158.864</ele><time>2026-08-16T14:51:49.991Z</time><hdop>3.0</hdop><vdop>2.75</vdop><extensions><gom:speed>0.133</gom:speed></extensions></trkpt>
   <trkpt lat="59.2923813986" lon="34.6577312458"><ele>158.398</ele><time>2026-08-16T14:51:51.136Z</time><hdop>3.0</hdop><vdop>2.687</vdop><extensions><gom:speed>0.125</gom:speed></extensions></trkpt>
   <trkpt lat="59.2923841647" lon="34.6577363588"><ele>158.148</ele><time>2026-08-16T14:51:52.136Z</time><hdop>3.0</hdop><vdop>2.75</vdop><extensions><gom:speed>0.088</gom:speed></extensions></trkpt>
   <trkpt lat="59.2923859668" lon="34.6577388734"><ele>157.779</ele><time>2026-08-16T14:51:53.136Z</time><hdop>3.0</hdop><vdop>2.875</vdop><extensions><gom:speed>0.036</gom:speed></extensions></trkpt>
   <trkpt lat="59.2923864697" lon="34.6577394601"><ele>157.559</ele><time>2026-08-16T14:51:53.731Z</time><hdop>3.0</hdop><vdop>2.875</vdop><extensions><gom:speed>0.037</gom:speed></extensions></trkpt>
   <trkpt lat="59.2923883975" lon="34.6577413879"><ele>157.073</ele><time>2026-08-16T14:51:54.575Z</time><hdop>3.0</hdop><vdop>2.812</vdop><extensions><gom:speed>0.184</gom:speed></extensions></trkpt>
   <trkpt lat="59.2923910797" lon="34.6577442378"><ele>156.833</ele><time>2026-08-16T14:51:55.136Z</time><hdop>3.0</hdop><vdop>2.875</vdop><extensions><gom:speed>0.207</gom:speed></extensions></trkpt>
   <trkpt lat="59.292395564" lon="34.6577501889"><ele>156.678</ele><time>2026-08-16T14:51:56.136Z</time><hdop>3.0</hdop><vdop>2.875</vdop><extensions><gom:speed>0.268</gom:speed></extensions></trkpt>
   <trkpt lat="59.2923989587" lon="34.6577526197"><ele>156.708</ele><time>2026-08-16T14:51:57.136Z</time><hdop>3.0</hdop><vdop>2.937</vdop><extensions><gom:speed>0.271</gom:speed></extensions></trkpt>
   <trkpt lat="59.2923997969" lon="34.6577526197"><ele>156.753</ele><time>2026-08-16T14:51:58.136Z</time><hdop>3.0</hdop><vdop>2.937</vdop><extensions><gom:speed>0.224</gom:speed></extensions></trkpt>
   <trkpt lat="59.2923991683" lon="34.6577527873"><ele>156.714</ele><time>2026-08-16T14:51:59.136Z</time><hdop>3.0</hdop><vdop>2.812</vdop><extensions><gom:speed>0.223</gom:speed></extensions></trkpt>
   <trkpt lat="59.2923994616" lon="34.6577534579"><ele>156.721</ele><time>2026-08-16T14:52:00.136Z</time><hdop>3.0</hdop><vdop>2.875</vdop><extensions><gom:speed>0.137</gom:speed></extensions></trkpt>
   <trkpt lat="59.2923997969" lon="34.6577541284"><ele>156.711</ele><time>2026-08-16T14:52:01.136Z</time><hdop>3.0</hdop><vdop>2.875</vdop><extensions><gom:speed>0.09</gom:speed></extensions></trkpt>
   <trkpt lat="59.2924002998" lon="34.6577544637"><ele>156.711</ele><time>2026-08-16T14:52:02.136Z</time><hdop>3.0</hdop><vdop>2.937</vdop><extensions><gom:speed>0.093</gom:speed></extensions></trkpt>
   <trkpt lat="59.292400677" lon="34.6577554695"><ele>156.735</ele><time>2026-08-16T14:52:03.136Z</time><hdop>3.0</hdop><vdop>2.937</vdop><extensions><gom:speed>0.094</gom:speed></extensions></trkpt>
   <trkpt lat="59.2924014733" lon="34.6577555534"><ele>156.841</ele><time>2026-08-16T14:52:04.135Z</time><hdop>3.0</hdop><vdop>3.0</vdop><extensions><gom:speed>0.082</gom:speed></extensions></trkpt>
   <trkpt lat="59.2924022696" lon="34.6577561401"><ele>156.638</ele><time>2026-08-16T14:52:05.136Z</time><hdop>3.0</hdop><vdop>2.937</vdop><extensions><gom:speed>0.064</gom:speed></extensions></trkpt>
   <trkpt lat="59.2924027725" lon="34.6577577327"><ele>156.564</ele><time>2026-08-16T14:52:06.136Z</time><hdop>3.0</hdop><vdop>2.937</vdop><extensions><gom:speed>0.098</gom:speed></extensions></trkpt>
   <trkpt lat="59.292402982" lon="34.6577597443"><ele>156.522</ele><time>2026-08-16T14:52:07.136Z</time><hdop>3.0</hdop><vdop>2.937</vdop><extensions><gom:speed>0.114</gom:speed></extensions></trkpt>
   <trkpt lat="59.2924026887" lon="34.6577613369"><ele>156.521</ele><time>2026-08-16T14:52:08.136Z</time><hdop>3.0</hdop><vdop>3.0</vdop><extensions><gom:speed>0.094</gom:speed></extensions></trkpt>
   <trkpt lat="59.2924022696" lon="34.6577637676"><ele>156.488</ele><time>2026-08-16T14:52:09.136Z</time><hdop>3.0</hdop><vdop>2.812</vdop><extensions><gom:speed>0.116</gom:speed></extensions></trkpt>
   <trkpt lat="59.2924009704" lon="34.6577675395"><ele>156.399</ele><time>2026-08-16T14:52:10.136Z</time><hdop>3.0</hdop><vdop>2.75</vdop><extensions><gom:speed>0.162</gom:speed></extensions></trkpt>
   <trkpt lat="59.2924000903" lon="34.6577699702"><ele>156.346</ele><time>2026-08-16T14:52:11.114Z</time><hdop>3.0</hdop><vdop>2.75</vdop><extensions><gom:speed>0.135</gom:speed></extensions></trkpt>
   <trkpt lat="59.2923981624" lon="34.6577748317"><ele>156.237</ele><time>2026-08-16T14:52:12.056Z</time><hdop>3.0</hdop><vdop>2.687</vdop><extensions><gom:speed>0.182</gom:speed></extensions></trkpt>
   <trkpt lat="59.2923965699" lon="34.6577812858"><ele>156.403</ele><time>2026-08-16T14:52:13.136Z</time><hdop>3.0</hdop><vdop>2.562</vdop><extensions><gom:speed>0.156</gom:speed></extensions></trkpt>
   <trkpt lat="59.2923964861" lon="34.6577825431"><ele>156.52</ele><time>2026-08-16T14:52:14.136Z</time><hdop>3.0</hdop><vdop>2.5</vdop><extensions><gom:speed>0.134</gom:speed></extensions></trkpt>
   <trkpt lat="59.2923968632" lon="34.6577833813"><ele>156.605</ele><time>2026-08-16T14:52:15.136Z</time><hdop>3.0</hdop><vdop>2.5</vdop><extensions><gom:speed>0.106</gom:speed></extensions></trkpt>
   <trkpt lat="59.2923973662" lon="34.6577840518"><ele>156.66</ele><time>2026-08-16T14:52:16.136Z</time><hdop>3.0</hdop><vdop>2.5</vdop><extensions><gom:speed>0.069</gom:speed></extensions></trkpt>
   <trkpt lat="59.2923972823" lon="34.6577844709"><ele>156.696</ele><time>2026-08-16T14:52:17.136Z</time><hdop>3.0</hdop><vdop>2.5</vdop><extensions><gom:speed>0.061</gom:speed></extensions></trkpt>
   <trkpt lat="59.2923970728" lon="34.6577844709"><ele>156.718</ele><time>2026-08-16T14:52:18.136Z</time><hdop>3.0</hdop><vdop>2.5</vdop><extensions><gom:speed>0.01</gom:speed></extensions></trkpt>
   <trkpt lat="59.2923971985" lon="34.6577845547"><ele>156.731</ele><time>2026-08-16T14:52:19.136Z</time><hdop>3.0</hdop><vdop>2.5</vdop><extensions><gom:speed>0.022</gom:speed></extensions></trkpt>
   <trkpt lat="59.2923970728" lon="34.6577846386"><ele>156.735</ele><time>2026-08-16T14:52:20.136Z</time><hdop>3.0</hdop><vdop>2.5</vdop><extensions><gom:speed>0.033</gom:speed></extensions></trkpt>
   <trkpt lat="59.2923968632" lon="34.65778489"><ele>156.735</ele><time>2026-08-16T14:52:21.136Z</time><hdop>3.0</hdop><vdop>2.5</vdop><extensions><gom:speed>0.04</gom:speed></extensions></trkpt>
   <trkpt lat="59.2923965699" lon="34.6577849738"><ele>156.734</ele><time>2026-08-16T14:52:22.136Z</time><hdop>3.0</hdop><vdop>2.5</vdop><extensions><gom:speed>0.045</gom:speed></extensions></trkpt>
   <trkpt lat="59.2923963603" lon="34.6577850577"><ele>156.733</ele><time>2026-08-16T14:52:23.136Z</time><hdop>3.0</hdop><vdop>2.5</vdop><extensions><gom:speed>0.05</gom:speed></extensions></trkpt>
   <trkpt lat="59.292396067" lon="34.6577851415"><ele>156.732</ele><time>2026-08-16T14:52:24.136Z</time><hdop>3.0</hdop><vdop>2.5</vdop><extensions><gom:speed>0.053</gom:speed></extensions></trkpt>
   <trkpt lat="59.2923957736" lon="34.6577855606"><ele>156.732</ele><time>2026-08-16T14:52:25.136Z</time><hdop>3.0</hdop><vdop>2.5</vdop><extensions><gom:speed>0.058</gom:speed></extensions></trkpt>
   <trkpt lat="59.292395564" lon="34.6577856444"><ele>156.729</ele><time>2026-08-16T14:52:26.136Z</time><hdop>3.0</hdop><vdop>2.5</vdop><extensions><gom:speed>0.062</gom:speed></extensions></trkpt>
   <trkpt lat="59.2923952707" lon="34.6577857282"><ele>156.726</ele><time>2026-08-16T14:52:27.136Z</time><hdop>3.0</hdop><vdop>2.5</vdop><extensions><gom:speed>0.065</gom:speed></extensions></trkpt>
   <trkpt lat="59.2923950611" lon="34.6577857282"><ele>156.726</ele><time>2026-08-16T14:52:28.136Z</time><hdop>3.0</hdop><vdop>2.5</vdop><extensions><gom:speed>0.125</gom:speed></extensions></trkpt>
   <trkpt lat="59.2923949773" lon="34.6577858958"><ele>156.723</ele><time>2026-08-16T14:52:29.136Z</time><hdop>3.0</hdop><vdop>2.5</vdop><extensions><gom:speed>0.131</gom:speed></extensions></trkpt>
   <trkpt lat="59.2923951869" lon="34.6577870693"><ele>156.686</ele><time>2026-08-16T14:52:30.136Z</time><hdop>3.0</hdop><vdop>2.5</vdop><extensions><gom:speed>0.413</gom:speed></extensions></trkpt>
   <trkpt lat="59.2923949773" lon="34.657793691"><ele>156.665</ele><time>2026-08-16T14:52:31.155Z</time><hdop>3.0</hdop><vdop>2.5</vdop><extensions><gom:speed>0.519</gom:speed></extensions></trkpt>
   <trkpt lat="59.2923967794" lon="34.657799726"><ele>156.469</ele><time>2026-08-16T14:52:31.696Z</time><hdop>3.0</hdop><vdop>2.75</vdop><extensions><gom:speed>0.566</gom:speed></extensions></trkpt>
   <trkpt lat="59.2924034849" lon="34.6578215189"><ele>156.484</ele><time>2026-08-16T14:52:32.511Z</time><hdop>3.0</hdop><vdop>3.062</vdop><extensions><gom:speed>0.806</gom:speed></extensions></trkpt>
   <trkpt lat="59.2924077597" lon="34.6578400429"><ele>156.639</ele><time>2026-08-16T14:52:33.136Z</time><hdop>3.0</hdop><vdop>3.0</vdop><extensions><gom:speed>0.77</gom:speed></extensions></trkpt>
   <trkpt lat="59.2924126631" lon="34.6578551304"><ele>156.732</ele><time>2026-08-16T14:52:33.913Z</time><hdop>3.062</hdop><vdop>3.0</vdop><extensions><gom:speed>0.809</gom:speed></extensions></trkpt>
   <trkpt lat="59.2924167703" lon="34.6578737382"><ele>156.763</ele><time>2026-08-16T14:52:34.572Z</time><hdop>3.125</hdop><vdop>3.25</vdop><extensions><gom:speed>0.816</gom:speed></extensions></trkpt>
   <trkpt lat="59.2924211708" lon="34.6578832936"><ele>156.486</ele><time>2026-08-16T14:52:35.136Z</time><hdop>3.125</hdop><vdop>3.437</vdop><extensions><gom:speed>0.795</gom:speed></extensions></trkpt>
   <trkpt lat="59.2924282954" lon="34.6578940224"><ele>156.32</ele><time>2026-08-16T14:52:36.152Z</time><hdop>3.125</hdop><vdop>3.437</vdop><extensions><gom:speed>0.787</gom:speed></extensions></trkpt>
   <trkpt lat="59.2924356715" lon="34.657903494"><ele>156.661</ele><time>2026-08-16T14:52:36.996Z</time><hdop>3.125</hdop><vdop>3.375</vdop><extensions><gom:speed>0.78</gom:speed></extensions></trkpt>
   <trkpt lat="59.2924438857" lon="34.6579098642"><ele>156.643</ele><time>2026-08-16T14:52:37.772Z</time><hdop>3.125</hdop><vdop>3.375</vdop><extensions><gom:speed>0.772</gom:speed></extensions></trkpt>
   <trkpt lat="59.2924535668" lon="34.6579104509"><ele>156.958</ele><time>2026-08-16T14:52:38.616Z</time><hdop>3.062</hdop><vdop>3.437</vdop><extensions><gom:speed>0.793</gom:speed></extensions></trkpt>
   <trkpt lat="59.2924596856" lon="34.6579069305"><ele>157.267</ele><time>2026-08-16T14:52:39.136Z</time><hdop>3.062</hdop><vdop>3.562</vdop><extensions><gom:speed>0.769</gom:speed></extensions></trkpt>
   <trkpt lat="59.2924720908" lon="34.6578976266"><ele>157.703</ele><time>2026-08-16T14:52:40.136Z</time><hdop>3.0</hdop><vdop>3.5</vdop><extensions><gom:speed>0.939</gom:speed></extensions></trkpt>
   <trkpt lat="59.2924836998" lon="34.6578928489"><ele>158.108</ele><time>2026-08-16T14:52:41.136Z</time><hdop>3.0</hdop><vdop>3.75</vdop><extensions><gom:speed>0.813</gom:speed></extensions></trkpt>
   <trkpt lat="59.2924940933" lon="34.6578892447"><ele>158.394</ele><time>2026-08-16T14:52:42.136Z</time><hdop>3.0</hdop><vdop>3.625</vdop><extensions><gom:speed>0.82</gom:speed></extensions></trkpt>
   <trkpt lat="59.2925018885" lon="34.6578881551"><ele>158.565</ele><time>2026-08-16T14:52:42.993Z</time><hdop>3.0</hdop><vdop>3.625</vdop><extensions><gom:speed>0.764</gom:speed></extensions></trkpt>
   <trkpt lat="59.2925074625" lon="34.6578921784"><ele>158.509</ele><time>2026-08-16T14:52:44.136Z</time><hdop>3.0</hdop><vdop>3.312</vdop><extensions><gom:speed>0.594</gom:speed></extensions></trkpt>
   <trkpt lat="59.2925045707" lon="34.6578972913"><ele>158.4</ele><time>2026-08-16T14:52:45.136Z</time><hdop>3.0</hdop><vdop>3.375</vdop><extensions><gom:speed>0.347</gom:speed></extensions></trkpt>
   <trkpt lat="59.2925021819" lon="34.6578966208"><ele>158.33</ele><time>2026-08-16T14:52:46.136Z</time><hdop>3.0</hdop><vdop>3.437</vdop><extensions><gom:speed>0.192</gom:speed></extensions></trkpt>
   <trkpt lat="59.292501176" lon="34.6578951959"><ele>158.287</ele><time>2026-08-16T14:52:47.136Z</time><hdop>3.0</hdop><vdop>3.625</vdop><extensions><gom:speed>0.108</gom:speed></extensions></trkpt>
   <trkpt lat="59.2925010922" lon="34.65789419"><ele>158.242</ele><time>2026-08-16T14:52:48.136Z</time><hdop>3.0</hdop><vdop>3.687</vdop><extensions><gom:speed>0.075</gom:speed></extensions></trkpt>
   <trkpt lat="59.2925010922" lon="34.657893268"><ele>158.239</ele><time>2026-08-16T14:52:49.136Z</time><hdop>3.0</hdop><vdop>3.562</vdop><extensions><gom:speed>0.096</gom:speed></extensions></trkpt>
   <trkpt lat="59.2925006731" lon="34.6578945253"><ele>158.184</ele><time>2026-08-16T14:52:50.136Z</time><hdop>3.0</hdop><vdop>3.375</vdop><extensions><gom:speed>0.12</gom:speed></extensions></trkpt>
   <trkpt lat="59.2925009665" lon="34.6578949444"><ele>158.316</ele><time>2026-08-16T14:52:51.136Z</time><hdop>3.0</hdop><vdop>3.5</vdop><extensions><gom:speed>0.084</gom:speed></extensions></trkpt>
   <trkpt lat="59.2925015951" lon="34.6578944415"><ele>158.395</ele><time>2026-08-16T14:52:51.974Z</time><hdop>3.0</hdop><vdop>3.5</vdop><extensions><gom:speed>0.107</gom:speed></extensions></trkpt>
   <trkpt lat="59.2925006731" lon="34.6578963693"><ele>158.712</ele><time>2026-08-16T14:52:53.136Z</time><hdop>3.0</hdop><vdop>3.875</vdop><extensions><gom:speed>0.144</gom:speed></extensions></trkpt>
   <trkpt lat="59.2924998768" lon="34.6578994706"><ele>158.838</ele><time>2026-08-16T14:52:54.136Z</time><hdop>3.0</hdop><vdop>3.812</vdop><extensions><gom:speed>0.125</gom:speed></extensions></trkpt>
   <trkpt lat="59.2924983681" lon="34.6579030749"><ele>158.886</ele><time>2026-08-16T14:52:55.136Z</time><hdop>3.0</hdop><vdop>3.875</vdop><extensions><gom:speed>0.115</gom:speed></extensions></trkpt>
   <trkpt lat="59.2924966917" lon="34.6579058409"><ele>158.914</ele><time>2026-08-16T14:52:56.136Z</time><hdop>3.0</hdop><vdop>4.0</vdop><extensions><gom:speed>0.115</gom:speed></extensions></trkpt>
   <trkpt lat="59.2924947639" lon="34.6579074334"><ele>158.924</ele><time>2026-08-16T14:52:57.136Z</time><hdop>3.0</hdop><vdop>4.0</vdop><extensions><gom:speed>0.106</gom:speed></extensions></trkpt>
   <trkpt lat="59.2924933809" lon="34.6579085231"><ele>158.918</ele><time>2026-08-16T14:52:58.136Z</time><hdop>3.0</hdop><vdop>4.0</vdop><extensions><gom:speed>0.078</gom:speed></extensions></trkpt>
   <trkpt lat="59.292492375" lon="34.6579084393"><ele>158.911</ele><time>2026-08-16T14:52:59.136Z</time><hdop>3.0</hdop><vdop>4.062</vdop><extensions><gom:speed>0.065</gom:speed></extensions></trkpt>
   <trkpt lat="59.2924919978" lon="34.6579080202"><ele>158.917</ele><time>2026-08-16T14:53:00.136Z</time><hdop>3.0</hdop><vdop>3.812</vdop><extensions><gom:speed>0.097</gom:speed></extensions></trkpt>
   <trkpt lat="59.2924918721" lon="34.6579084393"><ele>158.911</ele><time>2026-08-16T14:53:01.136Z</time><hdop>3.0</hdop><vdop>3.437</vdop><extensions><gom:speed>0.143</gom:speed></extensions></trkpt>
   <trkpt lat="59.292492375" lon="34.6579095289"><ele>158.907</ele><time>2026-08-16T14:53:02.064Z</time><hdop>3.0</hdop><vdop>3.437</vdop><extensions><gom:speed>0.106</gom:speed></extensions></trkpt>
   <trkpt lat="59.2924940933" lon="34.6579096966"><ele>158.947</ele><time>2026-08-16T14:53:02.809Z</time><hdop>3.0</hdop><vdop>3.625</vdop><extensions><gom:speed>0.11</gom:speed></extensions></trkpt>
   <trkpt lat="59.2924978652" lon="34.6579139713"><ele>159.2</ele><time>2026-08-16T14:53:03.566Z</time><hdop>3.0</hdop><vdop>3.312</vdop><extensions><gom:speed>0.263</gom:speed></extensions></trkpt>
   <trkpt lat="59.2924993739" lon="34.6579174917"><ele>159.299</ele><time>2026-08-16T14:53:04.136Z</time><hdop>3.0</hdop><vdop>3.125</vdop><extensions><gom:speed>0.29</gom:speed></extensions></trkpt>
   <trkpt lat="59.292502559" lon="34.6579306513"><ele>159.47</ele><time>2026-08-16T14:53:05.136Z</time><hdop>3.0</hdop><vdop>3.0</vdop><extensions><gom:speed>0.476</gom:speed></extensions></trkpt>
   <trkpt lat="59.2925054927" lon="34.6579462417"><ele>159.572</ele><time>2026-08-16T14:53:06.089Z</time><hdop>3.0</hdop><vdop>3.0</vdop><extensions><gom:speed>0.595</gom:speed></extensions></trkpt>
   <trkpt lat="59.2925081749" lon="34.6579633407"><ele>159.568</ele><time>2026-08-16T14:53:07.135Z</time><hdop>3.125</hdop><vdop>3.0</vdop><extensions><gom:speed>0.642</gom:speed></extensions></trkpt>
   <trkpt lat="59.2925091807" lon="34.6579703815"><ele>159.579</ele><time>2026-08-16T14:53:08.136Z</time><hdop>3.187</hdop><vdop>3.125</vdop><extensions><gom:speed>0.532</gom:speed></extensions></trkpt>
   <trkpt lat="59.2925094741" lon="34.6579690404"><ele>159.581</ele><time>2026-08-16T14:53:09.136Z</time><hdop>3.312</hdop><vdop>3.25</vdop><extensions><gom:speed>0.345</gom:speed></extensions></trkpt>
   <trkpt lat="59.2925098932" lon="34.6579633407"><ele>159.578</ele><time>2026-08-16T14:53:10.136Z</time><hdop>3.5</hdop><vdop>3.25</vdop><extensions><gom:speed>0.149</gom:speed></extensions></trkpt>
   <trkpt lat="59.2925102704" lon="34.6579561323"><ele>159.584</ele><time>2026-08-16T14:53:11.136Z</time><hdop>3.812</hdop><vdop>3.25</vdop><extensions><gom:speed>0.081</gom:speed></extensions></trkpt>
   <trkpt lat="59.2925103961" lon="34.6579527795"><ele>159.588</ele><time>2026-08-16T14:53:12.046Z</time><hdop>3.875</hdop><vdop>3.25</vdop><extensions><gom:speed>0.1</gom:speed></extensions></trkpt>
   <trkpt lat="59.2925107733" lon="34.6579509355"><ele>159.491</ele><time>2026-08-16T14:53:12.930Z</time><hdop>3.937</hdop><vdop>2.937</vdop><extensions><gom:speed>0.085</gom:speed></extensions></trkpt>
   <trkpt lat="59.2925112762" lon="34.6579518575"><ele>159.329</ele><time>2026-08-16T14:53:13.764Z</time><hdop>4.0</hdop><vdop>2.625</vdop><extensions><gom:speed>0.114</gom:speed></extensions></trkpt>
   <trkpt lat="59.2925114858" lon="34.6579560485"><ele>159.04</ele><time>2026-08-16T14:53:15.050Z</time><hdop>4.0</hdop><vdop>2.75</vdop><extensions><gom:speed>0.158</gom:speed></extensions></trkpt>
   <trkpt lat="59.2925120725" lon="34.6579632569"><ele>159.342</ele><time>2026-08-16T14:53:16.136Z</time><hdop>4.0</hdop><vdop>2.75</vdop><extensions><gom:speed>0.198</gom:speed></extensions></trkpt>
   <trkpt lat="59.2925117791" lon="34.6579649333"><ele>159.517</ele><time>2026-08-16T14:53:17.136Z</time><hdop>4.0</hdop><vdop>2.875</vdop><extensions><gom:speed>0.188</gom:speed></extensions></trkpt>
   <trkpt lat="59.2925114858" lon="34.6579657715"><ele>159.627</ele><time>2026-08-16T14:53:18.136Z</time><hdop>3.937</hdop><vdop>2.75</vdop><extensions><gom:speed>0.137</gom:speed></extensions></trkpt>
   <trkpt lat="59.2925112762" lon="34.6579641789"><ele>159.699</ele><time>2026-08-16T14:53:19.136Z</time><hdop>3.937</hdop><vdop>2.687</vdop><extensions><gom:speed>0.097</gom:speed></extensions></trkpt>
   <trkpt lat="59.2925109829" lon="34.6579637598"><ele>159.744</ele><time>2026-08-16T14:53:20.136Z</time><hdop>3.875</hdop><vdop>2.625</vdop><extensions><gom:speed>0.106</gom:speed></extensions></trkpt>
   <trkpt lat="59.2925103961" lon="34.6579630893"><ele>159.774</ele><time>2026-08-16T14:53:21.135Z</time><hdop>3.875</hdop><vdop>2.562</vdop><extensions><gom:speed>0.104</gom:speed></extensions></trkpt>
   <trkpt lat="59.2925106895" lon="34.657963676"><ele>159.796</ele><time>2026-08-16T14:53:22.136Z</time><hdop>3.875</hdop><vdop>2.562</vdop><extensions><gom:speed>0.065</gom:speed></extensions></trkpt>
   <trkpt lat="59.2925105638" lon="34.6579652686"><ele>159.812</ele><time>2026-08-16T14:53:23.136Z</time><hdop>3.875</hdop><vdop>2.5</vdop><extensions><gom:speed>0.063</gom:speed></extensions></trkpt>
   <trkpt lat="59.2925100608" lon="34.6579661906"><ele>159.826</ele><time>2026-08-16T14:53:24.136Z</time><hdop>3.875</hdop><vdop>2.5</vdop><extensions><gom:speed>0.097</gom:speed></extensions></trkpt>
   <trkpt lat="59.2925093903" lon="34.6579680346"><ele>159.836</ele><time>2026-08-16T14:53:25.136Z</time><hdop>3.875</hdop><vdop>2.5</vdop><extensions><gom:speed>0.059</gom:speed></extensions></trkpt>
   <trkpt lat="59.2925087616" lon="34.6579688728"><ele>159.848</ele><time>2026-08-16T14:53:26.136Z</time><hdop>3.875</hdop><vdop>2.5</vdop><extensions><gom:speed>0.058</gom:speed></extensions></trkpt>
   <trkpt lat="59.292508594" lon="34.6579697948"><ele>159.865</ele><time>2026-08-16T14:53:27.136Z</time><hdop>3.937</hdop><vdop>2.5</vdop><extensions><gom:speed>0.088</gom:speed></extensions></trkpt>
   <trkpt lat="59.2925083845" lon="34.6579707168"><ele>159.889</ele><time>2026-08-16T14:53:28.136Z</time><hdop>3.875</hdop><vdop>2.5</vdop><extensions><gom:speed>0.0</gom:speed></extensions></trkpt>
   <trkpt lat="59.2925082587" lon="34.6579712197"><ele>159.907</ele><time>2026-08-16T14:53:29.136Z</time><hdop>3.812</hdop><vdop>2.562</vdop><extensions><gom:speed>0.015</gom:speed></extensions></trkpt>
   <trkpt lat="59.2925082587" lon="34.6579718903"><ele>159.94</ele><time>2026-08-16T14:53:30.135Z</time><hdop>3.625</hdop><vdop>2.562</vdop><extensions><gom:speed>0.025</gom:speed></extensions></trkpt>
   <trkpt lat="59.2925082587" lon="34.6579727285"><ele>159.973</ele><time>2026-08-16T14:53:31.136Z</time><hdop>3.437</hdop><vdop>2.5</vdop><extensions><gom:speed>0.033</gom:speed></extensions></trkpt>
   <trkpt lat="59.2925081749" lon="34.6579741534"><ele>159.994</ele><time>2026-08-16T14:53:32.136Z</time><hdop>3.187</hdop><vdop>2.5</vdop><extensions><gom:speed>0.254</gom:speed></extensions></trkpt>
   <trkpt lat="59.2925083845" lon="34.6579771709"><ele>160.007</ele><time>2026-08-16T14:53:32.786Z</time><hdop>3.187</hdop><vdop>2.5</vdop><extensions><gom:speed>0.258</gom:speed></extensions></trkpt>
   <trkpt lat="59.2925086778" lon="34.6579804398"><ele>160.165</ele><time>2026-08-16T14:53:34.136Z</time><hdop>3.0</hdop><vdop>2.5</vdop><extensions><gom:speed>0.166</gom:speed></extensions></trkpt>
   <trkpt lat="59.2925090969" lon="34.6579820324"><ele>160.265</ele><time>2026-08-16T14:53:35.136Z</time><hdop>3.0</hdop><vdop>2.5</vdop><extensions><gom:speed>0.061</gom:speed></extensions></trkpt>
   <trkpt lat="59.2925090969" lon="34.6579824515"><ele>160.324</ele><time>2026-08-16T14:53:36.136Z</time><hdop>3.0</hdop><vdop>2.5</vdop><extensions><gom:speed>0.122</gom:speed></extensions></trkpt>
   <trkpt lat="59.2925089712" lon="34.6579835411"><ele>160.355</ele><time>2026-08-16T14:53:37.136Z</time><hdop>3.0</hdop><vdop>2.5</vdop><extensions><gom:speed>0.141</gom:speed></extensions></trkpt>
   <trkpt lat="59.2925088874" lon="34.6579846308"><ele>160.392</ele><time>2026-08-16T14:53:38.136Z</time><hdop>3.0</hdop><vdop>2.5</vdop><extensions><gom:speed>0.106</gom:speed></extensions></trkpt>
   <trkpt lat="59.292508594" lon="34.6579852175"><ele>160.406</ele><time>2026-08-16T14:53:39.136Z</time><hdop>3.0</hdop><vdop>2.5</vdop><extensions><gom:speed>0.091</gom:speed></extensions></trkpt>
   <trkpt lat="59.2925083845" lon="34.6579857204"><ele>160.404</ele><time>2026-08-16T14:53:40.136Z</time><hdop>3.0</hdop><vdop>2.5</vdop><extensions><gom:speed>0.08</gom:speed></extensions></trkpt>
   <trkpt lat="59.2925083845" lon="34.6579861395"><ele>160.416</ele><time>2026-08-16T14:53:41.136Z</time><hdop>3.0</hdop><vdop>2.5</vdop><extensions><gom:speed>0.076</gom:speed></extensions></trkpt>
   <trkpt lat="59.292508594" lon="34.6579865586"><ele>160.404</ele><time>2026-08-16T14:53:42.136Z</time><hdop>3.0</hdop><vdop>2.5</vdop><extensions><gom:speed>0.074</gom:speed></extensions></trkpt>
   <trkpt lat="59.2925086778" lon="34.6579868939"><ele>160.409</ele><time>2026-08-16T14:53:43.135Z</time><hdop>3.0</hdop><vdop>2.5</vdop><extensions><gom:speed>0.069</gom:speed></extensions></trkpt>
   <trkpt lat="59.2925083845" lon="34.6579873968"><ele>160.417</ele><time>2026-08-16T14:53:44.136Z</time><hdop>3.0</hdop><vdop>2.5</vdop><extensions><gom:speed>0.068</gom:speed></extensions></trkpt>
   <trkpt lat="59.2925078815" lon="34.6579867262"><ele>160.221</ele><time>2026-08-16T14:53:45.136Z</time><hdop>3.0</hdop><vdop>2.5</vdop><extensions><gom:speed>0.389</gom:speed></extensions></trkpt>
   <trkpt lat="59.292506289" lon="34.6579834573"><ele>160.104</ele><time>2026-08-16T14:53:45.949Z</time><hdop>3.0</hdop><vdop>2.5</vdop><extensions><gom:speed>0.469</gom:speed></extensions></trkpt>
   <trkpt lat="59.2925067919" lon="34.6579817809"><ele>160.037</ele><time>2026-08-16T14:53:46.822Z</time><hdop>3.0</hdop><vdop>2.5</vdop><extensions><gom:speed>0.101</gom:speed></extensions></trkpt>
   <trkpt lat="59.2925075882" lon="34.6579813618"><ele>159.863</ele><time>2026-08-16T14:53:47.971Z</time><hdop>3.0</hdop><vdop>2.5</vdop><extensions><gom:speed>0.124</gom:speed></extensions></trkpt>
   <trkpt lat="59.2925083845" lon="34.6579816971"><ele>159.393</ele><time>2026-08-16T14:53:48.785Z</time><hdop>3.0</hdop><vdop>2.5</vdop><extensions><gom:speed>0.158</gom:speed></extensions></trkpt>
   <trkpt lat="59.292511863" lon="34.6579817809"><ele>159.357</ele><time>2026-08-16T14:53:49.610Z</time><hdop>3.0</hdop><vdop>2.562</vdop><extensions><gom:speed>0.428</gom:speed></extensions></trkpt>
   <trkpt lat="59.2925161796" lon="34.6579799369"><ele>159.312</ele><time>2026-08-16T14:53:50.136Z</time><hdop>3.0</hdop><vdop>2.875</vdop><extensions><gom:speed>0.562</gom:speed></extensions></trkpt>
   <trkpt lat="59.2925224661" lon="34.6579798531"><ele>159.001</ele><time>2026-08-16T14:53:51.136Z</time><hdop>3.0</hdop><vdop>2.937</vdop><extensions><gom:speed>0.564</gom:speed></extensions></trkpt>
   <trkpt lat="59.292526196" lon="34.6579800207"><ele>159.012</ele><time>2026-08-16T14:53:52.136Z</time><hdop>3.0</hdop><vdop>2.875</vdop><extensions><gom:speed>0.4</gom:speed></extensions></trkpt>
   <trkpt lat="59.2925281658" lon="34.6579787634"><ele>159.035</ele><time>2026-08-16T14:53:53.136Z</time><hdop>3.0</hdop><vdop>2.937</vdop><extensions><gom:speed>0.269</gom:speed></extensions></trkpt>
   <trkpt lat="59.2925284591" lon="34.6579779253"><ele>159.029</ele><time>2026-08-16T14:53:54.136Z</time><hdop>3.0</hdop><vdop>3.062</vdop><extensions><gom:speed>0.16</gom:speed></extensions></trkpt>
   <trkpt lat="59.2925278724" lon="34.6579767518"><ele>159.007</ele><time>2026-08-16T14:53:55.135Z</time><hdop>3.0</hdop><vdop>3.125</vdop><extensions><gom:speed>0.112</gom:speed></extensions></trkpt>
   <trkpt lat="59.2925271599" lon="34.6579761651"><ele>158.993</ele><time>2026-08-16T14:53:55.950Z</time><hdop>3.0</hdop><vdop>3.125</vdop><extensions><gom:speed>0.078</gom:speed></extensions></trkpt>
   <trkpt lat="59.2925270761" lon="34.6579759974"><ele>158.987</ele><time>2026-08-16T14:53:56.863Z</time><hdop>3.0</hdop><vdop>3.062</vdop><extensions><gom:speed>0.094</gom:speed></extensions></trkpt>
   <trkpt lat="59.2925269923" lon="34.6579763327"><ele>159.047</ele><time>2026-08-16T14:53:57.825Z</time><hdop>3.0</hdop><vdop>2.812</vdop><extensions><gom:speed>0.137</gom:speed></extensions></trkpt>
   <trkpt lat="59.2925233881" lon="34.6579782605"><ele>159.051</ele><time>2026-08-16T14:53:59.136Z</time><hdop>3.0</hdop><vdop>2.75</vdop><extensions><gom:speed>0.351</gom:speed></extensions></trkpt>
   <trkpt lat="59.2925208735" lon="34.6579799369"><ele>159.053</ele><time>2026-08-16T14:54:00.063Z</time><hdop>3.0</hdop><vdop>2.75</vdop><extensions><gom:speed>0.269</gom:speed></extensions></trkpt>
   <trkpt lat="59.2925156767" lon="34.6579735667"><ele>158.877</ele><time>2026-08-16T14:54:01.136Z</time><hdop>3.0</hdop><vdop>3.0</vdop><extensions><gom:speed>0.128</gom:speed></extensions></trkpt>
   <trkpt lat="59.2925117791" lon="34.6579681184"><ele>158.351</ele><time>2026-08-16T14:54:02.136Z</time><hdop>3.0</hdop><vdop>2.875</vdop><extensions><gom:speed>0.093</gom:speed></extensions></trkpt>
   <trkpt lat="59.2925089712" lon="34.657962754"><ele>158.027</ele><time>2026-08-16T14:54:03.136Z</time><hdop>3.0</hdop><vdop>2.937</vdop><extensions><gom:speed>0.1</gom:speed></extensions></trkpt>
   <trkpt lat="59.2925066662" lon="34.6579587307"><ele>157.797</ele><time>2026-08-16T14:54:04.136Z</time><hdop>3.0</hdop><vdop>2.875</vdop><extensions><gom:speed>0.099</gom:speed></extensions></trkpt>
   <trkpt lat="59.2925049898" lon="34.6579551265"><ele>157.676</ele><time>2026-08-16T14:54:05.136Z</time><hdop>3.0</hdop><vdop>3.0</vdop><extensions><gom:speed>0.064</gom:speed></extensions></trkpt>
   <trkpt lat="59.292503062" lon="34.6579524443"><ele>157.606</ele><time>2026-08-16T14:54:06.135Z</time><hdop>3.0</hdop><vdop>2.937</vdop><extensions><gom:speed>0.061</gom:speed></extensions></trkpt>
   <trkpt lat="59.292502098" lon="34.6579507679"><ele>157.561</ele><time>2026-08-16T14:54:07.136Z</time><hdop>3.0</hdop><vdop>2.875</vdop><extensions><gom:speed>0.089</gom:speed></extensions></trkpt>
   <trkpt lat="59.2925008827" lon="34.657949343"><ele>157.534</ele><time>2026-08-16T14:54:08.136Z</time><hdop>3.0</hdop><vdop>2.687</vdop><extensions><gom:speed>0.091</gom:speed></extensions></trkpt>
   <trkpt lat="59.2924999607" lon="34.6579483371"><ele>157.519</ele><time>2026-08-16T14:54:09.136Z</time><hdop>3.0</hdop><vdop>2.562</vdop><extensions><gom:speed>0.071</gom:speed></extensions></trkpt>
   <trkpt lat="59.2924987872" lon="34.6579481695"><ele>157.51</ele><time>2026-08-16T14:54:10.136Z</time><hdop>3.0</hdop><vdop>2.5</vdop><extensions><gom:speed>0.059</gom:speed></extensions></trkpt>
   <trkpt lat="59.2924981585" lon="34.6579472475"><ele>157.506</ele><time>2026-08-16T14:54:11.136Z</time><hdop>3.0</hdop><vdop>2.5</vdop><extensions><gom:speed>0.097</gom:speed></extensions></trkpt>
   <trkpt lat="59.2924979909" lon="34.6579467446"><ele>157.504</ele><time>2026-08-16T14:54:12.136Z</time><hdop>3.0</hdop><vdop>2.5</vdop><extensions><gom:speed>0.092</gom:speed></extensions></trkpt>
   <trkpt lat="59.292497488" lon="34.657946074"><ele>157.501</ele><time>2026-08-16T14:54:13.136Z</time><hdop>3.0</hdop><vdop>2.5</vdop><extensions><gom:speed>0.06</gom:speed></extensions></trkpt>
   <trkpt lat="59.2924972784" lon="34.6579458226"><ele>157.5</ele><time>2026-08-16T14:54:14.136Z</time><hdop>3.0</hdop><vdop>2.5</vdop><extensions><gom:speed>0.025</gom:speed></extensions></trkpt>
   <trkpt lat="59.2924971946" lon="34.6579455711"><ele>157.499</ele><time>2026-08-16T14:54:15.135Z</time><hdop>3.0</hdop><vdop>2.5</vdop><extensions><gom:speed>0.032</gom:speed></extensions></trkpt>
   <trkpt lat="59.2924968593" lon="34.6579453196"><ele>157.498</ele><time>2026-08-16T14:54:16.136Z</time><hdop>3.0</hdop><vdop>2.5</vdop><extensions><gom:speed>0.04</gom:speed></extensions></trkpt>
   <trkpt lat="59.2924964822" lon="34.6579452358"><ele>157.497</ele><time>2026-08-16T14:54:17.136Z</time><hdop>3.0</hdop><vdop>2.5</vdop><extensions><gom:speed>0.047</gom:speed></extensions></trkpt>
   <trkpt lat="59.292495183" lon="34.657939117"><ele>157.497</ele><time>2026-08-16T14:54:18.136Z</time><hdop>3.125</hdop><vdop>2.5</vdop><extensions><gom:speed>0.0</gom:speed></extensions></trkpt>
   <trkpt lat="59.292495183" lon="34.657939117"><ele>157.498</ele><time>2026-08-16T14:54:19.135Z</time><hdop>3.25</hdop><vdop>2.5</vdop><extensions><gom:speed>0.0</gom:speed></extensions></trkpt>
   <trkpt lat="59.2924950991" lon="34.657939117"><ele>157.498</ele><time>2026-08-16T14:54:20.136Z</time><hdop>3.375</hdop><vdop>2.5</vdop><extensions><gom:speed>0.0</gom:speed></extensions></trkpt>
   <trkpt lat="59.2924950991" lon="34.6579392847"><ele>157.5</ele><time>2026-08-16T14:54:21.136Z</time><hdop>3.625</hdop><vdop>2.5</vdop><extensions><gom:speed>0.0</gom:speed></extensions></trkpt>
   <trkpt lat="59.2924950991" lon="34.6579392847"><ele>157.501</ele><time>2026-08-16T14:54:22.136Z</time><hdop>3.75</hdop><vdop>2.5</vdop><extensions><gom:speed>0.0</gom:speed></extensions></trkpt>
   <trkpt lat="59.2924968593" lon="34.6579370216"><ele>157.569</ele><time>2026-08-16T14:54:23.136Z</time><hdop>3.75</hdop><vdop>2.5</vdop><extensions><gom:speed>0.239</gom:speed></extensions></trkpt>
   <trkpt lat="59.2924977814" lon="34.6579303999"><ele>157.506</ele><time>2026-08-16T14:54:24.136Z</time><hdop>3.75</hdop><vdop>2.5</vdop><extensions><gom:speed>0.249</gom:speed></extensions></trkpt>
   <trkpt lat="59.292497488" lon="34.6579282206"><ele>157.474</ele><time>2026-08-16T14:54:25.136Z</time><hdop>3.75</hdop><vdop>2.5</vdop><extensions><gom:speed>0.0</gom:speed></extensions></trkpt>
   <trkpt lat="59.2924971946" lon="34.6579297293"><ele>157.486</ele><time>2026-08-16T14:54:26.136Z</time><hdop>3.75</hdop><vdop>2.5</vdop><extensions><gom:speed>0.0</gom:speed></extensions></trkpt>
   <trkpt lat="59.2924987872" lon="34.6579355966"><ele>157.492</ele><time>2026-08-16T14:54:27.136Z</time><hdop>3.75</hdop><vdop>2.5</vdop><extensions><gom:speed>0.319</gom:speed></extensions></trkpt>
   <trkpt lat="59.2925006731" lon="34.6579419669"><ele>157.667</ele><time>2026-08-16T14:54:28.136Z</time><hdop>3.75</hdop><vdop>2.5</vdop><extensions><gom:speed>0.329</gom:speed></extensions></trkpt>
   <trkpt lat="59.2925008827" lon="34.6579425536"><ele>157.698</ele><time>2026-08-16T14:54:29.136Z</time><hdop>3.75</hdop><vdop>2.5</vdop><extensions><gom:speed>0.0</gom:speed></extensions></trkpt>
   <trkpt lat="59.2924990806" lon="34.6579474989"><ele>157.881</ele><time>2026-08-16T14:54:30.136Z</time><hdop>3.75</hdop><vdop>2.5</vdop><extensions><gom:speed>0.0</gom:speed></extensions></trkpt>
   <trkpt lat="59.2924985776" lon="34.6579565514"><ele>158.063</ele><time>2026-08-16T14:54:31.135Z</time><hdop>3.75</hdop><vdop>2.5</vdop><extensions><gom:speed>0.249</gom:speed></extensions></trkpt>
   <trkpt lat="59.2924984938" lon="34.6579698786"><ele>158.249</ele><time>2026-08-16T14:54:32.136Z</time><hdop>3.75</hdop><vdop>2.5</vdop><extensions><gom:speed>0.0</gom:speed></extensions></trkpt>
   <trkpt lat="59.2924984938" lon="34.6579808589"><ele>158.341</ele><time>2026-08-16T14:54:33.136Z</time><hdop>3.75</hdop><vdop>2.5</vdop><extensions><gom:speed>0.0</gom:speed></extensions></trkpt>
   <trkpt lat="59.2924981585" lon="34.6579888217"><ele>158.394</ele><time>2026-08-16T14:54:34.136Z</time><hdop>3.75</hdop><vdop>2.5</vdop><extensions><gom:speed>0.0</gom:speed></extensions></trkpt>
   <trkpt lat="59.2924982843" lon="34.6579911687"><ele>158.408</ele><time>2026-08-16T14:54:35.136Z</time><hdop>3.75</hdop><vdop>2.625</vdop><extensions><gom:speed>0.0</gom:speed></extensions></trkpt>
   <trkpt lat="59.2924982843" lon="34.6579918392"><ele>158.419</ele><time>2026-08-16T14:54:36.136Z</time><hdop>3.75</hdop><vdop>2.75</vdop><extensions><gom:speed>0.0</gom:speed></extensions></trkpt>
   <trkpt lat="59.2924983681" lon="34.6579917554"><ele>158.447</ele><time>2026-08-16T14:54:37.136Z</time><hdop>3.75</hdop><vdop>2.562</vdop><extensions><gom:speed>0.0</gom:speed></extensions></trkpt>
   <trkpt lat="59.2924983681" lon="34.6579917554"><ele>158.458</ele><time>2026-08-16T14:54:38.136Z</time><hdop>3.75</hdop><vdop>2.562</vdop><extensions><gom:speed>0.0</gom:speed></extensions></trkpt>
   <trkpt lat="59.2924982843" lon="34.6579920907"><ele>158.471</ele><time>2026-08-16T14:54:39.136Z</time><hdop>3.75</hdop><vdop>2.562</vdop><extensions><gom:speed>0.0</gom:speed></extensions></trkpt>
   <trkpt lat="59.2924982843" lon="34.6579923421"><ele>158.494</ele><time>2026-08-16T14:54:40.136Z</time><hdop>3.75</hdop><vdop>2.5</vdop><extensions><gom:speed>0.0</gom:speed></extensions></trkpt>
   <trkpt lat="59.2924981585" lon="34.6579924259"><ele>158.518</ele><time>2026-08-16T14:54:41.136Z</time><hdop>3.75</hdop><vdop>2.5</vdop><extensions><gom:speed>0.0</gom:speed></extensions></trkpt>
   <trkpt lat="59.2924991644" lon="34.6579957787"><ele>158.744</ele><time>2026-08-16T14:54:42.136Z</time><hdop>3.75</hdop><vdop>2.5</vdop><extensions><gom:speed>0.0</gom:speed></extensions></trkpt>
   <trkpt lat="59.2924985776" lon="34.6579975389"><ele>159.02</ele><time>2026-08-16T14:54:43.136Z</time><hdop>3.75</hdop><vdop>2.5</vdop><extensions><gom:speed>0.199</gom:speed></extensions></trkpt>
   <trkpt lat="59.2924977814" lon="34.6579985447"><ele>159.196</ele><time>2026-08-16T14:54:44.136Z</time><hdop>3.75</hdop><vdop>2.5</vdop><extensions><gom:speed>0.0</gom:speed></extensions></trkpt>
   <trkpt lat="59.2924972784" lon="34.6579987962"><ele>159.308</ele><time>2026-08-16T14:54:45.136Z</time><hdop>3.75</hdop><vdop>2.5</vdop><extensions><gom:speed>0.0</gom:speed></extensions></trkpt>
   <trkpt lat="59.2924973623" lon="34.6579985447"><ele>159.376</ele><time>2026-08-16T14:54:46.136Z</time><hdop>3.75</hdop><vdop>2.5</vdop><extensions><gom:speed>0.0</gom:speed></extensions></trkpt>
   <trkpt lat="59.292497488" lon="34.6579985447"><ele>159.43</ele><time>2026-08-16T14:54:47.136Z</time><hdop>3.75</hdop><vdop>2.5</vdop><extensions><gom:speed>0.0</gom:speed></extensions></trkpt>
   <trkpt lat="59.2924971946" lon="34.6579967845"><ele>159.313</ele><time>2026-08-16T14:54:48.136Z</time><hdop>3.75</hdop><vdop>2.5</vdop><extensions><gom:speed>0.0</gom:speed></extensions></trkpt>
   <trkpt lat="59.292497488" lon="34.6579968684"><ele>159.276</ele><time>2026-08-16T14:54:49.136Z</time><hdop>3.75</hdop><vdop>2.5</vdop><extensions><gom:speed>0.0</gom:speed></extensions></trkpt>
   <trkpt lat="59.2924976975" lon="34.6579977904"><ele>159.283</ele><time>2026-08-16T14:54:50.136Z</time><hdop>3.75</hdop><vdop>2.5</vdop><extensions><gom:speed>0.0</gom:speed></extensions></trkpt>
   <trkpt lat="59.2924990806" lon="34.6579997182"><ele>159.435</ele><time>2026-08-16T14:54:51.136Z</time><hdop>3.75</hdop><vdop>2.5</vdop><extensions><gom:speed>0.199</gom:speed></extensions></trkpt>
   <trkpt lat="59.2925004636" lon="34.6580133807"><ele>159.648</ele><time>2026-08-16T14:54:52.135Z</time><hdop>3.75</hdop><vdop>2.5</vdop><extensions><gom:speed>0.689</gom:speed></extensions></trkpt>
   <trkpt lat="59.2924998768" lon="34.6580202539"><ele>159.78</ele><time>2026-08-16T14:54:53.136Z</time><hdop>3.75</hdop><vdop>2.5</vdop><extensions><gom:speed>0.0</gom:speed></extensions></trkpt>
   <trkpt lat="59.2925008827" lon="34.6580332458"><ele>159.837</ele><time>2026-08-16T14:54:54.136Z</time><hdop>3.75</hdop><vdop>2.5</vdop><extensions><gom:speed>0.539</gom:speed></extensions></trkpt>
   <trkpt lat="59.292503984" lon="34.6580448967"><ele>159.712</ele><time>2026-08-16T14:54:55.136Z</time><hdop>3.75</hdop><vdop>2.562</vdop><extensions><gom:speed>0.439</gom:speed></extensions></trkpt>
   <trkpt lat="59.2925070853" lon="34.6580574695"><ele>159.219</ele><time>2026-08-16T14:54:56.136Z</time><hdop>3.75</hdop><vdop>2.5</vdop><extensions><gom:speed>0.509</gom:speed></extensions></trkpt>
   <trkpt lat="59.2925139584" lon="34.6580709644"><ele>158.941</ele><time>2026-08-16T14:54:57.136Z</time><hdop>3.75</hdop><vdop>2.562</vdop><extensions><gom:speed>0.829</gom:speed></extensions></trkpt>
   <trkpt lat="59.2925253997" lon="34.6580835372"><ele>158.929</ele><time>2026-08-16T14:54:58.136Z</time><hdop>3.75</hdop><vdop>2.562</vdop><extensions><gom:speed>1.049</gom:speed></extensions></trkpt>
   <trkpt lat="59.2925370925" lon="34.6581029832"><ele>158.994</ele><time>2026-08-16T14:54:59.136Z</time><hdop>3.75</hdop><vdop>2.562</vdop><extensions><gom:speed>0.999</gom:speed></extensions></trkpt>
   <trkpt lat="59.2925486595" lon="34.6581181545"><ele>159.733</ele><time>2026-08-16T14:55:00.136Z</time><hdop>3.75</hdop><vdop>2.5</vdop><extensions><gom:speed>0.799</gom:speed></extensions></trkpt>
   <trkpt lat="59.2925559937" lon="34.658122094"><ele>160.58</ele><time>2026-08-16T14:55:01.136Z</time><hdop>3.75</hdop><vdop>2.5</vdop><extensions><gom:speed>0.309</gom:speed></extensions></trkpt>
   <trkpt lat="59.2925651719" lon="34.6581266202"><ele>161.066</ele><time>2026-08-16T14:55:02.136Z</time><hdop>3.75</hdop><vdop>2.5</vdop><extensions><gom:speed>0.619</gom:speed></extensions></trkpt>
   <trkpt lat="59.2925756911" lon="34.6581390254"><ele>161.978</ele><time>2026-08-16T14:55:03.136Z</time><hdop>3.75</hdop><vdop>2.5</vdop><extensions><gom:speed>0.909</gom:speed></extensions></trkpt>
   <trkpt lat="59.2925821871" lon="34.6581556216"><ele>162.493</ele><time>2026-08-16T14:55:04.136Z</time><hdop>3.75</hdop><vdop>2.562</vdop><extensions><gom:speed>0.819</gom:speed></extensions></trkpt>
   <trkpt lat="59.2925858752" lon="34.6581765764"><ele>162.82</ele><time>2026-08-16T14:55:05.136Z</time><hdop>3.75</hdop><vdop>2.562</vdop><extensions><gom:speed>0.929</gom:speed></extensions></trkpt>
   <trkpt lat="59.2925879706" lon="34.658195268"><ele>162.953</ele><time>2026-08-16T14:55:06.136Z</time><hdop>3.75</hdop><vdop>2.687</vdop><extensions><gom:speed>0.869</gom:speed></extensions></trkpt>
   <trkpt lat="59.2925971907" lon="34.6582133729"><ele>162.879</ele><time>2026-08-16T14:55:07.136Z</time><hdop>3.75</hdop><vdop>2.937</vdop><extensions><gom:speed>1.409</gom:speed></extensions></trkpt>
   <trkpt lat="59.2925945923" lon="34.658228628"><ele>162.834</ele><time>2026-08-16T14:55:07.936Z</time><hdop>3.687</hdop><vdop>2.937</vdop><extensions><gom:speed>1.093</gom:speed></extensions></trkpt>
   <trkpt lat="59.2925984899" lon="34.6582382672"><ele>162.735</ele><time>2026-08-16T14:55:08.535Z</time><hdop>3.437</hdop><vdop>3.062</vdop><extensions><gom:speed>1.007</gom:speed></extensions></trkpt>
   <trkpt lat="59.2926009626" lon="34.658248074"><ele>162.675</ele><time>2026-08-16T14:55:09.114Z</time><hdop>3.437</hdop><vdop>3.062</vdop><extensions><gom:speed>1.01</gom:speed></extensions></trkpt>
   <trkpt lat="59.2926070814" lon="34.6582579646"><ele>162.542</ele><time>2026-08-16T14:55:09.840Z</time><hdop>3.25</hdop><vdop>3.125</vdop><extensions><gom:speed>0.98</gom:speed></extensions></trkpt>
   <trkpt lat="59.2926133678" lon="34.6582642511"><ele>162.562</ele><time>2026-08-16T14:55:10.380Z</time><hdop>3.187</hdop><vdop>2.875</vdop><extensions><gom:speed>1.014</gom:speed></extensions></trkpt>
   <trkpt lat="59.2926204924" lon="34.6582722977"><ele>162.722</ele><time>2026-08-16T14:55:11.136Z</time><hdop>3.125</hdop><vdop>2.812</vdop><extensions><gom:speed>0.985</gom:speed></extensions></trkpt>
   <trkpt lat="59.2926253958" lon="34.6582800929"><ele>162.817</ele><time>2026-08-16T14:55:11.794Z</time><hdop>3.062</hdop><vdop>2.812</vdop><extensions><gom:speed>0.95</gom:speed></extensions></trkpt>
   <trkpt lat="59.2926289581" lon="34.6582922466"><ele>163.213</ele><time>2026-08-16T14:55:12.500Z</time><hdop>3.0</hdop><vdop>2.875</vdop><extensions><gom:speed>0.943</gom:speed></extensions></trkpt>
   <trkpt lat="59.2926310955" lon="34.6583006285"><ele>163.449</ele><time>2026-08-16T14:55:12.981Z</time><hdop>3.0</hdop><vdop>2.875</vdop><extensions><gom:speed>0.931</gom:speed></extensions></trkpt>
   <trkpt lat="59.2926334844" lon="34.6583163865"><ele>163.718</ele><time>2026-08-16T14:55:13.757Z</time><hdop>3.0</hdop><vdop>2.937</vdop><extensions><gom:speed>0.979</gom:speed></extensions></trkpt>
   <trkpt lat="59.2926344902" lon="34.6583284564"><ele>163.344</ele><time>2026-08-16T14:55:14.336Z</time><hdop>3.0</hdop><vdop>2.812</vdop><extensions><gom:speed>0.923</gom:speed></extensions></trkpt>
   <trkpt lat="59.2926325624" lon="34.6583368383"><ele>162.03</ele><time>2026-08-16T14:55:15.136Z</time><hdop>3.0</hdop><vdop>2.687</vdop><extensions><gom:speed>0.697</gom:speed></extensions></trkpt>
   <trkpt lat="59.2926283714" lon="34.6583410293"><ele>161.24</ele><time>2026-08-16T14:55:16.136Z</time><hdop>3.0</hdop><vdop>2.75</vdop><extensions><gom:speed>0.462</gom:speed></extensions></trkpt>
   <trkpt lat="59.2926251863" lon="34.6583410293"><ele>160.774</ele><time>2026-08-16T14:55:17.136Z</time><hdop>3.0</hdop><vdop>2.687</vdop><extensions><gom:speed>0.297</gom:speed></extensions></trkpt>
   <trkpt lat="59.2926233842" lon="34.6583384309"><ele>160.586</ele><time>2026-08-16T14:55:18.136Z</time><hdop>3.0</hdop><vdop>2.5</vdop><extensions><gom:speed>0.152</gom:speed></extensions></trkpt>
   <trkpt lat="59.2926213725" lon="34.6583367545"><ele>160.571</ele><time>2026-08-16T14:55:19.136Z</time><hdop>3.0</hdop><vdop>2.625</vdop><extensions><gom:speed>0.122</gom:speed></extensions></trkpt>
   <trkpt lat="59.2926205762" lon="34.6583366707"><ele>160.563</ele><time>2026-08-16T14:55:20.039Z</time><hdop>3.0</hdop><vdop>2.625</vdop><extensions><gom:speed>0.119</gom:speed></extensions></trkpt>
   <trkpt lat="59.2926199895" lon="34.6583387662"><ele>160.602</ele><time>2026-08-16T14:55:20.578Z</time><hdop>3.0</hdop><vdop>2.625</vdop><extensions><gom:speed>0.144</gom:speed></extensions></trkpt>
   <trkpt lat="59.2926199895" lon="34.6583444659"><ele>160.944</ele><time>2026-08-16T14:55:21.136Z</time><hdop>3.0</hdop><vdop>2.625</vdop><extensions><gom:speed>0.271</gom:speed></extensions></trkpt>
   <trkpt lat="59.2926212887" lon="34.6583571226"><ele>161.088</ele><time>2026-08-16T14:55:22.136Z</time><hdop>3.0</hdop><vdop>2.562</vdop><extensions><gom:speed>0.471</gom:speed></extensions></trkpt>
   <trkpt lat="59.2926215821" lon="34.6583632413"><ele>161.174</ele><time>2026-08-16T14:55:22.856Z</time><hdop>3.0</hdop><vdop>2.562</vdop><extensions><gom:speed>0.528</gom:speed></extensions></trkpt>
   <trkpt lat="59.292623468" lon="34.6583766524"><ele>161.517</ele><time>2026-08-16T14:55:23.553Z</time><hdop>3.0</hdop><vdop>2.625</vdop><extensions><gom:speed>0.73</gom:speed></extensions></trkpt>
   <trkpt lat="59.2926241805" lon="34.6583891414"><ele>161.835</ele><time>2026-08-16T14:55:24.136Z</time><hdop>3.0</hdop><vdop>2.687</vdop><extensions><gom:speed>0.773</gom:speed></extensions></trkpt>
   <trkpt lat="59.292625773" lon="34.6584021334"><ele>162.026</ele><time>2026-08-16T14:55:24.937Z</time><hdop>3.125</hdop><vdop>2.687</vdop><extensions><gom:speed>0.832</gom:speed></extensions></trkpt>
   <trkpt lat="59.2926265693" lon="34.6584220823"><ele>161.959</ele><time>2026-08-16T14:55:25.781Z</time><hdop>3.25</hdop><vdop>2.687</vdop><extensions><gom:speed>0.841</gom:speed></extensions></trkpt>
   <trkpt lat="59.2926251863" lon="34.6584378403"><ele>161.841</ele><time>2026-08-16T14:55:26.399Z</time><hdop>3.25</hdop><vdop>2.562</vdop><extensions><gom:speed>0.822</gom:speed></extensions></trkpt>
   <trkpt lat="59.2926241805" lon="34.6584511675"><ele>161.489</ele><time>2026-08-16T14:55:27.136Z</time><hdop>3.25</hdop><vdop>2.5</vdop><extensions><gom:speed>0.799</gom:speed></extensions></trkpt>
   <trkpt lat="59.2926244738" lon="34.6584631536"><ele>161.279</ele><time>2026-08-16T14:55:27.832Z</time><hdop>3.312</hdop><vdop>2.5</vdop><extensions><gom:speed>0.826</gom:speed></extensions></trkpt>
   <trkpt lat="59.2926277847" lon="34.6584765647"><ele>161.441</ele><time>2026-08-16T14:55:28.715Z</time><hdop>3.312</hdop><vdop>2.5</vdop><extensions><gom:speed>0.854</gom:speed></extensions></trkpt>
   <trkpt lat="59.2926327719" lon="34.6584859524"><ele>161.641</ele><time>2026-08-16T14:55:29.441Z</time><hdop>3.25</hdop><vdop>2.625</vdop><extensions><gom:speed>0.852</gom:speed></extensions></trkpt>
   <trkpt lat="59.2926370886" lon="34.6584933285"><ele>161.527</ele><time>2026-08-16T14:55:30.136Z</time><hdop>3.187</hdop><vdop>2.625</vdop><extensions><gom:speed>0.824</gom:speed></extensions></trkpt>
   <trkpt lat="59.2926420758" lon="34.6585008722"><ele>161.459</ele><time>2026-08-16T14:55:30.855Z</time><hdop>3.125</hdop><vdop>2.625</vdop><extensions><gom:speed>0.857</gom:speed></extensions></trkpt>
   <trkpt lat="59.2926445904" lon="34.6585108467"><ele>161.332</ele><time>2026-08-16T14:55:31.620Z</time><hdop>3.062</hdop><vdop>2.562</vdop><extensions><gom:speed>0.825</gom:speed></extensions></trkpt>
   <trkpt lat="59.2926451771" lon="34.6585164625"><ele>161.092</ele><time>2026-08-16T14:55:32.136Z</time><hdop>3.062</hdop><vdop>2.5</vdop><extensions><gom:speed>0.726</gom:speed></extensions></trkpt>
   <trkpt lat="59.2926444647" lon="34.6585240901"><ele>160.949</ele><time>2026-08-16T14:55:32.740Z</time><hdop>3.062</hdop><vdop>2.5</vdop><extensions><gom:speed>0.716</gom:speed></extensions></trkpt>
   <trkpt lat="59.2926403994" lon="34.6585334778"><ele>160.897</ele><time>2026-08-16T14:55:33.652Z</time><hdop>3.062</hdop><vdop>2.5</vdop><extensions><gom:speed>0.705</gom:speed></extensions></trkpt>
   <trkpt lat="59.2926386811" lon="34.6585373335"><ele>160.903</ele><time>2026-08-16T14:55:34.136Z</time><hdop>3.0</hdop><vdop>2.5</vdop><extensions><gom:speed>0.646</gom:speed></extensions></trkpt>
   <trkpt lat="59.2926367952" lon="34.6585481461"><ele>160.763</ele><time>2026-08-16T14:55:35.136Z</time><hdop>3.0</hdop><vdop>2.562</vdop><extensions><gom:speed>0.646</gom:speed></extensions></trkpt>
   <trkpt lat="59.2926377591" lon="34.6585599646"><ele>160.741</ele><time>2026-08-16T14:55:36.136Z</time><hdop>3.0</hdop><vdop>2.687</vdop><extensions><gom:speed>0.665</gom:speed></extensions></trkpt>
   <trkpt lat="59.2926385973" lon="34.6585720345"><ele>160.728</ele><time>2026-08-16T14:55:36.960Z</time><hdop>3.0</hdop><vdop>2.687</vdop><extensions><gom:speed>0.717</gom:speed></extensions></trkpt>
   <trkpt lat="59.292639687" lon="34.658579243"><ele>160.479</ele><time>2026-08-16T14:55:37.481Z</time><hdop>3.0</hdop><vdop>2.5</vdop><extensions><gom:speed>0.725</gom:speed></extensions></trkpt>
   <trkpt lat="59.2926391841" lon="34.6585859485"><ele>160.33</ele><time>2026-08-16T14:55:37.981Z</time><hdop>3.0</hdop><vdop>2.5</vdop><extensions><gom:speed>0.723</gom:speed></extensions></trkpt>
   <trkpt lat="59.2926377591" lon="34.6585851941"><ele>160.111</ele><time>2026-08-16T14:55:38.521Z</time><hdop>3.0</hdop><vdop>2.5</vdop><extensions><gom:speed>0.518</gom:speed></extensions></trkpt>
   <trkpt lat="59.292635496" lon="34.6585846912"><ele>159.751</ele><time>2026-08-16T14:55:39.136Z</time><hdop>3.0</hdop><vdop>2.5</vdop><extensions><gom:speed>0.712</gom:speed></extensions></trkpt>
   <trkpt lat="59.2926323947" lon="34.6585826796"><ele>159.535</ele><time>2026-08-16T14:55:39.660Z</time><hdop>3.0</hdop><vdop>2.5</vdop><extensions><gom:speed>0.644</gom:speed></extensions></trkpt>
   <trkpt lat="59.2926320594" lon="34.6585742977"><ele>159.555</ele><time>2026-08-16T14:55:40.136Z</time><hdop>3.0</hdop><vdop>2.5</vdop><extensions><gom:speed>0.562</gom:speed></extensions></trkpt>
   <trkpt lat="59.2926298802" lon="34.6585542649"><ele>159.372</ele><time>2026-08-16T14:55:41.136Z</time><hdop>3.0</hdop><vdop>2.5</vdop><extensions><gom:speed>0.785</gom:speed></extensions></trkpt>
   <trkpt lat="59.2926281619" lon="34.658530125"><ele>159.064</ele><time>2026-08-16T14:55:42.136Z</time><hdop>3.0</hdop><vdop>2.5</vdop><extensions><gom:speed>0.793</gom:speed></extensions></trkpt>
   <trkpt lat="59.2926337777" lon="34.6585175522"><ele>158.866</ele><time>2026-08-16T14:55:43.136Z</time><hdop>3.0</hdop><vdop>2.5</vdop><extensions><gom:speed>0.548</gom:speed></extensions></trkpt>
   <trkpt lat="59.2926370886" lon="34.6585248444"><ele>158.747</ele><time>2026-08-16T14:55:44.096Z</time><hdop>3.0</hdop><vdop>2.5</vdop><extensions><gom:speed>0.559</gom:speed></extensions></trkpt>
   <trkpt lat="59.2926357894" lon="34.6585316338"><ele>158.504</ele><time>2026-08-16T14:55:44.675Z</time><hdop>3.0</hdop><vdop>2.5</vdop><extensions><gom:speed>0.801</gom:speed></extensions></trkpt>
   <trkpt lat="59.2926341968" lon="34.6585382555"><ele>158.113</ele><time>2026-08-16T14:55:45.135Z</time><hdop>3.0</hdop><vdop>2.5</vdop><extensions><gom:speed>0.794</gom:speed></extensions></trkpt>
   <trkpt lat="59.2926320594" lon="34.6585551869"><ele>158.108</ele><time>2026-08-16T14:55:46.136Z</time><hdop>3.0</hdop><vdop>2.5</vdop><extensions><gom:speed>0.845</gom:speed></extensions></trkpt>
   <trkpt lat="59.2926341968" lon="34.6585707773"><ele>158.237</ele><time>2026-08-16T14:55:47.136Z</time><hdop>3.0</hdop><vdop>2.5</vdop><extensions><gom:speed>0.806</gom:speed></extensions></trkpt>
   <trkpt lat="59.292636879" lon="34.6585790753"><ele>158.315</ele><time>2026-08-16T14:55:47.816Z</time><hdop>3.0</hdop><vdop>2.5</vdop><extensions><gom:speed>0.772</gom:speed></extensions></trkpt>
   <trkpt lat="59.2926383878" lon="34.6585901395"><ele>158.425</ele><time>2026-08-16T14:55:48.572Z</time><hdop>3.0</hdop><vdop>2.5</vdop><extensions><gom:speed>0.749</gom:speed></extensions></trkpt>
   <trkpt lat="59.2926397708" lon="34.6585998625"><ele>158.757</ele><time>2026-08-16T14:55:49.136Z</time><hdop>3.0</hdop><vdop>2.5</vdop><extensions><gom:speed>0.838</gom:speed></extensions></trkpt>
   <trkpt lat="59.2926404833" lon="34.6586122677"><ele>158.955</ele><time>2026-08-16T14:55:49.838Z</time><hdop>3.0</hdop><vdop>2.5</vdop><extensions><gom:speed>0.88</gom:speed></extensions></trkpt>
   <trkpt lat="59.2926451771" lon="34.6586240862"><ele>158.867</ele><time>2026-08-16T14:55:50.692Z</time><hdop>3.0</hdop><vdop>2.5</vdop><extensions><gom:speed>0.829</gom:speed></extensions></trkpt>
   <trkpt lat="59.2926529723" lon="34.6586340606"><ele>158.741</ele><time>2026-08-16T14:55:51.379Z</time><hdop>3.0</hdop><vdop>2.5</vdop><extensions><gom:speed>0.917</gom:speed></extensions></trkpt>
   <trkpt lat="59.2926608932" lon="34.6586421911"><ele>159.136</ele><time>2026-08-16T14:55:52.136Z</time><hdop>3.0</hdop><vdop>2.5</vdop><extensions><gom:speed>0.893</gom:speed></extensions></trkpt>
   <trkpt lat="59.2926689817" lon="34.6586534228"><ele>159.372</ele><time>2026-08-16T14:55:53.097Z</time><hdop>3.0</hdop><vdop>2.5</vdop><extensions><gom:speed>0.911</gom:speed></extensions></trkpt>
   <trkpt lat="59.2926738851" lon="34.6586648222"><ele>159.5</ele><time>2026-08-16T14:55:53.872Z</time><hdop>3.0</hdop><vdop>2.5</vdop><extensions><gom:speed>0.926</gom:speed></extensions></trkpt>
   <trkpt lat="59.2926773636" lon="34.6586801611"><ele>159.568</ele><time>2026-08-16T14:55:54.560Z</time><hdop>3.0</hdop><vdop>2.5</vdop><extensions><gom:speed>1.002</gom:speed></extensions></trkpt>
   <trkpt lat="59.2926788724" lon="34.6586949971"><ele>159.653</ele><time>2026-08-16T14:55:55.135Z</time><hdop>3.0</hdop><vdop>2.5</vdop><extensions><gom:speed>1.035</gom:speed></extensions></trkpt>
   <trkpt lat="59.2926803811" lon="34.6587096654"><ele>159.703</ele><time>2026-08-16T14:55:55.816Z</time><hdop>3.0</hdop><vdop>2.5</vdop><extensions><gom:speed>1.012</gom:speed></extensions></trkpt>
   <trkpt lat="59.2926811774" lon="34.6587319613"><ele>159.903</ele><time>2026-08-16T14:55:56.660Z</time><hdop>3.0</hdop><vdop>2.5</vdop><extensions><gom:speed>1.037</gom:speed></extensions></trkpt>
   <trkpt lat="59.29268277" lon="34.6587453723"><ele>160.109</ele><time>2026-08-16T14:55:57.136Z</time><hdop>3.0</hdop><vdop>2.5</vdop><extensions><gom:speed>1.114</gom:speed></extensions></trkpt>
   <trkpt lat="59.2926869609" lon="34.6587621361"><ele>160.232</ele><time>2026-08-16T14:55:57.936Z</time><hdop>3.0</hdop><vdop>2.5</vdop><extensions><gom:speed>1.032</gom:speed></extensions></trkpt>
   <trkpt lat="59.2926925768" lon="34.6587701827"><ele>160.255</ele><time>2026-08-16T14:55:58.633Z</time><hdop>3.0</hdop><vdop>2.5</vdop><extensions><gom:speed>0.92</gom:speed></extensions></trkpt>
   <trkpt lat="59.2926980669" lon="34.6587726973"><ele>160.3</ele><time>2026-08-16T14:55:59.136Z</time><hdop>3.0</hdop><vdop>2.5</vdop><extensions><gom:speed>0.953</gom:speed></extensions></trkpt>
   <trkpt lat="59.2927059878" lon="34.6587778941"><ele>160.327</ele><time>2026-08-16T14:55:59.958Z</time><hdop>3.0</hdop><vdop>2.5</vdop><extensions><gom:speed>0.927</gom:speed></extensions></trkpt>
   <trkpt lat="59.2927139925" lon="34.6587791514"><ele>160.374</ele><time>2026-08-16T14:56:00.655Z</time><hdop>3.0</hdop><vdop>2.5</vdop><extensions><gom:speed>0.933</gom:speed></extensions></trkpt>
   <trkpt lat="59.2927204885" lon="34.6587792352"><ele>160.44</ele><time>2026-08-16T14:56:01.136Z</time><hdop>3.0</hdop><vdop>2.5</vdop><extensions><gom:speed>0.97</gom:speed></extensions></trkpt>
   <trkpt lat="59.2927296667" lon="34.6587845996"><ele>160.48</ele><time>2026-08-16T14:56:01.980Z</time><hdop>3.0</hdop><vdop>2.5</vdop><extensions><gom:speed>0.977</gom:speed></extensions></trkpt>
   <trkpt lat="59.2927372942" lon="34.6587893773"><ele>160.715</ele><time>2026-08-16T14:56:02.579Z</time><hdop>3.0</hdop><vdop>2.5</vdop><extensions><gom:speed>1.024</gom:speed></extensions></trkpt>
   <trkpt lat="59.2927406889" lon="34.6587984298"><ele>160.855</ele><time>2026-08-16T14:56:03.138Z</time><hdop>3.0</hdop><vdop>2.5</vdop><extensions><gom:speed>1.021</gom:speed></extensions></trkpt>
   <trkpt lat="59.2927476878" lon="34.6588079851"><ele>160.557</ele><time>2026-08-16T14:56:04.136Z</time><hdop>3.0</hdop><vdop>2.5</vdop><extensions><gom:speed>1.002</gom:speed></extensions></trkpt>
   <trkpt lat="59.2927566983" lon="34.6588136848"><ele>160.418</ele><time>2026-08-16T14:56:05.136Z</time><hdop>3.0</hdop><vdop>2.5</vdop><extensions><gom:speed>0.928</gom:speed></extensions></trkpt>
   <trkpt lat="59.2927617694" lon="34.6588248327"><ele>160.335</ele><time>2026-08-16T14:56:06.014Z</time><hdop>3.0</hdop><vdop>2.5</vdop><extensions><gom:speed>0.88</gom:speed></extensions></trkpt>
   <trkpt lat="59.2927644935" lon="34.6588289399"><ele>160.336</ele><time>2026-08-16T14:56:06.593Z</time><hdop>3.0</hdop><vdop>2.5</vdop><extensions><gom:speed>0.796</gom:speed></extensions></trkpt>
   <trkpt lat="59.2927673853" lon="34.6588324603"><ele>160.248</ele><time>2026-08-16T14:56:07.136Z</time><hdop>3.0</hdop><vdop>2.5</vdop><extensions><gom:speed>0.74</gom:speed></extensions></trkpt>
   <trkpt lat="59.2927691874" lon="34.6588355616"><ele>160.196</ele><time>2026-08-16T14:56:07.673Z</time><hdop>3.0</hdop><vdop>2.5</vdop><extensions><gom:speed>0.592</gom:speed></extensions></trkpt>
   <trkpt lat="59.2927699837" lon="34.6588374894"><ele>160.111</ele><time>2026-08-16T14:56:08.136Z</time><hdop>3.0</hdop><vdop>2.5</vdop><extensions><gom:speed>0.414</gom:speed></extensions></trkpt>
   <trkpt lat="59.2927706961" lon="34.6588419318"><ele>160.012</ele><time>2026-08-16T14:56:09.136Z</time><hdop>3.0</hdop><vdop>2.5</vdop><extensions><gom:speed>0.259</gom:speed></extensions></trkpt>
   <trkpt lat="59.2927709895" lon="34.6588450331"><ele>159.963</ele><time>2026-08-16T14:56:10.136Z</time><hdop>3.0</hdop><vdop>2.5</vdop><extensions><gom:speed>0.149</gom:speed></extensions></trkpt>
   <trkpt lat="59.2927717858" lon="34.6588480506"><ele>159.951</ele><time>2026-08-16T14:56:11.136Z</time><hdop>3.0</hdop><vdop>2.5</vdop><extensions><gom:speed>0.123</gom:speed></extensions></trkpt>
   <trkpt lat="59.2927727916" lon="34.6588513196"><ele>159.924</ele><time>2026-08-16T14:56:12.136Z</time><hdop>3.0</hdop><vdop>2.5</vdop><extensions><gom:speed>0.117</gom:speed></extensions></trkpt>
   <trkpt lat="59.2927738812" lon="34.6588538341"><ele>159.924</ele><time>2026-08-16T14:56:13.136Z</time><hdop>3.0</hdop><vdop>2.5</vdop><extensions><gom:speed>0.103</gom:speed></extensions></trkpt>
   <trkpt lat="59.2927749709" lon="34.6588576898"><ele>160.155</ele><time>2026-08-16T14:56:14.136Z</time><hdop>3.0</hdop><vdop>2.5</vdop><extensions><gom:speed>0.14</gom:speed></extensions></trkpt>
   <trkpt lat="59.2927757672" lon="34.658862719"><ele>160.31</ele><time>2026-08-16T14:56:15.135Z</time><hdop>3.0</hdop><vdop>2.5</vdop><extensions><gom:speed>0.202</gom:speed></extensions></trkpt>
   <trkpt lat="59.2927758929" lon="34.6588722743"><ele>160.335</ele><time>2026-08-16T14:56:16.136Z</time><hdop>3.0</hdop><vdop>2.5</vdop><extensions><gom:speed>0.323</gom:speed></extensions></trkpt>
   <trkpt lat="59.2927763958" lon="34.6588793989"><ele>160.349</ele><time>2026-08-16T14:56:16.998Z</time><hdop>3.0</hdop><vdop>2.5</vdop><extensions><gom:speed>0.313</gom:speed></extensions></trkpt>
   <trkpt lat="59.2927785751" lon="34.6589008566"><ele>160.381</ele><time>2026-08-16T14:56:17.793Z</time><hdop>3.0</hdop><vdop>2.5</vdop><extensions><gom:speed>0.597</gom:speed></extensions></trkpt>
   <trkpt lat="59.2927795809" lon="34.6589174528"><ele>160.679</ele><time>2026-08-16T14:56:18.696Z</time><hdop>3.0</hdop><vdop>2.5</vdop><extensions><gom:speed>0.63</gom:speed></extensions></trkpt>
   <trkpt lat="59.2927805868" lon="34.6589294389"><ele>161.01</ele><time>2026-08-16T14:56:19.392Z</time><hdop>3.0</hdop><vdop>2.5</vdop><extensions><gom:speed>0.709</gom:speed></extensions></trkpt>
   <trkpt lat="59.2927824727" lon="34.6589416765"><ele>161.292</ele><time>2026-08-16T14:56:20.136Z</time><hdop>3.0</hdop><vdop>2.5</vdop><extensions><gom:speed>0.755</gom:speed></extensions></trkpt>
   <trkpt lat="59.2927848615" lon="34.6589522377"><ele>161.46</ele><time>2026-08-16T14:56:20.757Z</time><hdop>3.0</hdop><vdop>2.5</vdop><extensions><gom:speed>0.813</gom:speed></extensions></trkpt>
   <trkpt lat="59.2927881724" lon="34.6589674927"><ele>161.953</ele><time>2026-08-16T14:56:21.679Z</time><hdop>3.0</hdop><vdop>2.625</vdop><extensions><gom:speed>0.854</gom:speed></extensions></trkpt>
   <trkpt lat="59.292789262" lon="34.6589741983"><ele>162.465</ele><time>2026-08-16T14:56:22.135Z</time><hdop>3.0</hdop><vdop>2.5</vdop><extensions><gom:speed>0.817</gom:speed></extensions></trkpt>
   <trkpt lat="59.29279207" lon="34.6589892857"><ele>162.771</ele><time>2026-08-16T14:56:23.132Z</time><hdop>3.0</hdop><vdop>2.5</vdop><extensions><gom:speed>0.845</gom:speed></extensions></trkpt>
   <trkpt lat="59.2927937883" lon="34.6590013556"><ele>163.126</ele><time>2026-08-16T14:56:23.937Z</time><hdop>3.0</hdop><vdop>2.5</vdop><extensions><gom:speed>0.858</gom:speed></extensions></trkpt>
   <trkpt lat="59.2927982726" lon="34.659011833"><ele>163.17</ele><time>2026-08-16T14:56:24.899Z</time><hdop>3.0</hdop><vdop>2.5</vdop><extensions><gom:speed>0.82</gom:speed></extensions></trkpt>
   <trkpt lat="59.2928022959" lon="34.6590172812"><ele>162.991</ele><time>2026-08-16T14:56:25.537Z</time><hdop>3.0</hdop><vdop>2.5</vdop><extensions><gom:speed>0.841</gom:speed></extensions></trkpt>
   <trkpt lat="59.2928055648" lon="34.6590197958"><ele>162.726</ele><time>2026-08-16T14:56:26.136Z</time><hdop>3.0</hdop><vdop>2.5</vdop><extensions><gom:speed>0.756</gom:speed></extensions></trkpt>
   <trkpt lat="59.292810594" lon="34.6590240706"><ele>162.567</ele><time>2026-08-16T14:56:26.901Z</time><hdop>3.0</hdop><vdop>2.5</vdop><extensions><gom:speed>0.783</gom:speed></extensions></trkpt>
   <trkpt lat="59.292815665" lon="34.659027591"><ele>162.353</ele><time>2026-08-16T14:56:27.637Z</time><hdop>3.0</hdop><vdop>2.5</vdop><extensions><gom:speed>0.832</gom:speed></extensions></trkpt>
   <trkpt lat="59.2928186825" lon="34.6590296865"><ele>162.386</ele><time>2026-08-16T14:56:28.136Z</time><hdop>3.0</hdop><vdop>2.5</vdop><extensions><gom:speed>0.802</gom:speed></extensions></trkpt>
   <trkpt lat="59.2928233764" lon="34.6590364758"><ele>162.12</ele><time>2026-08-16T14:56:29.136Z</time><hdop>3.0</hdop><vdop>2.5</vdop><extensions><gom:speed>0.779</gom:speed></extensions></trkpt>
   <trkpt lat="59.2928270644" lon="34.6590471208"><ele>161.961</ele><time>2026-08-16T14:56:30.013Z</time><hdop>3.0</hdop><vdop>2.5</vdop><extensions><gom:speed>0.834</gom:speed></extensions></trkpt>
   <trkpt lat="59.2928308782" lon="34.659060029"><ele>161.976</ele><time>2026-08-16T14:56:31.136Z</time><hdop>3.0</hdop><vdop>2.5</vdop><extensions><gom:speed>0.792</gom:speed></extensions></trkpt>
   <trkpt lat="59.2928333928" lon="34.6590730209"><ele>162.013</ele><time>2026-08-16T14:56:32.136Z</time><hdop>3.0</hdop><vdop>2.5</vdop><extensions><gom:speed>0.749</gom:speed></extensions></trkpt>
   <trkpt lat="59.292834189" lon="34.6590880245"><ele>161.971</ele><time>2026-08-16T14:56:33.136Z</time><hdop>3.0</hdop><vdop>2.5</vdop><extensions><gom:speed>0.755</gom:speed></extensions></trkpt>
   <trkpt lat="59.2928323869" lon="34.659100765"><ele>161.946</ele><time>2026-08-16T14:56:33.919Z</time><hdop>3.0</hdop><vdop>2.5</vdop><extensions><gom:speed>0.795</gom:speed></extensions></trkpt>
   <trkpt lat="59.292829579" lon="34.6591119968"><ele>162.287</ele><time>2026-08-16T14:56:34.420Z</time><hdop>3.0</hdop><vdop>2.5</vdop><extensions><gom:speed>0.905</gom:speed></extensions></trkpt>
   <trkpt lat="59.2928264777" lon="34.6591248211"><ele>162.528</ele><time>2026-08-16T14:56:35.136Z</time><hdop>3.0</hdop><vdop>2.5</vdop><extensions><gom:speed>0.899</gom:speed></extensions></trkpt>
   <trkpt lat="59.2928250947" lon="34.6591385674"><ele>162.672</ele><time>2026-08-16T14:56:35.832Z</time><hdop>3.0</hdop><vdop>2.5</vdop><extensions><gom:speed>0.94</gom:speed></extensions></trkpt>
   <trkpt lat="59.292825891" lon="34.6591522299"><ele>162.954</ele><time>2026-08-16T14:56:36.520Z</time><hdop>3.0</hdop><vdop>2.5</vdop><extensions><gom:speed>0.957</gom:speed></extensions></trkpt>
   <trkpt lat="59.2928275673" lon="34.6591628749"><ele>163.122</ele><time>2026-08-16T14:56:37.099Z</time><hdop>3.0</hdop><vdop>2.5</vdop><extensions><gom:speed>0.95</gom:speed></extensions></trkpt>
   <trkpt lat="59.2928330994" lon="34.6591699995"><ele>162.981</ele><time>2026-08-16T14:56:37.953Z</time><hdop>3.0</hdop><vdop>2.5</vdop><extensions><gom:speed>0.831</gom:speed></extensions></trkpt>
   <trkpt lat="59.2928410622" lon="34.6591768727"><ele>162.624</ele><time>2026-08-16T14:56:38.601Z</time><hdop>3.0</hdop><vdop>2.5</vdop><extensions><gom:speed>0.934</gom:speed></extensions></trkpt>
   <trkpt lat="59.2928487736" lon="34.6591803931"><ele>162.551</ele><time>2026-08-16T14:56:39.136Z</time><hdop>3.0</hdop><vdop>2.5</vdop><extensions><gom:speed>1.071</gom:speed></extensions></trkpt>
   <trkpt lat="59.2928572812" lon="34.659184584"><ele>162.507</ele><time>2026-08-16T14:56:39.838Z</time><hdop>3.0</hdop><vdop>2.5</vdop><extensions><gom:speed>1.024</gom:speed></extensions></trkpt>
   <trkpt lat="59.2928690997" lon="34.6591903675"><ele>162.612</ele><time>2026-08-16T14:56:40.633Z</time><hdop>3.0</hdop><vdop>2.625</vdop><extensions><gom:speed>1.107</gom:speed></extensions></trkpt>
   <trkpt lat="59.2928767691" lon="34.6591937203"><ele>162.687</ele><time>2026-08-16T14:56:41.136Z</time><hdop>3.0</hdop><vdop>2.687</vdop><extensions><gom:speed>1.18</gom:speed></extensions></trkpt>
   <trkpt lat="59.2928867855" lon="34.6592032757"><ele>162.731</ele><time>2026-08-16T14:56:41.997Z</time><hdop>3.0</hdop><vdop>2.687</vdop><extensions><gom:speed>1.128</gom:speed></extensions></trkpt>
   <trkpt lat="59.2928927785" lon="34.6592139207"><ele>163.162</ele><time>2026-08-16T14:56:42.616Z</time><hdop>3.0</hdop><vdop>2.937</vdop><extensions><gom:speed>1.114</gom:speed></extensions></trkpt>
   <trkpt lat="59.2928945807" lon="34.6592222188"><ele>163.774</ele><time>2026-08-16T14:56:43.136Z</time><hdop>3.0</hdop><vdop>2.562</vdop><extensions><gom:speed>1.077</gom:speed></extensions></trkpt>
   <trkpt lat="59.2928967599" lon="34.6592388988"><ele>164.347</ele><time>2026-08-16T14:56:44.136Z</time><hdop>3.0</hdop><vdop>2.75</vdop><extensions><gom:speed>1.066</gom:speed></extensions></trkpt>
   <trkpt lat="59.2928995679" lon="34.659248957"><ele>164.433</ele><time>2026-08-16T14:56:45.135Z</time><hdop>3.0</hdop><vdop>2.812</vdop><extensions><gom:speed>0.956</gom:speed></extensions></trkpt>
   <trkpt lat="59.2929034655" lon="34.6592525613"><ele>164.484</ele><time>2026-08-16T14:56:45.678Z</time><hdop>3.0</hdop><vdop>2.812</vdop><extensions><gom:speed>0.962</gom:speed></extensions></trkpt>
   <trkpt lat="59.292903675" lon="34.659254992"><ele>164.533</ele><time>2026-08-16T14:56:46.136Z</time><hdop>3.0</hdop><vdop>3.062</vdop><extensions><gom:speed>0.865</gom:speed></extensions></trkpt>
   <trkpt lat="59.2929048904" lon="34.6592608594"><ele>164.563</ele><time>2026-08-16T14:56:46.660Z</time><hdop>3.0</hdop><vdop>3.062</vdop><extensions><gom:speed>0.89</gom:speed></extensions></trkpt>
   <trkpt lat="59.2929040941" lon="34.6592657209"><ele>164.405</ele><time>2026-08-16T14:56:47.136Z</time><hdop>3.0</hdop><vdop>3.0</vdop><extensions><gom:speed>0.836</gom:speed></extensions></trkpt>
   <trkpt lat="59.292906483" lon="34.659279551"><ele>164.311</ele><time>2026-08-16T14:56:48.112Z</time><hdop>3.0</hdop><vdop>3.0</vdop><extensions><gom:speed>0.888</gom:speed></extensions></trkpt>
   <trkpt lat="59.2929047647" lon="34.6592878491"><ele>164.576</ele><time>2026-08-16T14:56:48.593Z</time><hdop>3.0</hdop><vdop>2.937</vdop><extensions><gom:speed>0.961</gom:speed></extensions></trkpt>
   <trkpt lat="59.2929020825" lon="34.6592966501"><ele>165.214</ele><time>2026-08-16T14:56:49.136Z</time><hdop>3.0</hdop><vdop>2.812</vdop><extensions><gom:speed>0.87</gom:speed></extensions></trkpt>
   <trkpt lat="59.2929003642" lon="34.6593115699"><ele>165.595</ele><time>2026-08-16T14:56:49.977Z</time><hdop>3.0</hdop><vdop>2.812</vdop><extensions><gom:speed>0.927</gom:speed></extensions></trkpt>
   <trkpt lat="59.2928964666" lon="34.6593243942"><ele>166.04</ele><time>2026-08-16T14:56:50.615Z</time><hdop>3.0</hdop><vdop>2.875</vdop><extensions><gom:speed>0.97</gom:speed></extensions></trkpt>
   <trkpt lat="59.2928962989" lon="34.6593331952"><ele>166.305</ele><time>2026-08-16T14:56:51.076Z</time><hdop>3.0</hdop><vdop>2.875</vdop><extensions><gom:speed>0.97</gom:speed></extensions></trkpt>
   <trkpt lat="59.2928967599" lon="34.6593432535"><ele>165.807</ele><time>2026-08-16T14:56:52.136Z</time><hdop>3.0</hdop><vdop>2.625</vdop><extensions><gom:speed>0.831</gom:speed></extensions></trkpt>
   <trkpt lat="59.2929023758" lon="34.6593510486"><ele>165.51</ele><time>2026-08-16T14:56:53.118Z</time><hdop>3.0</hdop><vdop>2.625</vdop><extensions><gom:speed>0.836</gom:speed></extensions></trkpt>
   <trkpt lat="59.2929079917" lon="34.6593523897"><ele>164.817</ele><time>2026-08-16T14:56:54.136Z</time><hdop>3.0</hdop><vdop>2.5</vdop><extensions><gom:speed>0.833</gom:speed></extensions></trkpt>
   <trkpt lat="59.2929151582" lon="34.6593571674"><ele>164.095</ele><time>2026-08-16T14:56:55.136Z</time><hdop>3.0</hdop><vdop>2.5</vdop><extensions><gom:speed>0.859</gom:speed></extensions></trkpt>
   <trkpt lat="59.2929220733" lon="34.6593619451"><ele>163.664</ele><time>2026-08-16T14:56:55.935Z</time><hdop>3.0</hdop><vdop>2.5</vdop><extensions><gom:speed>0.892</gom:speed></extensions></trkpt>
   <trkpt lat="59.2929282759" lon="34.6593603525"><ele>163.2</ele><time>2026-08-16T14:56:56.660Z</time><hdop>3.0</hdop><vdop>2.5</vdop><extensions><gom:speed>0.903</gom:speed></extensions></trkpt>
   <trkpt lat="59.2929330955" lon="34.6593594305"><ele>163.041</ele><time>2026-08-16T14:56:57.136Z</time><hdop>3.0</hdop><vdop>2.625</vdop><extensions><gom:speed>0.961</gom:speed></extensions></trkpt>
   <trkpt lat="59.2929415612" lon="34.6593616936"><ele>162.947</ele><time>2026-08-16T14:56:57.977Z</time><hdop>3.0</hdop><vdop>2.625</vdop><extensions><gom:speed>0.959</gom:speed></extensions></trkpt>
   <trkpt lat="59.292945375" lon="34.6593579218"><ele>162.952</ele><time>2026-08-16T14:56:58.713Z</time><hdop>3.0</hdop><vdop>2.5</vdop><extensions><gom:speed>0.802</gom:speed></extensions></trkpt>
   <trkpt lat="59.2929481829" lon="34.6593592629"><ele>162.797</ele><time>2026-08-16T14:56:59.341Z</time><hdop>3.0</hdop><vdop>2.687</vdop><extensions><gom:speed>0.865</gom:speed></extensions></trkpt>
   <trkpt lat="59.2929524996" lon="34.6593682315"><ele>162.704</ele><time>2026-08-16T14:57:00.116Z</time><hdop>3.0</hdop><vdop>2.687</vdop><extensions><gom:speed>0.878</gom:speed></extensions></trkpt>
   <trkpt lat="59.2929563972" lon="34.6593710814"><ele>163.179</ele><time>2026-08-16T14:57:00.960Z</time><hdop>3.0</hdop><vdop>2.5</vdop><extensions><gom:speed>0.787</gom:speed></extensions></trkpt>
   <trkpt lat="59.2929621807" lon="34.6593713328"><ele>163.448</ele><time>2026-08-16T14:57:01.775Z</time><hdop>3.0</hdop><vdop>2.562</vdop><extensions><gom:speed>0.84</gom:speed></extensions></trkpt>
   <trkpt lat="59.2929647791" lon="34.6593665551"><ele>163.639</ele><time>2026-08-16T14:57:02.619Z</time><hdop>3.0</hdop><vdop>2.5</vdop><extensions><gom:speed>0.64</gom:speed></extensions></trkpt>
   <trkpt lat="59.2929686767" lon="34.6593654655"><ele>163.934</ele><time>2026-08-16T14:57:03.136Z</time><hdop>3.0</hdop><vdop>2.5</vdop><extensions><gom:speed>0.829</gom:speed></extensions></trkpt>
   <trkpt lat="59.2929767652" lon="34.6593672257"><ele>163.965</ele><time>2026-08-16T14:57:04.136Z</time><hdop>3.0</hdop><vdop>2.5</vdop><extensions><gom:speed>0.81</gom:speed></extensions></trkpt>
   <trkpt lat="59.2929835965" lon="34.6593720872"><ele>163.984</ele><time>2026-08-16T14:57:05.034Z</time><hdop>3.0</hdop><vdop>2.5</vdop><extensions><gom:speed>0.813</gom:speed></extensions></trkpt>
   <trkpt lat="59.2929895895" lon="34.6593769487"><ele>164.137</ele><time>2026-08-16T14:57:05.760Z</time><hdop>3.0</hdop><vdop>2.5</vdop><extensions><gom:speed>0.874</gom:speed></extensions></trkpt>
   <trkpt lat="59.2929963789" lon="34.659380972"><ele>164.429</ele><time>2026-08-16T14:57:06.516Z</time><hdop>3.0</hdop><vdop>2.5</vdop><extensions><gom:speed>0.866</gom:speed></extensions></trkpt>
   <trkpt lat="59.2930022881" lon="34.6593830675"><ele>164.552</ele><time>2026-08-16T14:57:07.136Z</time><hdop>3.0</hdop><vdop>2.5</vdop><extensions><gom:speed>0.9</gom:speed></extensions></trkpt>
   <trkpt lat="59.2930128912" lon="34.6593844924"><ele>165.06</ele><time>2026-08-16T14:57:08.136Z</time><hdop>3.0</hdop><vdop>2.562</vdop><extensions><gom:speed>0.967</gom:speed></extensions></trkpt>
   <trkpt lat="59.2930216922" lon="34.6593845762"><ele>165.364</ele><time>2026-08-16T14:57:08.960Z</time><hdop>3.0</hdop><vdop>2.562</vdop><extensions><gom:speed>0.984</gom:speed></extensions></trkpt>
   <trkpt lat="59.2930288587" lon="34.6593804691"><ele>165.71</ele><time>2026-08-16T14:57:09.999Z</time><hdop>3.0</hdop><vdop>2.562</vdop><extensions><gom:speed>0.879</gom:speed></extensions></trkpt>
   <trkpt lat="59.2930378693" lon="34.6593678963"><ele>165.832</ele><time>2026-08-16T14:57:10.501Z</time><hdop>3.0</hdop><vdop>2.625</vdop><extensions><gom:speed>1.213</gom:speed></extensions></trkpt>
   <trkpt lat="59.2930474666" lon="34.6593511324"><ele>165.699</ele><time>2026-08-16T14:57:11.135Z</time><hdop>3.0</hdop><vdop>2.75</vdop><extensions><gom:speed>1.492</gom:speed></extensions></trkpt>
   <trkpt lat="59.2930582792" lon="34.6593312673"><ele>165.619</ele><time>2026-08-16T14:57:12.062Z</time><hdop>3.0</hdop><vdop>2.75</vdop><extensions><gom:speed>1.411</gom:speed></extensions></trkpt>
   <trkpt lat="59.2930729895" lon="34.6593217958"><ele>165.708</ele><time>2026-08-16T14:57:12.876Z</time><hdop>3.0</hdop><vdop>2.812</vdop><extensions><gom:speed>1.455</gom:speed></extensions></trkpt>
   <trkpt lat="59.293079695" lon="34.6593215443"><ele>166.058</ele><time>2026-08-16T14:57:13.662Z</time><hdop>3.0</hdop><vdop>2.562</vdop><extensions><gom:speed>1.192</gom:speed></extensions></trkpt>
   <trkpt lat="59.2930822934" lon="34.659327244"><ele>166.477</ele><time>2026-08-16T14:57:14.136Z</time><hdop>3.0</hdop><vdop>2.5</vdop><extensions><gom:speed>1.167</gom:speed></extensions></trkpt>
   <trkpt lat="59.2930866939" lon="34.6593363803"><ele>166.728</ele><time>2026-08-16T14:57:14.799Z</time><hdop>3.0</hdop><vdop>2.5</vdop><extensions><gom:speed>1.102</gom:speed></extensions></trkpt>
   <trkpt lat="59.2930855623" lon="34.6593513839"><ele>166.325</ele><time>2026-08-16T14:57:15.575Z</time><hdop>3.0</hdop><vdop>2.5</vdop><extensions><gom:speed>1.189</gom:speed></extensions></trkpt>
   <trkpt lat="59.2930831735" lon="34.6593641244"><ele>166.048</ele><time>2026-08-16T14:57:16.136Z</time><hdop>3.0</hdop><vdop>2.5</vdop><extensions><gom:speed>1.046</gom:speed></extensions></trkpt>
   <trkpt lat="59.2930819581" lon="34.6593705785"><ele>165.882</ele><time>2026-08-16T14:57:16.616Z</time><hdop>3.0</hdop><vdop>2.5</vdop><extensions><gom:speed>0.981</gom:speed></extensions></trkpt>
   <trkpt lat="59.293081078" lon="34.659384241"><ele>165.688</ele><time>2026-08-16T14:57:17.136Z</time><hdop>3.0</hdop><vdop>2.75</vdop><extensions><gom:speed>0.993</gom:speed></extensions></trkpt>
   <trkpt lat="59.2930820838" lon="34.6594024297"><ele>165.504</ele><time>2026-08-16T14:57:18.136Z</time><hdop>3.062</hdop><vdop>2.875</vdop><extensions><gom:speed>0.951</gom:speed></extensions></trkpt>
   <trkpt lat="59.2930816647" lon="34.659409219"><ele>165.395</ele><time>2026-08-16T14:57:18.913Z</time><hdop>3.125</hdop><vdop>2.875</vdop><extensions><gom:speed>0.933</gom:speed></extensions></trkpt>
   <trkpt lat="59.2930879931" lon="34.6594067883"><ele>165.17</ele><time>2026-08-16T14:57:19.678Z</time><hdop>3.25</hdop><vdop>2.937</vdop><extensions><gom:speed>0.991</gom:speed></extensions></trkpt>
   <trkpt lat="59.2930896694" lon="34.6593902759"><ele>165.08</ele><time>2026-08-16T14:57:20.136Z</time><hdop>3.312</hdop><vdop>3.062</vdop><extensions><gom:speed>1.223</gom:speed></extensions></trkpt>
   <trkpt lat="59.2930905915" lon="34.6593707461"><ele>165.027</ele><time>2026-08-16T14:57:20.974Z</time><hdop>3.625</hdop><vdop>3.062</vdop><extensions><gom:speed>1.111</gom:speed></extensions></trkpt>
   <trkpt lat="59.2930895856" lon="34.6593488693"><ele>164.84</ele><time>2026-08-16T14:57:21.955Z</time><hdop>3.812</hdop><vdop>3.25</vdop><extensions><gom:speed>0.981</gom:speed></extensions></trkpt>
   <trkpt lat="59.2930870711" lon="34.6593322732"><ele>164.156</ele><time>2026-08-16T14:57:22.760Z</time><hdop>3.937</hdop><vdop>3.25</vdop><extensions><gom:speed>0.933</gom:speed></extensions></trkpt>
   <trkpt lat="59.2930842631" lon="34.659323556"><ele>163.648</ele><time>2026-08-16T14:57:23.398Z</time><hdop>4.062</hdop><vdop>3.062</vdop><extensions><gom:speed>0.882</gom:speed></extensions></trkpt>
   <trkpt lat="59.2930834668" lon="34.6593131624"><ele>163.345</ele><time>2026-08-16T14:57:24.076Z</time><hdop>4.125</hdop><vdop>3.062</vdop><extensions><gom:speed>0.88</gom:speed></extensions></trkpt>
   <trkpt lat="59.2930827963" lon="34.6593093906"><ele>163.242</ele><time>2026-08-16T14:57:24.861Z</time><hdop>4.062</hdop><vdop>3.125</vdop><extensions><gom:speed>0.8</gom:speed></extensions></trkpt>
   <trkpt lat="59.2930807846" lon="34.6592930459"><ele>164.497</ele><time>2026-08-16T14:57:26.019Z</time><hdop>3.937</hdop><vdop>3.375</vdop><extensions><gom:speed>0.842</gom:speed></extensions></trkpt>
   <trkpt lat="59.2930816647" lon="34.6592803892"><ele>166.052</ele><time>2026-08-16T14:57:27.079Z</time><hdop>3.812</hdop><vdop>3.312</vdop><extensions><gom:speed>0.804</gom:speed></extensions></trkpt>
   <trkpt lat="59.2930849756" lon="34.6592768688"><ele>166.237</ele><time>2026-08-16T14:57:27.815Z</time><hdop>3.625</hdop><vdop>2.875</vdop><extensions><gom:speed>0.784</gom:speed></extensions></trkpt>
   <trkpt lat="59.2930883703" lon="34.6592772879"><ele>166.372</ele><time>2026-08-16T14:57:28.542Z</time><hdop>3.5</hdop><vdop>2.812</vdop><extensions><gom:speed>0.791</gom:speed></extensions></trkpt>
   <trkpt lat="59.2930911782" lon="34.6592788804"><ele>165.87</ele><time>2026-08-16T14:57:29.136Z</time><hdop>3.375</hdop><vdop>2.75</vdop><extensions><gom:speed>0.747</gom:speed></extensions></trkpt>
   <trkpt lat="59.293094992" lon="34.6592765335"><ele>165.57</ele><time>2026-08-16T14:57:29.975Z</time><hdop>3.187</hdop><vdop>2.75</vdop><extensions><gom:speed>0.791</gom:speed></extensions></trkpt>
   <trkpt lat="59.2930951596" lon="34.6592948899"><ele>165.642</ele><time>2026-08-16T14:57:30.819Z</time><hdop>3.125</hdop><vdop>2.562</vdop><extensions><gom:speed>0.685</gom:speed></extensions></trkpt>
   <trkpt lat="59.2930940699" lon="34.6593099773"><ele>165.728</ele><time>2026-08-16T14:57:31.722Z</time><hdop>3.062</hdop><vdop>2.625</vdop><extensions><gom:speed>0.563</gom:speed></extensions></trkpt>
   <trkpt lat="59.2930985962" lon="34.6593328599"><ele>165.418</ele><time>2026-08-16T14:57:32.517Z</time><hdop>3.0</hdop><vdop>2.5</vdop><extensions><gom:speed>0.854</gom:speed></extensions></trkpt>
   <trkpt lat="59.2931015718" lon="34.6593609393"><ele>162.783</ele><time>2026-08-16T14:57:33.135Z</time><hdop>3.0</hdop><vdop>2.5</vdop><extensions><gom:speed>0.942</gom:speed></extensions></trkpt>
   <trkpt lat="59.2931073972" lon="34.659393964"><ele>161.273</ele><time>2026-08-16T14:57:34.136Z</time><hdop>3.0</hdop><vdop>2.5</vdop><extensions><gom:speed>0.971</gom:speed></extensions></trkpt>
   <trkpt lat="59.2931098698" lon="34.6594153378"><ele>160.37</ele><time>2026-08-16T14:57:34.941Z</time><hdop>3.0</hdop><vdop>2.5</vdop><extensions><gom:speed>1.007</gom:speed></extensions></trkpt>
   <trkpt lat="59.2931157791" lon="34.6594346162"><ele>159.904</ele><time>2026-08-16T14:57:35.559Z</time><hdop>3.0</hdop><vdop>2.5</vdop><extensions><gom:speed>0.959</gom:speed></extensions></trkpt>
   <trkpt lat="59.2931196767" lon="34.6594510447"><ele>159.597</ele><time>2026-08-16T14:57:36.136Z</time><hdop>3.0</hdop><vdop>2.562</vdop><extensions><gom:speed>0.957</gom:speed></extensions></trkpt>
   <trkpt lat="59.29311997" lon="34.6594683953"><ele>159.413</ele><time>2026-08-16T14:57:36.894Z</time><hdop>3.0</hdop><vdop>2.562</vdop><extensions><gom:speed>0.946</gom:speed></extensions></trkpt>
   <trkpt lat="59.2931248734" lon="34.659486584"><ele>159.608</ele><time>2026-08-16T14:57:37.532Z</time><hdop>3.0</hdop><vdop>2.687</vdop><extensions><gom:speed>0.929</gom:speed></extensions></trkpt>
   <trkpt lat="59.2931311599" lon="34.6595018391"><ele>159.973</ele><time>2026-08-16T14:57:38.136Z</time><hdop>3.0</hdop><vdop>2.687</vdop><extensions><gom:speed>0.929</gom:speed></extensions></trkpt>
   <trkpt lat="59.2931362728" lon="34.6595172618"><ele>160.192</ele><time>2026-08-16T14:57:38.896Z</time><hdop>3.0</hdop><vdop>2.687</vdop><extensions><gom:speed>0.917</gom:speed></extensions></trkpt>
   <trkpt lat="59.2931434813" lon="34.6595313434"><ele>160.56</ele><time>2026-08-16T14:57:39.652Z</time><hdop>3.0</hdop><vdop>2.812</vdop><extensions><gom:speed>0.874</gom:speed></extensions></trkpt>
   <trkpt lat="59.2931488876" lon="34.6595374622"><ele>160.708</ele><time>2026-08-16T14:57:40.136Z</time><hdop>3.0</hdop><vdop>2.625</vdop><extensions><gom:speed>0.804</gom:speed></extensions></trkpt>
   <trkpt lat="59.2931578981" lon="34.6595442515"><ele>160.813</ele><time>2026-08-16T14:57:41.136Z</time><hdop>3.0</hdop><vdop>2.75</vdop><extensions><gom:speed>0.744</gom:speed></extensions></trkpt>
   <trkpt lat="59.2931630949" lon="34.6595432457"><ele>160.876</ele><time>2026-08-16T14:57:42.018Z</time><hdop>3.0</hdop><vdop>2.75</vdop><extensions><gom:speed>0.72</gom:speed></extensions></trkpt>
   <trkpt lat="59.2931718959" lon="34.6595420722"><ele>160.968</ele><time>2026-08-16T14:57:42.577Z</time><hdop>3.0</hdop><vdop>2.625</vdop><extensions><gom:speed>0.795</gom:speed></extensions></trkpt>
   <trkpt lat="59.2931807807" lon="34.6595431618"><ele>161.214</ele><time>2026-08-16T14:57:43.136Z</time><hdop>3.0</hdop><vdop>2.687</vdop><extensions><gom:speed>0.822</gom:speed></extensions></trkpt>
   <trkpt lat="59.2931894979" lon="34.6595441677"><ele>161.361</ele><time>2026-08-16T14:57:43.953Z</time><hdop>3.062</hdop><vdop>2.687</vdop><extensions><gom:speed>0.859</gom:speed></extensions></trkpt>
   <trkpt lat="59.2932015679" lon="34.6595476881"><ele>161.327</ele><time>2026-08-16T14:57:44.915Z</time><hdop>3.125</hdop><vdop>2.812</vdop><extensions><gom:speed>0.834</gom:speed></extensions></trkpt>
   <trkpt lat="59.2932072676" lon="34.6595504541"><ele>161.393</ele><time>2026-08-16T14:57:45.396Z</time><hdop>3.125</hdop><vdop>2.5</vdop><extensions><gom:speed>0.755</gom:speed></extensions></trkpt>
   <trkpt lat="59.2932145598" lon="34.6595525496"><ele>161.26</ele><time>2026-08-16T14:57:46.136Z</time><hdop>3.125</hdop><vdop>2.5</vdop><extensions><gom:speed>0.761</gom:speed></extensions></trkpt>
   <trkpt lat="59.2932213911" lon="34.6595524658"><ele>161.181</ele><time>2026-08-16T14:57:46.838Z</time><hdop>3.125</hdop><vdop>2.5</vdop><extensions><gom:speed>0.84</gom:speed></extensions></trkpt>
   <trkpt lat="59.2932299825" lon="34.6595570758"><ele>161.071</ele><time>2026-08-16T14:57:47.575Z</time><hdop>3.125</hdop><vdop>2.5</vdop><extensions><gom:speed>0.889</gom:speed></extensions></trkpt>
   <trkpt lat="59.2932349697" lon="34.6595599257"><ele>161.006</ele><time>2026-08-16T14:57:48.095Z</time><hdop>3.187</hdop><vdop>2.5</vdop><extensions><gom:speed>0.888</gom:speed></extensions></trkpt>
   <trkpt lat="59.293244567" lon="34.6595626917"><ele>161.031</ele><time>2026-08-16T14:57:48.900Z</time><hdop>3.187</hdop><vdop>2.5</vdop><extensions><gom:speed>0.909</gom:speed></extensions></trkpt>
   <trkpt lat="59.2932534937" lon="34.6595623564"><ele>160.918</ele><time>2026-08-16T14:57:49.655Z</time><hdop>3.125</hdop><vdop>2.5</vdop><extensions><gom:speed>0.928</gom:speed></extensions></trkpt>
   <trkpt lat="59.2932583972" lon="34.6595631946"><ele>160.995</ele><time>2026-08-16T14:57:50.136Z</time><hdop>3.062</hdop><vdop>2.562</vdop><extensions><gom:speed>0.858</gom:speed></extensions></trkpt>
   <trkpt lat="59.2932692936" lon="34.6595655415"><ele>161.253</ele><time>2026-08-16T14:57:51.136Z</time><hdop>3.062</hdop><vdop>2.812</vdop><extensions><gom:speed>0.952</gom:speed></extensions></trkpt>
   <trkpt lat="59.2932773822" lon="34.6595665474"><ele>161.407</ele><time>2026-08-16T14:57:51.933Z</time><hdop>3.062</hdop><vdop>2.812</vdop><extensions><gom:speed>0.888</gom:speed></extensions></trkpt>
   <trkpt lat="59.2932865604" lon="34.6595652901"><ele>161.005</ele><time>2026-08-16T14:57:52.796Z</time><hdop>3.0</hdop><vdop>2.75</vdop><extensions><gom:speed>0.852</gom:speed></extensions></trkpt>
   <trkpt lat="59.2932941879" lon="34.6595674694"><ele>160.689</ele><time>2026-08-16T14:57:53.621Z</time><hdop>3.0</hdop><vdop>2.562</vdop><extensions><gom:speed>0.809</gom:speed></extensions></trkpt>
   <trkpt lat="59.2932979597" lon="34.6595701516"><ele>160.77</ele><time>2026-08-16T14:57:54.136Z</time><hdop>3.0</hdop><vdop>2.5</vdop><extensions><gom:speed>0.852</gom:speed></extensions></trkpt>
   <trkpt lat="59.2933040785" lon="34.659576438"><ele>160.24</ele><time>2026-08-16T14:57:55.135Z</time><hdop>3.0</hdop><vdop>2.5</vdop><extensions><gom:speed>0.718</gom:speed></extensions></trkpt>
   <trkpt lat="59.2933093591" lon="34.6595821377"><ele>159.923</ele><time>2026-08-16T14:57:56.094Z</time><hdop>3.0</hdop><vdop>2.5</vdop><extensions><gom:speed>0.689</gom:speed></extensions></trkpt>
   <trkpt lat="59.2933122928" lon="34.6595917769"><ele>159.716</ele><time>2026-08-16T14:57:57.056Z</time><hdop>3.0</hdop><vdop>2.562</vdop><extensions><gom:speed>0.563</gom:speed></extensions></trkpt>
   <trkpt lat="59.2933150588" lon="34.6596013323"><ele>159.995</ele><time>2026-08-16T14:57:57.733Z</time><hdop>3.0</hdop><vdop>2.625</vdop><extensions><gom:speed>0.727</gom:speed></extensions></trkpt>
   <trkpt lat="59.2933169867" lon="34.659607954"><ele>160.113</ele><time>2026-08-16T14:57:59.019Z</time><hdop>3.0</hdop><vdop>2.5</vdop><extensions><gom:speed>0.704</gom:speed></extensions></trkpt>
   <trkpt lat="59.2933197946" lon="34.6596148271"><ele>160.312</ele><time>2026-08-16T14:57:59.559Z</time><hdop>3.0</hdop><vdop>2.625</vdop><extensions><gom:speed>0.881</gom:speed></extensions></trkpt>
   <trkpt lat="59.2933242789" lon="34.659624131"><ele>161.085</ele><time>2026-08-16T14:58:00.136Z</time><hdop>3.0</hdop><vdop>2.5</vdop><extensions><gom:speed>0.861</gom:speed></extensions></trkpt>
   <trkpt lat="59.2933314874" lon="34.6596347761"><ele>161.488</ele><time>2026-08-16T14:58:01.136Z</time><hdop>3.0</hdop><vdop>2.5</vdop><extensions><gom:speed>0.776</gom:speed></extensions></trkpt>
   <trkpt lat="59.2933354688" lon="34.6596446667"><ele>161.721</ele><time>2026-08-16T14:58:02.136Z</time><hdop>3.062</hdop><vdop>2.5</vdop><extensions><gom:speed>0.593</gom:speed></extensions></trkpt>
   <trkpt lat="59.2933366841" lon="34.6596561499"><ele>161.224</ele><time>2026-08-16T14:58:03.136Z</time><hdop>3.062</hdop><vdop>2.5</vdop><extensions><gom:speed>0.499</gom:speed></extensions></trkpt>
   <trkpt lat="59.29333769" lon="34.6596648671"><ele>161.035</ele><time>2026-08-16T14:58:04.136Z</time><hdop>3.062</hdop><vdop>2.5</vdop><extensions><gom:speed>0.361</gom:speed></extensions></trkpt>
   <trkpt lat="59.2933384862" lon="34.6596739195"><ele>160.94</ele><time>2026-08-16T14:58:05.135Z</time><hdop>3.0</hdop><vdop>2.5</vdop><extensions><gom:speed>0.434</gom:speed></extensions></trkpt>
   <trkpt lat="59.2933394921" lon="34.6596802898"><ele>160.872</ele><time>2026-08-16T14:58:06.136Z</time><hdop>3.0</hdop><vdop>2.5</vdop><extensions><gom:speed>0.275</gom:speed></extensions></trkpt>
   <trkpt lat="59.2933396597" lon="34.6596850675"><ele>160.832</ele><time>2026-08-16T14:58:07.136Z</time><hdop>3.0</hdop><vdop>2.562</vdop><extensions><gom:speed>0.128</gom:speed></extensions></trkpt>
   <trkpt lat="59.2933393663" lon="34.6596891746"><ele>160.801</ele><time>2026-08-16T14:58:08.136Z</time><hdop>3.0</hdop><vdop>2.562</vdop><extensions><gom:speed>0.084</gom:speed></extensions></trkpt>
   <trkpt lat="59.2933383605" lon="34.6596921921"><ele>160.377</ele><time>2026-08-16T14:58:09.136Z</time><hdop>3.0</hdop><vdop>2.687</vdop><extensions><gom:speed>0.116</gom:speed></extensions></trkpt>
   <trkpt lat="59.2933372709" lon="34.6596944552"><ele>159.78</ele><time>2026-08-16T14:58:10.136Z</time><hdop>3.0</hdop><vdop>2.812</vdop><extensions><gom:speed>0.106</gom:speed></extensions></trkpt>
   <trkpt lat="59.2933353849" lon="34.659696383"><ele>159.411</ele><time>2026-08-16T14:58:11.136Z</time><hdop>3.0</hdop><vdop>2.687</vdop><extensions><gom:speed>0.075</gom:speed></extensions></trkpt>
   <trkpt lat="59.293333499" lon="34.6596983947"><ele>159.309</ele><time>2026-08-16T14:58:12.136Z</time><hdop>3.0</hdop><vdop>2.625</vdop><extensions><gom:speed>0.089</gom:speed></extensions></trkpt>
   <trkpt lat="59.293331194" lon="34.6597019989"><ele>159.339</ele><time>2026-08-16T14:58:13.136Z</time><hdop>3.0</hdop><vdop>2.875</vdop><extensions><gom:speed>0.217</gom:speed></extensions></trkpt>
   <trkpt lat="59.2933316969" lon="34.6597037591"><ele>159.358</ele><time>2026-08-16T14:58:14.115Z</time><hdop>3.0</hdop><vdop>2.875</vdop><extensions><gom:speed>0.207</gom:speed></extensions></trkpt>
   <trkpt lat="59.2933304815" lon="34.659717254"><ele>159.859</ele><time>2026-08-16T14:58:15.136Z</time><hdop>3.0</hdop><vdop>2.75</vdop><extensions><gom:speed>0.44</gom:speed></extensions></trkpt>
   <trkpt lat="59.2933316969" lon="34.6597204391"><ele>160.159</ele><time>2026-08-16T14:58:16.018Z</time><hdop>3.0</hdop><vdop>2.75</vdop><extensions><gom:speed>0.444</gom:speed></extensions></trkpt>
   <trkpt lat="59.2933301882" lon="34.6597304974"><ele>160.419</ele><time>2026-08-16T14:58:17.019Z</time><hdop>3.0</hdop><vdop>3.0</vdop><extensions><gom:speed>0.565</gom:speed></extensions></trkpt>
   <trkpt lat="59.2933291823" lon="34.6597381249"><ele>160.864</ele><time>2026-08-16T14:58:17.914Z</time><hdop>3.0</hdop><vdop>2.937</vdop><extensions><gom:speed>0.552</gom:speed></extensions></trkpt>
   <trkpt lat="59.2933319903" lon="34.6597521227"><ele>161.092</ele><time>2026-08-16T14:58:18.836Z</time><hdop>3.062</hdop><vdop>2.937</vdop><extensions><gom:speed>0.593</gom:speed></extensions></trkpt>
   <trkpt lat="59.293334882" lon="34.6597647794"><ele>161.216</ele><time>2026-08-16T14:58:19.396Z</time><hdop>3.125</hdop><vdop>2.875</vdop><extensions><gom:speed>0.616</gom:speed></extensions></trkpt>
   <trkpt lat="59.2933372709" lon="34.6597782742"><ele>161.152</ele><time>2026-08-16T14:58:20.136Z</time><hdop>3.125</hdop><vdop>2.75</vdop><extensions><gom:speed>0.654</gom:speed></extensions></trkpt>
   <trkpt lat="59.2933403722" lon="34.6597954571"><ele>161.248</ele><time>2026-08-16T14:58:21.135Z</time><hdop>3.125</hdop><vdop>2.687</vdop><extensions><gom:speed>0.696</gom:speed></extensions></trkpt>
   <trkpt lat="59.2933421743" lon="34.6598095387"><ele>161.305</ele><time>2026-08-16T14:58:21.997Z</time><hdop>3.187</hdop><vdop>2.687</vdop><extensions><gom:speed>0.75</gom:speed></extensions></trkpt>
   <trkpt lat="59.2933457785" lon="34.6598224469"><ele>161.311</ele><time>2026-08-16T14:58:22.772Z</time><hdop>3.187</hdop><vdop>2.562</vdop><extensions><gom:speed>0.745</gom:speed></extensions></trkpt>
   <trkpt lat="59.2933512686" lon="34.6598342653"><ele>161.468</ele><time>2026-08-16T14:58:23.656Z</time><hdop>3.187</hdop><vdop>2.5</vdop><extensions><gom:speed>0.755</gom:speed></extensions></trkpt>
   <trkpt lat="59.29335437" lon="34.6598389592"><ele>161.501</ele><time>2026-08-16T14:58:24.136Z</time><hdop>3.125</hdop><vdop>2.5</vdop><extensions><gom:speed>0.71</gom:speed></extensions></trkpt>
   <trkpt lat="59.2933568845" lon="34.6598439884"><ele>161.521</ele><time>2026-08-16T14:58:24.617Z</time><hdop>3.062</hdop><vdop>2.5</vdop><extensions><gom:speed>0.709</gom:speed></extensions></trkpt>
   <trkpt lat="59.2933598601" lon="34.6598493528"><ele>161.549</ele><time>2026-08-16T14:58:25.136Z</time><hdop>3.062</hdop><vdop>2.5</vdop><extensions><gom:speed>0.701</gom:speed></extensions></trkpt>
   <trkpt lat="59.2933652664" lon="34.6598613389"><ele>161.432</ele><time>2026-08-16T14:58:26.136Z</time><hdop>3.062</hdop><vdop>2.5</vdop><extensions><gom:speed>0.759</gom:speed></extensions></trkpt>
   <trkpt lat="59.2933685773" lon="34.6598712295"><ele>161.363</ele><time>2026-08-16T14:58:26.914Z</time><hdop>3.062</hdop><vdop>2.5</vdop><extensions><gom:speed>0.813</gom:speed></extensions></trkpt>
   <trkpt lat="59.2933719719" lon="34.6598838862"><ele>161.228</ele><time>2026-08-16T14:58:27.641Z</time><hdop>3.062</hdop><vdop>2.5</vdop><extensions><gom:speed>0.882</gom:speed></extensions></trkpt>
   <trkpt lat="59.2933738998" lon="34.6598911785"><ele>161.341</ele><time>2026-08-16T14:58:28.136Z</time><hdop>3.0</hdop><vdop>2.5</vdop><extensions><gom:speed>0.942</gom:speed></extensions></trkpt>
   <trkpt lat="59.2933764982" lon="34.659896962"><ele>161.409</ele><time>2026-08-16T14:58:29.054Z</time><hdop>3.062</hdop><vdop>2.5</vdop><extensions><gom:speed>1.068</gom:speed></extensions></trkpt>
   <trkpt lat="59.2933782584" lon="34.6598948665"><ele>161.232</ele><time>2026-08-16T14:58:29.594Z</time><hdop>3.125</hdop><vdop>2.5</vdop><extensions><gom:speed>0.858</gom:speed></extensions></trkpt>
   <trkpt lat="59.2933818626" lon="34.6599005662"><ele>161.227</ele><time>2026-08-16T14:58:30.136Z</time><hdop>3.125</hdop><vdop>2.5</vdop><extensions><gom:speed>0.882</gom:speed></extensions></trkpt>
   <trkpt lat="59.2933885681" lon="34.6599176653"><ele>161.166</ele><time>2026-08-16T14:58:31.135Z</time><hdop>3.25</hdop><vdop>2.5</vdop><extensions><gom:speed>0.942</gom:speed></extensions></trkpt>
   <trkpt lat="59.2933929686" lon="34.6599296514"><ele>161.22</ele><time>2026-08-16T14:58:32.136Z</time><hdop>3.375</hdop><vdop>2.5</vdop><extensions><gom:speed>0.67</gom:speed></extensions></trkpt>
   <trkpt lat="59.2933969919" lon="34.6599381171"><ele>161.103</ele><time>2026-08-16T14:58:33.136Z</time><hdop>3.437</hdop><vdop>2.5</vdop><extensions><gom:speed>0.756</gom:speed></extensions></trkpt>
   <trkpt lat="59.2934014762" lon="34.6599472534"><ele>161.033</ele><time>2026-08-16T14:58:34.120Z</time><hdop>3.5</hdop><vdop>2.5</vdop><extensions><gom:speed>0.741</gom:speed></extensions></trkpt>
   <trkpt lat="59.293404368" lon="34.6599606644"><ele>160.698</ele><time>2026-08-16T14:58:34.954Z</time><hdop>3.562</hdop><vdop>2.5</vdop><extensions><gom:speed>0.777</gom:speed></extensions></trkpt>
   <trkpt lat="59.2934053738" lon="34.6599739917"><ele>160.519</ele><time>2026-08-16T14:58:35.760Z</time><hdop>3.5</hdop><vdop>2.5</vdop><extensions><gom:speed>0.792</gom:speed></extensions></trkpt>
   <trkpt lat="59.2934077627" lon="34.6599805296"><ele>160.039</ele><time>2026-08-16T14:58:36.320Z</time><hdop>3.437</hdop><vdop>2.5</vdop><extensions><gom:speed>0.788</gom:speed></extensions></trkpt>
   <trkpt lat="59.2934141748" lon="34.6599841338"><ele>159.354</ele><time>2026-08-16T14:58:37.136Z</time><hdop>3.375</hdop><vdop>2.5</vdop><extensions><gom:speed>0.799</gom:speed></extensions></trkpt>
   <trkpt lat="59.2934211737" lon="34.6599793561"><ele>159.394</ele><time>2026-08-16T14:58:38.136Z</time><hdop>3.312</hdop><vdop>2.5</vdop><extensions><gom:speed>0.741</gom:speed></extensions></trkpt>
   <trkpt lat="59.2934241912" lon="34.6599783503"><ele>159.417</ele><time>2026-08-16T14:58:38.616Z</time><hdop>3.25</hdop><vdop>2.5</vdop><extensions><gom:speed>0.756</gom:speed></extensions></trkpt>
   <trkpt lat="59.2934266639" lon="34.6599793561"><ele>159.481</ele><time>2026-08-16T14:58:39.136Z</time><hdop>3.125</hdop><vdop>2.5</vdop><extensions><gom:speed>0.825</gom:speed></extensions></trkpt>
   <trkpt lat="59.2934299747" lon="34.6599814516"><ele>159.519</ele><time>2026-08-16T14:58:39.755Z</time><hdop>3.125</hdop><vdop>2.5</vdop><extensions><gom:speed>0.721</gom:speed></extensions></trkpt>
   <trkpt lat="59.2934304776" lon="34.6599874865"><ele>159.062</ele><time>2026-08-16T14:58:40.314Z</time><hdop>3.0</hdop><vdop>2.5</vdop><extensions><gom:speed>0.707</gom:speed></extensions></trkpt>
   <trkpt lat="59.2934320702" lon="34.6599973772"><ele>158.531</ele><time>2026-08-16T14:58:41.136Z</time><hdop>3.0</hdop><vdop>2.5</vdop><extensions><gom:speed>0.822</gom:speed></extensions></trkpt>
   <trkpt lat="59.2934318606" lon="34.6600026578"><ele>158.215</ele><time>2026-08-16T14:58:41.679Z</time><hdop>3.0</hdop><vdop>2.5</vdop><extensions><gom:speed>0.838</gom:speed></extensions></trkpt>
   <trkpt lat="59.2934312739" lon="34.660009028"><ele>158.122</ele><time>2026-08-16T14:58:42.136Z</time><hdop>3.0</hdop><vdop>2.562</vdop><extensions><gom:speed>0.828</gom:speed></extensions></trkpt>
   <trkpt lat="59.2934314835" lon="34.6600199245"><ele>158.067</ele><time>2026-08-16T14:58:43.122Z</time><hdop>3.125</hdop><vdop>2.562</vdop><extensions><gom:speed>0.93</gom:speed></extensions></trkpt>
   <trkpt lat="59.2934340819" lon="34.6600370236"><ele>158.055</ele><time>2026-08-16T14:58:43.858Z</time><hdop>3.25</hdop><vdop>2.687</vdop><extensions><gom:speed>0.95</gom:speed></extensions></trkpt>
   <trkpt lat="59.2934355906" lon="34.6600535359"><ele>158.531</ele><time>2026-08-16T14:58:44.377Z</time><hdop>3.312</hdop><vdop>2.5</vdop><extensions><gom:speed>0.988</gom:speed></extensions></trkpt>
   <trkpt lat="59.2934380633" lon="34.6600702997"><ele>159.267</ele><time>2026-08-16T14:58:45.135Z</time><hdop>3.375</hdop><vdop>2.5</vdop><extensions><gom:speed>0.937</gom:speed></extensions></trkpt>
   <trkpt lat="59.2934400749" lon="34.6600823697"><ele>159.707</ele><time>2026-08-16T14:58:45.674Z</time><hdop>3.437</hdop><vdop>2.5</vdop><extensions><gom:speed>1.038</gom:speed></extensions></trkpt>
   <trkpt lat="59.2934428828" lon="34.6600907516"><ele>160.123</ele><time>2026-08-16T14:58:46.136Z</time><hdop>3.437</hdop><vdop>2.5</vdop><extensions><gom:speed>0.978</gom:speed></extensions></trkpt>
   <trkpt lat="59.2934468643" lon="34.6601070963"><ele>160.372</ele><time>2026-08-16T14:58:46.940Z</time><hdop>3.562</hdop><vdop>2.5</vdop><extensions><gom:speed>1.049</gom:speed></extensions></trkpt>
   <trkpt lat="59.2934510971" lon="34.6601233572"><ele>160.544</ele><time>2026-08-16T14:58:47.794Z</time><hdop>3.562</hdop><vdop>2.5</vdop><extensions><gom:speed>1.048</gom:speed></extensions></trkpt>
   <trkpt lat="59.2934561682" lon="34.6601477485"><ele>160.569</ele><time>2026-08-16T14:58:49.040Z</time><hdop>3.312</hdop><vdop>2.5</vdop><extensions><gom:speed>1.064</gom:speed></extensions></trkpt>
   <trkpt lat="59.2934578865" lon="34.6601568848"><ele>160.558</ele><time>2026-08-16T14:58:49.541Z</time><hdop>3.25</hdop><vdop>2.5</vdop><extensions><gom:speed>1.055</gom:speed></extensions></trkpt>
   <trkpt lat="59.293459479" lon="34.6601673622"><ele>160.593</ele><time>2026-08-16T14:58:50.135Z</time><hdop>3.25</hdop><vdop>2.5</vdop><extensions><gom:speed>1.006</gom:speed></extensions></trkpt>
   <trkpt lat="59.2934602753" lon="34.6601814438"><ele>160.615</ele><time>2026-08-16T14:58:50.856Z</time><hdop>3.125</hdop><vdop>2.5</vdop><extensions><gom:speed>1.026</gom:speed></extensions></trkpt>
   <trkpt lat="59.293460862" lon="34.6602001354"><ele>160.745</ele><time>2026-08-16T14:58:51.818Z</time><hdop>3.125</hdop><vdop>2.5</vdop><extensions><gom:speed>1.059</gom:speed></extensions></trkpt>
   <trkpt lat="59.2934612811" lon="34.6602087688"><ele>160.711</ele><time>2026-08-16T14:58:52.299Z</time><hdop>3.0</hdop><vdop>2.5</vdop><extensions><gom:speed>1.012</gom:speed></extensions></trkpt>
   <trkpt lat="59.2934603591" lon="34.6602265384"><ele>160.691</ele><time>2026-08-16T14:58:53.153Z</time><hdop>3.0</hdop><vdop>2.5</vdop><extensions><gom:speed>1.065</gom:speed></extensions></trkpt>
   <trkpt lat="59.2934588923" lon="34.6602384407"><ele>160.621</ele><time>2026-08-16T14:58:53.781Z</time><hdop>3.0</hdop><vdop>2.5</vdop><extensions><gom:speed>1.072</gom:speed></extensions></trkpt>
   <trkpt lat="59.2934572997" lon="34.660252187"><ele>160.636</ele><time>2026-08-16T14:58:54.517Z</time><hdop>3.0</hdop><vdop>2.5</vdop><extensions><gom:speed>1.081</gom:speed></extensions></trkpt>
   <trkpt lat="59.2934569644" lon="34.660265179"><ele>160.645</ele><time>2026-08-16T14:58:55.116Z</time><hdop>3.0</hdop><vdop>2.5</vdop><extensions><gom:speed>1.09</gom:speed></extensions></trkpt>
   <trkpt lat="59.2934583894" lon="34.6602800988"><ele>160.753</ele><time>2026-08-16T14:58:55.881Z</time><hdop>3.0</hdop><vdop>2.5</vdop><extensions><gom:speed>1.023</gom:speed></extensions></trkpt>
   <trkpt lat="59.2934609878" lon="34.6602892351"><ele>160.866</ele><time>2026-08-16T14:58:56.402Z</time><hdop>3.0</hdop><vdop>2.562</vdop><extensions><gom:speed>1.05</gom:speed></extensions></trkpt>
   <trkpt lat="59.2934631671" lon="34.6602986228"><ele>160.934</ele><time>2026-08-16T14:58:56.873Z</time><hdop>3.0</hdop><vdop>2.562</vdop><extensions><gom:speed>1.059</gom:speed></extensions></trkpt>
   <trkpt lat="59.2934681962" lon="34.6603095193"><ele>160.953</ele><time>2026-08-16T14:58:57.619Z</time><hdop>3.0</hdop><vdop>2.562</vdop><extensions><gom:speed>1.04</gom:speed></extensions></trkpt>
   <trkpt lat="59.2934709622" lon="34.6603173982"><ele>161.34</ele><time>2026-08-16T14:58:58.136Z</time><hdop>3.0</hdop><vdop>2.562</vdop><extensions><gom:speed>1.017</gom:speed></extensions></trkpt>
   <trkpt lat="59.2934743988" lon="34.6603339944"><ele>161.57</ele><time>2026-08-16T14:58:58.915Z</time><hdop>3.0</hdop><vdop>2.562</vdop><extensions><gom:speed>1.079</gom:speed></extensions></trkpt>
   <trkpt lat="59.293476159" lon="34.6603493333"><ele>161.709</ele><time>2026-08-16T14:58:59.779Z</time><hdop>3.0</hdop><vdop>2.812</vdop><extensions><gom:speed>1.037</gom:speed></extensions></trkpt>
   <trkpt lat="59.2934772906" lon="34.6603580505"><ele>162.198</ele><time>2026-08-16T14:59:00.300Z</time><hdop>3.0</hdop><vdop>2.75</vdop><extensions><gom:speed>1.002</gom:speed></extensions></trkpt>
   <trkpt lat="59.2934783802" lon="34.6603732217"><ele>162.491</ele><time>2026-08-16T14:59:01.095Z</time><hdop>3.0</hdop><vdop>2.75</vdop><extensions><gom:speed>1.015</gom:speed></extensions></trkpt>
   <trkpt lat="59.2934803919" lon="34.6603799272"><ele>162.771</ele><time>2026-08-16T14:59:01.556Z</time><hdop>3.0</hdop><vdop>2.75</vdop><extensions><gom:speed>1.024</gom:speed></extensions></trkpt>
   <trkpt lat="59.2934824873" lon="34.6603894826"><ele>163.169</ele><time>2026-08-16T14:59:02.136Z</time><hdop>3.0</hdop><vdop>2.75</vdop><extensions><gom:speed>0.995</gom:speed></extensions></trkpt>
   <trkpt lat="59.2934836608" lon="34.6604041509"><ele>163.408</ele><time>2026-08-16T14:59:02.861Z</time><hdop>3.0</hdop><vdop>2.75</vdop><extensions><gom:speed>1.044</gom:speed></extensions></trkpt>
   <trkpt lat="59.2934859658" lon="34.6604270335"><ele>163.679</ele><time>2026-08-16T14:59:04.118Z</time><hdop>3.0</hdop><vdop>2.625</vdop><extensions><gom:speed>0.994</gom:speed></extensions></trkpt>
   <trkpt lat="59.2934866783" lon="34.660442121"><ele>163.635</ele><time>2026-08-16T14:59:05.080Z</time><hdop>3.0</hdop><vdop>2.5</vdop><extensions><gom:speed>0.951</gom:speed></extensions></trkpt>
   <trkpt lat="59.2934860916" lon="34.6604547776"><ele>163.701</ele><time>2026-08-16T14:59:05.894Z</time><hdop>3.0</hdop><vdop>2.5</vdop><extensions><gom:speed>0.938</gom:speed></extensions></trkpt>
   <trkpt lat="59.2934879775" lon="34.6604682725"><ele>163.758</ele><time>2026-08-16T14:59:06.679Z</time><hdop>3.0</hdop><vdop>2.5</vdop><extensions><gom:speed>0.952</gom:speed></extensions></trkpt>
   <trkpt lat="59.2934898634" lon="34.6604755648"><ele>163.823</ele><time>2026-08-16T14:59:07.136Z</time><hdop>3.0</hdop><vdop>2.625</vdop><extensions><gom:speed>0.919</gom:speed></extensions></trkpt>
   <trkpt lat="59.2934930904" lon="34.6604921609"><ele>164.053</ele><time>2026-08-16T14:59:08.136Z</time><hdop>3.0</hdop><vdop>2.75</vdop><extensions><gom:speed>0.921</gom:speed></extensions></trkpt>
   <trkpt lat="59.2934953955" lon="34.6605033927"><ele>164.191</ele><time>2026-08-16T14:59:08.760Z</time><hdop>3.0</hdop><vdop>2.75</vdop><extensions><gom:speed>0.944</gom:speed></extensions></trkpt>
   <trkpt lat="59.2934975748" lon="34.6605178934"><ele>164.485</ele><time>2026-08-16T14:59:09.634Z</time><hdop>3.0</hdop><vdop>2.625</vdop><extensions><gom:speed>0.909</gom:speed></extensions></trkpt>
   <trkpt lat="59.2934985806" lon="34.6605258562"><ele>164.743</ele><time>2026-08-16T14:59:10.136Z</time><hdop>3.0</hdop><vdop>2.875</vdop><extensions><gom:speed>0.911</gom:speed></extensions></trkpt>
   <trkpt lat="59.2934991673" lon="34.660536585"><ele>164.896</ele><time>2026-08-16T14:59:10.753Z</time><hdop>3.0</hdop><vdop>2.875</vdop><extensions><gom:speed>0.944</gom:speed></extensions></trkpt>
   <trkpt lat="59.2935073816" lon="34.660558378"><ele>165.589</ele><time>2026-08-16T14:59:12.058Z</time><hdop>3.0</hdop><vdop>2.937</vdop><extensions><gom:speed>0.948</gom:speed></extensions></trkpt>
   <trkpt lat="59.2935156797" lon="34.6605667599"><ele>166.221</ele><time>2026-08-16T14:59:12.716Z</time><hdop>3.0</hdop><vdop>3.062</vdop><extensions><gom:speed>1.001</gom:speed></extensions></trkpt>
   <trkpt lat="59.2935209603" lon="34.6605789974"><ele>165.905</ele><time>2026-08-16T14:59:13.432Z</time><hdop>3.0</hdop><vdop>3.0</vdop><extensions><gom:speed>0.967</gom:speed></extensions></trkpt>
   <trkpt lat="59.293522469" lon="34.6605909836"><ele>165.716</ele><time>2026-08-16T14:59:14.080Z</time><hdop>3.0</hdop><vdop>3.0</vdop><extensions><gom:speed>0.958</gom:speed></extensions></trkpt>
   <trkpt lat="59.2935229719" lon="34.6606035564"><ele>165.46</ele><time>2026-08-16T14:59:14.620Z</time><hdop>3.0</hdop><vdop>3.062</vdop><extensions><gom:speed>1.001</gom:speed></extensions></trkpt>
   <trkpt lat="59.2935232653" lon="34.6606145367"><ele>165.017</ele><time>2026-08-16T14:59:15.135Z</time><hdop>3.0</hdop><vdop>3.0</vdop><extensions><gom:speed>1.043</gom:speed></extensions></trkpt>
   <trkpt lat="59.2935239778" lon="34.6606336475"><ele>164.228</ele><time>2026-08-16T14:59:16.136Z</time><hdop>3.0</hdop><vdop>2.687</vdop><extensions><gom:speed>0.982</gom:speed></extensions></trkpt>
   <trkpt lat="59.2935249836" lon="34.6606455498"><ele>163.756</ele><time>2026-08-16T14:59:16.799Z</time><hdop>3.0</hdop><vdop>2.687</vdop><extensions><gom:speed>0.927</gom:speed></extensions></trkpt>
   <trkpt lat="59.2935229719" lon="34.6606551889"><ele>163.104</ele><time>2026-08-16T14:59:17.339Z</time><hdop>3.0</hdop><vdop>2.812</vdop><extensions><gom:speed>0.885</gom:speed></extensions></trkpt>
   <trkpt lat="59.2935202897" lon="34.6606690191"><ele>162.661</ele><time>2026-08-16T14:59:18.136Z</time><hdop>3.0</hdop><vdop>3.062</vdop><extensions><gom:speed>0.862</gom:speed></extensions></trkpt>
   <trkpt lat="59.2935176913" lon="34.6606820949"><ele>162.396</ele><time>2026-08-16T14:59:18.860Z</time><hdop>3.0</hdop><vdop>3.062</vdop><extensions><gom:speed>0.886</gom:speed></extensions></trkpt>
   <trkpt lat="59.2935148834" lon="34.6606969308"><ele>162.075</ele><time>2026-08-16T14:59:19.773Z</time><hdop>3.0</hdop><vdop>3.125</vdop><extensions><gom:speed>0.853</gom:speed></extensions></trkpt>
   <trkpt lat="59.2935053699" lon="34.6607157901"><ele>162.056</ele><time>2026-08-16T14:59:21.136Z</time><hdop>3.0</hdop><vdop>3.062</vdop><extensions><gom:speed>0.93</gom:speed></extensions></trkpt>
   <trkpt lat="59.293496988" lon="34.6607194781"><ele>162.045</ele><time>2026-08-16T14:59:21.913Z</time><hdop>3.0</hdop><vdop>3.062</vdop><extensions><gom:speed>0.917</gom:speed></extensions></trkpt>
   <trkpt lat="59.2934899891" lon="34.660729285"><ele>161.7</ele><time>2026-08-16T14:59:22.639Z</time><hdop>3.0</hdop><vdop>2.875</vdop><extensions><gom:speed>0.883</gom:speed></extensions></trkpt>
   <trkpt lat="59.2934893605" lon="34.6607418578"><ele>161.888</ele><time>2026-08-16T14:59:23.136Z</time><hdop>3.0</hdop><vdop>2.75</vdop><extensions><gom:speed>1.022</gom:speed></extensions></trkpt>
   <trkpt lat="59.2934918751" lon="34.6607661653"><ele>162.302</ele><time>2026-08-16T14:59:24.135Z</time><hdop>3.0</hdop><vdop>3.0</vdop><extensions><gom:speed>1.039</gom:speed></extensions></trkpt>
   <trkpt lat="59.2934938867" lon="34.660782091"><ele>162.55</ele><time>2026-08-16T14:59:24.857Z</time><hdop>3.0</hdop><vdop>3.0</vdop><extensions><gom:speed>1.012</gom:speed></extensions></trkpt>
   <trkpt lat="59.2934987901" lon="34.6607980166"><ele>162.873</ele><time>2026-08-16T14:59:25.721Z</time><hdop>3.0</hdop><vdop>3.0</vdop><extensions><gom:speed>0.973</gom:speed></extensions></trkpt>
   <trkpt lat="59.293502562" lon="34.6608054765"><ele>162.78</ele><time>2026-08-16T14:59:26.202Z</time><hdop>3.0</hdop><vdop>3.062</vdop><extensions><gom:speed>0.963</gom:speed></extensions></trkpt>
   <trkpt lat="59.2935064596" lon="34.6608166244"><ele>162.725</ele><time>2026-08-16T14:59:26.879Z</time><hdop>3.0</hdop><vdop>3.062</vdop><extensions><gom:speed>0.996</gom:speed></extensions></trkpt>
   <trkpt lat="59.2935103991" lon="34.6608239167"><ele>162.658</ele><time>2026-08-16T14:59:27.399Z</time><hdop>3.0</hdop><vdop>3.062</vdop><extensions><gom:speed>1.042</gom:speed></extensions></trkpt>
   <trkpt lat="59.293515973" lon="34.6608340588"><ele>162.64</ele><time>2026-08-16T14:59:28.136Z</time><hdop>3.0</hdop><vdop>3.062</vdop><extensions><gom:speed>1.05</gom:speed></extensions></trkpt>
   <trkpt lat="59.2935208765" lon="34.6608430274"><ele>162.629</ele><time>2026-08-16T14:59:28.775Z</time><hdop>3.0</hdop><vdop>3.062</vdop><extensions><gom:speed>1.043</gom:speed></extensions></trkpt>
   <trkpt lat="59.2935272886" lon="34.660851074"><ele>162.975</ele><time>2026-08-16T14:59:29.580Z</time><hdop>3.0</hdop><vdop>2.937</vdop><extensions><gom:speed>0.956</gom:speed></extensions></trkpt>
   <trkpt lat="59.2935319825" lon="34.6608537562"><ele>163.151</ele><time>2026-08-16T14:59:30.136Z</time><hdop>3.0</hdop><vdop>2.687</vdop><extensions><gom:speed>0.933</gom:speed></extensions></trkpt>
   <trkpt lat="59.2935407835" lon="34.6608526666"><ele>163.186</ele><time>2026-08-16T14:59:31.135Z</time><hdop>3.0</hdop><vdop>2.75</vdop><extensions><gom:speed>0.822</gom:speed></extensions></trkpt>
   <trkpt lat="59.2935471956" lon="34.6608535886"><ele>163.207</ele><time>2026-08-16T14:59:31.896Z</time><hdop>3.0</hdop><vdop>2.75</vdop><extensions><gom:speed>0.833</gom:speed></extensions></trkpt>
   <trkpt lat="59.2935567929" lon="34.6608512417"><ele>163.385</ele><time>2026-08-16T14:59:33.133Z</time><hdop>3.0</hdop><vdop>3.0</vdop><extensions><gom:speed>0.819</gom:speed></extensions></trkpt>
   <trkpt lat="59.2935643785" lon="34.6608447876"><ele>163.604</ele><time>2026-08-16T14:59:34.094Z</time><hdop>3.0</hdop><vdop>3.187</vdop><extensions><gom:speed>0.809</gom:speed></extensions></trkpt>
   <trkpt lat="59.2935686952" lon="34.6608425245"><ele>163.746</ele><time>2026-08-16T14:59:34.801Z</time><hdop>3.0</hdop><vdop>3.312</vdop><extensions><gom:speed>0.817</gom:speed></extensions></trkpt>
   <trkpt lat="59.2935726766" lon="34.6608463802"><ele>163.619</ele><time>2026-08-16T14:59:35.537Z</time><hdop>3.0</hdop><vdop>3.562</vdop><extensions><gom:speed>0.839</gom:speed></extensions></trkpt>
   <trkpt lat="59.2935766999" lon="34.6608518284"><ele>163.543</ele><time>2026-08-16T14:59:36.136Z</time><hdop>3.0</hdop><vdop>3.562</vdop><extensions><gom:speed>0.845</gom:speed></extensions></trkpt>
   <trkpt lat="59.2935804718" lon="34.6608541753"><ele>163.38</ele><time>2026-08-16T14:59:36.715Z</time><hdop>3.0</hdop><vdop>3.437</vdop><extensions><gom:speed>0.867</gom:speed></extensions></trkpt>
   <trkpt lat="59.2935856686" lon="34.6608542591"><ele>163.38</ele><time>2026-08-16T14:59:38.136Z</time><hdop>3.0</hdop><vdop>3.5</vdop><extensions><gom:speed>0.494</gom:speed></extensions></trkpt>
   <trkpt lat="59.2935839922" lon="34.6608505711"><ele>163.431</ele><time>2026-08-16T14:59:39.136Z</time><hdop>3.0</hdop><vdop>3.437</vdop><extensions><gom:speed>0.266</gom:speed></extensions></trkpt>
   <trkpt lat="59.2935823996" lon="34.6608459611"><ele>163.54</ele><time>2026-08-16T14:59:40.136Z</time><hdop>3.0</hdop><vdop>3.125</vdop><extensions><gom:speed>0.141</gom:speed></extensions></trkpt>
   <trkpt lat="59.2935806813" lon="34.6608421892"><ele>163.461</ele><time>2026-08-16T14:59:41.135Z</time><hdop>3.0</hdop><vdop>2.687</vdop><extensions><gom:speed>0.085</gom:speed></extensions></trkpt>
   <trkpt lat="59.2935791726" lon="34.6608397585"><ele>163.448</ele><time>2026-08-16T14:59:42.136Z</time><hdop>3.0</hdop><vdop>2.687</vdop><extensions><gom:speed>0.075</gom:speed></extensions></trkpt>
   <trkpt lat="59.2935788792" lon="34.6608388364"><ele>163.44</ele><time>2026-08-16T14:59:42.614Z</time><hdop>3.0</hdop><vdop>2.687</vdop><extensions><gom:speed>0.076</gom:speed></extensions></trkpt>
   <trkpt lat="59.2935781668" lon="34.6608382497"><ele>163.65</ele><time>2026-08-16T14:59:43.135Z</time><hdop>3.0</hdop><vdop>2.5</vdop><extensions><gom:speed>0.134</gom:speed></extensions></trkpt>
   <trkpt lat="59.2935772867" lon="34.6608391717"><ele>163.559</ele><time>2026-08-16T14:59:44.136Z</time><hdop>3.0</hdop><vdop>2.625</vdop><extensions><gom:speed>0.181</gom:speed></extensions></trkpt>
   <trkpt lat="59.2935781668" lon="34.6608399261"><ele>163.505</ele><time>2026-08-16T14:59:44.959Z</time><hdop>3.0</hdop><vdop>2.625</vdop><extensions><gom:speed>0.172</gom:speed></extensions></trkpt>
   <trkpt lat="59.293584998" lon="34.6608454581"><ele>162.945</ele><time>2026-08-16T14:59:45.852Z</time><hdop>3.0</hdop><vdop>2.562</vdop><extensions><gom:speed>0.436</gom:speed></extensions></trkpt>
   <trkpt lat="59.2935931704" lon="34.6608522475"><ele>162.465</ele><time>2026-08-16T14:59:46.501Z</time><hdop>3.0</hdop><vdop>2.5</vdop><extensions><gom:speed>0.739</gom:speed></extensions></trkpt>
   <trkpt lat="59.2935986605" lon="34.6608590368"><ele>162.537</ele><time>2026-08-16T14:59:47.136Z</time><hdop>3.0</hdop><vdop>2.562</vdop><extensions><gom:speed>0.762</gom:speed></extensions></trkpt>
   <trkpt lat="59.2936048631" lon="34.6608625572"><ele>162.58</ele><time>2026-08-16T14:59:47.797Z</time><hdop>3.0</hdop><vdop>2.562</vdop><extensions><gom:speed>0.832</gom:speed></extensions></trkpt>
   <trkpt lat="59.2936131612" lon="34.6608697657"><ele>162.707</ele><time>2026-08-16T14:59:48.581Z</time><hdop>3.0</hdop><vdop>2.5</vdop><extensions><gom:speed>0.926</gom:speed></extensions></trkpt>
   <trkpt lat="59.2936188609" lon="34.6608781476"><ele>162.422</ele><time>2026-08-16T14:59:49.136Z</time><hdop>3.0</hdop><vdop>2.5</vdop><extensions><gom:speed>0.941</gom:speed></extensions></trkpt>
   <trkpt lat="59.2936267818" lon="34.6608909719"><ele>162.251</ele><time>2026-08-16T14:59:50.054Z</time><hdop>3.062</hdop><vdop>2.5</vdop><extensions><gom:speed>0.944</gom:speed></extensions></trkpt>
   <trkpt lat="59.293632272" lon="34.6609025389"><ele>162.148</ele><time>2026-08-16T14:59:50.800Z</time><hdop>3.062</hdop><vdop>2.5</vdop><extensions><gom:speed>0.934</gom:speed></extensions></trkpt>
   <trkpt lat="59.2936370915" lon="34.6609090768"><ele>161.814</ele><time>2026-08-16T14:59:51.497Z</time><hdop>3.062</hdop><vdop>2.5</vdop><extensions><gom:speed>0.875</gom:speed></extensions></trkpt>
   <trkpt lat="59.2936416597" lon="34.6609100826"><ele>161.614</ele><time>2026-08-16T14:59:52.056Z</time><hdop>3.062</hdop><vdop>2.5</vdop><extensions><gom:speed>0.885</gom:speed></extensions></trkpt>
   <trkpt lat="59.2936474851" lon="34.6609174587"><ele>161.402</ele><time>2026-08-16T14:59:52.842Z</time><hdop>3.062</hdop><vdop>2.5</vdop><extensions><gom:speed>0.828</gom:speed></extensions></trkpt>
   <trkpt lat="59.2936519694" lon="34.660926595"><ele>161.233</ele><time>2026-08-16T14:59:53.362Z</time><hdop>3.062</hdop><vdop>2.5</vdop><extensions><gom:speed>0.923</gom:speed></extensions></trkpt>
   <trkpt lat="59.2936563699" lon="34.660934474"><ele>161.132</ele><time>2026-08-16T14:59:53.941Z</time><hdop>3.062</hdop><vdop>2.5</vdop><extensions><gom:speed>0.929</gom:speed></extensions></trkpt>
   <trkpt lat="59.2936660929" lon="34.6609458733"><ele>160.906</ele><time>2026-08-16T14:59:55.119Z</time><hdop>3.0</hdop><vdop>2.5</vdop><extensions><gom:speed>0.921</gom:speed></extensions></trkpt>
   <trkpt lat="59.2936719603" lon="34.6609484717"><ele>160.964</ele><time>2026-08-16T14:59:55.933Z</time><hdop>3.0</hdop><vdop>2.5</vdop><extensions><gom:speed>0.851</gom:speed></extensions></trkpt>
   <trkpt lat="59.2936774923" lon="34.6609503996"><ele>161.079</ele><time>2026-08-16T14:59:56.757Z</time><hdop>3.0</hdop><vdop>2.5</vdop><extensions><gom:speed>0.807</gom:speed></extensions></trkpt>
   <trkpt lat="59.29368227" lon="34.6609549258"><ele>161.255</ele><time>2026-08-16T14:59:57.533Z</time><hdop>3.0</hdop><vdop>2.5</vdop><extensions><gom:speed>0.789</gom:speed></extensions></trkpt>
   <trkpt lat="59.2936850779" lon="34.6609591168"><ele>161.359</ele><time>2026-08-16T14:59:57.995Z</time><hdop>3.0</hdop><vdop>2.5</vdop><extensions><gom:speed>0.779</gom:speed></extensions></trkpt>
   <trkpt lat="59.2936879697" lon="34.6609688398"><ele>160.945</ele><time>2026-08-16T14:59:58.799Z</time><hdop>3.0</hdop><vdop>2.5</vdop><extensions><gom:speed>0.78</gom:speed></extensions></trkpt>
   <trkpt lat="59.293691993" lon="34.6609795686"><ele>160.773</ele><time>2026-08-16T14:59:59.594Z</time><hdop>3.0</hdop><vdop>2.5</vdop><extensions><gom:speed>0.764</gom:speed></extensions></trkpt>
   <trkpt lat="59.2936948848" lon="34.6609865256"><ele>160.895</ele><time>2026-08-16T15:00:00.136Z</time><hdop>3.0</hdop><vdop>2.5</vdop><extensions><gom:speed>0.74</gom:speed></extensions></trkpt>
   <trkpt lat="59.2937001654" lon="34.6609992661"><ele>160.968</ele><time>2026-08-16T15:00:01.117Z</time><hdop>3.0</hdop><vdop>2.5</vdop><extensions><gom:speed>0.763</gom:speed></extensions></trkpt>
   <trkpt lat="59.2937041887" lon="34.6610125933"><ele>161.009</ele><time>2026-08-16T15:00:01.981Z</time><hdop>3.0</hdop><vdop>2.5</vdop><extensions><gom:speed>0.797</gom:speed></extensions></trkpt>
   <trkpt lat="59.2937066613" lon="34.6610254176"><ele>160.796</ele><time>2026-08-16T15:00:02.697Z</time><hdop>3.0</hdop><vdop>2.5</vdop><extensions><gom:speed>0.856</gom:speed></extensions></trkpt>
   <trkpt lat="59.2937081701" lon="34.6610392477"><ele>160.549</ele><time>2026-08-16T15:00:03.453Z</time><hdop>3.0</hdop><vdop>2.5</vdop><extensions><gom:speed>0.875</gom:speed></extensions></trkpt>
   <trkpt lat="59.2937096788" lon="34.6610475458"><ele>160.401</ele><time>2026-08-16T15:00:03.914Z</time><hdop>3.0</hdop><vdop>2.5</vdop><extensions><gom:speed>0.874</gom:speed></extensions></trkpt>
   <trkpt lat="59.2937097626" lon="34.6610612922"><ele>160.537</ele><time>2026-08-16T15:00:04.778Z</time><hdop>3.0</hdop><vdop>2.5</vdop><extensions><gom:speed>0.834</gom:speed></extensions></trkpt>
   <trkpt lat="59.2937068709" lon="34.661072021"><ele>160.601</ele><time>2026-08-16T15:00:05.416Z</time><hdop>3.0</hdop><vdop>2.562</vdop><extensions><gom:speed>0.814</gom:speed></extensions></trkpt>
   <trkpt lat="59.2937050688" lon="34.6610840909"><ele>160.487</ele><time>2026-08-16T15:00:06.136Z</time><hdop>3.0</hdop><vdop>2.562</vdop><extensions><gom:speed>0.807</gom:speed></extensions></trkpt>
   <trkpt lat="59.2937061584" lon="34.6610962447"><ele>160.419</ele><time>2026-08-16T15:00:06.800Z</time><hdop>3.0</hdop><vdop>2.562</vdop><extensions><gom:speed>0.86</gom:speed></extensions></trkpt>
   <trkpt lat="59.2937079605" lon="34.6611138467"><ele>160.182</ele><time>2026-08-16T15:00:07.595Z</time><hdop>3.0</hdop><vdop>2.5</vdop><extensions><gom:speed>0.944</gom:speed></extensions></trkpt>
   <trkpt lat="59.2937093855" lon="34.6611231506"><ele>160.041</ele><time>2026-08-16T15:00:08.056Z</time><hdop>3.0</hdop><vdop>2.5</vdop><extensions><gom:speed>0.954</gom:speed></extensions></trkpt>
   <trkpt lat="59.2937116905" lon="34.6611355558"><ele>159.942</ele><time>2026-08-16T15:00:08.714Z</time><hdop>3.0</hdop><vdop>2.5</vdop><extensions><gom:speed>0.906</gom:speed></extensions></trkpt>
   <trkpt lat="59.293715169" lon="34.6611513976"><ele>159.813</ele><time>2026-08-16T15:00:09.617Z</time><hdop>3.0</hdop><vdop>2.5</vdop><extensions><gom:speed>0.88</gom:speed></extensions></trkpt>
   <trkpt lat="59.2937166777" lon="34.6611610368"><ele>159.601</ele><time>2026-08-16T15:00:10.136Z</time><hdop>3.0</hdop><vdop>2.5</vdop><extensions><gom:speed>0.843</gom:speed></extensions></trkpt>
   <trkpt lat="59.2937166777" lon="34.6611755375"><ele>159.474</ele><time>2026-08-16T15:00:10.913Z</time><hdop>3.0</hdop><vdop>2.5</vdop><extensions><gom:speed>0.865</gom:speed></extensions></trkpt>
   <trkpt lat="59.2937154623" lon="34.6611902896"><ele>159.116</ele><time>2026-08-16T15:00:11.639Z</time><hdop>3.0</hdop><vdop>2.5</vdop><extensions><gom:speed>0.89</gom:speed></extensions></trkpt>
   <trkpt lat="59.2937158814" lon="34.6612005994"><ele>158.999</ele><time>2026-08-16T15:00:12.136Z</time><hdop>3.0</hdop><vdop>2.5</vdop><extensions><gom:speed>0.895</gom:speed></extensions></trkpt>
   <trkpt lat="59.2937162586" lon="34.6612162735"><ele>158.928</ele><time>2026-08-16T15:00:12.934Z</time><hdop>3.0</hdop><vdop>2.5</vdop><extensions><gom:speed>0.917</gom:speed></extensions></trkpt>
   <trkpt lat="59.293722587" lon="34.6612395752"><ele>158.791</ele><time>2026-08-16T15:00:14.136Z</time><hdop>3.0</hdop><vdop>2.5</vdop><extensions><gom:speed>0.905</gom:speed></extensions></trkpt>
   <trkpt lat="59.2937247663" lon="34.6612507232"><ele>158.71</ele><time>2026-08-16T15:00:14.701Z</time><hdop>3.0</hdop><vdop>2.5</vdop><extensions><gom:speed>0.957</gom:speed></extensions></trkpt>
   <trkpt lat="59.2937278676" lon="34.6612672355"><ele>158.662</ele><time>2026-08-16T15:00:15.496Z</time><hdop>3.0</hdop><vdop>2.5</vdop><extensions><gom:speed>0.999</gom:speed></extensions></trkpt>
   <trkpt lat="59.2937291668" lon="34.661278132"><ele>158.634</ele><time>2026-08-16T15:00:16.036Z</time><hdop>3.0</hdop><vdop>2.5</vdop><extensions><gom:speed>0.99</gom:speed></extensions></trkpt>
   <trkpt lat="59.2937318909" lon="34.6612927165"><ele>158.493</ele><time>2026-08-16T15:00:16.733Z</time><hdop>3.0</hdop><vdop>2.5</vdop><extensions><gom:speed>1.017</gom:speed></extensions></trkpt>
   <trkpt lat="59.2937349922" lon="34.6613022719"><ele>158.737</ele><time>2026-08-16T15:00:17.233Z</time><hdop>3.0</hdop><vdop>2.5</vdop><extensions><gom:speed>0.985</gom:speed></extensions></trkpt>
   <trkpt lat="59.2937400632" lon="34.6613160182"><ele>158.492</ele><time>2026-08-16T15:00:18.135Z</time><hdop>3.0</hdop><vdop>2.5</vdop><extensions><gom:speed>0.976</gom:speed></extensions></trkpt>
   <trkpt lat="59.293744799" lon="34.6613252383"><ele>158.346</ele><time>2026-08-16T15:00:18.716Z</time><hdop>3.0</hdop><vdop>2.5</vdop><extensions><gom:speed>1.056</gom:speed></extensions></trkpt>
   <trkpt lat="59.2937520913" lon="34.6613340393"><ele>158.485</ele><time>2026-08-16T15:00:19.481Z</time><hdop>3.0</hdop><vdop>2.5</vdop><extensions><gom:speed>1.066</gom:speed></extensions></trkpt>
   <trkpt lat="59.2937570785" lon="34.6613404933"><ele>158.568</ele><time>2026-08-16T15:00:20.021Z</time><hdop>3.0</hdop><vdop>2.5</vdop><extensions><gom:speed>1.062</gom:speed></extensions></trkpt>
   <trkpt lat="59.2937630715" lon="34.6613456901"><ele>158.597</ele><time>2026-08-16T15:00:20.738Z</time><hdop>3.0</hdop><vdop>2.5</vdop><extensions><gom:speed>1.047</gom:speed></extensions></trkpt>
   <trkpt lat="59.2937684779" lon="34.6613505516"><ele>158.682</ele><time>2026-08-16T15:00:21.415Z</time><hdop>3.0</hdop><vdop>2.5</vdop><extensions><gom:speed>1.031</gom:speed></extensions></trkpt>
   <trkpt lat="59.2937740938" lon="34.6613568381"><ele>158.733</ele><time>2026-08-16T15:00:22.053Z</time><hdop>3.0</hdop><vdop>2.5</vdop><extensions><gom:speed>1.026</gom:speed></extensions></trkpt>
   <trkpt lat="59.2937816794" lon="34.6613614481"><ele>158.396</ele><time>2026-08-16T15:00:23.136Z</time><hdop>3.0</hdop><vdop>2.5</vdop><extensions><gom:speed>0.957</gom:speed></extensions></trkpt>
   <trkpt lat="59.2937888878" lon="34.6613685727"><ele>158.195</ele><time>2026-08-16T15:00:24.035Z</time><hdop>3.0</hdop><vdop>2.5</vdop><extensions><gom:speed>0.979</gom:speed></extensions></trkpt>
   <trkpt lat="59.2937893907" lon="34.6613783795"><ele>158.045</ele><time>2026-08-16T15:00:24.634Z</time><hdop>3.0</hdop><vdop>2.5</vdop><extensions><gom:speed>0.929</gom:speed></extensions></trkpt>
   <trkpt lat="59.2937908995" lon="34.6613875996"><ele>157.887</ele><time>2026-08-16T15:00:25.136Z</time><hdop>3.0</hdop><vdop>2.5</vdop><extensions><gom:speed>1.013</gom:speed></extensions></trkpt>
   <trkpt lat="59.2937963896" lon="34.6614007592"><ele>157.793</ele><time>2026-08-16T15:00:26.038Z</time><hdop>3.0</hdop><vdop>2.5</vdop><extensions><gom:speed>0.936</gom:speed></extensions></trkpt>
   <trkpt lat="59.2937992814" lon="34.6614055369"><ele>157.733</ele><time>2026-08-16T15:00:26.637Z</time><hdop>3.0</hdop><vdop>2.5</vdop><extensions><gom:speed>0.903</gom:speed></extensions></trkpt>
   <trkpt lat="59.2938032628" lon="34.661409644"><ele>158.027</ele><time>2026-08-16T15:00:27.136Z</time><hdop>3.0</hdop><vdop>2.5</vdop><extensions><gom:speed>1.042</gom:speed></extensions></trkpt>
   <trkpt lat="59.2938121895" lon="34.6614162658"><ele>158.759</ele><time>2026-08-16T15:00:28.136Z</time><hdop>3.0</hdop><vdop>2.5</vdop><extensions><gom:speed>0.955</gom:speed></extensions></trkpt>
   <trkpt lat="59.2938180987" lon="34.6614169363"><ele>159.196</ele><time>2026-08-16T15:00:28.777Z</time><hdop>3.0</hdop><vdop>2.5</vdop><extensions><gom:speed>0.942</gom:speed></extensions></trkpt>
   <trkpt lat="59.2938257682" lon="34.6614126615"><ele>159.486</ele><time>2026-08-16T15:00:29.415Z</time><hdop>3.0</hdop><vdop>2.5</vdop><extensions><gom:speed>1.058</gom:speed></extensions></trkpt>
   <trkpt lat="59.2938324737" lon="34.6614071295"><ele>159.676</ele><time>2026-08-16T15:00:30.136Z</time><hdop>3.0</hdop><vdop>2.5</vdop><extensions><gom:speed>1.049</gom:speed></extensions></trkpt>
   <trkpt lat="59.2938385925" lon="34.6613968197"><ele>159.79</ele><time>2026-08-16T15:00:30.956Z</time><hdop>3.0</hdop><vdop>2.5</vdop><extensions><gom:speed>0.986</gom:speed></extensions></trkpt>
   <trkpt lat="59.2938476869" lon="34.6613942213"><ele>159.437</ele><time>2026-08-16T15:00:32.136Z</time><hdop>3.0</hdop><vdop>2.5</vdop><extensions><gom:speed>0.696</gom:speed></extensions></trkpt>
   <trkpt lat="59.2938501595" lon="34.6614024356"><ele>159.186</ele><time>2026-08-16T15:00:33.136Z</time><hdop>3.0</hdop><vdop>2.5</vdop><extensions><gom:speed>0.418</gom:speed></extensions></trkpt>
   <trkpt lat="59.2938501595" lon="34.6614081353"><ele>159.072</ele><time>2026-08-16T15:00:34.136Z</time><hdop>3.0</hdop><vdop>2.5</vdop><extensions><gom:speed>0.226</gom:speed></extensions></trkpt>
   <trkpt lat="59.2938497823" lon="34.6614103984"><ele>159.025</ele><time>2026-08-16T15:00:35.136Z</time><hdop>3.0</hdop><vdop>2.5</vdop><extensions><gom:speed>0.105</gom:speed></extensions></trkpt>
   <trkpt lat="59.293849489" lon="34.6614109852"><ele>159.018</ele><time>2026-08-16T15:00:36.135Z</time><hdop>3.0</hdop><vdop>2.5</vdop><extensions><gom:speed>0.101</gom:speed></extensions></trkpt>
   <trkpt lat="59.2938492794" lon="34.6614107337"><ele>159.023</ele><time>2026-08-16T15:00:37.136Z</time><hdop>3.0</hdop><vdop>2.5</vdop><extensions><gom:speed>0.087</gom:speed></extensions></trkpt>
   <trkpt lat="59.2938491956" lon="34.6614100631"><ele>159.026</ele><time>2026-08-16T15:00:37.994Z</time><hdop>3.0</hdop><vdop>2.5</vdop><extensions><gom:speed>0.078</gom:speed></extensions></trkpt>
   <trkpt lat="59.2938507882" lon="34.6614114881"><ele>158.803</ele><time>2026-08-16T15:00:38.720Z</time><hdop>3.0</hdop><vdop>2.5</vdop><extensions><gom:speed>0.06</gom:speed></extensions></trkpt>
   <trkpt lat="59.2938532608" lon="34.6614134997"><ele>158.701</ele><time>2026-08-16T15:00:39.299Z</time><hdop>3.0</hdop><vdop>2.5</vdop><extensions><gom:speed>0.167</gom:speed></extensions></trkpt>
   <trkpt lat="59.2938539733" lon="34.6614139188"><ele>158.64</ele><time>2026-08-16T15:00:39.977Z</time><hdop>3.0</hdop><vdop>2.5</vdop><extensions><gom:speed>0.165</gom:speed></extensions></trkpt>
   <trkpt lat="59.2938588767" lon="34.6614144217"><ele>158.691</ele><time>2026-08-16T15:00:40.693Z</time><hdop>3.0</hdop><vdop>2.5</vdop><extensions><gom:speed>0.298</gom:speed></extensions></trkpt>
   <trkpt lat="59.2938666719" lon="34.6614164334"><ele>158.719</ele><time>2026-08-16T15:00:41.400Z</time><hdop>3.0</hdop><vdop>2.5</vdop><extensions><gom:speed>0.551</gom:speed></extensions></trkpt>
   <trkpt lat="59.2938712819" lon="34.6614195347"><ele>158.736</ele><time>2026-08-16T15:00:42.057Z</time><hdop>3.0</hdop><vdop>2.5</vdop><extensions><gom:speed>0.583</gom:speed></extensions></trkpt>
   <trkpt lat="59.2938766882" lon="34.6614298444"><ele>158.795</ele><time>2026-08-16T15:00:42.656Z</time><hdop>3.0</hdop><vdop>2.5</vdop><extensions><gom:speed>0.8</gom:speed></extensions></trkpt>
   <trkpt lat="59.29387958" lon="34.6614427526"><ele>158.784</ele><time>2026-08-16T15:00:43.136Z</time><hdop>3.0</hdop><vdop>2.5</vdop><extensions><gom:speed>0.844</gom:speed></extensions></trkpt>
   <trkpt lat="59.2938842739" lon="34.6614566665"><ele>158.778</ele><time>2026-08-16T15:00:43.892Z</time><hdop>3.0</hdop><vdop>2.5</vdop><extensions><gom:speed>0.888</gom:speed></extensions></trkpt>
   <trkpt lat="59.2938898897" lon="34.6614708319"><ele>158.77</ele><time>2026-08-16T15:00:44.698Z</time><hdop>3.0</hdop><vdop>2.562</vdop><extensions><gom:speed>0.887</gom:speed></extensions></trkpt>
   <trkpt lat="59.2938996966" lon="34.6614903618"><ele>158.442</ele><time>2026-08-16T15:00:46.136Z</time><hdop>3.0</hdop><vdop>2.625</vdop><extensions><gom:speed>0.915</gom:speed></extensions></trkpt>
   <trkpt lat="59.2939066955" lon="34.6615002524"><ele>158.246</ele><time>2026-08-16T15:00:46.916Z</time><hdop>3.0</hdop><vdop>2.625</vdop><extensions><gom:speed>0.981</gom:speed></extensions></trkpt>
   <trkpt lat="59.2939113893" lon="34.6615096402"><ele>158.285</ele><time>2026-08-16T15:00:47.681Z</time><hdop>3.062</hdop><vdop>2.625</vdop><extensions><gom:speed>0.995</gom:speed></extensions></trkpt>
   <trkpt lat="59.2939135686" lon="34.6615145855"><ele>158.4</ele><time>2026-08-16T15:00:48.136Z</time><hdop>3.062</hdop><vdop>2.5</vdop><extensions><gom:speed>0.958</gom:speed></extensions></trkpt>
   <trkpt lat="59.2939200646" lon="34.6615263201"><ele>158.469</ele><time>2026-08-16T15:00:49.075Z</time><hdop>3.062</hdop><vdop>2.5</vdop><extensions><gom:speed>1.01</gom:speed></extensions></trkpt>
   <trkpt lat="59.2939271892" lon="34.6615352888"><ele>158.729</ele><time>2026-08-16T15:00:50.136Z</time><hdop>3.0</hdop><vdop>2.5</vdop><extensions><gom:speed>1.03</gom:speed></extensions></trkpt>
   <trkpt lat="59.2939336852" lon="34.6615442574"><ele>159.096</ele><time>2026-08-16T15:00:51.136Z</time><hdop>3.0</hdop><vdop>2.5</vdop><extensions><gom:speed>0.939</gom:speed></extensions></trkpt>
   <trkpt lat="59.2939373732" lon="34.6615497895"><ele>159.316</ele><time>2026-08-16T15:00:51.657Z</time><hdop>3.0</hdop><vdop>2.5</vdop><extensions><gom:speed>0.994</gom:speed></extensions></trkpt>
   <trkpt lat="59.2939406841" lon="34.6615538966"><ele>159.513</ele><time>2026-08-16T15:00:52.136Z</time><hdop>3.0</hdop><vdop>2.5</vdop><extensions><gom:speed>0.919</gom:speed></extensions></trkpt>
   <trkpt lat="59.2939460904" lon="34.6615635358"><ele>159.631</ele><time>2026-08-16T15:00:52.893Z</time><hdop>3.0</hdop><vdop>2.5</vdop><extensions><gom:speed>0.977</gom:speed></extensions></trkpt>
   <trkpt lat="59.293952293" lon="34.6615674753"><ele>159.684</ele><time>2026-08-16T15:00:53.717Z</time><hdop>3.0</hdop><vdop>2.5</vdop><extensions><gom:speed>0.939</gom:speed></extensions></trkpt>
   <trkpt lat="59.2939562744" lon="34.6615658827"><ele>160.035</ele><time>2026-08-16T15:00:54.258Z</time><hdop>3.0</hdop><vdop>2.5</vdop><extensions><gom:speed>0.886</gom:speed></extensions></trkpt>
   <trkpt lat="59.2939634829" lon="34.6615686488"><ele>160.244</ele><time>2026-08-16T15:00:55.052Z</time><hdop>3.0</hdop><vdop>2.5</vdop><extensions><gom:speed>0.906</gom:speed></extensions></trkpt>
   <trkpt lat="59.2939674643" lon="34.6615676429"><ele>160.837</ele><time>2026-08-16T15:00:55.612Z</time><hdop>3.0</hdop><vdop>2.5</vdop><extensions><gom:speed>0.889</gom:speed></extensions></trkpt>
   <trkpt lat="59.2939703979" lon="34.6615694869"><ele>161.269</ele><time>2026-08-16T15:00:56.136Z</time><hdop>3.0</hdop><vdop>2.5</vdop><extensions><gom:speed>0.841</gom:speed></extensions></trkpt>
   <trkpt lat="59.2939750918" lon="34.6615783718"><ele>161.528</ele><time>2026-08-16T15:00:57.035Z</time><hdop>3.0</hdop><vdop>2.5</vdop><extensions><gom:speed>0.835</gom:speed></extensions></trkpt>
   <trkpt lat="59.2939793666" lon="34.661590777"><ele>161.169</ele><time>2026-08-16T15:00:58.136Z</time><hdop>3.0</hdop><vdop>2.5</vdop><extensions><gom:speed>0.807</gom:speed></extensions></trkpt>
   <trkpt lat="59.2939826774" lon="34.6616030984"><ele>160.954</ele><time>2026-08-16T15:00:58.959Z</time><hdop>3.0</hdop><vdop>2.5</vdop><extensions><gom:speed>0.851</gom:speed></extensions></trkpt>
   <trkpt lat="59.2939859883" lon="34.6616113965"><ele>160.811</ele><time>2026-08-16T15:00:59.676Z</time><hdop>3.0</hdop><vdop>2.5</vdop><extensions><gom:speed>0.817</gom:speed></extensions></trkpt>
   <trkpt lat="59.2939881676" lon="34.6616164256"><ele>160.692</ele><time>2026-08-16T15:01:00.136Z</time><hdop>3.0</hdop><vdop>2.5</vdop><extensions><gom:speed>0.784</gom:speed></extensions></trkpt>
   <trkpt lat="59.2939921909" lon="34.6616274897"><ele>161.063</ele><time>2026-08-16T15:01:01.136Z</time><hdop>3.0</hdop><vdop>2.5</vdop><extensions><gom:speed>0.717</gom:speed></extensions></trkpt>
   <trkpt lat="59.2939944959" lon="34.6616378833"><ele>161.284</ele><time>2026-08-16T15:01:02.080Z</time><hdop>3.0</hdop><vdop>2.5</vdop><extensions><gom:speed>0.625</gom:speed></extensions></trkpt>
   <trkpt lat="59.2939985611" lon="34.661650037"><ele>161.583</ele><time>2026-08-16T15:01:03.136Z</time><hdop>3.0</hdop><vdop>2.5</vdop><extensions><gom:speed>0.708</gom:speed></extensions></trkpt>
   <trkpt lat="59.2940028778" lon="34.6616619393"><ele>161.761</ele><time>2026-08-16T15:01:04.141Z</time><hdop>3.0</hdop><vdop>2.5</vdop><extensions><gom:speed>0.7</gom:speed></extensions></trkpt>
   <trkpt lat="59.2940045961" lon="34.6616751827"><ele>161.924</ele><time>2026-08-16T15:01:05.093Z</time><hdop>3.0</hdop><vdop>2.5</vdop><extensions><gom:speed>0.664</gom:speed></extensions></trkpt>
   <trkpt lat="59.2940058953" lon="34.6616897673"><ele>161.959</ele><time>2026-08-16T15:01:06.036Z</time><hdop>3.0</hdop><vdop>2.5</vdop><extensions><gom:speed>0.648</gom:speed></extensions></trkpt>
   <trkpt lat="59.2940059791" lon="34.6617031783"><ele>161.832</ele><time>2026-08-16T15:01:06.782Z</time><hdop>3.0</hdop><vdop>2.5</vdop><extensions><gom:speed>0.686</gom:speed></extensions></trkpt>
   <trkpt lat="59.2940058953" lon="34.6617250551"><ele>162.025</ele><time>2026-08-16T15:01:07.980Z</time><hdop>3.0</hdop><vdop>2.5</vdop><extensions><gom:speed>0.773</gom:speed></extensions></trkpt>
   <trkpt lat="59.294008787" lon="34.6617366221"><ele>161.926</ele><time>2026-08-16T15:01:08.658Z</time><hdop>3.0</hdop><vdop>2.5</vdop><extensions><gom:speed>0.737</gom:speed></extensions></trkpt>
   <trkpt lat="59.2940111759" lon="34.6617439982"><ele>161.888</ele><time>2026-08-16T15:01:09.136Z</time><hdop>3.0</hdop><vdop>2.5</vdop><extensions><gom:speed>0.751</gom:speed></extensions></trkpt>
   <trkpt lat="59.2940141934" lon="34.6617557328"><ele>161.865</ele><time>2026-08-16T15:01:09.894Z</time><hdop>3.0</hdop><vdop>2.5</vdop><extensions><gom:speed>0.804</gom:speed></extensions></trkpt>
   <trkpt lat="59.2940164984" lon="34.6617673837"><ele>161.821</ele><time>2026-08-16T15:01:10.395Z</time><hdop>3.0</hdop><vdop>2.5</vdop><extensions><gom:speed>0.907</gom:speed></extensions></trkpt>
   <trkpt lat="59.2940191806" lon="34.6617804594"><ele>161.795</ele><time>2026-08-16T15:01:11.121Z</time><hdop>3.0</hdop><vdop>2.5</vdop><extensions><gom:speed>0.914</gom:speed></extensions></trkpt>
   <trkpt lat="59.2940238745" lon="34.6617918588"><ele>161.859</ele><time>2026-08-16T15:01:11.759Z</time><hdop>3.0</hdop><vdop>2.5</vdop><extensions><gom:speed>0.917</gom:speed></extensions></trkpt>
   <trkpt lat="59.2940302866" lon="34.6618117239"><ele>161.944</ele><time>2026-08-16T15:01:12.918Z</time><hdop>3.0</hdop><vdop>2.5</vdop><extensions><gom:speed>0.891</gom:speed></extensions></trkpt>
   <trkpt lat="59.2940325916" lon="34.6618259732"><ele>161.973</ele><time>2026-08-16T15:01:13.614Z</time><hdop>3.0</hdop><vdop>2.5</vdop><extensions><gom:speed>0.899</gom:speed></extensions></trkpt>
   <trkpt lat="59.2940333879" lon="34.6618371211"><ele>161.928</ele><time>2026-08-16T15:01:14.136Z</time><hdop>3.0</hdop><vdop>2.5</vdop><extensions><gom:speed>0.916</gom:speed></extensions></trkpt>
   <trkpt lat="59.2940333879" lon="34.6618499454"><ele>161.901</ele><time>2026-08-16T15:01:14.822Z</time><hdop>3.0</hdop><vdop>2.5</vdop><extensions><gom:speed>0.899</gom:speed></extensions></trkpt>
   <trkpt lat="59.2940315858" lon="34.6618636917"><ele>161.643</ele><time>2026-08-16T15:01:15.420Z</time><hdop>3.0</hdop><vdop>2.5</vdop><extensions><gom:speed>0.94</gom:speed></extensions></trkpt>
   <trkpt lat="59.2940303704" lon="34.6618766837"><ele>161.489</ele><time>2026-08-16T15:01:16.078Z</time><hdop>3.0</hdop><vdop>2.5</vdop><extensions><gom:speed>0.95</gom:speed></extensions></trkpt>
   <trkpt lat="59.2940285683" lon="34.6618928608"><ele>161.057</ele><time>2026-08-16T15:01:16.775Z</time><hdop>3.0</hdop><vdop>2.5</vdop><extensions><gom:speed>0.942</gom:speed></extensions></trkpt>
   <trkpt lat="59.294026892" lon="34.6619053498"><ele>160.752</ele><time>2026-08-16T15:01:17.315Z</time><hdop>3.0</hdop><vdop>2.5</vdop><extensions><gom:speed>0.915</gom:speed></extensions></trkpt>
   <trkpt lat="59.2940251737" lon="34.6619167492"><ele>160.569</ele><time>2026-08-16T15:01:17.894Z</time><hdop>3.0</hdop><vdop>2.5</vdop><extensions><gom:speed>0.94</gom:speed></extensions></trkpt>
   <trkpt lat="59.2940211923" lon="34.6619294897"><ele>160.165</ele><time>2026-08-16T15:01:18.581Z</time><hdop>3.0</hdop><vdop>2.5</vdop><extensions><gom:speed>0.942</gom:speed></extensions></trkpt>
   <trkpt lat="59.2940184681" lon="34.6619398832"><ele>159.779</ele><time>2026-08-16T15:01:19.136Z</time><hdop>3.0</hdop><vdop>2.5</vdop><extensions><gom:speed>0.919</gom:speed></extensions></trkpt>
   <trkpt lat="59.2940163727" lon="34.6619512826"><ele>159.548</ele><time>2026-08-16T15:01:19.759Z</time><hdop>3.0</hdop><vdop>2.5</vdop><extensions><gom:speed>0.957</gom:speed></extensions></trkpt>
   <trkpt lat="59.2940158697" lon="34.6619625982"><ele>159.218</ele><time>2026-08-16T15:01:20.338Z</time><hdop>3.0</hdop><vdop>2.5</vdop><extensions><gom:speed>0.932</gom:speed></extensions></trkpt>
   <trkpt lat="59.294016666" lon="34.6619737461"><ele>159.021</ele><time>2026-08-16T15:01:20.937Z</time><hdop>3.0</hdop><vdop>2.5</vdop><extensions><gom:speed>0.935</gom:speed></extensions></trkpt>
   <trkpt lat="59.2940186777" lon="34.66198305"><ele>158.648</ele><time>2026-08-16T15:01:21.476Z</time><hdop>3.0</hdop><vdop>2.5</vdop><extensions><gom:speed>0.91</gom:speed></extensions></trkpt>
   <trkpt lat="59.2940209827" lon="34.6619954553"><ele>158.203</ele><time>2026-08-16T15:01:22.136Z</time><hdop>3.0</hdop><vdop>2.5</vdop><extensions><gom:speed>0.932</gom:speed></extensions></trkpt>
   <trkpt lat="59.2940228686" lon="34.6620053459"><ele>157.938</ele><time>2026-08-16T15:01:22.654Z</time><hdop>3.0</hdop><vdop>2.5</vdop><extensions><gom:speed>0.936</gom:speed></extensions></trkpt>
   <trkpt lat="59.2940241678" lon="34.6620149851"><ele>157.568</ele><time>2026-08-16T15:01:23.136Z</time><hdop>3.0</hdop><vdop>2.5</vdop><extensions><gom:speed>0.939</gom:speed></extensions></trkpt>
   <trkpt lat="59.2940277721" lon="34.662030324"><ele>157.347</ele><time>2026-08-16T15:01:23.979Z</time><hdop>3.0</hdop><vdop>2.5</vdop><extensions><gom:speed>0.95</gom:speed></extensions></trkpt>
   <trkpt lat="59.29403058" lon="34.6620416395"><ele>157.078</ele><time>2026-08-16T15:01:24.715Z</time><hdop>3.0</hdop><vdop>2.5</vdop><extensions><gom:speed>0.92</gom:speed></extensions></trkpt>
   <trkpt lat="59.2940326755" lon="34.662048848"><ele>156.768</ele><time>2026-08-16T15:01:25.216Z</time><hdop>3.0</hdop><vdop>2.5</vdop><extensions><gom:speed>0.918</gom:speed></extensions></trkpt>
   <trkpt lat="59.2940347709" lon="34.6620564755"><ele>156.583</ele><time>2026-08-16T15:01:25.717Z</time><hdop>3.0</hdop><vdop>2.5</vdop><extensions><gom:speed>0.96</gom:speed></extensions></trkpt>
   <trkpt lat="59.294039381" lon="34.662068294"><ele>156.365</ele><time>2026-08-16T15:01:26.561Z</time><hdop>3.0</hdop><vdop>2.5</vdop><extensions><gom:speed>1.013</gom:speed></extensions></trkpt>
   <trkpt lat="59.2940427757" lon="34.6620760892"><ele>156.245</ele><time>2026-08-16T15:01:27.136Z</time><hdop>3.0</hdop><vdop>2.5</vdop><extensions><gom:speed>0.962</gom:speed></extensions></trkpt>
   <trkpt lat="59.2940475953" lon="34.6620850578"><ele>156.174</ele><time>2026-08-16T15:01:27.797Z</time><hdop>3.0</hdop><vdop>2.5</vdop><extensions><gom:speed>1.014</gom:speed></extensions></trkpt>
   <trkpt lat="59.2940538817" lon="34.6620922662"><ele>156.333</ele><time>2026-08-16T15:01:28.591Z</time><hdop>3.0</hdop><vdop>2.5</vdop><extensions><gom:speed>0.967</gom:speed></extensions></trkpt>
   <trkpt lat="59.2940578631" lon="34.6620971277"><ele>156.428</ele><time>2026-08-16T15:01:29.073Z</time><hdop>3.0</hdop><vdop>2.5</vdop><extensions><gom:speed>0.968</gom:speed></extensions></trkpt>
   <trkpt lat="59.2940645686" lon="34.6621010672"><ele>156.526</ele><time>2026-08-16T15:01:29.917Z</time><hdop>3.0</hdop><vdop>2.5</vdop><extensions><gom:speed>0.926</gom:speed></extensions></trkpt>
   <trkpt lat="59.2940715675" lon="34.6621072698"><ele>156.938</ele><time>2026-08-16T15:01:30.899Z</time><hdop>3.0</hdop><vdop>2.5</vdop><extensions><gom:speed>0.919</gom:speed></extensions></trkpt>
   <trkpt lat="59.2940777701" lon="34.6621174958"><ele>157.373</ele><time>2026-08-16T15:01:31.959Z</time><hdop>3.0</hdop><vdop>2.5</vdop><extensions><gom:speed>0.871</gom:speed></extensions></trkpt>
   <trkpt lat="59.2940785664" lon="34.6621179987"><ele>157.899</ele><time>2026-08-16T15:01:32.459Z</time><hdop>3.0</hdop><vdop>2.5</vdop><extensions><gom:speed>0.695</gom:speed></extensions></trkpt>
   <trkpt lat="59.2940804942" lon="34.6621221896"><ele>158.213</ele><time>2026-08-16T15:01:32.980Z</time><hdop>3.0</hdop><vdop>2.5</vdop><extensions><gom:speed>0.699</gom:speed></extensions></trkpt>
   <trkpt lat="59.2940860682" lon="34.6621212676"><ele>158.419</ele><time>2026-08-16T15:01:33.942Z</time><hdop>3.0</hdop><vdop>2.5</vdop><extensions><gom:speed>0.671</gom:speed></extensions></trkpt>
   <trkpt lat="59.2940915583" lon="34.662113221"><ele>158.573</ele><time>2026-08-16T15:01:34.815Z</time><hdop>3.0</hdop><vdop>2.5</vdop><extensions><gom:speed>0.659</gom:speed></extensions></trkpt>
   <trkpt lat="59.2940969647" lon="34.6621102873"><ele>158.688</ele><time>2026-08-16T15:01:35.640Z</time><hdop>3.0</hdop><vdop>2.5</vdop><extensions><gom:speed>0.662</gom:speed></extensions></trkpt>
   <trkpt lat="59.2940998983" lon="34.6621111255"><ele>158.756</ele><time>2026-08-16T15:01:36.101Z</time><hdop>3.0</hdop><vdop>2.5</vdop><extensions><gom:speed>0.661</gom:speed></extensions></trkpt>
   <trkpt lat="59.2941044665" lon="34.6621108741"><ele>158.727</ele><time>2026-08-16T15:01:36.719Z</time><hdop>3.0</hdop><vdop>2.5</vdop><extensions><gom:speed>0.739</gom:speed></extensions></trkpt>
   <trkpt lat="59.2941093699" lon="34.6621125504"><ele>158.725</ele><time>2026-08-16T15:01:37.338Z</time><hdop>3.0</hdop><vdop>2.5</vdop><extensions><gom:speed>0.904</gom:speed></extensions></trkpt>
   <trkpt lat="59.2941154887" lon="34.6621214353"><ele>158.723</ele><time>2026-08-16T15:01:38.152Z</time><hdop>3.0</hdop><vdop>2.5</vdop><extensions><gom:speed>0.905</gom:speed></extensions></trkpt>
   <trkpt lat="59.2941219846" lon="34.6621226926"><ele>159.035</ele><time>2026-08-16T15:01:38.761Z</time><hdop>3.0</hdop><vdop>2.5</vdop><extensions><gom:speed>1.063</gom:speed></extensions></trkpt>
   <trkpt lat="59.2941293607" lon="34.6621212676"><ele>159.363</ele><time>2026-08-16T15:01:39.458Z</time><hdop>3.0</hdop><vdop>2.5</vdop><extensions><gom:speed>1.116</gom:speed></extensions></trkpt>
   <trkpt lat="59.294136192" lon="34.6621225249"><ele>159.66</ele><time>2026-08-16T15:01:40.136Z</time><hdop>3.0</hdop><vdop>2.5</vdop><extensions><gom:speed>1.031</gom:speed></extensions></trkpt>
   <trkpt lat="59.2941408858" lon="34.662126632"><ele>159.837</ele><time>2026-08-16T15:01:40.694Z</time><hdop>3.0</hdop><vdop>2.5</vdop><extensions><gom:speed>1.054</gom:speed></extensions></trkpt>
   <trkpt lat="59.294150986" lon="34.6621400431"><ele>160.015</ele><time>2026-08-16T15:01:42.020Z</time><hdop>3.062</hdop><vdop>2.5</vdop><extensions><gom:speed>1.042</gom:speed></extensions></trkpt>
   <trkpt lat="59.2941571886" lon="34.6621345949"><ele>160.085</ele><time>2026-08-16T15:01:42.579Z</time><hdop>3.062</hdop><vdop>2.5</vdop><extensions><gom:speed>1.062</gom:speed></extensions></trkpt>
   <trkpt lat="59.2941633912" lon="34.6621262968"><ele>159.735</ele><time>2026-08-16T15:01:43.136Z</time><hdop>3.062</hdop><vdop>2.5</vdop><extensions><gom:speed>1.154</gom:speed></extensions></trkpt>
   <trkpt lat="59.2941698872" lon="34.6621127181"><ele>159.526</ele><time>2026-08-16T15:01:43.933Z</time><hdop>3.0</hdop><vdop>2.5</vdop><extensions><gom:speed>1.074</gom:speed></extensions></trkpt>
   <trkpt lat="59.2941790654" lon="34.6621069346"><ele>159.414</ele><time>2026-08-16T15:01:44.679Z</time><hdop>3.0</hdop><vdop>2.5</vdop><extensions><gom:speed>1.086</gom:speed></extensions></trkpt>
   <trkpt lat="59.2941841784" lon="34.6621068508"><ele>159.553</ele><time>2026-08-16T15:01:45.136Z</time><hdop>3.0</hdop><vdop>2.5</vdop><extensions><gom:speed>1.045</gom:speed></extensions></trkpt>
   <trkpt lat="59.2941944881" lon="34.662109533"><ele>159.637</ele><time>2026-08-16T15:01:46.142Z</time><hdop>3.0</hdop><vdop>2.5</vdop><extensions><gom:speed>1.019</gom:speed></extensions></trkpt>
   <trkpt lat="59.2941988886" lon="34.6621161547"><ele>159.67</ele><time>2026-08-16T15:01:46.652Z</time><hdop>3.0</hdop><vdop>2.5</vdop><extensions><gom:speed>0.986</gom:speed></extensions></trkpt>
   <trkpt lat="59.2942022833" lon="34.6621228602"><ele>159.733</ele><time>2026-08-16T15:01:47.136Z</time><hdop>3.0</hdop><vdop>2.5</vdop><extensions><gom:speed>0.972</gom:speed></extensions></trkpt>
   <trkpt lat="59.2942083602" lon="34.6621337567"><ele>159.77</ele><time>2026-08-16T15:01:47.997Z</time><hdop>3.0</hdop><vdop>2.5</vdop><extensions><gom:speed>0.942</gom:speed></extensions></trkpt>
   <trkpt lat="59.2942095755" lon="34.662148425"><ele>159.795</ele><time>2026-08-16T15:01:48.880Z</time><hdop>3.0</hdop><vdop>2.5</vdop><extensions><gom:speed>0.887</gom:speed></extensions></trkpt>
   <trkpt lat="59.2942097851" lon="34.6621584833"><ele>159.642</ele><time>2026-08-16T15:01:49.538Z</time><hdop>3.0</hdop><vdop>2.5</vdop><extensions><gom:speed>0.855</gom:speed></extensions></trkpt>
   <trkpt lat="59.2942118806" lon="34.6621646859"><ele>159.399</ele><time>2026-08-16T15:01:50.136Z</time><hdop>3.0</hdop><vdop>2.5</vdop><extensions><gom:speed>0.843</gom:speed></extensions></trkpt>
   <trkpt lat="59.2942173707" lon="34.6621716429"><ele>159.254</ele><time>2026-08-16T15:01:50.941Z</time><hdop>3.0</hdop><vdop>2.5</vdop><extensions><gom:speed>0.853</gom:speed></extensions></trkpt>
   <trkpt lat="59.2942234895" lon="34.662179941"><ele>158.524</ele><time>2026-08-16T15:01:52.136Z</time><hdop>3.0</hdop><vdop>2.5</vdop><extensions><gom:speed>0.794</gom:speed></extensions></trkpt>
   <trkpt lat="59.2942274709" lon="34.6621919271"><ele>157.928</ele><time>2026-08-16T15:01:53.136Z</time><hdop>3.0</hdop><vdop>2.5</vdop><extensions><gom:speed>0.823</gom:speed></extensions></trkpt>
   <trkpt lat="59.294231578" lon="34.662208188"><ele>157.379</ele><time>2026-08-16T15:01:54.136Z</time><hdop>3.0</hdop><vdop>2.5</vdop><extensions><gom:speed>0.878</gom:speed></extensions></trkpt>
   <trkpt lat="59.294234386" lon="34.6622233592"><ele>157.052</ele><time>2026-08-16T15:01:55.054Z</time><hdop>3.0</hdop><vdop>2.5</vdop><extensions><gom:speed>0.925</gom:speed></extensions></trkpt>
   <trkpt lat="59.294234386" lon="34.6622357644"><ele>156.666</ele><time>2026-08-16T15:01:55.653Z</time><hdop>3.0</hdop><vdop>2.5</vdop><extensions><gom:speed>0.907</gom:speed></extensions></trkpt>
   <trkpt lat="59.2942335897" lon="34.6622468285"><ele>156.186</ele><time>2026-08-16T15:01:56.136Z</time><hdop>3.0</hdop><vdop>2.5</vdop><extensions><gom:speed>0.904</gom:speed></extensions></trkpt>
   <trkpt lat="59.2942332963" lon="34.6622638438"><ele>155.899</ele><time>2026-08-16T15:01:56.939Z</time><hdop>3.0</hdop><vdop>2.5</vdop><extensions><gom:speed>0.928</gom:speed></extensions></trkpt>
   <trkpt lat="59.2942321648" lon="34.6622796856"><ele>155.681</ele><time>2026-08-16T15:01:57.635Z</time><hdop>3.0</hdop><vdop>2.5</vdop><extensions><gom:speed>0.904</gom:speed></extensions></trkpt>
   <trkpt lat="59.2942319971" lon="34.6622900792"><ele>155.614</ele><time>2026-08-16T15:01:58.136Z</time><hdop>3.0</hdop><vdop>2.5</vdop><extensions><gom:speed>0.887</gom:speed></extensions></trkpt>
   <trkpt lat="59.2942336735" lon="34.6623078488"><ele>155.574</ele><time>2026-08-16T15:01:59.098Z</time><hdop>3.0</hdop><vdop>2.5</vdop><extensions><gom:speed>0.904</gom:speed></extensions></trkpt>
   <trkpt lat="59.2942360623" lon="34.6623212598"><ele>155.772</ele><time>2026-08-16T15:02:00.136Z</time><hdop>3.0</hdop><vdop>2.5</vdop><extensions><gom:speed>0.703</gom:speed></extensions></trkpt>
   <trkpt lat="59.2942381997" lon="34.6623311505"><ele>155.936</ele><time>2026-08-16T15:02:01.136Z</time><hdop>3.0</hdop><vdop>2.5</vdop><extensions><gom:speed>0.639</gom:speed></extensions></trkpt>
   <trkpt lat="59.294238996" lon="34.6623436395"><ele>156.173</ele><time>2026-08-16T15:02:02.136Z</time><hdop>3.0</hdop><vdop>2.5</vdop><extensions><gom:speed>0.645</gom:speed></extensions></trkpt>
   <trkpt lat="59.2942397923" lon="34.6623529434"><ele>156.315</ele><time>2026-08-16T15:02:02.779Z</time><hdop>3.0</hdop><vdop>2.5</vdop><extensions><gom:speed>0.67</gom:speed></extensions></trkpt>
   <trkpt lat="59.2942360623" lon="34.6623672765"><ele>156.347</ele><time>2026-08-16T15:02:03.632Z</time><hdop>3.0</hdop><vdop>2.5</vdop><extensions><gom:speed>0.751</gom:speed></extensions></trkpt>
   <trkpt lat="59.2942321648" lon="34.6623750717"><ele>156.467</ele><time>2026-08-16T15:02:04.136Z</time><hdop>3.0</hdop><vdop>2.5</vdop><extensions><gom:speed>0.799</gom:speed></extensions></trkpt>
   <trkpt lat="59.2942257945" lon="34.6623839565"><ele>156.539</ele><time>2026-08-16T15:02:04.938Z</time><hdop>3.0</hdop><vdop>2.5</vdop><extensions><gom:speed>0.838</gom:speed></extensions></trkpt>
   <trkpt lat="59.2942203882" lon="34.6623910811"><ele>156.514</ele><time>2026-08-16T15:02:05.438Z</time><hdop>3.0</hdop><vdop>2.5</vdop><extensions><gom:speed>0.927</gom:speed></extensions></trkpt>
   <trkpt lat="59.2942152752" lon="34.6624002174"><ele>156.5</ele><time>2026-08-16T15:02:06.096Z</time><hdop>3.0</hdop><vdop>2.5</vdop><extensions><gom:speed>0.926</gom:speed></extensions></trkpt>
   <trkpt lat="59.2942113776" lon="34.6624131255"><ele>156.626</ele><time>2026-08-16T15:02:06.695Z</time><hdop>3.0</hdop><vdop>2.5</vdop><extensions><gom:speed>0.989</gom:speed></extensions></trkpt>
   <trkpt lat="59.2942092822" lon="34.6624293864"><ele>156.917</ele><time>2026-08-16T15:02:07.480Z</time><hdop>3.0</hdop><vdop>2.5</vdop><extensions><gom:speed>0.963</gom:speed></extensions></trkpt>
   <trkpt lat="59.2942084859" lon="34.6624399476"><ele>157.091</ele><time>2026-08-16T15:02:08.039Z</time><hdop>3.0</hdop><vdop>2.5</vdop><extensions><gom:speed>0.965</gom:speed></extensions></trkpt>
   <trkpt lat="59.2942072705" lon="34.6624626625"><ele>157.196</ele><time>2026-08-16T15:02:09.135Z</time><hdop>3.0</hdop><vdop>2.5</vdop><extensions><gom:speed>0.899</gom:speed></extensions></trkpt>
   <trkpt lat="59.2942054684" lon="34.6624821924"><ele>157.403</ele><time>2026-08-16T15:02:10.136Z</time><hdop>3.0</hdop><vdop>2.5</vdop><extensions><gom:speed>0.906</gom:speed></extensions></trkpt>
   <trkpt lat="59.2942032891" lon="34.662493927"><ele>157.527</ele><time>2026-08-16T15:02:10.758Z</time><hdop>3.0</hdop><vdop>2.5</vdop><extensions><gom:speed>0.985</gom:speed></extensions></trkpt>
   <trkpt lat="59.2942019899" lon="34.6625072543"><ele>157.718</ele><time>2026-08-16T15:02:11.416Z</time><hdop>3.0</hdop><vdop>2.5</vdop><extensions><gom:speed>0.995</gom:speed></extensions></trkpt>
   <trkpt lat="59.2942012774" lon="34.6625205815"><ele>157.832</ele><time>2026-08-16T15:02:12.054Z</time><hdop>3.0</hdop><vdop>2.5</vdop><extensions><gom:speed>0.995</gom:speed></extensions></trkpt>
   <trkpt lat="59.2941999783" lon="34.662533322"><ele>157.966</ele><time>2026-08-16T15:02:12.721Z</time><hdop>3.0</hdop><vdop>2.5</vdop><extensions><gom:speed>0.993</gom:speed></extensions></trkpt>
   <trkpt lat="59.2941971703" lon="34.6625432965"><ele>158.193</ele><time>2026-08-16T15:02:13.281Z</time><hdop>3.0</hdop><vdop>2.5</vdop><extensions><gom:speed>0.972</gom:speed></extensions></trkpt>
   <trkpt lat="59.2941931889" lon="34.6625547797"><ele>158.329</ele><time>2026-08-16T15:02:13.978Z</time><hdop>3.0</hdop><vdop>2.5</vdop><extensions><gom:speed>1.007</gom:speed></extensions></trkpt>
   <trkpt lat="59.2941881598" lon="34.6625617366"><ele>158.349</ele><time>2026-08-16T15:02:14.517Z</time><hdop>3.0</hdop><vdop>2.5</vdop><extensions><gom:speed>1.015</gom:speed></extensions></trkpt>
   <trkpt lat="59.2941831725" lon="34.6625723817"><ele>158.709</ele><time>2026-08-16T15:02:15.136Z</time><hdop>3.0</hdop><vdop>2.5</vdop><extensions><gom:speed>1.062</gom:speed></extensions></trkpt>
   <trkpt lat="59.2941789816" lon="34.6625866309"><ele>158.924</ele><time>2026-08-16T15:02:15.833Z</time><hdop>3.0</hdop><vdop>2.5</vdop><extensions><gom:speed>1.102</gom:speed></extensions></trkpt>
   <trkpt lat="59.2941724856" lon="34.6626089268"><ele>159.208</ele><time>2026-08-16T15:02:16.795Z</time><hdop>3.0</hdop><vdop>2.5</vdop><extensions><gom:speed>1.154</gom:speed></extensions></trkpt>
   <trkpt lat="59.2941688814" lon="34.6626218349"><ele>159.225</ele><time>2026-08-16T15:02:17.314Z</time><hdop>3.0</hdop><vdop>2.5</vdop><extensions><gom:speed>1.172</gom:speed></extensions></trkpt>
   <trkpt lat="59.2941648581" lon="34.6626366709"><ele>159.127</ele><time>2026-08-16T15:02:18.136Z</time><hdop>3.0</hdop><vdop>2.5</vdop><extensions><gom:speed>1.018</gom:speed></extensions></trkpt>
   <trkpt lat="59.2941612958" lon="34.6626449689"><ele>159.068</ele><time>2026-08-16T15:02:18.817Z</time><hdop>3.0</hdop><vdop>2.5</vdop><extensions><gom:speed>0.887</gom:speed></extensions></trkpt>
   <trkpt lat="59.2941544645" lon="34.662653267"><ele>159.187</ele><time>2026-08-16T15:02:19.621Z</time><hdop>3.0</hdop><vdop>2.5</vdop><extensions><gom:speed>0.844</gom:speed></extensions></trkpt>
   <trkpt lat="59.2941499802" lon="34.662660224"><ele>159.482</ele><time>2026-08-16T15:02:20.136Z</time><hdop>3.0</hdop><vdop>2.5</vdop><extensions><gom:speed>0.903</gom:speed></extensions></trkpt>
   <trkpt lat="59.294144071" lon="34.6626758982"><ele>159.773</ele><time>2026-08-16T15:02:21.135Z</time><hdop>3.0</hdop><vdop>2.5</vdop><extensions><gom:speed>0.852</gom:speed></extensions></trkpt>
   <trkpt lat="59.2941397962" lon="34.6626908179"><ele>159.947</ele><time>2026-08-16T15:02:22.114Z</time><hdop>3.0</hdop><vdop>2.5</vdop><extensions><gom:speed>0.825</gom:speed></extensions></trkpt>
   <trkpt lat="59.2941376588" lon="34.6626993675"><ele>160.156</ele><time>2026-08-16T15:02:22.595Z</time><hdop>3.0</hdop><vdop>2.5</vdop><extensions><gom:speed>0.804</gom:speed></extensions></trkpt>
   <trkpt lat="59.2941368625" lon="34.6627055701"><ele>160.152</ele><time>2026-08-16T15:02:23.136Z</time><hdop>3.0</hdop><vdop>2.5</vdop><extensions><gom:speed>0.681</gom:speed></extensions></trkpt>
   <trkpt lat="59.2941358986" lon="34.6627138682"><ele>160.149</ele><time>2026-08-16T15:02:23.773Z</time><hdop>3.0</hdop><vdop>2.5</vdop><extensions><gom:speed>0.717</gom:speed></extensions></trkpt>
   <trkpt lat="59.2941348928" lon="34.6627251838"><ele>160.033</ele><time>2026-08-16T15:02:24.814Z</time><hdop>3.0</hdop><vdop>2.5</vdop><extensions><gom:speed>0.664</gom:speed></extensions></trkpt>
   <trkpt lat="59.2941339708" lon="34.6627432887"><ele>160.002</ele><time>2026-08-16T15:02:25.658Z</time><hdop>3.0</hdop><vdop>2.5</vdop><extensions><gom:speed>0.894</gom:speed></extensions></trkpt>
   <trkpt lat="59.2941332583" lon="34.6627518382"><ele>159.984</ele><time>2026-08-16T15:02:26.119Z</time><hdop>3.0</hdop><vdop>2.5</vdop><extensions><gom:speed>0.892</gom:speed></extensions></trkpt>
   <trkpt lat="59.2941343899" lon="34.6627536822"><ele>159.799</ele><time>2026-08-16T15:02:27.136Z</time><hdop>3.0</hdop><vdop>2.5</vdop><extensions><gom:speed>0.563</gom:speed></extensions></trkpt>
   <trkpt lat="59.2941321687" lon="34.6627553586"><ele>159.689</ele><time>2026-08-16T15:02:27.935Z</time><hdop>3.0</hdop><vdop>2.5</vdop><extensions><gom:speed>0.527</gom:speed></extensions></trkpt>
   <trkpt lat="59.2941323782" lon="34.6627514191"><ele>159.432</ele><time>2026-08-16T15:02:28.720Z</time><hdop>3.0</hdop><vdop>2.5</vdop><extensions><gom:speed>0.431</gom:speed></extensions></trkpt>
   <trkpt lat="59.2941346832" lon="34.6627443783"><ele>159.272</ele><time>2026-08-16T15:02:29.319Z</time><hdop>3.0</hdop><vdop>2.5</vdop><extensions><gom:speed>0.28</gom:speed></extensions></trkpt>
   <trkpt lat="59.2941337612" lon="34.6627434563"><ele>159.176</ele><time>2026-08-16T15:02:30.016Z</time><hdop>3.0</hdop><vdop>2.5</vdop><extensions><gom:speed>0.307</gom:speed></extensions></trkpt>
   <trkpt lat="59.2941309952" lon="34.6627495751"><ele>158.882</ele><time>2026-08-16T15:02:31.136Z</time><hdop>3.0</hdop><vdop>2.5</vdop><extensions><gom:speed>0.453</gom:speed></extensions></trkpt>
   <trkpt lat="59.294129696" lon="34.6627569512"><ele>158.706</ele><time>2026-08-16T15:02:31.998Z</time><hdop>3.0</hdop><vdop>2.5</vdop><extensions><gom:speed>0.462</gom:speed></extensions></trkpt>
   <trkpt lat="59.2941279777" lon="34.6627652492"><ele>158.717</ele><time>2026-08-16T15:02:32.852Z</time><hdop>3.0</hdop><vdop>2.5</vdop><extensions><gom:speed>0.485</gom:speed></extensions></trkpt>
   <trkpt lat="59.2941242897" lon="34.6627723739"><ele>158.633</ele><time>2026-08-16T15:02:34.136Z</time><hdop>3.0</hdop><vdop>2.5</vdop><extensions><gom:speed>0.451</gom:speed></extensions></trkpt>
   <trkpt lat="59.294120895" lon="34.6627709489"><ele>158.583</ele><time>2026-08-16T15:02:34.913Z</time><hdop>3.0</hdop><vdop>2.5</vdop><extensions><gom:speed>0.459</gom:speed></extensions></trkpt>
   <trkpt lat="59.2941150696" lon="34.6627666742"><ele>158.596</ele><time>2026-08-16T15:02:35.757Z</time><hdop>3.0</hdop><vdop>2.5</vdop><extensions><gom:speed>0.576</gom:speed></extensions></trkpt>
   <trkpt lat="59.2941077773" lon="34.6627637405"><ele>158.533</ele><time>2026-08-16T15:02:36.454Z</time><hdop>3.0</hdop><vdop>2.5</vdop><extensions><gom:speed>0.668</gom:speed></extensions></trkpt>
   <trkpt lat="59.2941016585" lon="34.6627628185"><ele>158.442</ele><time>2026-08-16T15:02:37.136Z</time><hdop>3.0</hdop><vdop>2.5</vdop><extensions><gom:speed>0.716</gom:speed></extensions></trkpt>
   <trkpt lat="59.2940973838" lon="34.662763992"><ele>158.388</ele><time>2026-08-16T15:02:37.779Z</time><hdop>3.0</hdop><vdop>2.5</vdop><extensions><gom:speed>0.633</gom:speed></extensions></trkpt>
   <trkpt lat="59.29409357" lon="34.6627689373"><ele>158.431</ele><time>2026-08-16T15:02:38.280Z</time><hdop>3.0</hdop><vdop>2.5</vdop><extensions><gom:speed>0.647</gom:speed></extensions></trkpt>
   <trkpt lat="59.2940900915" lon="34.6627791632"><ele>158.433</ele><time>2026-08-16T15:02:39.136Z</time><hdop>3.0</hdop><vdop>2.5</vdop><extensions><gom:speed>0.62</gom:speed></extensions></trkpt>
   <trkpt lat="59.2940895886" lon="34.6627951726"><ele>158.415</ele><time>2026-08-16T15:02:40.136Z</time><hdop>3.0</hdop><vdop>2.5</vdop><extensions><gom:speed>0.654</gom:speed></extensions></trkpt>
   <trkpt lat="59.2940882894" lon="34.6628050633"><ele>158.405</ele><time>2026-08-16T15:02:40.941Z</time><hdop>3.0</hdop><vdop>2.5</vdop><extensions><gom:speed>0.615</gom:speed></extensions></trkpt>
   <trkpt lat="59.2940857748" lon="34.6628197316"><ele>158.313</ele><time>2026-08-16T15:02:41.835Z</time><hdop>3.0</hdop><vdop>2.5</vdop><extensions><gom:speed>0.72</gom:speed></extensions></trkpt>
   <trkpt lat="59.2940854815" lon="34.6628317177"><ele>158.232</ele><time>2026-08-16T15:02:42.336Z</time><hdop>3.0</hdop><vdop>2.5</vdop><extensions><gom:speed>0.816</gom:speed></extensions></trkpt>
   <trkpt lat="59.2940831764" lon="34.662844123"><ele>158.184</ele><time>2026-08-16T15:02:42.974Z</time><hdop>3.0</hdop><vdop>2.5</vdop><extensions><gom:speed>0.903</gom:speed></extensions></trkpt>
   <trkpt lat="59.294083386" lon="34.6628724538"><ele>158.482</ele><time>2026-08-16T15:02:44.136Z</time><hdop>3.0</hdop><vdop>2.5</vdop><extensions><gom:speed>0.984</gom:speed></extensions></trkpt>
   <trkpt lat="59.2940813743" lon="34.6628880441"><ele>158.661</ele><time>2026-08-16T15:02:44.859Z</time><hdop>3.0</hdop><vdop>2.5</vdop><extensions><gom:speed>1.002</gom:speed></extensions></trkpt>
   <trkpt lat="59.2940779797" lon="34.6629076578"><ele>158.847</ele><time>2026-08-16T15:02:45.801Z</time><hdop>3.0</hdop><vdop>2.5</vdop><extensions><gom:speed>1.022</gom:speed></extensions></trkpt>
   <trkpt lat="59.294069472" lon="34.6629243378"><ele>159.339</ele><time>2026-08-16T15:02:47.058Z</time><hdop>3.0</hdop><vdop>2.5</vdop><extensions><gom:speed>0.996</gom:speed></extensions></trkpt>
   <trkpt lat="59.2940669994" lon="34.6629290316"><ele>160.046</ele><time>2026-08-16T15:02:47.598Z</time><hdop>3.0</hdop><vdop>2.5</vdop><extensions><gom:speed>0.932</gom:speed></extensions></trkpt>
   <trkpt lat="59.2940638981" lon="34.6629353181"><ele>160.385</ele><time>2026-08-16T15:02:48.136Z</time><hdop>3.0</hdop><vdop>2.5</vdop><extensions><gom:speed>0.967</gom:speed></extensions></trkpt>
   <trkpt lat="59.2940587851" lon="34.6629457954"><ele>160.588</ele><time>2026-08-16T15:02:48.953Z</time><hdop>3.0</hdop><vdop>2.5</vdop><extensions><gom:speed>0.925</gom:speed></extensions></trkpt>
   <trkpt lat="59.2940588689" lon="34.6629468851"><ele>160.686</ele><time>2026-08-16T15:02:49.581Z</time><hdop>3.0</hdop><vdop>2.5</vdop><extensions><gom:speed>0.745</gom:speed></extensions></trkpt>
   <trkpt lat="59.2940567734" lon="34.6629517466"><ele>160.744</ele><time>2026-08-16T15:02:50.121Z</time><hdop>3.0</hdop><vdop>2.5</vdop><extensions><gom:speed>0.747</gom:speed></extensions></trkpt>
   <trkpt lat="59.2940526663" lon="34.6629594579"><ele>160.999</ele><time>2026-08-16T15:02:50.837Z</time><hdop>3.0</hdop><vdop>2.5</vdop><extensions><gom:speed>0.85</gom:speed></extensions></trkpt>
   <trkpt lat="59.2940494812" lon="34.6629692648"><ele>161.527</ele><time>2026-08-16T15:02:51.573Z</time><hdop>3.0</hdop><vdop>2.5</vdop><extensions><gom:speed>0.849</gom:speed></extensions></trkpt>
   <trkpt lat="59.2940475953" lon="34.662975635"><ele>161.788</ele><time>2026-08-16T15:02:52.135Z</time><hdop>3.0</hdop><vdop>2.5</vdop><extensions><gom:speed>0.821</gom:speed></extensions></trkpt>
   <trkpt lat="59.2940429852" lon="34.6629830949"><ele>161.944</ele><time>2026-08-16T15:02:52.957Z</time><hdop>3.0</hdop><vdop>2.5</vdop><extensions><gom:speed>0.787</gom:speed></extensions></trkpt>
   <trkpt lat="59.2940360701" lon="34.6629873697"><ele>162.057</ele><time>2026-08-16T15:02:53.752Z</time><hdop>3.0</hdop><vdop>2.5</vdop><extensions><gom:speed>0.876</gom:speed></extensions></trkpt>
   <trkpt lat="59.2940270596" lon="34.6630027924"><ele>162.035</ele><time>2026-08-16T15:02:54.999Z</time><hdop>3.0</hdop><vdop>2.5</vdop><extensions><gom:speed>0.971</gom:speed></extensions></trkpt>
   <trkpt lat="59.2940227848" lon="34.6630106714"><ele>162.173</ele><time>2026-08-16T15:02:55.519Z</time><hdop>3.0</hdop><vdop>2.5</vdop><extensions><gom:speed>1.061</gom:speed></extensions></trkpt>
   <trkpt lat="59.294018091" lon="34.6630201429"><ele>162.554</ele><time>2026-08-16T15:02:56.136Z</time><hdop>3.0</hdop><vdop>2.5</vdop><extensions><gom:speed>1.092</gom:speed></extensions></trkpt>
   <trkpt lat="59.2940128942" lon="34.6630306203"><ele>162.782</ele><time>2026-08-16T15:02:56.775Z</time><hdop>3.0</hdop><vdop>2.5</vdop><extensions><gom:speed>1.131</gom:speed></extensions></trkpt>
   <trkpt lat="59.29400929" lon="34.6630464621"><ele>163.186</ele><time>2026-08-16T15:02:57.541Z</time><hdop>3.0</hdop><vdop>2.5</vdop><extensions><gom:speed>1.102</gom:speed></extensions></trkpt>
   <trkpt lat="59.2940067754" lon="34.6630575262"><ele>163.428</ele><time>2026-08-16T15:02:58.080Z</time><hdop>3.0</hdop><vdop>2.5</vdop><extensions><gom:speed>1.104</gom:speed></extensions></trkpt>
   <trkpt lat="59.2940040932" lon="34.6630731166"><ele>163.525</ele><time>2026-08-16T15:02:58.876Z</time><hdop>3.0</hdop><vdop>2.5</vdop><extensions><gom:speed>1.065</gom:speed></extensions></trkpt>
   <trkpt lat="59.2940015786" lon="34.6630827557"><ele>163.552</ele><time>2026-08-16T15:02:59.396Z</time><hdop>3.0</hdop><vdop>2.5</vdop><extensions><gom:speed>1.023</gom:speed></extensions></trkpt>
   <trkpt lat="59.293999064" lon="34.6630965859"><ele>163.647</ele><time>2026-08-16T15:03:00.136Z</time><hdop>3.0</hdop><vdop>2.5</vdop><extensions><gom:speed>1.014</gom:speed></extensions></trkpt>
   <trkpt lat="59.2939987707" lon="34.6631071471"><ele>163.704</ele><time>2026-08-16T15:03:00.652Z</time><hdop>3.0</hdop><vdop>2.5</vdop><extensions><gom:speed>0.996</gom:speed></extensions></trkpt>
   <trkpt lat="59.2939992736" lon="34.6631167863"><ele>164.037</ele><time>2026-08-16T15:03:01.136Z</time><hdop>3.0</hdop><vdop>2.5</vdop><extensions><gom:speed>0.996</gom:speed></extensions></trkpt>
   <trkpt lat="59.2939998603" lon="34.6631324604"><ele>164.236</ele><time>2026-08-16T15:03:01.939Z</time><hdop>3.0</hdop><vdop>2.5</vdop><extensions><gom:speed>1.008</gom:speed></extensions></trkpt>
   <trkpt lat="59.2939974715" lon="34.6631485537"><ele>164.367</ele><time>2026-08-16T15:03:02.694Z</time><hdop>3.0</hdop><vdop>2.5</vdop><extensions><gom:speed>1.044</gom:speed></extensions></trkpt>
   <trkpt lat="59.2939932805" lon="34.6631731965"><ele>164.027</ele><time>2026-08-16T15:03:04.059Z</time><hdop>3.0</hdop><vdop>2.5</vdop><extensions><gom:speed>0.997</gom:speed></extensions></trkpt>
   <trkpt lat="59.2939918975" lon="34.6631906308"><ele>164.149</ele><time>2026-08-16T15:03:05.136Z</time><hdop>3.0</hdop><vdop>2.5</vdop><extensions><gom:speed>0.969</gom:speed></extensions></trkpt>
   <trkpt lat="59.2939875808" lon="34.6632047963"><ele>164.406</ele><time>2026-08-16T15:03:06.136Z</time><hdop>3.0</hdop><vdop>2.5</vdop><extensions><gom:speed>0.965</gom:speed></extensions></trkpt>
   <trkpt lat="59.2939817973" lon="34.6632143516"><ele>164.56</ele><time>2026-08-16T15:03:06.976Z</time><hdop>3.0</hdop><vdop>2.5</vdop><extensions><gom:speed>0.933</gom:speed></extensions></trkpt>
   <trkpt lat="59.2939764748" lon="34.6632191293"><ele>164.573</ele><time>2026-08-16T15:03:07.555Z</time><hdop>3.0</hdop><vdop>2.5</vdop><extensions><gom:speed>0.957</gom:speed></extensions></trkpt>
   <trkpt lat="59.2939705656" lon="34.6632239908"><ele>164.432</ele><time>2026-08-16T15:03:08.136Z</time><hdop>3.0</hdop><vdop>2.5</vdop><extensions><gom:speed>0.942</gom:speed></extensions></trkpt>
   <trkpt lat="59.2939642791" lon="34.6632318698"><ele>164.348</ele><time>2026-08-16T15:03:08.880Z</time><hdop>3.0</hdop><vdop>2.5</vdop><extensions><gom:speed>0.96</gom:speed></extensions></trkpt>
   <trkpt lat="59.2939542628" lon="34.6632418443"><ele>164.12</ele><time>2026-08-16T15:03:10.097Z</time><hdop>3.0</hdop><vdop>2.5</vdop><extensions><gom:speed>0.911</gom:speed></extensions></trkpt>
   <trkpt lat="59.2939479763" lon="34.6632452808"><ele>163.718</ele><time>2026-08-16T15:03:10.833Z</time><hdop>3.0</hdop><vdop>2.5</vdop><extensions><gom:speed>0.851</gom:speed></extensions></trkpt>
   <trkpt lat="59.2939441626" lon="34.6632474601"><ele>163.355</ele><time>2026-08-16T15:03:11.481Z</time><hdop>3.0</hdop><vdop>2.5</vdop><extensions><gom:speed>0.709</gom:speed></extensions></trkpt>
   <trkpt lat="59.2939414804" lon="34.6632582728"><ele>163.129</ele><time>2026-08-16T15:03:12.136Z</time><hdop>3.0</hdop><vdop>2.5</vdop><extensions><gom:speed>0.942</gom:speed></extensions></trkpt>
   <trkpt lat="59.2939437854" lon="34.6632662356"><ele>162.248</ele><time>2026-08-16T15:03:13.136Z</time><hdop>3.0</hdop><vdop>2.625</vdop><extensions><gom:speed>0.575</gom:speed></extensions></trkpt>
   <trkpt lat="59.2939449588" lon="34.6632638887"><ele>161.718</ele><time>2026-08-16T15:03:14.136Z</time><hdop>3.0</hdop><vdop>3.0</vdop><extensions><gom:speed>0.308</gom:speed></extensions></trkpt>
   <trkpt lat="59.2939441626" lon="34.6632642239"><ele>161.371</ele><time>2026-08-16T15:03:15.136Z</time><hdop>3.0</hdop><vdop>2.812</vdop><extensions><gom:speed>0.348</gom:speed></extensions></trkpt>
   <trkpt lat="59.2939444978" lon="34.6632671576"><ele>161.058</ele><time>2026-08-16T15:03:16.136Z</time><hdop>3.0</hdop><vdop>2.625</vdop><extensions><gom:speed>0.167</gom:speed></extensions></trkpt>
   <trkpt lat="59.2939446655" lon="34.6632692531"><ele>160.949</ele><time>2026-08-16T15:03:17.136Z</time><hdop>3.0</hdop><vdop>2.687</vdop><extensions><gom:speed>0.155</gom:speed></extensions></trkpt>
   <trkpt lat="59.2939446655" lon="34.6632707618"><ele>160.883</ele><time>2026-08-16T15:03:17.841Z</time><hdop>3.0</hdop><vdop>2.687</vdop><extensions><gom:speed>0.123</gom:speed></extensions></trkpt>
   <trkpt lat="59.2939443721" lon="34.6632821612"><ele>161.066</ele><time>2026-08-16T15:03:18.459Z</time><hdop>3.0</hdop><vdop>2.562</vdop><extensions><gom:speed>0.272</gom:speed></extensions></trkpt>
   <trkpt lat="59.2939436597" lon="34.6632949855"><ele>161.498</ele><time>2026-08-16T15:03:19.136Z</time><hdop>3.0</hdop><vdop>2.5</vdop><extensions><gom:speed>0.437</gom:speed></extensions></trkpt>
   <trkpt lat="59.2939431986" lon="34.6633133419"><ele>161.556</ele><time>2026-08-16T15:03:20.136Z</time><hdop>3.0</hdop><vdop>2.5</vdop><extensions><gom:speed>0.517</gom:speed></extensions></trkpt>
   <trkpt lat="59.2939430729" lon="34.66332625"><ele>161.59</ele><time>2026-08-16T15:03:20.795Z</time><hdop>3.0</hdop><vdop>2.5</vdop><extensions><gom:speed>0.639</gom:speed></extensions></trkpt>
   <trkpt lat="59.2939433663" lon="34.663345696"><ele>161.635</ele><time>2026-08-16T15:03:21.659Z</time><hdop>3.0</hdop><vdop>2.5</vdop><extensions><gom:speed>0.798</gom:speed></extensions></trkpt>
   <trkpt lat="59.2939435758" lon="34.6633509766"><ele>161.624</ele><time>2026-08-16T15:03:22.136Z</time><hdop>3.0</hdop><vdop>2.5</vdop><extensions><gom:speed>0.674</gom:speed></extensions></trkpt>
   <trkpt lat="59.2939431986" lon="34.6633624598"><ele>161.171</ele><time>2026-08-16T15:03:23.136Z</time><hdop>3.0</hdop><vdop>2.5</vdop><extensions><gom:speed>0.754</gom:speed></extensions></trkpt>
   <trkpt lat="59.2939428634" lon="34.6633760385"><ele>160.899</ele><time>2026-08-16T15:03:24.015Z</time><hdop>3.0</hdop><vdop>2.5</vdop><extensions><gom:speed>0.853</gom:speed></extensions></trkpt>
   <trkpt lat="59.2939412708" lon="34.6633847557"><ele>160.659</ele><time>2026-08-16T15:03:24.800Z</time><hdop>3.0</hdop><vdop>2.5</vdop><extensions><gom:speed>0.838</gom:speed></extensions></trkpt>
   <trkpt lat="59.2939395944" lon="34.663391126"><ele>160.72</ele><time>2026-08-16T15:03:25.359Z</time><hdop>3.0</hdop><vdop>2.5</vdop><extensions><gom:speed>0.933</gom:speed></extensions></trkpt>
   <trkpt lat="59.2939398878" lon="34.6633989211"><ele>160.683</ele><time>2026-08-16T15:03:26.136Z</time><hdop>3.0</hdop><vdop>2.5</vdop><extensions><gom:speed>0.793</gom:speed></extensions></trkpt>
   <trkpt lat="59.2939398878" lon="34.6634050399"><ele>160.66</ele><time>2026-08-16T15:03:26.655Z</time><hdop>3.0</hdop><vdop>2.5</vdop><extensions><gom:speed>0.826</gom:speed></extensions></trkpt>
   <trkpt lat="59.293938882" lon="34.6634042855"><ele>160.427</ele><time>2026-08-16T15:03:27.136Z</time><hdop>3.0</hdop><vdop>2.5</vdop><extensions><gom:speed>0.583</gom:speed></extensions></trkpt>
   <trkpt lat="59.293936996" lon="34.6634001784"><ele>160.282</ele><time>2026-08-16T15:03:28.136Z</time><hdop>3.0</hdop><vdop>2.5</vdop><extensions><gom:speed>0.39</gom:speed></extensions></trkpt>
   <trkpt lat="59.2939362836" lon="34.6633963227"><ele>160.195</ele><time>2026-08-16T15:03:28.618Z</time><hdop>3.0</hdop><vdop>2.5</vdop><extensions><gom:speed>0.284</gom:speed></extensions></trkpt>
   <trkpt lat="59.2939356968" lon="34.6633909583"><ele>160.175</ele><time>2026-08-16T15:03:29.136Z</time><hdop>3.0</hdop><vdop>2.5</vdop><extensions><gom:speed>0.212</gom:speed></extensions></trkpt>
   <trkpt lat="59.2939354873" lon="34.6633868512"><ele>160.164</ele><time>2026-08-16T15:03:29.678Z</time><hdop>3.0</hdop><vdop>2.5</vdop><extensions><gom:speed>0.186</gom:speed></extensions></trkpt>
   <trkpt lat="59.2939351939" lon="34.6633824926"><ele>160.155</ele><time>2026-08-16T15:03:30.136Z</time><hdop>3.0</hdop><vdop>2.5</vdop><extensions><gom:speed>0.159</gom:speed></extensions></trkpt>
   <trkpt lat="59.2939348587" lon="34.6633787207"><ele>160.155</ele><time>2026-08-16T15:03:31.136Z</time><hdop>3.0</hdop><vdop>2.5</vdop><extensions><gom:speed>0.122</gom:speed></extensions></trkpt>
   <trkpt lat="59.2939345653" lon="34.6633765414"><ele>160.156</ele><time>2026-08-16T15:03:32.136Z</time><hdop>3.0</hdop><vdop>2.5</vdop><extensions><gom:speed>0.089</gom:speed></extensions></trkpt>
   <trkpt lat="59.2939341881" lon="34.6633746974"><ele>160.155</ele><time>2026-08-16T15:03:33.135Z</time><hdop>3.0</hdop><vdop>2.5</vdop><extensions><gom:speed>0.073</gom:speed></extensions></trkpt>
   <trkpt lat="59.2939338947" lon="34.6633727696"><ele>160.165</ele><time>2026-08-16T15:03:34.136Z</time><hdop>3.0</hdop><vdop>2.5</vdop><extensions><gom:speed>0.095</gom:speed></extensions></trkpt>
   <trkpt lat="59.2939335595" lon="34.6633715961"><ele>160.171</ele><time>2026-08-16T15:03:35.136Z</time><hdop>3.0</hdop><vdop>2.5</vdop><extensions><gom:speed>0.094</gom:speed></extensions></trkpt>
   <trkpt lat="59.2939335595" lon="34.6633705903"><ele>160.181</ele><time>2026-08-16T15:03:36.136Z</time><hdop>3.0</hdop><vdop>2.5</vdop><extensions><gom:speed>0.065</gom:speed></extensions></trkpt>
   <trkpt lat="59.2939336852" lon="34.6633696683"><ele>160.262</ele><time>2026-08-16T15:03:37.136Z</time><hdop>3.0</hdop><vdop>2.5</vdop><extensions><gom:speed>0.069</gom:speed></extensions></trkpt>
   <trkpt lat="59.293933769" lon="34.6633688301"><ele>160.336</ele><time>2026-08-16T15:03:38.136Z</time><hdop>3.0</hdop><vdop>2.5</vdop><extensions><gom:speed>0.095</gom:speed></extensions></trkpt>
   <trkpt lat="59.2939338947" lon="34.6633687463"><ele>160.37</ele><time>2026-08-16T15:03:39.136Z</time><hdop>3.0</hdop><vdop>2.5</vdop><extensions><gom:speed>0.1</gom:speed></extensions></trkpt>
   <trkpt lat="59.2939339786" lon="34.6633683272"><ele>160.395</ele><time>2026-08-16T15:03:40.136Z</time><hdop>3.0</hdop><vdop>2.5</vdop><extensions><gom:speed>0.07</gom:speed></extensions></trkpt>
   <trkpt lat="59.2939338947" lon="34.6633676566"><ele>160.511</ele><time>2026-08-16T15:03:41.136Z</time><hdop>3.0</hdop><vdop>2.5</vdop><extensions><gom:speed>0.083</gom:speed></extensions></trkpt>
   <trkpt lat="59.2939334756" lon="34.6633671537"><ele>160.583</ele><time>2026-08-16T15:03:42.136Z</time><hdop>3.0</hdop><vdop>2.5</vdop><extensions><gom:speed>0.102</gom:speed></extensions></trkpt>
   <trkpt lat="59.2939330985" lon="34.6633666508"><ele>160.619</ele><time>2026-08-16T15:03:43.136Z</time><hdop>3.0</hdop><vdop>2.5</vdop><extensions><gom:speed>0.101</gom:speed></extensions></trkpt>
   <trkpt lat="59.2939327632" lon="34.6633654773"><ele>160.669</ele><time>2026-08-16T15:03:44.136Z</time><hdop>3.0</hdop><vdop>2.5</vdop><extensions><gom:speed>0.062</gom:speed></extensions></trkpt>
   <trkpt lat="59.2939322603" lon="34.663365645"><ele>160.696</ele><time>2026-08-16T15:03:45.136Z</time><hdop>3.0</hdop><vdop>2.5</vdop><extensions><gom:speed>0.065</gom:speed></extensions></trkpt>
   <trkpt lat="59.2939317993" lon="34.6633653935"><ele>160.711</ele><time>2026-08-16T15:03:46.136Z</time><hdop>3.0</hdop><vdop>2.625</vdop><extensions><gom:speed>0.093</gom:speed></extensions></trkpt>
   <trkpt lat="59.2939317993" lon="34.6633661479"><ele>160.713</ele><time>2026-08-16T15:03:47.136Z</time><hdop>3.0</hdop><vdop>2.812</vdop><extensions><gom:speed>0.093</gom:speed></extensions></trkpt>
   <trkpt lat="59.2939317993" lon="34.6633662317"><ele>160.713</ele><time>2026-08-16T15:03:48.136Z</time><hdop>3.0</hdop><vdop>2.625</vdop><extensions><gom:speed>0.061</gom:speed></extensions></trkpt>
   <trkpt lat="59.2939317993" lon="34.6633666508"><ele>160.713</ele><time>2026-08-16T15:03:48.700Z</time><hdop>3.0</hdop><vdop>2.625</vdop><extensions><gom:speed>0.061</gom:speed></extensions></trkpt>
   <trkpt lat="59.2939315897" lon="34.6633671537"><ele>160.696</ele><time>2026-08-16T15:03:50.136Z</time><hdop>3.0</hdop><vdop>2.5</vdop><extensions><gom:speed>0.065</gom:speed></extensions></trkpt>
   <trkpt lat="59.2939312963" lon="34.6633675728"><ele>160.68</ele><time>2026-08-16T15:03:51.136Z</time><hdop>3.0</hdop><vdop>2.5</vdop><extensions><gom:speed>0.066</gom:speed></extensions></trkpt>
   <trkpt lat="59.2939311706" lon="34.6633676566"><ele>160.693</ele><time>2026-08-16T15:03:52.136Z</time><hdop>3.0</hdop><vdop>2.5</vdop><extensions><gom:speed>0.064</gom:speed></extensions></trkpt>
   <trkpt lat="59.2939311706" lon="34.6633680757"><ele>160.709</ele><time>2026-08-16T15:03:53.136Z</time><hdop>3.0</hdop><vdop>2.5</vdop><extensions><gom:speed>0.067</gom:speed></extensions></trkpt>
   <trkpt lat="59.2939312963" lon="34.6633684948"><ele>160.727</ele><time>2026-08-16T15:03:54.136Z</time><hdop>3.0</hdop><vdop>2.5</vdop><extensions><gom:speed>0.069</gom:speed></extensions></trkpt>
   <trkpt lat="59.2939311706" lon="34.6633687463"><ele>160.761</ele><time>2026-08-16T15:03:55.136Z</time><hdop>3.0</hdop><vdop>2.5</vdop><extensions><gom:speed>0.072</gom:speed></extensions></trkpt>
   <trkpt lat="59.2939311706" lon="34.6633691654"><ele>160.801</ele><time>2026-08-16T15:03:56.136Z</time><hdop>3.0</hdop><vdop>2.5</vdop><extensions><gom:speed>0.072</gom:speed></extensions></trkpt>
   <trkpt lat="59.2939312963" lon="34.663369333"><ele>160.812</ele><time>2026-08-16T15:03:57.136Z</time><hdop>3.0</hdop><vdop>2.5</vdop><extensions><gom:speed>0.072</gom:speed></extensions></trkpt>
   <trkpt lat="59.2939310868" lon="34.6633696683"><ele>160.851</ele><time>2026-08-16T15:03:58.136Z</time><hdop>3.0</hdop><vdop>2.5</vdop><extensions><gom:speed>0.074</gom:speed></extensions></trkpt>
   <trkpt lat="59.2939310868" lon="34.6633692492"><ele>160.865</ele><time>2026-08-16T15:03:59.136Z</time><hdop>3.0</hdop><vdop>2.5</vdop><extensions><gom:speed>0.07</gom:speed></extensions></trkpt>
   <trkpt lat="59.2939311706" lon="34.6633692492"><ele>160.953</ele><time>2026-08-16T15:04:00.136Z</time><hdop>3.0</hdop><vdop>2.5</vdop><extensions><gom:speed>0.116</gom:speed></extensions></trkpt>
   <trkpt lat="59.2939308773" lon="34.663370255"><ele>160.967</ele><time>2026-08-16T15:04:01.136Z</time><hdop>3.0</hdop><vdop>2.5</vdop><extensions><gom:speed>0.409</gom:speed></extensions></trkpt>
   <trkpt lat="59.2939304582" lon="34.6633750327"><ele>160.976</ele><time>2026-08-16T15:04:01.920Z</time><hdop>3.0</hdop><vdop>2.5</vdop><extensions><gom:speed>0.479</gom:speed></extensions></trkpt>
   <trkpt lat="59.2939302905" lon="34.6633855939"><ele>161.113</ele><time>2026-08-16T15:04:02.598Z</time><hdop>3.0</hdop><vdop>2.5</vdop><extensions><gom:speed>1.284</gom:speed></extensions></trkpt>
   <trkpt lat="59.2939297876" lon="34.6633956522"><ele>160.856</ele><time>2026-08-16T15:04:03.136Z</time><hdop>3.0</hdop><vdop>2.5</vdop><extensions><gom:speed>1.165</gom:speed></extensions></trkpt>
   <trkpt lat="59.2939297876" lon="34.6634043694"><ele>160.702</ele><time>2026-08-16T15:04:03.775Z</time><hdop>3.062</hdop><vdop>2.5</vdop><extensions><gom:speed>1.01</gom:speed></extensions></trkpt>
   <trkpt lat="59.2939257643" lon="34.6634154335"><ele>160.797</ele><time>2026-08-16T15:04:04.276Z</time><hdop>3.062</hdop><vdop>2.5</vdop><extensions><gom:speed>0.998</gom:speed></extensions></trkpt>
   <trkpt lat="59.2939231659" lon="34.6634288445"><ele>160.854</ele><time>2026-08-16T15:04:05.061Z</time><hdop>3.125</hdop><vdop>2.5</vdop><extensions><gom:speed>0.999</gom:speed></extensions></trkpt>
   <trkpt lat="59.2939200646" lon="34.6634426747"><ele>160.998</ele><time>2026-08-16T15:04:05.680Z</time><hdop>3.187</hdop><vdop>2.5</vdop><extensions><gom:speed>0.973</gom:speed></extensions></trkpt>
   <trkpt lat="59.2939201903" lon="34.6634519786"><ele>160.855</ele><time>2026-08-16T15:04:06.135Z</time><hdop>3.125</hdop><vdop>2.5</vdop><extensions><gom:speed>0.926</gom:speed></extensions></trkpt>
   <trkpt lat="59.2939195617" lon="34.6634678204"><ele>160.77</ele><time>2026-08-16T15:04:06.975Z</time><hdop>3.187</hdop><vdop>2.5</vdop><extensions><gom:speed>0.924</gom:speed></extensions></trkpt>
   <trkpt lat="59.2939206932" lon="34.6634805609"><ele>160.409</ele><time>2026-08-16T15:04:07.721Z</time><hdop>3.187</hdop><vdop>2.5</vdop><extensions><gom:speed>0.87</gom:speed></extensions></trkpt>
   <trkpt lat="59.2939181787" lon="34.6634964865"><ele>159.802</ele><time>2026-08-16T15:04:08.673Z</time><hdop>3.187</hdop><vdop>2.5</vdop><extensions><gom:speed>0.889</gom:speed></extensions></trkpt>
   <trkpt lat="59.2939155803" lon="34.6635023538"><ele>159.649</ele><time>2026-08-16T15:04:09.136Z</time><hdop>3.125</hdop><vdop>2.5</vdop><extensions><gom:speed>0.902</gom:speed></extensions></trkpt>
   <trkpt lat="59.2939120599" lon="34.6635129988"><ele>159.558</ele><time>2026-08-16T15:04:09.861Z</time><hdop>3.125</hdop><vdop>2.5</vdop><extensions><gom:speed>0.892</gom:speed></extensions></trkpt>
   <trkpt lat="59.2939094615" lon="34.6635291759"><ele>159.311</ele><time>2026-08-16T15:04:10.774Z</time><hdop>3.062</hdop><vdop>2.5</vdop><extensions><gom:speed>0.897</gom:speed></extensions></trkpt>
   <trkpt lat="59.2939093777" lon="34.6635390665"><ele>159.362</ele><time>2026-08-16T15:04:11.255Z</time><hdop>3.062</hdop><vdop>2.5</vdop><extensions><gom:speed>0.922</gom:speed></extensions></trkpt>
   <trkpt lat="59.2939084976" lon="34.6635505498"><ele>159.393</ele><time>2026-08-16T15:04:11.912Z</time><hdop>3.062</hdop><vdop>2.5</vdop><extensions><gom:speed>0.893</gom:speed></extensions></trkpt>
   <trkpt lat="59.2939070726" lon="34.6635613624"><ele>159.919</ele><time>2026-08-16T15:04:12.452Z</time><hdop>3.062</hdop><vdop>2.5</vdop><extensions><gom:speed>0.887</gom:speed></extensions></trkpt>
   <trkpt lat="59.2939042647" lon="34.6635739353"><ele>160.31</ele><time>2026-08-16T15:04:13.136Z</time><hdop>3.062</hdop><vdop>2.5</vdop><extensions><gom:speed>0.885</gom:speed></extensions></trkpt>
   <trkpt lat="59.2939000738" lon="34.6635843288"><ele>160.544</ele><time>2026-08-16T15:04:13.875Z</time><hdop>3.0</hdop><vdop>2.5</vdop><extensions><gom:speed>0.869</gom:speed></extensions></trkpt>
   <trkpt lat="59.2938969725" lon="34.6635962311"><ele>160.886</ele><time>2026-08-16T15:04:14.474Z</time><hdop>3.0</hdop><vdop>2.5</vdop><extensions><gom:speed>0.885</gom:speed></extensions></trkpt>
   <trkpt lat="59.2938954637" lon="34.6636048645"><ele>161.09</ele><time>2026-08-16T15:04:14.976Z</time><hdop>3.0</hdop><vdop>2.5</vdop><extensions><gom:speed>0.875</gom:speed></extensions></trkpt>
   <trkpt lat="59.2938965953" lon="34.6636290882"><ele>161.092</ele><time>2026-08-16T15:04:16.136Z</time><hdop>3.0</hdop><vdop>2.5</vdop><extensions><gom:speed>0.942</gom:speed></extensions></trkpt>
   <trkpt lat="59.2938974754" lon="34.6636406552"><ele>161.093</ele><time>2026-08-16T15:04:16.674Z</time><hdop>3.0</hdop><vdop>2.5</vdop><extensions><gom:speed>0.968</gom:speed></extensions></trkpt>
   <trkpt lat="59.2938988584" lon="34.6636499591"><ele>160.771</ele><time>2026-08-16T15:04:17.136Z</time><hdop>3.0</hdop><vdop>2.5</vdop><extensions><gom:speed>0.968</gom:speed></extensions></trkpt>
   <trkpt lat="59.29390087" lon="34.6636695728"><ele>160.788</ele><time>2026-08-16T15:04:18.136Z</time><hdop>3.0</hdop><vdop>2.5</vdop><extensions><gom:speed>0.952</gom:speed></extensions></trkpt>
   <trkpt lat="59.2939016663" lon="34.663685666"><ele>160.799</ele><time>2026-08-16T15:04:19.000Z</time><hdop>3.0</hdop><vdop>2.5</vdop><extensions><gom:speed>0.963</gom:speed></extensions></trkpt>
   <trkpt lat="59.2939045581" lon="34.6636989933"><ele>160.999</ele><time>2026-08-16T15:04:19.756Z</time><hdop>3.0</hdop><vdop>2.5</vdop><extensions><gom:speed>0.957</gom:speed></extensions></trkpt>
   <trkpt lat="59.2939066955" lon="34.6637087163"><ele>161.162</ele><time>2026-08-16T15:04:20.217Z</time><hdop>3.0</hdop><vdop>2.5</vdop><extensions><gom:speed>0.994</gom:speed></extensions></trkpt>
   <trkpt lat="59.2939085814" lon="34.663725061"><ele>161.259</ele><time>2026-08-16T15:04:21.012Z</time><hdop>3.0</hdop><vdop>2.5</vdop><extensions><gom:speed>1.038</gom:speed></extensions></trkpt>
   <trkpt lat="59.2939098806" lon="34.6637377177"><ele>161.317</ele><time>2026-08-16T15:04:21.562Z</time><hdop>3.0</hdop><vdop>2.5</vdop><extensions><gom:speed>1.075</gom:speed></extensions></trkpt>
   <trkpt lat="59.2939115989" lon="34.6637493685"><ele>161.425</ele><time>2026-08-16T15:04:22.135Z</time><hdop>3.0</hdop><vdop>2.5</vdop><extensions><gom:speed>1.074</gom:speed></extensions></trkpt>
   <trkpt lat="59.2939133591" lon="34.6637612708"><ele>161.49</ele><time>2026-08-16T15:04:22.759Z</time><hdop>3.0</hdop><vdop>2.5</vdop><extensions><gom:speed>1.025</gom:speed></extensions></trkpt>
   <trkpt lat="59.2939158736" lon="34.6637737598"><ele>161.717</ele><time>2026-08-16T15:04:23.476Z</time><hdop>3.0</hdop><vdop>2.5</vdop><extensions><gom:speed>1.009</gom:speed></extensions></trkpt>
   <trkpt lat="59.2939172986" lon="34.6637828961"><ele>161.853</ele><time>2026-08-16T15:04:23.976Z</time><hdop>3.0</hdop><vdop>2.5</vdop><extensions><gom:speed>1.012</gom:speed></extensions></trkpt>
   <trkpt lat="59.293919897" lon="34.6637958881"><ele>161.984</ele><time>2026-08-16T15:04:24.693Z</time><hdop>3.0</hdop><vdop>2.5</vdop><extensions><gom:speed>1.034</gom:speed></extensions></trkpt>
   <trkpt lat="59.2939233754" lon="34.6638039347"><ele>162.016</ele><time>2026-08-16T15:04:25.213Z</time><hdop>3.0</hdop><vdop>2.562</vdop><extensions><gom:speed>1.037</gom:speed></extensions></trkpt>
   <trkpt lat="59.2939283627" lon="34.663817681"><ele>162.035</ele><time>2026-08-16T15:04:26.056Z</time><hdop>3.0</hdop><vdop>2.562</vdop><extensions><gom:speed>1.003</gom:speed></extensions></trkpt>
   <trkpt lat="59.2939335595" lon="34.6638220396"><ele>161.777</ele><time>2026-08-16T15:04:26.558Z</time><hdop>3.0</hdop><vdop>2.5</vdop><extensions><gom:speed>0.993</gom:speed></extensions></trkpt>
   <trkpt lat="59.2939382952" lon="34.6638287451"><ele>161.58</ele><time>2026-08-16T15:04:27.136Z</time><hdop>3.0</hdop><vdop>2.687</vdop><extensions><gom:speed>0.984</gom:speed></extensions></trkpt>
   <trkpt lat="59.2939416899" lon="34.6638368756"><ele>161.463</ele><time>2026-08-16T15:04:27.677Z</time><hdop>3.0</hdop><vdop>2.687</vdop><extensions><gom:speed>1.004</gom:speed></extensions></trkpt>
   <trkpt lat="59.2939447912" lon="34.6638442516"><ele>161.597</ele><time>2026-08-16T15:04:28.135Z</time><hdop>3.0</hdop><vdop>2.75</vdop><extensions><gom:speed>1.054</gom:speed></extensions></trkpt>
   <trkpt lat="59.293949066" lon="34.6638593391"><ele>161.677</ele><time>2026-08-16T15:04:29.021Z</time><hdop>3.0</hdop><vdop>2.75</vdop><extensions><gom:speed>1.033</gom:speed></extensions></trkpt>
   <trkpt lat="59.2939557715" lon="34.6638715766"><ele>161.87</ele><time>2026-08-16T15:04:29.757Z</time><hdop>3.0</hdop><vdop>2.625</vdop><extensions><gom:speed>1.026</gom:speed></extensions></trkpt>
   <trkpt lat="59.2939656621" lon="34.6638945431"><ele>162.229</ele><time>2026-08-16T15:04:31.092Z</time><hdop>3.0</hdop><vdop>2.5</vdop><extensions><gom:speed>1.04</gom:speed></extensions></trkpt>
   <trkpt lat="59.2939686796" lon="34.6639080379"><ele>162.204</ele><time>2026-08-16T15:04:31.760Z</time><hdop>3.0</hdop><vdop>2.625</vdop><extensions><gom:speed>1.01</gom:speed></extensions></trkpt>
   <trkpt lat="59.2939710685" lon="34.6639186829"><ele>162.188</ele><time>2026-08-16T15:04:32.417Z</time><hdop>3.0</hdop><vdop>2.5</vdop><extensions><gom:speed>0.965</gom:speed></extensions></trkpt>
   <trkpt lat="59.293973164" lon="34.6639295794"><ele>162.178</ele><time>2026-08-16T15:04:33.035Z</time><hdop>3.0</hdop><vdop>2.5</vdop><extensions><gom:speed>0.971</gom:speed></extensions></trkpt>
   <trkpt lat="59.293975469" lon="34.6639426552"><ele>161.868</ele><time>2026-08-16T15:04:33.899Z</time><hdop>3.0</hdop><vdop>2.5</vdop><extensions><gom:speed>0.92</gom:speed></extensions></trkpt>
   <trkpt lat="59.2939768939" lon="34.6639511209"><ele>161.671</ele><time>2026-08-16T15:04:34.537Z</time><hdop>3.0</hdop><vdop>2.5</vdop><extensions><gom:speed>0.906</gom:speed></extensions></trkpt>
   <trkpt lat="59.2939788636" lon="34.6639599219"><ele>162.105</ele><time>2026-08-16T15:04:35.135Z</time><hdop>3.0</hdop><vdop>2.5</vdop><extensions><gom:speed>0.934</gom:speed></extensions></trkpt>
   <trkpt lat="59.2939859883" lon="34.6639708184"><ele>162.326</ele><time>2026-08-16T15:04:36.136Z</time><hdop>3.0</hdop><vdop>2.5</vdop><extensions><gom:speed>0.966</gom:speed></extensions></trkpt>
   <trkpt lat="59.2939932805" lon="34.663976099"><ele>162.458</ele><time>2026-08-16T15:04:36.913Z</time><hdop>3.0</hdop><vdop>2.5</vdop><extensions><gom:speed>0.927</gom:speed></extensions></trkpt>
   <trkpt lat="59.2939997765" lon="34.6639759313"><ele>162.639</ele><time>2026-08-16T15:04:37.502Z</time><hdop>3.0</hdop><vdop>2.5</vdop><extensions><gom:speed>0.932</gom:speed></extensions></trkpt>
   <trkpt lat="59.2940065658" lon="34.6639720757"><ele>162.347</ele><time>2026-08-16T15:04:38.136Z</time><hdop>3.0</hdop><vdop>2.5</vdop><extensions><gom:speed>0.939</gom:speed></extensions></trkpt>
   <trkpt lat="59.2940127684" lon="34.6639642805"><ele>162.173</ele><time>2026-08-16T15:04:38.796Z</time><hdop>3.0</hdop><vdop>2.5</vdop><extensions><gom:speed>0.944</gom:speed></extensions></trkpt>
   <trkpt lat="59.2940189711" lon="34.663950618"><ele>161.791</ele><time>2026-08-16T15:04:39.572Z</time><hdop>3.0</hdop><vdop>2.5</vdop><extensions><gom:speed>0.896</gom:speed></extensions></trkpt>
   <trkpt lat="59.2940228686" lon="34.6639459241"><ele>161.563</ele><time>2026-08-16T15:04:40.053Z</time><hdop>3.0</hdop><vdop>2.5</vdop><extensions><gom:speed>0.893</gom:speed></extensions></trkpt>
   <trkpt lat="59.2940314601" lon="34.6639454212"><ele>161.509</ele><time>2026-08-16T15:04:40.937Z</time><hdop>3.0</hdop><vdop>2.5</vdop><extensions><gom:speed>0.882</gom:speed></extensions></trkpt>
   <trkpt lat="59.2940364892" lon="34.6639539708"><ele>161.355</ele><time>2026-08-16T15:04:41.634Z</time><hdop>3.0</hdop><vdop>2.5</vdop><extensions><gom:speed>0.898</gom:speed></extensions></trkpt>
   <trkpt lat="59.2940391714" lon="34.6639632747"><ele>161.458</ele><time>2026-08-16T15:04:42.136Z</time><hdop>3.0</hdop><vdop>2.5</vdop><extensions><gom:speed>0.985</gom:speed></extensions></trkpt>
   <trkpt lat="59.2940417698" lon="34.6639774401"><ele>161.52</ele><time>2026-08-16T15:04:42.881Z</time><hdop>3.0</hdop><vdop>2.5</vdop><extensions><gom:speed>0.963</gom:speed></extensions></trkpt>
   <trkpt lat="59.2940437815" lon="34.6639929466"><ele>161.627</ele><time>2026-08-16T15:04:43.696Z</time><hdop>3.0</hdop><vdop>2.5</vdop><extensions><gom:speed>0.953</gom:speed></extensions></trkpt>
   <trkpt lat="59.2940454998" lon="34.6640032563"><ele>161.92</ele><time>2026-08-16T15:04:44.216Z</time><hdop>3.0</hdop><vdop>2.5</vdop><extensions><gom:speed>0.957</gom:speed></extensions></trkpt>
   <trkpt lat="59.2940482658" lon="34.6640201878"><ele>162.12</ele><time>2026-08-16T15:04:45.136Z</time><hdop>3.0</hdop><vdop>2.5</vdop><extensions><gom:speed>0.965</gom:speed></extensions></trkpt>
   <trkpt lat="59.2940508642" lon="34.6640312519"><ele>162.239</ele><time>2026-08-16T15:04:45.738Z</time><hdop>3.0</hdop><vdop>2.5</vdop><extensions><gom:speed>1.018</gom:speed></extensions></trkpt>
   <trkpt lat="59.294054175" lon="34.6640435733"><ele>162.56</ele><time>2026-08-16T15:04:46.415Z</time><hdop>3.0</hdop><vdop>2.5</vdop><extensions><gom:speed>1.07</gom:speed></extensions></trkpt>
   <trkpt lat="59.2940574859" lon="34.664054386"><ele>162.751</ele><time>2026-08-16T15:04:46.994Z</time><hdop>3.0</hdop><vdop>2.5</vdop><extensions><gom:speed>1.066</gom:speed></extensions></trkpt>
   <trkpt lat="59.2940613835" lon="34.664068719"><ele>163.045</ele><time>2026-08-16T15:04:47.760Z</time><hdop>3.0</hdop><vdop>2.5</vdop><extensions><gom:speed>1.054</gom:speed></extensions></trkpt>
   <trkpt lat="59.2940630599" lon="34.6640772686"><ele>163.299</ele><time>2026-08-16T15:04:48.260Z</time><hdop>3.0</hdop><vdop>2.5</vdop><extensions><gom:speed>1.018</gom:speed></extensions></trkpt>
   <trkpt lat="59.2940667898" lon="34.6640925236"><ele>163.45</ele><time>2026-08-16T15:04:49.055Z</time><hdop>3.0</hdop><vdop>2.5</vdop><extensions><gom:speed>1.066</gom:speed></extensions></trkpt>
   <trkpt lat="59.2940687596" lon="34.664101157"><ele>163.707</ele><time>2026-08-16T15:04:49.516Z</time><hdop>3.0</hdop><vdop>2.5</vdop><extensions><gom:speed>1.079</gom:speed></extensions></trkpt>
   <trkpt lat="59.2940691787" lon="34.6641116344"><ele>163.686</ele><time>2026-08-16T15:04:50.136Z</time><hdop>3.0</hdop><vdop>2.5</vdop><extensions><gom:speed>1.056</gom:speed></extensions></trkpt>
   <trkpt lat="59.2940689691" lon="34.6641265541"><ele>163.674</ele><time>2026-08-16T15:04:50.900Z</time><hdop>3.0</hdop><vdop>2.5</vdop><extensions><gom:speed>1.034</gom:speed></extensions></trkpt>
   <trkpt lat="59.2940684662" lon="34.6641327568"><ele>163.454</ele><time>2026-08-16T15:04:51.401Z</time><hdop>3.0</hdop><vdop>2.5</vdop><extensions><gom:speed>0.98</gom:speed></extensions></trkpt>
   <trkpt lat="59.2940698911" lon="34.6641434856"><ele>163.164</ele><time>2026-08-16T15:04:52.136Z</time><hdop>3.0</hdop><vdop>2.5</vdop><extensions><gom:speed>0.951</gom:speed></extensions></trkpt>
   <trkpt lat="59.2940734953" lon="34.6641550526"><ele>162.982</ele><time>2026-08-16T15:04:53.136Z</time><hdop>3.0</hdop><vdop>2.5</vdop><extensions><gom:speed>0.886</gom:speed></extensions></trkpt>
   <trkpt lat="59.2940790693" lon="34.6641607523"><ele>162.874</ele><time>2026-08-16T15:04:53.972Z</time><hdop>3.0</hdop><vdop>2.5</vdop><extensions><gom:speed>0.824</gom:speed></extensions></trkpt>
   <trkpt lat="59.2940787759" lon="34.6641723193"><ele>163.047</ele><time>2026-08-16T15:04:54.758Z</time><hdop>3.0</hdop><vdop>2.5</vdop><extensions><gom:speed>0.796</gom:speed></extensions></trkpt>
   <trkpt lat="59.294074585" lon="34.6641832996"><ele>163.144</ele><time>2026-08-16T15:04:55.297Z</time><hdop>3.0</hdop><vdop>2.5</vdop><extensions><gom:speed>0.803</gom:speed></extensions></trkpt>
   <trkpt lat="59.2940702683" lon="34.6641980518"><ele>163.348</ele><time>2026-08-16T15:04:56.136Z</time><hdop>3.0</hdop><vdop>2.5</vdop><extensions><gom:speed>0.782</gom:speed></extensions></trkpt>
   <trkpt lat="59.2940653649" lon="34.6642154861"><ele>163.477</ele><time>2026-08-16T15:04:57.136Z</time><hdop>3.0</hdop><vdop>2.5</vdop><extensions><gom:speed>0.809</gom:speed></extensions></trkpt>
   <trkpt lat="59.2940625989" lon="34.664228981"><ele>163.553</ele><time>2026-08-16T15:04:57.879Z</time><hdop>3.0</hdop><vdop>2.5</vdop><extensions><gom:speed>0.87</gom:speed></extensions></trkpt>
   <trkpt lat="59.2940598747" lon="34.6642389555"><ele>163.725</ele><time>2026-08-16T15:04:58.438Z</time><hdop>3.0</hdop><vdop>2.5</vdop><extensions><gom:speed>0.889</gom:speed></extensions></trkpt>
   <trkpt lat="59.2940580726" lon="34.6642488461"><ele>163.827</ele><time>2026-08-16T15:04:59.017Z</time><hdop>3.0</hdop><vdop>2.5</vdop><extensions><gom:speed>0.888</gom:speed></extensions></trkpt>
   <trkpt lat="59.2940534626" lon="34.664264185"><ele>164.091</ele><time>2026-08-16T15:04:59.901Z</time><hdop>3.0</hdop><vdop>2.5</vdop><extensions><gom:speed>0.954</gom:speed></extensions></trkpt>
   <trkpt lat="59.2940499841" lon="34.6642760873"><ele>164.068</ele><time>2026-08-16T15:05:00.578Z</time><hdop>3.0</hdop><vdop>2.5</vdop><extensions><gom:speed>0.976</gom:speed></extensions></trkpt>
   <trkpt lat="59.2940474695" lon="34.6642851398"><ele>163.976</ele><time>2026-08-16T15:05:01.136Z</time><hdop>3.0</hdop><vdop>2.5</vdop><extensions><gom:speed>0.967</gom:speed></extensions></trkpt>
   <trkpt lat="59.2940441587" lon="34.6643008977"><ele>163.922</ele><time>2026-08-16T15:05:01.952Z</time><hdop>3.0</hdop><vdop>2.5</vdop><extensions><gom:speed>1.016</gom:speed></extensions></trkpt>
   <trkpt lat="59.2940433624" lon="34.6643094473"><ele>163.879</ele><time>2026-08-16T15:05:02.472Z</time><hdop>3.0</hdop><vdop>2.5</vdop><extensions><gom:speed>1.021</gom:speed></extensions></trkpt>
   <trkpt lat="59.2940436977" lon="34.6643194217"><ele>163.93</ele><time>2026-08-16T15:05:03.136Z</time><hdop>3.0</hdop><vdop>2.5</vdop><extensions><gom:speed>0.96</gom:speed></extensions></trkpt>
   <trkpt lat="59.2940450807" lon="34.6643347606"><ele>164.098</ele><time>2026-08-16T15:05:04.136Z</time><hdop>3.0</hdop><vdop>2.5</vdop><extensions><gom:speed>0.946</gom:speed></extensions></trkpt>
   <trkpt lat="59.2940461703" lon="34.6643486746"><ele>164.199</ele><time>2026-08-16T15:05:04.916Z</time><hdop>3.0</hdop><vdop>2.5</vdop><extensions><gom:speed>0.989</gom:speed></extensions></trkpt>
   <trkpt lat="59.2940484754" lon="34.6643623371"><ele>164.271</ele><time>2026-08-16T15:05:05.760Z</time><hdop>3.0</hdop><vdop>2.5</vdop><extensions><gom:speed>0.998</gom:speed></extensions></trkpt>
   <trkpt lat="59.2940506966" lon="34.6643701322"><ele>164.356</ele><time>2026-08-16T15:05:06.398Z</time><hdop>3.0</hdop><vdop>2.5</vdop><extensions><gom:speed>0.972</gom:speed></extensions></trkpt>
   <trkpt lat="59.2940525825" lon="34.6643800229"><ele>164.406</ele><time>2026-08-16T15:05:06.977Z</time><hdop>3.0</hdop><vdop>2.5</vdop><extensions><gom:speed>0.963</gom:speed></extensions></trkpt>
   <trkpt lat="59.294056061" lon="34.6643923443"><ele>164.715</ele><time>2026-08-16T15:05:07.939Z</time><hdop>3.0</hdop><vdop>2.5</vdop><extensions><gom:speed>0.922</gom:speed></extensions></trkpt>
   <trkpt lat="59.2940550971" lon="34.6644042466"><ele>164.85</ele><time>2026-08-16T15:05:08.862Z</time><hdop>3.0</hdop><vdop>2.5</vdop><extensions><gom:speed>0.876</gom:speed></extensions></trkpt>
   <trkpt lat="59.2940537979" lon="34.6644106168"><ele>164.833</ele><time>2026-08-16T15:05:09.480Z</time><hdop>3.0</hdop><vdop>2.5</vdop><extensions><gom:speed>0.862</gom:speed></extensions></trkpt>
   <trkpt lat="59.2940524987" lon="34.6644185796"><ele>164.781</ele><time>2026-08-16T15:05:10.136Z</time><hdop>3.0</hdop><vdop>2.5</vdop><extensions><gom:speed>0.812</gom:speed></extensions></trkpt>
   <trkpt lat="59.2940502775" lon="34.6644298952"><ele>164.75</ele><time>2026-08-16T15:05:10.913Z</time><hdop>3.0</hdop><vdop>2.5</vdop><extensions><gom:speed>0.833</gom:speed></extensions></trkpt>
   <trkpt lat="59.294046799" lon="34.6644381933"><ele>164.611</ele><time>2026-08-16T15:05:11.698Z</time><hdop>3.0</hdop><vdop>2.5</vdop><extensions><gom:speed>0.84</gom:speed></extensions></trkpt>
   <trkpt lat="59.294043991" lon="34.6644412946"><ele>164.288</ele><time>2026-08-16T15:05:12.238Z</time><hdop>3.0</hdop><vdop>2.5</vdop><extensions><gom:speed>0.785</gom:speed></extensions></trkpt>
   <trkpt lat="59.2940400934" lon="34.6644504309"><ele>164.023</ele><time>2026-08-16T15:05:13.136Z</time><hdop>3.0</hdop><vdop>2.5</vdop><extensions><gom:speed>0.876</gom:speed></extensions></trkpt>
   <trkpt lat="59.294038459" lon="34.6644644287"><ele>163.865</ele><time>2026-08-16T15:05:13.975Z</time><hdop>3.0</hdop><vdop>2.5</vdop><extensions><gom:speed>0.863</gom:speed></extensions></trkpt>
   <trkpt lat="59.2940426918" lon="34.6644747384"><ele>163.649</ele><time>2026-08-16T15:05:14.761Z</time><hdop>3.0</hdop><vdop>2.5</vdop><extensions><gom:speed>0.823</gom:speed></extensions></trkpt>
   <trkpt lat="59.2940462961" lon="34.6644850481"><ele>163.534</ele><time>2026-08-16T15:05:15.781Z</time><hdop>3.0</hdop><vdop>2.5</vdop><extensions><gom:speed>0.72</gom:speed></extensions></trkpt>
   <trkpt lat="59.2940492716" lon="34.66449343"><ele>163.849</ele><time>2026-08-16T15:05:16.616Z</time><hdop>3.0</hdop><vdop>2.5</vdop><extensions><gom:speed>0.707</gom:speed></extensions></trkpt>
   <trkpt lat="59.2940508642" lon="34.6644990459"><ele>163.804</ele><time>2026-08-16T15:05:17.136Z</time><hdop>3.0</hdop><vdop>2.5</vdop><extensions><gom:speed>0.724</gom:speed></extensions></trkpt>
   <trkpt lat="59.2940528759" lon="34.6645119541"><ele>163.777</ele><time>2026-08-16T15:05:18.117Z</time><hdop>3.0</hdop><vdop>2.5</vdop><extensions><gom:speed>0.718</gom:speed></extensions></trkpt>
   <trkpt lat="59.2940519958" lon="34.6645194978"><ele>163.82</ele><time>2026-08-16T15:05:18.873Z</time><hdop>3.0</hdop><vdop>2.5</vdop><extensions><gom:speed>0.656</gom:speed></extensions></trkpt>
   <trkpt lat="59.2940511995" lon="34.6645307295"><ele>163.758</ele><time>2026-08-16T15:05:19.953Z</time><hdop>3.0</hdop><vdop>2.5</vdop><extensions><gom:speed>0.627</gom:speed></extensions></trkpt>
   <trkpt lat="59.2940506966" lon="34.6645387761"><ele>163.594</ele><time>2026-08-16T15:05:20.679Z</time><hdop>3.0</hdop><vdop>2.5</vdop><extensions><gom:speed>0.668</gom:speed></extensions></trkpt>
   <trkpt lat="59.2940509899" lon="34.6645420451"><ele>163.412</ele><time>2026-08-16T15:05:21.136Z</time><hdop>3.0</hdop><vdop>2.5</vdop><extensions><gom:speed>0.505</gom:speed></extensions></trkpt>
   <trkpt lat="59.2940516605" lon="34.6645426318"><ele>163.303</ele><time>2026-08-16T15:05:22.136Z</time><hdop>3.0</hdop><vdop>2.5</vdop><extensions><gom:speed>0.311</gom:speed></extensions></trkpt>
   <trkpt lat="59.2940513671" lon="34.6645385247"><ele>163.281</ele><time>2026-08-16T15:05:23.136Z</time><hdop>3.0</hdop><vdop>2.5</vdop><extensions><gom:speed>0.181</gom:speed></extensions></trkpt>
   <trkpt lat="59.2940502775" lon="34.6645354234"><ele>163.305</ele><time>2026-08-16T15:05:24.136Z</time><hdop>3.0</hdop><vdop>2.5</vdop><extensions><gom:speed>0.098</gom:speed></extensions></trkpt>
   <trkpt lat="59.2940496907" lon="34.6645329926"><ele>163.358</ele><time>2026-08-16T15:05:25.135Z</time><hdop>3.0</hdop><vdop>2.5</vdop><extensions><gom:speed>0.083</gom:speed></extensions></trkpt>
   <trkpt lat="59.2940493974" lon="34.6645318192"><ele>163.436</ele><time>2026-08-16T15:05:26.136Z</time><hdop>3.0</hdop><vdop>2.5</vdop><extensions><gom:speed>0.1</gom:speed></extensions></trkpt>
   <trkpt lat="59.2940485592" lon="34.6645311486"><ele>163.505</ele><time>2026-08-16T15:05:27.136Z</time><hdop>3.0</hdop><vdop>2.5</vdop><extensions><gom:speed>0.093</gom:speed></extensions></trkpt>
   <trkpt lat="59.2940482658" lon="34.6645301428"><ele>163.584</ele><time>2026-08-16T15:05:28.136Z</time><hdop>3.0</hdop><vdop>2.5</vdop><extensions><gom:speed>0.057</gom:speed></extensions></trkpt>
   <trkpt lat="59.2940477629" lon="34.6645296399"><ele>163.659</ele><time>2026-08-16T15:05:29.136Z</time><hdop>3.0</hdop><vdop>2.5</vdop><extensions><gom:speed>0.054</gom:speed></extensions></trkpt>
   <trkpt lat="59.2940469666" lon="34.6645302266"><ele>163.763</ele><time>2026-08-16T15:05:30.136Z</time><hdop>3.0</hdop><vdop>2.5</vdop><extensions><gom:speed>0.081</gom:speed></extensions></trkpt>
   <trkpt lat="59.294045877" lon="34.6645301428"><ele>163.864</ele><time>2026-08-16T15:05:31.136Z</time><hdop>3.0</hdop><vdop>2.5</vdop><extensions><gom:speed>0.095</gom:speed></extensions></trkpt>
   <trkpt lat="59.2940455836" lon="34.6645302266"><ele>163.988</ele><time>2026-08-16T15:05:32.136Z</time><hdop>3.0</hdop><vdop>2.5</vdop><extensions><gom:speed>0.059</gom:speed></extensions></trkpt>
   <trkpt lat="59.294045374" lon="34.664529556"><ele>164.058</ele><time>2026-08-16T15:05:33.136Z</time><hdop>3.0</hdop><vdop>2.5</vdop><extensions><gom:speed>0.058</gom:speed></extensions></trkpt>
   <trkpt lat="59.2940446616" lon="34.6645292208"><ele>164.123</ele><time>2026-08-16T15:05:34.136Z</time><hdop>3.0</hdop><vdop>2.5</vdop><extensions><gom:speed>0.085</gom:speed></extensions></trkpt>
   <trkpt lat="59.2940440749" lon="34.664528634"><ele>164.184</ele><time>2026-08-16T15:05:35.136Z</time><hdop>3.0</hdop><vdop>2.5</vdop><extensions><gom:speed>0.088</gom:speed></extensions></trkpt>
   <trkpt lat="59.2940437815" lon="34.6645283826"><ele>164.262</ele><time>2026-08-16T15:05:36.136Z</time><hdop>3.0</hdop><vdop>2.5</vdop><extensions><gom:speed>0.061</gom:speed></extensions></trkpt>
   <trkpt lat="59.2940429852" lon="34.6645276282"><ele>164.331</ele><time>2026-08-16T15:05:37.136Z</time><hdop>3.0</hdop><vdop>2.5</vdop><extensions><gom:speed>0.061</gom:speed></extensions></trkpt>
   <trkpt lat="59.2940424823" lon="34.6645274606"><ele>164.387</ele><time>2026-08-16T15:05:38.136Z</time><hdop>3.0</hdop><vdop>2.5</vdop><extensions><gom:speed>0.088</gom:speed></extensions></trkpt>
   <trkpt lat="59.2940425661" lon="34.6645271253"><ele>164.434</ele><time>2026-08-16T15:05:39.136Z</time><hdop>3.0</hdop><vdop>2.5</vdop><extensions><gom:speed>0.091</gom:speed></extensions></trkpt>
   <trkpt lat="59.2940423985" lon="34.6645266224"><ele>164.473</ele><time>2026-08-16T15:05:40.136Z</time><hdop>3.0</hdop><vdop>2.5</vdop><extensions><gom:speed>0.0</gom:speed></extensions></trkpt>
   <trkpt lat="59.2940420632" lon="34.6645261195"><ele>164.501</ele><time>2026-08-16T15:05:41.135Z</time><hdop>3.0</hdop><vdop>2.5</vdop><extensions><gom:speed>0.012</gom:speed></extensions></trkpt>
   <trkpt lat="59.2940419794" lon="34.6645261195"><ele>164.512</ele><time>2026-08-16T15:05:42.136Z</time><hdop>3.0</hdop><vdop>2.5</vdop><extensions><gom:speed>0.023</gom:speed></extensions></trkpt>
   <trkpt lat="59.2940419794" lon="34.6645264547"><ele>164.499</ele><time>2026-08-16T15:05:43.136Z</time><hdop>3.0</hdop><vdop>2.5</vdop><extensions><gom:speed>0.028</gom:speed></extensions></trkpt>
   <trkpt lat="59.2940418956" lon="34.6645268738"><ele>164.492</ele><time>2026-08-16T15:05:43.833Z</time><hdop>3.0</hdop><vdop>2.5</vdop><extensions><gom:speed>0.029</gom:speed></extensions></trkpt>
   <trkpt lat="59.2940421889" lon="34.6645289693"><ele>164.346</ele><time>2026-08-16T15:05:44.579Z</time><hdop>3.0</hdop><vdop>2.5</vdop><extensions><gom:speed>0.248</gom:speed></extensions></trkpt>
   <trkpt lat="59.2940425661" lon="34.6645316515"><ele>164.434</ele><time>2026-08-16T15:05:45.136Z</time><hdop>3.0</hdop><vdop>2.5</vdop><extensions><gom:speed>0.51</gom:speed></extensions></trkpt>
   <trkpt lat="59.294043069" lon="34.6645398658"><ele>164.486</ele><time>2026-08-16T15:05:46.080Z</time><hdop>3.0</hdop><vdop>2.5</vdop><extensions><gom:speed>0.526</gom:speed></extensions></trkpt>
   <trkpt lat="59.2940426918" lon="34.6645518519"><ele>164.78</ele><time>2026-08-16T15:05:47.136Z</time><hdop>3.0</hdop><vdop>2.5</vdop><extensions><gom:speed>0.641</gom:speed></extensions></trkpt>
   <trkpt lat="59.294043069" lon="34.6645606529"><ele>164.955</ele><time>2026-08-16T15:05:47.975Z</time><hdop>3.0</hdop><vdop>2.5</vdop><extensions><gom:speed>0.641</gom:speed></extensions></trkpt>
   <trkpt lat="59.2940431948" lon="34.6645761594"><ele>165.206</ele><time>2026-08-16T15:05:48.572Z</time><hdop>3.0</hdop><vdop>2.5</vdop><extensions><gom:speed>0.757</gom:speed></extensions></trkpt>
   <trkpt lat="59.2940431948" lon="34.6645898219"><ele>165.402</ele><time>2026-08-16T15:05:49.136Z</time><hdop>3.0</hdop><vdop>2.5</vdop><extensions><gom:speed>0.779</gom:speed></extensions></trkpt>
   <trkpt lat="59.294043069" lon="34.6646095194"><ele>165.628</ele><time>2026-08-16T15:05:50.136Z</time><hdop>3.0</hdop><vdop>2.5</vdop><extensions><gom:speed>0.737</gom:speed></extensions></trkpt>
   <trkpt lat="59.2940421889" lon="34.6646223437"><ele>165.763</ele><time>2026-08-16T15:05:50.821Z</time><hdop>3.0</hdop><vdop>2.5</vdop><extensions><gom:speed>0.751</gom:speed></extensions></trkpt>
   <trkpt lat="59.2940412669" lon="34.6646322344"><ele>165.786</ele><time>2026-08-16T15:05:51.341Z</time><hdop>3.0</hdop><vdop>2.5</vdop><extensions><gom:speed>0.774</gom:speed></extensions></trkpt>
   <trkpt lat="59.2940385847" lon="34.6646433823"><ele>165.799</ele><time>2026-08-16T15:05:52.156Z</time><hdop>3.062</hdop><vdop>2.5</vdop><extensions><gom:speed>0.764</gom:speed></extensions></trkpt>
   <trkpt lat="59.2940355672" lon="34.6646507584"><ele>165.737</ele><time>2026-08-16T15:05:53.136Z</time><hdop>3.062</hdop><vdop>2.5</vdop><extensions><gom:speed>0.623</gom:speed></extensions></trkpt>
   <trkpt lat="59.2940337651" lon="34.664662493"><ele>165.663</ele><time>2026-08-16T15:05:54.136Z</time><hdop>3.0</hdop><vdop>2.5</vdop><extensions><gom:speed>0.657</gom:speed></extensions></trkpt>
   <trkpt lat="59.2940339747" lon="34.6646720484"><ele>165.619</ele><time>2026-08-16T15:05:54.815Z</time><hdop>3.0</hdop><vdop>2.5</vdop><extensions><gom:speed>0.697</gom:speed></extensions></trkpt>
   <trkpt lat="59.2940348967" lon="34.6646885608"><ele>166.004</ele><time>2026-08-16T15:05:55.660Z</time><hdop>3.0</hdop><vdop>2.5</vdop><extensions><gom:speed>0.782</gom:speed></extensions></trkpt>
   <trkpt lat="59.2940354834" lon="34.6647010498"><ele>166.517</ele><time>2026-08-16T15:05:56.136Z</time><hdop>3.0</hdop><vdop>2.5</vdop><extensions><gom:speed>0.925</gom:speed></extensions></trkpt>
   <trkpt lat="59.2940358606" lon="34.664725944"><ele>166.93</ele><time>2026-08-16T15:05:57.135Z</time><hdop>3.0</hdop><vdop>2.5</vdop><extensions><gom:speed>1.044</gom:speed></extensions></trkpt>
   <trkpt lat="59.2940332622" lon="34.6647505868"><ele>167.159</ele><time>2026-08-16T15:05:58.136Z</time><hdop>3.0</hdop><vdop>2.5</vdop><extensions><gom:speed>1.036</gom:speed></extensions></trkpt>
   <trkpt lat="59.294029197" lon="34.6647740562"><ele>167.374</ele><time>2026-08-16T15:05:59.136Z</time><hdop>3.0</hdop><vdop>2.5</vdop><extensions><gom:speed>1.037</gom:speed></extensions></trkpt>
   <trkpt lat="59.2940286941" lon="34.6647957653"><ele>167.475</ele><time>2026-08-16T15:06:00.136Z</time><hdop>3.0</hdop><vdop>2.5</vdop><extensions><gom:speed>1.02</gom:speed></extensions></trkpt>
   <trkpt lat="59.2940297837" lon="34.6648124453"><ele>167.536</ele><time>2026-08-16T15:06:01.136Z</time><hdop>3.0</hdop><vdop>2.5</vdop><extensions><gom:speed>0.926</gom:speed></extensions></trkpt>
   <trkpt lat="59.2940323821" lon="34.6648228388"><ele>167.642</ele><time>2026-08-16T15:06:01.637Z</time><hdop>3.0</hdop><vdop>2.5</vdop><extensions><gom:speed>0.99</gom:speed></extensions></trkpt>
   <trkpt lat="59.2940346871" lon="34.6648312207"><ele>167.542</ele><time>2026-08-16T15:06:02.136Z</time><hdop>3.0</hdop><vdop>2.5</vdop><extensions><gom:speed>0.97</gom:speed></extensions></trkpt>
   <trkpt lat="59.2940382913" lon="34.664848236"><ele>167.009</ele><time>2026-08-16T15:06:03.136Z</time><hdop>3.0</hdop><vdop>2.5</vdop><extensions><gom:speed>0.954</gom:speed></extensions></trkpt>
   <trkpt lat="59.2940419794" lon="34.664863072"><ele>166.69</ele><time>2026-08-16T15:06:04.041Z</time><hdop>3.0</hdop><vdop>2.5</vdop><extensions><gom:speed>0.899</gom:speed></extensions></trkpt>
   <trkpt lat="59.2940459608" lon="34.6648672629"><ele>166.468</ele><time>2026-08-16T15:06:04.582Z</time><hdop>3.0</hdop><vdop>2.5</vdop><extensions><gom:speed>0.885</gom:speed></extensions></trkpt>
   <trkpt lat="59.294049565" lon="34.6648726273"><ele>166.336</ele><time>2026-08-16T15:06:05.102Z</time><hdop>3.0</hdop><vdop>2.5</vdop><extensions><gom:speed>0.884</gom:speed></extensions></trkpt>
   <trkpt lat="59.2940594976" lon="34.6648760639"><ele>166.452</ele><time>2026-08-16T15:06:06.136Z</time><hdop>3.0</hdop><vdop>2.5</vdop><extensions><gom:speed>0.865</gom:speed></extensions></trkpt>
   <trkpt lat="59.2940630599" lon="34.6648855355"><ele>166.521</ele><time>2026-08-16T15:06:06.898Z</time><hdop>3.0</hdop><vdop>2.5</vdop><extensions><gom:speed>0.828</gom:speed></extensions></trkpt>
   <trkpt lat="59.2940646943" lon="34.664891319"><ele>166.44</ele><time>2026-08-16T15:06:07.516Z</time><hdop>3.0</hdop><vdop>2.5</vdop><extensions><gom:speed>0.814</gom:speed></extensions></trkpt>
   <trkpt lat="59.2940658678" lon="34.6648972701"><ele>166.586</ele><time>2026-08-16T15:06:08.136Z</time><hdop>3.0</hdop><vdop>2.5</vdop><extensions><gom:speed>0.846</gom:speed></extensions></trkpt>
   <trkpt lat="59.2940691787" lon="34.6649081666"><ele>166.725</ele><time>2026-08-16T15:06:09.136Z</time><hdop>3.0</hdop><vdop>2.5</vdop><extensions><gom:speed>0.812</gom:speed></extensions></trkpt>
   <trkpt lat="59.2940739982" lon="34.6649187278"><ele>166.809</ele><time>2026-08-16T15:06:10.137Z</time><hdop>3.0</hdop><vdop>2.5</vdop><extensions><gom:speed>0.769</gom:speed></extensions></trkpt>
   <trkpt lat="59.2940765966" lon="34.6649230864"><ele>166.87</ele><time>2026-08-16T15:06:10.814Z</time><hdop>3.0</hdop><vdop>2.5</vdop><extensions><gom:speed>0.689</gom:speed></extensions></trkpt>
   <trkpt lat="59.2940783987" lon="34.6649314683"><ele>166.742</ele><time>2026-08-16T15:06:11.717Z</time><hdop>3.0</hdop><vdop>2.5</vdop><extensions><gom:speed>0.766</gom:speed></extensions></trkpt>
   <trkpt lat="59.2940803685" lon="34.6649374195"><ele>166.686</ele><time>2026-08-16T15:06:12.218Z</time><hdop>3.0</hdop><vdop>2.5</vdop><extensions><gom:speed>0.821</gom:speed></extensions></trkpt>
   <trkpt lat="59.2940837632" lon="34.6649499923"><ele>166.652</ele><time>2026-08-16T15:06:13.101Z</time><hdop>3.0</hdop><vdop>2.5</vdop><extensions><gom:speed>0.831</gom:speed></extensions></trkpt>
   <trkpt lat="59.2940881637" lon="34.6649533451"><ele>166.553</ele><time>2026-08-16T15:06:13.601Z</time><hdop>3.0</hdop><vdop>2.5</vdop><extensions><gom:speed>0.867</gom:speed></extensions></trkpt>
   <trkpt lat="59.2940916841" lon="34.6649577875"><ele>166.723</ele><time>2026-08-16T15:06:14.136Z</time><hdop>3.0</hdop><vdop>2.5</vdop><extensions><gom:speed>0.848</gom:speed></extensions></trkpt>
   <trkpt lat="59.2940945758" lon="34.664967259"><ele>166.612</ele><time>2026-08-16T15:06:15.135Z</time><hdop>3.0</hdop><vdop>2.5</vdop><extensions><gom:speed>0.764</gom:speed></extensions></trkpt>
   <trkpt lat="59.2940954978" lon="34.6649775688"><ele>166.546</ele><time>2026-08-16T15:06:15.898Z</time><hdop>3.0</hdop><vdop>2.5</vdop><extensions><gom:speed>0.833</gom:speed></extensions></trkpt>
   <trkpt lat="59.2940957912" lon="34.6649853639"><ele>166.391</ele><time>2026-08-16T15:06:16.556Z</time><hdop>3.0</hdop><vdop>2.5</vdop><extensions><gom:speed>0.884</gom:speed></extensions></trkpt>
   <trkpt lat="59.2940957912" lon="34.6649907284"><ele>165.791</ele><time>2026-08-16T15:06:17.136Z</time><hdop>3.0</hdop><vdop>2.5</vdop><extensions><gom:speed>0.871</gom:speed></extensions></trkpt>
   <trkpt lat="59.2940989763" lon="34.6649990264"><ele>165.524</ele><time>2026-08-16T15:06:18.136Z</time><hdop>3.0</hdop><vdop>2.5</vdop><extensions><gom:speed>0.895</gom:speed></extensions></trkpt>
   <trkpt lat="59.2941011975" lon="34.6650044747"><ele>165.365</ele><time>2026-08-16T15:06:18.637Z</time><hdop>3.0</hdop><vdop>2.5</vdop><extensions><gom:speed>0.882</gom:speed></extensions></trkpt>
   <trkpt lat="59.2941026644" lon="34.6650113478"><ele>165.173</ele><time>2026-08-16T15:06:19.136Z</time><hdop>3.0</hdop><vdop>2.5</vdop><extensions><gom:speed>0.926</gom:speed></extensions></trkpt>
   <trkpt lat="59.2941013652" lon="34.665027022"><ele>165.059</ele><time>2026-08-16T15:06:20.061Z</time><hdop>3.0</hdop><vdop>2.5</vdop><extensions><gom:speed>0.907</gom:speed></extensions></trkpt>
   <trkpt lat="59.2940994792" lon="34.6650328893"><ele>164.813</ele><time>2026-08-16T15:06:20.581Z</time><hdop>3.0</hdop><vdop>2.5</vdop><extensions><gom:speed>0.884</gom:speed></extensions></trkpt>
   <trkpt lat="59.2940969647" lon="34.6650382538"><ele>164.783</ele><time>2026-08-16T15:06:21.135Z</time><hdop>3.0</hdop><vdop>2.5</vdop><extensions><gom:speed>0.834</gom:speed></extensions></trkpt>
   <trkpt lat="59.2940916841" lon="34.6650471386"><ele>164.795</ele><time>2026-08-16T15:06:22.136Z</time><hdop>3.0</hdop><vdop>2.5</vdop><extensions><gom:speed>0.708</gom:speed></extensions></trkpt>
   <trkpt lat="59.2940888761" lon="34.6650525868"><ele>164.847</ele><time>2026-08-16T15:06:23.136Z</time><hdop>3.0</hdop><vdop>2.5</vdop><extensions><gom:speed>0.519</gom:speed></extensions></trkpt>
   <trkpt lat="59.2940890857" lon="34.6650571969"><ele>164.878</ele><time>2026-08-16T15:06:23.801Z</time><hdop>3.0</hdop><vdop>2.5</vdop><extensions><gom:speed>0.526</gom:speed></extensions></trkpt>
   <trkpt lat="59.2940884989" lon="34.6650541794"><ele>164.878</ele><time>2026-08-16T15:06:24.321Z</time><hdop>3.0</hdop><vdop>2.5</vdop><extensions><gom:speed>0.402</gom:speed></extensions></trkpt>
   <trkpt lat="59.2940883732" lon="34.6650549337"><ele>164.878</ele><time>2026-08-16T15:06:24.880Z</time><hdop>3.0</hdop><vdop>2.5</vdop><extensions><gom:speed>0.322</gom:speed></extensions></trkpt>
   <trkpt lat="59.2940855653" lon="34.6650613878"><ele>164.977</ele><time>2026-08-16T15:06:25.940Z</time><hdop>3.0</hdop><vdop>2.5</vdop><extensions><gom:speed>0.396</gom:speed></extensions></trkpt>
   <trkpt lat="59.2940823802" lon="34.6650708594"><ele>165.046</ele><time>2026-08-16T15:06:26.598Z</time><hdop>3.0</hdop><vdop>2.5</vdop><extensions><gom:speed>0.568</gom:speed></extensions></trkpt>
   <trkpt lat="59.294080578" lon="34.6650786545"><ele>165.001</ele><time>2026-08-16T15:06:27.136Z</time><hdop>3.0</hdop><vdop>2.5</vdop><extensions><gom:speed>0.621</gom:speed></extensions></trkpt>
   <trkpt lat="59.2940799913" lon="34.6650909759"><ele>164.975</ele><time>2026-08-16T15:06:27.893Z</time><hdop>3.0</hdop><vdop>2.5</vdop><extensions><gom:speed>0.696</gom:speed></extensions></trkpt>
   <trkpt lat="59.2940796979" lon="34.6651054766"><ele>164.889</ele><time>2026-08-16T15:06:28.659Z</time><hdop>3.0</hdop><vdop>2.5</vdop><extensions><gom:speed>0.849</gom:speed></extensions></trkpt>
   <trkpt lat="59.2940793627" lon="34.665115032"><ele>164.728</ele><time>2026-08-16T15:06:29.136Z</time><hdop>3.0</hdop><vdop>2.5</vdop><extensions><gom:speed>0.905</gom:speed></extensions></trkpt>
   <trkpt lat="59.2940774767" lon="34.6651341427"><ele>164.714</ele><time>2026-08-16T15:06:30.136Z</time><hdop>3.0</hdop><vdop>2.5</vdop><extensions><gom:speed>0.945</gom:speed></extensions></trkpt>
   <trkpt lat="59.2940733696" lon="34.6651522476"><ele>164.841</ele><time>2026-08-16T15:06:31.136Z</time><hdop>3.0</hdop><vdop>2.5</vdop><extensions><gom:speed>0.941</gom:speed></extensions></trkpt>
   <trkpt lat="59.2940691787" lon="34.665163647"><ele>164.917</ele><time>2026-08-16T15:06:31.918Z</time><hdop>3.0</hdop><vdop>2.5</vdop><extensions><gom:speed>0.931</gom:speed></extensions></trkpt>
   <trkpt lat="59.2940676699" lon="34.665177561"><ele>164.858</ele><time>2026-08-16T15:06:32.840Z</time><hdop>3.0</hdop><vdop>2.5</vdop><extensions><gom:speed>0.874</gom:speed></extensions></trkpt>
   <trkpt lat="59.2940695977" lon="34.6651898824"><ele>164.924</ele><time>2026-08-16T15:06:33.400Z</time><hdop>3.0</hdop><vdop>2.5</vdop><extensions><gom:speed>1.007</gom:speed></extensions></trkpt>
   <trkpt lat="59.2940677956" lon="34.6652007789"><ele>164.545</ele><time>2026-08-16T15:06:34.136Z</time><hdop>3.0</hdop><vdop>2.5</vdop><extensions><gom:speed>0.943</gom:speed></extensions></trkpt>
   <trkpt lat="59.2940650715" lon="34.6652108371"><ele>164.319</ele><time>2026-08-16T15:06:34.833Z</time><hdop>3.0</hdop><vdop>2.5</vdop><extensions><gom:speed>0.936</gom:speed></extensions></trkpt>
   <trkpt lat="59.2940645686" lon="34.665219219"><ele>164.605</ele><time>2026-08-16T15:06:35.500Z</time><hdop>3.0</hdop><vdop>2.5</vdop><extensions><gom:speed>0.904</gom:speed></extensions></trkpt>
   <trkpt lat="59.2940635628" lon="34.6652291935"><ele>164.775</ele><time>2026-08-16T15:06:36.099Z</time><hdop>3.0</hdop><vdop>2.5</vdop><extensions><gom:speed>0.902</gom:speed></extensions></trkpt>
   <trkpt lat="59.2940617607" lon="34.6652385812"><ele>164.833</ele><time>2026-08-16T15:06:36.776Z</time><hdop>3.0</hdop><vdop>2.5</vdop><extensions><gom:speed>0.914</gom:speed></extensions></trkpt>
   <trkpt lat="59.2940570668" lon="34.6652545907"><ele>164.901</ele><time>2026-08-16T15:06:37.993Z</time><hdop>3.0</hdop><vdop>2.5</vdop><extensions><gom:speed>0.936</gom:speed></extensions></trkpt>
   <trkpt lat="59.2940548875" lon="34.6652653195"><ele>165.002</ele><time>2026-08-16T15:06:38.700Z</time><hdop>3.0</hdop><vdop>2.5</vdop><extensions><gom:speed>0.99</gom:speed></extensions></trkpt>
   <trkpt lat="59.2940553904" lon="34.6652895432"><ele>165.075</ele><time>2026-08-16T15:06:40.136Z</time><hdop>3.0</hdop><vdop>2.5</vdop><extensions><gom:speed>0.947</gom:speed></extensions></trkpt>
   <trkpt lat="59.2940586594" lon="34.6653065585"><ele>165.196</ele><time>2026-08-16T15:06:41.136Z</time><hdop>3.0</hdop><vdop>2.5</vdop><extensions><gom:speed>0.943</gom:speed></extensions></trkpt>
   <trkpt lat="59.2940604615" lon="34.6653168682"><ele>165.268</ele><time>2026-08-16T15:06:41.733Z</time><hdop>3.0</hdop><vdop>2.5</vdop><extensions><gom:speed>0.926</gom:speed></extensions></trkpt>
   <trkpt lat="59.2940614673" lon="34.6653274294"><ele>165.345</ele><time>2026-08-16T15:06:42.536Z</time><hdop>3.0</hdop><vdop>2.5</vdop><extensions><gom:speed>0.863</gom:speed></extensions></trkpt>
   <trkpt lat="59.2940604615" lon="34.6653373201"><ele>165.633</ele><time>2026-08-16T15:06:43.136Z</time><hdop>3.0</hdop><vdop>2.5</vdop><extensions><gom:speed>0.942</gom:speed></extensions></trkpt>
   <trkpt lat="59.2940580726" lon="34.6653501444"><ele>165.804</ele><time>2026-08-16T15:06:43.853Z</time><hdop>3.0</hdop><vdop>2.5</vdop><extensions><gom:speed>0.913</gom:speed></extensions></trkpt>
   <trkpt lat="59.2940548875" lon="34.6653633878"><ele>165.674</ele><time>2026-08-16T15:06:44.618Z</time><hdop>3.0</hdop><vdop>2.5</vdop><extensions><gom:speed>0.944</gom:speed></extensions></trkpt>
   <trkpt lat="59.294054175" lon="34.6653724402"><ele>165.602</ele><time>2026-08-16T15:06:45.136Z</time><hdop>3.0</hdop><vdop>2.5</vdop><extensions><gom:speed>0.947</gom:speed></extensions></trkpt>
   <trkpt lat="59.2940542589" lon="34.6653861866"><ele>165.559</ele><time>2026-08-16T15:06:45.855Z</time><hdop>3.0</hdop><vdop>2.5</vdop><extensions><gom:speed>0.942</gom:speed></extensions></trkpt>
   <trkpt lat="59.2940549713" lon="34.665393395"><ele>165.22</ele><time>2026-08-16T15:06:46.375Z</time><hdop>3.0</hdop><vdop>2.5</vdop><extensions><gom:speed>0.912</gom:speed></extensions></trkpt>
   <trkpt lat="59.2940554742" lon="34.6654014416"><ele>165.017</ele><time>2026-08-16T15:06:46.856Z</time><hdop>3.0</hdop><vdop>2.5</vdop><extensions><gom:speed>0.912</gom:speed></extensions></trkpt>
   <trkpt lat="59.2940559772" lon="34.6654130925"><ele>164.739</ele><time>2026-08-16T15:06:47.818Z</time><hdop>3.0</hdop><vdop>2.5</vdop><extensions><gom:speed>0.846</gom:speed></extensions></trkpt>
   <trkpt lat="59.294054678" lon="34.6654210553"><ele>164.564</ele><time>2026-08-16T15:06:48.652Z</time><hdop>3.0</hdop><vdop>2.5</vdop><extensions><gom:speed>0.827</gom:speed></extensions></trkpt>
   <trkpt lat="59.2940530854" lon="34.6654270902"><ele>163.947</ele><time>2026-08-16T15:06:49.136Z</time><hdop>3.0</hdop><vdop>2.5</vdop><extensions><gom:speed>0.89</gom:speed></extensions></trkpt>
   <trkpt lat="59.2940508642" lon="34.665440166"><ele>163.579</ele><time>2026-08-16T15:06:49.958Z</time><hdop>3.0</hdop><vdop>2.5</vdop><extensions><gom:speed>0.901</gom:speed></extensions></trkpt>
   <trkpt lat="59.2940500679" lon="34.6654451952"><ele>163.342</ele><time>2026-08-16T15:06:50.458Z</time><hdop>3.0</hdop><vdop>2.5</vdop><extensions><gom:speed>0.849</gom:speed></extensions></trkpt>
   <trkpt lat="59.2940487687" lon="34.6654549182"><ele>163.165</ele><time>2026-08-16T15:06:51.136Z</time><hdop>3.0</hdop><vdop>2.5</vdop><extensions><gom:speed>0.873</gom:speed></extensions></trkpt>
   <trkpt lat="59.2940463799" lon="34.6654685807"><ele>162.911</ele><time>2026-08-16T15:06:52.136Z</time><hdop>3.0</hdop><vdop>2.5</vdop><extensions><gom:speed>0.778</gom:speed></extensions></trkpt>
   <trkpt lat="59.2940433624" lon="34.6654779684"><ele>162.758</ele><time>2026-08-16T15:06:52.853Z</time><hdop>3.0</hdop><vdop>2.5</vdop><extensions><gom:speed>0.825</gom:speed></extensions></trkpt>
   <trkpt lat="59.2940415603" lon="34.6654921338"><ele>162.528</ele><time>2026-08-16T15:06:53.717Z</time><hdop>3.0</hdop><vdop>2.5</vdop><extensions><gom:speed>0.946</gom:speed></extensions></trkpt>
   <trkpt lat="59.2940436977" lon="34.6654995937"><ele>162.297</ele><time>2026-08-16T15:06:54.453Z</time><hdop>3.0</hdop><vdop>2.5</vdop><extensions><gom:speed>0.832</gom:speed></extensions></trkpt>
   <trkpt lat="59.2940457931" lon="34.6655051258"><ele>162.276</ele><time>2026-08-16T15:06:55.136Z</time><hdop>3.0</hdop><vdop>2.5</vdop><extensions><gom:speed>0.744</gom:speed></extensions></trkpt>
   <trkpt lat="59.2940448711" lon="34.6655154355"><ele>162.263</ele><time>2026-08-16T15:06:56.121Z</time><hdop>3.0</hdop><vdop>2.5</vdop><extensions><gom:speed>0.72</gom:speed></extensions></trkpt>
   <trkpt lat="59.2940440749" lon="34.665514262"><ele>162.235</ele><time>2026-08-16T15:06:57.034Z</time><hdop>3.0</hdop><vdop>2.5</vdop><extensions><gom:speed>0.567</gom:speed></extensions></trkpt>
   <trkpt lat="59.2940446616" lon="34.6655145973"><ele>162.121</ele><time>2026-08-16T15:06:58.136Z</time><hdop>3.0</hdop><vdop>2.5</vdop><extensions><gom:speed>0.541</gom:speed></extensions></trkpt>
   <trkpt lat="59.294045374" lon="34.6655172795"><ele>162.053</ele><time>2026-08-16T15:06:58.595Z</time><hdop>3.0</hdop><vdop>2.5</vdop><extensions><gom:speed>0.489</gom:speed></extensions></trkpt>
   <trkpt lat="59.2940459608" lon="34.665520297"><ele>161.864</ele><time>2026-08-16T15:06:59.136Z</time><hdop>3.0</hdop><vdop>2.5</vdop><extensions><gom:speed>0.457</gom:speed></extensions></trkpt>
   <trkpt lat="59.2940454998" lon="34.6655287627"><ele>161.691</ele><time>2026-08-16T15:07:00.136Z</time><hdop>3.0</hdop><vdop>2.5</vdop><extensions><gom:speed>0.518</gom:speed></extensions></trkpt>
   <trkpt lat="59.2940419794" lon="34.6655364741"><ele>161.489</ele><time>2026-08-16T15:07:01.136Z</time><hdop>3.0</hdop><vdop>2.5</vdop><extensions><gom:speed>0.495</gom:speed></extensions></trkpt>
   <trkpt lat="59.2940417698" lon="34.6655434311"><ele>161.367</ele><time>2026-08-16T15:07:02.079Z</time><hdop>3.0</hdop><vdop>2.5</vdop><extensions><gom:speed>0.452</gom:speed></extensions></trkpt>
   <trkpt lat="59.2940411831" lon="34.665557345"><ele>161.348</ele><time>2026-08-16T15:07:02.717Z</time><hdop>3.0</hdop><vdop>2.5</vdop><extensions><gom:speed>0.689</gom:speed></extensions></trkpt>
   <trkpt lat="59.2940395905" lon="34.6655686606"><ele>161.458</ele><time>2026-08-16T15:07:03.561Z</time><hdop>3.0</hdop><vdop>2.5</vdop><extensions><gom:speed>0.638</gom:speed></extensions></trkpt>
   <trkpt lat="59.2940375789" lon="34.6655735221"><ele>161.41</ele><time>2026-08-16T15:07:04.136Z</time><hdop>3.0</hdop><vdop>2.5</vdop><extensions><gom:speed>0.553</gom:speed></extensions></trkpt>
   <trkpt lat="59.2940330946" lon="34.6655816525"><ele>161.619</ele><time>2026-08-16T15:07:05.136Z</time><hdop>3.0</hdop><vdop>2.5</vdop><extensions><gom:speed>0.614</gom:speed></extensions></trkpt>
   <trkpt lat="59.2940281911" lon="34.6655898668"><ele>161.716</ele><time>2026-08-16T15:07:06.136Z</time><hdop>3.0</hdop><vdop>2.5</vdop><extensions><gom:speed>0.556</gom:speed></extensions></trkpt>
   <trkpt lat="59.2940249641" lon="34.6655941416"><ele>161.775</ele><time>2026-08-16T15:07:06.781Z</time><hdop>3.0</hdop><vdop>2.5</vdop><extensions><gom:speed>0.561</gom:speed></extensions></trkpt>
   <trkpt lat="59.2940209827" lon="34.6655961532"><ele>161.584</ele><time>2026-08-16T15:07:07.301Z</time><hdop>3.0</hdop><vdop>2.5</vdop><extensions><gom:speed>0.584</gom:speed></extensions></trkpt>
   <trkpt lat="59.2940136905" lon="34.6655984163"><ele>161.258</ele><time>2026-08-16T15:07:08.136Z</time><hdop>3.0</hdop><vdop>2.5</vdop><extensions><gom:speed>0.729</gom:speed></extensions></trkpt>
   <trkpt lat="59.2940094995" lon="34.6655989193"><ele>161.064</ele><time>2026-08-16T15:07:08.596Z</time><hdop>3.0</hdop><vdop>2.5</vdop><extensions><gom:speed>0.739</gom:speed></extensions></trkpt>
   <trkpt lat="59.2940046799" lon="34.6656005956"><ele>160.735</ele><time>2026-08-16T15:07:09.136Z</time><hdop>3.0</hdop><vdop>2.5</vdop><extensions><gom:speed>0.712</gom:speed></extensions></trkpt>
   <trkpt lat="59.293997681" lon="34.6656084746"><ele>160.522</ele><time>2026-08-16T15:07:10.136Z</time><hdop>3.0</hdop><vdop>2.5</vdop><extensions><gom:speed>0.741</gom:speed></extensions></trkpt>
   <trkpt lat="59.2939943702" lon="34.665619874"><ele>160.464</ele><time>2026-08-16T15:07:11.136Z</time><hdop>3.0</hdop><vdop>2.5</vdop><extensions><gom:speed>0.777</gom:speed></extensions></trkpt>
   <trkpt lat="59.293996759" lon="34.6656266634"><ele>161.209</ele><time>2026-08-16T15:07:12.136Z</time><hdop>3.0</hdop><vdop>2.5</vdop><extensions><gom:speed>0.696</gom:speed></extensions></trkpt>
   <trkpt lat="59.2939978906" lon="34.6656278368"><ele>161.654</ele><time>2026-08-16T15:07:12.600Z</time><hdop>3.0</hdop><vdop>2.5</vdop><extensions><gom:speed>0.652</gom:speed></extensions></trkpt>
   <trkpt lat="59.2939997765" lon="34.665631944"><ele>162.032</ele><time>2026-08-16T15:07:13.136Z</time><hdop>3.0</hdop><vdop>2.5</vdop><extensions><gom:speed>0.608</gom:speed></extensions></trkpt>
   <trkpt lat="59.2940010757" lon="34.6656349614"><ele>162.258</ele><time>2026-08-16T15:07:14.093Z</time><hdop>3.062</hdop><vdop>2.5</vdop><extensions><gom:speed>0.524</gom:speed></extensions></trkpt>
   <trkpt lat="59.2940076974" lon="34.6656500489"><ele>162.757</ele><time>2026-08-16T15:07:15.136Z</time><hdop>3.125</hdop><vdop>2.5</vdop><extensions><gom:speed>0.578</gom:speed></extensions></trkpt>
   <trkpt lat="59.2940103796" lon="34.6656564191"><ele>162.98</ele><time>2026-08-16T15:07:16.136Z</time><hdop>3.187</hdop><vdop>2.5</vdop><extensions><gom:speed>0.469</gom:speed></extensions></trkpt>
   <trkpt lat="59.294018091" lon="34.6656524796"><ele>162.554</ele><time>2026-08-16T15:07:17.136Z</time><hdop>3.25</hdop><vdop>2.5</vdop><extensions><gom:speed>0.69</gom:speed></extensions></trkpt>
   <trkpt lat="59.2940262633" lon="34.6656434272"><ele>162.813</ele><time>2026-08-16T15:07:18.136Z</time><hdop>3.25</hdop><vdop>2.5</vdop><extensions><gom:speed>0.69</gom:speed></extensions></trkpt>
   <trkpt lat="59.2940308734" lon="34.6656461932"><ele>162.968</ele><time>2026-08-16T15:07:18.981Z</time><hdop>3.25</hdop><vdop>2.5</vdop><extensions><gom:speed>0.562</gom:speed></extensions></trkpt>
   <trkpt lat="59.2940357768" lon="34.6656560838"><ele>163.213</ele><time>2026-08-16T15:07:20.136Z</time><hdop>3.187</hdop><vdop>2.5</vdop><extensions><gom:speed>0.558</gom:speed></extensions></trkpt>
   <trkpt lat="59.2940360701" lon="34.66566807"><ele>162.964</ele><time>2026-08-16T15:07:21.136Z</time><hdop>3.062</hdop><vdop>2.5</vdop><extensions><gom:speed>0.541</gom:speed></extensions></trkpt>
   <trkpt lat="59.2940359863" lon="34.6656786312"><ele>162.816</ele><time>2026-08-16T15:07:21.915Z</time><hdop>3.062</hdop><vdop>2.5</vdop><extensions><gom:speed>0.628</gom:speed></extensions></trkpt>
   <trkpt lat="59.2940325916" lon="34.6656891924"><ele>162.548</ele><time>2026-08-16T15:07:22.534Z</time><hdop>3.062</hdop><vdop>2.5</vdop><extensions><gom:speed>0.787</gom:speed></extensions></trkpt>
   <trkpt lat="59.2940289874" lon="34.6656969875"><ele>162.249</ele><time>2026-08-16T15:07:23.136Z</time><hdop>3.062</hdop><vdop>2.5</vdop><extensions><gom:speed>0.776</gom:speed></extensions></trkpt>
   <trkpt lat="59.2940252994" lon="34.6657010947"><ele>162.071</ele><time>2026-08-16T15:07:24.016Z</time><hdop>3.062</hdop><vdop>2.5</vdop><extensions><gom:speed>0.845</gom:speed></extensions></trkpt>
   <trkpt lat="59.2940195997" lon="34.6657154277"><ele>162.149</ele><time>2026-08-16T15:07:24.821Z</time><hdop>3.187</hdop><vdop>2.5</vdop><extensions><gom:speed>0.879</gom:speed></extensions></trkpt>
   <trkpt lat="59.2940137743" lon="34.6657325268"><ele>162.067</ele><time>2026-08-16T15:07:25.459Z</time><hdop>3.25</hdop><vdop>2.5</vdop><extensions><gom:speed>0.856</gom:speed></extensions></trkpt>
   <trkpt lat="59.294008787" lon="34.6657465246"><ele>161.911</ele><time>2026-08-16T15:07:26.136Z</time><hdop>3.25</hdop><vdop>2.5</vdop><extensions><gom:speed>0.82</gom:speed></extensions></trkpt>
   <trkpt lat="59.2940032969" lon="34.6657560799"><ele>161.817</ele><time>2026-08-16T15:07:26.882Z</time><hdop>3.312</hdop><vdop>2.5</vdop><extensions><gom:speed>0.865</gom:speed></extensions></trkpt>
   <trkpt lat="59.293999986" lon="34.6657674793"><ele>161.595</ele><time>2026-08-16T15:07:27.559Z</time><hdop>3.312</hdop><vdop>2.5</vdop><extensions><gom:speed>1.081</gom:speed></extensions></trkpt>
   <trkpt lat="59.2940002794" lon="34.6657760289"><ele>161.667</ele><time>2026-08-16T15:07:28.136Z</time><hdop>3.312</hdop><vdop>2.687</vdop><extensions><gom:speed>0.86</gom:speed></extensions></trkpt>
   <trkpt lat="59.2940013691" lon="34.6657941338"><ele>161.498</ele><time>2026-08-16T15:07:29.136Z</time><hdop>3.25</hdop><vdop>2.562</vdop><extensions><gom:speed>0.844</gom:speed></extensions></trkpt>
   <trkpt lat="59.2940016624" lon="34.6658039406"><ele>161.396</ele><time>2026-08-16T15:07:29.738Z</time><hdop>3.25</hdop><vdop>2.562</vdop><extensions><gom:speed>0.918</gom:speed></extensions></trkpt>
   <trkpt lat="59.2940030873" lon="34.6658272423"><ele>161.349</ele><time>2026-08-16T15:07:30.474Z</time><hdop>3.125</hdop><vdop>2.5</vdop><extensions><gom:speed>0.936</gom:speed></extensions></trkpt>
   <trkpt lat="59.294004177" lon="34.6658362948"><ele>161.321</ele><time>2026-08-16T15:07:30.955Z</time><hdop>3.187</hdop><vdop>2.5</vdop><extensions><gom:speed>0.944</gom:speed></extensions></trkpt>
   <trkpt lat="59.2940044704" lon="34.6658580877"><ele>161.045</ele><time>2026-08-16T15:07:31.819Z</time><hdop>3.187</hdop><vdop>2.562</vdop><extensions><gom:speed>0.942</gom:speed></extensions></trkpt>
   <trkpt lat="59.2940036741" lon="34.6658730913"><ele>160.989</ele><time>2026-08-16T15:07:32.359Z</time><hdop>3.187</hdop><vdop>2.5</vdop><extensions><gom:speed>0.993</gom:speed></extensions></trkpt>
   <trkpt lat="59.2940028778" lon="34.6658914477"><ele>160.823</ele><time>2026-08-16T15:07:33.136Z</time><hdop>3.187</hdop><vdop>2.5</vdop><extensions><gom:speed>0.985</gom:speed></extensions></trkpt>
   <trkpt lat="59.2940032969" lon="34.6659029309"><ele>160.724</ele><time>2026-08-16T15:07:33.654Z</time><hdop>3.187</hdop><vdop>2.5</vdop><extensions><gom:speed>1.014</gom:speed></extensions></trkpt>
   <trkpt lat="59.2940029616" lon="34.6659136597"><ele>160.421</ele><time>2026-08-16T15:07:34.136Z</time><hdop>3.187</hdop><vdop>2.5</vdop><extensions><gom:speed>0.974</gom:speed></extensions></trkpt>
   <trkpt lat="59.2940043865" lon="34.6659335248"><ele>159.93</ele><time>2026-08-16T15:07:35.136Z</time><hdop>3.125</hdop><vdop>2.5</vdop><extensions><gom:speed>0.96</gom:speed></extensions></trkpt>
   <trkpt lat="59.2940080746" lon="34.6659472712"><ele>159.637</ele><time>2026-08-16T15:07:36.000Z</time><hdop>3.062</hdop><vdop>2.5</vdop><extensions><gom:speed>0.907</gom:speed></extensions></trkpt>
   <trkpt lat="59.2940102958" lon="34.6659610175"><ele>159.513</ele><time>2026-08-16T15:07:36.717Z</time><hdop>3.062</hdop><vdop>2.5</vdop><extensions><gom:speed>0.923</gom:speed></extensions></trkpt>
   <trkpt lat="59.2940118883" lon="34.665976524"><ele>159.55</ele><time>2026-08-16T15:07:37.374Z</time><hdop>3.0</hdop><vdop>2.5</vdop><extensions><gom:speed>0.964</gom:speed></extensions></trkpt>
   <trkpt lat="59.2940144867" lon="34.6659927849"><ele>159.774</ele><time>2026-08-16T15:07:38.136Z</time><hdop>3.0</hdop><vdop>2.5</vdop><extensions><gom:speed>0.966</gom:speed></extensions></trkpt>
   <trkpt lat="59.2940159955" lon="34.6660018373"><ele>159.908</ele><time>2026-08-16T15:07:38.660Z</time><hdop>3.0</hdop><vdop>2.5</vdop><extensions><gom:speed>0.928</gom:speed></extensions></trkpt>
   <trkpt lat="59.2940154926" lon="34.66601265"><ele>160.225</ele><time>2026-08-16T15:07:39.136Z</time><hdop>3.0</hdop><vdop>2.5</vdop><extensions><gom:speed>0.95</gom:speed></extensions></trkpt>
   <trkpt lat="59.2940151992" lon="34.66602933"><ele>160.414</ele><time>2026-08-16T15:07:39.975Z</time><hdop>3.0</hdop><vdop>2.5</vdop><extensions><gom:speed>0.946</gom:speed></extensions></trkpt>
   <trkpt lat="59.2940147801" lon="34.6660433278"><ele>160.519</ele><time>2026-08-16T15:07:40.495Z</time><hdop>3.0</hdop><vdop>2.5</vdop><extensions><gom:speed>0.986</gom:speed></extensions></trkpt>
   <trkpt lat="59.2940161631" lon="34.6660562359"><ele>160.424</ele><time>2026-08-16T15:07:41.136Z</time><hdop>3.0</hdop><vdop>2.5</vdop><extensions><gom:speed>0.969</gom:speed></extensions></trkpt>
   <trkpt lat="59.2940190968" lon="34.6660688926"><ele>160.368</ele><time>2026-08-16T15:07:41.781Z</time><hdop>3.0</hdop><vdop>2.5</vdop><extensions><gom:speed>1.014</gom:speed></extensions></trkpt>
   <trkpt lat="59.2940212761" lon="34.6660840638"><ele>160.417</ele><time>2026-08-16T15:07:42.537Z</time><hdop>3.0</hdop><vdop>2.5</vdop><extensions><gom:speed>1.06</gom:speed></extensions></trkpt>
   <trkpt lat="59.2940234973" lon="34.6660959661"><ele>160.446</ele><time>2026-08-16T15:07:43.116Z</time><hdop>3.0</hdop><vdop>2.5</vdop><extensions><gom:speed>1.058</gom:speed></extensions></trkpt>
   <trkpt lat="59.2940224915" lon="34.6661097963"><ele>160.71</ele><time>2026-08-16T15:07:43.754Z</time><hdop>3.0</hdop><vdop>2.5</vdop><extensions><gom:speed>1.037</gom:speed></extensions></trkpt>
   <trkpt lat="59.2940177976" lon="34.6661268953"><ele>160.9</ele><time>2026-08-16T15:07:45.138Z</time><hdop>3.0</hdop><vdop>2.5</vdop><extensions><gom:speed>1.031</gom:speed></extensions></trkpt>
   <trkpt lat="59.2940147801" lon="34.666133517"><ele>160.982</ele><time>2026-08-16T15:07:45.795Z</time><hdop>3.062</hdop><vdop>2.5</vdop><extensions><gom:speed>0.956</gom:speed></extensions></trkpt>
   <trkpt lat="59.2940095833" lon="34.6661458384"><ele>161.115</ele><time>2026-08-16T15:07:46.738Z</time><hdop>3.187</hdop><vdop>2.5</vdop><extensions><gom:speed>0.913</gom:speed></extensions></trkpt>
   <trkpt lat="59.2940091642" lon="34.6661639433"><ele>161.074</ele><time>2026-08-16T15:07:47.700Z</time><hdop>3.375</hdop><vdop>2.5</vdop><extensions><gom:speed>0.886</gom:speed></extensions></trkpt>
   <trkpt lat="59.294018091" lon="34.6661870774"><ele>160.877</ele><time>2026-08-16T15:07:48.593Z</time><hdop>3.5</hdop><vdop>2.5</vdop><extensions><gom:speed>1.062</gom:speed></extensions></trkpt>
   <trkpt lat="59.2940261795" lon="34.6662024163"><ele>160.718</ele><time>2026-08-16T15:07:49.136Z</time><hdop>3.5</hdop><vdop>2.5</vdop><extensions><gom:speed>1.333</gom:speed></extensions></trkpt>
   <trkpt lat="59.2940377884" lon="34.666215995"><ele>160.623</ele><time>2026-08-16T15:07:50.075Z</time><hdop>3.562</hdop><vdop>2.5</vdop><extensions><gom:speed>1.196</gom:speed></extensions></trkpt>
   <trkpt lat="59.2940459608" lon="34.6662228681"><ele>159.687</ele><time>2026-08-16T15:07:50.654Z</time><hdop>3.5</hdop><vdop>2.5</vdop><extensions><gom:speed>1.162</gom:speed></extensions></trkpt>
   <trkpt lat="59.2940509899" lon="34.6662274782"><ele>159.025</ele><time>2026-08-16T15:07:51.136Z</time><hdop>3.5</hdop><vdop>2.5</vdop><extensions><gom:speed>1.062</gom:speed></extensions></trkpt>
   <trkpt lat="59.2940572764" lon="34.666237285"><ele>158.629</ele><time>2026-08-16T15:07:51.940Z</time><hdop>3.375</hdop><vdop>2.5</vdop><extensions><gom:speed>1.025</gom:speed></extensions></trkpt>
   <trkpt lat="59.2940641914" lon="34.6662437391"><ele>158.506</ele><time>2026-08-16T15:07:52.833Z</time><hdop>3.25</hdop><vdop>2.5</vdop><extensions><gom:speed>0.944</gom:speed></extensions></trkpt>
   <trkpt lat="59.2940683824" lon="34.6662432362"><ele>158.284</ele><time>2026-08-16T15:07:53.314Z</time><hdop>3.187</hdop><vdop>2.5</vdop><extensions><gom:speed>0.886</gom:speed></extensions></trkpt>
   <trkpt lat="59.2940757584" lon="34.6662431523"><ele>158.145</ele><time>2026-08-16T15:07:54.136Z</time><hdop>3.062</hdop><vdop>2.5</vdop><extensions><gom:speed>0.868</gom:speed></extensions></trkpt>
   <trkpt lat="59.2940850624" lon="34.6662355248"><ele>157.856</ele><time>2026-08-16T15:07:55.136Z</time><hdop>3.0</hdop><vdop>2.5</vdop><extensions><gom:speed>0.895</gom:speed></extensions></trkpt>
   <trkpt lat="59.29409357" lon="34.6662258856"><ele>157.684</ele><time>2026-08-16T15:07:56.082Z</time><hdop>3.0</hdop><vdop>2.5</vdop><extensions><gom:speed>0.924</gom:speed></extensions></trkpt>
   <trkpt lat="59.2940988925" lon="34.6662228681"><ele>157.463</ele><time>2026-08-16T15:07:56.602Z</time><hdop>3.0</hdop><vdop>2.5</vdop><extensions><gom:speed>0.964</gom:speed></extensions></trkpt>
   <trkpt lat="59.2941036702" lon="34.6662248798"><ele>157.499</ele><time>2026-08-16T15:07:57.136Z</time><hdop>3.0</hdop><vdop>2.5</vdop><extensions><gom:speed>0.983</gom:speed></extensions></trkpt>
   <trkpt lat="59.2941105853" lon="34.6662407216"><ele>157.693</ele><time>2026-08-16T15:07:58.136Z</time><hdop>3.0</hdop><vdop>2.5</vdop><extensions><gom:speed>1.192</gom:speed></extensions></trkpt>
   <trkpt lat="59.2941155725" lon="34.666256731"><ele>157.809</ele><time>2026-08-16T15:07:58.977Z</time><hdop>3.0</hdop><vdop>2.5</vdop><extensions><gom:speed>1.119</gom:speed></extensions></trkpt>
   <trkpt lat="59.2941172908" lon="34.6662652806"><ele>158.058</ele><time>2026-08-16T15:07:59.497Z</time><hdop>3.0</hdop><vdop>2.5</vdop><extensions><gom:speed>1.038</gom:speed></extensions></trkpt>
   <trkpt lat="59.2941198892" lon="34.6662747521"><ele>158.207</ele><time>2026-08-16T15:08:00.057Z</time><hdop>3.0</hdop><vdop>2.5</vdop><extensions><gom:speed>1.029</gom:speed></extensions></trkpt>
   <trkpt lat="59.2941217751" lon="34.666287325"><ele>158.182</ele><time>2026-08-16T15:08:00.940Z</time><hdop>3.0</hdop><vdop>2.5</vdop><extensions><gom:speed>0.971</gom:speed></extensions></trkpt>
   <trkpt lat="59.2941225714" lon="34.6663032506"><ele>158.077</ele><time>2026-08-16T15:08:01.794Z</time><hdop>3.0</hdop><vdop>2.5</vdop><extensions><gom:speed>0.996</gom:speed></extensions></trkpt>
   <trkpt lat="59.2941230743" lon="34.666326217"><ele>158.006</ele><time>2026-08-16T15:08:03.136Z</time><hdop>3.0</hdop><vdop>2.5</vdop><extensions><gom:speed>0.975</gom:speed></extensions></trkpt>
   <trkpt lat="59.2941253793" lon="34.666336862"><ele>157.963</ele><time>2026-08-16T15:08:03.757Z</time><hdop>3.0</hdop><vdop>2.5</vdop><extensions><gom:speed>0.966</gom:speed></extensions></trkpt>
   <trkpt lat="59.2941282711" lon="34.666348429"><ele>157.876</ele><time>2026-08-16T15:08:04.532Z</time><hdop>3.0</hdop><vdop>2.5</vdop><extensions><gom:speed>0.97</gom:speed></extensions></trkpt>
   <trkpt lat="59.2941307856" lon="34.6663551346"><ele>158.65</ele><time>2026-08-16T15:08:05.136Z</time><hdop>3.0</hdop><vdop>2.5</vdop><extensions><gom:speed>0.949</gom:speed></extensions></trkpt>
   <trkpt lat="59.2941345994" lon="34.6663662825"><ele>158.849</ele><time>2026-08-16T15:08:06.136Z</time><hdop>3.0</hdop><vdop>2.5</vdop><extensions><gom:speed>0.901</gom:speed></extensions></trkpt>
   <trkpt lat="59.2941381617" lon="34.6663730718"><ele>158.967</ele><time>2026-08-16T15:08:06.760Z</time><hdop>3.0</hdop><vdop>2.5</vdop><extensions><gom:speed>0.916</gom:speed></extensions></trkpt>
   <trkpt lat="59.294141263" lon="34.666377179"><ele>158.679</ele><time>2026-08-16T15:08:07.516Z</time><hdop>3.0</hdop><vdop>2.5</vdop><extensions><gom:speed>0.842</gom:speed></extensions></trkpt>
   <trkpt lat="59.2941417659" lon="34.6663802803"><ele>158.611</ele><time>2026-08-16T15:08:08.136Z</time><hdop>3.0</hdop><vdop>2.562</vdop><extensions><gom:speed>0.706</gom:speed></extensions></trkpt>
   <trkpt lat="59.2941406763" lon="34.6663862314"><ele>158.571</ele><time>2026-08-16T15:08:08.822Z</time><hdop>3.0</hdop><vdop>2.562</vdop><extensions><gom:speed>0.591</gom:speed></extensions></trkpt>
   <trkpt lat="59.2941388742" lon="34.6663916797"><ele>158.118</ele><time>2026-08-16T15:08:09.576Z</time><hdop>3.0</hdop><vdop>2.5</vdop><extensions><gom:speed>0.554</gom:speed></extensions></trkpt>
   <trkpt lat="59.2941388742" lon="34.6663948648"><ele>157.769</ele><time>2026-08-16T15:08:10.135Z</time><hdop>3.0</hdop><vdop>2.5</vdop><extensions><gom:speed>0.506</gom:speed></extensions></trkpt>
   <trkpt lat="59.2941406763" lon="34.6664019894"><ele>157.561</ele><time>2026-08-16T15:08:10.961Z</time><hdop>3.0</hdop><vdop>2.5</vdop><extensions><gom:speed>0.56</gom:speed></extensions></trkpt>
   <trkpt lat="59.2941437776" lon="34.6664075215"><ele>157.22</ele><time>2026-08-16T15:08:11.952Z</time><hdop>3.0</hdop><vdop>2.562</vdop><extensions><gom:speed>0.581</gom:speed></extensions></trkpt>
   <trkpt lat="59.2941488906" lon="34.6664117962"><ele>157.33</ele><time>2026-08-16T15:08:13.012Z</time><hdop>3.0</hdop><vdop>2.687</vdop><extensions><gom:speed>0.602</gom:speed></extensions></trkpt>
   <trkpt lat="59.2941510698" lon="34.666412383"><ele>157.289</ele><time>2026-08-16T15:08:13.778Z</time><hdop>3.0</hdop><vdop>2.625</vdop><extensions><gom:speed>0.494</gom:speed></extensions></trkpt>
   <trkpt lat="59.2941526624" lon="34.6664148975"><ele>157.518</ele><time>2026-08-16T15:08:14.534Z</time><hdop>3.0</hdop><vdop>2.562</vdop><extensions><gom:speed>0.476</gom:speed></extensions></trkpt>
   <trkpt lat="59.2941542969" lon="34.6664175797"><ele>157.564</ele><time>2026-08-16T15:08:15.136Z</time><hdop>3.0</hdop><vdop>2.5</vdop><extensions><gom:speed>0.489</gom:speed></extensions></trkpt>
   <trkpt lat="59.2941558894" lon="34.6664217707"><ele>157.592</ele><time>2026-08-16T15:08:15.879Z</time><hdop>3.0</hdop><vdop>2.5</vdop><extensions><gom:speed>0.412</gom:speed></extensions></trkpt>
   <trkpt lat="59.2941578592" lon="34.6664252911"><ele>157.853</ele><time>2026-08-16T15:08:16.477Z</time><hdop>3.0</hdop><vdop>2.562</vdop><extensions><gom:speed>0.478</gom:speed></extensions></trkpt>
   <trkpt lat="59.2941596613" lon="34.6664324995"><ele>157.816</ele><time>2026-08-16T15:08:17.136Z</time><hdop>3.0</hdop><vdop>2.5</vdop><extensions><gom:speed>0.53</gom:speed></extensions></trkpt>
   <trkpt lat="59.2941614634" lon="34.6664447371"><ele>157.794</ele><time>2026-08-16T15:08:18.136Z</time><hdop>3.0</hdop><vdop>2.5</vdop><extensions><gom:speed>0.567</gom:speed></extensions></trkpt>
   <trkpt lat="59.2941608767" lon="34.6664589863"><ele>157.534</ele><time>2026-08-16T15:08:19.136Z</time><hdop>3.0</hdop><vdop>2.5</vdop><extensions><gom:speed>0.587</gom:speed></extensions></trkpt>
   <trkpt lat="59.294162595" lon="34.6664652728"><ele>157.379</ele><time>2026-08-16T15:08:19.715Z</time><hdop>3.0</hdop><vdop>2.5</vdop><extensions><gom:speed>0.613</gom:speed></extensions></trkpt>
   <trkpt lat="59.2941648581" lon="34.6664763369"><ele>157.309</ele><time>2026-08-16T15:08:20.717Z</time><hdop>3.0</hdop><vdop>2.5</vdop><extensions><gom:speed>0.633</gom:speed></extensions></trkpt>
   <trkpt lat="59.2941651934" lon="34.6664853893"><ele>157.222</ele><time>2026-08-16T15:08:21.414Z</time><hdop>3.0</hdop><vdop>2.5</vdop><extensions><gom:speed>0.693</gom:speed></extensions></trkpt>
   <trkpt lat="59.2941671631" lon="34.6664933521"><ele>157.17</ele><time>2026-08-16T15:08:22.051Z</time><hdop>3.0</hdop><vdop>2.5</vdop><extensions><gom:speed>0.698</gom:speed></extensions></trkpt>
   <trkpt lat="59.2941669955" lon="34.6665093616"><ele>157.199</ele><time>2026-08-16T15:08:23.136Z</time><hdop>3.0</hdop><vdop>2.5</vdop><extensions><gom:speed>0.698</gom:speed></extensions></trkpt>
   <trkpt lat="59.294167666" lon="34.6665166538"><ele>157.216</ele><time>2026-08-16T15:08:23.652Z</time><hdop>3.0</hdop><vdop>2.5</vdop><extensions><gom:speed>0.716</gom:speed></extensions></trkpt>
   <trkpt lat="59.2941671631" lon="34.6665248681"><ele>157.009</ele><time>2026-08-16T15:08:24.136Z</time><hdop>3.0</hdop><vdop>2.5</vdop><extensions><gom:speed>0.715</gom:speed></extensions></trkpt>
   <trkpt lat="59.2941660735" lon="34.6665408775"><ele>156.936</ele><time>2026-08-16T15:08:25.136Z</time><hdop>3.0</hdop><vdop>2.5</vdop><extensions><gom:speed>0.732</gom:speed></extensions></trkpt>
   <trkpt lat="59.294165361" lon="34.6665498462"><ele>156.892</ele><time>2026-08-16T15:08:25.674Z</time><hdop>3.0</hdop><vdop>2.5</vdop><extensions><gom:speed>0.766</gom:speed></extensions></trkpt>
   <trkpt lat="59.2941640618" lon="34.6665578928"><ele>157.056</ele><time>2026-08-16T15:08:26.136Z</time><hdop>3.0</hdop><vdop>2.5</vdop><extensions><gom:speed>0.73</gom:speed></extensions></trkpt>
   <trkpt lat="59.2941626788" lon="34.6665728964"><ele>157.154</ele><time>2026-08-16T15:08:26.999Z</time><hdop>3.0</hdop><vdop>2.5</vdop><extensions><gom:speed>0.797</gom:speed></extensions></trkpt>
   <trkpt lat="59.2941609605" lon="34.6665875647"><ele>157.171</ele><time>2026-08-16T15:08:27.794Z</time><hdop>3.0</hdop><vdop>2.5</vdop><extensions><gom:speed>0.858</gom:speed></extensions></trkpt>
   <trkpt lat="59.2941601642" lon="34.6665966172"><ele>157.332</ele><time>2026-08-16T15:08:28.314Z</time><hdop>3.0</hdop><vdop>2.5</vdop><extensions><gom:speed>0.824</gom:speed></extensions></trkpt>
   <trkpt lat="59.2941603738" lon="34.6666098606"><ele>157.428</ele><time>2026-08-16T15:08:29.079Z</time><hdop>3.0</hdop><vdop>2.5</vdop><extensions><gom:speed>0.892</gom:speed></extensions></trkpt>
   <trkpt lat="59.2941600804" lon="34.6666277979"><ele>157.241</ele><time>2026-08-16T15:08:30.136Z</time><hdop>3.0</hdop><vdop>2.5</vdop><extensions><gom:speed>0.905</gom:speed></extensions></trkpt>
   <trkpt lat="59.29416117" lon="34.6666409575"><ele>157.129</ele><time>2026-08-16T15:08:30.797Z</time><hdop>3.0</hdop><vdop>2.5</vdop><extensions><gom:speed>0.972</gom:speed></extensions></trkpt>
   <trkpt lat="59.2941606671" lon="34.6666561287"><ele>157.065</ele><time>2026-08-16T15:08:31.700Z</time><hdop>3.0</hdop><vdop>2.5</vdop><extensions><gom:speed>0.909</gom:speed></extensions></trkpt>
   <trkpt lat="59.2941606671" lon="34.6666671928"><ele>157.057</ele><time>2026-08-16T15:08:32.397Z</time><hdop>3.0</hdop><vdop>2.5</vdop><extensions><gom:speed>0.889</gom:speed></extensions></trkpt>
   <trkpt lat="59.2941617987" lon="34.6666783407"><ele>157.053</ele><time>2026-08-16T15:08:33.094Z</time><hdop>3.0</hdop><vdop>2.5</vdop><extensions><gom:speed>0.893</gom:speed></extensions></trkpt>
   <trkpt lat="59.2941622597" lon="34.6666906621"><ele>157.269</ele><time>2026-08-16T15:08:33.781Z</time><hdop>3.0</hdop><vdop>2.5</vdop><extensions><gom:speed>0.896</gom:speed></extensions></trkpt>
   <trkpt lat="59.2941600804" lon="34.6667008881"><ele>157.717</ele><time>2026-08-16T15:08:34.419Z</time><hdop>3.0</hdop><vdop>2.5</vdop><extensions><gom:speed>0.879</gom:speed></extensions></trkpt>
   <trkpt lat="59.2941585717" lon="34.6667088509"><ele>157.985</ele><time>2026-08-16T15:08:34.920Z</time><hdop>3.0</hdop><vdop>2.5</vdop><extensions><gom:speed>0.878</gom:speed></extensions></trkpt>
   <trkpt lat="59.2941598708" lon="34.6667196635"><ele>158.126</ele><time>2026-08-16T15:08:35.577Z</time><hdop>3.0</hdop><vdop>2.5</vdop><extensions><gom:speed>0.871</gom:speed></extensions></trkpt>
   <trkpt lat="59.2941604995" lon="34.6667283807"><ele>158.211</ele><time>2026-08-16T15:08:36.078Z</time><hdop>3.0</hdop><vdop>2.5</vdop><extensions><gom:speed>0.878</gom:speed></extensions></trkpt>
   <trkpt lat="59.294162595" lon="34.6667414565"><ele>158.108</ele><time>2026-08-16T15:08:36.834Z</time><hdop>3.0</hdop><vdop>2.5</vdop><extensions><gom:speed>0.864</gom:speed></extensions></trkpt>
   <trkpt lat="59.2941637684" lon="34.666753275"><ele>158.095</ele><time>2026-08-16T15:08:37.501Z</time><hdop>3.0</hdop><vdop>2.5</vdop><extensions><gom:speed>0.887</gom:speed></extensions></trkpt>
   <trkpt lat="59.2941634751" lon="34.6667619921"><ele>158.087</ele><time>2026-08-16T15:08:37.972Z</time><hdop>3.0</hdop><vdop>2.5</vdop><extensions><gom:speed>0.883</gom:speed></extensions></trkpt>
   <trkpt lat="59.2941641875" lon="34.6667774987"><ele>158.045</ele><time>2026-08-16T15:08:38.796Z</time><hdop>3.0</hdop><vdop>2.5</vdop><extensions><gom:speed>0.927</gom:speed></extensions></trkpt>
   <trkpt lat="59.2941646904" lon="34.6667900715"><ele>158.047</ele><time>2026-08-16T15:08:39.474Z</time><hdop>3.0</hdop><vdop>2.75</vdop><extensions><gom:speed>0.93</gom:speed></extensions></trkpt>
   <trkpt lat="59.2941644809" lon="34.66680189"><ele>158.024</ele><time>2026-08-16T15:08:40.136Z</time><hdop>3.0</hdop><vdop>2.937</vdop><extensions><gom:speed>0.917</gom:speed></extensions></trkpt>
   <trkpt lat="59.2941638942" lon="34.6668163907"><ele>158.01</ele><time>2026-08-16T15:08:40.956Z</time><hdop>3.0</hdop><vdop>2.937</vdop><extensions><gom:speed>0.9</gom:speed></extensions></trkpt>
   <trkpt lat="59.2941678756" lon="34.6668351662"><ele>157.459</ele><time>2026-08-16T15:08:42.136Z</time><hdop>3.0</hdop><vdop>2.937</vdop><extensions><gom:speed>0.904</gom:speed></extensions></trkpt>
   <trkpt lat="59.2941747906" lon="34.6668497507"><ele>157.649</ele><time>2026-08-16T15:08:43.136Z</time><hdop>3.0</hdop><vdop>2.687</vdop><extensions><gom:speed>0.945</gom:speed></extensions></trkpt>
   <trkpt lat="59.2941782691" lon="34.6668659277"><ele>158.047</ele><time>2026-08-16T15:08:44.136Z</time><hdop>3.0</hdop><vdop>2.625</vdop><extensions><gom:speed>0.841</gom:speed></extensions></trkpt>
   <trkpt lat="59.2941791911" lon="34.6668735553"><ele>158.286</ele><time>2026-08-16T15:08:44.637Z</time><hdop>3.0</hdop><vdop>2.625</vdop><extensions><gom:speed>0.834</gom:speed></extensions></trkpt>
   <trkpt lat="59.2941780596" lon="34.6668834459"><ele>158.492</ele><time>2026-08-16T15:08:45.136Z</time><hdop>3.0</hdop><vdop>2.5</vdop><extensions><gom:speed>0.924</gom:speed></extensions></trkpt>
   <trkpt lat="59.2941749583" lon="34.6668974437"><ele>158.616</ele><time>2026-08-16T15:08:45.913Z</time><hdop>3.0</hdop><vdop>2.5</vdop><extensions><gom:speed>0.936</gom:speed></extensions></trkpt>
   <trkpt lat="59.2941714798" lon="34.6669078373"><ele>158.36</ele><time>2026-08-16T15:08:46.639Z</time><hdop>3.0</hdop><vdop>2.5</vdop><extensions><gom:speed>0.855</gom:speed></extensions></trkpt>
   <trkpt lat="59.2941690909" lon="34.666915381"><ele>158.138</ele><time>2026-08-16T15:08:47.136Z</time><hdop>3.0</hdop><vdop>2.5</vdop><extensions><gom:speed>0.834</gom:speed></extensions></trkpt>
   <trkpt lat="59.2941658639" lon="34.6669304684"><ele>158.005</ele><time>2026-08-16T15:08:48.052Z</time><hdop>3.0</hdop><vdop>2.5</vdop><extensions><gom:speed>0.86</gom:speed></extensions></trkpt>
   <trkpt lat="59.2941636846" lon="34.6669396885"><ele>157.928</ele><time>2026-08-16T15:08:48.573Z</time><hdop>3.0</hdop><vdop>2.5</vdop><extensions><gom:speed>0.895</gom:speed></extensions></trkpt>
   <trkpt lat="59.2941614634" lon="34.6669488248"><ele>157.835</ele><time>2026-08-16T15:08:49.136Z</time><hdop>3.0</hdop><vdop>2.5</vdop><extensions><gom:speed>0.865</gom:speed></extensions></trkpt>
   <trkpt lat="59.2941580687" lon="34.6669628225"><ele>157.779</ele><time>2026-08-16T15:08:50.035Z</time><hdop>3.0</hdop><vdop>2.5</vdop><extensions><gom:speed>0.875</gom:speed></extensions></trkpt>
   <trkpt lat="59.2941533749" lon="34.6669748925"><ele>157.755</ele><time>2026-08-16T15:08:50.899Z</time><hdop>3.0</hdop><vdop>2.5</vdop><extensions><gom:speed>0.876</gom:speed></extensions></trkpt>
   <trkpt lat="59.2941482619" lon="34.6669901475"><ele>157.506</ele><time>2026-08-16T15:08:51.899Z</time><hdop>3.0</hdop><vdop>2.5</vdop><extensions><gom:speed>0.889</gom:speed></extensions></trkpt>
   <trkpt lat="59.2941432747" lon="34.6670031395"><ele>157.25</ele><time>2026-08-16T15:08:52.832Z</time><hdop>3.0</hdop><vdop>2.5</vdop><extensions><gom:speed>0.869</gom:speed></extensions></trkpt>
   <trkpt lat="59.2941374912" lon="34.6670125272"><ele>157.045</ele><time>2026-08-16T15:08:53.637Z</time><hdop>3.0</hdop><vdop>2.5</vdop><extensions><gom:speed>0.841</gom:speed></extensions></trkpt>
   <trkpt lat="59.2941328811" lon="34.6670169696"><ele>156.797</ele><time>2026-08-16T15:08:54.136Z</time><hdop>3.0</hdop><vdop>2.5</vdop><extensions><gom:speed>0.835</gom:speed></extensions></trkpt>
   <trkpt lat="59.2941270976" lon="34.6670225855"><ele>156.648</ele><time>2026-08-16T15:08:54.854Z</time><hdop>3.0</hdop><vdop>2.5</vdop><extensions><gom:speed>0.84</gom:speed></extensions></trkpt>
   <trkpt lat="59.2941214817" lon="34.6670272794"><ele>156.513</ele><time>2026-08-16T15:08:55.414Z</time><hdop>3.0</hdop><vdop>2.5</vdop><extensions><gom:speed>0.891</gom:speed></extensions></trkpt>
   <trkpt lat="59.294115782" lon="34.6670350745"><ele>156.136</ele><time>2026-08-16T15:08:56.136Z</time><hdop>3.0</hdop><vdop>2.5</vdop><extensions><gom:speed>0.863</gom:speed></extensions></trkpt>
   <trkpt lat="59.2941109624" lon="34.6670432888"><ele>155.911</ele><time>2026-08-16T15:08:56.778Z</time><hdop>3.0</hdop><vdop>2.5</vdop><extensions><gom:speed>0.925</gom:speed></extensions></trkpt>
   <trkpt lat="59.2941063943" lon="34.6670541853"><ele>155.676</ele><time>2026-08-16T15:08:57.534Z</time><hdop>3.0</hdop><vdop>2.5</vdop><extensions><gom:speed>0.905</gom:speed></extensions></trkpt>
   <trkpt lat="59.2941031673" lon="34.6670618966"><ele>155.535</ele><time>2026-08-16T15:08:58.074Z</time><hdop>3.0</hdop><vdop>2.5</vdop><extensions><gom:speed>0.897</gom:speed></extensions></trkpt>
   <trkpt lat="59.2940997726" lon="34.6670736313"><ele>155.359</ele><time>2026-08-16T15:08:58.839Z</time><hdop>3.0</hdop><vdop>2.5</vdop><extensions><gom:speed>0.919</gom:speed></extensions></trkpt>
   <trkpt lat="59.2940972999" lon="34.667082097"><ele>155.324</ele><time>2026-08-16T15:08:59.399Z</time><hdop>3.0</hdop><vdop>2.5</vdop><extensions><gom:speed>0.924</gom:speed></extensions></trkpt>
   <trkpt lat="59.2940933604" lon="34.6670914848"><ele>155.233</ele><time>2026-08-16T15:09:00.136Z</time><hdop>3.0</hdop><vdop>2.5</vdop><extensions><gom:speed>0.901</gom:speed></extensions></trkpt>
   <trkpt lat="59.2940859844" lon="34.6671018783"><ele>155.178</ele><time>2026-08-16T15:09:01.136Z</time><hdop>3.0</hdop><vdop>2.5</vdop><extensions><gom:speed>0.917</gom:speed></extensions></trkpt>
   <trkpt lat="59.2940811648" lon="34.6671137806"><ele>155.156</ele><time>2026-08-16T15:09:02.137Z</time><hdop>3.0</hdop><vdop>2.5</vdop><extensions><gom:speed>0.833</gom:speed></extensions></trkpt>
   <trkpt lat="59.2940804942" lon="34.6671215758"><ele>155.1</ele><time>2026-08-16T15:09:03.118Z</time><hdop>3.0</hdop><vdop>2.5</vdop><extensions><gom:speed>0.629</gom:speed></extensions></trkpt>
   <trkpt lat="59.2940813743" lon="34.6671265211"><ele>155.164</ele><time>2026-08-16T15:09:03.619Z</time><hdop>3.0</hdop><vdop>2.5</vdop><extensions><gom:speed>0.709</gom:speed></extensions></trkpt>
   <trkpt lat="59.294081081" lon="34.6671338972"><ele>155.089</ele><time>2026-08-16T15:09:04.136Z</time><hdop>3.0</hdop><vdop>2.5</vdop><extensions><gom:speed>0.748</gom:speed></extensions></trkpt>
   <trkpt lat="59.2940780635" lon="34.667140938"><ele>154.965</ele><time>2026-08-16T15:09:05.136Z</time><hdop>3.0</hdop><vdop>2.5</vdop><extensions><gom:speed>0.515</gom:speed></extensions></trkpt>
   <trkpt lat="59.2940696816" lon="34.6671531756"><ele>155.0</ele><time>2026-08-16T15:09:06.136Z</time><hdop>3.0</hdop><vdop>2.5</vdop><extensions><gom:speed>1.101</gom:speed></extensions></trkpt>
   <trkpt lat="59.2940596652" lon="34.66716315"><ele>154.737</ele><time>2026-08-16T15:09:07.136Z</time><hdop>3.0</hdop><vdop>2.5</vdop><extensions><gom:speed>0.854</gom:speed></extensions></trkpt>
   <trkpt lat="59.2940567734" lon="34.667166419"><ele>154.579</ele><time>2026-08-16T15:09:07.594Z</time><hdop>3.0</hdop><vdop>2.5</vdop><extensions><gom:speed>0.839</gom:speed></extensions></trkpt>
   <trkpt lat="59.2940533788" lon="34.6671702746"><ele>154.537</ele><time>2026-08-16T15:09:08.136Z</time><hdop>3.0</hdop><vdop>2.5</vdop><extensions><gom:speed>0.852</gom:speed></extensions></trkpt>
   <trkpt lat="59.2940479724" lon="34.6671766449"><ele>154.512</ele><time>2026-08-16T15:09:08.900Z</time><hdop>3.0</hdop><vdop>2.5</vdop><extensions><gom:speed>0.875</gom:speed></extensions></trkpt>
   <trkpt lat="59.2940438653" lon="34.6671887986"><ele>154.503</ele><time>2026-08-16T15:09:09.881Z</time><hdop>3.0</hdop><vdop>2.5</vdop><extensions><gom:speed>0.817</gom:speed></extensions></trkpt>
   <trkpt lat="59.2940415603" lon="34.6672000304"><ele>154.671</ele><time>2026-08-16T15:09:10.675Z</time><hdop>3.0</hdop><vdop>2.5</vdop><extensions><gom:speed>0.81</gom:speed></extensions></trkpt>
   <trkpt lat="59.2940401773" lon="34.6672066521"><ele>154.874</ele><time>2026-08-16T15:09:11.136Z</time><hdop>3.0</hdop><vdop>2.5</vdop><extensions><gom:speed>0.796</gom:speed></extensions></trkpt>
   <trkpt lat="59.2940364892" lon="34.6672196441"><ele>155.081</ele><time>2026-08-16T15:09:12.136Z</time><hdop>3.0</hdop><vdop>2.5</vdop><extensions><gom:speed>0.771</gom:speed></extensions></trkpt>
   <trkpt lat="59.2940334717" lon="34.6672286965"><ele>155.204</ele><time>2026-08-16T15:09:12.816Z</time><hdop>3.0</hdop><vdop>2.5</vdop><extensions><gom:speed>0.779</gom:speed></extensions></trkpt>
   <trkpt lat="59.2940303704" lon="34.6672399283"><ele>155.454</ele><time>2026-08-16T15:09:13.562Z</time><hdop>3.0</hdop><vdop>2.5</vdop><extensions><gom:speed>0.804</gom:speed></extensions></trkpt>
   <trkpt lat="59.2940289874" lon="34.6672497351"><ele>155.776</ele><time>2026-08-16T15:09:14.136Z</time><hdop>3.0</hdop><vdop>2.5</vdop><extensions><gom:speed>0.826</gom:speed></extensions></trkpt>
   <trkpt lat="59.2940273949" lon="34.6672672533"><ele>155.972</ele><time>2026-08-16T15:09:15.136Z</time><hdop>3.0</hdop><vdop>2.5</vdop><extensions><gom:speed>0.823</gom:speed></extensions></trkpt>
   <trkpt lat="59.2940250898" lon="34.6672789879"><ele>156.09</ele><time>2026-08-16T15:09:15.878Z</time><hdop>3.0</hdop><vdop>2.5</vdop><extensions><gom:speed>0.786</gom:speed></extensions></trkpt>
   <trkpt lat="59.2940219885" lon="34.6672896329"><ele>156.185</ele><time>2026-08-16T15:09:16.634Z</time><hdop>3.0</hdop><vdop>2.5</vdop><extensions><gom:speed>0.782</gom:speed></extensions></trkpt>
   <trkpt lat="59.2940196835" lon="34.6672968414"><ele>156.238</ele><time>2026-08-16T15:09:17.136Z</time><hdop>3.0</hdop><vdop>2.5</vdop><extensions><gom:speed>0.821</gom:speed></extensions></trkpt>
   <trkpt lat="59.2940151992" lon="34.667307654"><ele>156.269</ele><time>2026-08-16T15:09:18.018Z</time><hdop>3.0</hdop><vdop>2.5</vdop><extensions><gom:speed>0.801</gom:speed></extensions></trkpt>
   <trkpt lat="59.2940116788" lon="34.6673207298"><ele>156.458</ele><time>2026-08-16T15:09:18.881Z</time><hdop>3.0</hdop><vdop>2.5</vdop><extensions><gom:speed>0.847</gom:speed></extensions></trkpt>
   <trkpt lat="59.2940091642" lon="34.6673313748"><ele>156.446</ele><time>2026-08-16T15:09:19.578Z</time><hdop>3.0</hdop><vdop>2.5</vdop><extensions><gom:speed>0.861</gom:speed></extensions></trkpt>
   <trkpt lat="59.2940069849" lon="34.6673388347"><ele>156.417</ele><time>2026-08-16T15:09:20.136Z</time><hdop>3.0</hdop><vdop>2.5</vdop><extensions><gom:speed>0.835</gom:speed></extensions></trkpt>
   <trkpt lat="59.2940031712" lon="34.6673504856"><ele>156.331</ele><time>2026-08-16T15:09:21.136Z</time><hdop>3.0</hdop><vdop>2.5</vdop><extensions><gom:speed>0.785</gom:speed></extensions></trkpt>
   <trkpt lat="59.2939993993" lon="34.6673610468"><ele>156.28</ele><time>2026-08-16T15:09:21.993Z</time><hdop>3.0</hdop><vdop>2.5</vdop><extensions><gom:speed>0.797</gom:speed></extensions></trkpt>
   <trkpt lat="59.2939940768" lon="34.667364651"><ele>156.242</ele><time>2026-08-16T15:09:22.680Z</time><hdop>3.0</hdop><vdop>2.5</vdop><extensions><gom:speed>0.804</gom:speed></extensions></trkpt>
   <trkpt lat="59.2939898858" lon="34.6673647348"><ele>156.19</ele><time>2026-08-16T15:09:23.135Z</time><hdop>3.0</hdop><vdop>2.5</vdop><extensions><gom:speed>0.814</gom:speed></extensions></trkpt>
   <trkpt lat="59.293981965" lon="34.6673654892"><ele>156.159</ele><time>2026-08-16T15:09:23.995Z</time><hdop>3.0</hdop><vdop>2.5</vdop><extensions><gom:speed>0.845</gom:speed></extensions></trkpt>
   <trkpt lat="59.2939762653" lon="34.6673623879"><ele>156.1</ele><time>2026-08-16T15:09:24.535Z</time><hdop>3.0</hdop><vdop>2.5</vdop><extensions><gom:speed>0.878</gom:speed></extensions></trkpt>
   <trkpt lat="59.2939708589" lon="34.6673611306"><ele>156.193</ele><time>2026-08-16T15:09:25.136Z</time><hdop>3.0</hdop><vdop>2.5</vdop><extensions><gom:speed>0.856</gom:speed></extensions></trkpt>
   <trkpt lat="59.2939628961" lon="34.6673629746"><ele>156.21</ele><time>2026-08-16T15:09:26.136Z</time><hdop>3.0</hdop><vdop>2.5</vdop><extensions><gom:speed>0.844</gom:speed></extensions></trkpt>
   <trkpt lat="59.293955059" lon="34.667361382"><ele>156.259</ele><time>2026-08-16T15:09:27.136Z</time><hdop>3.0</hdop><vdop>2.5</vdop><extensions><gom:speed>0.82</gom:speed></extensions></trkpt>
   <trkpt lat="59.2939487726" lon="34.6673606277"><ele>156.289</ele><time>2026-08-16T15:09:27.853Z</time><hdop>3.0</hdop><vdop>2.5</vdop><extensions><gom:speed>0.877</gom:speed></extensions></trkpt>
   <trkpt lat="59.2939432825" lon="34.6673609629"><ele>155.969</ele><time>2026-08-16T15:09:28.501Z</time><hdop>3.0</hdop><vdop>2.5</vdop><extensions><gom:speed>0.84</gom:speed></extensions></trkpt>
   <trkpt lat="59.2939397621" lon="34.6673650701"><ele>155.778</ele><time>2026-08-16T15:09:28.992Z</time><hdop>3.0</hdop><vdop>2.5</vdop><extensions><gom:speed>0.844</gom:speed></extensions></trkpt>
   <trkpt lat="59.2939345653" lon="34.6673779782"><ele>155.681</ele><time>2026-08-16T15:09:30.136Z</time><hdop>3.0</hdop><vdop>2.5</vdop><extensions><gom:speed>0.637</gom:speed></extensions></trkpt>
   <trkpt lat="59.2939336852" lon="34.6673788164"><ele>155.615</ele><time>2026-08-16T15:09:31.136Z</time><hdop>3.0</hdop><vdop>2.5</vdop><extensions><gom:speed>0.313</gom:speed></extensions></trkpt>
   <trkpt lat="59.2939335595" lon="34.6673754636"><ele>155.58</ele><time>2026-08-16T15:09:32.136Z</time><hdop>3.0</hdop><vdop>2.5</vdop><extensions><gom:speed>0.148</gom:speed></extensions></trkpt>
   <trkpt lat="59.2939339786" lon="34.6673735358"><ele>155.571</ele><time>2026-08-16T15:09:33.136Z</time><hdop>3.0</hdop><vdop>2.5</vdop><extensions><gom:speed>0.07</gom:speed></extensions></trkpt>
   <trkpt lat="59.2939352778" lon="34.6673711889"><ele>155.57</ele><time>2026-08-16T15:09:34.136Z</time><hdop>3.0</hdop><vdop>2.5</vdop><extensions><gom:speed>0.06</gom:speed></extensions></trkpt>
   <trkpt lat="59.2939364931" lon="34.667370183"><ele>155.583</ele><time>2026-08-16T15:09:35.136Z</time><hdop>3.0</hdop><vdop>2.5</vdop><extensions><gom:speed>0.093</gom:speed></extensions></trkpt>
   <trkpt lat="59.2939364931" lon="34.6673699316"><ele>155.535</ele><time>2026-08-16T15:09:36.136Z</time><hdop>3.0</hdop><vdop>2.5</vdop><extensions><gom:speed>0.129</gom:speed></extensions></trkpt>
   <trkpt lat="59.2939363674" lon="34.6673693448"><ele>155.506</ele><time>2026-08-16T15:09:36.658Z</time><hdop>3.0</hdop><vdop>2.5</vdop><extensions><gom:speed>0.109</gom:speed></extensions></trkpt>
   <trkpt lat="59.293933769" lon="34.6673728652"><ele>155.558</ele><time>2026-08-16T15:09:37.136Z</time><hdop>3.0</hdop><vdop>2.5</vdop><extensions><gom:speed>0.34</gom:speed></extensions></trkpt>
   <trkpt lat="59.2939319669" lon="34.6673742902"><ele>155.589</ele><time>2026-08-16T15:09:37.659Z</time><hdop>3.0</hdop><vdop>2.5</vdop><extensions><gom:speed>0.191</gom:speed></extensions></trkpt>
   <trkpt lat="59.2939270635" lon="34.6673778944"><ele>155.762</ele><time>2026-08-16T15:09:38.136Z</time><hdop>3.0</hdop><vdop>2.5</vdop><extensions><gom:speed>0.496</gom:speed></extensions></trkpt>
   <trkpt lat="59.2939222858" lon="34.6673793193"><ele>155.865</ele><time>2026-08-16T15:09:39.013Z</time><hdop>3.0</hdop><vdop>2.5</vdop><extensions><gom:speed>0.399</gom:speed></extensions></trkpt>
   <trkpt lat="59.2939154965" lon="34.667385941"><ele>155.782</ele><time>2026-08-16T15:09:40.136Z</time><hdop>3.0</hdop><vdop>2.5</vdop><extensions><gom:speed>0.334</gom:speed></extensions></trkpt>
   <trkpt lat="59.293916167" lon="34.6673894614"><ele>155.753</ele><time>2026-08-16T15:09:41.136Z</time><hdop>3.0</hdop><vdop>2.5</vdop><extensions><gom:speed>0.168</gom:speed></extensions></trkpt>
   <trkpt lat="59.2939169633" lon="34.6673907187"><ele>155.739</ele><time>2026-08-16T15:09:42.136Z</time><hdop>3.0</hdop><vdop>2.5</vdop><extensions><gom:speed>0.108</gom:speed></extensions></trkpt>
   <trkpt lat="59.2939173824" lon="34.667391054"><ele>155.734</ele><time>2026-08-16T15:09:43.136Z</time><hdop>3.0</hdop><vdop>2.5</vdop><extensions><gom:speed>0.098</gom:speed></extensions></trkpt>
   <trkpt lat="59.2939171728" lon="34.667391054"><ele>155.731</ele><time>2026-08-16T15:09:43.960Z</time><hdop>3.0</hdop><vdop>2.5</vdop><extensions><gom:speed>0.088</gom:speed></extensions></trkpt>
   <trkpt lat="59.2939135686" lon="34.6673954964"><ele>155.832</ele><time>2026-08-16T15:09:45.136Z</time><hdop>3.0</hdop><vdop>2.5</vdop><extensions><gom:speed>0.237</gom:speed></extensions></trkpt>
   <trkpt lat="59.2939112636" lon="34.6673976757"><ele>155.892</ele><time>2026-08-16T15:09:46.061Z</time><hdop>3.0</hdop><vdop>2.5</vdop><extensions><gom:speed>0.173</gom:speed></extensions></trkpt>
   <trkpt lat="59.2939063602" lon="34.6674031239"><ele>155.843</ele><time>2026-08-16T15:09:47.013Z</time><hdop>3.0</hdop><vdop>2.5</vdop><extensions><gom:speed>0.239</gom:speed></extensions></trkpt>
   <trkpt lat="59.2938990679" lon="34.6674099971"><ele>155.84</ele><time>2026-08-16T15:09:47.661Z</time><hdop>3.0</hdop><vdop>2.5</vdop><extensions><gom:speed>0.488</gom:speed></extensions></trkpt>
   <trkpt lat="59.2938932844" lon="34.6674154453"><ele>155.864</ele><time>2026-08-16T15:09:48.136Z</time><hdop>3.0</hdop><vdop>2.5</vdop><extensions><gom:speed>0.644</gom:speed></extensions></trkpt>
   <trkpt lat="59.2938850702" lon="34.6674219832"><ele>155.878</ele><time>2026-08-16T15:09:48.878Z</time><hdop>3.0</hdop><vdop>2.5</vdop><extensions><gom:speed>0.746</gom:speed></extensions></trkpt>
   <trkpt lat="59.2938765625" lon="34.6674338855"><ele>155.713</ele><time>2026-08-16T15:09:49.722Z</time><hdop>3.0</hdop><vdop>2.5</vdop><extensions><gom:speed>0.831</gom:speed></extensions></trkpt>
   <trkpt lat="59.2938731678" lon="34.667439669"><ele>155.451</ele><time>2026-08-16T15:09:50.280Z</time><hdop>3.0</hdop><vdop>2.5</vdop><extensions><gom:speed>0.703</gom:speed></extensions></trkpt>
   <trkpt lat="59.2938677615" lon="34.6674426865"><ele>155.294</ele><time>2026-08-16T15:09:51.115Z</time><hdop>3.0</hdop><vdop>2.5</vdop><extensions><gom:speed>0.688</gom:speed></extensions></trkpt>
   <trkpt lat="59.293861978" lon="34.6674469613"><ele>155.225</ele><time>2026-08-16T15:09:51.577Z</time><hdop>3.0</hdop><vdop>2.5</vdop><extensions><gom:speed>0.923</gom:speed></extensions></trkpt>
   <trkpt lat="59.293857368" lon="34.667452661"><ele>155.24</ele><time>2026-08-16T15:09:52.135Z</time><hdop>3.0</hdop><vdop>2.5</vdop><extensions><gom:speed>0.914</gom:speed></extensions></trkpt>
   <trkpt lat="59.2938503691" lon="34.6674667426"><ele>155.173</ele><time>2026-08-16T15:09:53.136Z</time><hdop>3.0</hdop><vdop>2.5</vdop><extensions><gom:speed>0.953</gom:speed></extensions></trkpt>
   <trkpt lat="59.2938454657" lon="34.66748183"><ele>155.133</ele><time>2026-08-16T15:09:54.060Z</time><hdop>3.0</hdop><vdop>2.5</vdop><extensions><gom:speed>0.903</gom:speed></extensions></trkpt>
   <trkpt lat="59.2938442922" lon="34.6674939837"><ele>155.208</ele><time>2026-08-16T15:09:54.659Z</time><hdop>3.0</hdop><vdop>2.5</vdop><extensions><gom:speed>0.888</gom:speed></extensions></trkpt>
   <trkpt lat="59.2938436635" lon="34.6675017789"><ele>155.205</ele><time>2026-08-16T15:09:55.136Z</time><hdop>3.0</hdop><vdop>2.5</vdop><extensions><gom:speed>0.86</gom:speed></extensions></trkpt>
   <trkpt lat="59.2938425739" lon="34.6675110828"><ele>155.204</ele><time>2026-08-16T15:09:55.718Z</time><hdop>3.0</hdop><vdop>2.5</vdop><extensions><gom:speed>0.857</gom:speed></extensions></trkpt>
   <trkpt lat="59.2938407718" lon="34.6675252482"><ele>155.37</ele><time>2026-08-16T15:09:56.681Z</time><hdop>3.0</hdop><vdop>2.5</vdop><extensions><gom:speed>0.842</gom:speed></extensions></trkpt>
   <trkpt lat="59.293839766" lon="34.6675315347"><ele>155.663</ele><time>2026-08-16T15:09:57.136Z</time><hdop>3.0</hdop><vdop>2.5</vdop><extensions><gom:speed>0.836</gom:speed></extensions></trkpt>
   <trkpt lat="59.2938371676" lon="34.6675441913"><ele>155.838</ele><time>2026-08-16T15:09:58.036Z</time><hdop>3.0</hdop><vdop>2.5</vdop><extensions><gom:speed>0.826</gom:speed></extensions></trkpt>
   <trkpt lat="59.2938346949" lon="34.6675497234"><ele>155.989</ele><time>2026-08-16T15:09:58.615Z</time><hdop>3.0</hdop><vdop>2.5</vdop><extensions><gom:speed>0.83</gom:speed></extensions></trkpt>
   <trkpt lat="59.293831887" lon="34.6675548364"><ele>156.06</ele><time>2026-08-16T15:09:59.136Z</time><hdop>3.0</hdop><vdop>2.5</vdop><extensions><gom:speed>0.786</gom:speed></extensions></trkpt>
   <trkpt lat="59.2938279894" lon="34.667562883"><ele>156.103</ele><time>2026-08-16T15:09:59.852Z</time><hdop>3.0</hdop><vdop>2.5</vdop><extensions><gom:speed>0.821</gom:speed></extensions></trkpt>
   <trkpt lat="59.2938229602" lon="34.6675712649"><ele>156.255</ele><time>2026-08-16T15:10:00.775Z</time><hdop>3.0</hdop><vdop>2.5</vdop><extensions><gom:speed>0.778</gom:speed></extensions></trkpt>
   <trkpt lat="59.2938200685" lon="34.6675808203"><ele>156.362</ele><time>2026-08-16T15:10:01.638Z</time><hdop>3.0</hdop><vdop>2.5</vdop><extensions><gom:speed>0.743</gom:speed></extensions></trkpt>
   <trkpt lat="59.2938189788" lon="34.6675863523"><ele>156.558</ele><time>2026-08-16T15:10:02.136Z</time><hdop>3.0</hdop><vdop>2.5</vdop><extensions><gom:speed>0.724</gom:speed></extensions></trkpt>
   <trkpt lat="59.2938168834" lon="34.6675974164"><ele>156.675</ele><time>2026-08-16T15:10:02.934Z</time><hdop>3.0</hdop><vdop>2.5</vdop><extensions><gom:speed>0.754</gom:speed></extensions></trkpt>
   <trkpt lat="59.2938151651" lon="34.6676092349"><ele>156.53</ele><time>2026-08-16T15:10:03.759Z</time><hdop>3.0</hdop><vdop>2.5</vdop><extensions><gom:speed>0.773</gom:speed></extensions></trkpt>
   <trkpt lat="59.2938122733" lon="34.6676274236"><ele>156.45</ele><time>2026-08-16T15:10:05.054Z</time><hdop>3.0</hdop><vdop>2.5</vdop><extensions><gom:speed>0.782</gom:speed></extensions></trkpt>
   <trkpt lat="59.2938094654" lon="34.6676368952"><ele>156.392</ele><time>2026-08-16T15:10:05.780Z</time><hdop>3.0</hdop><vdop>2.5</vdop><extensions><gom:speed>0.781</gom:speed></extensions></trkpt>
   <trkpt lat="59.2938069927" lon="34.6676493842"><ele>156.376</ele><time>2026-08-16T15:10:06.693Z</time><hdop>3.0</hdop><vdop>2.5</vdop><extensions><gom:speed>0.804</gom:speed></extensions></trkpt>
   <trkpt lat="59.2938076633" lon="34.6676597778"><ele>156.367</ele><time>2026-08-16T15:10:07.361Z</time><hdop>3.0</hdop><vdop>2.5</vdop><extensions><gom:speed>0.831</gom:speed></extensions></trkpt>
   <trkpt lat="59.2938076633" lon="34.6676708419"><ele>156.362</ele><time>2026-08-16T15:10:08.038Z</time><hdop>3.0</hdop><vdop>2.5</vdop><extensions><gom:speed>0.826</gom:speed></extensions></trkpt>
   <trkpt lat="59.2938098845" lon="34.6676802296"><ele>156.276</ele><time>2026-08-16T15:10:08.735Z</time><hdop>3.0</hdop><vdop>2.5</vdop><extensions><gom:speed>0.819</gom:speed></extensions></trkpt>
   <trkpt lat="59.2938122733" lon="34.6676913776"><ele>156.142</ele><time>2026-08-16T15:10:09.657Z</time><hdop>3.0</hdop><vdop>2.5</vdop><extensions><gom:speed>0.81</gom:speed></extensions></trkpt>
   <trkpt lat="59.2938124829" lon="34.6676959876"><ele>156.203</ele><time>2026-08-16T15:10:10.136Z</time><hdop>3.0</hdop><vdop>2.5</vdop><extensions><gom:speed>0.823</gom:speed></extensions></trkpt>
   <trkpt lat="59.2938107646" lon="34.6677083928"><ele>156.104</ele><time>2026-08-16T15:10:11.136Z</time><hdop>3.0</hdop><vdop>2.5</vdop><extensions><gom:speed>0.862</gom:speed></extensions></trkpt>
   <trkpt lat="59.2938096749" lon="34.6677177806"><ele>156.046</ele><time>2026-08-16T15:10:11.778Z</time><hdop>3.0</hdop><vdop>2.5</vdop><extensions><gom:speed>0.837</gom:speed></extensions></trkpt>
   <trkpt lat="59.2938088787" lon="34.6677238993"><ele>155.618</ele><time>2026-08-16T15:10:12.435Z</time><hdop>3.0</hdop><vdop>2.5</vdop><extensions><gom:speed>0.827</gom:speed></extensions></trkpt>
   <trkpt lat="59.2938081662" lon="34.6677315269"><ele>155.363</ele><time>2026-08-16T15:10:12.975Z</time><hdop>3.0</hdop><vdop>2.5</vdop><extensions><gom:speed>0.828</gom:speed></extensions></trkpt>
   <trkpt lat="59.2938080824" lon="34.6677442674"><ele>154.808</ele><time>2026-08-16T15:10:14.136Z</time><hdop>3.0</hdop><vdop>2.5</vdop><extensions><gom:speed>0.727</gom:speed></extensions></trkpt>
   <trkpt lat="59.2938106808" lon="34.6677518949"><ele>154.477</ele><time>2026-08-16T15:10:14.761Z</time><hdop>3.0</hdop><vdop>2.5</vdop><extensions><gom:speed>0.82</gom:speed></extensions></trkpt>
   <trkpt lat="59.2938169672" lon="34.6677684911"><ele>154.327</ele><time>2026-08-16T15:10:15.694Z</time><hdop>3.0</hdop><vdop>2.5</vdop><extensions><gom:speed>1.0</gom:speed></extensions></trkpt>
   <trkpt lat="59.2938181826" lon="34.6677705865"><ele>154.248</ele><time>2026-08-16T15:10:16.175Z</time><hdop>3.0</hdop><vdop>2.5</vdop><extensions><gom:speed>0.762</gom:speed></extensions></trkpt>
   <trkpt lat="59.293820781" lon="34.6677885238"><ele>154.284</ele><time>2026-08-16T15:10:17.135Z</time><hdop>3.0</hdop><vdop>2.5</vdop><extensions><gom:speed>0.795</gom:speed></extensions></trkpt>
   <trkpt lat="59.2938210743" lon="34.6678007614"><ele>154.306</ele><time>2026-08-16T15:10:17.754Z</time><hdop>3.0</hdop><vdop>2.5</vdop><extensions><gom:speed>0.774</gom:speed></extensions></trkpt>
   <trkpt lat="59.2938257682" lon="34.6678207941"><ele>154.258</ele><time>2026-08-16T15:10:18.638Z</time><hdop>3.0</hdop><vdop>2.5</vdop><extensions><gom:speed>0.778</gom:speed></extensions></trkpt>
   <trkpt lat="59.2938302944" lon="34.6678358816"><ele>154.555</ele><time>2026-08-16T15:10:19.135Z</time><hdop>3.0</hdop><vdop>2.5</vdop><extensions><gom:speed>1.009</gom:speed></extensions></trkpt>
   <trkpt lat="59.2938365808" lon="34.6678520586"><ele>154.733</ele><time>2026-08-16T15:10:19.954Z</time><hdop>3.0</hdop><vdop>2.5</vdop><extensions><gom:speed>0.94</gom:speed></extensions></trkpt>
   <trkpt lat="59.2938423644" lon="34.6678695768"><ele>155.13</ele><time>2026-08-16T15:10:20.533Z</time><hdop>3.0</hdop><vdop>2.5</vdop><extensions><gom:speed>1.105</gom:speed></extensions></trkpt>
   <trkpt lat="59.2938451723" lon="34.6678790484"><ele>155.368</ele><time>2026-08-16T15:10:20.994Z</time><hdop>3.0</hdop><vdop>2.5</vdop><extensions><gom:speed>1.112</gom:speed></extensions></trkpt>
   <trkpt lat="59.2938527998" lon="34.6679060381"><ele>155.647</ele><time>2026-08-16T15:10:22.093Z</time><hdop>3.0</hdop><vdop>2.5</vdop><extensions><gom:speed>1.123</gom:speed></extensions></trkpt>
   <trkpt lat="59.2938577871" lon="34.6679247297"><ele>156.082</ele><time>2026-08-16T15:10:22.779Z</time><hdop>3.0</hdop><vdop>2.5</vdop><extensions><gom:speed>1.183</gom:speed></extensions></trkpt>
   <trkpt lat="59.2938616846" lon="34.6679409906"><ele>156.541</ele><time>2026-08-16T15:10:23.300Z</time><hdop>3.0</hdop><vdop>2.5</vdop><extensions><gom:speed>1.302</gom:speed></extensions></trkpt>
   <trkpt lat="59.2938660851" lon="34.6679626998"><ele>157.128</ele><time>2026-08-16T15:10:24.136Z</time><hdop>3.0</hdop><vdop>2.5</vdop><extensions><gom:speed>1.302</gom:speed></extensions></trkpt>
   <trkpt lat="59.2938706952" lon="34.6679809723"><ele>157.479</ele><time>2026-08-16T15:10:25.018Z</time><hdop>3.0</hdop><vdop>2.5</vdop><extensions><gom:speed>1.191</gom:speed></extensions></trkpt>
   <trkpt lat="59.2938731678" lon="34.6679938804"><ele>157.87</ele><time>2026-08-16T15:10:25.558Z</time><hdop>3.0</hdop><vdop>2.5</vdop><extensions><gom:speed>1.176</gom:speed></extensions></trkpt>
   <trkpt lat="59.293875892" lon="34.668006118"><ele>158.302</ele><time>2026-08-16T15:10:26.136Z</time><hdop>3.0</hdop><vdop>2.5</vdop><extensions><gom:speed>1.201</gom:speed></extensions></trkpt>
   <trkpt lat="59.2938777779" lon="34.668020954"><ele>158.561</ele><time>2026-08-16T15:10:26.942Z</time><hdop>3.0</hdop><vdop>2.5</vdop><extensions><gom:speed>1.032</gom:speed></extensions></trkpt>
   <trkpt lat="59.293877275" lon="34.6680270728"><ele>158.453</ele><time>2026-08-16T15:10:27.482Z</time><hdop>3.0</hdop><vdop>2.5</vdop><extensions><gom:speed>0.921</gom:speed></extensions></trkpt>
   <trkpt lat="59.2938782808" lon="34.6680366282"><ele>158.513</ele><time>2026-08-16T15:10:28.136Z</time><hdop>3.0</hdop><vdop>2.5</vdop><extensions><gom:speed>0.988</gom:speed></extensions></trkpt>
   <trkpt lat="59.2938820946" lon="34.6680491172"><ele>158.514</ele><time>2026-08-16T15:10:29.136Z</time><hdop>3.0</hdop><vdop>2.5</vdop><extensions><gom:speed>0.922</gom:speed></extensions></trkpt>
   <trkpt lat="59.2938847768" lon="34.6680549845"><ele>158.224</ele><time>2026-08-16T15:10:30.136Z</time><hdop>3.0</hdop><vdop>2.5</vdop><extensions><gom:speed>0.625</gom:speed></extensions></trkpt>
   <trkpt lat="59.293886076" lon="34.6680603489"><ele>158.051</ele><time>2026-08-16T15:10:30.976Z</time><hdop>3.0</hdop><vdop>2.5</vdop><extensions><gom:speed>0.568</gom:speed></extensions></trkpt>
   <trkpt lat="59.2938835614" lon="34.6680544816"><ele>157.931</ele><time>2026-08-16T15:10:32.136Z</time><hdop>3.0</hdop><vdop>2.5</vdop><extensions><gom:speed>0.296</gom:speed></extensions></trkpt>
   <trkpt lat="59.293880963" lon="34.6680496201"><ele>157.876</ele><time>2026-08-16T15:10:33.136Z</time><hdop>3.0</hdop><vdop>2.5</vdop><extensions><gom:speed>0.177</gom:speed></extensions></trkpt>
   <trkpt lat="59.2938787837" lon="34.6680446748"><ele>157.783</ele><time>2026-08-16T15:10:34.136Z</time><hdop>3.0</hdop><vdop>2.5</vdop><extensions><gom:speed>0.123</gom:speed></extensions></trkpt>
   <trkpt lat="59.2938777779" lon="34.6680410706"><ele>157.702</ele><time>2026-08-16T15:10:35.136Z</time><hdop>3.0</hdop><vdop>2.5</vdop><extensions><gom:speed>0.091</gom:speed></extensions></trkpt>
   <trkpt lat="59.293877275" lon="34.6680383884"><ele>157.645</ele><time>2026-08-16T15:10:36.136Z</time><hdop>3.0</hdop><vdop>2.5</vdop><extensions><gom:speed>0.111</gom:speed></extensions></trkpt>
   <trkpt lat="59.2938774845" lon="34.6680383884"><ele>157.611</ele><time>2026-08-16T15:10:36.796Z</time><hdop>3.0</hdop><vdop>2.5</vdop><extensions><gom:speed>0.096</gom:speed></extensions></trkpt>
   <trkpt lat="59.2938764787" lon="34.6680322696"><ele>157.622</ele><time>2026-08-16T15:10:38.136Z</time><hdop>3.0</hdop><vdop>2.5</vdop><extensions><gom:speed>0.14</gom:speed></extensions></trkpt>
   <trkpt lat="59.2938756824" lon="34.6680313476"><ele>157.628</ele><time>2026-08-16T15:10:39.113Z</time><hdop>3.0</hdop><vdop>2.5</vdop><extensions><gom:speed>0.156</gom:speed></extensions></trkpt>
   <trkpt lat="59.2938745928" lon="34.6680219598"><ele>157.244</ele><time>2026-08-16T15:10:39.859Z</time><hdop>3.0</hdop><vdop>2.5</vdop><extensions><gom:speed>0.209</gom:speed></extensions></trkpt>
   <trkpt lat="59.2938784904" lon="34.6680122368"><ele>156.713</ele><time>2026-08-16T15:10:40.397Z</time><hdop>3.0</hdop><vdop>2.5</vdop><extensions><gom:speed>0.224</gom:speed></extensions></trkpt>
   <trkpt lat="59.2938825975" lon="34.6680015918"><ele>155.176</ele><time>2026-08-16T15:10:41.136Z</time><hdop>3.0</hdop><vdop>2.5</vdop><extensions><gom:speed>0.7</gom:speed></extensions></trkpt>
   <trkpt lat="59.2938825975" lon="34.6679871749"><ele>154.258</ele><time>2026-08-16T15:10:41.998Z</time><hdop>3.0</hdop><vdop>2.5</vdop><extensions><gom:speed>0.752</gom:speed></extensions></trkpt>
   <trkpt lat="59.2938842739" lon="34.667958425"><ele>154.382</ele><time>2026-08-16T15:10:42.518Z</time><hdop>3.0</hdop><vdop>2.5</vdop><extensions><gom:speed>1.28</gom:speed></extensions></trkpt>
   <trkpt lat="59.293884693" lon="34.6679383922"><ele>153.531</ele><time>2026-08-16T15:10:43.136Z</time><hdop>3.0</hdop><vdop>2.5</vdop><extensions><gom:speed>1.217</gom:speed></extensions></trkpt>
   <trkpt lat="59.2938842739" lon="34.667910732"><ele>152.69</ele><time>2026-08-16T15:10:44.136Z</time><hdop>3.0</hdop><vdop>2.5</vdop><extensions><gom:speed>1.143</gom:speed></extensions></trkpt>
   <trkpt lat="59.293883268" lon="34.6678992488"><ele>152.188</ele><time>2026-08-16T15:10:44.640Z</time><hdop>3.0</hdop><vdop>2.5</vdop><extensions><gom:speed>1.116</gom:speed></extensions></trkpt>
   <trkpt lat="59.2938831842" lon="34.6678860892"><ele>151.757</ele><time>2026-08-16T15:10:45.135Z</time><hdop>3.0</hdop><vdop>2.5</vdop><extensions><gom:speed>1.062</gom:speed></extensions></trkpt>
   <trkpt lat="59.2938854892" lon="34.6678649668"><ele>151.5</ele><time>2026-08-16T15:10:46.141Z</time><hdop>3.0</hdop><vdop>2.5</vdop><extensions><gom:speed>1.022</gom:speed></extensions></trkpt>
   <trkpt lat="59.2938877943" lon="34.6678488735"><ele>151.304</ele><time>2026-08-16T15:10:46.779Z</time><hdop>3.0</hdop><vdop>2.5</vdop><extensions><gom:speed>0.984</gom:speed></extensions></trkpt>
   <trkpt lat="59.2938921948" lon="34.6678263262"><ele>151.113</ele><time>2026-08-16T15:10:47.653Z</time><hdop>3.0</hdop><vdop>2.5</vdop><extensions><gom:speed>0.967</gom:speed></extensions></trkpt>
   <trkpt lat="59.2938945836" lon="34.6678131666"><ele>150.738</ele><time>2026-08-16T15:10:48.136Z</time><hdop>3.0</hdop><vdop>2.5</vdop><extensions><gom:speed>1.002</gom:speed></extensions></trkpt>
   <trkpt lat="59.2938995708" lon="34.6677927986"><ele>150.62</ele><time>2026-08-16T15:10:49.136Z</time><hdop>3.0</hdop><vdop>2.5</vdop><extensions><gom:speed>0.912</gom:speed></extensions></trkpt>
   <trkpt lat="59.2939061925" lon="34.6677783817"><ele>150.627</ele><time>2026-08-16T15:10:50.136Z</time><hdop>3.0</hdop><vdop>2.5</vdop><extensions><gom:speed>0.882</gom:speed></extensions></trkpt>
   <trkpt lat="59.2939123952" lon="34.6677754481"><ele>150.631</ele><time>2026-08-16T15:10:50.872Z</time><hdop>3.0</hdop><vdop>2.5</vdop><extensions><gom:speed>0.897</gom:speed></extensions></trkpt>
   <trkpt lat="59.2939207771" lon="34.667765725"><ele>150.541</ele><time>2026-08-16T15:10:51.962Z</time><hdop>3.0</hdop><vdop>2.625</vdop><extensions><gom:speed>0.934</gom:speed></extensions></trkpt>
   <trkpt lat="59.2939285722" lon="34.667759271"><ele>150.925</ele><time>2026-08-16T15:10:53.061Z</time><hdop>3.0</hdop><vdop>2.562</vdop><extensions><gom:speed>0.929</gom:speed></extensions></trkpt>
   <trkpt lat="59.2939357807" lon="34.6677480392"><ele>151.675</ele><time>2026-08-16T15:10:54.136Z</time><hdop>3.0</hdop><vdop>2.562</vdop><extensions><gom:speed>0.994</gom:speed></extensions></trkpt>
   <trkpt lat="59.293944875" lon="34.6677439321"><ele>151.974</ele><time>2026-08-16T15:10:55.136Z</time><hdop>3.0</hdop><vdop>2.562</vdop><extensions><gom:speed>1.081</gom:speed></extensions></trkpt>
   <trkpt lat="59.2939506585" lon="34.6677280903"><ele>151.619</ele><time>2026-08-16T15:10:56.136Z</time><hdop>3.0</hdop><vdop>2.562</vdop><extensions><gom:speed>0.872</gom:speed></extensions></trkpt>
   <trkpt lat="59.2939560649" lon="34.6677187864"><ele>151.407</ele><time>2026-08-16T15:10:57.056Z</time><hdop>3.0</hdop><vdop>2.562</vdop><extensions><gom:speed>0.807</gom:speed></extensions></trkpt>
   <trkpt lat="59.2939627704" lon="34.6677137572"><ele>151.315</ele><time>2026-08-16T15:10:57.861Z</time><hdop>3.0</hdop><vdop>2.625</vdop><extensions><gom:speed>0.929</gom:speed></extensions></trkpt>
   <trkpt lat="59.2939699788" lon="34.6677099854"><ele>152.364</ele><time>2026-08-16T15:10:59.136Z</time><hdop>3.0</hdop><vdop>2.5</vdop><extensions><gom:speed>1.077</gom:speed></extensions></trkpt>
   <trkpt lat="59.293973583" lon="34.6677133381"><ele>152.99</ele><time>2026-08-16T15:10:59.636Z</time><hdop>3.0</hdop><vdop>2.5</vdop><extensions><gom:speed>0.986</gom:speed></extensions></trkpt>
   <trkpt lat="59.2939757623" lon="34.6677182835"><ele>153.815</ele><time>2026-08-16T15:11:00.136Z</time><hdop>3.0</hdop><vdop>2.5</vdop><extensions><gom:speed>0.972</gom:speed></extensions></trkpt>
   <trkpt lat="59.2939817973" lon="34.6677246537"><ele>154.308</ele><time>2026-08-16T15:11:01.002Z</time><hdop>3.0</hdop><vdop>2.5</vdop><extensions><gom:speed>0.934</gom:speed></extensions></trkpt>
   <trkpt lat="59.2939860721" lon="34.6677297667"><ele>154.507</ele><time>2026-08-16T15:11:01.816Z</time><hdop>3.0</hdop><vdop>2.5</vdop><extensions><gom:speed>0.897</gom:speed></extensions></trkpt>
   <trkpt lat="59.2939868684" lon="34.6677326165"><ele>154.752</ele><time>2026-08-16T15:11:02.297Z</time><hdop>3.0</hdop><vdop>2.5</vdop><extensions><gom:speed>0.882</gom:speed></extensions></trkpt>
   <trkpt lat="59.2939929872" lon="34.6677351311"><ele>154.899</ele><time>2026-08-16T15:11:03.122Z</time><hdop>3.0</hdop><vdop>2.5</vdop><extensions><gom:speed>0.858</gom:speed></extensions></trkpt>
   <trkpt lat="59.2939958789" lon="34.6677301858"><ele>154.835</ele><time>2026-08-16T15:11:04.136Z</time><hdop>3.0</hdop><vdop>2.5</vdop><extensions><gom:speed>0.967</gom:speed></extensions></trkpt>
   <trkpt lat="59.2940021653" lon="34.6677236479"><ele>154.797</ele><time>2026-08-16T15:11:05.075Z</time><hdop>3.0</hdop><vdop>2.5</vdop><extensions><gom:speed>0.911</gom:speed></extensions></trkpt>
   <trkpt lat="59.2940043865" lon="34.6677193731"><ele>154.875</ele><time>2026-08-16T15:11:05.782Z</time><hdop>3.0</hdop><vdop>2.5</vdop><extensions><gom:speed>0.782</gom:speed></extensions></trkpt>
   <trkpt lat="59.2940072783" lon="34.6677154336"><ele>154.903</ele><time>2026-08-16T15:11:06.577Z</time><hdop>3.0</hdop><vdop>2.5</vdop><extensions><gom:speed>0.782</gom:speed></extensions></trkpt>
   <trkpt lat="59.2940094995" lon="34.667711997"><ele>154.785</ele><time>2026-08-16T15:11:07.136Z</time><hdop>3.0</hdop><vdop>2.5</vdop><extensions><gom:speed>0.754</gom:speed></extensions></trkpt>
   <trkpt lat="59.2940139838" lon="34.667703196"><ele>154.714</ele><time>2026-08-16T15:11:08.078Z</time><hdop>3.0</hdop><vdop>2.5</vdop><extensions><gom:speed>0.764</gom:speed></extensions></trkpt>
   <trkpt lat="59.2940149896" lon="34.6676922996"><ele>154.456</ele><time>2026-08-16T15:11:08.756Z</time><hdop>3.0</hdop><vdop>2.5</vdop><extensions><gom:speed>0.794</gom:speed></extensions></trkpt>
   <trkpt lat="59.2940145706" lon="34.6676795591"><ele>153.922</ele><time>2026-08-16T15:11:09.413Z</time><hdop>3.0</hdop><vdop>2.5</vdop><extensions><gom:speed>0.837</gom:speed></extensions></trkpt>
   <trkpt lat="59.2940138581" lon="34.6676665671"><ele>153.554</ele><time>2026-08-16T15:11:10.136Z</time><hdop>3.0</hdop><vdop>2.5</vdop><extensions><gom:speed>0.809</gom:speed></extensions></trkpt>
   <trkpt lat="59.294012978" lon="34.6676532399"><ele>153.333</ele><time>2026-08-16T15:11:10.934Z</time><hdop>3.0</hdop><vdop>2.5</vdop><extensions><gom:speed>0.829</gom:speed></extensions></trkpt>
   <trkpt lat="59.2940103796" lon="34.6676403318"><ele>153.007</ele><time>2026-08-16T15:11:11.759Z</time><hdop>3.0</hdop><vdop>2.5</vdop><extensions><gom:speed>0.8</gom:speed></extensions></trkpt>
   <trkpt lat="59.2940089966" lon="34.6676277589"><ele>153.119</ele><time>2026-08-16T15:11:12.554Z</time><hdop>3.0</hdop><vdop>2.5</vdop><extensions><gom:speed>0.756</gom:speed></extensions></trkpt>
   <trkpt lat="59.2940085775" lon="34.6676229812"><ele>153.391</ele><time>2026-08-16T15:11:13.136Z</time><hdop>3.0</hdop><vdop>2.5</vdop><extensions><gom:speed>0.574</gom:speed></extensions></trkpt>
   <trkpt lat="59.2940140676" lon="34.6676262502"><ele>153.735</ele><time>2026-08-16T15:11:14.136Z</time><hdop>3.0</hdop><vdop>2.5</vdop><extensions><gom:speed>0.859</gom:speed></extensions></trkpt>
   <trkpt lat="59.2940160793" lon="34.6676450256"><ele>153.947</ele><time>2026-08-16T15:11:15.136Z</time><hdop>3.0</hdop><vdop>2.5</vdop><extensions><gom:speed>0.534</gom:speed></extensions></trkpt>
   <trkpt lat="59.2940153668" lon="34.6676540781"><ele>154.074</ele><time>2026-08-16T15:11:15.853Z</time><hdop>3.0</hdop><vdop>2.5</vdop><extensions><gom:speed>0.384</gom:speed></extensions></trkpt>
   <trkpt lat="59.294012978" lon="34.6676625438"><ele>154.381</ele><time>2026-08-16T15:11:17.136Z</time><hdop>3.0</hdop><vdop>2.5</vdop><extensions><gom:speed>0.183</gom:speed></extensions></trkpt>
   <trkpt lat="59.2940123913" lon="34.6676645555"><ele>154.631</ele><time>2026-08-16T15:11:18.136Z</time><hdop>3.0</hdop><vdop>2.5</vdop><extensions><gom:speed>0.148</gom:speed></extensions></trkpt>
   <trkpt lat="59.2940122655" lon="34.6676643878"><ele>154.637</ele><time>2026-08-16T15:11:19.136Z</time><hdop>3.0</hdop><vdop>2.5</vdop><extensions><gom:speed>0.168</gom:speed></extensions></trkpt>
   <trkpt lat="59.294012978" lon="34.6676627953"><ele>154.641</ele><time>2026-08-16T15:11:19.995Z</time><hdop>3.0</hdop><vdop>2.5</vdop><extensions><gom:speed>0.141</gom:speed></extensions></trkpt>
   <trkpt lat="59.2940136905" lon="34.6676598616"><ele>154.524</ele><time>2026-08-16T15:11:20.653Z</time><hdop>3.0</hdop><vdop>2.5</vdop><extensions><gom:speed>0.171</gom:speed></extensions></trkpt>
   <trkpt lat="59.2940147801" lon="34.6676580176"><ele>154.517</ele><time>2026-08-16T15:11:21.136Z</time><hdop>3.0</hdop><vdop>2.5</vdop><extensions><gom:speed>0.19</gom:speed></extensions></trkpt>
   <trkpt lat="59.2940176719" lon="34.6676535752"><ele>154.658</ele><time>2026-08-16T15:11:22.136Z</time><hdop>3.0</hdop><vdop>2.5</vdop><extensions><gom:speed>0.289</gom:speed></extensions></trkpt>
   <trkpt lat="59.2940199769" lon="34.6676475402"><ele>154.743</ele><time>2026-08-16T15:11:23.136Z</time><hdop>3.0</hdop><vdop>2.5</vdop><extensions><gom:speed>0.227</gom:speed></extensions></trkpt>
   <trkpt lat="59.294024084" lon="34.6676336262"><ele>154.781</ele><time>2026-08-16T15:11:24.136Z</time><hdop>3.0</hdop><vdop>2.562</vdop><extensions><gom:speed>0.66</gom:speed></extensions></trkpt>
   <trkpt lat="59.2940265986" lon="34.6676204667"><ele>154.804</ele><time>2026-08-16T15:11:24.854Z</time><hdop>3.0</hdop><vdop>2.562</vdop><extensions><gom:speed>0.706</gom:speed></extensions></trkpt>
   <trkpt lat="59.2940304962" lon="34.6676049601"><ele>154.963</ele><time>2026-08-16T15:11:25.452Z</time><hdop>3.0</hdop><vdop>2.687</vdop><extensions><gom:speed>0.861</gom:speed></extensions></trkpt>
   <trkpt lat="59.294032885" lon="34.6675889507"><ele>155.046</ele><time>2026-08-16T15:11:26.136Z</time><hdop>3.0</hdop><vdop>2.562</vdop><extensions><gom:speed>0.909</gom:speed></extensions></trkpt>
   <trkpt lat="59.2940352739" lon="34.6675632183"><ele>154.889</ele><time>2026-08-16T15:11:27.136Z</time><hdop>3.0</hdop><vdop>2.5</vdop><extensions><gom:speed>1.03</gom:speed></extensions></trkpt>
   <trkpt lat="59.2940365731" lon="34.6675481308"><ele>154.795</ele><time>2026-08-16T15:11:27.739Z</time><hdop>3.0</hdop><vdop>2.5</vdop><extensions><gom:speed>1.038</gom:speed></extensions></trkpt>
   <trkpt lat="59.2940401773" lon="34.6675296907"><ele>154.576</ele><time>2026-08-16T15:11:28.436Z</time><hdop>3.0</hdop><vdop>2.562</vdop><extensions><gom:speed>1.124</gom:speed></extensions></trkpt>
   <trkpt lat="59.2940445778" lon="34.6675138489"><ele>154.243</ele><time>2026-08-16T15:11:29.136Z</time><hdop>3.0</hdop><vdop>2.75</vdop><extensions><gom:speed>1.138</gom:speed></extensions></trkpt>
   <trkpt lat="59.2940489783" lon="34.6675036229"><ele>154.045</ele><time>2026-08-16T15:11:29.761Z</time><hdop>3.0</hdop><vdop>2.75</vdop><extensions><gom:speed>1.017</gom:speed></extensions></trkpt>
   <trkpt lat="59.2940542589" lon="34.6674980909"><ele>154.022</ele><time>2026-08-16T15:11:30.321Z</time><hdop>3.0</hdop><vdop>2.625</vdop><extensions><gom:speed>0.955</gom:speed></extensions></trkpt>
   <trkpt lat="59.2940603777" lon="34.6674901281"><ele>154.068</ele><time>2026-08-16T15:11:31.136Z</time><hdop>3.0</hdop><vdop>2.5</vdop><extensions><gom:speed>0.894</gom:speed></extensions></trkpt>
   <trkpt lat="59.2940645686" lon="34.6674842607"><ele>154.096</ele><time>2026-08-16T15:11:31.695Z</time><hdop>3.0</hdop><vdop>2.5</vdop><extensions><gom:speed>0.919</gom:speed></extensions></trkpt>
   <trkpt lat="59.2940691787" lon="34.6674737834"><ele>154.131</ele><time>2026-08-16T15:11:32.539Z</time><hdop>3.0</hdop><vdop>2.625</vdop><extensions><gom:speed>0.915</gom:speed></extensions></trkpt>
   <trkpt lat="59.2940704778" lon="34.6674663235"><ele>154.441</ele><time>2026-08-16T15:11:33.136Z</time><hdop>3.0</hdop><vdop>2.5</vdop><extensions><gom:speed>0.853</gom:speed></extensions></trkpt>
   <trkpt lat="59.2940724895" lon="34.6674575225"><ele>154.626</ele><time>2026-08-16T15:11:33.756Z</time><hdop>3.0</hdop><vdop>2.5</vdop><extensions><gom:speed>0.882</gom:speed></extensions></trkpt>
   <trkpt lat="59.2940777701" lon="34.6674634736"><ele>154.753</ele><time>2026-08-16T15:11:34.737Z</time><hdop>3.0</hdop><vdop>2.5</vdop><extensions><gom:speed>0.993</gom:speed></extensions></trkpt>
   <trkpt lat="59.2940808714" lon="34.6674749568"><ele>154.848</ele><time>2026-08-16T15:11:35.218Z</time><hdop>3.0</hdop><vdop>2.562</vdop><extensions><gom:speed>1.383</gom:speed></extensions></trkpt>
   <trkpt lat="59.2940932766" lon="34.6674902957"><ele>155.393</ele><time>2026-08-16T15:11:36.136Z</time><hdop>3.0</hdop><vdop>2.687</vdop><extensions><gom:speed>1.449</gom:speed></extensions></trkpt>
   <trkpt lat="59.2941002755" lon="34.6674956601"><ele>155.718</ele><time>2026-08-16T15:11:36.877Z</time><hdop>3.0</hdop><vdop>2.687</vdop><extensions><gom:speed>1.181</gom:speed></extensions></trkpt>
   <trkpt lat="59.2941099985" lon="34.6675080653"><ele>155.605</ele><time>2026-08-16T15:11:37.721Z</time><hdop>3.0</hdop><vdop>2.562</vdop><extensions><gom:speed>1.137</gom:speed></extensions></trkpt>
   <trkpt lat="59.2941238706" lon="34.6675089873"><ele>156.222</ele><time>2026-08-16T15:11:38.320Z</time><hdop>3.0</hdop><vdop>2.5</vdop><extensions><gom:speed>1.236</gom:speed></extensions></trkpt>
   <trkpt lat="59.2941309952" lon="34.6675103285"><ele>156.59</ele><time>2026-08-16T15:11:38.860Z</time><hdop>3.0</hdop><vdop>2.5</vdop><extensions><gom:speed>1.173</gom:speed></extensions></trkpt>
   <trkpt lat="59.2941442805" lon="34.6675118372"><ele>156.994</ele><time>2026-08-16T15:11:39.498Z</time><hdop>3.0</hdop><vdop>2.5</vdop><extensions><gom:speed>1.243</gom:speed></extensions></trkpt>
   <trkpt lat="59.2941544645" lon="34.6675097417"><ele>157.455</ele><time>2026-08-16T15:11:40.136Z</time><hdop>3.0</hdop><vdop>2.5</vdop><extensions><gom:speed>1.265</gom:speed></extensions></trkpt>
   <trkpt lat="59.2941678756" lon="34.6674990967"><ele>158.195</ele><time>2026-08-16T15:11:41.136Z</time><hdop>3.0</hdop><vdop>2.562</vdop><extensions><gom:speed>1.219</gom:speed></extensions></trkpt>
   <trkpt lat="59.2941800712" lon="34.6674858533"><ele>158.79</ele><time>2026-08-16T15:11:42.136Z</time><hdop>3.0</hdop><vdop>2.5</vdop><extensions><gom:speed>1.222</gom:speed></extensions></trkpt>
   <trkpt lat="59.2941857709" lon="34.6674802374"><ele>159.146</ele><time>2026-08-16T15:11:42.639Z</time><hdop>3.0</hdop><vdop>2.5</vdop><extensions><gom:speed>1.156</gom:speed></extensions></trkpt>
   <trkpt lat="59.2941913868" lon="34.6674731966"><ele>159.566</ele><time>2026-08-16T15:11:43.136Z</time><hdop>3.0</hdop><vdop>2.5</vdop><extensions><gom:speed>1.235</gom:speed></extensions></trkpt>
   <trkpt lat="59.2942010679" lon="34.6674640603"><ele>159.818</ele><time>2026-08-16T15:11:44.013Z</time><hdop>3.0</hdop><vdop>2.5</vdop><extensions><gom:speed>1.173</gom:speed></extensions></trkpt>
   <trkpt lat="59.294207061" lon="34.6674480509"><ele>159.744</ele><time>2026-08-16T15:11:44.719Z</time><hdop>3.0</hdop><vdop>2.5</vdop><extensions><gom:speed>1.12</gom:speed></extensions></trkpt>
   <trkpt lat="59.2942063904" lon="34.6674355619"><ele>159.814</ele><time>2026-08-16T15:11:45.259Z</time><hdop>3.0</hdop><vdop>2.5</vdop><extensions><gom:speed>0.925</gom:speed></extensions></trkpt>
   <trkpt lat="59.2942094917" lon="34.6674256712"><ele>159.855</ele><time>2026-08-16T15:11:45.936Z</time><hdop>3.0</hdop><vdop>2.5</vdop><extensions><gom:speed>0.96</gom:speed></extensions></trkpt>
   <trkpt lat="59.2942098689" lon="34.6674097456"><ele>159.882</ele><time>2026-08-16T15:11:46.692Z</time><hdop>3.0</hdop><vdop>2.5</vdop><extensions><gom:speed>0.894</gom:speed></extensions></trkpt>
   <trkpt lat="59.2942121739" lon="34.6673946582"><ele>159.661</ele><time>2026-08-16T15:11:47.173Z</time><hdop>3.0</hdop><vdop>2.5</vdop><extensions><gom:speed>1.208</gom:speed></extensions></trkpt>
   <trkpt lat="59.2942198853" lon="34.6673830912"><ele>159.529</ele><time>2026-08-16T15:11:47.978Z</time><hdop>3.0</hdop><vdop>2.5</vdop><extensions><gom:speed>1.126</gom:speed></extensions></trkpt>
   <trkpt lat="59.2942303627" lon="34.6673707698"><ele>159.402</ele><time>2026-08-16T15:11:48.842Z</time><hdop>3.0</hdop><vdop>2.5</vdop><extensions><gom:speed>1.275</gom:speed></extensions></trkpt>
   <trkpt lat="59.2942373615" lon="34.6673593704"><ele>159.386</ele><time>2026-08-16T15:11:49.460Z</time><hdop>3.0</hdop><vdop>2.5</vdop><extensions><gom:speed>1.253</gom:speed></extensions></trkpt>
   <trkpt lat="59.2942448633" lon="34.6673487254"><ele>159.47</ele><time>2026-08-16T15:11:50.136Z</time><hdop>3.0</hdop><vdop>2.5</vdop><extensions><gom:speed>1.368</gom:speed></extensions></trkpt>
   <trkpt lat="59.2942511917" lon="34.6673414331"><ele>159.521</ele><time>2026-08-16T15:11:50.697Z</time><hdop>3.0</hdop><vdop>2.5</vdop><extensions><gom:speed>1.281</gom:speed></extensions></trkpt>
   <trkpt lat="59.2942581906" lon="34.6673306205"><ele>159.851</ele><time>2026-08-16T15:11:51.452Z</time><hdop>3.0</hdop><vdop>2.5</vdop><extensions><gom:speed>1.291</gom:speed></extensions></trkpt>
   <trkpt lat="59.2942671592" lon="34.6673289441"><ele>160.48</ele><time>2026-08-16T15:11:52.136Z</time><hdop>3.0</hdop><vdop>2.5</vdop><extensions><gom:speed>1.495</gom:speed></extensions></trkpt>
   <trkpt lat="59.2942799835" lon="34.6673328836"><ele>160.642</ele><time>2026-08-16T15:11:53.136Z</time><hdop>3.0</hdop><vdop>2.5</vdop><extensions><gom:speed>1.41</gom:speed></extensions></trkpt>
   <trkpt lat="59.2942896646" lon="34.6673313748"><ele>160.385</ele><time>2026-08-16T15:11:54.136Z</time><hdop>3.0</hdop><vdop>2.5</vdop><extensions><gom:speed>1.342</gom:speed></extensions></trkpt>
   <trkpt lat="59.2942981722" lon="34.6673267648"><ele>160.157</ele><time>2026-08-16T15:11:55.136Z</time><hdop>3.0</hdop><vdop>2.5</vdop><extensions><gom:speed>1.289</gom:speed></extensions></trkpt>
   <trkpt lat="59.2943048778" lon="34.6673161198"><ele>160.02</ele><time>2026-08-16T15:11:55.997Z</time><hdop>3.0</hdop><vdop>2.5</vdop><extensions><gom:speed>1.188</gom:speed></extensions></trkpt>
   <trkpt lat="59.2943077695" lon="34.6673078217"><ele>159.504</ele><time>2026-08-16T15:11:56.753Z</time><hdop>3.0</hdop><vdop>2.5</vdop><extensions><gom:speed>1.066</gom:speed></extensions></trkpt>
   <trkpt lat="59.2943093621" lon="34.6673052233"><ele>159.605</ele><time>2026-08-16T15:11:57.254Z</time><hdop>3.0</hdop><vdop>2.5</vdop><extensions><gom:speed>1.087</gom:speed></extensions></trkpt>
   <trkpt lat="59.2943165705" lon="34.667297931"><ele>159.665</ele><time>2026-08-16T15:11:58.138Z</time><hdop>3.0</hdop><vdop>2.5</vdop><extensions><gom:speed>1.042</gom:speed></extensions></trkpt>
   <trkpt lat="59.2943217673" lon="34.6672986854"><ele>159.418</ele><time>2026-08-16T15:11:58.697Z</time><hdop>3.0</hdop><vdop>2.5</vdop><extensions><gom:speed>1.09</gom:speed></extensions></trkpt>
   <trkpt lat="59.2943278861" lon="34.6673053909"><ele>159.354</ele><time>2026-08-16T15:11:59.374Z</time><hdop>3.0</hdop><vdop>2.5</vdop><extensions><gom:speed>1.062</gom:speed></extensions></trkpt>
   <trkpt lat="59.2943347593" lon="34.6673040498"><ele>159.316</ele><time>2026-08-16T15:12:00.062Z</time><hdop>3.0</hdop><vdop>2.5</vdop><extensions><gom:speed>1.059</gom:speed></extensions></trkpt>
   <trkpt lat="59.2943399979" lon="34.6673121803"><ele>159.063</ele><time>2026-08-16T15:12:00.757Z</time><hdop>3.0</hdop><vdop>2.5</vdop><extensions><gom:speed>0.979</gom:speed></extensions></trkpt>
   <trkpt lat="59.2943449852" lon="34.6673228253"><ele>159.035</ele><time>2026-08-16T15:12:01.495Z</time><hdop>3.0</hdop><vdop>2.5</vdop><extensions><gom:speed>0.966</gom:speed></extensions></trkpt>
   <trkpt lat="59.2943494695" lon="34.6673314586"><ele>158.758</ele><time>2026-08-16T15:12:02.136Z</time><hdop>3.0</hdop><vdop>2.625</vdop><extensions><gom:speed>0.968</gom:speed></extensions></trkpt>
   <trkpt lat="59.2943565941" lon="34.6673398405"><ele>157.974</ele><time>2026-08-16T15:12:03.136Z</time><hdop>3.0</hdop><vdop>2.562</vdop><extensions><gom:speed>0.941</gom:speed></extensions></trkpt>
   <trkpt lat="59.2943637606" lon="34.6673355658"><ele>157.506</ele><time>2026-08-16T15:12:04.135Z</time><hdop>3.0</hdop><vdop>2.562</vdop><extensions><gom:speed>0.901</gom:speed></extensions></trkpt>
   <trkpt lat="59.2943669877" lon="34.6673317939"><ele>157.219</ele><time>2026-08-16T15:12:04.861Z</time><hdop>3.0</hdop><vdop>2.562</vdop><extensions><gom:speed>0.905</gom:speed></extensions></trkpt>
   <trkpt lat="59.2943711786" lon="34.6673283573"><ele>156.882</ele><time>2026-08-16T15:12:05.852Z</time><hdop>3.0</hdop><vdop>2.5</vdop><extensions><gom:speed>0.873</gom:speed></extensions></trkpt>
   <trkpt lat="59.2943756629" lon="34.667328525"><ele>156.781</ele><time>2026-08-16T15:12:06.638Z</time><hdop>3.0</hdop><vdop>2.75</vdop><extensions><gom:speed>0.878</gom:speed></extensions></trkpt>
   <trkpt lat="59.2943783871" lon="34.667330369"><ele>156.158</ele><time>2026-08-16T15:12:07.136Z</time><hdop>3.0</hdop><vdop>2.937</vdop><extensions><gom:speed>0.868</gom:speed></extensions></trkpt>
   <trkpt lat="59.2943842963" lon="34.6673337218"><ele>155.532</ele><time>2026-08-16T15:12:08.136Z</time><hdop>3.0</hdop><vdop>3.125</vdop><extensions><gom:speed>0.829</gom:speed></extensions></trkpt>
   <trkpt lat="59.294389996" lon="34.6673389185"><ele>155.158</ele><time>2026-08-16T15:12:08.836Z</time><hdop>3.0</hdop><vdop>3.125</vdop><extensions><gom:speed>0.87</gom:speed></extensions></trkpt>
   <trkpt lat="59.2943938936" lon="34.6673438639"><ele>154.898</ele><time>2026-08-16T15:12:09.337Z</time><hdop>3.0</hdop><vdop>3.0</vdop><extensions><gom:speed>1.012</gom:speed></extensions></trkpt>
   <trkpt lat="59.2943988808" lon="34.6673445344"><ele>154.742</ele><time>2026-08-16T15:12:09.818Z</time><hdop>3.0</hdop><vdop>3.0</vdop><extensions><gom:speed>1.014</gom:speed></extensions></trkpt>
   <trkpt lat="59.294404371" lon="34.6673426904"><ele>154.163</ele><time>2026-08-16T15:12:10.573Z</time><hdop>3.062</hdop><vdop>3.0</vdop><extensions><gom:speed>1.034</gom:speed></extensions></trkpt>
   <trkpt lat="59.2944078914" lon="34.6673415169"><ele>153.949</ele><time>2026-08-16T15:12:11.135Z</time><hdop>3.062</hdop><vdop>2.687</vdop><extensions><gom:speed>0.978</gom:speed></extensions></trkpt>
   <trkpt lat="59.2944124595" lon="34.66734378"><ele>153.821</ele><time>2026-08-16T15:12:11.820Z</time><hdop>3.125</hdop><vdop>2.687</vdop><extensions><gom:speed>0.94</gom:speed></extensions></trkpt>
   <trkpt lat="59.2944141778" lon="34.6673475519"><ele>154.148</ele><time>2026-08-16T15:12:12.458Z</time><hdop>3.125</hdop><vdop>2.5</vdop><extensions><gom:speed>0.922</gom:speed></extensions></trkpt>
   <trkpt lat="59.2944183687" lon="34.6673573587"><ele>154.48</ele><time>2026-08-16T15:12:13.135Z</time><hdop>3.125</hdop><vdop>2.5</vdop><extensions><gom:speed>1.148</gom:speed></extensions></trkpt>
   <trkpt lat="59.2944225597" lon="34.667366495"><ele>154.678</ele><time>2026-08-16T15:12:13.734Z</time><hdop>3.125</hdop><vdop>2.5</vdop><extensions><gom:speed>1.043</gom:speed></extensions></trkpt>
   <trkpt lat="59.2944255772" lon="34.6673807442"><ele>154.825</ele><time>2026-08-16T15:12:14.617Z</time><hdop>3.125</hdop><vdop>2.5</vdop><extensions><gom:speed>0.938</gom:speed></extensions></trkpt>
   <trkpt lat="59.2944261639" lon="34.6673857734"><ele>155.045</ele><time>2026-08-16T15:12:15.136Z</time><hdop>3.062</hdop><vdop>2.5</vdop><extensions><gom:speed>0.89</gom:speed></extensions></trkpt>
   <trkpt lat="59.2944304806" lon="34.6673935685"><ele>155.177</ele><time>2026-08-16T15:12:15.982Z</time><hdop>3.0</hdop><vdop>2.5</vdop><extensions><gom:speed>0.922</gom:speed></extensions></trkpt>
   <trkpt lat="59.2944323665" lon="34.6673945744"><ele>155.359</ele><time>2026-08-16T15:12:16.600Z</time><hdop>3.0</hdop><vdop>2.5</vdop><extensions><gom:speed>0.911</gom:speed></extensions></trkpt>
   <trkpt lat="59.2944339591" lon="34.6673950773"><ele>155.526</ele><time>2026-08-16T15:12:17.136Z</time><hdop>3.0</hdop><vdop>2.5</vdop><extensions><gom:speed>0.875</gom:speed></extensions></trkpt>
   <trkpt lat="59.294439072" lon="34.6673973404"><ele>155.626</ele><time>2026-08-16T15:12:17.896Z</time><hdop>3.0</hdop><vdop>2.5</vdop><extensions><gom:speed>0.891</gom:speed></extensions></trkpt>
   <trkpt lat="59.2944443945" lon="34.6673862763"><ele>155.441</ele><time>2026-08-16T15:12:18.916Z</time><hdop>3.0</hdop><vdop>2.5</vdop><extensions><gom:speed>0.864</gom:speed></extensions></trkpt>
   <trkpt lat="59.2944447717" lon="34.667378062"><ele>155.224</ele><time>2026-08-16T15:12:19.378Z</time><hdop>3.0</hdop><vdop>2.5</vdop><extensions><gom:speed>0.826</gom:speed></extensions></trkpt>
   <trkpt lat="59.2944479988" lon="34.6673739549"><ele>155.167</ele><time>2026-08-16T15:12:20.136Z</time><hdop>3.0</hdop><vdop>2.5</vdop><extensions><gom:speed>0.761</gom:speed></extensions></trkpt>
   <trkpt lat="59.2944525669" lon="34.6673742902"><ele>155.134</ele><time>2026-08-16T15:12:20.820Z</time><hdop>3.0</hdop><vdop>2.5</vdop><extensions><gom:speed>0.807</gom:speed></extensions></trkpt>
   <trkpt lat="59.2944561711" lon="34.6673721947"><ele>154.858</ele><time>2026-08-16T15:12:21.517Z</time><hdop>3.0</hdop><vdop>2.5</vdop><extensions><gom:speed>0.811</gom:speed></extensions></trkpt>
   <trkpt lat="59.2944593982" lon="34.6673722785"><ele>154.512</ele><time>2026-08-16T15:12:22.136Z</time><hdop>3.0</hdop><vdop>2.5</vdop><extensions><gom:speed>0.766</gom:speed></extensions></trkpt>
   <trkpt lat="59.2944646788" lon="34.6673763856"><ele>154.305</ele><time>2026-08-16T15:12:23.058Z</time><hdop>3.0</hdop><vdop>2.5</vdop><extensions><gom:speed>0.751</gom:speed></extensions></trkpt>
   <trkpt lat="59.2944660618" lon="34.6673764695"><ele>154.023</ele><time>2026-08-16T15:12:23.577Z</time><hdop>3.0</hdop><vdop>2.5</vdop><extensions><gom:speed>0.695</gom:speed></extensions></trkpt>
   <trkpt lat="59.2944675705" lon="34.6673747931"><ele>154.097</ele><time>2026-08-16T15:12:24.136Z</time><hdop>3.0</hdop><vdop>2.5</vdop><extensions><gom:speed>0.682</gom:speed></extensions></trkpt>
   <trkpt lat="59.2944731864" lon="34.667373452"><ele>154.141</ele><time>2026-08-16T15:12:25.021Z</time><hdop>3.0</hdop><vdop>2.5</vdop><extensions><gom:speed>0.737</gom:speed></extensions></trkpt>
   <trkpt lat="59.2944752819" lon="34.6673718594"><ele>154.062</ele><time>2026-08-16T15:12:25.659Z</time><hdop>3.0</hdop><vdop>2.5</vdop><extensions><gom:speed>0.738</gom:speed></extensions></trkpt>
   <trkpt lat="59.2944766649" lon="34.6673702669"><ele>154.174</ele><time>2026-08-16T15:12:26.136Z</time><hdop>3.0</hdop><vdop>2.5</vdop><extensions><gom:speed>0.711</gom:speed></extensions></trkpt>
   <trkpt lat="59.294481694" lon="34.6673682552"><ele>154.241</ele><time>2026-08-16T15:12:26.955Z</time><hdop>3.0</hdop><vdop>2.5</vdop><extensions><gom:speed>0.742</gom:speed></extensions></trkpt>
   <trkpt lat="59.2944869746" lon="34.6673624717"><ele>154.295</ele><time>2026-08-16T15:12:28.136Z</time><hdop>3.0</hdop><vdop>2.5</vdop><extensions><gom:speed>0.836</gom:speed></extensions></trkpt>
   <trkpt lat="59.2944908722" lon="34.6673623879"><ele>154.327</ele><time>2026-08-16T15:12:28.722Z</time><hdop>3.0</hdop><vdop>2.5</vdop><extensions><gom:speed>0.789</gom:speed></extensions></trkpt>
   <trkpt lat="59.2944955661" lon="34.6673654892"><ele>154.414</ele><time>2026-08-16T15:12:29.674Z</time><hdop>3.0</hdop><vdop>2.5</vdop><extensions><gom:speed>0.774</gom:speed></extensions></trkpt>
   <trkpt lat="59.2944972844" lon="34.6673678361"><ele>154.842</ele><time>2026-08-16T15:12:30.136Z</time><hdop>3.0</hdop><vdop>2.5</vdop><extensions><gom:speed>0.742</gom:speed></extensions></trkpt>
   <trkpt lat="59.2945029841" lon="34.6673713565"><ele>155.181</ele><time>2026-08-16T15:12:31.136Z</time><hdop>3.0</hdop><vdop>2.5</vdop><extensions><gom:speed>0.79</gom:speed></extensions></trkpt>
   <trkpt lat="59.2945090609" lon="34.6673680876"><ele>155.723</ele><time>2026-08-16T15:12:32.136Z</time><hdop>3.0</hdop><vdop>2.5</vdop><extensions><gom:speed>0.705</gom:speed></extensions></trkpt>
   <trkpt lat="59.2945150959" lon="34.6673662435"><ele>156.2</ele><time>2026-08-16T15:12:33.136Z</time><hdop>3.0</hdop><vdop>2.5</vdop><extensions><gom:speed>0.675</gom:speed></extensions></trkpt>
   <trkpt lat="59.294520586" lon="34.6673726976"><ele>156.685</ele><time>2026-08-16T15:12:34.136Z</time><hdop>3.0</hdop><vdop>2.5</vdop><extensions><gom:speed>0.627</gom:speed></extensions></trkpt>
   <trkpt lat="59.2945244836" lon="34.6673816662"><ele>157.112</ele><time>2026-08-16T15:12:35.136Z</time><hdop>3.0</hdop><vdop>2.5</vdop><extensions><gom:speed>0.593</gom:speed></extensions></trkpt>
   <trkpt lat="59.2945255733" lon="34.6673891261"><ele>157.368</ele><time>2026-08-16T15:12:35.759Z</time><hdop>3.0</hdop><vdop>2.5</vdop><extensions><gom:speed>0.577</gom:speed></extensions></trkpt>
   <trkpt lat="59.2945243998" lon="34.6674011961"><ele>157.129</ele><time>2026-08-16T15:12:36.495Z</time><hdop>3.0</hdop><vdop>2.5</vdop><extensions><gom:speed>0.599</gom:speed></extensions></trkpt>
   <trkpt lat="59.2945241903" lon="34.6674079854"><ele>156.986</ele><time>2026-08-16T15:12:37.015Z</time><hdop>3.0</hdop><vdop>2.5</vdop><extensions><gom:speed>0.601</gom:speed></extensions></trkpt>
   <trkpt lat="59.2945232683" lon="34.6674237434"><ele>156.595</ele><time>2026-08-16T15:12:37.958Z</time><hdop>3.0</hdop><vdop>2.5</vdop><extensions><gom:speed>0.605</gom:speed></extensions></trkpt>
   <trkpt lat="59.294524777" lon="34.6674373221"><ele>156.183</ele><time>2026-08-16T15:12:38.537Z</time><hdop>3.0</hdop><vdop>2.5</vdop><extensions><gom:speed>0.804</gom:speed></extensions></trkpt>
   <trkpt lat="59.2945272916" lon="34.667446626"><ele>155.853</ele><time>2026-08-16T15:12:39.136Z</time><hdop>3.0</hdop><vdop>2.5</vdop><extensions><gom:speed>0.797</gom:speed></extensions></trkpt>
   <trkpt lat="59.2945319854" lon="34.6674566843"><ele>155.655</ele><time>2026-08-16T15:12:39.881Z</time><hdop>3.0</hdop><vdop>2.5</vdop><extensions><gom:speed>0.841</gom:speed></extensions></trkpt>
   <trkpt lat="59.2945368889" lon="34.6674629707"><ele>155.291</ele><time>2026-08-16T15:12:40.657Z</time><hdop>3.0</hdop><vdop>2.5</vdop><extensions><gom:speed>0.822</gom:speed></extensions></trkpt>
   <trkpt lat="59.2945399902" lon="34.6674644794"><ele>155.006</ele><time>2026-08-16T15:12:41.136Z</time><hdop>3.0</hdop><vdop>2.5</vdop><extensions><gom:speed>0.772</gom:speed></extensions></trkpt>
   <trkpt lat="59.2945473662" lon="34.6674647309"><ele>154.753</ele><time>2026-08-16T15:12:42.136Z</time><hdop>3.0</hdop><vdop>2.5</vdop><extensions><gom:speed>0.766</gom:speed></extensions></trkpt>
   <trkpt lat="59.2945544908" lon="34.6674607914"><ele>154.601</ele><time>2026-08-16T15:12:43.042Z</time><hdop>3.0</hdop><vdop>2.5</vdop><extensions><gom:speed>0.803</gom:speed></extensions></trkpt>
   <trkpt lat="59.2945551614" lon="34.6674539182"><ele>154.44</ele><time>2026-08-16T15:12:43.680Z</time><hdop>3.0</hdop><vdop>2.5</vdop><extensions><gom:speed>0.57</gom:speed></extensions></trkpt>
   <trkpt lat="59.2945544908" lon="34.6674497273"><ele>154.236</ele><time>2026-08-16T15:12:44.136Z</time><hdop>3.0</hdop><vdop>2.5</vdop><extensions><gom:speed>0.409</gom:speed></extensions></trkpt>
   <trkpt lat="59.2945531917" lon="34.667444782"><ele>154.103</ele><time>2026-08-16T15:12:45.136Z</time><hdop>3.0</hdop><vdop>2.5</vdop><extensions><gom:speed>0.246</gom:speed></extensions></trkpt>
   <trkpt lat="59.2945522696" lon="34.6674421836"><ele>154.059</ele><time>2026-08-16T15:12:46.136Z</time><hdop>3.0</hdop><vdop>2.5</vdop><extensions><gom:speed>0.183</gom:speed></extensions></trkpt>
   <trkpt lat="59.2945520601" lon="34.6674416807"><ele>154.032</ele><time>2026-08-16T15:12:46.654Z</time><hdop>3.0</hdop><vdop>2.5</vdop><extensions><gom:speed>0.147</gom:speed></extensions></trkpt>
   <trkpt lat="59.2945524792" lon="34.6674401719"><ele>153.958</ele><time>2026-08-16T15:12:47.136Z</time><hdop>3.0</hdop><vdop>2.5</vdop><extensions><gom:speed>0.196</gom:speed></extensions></trkpt>
   <trkpt lat="59.2945532755" lon="34.6674385794"><ele>153.914</ele><time>2026-08-16T15:12:48.018Z</time><hdop>3.0</hdop><vdop>2.5</vdop><extensions><gom:speed>0.211</gom:speed></extensions></trkpt>
   <trkpt lat="59.2945570892" lon="34.6674338855"><ele>153.842</ele><time>2026-08-16T15:12:48.775Z</time><hdop>3.0</hdop><vdop>2.5</vdop><extensions><gom:speed>0.329</gom:speed></extensions></trkpt>
   <trkpt lat="59.2945625794" lon="34.6674256712"><ele>153.98</ele><time>2026-08-16T15:12:49.619Z</time><hdop>3.0</hdop><vdop>2.5</vdop><extensions><gom:speed>0.462</gom:speed></extensions></trkpt>
   <trkpt lat="59.2945659741" lon="34.6674221508"><ele>154.196</ele><time>2026-08-16T15:12:50.136Z</time><hdop>3.0</hdop><vdop>2.5</vdop><extensions><gom:speed>0.532</gom:speed></extensions></trkpt>
   <trkpt lat="59.2945730987" lon="34.6674205583"><ele>154.257</ele><time>2026-08-16T15:12:51.136Z</time><hdop>3.0</hdop><vdop>2.5</vdop><extensions><gom:speed>0.596</gom:speed></extensions></trkpt>
   <trkpt lat="59.2945765772" lon="34.6674230728"><ele>154.293</ele><time>2026-08-16T15:12:51.700Z</time><hdop>3.0</hdop><vdop>2.5</vdop><extensions><gom:speed>0.565</gom:speed></extensions></trkpt>
   <trkpt lat="59.2945817739" lon="34.6674278505"><ele>154.397</ele><time>2026-08-16T15:12:52.357Z</time><hdop>3.0</hdop><vdop>2.5</vdop><extensions><gom:speed>0.633</gom:speed></extensions></trkpt>
   <trkpt lat="59.2945879766" lon="34.6674301975"><ele>154.548</ele><time>2026-08-16T15:12:53.136Z</time><hdop>3.0</hdop><vdop>2.5</vdop><extensions><gom:speed>0.688</gom:speed></extensions></trkpt>
   <trkpt lat="59.2945945983" lon="34.6674252521"><ele>154.637</ele><time>2026-08-16T15:12:54.016Z</time><hdop>3.0</hdop><vdop>2.5</vdop><extensions><gom:speed>0.708</gom:speed></extensions></trkpt>
   <trkpt lat="59.2946002979" lon="34.6674200554"><ele>154.414</ele><time>2026-08-16T15:12:54.841Z</time><hdop>3.0</hdop><vdop>2.5</vdop><extensions><gom:speed>0.718</gom:speed></extensions></trkpt>
   <trkpt lat="59.2946051595" lon="34.6674189657"><ele>154.24</ele><time>2026-08-16T15:12:55.420Z</time><hdop>3.0</hdop><vdop>2.5</vdop><extensions><gom:speed>0.765</gom:speed></extensions></trkpt>
   <trkpt lat="59.2946097695" lon="34.6674173731"><ele>154.136</ele><time>2026-08-16T15:12:55.979Z</time><hdop>3.0</hdop><vdop>2.5</vdop><extensions><gom:speed>0.762</gom:speed></extensions></trkpt>
   <trkpt lat="59.2946146729" lon="34.6674115896"><ele>154.045</ele><time>2026-08-16T15:12:56.794Z</time><hdop>3.0</hdop><vdop>2.5</vdop><extensions><gom:speed>0.76</gom:speed></extensions></trkpt>
   <trkpt lat="59.2946153854" lon="34.6674039621"><ele>154.114</ele><time>2026-08-16T15:12:57.353Z</time><hdop>3.0</hdop><vdop>2.5</vdop><extensions><gom:speed>0.787</gom:speed></extensions></trkpt>
   <trkpt lat="59.2946171875" lon="34.6673924789"><ele>154.156</ele><time>2026-08-16T15:12:58.139Z</time><hdop>3.0</hdop><vdop>2.5</vdop><extensions><gom:speed>0.795</gom:speed></extensions></trkpt>
   <trkpt lat="59.2946210851" lon="34.6673821692"><ele>154.26</ele><time>2026-08-16T15:12:59.136Z</time><hdop>3.0</hdop><vdop>2.5</vdop><extensions><gom:speed>0.799</gom:speed></extensions></trkpt>
   <trkpt lat="59.2946230967" lon="34.6673754636"><ele>154.322</ele><time>2026-08-16T15:12:59.601Z</time><hdop>3.0</hdop><vdop>2.5</vdop><extensions><gom:speed>0.854</gom:speed></extensions></trkpt>
   <trkpt lat="59.2946243959" lon="34.6673685905"><ele>154.449</ele><time>2026-08-16T15:13:00.136Z</time><hdop>3.0</hdop><vdop>2.5</vdop><extensions><gom:speed>0.841</gom:speed></extensions></trkpt>
   <trkpt lat="59.2946257789" lon="34.6673551794"><ele>154.511</ele><time>2026-08-16T15:13:01.135Z</time><hdop>3.0</hdop><vdop>2.5</vdop><extensions><gom:speed>0.814</gom:speed></extensions></trkpt>
   <trkpt lat="59.2946247731" lon="34.66733917"><ele>154.467</ele><time>2026-08-16T15:13:02.136Z</time><hdop>3.0</hdop><vdop>2.5</vdop><extensions><gom:speed>0.852</gom:speed></extensions></trkpt>
   <trkpt lat="59.2946254856" lon="34.6673256751"><ele>154.441</ele><time>2026-08-16T15:13:02.977Z</time><hdop>3.0</hdop><vdop>2.5</vdop><extensions><gom:speed>0.839</gom:speed></extensions></trkpt>
   <trkpt lat="59.2946269943" lon="34.6673149463"><ele>154.339</ele><time>2026-08-16T15:13:03.861Z</time><hdop>3.0</hdop><vdop>2.5</vdop><extensions><gom:speed>0.753</gom:speed></extensions></trkpt>
   <trkpt lat="59.2946268686" lon="34.6673066482"><ele>154.208</ele><time>2026-08-16T15:13:04.617Z</time><hdop>3.0</hdop><vdop>2.5</vdop><extensions><gom:speed>0.728</gom:speed></extensions></trkpt>
   <trkpt lat="59.294627581" lon="34.6673005294"><ele>154.129</ele><time>2026-08-16T15:13:05.116Z</time><hdop>3.0</hdop><vdop>2.5</vdop><extensions><gom:speed>0.721</gom:speed></extensions></trkpt>
   <trkpt lat="59.2946311853" lon="34.6672925666"><ele>154.074</ele><time>2026-08-16T15:13:05.980Z</time><hdop>3.0</hdop><vdop>2.5</vdop><extensions><gom:speed>0.705</gom:speed></extensions></trkpt>
   <trkpt lat="59.2946359629" lon="34.66728452"><ele>154.06</ele><time>2026-08-16T15:13:06.874Z</time><hdop>3.0</hdop><vdop>2.5</vdop><extensions><gom:speed>0.716</gom:speed></extensions></trkpt>
   <trkpt lat="59.2946404892" lon="34.6672764734"><ele>154.068</ele><time>2026-08-16T15:13:07.777Z</time><hdop>3.0</hdop><vdop>2.5</vdop><extensions><gom:speed>0.719</gom:speed></extensions></trkpt>
   <trkpt lat="59.2946433809" lon="34.6672646549"><ele>154.235</ele><time>2026-08-16T15:13:08.778Z</time><hdop>3.0</hdop><vdop>2.5</vdop><extensions><gom:speed>0.685</gom:speed></extensions></trkpt>
   <trkpt lat="59.2946444706" lon="34.6672527526"><ele>154.242</ele><time>2026-08-16T15:13:09.720Z</time><hdop>3.0</hdop><vdop>2.5</vdop><extensions><gom:speed>0.675</gom:speed></extensions></trkpt>
   <trkpt lat="59.2946458955" lon="34.6672391739"><ele>154.421</ele><time>2026-08-16T15:13:10.937Z</time><hdop>3.0</hdop><vdop>2.5</vdop><extensions><gom:speed>0.618</gom:speed></extensions></trkpt>
   <trkpt lat="59.2946455602" lon="34.6672243379"><ele>154.652</ele><time>2026-08-16T15:13:12.076Z</time><hdop>3.0</hdop><vdop>2.5</vdop><extensions><gom:speed>0.659</gom:speed></extensions></trkpt>
   <trkpt lat="59.2946413693" lon="34.6672136929"><ele>155.09</ele><time>2026-08-16T15:13:12.940Z</time><hdop>3.0</hdop><vdop>2.5</vdop><extensions><gom:speed>0.715</gom:speed></extensions></trkpt>
   <trkpt lat="59.2946372621" lon="34.6672008686"><ele>155.428</ele><time>2026-08-16T15:13:13.794Z</time><hdop>3.0</hdop><vdop>2.5</vdop><extensions><gom:speed>0.788</gom:speed></extensions></trkpt>
   <trkpt lat="59.294636382" lon="34.6671878766"><ele>155.747</ele><time>2026-08-16T15:13:14.657Z</time><hdop>3.0</hdop><vdop>2.5</vdop><extensions><gom:speed>0.767</gom:speed></extensions></trkpt>
   <trkpt lat="59.2946369688" lon="34.6671828475"><ele>156.085</ele><time>2026-08-16T15:13:15.136Z</time><hdop>3.0</hdop><vdop>2.5</vdop><extensions><gom:speed>0.716</gom:speed></extensions></trkpt>
   <trkpt lat="59.2946384775" lon="34.6671760582"><ele>156.288</ele><time>2026-08-16T15:13:15.657Z</time><hdop>3.0</hdop><vdop>2.5</vdop><extensions><gom:speed>0.752</gom:speed></extensions></trkpt>
   <trkpt lat="59.2946402796" lon="34.6671740465"><ele>156.4</ele><time>2026-08-16T15:13:16.136Z</time><hdop>3.0</hdop><vdop>2.5</vdop><extensions><gom:speed>0.632</gom:speed></extensions></trkpt>
   <trkpt lat="59.2946441772" lon="34.6671689335"><ele>156.468</ele><time>2026-08-16T15:13:17.052Z</time><hdop>3.0</hdop><vdop>2.5</vdop><extensions><gom:speed>0.592</gom:speed></extensions></trkpt>
   <trkpt lat="59.2946499607" lon="34.6671639882"><ele>156.481</ele><time>2026-08-16T15:13:18.136Z</time><hdop>3.0</hdop><vdop>2.5</vdop><extensions><gom:speed>0.608</gom:speed></extensions></trkpt>
   <trkpt lat="59.2946528944" lon="34.6671545167"><ele>156.202</ele><time>2026-08-16T15:13:19.136Z</time><hdop>3.0</hdop><vdop>2.5</vdop><extensions><gom:speed>0.617</gom:speed></extensions></trkpt>
   <trkpt lat="59.2946517628" lon="34.6671441231"><ele>156.036</ele><time>2026-08-16T15:13:19.977Z</time><hdop>3.0</hdop><vdop>2.5</vdop><extensions><gom:speed>0.611</gom:speed></extensions></trkpt>
   <trkpt lat="59.2946488711" lon="34.667138591"><ele>155.945</ele><time>2026-08-16T15:13:20.497Z</time><hdop>3.0</hdop><vdop>2.5</vdop><extensions><gom:speed>0.659</gom:speed></extensions></trkpt>
   <trkpt lat="59.2946464822" lon="34.6671328914"><ele>156.022</ele><time>2026-08-16T15:13:21.136Z</time><hdop>3.0</hdop><vdop>2.5</vdop><extensions><gom:speed>0.624</gom:speed></extensions></trkpt>
   <trkpt lat="59.2946455602" lon="34.6671216596"><ele>156.068</ele><time>2026-08-16T15:13:22.078Z</time><hdop>3.0</hdop><vdop>2.5</vdop><extensions><gom:speed>0.656</gom:speed></extensions></trkpt>
   <trkpt lat="59.2946469851" lon="34.6671113499"><ele>156.401</ele><time>2026-08-16T15:13:23.136Z</time><hdop>3.0</hdop><vdop>2.5</vdop><extensions><gom:speed>0.562</gom:speed></extensions></trkpt>
   <trkpt lat="59.2946445963" lon="34.6671041414"><ele>156.914</ele><time>2026-08-16T15:13:24.136Z</time><hdop>3.0</hdop><vdop>2.5</vdop><extensions><gom:speed>0.523</gom:speed></extensions></trkpt>
   <trkpt lat="59.2946450992" lon="34.6670989446"><ele>157.221</ele><time>2026-08-16T15:13:24.698Z</time><hdop>3.0</hdop><vdop>2.5</vdop><extensions><gom:speed>0.547</gom:speed></extensions></trkpt>
   <trkpt lat="59.2946484939" lon="34.6670929935"><ele>157.85</ele><time>2026-08-16T15:13:25.837Z</time><hdop>3.0</hdop><vdop>2.5</vdop><extensions><gom:speed>0.504</gom:speed></extensions></trkpt>
   <trkpt lat="59.2946513856" lon="34.6670919877"><ele>158.473</ele><time>2026-08-16T15:13:26.720Z</time><hdop>3.0</hdop><vdop>2.5</vdop><extensions><gom:speed>0.5</gom:speed></extensions></trkpt>
   <trkpt lat="59.2946543612" lon="34.6670897246"><ele>158.455</ele><time>2026-08-16T15:13:27.396Z</time><hdop>3.0</hdop><vdop>2.5</vdop><extensions><gom:speed>0.636</gom:speed></extensions></trkpt>
   <trkpt lat="59.2946579654" lon="34.6670855336"><ele>158.733</ele><time>2026-08-16T15:13:28.136Z</time><hdop>3.0</hdop><vdop>2.5</vdop><extensions><gom:speed>0.621</gom:speed></extensions></trkpt>
   <trkpt lat="59.2946623659" lon="34.667076565"><ele>158.898</ele><time>2026-08-16T15:13:29.095Z</time><hdop>3.0</hdop><vdop>2.5</vdop><extensions><gom:speed>0.639</gom:speed></extensions></trkpt>
   <trkpt lat="59.2946628689" lon="34.6670624834"><ele>159.062</ele><time>2026-08-16T15:13:29.920Z</time><hdop>3.0</hdop><vdop>2.5</vdop><extensions><gom:speed>0.702</gom:speed></extensions></trkpt>
   <trkpt lat="59.294662785" lon="34.6670443785"><ele>159.012</ele><time>2026-08-16T15:13:30.901Z</time><hdop>3.0</hdop><vdop>2.5</vdop><extensions><gom:speed>0.751</gom:speed></extensions></trkpt>
   <trkpt lat="59.2946621983" lon="34.6670193166"><ele>159.019</ele><time>2026-08-16T15:13:32.099Z</time><hdop>3.0</hdop><vdop>2.5</vdop><extensions><gom:speed>0.86</gom:speed></extensions></trkpt>
   <trkpt lat="59.2946621983" lon="34.6670032233"><ele>158.868</ele><time>2026-08-16T15:13:32.796Z</time><hdop>3.0</hdop><vdop>2.5</vdop><extensions><gom:speed>0.922</gom:speed></extensions></trkpt>
   <trkpt lat="59.2946689876" lon="34.6669877168"><ele>158.758</ele><time>2026-08-16T15:13:33.856Z</time><hdop>3.0</hdop><vdop>2.5</vdop><extensions><gom:speed>0.894</gom:speed></extensions></trkpt>
   <trkpt lat="59.294674394" lon="34.666978832"><ele>159.138</ele><time>2026-08-16T15:13:34.474Z</time><hdop>3.0</hdop><vdop>2.5</vdop><extensions><gom:speed>0.967</gom:speed></extensions></trkpt>
   <trkpt lat="59.2946799679" lon="34.6669689413"><ele>159.358</ele><time>2026-08-16T15:13:35.136Z</time><hdop>3.0</hdop><vdop>2.5</vdop><extensions><gom:speed>1.049</gom:speed></extensions></trkpt>
   <trkpt lat="59.2946869668" lon="34.6669586316"><ele>159.49</ele><time>2026-08-16T15:13:35.936Z</time><hdop>3.0</hdop><vdop>2.5</vdop><extensions><gom:speed>0.977</gom:speed></extensions></trkpt>
   <trkpt lat="59.2946955583" lon="34.6669574581"><ele>159.613</ele><time>2026-08-16T15:13:36.859Z</time><hdop>3.0</hdop><vdop>2.5</vdop><extensions><gom:speed>0.945</gom:speed></extensions></trkpt>
   <trkpt lat="59.2947012999" lon="34.6669603918"><ele>159.733</ele><time>2026-08-16T15:13:37.379Z</time><hdop>3.0</hdop><vdop>2.5</vdop><extensions><gom:speed>0.944</gom:speed></extensions></trkpt>
   <trkpt lat="59.2947094722" lon="34.6669618167"><ele>159.673</ele><time>2026-08-16T15:13:38.136Z</time><hdop>3.0</hdop><vdop>2.5</vdop><extensions><gom:speed>0.951</gom:speed></extensions></trkpt>
   <trkpt lat="59.2947168902" lon="34.6669560332"><ele>159.637</ele><time>2026-08-16T15:13:38.959Z</time><hdop>3.0</hdop><vdop>2.5</vdop><extensions><gom:speed>0.901</gom:speed></extensions></trkpt>
   <trkpt lat="59.2947267809" lon="34.6669539377"><ele>159.231</ele><time>2026-08-16T15:13:40.136Z</time><hdop>3.0</hdop><vdop>2.5</vdop><extensions><gom:speed>0.892</gom:speed></extensions></trkpt>
   <trkpt lat="59.2947365877" lon="34.6669642475"><ele>158.915</ele><time>2026-08-16T15:13:41.136Z</time><hdop>3.0</hdop><vdop>2.5</vdop><extensions><gom:speed>0.894</gom:speed></extensions></trkpt>
   <trkpt lat="59.2947463945" lon="34.6669689413"><ele>158.726</ele><time>2026-08-16T15:13:42.120Z</time><hdop>3.0</hdop><vdop>2.5</vdop><extensions><gom:speed>0.918</gom:speed></extensions></trkpt>
   <trkpt lat="59.2947548602" lon="34.6669851184"><ele>158.76</ele><time>2026-08-16T15:13:43.136Z</time><hdop>3.0</hdop><vdop>2.5</vdop><extensions><gom:speed>0.82</gom:speed></extensions></trkpt>
   <trkpt lat="59.2947588836" lon="34.6669905666"><ele>158.78</ele><time>2026-08-16T15:13:43.720Z</time><hdop>3.0</hdop><vdop>2.5</vdop><extensions><gom:speed>0.743</gom:speed></extensions></trkpt>
   <trkpt lat="59.2947648766" lon="34.6669983618"><ele>158.86</ele><time>2026-08-16T15:13:44.613Z</time><hdop>3.0</hdop><vdop>2.5</vdop><extensions><gom:speed>0.701</gom:speed></extensions></trkpt>
   <trkpt lat="59.294768397" lon="34.667002888"><ele>158.737</ele><time>2026-08-16T15:13:45.136Z</time><hdop>3.0</hdop><vdop>2.5</vdop><extensions><gom:speed>0.734</gom:speed></extensions></trkpt>
   <trkpt lat="59.2947713726" lon="34.6670058217"><ele>158.663</ele><time>2026-08-16T15:13:45.653Z</time><hdop>3.0</hdop><vdop>2.5</vdop><extensions><gom:speed>0.686</gom:speed></extensions></trkpt>
   <trkpt lat="59.2947746834" lon="34.6670105994"><ele>158.516</ele><time>2026-08-16T15:13:46.136Z</time><hdop>3.0</hdop><vdop>2.5</vdop><extensions><gom:speed>0.724</gom:speed></extensions></trkpt>
   <trkpt lat="59.2947779943" lon="34.66701588"><ele>158.429</ele><time>2026-08-16T15:13:46.732Z</time><hdop>3.0</hdop><vdop>2.5</vdop><extensions><gom:speed>0.672</gom:speed></extensions></trkpt>
   <trkpt lat="59.2947840712" lon="34.6670271956"><ele>158.425</ele><time>2026-08-16T15:13:47.596Z</time><hdop>3.0</hdop><vdop>2.5</vdop><extensions><gom:speed>0.732</gom:speed></extensions></trkpt>
   <trkpt lat="59.2947880945" lon="34.6670328952"><ele>158.551</ele><time>2026-08-16T15:13:48.136Z</time><hdop>3.0</hdop><vdop>2.5</vdop><extensions><gom:speed>0.714</gom:speed></extensions></trkpt>
   <trkpt lat="59.2947958897" lon="34.6670405228"><ele>158.463</ele><time>2026-08-16T15:13:49.135Z</time><hdop>3.0</hdop><vdop>2.5</vdop><extensions><gom:speed>0.738</gom:speed></extensions></trkpt>
   <trkpt lat="59.2948045649" lon="34.6670469768"><ele>158.336</ele><time>2026-08-16T15:13:50.136Z</time><hdop>3.0</hdop><vdop>2.5</vdop><extensions><gom:speed>0.755</gom:speed></extensions></trkpt>
   <trkpt lat="59.2948092588" lon="34.6670500782"><ele>158.26</ele><time>2026-08-16T15:13:50.600Z</time><hdop>3.0</hdop><vdop>2.5</vdop><extensions><gom:speed>0.854</gom:speed></extensions></trkpt>
   <trkpt lat="59.2948135755" lon="34.6670545206"><ele>158.215</ele><time>2026-08-16T15:13:51.101Z</time><hdop>3.0</hdop><vdop>2.5</vdop><extensions><gom:speed>0.845</gom:speed></extensions></trkpt>
   <trkpt lat="59.294817976" lon="34.6670603879"><ele>158.213</ele><time>2026-08-16T15:13:51.552Z</time><hdop>3.0</hdop><vdop>2.5</vdop><extensions><gom:speed>0.897</gom:speed></extensions></trkpt>
   <trkpt lat="59.294822586" lon="34.6670669258"><ele>158.211</ele><time>2026-08-16T15:13:52.102Z</time><hdop>3.0</hdop><vdop>2.5</vdop><extensions><gom:speed>0.891</gom:speed></extensions></trkpt>
   <trkpt lat="59.2948307584" lon="34.6670612261"><ele>158.845</ele><time>2026-08-16T15:13:53.136Z</time><hdop>3.0</hdop><vdop>2.5</vdop><extensions><gom:speed>0.696</gom:speed></extensions></trkpt>
   <trkpt lat="59.2948386793" lon="34.667058963"><ele>158.893</ele><time>2026-08-16T15:13:54.136Z</time><hdop>3.0</hdop><vdop>2.5</vdop><extensions><gom:speed>0.805</gom:speed></extensions></trkpt>
   <trkpt lat="59.2948450914" lon="34.6670619805"><ele>158.921</ele><time>2026-08-16T15:13:54.878Z</time><hdop>3.0</hdop><vdop>2.5</vdop><extensions><gom:speed>0.837</gom:speed></extensions></trkpt>
   <trkpt lat="59.2948523837" lon="34.6670712844"><ele>158.927</ele><time>2026-08-16T15:13:56.057Z</time><hdop>3.0</hdop><vdop>2.5</vdop><extensions><gom:speed>0.736</gom:speed></extensions></trkpt>
   <trkpt lat="59.2948543953" lon="34.6670799177"><ele>158.705</ele><time>2026-08-16T15:13:56.941Z</time><hdop>3.0</hdop><vdop>2.5</vdop><extensions><gom:speed>0.696</gom:speed></extensions></trkpt>
   <trkpt lat="59.2948572871" lon="34.6670920715"><ele>158.81</ele><time>2026-08-16T15:13:57.834Z</time><hdop>3.0</hdop><vdop>2.5</vdop><extensions><gom:speed>0.771</gom:speed></extensions></trkpt>
   <trkpt lat="59.2948621905" lon="34.6670970168"><ele>159.119</ele><time>2026-08-16T15:13:58.482Z</time><hdop>3.0</hdop><vdop>2.5</vdop><extensions><gom:speed>0.726</gom:speed></extensions></trkpt>
   <trkpt lat="59.2948669682" lon="34.6671001181"><ele>159.245</ele><time>2026-08-16T15:13:59.136Z</time><hdop>3.0</hdop><vdop>2.5</vdop><extensions><gom:speed>0.697</gom:speed></extensions></trkpt>
   <trkpt lat="59.2948715782" lon="34.6671022974"><ele>159.32</ele><time>2026-08-16T15:13:59.836Z</time><hdop>3.0</hdop><vdop>2.5</vdop><extensions><gom:speed>0.649</gom:speed></extensions></trkpt>
   <trkpt lat="59.2948769846" lon="34.6671077456"><ele>159.483</ele><time>2026-08-16T15:14:00.719Z</time><hdop>3.0</hdop><vdop>2.5</vdop><extensions><gom:speed>0.661</gom:speed></extensions></trkpt>
   <trkpt lat="59.2948840673" lon="34.6671102602"><ele>159.79</ele><time>2026-08-16T15:14:01.917Z</time><hdop>3.0</hdop><vdop>2.5</vdop><extensions><gom:speed>0.614</gom:speed></extensions></trkpt>
   <trkpt lat="59.2948884678" lon="34.6671049796"><ele>159.801</ele><time>2026-08-16T15:14:02.555Z</time><hdop>3.0</hdop><vdop>2.5</vdop><extensions><gom:speed>0.661</gom:speed></extensions></trkpt>
   <trkpt lat="59.2948921977" lon="34.6671001181"><ele>159.273</ele><time>2026-08-16T15:14:03.136Z</time><hdop>3.0</hdop><vdop>2.5</vdop><extensions><gom:speed>0.672</gom:speed></extensions></trkpt>
   <trkpt lat="59.2948980651" lon="34.6670925744"><ele>158.634</ele><time>2026-08-16T15:14:04.136Z</time><hdop>3.0</hdop><vdop>2.5</vdop><extensions><gom:speed>0.683</gom:speed></extensions></trkpt>
   <trkpt lat="59.2949039743" lon="34.6670850307"><ele>157.866</ele><time>2026-08-16T15:14:05.136Z</time><hdop>3.0</hdop><vdop>2.5</vdop><extensions><gom:speed>0.701</gom:speed></extensions></trkpt>
   <trkpt lat="59.2949092968" lon="34.6670767326"><ele>157.407</ele><time>2026-08-16T15:14:05.961Z</time><hdop>3.0</hdop><vdop>2.5</vdop><extensions><gom:speed>0.772</gom:speed></extensions></trkpt>
   <trkpt lat="59.2949143679" lon="34.6670699433"><ele>156.839</ele><time>2026-08-16T15:14:06.599Z</time><hdop>3.0</hdop><vdop>2.5</vdop><extensions><gom:speed>0.855</gom:speed></extensions></trkpt>
   <trkpt lat="59.2949177625" lon="34.6670631539"><ele>156.424</ele><time>2026-08-16T15:14:07.136Z</time><hdop>3.0</hdop><vdop>2.5</vdop><extensions><gom:speed>0.845</gom:speed></extensions></trkpt>
   <trkpt lat="59.2949211991" lon="34.6670539338"><ele>156.175</ele><time>2026-08-16T15:14:07.698Z</time><hdop>3.0</hdop><vdop>2.5</vdop><extensions><gom:speed>0.903</gom:speed></extensions></trkpt>
   <trkpt lat="59.2949256834" lon="34.6670378406"><ele>155.982</ele><time>2026-08-16T15:14:08.778Z</time><hdop>3.0</hdop><vdop>2.5</vdop><extensions><gom:speed>0.93</gom:speed></extensions></trkpt>
   <trkpt lat="59.2949296648" lon="34.667033482"><ele>155.655</ele><time>2026-08-16T15:14:09.416Z</time><hdop>3.0</hdop><vdop>2.5</vdop><extensions><gom:speed>0.853</gom:speed></extensions></trkpt>
   <trkpt lat="59.2949345682" lon="34.6670328952"><ele>155.584</ele><time>2026-08-16T15:14:10.136Z</time><hdop>3.0</hdop><vdop>2.5</vdop><extensions><gom:speed>0.784</gom:speed></extensions></trkpt>
   <trkpt lat="59.2949391783" lon="34.6670352422"><ele>155.542</ele><time>2026-08-16T15:14:10.760Z</time><hdop>3.0</hdop><vdop>2.5</vdop><extensions><gom:speed>0.804</gom:speed></extensions></trkpt>
   <trkpt lat="59.2949424891" lon="34.6670347393"><ele>155.719</ele><time>2026-08-16T15:14:11.339Z</time><hdop>3.0</hdop><vdop>2.5</vdop><extensions><gom:speed>0.743</gom:speed></extensions></trkpt>
   <trkpt lat="59.294947183" lon="34.6670338173"><ele>155.684</ele><time>2026-08-16T15:14:12.136Z</time><hdop>3.0</hdop><vdop>2.5</vdop><extensions><gom:speed>0.74</gom:speed></extensions></trkpt>
   <trkpt lat="59.2949523798" lon="34.6670363318"><ele>155.663</ele><time>2026-08-16T15:14:12.959Z</time><hdop>3.0</hdop><vdop>2.5</vdop><extensions><gom:speed>0.719</gom:speed></extensions></trkpt>
   <trkpt lat="59.2949574928" lon="34.6670388464"><ele>155.968</ele><time>2026-08-16T15:14:13.773Z</time><hdop>3.0</hdop><vdop>2.5</vdop><extensions><gom:speed>0.761</gom:speed></extensions></trkpt>
   <trkpt lat="59.2949619771" lon="34.6670394331"><ele>156.401</ele><time>2026-08-16T15:14:14.519Z</time><hdop>3.0</hdop><vdop>2.5</vdop><extensions><gom:speed>0.733</gom:speed></extensions></trkpt>
   <trkpt lat="59.2949649946" lon="34.6670414448"><ele>156.667</ele><time>2026-08-16T15:14:15.136Z</time><hdop>3.0</hdop><vdop>2.5</vdop><extensions><gom:speed>0.693</gom:speed></extensions></trkpt>
   <trkpt lat="59.2949700656" lon="34.6670473959"><ele>156.826</ele><time>2026-08-16T15:14:16.001Z</time><hdop>3.0</hdop><vdop>2.5</vdop><extensions><gom:speed>0.735</gom:speed></extensions></trkpt>
   <trkpt lat="59.2949767711" lon="34.6670512516"><ele>156.842</ele><time>2026-08-16T15:14:16.934Z</time><hdop>3.0</hdop><vdop>2.5</vdop><extensions><gom:speed>0.812</gom:speed></extensions></trkpt>
   <trkpt lat="59.29497916" lon="34.6670532633"><ele>156.888</ele><time>2026-08-16T15:14:17.415Z</time><hdop>3.0</hdop><vdop>2.5</vdop><extensions><gom:speed>0.811</gom:speed></extensions></trkpt>
   <trkpt lat="59.2949825966" lon="34.6670586277"><ele>157.032</ele><time>2026-08-16T15:14:18.136Z</time><hdop>3.0</hdop><vdop>2.5</vdop><extensions><gom:speed>0.797</gom:speed></extensions></trkpt>
   <trkpt lat="59.294986578" lon="34.6670691889"><ele>157.082</ele><time>2026-08-16T15:14:19.136Z</time><hdop>3.0</hdop><vdop>2.5</vdop><extensions><gom:speed>0.788</gom:speed></extensions></trkpt>
   <trkpt lat="59.2949887992" lon="34.667084444"><ele>157.223</ele><time>2026-08-16T15:14:20.136Z</time><hdop>3.0</hdop><vdop>2.5</vdop><extensions><gom:speed>0.881</gom:speed></extensions></trkpt>
   <trkpt lat="59.2949909785" lon="34.6670977712"><ele>157.307</ele><time>2026-08-16T15:14:21.075Z</time><hdop>3.0</hdop><vdop>2.5</vdop><extensions><gom:speed>0.784</gom:speed></extensions></trkpt>
   <trkpt lat="59.2949944989" lon="34.6671025489"><ele>157.457</ele><time>2026-08-16T15:14:22.136Z</time><hdop>3.0</hdop><vdop>2.5</vdop><extensions><gom:speed>0.751</gom:speed></extensions></trkpt>
   <trkpt lat="59.2949994861" lon="34.6671002858"><ele>158.082</ele><time>2026-08-16T15:14:23.136Z</time><hdop>3.0</hdop><vdop>2.5</vdop><extensions><gom:speed>0.692</gom:speed></extensions></trkpt>
   <trkpt lat="59.2950049762" lon="34.6671000343"><ele>158.455</ele><time>2026-08-16T15:14:23.893Z</time><hdop>3.0</hdop><vdop>2.5</vdop><extensions><gom:speed>0.74</gom:speed></extensions></trkpt>
   <trkpt lat="59.2950068622" lon="34.6670994476"><ele>158.663</ele><time>2026-08-16T15:14:24.796Z</time><hdop>3.0</hdop><vdop>2.5</vdop><extensions><gom:speed>0.609</gom:speed></extensions></trkpt>
   <trkpt lat="59.2950095863" lon="34.6671004534"><ele>158.655</ele><time>2026-08-16T15:14:25.542Z</time><hdop>3.0</hdop><vdop>2.5</vdop><extensions><gom:speed>0.697</gom:speed></extensions></trkpt>
   <trkpt lat="59.2950122685" lon="34.6671027165"><ele>158.52</ele><time>2026-08-16T15:14:26.135Z</time><hdop>3.0</hdop><vdop>2.5</vdop><extensions><gom:speed>0.674</gom:speed></extensions></trkpt>
   <trkpt lat="59.2950164594" lon="34.667110344"><ele>158.439</ele><time>2026-08-16T15:14:26.975Z</time><hdop>3.0</hdop><vdop>2.5</vdop><extensions><gom:speed>0.733</gom:speed></extensions></trkpt>
   <trkpt lat="59.2950173815" lon="34.6671215758"><ele>158.265</ele><time>2026-08-16T15:14:27.554Z</time><hdop>3.0</hdop><vdop>2.5</vdop><extensions><gom:speed>0.887</gom:speed></extensions></trkpt>
   <trkpt lat="59.2950174653" lon="34.6671301253"><ele>157.78</ele><time>2026-08-16T15:14:28.136Z</time><hdop>3.0</hdop><vdop>2.5</vdop><extensions><gom:speed>0.778</gom:speed></extensions></trkpt>
   <trkpt lat="59.2950176748" lon="34.6671428658"><ele>157.406</ele><time>2026-08-16T15:14:29.136Z</time><hdop>3.0</hdop><vdop>2.5</vdop><extensions><gom:speed>0.722</gom:speed></extensions></trkpt>
   <trkpt lat="59.2950208599" lon="34.6671529241"><ele>157.183</ele><time>2026-08-16T15:14:30.017Z</time><hdop>3.0</hdop><vdop>2.5</vdop><extensions><gom:speed>0.759</gom:speed></extensions></trkpt>
   <trkpt lat="59.2950247994" lon="34.6671580371"><ele>157.234</ele><time>2026-08-16T15:14:30.714Z</time><hdop>3.0</hdop><vdop>2.5</vdop><extensions><gom:speed>0.817</gom:speed></extensions></trkpt>
   <trkpt lat="59.2950287808" lon="34.6671597973"><ele>157.23</ele><time>2026-08-16T15:14:31.421Z</time><hdop>3.0</hdop><vdop>2.5</vdop><extensions><gom:speed>0.762</gom:speed></extensions></trkpt>
   <trkpt lat="59.2950303734" lon="34.6671625633"><ele>157.038</ele><time>2026-08-16T15:14:32.136Z</time><hdop>3.0</hdop><vdop>2.5</vdop><extensions><gom:speed>0.691</gom:speed></extensions></trkpt>
   <trkpt lat="59.2950315888" lon="34.6671729569"><ele>156.924</ele><time>2026-08-16T15:14:33.099Z</time><hdop>3.0</hdop><vdop>2.5</vdop><extensions><gom:speed>0.714</gom:speed></extensions></trkpt>
   <trkpt lat="59.2950288647" lon="34.6671844401"><ele>156.759</ele><time>2026-08-16T15:14:33.991Z</time><hdop>3.0</hdop><vdop>2.5</vdop><extensions><gom:speed>0.724</gom:speed></extensions></trkpt>
   <trkpt lat="59.2950283617" lon="34.6671916485"><ele>156.31</ele><time>2026-08-16T15:14:34.562Z</time><hdop>3.0</hdop><vdop>2.5</vdop><extensions><gom:speed>0.761</gom:speed></extensions></trkpt>
   <trkpt lat="59.2950294933" lon="34.6671979349"><ele>155.791</ele><time>2026-08-16T15:14:35.136Z</time><hdop>3.0</hdop><vdop>2.5</vdop><extensions><gom:speed>0.75</gom:speed></extensions></trkpt>
   <trkpt lat="59.2950333909" lon="34.667206233"><ele>155.435</ele><time>2026-08-16T15:14:36.136Z</time><hdop>3.0</hdop><vdop>2.5</vdop><extensions><gom:speed>0.7</gom:speed></extensions></trkpt>
   <trkpt lat="59.2950354864" lon="34.6672094181"><ele>155.222</ele><time>2026-08-16T15:14:36.593Z</time><hdop>3.0</hdop><vdop>2.5</vdop><extensions><gom:speed>0.66</gom:speed></extensions></trkpt>
   <trkpt lat="59.2950378752" lon="34.667210424"><ele>155.252</ele><time>2026-08-16T15:14:37.136Z</time><hdop>3.0</hdop><vdop>2.5</vdop><extensions><gom:speed>0.584</gom:speed></extensions></trkpt>
   <trkpt lat="59.2950403898" lon="34.6672096696"><ele>155.27</ele><time>2026-08-16T15:14:37.673Z</time><hdop>3.0</hdop><vdop>2.5</vdop><extensions><gom:speed>0.492</gom:speed></extensions></trkpt>
   <trkpt lat="59.2950415632" lon="34.6672108431"><ele>155.121</ele><time>2026-08-16T15:14:38.136Z</time><hdop>3.0</hdop><vdop>2.5</vdop><extensions><gom:speed>0.553</gom:speed></extensions></trkpt>
   <trkpt lat="59.2950419823" lon="34.6672172971"><ele>155.032</ele><time>2026-08-16T15:14:38.861Z</time><hdop>3.0</hdop><vdop>2.5</vdop><extensions><gom:speed>0.501</gom:speed></extensions></trkpt>
   <trkpt lat="59.295037959" lon="34.6672267687"><ele>155.085</ele><time>2026-08-16T15:14:40.039Z</time><hdop>3.0</hdop><vdop>2.5</vdop><extensions><gom:speed>0.497</gom:speed></extensions></trkpt>
   <trkpt lat="59.295038881" lon="34.6672349829"><ele>155.011</ele><time>2026-08-16T15:14:41.136Z</time><hdop>3.0</hdop><vdop>2.5</vdop><extensions><gom:speed>0.462</gom:speed></extensions></trkpt>
   <trkpt lat="59.2950426948" lon="34.6672364917"><ele>155.279</ele><time>2026-08-16T15:14:42.136Z</time><hdop>3.0</hdop><vdop>2.5</vdop><extensions><gom:speed>0.406</gom:speed></extensions></trkpt>
   <trkpt lat="59.2950433654" lon="34.6672396768"><ele>155.408</ele><time>2026-08-16T15:14:43.136Z</time><hdop>3.0</hdop><vdop>2.5</vdop><extensions><gom:speed>0.307</gom:speed></extensions></trkpt>
   <trkpt lat="59.2950432815" lon="34.6672455441"><ele>155.386</ele><time>2026-08-16T15:14:44.136Z</time><hdop>3.0</hdop><vdop>2.5</vdop><extensions><gom:speed>0.387</gom:speed></extensions></trkpt>
   <trkpt lat="59.2950447903" lon="34.6672533393"><ele>155.716</ele><time>2026-08-16T15:14:45.136Z</time><hdop>3.0</hdop><vdop>2.5</vdop><extensions><gom:speed>0.392</gom:speed></extensions></trkpt>
   <trkpt lat="59.295047682" lon="34.6672612183"><ele>155.573</ele><time>2026-08-16T15:14:46.136Z</time><hdop>3.0</hdop><vdop>2.5</vdop><extensions><gom:speed>0.398</gom:speed></extensions></trkpt>
   <trkpt lat="59.2950507833" lon="34.6672664989"><ele>155.32</ele><time>2026-08-16T15:14:47.136Z</time><hdop>3.0</hdop><vdop>2.562</vdop><extensions><gom:speed>0.356</gom:speed></extensions></trkpt>
   <trkpt lat="59.2950525854" lon="34.6672679238"><ele>155.169</ele><time>2026-08-16T15:14:47.753Z</time><hdop>3.0</hdop><vdop>2.562</vdop><extensions><gom:speed>0.336</gom:speed></extensions></trkpt>
   <trkpt lat="59.2950557706" lon="34.6672742941"><ele>154.974</ele><time>2026-08-16T15:14:48.921Z</time><hdop>3.0</hdop><vdop>2.5</vdop><extensions><gom:speed>0.331</gom:speed></extensions></trkpt>
   <trkpt lat="59.2950576984" lon="34.6672786527"><ele>154.848</ele><time>2026-08-16T15:14:49.893Z</time><hdop>3.0</hdop><vdop>2.5</vdop><extensions><gom:speed>0.244</gom:speed></extensions></trkpt>
   <trkpt lat="59.2950637753" lon="34.6672849391"><ele>154.633</ele><time>2026-08-16T15:14:50.776Z</time><hdop>3.0</hdop><vdop>2.5</vdop><extensions><gom:speed>0.423</gom:speed></extensions></trkpt>
   <trkpt lat="59.2950684692" lon="34.6672852744"><ele>154.593</ele><time>2026-08-16T15:14:51.277Z</time><hdop>3.0</hdop><vdop>2.5</vdop><extensions><gom:speed>0.528</gom:speed></extensions></trkpt>
   <trkpt lat="59.2950706904" lon="34.6672816701"><ele>154.568</ele><time>2026-08-16T15:14:51.797Z</time><hdop>3.0</hdop><vdop>2.5</vdop><extensions><gom:speed>0.499</gom:speed></extensions></trkpt>
   <trkpt lat="59.2950748813" lon="34.667275719"><ele>154.773</ele><time>2026-08-16T15:14:52.661Z</time><hdop>3.0</hdop><vdop>2.5</vdop><extensions><gom:speed>0.462</gom:speed></extensions></trkpt>
   <trkpt lat="59.2950783598" lon="34.6672751323"><ele>154.765</ele><time>2026-08-16T15:14:53.136Z</time><hdop>3.0</hdop><vdop>2.5</vdop><extensions><gom:speed>0.522</gom:speed></extensions></trkpt>
   <trkpt lat="59.2950844786" lon="34.6672777306"><ele>155.086</ele><time>2026-08-16T15:14:54.136Z</time><hdop>3.0</hdop><vdop>2.5</vdop><extensions><gom:speed>0.525</gom:speed></extensions></trkpt>
   <trkpt lat="59.295087999" lon="34.6672794908"><ele>155.277</ele><time>2026-08-16T15:14:54.722Z</time><hdop>3.0</hdop><vdop>2.5</vdop><extensions><gom:speed>0.574</gom:speed></extensions></trkpt>
   <trkpt lat="59.2950924833" lon="34.6672848553"><ele>155.711</ele><time>2026-08-16T15:14:55.919Z</time><hdop>3.0</hdop><vdop>2.5</vdop><extensions><gom:speed>0.469</gom:speed></extensions></trkpt>
   <trkpt lat="59.2950947883" lon="34.667292399"><ele>156.039</ele><time>2026-08-16T15:14:56.773Z</time><hdop>3.0</hdop><vdop>2.5</vdop><extensions><gom:speed>0.456</gom:speed></extensions></trkpt>
   <trkpt lat="59.2950953751" lon="34.6672986854"><ele>156.443</ele><time>2026-08-16T15:14:58.136Z</time><hdop>3.0</hdop><vdop>2.5</vdop><extensions><gom:speed>0.286</gom:speed></extensions></trkpt>
   <trkpt lat="59.2950943692" lon="34.6673009485"><ele>156.685</ele><time>2026-08-16T15:14:58.982Z</time><hdop>3.0</hdop><vdop>2.5</vdop><extensions><gom:speed>0.237</gom:speed></extensions></trkpt>
   <trkpt lat="59.2950918966" lon="34.6673065644"><ele>156.815</ele><time>2026-08-16T15:15:00.136Z</time><hdop>3.0</hdop><vdop>2.5</vdop><extensions><gom:speed>0.361</gom:speed></extensions></trkpt>
   <trkpt lat="59.2950898849" lon="34.6673096657"><ele>156.987</ele><time>2026-08-16T15:15:01.136Z</time><hdop>3.0</hdop><vdop>2.5</vdop><extensions><gom:speed>0.18</gom:speed></extensions></trkpt>
   <trkpt lat="59.2950888791" lon="34.6673098333"><ele>157.122</ele><time>2026-08-16T15:15:02.136Z</time><hdop>3.0</hdop><vdop>2.5</vdop><extensions><gom:speed>0.11</gom:speed></extensions></trkpt>
   <trkpt lat="59.29508846" lon="34.6673097495"><ele>157.222</ele><time>2026-08-16T15:15:03.136Z</time><hdop>3.0</hdop><vdop>2.5</vdop><extensions><gom:speed>0.077</gom:speed></extensions></trkpt>
   <trkpt lat="59.2950880828" lon="34.6673091628"><ele>157.283</ele><time>2026-08-16T15:15:03.840Z</time><hdop>3.0</hdop><vdop>2.5</vdop><extensions><gom:speed>0.088</gom:speed></extensions></trkpt>
   <trkpt lat="59.2950880828" lon="34.6673094981"><ele>157.35</ele><time>2026-08-16T15:15:05.136Z</time><hdop>3.0</hdop><vdop>2.5</vdop><extensions><gom:speed>0.097</gom:speed></extensions></trkpt>
   <trkpt lat="59.2950883762" lon="34.6673100848"><ele>157.396</ele><time>2026-08-16T15:15:06.136Z</time><hdop>3.0</hdop><vdop>2.5</vdop><extensions><gom:speed>0.105</gom:speed></extensions></trkpt>
   <trkpt lat="59.2950888791" lon="34.6673093304"><ele>157.428</ele><time>2026-08-16T15:15:07.136Z</time><hdop>3.0</hdop><vdop>2.5</vdop><extensions><gom:speed>0.076</gom:speed></extensions></trkpt>
   <trkpt lat="59.2950894658" lon="34.6673093304"><ele>157.462</ele><time>2026-08-16T15:15:08.136Z</time><hdop>3.0</hdop><vdop>2.5</vdop><extensions><gom:speed>0.071</gom:speed></extensions></trkpt>
   <trkpt lat="59.2950896754" lon="34.6673098333"><ele>157.502</ele><time>2026-08-16T15:15:09.136Z</time><hdop>3.0</hdop><vdop>2.5</vdop><extensions><gom:speed>0.097</gom:speed></extensions></trkpt>
   <trkpt lat="59.2950891725" lon="34.6673094981"><ele>157.532</ele><time>2026-08-16T15:15:10.136Z</time><hdop>3.0</hdop><vdop>2.5</vdop><extensions><gom:speed>0.117</gom:speed></extensions></trkpt>
   <trkpt lat="59.2950888791" lon="34.6673095819"><ele>157.558</ele><time>2026-08-16T15:15:11.136Z</time><hdop>3.0</hdop><vdop>2.5</vdop><extensions><gom:speed>0.074</gom:speed></extensions></trkpt>
   <trkpt lat="59.2950887953" lon="34.6673101686"><ele>157.573</ele><time>2026-08-16T15:15:12.136Z</time><hdop>3.0</hdop><vdop>2.5</vdop><extensions><gom:speed>0.072</gom:speed></extensions></trkpt>
   <trkpt lat="59.2950889629" lon="34.6673100848"><ele>157.618</ele><time>2026-08-16T15:15:13.136Z</time><hdop>3.0</hdop><vdop>2.5</vdop><extensions><gom:speed>0.096</gom:speed></extensions></trkpt>
   <trkpt lat="59.2950888791" lon="34.6673102524"><ele>157.647</ele><time>2026-08-16T15:15:14.136Z</time><hdop>3.0</hdop><vdop>2.5</vdop><extensions><gom:speed>0.087</gom:speed></extensions></trkpt>
   <trkpt lat="59.2950887953" lon="34.6673106715"><ele>157.673</ele><time>2026-08-16T15:15:15.136Z</time><hdop>3.0</hdop><vdop>2.5</vdop><extensions><gom:speed>0.062</gom:speed></extensions></trkpt>
   <trkpt lat="59.2950886695" lon="34.6673102524"><ele>157.716</ele><time>2026-08-16T15:15:16.136Z</time><hdop>3.0</hdop><vdop>2.5</vdop><extensions><gom:speed>0.058</gom:speed></extensions></trkpt>
   <trkpt lat="59.2950887953" lon="34.6673111744"><ele>157.769</ele><time>2026-08-16T15:15:17.136Z</time><hdop>3.0</hdop><vdop>2.5</vdop><extensions><gom:speed>0.086</gom:speed></extensions></trkpt>
   <trkpt lat="59.2950889629" lon="34.6673103362"><ele>157.796</ele><time>2026-08-16T15:15:18.136Z</time><hdop>3.0</hdop><vdop>2.5</vdop><extensions><gom:speed>0.089</gom:speed></extensions></trkpt>
   <trkpt lat="59.2950889629" lon="34.6673099171"><ele>157.826</ele><time>2026-08-16T15:15:19.136Z</time><hdop>3.0</hdop><vdop>2.5</vdop><extensions><gom:speed>0.0</gom:speed></extensions></trkpt>
   <trkpt lat="59.2950888791" lon="34.6673095819"><ele>157.849</ele><time>2026-08-16T15:15:20.136Z</time><hdop>3.0</hdop><vdop>2.5</vdop><extensions><gom:speed>0.015</gom:speed></extensions></trkpt>
   <trkpt lat="59.2950888791" lon="34.6673096657"><ele>157.874</ele><time>2026-08-16T15:15:21.136Z</time><hdop>3.0</hdop><vdop>2.5</vdop><extensions><gom:speed>0.025</gom:speed></extensions></trkpt>
   <trkpt lat="59.2950888791" lon="34.6673100848"><ele>157.898</ele><time>2026-08-16T15:15:22.136Z</time><hdop>3.0</hdop><vdop>2.5</vdop><extensions><gom:speed>0.032</gom:speed></extensions></trkpt>
   <trkpt lat="59.2950890886" lon="34.6673100848"><ele>157.987</ele><time>2026-08-16T15:15:23.136Z</time><hdop>3.0</hdop><vdop>2.5</vdop><extensions><gom:speed>0.426</gom:speed></extensions></trkpt>
   <trkpt lat="59.2950905974" lon="34.6673116773"><ele>158.04</ele><time>2026-08-16T15:15:23.598Z</time><hdop>3.0</hdop><vdop>2.5</vdop><extensions><gom:speed>0.479</gom:speed></extensions></trkpt>
   <trkpt lat="59.2950927767" lon="34.6673110906"><ele>157.931</ele><time>2026-08-16T15:15:24.136Z</time><hdop>3.0</hdop><vdop>2.5</vdop><extensions><gom:speed>0.363</gom:speed></extensions></trkpt>
   <trkpt lat="59.2950941597" lon="34.6673087437"><ele>157.866</ele><time>2026-08-16T15:15:24.736Z</time><hdop>3.0</hdop><vdop>2.5</vdop><extensions><gom:speed>0.347</gom:speed></extensions></trkpt>
   <trkpt lat="59.2950960875" lon="34.6673024573"><ele>157.876</ele><time>2026-08-16T15:15:25.737Z</time><hdop>3.0</hdop><vdop>2.5</vdop><extensions><gom:speed>0.503</gom:speed></extensions></trkpt>
   <trkpt lat="59.2950976801" lon="34.6673009485"><ele>157.877</ele><time>2026-08-16T15:15:26.680Z</time><hdop>3.0</hdop><vdop>2.5</vdop><extensions><gom:speed>0.086</gom:speed></extensions></trkpt>
   <trkpt lat="59.2950977639" lon="34.6673005294"><ele>157.874</ele><time>2026-08-16T15:15:27.136Z</time><hdop>3.0</hdop><vdop>2.5</vdop><extensions><gom:speed>0.071</gom:speed></extensions></trkpt>
   <trkpt lat="59.2950979734" lon="34.6673001941"><ele>157.871</ele><time>2026-08-16T15:15:27.759Z</time><hdop>3.0</hdop><vdop>2.5</vdop><extensions><gom:speed>0.071</gom:speed></extensions></trkpt>
   <trkpt lat="59.2950991888" lon="34.6672971767"><ele>157.826</ele><time>2026-08-16T15:15:29.035Z</time><hdop>3.0</hdop><vdop>2.5</vdop><extensions><gom:speed>0.133</gom:speed></extensions></trkpt>
   <trkpt lat="59.2951057686" lon="34.6672947459"><ele>157.487</ele><time>2026-08-16T15:15:30.136Z</time><hdop>3.0</hdop><vdop>2.5</vdop><extensions><gom:speed>0.307</gom:speed></extensions></trkpt>
   <trkpt lat="59.2951099596" lon="34.6672961708"><ele>157.284</ele><time>2026-08-16T15:15:31.096Z</time><hdop>3.0</hdop><vdop>2.5</vdop><extensions><gom:speed>0.367</gom:speed></extensions></trkpt>
   <trkpt lat="59.2951165813" lon="34.6672995236"><ele>156.717</ele><time>2026-08-16T15:15:32.136Z</time><hdop>3.0</hdop><vdop>2.5</vdop><extensions><gom:speed>0.359</gom:speed></extensions></trkpt>
   <trkpt lat="59.2951195988" lon="34.6673009485"><ele>156.377</ele><time>2026-08-16T15:15:32.755Z</time><hdop>3.0</hdop><vdop>2.5</vdop><extensions><gom:speed>0.424</gom:speed></extensions></trkpt>
   <trkpt lat="59.295128274" lon="34.6673071511"><ele>156.226</ele><time>2026-08-16T15:15:33.854Z</time><hdop>3.0</hdop><vdop>2.5</vdop><extensions><gom:speed>0.562</gom:speed></extensions></trkpt>
   <trkpt lat="59.2951332613" lon="34.667312767"><ele>156.265</ele><time>2026-08-16T15:15:34.375Z</time><hdop>3.0</hdop><vdop>2.5</vdop><extensions><gom:speed>0.662</gom:speed></extensions></trkpt>
   <trkpt lat="59.295137997" lon="34.66732249"><ele>156.294</ele><time>2026-08-16T15:15:35.136Z</time><hdop>3.0</hdop><vdop>2.5</vdop><extensions><gom:speed>0.68</gom:speed></extensions></trkpt>
   <trkpt lat="59.2951431938" lon="34.6673330512"><ele>156.465</ele><time>2026-08-16T15:15:36.136Z</time><hdop>3.0</hdop><vdop>2.5</vdop><extensions><gom:speed>0.566</gom:speed></extensions></trkpt>
   <trkpt lat="59.2951450797" lon="34.6673387509"><ele>156.567</ele><time>2026-08-16T15:15:36.858Z</time><hdop>3.0</hdop><vdop>2.5</vdop><extensions><gom:speed>0.501</gom:speed></extensions></trkpt>
   <trkpt lat="59.295145876" lon="34.6673394214"><ele>156.614</ele><time>2026-08-16T15:15:37.436Z</time><hdop>3.0</hdop><vdop>2.5</vdop><extensions><gom:speed>0.377</gom:speed></extensions></trkpt>
   <trkpt lat="59.2951464628" lon="34.6673395891"><ele>156.595</ele><time>2026-08-16T15:15:38.136Z</time><hdop>3.0</hdop><vdop>2.5</vdop><extensions><gom:speed>0.275</gom:speed></extensions></trkpt>
   <trkpt lat="59.2951480972" lon="34.6673405949"><ele>156.622</ele><time>2026-08-16T15:15:39.136Z</time><hdop>3.0</hdop><vdop>2.5</vdop><extensions><gom:speed>0.186</gom:speed></extensions></trkpt>
   <trkpt lat="59.2951504861" lon="34.6673409302"><ele>156.666</ele><time>2026-08-16T15:15:40.136Z</time><hdop>3.0</hdop><vdop>2.5</vdop><extensions><gom:speed>0.135</gom:speed></extensions></trkpt>
   <trkpt lat="59.2951510728" lon="34.6673410978"><ele>156.692</ele><time>2026-08-16T15:15:40.715Z</time><hdop>3.0</hdop><vdop>2.5</vdop><extensions><gom:speed>0.135</gom:speed></extensions></trkpt>
   <trkpt lat="59.2951524977" lon="34.6673403435"><ele>156.728</ele><time>2026-08-16T15:15:41.422Z</time><hdop>3.0</hdop><vdop>2.5</vdop><extensions><gom:speed>0.091</gom:speed></extensions></trkpt>
   <trkpt lat="59.2951533778" lon="34.6673408464"><ele>156.758</ele><time>2026-08-16T15:15:42.136Z</time><hdop>3.0</hdop><vdop>2.5</vdop><extensions><gom:speed>0.098</gom:speed></extensions></trkpt>
   <trkpt lat="59.2951547608" lon="34.6673427742"><ele>156.889</ele><time>2026-08-16T15:15:43.136Z</time><hdop>3.0</hdop><vdop>2.5</vdop><extensions><gom:speed>0.118</gom:speed></extensions></trkpt>
   <trkpt lat="59.2951568982" lon="34.6673444506"><ele>156.946</ele><time>2026-08-16T15:15:44.135Z</time><hdop>3.0</hdop><vdop>2.5</vdop><extensions><gom:speed>0.137</gom:speed></extensions></trkpt>
   <trkpt lat="59.2951586584" lon="34.6673452888"><ele>156.981</ele><time>2026-08-16T15:15:44.994Z</time><hdop>3.0</hdop><vdop>2.5</vdop><extensions><gom:speed>0.152</gom:speed></extensions></trkpt>
   <trkpt lat="59.2951610892" lon="34.6673464622"><ele>156.89</ele><time>2026-08-16T15:15:45.456Z</time><hdop>3.0</hdop><vdop>2.5</vdop><extensions><gom:speed>0.147</gom:speed></extensions></trkpt>
   <trkpt lat="59.2951619693" lon="34.6673476357"><ele>156.835</ele><time>2026-08-16T15:15:46.133Z</time><hdop>3.0</hdop><vdop>2.5</vdop><extensions><gom:speed>0.17</gom:speed></extensions></trkpt>
   <trkpt lat="59.2951636876" lon="34.6673509885"><ele>156.803</ele><time>2026-08-16T15:15:47.075Z</time><hdop>3.0</hdop><vdop>2.5</vdop><extensions><gom:speed>0.175</gom:speed></extensions></trkpt>
   <trkpt lat="59.2951656992" lon="34.6673590351"><ele>156.726</ele><time>2026-08-16T15:15:48.116Z</time><hdop>3.0</hdop><vdop>2.5</vdop><extensions><gom:speed>0.245</gom:speed></extensions></trkpt>
   <trkpt lat="59.295167669" lon="34.6673698478"><ele>156.828</ele><time>2026-08-16T15:15:48.616Z</time><hdop>3.0</hdop><vdop>2.5</vdop><extensions><gom:speed>0.395</gom:speed></extensions></trkpt>
   <trkpt lat="59.2951693873" lon="34.6673784811"><ele>156.731</ele><time>2026-08-16T15:15:49.136Z</time><hdop>3.0</hdop><vdop>2.5</vdop><extensions><gom:speed>0.436</gom:speed></extensions></trkpt>
   <trkpt lat="59.2951711894" lon="34.6673842646"><ele>156.673</ele><time>2026-08-16T15:15:49.676Z</time><hdop>3.0</hdop><vdop>2.5</vdop><extensions><gom:speed>0.452</gom:speed></extensions></trkpt>
   <trkpt lat="59.2951729915" lon="34.6673920598"><ele>156.437</ele><time>2026-08-16T15:15:50.136Z</time><hdop>3.0</hdop><vdop>2.5</vdop><extensions><gom:speed>0.537</gom:speed></extensions></trkpt>
   <trkpt lat="59.2951765957" lon="34.6674085721"><ele>156.161</ele><time>2026-08-16T15:15:51.136Z</time><hdop>3.0</hdop><vdop>2.5</vdop><extensions><gom:speed>0.644</gom:speed></extensions></trkpt>
   <trkpt lat="59.2951790684" lon="34.6674190495"><ele>155.997</ele><time>2026-08-16T15:15:51.777Z</time><hdop>3.0</hdop><vdop>2.5</vdop><extensions><gom:speed>0.704</gom:speed></extensions></trkpt>
   <trkpt lat="59.2951841813" lon="34.6674322929"><ele>155.781</ele><time>2026-08-16T15:15:52.680Z</time><hdop>3.0</hdop><vdop>2.5</vdop><extensions><gom:speed>0.716</gom:speed></extensions></trkpt>
   <trkpt lat="59.2951862768" lon="34.6674381603"><ele>155.538</ele><time>2026-08-16T15:15:53.136Z</time><hdop>3.0</hdop><vdop>2.5</vdop><extensions><gom:speed>0.709</gom:speed></extensions></trkpt>
   <trkpt lat="59.2951881627" lon="34.6674452849"><ele>155.393</ele><time>2026-08-16T15:15:53.681Z</time><hdop>3.0</hdop><vdop>2.5</vdop><extensions><gom:speed>0.699</gom:speed></extensions></trkpt>
   <trkpt lat="59.2951887914" lon="34.667452661"><ele>155.248</ele><time>2026-08-16T15:15:54.136Z</time><hdop>3.0</hdop><vdop>2.5</vdop><extensions><gom:speed>0.684</gom:speed></extensions></trkpt>
   <trkpt lat="59.2951890847" lon="34.6674646471"><ele>155.162</ele><time>2026-08-16T15:15:54.957Z</time><hdop>3.0</hdop><vdop>2.5</vdop><extensions><gom:speed>0.723</gom:speed></extensions></trkpt>
   <trkpt lat="59.2951901744" lon="34.6674768847"><ele>155.099</ele><time>2026-08-16T15:15:55.693Z</time><hdop>3.0</hdop><vdop>2.5</vdop><extensions><gom:speed>0.717</gom:speed></extensions></trkpt>
   <trkpt lat="59.2951946587" lon="34.6674849313"><ele>154.945</ele><time>2026-08-16T15:15:56.458Z</time><hdop>3.0</hdop><vdop>2.5</vdop><extensions><gom:speed>0.648</gom:speed></extensions></trkpt>
   <trkpt lat="59.2951994783" lon="34.6674909663"><ele>154.693</ele><time>2026-08-16T15:15:57.136Z</time><hdop>3.0</hdop><vdop>2.5</vdop><extensions><gom:speed>0.673</gom:speed></extensions></trkpt>
   <trkpt lat="59.2952060581" lon="34.6674996834"><ele>154.728</ele><time>2026-08-16T15:15:58.136Z</time><hdop>3.0</hdop><vdop>2.5</vdop><extensions><gom:speed>0.676</gom:speed></extensions></trkpt>
   <trkpt lat="59.295211674" lon="34.6675073948"><ele>154.75</ele><time>2026-08-16T15:15:59.059Z</time><hdop>3.0</hdop><vdop>2.5</vdop><extensions><gom:speed>0.655</gom:speed></extensions></trkpt>
   <trkpt lat="59.2952159906" lon="34.6675154414"><ele>154.882</ele><time>2026-08-16T15:16:00.002Z</time><hdop>3.0</hdop><vdop>2.5</vdop><extensions><gom:speed>0.594</gom:speed></extensions></trkpt>
   <trkpt lat="59.2952194691" lon="34.6675233204"><ele>155.035</ele><time>2026-08-16T15:16:00.757Z</time><hdop>3.0</hdop><vdop>2.5</vdop><extensions><gom:speed>0.629</gom:speed></extensions></trkpt>
   <trkpt lat="59.2952240792" lon="34.6675359771"><ele>155.009</ele><time>2026-08-16T15:16:01.798Z</time><hdop>3.0</hdop><vdop>2.5</vdop><extensions><gom:speed>0.643</gom:speed></extensions></trkpt>
   <trkpt lat="59.2952277672" lon="34.667545281"><ele>155.131</ele><time>2026-08-16T15:16:02.593Z</time><hdop>3.0</hdop><vdop>2.5</vdop><extensions><gom:speed>0.649</gom:speed></extensions></trkpt>
   <trkpt lat="59.2952296951" lon="34.6675499749"><ele>155.294</ele><time>2026-08-16T15:16:03.136Z</time><hdop>3.0</hdop><vdop>2.5</vdop><extensions><gom:speed>0.561</gom:speed></extensions></trkpt>
   <trkpt lat="59.2952320839" lon="34.6675554231"><ele>155.392</ele><time>2026-08-16T15:16:04.016Z</time><hdop>3.0</hdop><vdop>2.5</vdop><extensions><gom:speed>0.534</gom:speed></extensions></trkpt>
   <trkpt lat="59.2952346823" lon="34.6675631344"><ele>155.533</ele><time>2026-08-16T15:16:04.536Z</time><hdop>3.0</hdop><vdop>2.5</vdop><extensions><gom:speed>0.597</gom:speed></extensions></trkpt>
   <trkpt lat="59.2952365682" lon="34.6675705943"><ele>155.715</ele><time>2026-08-16T15:16:05.136Z</time><hdop>3.0</hdop><vdop>2.5</vdop><extensions><gom:speed>0.57</gom:speed></extensions></trkpt>
   <trkpt lat="59.295238077" lon="34.6675813232"><ele>155.824</ele><time>2026-08-16T15:16:06.018Z</time><hdop>3.0</hdop><vdop>2.5</vdop><extensions><gom:speed>0.582</gom:speed></extensions></trkpt>
   <trkpt lat="59.2952386637" lon="34.6675956562"><ele>155.944</ele><time>2026-08-16T15:16:06.794Z</time><hdop>3.0</hdop><vdop>2.5</vdop><extensions><gom:speed>0.67</gom:speed></extensions></trkpt>
   <trkpt lat="59.2952392923" lon="34.6676062174"><ele>156.063</ele><time>2026-08-16T15:16:07.275Z</time><hdop>3.0</hdop><vdop>2.5</vdop><extensions><gom:speed>0.694</gom:speed></extensions></trkpt>
   <trkpt lat="59.2952409687" lon="34.6676195447"><ele>156.084</ele><time>2026-08-16T15:16:08.136Z</time><hdop>3.0</hdop><vdop>2.5</vdop><extensions><gom:speed>0.689</gom:speed></extensions></trkpt>
   <trkpt lat="59.2952428966" lon="34.6676288486"><ele>156.097</ele><time>2026-08-16T15:16:08.757Z</time><hdop>3.0</hdop><vdop>2.5</vdop><extensions><gom:speed>0.733</gom:speed></extensions></trkpt>
   <trkpt lat="59.2952448663" lon="34.6676454447"><ele>156.136</ele><time>2026-08-16T15:16:09.817Z</time><hdop>3.0</hdop><vdop>2.5</vdop><extensions><gom:speed>0.693</gom:speed></extensions></trkpt>
   <trkpt lat="59.2952474647" lon="34.6676629629"><ele>156.127</ele><time>2026-08-16T15:16:10.857Z</time><hdop>3.0</hdop><vdop>2.5</vdop><extensions><gom:speed>0.679</gom:speed></extensions></trkpt>
   <trkpt lat="59.2952520747" lon="34.6676752843"><ele>156.155</ele><time>2026-08-16T15:16:11.839Z</time><hdop>3.0</hdop><vdop>2.5</vdop><extensions><gom:speed>0.656</gom:speed></extensions></trkpt>
   <trkpt lat="59.2952561819" lon="34.6676866837"><ele>156.204</ele><time>2026-08-16T15:16:12.673Z</time><hdop>3.0</hdop><vdop>2.5</vdop><extensions><gom:speed>0.652</gom:speed></extensions></trkpt>
   <trkpt lat="59.2952577744" lon="34.6676935569"><ele>156.178</ele><time>2026-08-16T15:16:13.136Z</time><hdop>3.0</hdop><vdop>2.5</vdop><extensions><gom:speed>0.644</gom:speed></extensions></trkpt>
   <trkpt lat="59.295259367" lon="34.6677043695"><ele>156.162</ele><time>2026-08-16T15:16:13.919Z</time><hdop>3.0</hdop><vdop>2.5</vdop><extensions><gom:speed>0.674</gom:speed></extensions></trkpt>
   <trkpt lat="59.2952626778" lon="34.6677171938"><ele>156.084</ele><time>2026-08-16T15:16:15.058Z</time><hdop>3.0</hdop><vdop>2.5</vdop><extensions><gom:speed>0.551</gom:speed></extensions></trkpt>
   <trkpt lat="59.2952662821" lon="34.6677254919"><ele>156.057</ele><time>2026-08-16T15:16:15.833Z</time><hdop>3.0</hdop><vdop>2.5</vdop><extensions><gom:speed>0.602</gom:speed></extensions></trkpt>
   <trkpt lat="59.2952714788" lon="34.6677352987"><ele>156.035</ele><time>2026-08-16T15:16:16.815Z</time><hdop>3.0</hdop><vdop>2.5</vdop><extensions><gom:speed>0.6</gom:speed></extensions></trkpt>
   <trkpt lat="59.2952716884" lon="34.6677408308"><ele>155.902</ele><time>2026-08-16T15:16:17.453Z</time><hdop>3.0</hdop><vdop>2.5</vdop><extensions><gom:speed>0.454</gom:speed></extensions></trkpt>
   <trkpt lat="59.2952723589" lon="34.6677461952"><ele>155.822</ele><time>2026-08-16T15:16:18.120Z</time><hdop>3.0</hdop><vdop>2.5</vdop><extensions><gom:speed>0.45</gom:speed></extensions></trkpt>
   <trkpt lat="59.2952730714" lon="34.6677525655"><ele>155.947</ele><time>2026-08-16T15:16:18.817Z</time><hdop>3.0</hdop><vdop>2.5</vdop><extensions><gom:speed>0.464</gom:speed></extensions></trkpt>
   <trkpt lat="59.2952729876" lon="34.6677588519"><ele>156.052</ele><time>2026-08-16T15:16:19.377Z</time><hdop>3.0</hdop><vdop>2.5</vdop><extensions><gom:speed>0.491</gom:speed></extensions></trkpt>
   <trkpt lat="59.2952734905" lon="34.6677633781"><ele>156.115</ele><time>2026-08-16T15:16:19.858Z</time><hdop>3.0</hdop><vdop>2.5</vdop><extensions><gom:speed>0.493</gom:speed></extensions></trkpt>
   <trkpt lat="59.2952736581" lon="34.6677663956"><ele>156.199</ele><time>2026-08-16T15:16:20.535Z</time><hdop>3.0</hdop><vdop>2.5</vdop><extensions><gom:speed>0.369</gom:speed></extensions></trkpt>
   <trkpt lat="59.2952742868" lon="34.6677693293"><ele>156.339</ele><time>2026-08-16T15:16:21.135Z</time><hdop>3.0</hdop><vdop>2.5</vdop><extensions><gom:speed>0.357</gom:speed></extensions></trkpt>
   <trkpt lat="59.2952764661" lon="34.6677731849"><ele>156.423</ele><time>2026-08-16T15:16:21.958Z</time><hdop>3.0</hdop><vdop>2.5</vdop><extensions><gom:speed>0.373</gom:speed></extensions></trkpt>
   <trkpt lat="59.2952789806" lon="34.6677767892"><ele>156.738</ele><time>2026-08-16T15:16:23.136Z</time><hdop>3.0</hdop><vdop>2.5</vdop><extensions><gom:speed>0.378</gom:speed></extensions></trkpt>
   <trkpt lat="59.2952818724" lon="34.667777795"><ele>156.995</ele><time>2026-08-16T15:16:24.136Z</time><hdop>3.0</hdop><vdop>2.5</vdop><extensions><gom:speed>0.342</gom:speed></extensions></trkpt>
   <trkpt lat="59.2952849737" lon="34.6677771244"><ele>157.149</ele><time>2026-08-16T15:16:24.912Z</time><hdop>3.0</hdop><vdop>2.5</vdop><extensions><gom:speed>0.389</gom:speed></extensions></trkpt>
   <trkpt lat="59.2952924755" lon="34.6677744422"><ele>157.367</ele><time>2026-08-16T15:16:25.619Z</time><hdop>3.0</hdop><vdop>2.5</vdop><extensions><gom:speed>0.727</gom:speed></extensions></trkpt>
   <trkpt lat="59.2952949901" lon="34.6677722629"><ele>157.535</ele><time>2026-08-16T15:16:26.136Z</time><hdop>3.0</hdop><vdop>2.5</vdop><extensions><gom:speed>0.588</gom:speed></extensions></trkpt>
   <trkpt lat="59.2952990972" lon="34.6677733526"><ele>157.636</ele><time>2026-08-16T15:16:27.032Z</time><hdop>3.0</hdop><vdop>2.5</vdop><extensions><gom:speed>0.57</gom:speed></extensions></trkpt>
   <trkpt lat="59.2952972951" lon="34.6677743584"><ele>157.678</ele><time>2026-08-16T15:16:28.141Z</time><hdop>3.0</hdop><vdop>2.5</vdop><extensions><gom:speed>0.385</gom:speed></extensions></trkpt>
   <trkpt lat="59.2952924755" lon="34.6677728497"><ele>157.661</ele><time>2026-08-16T15:16:29.136Z</time><hdop>3.0</hdop><vdop>2.5</vdop><extensions><gom:speed>0.26</gom:speed></extensions></trkpt>
   <trkpt lat="59.2952914697" lon="34.6677734364"><ele>157.651</ele><time>2026-08-16T15:16:29.879Z</time><hdop>3.0</hdop><vdop>2.5</vdop><extensions><gom:speed>0.331</gom:speed></extensions></trkpt>
   <trkpt lat="59.2952888713" lon="34.667772682"><ele>157.506</ele><time>2026-08-16T15:16:30.693Z</time><hdop>3.0</hdop><vdop>2.5</vdop><extensions><gom:speed>0.194</gom:speed></extensions></trkpt>
   <trkpt lat="59.2952865663" lon="34.6677722629"><ele>157.451</ele><time>2026-08-16T15:16:31.518Z</time><hdop>3.0</hdop><vdop>2.5</vdop><extensions><gom:speed>0.157</gom:speed></extensions></trkpt>
   <trkpt lat="59.29528577" lon="34.6677720953"><ele>157.428</ele><time>2026-08-16T15:16:32.136Z</time><hdop>3.0</hdop><vdop>2.5</vdop><extensions><gom:speed>0.212</gom:speed></extensions></trkpt>
   <trkpt lat="59.2952841774" lon="34.6677720953"><ele>157.424</ele><time>2026-08-16T15:16:33.135Z</time><hdop>3.0</hdop><vdop>2.5</vdop><extensions><gom:speed>0.148</gom:speed></extensions></trkpt>
   <trkpt lat="59.2952832973" lon="34.6677742746"><ele>157.403</ele><time>2026-08-16T15:16:34.136Z</time><hdop>3.0</hdop><vdop>2.5</vdop><extensions><gom:speed>0.232</gom:speed></extensions></trkpt>
   <trkpt lat="59.2952829621" lon="34.6677781303"><ele>157.391</ele><time>2026-08-16T15:16:34.973Z</time><hdop>3.0</hdop><vdop>2.5</vdop><extensions><gom:speed>0.251</gom:speed></extensions></trkpt>
   <trkpt lat="59.2952823753" lon="34.6677869313"><ele>156.779</ele><time>2026-08-16T15:16:36.136Z</time><hdop>3.0</hdop><vdop>2.5</vdop><extensions><gom:speed>0.294</gom:speed></extensions></trkpt>
   <trkpt lat="59.2952835907" lon="34.6677855902"><ele>156.412</ele><time>2026-08-16T15:16:36.916Z</time><hdop>3.0</hdop><vdop>2.5</vdop><extensions><gom:speed>0.274</gom:speed></extensions></trkpt>
   <trkpt lat="59.2952844708" lon="34.667783327"><ele>156.054</ele><time>2026-08-16T15:16:37.535Z</time><hdop>3.0</hdop><vdop>2.5</vdop><extensions><gom:speed>0.283</gom:speed></extensions></trkpt>
   <trkpt lat="59.295286692" lon="34.6677813992"><ele>155.707</ele><time>2026-08-16T15:16:38.136Z</time><hdop>3.0</hdop><vdop>2.5</vdop><extensions><gom:speed>0.359</gom:speed></extensions></trkpt>
   <trkpt lat="59.2952893742" lon="34.6677794714"><ele>155.512</ele><time>2026-08-16T15:16:39.136Z</time><hdop>3.0</hdop><vdop>2.5</vdop><extensions><gom:speed>0.273</gom:speed></extensions></trkpt>
   <trkpt lat="59.295293188" lon="34.6677780464"><ele>155.241</ele><time>2026-08-16T15:16:40.136Z</time><hdop>3.0</hdop><vdop>2.5</vdop><extensions><gom:speed>0.399</gom:speed></extensions></trkpt>
   <trkpt lat="59.2952975885" lon="34.667779639"><ele>155.079</ele><time>2026-08-16T15:16:40.999Z</time><hdop>3.0</hdop><vdop>2.5</vdop><extensions><gom:speed>0.479</gom:speed></extensions></trkpt>
   <trkpt lat="59.2953064733" lon="34.6677820698"><ele>154.894</ele><time>2026-08-16T15:16:42.136Z</time><hdop>3.0</hdop><vdop>2.5</vdop><extensions><gom:speed>0.616</gom:speed></extensions></trkpt>
   <trkpt lat="59.29531079" lon="34.6677849196"><ele>154.783</ele><time>2026-08-16T15:16:42.717Z</time><hdop>3.0</hdop><vdop>2.5</vdop><extensions><gom:speed>0.643</gom:speed></extensions></trkpt>
   <trkpt lat="59.2953164897" lon="34.6677872665"><ele>154.644</ele><time>2026-08-16T15:16:43.797Z</time><hdop>3.0</hdop><vdop>2.5</vdop><extensions><gom:speed>0.559</gom:speed></extensions></trkpt>
   <trkpt lat="59.2953201777" lon="34.6677913737"><ele>154.655</ele><time>2026-08-16T15:16:44.395Z</time><hdop>3.0</hdop><vdop>2.5</vdop><extensions><gom:speed>0.62</gom:speed></extensions></trkpt>
   <trkpt lat="59.2953235724" lon="34.6677985821"><ele>154.49</ele><time>2026-08-16T15:16:45.136Z</time><hdop>3.0</hdop><vdop>2.5</vdop><extensions><gom:speed>0.599</gom:speed></extensions></trkpt>
   <trkpt lat="59.2953264641" lon="34.6678075507"><ele>154.391</ele><time>2026-08-16T15:16:45.858Z</time><hdop>3.0</hdop><vdop>2.5</vdop><extensions><gom:speed>0.68</gom:speed></extensions></trkpt>
   <trkpt lat="59.2953311999" lon="34.6678216323"><ele>154.324</ele><time>2026-08-16T15:16:46.859Z</time><hdop>3.0</hdop><vdop>2.5</vdop><extensions><gom:speed>0.729</gom:speed></extensions></trkpt>
   <trkpt lat="59.2953355585" lon="34.6678291761"><ele>154.281</ele><time>2026-08-16T15:16:47.516Z</time><hdop>3.0</hdop><vdop>2.5</vdop><extensions><gom:speed>0.686</gom:speed></extensions></trkpt>
   <trkpt lat="59.2953400847" lon="34.6678358816"><ele>154.209</ele><time>2026-08-16T15:16:48.136Z</time><hdop>3.0</hdop><vdop>2.5</vdop><extensions><gom:speed>0.701</gom:speed></extensions></trkpt>
   <trkpt lat="59.2953455749" lon="34.6678446826"><ele>154.165</ele><time>2026-08-16T15:16:49.097Z</time><hdop>3.0</hdop><vdop>2.5</vdop><extensions><gom:speed>0.681</gom:speed></extensions></trkpt>
   <trkpt lat="59.2953525738" lon="34.6678495441"><ele>153.972</ele><time>2026-08-16T15:16:49.980Z</time><hdop>3.0</hdop><vdop>2.5</vdop><extensions><gom:speed>0.636</gom:speed></extensions></trkpt>
   <trkpt lat="59.2953612909" lon="34.6678507175"><ele>154.066</ele><time>2026-08-16T15:16:50.795Z</time><hdop>3.0</hdop><vdop>2.5</vdop><extensions><gom:speed>0.703</gom:speed></extensions></trkpt>
   <trkpt lat="59.2953706787" lon="34.6678499632"><ele>154.116</ele><time>2026-08-16T15:16:51.639Z</time><hdop>3.0</hdop><vdop>2.5</vdop><extensions><gom:speed>0.746</gom:speed></extensions></trkpt>
   <trkpt lat="59.2953763784" lon="34.6678475324"><ele>154.248</ele><time>2026-08-16T15:16:52.136Z</time><hdop>3.0</hdop><vdop>2.5</vdop><extensions><gom:speed>0.762</gom:speed></extensions></trkpt>
   <trkpt lat="59.2953864786" lon="34.6678426709"><ele>154.396</ele><time>2026-08-16T15:16:53.136Z</time><hdop>3.0</hdop><vdop>2.5</vdop><extensions><gom:speed>0.797</gom:speed></extensions></trkpt>
   <trkpt lat="59.2953940642" lon="34.6678394858"><ele>154.485</ele><time>2026-08-16T15:16:53.975Z</time><hdop>3.0</hdop><vdop>2.5</vdop><extensions><gom:speed>0.821</gom:speed></extensions></trkpt>
   <trkpt lat="59.2954009792" lon="34.6678337861"><ele>154.484</ele><time>2026-08-16T15:16:54.681Z</time><hdop>3.0</hdop><vdop>2.5</vdop><extensions><gom:speed>0.848</gom:speed></extensions></trkpt>
   <trkpt lat="59.2954054636" lon="34.6678288408"><ele>154.729</ele><time>2026-08-16T15:16:55.136Z</time><hdop>3.0</hdop><vdop>2.5</vdop><extensions><gom:speed>0.833</gom:speed></extensions></trkpt>
   <trkpt lat="59.2954141807" lon="34.6678204589"><ele>154.875</ele><time>2026-08-16T15:16:56.134Z</time><hdop>3.0</hdop><vdop>2.5</vdop><extensions><gom:speed>0.849</gom:speed></extensions></trkpt>
   <trkpt lat="59.2954198804" lon="34.6678137533"><ele>154.825</ele><time>2026-08-16T15:16:56.752Z</time><hdop>3.0</hdop><vdop>2.5</vdop><extensions><gom:speed>0.834</gom:speed></extensions></trkpt>
   <trkpt lat="59.2954268793" lon="34.667802354"><ele>154.755</ele><time>2026-08-16T15:16:57.597Z</time><hdop>3.0</hdop><vdop>2.5</vdop><extensions><gom:speed>0.859</gom:speed></extensions></trkpt>
   <trkpt lat="59.2954305674" lon="34.6677942235"><ele>154.83</ele><time>2026-08-16T15:16:58.136Z</time><hdop>3.0</hdop><vdop>2.5</vdop><extensions><gom:speed>0.861</gom:speed></extensions></trkpt>
   <trkpt lat="59.295437692" lon="34.6677802257"><ele>154.815</ele><time>2026-08-16T15:16:59.136Z</time><hdop>3.0</hdop><vdop>2.5</vdop><extensions><gom:speed>0.84</gom:speed></extensions></trkpt>
   <trkpt lat="59.295443685" lon="34.6677706704"><ele>154.807</ele><time>2026-08-16T15:16:59.982Z</time><hdop>3.0</hdop><vdop>2.5</vdop><extensions><gom:speed>0.829</gom:speed></extensions></trkpt>
   <trkpt lat="59.2954491752" lon="34.6677623723"><ele>154.896</ele><time>2026-08-16T15:17:00.816Z</time><hdop>3.0</hdop><vdop>2.5</vdop><extensions><gom:speed>0.826</gom:speed></extensions></trkpt>
   <trkpt lat="59.2954549587" lon="34.6677556668"><ele>154.865</ele><time>2026-08-16T15:17:01.640Z</time><hdop>3.0</hdop><vdop>2.5</vdop><extensions><gom:speed>0.807</gom:speed></extensions></trkpt>
   <trkpt lat="59.2954592754" lon="34.6677524816"><ele>154.876</ele><time>2026-08-16T15:17:02.136Z</time><hdop>3.0</hdop><vdop>2.5</vdop><extensions><gom:speed>0.871</gom:speed></extensions></trkpt>
   <trkpt lat="59.2954672801" lon="34.6677491289"><ele>155.111</ele><time>2026-08-16T15:17:03.136Z</time><hdop>3.0</hdop><vdop>2.5</vdop><extensions><gom:speed>0.809</gom:speed></extensions></trkpt>
   <trkpt lat="59.2954745724" lon="34.6677483745"><ele>155.251</ele><time>2026-08-16T15:17:03.976Z</time><hdop>3.0</hdop><vdop>2.5</vdop><extensions><gom:speed>0.837</gom:speed></extensions></trkpt>
   <trkpt lat="59.2954821999" lon="34.6677483745"><ele>155.473</ele><time>2026-08-16T15:17:04.781Z</time><hdop>3.0</hdop><vdop>2.5</vdop><extensions><gom:speed>0.84</gom:speed></extensions></trkpt>
   <trkpt lat="59.2954911685" lon="34.6677587681"><ele>155.779</ele><time>2026-08-16T15:17:05.900Z</time><hdop>3.0</hdop><vdop>2.5</vdop><extensions><gom:speed>0.863</gom:speed></extensions></trkpt>
   <trkpt lat="59.2954900789" lon="34.667762959"><ele>155.716</ele><time>2026-08-16T15:17:06.715Z</time><hdop>3.0</hdop><vdop>2.5</vdop><extensions><gom:speed>0.608</gom:speed></extensions></trkpt>
   <trkpt lat="59.2954926773" lon="34.6677636296"><ele>155.828</ele><time>2026-08-16T15:17:07.353Z</time><hdop>3.0</hdop><vdop>2.5</vdop><extensions><gom:speed>0.689</gom:speed></extensions></trkpt>
   <trkpt lat="59.2954953595" lon="34.6677584328"><ele>155.945</ele><time>2026-08-16T15:17:08.136Z</time><hdop>3.0</hdop><vdop>2.5</vdop><extensions><gom:speed>0.826</gom:speed></extensions></trkpt>
   <trkpt lat="59.295499299" lon="34.667749548"><ele>155.953</ele><time>2026-08-16T15:17:09.136Z</time><hdop>3.0</hdop><vdop>2.5</vdop><extensions><gom:speed>0.771</gom:speed></extensions></trkpt>
   <trkpt lat="59.2955051663" lon="34.667739825"><ele>155.897</ele><time>2026-08-16T15:17:10.136Z</time><hdop>3.062</hdop><vdop>2.5</vdop><extensions><gom:speed>0.766</gom:speed></extensions></trkpt>
   <trkpt lat="59.2955103631" lon="34.6677315269"><ele>155.864</ele><time>2026-08-16T15:17:11.073Z</time><hdop>3.125</hdop><vdop>2.5</vdop><extensions><gom:speed>0.747</gom:speed></extensions></trkpt>
   <trkpt lat="59.2955189964" lon="34.6677261625"><ele>156.01</ele><time>2026-08-16T15:17:11.897Z</time><hdop>3.187</hdop><vdop>2.5</vdop><extensions><gom:speed>0.781</gom:speed></extensions></trkpt>
   <trkpt lat="59.2955275879" lon="34.667724067"><ele>156.212</ele><time>2026-08-16T15:17:12.633Z</time><hdop>3.187</hdop><vdop>2.5</vdop><extensions><gom:speed>0.807</gom:speed></extensions></trkpt>
   <trkpt lat="59.2955329942" lon="34.6677227259"><ele>156.519</ele><time>2026-08-16T15:17:13.136Z</time><hdop>3.187</hdop><vdop>2.5</vdop><extensions><gom:speed>0.795</gom:speed></extensions></trkpt>
   <trkpt lat="59.2955420886" lon="34.6677219715"><ele>156.629</ele><time>2026-08-16T15:17:14.136Z</time><hdop>3.187</hdop><vdop>2.5</vdop><extensions><gom:speed>0.77</gom:speed></extensions></trkpt>
   <trkpt lat="59.2955496742" lon="34.6677221391"><ele>156.694</ele><time>2026-08-16T15:17:15.077Z</time><hdop>3.125</hdop><vdop>2.5</vdop><extensions><gom:speed>0.772</gom:speed></extensions></trkpt>
   <trkpt lat="59.2955576789" lon="34.667724989"><ele>156.688</ele><time>2026-08-16T15:17:16.019Z</time><hdop>3.187</hdop><vdop>2.5</vdop><extensions><gom:speed>0.81</gom:speed></extensions></trkpt>
   <trkpt lat="59.2955638815" lon="34.6677271683"><ele>156.687</ele><time>2026-08-16T15:17:16.697Z</time><hdop>3.062</hdop><vdop>2.5</vdop><extensions><gom:speed>0.839</gom:speed></extensions></trkpt>
   <trkpt lat="59.2955716767" lon="34.6677252405"><ele>156.425</ele><time>2026-08-16T15:17:17.639Z</time><hdop>3.0</hdop><vdop>2.5</vdop><extensions><gom:speed>0.853</gom:speed></extensions></trkpt>
   <trkpt lat="59.2955764963" lon="34.6677233964"><ele>156.305</ele><time>2026-08-16T15:17:18.136Z</time><hdop>3.0</hdop><vdop>2.5</vdop><extensions><gom:speed>0.922</gom:speed></extensions></trkpt>
   <trkpt lat="59.2955846687" lon="34.6677205466"><ele>156.232</ele><time>2026-08-16T15:17:19.052Z</time><hdop>3.0</hdop><vdop>2.5</vdop><extensions><gom:speed>0.891</gom:speed></extensions></trkpt>
   <trkpt lat="59.2955905779" lon="34.6677187864"><ele>155.677</ele><time>2026-08-16T15:17:20.073Z</time><hdop>3.062</hdop><vdop>2.5</vdop><extensions><gom:speed>0.755</gom:speed></extensions></trkpt>
   <trkpt lat="59.295596068" lon="34.6677177806"><ele>155.685</ele><time>2026-08-16T15:17:20.956Z</time><hdop>3.062</hdop><vdop>2.5</vdop><extensions><gom:speed>0.747</gom:speed></extensions></trkpt>
   <trkpt lat="59.2956010972" lon="34.6677206304"><ele>155.548</ele><time>2026-08-16T15:17:21.594Z</time><hdop>3.062</hdop><vdop>2.5</vdop><extensions><gom:speed>0.828</gom:speed></extensions></trkpt>
   <trkpt lat="59.2956054977" lon="34.6677242346"><ele>155.362</ele><time>2026-08-16T15:17:22.136Z</time><hdop>3.062</hdop><vdop>2.5</vdop><extensions><gom:speed>0.826</gom:speed></extensions></trkpt>
   <trkpt lat="59.2956143825" lon="34.6677283418"><ele>155.135</ele><time>2026-08-16T15:17:23.136Z</time><hdop>3.062</hdop><vdop>2.5</vdop><extensions><gom:speed>0.903</gom:speed></extensions></trkpt>
   <trkpt lat="59.2956213814" lon="34.6677257434"><ele>155.0</ele><time>2026-08-16T15:17:24.019Z</time><hdop>3.062</hdop><vdop>2.5</vdop><extensions><gom:speed>0.88</gom:speed></extensions></trkpt>
   <trkpt lat="59.2956232673" lon="34.6677188702"><ele>154.771</ele><time>2026-08-16T15:17:24.559Z</time><hdop>3.0</hdop><vdop>2.5</vdop><extensions><gom:speed>0.9</gom:speed></extensions></trkpt>
   <trkpt lat="59.2956255723" lon="34.6677125838"><ele>154.913</ele><time>2026-08-16T15:17:25.135Z</time><hdop>3.0</hdop><vdop>2.5</vdop><extensions><gom:speed>0.837</gom:speed></extensions></trkpt>
   <trkpt lat="59.2956295957" lon="34.6677042857"><ele>155.161</ele><time>2026-08-16T15:17:26.136Z</time><hdop>3.0</hdop><vdop>2.5</vdop><extensions><gom:speed>0.757</gom:speed></extensions></trkpt>
   <trkpt lat="59.2956346667" lon="34.6677014358"><ele>155.309</ele><time>2026-08-16T15:17:27.061Z</time><hdop>3.0</hdop><vdop>2.5</vdop><extensions><gom:speed>0.734</gom:speed></extensions></trkpt>
   <trkpt lat="59.2956394863" lon="34.6676994242"><ele>155.354</ele><time>2026-08-16T15:17:27.719Z</time><hdop>3.0</hdop><vdop>2.5</vdop><extensions><gom:speed>0.78</gom:speed></extensions></trkpt>
   <trkpt lat="59.2956463595" lon="34.6676947303"><ele>155.22</ele><time>2026-08-16T15:17:28.642Z</time><hdop>3.0</hdop><vdop>2.5</vdop><extensions><gom:speed>0.797</gom:speed></extensions></trkpt>
   <trkpt lat="59.2956501732" lon="34.6676920481"><ele>155.29</ele><time>2026-08-16T15:17:29.136Z</time><hdop>3.0</hdop><vdop>2.5</vdop><extensions><gom:speed>0.819</gom:speed></extensions></trkpt>
   <trkpt lat="59.2956578846" lon="34.6676862646"><ele>155.332</ele><time>2026-08-16T15:17:30.114Z</time><hdop>3.0</hdop><vdop>2.5</vdop><extensions><gom:speed>0.821</gom:speed></extensions></trkpt>
   <trkpt lat="59.2956633747" lon="34.6676845882"><ele>155.399</ele><time>2026-08-16T15:17:30.732Z</time><hdop>3.0</hdop><vdop>2.5</vdop><extensions><gom:speed>0.851</gom:speed></extensions></trkpt>
   <trkpt lat="59.2956711699" lon="34.6676807325"><ele>155.615</ele><time>2026-08-16T15:17:31.733Z</time><hdop>3.0</hdop><vdop>2.5</vdop><extensions><gom:speed>0.868</gom:speed></extensions></trkpt>
   <trkpt lat="59.2956793842" lon="34.6676769607"><ele>156.221</ele><time>2026-08-16T15:17:32.617Z</time><hdop>3.0</hdop><vdop>2.5</vdop><extensions><gom:speed>0.9</gom:speed></extensions></trkpt>
   <trkpt lat="59.2956830722" lon="34.6676755358"><ele>157.049</ele><time>2026-08-16T15:17:33.136Z</time><hdop>3.0</hdop><vdop>2.5</vdop><extensions><gom:speed>0.858</gom:speed></extensions></trkpt>
   <trkpt lat="59.2956894844" lon="34.6676728536"><ele>157.459</ele><time>2026-08-16T15:17:34.136Z</time><hdop>3.0</hdop><vdop>2.5</vdop><extensions><gom:speed>0.774</gom:speed></extensions></trkpt>
   <trkpt lat="59.2956954774" lon="34.6676688302"><ele>157.704</ele><time>2026-08-16T15:17:35.060Z</time><hdop>3.0</hdop><vdop>2.5</vdop><extensions><gom:speed>0.778</gom:speed></extensions></trkpt>
   <trkpt lat="59.2956991655" lon="34.6676640526"><ele>158.038</ele><time>2026-08-16T15:17:35.797Z</time><hdop>3.0</hdop><vdop>2.5</vdop><extensions><gom:speed>0.752</gom:speed></extensions></trkpt>
   <trkpt lat="59.2957063739" lon="34.6676608674"><ele>158.49</ele><time>2026-08-16T15:17:37.136Z</time><hdop>3.0</hdop><vdop>2.5</vdop><extensions><gom:speed>0.796</gom:speed></extensions></trkpt>
   <trkpt lat="59.2957082598" lon="34.667656425"><ele>158.235</ele><time>2026-08-16T15:17:38.136Z</time><hdop>3.0</hdop><vdop>2.5</vdop><extensions><gom:speed>0.536</gom:speed></extensions></trkpt>
   <trkpt lat="59.2957056614" lon="34.6676530723"><ele>158.04</ele><time>2026-08-16T15:17:39.136Z</time><hdop>3.0</hdop><vdop>2.5</vdop><extensions><gom:speed>0.297</gom:speed></extensions></trkpt>
   <trkpt lat="59.2957027697" lon="34.6676539943"><ele>157.938</ele><time>2026-08-16T15:17:40.136Z</time><hdop>3.0</hdop><vdop>2.5</vdop><extensions><gom:speed>0.142</gom:speed></extensions></trkpt>
   <trkpt lat="59.2957004646" lon="34.6676559221"><ele>157.879</ele><time>2026-08-16T15:17:41.136Z</time><hdop>3.0</hdop><vdop>2.5</vdop><extensions><gom:speed>0.071</gom:speed></extensions></trkpt>
   <trkpt lat="59.2956982854" lon="34.6676576823"><ele>157.82</ele><time>2026-08-16T15:17:42.136Z</time><hdop>3.0</hdop><vdop>2.5</vdop><extensions><gom:speed>0.087</gom:speed></extensions></trkpt>
   <trkpt lat="59.2956960642" lon="34.6676584367"><ele>157.759</ele><time>2026-08-16T15:17:43.136Z</time><hdop>3.0</hdop><vdop>2.5</vdop><extensions><gom:speed>0.087</gom:speed></extensions></trkpt>
   <trkpt lat="59.2956948907" lon="34.6676576823"><ele>157.703</ele><time>2026-08-16T15:17:44.136Z</time><hdop>3.0</hdop><vdop>2.5</vdop><extensions><gom:speed>0.063</gom:speed></extensions></trkpt>
   <trkpt lat="59.2956932981" lon="34.66765785"><ele>157.655</ele><time>2026-08-16T15:17:45.136Z</time><hdop>3.0</hdop><vdop>2.5</vdop><extensions><gom:speed>0.057</gom:speed></extensions></trkpt>
   <trkpt lat="59.2956918732" lon="34.6676575985"><ele>157.61</ele><time>2026-08-16T15:17:46.136Z</time><hdop>3.0</hdop><vdop>2.5</vdop><extensions><gom:speed>0.09</gom:speed></extensions></trkpt>
   <trkpt lat="59.295690574" lon="34.6676565927"><ele>157.471</ele><time>2026-08-16T15:17:47.136Z</time><hdop>3.0</hdop><vdop>2.5</vdop><extensions><gom:speed>0.099</gom:speed></extensions></trkpt>
   <trkpt lat="59.2956901968" lon="34.6676550839"><ele>157.361</ele><time>2026-08-16T15:17:48.136Z</time><hdop>3.0</hdop><vdop>2.5</vdop><extensions><gom:speed>0.086</gom:speed></extensions></trkpt>
   <trkpt lat="59.2956906997" lon="34.6676530723"><ele>157.053</ele><time>2026-08-16T15:17:49.136Z</time><hdop>3.0</hdop><vdop>2.5</vdop><extensions><gom:speed>0.137</gom:speed></extensions></trkpt>
   <trkpt lat="59.2956932981" lon="34.6676497195"><ele>156.706</ele><time>2026-08-16T15:17:50.136Z</time><hdop>3.0</hdop><vdop>2.5</vdop><extensions><gom:speed>0.214</gom:speed></extensions></trkpt>
   <trkpt lat="59.2956945973" lon="34.6676484622"><ele>156.498</ele><time>2026-08-16T15:17:50.716Z</time><hdop>3.0</hdop><vdop>2.5</vdop><extensions><gom:speed>0.178</gom:speed></extensions></trkpt>
   <trkpt lat="59.2957042784" lon="34.6676356379"><ele>156.459</ele><time>2026-08-16T15:17:52.136Z</time><hdop>3.0</hdop><vdop>2.5</vdop><extensions><gom:speed>0.621</gom:speed></extensions></trkpt>
   <trkpt lat="59.2957116964" lon="34.667622646"><ele>156.436</ele><time>2026-08-16T15:17:53.101Z</time><hdop>3.0</hdop><vdop>2.5</vdop><extensions><gom:speed>0.728</gom:speed></extensions></trkpt>
   <trkpt lat="59.2957175637" lon="34.6676188741"><ele>156.41</ele><time>2026-08-16T15:17:53.552Z</time><hdop>3.0</hdop><vdop>2.5</vdop><extensions><gom:speed>0.869</gom:speed></extensions></trkpt>
   <trkpt lat="59.2957238921" lon="34.6676178683"><ele>156.369</ele><time>2026-08-16T15:17:54.136Z</time><hdop>3.0</hdop><vdop>2.5</vdop><extensions><gom:speed>0.895</gom:speed></extensions></trkpt>
   <trkpt lat="59.2957325673" lon="34.6676171977"><ele>156.344</ele><time>2026-08-16T15:17:54.976Z</time><hdop>3.0</hdop><vdop>2.5</vdop><extensions><gom:speed>0.947</gom:speed></extensions></trkpt>
   <trkpt lat="59.2957446792" lon="34.6676251605"><ele>155.898</ele><time>2026-08-16T15:17:56.136Z</time><hdop>3.0</hdop><vdop>2.5</vdop><extensions><gom:speed>0.889</gom:speed></extensions></trkpt>
   <trkpt lat="59.2957539831" lon="34.6676265855"><ele>155.566</ele><time>2026-08-16T15:17:57.136Z</time><hdop>3.0</hdop><vdop>2.5</vdop><extensions><gom:speed>0.879</gom:speed></extensions></trkpt>
   <trkpt lat="59.2957592637" lon="34.6676231489"><ele>155.367</ele><time>2026-08-16T15:17:57.753Z</time><hdop>3.0</hdop><vdop>2.5</vdop><extensions><gom:speed>0.903</gom:speed></extensions></trkpt>
   <trkpt lat="59.2957710822" lon="34.6676200476"><ele>155.345</ele><time>2026-08-16T15:17:59.136Z</time><hdop>3.0</hdop><vdop>2.5</vdop><extensions><gom:speed>0.894</gom:speed></extensions></trkpt>
   <trkpt lat="59.2957752731" lon="34.6676211372"><ele>155.273</ele><time>2026-08-16T15:18:00.136Z</time><hdop>3.0</hdop><vdop>2.5</vdop><extensions><gom:speed>0.634</gom:speed></extensions></trkpt>
   <trkpt lat="59.295776279" lon="34.66762449"><ele>155.221</ele><time>2026-08-16T15:18:01.135Z</time><hdop>3.0</hdop><vdop>2.5</vdop><extensions><gom:speed>0.407</gom:speed></extensions></trkpt>
   <trkpt lat="59.2957744769" lon="34.667628178"><ele>155.171</ele><time>2026-08-16T15:18:02.136Z</time><hdop>3.0</hdop><vdop>2.5</vdop><extensions><gom:speed>0.187</gom:speed></extensions></trkpt>
   <trkpt lat="59.2957725909" lon="34.6676301897"><ele>155.151</ele><time>2026-08-16T15:18:03.136Z</time><hdop>3.0</hdop><vdop>2.5</vdop><extensions><gom:speed>0.082</gom:speed></extensions></trkpt>
   <trkpt lat="59.2957708726" lon="34.6676320337"><ele>155.137</ele><time>2026-08-16T15:18:04.136Z</time><hdop>3.0</hdop><vdop>2.5</vdop><extensions><gom:speed>0.074</gom:speed></extensions></trkpt>
   <trkpt lat="59.2957703697" lon="34.6676335424"><ele>155.126</ele><time>2026-08-16T15:18:05.136Z</time><hdop>3.0</hdop><vdop>2.5</vdop><extensions><gom:speed>0.085</gom:speed></extensions></trkpt>
   <trkpt lat="59.2957698668" lon="34.6676350512"><ele>155.118</ele><time>2026-08-16T15:18:06.136Z</time><hdop>3.0</hdop><vdop>2.5</vdop><extensions><gom:speed>0.096</gom:speed></extensions></trkpt>
   <trkpt lat="59.2957700764" lon="34.6676365599"><ele>155.112</ele><time>2026-08-16T15:18:07.136Z</time><hdop>3.0</hdop><vdop>2.5</vdop><extensions><gom:speed>0.066</gom:speed></extensions></trkpt>
   <trkpt lat="59.2957701602" lon="34.6676378172"><ele>155.117</ele><time>2026-08-16T15:18:08.136Z</time><hdop>3.0</hdop><vdop>2.5</vdop><extensions><gom:speed>0.056</gom:speed></extensions></trkpt>
   <trkpt lat="59.2957698668" lon="34.6676394936"><ele>155.126</ele><time>2026-08-16T15:18:09.135Z</time><hdop>3.0</hdop><vdop>2.5</vdop><extensions><gom:speed>0.095</gom:speed></extensions></trkpt>
   <trkpt lat="59.2957695734" lon="34.6676409185"><ele>155.12</ele><time>2026-08-16T15:18:10.136Z</time><hdop>3.0</hdop><vdop>2.5</vdop><extensions><gom:speed>0.108</gom:speed></extensions></trkpt>
   <trkpt lat="59.2957699925" lon="34.66764117"><ele>155.128</ele><time>2026-08-16T15:18:11.136Z</time><hdop>3.0</hdop><vdop>2.5</vdop><extensions><gom:speed>0.065</gom:speed></extensions></trkpt>
   <trkpt lat="59.295769783" lon="34.6676414214"><ele>155.123</ele><time>2026-08-16T15:18:12.135Z</time><hdop>3.0</hdop><vdop>2.5</vdop><extensions><gom:speed>0.068</gom:speed></extensions></trkpt>
   <trkpt lat="59.2957700764" lon="34.6676412538"><ele>155.109</ele><time>2026-08-16T15:18:13.136Z</time><hdop>3.0</hdop><vdop>2.5</vdop><extensions><gom:speed>0.091</gom:speed></extensions></trkpt>
   <trkpt lat="59.2957699925" lon="34.6676418405"><ele>155.084</ele><time>2026-08-16T15:18:14.136Z</time><hdop>3.0</hdop><vdop>2.625</vdop><extensions><gom:speed>0.087</gom:speed></extensions></trkpt>
   <trkpt lat="59.295769783" lon="34.6676415891"><ele>155.059</ele><time>2026-08-16T15:18:15.136Z</time><hdop>3.0</hdop><vdop>2.687</vdop><extensions><gom:speed>0.057</gom:speed></extensions></trkpt>
   <trkpt lat="59.295768861" lon="34.6676419243"><ele>155.014</ele><time>2026-08-16T15:18:16.136Z</time><hdop>3.0</hdop><vdop>2.625</vdop><extensions><gom:speed>0.055</gom:speed></extensions></trkpt>
   <trkpt lat="59.2957685676" lon="34.6676413376"><ele>154.993</ele><time>2026-08-16T15:18:17.135Z</time><hdop>3.0</hdop><vdop>2.5</vdop><extensions><gom:speed>0.066</gom:speed></extensions></trkpt>
   <trkpt lat="59.295768861" lon="34.6676410861"><ele>154.984</ele><time>2026-08-16T15:18:18.136Z</time><hdop>3.0</hdop><vdop>2.5</vdop><extensions><gom:speed>0.069</gom:speed></extensions></trkpt>
   <trkpt lat="59.2957691963" lon="34.6676408347"><ele>154.976</ele><time>2026-08-16T15:18:19.136Z</time><hdop>3.0</hdop><vdop>2.5</vdop><extensions><gom:speed>0.07</gom:speed></extensions></trkpt>
   <trkpt lat="59.2957695734" lon="34.6676399965"><ele>154.841</ele><time>2026-08-16T15:18:20.136Z</time><hdop>3.0</hdop><vdop>2.5</vdop><extensions><gom:speed>0.554</gom:speed></extensions></trkpt>
   <trkpt lat="59.2957732615" lon="34.6676338777"><ele>154.834</ele><time>2026-08-16T15:18:21.136Z</time><hdop>3.0</hdop><vdop>2.5</vdop><extensions><gom:speed>0.617</gom:speed></extensions></trkpt>
   <trkpt lat="59.2957771591" lon="34.6676275913"><ele>154.829</ele><time>2026-08-16T15:18:22.095Z</time><hdop>3.0</hdop><vdop>2.5</vdop><extensions><gom:speed>0.617</gom:speed></extensions></trkpt>
   <trkpt lat="59.2957830683" lon="34.6676194608"><ele>154.843</ele><time>2026-08-16T15:18:22.978Z</time><hdop>3.0</hdop><vdop>2.5</vdop><extensions><gom:speed>0.948</gom:speed></extensions></trkpt>
   <trkpt lat="59.2957931685" lon="34.6676152699"><ele>155.081</ele><time>2026-08-16T15:18:24.136Z</time><hdop>3.0</hdop><vdop>2.5</vdop><extensions><gom:speed>0.884</gom:speed></extensions></trkpt>
   <trkpt lat="59.2958025981" lon="34.667617533"><ele>155.126</ele><time>2026-08-16T15:18:25.136Z</time><hdop>3.0</hdop><vdop>2.5</vdop><extensions><gom:speed>0.832</gom:speed></extensions></trkpt>
   <trkpt lat="59.295809597" lon="34.667620299"><ele>155.153</ele><time>2026-08-16T15:18:25.982Z</time><hdop>3.062</hdop><vdop>2.5</vdop><extensions><gom:speed>0.843</gom:speed></extensions></trkpt>
   <trkpt lat="59.2958164702" lon="34.6676232327"><ele>155.24</ele><time>2026-08-16T15:18:26.659Z</time><hdop>3.125</hdop><vdop>2.5</vdop><extensions><gom:speed>0.774</gom:speed></extensions></trkpt>
   <trkpt lat="59.2958210802" lon="34.6676253282"><ele>155.452</ele><time>2026-08-16T15:18:27.136Z</time><hdop>3.125</hdop><vdop>2.5</vdop><extensions><gom:speed>0.767</gom:speed></extensions></trkpt>
   <trkpt lat="59.2958291688" lon="34.6676304411"><ele>155.82</ele><time>2026-08-16T15:18:28.136Z</time><hdop>3.125</hdop><vdop>2.5</vdop><extensions><gom:speed>0.751</gom:speed></extensions></trkpt>
   <trkpt lat="59.2958357905" lon="34.6676368952"><ele>156.041</ele><time>2026-08-16T15:18:29.034Z</time><hdop>3.125</hdop><vdop>2.5</vdop><extensions><gom:speed>0.812</gom:speed></extensions></trkpt>
   <trkpt lat="59.2958434599" lon="34.6676364761"><ele>156.331</ele><time>2026-08-16T15:18:29.898Z</time><hdop>3.125</hdop><vdop>2.5</vdop><extensions><gom:speed>0.791</gom:speed></extensions></trkpt>
   <trkpt lat="59.2958501654" lon="34.6676293515"><ele>156.583</ele><time>2026-08-16T15:18:30.654Z</time><hdop>3.125</hdop><vdop>2.5</vdop><extensions><gom:speed>0.796</gom:speed></extensions></trkpt>
   <trkpt lat="59.2958538954" lon="34.6676239871"><ele>156.534</ele><time>2026-08-16T15:18:31.136Z</time><hdop>3.062</hdop><vdop>2.5</vdop><extensions><gom:speed>0.779</gom:speed></extensions></trkpt>
   <trkpt lat="59.2958599723" lon="34.6676142641"><ele>156.454</ele><time>2026-08-16T15:18:32.136Z</time><hdop>3.0</hdop><vdop>2.5</vdop><extensions><gom:speed>0.75</gom:speed></extensions></trkpt>
   <trkpt lat="59.2958631993" lon="34.667604541"><ele>156.585</ele><time>2026-08-16T15:18:33.136Z</time><hdop>3.0</hdop><vdop>2.5</vdop><extensions><gom:speed>0.604</gom:speed></extensions></trkpt>
   <trkpt lat="59.2958617744" lon="34.6675981708"><ele>156.656</ele><time>2026-08-16T15:18:34.136Z</time><hdop>3.0</hdop><vdop>2.5</vdop><extensions><gom:speed>0.378</gom:speed></extensions></trkpt>
   <trkpt lat="59.295861481" lon="34.667599931"><ele>156.702</ele><time>2026-08-16T15:18:35.136Z</time><hdop>3.0</hdop><vdop>2.5</vdop><extensions><gom:speed>0.223</gom:speed></extensions></trkpt>
   <trkpt lat="59.2958655881" lon="34.6675935608"><ele>156.598</ele><time>2026-08-16T15:18:36.136Z</time><hdop>3.0</hdop><vdop>2.5</vdop><extensions><gom:speed>0.223</gom:speed></extensions></trkpt>
   <trkpt lat="59.2958686894" lon="34.6675846759"><ele>156.498</ele><time>2026-08-16T15:18:37.136Z</time><hdop>3.0</hdop><vdop>2.5</vdop><extensions><gom:speed>0.179</gom:speed></extensions></trkpt>
   <trkpt lat="59.2958722937" lon="34.6675783895"><ele>156.278</ele><time>2026-08-16T15:18:38.136Z</time><hdop>3.0</hdop><vdop>2.5</vdop><extensions><gom:speed>0.237</gom:speed></extensions></trkpt>
   <trkpt lat="59.2958779934" lon="34.6675734442"><ele>156.416</ele><time>2026-08-16T15:18:39.136Z</time><hdop>3.0</hdop><vdop>2.5</vdop><extensions><gom:speed>0.307</gom:speed></extensions></trkpt>
   <trkpt lat="59.2958823939" lon="34.6675696723"><ele>156.499</ele><time>2026-08-16T15:18:40.096Z</time><hdop>3.0</hdop><vdop>2.5</vdop><extensions><gom:speed>0.313</gom:speed></extensions></trkpt>
   <trkpt lat="59.2958871715" lon="34.6675655652"><ele>156.194</ele><time>2026-08-16T15:18:40.793Z</time><hdop>3.0</hdop><vdop>2.5</vdop><extensions><gom:speed>0.307</gom:speed></extensions></trkpt>
   <trkpt lat="59.295898068" lon="34.6675420959"><ele>155.68</ele><time>2026-08-16T15:18:41.637Z</time><hdop>3.0</hdop><vdop>2.5</vdop><extensions><gom:speed>0.804</gom:speed></extensions></trkpt>
   <trkpt lat="59.2959041868" lon="34.6675291877"><ele>155.716</ele><time>2026-08-16T15:18:42.136Z</time><hdop>3.0</hdop><vdop>2.5</vdop><extensions><gom:speed>0.931</gom:speed></extensions></trkpt>
   <trkpt lat="59.2959134907" lon="34.6675142679"><ele>155.737</ele><time>2026-08-16T15:18:43.099Z</time><hdop>3.0</hdop><vdop>2.5</vdop><extensions><gom:speed>0.89</gom:speed></extensions></trkpt>
   <trkpt lat="59.2959199867" lon="34.6675038744"><ele>155.788</ele><time>2026-08-16T15:18:43.698Z</time><hdop>3.0</hdop><vdop>2.5</vdop><extensions><gom:speed>0.904</gom:speed></extensions></trkpt>
   <trkpt lat="59.2959257702" lon="34.6674900442"><ele>156.032</ele><time>2026-08-16T15:18:44.473Z</time><hdop>3.0</hdop><vdop>2.5</vdop><extensions><gom:speed>0.957</gom:speed></extensions></trkpt>
   <trkpt lat="59.2959288715" lon="34.6674823329"><ele>156.177</ele><time>2026-08-16T15:18:44.974Z</time><hdop>3.0</hdop><vdop>2.5</vdop><extensions><gom:speed>0.965</gom:speed></extensions></trkpt>
   <trkpt lat="59.2959348646" lon="34.667470263"><ele>156.377</ele><time>2026-08-16T15:18:45.779Z</time><hdop>3.0</hdop><vdop>2.5</vdop><extensions><gom:speed>1.063</gom:speed></extensions></trkpt>
   <trkpt lat="59.2959391813" lon="34.6674656529"><ele>156.705</ele><time>2026-08-16T15:18:46.456Z</time><hdop>3.0</hdop><vdop>2.5</vdop><extensions><gom:speed>0.981</gom:speed></extensions></trkpt>
   <trkpt lat="59.2959438751" lon="34.667461462"><ele>156.901</ele><time>2026-08-16T15:18:47.035Z</time><hdop>3.0</hdop><vdop>2.5</vdop><extensions><gom:speed>0.976</gom:speed></extensions></trkpt>
   <trkpt lat="59.2959449648" lon="34.6674567681"><ele>157.004</ele><time>2026-08-16T15:18:47.516Z</time><hdop>3.0</hdop><vdop>2.5</vdop><extensions><gom:speed>1.004</gom:speed></extensions></trkpt>
   <trkpt lat="59.2959434979" lon="34.6674490567"><ele>156.986</ele><time>2026-08-16T15:18:48.136Z</time><hdop>3.0</hdop><vdop>2.5</vdop><extensions><gom:speed>0.901</gom:speed></extensions></trkpt>
   <trkpt lat="59.2959401871" lon="34.6674361486"><ele>156.975</ele><time>2026-08-16T15:18:48.841Z</time><hdop>3.0</hdop><vdop>2.5</vdop><extensions><gom:speed>0.947</gom:speed></extensions></trkpt>
   <trkpt lat="59.2959360799" lon="34.6674315386"><ele>157.119</ele><time>2026-08-16T15:18:49.419Z</time><hdop>3.0</hdop><vdop>2.5</vdop><extensions><gom:speed>0.857</gom:speed></extensions></trkpt>
   <trkpt lat="59.2959348646" lon="34.6674272638"><ele>157.162</ele><time>2026-08-16T15:18:50.136Z</time><hdop>3.0</hdop><vdop>2.5</vdop><extensions><gom:speed>0.729</gom:speed></extensions></trkpt>
   <trkpt lat="59.2959385945" lon="34.6674210612"><ele>157.188</ele><time>2026-08-16T15:18:51.000Z</time><hdop>3.0</hdop><vdop>2.5</vdop><extensions><gom:speed>0.772</gom:speed></extensions></trkpt>
   <trkpt lat="59.295942073" lon="34.6674193848"><ele>157.122</ele><time>2026-08-16T15:18:51.717Z</time><hdop>3.0</hdop><vdop>2.5</vdop><extensions><gom:speed>0.804</gom:speed></extensions></trkpt>
   <trkpt lat="59.2959442942" lon="34.6674177922"><ele>157.072</ele><time>2026-08-16T15:18:52.355Z</time><hdop>3.0</hdop><vdop>2.5</vdop><extensions><gom:speed>0.831</gom:speed></extensions></trkpt>
   <trkpt lat="59.2959490719" lon="34.6674099971"><ele>157.042</ele><time>2026-08-16T15:18:53.140Z</time><hdop>3.0</hdop><vdop>2.5</vdop><extensions><gom:speed>0.849</gom:speed></extensions></trkpt>
   <trkpt lat="59.2959519637" lon="34.6674041297"><ele>156.855</ele><time>2026-08-16T15:18:53.896Z</time><hdop>3.0</hdop><vdop>2.5</vdop><extensions><gom:speed>0.879</gom:speed></extensions></trkpt>
   <trkpt lat="59.2959514607" lon="34.6673968375"><ele>156.708</ele><time>2026-08-16T15:18:54.661Z</time><hdop>3.0</hdop><vdop>2.5</vdop><extensions><gom:speed>0.848</gom:speed></extensions></trkpt>
   <trkpt lat="59.2959495748" lon="34.6673925627"><ele>156.673</ele><time>2026-08-16T15:18:55.136Z</time><hdop>3.0</hdop><vdop>2.5</vdop><extensions><gom:speed>0.794</gom:speed></extensions></trkpt>
   <trkpt lat="59.2959477727" lon="34.6673793193"><ele>156.653</ele><time>2026-08-16T15:18:56.036Z</time><hdop>3.0</hdop><vdop>2.5</vdop><extensions><gom:speed>0.859</gom:speed></extensions></trkpt>
   <trkpt lat="59.2959450905" lon="34.6673726976"><ele>157.112</ele><time>2026-08-16T15:18:56.713Z</time><hdop>3.0</hdop><vdop>2.5</vdop><extensions><gom:speed>0.853</gom:speed></extensions></trkpt>
   <trkpt lat="59.2959399775" lon="34.6673658244"><ele>157.457</ele><time>2026-08-16T15:18:57.439Z</time><hdop>3.0</hdop><vdop>2.5</vdop><extensions><gom:speed>0.898</gom:speed></extensions></trkpt>
   <trkpt lat="59.2959367924" lon="34.6673589513"><ele>157.663</ele><time>2026-08-16T15:18:57.959Z</time><hdop>3.0</hdop><vdop>2.5</vdop><extensions><gom:speed>0.903</gom:speed></extensions></trkpt>
   <trkpt lat="59.2959296678" lon="34.6673552632"><ele>157.981</ele><time>2026-08-16T15:18:58.596Z</time><hdop>3.0</hdop><vdop>2.5</vdop><extensions><gom:speed>0.909</gom:speed></extensions></trkpt>
   <trkpt lat="59.2959261893" lon="34.6673489768"><ele>158.171</ele><time>2026-08-16T15:18:59.118Z</time><hdop>3.0</hdop><vdop>2.5</vdop><extensions><gom:speed>0.899</gom:speed></extensions></trkpt>
   <trkpt lat="59.2959173883" lon="34.6673410978"><ele>158.11</ele><time>2026-08-16T15:19:00.136Z</time><hdop>3.0</hdop><vdop>2.5</vdop><extensions><gom:speed>0.837</gom:speed></extensions></trkpt>
   <trkpt lat="59.295913365" lon="34.6673278544"><ele>158.342</ele><time>2026-08-16T15:19:01.136Z</time><hdop>3.0</hdop><vdop>2.5</vdop><extensions><gom:speed>0.863</gom:speed></extensions></trkpt>
   <trkpt lat="59.2959131974" lon="34.6673195563"><ele>158.48</ele><time>2026-08-16T15:19:01.620Z</time><hdop>3.0</hdop><vdop>2.5</vdop><extensions><gom:speed>0.926</gom:speed></extensions></trkpt>
   <trkpt lat="59.2959130716" lon="34.6673121803"><ele>158.592</ele><time>2026-08-16T15:19:02.136Z</time><hdop>3.0</hdop><vdop>2.5</vdop><extensions><gom:speed>0.918</gom:speed></extensions></trkpt>
   <trkpt lat="59.2959144965" lon="34.6672994398"><ele>158.658</ele><time>2026-08-16T15:19:02.896Z</time><hdop>3.0</hdop><vdop>2.5</vdop><extensions><gom:speed>0.991</gom:speed></extensions></trkpt>
   <trkpt lat="59.2959164663" lon="34.6672885433"><ele>158.551</ele><time>2026-08-16T15:19:03.652Z</time><hdop>3.0</hdop><vdop>2.5</vdop><extensions><gom:speed>1.009</gom:speed></extensions></trkpt>
   <trkpt lat="59.2959182684" lon="34.6672799938"><ele>158.487</ele><time>2026-08-16T15:19:04.113Z</time><hdop>3.0</hdop><vdop>2.5</vdop><extensions><gom:speed>1.014</gom:speed></extensions></trkpt>
   <trkpt lat="59.2959200705" lon="34.6672644872"><ele>158.489</ele><time>2026-08-16T15:19:04.977Z</time><hdop>3.0</hdop><vdop>2.5</vdop><extensions><gom:speed>1.013</gom:speed></extensions></trkpt>
   <trkpt lat="59.2959196933" lon="34.667257195"><ele>158.3</ele><time>2026-08-16T15:19:05.439Z</time><hdop>3.0</hdop><vdop>2.5</vdop><extensions><gom:speed>1.013</gom:speed></extensions></trkpt>
   <trkpt lat="59.2959194838" lon="34.6672449574"><ele>158.044</ele><time>2026-08-16T15:19:06.136Z</time><hdop>3.0</hdop><vdop>2.5</vdop><extensions><gom:speed>1.0</gom:speed></extensions></trkpt>
   <trkpt lat="59.2959185618" lon="34.6672324684"><ele>157.892</ele><time>2026-08-16T15:19:06.773Z</time><hdop>3.0</hdop><vdop>2.5</vdop><extensions><gom:speed>0.994</gom:speed></extensions></trkpt>
   <trkpt lat="59.2959161729" lon="34.6672239188"><ele>157.929</ele><time>2026-08-16T15:19:07.372Z</time><hdop>3.0</hdop><vdop>2.5</vdop><extensions><gom:speed>0.965</gom:speed></extensions></trkpt>
   <trkpt lat="59.2959125687" lon="34.6672138605"><ele>157.778</ele><time>2026-08-16T15:19:08.136Z</time><hdop>3.0</hdop><vdop>2.5</vdop><extensions><gom:speed>0.933</gom:speed></extensions></trkpt>
   <trkpt lat="59.2959080844" lon="34.6671999466"><ele>157.688</ele><time>2026-08-16T15:19:09.020Z</time><hdop>3.0</hdop><vdop>2.5</vdop><extensions><gom:speed>0.973</gom:speed></extensions></trkpt>
   <trkpt lat="59.2959047735" lon="34.6671939954"><ele>157.58</ele><time>2026-08-16T15:19:09.600Z</time><hdop>3.0</hdop><vdop>2.5</vdop><extensions><gom:speed>0.903</gom:speed></extensions></trkpt>
   <trkpt lat="59.2959020913" lon="34.6671870384"><ele>157.516</ele><time>2026-08-16T15:19:10.120Z</time><hdop>3.0</hdop><vdop>2.5</vdop><extensions><gom:speed>0.914</gom:speed></extensions></trkpt>
   <trkpt lat="59.2958977747" lon="34.6671745494"><ele>157.567</ele><time>2026-08-16T15:19:11.092Z</time><hdop>3.0</hdop><vdop>2.5</vdop><extensions><gom:speed>0.908</gom:speed></extensions></trkpt>
   <trkpt lat="59.2958922845" lon="34.6671612222"><ele>157.646</ele><time>2026-08-16T15:19:12.135Z</time><hdop>3.0</hdop><vdop>2.5</vdop><extensions><gom:speed>0.873</gom:speed></extensions></trkpt>
   <trkpt lat="59.2958863753" lon="34.6671504934"><ele>157.373</ele><time>2026-08-16T15:19:13.136Z</time><hdop>3.0</hdop><vdop>2.5</vdop><extensions><gom:speed>0.822</gom:speed></extensions></trkpt>
   <trkpt lat="59.2958822681" lon="34.6671429496"><ele>157.209</ele><time>2026-08-16T15:19:13.840Z</time><hdop>3.0</hdop><vdop>2.5</vdop><extensions><gom:speed>0.836</gom:speed></extensions></trkpt>
   <trkpt lat="59.2958777838" lon="34.6671346516"><ele>157.116</ele><time>2026-08-16T15:19:14.616Z</time><hdop>3.0</hdop><vdop>2.5</vdop><extensions><gom:speed>0.855</gom:speed></extensions></trkpt>
   <trkpt lat="59.295875395" lon="34.6671284489"><ele>156.972</ele><time>2026-08-16T15:19:15.136Z</time><hdop>3.0</hdop><vdop>2.5</vdop><extensions><gom:speed>0.854</gom:speed></extensions></trkpt>
   <trkpt lat="59.295872587" lon="34.6671177201"><ele>156.886</ele><time>2026-08-16T15:19:15.813Z</time><hdop>3.0</hdop><vdop>2.5</vdop><extensions><gom:speed>0.903</gom:speed></extensions></trkpt>
   <trkpt lat="59.2958719584" lon="34.6671063207"><ele>156.638</ele><time>2026-08-16T15:19:16.461Z</time><hdop>3.0</hdop><vdop>2.5</vdop><extensions><gom:speed>0.938</gom:speed></extensions></trkpt>
   <trkpt lat="59.2958709945" lon="34.6670958433"><ele>156.26</ele><time>2026-08-16T15:19:17.136Z</time><hdop>3.0</hdop><vdop>2.5</vdop><extensions><gom:speed>0.92</gom:speed></extensions></trkpt>
   <trkpt lat="59.2958700725" lon="34.6670851983"><ele>156.034</ele><time>2026-08-16T15:19:17.717Z</time><hdop>3.0</hdop><vdop>2.5</vdop><extensions><gom:speed>0.977</gom:speed></extensions></trkpt>
   <trkpt lat="59.2958685637" lon="34.6670689374"><ele>155.839</ele><time>2026-08-16T15:19:18.639Z</time><hdop>3.0</hdop><vdop>2.5</vdop><extensions><gom:speed>0.979</gom:speed></extensions></trkpt>
   <trkpt lat="59.2958677674" lon="34.6670604717"><ele>155.849</ele><time>2026-08-16T15:19:19.136Z</time><hdop>3.0</hdop><vdop>2.5</vdop><extensions><gom:speed>0.97</gom:speed></extensions></trkpt>
   <trkpt lat="59.2958671807" lon="34.6670460548"><ele>155.855</ele><time>2026-08-16T15:19:19.916Z</time><hdop>3.0</hdop><vdop>2.5</vdop><extensions><gom:speed>0.964</gom:speed></extensions></trkpt>
   <trkpt lat="59.2958672645" lon="34.6670355775"><ele>155.677</ele><time>2026-08-16T15:19:20.515Z</time><hdop>3.0</hdop><vdop>2.5</vdop><extensions><gom:speed>0.964</gom:speed></extensions></trkpt>
   <trkpt lat="59.2958672645" lon="34.6670247648"><ele>155.571</ele><time>2026-08-16T15:19:21.074Z</time><hdop>3.0</hdop><vdop>2.5</vdop><extensions><gom:speed>0.966</gom:speed></extensions></trkpt>
   <trkpt lat="59.2958672645" lon="34.6670111861"><ele>155.542</ele><time>2026-08-16T15:19:21.899Z</time><hdop>3.0</hdop><vdop>2.5</vdop><extensions><gom:speed>0.939</gom:speed></extensions></trkpt>
   <trkpt lat="59.2958678932" lon="34.6669953443"><ele>155.398</ele><time>2026-08-16T15:19:22.841Z</time><hdop>3.0</hdop><vdop>2.5</vdop><extensions><gom:speed>0.922</gom:speed></extensions></trkpt>
   <trkpt lat="59.295872587" lon="34.6669738867"><ele>155.033</ele><time>2026-08-16T15:19:23.999Z</time><hdop>3.0</hdop><vdop>2.5</vdop><extensions><gom:speed>1.005</gom:speed></extensions></trkpt>
   <trkpt lat="59.2958748921" lon="34.6669615653"><ele>154.392</ele><time>2026-08-16T15:19:24.676Z</time><hdop>3.0</hdop><vdop>2.5</vdop><extensions><gom:speed>1.039</gom:speed></extensions></trkpt>
   <trkpt lat="59.2958763589" lon="34.6669548597"><ele>153.608</ele><time>2026-08-16T15:19:25.136Z</time><hdop>3.0</hdop><vdop>2.5</vdop><extensions><gom:speed>0.998</gom:speed></extensions></trkpt>
   <trkpt lat="59.2958799631" lon="34.6669401914"><ele>153.14</ele><time>2026-08-16T15:19:26.100Z</time><hdop>3.0</hdop><vdop>2.5</vdop><extensions><gom:speed>0.924</gom:speed></extensions></trkpt>
   <trkpt lat="59.2958863753" lon="34.6669297978"><ele>152.753</ele><time>2026-08-16T15:19:26.993Z</time><hdop>3.0</hdop><vdop>2.5</vdop><extensions><gom:speed>0.895</gom:speed></extensions></trkpt>
   <trkpt lat="59.2958898957" lon="34.6669205777"><ele>152.317</ele><time>2026-08-16T15:19:27.660Z</time><hdop>3.0</hdop><vdop>2.5</vdop><extensions><gom:speed>0.92</gom:speed></extensions></trkpt>
   <trkpt lat="59.2958921588" lon="34.6669134531"><ele>152.264</ele><time>2026-08-16T15:19:28.136Z</time><hdop>3.0</hdop><vdop>2.5</vdop><extensions><gom:speed>0.936</gom:speed></extensions></trkpt>
   <trkpt lat="59.2958981937" lon="34.6668982819"><ele>152.447</ele><time>2026-08-16T15:19:29.136Z</time><hdop>3.0</hdop><vdop>2.5</vdop><extensions><gom:speed>0.961</gom:speed></extensions></trkpt>
   <trkpt lat="59.2959041868" lon="34.6668879721"><ele>152.556</ele><time>2026-08-16T15:19:29.897Z</time><hdop>3.0</hdop><vdop>2.5</vdop><extensions><gom:speed>0.946</gom:speed></extensions></trkpt>
   <trkpt lat="59.2959064918" lon="34.666878333"><ele>152.86</ele><time>2026-08-16T15:19:30.399Z</time><hdop>3.0</hdop><vdop>2.5</vdop><extensions><gom:speed>0.955</gom:speed></extensions></trkpt>
   <trkpt lat="59.2959081682" lon="34.666869029"><ele>153.042</ele><time>2026-08-16T15:19:30.919Z</time><hdop>3.0</hdop><vdop>2.5</vdop><extensions><gom:speed>0.955</gom:speed></extensions></trkpt>
   <trkpt lat="59.2959092998" lon="34.6668509241"><ele>153.465</ele><time>2026-08-16T15:19:31.773Z</time><hdop>3.0</hdop><vdop>2.5</vdop><extensions><gom:speed>0.988</gom:speed></extensions></trkpt>
   <trkpt lat="59.2959090902" lon="34.6668322325"><ele>153.981</ele><time>2026-08-16T15:19:32.656Z</time><hdop>3.0</hdop><vdop>2.5</vdop><extensions><gom:speed>0.966</gom:speed></extensions></trkpt>
   <trkpt lat="59.2959085873" lon="34.6668233477"><ele>154.411</ele><time>2026-08-16T15:19:33.136Z</time><hdop>3.0</hdop><vdop>2.5</vdop><extensions><gom:speed>0.888</gom:speed></extensions></trkpt>
   <trkpt lat="59.2959097608" lon="34.6668090984"><ele>154.669</ele><time>2026-08-16T15:19:33.961Z</time><hdop>3.0</hdop><vdop>2.5</vdop><extensions><gom:speed>0.907</gom:speed></extensions></trkpt>
   <trkpt lat="59.2959098865" lon="34.666797699"><ele>154.505</ele><time>2026-08-16T15:19:34.717Z</time><hdop>3.0</hdop><vdop>2.5</vdop><extensions><gom:speed>0.867</gom:speed></extensions></trkpt>
   <trkpt lat="59.295907791" lon="34.6667867188"><ele>154.342</ele><time>2026-08-16T15:19:35.512Z</time><hdop>3.0</hdop><vdop>2.5</vdop><extensions><gom:speed>0.868</gom:speed></extensions></trkpt>
   <trkpt lat="59.2959050669" lon="34.6667772472"><ele>154.519</ele><time>2026-08-16T15:19:36.136Z</time><hdop>3.0</hdop><vdop>2.5</vdop><extensions><gom:speed>0.889</gom:speed></extensions></trkpt>
   <trkpt lat="59.2959025942" lon="34.6667668536"><ele>154.625</ele><time>2026-08-16T15:19:36.759Z</time><hdop>3.0</hdop><vdop>2.5</vdop><extensions><gom:speed>0.913</gom:speed></extensions></trkpt>
   <trkpt lat="59.2958961821" lon="34.6667480782"><ele>154.539</ele><time>2026-08-16T15:19:37.996Z</time><hdop>3.0</hdop><vdop>2.5</vdop><extensions><gom:speed>0.916</gom:speed></extensions></trkpt>
   <trkpt lat="59.2958934999" lon="34.6667403668"><ele>154.33</ele><time>2026-08-16T15:19:38.495Z</time><hdop>3.0</hdop><vdop>2.5</vdop><extensions><gom:speed>0.942</gom:speed></extensions></trkpt>
   <trkpt lat="59.2958908596" lon="34.6667315658"><ele>154.273</ele><time>2026-08-16T15:19:39.136Z</time><hdop>3.0</hdop><vdop>2.5</vdop><extensions><gom:speed>0.893</gom:speed></extensions></trkpt>
   <trkpt lat="59.2958871715" lon="34.6667215914"><ele>154.239</ele><time>2026-08-16T15:19:39.900Z</time><hdop>3.0</hdop><vdop>2.5</vdop><extensions><gom:speed>0.882</gom:speed></extensions></trkpt>
   <trkpt lat="59.2958807594" lon="34.6667109463"><ele>153.912</ele><time>2026-08-16T15:19:40.960Z</time><hdop>3.0</hdop><vdop>2.5</vdop><extensions><gom:speed>0.851</gom:speed></extensions></trkpt>
   <trkpt lat="59.2958780772" lon="34.6667053305"><ele>153.957</ele><time>2026-08-16T15:19:41.480Z</time><hdop>3.0</hdop><vdop>2.5</vdop><extensions><gom:speed>0.886</gom:speed></extensions></trkpt>
   <trkpt lat="59.2958757722" lon="34.666696278"><ele>154.128</ele><time>2026-08-16T15:19:42.135Z</time><hdop>3.0</hdop><vdop>2.5</vdop><extensions><gom:speed>0.823</gom:speed></extensions></trkpt>
   <trkpt lat="59.2958738862" lon="34.6666812744"><ele>154.23</ele><time>2026-08-16T15:19:43.039Z</time><hdop>3.0</hdop><vdop>2.5</vdop><extensions><gom:speed>0.895</gom:speed></extensions></trkpt>
   <trkpt lat="59.295874473" lon="34.6666679472"><ele>154.318</ele><time>2026-08-16T15:19:43.993Z</time><hdop>3.0</hdop><vdop>2.5</vdop><extensions><gom:speed>0.824</gom:speed></extensions></trkpt>
   <trkpt lat="59.2958766942" lon="34.6666612417"><ele>154.362</ele><time>2026-08-16T15:19:44.513Z</time><hdop>3.0</hdop><vdop>2.5</vdop><extensions><gom:speed>0.821</gom:speed></extensions></trkpt>
   <trkpt lat="59.2958784963" lon="34.6666536979"><ele>154.504</ele><time>2026-08-16T15:19:45.136Z</time><hdop>3.0</hdop><vdop>2.5</vdop><extensions><gom:speed>0.767</gom:speed></extensions></trkpt>
   <trkpt lat="59.2958824777" lon="34.6666427177"><ele>154.589</ele><time>2026-08-16T15:19:46.073Z</time><hdop>3.0</hdop><vdop>2.5</vdop><extensions><gom:speed>0.756</gom:speed></extensions></trkpt>
   <trkpt lat="59.2958898957" lon="34.6666372694"><ele>154.745</ele><time>2026-08-16T15:19:46.898Z</time><hdop>3.0</hdop><vdop>2.5</vdop><extensions><gom:speed>0.775</gom:speed></extensions></trkpt>
   <trkpt lat="59.2958944638" lon="34.6666335814"><ele>154.846</ele><time>2026-08-16T15:19:47.438Z</time><hdop>3.0</hdop><vdop>2.5</vdop><extensions><gom:speed>0.783</gom:speed></extensions></trkpt>
   <trkpt lat="59.2958994929" lon="34.6666276302"><ele>154.616</ele><time>2026-08-16T15:19:48.136Z</time><hdop>3.0</hdop><vdop>2.5</vdop><extensions><gom:speed>0.742</gom:speed></extensions></trkpt>
   <trkpt lat="59.2959067852" lon="34.6666177396"><ele>154.522</ele><time>2026-08-16T15:19:49.136Z</time><hdop>3.0</hdop><vdop>2.5</vdop><extensions><gom:speed>0.806</gom:speed></extensions></trkpt>
   <trkpt lat="59.2959134907" lon="34.6666060887"><ele>154.336</ele><time>2026-08-16T15:19:50.136Z</time><hdop>3.0</hdop><vdop>2.5</vdop><extensions><gom:speed>0.818</gom:speed></extensions></trkpt>
   <trkpt lat="59.2959164663" lon="34.6665974554"><ele>154.225</ele><time>2026-08-16T15:19:50.794Z</time><hdop>3.0</hdop><vdop>2.5</vdop><extensions><gom:speed>0.82</gom:speed></extensions></trkpt>
   <trkpt lat="59.295924471" lon="34.6665864751"><ele>154.209</ele><time>2026-08-16T15:19:51.776Z</time><hdop>3.0</hdop><vdop>2.5</vdop><extensions><gom:speed>0.894</gom:speed></extensions></trkpt>
   <trkpt lat="59.295936499" lon="34.6665780932"><ele>154.578</ele><time>2026-08-16T15:19:52.836Z</time><hdop>3.0</hdop><vdop>2.5</vdop><extensions><gom:speed>0.998</gom:speed></extensions></trkpt>
   <trkpt lat="59.295945761" lon="34.6665671967"><ele>154.947</ele><time>2026-08-16T15:19:53.759Z</time><hdop>3.0</hdop><vdop>2.5</vdop><extensions><gom:speed>1.002</gom:speed></extensions></trkpt>
   <trkpt lat="59.2959500777" lon="34.6665562164"><ele>155.335</ele><time>2026-08-16T15:19:54.436Z</time><hdop>3.0</hdop><vdop>2.5</vdop><extensions><gom:speed>0.954</gom:speed></extensions></trkpt>
   <trkpt lat="59.2959540591" lon="34.6665460743"><ele>155.428</ele><time>2026-08-16T15:19:55.136Z</time><hdop>3.0</hdop><vdop>2.5</vdop><extensions><gom:speed>0.925</gom:speed></extensions></trkpt>
   <trkpt lat="59.2959565737" lon="34.6665368542"><ele>155.484</ele><time>2026-08-16T15:19:55.800Z</time><hdop>3.0</hdop><vdop>2.5</vdop><extensions><gom:speed>0.851</gom:speed></extensions></trkpt>
   <trkpt lat="59.2959560708" lon="34.6665273827"><ele>155.916</ele><time>2026-08-16T15:19:56.379Z</time><hdop>3.0</hdop><vdop>2.5</vdop><extensions><gom:speed>0.833</gom:speed></extensions></trkpt>
   <trkpt lat="59.2959561965" lon="34.6665194199"><ele>156.174</ele><time>2026-08-16T15:19:56.860Z</time><hdop>3.0</hdop><vdop>2.5</vdop><extensions><gom:speed>0.836</gom:speed></extensions></trkpt>
   <trkpt lat="59.2959542687" lon="34.6664962858"><ele>156.209</ele><time>2026-08-16T15:19:58.117Z</time><hdop>3.0</hdop><vdop>2.5</vdop><extensions><gom:speed>0.911</gom:speed></extensions></trkpt>
   <trkpt lat="59.2959509997" lon="34.6664825395"><ele>156.363</ele><time>2026-08-16T15:19:58.853Z</time><hdop>3.0</hdop><vdop>2.5</vdop><extensions><gom:speed>0.904</gom:speed></extensions></trkpt>
   <trkpt lat="59.295948569" lon="34.6664665301"><ele>156.282</ele><time>2026-08-16T15:19:59.696Z</time><hdop>3.0</hdop><vdop>2.5</vdop><extensions><gom:speed>0.922</gom:speed></extensions></trkpt>
   <trkpt lat="59.2959475632" lon="34.666454041"><ele>156.312</ele><time>2026-08-16T15:20:00.413Z</time><hdop>3.0</hdop><vdop>2.5</vdop><extensions><gom:speed>0.904</gom:speed></extensions></trkpt>
   <trkpt lat="59.2959478984" lon="34.6664425578"><ele>156.52</ele><time>2026-08-16T15:20:01.136Z</time><hdop>3.0</hdop><vdop>2.5</vdop><extensions><gom:speed>0.857</gom:speed></extensions></trkpt>
   <trkpt lat="59.2959495748" lon="34.6664320804"><ele>156.644</ele><time>2026-08-16T15:20:01.817Z</time><hdop>3.0</hdop><vdop>2.5</vdop><extensions><gom:speed>0.872</gom:speed></extensions></trkpt>
   <trkpt lat="59.2959515865" lon="34.6664212678"><ele>156.968</ele><time>2026-08-16T15:20:02.661Z</time><hdop>3.0</hdop><vdop>2.5</vdop><extensions><gom:speed>0.863</gom:speed></extensions></trkpt>
   <trkpt lat="59.2959520894" lon="34.6664149813"><ele>156.917</ele><time>2026-08-16T15:20:03.136Z</time><hdop>3.0</hdop><vdop>2.5</vdop><extensions><gom:speed>0.832</gom:speed></extensions></trkpt>
   <trkpt lat="59.2959535981" lon="34.6664011512"><ele>156.886</ele><time>2026-08-16T15:20:03.976Z</time><hdop>3.0</hdop><vdop>2.5</vdop><extensions><gom:speed>0.887</gom:speed></extensions></trkpt>
   <trkpt lat="59.2959526761" lon="34.6663895842"><ele>157.065</ele><time>2026-08-16T15:20:04.575Z</time><hdop>3.0</hdop><vdop>2.5</vdop><extensions><gom:speed>0.91</gom:speed></extensions></trkpt>
   <trkpt lat="59.2959519637" lon="34.6663791906"><ele>157.126</ele><time>2026-08-16T15:20:05.136Z</time><hdop>3.0</hdop><vdop>2.5</vdop><extensions><gom:speed>0.881</gom:speed></extensions></trkpt>
   <trkpt lat="59.2959519637" lon="34.6663643547"><ele>157.162</ele><time>2026-08-16T15:20:05.939Z</time><hdop>3.0</hdop><vdop>2.5</vdop><extensions><gom:speed>0.897</gom:speed></extensions></trkpt>
   <trkpt lat="59.2959499939" lon="34.6663504407"><ele>157.029</ele><time>2026-08-16T15:20:06.656Z</time><hdop>3.0</hdop><vdop>2.5</vdop><extensions><gom:speed>0.947</gom:speed></extensions></trkpt>
   <trkpt lat="59.2959473955" lon="34.6663403824"><ele>157.204</ele><time>2026-08-16T15:20:07.136Z</time><hdop>3.0</hdop><vdop>2.5</vdop><extensions><gom:speed>0.986</gom:speed></extensions></trkpt>
   <trkpt lat="59.2959446714" lon="34.666326217"><ele>157.308</ele><time>2026-08-16T15:20:07.892Z</time><hdop>3.0</hdop><vdop>2.5</vdop><extensions><gom:speed>0.965</gom:speed></extensions></trkpt>
   <trkpt lat="59.2959423664" lon="34.66631465"><ele>157.716</ele><time>2026-08-16T15:20:08.393Z</time><hdop>3.0</hdop><vdop>2.5</vdop><extensions><gom:speed>0.987</gom:speed></extensions></trkpt>
   <trkpt lat="59.2959393908" lon="34.6662993949"><ele>158.11</ele><time>2026-08-16T15:20:09.136Z</time><hdop>3.0</hdop><vdop>2.5</vdop><extensions><gom:speed>0.992</gom:speed></extensions></trkpt>
   <trkpt lat="59.2959358704" lon="34.6662826311"><ele>158.344</ele><time>2026-08-16T15:20:09.993Z</time><hdop>3.0</hdop><vdop>2.5</vdop><extensions><gom:speed>0.994</gom:speed></extensions></trkpt>
   <trkpt lat="59.2959338587" lon="34.6662692201"><ele>158.489</ele><time>2026-08-16T15:20:10.739Z</time><hdop>3.0</hdop><vdop>2.5</vdop><extensions><gom:speed>0.941</gom:speed></extensions></trkpt>
   <trkpt lat="59.2959313861" lon="34.6662526239"><ele>158.671</ele><time>2026-08-16T15:20:11.701Z</time><hdop>3.0</hdop><vdop>2.5</vdop><extensions><gom:speed>0.946</gom:speed></extensions></trkpt>
   <trkpt lat="59.295931889" lon="34.666234519"><ele>158.897</ele><time>2026-08-16T15:20:12.741Z</time><hdop>3.0</hdop><vdop>2.5</vdop><extensions><gom:speed>0.914</gom:speed></extensions></trkpt>
   <trkpt lat="59.2959339845" lon="34.6662237901"><ele>159.027</ele><time>2026-08-16T15:20:13.379Z</time><hdop>3.0</hdop><vdop>2.5</vdop><extensions><gom:speed>0.89</gom:speed></extensions></trkpt>
   <trkpt lat="59.2959337749" lon="34.6662122231"><ele>159.104</ele><time>2026-08-16T15:20:14.017Z</time><hdop>3.0</hdop><vdop>2.5</vdop><extensions><gom:speed>0.889</gom:speed></extensions></trkpt>
   <trkpt lat="59.2959312604" lon="34.666203925"><ele>158.979</ele><time>2026-08-16T15:20:14.675Z</time><hdop>3.0</hdop><vdop>2.5</vdop><extensions><gom:speed>0.868</gom:speed></extensions></trkpt>
   <trkpt lat="59.2959277819" lon="34.6662004884"><ele>158.643</ele><time>2026-08-16T15:20:15.136Z</time><hdop>3.0</hdop><vdop>2.5</vdop><extensions><gom:speed>0.877</gom:speed></extensions></trkpt>
   <trkpt lat="59.2959219984" lon="34.6661961299"><ele>158.442</ele><time>2026-08-16T15:20:15.882Z</time><hdop>3.0</hdop><vdop>2.5</vdop><extensions><gom:speed>0.847</gom:speed></extensions></trkpt>
   <trkpt lat="59.2959168854" lon="34.6661901787"><ele>158.366</ele><time>2026-08-16T15:20:16.697Z</time><hdop>3.0</hdop><vdop>2.5</vdop><extensions><gom:speed>0.787</gom:speed></extensions></trkpt>
   <trkpt lat="59.2959137841" lon="34.6661820483"><ele>158.561</ele><time>2026-08-16T15:20:17.374Z</time><hdop>3.0</hdop><vdop>2.5</vdop><extensions><gom:speed>0.799</gom:speed></extensions></trkpt>
   <trkpt lat="59.2959113952" lon="34.6661746722"><ele>158.677</ele><time>2026-08-16T15:20:17.933Z</time><hdop>3.0</hdop><vdop>2.5</vdop><extensions><gom:speed>0.798</gom:speed></extensions></trkpt>
   <trkpt lat="59.2959089645" lon="34.6661611773"><ele>159.0</ele><time>2026-08-16T15:20:18.718Z</time><hdop>3.0</hdop><vdop>2.5</vdop><extensions><gom:speed>0.85</gom:speed></extensions></trkpt>
   <trkpt lat="59.2959088807" lon="34.6661506999"><ele>159.353</ele><time>2026-08-16T15:20:19.239Z</time><hdop>3.0</hdop><vdop>2.5</vdop><extensions><gom:speed>0.88</gom:speed></extensions></trkpt>
   <trkpt lat="59.2959098865" lon="34.6661343552"><ele>159.736</ele><time>2026-08-16T15:20:20.136Z</time><hdop>3.0</hdop><vdop>2.5</vdop><extensions><gom:speed>0.905</gom:speed></extensions></trkpt>
   <trkpt lat="59.2959106828" lon="34.6661250513"><ele>159.966</ele><time>2026-08-16T15:20:20.613Z</time><hdop>3.0</hdop><vdop>2.5</vdop><extensions><gom:speed>0.927</gom:speed></extensions></trkpt>
   <trkpt lat="59.2959113952" lon="34.6661145739"><ele>160.066</ele><time>2026-08-16T15:20:21.136Z</time><hdop>3.0</hdop><vdop>2.5</vdop><extensions><gom:speed>0.94</gom:speed></extensions></trkpt>
   <trkpt lat="59.2959087969" lon="34.6661014982"><ele>160.125</ele><time>2026-08-16T15:20:21.879Z</time><hdop>3.0</hdop><vdop>2.5</vdop><extensions><gom:speed>0.96</gom:speed></extensions></trkpt>
   <trkpt lat="59.2959052765" lon="34.6660873328"><ele>160.422</ele><time>2026-08-16T15:20:22.654Z</time><hdop>3.0</hdop><vdop>2.5</vdop><extensions><gom:speed>1.016</gom:speed></extensions></trkpt>
   <trkpt lat="59.295904564" lon="34.6660762686"><ele>160.782</ele><time>2026-08-16T15:20:23.136Z</time><hdop>3.0</hdop><vdop>2.5</vdop><extensions><gom:speed>1.062</gom:speed></extensions></trkpt>
   <trkpt lat="59.2959042706" lon="34.6660556492"><ele>161.908</ele><time>2026-08-16T15:20:24.136Z</time><hdop>3.0</hdop><vdop>2.5</vdop><extensions><gom:speed>1.087</gom:speed></extensions></trkpt>
   <trkpt lat="59.2959053603" lon="34.6660272345"><ele>163.111</ele><time>2026-08-16T15:20:25.136Z</time><hdop>3.0</hdop><vdop>2.5</vdop><extensions><gom:speed>1.338</gom:speed></extensions></trkpt>
   <trkpt lat="59.2959057794" lon="34.6660028432"><ele>163.432</ele><time>2026-08-16T15:20:26.136Z</time><hdop>3.0</hdop><vdop>2.5</vdop><extensions><gom:speed>1.12</gom:speed></extensions></trkpt>
   <trkpt lat="59.2959039773" lon="34.6659901865"><ele>163.623</ele><time>2026-08-16T15:20:26.757Z</time><hdop>3.0</hdop><vdop>2.5</vdop><extensions><gom:speed>1.099</gom:speed></extensions></trkpt>
   <trkpt lat="59.2959019656" lon="34.6659730874"><ele>163.78</ele><time>2026-08-16T15:20:27.680Z</time><hdop>3.0</hdop><vdop>2.5</vdop><extensions><gom:speed>1.043</gom:speed></extensions></trkpt>
   <trkpt lat="59.295900373" lon="34.6659667172"><ele>164.229</ele><time>2026-08-16T15:20:28.136Z</time><hdop>3.0</hdop><vdop>2.5</vdop><extensions><gom:speed>1.013</gom:speed></extensions></trkpt>
   <trkpt lat="59.2958970622" lon="34.6659513783"><ele>164.497</ele><time>2026-08-16T15:20:29.093Z</time><hdop>3.0</hdop><vdop>2.5</vdop><extensions><gom:speed>0.993</gom:speed></extensions></trkpt>
   <trkpt lat="59.2958954696" lon="34.6659378834"><ele>164.778</ele><time>2026-08-16T15:20:30.136Z</time><hdop>3.0</hdop><vdop>2.5</vdop><extensions><gom:speed>0.976</gom:speed></extensions></trkpt>
   <trkpt lat="59.295895763" lon="34.66592464"><ele>164.946</ele><time>2026-08-16T15:20:30.879Z</time><hdop>3.0</hdop><vdop>2.5</vdop><extensions><gom:speed>0.979</gom:speed></extensions></trkpt>
   <trkpt lat="59.2958997863" lon="34.6659144979"><ele>164.973</ele><time>2026-08-16T15:20:32.136Z</time><hdop>3.0</hdop><vdop>2.5</vdop><extensions><gom:speed>0.816</gom:speed></extensions></trkpt>
   <trkpt lat="59.2959005826" lon="34.6659020927"><ele>164.988</ele><time>2026-08-16T15:20:33.077Z</time><hdop>3.0</hdop><vdop>2.5</vdop><extensions><gom:speed>0.834</gom:speed></extensions></trkpt>
   <trkpt lat="59.2959005826" lon="34.6658946328"><ele>164.995</ele><time>2026-08-16T15:20:33.961Z</time><hdop>3.0</hdop><vdop>2.5</vdop><extensions><gom:speed>0.807</gom:speed></extensions></trkpt>
   <trkpt lat="59.2959020913" lon="34.6658899389"><ele>165.045</ele><time>2026-08-16T15:20:34.599Z</time><hdop>3.0</hdop><vdop>2.5</vdop><extensions><gom:speed>0.789</gom:speed></extensions></trkpt>
   <trkpt lat="59.2959035582" lon="34.6658868376"><ele>164.842</ele><time>2026-08-16T15:20:35.136Z</time><hdop>3.0</hdop><vdop>2.5</vdop><extensions><gom:speed>0.727</gom:speed></extensions></trkpt>
   <trkpt lat="59.295904564" lon="34.6658734266"><ele>164.721</ele><time>2026-08-16T15:20:36.121Z</time><hdop>3.0</hdop><vdop>2.5</vdop><extensions><gom:speed>0.8</gom:speed></extensions></trkpt>
   <trkpt lat="59.2959059889" lon="34.6658665534"><ele>164.642</ele><time>2026-08-16T15:20:36.739Z</time><hdop>3.0</hdop><vdop>2.5</vdop><extensions><gom:speed>0.842</gom:speed></extensions></trkpt>
   <trkpt lat="59.2959081682" lon="34.6658601832"><ele>164.386</ele><time>2026-08-16T15:20:37.377Z</time><hdop>3.0</hdop><vdop>2.5</vdop><extensions><gom:speed>0.857</gom:speed></extensions></trkpt>
   <trkpt lat="59.29591106" lon="34.6658522204"><ele>164.201</ele><time>2026-08-16T15:20:38.136Z</time><hdop>3.0</hdop><vdop>2.5</vdop><extensions><gom:speed>0.806</gom:speed></extensions></trkpt>
   <trkpt lat="59.295913365" lon="34.6658430841"><ele>164.09</ele><time>2026-08-16T15:20:38.800Z</time><hdop>3.0</hdop><vdop>2.5</vdop><extensions><gom:speed>0.854</gom:speed></extensions></trkpt>
   <trkpt lat="59.2959149995" lon="34.6658352889"><ele>163.898</ele><time>2026-08-16T15:20:39.477Z</time><hdop>3.0</hdop><vdop>2.5</vdop><extensions><gom:speed>0.85</gom:speed></extensions></trkpt>
   <trkpt lat="59.2959163825" lon="34.6658272423"><ele>163.474</ele><time>2026-08-16T15:20:40.136Z</time><hdop>3.0</hdop><vdop>2.5</vdop><extensions><gom:speed>0.818</gom:speed></extensions></trkpt>
   <trkpt lat="59.2959178912" lon="34.6658119872"><ele>163.22</ele><time>2026-08-16T15:20:41.116Z</time><hdop>3.0</hdop><vdop>2.5</vdop><extensions><gom:speed>0.867</gom:speed></extensions></trkpt>
   <trkpt lat="59.2959183941" lon="34.6658041921"><ele>163.007</ele><time>2026-08-16T15:20:41.774Z</time><hdop>3.0</hdop><vdop>2.5</vdop><extensions><gom:speed>0.847</gom:speed></extensions></trkpt>
   <trkpt lat="59.2959154605" lon="34.6657916192"><ele>162.734</ele><time>2026-08-16T15:20:42.962Z</time><hdop>3.0</hdop><vdop>2.5</vdop><extensions><gom:speed>0.784</gom:speed></extensions></trkpt>
   <trkpt lat="59.2959143708" lon="34.6657891885"><ele>162.146</ele><time>2026-08-16T15:20:43.433Z</time><hdop>3.0</hdop><vdop>2.5</vdop><extensions><gom:speed>0.747</gom:speed></extensions></trkpt>
   <trkpt lat="59.2959122753" lon="34.6657828182"><ele>161.711</ele><time>2026-08-16T15:20:44.135Z</time><hdop>3.0</hdop><vdop>2.5</vdop><extensions><gom:speed>0.73</gom:speed></extensions></trkpt>
   <trkpt lat="59.2959070786" lon="34.6657742687"><ele>161.451</ele><time>2026-08-16T15:20:45.121Z</time><hdop>3.0</hdop><vdop>2.5</vdop><extensions><gom:speed>0.725</gom:speed></extensions></trkpt>
   <trkpt lat="59.2959044802" lon="34.6657709997"><ele>161.116</ele><time>2026-08-16T15:20:45.720Z</time><hdop>3.0</hdop><vdop>2.5</vdop><extensions><gom:speed>0.711</gom:speed></extensions></trkpt>
   <trkpt lat="59.2959033905" lon="34.6657657191"><ele>161.011</ele><time>2026-08-16T15:20:46.397Z</time><hdop>3.0</hdop><vdop>2.5</vdop><extensions><gom:speed>0.738</gom:speed></extensions></trkpt>
   <trkpt lat="59.2959035582" lon="34.665757421"><ele>160.936</ele><time>2026-08-16T15:20:47.136Z</time><hdop>3.0</hdop><vdop>2.5</vdop><extensions><gom:speed>0.702</gom:speed></extensions></trkpt>
   <trkpt lat="59.2959040611" lon="34.6657479495"><ele>160.891</ele><time>2026-08-16T15:20:47.742Z</time><hdop>3.0</hdop><vdop>2.5</vdop><extensions><gom:speed>0.809</gom:speed></extensions></trkpt>
   <trkpt lat="59.2959048993" lon="34.6657420822"><ele>160.87</ele><time>2026-08-16T15:20:48.232Z</time><hdop>3.0</hdop><vdop>2.5</vdop><extensions><gom:speed>0.773</gom:speed></extensions></trkpt>
   <trkpt lat="59.2959032648" lon="34.6657298446"><ele>161.111</ele><time>2026-08-16T15:20:49.136Z</time><hdop>3.0</hdop><vdop>2.5</vdop><extensions><gom:speed>0.884</gom:speed></extensions></trkpt>
   <trkpt lat="59.2958982776" lon="34.6657174394"><ele>161.277</ele><time>2026-08-16T15:20:50.136Z</time><hdop>3.0</hdop><vdop>2.5</vdop><extensions><gom:speed>0.882</gom:speed></extensions></trkpt>
   <trkpt lat="59.2958940866" lon="34.6657044474"><ele>161.182</ele><time>2026-08-16T15:20:51.136Z</time><hdop>3.0</hdop><vdop>2.5</vdop><extensions><gom:speed>0.901</gom:speed></extensions></trkpt>
   <trkpt lat="59.2958908596" lon="34.6656933833"><ele>161.125</ele><time>2026-08-16T15:20:51.833Z</time><hdop>3.0</hdop><vdop>2.5</vdop><extensions><gom:speed>0.947</gom:speed></extensions></trkpt>
   <trkpt lat="59.2958876745" lon="34.665680559"><ele>161.083</ele><time>2026-08-16T15:20:52.698Z</time><hdop>3.0</hdop><vdop>2.5</vdop><extensions><gom:speed>0.986</gom:speed></extensions></trkpt>
   <trkpt lat="59.2958858723" lon="34.665674524"><ele>160.897</ele><time>2026-08-16T15:20:53.199Z</time><hdop>3.0</hdop><vdop>2.5</vdop><extensions><gom:speed>0.919</gom:speed></extensions></trkpt>
   <trkpt lat="59.2958805917" lon="34.6656600233"><ele>160.786</ele><time>2026-08-16T15:20:54.121Z</time><hdop>3.0</hdop><vdop>2.5</vdop><extensions><gom:speed>0.989</gom:speed></extensions></trkpt>
   <trkpt lat="59.2958779934" lon="34.6656519767"><ele>160.948</ele><time>2026-08-16T15:20:54.720Z</time><hdop>3.0</hdop><vdop>2.5</vdop><extensions><gom:speed>0.997</gom:speed></extensions></trkpt>
   <trkpt lat="59.295874473" lon="34.6656347938"><ele>161.065</ele><time>2026-08-16T15:20:55.613Z</time><hdop>3.0</hdop><vdop>2.5</vdop><extensions><gom:speed>1.089</gom:speed></extensions></trkpt>
   <trkpt lat="59.2958736767" lon="34.66562264"><ele>160.873</ele><time>2026-08-16T15:20:56.136Z</time><hdop>3.0</hdop><vdop>2.5</vdop><extensions><gom:speed>1.148</gom:speed></extensions></trkpt>
   <trkpt lat="59.2958726709" lon="34.6656035293"><ele>160.758</ele><time>2026-08-16T15:20:56.938Z</time><hdop>3.0</hdop><vdop>2.5</vdop><extensions><gom:speed>1.174</gom:speed></extensions></trkpt>
   <trkpt lat="59.2958724613" lon="34.6655918785"><ele>160.877</ele><time>2026-08-16T15:20:57.439Z</time><hdop>3.0</hdop><vdop>2.5</vdop><extensions><gom:speed>1.152</gom:speed></extensions></trkpt>
   <trkpt lat="59.2958723775" lon="34.6655770425"><ele>161.111</ele><time>2026-08-16T15:20:58.136Z</time><hdop>3.0</hdop><vdop>2.5</vdop><extensions><gom:speed>1.139</gom:speed></extensions></trkpt>
   <trkpt lat="59.2958728804" lon="34.6655620389"><ele>161.251</ele><time>2026-08-16T15:20:58.882Z</time><hdop>3.0</hdop><vdop>2.5</vdop><extensions><gom:speed>1.086</gom:speed></extensions></trkpt>
   <trkpt lat="59.2958707849" lon="34.6655434311"><ele>161.116</ele><time>2026-08-16T15:20:59.873Z</time><hdop>3.0</hdop><vdop>2.5</vdop><extensions><gom:speed>1.024</gom:speed></extensions></trkpt>
   <trkpt lat="59.2958657977" lon="34.6655220572"><ele>161.331</ele><time>2026-08-16T15:21:01.139Z</time><hdop>3.0</hdop><vdop>2.5</vdop><extensions><gom:speed>1.009</gom:speed></extensions></trkpt>
   <trkpt lat="59.2958630736" lon="34.6655046228"><ele>161.445</ele><time>2026-08-16T15:21:02.136Z</time><hdop>3.0</hdop><vdop>2.75</vdop><extensions><gom:speed>1.022</gom:speed></extensions></trkpt>
   <trkpt lat="59.2958616906" lon="34.6654894516"><ele>161.513</ele><time>2026-08-16T15:21:02.955Z</time><hdop>3.0</hdop><vdop>2.75</vdop><extensions><gom:speed>1.003</gom:speed></extensions></trkpt>
   <trkpt lat="59.2958609781" lon="34.6654764596"><ele>161.518</ele><time>2026-08-16T15:21:03.838Z</time><hdop>3.0</hdop><vdop>2.75</vdop><extensions><gom:speed>0.94</gom:speed></extensions></trkpt>
   <trkpt lat="59.295860098" lon="34.6654694189"><ele>161.59</ele><time>2026-08-16T15:21:04.417Z</time><hdop>3.0</hdop><vdop>2.75</vdop><extensions><gom:speed>0.871</gom:speed></extensions></trkpt>
   <trkpt lat="59.295857793" lon="34.6654616237"><ele>161.402</ele><time>2026-08-16T15:21:05.136Z</time><hdop>3.0</hdop><vdop>2.875</vdop><extensions><gom:speed>0.843</gom:speed></extensions></trkpt>
   <trkpt lat="59.2958538954" lon="34.6654514816"><ele>161.289</ele><time>2026-08-16T15:21:05.958Z</time><hdop>3.0</hdop><vdop>2.875</vdop><extensions><gom:speed>0.825</gom:speed></extensions></trkpt>
   <trkpt lat="59.295848992" lon="34.6654439379"><ele>160.893</ele><time>2026-08-16T15:21:06.881Z</time><hdop>3.0</hdop><vdop>2.875</vdop><extensions><gom:speed>0.788</gom:speed></extensions></trkpt>
   <trkpt lat="59.2958465612" lon="34.6654396631"><ele>160.604</ele><time>2026-08-16T15:21:07.480Z</time><hdop>3.0</hdop><vdop>2.875</vdop><extensions><gom:speed>0.748</gom:speed></extensions></trkpt>
   <trkpt lat="59.2958447591" lon="34.6654331252"><ele>160.608</ele><time>2026-08-16T15:21:08.136Z</time><hdop>3.0</hdop><vdop>2.812</vdop><extensions><gom:speed>0.726</gom:speed></extensions></trkpt>
   <trkpt lat="59.2958429989" lon="34.6654195465"><ele>160.161</ele><time>2026-08-16T15:21:09.136Z</time><hdop>3.0</hdop><vdop>2.75</vdop><extensions><gom:speed>0.765</gom:speed></extensions></trkpt>
   <trkpt lat="59.2958405682" lon="34.6654066384"><ele>159.894</ele><time>2026-08-16T15:21:10.041Z</time><hdop>3.0</hdop><vdop>2.75</vdop><extensions><gom:speed>0.802</gom:speed></extensions></trkpt>
   <trkpt lat="59.2958395623" lon="34.6654005196"><ele>159.368</ele><time>2026-08-16T15:21:10.542Z</time><hdop>3.0</hdop><vdop>2.625</vdop><extensions><gom:speed>0.796</gom:speed></extensions></trkpt>
   <trkpt lat="59.2958386822" lon="34.6653921377"><ele>158.83</ele><time>2026-08-16T15:21:11.136Z</time><hdop>3.0</hdop><vdop>2.687</vdop><extensions><gom:speed>0.783</gom:speed></extensions></trkpt>
   <trkpt lat="59.2958369639" lon="34.6653795648"><ele>158.508</ele><time>2026-08-16T15:21:11.936Z</time><hdop>3.0</hdop><vdop>2.687</vdop><extensions><gom:speed>0.813</gom:speed></extensions></trkpt>
   <trkpt lat="59.2958354971" lon="34.6653689198"><ele>158.078</ele><time>2026-08-16T15:21:12.701Z</time><hdop>3.0</hdop><vdop>2.625</vdop><extensions><gom:speed>0.802</gom:speed></extensions></trkpt>
   <trkpt lat="59.2958344913" lon="34.6653620467"><ele>157.821</ele><time>2026-08-16T15:21:13.153Z</time><hdop>3.0</hdop><vdop>2.625</vdop><extensions><gom:speed>0.807</gom:speed></extensions></trkpt>
   <trkpt lat="59.2958331921" lon="34.6653519884"><ele>157.717</ele><time>2026-08-16T15:21:13.879Z</time><hdop>3.0</hdop><vdop>2.562</vdop><extensions><gom:speed>0.812</gom:speed></extensions></trkpt>
   <trkpt lat="59.2958333597" lon="34.6653454505"><ele>157.216</ele><time>2026-08-16T15:21:14.380Z</time><hdop>3.0</hdop><vdop>2.5</vdop><extensions><gom:speed>0.846</gom:speed></extensions></trkpt>
   <trkpt lat="59.2958325634" lon="34.6653329615"><ele>156.917</ele><time>2026-08-16T15:21:15.116Z</time><hdop>3.0</hdop><vdop>2.5</vdop><extensions><gom:speed>0.847</gom:speed></extensions></trkpt>
   <trkpt lat="59.2958319767" lon="34.6653252501"><ele>156.377</ele><time>2026-08-16T15:21:15.616Z</time><hdop>3.0</hdop><vdop>2.5</vdop><extensions><gom:speed>0.876</gom:speed></extensions></trkpt>
   <trkpt lat="59.2958308871" lon="34.665316952"><ele>156.09</ele><time>2026-08-16T15:21:16.136Z</time><hdop>3.0</hdop><vdop>2.5</vdop><extensions><gom:speed>0.863</gom:speed></extensions></trkpt>
   <trkpt lat="59.2958282887" lon="34.6653029543"><ele>155.919</ele><time>2026-08-16T15:21:17.020Z</time><hdop>3.0</hdop><vdop>2.5</vdop><extensions><gom:speed>0.861</gom:speed></extensions></trkpt>
   <trkpt lat="59.2958257741" lon="34.6652926445"><ele>156.134</ele><time>2026-08-16T15:21:17.618Z</time><hdop>3.0</hdop><vdop>2.5</vdop><extensions><gom:speed>0.878</gom:speed></extensions></trkpt>
   <trkpt lat="59.2958237624" lon="34.6652843464"><ele>156.479</ele><time>2026-08-16T15:21:18.136Z</time><hdop>3.0</hdop><vdop>2.5</vdop><extensions><gom:speed>0.885</gom:speed></extensions></trkpt>
   <trkpt lat="59.2958212898" lon="34.665272025"><ele>156.686</ele><time>2026-08-16T15:21:18.854Z</time><hdop>3.0</hdop><vdop>2.5</vdop><extensions><gom:speed>0.905</gom:speed></extensions></trkpt>
   <trkpt lat="59.2958189848" lon="34.6652622182"><ele>156.897</ele><time>2026-08-16T15:21:19.434Z</time><hdop>3.0</hdop><vdop>2.5</vdop><extensions><gom:speed>0.933</gom:speed></extensions></trkpt>
   <trkpt lat="59.2958168893" lon="34.6652515732"><ele>157.104</ele><time>2026-08-16T15:21:20.136Z</time><hdop>3.0</hdop><vdop>2.5</vdop><extensions><gom:speed>0.888</gom:speed></extensions></trkpt>
   <trkpt lat="59.2958150872" lon="34.6652410958"><ele>157.227</ele><time>2026-08-16T15:21:20.700Z</time><hdop>3.0</hdop><vdop>2.5</vdop><extensions><gom:speed>0.931</gom:speed></extensions></trkpt>
   <trkpt lat="59.295813788" lon="34.6652268466"><ele>157.287</ele><time>2026-08-16T15:21:21.455Z</time><hdop>3.0</hdop><vdop>2.5</vdop><extensions><gom:speed>0.99</gom:speed></extensions></trkpt>
   <trkpt lat="59.2958131593" lon="34.665217375"><ele>157.322</ele><time>2026-08-16T15:21:21.937Z</time><hdop>3.0</hdop><vdop>2.5</vdop><extensions><gom:speed>0.988</gom:speed></extensions></trkpt>
   <trkpt lat="59.2958117763" lon="34.6651983481"><ele>157.702</ele><time>2026-08-16T15:21:22.693Z</time><hdop>3.0</hdop><vdop>2.5</vdop><extensions><gom:speed>1.066</gom:speed></extensions></trkpt>
   <trkpt lat="59.295809597" lon="34.6651831769"><ele>157.971</ele><time>2026-08-16T15:21:23.252Z</time><hdop>3.0</hdop><vdop>2.5</vdop><extensions><gom:speed>1.11</gom:speed></extensions></trkpt>
   <trkpt lat="59.295807292" lon="34.6651668321"><ele>158.132</ele><time>2026-08-16T15:21:24.038Z</time><hdop>3.0</hdop><vdop>2.5</vdop><extensions><gom:speed>1.09</gom:speed></extensions></trkpt>
   <trkpt lat="59.295804065" lon="34.6651538402"><ele>158.118</ele><time>2026-08-16T15:21:24.753Z</time><hdop>3.0</hdop><vdop>2.5</vdop><extensions><gom:speed>0.989</gom:speed></extensions></trkpt>
   <trkpt lat="59.2957999997" lon="34.6651439496"><ele>157.923</ele><time>2026-08-16T15:21:25.480Z</time><hdop>3.0</hdop><vdop>2.5</vdop><extensions><gom:speed>0.919</gom:speed></extensions></trkpt>
   <trkpt lat="59.2957967727" lon="34.6651355676"><ele>157.807</ele><time>2026-08-16T15:21:26.059Z</time><hdop>3.0</hdop><vdop>2.5</vdop><extensions><gom:speed>0.914</gom:speed></extensions></trkpt>
   <trkpt lat="59.2957915759" lon="34.6651286945"><ele>157.653</ele><time>2026-08-16T15:21:26.796Z</time><hdop>3.0</hdop><vdop>2.5</vdop><extensions><gom:speed>0.845</gom:speed></extensions></trkpt>
   <trkpt lat="59.2957886842" lon="34.6651206479"><ele>157.221</ele><time>2026-08-16T15:21:27.473Z</time><hdop>3.0</hdop><vdop>2.5</vdop><extensions><gom:speed>0.844</gom:speed></extensions></trkpt>
   <trkpt lat="59.2957868821" lon="34.6651113439"><ele>157.117</ele><time>2026-08-16T15:21:28.136Z</time><hdop>3.0</hdop><vdop>2.5</vdop><extensions><gom:speed>0.818</gom:speed></extensions></trkpt>
   <trkpt lat="59.2957827749" lon="34.6650995255"><ele>157.049</ele><time>2026-08-16T15:21:29.136Z</time><hdop>3.0</hdop><vdop>2.5</vdop><extensions><gom:speed>0.81</gom:speed></extensions></trkpt>
   <trkpt lat="59.2957788774" lon="34.6650873717"><ele>157.009</ele><time>2026-08-16T15:21:30.054Z</time><hdop>3.0</hdop><vdop>2.5</vdop><extensions><gom:speed>0.806</gom:speed></extensions></trkpt>
   <trkpt lat="59.2957758599" lon="34.6650735416"><ele>157.076</ele><time>2026-08-16T15:21:31.036Z</time><hdop>3.0</hdop><vdop>2.5</vdop><extensions><gom:speed>0.803</gom:speed></extensions></trkpt>
   <trkpt lat="59.2957717946" lon="34.6650606334"><ele>157.303</ele><time>2026-08-16T15:21:31.978Z</time><hdop>3.0</hdop><vdop>2.5</vdop><extensions><gom:speed>0.806</gom:speed></extensions></trkpt>
   <trkpt lat="59.2957690705" lon="34.6650500722"><ele>157.371</ele><time>2026-08-16T15:21:32.655Z</time><hdop>3.0</hdop><vdop>2.5</vdop><extensions><gom:speed>0.846</gom:speed></extensions></trkpt>
   <trkpt lat="59.2957659692" lon="34.6650440373"><ele>156.969</ele><time>2026-08-16T15:21:33.136Z</time><hdop>3.0</hdop><vdop>2.5</vdop><extensions><gom:speed>0.87</gom:speed></extensions></trkpt>
   <trkpt lat="59.2957580902" lon="34.6650362421"><ele>156.813</ele><time>2026-08-16T15:21:34.136Z</time><hdop>3.0</hdop><vdop>2.5</vdop><extensions><gom:speed>0.864</gom:speed></extensions></trkpt>
   <trkpt lat="59.295750798" lon="34.6650281955"><ele>156.571</ele><time>2026-08-16T15:21:35.136Z</time><hdop>3.0</hdop><vdop>2.5</vdop><extensions><gom:speed>0.849</gom:speed></extensions></trkpt>
   <trkpt lat="59.2957464813" lon="34.6650205679"><ele>156.426</ele><time>2026-08-16T15:21:35.796Z</time><hdop>3.0</hdop><vdop>2.5</vdop><extensions><gom:speed>0.879</gom:speed></extensions></trkpt>
   <trkpt lat="59.2957411588" lon="34.6650110964"><ele>156.247</ele><time>2026-08-16T15:21:36.620Z</time><hdop>3.0</hdop><vdop>2.5</vdop><extensions><gom:speed>0.898</gom:speed></extensions></trkpt>
   <trkpt lat="59.2957393986" lon="34.6650029659"><ele>156.017</ele><time>2026-08-16T15:21:37.136Z</time><hdop>3.0</hdop><vdop>2.5</vdop><extensions><gom:speed>0.878</gom:speed></extensions></trkpt>
   <trkpt lat="59.2957369678" lon="34.664986286"><ele>155.929</ele><time>2026-08-16T15:21:38.136Z</time><hdop>3.0</hdop><vdop>2.5</vdop><extensions><gom:speed>0.884</gom:speed></extensions></trkpt>
   <trkpt lat="59.2957329864" lon="34.6649788261"><ele>155.876</ele><time>2026-08-16T15:21:38.779Z</time><hdop>3.0</hdop><vdop>2.5</vdop><extensions><gom:speed>0.849</gom:speed></extensions></trkpt>
   <trkpt lat="59.2957247722" lon="34.6649696898"><ele>155.511</ele><time>2026-08-16T15:21:40.136Z</time><hdop>3.0</hdop><vdop>2.5</vdop><extensions><gom:speed>0.779</gom:speed></extensions></trkpt>
   <trkpt lat="59.2957204974" lon="34.6649614755"><ele>155.293</ele><time>2026-08-16T15:21:40.978Z</time><hdop>3.0</hdop><vdop>2.5</vdop><extensions><gom:speed>0.768</gom:speed></extensions></trkpt>
   <trkpt lat="59.2957189887" lon="34.6649530936"><ele>155.043</ele><time>2026-08-16T15:21:41.498Z</time><hdop>3.0</hdop><vdop>2.5</vdop><extensions><gom:speed>0.802</gom:speed></extensions></trkpt>
   <trkpt lat="59.2957164741" lon="34.6649433706"><ele>154.751</ele><time>2026-08-16T15:21:42.136Z</time><hdop>3.0</hdop><vdop>2.5</vdop><extensions><gom:speed>0.816</gom:speed></extensions></trkpt>
   <trkpt lat="59.2957138757" lon="34.664932558"><ele>154.576</ele><time>2026-08-16T15:21:42.814Z</time><hdop>3.0</hdop><vdop>2.5</vdop><extensions><gom:speed>0.817</gom:speed></extensions></trkpt>
   <trkpt lat="59.2957125765" lon="34.6649138663"><ele>154.622</ele><time>2026-08-16T15:21:43.815Z</time><hdop>3.0</hdop><vdop>2.5</vdop><extensions><gom:speed>0.87</gom:speed></extensions></trkpt>
   <trkpt lat="59.2957131632" lon="34.6649025507"><ele>154.855</ele><time>2026-08-16T15:21:44.335Z</time><hdop>3.0</hdop><vdop>2.5</vdop><extensions><gom:speed>0.857</gom:speed></extensions></trkpt>
   <trkpt lat="59.2957141691" lon="34.6648882177"><ele>154.777</ele><time>2026-08-16T15:21:45.136Z</time><hdop>3.0</hdop><vdop>2.5</vdop><extensions><gom:speed>0.833</gom:speed></extensions></trkpt>
   <trkpt lat="59.2957148815" lon="34.6648750581"><ele>154.73</ele><time>2026-08-16T15:21:45.935Z</time><hdop>3.0</hdop><vdop>2.5</vdop><extensions><gom:speed>0.803</gom:speed></extensions></trkpt>
   <trkpt lat="59.2957141691" lon="34.6648593839"><ele>154.616</ele><time>2026-08-16T15:21:46.799Z</time><hdop>3.0</hdop><vdop>2.5</vdop><extensions><gom:speed>0.836</gom:speed></extensions></trkpt>
   <trkpt lat="59.295711864" lon="34.6648468949"><ele>154.641</ele><time>2026-08-16T15:21:47.515Z</time><hdop>3.0</hdop><vdop>2.5</vdop><extensions><gom:speed>0.843</gom:speed></extensions></trkpt>
   <trkpt lat="59.2957098943" lon="34.6648373395"><ele>154.862</ele><time>2026-08-16T15:21:48.136Z</time><hdop>3.0</hdop><vdop>2.5</vdop><extensions><gom:speed>0.797</gom:speed></extensions></trkpt>
   <trkpt lat="59.295710481" lon="34.6648208272"><ele>154.994</ele><time>2026-08-16T15:21:49.095Z</time><hdop>3.0</hdop><vdop>2.5</vdop><extensions><gom:speed>0.848</gom:speed></extensions></trkpt>
   <trkpt lat="59.295712786" lon="34.664810266"><ele>154.734</ele><time>2026-08-16T15:21:49.822Z</time><hdop>3.0</hdop><vdop>2.5</vdop><extensions><gom:speed>0.834</gom:speed></extensions></trkpt>
   <trkpt lat="59.2957167675" lon="34.6647912391"><ele>154.752</ele><time>2026-08-16T15:21:51.137Z</time><hdop>3.0</hdop><vdop>2.5</vdop><extensions><gom:speed>0.819</gom:speed></extensions></trkpt>
   <trkpt lat="59.2957212937" lon="34.6647813484"><ele>154.639</ele><time>2026-08-16T15:21:51.893Z</time><hdop>3.0</hdop><vdop>2.5</vdop><extensions><gom:speed>0.856</gom:speed></extensions></trkpt>
   <trkpt lat="59.2957260714" lon="34.6647734694"><ele>154.325</ele><time>2026-08-16T15:21:52.560Z</time><hdop>3.0</hdop><vdop>2.5</vdop><extensions><gom:speed>0.88</gom:speed></extensions></trkpt>
   <trkpt lat="59.2957299689" lon="34.6647659257"><ele>154.142</ele><time>2026-08-16T15:21:53.136Z</time><hdop>3.0</hdop><vdop>2.5</vdop><extensions><gom:speed>0.865</gom:speed></extensions></trkpt>
   <trkpt lat="59.2957352915" lon="34.6647541911"><ele>154.033</ele><time>2026-08-16T15:21:54.013Z</time><hdop>3.0</hdop><vdop>2.5</vdop><extensions><gom:speed>0.888</gom:speed></extensions></trkpt>
   <trkpt lat="59.2957411588" lon="34.6647392713"><ele>153.97</ele><time>2026-08-16T15:21:55.073Z</time><hdop>3.0</hdop><vdop>2.5</vdop><extensions><gom:speed>0.887</gom:speed></extensions></trkpt>
   <trkpt lat="59.2957446792" lon="34.6647243515"><ele>153.955</ele><time>2026-08-16T15:21:56.015Z</time><hdop>3.0</hdop><vdop>2.5</vdop><extensions><gom:speed>0.863</gom:speed></extensions></trkpt>
   <trkpt lat="59.2957465651" lon="34.6647053246"><ele>153.974</ele><time>2026-08-16T15:21:57.136Z</time><hdop>3.0</hdop><vdop>2.5</vdop><extensions><gom:speed>0.823</gom:speed></extensions></trkpt>
   <trkpt lat="59.2957505884" lon="34.664688896"><ele>153.85</ele><time>2026-08-16T15:21:58.136Z</time><hdop>3.0</hdop><vdop>2.5</vdop><extensions><gom:speed>0.843</gom:speed></extensions></trkpt>
   <trkpt lat="59.2957543603" lon="34.6646759879"><ele>153.775</ele><time>2026-08-16T15:21:59.038Z</time><hdop>3.0</hdop><vdop>2.5</vdop><extensions><gom:speed>0.816</gom:speed></extensions></trkpt>
   <trkpt lat="59.2957591799" lon="34.6646645885"><ele>153.773</ele><time>2026-08-16T15:21:59.921Z</time><hdop>3.0</hdop><vdop>2.5</vdop><extensions><gom:speed>0.838</gom:speed></extensions></trkpt>
   <trkpt lat="59.2957650891" lon="34.6646559551"><ele>153.779</ele><time>2026-08-16T15:22:00.716Z</time><hdop>3.0</hdop><vdop>2.5</vdop><extensions><gom:speed>0.81</gom:speed></extensions></trkpt>
   <trkpt lat="59.2957681904" lon="34.6646471541"><ele>153.789</ele><time>2026-08-16T15:22:01.413Z</time><hdop>3.0</hdop><vdop>2.5</vdop><extensions><gom:speed>0.797</gom:speed></extensions></trkpt>
   <trkpt lat="59.2957700764" lon="34.6646375988"><ele>153.794</ele><time>2026-08-16T15:22:02.061Z</time><hdop>3.0</hdop><vdop>2.5</vdop><extensions><gom:speed>0.806</gom:speed></extensions></trkpt>
   <trkpt lat="59.2957706631" lon="34.6646216732"><ele>153.887</ele><time>2026-08-16T15:22:03.013Z</time><hdop>3.0</hdop><vdop>2.5</vdop><extensions><gom:speed>0.805</gom:speed></extensions></trkpt>
   <trkpt lat="59.2957705793" lon="34.6646047417"><ele>153.956</ele><time>2026-08-16T15:22:04.034Z</time><hdop>3.0</hdop><vdop>2.5</vdop><extensions><gom:speed>0.758</gom:speed></extensions></trkpt>
   <trkpt lat="59.2957726747" lon="34.6645864692"><ele>154.475</ele><time>2026-08-16T15:22:04.937Z</time><hdop>3.0</hdop><vdop>2.5</vdop><extensions><gom:speed>0.838</gom:speed></extensions></trkpt>
   <trkpt lat="59.2957766981" lon="34.6645691186"><ele>154.882</ele><time>2026-08-16T15:22:05.673Z</time><hdop>3.0</hdop><vdop>2.5</vdop><extensions><gom:speed>0.964</gom:speed></extensions></trkpt>
   <trkpt lat="59.2957798832" lon="34.6645579707"><ele>155.42</ele><time>2026-08-16T15:22:06.136Z</time><hdop>3.0</hdop><vdop>2.5</vdop><extensions><gom:speed>1.13</gom:speed></extensions></trkpt>
   <trkpt lat="59.2957838646" lon="34.6645450626"><ele>155.741</ele><time>2026-08-16T15:22:06.802Z</time><hdop>3.0</hdop><vdop>2.5</vdop><extensions><gom:speed>1.036</gom:speed></extensions></trkpt>
   <trkpt lat="59.2957886842" lon="34.6645190787"><ele>156.08</ele><time>2026-08-16T15:22:07.832Z</time><hdop>3.0</hdop><vdop>2.5</vdop><extensions><gom:speed>1.089</gom:speed></extensions></trkpt>
   <trkpt lat="59.29578969" lon="34.6644981239"><ele>156.757</ele><time>2026-08-16T15:22:08.617Z</time><hdop>3.0</hdop><vdop>2.5</vdop><extensions><gom:speed>1.081</gom:speed></extensions></trkpt>
   <trkpt lat="59.2957904863" lon="34.6644831203"><ele>157.232</ele><time>2026-08-16T15:22:09.136Z</time><hdop>3.0</hdop><vdop>2.5</vdop><extensions><gom:speed>1.171</gom:speed></extensions></trkpt>
   <trkpt lat="59.2957905701" lon="34.6644716371"><ele>157.516</ele><time>2026-08-16T15:22:09.599Z</time><hdop>3.0</hdop><vdop>2.5</vdop><extensions><gom:speed>1.091</gom:speed></extensions></trkpt>
   <trkpt lat="59.2957907797" lon="34.6644573879"><ele>157.694</ele><time>2026-08-16T15:22:10.136Z</time><hdop>3.0</hdop><vdop>2.5</vdop><extensions><gom:speed>1.161</gom:speed></extensions></trkpt>
   <trkpt lat="59.2957902767" lon="34.6644461561"><ele>157.801</ele><time>2026-08-16T15:22:10.620Z</time><hdop>3.0</hdop><vdop>2.5</vdop><extensions><gom:speed>1.078</gom:speed></extensions></trkpt>
   <trkpt lat="59.2957897738" lon="34.6644324936"><ele>157.881</ele><time>2026-08-16T15:22:11.136Z</time><hdop>3.0</hdop><vdop>2.5</vdop><extensions><gom:speed>1.165</gom:speed></extensions></trkpt>
   <trkpt lat="59.2957897738" lon="34.6644163165"><ele>157.929</ele><time>2026-08-16T15:22:11.856Z</time><hdop>3.0</hdop><vdop>2.5</vdop><extensions><gom:speed>1.037</gom:speed></extensions></trkpt>
   <trkpt lat="59.2957922884" lon="34.6644019835"><ele>159.134</ele><time>2026-08-16T15:22:12.642Z</time><hdop>3.0</hdop><vdop>2.5</vdop><extensions><gom:speed>0.915</gom:speed></extensions></trkpt>
   <trkpt lat="59.2957942581" lon="34.6643920928"><ele>160.1</ele><time>2026-08-16T15:22:13.136Z</time><hdop>3.0</hdop><vdop>2.5</vdop><extensions><gom:speed>0.985</gom:speed></extensions></trkpt>
   <trkpt lat="59.2957981976" lon="34.6643750776"><ele>160.677</ele><time>2026-08-16T15:22:14.075Z</time><hdop>3.0</hdop><vdop>2.5</vdop><extensions><gom:speed>0.94</gom:speed></extensions></trkpt>
   <trkpt lat="59.295798491" lon="34.6643689588"><ele>160.702</ele><time>2026-08-16T15:22:14.860Z</time><hdop>3.0</hdop><vdop>2.5</vdop><extensions><gom:speed>0.767</gom:speed></extensions></trkpt>
   <trkpt lat="59.2957980719" lon="34.6643576432"><ele>160.679</ele><time>2026-08-16T15:22:15.635Z</time><hdop>3.0</hdop><vdop>2.5</vdop><extensions><gom:speed>0.839</gom:speed></extensions></trkpt>
   <trkpt lat="59.2957976947" lon="34.6643483393"><ele>160.79</ele><time>2026-08-16T15:22:16.136Z</time><hdop>3.0</hdop><vdop>2.5</vdop><extensions><gom:speed>0.89</gom:speed></extensions></trkpt>
   <trkpt lat="59.2957985748" lon="34.6643312402"><ele>160.681</ele><time>2026-08-16T15:22:17.136Z</time><hdop>3.0</hdop><vdop>2.5</vdop><extensions><gom:speed>0.883</gom:speed></extensions></trkpt>
   <trkpt lat="59.2957993711" lon="34.6643232774"><ele>160.616</ele><time>2026-08-16T15:22:17.637Z</time><hdop>3.0</hdop><vdop>2.5</vdop><extensions><gom:speed>0.856</gom:speed></extensions></trkpt>
   <trkpt lat="59.2958002931" lon="34.6643146441"><ele>160.695</ele><time>2026-08-16T15:22:18.136Z</time><hdop>3.0</hdop><vdop>2.5</vdop><extensions><gom:speed>0.913</gom:speed></extensions></trkpt>
   <trkpt lat="59.2958034782" lon="34.664297545"><ele>160.589</ele><time>2026-08-16T15:22:19.136Z</time><hdop>3.0</hdop><vdop>2.5</vdop><extensions><gom:speed>0.947</gom:speed></extensions></trkpt>
   <trkpt lat="59.2958050708" lon="34.6642892469"><ele>160.526</ele><time>2026-08-16T15:22:19.601Z</time><hdop>3.0</hdop><vdop>2.5</vdop><extensions><gom:speed>0.906</gom:speed></extensions></trkpt>
   <trkpt lat="59.2958046936" lon="34.6642788533"><ele>160.593</ele><time>2026-08-16T15:22:20.136Z</time><hdop>3.0</hdop><vdop>2.5</vdop><extensions><gom:speed>0.994</gom:speed></extensions></trkpt>
   <trkpt lat="59.2958013828" lon="34.6642661966"><ele>160.633</ele><time>2026-08-16T15:22:20.837Z</time><hdop>3.0</hdop><vdop>2.5</vdop><extensions><gom:speed>0.934</gom:speed></extensions></trkpt>
   <trkpt lat="59.2957945934" lon="34.6642521989"><ele>160.601</ele><time>2026-08-16T15:22:21.917Z</time><hdop>3.0</hdop><vdop>2.5</vdop><extensions><gom:speed>0.846</gom:speed></extensions></trkpt>
   <trkpt lat="59.2957923722" lon="34.6642481756"><ele>160.608</ele><time>2026-08-16T15:22:22.397Z</time><hdop>3.0</hdop><vdop>2.5</vdop><extensions><gom:speed>0.784</gom:speed></extensions></trkpt>
   <trkpt lat="59.2957895643" lon="34.6642413862"><ele>160.688</ele><time>2026-08-16T15:22:23.136Z</time><hdop>3.0</hdop><vdop>2.5</vdop><extensions><gom:speed>0.719</gom:speed></extensions></trkpt>
   <trkpt lat="59.2957870916" lon="34.6642337587"><ele>160.736</ele><time>2026-08-16T15:22:23.782Z</time><hdop>3.0</hdop><vdop>2.5</vdop><extensions><gom:speed>0.788</gom:speed></extensions></trkpt>
   <trkpt lat="59.2957840741" lon="34.66422018"><ele>160.546</ele><time>2026-08-16T15:22:24.842Z</time><hdop>3.0</hdop><vdop>2.5</vdop><extensions><gom:speed>0.868</gom:speed></extensions></trkpt>
   <trkpt lat="59.295783194" lon="34.6642167434"><ele>160.243</ele><time>2026-08-16T15:22:25.352Z</time><hdop>3.0</hdop><vdop>2.5</vdop><extensions><gom:speed>0.874</gom:speed></extensions></trkpt>
   <trkpt lat="59.2957821882" lon="34.6642093673"><ele>160.108</ele><time>2026-08-16T15:22:26.136Z</time><hdop>3.0</hdop><vdop>2.5</vdop><extensions><gom:speed>0.777</gom:speed></extensions></trkpt>
   <trkpt lat="59.2957828588" lon="34.6641981356"><ele>160.028</ele><time>2026-08-16T15:22:26.932Z</time><hdop>3.0</hdop><vdop>2.5</vdop><extensions><gom:speed>0.858</gom:speed></extensions></trkpt>
   <trkpt lat="59.2957843675" lon="34.6641861495"><ele>160.145</ele><time>2026-08-16T15:22:27.718Z</time><hdop>3.0</hdop><vdop>2.5</vdop><extensions><gom:speed>0.946</gom:speed></extensions></trkpt>
   <trkpt lat="59.2957842837" lon="34.6641754206"><ele>160.021</ele><time>2026-08-16T15:22:28.198Z</time><hdop>3.0</hdop><vdop>2.5</vdop><extensions><gom:speed>1.07</gom:speed></extensions></trkpt>
   <trkpt lat="59.2957847866" lon="34.6641586568"><ele>159.947</ele><time>2026-08-16T15:22:29.082Z</time><hdop>3.0</hdop><vdop>2.5</vdop><extensions><gom:speed>1.005</gom:speed></extensions></trkpt>
   <trkpt lat="59.2957834874" lon="34.6641415577"><ele>159.767</ele><time>2026-08-16T15:22:29.955Z</time><hdop>3.0</hdop><vdop>2.5</vdop><extensions><gom:speed>0.962</gom:speed></extensions></trkpt>
   <trkpt lat="59.2957804699" lon="34.6641307451"><ele>159.774</ele><time>2026-08-16T15:22:30.798Z</time><hdop>3.0</hdop><vdop>2.5</vdop><extensions><gom:speed>0.936</gom:speed></extensions></trkpt>
   <trkpt lat="59.2957771591" lon="34.6641240396"><ele>159.882</ele><time>2026-08-16T15:22:31.536Z</time><hdop>3.0</hdop><vdop>2.5</vdop><extensions><gom:speed>0.851</gom:speed></extensions></trkpt>
   <trkpt lat="59.2957738901" lon="34.6641189266"><ele>160.145</ele><time>2026-08-16T15:22:32.136Z</time><hdop>3.0</hdop><vdop>2.5</vdop><extensions><gom:speed>0.842</gom:speed></extensions></trkpt>
   <trkpt lat="59.2957687772" lon="34.6641067729"><ele>160.307</ele><time>2026-08-16T15:22:33.136Z</time><hdop>3.0</hdop><vdop>2.5</vdop><extensions><gom:speed>0.917</gom:speed></extensions></trkpt>
   <trkpt lat="59.2957665979" lon="34.6640886679"><ele>160.403</ele><time>2026-08-16T15:22:34.137Z</time><hdop>3.0</hdop><vdop>2.5</vdop><extensions><gom:speed>0.931</gom:speed></extensions></trkpt>
   <trkpt lat="59.2957684838" lon="34.6640770171"><ele>160.643</ele><time>2026-08-16T15:22:34.961Z</time><hdop>3.0</hdop><vdop>2.5</vdop><extensions><gom:speed>0.857</gom:speed></extensions></trkpt>
   <trkpt lat="59.2957727586" lon="34.6640724909"><ele>161.02</ele><time>2026-08-16T15:22:35.619Z</time><hdop>3.0</hdop><vdop>2.5</vdop><extensions><gom:speed>0.784</gom:speed></extensions></trkpt>
   <trkpt lat="59.2957742673" lon="34.6640681323"><ele>161.224</ele><time>2026-08-16T15:22:36.136Z</time><hdop>3.0</hdop><vdop>2.5</vdop><extensions><gom:speed>0.755</gom:speed></extensions></trkpt>
   <trkpt lat="59.2957725909" lon="34.6640561462"><ele>161.239</ele><time>2026-08-16T15:22:37.136Z</time><hdop>3.0</hdop><vdop>2.5</vdop><extensions><gom:speed>0.792</gom:speed></extensions></trkpt>
   <trkpt lat="59.2957710822" lon="34.6640433218"><ele>161.247</ele><time>2026-08-16T15:22:37.974Z</time><hdop>3.0</hdop><vdop>2.5</vdop><extensions><gom:speed>0.823</gom:speed></extensions></trkpt>
   <trkpt lat="59.2957689867" lon="34.6640328445"><ele>161.291</ele><time>2026-08-16T15:22:38.799Z</time><hdop>3.0</hdop><vdop>2.5</vdop><extensions><gom:speed>0.851</gom:speed></extensions></trkpt>
   <trkpt lat="59.2957650891" lon="34.6640211936"><ele>161.536</ele><time>2026-08-16T15:22:39.936Z</time><hdop>3.0</hdop><vdop>2.5</vdop><extensions><gom:speed>0.779</gom:speed></extensions></trkpt>
   <trkpt lat="59.2957640833" lon="34.664008956"><ele>161.688</ele><time>2026-08-16T15:22:40.899Z</time><hdop>3.0</hdop><vdop>2.5</vdop><extensions><gom:speed>0.78</gom:speed></extensions></trkpt>
   <trkpt lat="59.2957640833" lon="34.6639990654"><ele>162.081</ele><time>2026-08-16T15:22:41.714Z</time><hdop>3.0</hdop><vdop>2.5</vdop><extensions><gom:speed>0.771</gom:speed></extensions></trkpt>
   <trkpt lat="59.2957620716" lon="34.6639868278"><ele>162.52</ele><time>2026-08-16T15:22:42.636Z</time><hdop>3.0</hdop><vdop>2.5</vdop><extensions><gom:speed>0.772</gom:speed></extensions></trkpt>
   <trkpt lat="59.2957625746" lon="34.6639781945"><ele>162.87</ele><time>2026-08-16T15:22:43.136Z</time><hdop>3.0</hdop><vdop>2.5</vdop><extensions><gom:speed>0.957</gom:speed></extensions></trkpt>
   <trkpt lat="59.2957666817" lon="34.6639614307"><ele>163.08</ele><time>2026-08-16T15:22:44.138Z</time><hdop>3.0</hdop><vdop>2.5</vdop><extensions><gom:speed>0.941</gom:speed></extensions></trkpt>
   <trkpt lat="59.2957689867" lon="34.6639546413"><ele>163.495</ele><time>2026-08-16T15:22:44.658Z</time><hdop>3.0</hdop><vdop>2.5</vdop><extensions><gom:speed>0.928</gom:speed></extensions></trkpt>
   <trkpt lat="59.2957696992" lon="34.6639484387"><ele>163.99</ele><time>2026-08-16T15:22:45.135Z</time><hdop>3.0</hdop><vdop>2.5</vdop><extensions><gom:speed>0.955</gom:speed></extensions></trkpt>
   <trkpt lat="59.2957703697" lon="34.6639411464"><ele>164.286</ele><time>2026-08-16T15:22:45.600Z</time><hdop>3.0</hdop><vdop>2.5</vdop><extensions><gom:speed>0.936</gom:speed></extensions></trkpt>
   <trkpt lat="59.2957712917" lon="34.6639332675"><ele>164.66</ele><time>2026-08-16T15:22:46.136Z</time><hdop>3.0</hdop><vdop>2.5</vdop><extensions><gom:speed>0.966</gom:speed></extensions></trkpt>
   <trkpt lat="59.295774393" lon="34.6639185991"><ele>164.725</ele><time>2026-08-16T15:22:47.136Z</time><hdop>3.0</hdop><vdop>2.5</vdop><extensions><gom:speed>0.965</gom:speed></extensions></trkpt>
   <trkpt lat="59.2957796736" lon="34.6639055234"><ele>165.167</ele><time>2026-08-16T15:22:48.136Z</time><hdop>3.0</hdop><vdop>2.5</vdop><extensions><gom:speed>0.958</gom:speed></extensions></trkpt>
   <trkpt lat="59.2957856667" lon="34.6638979796"><ele>165.43</ele><time>2026-08-16T15:22:48.898Z</time><hdop>3.0</hdop><vdop>2.5</vdop><extensions><gom:speed>0.963</gom:speed></extensions></trkpt>
   <trkpt lat="59.2957913664" lon="34.663892699"><ele>165.576</ele><time>2026-08-16T15:22:49.654Z</time><hdop>3.0</hdop><vdop>2.5</vdop><extensions><gom:speed>0.951</gom:speed></extensions></trkpt>
   <trkpt lat="59.2957951802" lon="34.6638893463"><ele>165.88</ele><time>2026-08-16T15:22:50.136Z</time><hdop>3.0</hdop><vdop>2.562</vdop><extensions><gom:speed>0.934</gom:speed></extensions></trkpt>
   <trkpt lat="59.2958000836" lon="34.6638797909"><ele>166.061</ele><time>2026-08-16T15:22:50.999Z</time><hdop>3.0</hdop><vdop>2.562</vdop><extensions><gom:speed>0.867</gom:speed></extensions></trkpt>
   <trkpt lat="59.2958027658" lon="34.6638701517"><ele>166.373</ele><time>2026-08-16T15:22:51.656Z</time><hdop>3.0</hdop><vdop>2.5</vdop><extensions><gom:speed>0.912</gom:speed></extensions></trkpt>
   <trkpt lat="59.295804065" lon="34.6638641168"><ele>166.505</ele><time>2026-08-16T15:22:52.136Z</time><hdop>3.0</hdop><vdop>2.5</vdop><extensions><gom:speed>0.886</gom:speed></extensions></trkpt>
   <trkpt lat="59.2958041907" lon="34.6638502866"><ele>166.585</ele><time>2026-08-16T15:22:52.932Z</time><hdop>3.0</hdop><vdop>2.5</vdop><extensions><gom:speed>0.928</gom:speed></extensions></trkpt>
   <trkpt lat="59.2958032687" lon="34.6638427429"><ele>166.376</ele><time>2026-08-16T15:22:53.452Z</time><hdop>3.0</hdop><vdop>2.5</vdop><extensions><gom:speed>0.986</gom:speed></extensions></trkpt>
   <trkpt lat="59.2958014666" lon="34.6638338581"><ele>166.123</ele><time>2026-08-16T15:22:54.136Z</time><hdop>3.0</hdop><vdop>2.5</vdop><extensions><gom:speed>0.952</gom:speed></extensions></trkpt>
   <trkpt lat="59.2957994968" lon="34.6638233807"><ele>165.504</ele><time>2026-08-16T15:22:55.136Z</time><hdop>3.0</hdop><vdop>2.5</vdop><extensions><gom:speed>0.842</gom:speed></extensions></trkpt>
   <trkpt lat="59.2957986586" lon="34.6638094667"><ele>165.134</ele><time>2026-08-16T15:22:56.112Z</time><hdop>3.0</hdop><vdop>2.5</vdop><extensions><gom:speed>0.848</gom:speed></extensions></trkpt>
   <trkpt lat="59.2957980719" lon="34.6638016716"><ele>164.893</ele><time>2026-08-16T15:22:56.780Z</time><hdop>3.0</hdop><vdop>2.5</vdop><extensions><gom:speed>0.926</gom:speed></extensions></trkpt>
   <trkpt lat="59.295797569" lon="34.6637980674"><ele>164.666</ele><time>2026-08-16T15:22:57.320Z</time><hdop>3.0</hdop><vdop>2.5</vdop><extensions><gom:speed>0.882</gom:speed></extensions></trkpt>
   <trkpt lat="59.2957964794" lon="34.6637902722"><ele>164.275</ele><time>2026-08-16T15:22:58.136Z</time><hdop>3.0</hdop><vdop>2.5</vdop><extensions><gom:speed>0.849</gom:speed></extensions></trkpt>
   <trkpt lat="59.2957943839" lon="34.6637786213"><ele>163.949</ele><time>2026-08-16T15:22:59.136Z</time><hdop>3.0</hdop><vdop>2.5</vdop><extensions><gom:speed>0.909</gom:speed></extensions></trkpt>
   <trkpt lat="59.2957930847" lon="34.6637665514"><ele>163.754</ele><time>2026-08-16T15:22:59.901Z</time><hdop>3.0</hdop><vdop>2.5</vdop><extensions><gom:speed>0.947</gom:speed></extensions></trkpt>
   <trkpt lat="59.2957922884" lon="34.663759343"><ele>163.329</ele><time>2026-08-16T15:23:00.637Z</time><hdop>3.0</hdop><vdop>2.5</vdop><extensions><gom:speed>0.94</gom:speed></extensions></trkpt>
   <trkpt lat="59.2957914921" lon="34.6637549844"><ele>162.853</ele><time>2026-08-16T15:23:01.136Z</time><hdop>3.0</hdop><vdop>2.5</vdop><extensions><gom:speed>0.857</gom:speed></extensions></trkpt>
   <trkpt lat="59.2957884746" lon="34.6637446746"><ele>162.568</ele><time>2026-08-16T15:23:01.982Z</time><hdop>3.0</hdop><vdop>2.5</vdop><extensions><gom:speed>0.872</gom:speed></extensions></trkpt>
   <trkpt lat="59.2957863792" lon="34.663742663"><ele>162.203</ele><time>2026-08-16T15:23:02.433Z</time><hdop>3.0</hdop><vdop>2.5</vdop><extensions><gom:speed>0.875</gom:speed></extensions></trkpt>
   <trkpt lat="59.2957821882" lon="34.663738472"><ele>162.265</ele><time>2026-08-16T15:23:03.136Z</time><hdop>3.0</hdop><vdop>2.5</vdop><extensions><gom:speed>0.861</gom:speed></extensions></trkpt>
   <trkpt lat="59.2957777877" lon="34.6637322694"><ele>162.302</ele><time>2026-08-16T15:23:03.817Z</time><hdop>3.0</hdop><vdop>2.5</vdop><extensions><gom:speed>0.885</gom:speed></extensions></trkpt>
   <trkpt lat="59.295773471" lon="34.6637246419"><ele>162.396</ele><time>2026-08-16T15:23:04.573Z</time><hdop>3.0</hdop><vdop>2.5</vdop><extensions><gom:speed>0.877</gom:speed></extensions></trkpt>
   <trkpt lat="59.2957703697" lon="34.6637177687"><ele>162.452</ele><time>2026-08-16T15:23:05.132Z</time><hdop>3.0</hdop><vdop>2.5</vdop><extensions><gom:speed>0.881</gom:speed></extensions></trkpt>
   <trkpt lat="59.2957659692" lon="34.6637108956"><ele>162.373</ele><time>2026-08-16T15:23:05.800Z</time><hdop>3.062</hdop><vdop>2.5</vdop><extensions><gom:speed>0.887</gom:speed></extensions></trkpt>
   <trkpt lat="59.2957618621" lon="34.6637018431"><ele>162.371</ele><time>2026-08-16T15:23:06.379Z</time><hdop>3.062</hdop><vdop>2.5</vdop><extensions><gom:speed>0.981</gom:speed></extensions></trkpt>
   <trkpt lat="59.2957590961" lon="34.6636896893"><ele>162.369</ele><time>2026-08-16T15:23:07.056Z</time><hdop>3.062</hdop><vdop>2.5</vdop><extensions><gom:speed>0.983</gom:speed></extensions></trkpt>
   <trkpt lat="59.2957570844" lon="34.6636779547"><ele>162.539</ele><time>2026-08-16T15:23:07.616Z</time><hdop>3.062</hdop><vdop>2.5</vdop><extensions><gom:speed>1.012</gom:speed></extensions></trkpt>
   <trkpt lat="59.2957557852" lon="34.6636676449"><ele>162.736</ele><time>2026-08-16T15:23:08.136Z</time><hdop>3.062</hdop><vdop>2.5</vdop><extensions><gom:speed>1.003</gom:speed></extensions></trkpt>
   <trkpt lat="59.2957539831" lon="34.6636528928"><ele>162.855</ele><time>2026-08-16T15:23:08.812Z</time><hdop>3.062</hdop><vdop>2.5</vdop><extensions><gom:speed>1.045</gom:speed></extensions></trkpt>
   <trkpt lat="59.2957504627" lon="34.6636329439"><ele>163.183</ele><time>2026-08-16T15:23:09.716Z</time><hdop>3.062</hdop><vdop>2.5</vdop><extensions><gom:speed>1.118</gom:speed></extensions></trkpt>
   <trkpt lat="59.2957481996" lon="34.6636196166"><ele>163.169</ele><time>2026-08-16T15:23:10.354Z</time><hdop>3.0</hdop><vdop>2.5</vdop><extensions><gom:speed>1.125</gom:speed></extensions></trkpt>
   <trkpt lat="59.2957451821" lon="34.6636031881"><ele>163.16</ele><time>2026-08-16T15:23:11.139Z</time><hdop>3.0</hdop><vdop>2.5</vdop><extensions><gom:speed>1.128</gom:speed></extensions></trkpt>
   <trkpt lat="59.2957432962" lon="34.6635904476"><ele>163.111</ele><time>2026-08-16T15:23:11.777Z</time><hdop>3.0</hdop><vdop>2.5</vdop><extensions><gom:speed>1.122</gom:speed></extensions></trkpt>
   <trkpt lat="59.2957416617" lon="34.6635747735"><ele>163.311</ele><time>2026-08-16T15:23:12.582Z</time><hdop>3.0</hdop><vdop>2.5</vdop><extensions><gom:speed>1.103</gom:speed></extensions></trkpt>
   <trkpt lat="59.2957406978" lon="34.663564799"><ele>163.43</ele><time>2026-08-16T15:23:13.073Z</time><hdop>3.0</hdop><vdop>2.5</vdop><extensions><gom:speed>1.1</gom:speed></extensions></trkpt>
   <trkpt lat="59.2957383928" lon="34.6635485381"><ele>163.356</ele><time>2026-08-16T15:23:13.976Z</time><hdop>3.0</hdop><vdop>2.5</vdop><extensions><gom:speed>1.098</gom:speed></extensions></trkpt>
   <trkpt lat="59.2957358782" lon="34.663539318"><ele>163.48</ele><time>2026-08-16T15:23:14.535Z</time><hdop>3.0</hdop><vdop>2.5</vdop><extensions><gom:speed>1.14</gom:speed></extensions></trkpt>
   <trkpt lat="59.2957340761" lon="34.6635297626"><ele>163.434</ele><time>2026-08-16T15:23:15.135Z</time><hdop>3.0</hdop><vdop>2.5</vdop><extensions><gom:speed>1.041</gom:speed></extensions></trkpt>
   <trkpt lat="59.2957326931" lon="34.6635139208"><ele>163.407</ele><time>2026-08-16T15:23:15.958Z</time><hdop>3.0</hdop><vdop>2.5</vdop><extensions><gom:speed>1.069</gom:speed></extensions></trkpt>
   <trkpt lat="59.2957341599" lon="34.6635005936"><ele>163.247</ele><time>2026-08-16T15:23:16.811Z</time><hdop>3.0</hdop><vdop>2.5</vdop><extensions><gom:speed>0.969</gom:speed></extensions></trkpt>
   <trkpt lat="59.2957358782" lon="34.6634910382"><ele>163.101</ele><time>2026-08-16T15:23:17.578Z</time><hdop>3.0</hdop><vdop>2.5</vdop><extensions><gom:speed>0.904</gom:speed></extensions></trkpt>
   <trkpt lat="59.2957363811" lon="34.6634841651"><ele>163.005</ele><time>2026-08-16T15:23:18.136Z</time><hdop>3.0</hdop><vdop>2.5</vdop><extensions><gom:speed>0.862</gom:speed></extensions></trkpt>
   <trkpt lat="59.2957356686" lon="34.6634687424"><ele>163.088</ele><time>2026-08-16T15:23:19.136Z</time><hdop>3.0</hdop><vdop>2.5</vdop><extensions><gom:speed>0.892</gom:speed></extensions></trkpt>
   <trkpt lat="59.2957319806" lon="34.6634532359"><ele>163.138</ele><time>2026-08-16T15:23:20.081Z</time><hdop>3.0</hdop><vdop>2.5</vdop><extensions><gom:speed>0.928</gom:speed></extensions></trkpt>
   <trkpt lat="59.2957279992" lon="34.6634467818"><ele>163.138</ele><time>2026-08-16T15:23:20.719Z</time><hdop>3.0</hdop><vdop>2.5</vdop><extensions><gom:speed>0.92</gom:speed></extensions></trkpt>
   <trkpt lat="59.295721587" lon="34.6634361368"><ele>163.466</ele><time>2026-08-16T15:23:21.680Z</time><hdop>3.0</hdop><vdop>2.5</vdop><extensions><gom:speed>0.937</gom:speed></extensions></trkpt>
   <trkpt lat="59.2957190725" lon="34.6634329517"><ele>163.843</ele><time>2026-08-16T15:23:22.136Z</time><hdop>3.0</hdop><vdop>2.5</vdop><extensions><gom:speed>0.898</gom:speed></extensions></trkpt>
   <trkpt lat="59.2957158874" lon="34.6634209655"><ele>164.1</ele><time>2026-08-16T15:23:23.136Z</time><hdop>3.0</hdop><vdop>2.5</vdop><extensions><gom:speed>0.882</gom:speed></extensions></trkpt>
   <trkpt lat="59.2957137919" lon="34.6634072192"><ele>164.253</ele><time>2026-08-16T15:23:24.036Z</time><hdop>3.0</hdop><vdop>2.5</vdop><extensions><gom:speed>0.913</gom:speed></extensions></trkpt>
   <trkpt lat="59.2957105648" lon="34.6634001784"><ele>164.604</ele><time>2026-08-16T15:23:24.772Z</time><hdop>3.0</hdop><vdop>2.5</vdop><extensions><gom:speed>0.829</gom:speed></extensions></trkpt>
   <trkpt lat="59.2957078826" lon="34.6633958198"><ele>165.04</ele><time>2026-08-16T15:23:25.381Z</time><hdop>3.0</hdop><vdop>2.5</vdop><extensions><gom:speed>0.799</gom:speed></extensions></trkpt>
   <trkpt lat="59.2957049909" lon="34.6633893658"><ele>165.584</ele><time>2026-08-16T15:23:26.136Z</time><hdop>3.0</hdop><vdop>2.5</vdop><extensions><gom:speed>0.745</gom:speed></extensions></trkpt>
   <trkpt lat="59.2957013867" lon="34.6633811515"><ele>165.982</ele><time>2026-08-16T15:23:27.136Z</time><hdop>3.0</hdop><vdop>2.5</vdop><extensions><gom:speed>0.735</gom:speed></extensions></trkpt>
   <trkpt lat="59.2956984949" lon="34.6633686625"><ele>166.219</ele><time>2026-08-16T15:23:28.099Z</time><hdop>3.0</hdop><vdop>2.5</vdop><extensions><gom:speed>0.772</gom:speed></extensions></trkpt>
   <trkpt lat="59.2956961899" lon="34.6633607835"><ele>166.238</ele><time>2026-08-16T15:23:28.816Z</time><hdop>3.0</hdop><vdop>2.5</vdop><extensions><gom:speed>0.785</gom:speed></extensions></trkpt>
   <trkpt lat="59.2956930886" lon="34.6633563411"><ele>166.306</ele><time>2026-08-16T15:23:29.454Z</time><hdop>3.0</hdop><vdop>2.5</vdop><extensions><gom:speed>0.79</gom:speed></extensions></trkpt>
   <trkpt lat="59.2956897777" lon="34.663351731"><ele>166.409</ele><time>2026-08-16T15:23:30.136Z</time><hdop>3.0</hdop><vdop>2.5</vdop><extensions><gom:speed>0.756</gom:speed></extensions></trkpt>
   <trkpt lat="59.2956852934" lon="34.6633423433"><ele>166.471</ele><time>2026-08-16T15:23:30.956Z</time><hdop>3.0</hdop><vdop>2.5</vdop><extensions><gom:speed>0.826</gom:speed></extensions></trkpt>
   <trkpt lat="59.2956835751" lon="34.6633351348"><ele>167.339</ele><time>2026-08-16T15:23:31.495Z</time><hdop>3.0</hdop><vdop>2.5</vdop><extensions><gom:speed>0.85</gom:speed></extensions></trkpt>
   <trkpt lat="59.2956815635" lon="34.663325328"><ele>167.958</ele><time>2026-08-16T15:23:32.136Z</time><hdop>3.0</hdop><vdop>2.5</vdop><extensions><gom:speed>0.835</gom:speed></extensions></trkpt>
   <trkpt lat="59.2956779592" lon="34.663310995"><ele>168.507</ele><time>2026-08-16T15:23:33.136Z</time><hdop>3.0</hdop><vdop>2.5</vdop><extensions><gom:speed>0.847</gom:speed></extensions></trkpt>
   <trkpt lat="59.2956754866" lon="34.6633034513"><ele>168.836</ele><time>2026-08-16T15:23:33.615Z</time><hdop>3.0</hdop><vdop>2.5</vdop><extensions><gom:speed>0.893</gom:speed></extensions></trkpt>
   <trkpt lat="59.2956741874" lon="34.6632957399"><ele>169.833</ele><time>2026-08-16T15:23:34.136Z</time><hdop>3.0</hdop><vdop>2.5</vdop><extensions><gom:speed>0.923</gom:speed></extensions></trkpt>
   <trkpt lat="59.2956699964" lon="34.6632834185"><ele>170.429</ele><time>2026-08-16T15:23:34.960Z</time><hdop>3.0</hdop><vdop>2.5</vdop><extensions><gom:speed>0.927</gom:speed></extensions></trkpt>
   <trkpt lat="59.2956686972" lon="34.6632738631"><ele>171.033</ele><time>2026-08-16T15:23:35.618Z</time><hdop>3.0</hdop><vdop>2.5</vdop><extensions><gom:speed>0.931</gom:speed></extensions></trkpt>
   <trkpt lat="59.2956666856" lon="34.6632653974"><ele>171.959</ele><time>2026-08-16T15:23:36.136Z</time><hdop>3.0</hdop><vdop>2.5</vdop><extensions><gom:speed>0.98</gom:speed></extensions></trkpt>
   <trkpt lat="59.2956625784" lon="34.6632528246"><ele>172.511</ele><time>2026-08-16T15:23:36.874Z</time><hdop>3.0</hdop><vdop>2.5</vdop><extensions><gom:speed>1.002</gom:speed></extensions></trkpt>
   <trkpt lat="59.2956588904" lon="34.6632440236"><ele>172.562</ele><time>2026-08-16T15:23:37.797Z</time><hdop>3.0</hdop><vdop>2.5</vdop><extensions><gom:speed>0.892</gom:speed></extensions></trkpt>
   <trkpt lat="59.2956564597" lon="34.6632452808"><ele>172.422</ele><time>2026-08-16T15:23:38.513Z</time><hdop>3.0</hdop><vdop>2.5</vdop><extensions><gom:speed>0.828</gom:speed></extensions></trkpt>
   <trkpt lat="59.2956541965" lon="34.663246119"><ele>172.53</ele><time>2026-08-16T15:23:39.135Z</time><hdop>3.0</hdop><vdop>2.562</vdop><extensions><gom:speed>0.834</gom:speed></extensions></trkpt>
   <trkpt lat="59.295648874" lon="34.6632432692"><ele>172.595</ele><time>2026-08-16T15:23:40.015Z</time><hdop>3.0</hdop><vdop>2.562</vdop><extensions><gom:speed>0.827</gom:speed></extensions></trkpt>
   <trkpt lat="59.2956504666" lon="34.6632356417"><ele>172.644</ele><time>2026-08-16T15:23:40.496Z</time><hdop>3.0</hdop><vdop>2.5</vdop><extensions><gom:speed>0.847</gom:speed></extensions></trkpt>
   <trkpt lat="59.2956544899" lon="34.6632251643"><ele>172.393</ele><time>2026-08-16T15:23:41.136Z</time><hdop>3.0</hdop><vdop>2.5</vdop><extensions><gom:speed>0.801</gom:speed></extensions></trkpt>
   <trkpt lat="59.2956582618" lon="34.6632110827"><ele>172.243</ele><time>2026-08-16T15:23:41.958Z</time><hdop>3.0</hdop><vdop>2.5</vdop><extensions><gom:speed>0.84</gom:speed></extensions></trkpt>
   <trkpt lat="59.2956638776" lon="34.6631908823"><ele>172.1</ele><time>2026-08-16T15:23:42.822Z</time><hdop>3.0</hdop><vdop>2.5</vdop><extensions><gom:speed>0.943</gom:speed></extensions></trkpt>
   <trkpt lat="59.2956716728" lon="34.6631796505"><ele>171.711</ele><time>2026-08-16T15:23:43.538Z</time><hdop>3.0</hdop><vdop>2.625</vdop><extensions><gom:speed>0.854</gom:speed></extensions></trkpt>
   <trkpt lat="59.2956784622" lon="34.6631712686"><ele>171.187</ele><time>2026-08-16T15:23:44.136Z</time><hdop>3.0</hdop><vdop>2.5</vdop><extensions><gom:speed>0.894</gom:speed></extensions></trkpt>
   <trkpt lat="59.2956837847" lon="34.6631597854"><ele>170.874</ele><time>2026-08-16T15:23:44.893Z</time><hdop>3.0</hdop><vdop>2.5</vdop><extensions><gom:speed>0.877</gom:speed></extensions></trkpt>
   <trkpt lat="59.2956906997" lon="34.6631468773"><ele>170.403</ele><time>2026-08-16T15:23:45.599Z</time><hdop>3.0</hdop><vdop>2.5</vdop><extensions><gom:speed>0.93</gom:speed></extensions></trkpt>
   <trkpt lat="59.29569707" lon="34.6631398365"><ele>169.531</ele><time>2026-08-16T15:23:46.136Z</time><hdop>3.0</hdop><vdop>2.5</vdop><extensions><gom:speed>0.886</gom:speed></extensions></trkpt>
   <trkpt lat="59.2957036917" lon="34.663134053"><ele>169.01</ele><time>2026-08-16T15:23:46.797Z</time><hdop>3.0</hdop><vdop>2.5</vdop><extensions><gom:speed>0.885</gom:speed></extensions></trkpt>
   <trkpt lat="59.2957141691" lon="34.6631246653"><ele>168.477</ele><time>2026-08-16T15:23:47.739Z</time><hdop>3.0</hdop><vdop>2.5</vdop><extensions><gom:speed>0.888</gom:speed></extensions></trkpt>
   <trkpt lat="59.2957284602" lon="34.6631105837"><ele>167.994</ele><time>2026-08-16T15:23:49.054Z</time><hdop>3.0</hdop><vdop>2.5</vdop><extensions><gom:speed>0.889</gom:speed></extensions></trkpt>
   <trkpt lat="59.2957450983" lon="34.6630975917"><ele>167.566</ele><time>2026-08-16T15:23:50.136Z</time><hdop>3.0</hdop><vdop>2.5</vdop><extensions><gom:speed>0.917</gom:speed></extensions></trkpt>
   <trkpt lat="59.2957543603" lon="34.6630916406"><ele>167.31</ele><time>2026-08-16T15:23:50.958Z</time><hdop>3.0</hdop><vdop>2.5</vdop><extensions><gom:speed>0.933</gom:speed></extensions></trkpt>
   <trkpt lat="59.2957640833" lon="34.663087282"><ele>166.922</ele><time>2026-08-16T15:23:51.734Z</time><hdop>3.0</hdop><vdop>2.5</vdop><extensions><gom:speed>0.869</gom:speed></extensions></trkpt>
   <trkpt lat="59.295772088" lon="34.6630840968"><ele>166.465</ele><time>2026-08-16T15:23:52.253Z</time><hdop>3.0</hdop><vdop>2.5</vdop><extensions><gom:speed>0.898</gom:speed></extensions></trkpt>
   <trkpt lat="59.2957820625" lon="34.6630813308"><ele>165.829</ele><time>2026-08-16T15:23:53.136Z</time><hdop>3.0</hdop><vdop>2.5</vdop><extensions><gom:speed>0.901</gom:speed></extensions></trkpt>
   <trkpt lat="59.295788768" lon="34.6630807441"><ele>165.45</ele><time>2026-08-16T15:23:53.756Z</time><hdop>3.0</hdop><vdop>2.5</vdop><extensions><gom:speed>0.905</gom:speed></extensions></trkpt>
   <trkpt lat="59.2957954735" lon="34.6630728651"><ele>164.789</ele><time>2026-08-16T15:23:54.315Z</time><hdop>3.0</hdop><vdop>2.5</vdop><extensions><gom:speed>0.888</gom:speed></extensions></trkpt>
   <trkpt lat="59.2958030591" lon="34.6630581968"><ele>164.536</ele><time>2026-08-16T15:23:55.136Z</time><hdop>3.0</hdop><vdop>2.5</vdop><extensions><gom:speed>0.896</gom:speed></extensions></trkpt>
   <trkpt lat="59.2958091779" lon="34.663041433"><ele>164.385</ele><time>2026-08-16T15:23:56.102Z</time><hdop>3.0</hdop><vdop>2.5</vdop><extensions><gom:speed>0.887</gom:speed></extensions></trkpt>
   <trkpt lat="59.2958141652" lon="34.663025675"><ele>164.271</ele><time>2026-08-16T15:23:56.739Z</time><hdop>3.0</hdop><vdop>2.5</vdop><extensions><gom:speed>0.914</gom:speed></extensions></trkpt>
   <trkpt lat="59.2958227985" lon="34.6630010322"><ele>164.134</ele><time>2026-08-16T15:23:57.937Z</time><hdop>3.0</hdop><vdop>2.5</vdop><extensions><gom:speed>0.953</gom:speed></extensions></trkpt>
   <trkpt lat="59.2958286659" lon="34.6629817538"><ele>163.948</ele><time>2026-08-16T15:23:58.899Z</time><hdop>3.0</hdop><vdop>2.5</vdop><extensions><gom:speed>0.919</gom:speed></extensions></trkpt>
   <trkpt lat="59.2958314738" lon="34.6629655767"><ele>163.692</ele><time>2026-08-16T15:23:59.673Z</time><hdop>3.0</hdop><vdop>2.5</vdop><extensions><gom:speed>0.909</gom:speed></extensions></trkpt>
   <trkpt lat="59.2958322701" lon="34.6629560214"><ele>163.463</ele><time>2026-08-16T15:24:00.136Z</time><hdop>3.0</hdop><vdop>2.5</vdop><extensions><gom:speed>0.881</gom:speed></extensions></trkpt>
   <trkpt lat="59.2958355809" lon="34.6629381679"><ele>163.781</ele><time>2026-08-16T15:24:01.136Z</time><hdop>3.0</hdop><vdop>2.5</vdop><extensions><gom:speed>0.879</gom:speed></extensions></trkpt>
   <trkpt lat="59.2958379698" lon="34.662928864"><ele>163.972</ele><time>2026-08-16T15:24:01.734Z</time><hdop>3.0</hdop><vdop>2.5</vdop><extensions><gom:speed>0.87</gom:speed></extensions></trkpt>
   <trkpt lat="59.2958375926" lon="34.6629183866"><ele>163.837</ele><time>2026-08-16T15:24:02.256Z</time><hdop>3.0</hdop><vdop>2.5</vdop><extensions><gom:speed>0.869</gom:speed></extensions></trkpt>
   <trkpt lat="59.2958384727" lon="34.6629085798"><ele>163.757</ele><time>2026-08-16T15:24:02.795Z</time><hdop>3.0</hdop><vdop>2.5</vdop><extensions><gom:speed>0.911</gom:speed></extensions></trkpt>
   <trkpt lat="59.295839269" lon="34.6628926542"><ele>163.962</ele><time>2026-08-16T15:24:03.698Z</time><hdop>3.0</hdop><vdop>2.5</vdop><extensions><gom:speed>0.862</gom:speed></extensions></trkpt>
   <trkpt lat="59.2958406939" lon="34.6628805842"><ele>164.265</ele><time>2026-08-16T15:24:04.454Z</time><hdop>3.0</hdop><vdop>2.5</vdop><extensions><gom:speed>0.817</gom:speed></extensions></trkpt>
   <trkpt lat="59.2958428732" lon="34.6628716994"><ele>164.446</ele><time>2026-08-16T15:24:05.072Z</time><hdop>3.0</hdop><vdop>2.5</vdop><extensions><gom:speed>0.81</gom:speed></extensions></trkpt>
   <trkpt lat="59.2958450944" lon="34.6628639881"><ele>164.193</ele><time>2026-08-16T15:24:05.612Z</time><hdop>3.0</hdop><vdop>2.5</vdop><extensions><gom:speed>0.804</gom:speed></extensions></trkpt>
   <trkpt lat="59.2958473994" lon="34.6628570311"><ele>164.29</ele><time>2026-08-16T15:24:06.136Z</time><hdop>3.0</hdop><vdop>2.5</vdop><extensions><gom:speed>0.773</gom:speed></extensions></trkpt>
   <trkpt lat="59.2958529734" lon="34.6628438715"><ele>164.482</ele><time>2026-08-16T15:24:07.136Z</time><hdop>3.0</hdop><vdop>2.5</vdop><extensions><gom:speed>0.802</gom:speed></extensions></trkpt>
   <trkpt lat="59.2958566614" lon="34.6628373336"><ele>164.597</ele><time>2026-08-16T15:24:07.713Z</time><hdop>3.0</hdop><vdop>2.5</vdop><extensions><gom:speed>0.83</gom:speed></extensions></trkpt>
   <trkpt lat="59.2958655881" lon="34.6628267724"><ele>164.984</ele><time>2026-08-16T15:24:08.900Z</time><hdop>3.0</hdop><vdop>2.5</vdop><extensions><gom:speed>0.873</gom:speed></extensions></trkpt>
   <trkpt lat="59.2958717908" lon="34.6628168818"><ele>165.139</ele><time>2026-08-16T15:24:09.735Z</time><hdop>3.0</hdop><vdop>2.5</vdop><extensions><gom:speed>0.887</gom:speed></extensions></trkpt>
   <trkpt lat="59.2958794602" lon="34.6628014591"><ele>165.188</ele><time>2026-08-16T15:24:10.981Z</time><hdop>3.0</hdop><vdop>2.5</vdop><extensions><gom:speed>0.882</gom:speed></extensions></trkpt>
   <trkpt lat="59.2958842798" lon="34.6627923228"><ele>165.045</ele><time>2026-08-16T15:24:11.756Z</time><hdop>3.0</hdop><vdop>2.5</vdop><extensions><gom:speed>0.921</gom:speed></extensions></trkpt>
   <trkpt lat="59.2958888898" lon="34.662785282"><ele>165.049</ele><time>2026-08-16T15:24:12.434Z</time><hdop>3.0</hdop><vdop>2.5</vdop><extensions><gom:speed>0.91</gom:speed></extensions></trkpt>
   <trkpt lat="59.295892997" lon="34.6627778221"><ele>165.052</ele><time>2026-08-16T15:24:13.081Z</time><hdop>3.0</hdop><vdop>2.5</vdop><extensions><gom:speed>0.904</gom:speed></extensions></trkpt>
   <trkpt lat="59.2958985709" lon="34.6627717871"><ele>165.245</ele><time>2026-08-16T15:24:13.876Z</time><hdop>3.0</hdop><vdop>2.5</vdop><extensions><gom:speed>0.838</gom:speed></extensions></trkpt>
   <trkpt lat="59.2959038934" lon="34.6627660874"><ele>165.221</ele><time>2026-08-16T15:24:14.593Z</time><hdop>3.0</hdop><vdop>2.5</vdop><extensions><gom:speed>0.787</gom:speed></extensions></trkpt>
   <trkpt lat="59.2959082939" lon="34.6627623994"><ele>165.097</ele><time>2026-08-16T15:24:15.136Z</time><hdop>3.0</hdop><vdop>2.5</vdop><extensions><gom:speed>0.81</gom:speed></extensions></trkpt>
   <trkpt lat="59.2959137841" lon="34.6627580408"><ele>165.022</ele><time>2026-08-16T15:24:15.820Z</time><hdop>3.0</hdop><vdop>2.5</vdop><extensions><gom:speed>0.806</gom:speed></extensions></trkpt>
   <trkpt lat="59.2959219984" lon="34.6627578732"><ele>165.261</ele><time>2026-08-16T15:24:16.693Z</time><hdop>3.0</hdop><vdop>2.5</vdop><extensions><gom:speed>0.831</gom:speed></extensions></trkpt>
   <trkpt lat="59.295928159" lon="34.6627601363"><ele>164.976</ele><time>2026-08-16T15:24:17.253Z</time><hdop>3.0</hdop><vdop>2.5</vdop><extensions><gom:speed>0.821</gom:speed></extensions></trkpt>
   <trkpt lat="59.2959348646" lon="34.6627631538"><ele>164.806</ele><time>2026-08-16T15:24:18.077Z</time><hdop>3.0</hdop><vdop>2.5</vdop><extensions><gom:speed>0.827</gom:speed></extensions></trkpt>
   <trkpt lat="59.2959400614" lon="34.6627665904"><ele>164.555</ele><time>2026-08-16T15:24:18.558Z</time><hdop>3.0</hdop><vdop>2.5</vdop><extensions><gom:speed>0.832</gom:speed></extensions></trkpt>
   <trkpt lat="59.2959458868" lon="34.662769524"><ele>164.069</ele><time>2026-08-16T15:24:19.136Z</time><hdop>3.0</hdop><vdop>2.5</vdop><extensions><gom:speed>0.838</gom:speed></extensions></trkpt>
   <trkpt lat="59.2959530952" lon="34.6627721224"><ele>163.778</ele><time>2026-08-16T15:24:19.893Z</time><hdop>3.0</hdop><vdop>2.5</vdop><extensions><gom:speed>0.87</gom:speed></extensions></trkpt>
   <trkpt lat="59.295960597" lon="34.6627735473"><ele>163.724</ele><time>2026-08-16T15:24:20.619Z</time><hdop>3.0</hdop><vdop>2.5</vdop><extensions><gom:speed>0.871</gom:speed></extensions></trkpt>
   <trkpt lat="59.2959657938" lon="34.6627760619"><ele>163.372</ele><time>2026-08-16T15:24:21.136Z</time><hdop>3.0</hdop><vdop>2.5</vdop><extensions><gom:speed>0.904</gom:speed></extensions></trkpt>
   <trkpt lat="59.2959729603" lon="34.6627819292"><ele>163.162</ele><time>2026-08-16T15:24:21.974Z</time><hdop>3.0</hdop><vdop>2.5</vdop><extensions><gom:speed>0.865</gom:speed></extensions></trkpt>
   <trkpt lat="59.2959765645" lon="34.6627874613"><ele>162.678</ele><time>2026-08-16T15:24:22.622Z</time><hdop>3.0</hdop><vdop>2.5</vdop><extensions><gom:speed>0.74</gom:speed></extensions></trkpt>
   <trkpt lat="59.295981887" lon="34.6627946697"><ele>162.325</ele><time>2026-08-16T15:24:23.136Z</time><hdop>3.0</hdop><vdop>2.5</vdop><extensions><gom:speed>0.915</gom:speed></extensions></trkpt>
   <trkpt lat="59.2959884668" lon="34.6628040575"><ele>162.114</ele><time>2026-08-16T15:24:23.879Z</time><hdop>3.0</hdop><vdop>2.5</vdop><extensions><gom:speed>0.887</gom:speed></extensions></trkpt>
   <trkpt lat="59.2960004949" lon="34.6628103439"><ele>161.936</ele><time>2026-08-16T15:24:24.821Z</time><hdop>3.0</hdop><vdop>2.5</vdop><extensions><gom:speed>0.897</gom:speed></extensions></trkpt>
   <trkpt lat="59.2960095892" lon="34.6628111821"><ele>161.834</ele><time>2026-08-16T15:24:25.381Z</time><hdop>3.0</hdop><vdop>2.5</vdop><extensions><gom:speed>0.907</gom:speed></extensions></trkpt>
   <trkpt lat="59.296019899" lon="34.6628123555"><ele>161.883</ele><time>2026-08-16T15:24:26.136Z</time><hdop>3.0</hdop><vdop>2.5</vdop><extensions><gom:speed>0.949</gom:speed></extensions></trkpt>
   <trkpt lat="59.2960320946" lon="34.6628206536"><ele>161.887</ele><time>2026-08-16T15:24:27.136Z</time><hdop>3.0</hdop><vdop>2.5</vdop><extensions><gom:speed>0.953</gom:speed></extensions></trkpt>
   <trkpt lat="59.2960369981" lon="34.6628359925"><ele>161.889</ele><time>2026-08-16T15:24:28.021Z</time><hdop>3.0</hdop><vdop>2.5</vdop><extensions><gom:speed>0.902</gom:speed></extensions></trkpt>
   <trkpt lat="59.2960440808" lon="34.6628479786"><ele>161.769</ele><time>2026-08-16T15:24:28.737Z</time><hdop>3.0</hdop><vdop>2.5</vdop><extensions><gom:speed>0.947</gom:speed></extensions></trkpt>
   <trkpt lat="59.2960517921" lon="34.6628572825"><ele>161.849</ele><time>2026-08-16T15:24:29.434Z</time><hdop>3.0</hdop><vdop>2.5</vdop><extensions><gom:speed>0.922</gom:speed></extensions></trkpt>
   <trkpt lat="59.2960575756" lon="34.6628634852"><ele>161.897</ele><time>2026-08-16T15:24:30.102Z</time><hdop>3.0</hdop><vdop>2.5</vdop><extensions><gom:speed>0.921</gom:speed></extensions></trkpt>
   <trkpt lat="59.2960669634" lon="34.6628609706"><ele>161.678</ele><time>2026-08-16T15:24:30.818Z</time><hdop>3.0</hdop><vdop>2.5</vdop><extensions><gom:speed>0.92</gom:speed></extensions></trkpt>
   <trkpt lat="59.2960728726" lon="34.6628536783"><ele>161.542</ele><time>2026-08-16T15:24:31.299Z</time><hdop>3.0</hdop><vdop>2.5</vdop><extensions><gom:speed>0.929</gom:speed></extensions></trkpt>
   <trkpt lat="59.2960809611" lon="34.6628465537"><ele>161.711</ele><time>2026-08-16T15:24:32.136Z</time><hdop>3.0</hdop><vdop>2.5</vdop><extensions><gom:speed>0.908</gom:speed></extensions></trkpt>
   <trkpt lat="59.2960887982" lon="34.662842698"><ele>161.811</ele><time>2026-08-16T15:24:32.977Z</time><hdop>3.0</hdop><vdop>2.5</vdop><extensions><gom:speed>0.883</gom:speed></extensions></trkpt>
   <trkpt lat="59.2960956714" lon="34.6628350705"><ele>161.855</ele><time>2026-08-16T15:24:33.900Z</time><hdop>3.0</hdop><vdop>2.5</vdop><extensions><gom:speed>0.845</gom:speed></extensions></trkpt>
   <trkpt lat="59.2961044724" lon="34.6628251799"><ele>161.876</ele><time>2026-08-16T15:24:34.980Z</time><hdop>3.0</hdop><vdop>2.5</vdop><extensions><gom:speed>0.919</gom:speed></extensions></trkpt>
   <trkpt lat="59.2961101721" lon="34.6628178876"><ele>161.917</ele><time>2026-08-16T15:24:35.736Z</time><hdop>3.0</hdop><vdop>2.5</vdop><extensions><gom:speed>0.89</gom:speed></extensions></trkpt>
   <trkpt lat="59.2961146983" lon="34.6628064882"><ele>161.721</ele><time>2026-08-16T15:24:36.658Z</time><hdop>3.0</hdop><vdop>2.5</vdop><extensions><gom:speed>0.845</gom:speed></extensions></trkpt>
   <trkpt lat="59.2961166681" lon="34.6628006209"><ele>161.724</ele><time>2026-08-16T15:24:37.136Z</time><hdop>3.0</hdop><vdop>2.5</vdop><extensions><gom:speed>0.83</gom:speed></extensions></trkpt>
   <trkpt lat="59.2961233736" lon="34.6627935801"><ele>161.726</ele><time>2026-08-16T15:24:38.081Z</time><hdop>3.0</hdop><vdop>2.5</vdop><extensions><gom:speed>0.84</gom:speed></extensions></trkpt>
   <trkpt lat="59.2961281932" lon="34.6627882995"><ele>161.931</ele><time>2026-08-16T15:24:38.582Z</time><hdop>3.0</hdop><vdop>2.5</vdop><extensions><gom:speed>0.967</gom:speed></extensions></trkpt>
   <trkpt lat="59.2961343958" lon="34.6627798338"><ele>161.595</ele><time>2026-08-16T15:24:39.136Z</time><hdop>3.0</hdop><vdop>2.5</vdop><extensions><gom:speed>1.141</gom:speed></extensions></trkpt>
   <trkpt lat="59.2961424843" lon="34.6627678476"><ele>161.394</ele><time>2026-08-16T15:24:39.955Z</time><hdop>3.0</hdop><vdop>2.5</vdop><extensions><gom:speed>1.089</gom:speed></extensions></trkpt>
   <trkpt lat="59.2961527941" lon="34.6627517544"><ele>161.658</ele><time>2026-08-16T15:24:40.918Z</time><hdop>3.0</hdop><vdop>2.5</vdop><extensions><gom:speed>1.134</gom:speed></extensions></trkpt>
   <trkpt lat="59.2961608826" lon="34.6627401874"><ele>162.227</ele><time>2026-08-16T15:24:41.575Z</time><hdop>3.0</hdop><vdop>2.5</vdop><extensions><gom:speed>1.172</gom:speed></extensions></trkpt>
   <trkpt lat="59.2961676719" lon="34.6627325598"><ele>162.826</ele><time>2026-08-16T15:24:42.136Z</time><hdop>3.0</hdop><vdop>2.687</vdop><extensions><gom:speed>1.25</gom:speed></extensions></trkpt>
   <trkpt lat="59.2961764729" lon="34.6627262734"><ele>163.184</ele><time>2026-08-16T15:24:42.959Z</time><hdop>3.0</hdop><vdop>2.687</vdop><extensions><gom:speed>1.14</gom:speed></extensions></trkpt>
   <trkpt lat="59.2961851901" lon="34.6627213281"><ele>163.798</ele><time>2026-08-16T15:24:43.676Z</time><hdop>3.0</hdop><vdop>3.0</vdop><extensions><gom:speed>1.128</gom:speed></extensions></trkpt>
   <trkpt lat="59.2961911832" lon="34.6627196517"><ele>164.436</ele><time>2026-08-16T15:24:44.136Z</time><hdop>3.0</hdop><vdop>3.312</vdop><extensions><gom:speed>1.187</gom:speed></extensions></trkpt>
   <trkpt lat="59.2962011995" lon="34.6627187297"><ele>164.588</ele><time>2026-08-16T15:24:45.136Z</time><hdop>3.0</hdop><vdop>3.25</vdop><extensions><gom:speed>1.003</gom:speed></extensions></trkpt>
   <trkpt lat="59.2962073602" lon="34.6627160475"><ele>164.68</ele><time>2026-08-16T15:24:45.894Z</time><hdop>3.0</hdop><vdop>3.25</vdop><extensions><gom:speed>0.909</gom:speed></extensions></trkpt>
   <trkpt lat="59.2962114674" lon="34.6627177239"><ele>164.753</ele><time>2026-08-16T15:24:46.453Z</time><hdop>3.0</hdop><vdop>3.125</vdop><extensions><gom:speed>0.905</gom:speed></extensions></trkpt>
   <trkpt lat="59.2962160774" lon="34.6627175562"><ele>164.796</ele><time>2026-08-16T15:24:46.993Z</time><hdop>3.0</hdop><vdop>3.125</vdop><extensions><gom:speed>0.898</gom:speed></extensions></trkpt>
   <trkpt lat="59.2962225734" lon="34.6627193164"><ele>164.787</ele><time>2026-08-16T15:24:47.837Z</time><hdop>3.0</hdop><vdop>3.062</vdop><extensions><gom:speed>0.897</gom:speed></extensions></trkpt>
   <trkpt lat="59.2962274768" lon="34.6627193164"><ele>164.692</ele><time>2026-08-16T15:24:48.436Z</time><hdop>3.0</hdop><vdop>3.312</vdop><extensions><gom:speed>0.931</gom:speed></extensions></trkpt>
   <trkpt lat="59.296233889" lon="34.6627168857"><ele>164.636</ele><time>2026-08-16T15:24:49.133Z</time><hdop>3.0</hdop><vdop>3.312</vdop><extensions><gom:speed>0.922</gom:speed></extensions></trkpt>
   <trkpt lat="59.2962377866" lon="34.662718143"><ele>164.592</ele><time>2026-08-16T15:24:49.653Z</time><hdop>3.0</hdop><vdop>3.25</vdop><extensions><gom:speed>0.933</gom:speed></extensions></trkpt>
   <trkpt lat="59.296241265" lon="34.6627207413"><ele>164.937</ele><time>2026-08-16T15:24:50.136Z</time><hdop>3.0</hdop><vdop>3.437</vdop><extensions><gom:speed>0.918</gom:speed></extensions></trkpt>
   <trkpt lat="59.2962452884" lon="34.6627222501"><ele>165.144</ele><time>2026-08-16T15:24:50.655Z</time><hdop>3.0</hdop><vdop>3.437</vdop><extensions><gom:speed>0.903</gom:speed></extensions></trkpt>
   <trkpt lat="59.2962489764" lon="34.662727363"><ele>165.053</ele><time>2026-08-16T15:24:51.136Z</time><hdop>3.0</hdop><vdop>3.187</vdop><extensions><gom:speed>0.912</gom:speed></extensions></trkpt>
   <trkpt lat="59.2962554724" lon="34.6627313864"><ele>164.998</ele><time>2026-08-16T15:24:51.892Z</time><hdop>3.0</hdop><vdop>3.187</vdop><extensions><gom:speed>0.916</gom:speed></extensions></trkpt>
   <trkpt lat="59.2962594957" lon="34.6627365831"><ele>165.137</ele><time>2026-08-16T15:24:52.353Z</time><hdop>3.0</hdop><vdop>3.25</vdop><extensions><gom:speed>0.944</gom:speed></extensions></trkpt>
   <trkpt lat="59.2962657821" lon="34.6627441269"><ele>164.981</ele><time>2026-08-16T15:24:53.136Z</time><hdop>3.0</hdop><vdop>3.062</vdop><extensions><gom:speed>0.934</gom:speed></extensions></trkpt>
   <trkpt lat="59.2962712723" lon="34.6627505809"><ele>164.888</ele><time>2026-08-16T15:24:53.737Z</time><hdop>3.0</hdop><vdop>3.062</vdop><extensions><gom:speed>0.951</gom:speed></extensions></trkpt>
   <trkpt lat="59.296276469" lon="34.6627637405"><ele>164.73</ele><time>2026-08-16T15:24:54.621Z</time><hdop>3.0</hdop><vdop>2.937</vdop><extensions><gom:speed>0.882</gom:speed></extensions></trkpt>
   <trkpt lat="59.2962793608" lon="34.6627735473"><ele>164.379</ele><time>2026-08-16T15:24:55.136Z</time><hdop>3.0</hdop><vdop>3.0</vdop><extensions><gom:speed>0.88</gom:speed></extensions></trkpt>
   <trkpt lat="59.2962848928" lon="34.6627934963"><ele>164.03</ele><time>2026-08-16T15:24:56.135Z</time><hdop>3.0</hdop><vdop>3.062</vdop><extensions><gom:speed>0.878</gom:speed></extensions></trkpt>
   <trkpt lat="59.296288078" lon="34.6628058177"><ele>163.821</ele><time>2026-08-16T15:24:56.819Z</time><hdop>3.0</hdop><vdop>3.062</vdop><extensions><gom:speed>0.862</gom:speed></extensions></trkpt>
   <trkpt lat="59.2962909697" lon="34.6628245931"><ele>163.787</ele><time>2026-08-16T15:24:57.614Z</time><hdop>3.0</hdop><vdop>3.187</vdop><extensions><gom:speed>0.855</gom:speed></extensions></trkpt>
   <trkpt lat="59.2962928976" lon="34.6628384233"><ele>163.078</ele><time>2026-08-16T15:24:58.136Z</time><hdop>3.0</hdop><vdop>3.437</vdop><extensions><gom:speed>0.856</gom:speed></extensions></trkpt>
   <trkpt lat="59.2962948673" lon="34.6628579531"><ele>162.654</ele><time>2026-08-16T15:24:59.057Z</time><hdop>3.0</hdop><vdop>3.437</vdop><extensions><gom:speed>0.886</gom:speed></extensions></trkpt>
   <trkpt lat="59.2962972981" lon="34.6628782373"><ele>162.723</ele><time>2026-08-16T15:24:59.882Z</time><hdop>3.0</hdop><vdop>3.687</vdop><extensions><gom:speed>0.859</gom:speed></extensions></trkpt>
   <trkpt lat="59.2963018662" lon="34.6628962584"><ele>162.853</ele><time>2026-08-16T15:25:00.657Z</time><hdop>3.0</hdop><vdop>3.5</vdop><extensions><gom:speed>0.856</gom:speed></extensions></trkpt>
   <trkpt lat="59.2963067696" lon="34.6629072387"><ele>163.087</ele><time>2026-08-16T15:25:01.136Z</time><hdop>3.0</hdop><vdop>3.437</vdop><extensions><gom:speed>0.968</gom:speed></extensions></trkpt>
   <trkpt lat="59.2963159897" lon="34.662929786"><ele>163.567</ele><time>2026-08-16T15:25:02.136Z</time><hdop>3.0</hdop><vdop>2.687</vdop><extensions><gom:speed>1.08</gom:speed></extensions></trkpt>
   <trkpt lat="59.2963206836" lon="34.6629460469"><ele>163.854</ele><time>2026-08-16T15:25:02.934Z</time><hdop>3.0</hdop><vdop>2.687</vdop><extensions><gom:speed>1.001</gom:speed></extensions></trkpt>
   <trkpt lat="59.2963282692" lon="34.6629755512"><ele>164.063</ele><time>2026-08-16T15:25:03.798Z</time><hdop>3.0</hdop><vdop>3.0</vdop><extensions><gom:speed>1.219</gom:speed></extensions></trkpt>
   <trkpt lat="59.296335771" lon="34.662995081"><ele>164.892</ele><time>2026-08-16T15:25:04.534Z</time><hdop>3.0</hdop><vdop>2.5</vdop><extensions><gom:speed>1.129</gom:speed></extensions></trkpt>
   <trkpt lat="59.2963433985" lon="34.6630076539"><ele>165.484</ele><time>2026-08-16T15:25:05.135Z</time><hdop>3.0</hdop><vdop>2.562</vdop><extensions><gom:speed>1.19</gom:speed></extensions></trkpt>
   <trkpt lat="59.2963505651" lon="34.6630182989"><ele>165.838</ele><time>2026-08-16T15:25:05.859Z</time><hdop>3.0</hdop><vdop>2.562</vdop><extensions><gom:speed>1.055</gom:speed></extensions></trkpt>
   <trkpt lat="59.2963582764" lon="34.6630314585"><ele>166.024</ele><time>2026-08-16T15:25:06.634Z</time><hdop>3.0</hdop><vdop>2.625</vdop><extensions><gom:speed>1.038</gom:speed></extensions></trkpt>
   <trkpt lat="59.2963643952" lon="34.6630388346"><ele>166.182</ele><time>2026-08-16T15:25:07.136Z</time><hdop>3.0</hdop><vdop>2.687</vdop><extensions><gom:speed>1.111</gom:speed></extensions></trkpt>
   <trkpt lat="59.296375585" lon="34.6630481385"><ele>166.229</ele><time>2026-08-16T15:25:08.136Z</time><hdop>3.0</hdop><vdop>2.625</vdop><extensions><gom:speed>1.063</gom:speed></extensions></trkpt>
   <trkpt lat="59.2963855595" lon="34.6630506531"><ele>166.091</ele><time>2026-08-16T15:25:09.136Z</time><hdop>3.0</hdop><vdop>2.75</vdop><extensions><gom:speed>0.993</gom:speed></extensions></trkpt>
   <trkpt lat="59.2963938995" lon="34.663051156"><ele>166.009</ele><time>2026-08-16T15:25:09.962Z</time><hdop>3.0</hdop><vdop>2.75</vdop><extensions><gom:speed>0.964</gom:speed></extensions></trkpt>
   <trkpt lat="59.2964008984" lon="34.6630498987"><ele>165.869</ele><time>2026-08-16T15:25:10.814Z</time><hdop>3.0</hdop><vdop>2.562</vdop><extensions><gom:speed>0.924</gom:speed></extensions></trkpt>
   <trkpt lat="59.296406179" lon="34.6630482223"><ele>165.99</ele><time>2026-08-16T15:25:11.512Z</time><hdop>3.0</hdop><vdop>2.625</vdop><extensions><gom:speed>0.915</gom:speed></extensions></trkpt>
   <trkpt lat="59.296410789" lon="34.6630475517"><ele>166.19</ele><time>2026-08-16T15:25:12.136Z</time><hdop>3.0</hdop><vdop>2.625</vdop><extensions><gom:speed>0.918</gom:speed></extensions></trkpt>
   <trkpt lat="59.2964168659" lon="34.6630487252"><ele>166.309</ele><time>2026-08-16T15:25:12.877Z</time><hdop>3.0</hdop><vdop>2.625</vdop><extensions><gom:speed>0.89</gom:speed></extensions></trkpt>
   <trkpt lat="59.2964213921" lon="34.6630513236"><ele>166.586</ele><time>2026-08-16T15:25:13.634Z</time><hdop>3.0</hdop><vdop>2.625</vdop><extensions><gom:speed>0.863</gom:speed></extensions></trkpt>
   <trkpt lat="59.2964244934" lon="34.6630524971"><ele>166.689</ele><time>2026-08-16T15:25:14.136Z</time><hdop>3.0</hdop><vdop>2.625</vdop><extensions><gom:speed>0.882</gom:speed></extensions></trkpt>
   <trkpt lat="59.2964287682" lon="34.6630538382"><ele>166.751</ele><time>2026-08-16T15:25:14.674Z</time><hdop>3.0</hdop><vdop>2.625</vdop><extensions><gom:speed>0.885</gom:speed></extensions></trkpt>
   <trkpt lat="59.2964323724" lon="34.6630527485"><ele>166.766</ele><time>2026-08-16T15:25:15.135Z</time><hdop>3.0</hdop><vdop>2.5</vdop><extensions><gom:speed>0.89</gom:speed></extensions></trkpt>
   <trkpt lat="59.296439078" lon="34.663047887"><ele>166.59</ele><time>2026-08-16T15:25:16.136Z</time><hdop>3.0</hdop><vdop>2.625</vdop><extensions><gom:speed>0.892</gom:speed></extensions></trkpt>
   <trkpt lat="59.2964448615" lon="34.6630476356"><ele>166.244</ele><time>2026-08-16T15:25:17.136Z</time><hdop>3.0</hdop><vdop>2.937</vdop><extensions><gom:speed>0.876</gom:speed></extensions></trkpt>
   <trkpt lat="59.2964489686" lon="34.6630527485"><ele>166.037</ele><time>2026-08-16T15:25:17.776Z</time><hdop>3.0</hdop><vdop>2.937</vdop><extensions><gom:speed>0.846</gom:speed></extensions></trkpt>
   <trkpt lat="59.2964519861" lon="34.6630600408"><ele>165.899</ele><time>2026-08-16T15:25:18.541Z</time><hdop>3.0</hdop><vdop>2.937</vdop><extensions><gom:speed>0.853</gom:speed></extensions></trkpt>
   <trkpt lat="59.2964542911" lon="34.6630639803"><ele>165.758</ele><time>2026-08-16T15:25:19.136Z</time><hdop>3.0</hdop><vdop>2.875</vdop><extensions><gom:speed>0.829</gom:speed></extensions></trkpt>
   <trkpt lat="59.2964606614" lon="34.6630659919"><ele>165.673</ele><time>2026-08-16T15:25:20.102Z</time><hdop>3.0</hdop><vdop>2.875</vdop><extensions><gom:speed>0.792</gom:speed></extensions></trkpt>
   <trkpt lat="59.2964644751" lon="34.6630613819"><ele>165.622</ele><time>2026-08-16T15:25:20.897Z</time><hdop>3.0</hdop><vdop>3.0</vdop><extensions><gom:speed>0.759</gom:speed></extensions></trkpt>
   <trkpt lat="59.2964676602" lon="34.6630626392"><ele>165.533</ele><time>2026-08-16T15:25:21.594Z</time><hdop>3.0</hdop><vdop>2.687</vdop><extensions><gom:speed>0.761</gom:speed></extensions></trkpt>
   <trkpt lat="59.2964693785" lon="34.6630652376"><ele>165.235</ele><time>2026-08-16T15:25:22.136Z</time><hdop>3.0</hdop><vdop>2.562</vdop><extensions><gom:speed>0.7</gom:speed></extensions></trkpt>
   <trkpt lat="59.2964733599" lon="34.6630693447"><ele>164.972</ele><time>2026-08-16T15:25:23.136Z</time><hdop>3.0</hdop><vdop>2.75</vdop><extensions><gom:speed>0.702</gom:speed></extensions></trkpt>
   <trkpt lat="59.2964761679" lon="34.663071524"><ele>164.792</ele><time>2026-08-16T15:25:24.136Z</time><hdop>3.0</hdop><vdop>2.75</vdop><extensions><gom:speed>0.604</gom:speed></extensions></trkpt>
   <trkpt lat="59.2964782634" lon="34.6630709373"><ele>164.616</ele><time>2026-08-16T15:25:25.136Z</time><hdop>3.0</hdop><vdop>2.75</vdop><extensions><gom:speed>0.497</gom:speed></extensions></trkpt>
   <trkpt lat="59.2964813647" lon="34.6630698476"><ele>164.51</ele><time>2026-08-16T15:25:26.138Z</time><hdop>3.0</hdop><vdop>2.75</vdop><extensions><gom:speed>0.48</gom:speed></extensions></trkpt>
   <trkpt lat="59.2964869805" lon="34.6630675845"><ele>164.373</ele><time>2026-08-16T15:25:27.136Z</time><hdop>3.0</hdop><vdop>2.5</vdop><extensions><gom:speed>0.682</gom:speed></extensions></trkpt>
   <trkpt lat="59.2964951948" lon="34.6630609628"><ele>164.281</ele><time>2026-08-16T15:25:28.136Z</time><hdop>3.0</hdop><vdop>2.5</vdop><extensions><gom:speed>0.809</gom:speed></extensions></trkpt>
   <trkpt lat="59.2965002659" lon="34.6630558498"><ele>164.226</ele><time>2026-08-16T15:25:28.758Z</time><hdop>3.0</hdop><vdop>2.5</vdop><extensions><gom:speed>0.879</gom:speed></extensions></trkpt>
   <trkpt lat="59.2965079772" lon="34.6630411815"><ele>164.203</ele><time>2026-08-16T15:25:30.136Z</time><hdop>3.0</hdop><vdop>2.5</vdop><extensions><gom:speed>0.833</gom:speed></extensions></trkpt>
   <trkpt lat="59.2965142636" lon="34.6630349789"><ele>164.189</ele><time>2026-08-16T15:25:30.958Z</time><hdop>3.0</hdop><vdop>2.5</vdop><extensions><gom:speed>0.888</gom:speed></extensions></trkpt>
   <trkpt lat="59.2965194604" lon="34.6630313747"><ele>164.076</ele><time>2026-08-16T15:25:31.734Z</time><hdop>3.0</hdop><vdop>2.5</vdop><extensions><gom:speed>0.941</gom:speed></extensions></trkpt>
   <trkpt lat="59.2965282614" lon="34.6630343922"><ele>164.582</ele><time>2026-08-16T15:25:33.136Z</time><hdop>3.0</hdop><vdop>2.5</vdop><extensions><gom:speed>0.927</gom:speed></extensions></trkpt>
   <trkpt lat="59.2965342964" lon="34.6630457915"><ele>165.107</ele><time>2026-08-16T15:25:34.136Z</time><hdop>3.0</hdop><vdop>2.5</vdop><extensions><gom:speed>0.906</gom:speed></extensions></trkpt>
   <trkpt lat="59.2965396608" lon="34.6630607952"><ele>165.548</ele><time>2026-08-16T15:25:35.136Z</time><hdop>3.0</hdop><vdop>2.5</vdop><extensions><gom:speed>0.921</gom:speed></extensions></trkpt>
   <trkpt lat="59.2965448995" lon="34.6630743738"><ele>165.812</ele><time>2026-08-16T15:25:36.101Z</time><hdop>3.0</hdop><vdop>2.5</vdop><extensions><gom:speed>0.878</gom:speed></extensions></trkpt>
   <trkpt lat="59.2965489647" lon="34.6630805764"><ele>165.863</ele><time>2026-08-16T15:25:36.592Z</time><hdop>3.0</hdop><vdop>2.5</vdop><extensions><gom:speed>0.936</gom:speed></extensions></trkpt>
   <trkpt lat="59.2965538681" lon="34.6630850189"><ele>165.673</ele><time>2026-08-16T15:25:37.136Z</time><hdop>3.0</hdop><vdop>2.5</vdop><extensions><gom:speed>0.973</gom:speed></extensions></trkpt>
   <trkpt lat="59.2965626691" lon="34.6630873658"><ele>165.559</ele><time>2026-08-16T15:25:38.035Z</time><hdop>3.0</hdop><vdop>2.5</vdop><extensions><gom:speed>0.961</gom:speed></extensions></trkpt>
   <trkpt lat="59.2965717635" lon="34.6630913891"><ele>165.279</ele><time>2026-08-16T15:25:38.997Z</time><hdop>3.0</hdop><vdop>2.5</vdop><extensions><gom:speed>0.972</gom:speed></extensions></trkpt>
   <trkpt lat="59.2965775889" lon="34.6630957477"><ele>164.52</ele><time>2026-08-16T15:25:39.733Z</time><hdop>3.0</hdop><vdop>2.5</vdop><extensions><gom:speed>0.917</gom:speed></extensions></trkpt>
   <trkpt lat="59.29658266" lon="34.6631000225"><ele>164.206</ele><time>2026-08-16T15:25:40.459Z</time><hdop>3.0</hdop><vdop>2.5</vdop><extensions><gom:speed>0.932</gom:speed></extensions></trkpt>
   <trkpt lat="59.2965876891" lon="34.6631021179"><ele>164.018</ele><time>2026-08-16T15:25:41.037Z</time><hdop>3.0</hdop><vdop>2.5</vdop><extensions><gom:speed>0.928</gom:speed></extensions></trkpt>
   <trkpt lat="59.2965932631" lon="34.6631050516"><ele>163.97</ele><time>2026-08-16T15:25:41.755Z</time><hdop>3.0</hdop><vdop>2.5</vdop><extensions><gom:speed>0.92</gom:speed></extensions></trkpt>
   <trkpt lat="59.2965984598" lon="34.6631064765"><ele>163.978</ele><time>2026-08-16T15:25:42.412Z</time><hdop>3.0</hdop><vdop>2.5</vdop><extensions><gom:speed>0.943</gom:speed></extensions></trkpt>
   <trkpt lat="59.2966041595" lon="34.6631077338"><ele>164.009</ele><time>2026-08-16T15:25:43.136Z</time><hdop>3.0</hdop><vdop>2.5</vdop><extensions><gom:speed>0.94</gom:speed></extensions></trkpt>
   <trkpt lat="59.29661229" lon="34.6631074824"><ele>164.027</ele><time>2026-08-16T15:25:44.061Z</time><hdop>3.0</hdop><vdop>2.5</vdop><extensions><gom:speed>0.936</gom:speed></extensions></trkpt>
   <trkpt lat="59.2966181992" lon="34.66310765"><ele>164.14</ele><time>2026-08-16T15:25:44.817Z</time><hdop>3.0</hdop><vdop>2.5</vdop><extensions><gom:speed>0.921</gom:speed></extensions></trkpt>
   <trkpt lat="59.2966280899" lon="34.6631193847"><ele>164.262</ele><time>2026-08-16T15:25:46.136Z</time><hdop>3.0</hdop><vdop>2.5</vdop><extensions><gom:speed>0.941</gom:speed></extensions></trkpt>
   <trkpt lat="59.2966317779" lon="34.6631305326"><ele>164.334</ele><time>2026-08-16T15:25:46.819Z</time><hdop>3.0</hdop><vdop>2.5</vdop><extensions><gom:speed>0.956</gom:speed></extensions></trkpt>
   <trkpt lat="59.2966375614" lon="34.6631448656"><ele>164.115</ele><time>2026-08-16T15:25:47.693Z</time><hdop>3.0</hdop><vdop>2.5</vdop><extensions><gom:speed>0.965</gom:speed></extensions></trkpt>
   <trkpt lat="59.2966403694" lon="34.6631556783"><ele>163.846</ele><time>2026-08-16T15:25:48.233Z</time><hdop>3.0</hdop><vdop>2.5</vdop><extensions><gom:speed>0.971</gom:speed></extensions></trkpt>
   <trkpt lat="59.2966445603" lon="34.6631696761"><ele>163.685</ele><time>2026-08-16T15:25:49.096Z</time><hdop>3.0</hdop><vdop>2.5</vdop><extensions><gom:speed>0.922</gom:speed></extensions></trkpt>
   <trkpt lat="59.2966472844" lon="34.6631893735"><ele>163.483</ele><time>2026-08-16T15:25:50.098Z</time><hdop>3.0</hdop><vdop>2.5</vdop><extensions><gom:speed>0.907</gom:speed></extensions></trkpt>
   <trkpt lat="59.2966460691" lon="34.6632089872"><ele>163.465</ele><time>2026-08-16T15:25:51.058Z</time><hdop>3.0</hdop><vdop>2.625</vdop><extensions><gom:speed>0.881</gom:speed></extensions></trkpt>
   <trkpt lat="59.2966425906" lon="34.6632256672"><ele>163.51</ele><time>2026-08-16T15:25:51.834Z</time><hdop>3.0</hdop><vdop>2.812</vdop><extensions><gom:speed>0.908</gom:speed></extensions></trkpt>
   <trkpt lat="59.2966390702" lon="34.6632443588"><ele>163.37</ele><time>2026-08-16T15:25:52.640Z</time><hdop>3.0</hdop><vdop>3.062</vdop><extensions><gom:speed>0.941</gom:speed></extensions></trkpt>
   <trkpt lat="59.2966370585" lon="34.6632556744"><ele>163.33</ele><time>2026-08-16T15:25:53.135Z</time><hdop>3.0</hdop><vdop>2.875</vdop><extensions><gom:speed>0.939</gom:speed></extensions></trkpt>
   <trkpt lat="59.2966343763" lon="34.6632747851"><ele>163.306</ele><time>2026-08-16T15:25:54.094Z</time><hdop>3.0</hdop><vdop>2.875</vdop><extensions><gom:speed>0.963</gom:speed></extensions></trkpt>
   <trkpt lat="59.2966307721" lon="34.6632869389"><ele>163.266</ele><time>2026-08-16T15:25:54.741Z</time><hdop>3.0</hdop><vdop>2.875</vdop><extensions><gom:speed>0.938</gom:speed></extensions></trkpt>
   <trkpt lat="59.2966250724" lon="34.663297081"><ele>163.192</ele><time>2026-08-16T15:25:55.438Z</time><hdop>3.0</hdop><vdop>2.687</vdop><extensions><gom:speed>0.925</gom:speed></extensions></trkpt>
   <trkpt lat="59.2966189955" lon="34.6633044571"><ele>163.232</ele><time>2026-08-16T15:25:56.136Z</time><hdop>3.0</hdop><vdop>2.625</vdop><extensions><gom:speed>0.877</gom:speed></extensions></trkpt>
   <trkpt lat="59.2966112842" lon="34.663314683"><ele>163.031</ele><time>2026-08-16T15:25:57.136Z</time><hdop>3.0</hdop><vdop>2.937</vdop><extensions><gom:speed>0.82</gom:speed></extensions></trkpt>
   <trkpt lat="59.2966069675" lon="34.6633213885"><ele>162.911</ele><time>2026-08-16T15:25:57.755Z</time><hdop>3.0</hdop><vdop>2.937</vdop><extensions><gom:speed>0.828</gom:speed></extensions></trkpt>
   <trkpt lat="59.2966024832" lon="34.6633319497"><ele>162.743</ele><time>2026-08-16T15:25:58.451Z</time><hdop>3.0</hdop><vdop>2.687</vdop><extensions><gom:speed>0.896</gom:speed></extensions></trkpt>
   <trkpt lat="59.2965988789" lon="34.6633426786"><ele>162.642</ele><time>2026-08-16T15:25:59.120Z</time><hdop>3.0</hdop><vdop>2.687</vdop><extensions><gom:speed>0.887</gom:speed></extensions></trkpt>
   <trkpt lat="59.2965944784" lon="34.663356844"><ele>161.561</ele><time>2026-08-16T15:25:59.876Z</time><hdop>3.0</hdop><vdop>3.062</vdop><extensions><gom:speed>0.885</gom:speed></extensions></trkpt>
   <trkpt lat="59.2965919639" lon="34.663370255"><ele>160.487</ele><time>2026-08-16T15:26:00.396Z</time><hdop>3.0</hdop><vdop>3.312</vdop><extensions><gom:speed>0.997</gom:speed></extensions></trkpt>
   <trkpt lat="59.2965917962" lon="34.6633843366"><ele>159.846</ele><time>2026-08-16T15:26:01.054Z</time><hdop>3.0</hdop><vdop>3.312</vdop><extensions><gom:speed>1.002</gom:speed></extensions></trkpt>
   <trkpt lat="59.2965924668" lon="34.6633948978"><ele>159.867</ele><time>2026-08-16T15:26:01.535Z</time><hdop>3.0</hdop><vdop>2.812</vdop><extensions><gom:speed>1.016</gom:speed></extensions></trkpt>
   <trkpt lat="59.2965933888" lon="34.6634065487"><ele>159.729</ele><time>2026-08-16T15:26:02.136Z</time><hdop>3.0</hdop><vdop>2.5</vdop><extensions><gom:speed>1.002</gom:speed></extensions></trkpt>
   <trkpt lat="59.2965942689" lon="34.6634229772"><ele>159.647</ele><time>2026-08-16T15:26:02.879Z</time><hdop>3.0</hdop><vdop>2.5</vdop><extensions><gom:speed>1.029</gom:speed></extensions></trkpt>
   <trkpt lat="59.2965961967" lon="34.6634396572"><ele>159.746</ele><time>2026-08-16T15:26:03.753Z</time><hdop>3.0</hdop><vdop>2.5</vdop><extensions><gom:speed>1.022</gom:speed></extensions></trkpt>
   <trkpt lat="59.2965980827" lon="34.66345223"><ele>160.128</ele><time>2026-08-16T15:26:04.440Z</time><hdop>3.0</hdop><vdop>2.562</vdop><extensions><gom:speed>1.013</gom:speed></extensions></trkpt>
   <trkpt lat="59.2965980827" lon="34.6634656411"><ele>160.356</ele><time>2026-08-16T15:26:05.097Z</time><hdop>3.0</hdop><vdop>2.562</vdop><extensions><gom:speed>1.009</gom:speed></extensions></trkpt>
   <trkpt lat="59.2965996752" lon="34.6634741906"><ele>160.487</ele><time>2026-08-16T15:26:05.637Z</time><hdop>3.0</hdop><vdop>2.625</vdop><extensions><gom:speed>0.977</gom:speed></extensions></trkpt>
   <trkpt lat="59.2966019802" lon="34.6634817343"><ele>161.093</ele><time>2026-08-16T15:26:06.136Z</time><hdop>3.0</hdop><vdop>2.5</vdop><extensions><gom:speed>0.967</gom:speed></extensions></trkpt>
   <trkpt lat="59.2966063807" lon="34.663494391"><ele>161.455</ele><time>2026-08-16T15:26:06.933Z</time><hdop>3.0</hdop><vdop>2.5</vdop><extensions><gom:speed>0.955</gom:speed></extensions></trkpt>
   <trkpt lat="59.2966123738" lon="34.6635056228"><ele>161.893</ele><time>2026-08-16T15:26:07.777Z</time><hdop>3.0</hdop><vdop>2.5</vdop><extensions><gom:speed>0.942</gom:speed></extensions></trkpt>
   <trkpt lat="59.2966174868" lon="34.6635144238"><ele>162.343</ele><time>2026-08-16T15:26:08.493Z</time><hdop>3.0</hdop><vdop>2.5</vdop><extensions><gom:speed>0.936</gom:speed></extensions></trkpt>
   <trkpt lat="59.2966217615" lon="34.6635218836"><ele>162.718</ele><time>2026-08-16T15:26:09.136Z</time><hdop>3.0</hdop><vdop>2.5</vdop><extensions><gom:speed>0.933</gom:speed></extensions></trkpt>
   <trkpt lat="59.2966259944" lon="34.6635280863"><ele>162.942</ele><time>2026-08-16T15:26:09.720Z</time><hdop>3.0</hdop><vdop>2.5</vdop><extensions><gom:speed>0.932</gom:speed></extensions></trkpt>
   <trkpt lat="59.2966354659" lon="34.6635363843"><ele>163.185</ele><time>2026-08-16T15:26:10.957Z</time><hdop>3.0</hdop><vdop>2.5</vdop><extensions><gom:speed>0.859</gom:speed></extensions></trkpt>
   <trkpt lat="59.2966425906" lon="34.6635392342"><ele>163.419</ele><time>2026-08-16T15:26:11.958Z</time><hdop>3.0</hdop><vdop>2.5</vdop><extensions><gom:speed>0.828</gom:speed></extensions></trkpt>
   <trkpt lat="59.2966462786" lon="34.6635401562"><ele>163.36</ele><time>2026-08-16T15:26:12.498Z</time><hdop>3.0</hdop><vdop>2.5</vdop><extensions><gom:speed>0.824</gom:speed></extensions></trkpt>
   <trkpt lat="59.296649799" lon="34.6635412458"><ele>163.244</ele><time>2026-08-16T15:26:13.136Z</time><hdop>3.0</hdop><vdop>2.5</vdop><extensions><gom:speed>0.742</gom:speed></extensions></trkpt>
   <trkpt lat="59.29665399" lon="34.6635448501"><ele>163.174</ele><time>2026-08-16T15:26:13.833Z</time><hdop>3.0</hdop><vdop>2.5</vdop><extensions><gom:speed>0.775</gom:speed></extensions></trkpt>
   <trkpt lat="59.296659061" lon="34.6635495439"><ele>163.071</ele><time>2026-08-16T15:26:14.618Z</time><hdop>3.0</hdop><vdop>2.5</vdop><extensions><gom:speed>0.797</gom:speed></extensions></trkpt>
   <trkpt lat="59.2966615756" lon="34.6635523938"><ele>163.181</ele><time>2026-08-16T15:26:15.136Z</time><hdop>3.0</hdop><vdop>2.5</vdop><extensions><gom:speed>0.795</gom:speed></extensions></trkpt>
   <trkpt lat="59.2966656827" lon="34.6635603566"><ele>163.295</ele><time>2026-08-16T15:26:16.136Z</time><hdop>3.0</hdop><vdop>2.5</vdop><extensions><gom:speed>0.761</gom:speed></extensions></trkpt>
   <trkpt lat="59.2966712986" lon="34.663566643"><ele>163.363</ele><time>2026-08-16T15:26:17.053Z</time><hdop>3.0</hdop><vdop>2.5</vdop><extensions><gom:speed>0.8</gom:speed></extensions></trkpt>
   <trkpt lat="59.2966751962" lon="34.6635694929"><ele>163.521</ele><time>2026-08-16T15:26:17.740Z</time><hdop>3.0</hdop><vdop>2.5</vdop><extensions><gom:speed>0.776</gom:speed></extensions></trkpt>
   <trkpt lat="59.2966799739" lon="34.6635729294"><ele>163.64</ele><time>2026-08-16T15:26:18.594Z</time><hdop>3.0</hdop><vdop>2.5</vdop><extensions><gom:speed>0.726</gom:speed></extensions></trkpt>
   <trkpt lat="59.2966829913" lon="34.6635757793"><ele>163.836</ele><time>2026-08-16T15:26:19.136Z</time><hdop>3.0</hdop><vdop>2.5</vdop><extensions><gom:speed>0.735</gom:speed></extensions></trkpt>
   <trkpt lat="59.2966888587" lon="34.6635824848"><ele>163.706</ele><time>2026-08-16T15:26:20.136Z</time><hdop>3.0</hdop><vdop>2.5</vdop><extensions><gom:speed>0.737</gom:speed></extensions></trkpt>
   <trkpt lat="59.2966943907" lon="34.6635887712"><ele>163.649</ele><time>2026-08-16T15:26:21.136Z</time><hdop>3.0</hdop><vdop>2.5</vdop><extensions><gom:speed>0.745</gom:speed></extensions></trkpt>
   <trkpt lat="59.2966985817" lon="34.6635908667"><ele>163.615</ele><time>2026-08-16T15:26:21.696Z</time><hdop>3.0</hdop><vdop>2.5</vdop><extensions><gom:speed>0.777</gom:speed></extensions></trkpt>
   <trkpt lat="59.2967048681" lon="34.6635937166"><ele>163.761</ele><time>2026-08-16T15:26:22.520Z</time><hdop>3.0</hdop><vdop>2.5</vdop><extensions><gom:speed>0.801</gom:speed></extensions></trkpt>
   <trkpt lat="59.2967088914" lon="34.6635977399"><ele>163.937</ele><time>2026-08-16T15:26:23.136Z</time><hdop>3.0</hdop><vdop>2.5</vdop><extensions><gom:speed>0.792</gom:speed></extensions></trkpt>
   <trkpt lat="59.2967154712" lon="34.6636056189"><ele>164.02</ele><time>2026-08-16T15:26:24.136Z</time><hdop>3.0</hdop><vdop>2.5</vdop><extensions><gom:speed>0.801</gom:speed></extensions></trkpt>
   <trkpt lat="59.2967226797" lon="34.6636101451"><ele>164.069</ele><time>2026-08-16T15:26:25.053Z</time><hdop>3.0</hdop><vdop>2.5</vdop><extensions><gom:speed>0.84</gom:speed></extensions></trkpt>
   <trkpt lat="59.2967268706" lon="34.6636129949"><ele>163.981</ele><time>2026-08-16T15:26:25.798Z</time><hdop>3.0</hdop><vdop>2.5</vdop><extensions><gom:speed>0.813</gom:speed></extensions></trkpt>
   <trkpt lat="59.2967305586" lon="34.6636191975"><ele>163.987</ele><time>2026-08-16T15:26:26.613Z</time><hdop>3.0</hdop><vdop>2.5</vdop><extensions><gom:speed>0.834</gom:speed></extensions></trkpt>
   <trkpt lat="59.2967320674" lon="34.6636255678"><ele>163.897</ele><time>2026-08-16T15:26:27.136Z</time><hdop>3.0</hdop><vdop>2.5</vdop><extensions><gom:speed>0.8</gom:speed></extensions></trkpt>
   <trkpt lat="59.2967357973" lon="34.6636358775"><ele>163.71</ele><time>2026-08-16T15:26:28.136Z</time><hdop>3.0</hdop><vdop>2.5</vdop><extensions><gom:speed>0.737</gom:speed></extensions></trkpt>
   <trkpt lat="59.2967404912" lon="34.663645852"><ele>163.598</ele><time>2026-08-16T15:26:29.136Z</time><hdop>3.0</hdop><vdop>2.5</vdop><extensions><gom:speed>0.746</gom:speed></extensions></trkpt>
   <trkpt lat="59.2967412875" lon="34.6636500429"><ele>163.717</ele><time>2026-08-16T15:26:29.636Z</time><hdop>3.0</hdop><vdop>2.5</vdop><extensions><gom:speed>0.614</gom:speed></extensions></trkpt>
   <trkpt lat="59.2967418742" lon="34.6636540663"><ele>163.578</ele><time>2026-08-16T15:26:30.136Z</time><hdop>3.0</hdop><vdop>2.5</vdop><extensions><gom:speed>0.586</gom:speed></extensions></trkpt>
   <trkpt lat="59.2967442631" lon="34.6636600174"><ele>163.495</ele><time>2026-08-16T15:26:31.000Z</time><hdop>3.0</hdop><vdop>2.5</vdop><extensions><gom:speed>0.526</gom:speed></extensions></trkpt>
   <trkpt lat="59.2967476996" lon="34.6636645436"><ele>163.58</ele><time>2026-08-16T15:26:31.874Z</time><hdop>3.0</hdop><vdop>2.5</vdop><extensions><gom:speed>0.527</gom:speed></extensions></trkpt>
   <trkpt lat="59.2967515972" lon="34.663672255"><ele>163.633</ele><time>2026-08-16T15:26:33.136Z</time><hdop>3.0</hdop><vdop>2.5</vdop><extensions><gom:speed>0.571</gom:speed></extensions></trkpt>
   <trkpt lat="59.2967519744" lon="34.6636749372"><ele>163.665</ele><time>2026-08-16T15:26:33.700Z</time><hdop>3.0</hdop><vdop>2.5</vdop><extensions><gom:speed>0.582</gom:speed></extensions></trkpt>
   <trkpt lat="59.2967520582" lon="34.6636787929"><ele>163.586</ele><time>2026-08-16T15:26:35.136Z</time><hdop>3.0</hdop><vdop>2.5</vdop><extensions><gom:speed>0.288</gom:speed></extensions></trkpt>
   <trkpt lat="59.2967517649" lon="34.6636787929"><ele>163.539</ele><time>2026-08-16T15:26:36.036Z</time><hdop>3.0</hdop><vdop>2.5</vdop><extensions><gom:speed>0.257</gom:speed></extensions></trkpt>
   <trkpt lat="59.2967534831" lon="34.6636798825"><ele>163.585</ele><time>2026-08-16T15:26:37.136Z</time><hdop>3.0</hdop><vdop>2.5</vdop><extensions><gom:speed>0.272</gom:speed></extensions></trkpt>
   <trkpt lat="59.2967570874" lon="34.6636867557"><ele>163.851</ele><time>2026-08-16T15:26:38.136Z</time><hdop>3.0</hdop><vdop>2.5</vdop><extensions><gom:speed>0.459</gom:speed></extensions></trkpt>
   <trkpt lat="59.2967599791" lon="34.6636959758"><ele>163.845</ele><time>2026-08-16T15:26:39.136Z</time><hdop>3.0</hdop><vdop>2.5</vdop><extensions><gom:speed>0.446</gom:speed></extensions></trkpt>
   <trkpt lat="59.296760482" lon="34.6637003344"><ele>163.841</ele><time>2026-08-16T15:26:39.697Z</time><hdop>3.0</hdop><vdop>2.5</vdop><extensions><gom:speed>0.392</gom:speed></extensions></trkpt>
   <trkpt lat="59.2967624937" lon="34.6637085486"><ele>164.593</ele><time>2026-08-16T15:26:40.678Z</time><hdop>3.0</hdop><vdop>2.5</vdop><extensions><gom:speed>0.322</gom:speed></extensions></trkpt>
   <trkpt lat="59.2967641701" lon="34.663712069"><ele>164.946</ele><time>2026-08-16T15:26:41.135Z</time><hdop>3.0</hdop><vdop>2.5</vdop><extensions><gom:speed>0.333</gom:speed></extensions></trkpt>
   <trkpt lat="59.2967670618" lon="34.6637168467"><ele>165.133</ele><time>2026-08-16T15:26:42.136Z</time><hdop>3.0</hdop><vdop>2.5</vdop><extensions><gom:speed>0.243</gom:speed></extensions></trkpt>
   <trkpt lat="59.2967727615" lon="34.663725983"><ele>165.254</ele><time>2026-08-16T15:26:43.136Z</time><hdop>3.0</hdop><vdop>2.5</vdop><extensions><gom:speed>0.524</gom:speed></extensions></trkpt>
   <trkpt lat="59.2967797604" lon="34.6637376338"><ele>165.39</ele><time>2026-08-16T15:26:44.136Z</time><hdop>3.0</hdop><vdop>2.5</vdop><extensions><gom:speed>0.592</gom:speed></extensions></trkpt>
   <trkpt lat="59.2967852925" lon="34.6637489494"><ele>165.581</ele><time>2026-08-16T15:26:45.136Z</time><hdop>3.0</hdop><vdop>2.625</vdop><extensions><gom:speed>0.632</gom:speed></extensions></trkpt>
   <trkpt lat="59.2967872622" lon="34.6637619414"><ele>165.415</ele><time>2026-08-16T15:26:46.136Z</time><hdop>3.0</hdop><vdop>2.875</vdop><extensions><gom:speed>0.631</gom:speed></extensions></trkpt>
   <trkpt lat="59.2967889805" lon="34.663774598"><ele>165.316</ele><time>2026-08-16T15:26:47.058Z</time><hdop>3.0</hdop><vdop>2.875</vdop><extensions><gom:speed>0.687</gom:speed></extensions></trkpt>
   <trkpt lat="59.296791998" lon="34.6637888473"><ele>165.09</ele><time>2026-08-16T15:26:48.039Z</time><hdop>3.0</hdop><vdop>2.5</vdop><extensions><gom:speed>0.756</gom:speed></extensions></trkpt>
   <trkpt lat="59.2967944707" lon="34.6637971453"><ele>164.925</ele><time>2026-08-16T15:26:48.775Z</time><hdop>3.0</hdop><vdop>2.5</vdop><extensions><gom:speed>0.736</gom:speed></extensions></trkpt>
   <trkpt lat="59.2967982844" lon="34.6638036832"><ele>164.787</ele><time>2026-08-16T15:26:49.739Z</time><hdop>3.0</hdop><vdop>2.5</vdop><extensions><gom:speed>0.752</gom:speed></extensions></trkpt>
   <trkpt lat="59.2968015953" lon="34.6638067845"><ele>164.855</ele><time>2026-08-16T15:26:50.416Z</time><hdop>3.0</hdop><vdop>2.5</vdop><extensions><gom:speed>0.802</gom:speed></extensions></trkpt>
   <trkpt lat="59.2968056605" lon="34.6638090477"><ele>164.896</ele><time>2026-08-16T15:26:50.936Z</time><hdop>3.0</hdop><vdop>2.5</vdop><extensions><gom:speed>0.794</gom:speed></extensions></trkpt>
   <trkpt lat="59.2968110668" lon="34.6638120651"><ele>164.993</ele><time>2026-08-16T15:26:52.074Z</time><hdop>3.0</hdop><vdop>2.625</vdop><extensions><gom:speed>0.721</gom:speed></extensions></trkpt>
   <trkpt lat="59.2968104801" lon="34.6638137415"><ele>165.158</ele><time>2026-08-16T15:26:52.595Z</time><hdop>3.0</hdop><vdop>2.625</vdop><extensions><gom:speed>0.645</gom:speed></extensions></trkpt>
   <trkpt lat="59.2968093904" lon="34.6638184354"><ele>165.356</ele><time>2026-08-16T15:26:53.136Z</time><hdop>3.0</hdop><vdop>2.75</vdop><extensions><gom:speed>0.684</gom:speed></extensions></trkpt>
   <trkpt lat="59.2968095581" lon="34.6638296671"><ele>165.851</ele><time>2026-08-16T15:26:54.136Z</time><hdop>3.0</hdop><vdop>3.0</vdop><extensions><gom:speed>0.755</gom:speed></extensions></trkpt>
   <trkpt lat="59.2968118631" lon="34.6638400607"><ele>166.147</ele><time>2026-08-16T15:26:55.117Z</time><hdop>3.0</hdop><vdop>3.0</vdop><extensions><gom:speed>0.653</gom:speed></extensions></trkpt>
   <trkpt lat="59.2968193649" lon="34.6638641168"><ele>167.081</ele><time>2026-08-16T15:26:56.136Z</time><hdop>3.0</hdop><vdop>2.812</vdop><extensions><gom:speed>1.036</gom:speed></extensions></trkpt>
   <trkpt lat="59.2968298842" lon="34.6638734207"><ele>167.638</ele><time>2026-08-16T15:26:57.080Z</time><hdop>3.0</hdop><vdop>2.812</vdop><extensions><gom:speed>1.037</gom:speed></extensions></trkpt>
   <trkpt lat="59.2968413674" lon="34.6638782822"><ele>168.265</ele><time>2026-08-16T15:26:57.895Z</time><hdop>3.0</hdop><vdop>2.937</vdop><extensions><gom:speed>1.09</gom:speed></extensions></trkpt>
   <trkpt lat="59.2968534792" lon="34.6638830599"><ele>169.085</ele><time>2026-08-16T15:26:58.896Z</time><hdop>3.0</hdop><vdop>2.5</vdop><extensions><gom:speed>1.071</gom:speed></extensions></trkpt>
   <trkpt lat="59.2968604781" lon="34.663890855"><ele>169.933</ele><time>2026-08-16T15:26:59.612Z</time><hdop>3.0</hdop><vdop>2.625</vdop><extensions><gom:speed>1.033</gom:speed></extensions></trkpt>
   <trkpt lat="59.2968626993" lon="34.6638999913"><ele>170.44</ele><time>2026-08-16T15:27:00.152Z</time><hdop>3.0</hdop><vdop>2.625</vdop><extensions><gom:speed>1.01</gom:speed></extensions></trkpt>
   <trkpt lat="59.2968678961" lon="34.6639148273"><ele>170.826</ele><time>2026-08-16T15:27:01.136Z</time><hdop>3.0</hdop><vdop>2.562</vdop><extensions><gom:speed>1.14</gom:speed></extensions></trkpt>
   <trkpt lat="59.2968694887" lon="34.6639329322"><ele>171.057</ele><time>2026-08-16T15:27:02.135Z</time><hdop>3.0</hdop><vdop>2.562</vdop><extensions><gom:speed>1.004</gom:speed></extensions></trkpt>
   <trkpt lat="59.2968727995" lon="34.6639367879"><ele>171.728</ele><time>2026-08-16T15:27:02.635Z</time><hdop>3.0</hdop><vdop>2.5</vdop><extensions><gom:speed>0.942</gom:speed></extensions></trkpt>
   <trkpt lat="59.2968751884" lon="34.663942739"><ele>172.101</ele><time>2026-08-16T15:27:03.136Z</time><hdop>3.0</hdop><vdop>2.5</vdop><extensions><gom:speed>1.017</gom:speed></extensions></trkpt>
   <trkpt lat="59.2968749788" lon="34.6639498636"><ele>172.325</ele><time>2026-08-16T15:27:03.637Z</time><hdop>3.0</hdop><vdop>2.5</vdop><extensions><gom:speed>0.975</gom:speed></extensions></trkpt>
   <trkpt lat="59.2968767809" lon="34.6639573235"><ele>172.497</ele><time>2026-08-16T15:27:04.136Z</time><hdop>3.0</hdop><vdop>2.5</vdop><extensions><gom:speed>1.008</gom:speed></extensions></trkpt>
   <trkpt lat="59.2968783735" lon="34.6639675494"><ele>172.599</ele><time>2026-08-16T15:27:04.755Z</time><hdop>3.0</hdop><vdop>2.5</vdop><extensions><gom:speed>0.931</gom:speed></extensions></trkpt>
   <trkpt lat="59.2968815586" lon="34.6639775239"><ele>172.759</ele><time>2026-08-16T15:27:05.560Z</time><hdop>3.0</hdop><vdop>2.5</vdop><extensions><gom:speed>0.859</gom:speed></extensions></trkpt>
   <trkpt lat="59.2968839894" lon="34.6639809605"><ele>172.894</ele><time>2026-08-16T15:27:06.136Z</time><hdop>3.0</hdop><vdop>2.625</vdop><extensions><gom:speed>0.752</gom:speed></extensions></trkpt>
   <trkpt lat="59.2968841989" lon="34.6639907673"><ele>172.787</ele><time>2026-08-16T15:27:07.136Z</time><hdop>3.0</hdop><vdop>2.75</vdop><extensions><gom:speed>0.735</gom:speed></extensions></trkpt>
   <trkpt lat="59.296883696" lon="34.6640032563"><ele>172.468</ele><time>2026-08-16T15:27:08.135Z</time><hdop>3.0</hdop><vdop>2.875</vdop><extensions><gom:speed>0.728</gom:speed></extensions></trkpt>
   <trkpt lat="59.2968853724" lon="34.6640170865"><ele>172.277</ele><time>2026-08-16T15:27:09.113Z</time><hdop>3.0</hdop><vdop>2.875</vdop><extensions><gom:speed>0.749</gom:speed></extensions></trkpt>
   <trkpt lat="59.2968879708" lon="34.6640268933"><ele>172.221</ele><time>2026-08-16T15:27:09.634Z</time><hdop>3.0</hdop><vdop>3.125</vdop><extensions><gom:speed>0.833</gom:speed></extensions></trkpt>
   <trkpt lat="59.29688927" lon="34.6640317548"><ele>172.222</ele><time>2026-08-16T15:27:10.136Z</time><hdop>3.0</hdop><vdop>3.0</vdop><extensions><gom:speed>0.74</gom:speed></extensions></trkpt>
   <trkpt lat="59.2968906949" lon="34.6640411425"><ele>172.017</ele><time>2026-08-16T15:27:11.136Z</time><hdop>3.0</hdop><vdop>2.812</vdop><extensions><gom:speed>0.684</gom:speed></extensions></trkpt>
   <trkpt lat="59.2968902758" lon="34.6640498597"><ele>171.917</ele><time>2026-08-16T15:27:12.136Z</time><hdop>3.0</hdop><vdop>3.0</vdop><extensions><gom:speed>0.589</gom:speed></extensions></trkpt>
   <trkpt lat="59.29688927" lon="34.6640552241"><ele>171.871</ele><time>2026-08-16T15:27:13.136Z</time><hdop>3.0</hdop><vdop>2.875</vdop><extensions><gom:speed>0.465</gom:speed></extensions></trkpt>
   <trkpt lat="59.2968888928" lon="34.664063187"><ele>171.844</ele><time>2026-08-16T15:27:14.158Z</time><hdop>3.0</hdop><vdop>2.875</vdop><extensions><gom:speed>0.49</gom:speed></extensions></trkpt>
   <trkpt lat="59.2968910721" lon="34.6640804537"><ele>171.834</ele><time>2026-08-16T15:27:15.135Z</time><hdop>3.0</hdop><vdop>3.25</vdop><extensions><gom:speed>0.696</gom:speed></extensions></trkpt>
   <trkpt lat="59.2968914912" lon="34.6640952896"><ele>171.829</ele><time>2026-08-16T15:27:16.033Z</time><hdop>3.0</hdop><vdop>3.25</vdop><extensions><gom:speed>0.706</gom:speed></extensions></trkpt>
   <trkpt lat="59.2968929999" lon="34.664101157"><ele>171.897</ele><time>2026-08-16T15:27:16.818Z</time><hdop>3.0</hdop><vdop>3.125</vdop><extensions><gom:speed>0.521</gom:speed></extensions></trkpt>
   <trkpt lat="59.2968940896" lon="34.664109958"><ele>171.75</ele><time>2026-08-16T15:27:17.338Z</time><hdop>3.0</hdop><vdop>3.375</vdop><extensions><gom:speed>0.692</gom:speed></extensions></trkpt>
   <trkpt lat="59.2968910721" lon="34.6641167473"><ele>171.663</ele><time>2026-08-16T15:27:18.035Z</time><hdop>3.0</hdop><vdop>3.375</vdop><extensions><gom:speed>0.696</gom:speed></extensions></trkpt>
   <trkpt lat="59.2968907787" lon="34.6641382888"><ele>171.099</ele><time>2026-08-16T15:27:19.136Z</time><hdop>3.0</hdop><vdop>2.875</vdop><extensions><gom:speed>0.902</gom:speed></extensions></trkpt>
   <trkpt lat="59.2968886832" lon="34.6641532924"><ele>170.763</ele><time>2026-08-16T15:27:19.979Z</time><hdop>3.0</hdop><vdop>2.875</vdop><extensions><gom:speed>0.873</gom:speed></extensions></trkpt>
   <trkpt lat="59.2968887671" lon="34.6641616743"><ele>170.679</ele><time>2026-08-16T15:27:20.616Z</time><hdop>3.0</hdop><vdop>2.812</vdop><extensions><gom:speed>0.855</gom:speed></extensions></trkpt>
   <trkpt lat="59.2968882641" lon="34.6641718164"><ele>170.295</ele><time>2026-08-16T15:27:21.136Z</time><hdop>3.0</hdop><vdop>2.875</vdop><extensions><gom:speed>0.894</gom:speed></extensions></trkpt>
   <trkpt lat="59.2968875936" lon="34.6641905919"><ele>169.939</ele><time>2026-08-16T15:27:22.136Z</time><hdop>3.0</hdop><vdop>3.0</vdop><extensions><gom:speed>0.845</gom:speed></extensions></trkpt>
   <trkpt lat="59.2968911978" lon="34.6642115466"><ele>169.306</ele><time>2026-08-16T15:27:23.136Z</time><hdop>3.0</hdop><vdop>2.937</vdop><extensions><gom:speed>1.032</gom:speed></extensions></trkpt>
   <trkpt lat="59.2968959755" lon="34.6642233651"><ele>168.928</ele><time>2026-08-16T15:27:23.777Z</time><hdop>3.0</hdop><vdop>2.937</vdop><extensions><gom:speed>0.95</gom:speed></extensions></trkpt>
   <trkpt lat="59.2968998731" lon="34.6642301545"><ele>168.422</ele><time>2026-08-16T15:27:24.278Z</time><hdop>3.0</hdop><vdop>3.125</vdop><extensions><gom:speed>1.003</gom:speed></extensions></trkpt>
   <trkpt lat="59.2969037707" lon="34.6642411348"><ele>168.119</ele><time>2026-08-16T15:27:25.014Z</time><hdop>3.0</hdop><vdop>3.125</vdop><extensions><gom:speed>0.959</gom:speed></extensions></trkpt>
   <trkpt lat="59.2969104762" lon="34.6642366924"><ele>167.155</ele><time>2026-08-16T15:27:25.799Z</time><hdop>3.0</hdop><vdop>3.187</vdop><extensions><gom:speed>0.827</gom:speed></extensions></trkpt>
   <trkpt lat="59.2969168883" lon="34.6642225269"><ele>167.567</ele><time>2026-08-16T15:27:26.496Z</time><hdop>3.0</hdop><vdop>3.25</vdop><extensions><gom:speed>0.808</gom:speed></extensions></trkpt>
   <trkpt lat="59.2969227976" lon="34.6642105408"><ele>166.791</ele><time>2026-08-16T15:27:27.136Z</time><hdop>3.0</hdop><vdop>3.625</vdop><extensions><gom:speed>0.93</gom:speed></extensions></trkpt>
   <trkpt lat="59.296931892" lon="34.6642020751"><ele>166.364</ele><time>2026-08-16T15:27:28.136Z</time><hdop>3.0</hdop><vdop>3.875</vdop><extensions><gom:speed>0.85</gom:speed></extensions></trkpt>
   <trkpt lat="59.2969397709" lon="34.6642010693"><ele>166.058</ele><time>2026-08-16T15:27:29.136Z</time><hdop>3.0</hdop><vdop>4.25</vdop><extensions><gom:speed>0.842</gom:speed></extensions></trkpt>
   <trkpt lat="59.2969487815" lon="34.6641899213"><ele>165.878</ele><time>2026-08-16T15:27:30.136Z</time><hdop>3.0</hdop><vdop>3.937</vdop><extensions><gom:speed>1.03</gom:speed></extensions></trkpt>
   <trkpt lat="59.2969539783" lon="34.6641707268"><ele>165.559</ele><time>2026-08-16T15:27:31.136Z</time><hdop>3.0</hdop><vdop>3.687</vdop><extensions><gom:speed>0.854</gom:speed></extensions></trkpt>
   <trkpt lat="59.2969569958" lon="34.6641475927"><ele>164.73</ele><time>2026-08-16T15:27:32.135Z</time><hdop>3.0</hdop><vdop>3.875</vdop><extensions><gom:speed>1.176</gom:speed></extensions></trkpt>
   <trkpt lat="59.2969593846" lon="34.6641276438"><ele>164.235</ele><time>2026-08-16T15:27:33.121Z</time><hdop>3.062</hdop><vdop>3.875</vdop><extensions><gom:speed>1.033</gom:speed></extensions></trkpt>
   <trkpt lat="59.2969584626" lon="34.6641139813"><ele>163.872</ele><time>2026-08-16T15:27:33.837Z</time><hdop>3.062</hdop><vdop>3.875</vdop><extensions><gom:speed>0.916</gom:speed></extensions></trkpt>
   <trkpt lat="59.2969585883" lon="34.6641104609"><ele>164.345</ele><time>2026-08-16T15:27:34.318Z</time><hdop>3.062</hdop><vdop>4.0</vdop><extensions><gom:speed>1.015</gom:speed></extensions></trkpt>
   <trkpt lat="59.2969598875" lon="34.6641153224"><ele>164.662</ele><time>2026-08-16T15:27:35.136Z</time><hdop>3.062</hdop><vdop>4.437</vdop><extensions><gom:speed>0.723</gom:speed></extensions></trkpt>
   <trkpt lat="59.2969581692" lon="34.6641273923"><ele>164.965</ele><time>2026-08-16T15:27:36.136Z</time><hdop>3.062</hdop><vdop>4.812</vdop><extensions><gom:speed>0.723</gom:speed></extensions></trkpt>
   <trkpt lat="59.2969557804" lon="34.6641436532"><ele>164.923</ele><time>2026-08-16T15:27:37.135Z</time><hdop>3.062</hdop><vdop>3.187</vdop><extensions><gom:speed>0.687</gom:speed></extensions></trkpt>
   <trkpt lat="59.2969557804" lon="34.6641561423"><ele>164.898</ele><time>2026-08-16T15:27:38.136Z</time><hdop>3.0</hdop><vdop>3.187</vdop><extensions><gom:speed>0.633</gom:speed></extensions></trkpt>
   <trkpt lat="59.296959175" lon="34.6641763426"><ele>164.669</ele><time>2026-08-16T15:27:39.136Z</time><hdop>3.0</hdop><vdop>3.375</vdop><extensions><gom:speed>0.828</gom:speed></extensions></trkpt>
   <trkpt lat="59.2969607676" lon="34.664184054"><ele>164.533</ele><time>2026-08-16T15:27:39.677Z</time><hdop>3.0</hdop><vdop>3.375</vdop><extensions><gom:speed>0.741</gom:speed></extensions></trkpt>
   <trkpt lat="59.2969616896" lon="34.6641922683"><ele>164.554</ele><time>2026-08-16T15:27:40.136Z</time><hdop>3.0</hdop><vdop>3.437</vdop><extensions><gom:speed>0.767</gom:speed></extensions></trkpt>
   <trkpt lat="59.2969644976" lon="34.6642006502"><ele>164.567</ele><time>2026-08-16T15:27:40.757Z</time><hdop>3.0</hdop><vdop>3.437</vdop><extensions><gom:speed>0.767</gom:speed></extensions></trkpt>
   <trkpt lat="59.2969664673" lon="34.6642133907"><ele>164.57</ele><time>2026-08-16T15:27:41.513Z</time><hdop>3.0</hdop><vdop>2.812</vdop><extensions><gom:speed>0.77</gom:speed></extensions></trkpt>
   <trkpt lat="59.2969664673" lon="34.6642232813"><ele>164.035</ele><time>2026-08-16T15:27:42.136Z</time><hdop>3.0</hdop><vdop>2.687</vdop><extensions><gom:speed>0.71</gom:speed></extensions></trkpt>
   <trkpt lat="59.2969690657" lon="34.6642364409"><ele>163.716</ele><time>2026-08-16T15:27:43.093Z</time><hdop>3.0</hdop><vdop>2.687</vdop><extensions><gom:speed>0.724</gom:speed></extensions></trkpt>
   <trkpt lat="59.2969733824" lon="34.664255384"><ele>164.077</ele><time>2026-08-16T15:27:43.976Z</time><hdop>3.0</hdop><vdop>2.875</vdop><extensions><gom:speed>0.88</gom:speed></extensions></trkpt>
   <trkpt lat="59.2969778667" lon="34.6642795239"><ele>163.945</ele><time>2026-08-16T15:27:45.136Z</time><hdop>3.0</hdop><vdop>3.0</vdop><extensions><gom:speed>0.877</gom:speed></extensions></trkpt>
   <trkpt lat="59.29697728" lon="34.6642861456"><ele>163.962</ele><time>2026-08-16T15:27:46.136Z</time><hdop>3.0</hdop><vdop>3.062</vdop><extensions><gom:speed>0.598</gom:speed></extensions></trkpt>
   <trkpt lat="59.2969726699" lon="34.6642978802"><ele>163.781</ele><time>2026-08-16T15:27:47.136Z</time><hdop>3.0</hdop><vdop>3.312</vdop><extensions><gom:speed>0.739</gom:speed></extensions></trkpt>
   <trkpt lat="59.2969699877" lon="34.6643102855"><ele>163.673</ele><time>2026-08-16T15:27:47.961Z</time><hdop>3.0</hdop><vdop>3.312</vdop><extensions><gom:speed>0.714</gom:speed></extensions></trkpt>
   <trkpt lat="59.296969862" lon="34.6643196732"><ele>163.358</ele><time>2026-08-16T15:27:48.697Z</time><hdop>3.0</hdop><vdop>3.437</vdop><extensions><gom:speed>0.717</gom:speed></extensions></trkpt>
   <trkpt lat="59.2969717898" lon="34.664327636"><ele>163.539</ele><time>2026-08-16T15:27:49.492Z</time><hdop>3.0</hdop><vdop>2.937</vdop><extensions><gom:speed>0.734</gom:speed></extensions></trkpt>
   <trkpt lat="59.2969729633" lon="34.6643352635"><ele>163.84</ele><time>2026-08-16T15:27:50.136Z</time><hdop>3.0</hdop><vdop>2.937</vdop><extensions><gom:speed>0.712</gom:speed></extensions></trkpt>
   <trkpt lat="59.2969740948" lon="34.6643457409"><ele>163.671</ele><time>2026-08-16T15:27:51.136Z</time><hdop>3.0</hdop><vdop>2.937</vdop><extensions><gom:speed>0.632</gom:speed></extensions></trkpt>
   <trkpt lat="59.2969773638" lon="34.6643582299"><ele>163.547</ele><time>2026-08-16T15:27:52.136Z</time><hdop>3.0</hdop><vdop>3.125</vdop><extensions><gom:speed>0.781</gom:speed></extensions></trkpt>
   <trkpt lat="59.2969797945" lon="34.6643654384"><ele>163.473</ele><time>2026-08-16T15:27:52.613Z</time><hdop>3.0</hdop><vdop>3.125</vdop><extensions><gom:speed>0.79</gom:speed></extensions></trkpt>
   <trkpt lat="59.2969804651" lon="34.6643710543"><ele>163.455</ele><time>2026-08-16T15:27:53.136Z</time><hdop>3.0</hdop><vdop>2.937</vdop><extensions><gom:speed>0.708</gom:speed></extensions></trkpt>
   <trkpt lat="59.2969817643" lon="34.6643783465"><ele>163.444</ele><time>2026-08-16T15:27:53.780Z</time><hdop>3.0</hdop><vdop>2.937</vdop><extensions><gom:speed>0.71</gom:speed></extensions></trkpt>
   <trkpt lat="59.2969831892" lon="34.6643878181"><ele>163.555</ele><time>2026-08-16T15:27:54.380Z</time><hdop>3.0</hdop><vdop>3.062</vdop><extensions><gom:speed>0.78</gom:speed></extensions></trkpt>
   <trkpt lat="59.2969848656" lon="34.6643987984"><ele>163.622</ele><time>2026-08-16T15:27:55.096Z</time><hdop>3.0</hdop><vdop>3.062</vdop><extensions><gom:speed>0.771</gom:speed></extensions></trkpt>
   <trkpt lat="59.2969879669" lon="34.6644140534"><ele>163.55</ele><time>2026-08-16T15:27:56.136Z</time><hdop>3.0</hdop><vdop>3.375</vdop><extensions><gom:speed>0.759</gom:speed></extensions></trkpt>
   <trkpt lat="59.2969891823" lon="34.6644228544"><ele>163.507</ele><time>2026-08-16T15:27:56.755Z</time><hdop>3.0</hdop><vdop>3.375</vdop><extensions><gom:speed>0.749</gom:speed></extensions></trkpt>
   <trkpt lat="59.2969892661" lon="34.6644338347"><ele>163.49</ele><time>2026-08-16T15:27:57.433Z</time><hdop>3.0</hdop><vdop>3.687</vdop><extensions><gom:speed>0.783</gom:speed></extensions></trkpt>
   <trkpt lat="59.2969893918" lon="34.6644452341"><ele>163.403</ele><time>2026-08-16T15:27:58.139Z</time><hdop>3.0</hdop><vdop>3.875</vdop><extensions><gom:speed>0.787</gom:speed></extensions></trkpt>
   <trkpt lat="59.2969917807" lon="34.6644565497"><ele>163.351</ele><time>2026-08-16T15:27:58.856Z</time><hdop>3.0</hdop><vdop>3.875</vdop><extensions><gom:speed>0.816</gom:speed></extensions></trkpt>
   <trkpt lat="59.2969964745" lon="34.66446753"><ele>163.242</ele><time>2026-08-16T15:27:59.718Z</time><hdop>3.0</hdop><vdop>4.0</vdop><extensions><gom:speed>0.816</gom:speed></extensions></trkpt>
   <trkpt lat="59.2969989891" lon="34.664473984"><ele>163.019</ele><time>2026-08-16T15:28:00.299Z</time><hdop>3.0</hdop><vdop>3.5</vdop><extensions><gom:speed>0.782</gom:speed></extensions></trkpt>
   <trkpt lat="59.2970021742" lon="34.6644844614"><ele>162.893</ele><time>2026-08-16T15:28:01.136Z</time><hdop>3.0</hdop><vdop>2.562</vdop><extensions><gom:speed>0.84</gom:speed></extensions></trkpt>
   <trkpt lat="59.2970070776" lon="34.6644946873"><ele>162.827</ele><time>2026-08-16T15:28:02.136Z</time><hdop>3.0</hdop><vdop>2.562</vdop><extensions><gom:speed>0.777</gom:speed></extensions></trkpt>
   <trkpt lat="59.2970140765" lon="34.6644998841"><ele>162.788</ele><time>2026-08-16T15:28:02.979Z</time><hdop>3.0</hdop><vdop>2.562</vdop><extensions><gom:speed>0.826</gom:speed></extensions></trkpt>
   <trkpt lat="59.2970197762" lon="34.6644999679"><ele>162.923</ele><time>2026-08-16T15:28:03.637Z</time><hdop>3.0</hdop><vdop>2.625</vdop><extensions><gom:speed>0.855</gom:speed></extensions></trkpt>
   <trkpt lat="59.2970206982" lon="34.6644997165"><ele>163.02</ele><time>2026-08-16T15:28:04.136Z</time><hdop>3.0</hdop><vdop>2.625</vdop><extensions><gom:speed>0.595</gom:speed></extensions></trkpt>
   <trkpt lat="59.2970245958" lon="34.6645072602"><ele>162.965</ele><time>2026-08-16T15:28:05.136Z</time><hdop>3.0</hdop><vdop>2.687</vdop><extensions><gom:speed>0.771</gom:speed></extensions></trkpt>
   <trkpt lat="59.2970293735" lon="34.6645151392"><ele>162.932</ele><time>2026-08-16T15:28:05.953Z</time><hdop>3.0</hdop><vdop>2.687</vdop><extensions><gom:speed>0.776</gom:speed></extensions></trkpt>
   <trkpt lat="59.2970345703" lon="34.664517989"><ele>162.96</ele><time>2026-08-16T15:28:06.679Z</time><hdop>3.0</hdop><vdop>2.687</vdop><extensions><gom:speed>0.816</gom:speed></extensions></trkpt>
   <trkpt lat="59.2970377973" lon="34.6645187434"><ele>162.869</ele><time>2026-08-16T15:28:07.136Z</time><hdop>3.0</hdop><vdop>2.75</vdop><extensions><gom:speed>0.77</gom:speed></extensions></trkpt>
   <trkpt lat="59.2970463888" lon="34.6645217609"><ele>163.272</ele><time>2026-08-16T15:28:08.136Z</time><hdop>3.0</hdop><vdop>2.75</vdop><extensions><gom:speed>0.804</gom:speed></extensions></trkpt>
   <trkpt lat="59.2970516694" lon="34.6645272929"><ele>163.512</ele><time>2026-08-16T15:28:08.819Z</time><hdop>3.0</hdop><vdop>2.75</vdop><extensions><gom:speed>0.839</gom:speed></extensions></trkpt>
   <trkpt lat="59.2970549802" lon="34.6645303942"><ele>163.785</ele><time>2026-08-16T15:28:09.300Z</time><hdop>3.0</hdop><vdop>2.625</vdop><extensions><gom:speed>0.82</gom:speed></extensions></trkpt>
   <trkpt lat="59.2970596741" lon="34.6645401172"><ele>163.948</ele><time>2026-08-16T15:28:10.017Z</time><hdop>3.0</hdop><vdop>2.625</vdop><extensions><gom:speed>0.914</gom:speed></extensions></trkpt>
   <trkpt lat="59.2970637812" lon="34.6645514328"><ele>164.224</ele><time>2026-08-16T15:28:10.694Z</time><hdop>3.0</hdop><vdop>2.875</vdop><extensions><gom:speed>0.974</gom:speed></extensions></trkpt>
   <trkpt lat="59.2970677626" lon="34.6645624969"><ele>164.217</ele><time>2026-08-16T15:28:11.420Z</time><hdop>3.0</hdop><vdop>2.75</vdop><extensions><gom:speed>0.998</gom:speed></extensions></trkpt>
   <trkpt lat="59.2970706963" lon="34.664574986"><ele>164.128</ele><time>2026-08-16T15:28:12.136Z</time><hdop>3.0</hdop><vdop>2.625</vdop><extensions><gom:speed>0.964</gom:speed></extensions></trkpt>
   <trkpt lat="59.2970727917" lon="34.6645858824"><ele>164.075</ele><time>2026-08-16T15:28:12.793Z</time><hdop>3.0</hdop><vdop>2.625</vdop><extensions><gom:speed>0.96</gom:speed></extensions></trkpt>
   <trkpt lat="59.2970751806" lon="34.6646003831"><ele>163.886</ele><time>2026-08-16T15:28:13.678Z</time><hdop>3.0</hdop><vdop>2.625</vdop><extensions><gom:speed>0.915</gom:speed></extensions></trkpt>
   <trkpt lat="59.2970762702" lon="34.6646074239"><ele>163.531</ele><time>2026-08-16T15:28:14.136Z</time><hdop>3.0</hdop><vdop>2.5</vdop><extensions><gom:speed>0.888</gom:speed></extensions></trkpt>
   <trkpt lat="59.2970781981" lon="34.6646172308"><ele>163.319</ele><time>2026-08-16T15:28:14.698Z</time><hdop>3.0</hdop><vdop>2.5</vdop><extensions><gom:speed>0.946</gom:speed></extensions></trkpt>
   <trkpt lat="59.2970815927" lon="34.6646287978"><ele>163.217</ele><time>2026-08-16T15:28:15.454Z</time><hdop>3.0</hdop><vdop>2.5</vdop><extensions><gom:speed>0.907</gom:speed></extensions></trkpt>
   <trkpt lat="59.2970845683" lon="34.6646391913"><ele>163.36</ele><time>2026-08-16T15:28:16.136Z</time><hdop>3.0</hdop><vdop>2.5</vdop><extensions><gom:speed>0.887</gom:speed></extensions></trkpt>
   <trkpt lat="59.2970871667" lon="34.6646524347"><ele>163.445</ele><time>2026-08-16T15:28:16.995Z</time><hdop>3.0</hdop><vdop>2.5</vdop><extensions><gom:speed>0.869</gom:speed></extensions></trkpt>
   <trkpt lat="59.2970898908" lon="34.6646655943"><ele>163.189</ele><time>2026-08-16T15:28:17.760Z</time><hdop>3.0</hdop><vdop>2.625</vdop><extensions><gom:speed>0.908</gom:speed></extensions></trkpt>
   <trkpt lat="59.2970904776" lon="34.6646767423"><ele>162.607</ele><time>2026-08-16T15:28:18.595Z</time><hdop>3.0</hdop><vdop>2.5</vdop><extensions><gom:speed>0.878</gom:speed></extensions></trkpt>
   <trkpt lat="59.2970907709" lon="34.6646844536"><ele>162.26</ele><time>2026-08-16T15:28:19.076Z</time><hdop>3.0</hdop><vdop>2.5</vdop><extensions><gom:speed>0.871</gom:speed></extensions></trkpt>
   <trkpt lat="59.2970923635" lon="34.6646979485"><ele>162.047</ele><time>2026-08-16T15:28:19.959Z</time><hdop>3.0</hdop><vdop>2.5</vdop><extensions><gom:speed>0.847</gom:speed></extensions></trkpt>
   <trkpt lat="59.2970937884" lon="34.6647123654"><ele>162.032</ele><time>2026-08-16T15:28:20.901Z</time><hdop>3.0</hdop><vdop>2.5</vdop><extensions><gom:speed>0.822</gom:speed></extensions></trkpt>
   <trkpt lat="59.2970940818" lon="34.6647234295"><ele>162.302</ele><time>2026-08-16T15:28:22.060Z</time><hdop>3.0</hdop><vdop>2.5</vdop><extensions><gom:speed>0.65</gom:speed></extensions></trkpt>
   <trkpt lat="59.2970978955" lon="34.6647367567"><ele>162.531</ele><time>2026-08-16T15:28:22.678Z</time><hdop>3.0</hdop><vdop>2.5</vdop><extensions><gom:speed>0.874</gom:speed></extensions></trkpt>
   <trkpt lat="59.29710326" lon="34.6647428755"><ele>163.26</ele><time>2026-08-16T15:28:23.136Z</time><hdop>3.0</hdop><vdop>2.562</vdop><extensions><gom:speed>1.084</gom:speed></extensions></trkpt>
   <trkpt lat="59.2971089597" lon="34.6647454739"><ele>163.696</ele><time>2026-08-16T15:28:23.620Z</time><hdop>3.0</hdop><vdop>2.562</vdop><extensions><gom:speed>0.999</gom:speed></extensions></trkpt>
   <trkpt lat="59.297115288" lon="34.6647463959"><ele>164.076</ele><time>2026-08-16T15:28:24.136Z</time><hdop>3.0</hdop><vdop>2.5</vdop><extensions><gom:speed>1.007</gom:speed></extensions></trkpt>
   <trkpt lat="59.2971228736" lon="34.6647545263"><ele>164.304</ele><time>2026-08-16T15:28:25.033Z</time><hdop>3.0</hdop><vdop>2.5</vdop><extensions><gom:speed>0.963</gom:speed></extensions></trkpt>
   <trkpt lat="59.2971273998" lon="34.664766261"><ele>164.702</ele><time>2026-08-16T15:28:26.136Z</time><hdop>3.0</hdop><vdop>2.5</vdop><extensions><gom:speed>0.851</gom:speed></extensions></trkpt>
   <trkpt lat="59.2971306688" lon="34.6647765707"><ele>164.941</ele><time>2026-08-16T15:28:26.898Z</time><hdop>3.0</hdop><vdop>2.5</vdop><extensions><gom:speed>0.88</gom:speed></extensions></trkpt>
   <trkpt lat="59.2971344826" lon="34.6647863776"><ele>165.304</ele><time>2026-08-16T15:28:27.693Z</time><hdop>3.0</hdop><vdop>2.5</vdop><extensions><gom:speed>0.896</gom:speed></extensions></trkpt>
   <trkpt lat="59.297136578" lon="34.6647943404"><ele>165.353</ele><time>2026-08-16T15:28:28.382Z</time><hdop>3.0</hdop><vdop>2.5</vdop><extensions><gom:speed>0.834</gom:speed></extensions></trkpt>
   <trkpt lat="59.297139386" lon="34.6648041472"><ele>165.383</ele><time>2026-08-16T15:28:29.118Z</time><hdop>3.0</hdop><vdop>2.5</vdop><extensions><gom:speed>0.833</gom:speed></extensions></trkpt>
   <trkpt lat="59.297141691" lon="34.6648156304"><ele>165.09</ele><time>2026-08-16T15:28:30.001Z</time><hdop>3.0</hdop><vdop>2.5</vdop><extensions><gom:speed>0.814</gom:speed></extensions></trkpt>
   <trkpt lat="59.2971411881" lon="34.6648268622"><ele>164.912</ele><time>2026-08-16T15:28:30.796Z</time><hdop>3.0</hdop><vdop>2.5</vdop><extensions><gom:speed>0.819</gom:speed></extensions></trkpt>
   <trkpt lat="59.2971414814" lon="34.6648392674"><ele>164.801</ele><time>2026-08-16T15:28:31.640Z</time><hdop>3.0</hdop><vdop>2.5</vdop><extensions><gom:speed>0.833</gom:speed></extensions></trkpt>
   <trkpt lat="59.2971421939" lon="34.6648460567"><ele>164.754</ele><time>2026-08-16T15:28:32.136Z</time><hdop>3.0</hdop><vdop>2.5</vdop><extensions><gom:speed>0.806</gom:speed></extensions></trkpt>
   <trkpt lat="59.2971455886" lon="34.6648598869"><ele>164.725</ele><time>2026-08-16T15:28:33.014Z</time><hdop>3.0</hdop><vdop>2.5</vdop><extensions><gom:speed>0.887</gom:speed></extensions></trkpt>
   <trkpt lat="59.2971491928" lon="34.6648730464"><ele>164.693</ele><time>2026-08-16T15:28:33.997Z</time><hdop>3.0</hdop><vdop>2.5</vdop><extensions><gom:speed>0.892</gom:speed></extensions></trkpt>
   <trkpt lat="59.2971506596" lon="34.6648828533"><ele>164.688</ele><time>2026-08-16T15:28:34.900Z</time><hdop>3.0</hdop><vdop>2.5</vdop><extensions><gom:speed>0.796</gom:speed></extensions></trkpt>
   <trkpt lat="59.2971508692" lon="34.6648847811"><ele>164.8</ele><time>2026-08-16T15:28:35.440Z</time><hdop>3.0</hdop><vdop>2.5</vdop><extensions><gom:speed>0.618</gom:speed></extensions></trkpt>
   <trkpt lat="59.2971530904" lon="34.6648898941"><ele>165.0</ele><time>2026-08-16T15:28:36.136Z</time><hdop>3.0</hdop><vdop>2.5</vdop><extensions><gom:speed>0.636</gom:speed></extensions></trkpt>
   <trkpt lat="59.2971559821" lon="34.6648958452"><ele>165.12</ele><time>2026-08-16T15:28:36.775Z</time><hdop>3.0</hdop><vdop>2.5</vdop><extensions><gom:speed>0.66</gom:speed></extensions></trkpt>
   <trkpt lat="59.2971591673" lon="34.664907077"><ele>165.067</ele><time>2026-08-16T15:28:37.776Z</time><hdop>3.0</hdop><vdop>2.5</vdop><extensions><gom:speed>0.674</gom:speed></extensions></trkpt>
   <trkpt lat="59.2971597959" lon="34.6649192307"><ele>165.131</ele><time>2026-08-16T15:28:38.954Z</time><hdop>3.0</hdop><vdop>2.5</vdop><extensions><gom:speed>0.566</gom:speed></extensions></trkpt>
   <trkpt lat="59.2971585805" lon="34.6649290376"><ele>165.27</ele><time>2026-08-16T15:28:39.739Z</time><hdop>3.0</hdop><vdop>2.562</vdop><extensions><gom:speed>0.63</gom:speed></extensions></trkpt>
   <trkpt lat="59.2971587901" lon="34.6649396826"><ele>165.647</ele><time>2026-08-16T15:28:40.416Z</time><hdop>3.0</hdop><vdop>2.562</vdop><extensions><gom:speed>0.724</gom:speed></extensions></trkpt>
   <trkpt lat="59.2971597959" lon="34.6649507467"><ele>165.655</ele><time>2026-08-16T15:28:41.136Z</time><hdop>3.0</hdop><vdop>2.625</vdop><extensions><gom:speed>0.728</gom:speed></extensions></trkpt>
   <trkpt lat="59.2971611789" lon="34.6649616432"><ele>165.661</ele><time>2026-08-16T15:28:41.800Z</time><hdop>3.0</hdop><vdop>2.625</vdop><extensions><gom:speed>0.808</gom:speed></extensions></trkpt>
   <trkpt lat="59.2971610951" lon="34.66497606"><ele>165.742</ele><time>2026-08-16T15:28:42.781Z</time><hdop>3.0</hdop><vdop>2.562</vdop><extensions><gom:speed>0.794</gom:speed></extensions></trkpt>
   <trkpt lat="59.2971610951" lon="34.6649939973"><ele>165.755</ele><time>2026-08-16T15:28:43.979Z</time><hdop>3.0</hdop><vdop>2.562</vdop><extensions><gom:speed>0.79</gom:speed></extensions></trkpt>
   <trkpt lat="59.2971573651" lon="34.6650082465"><ele>165.83</ele><time>2026-08-16T15:28:45.019Z</time><hdop>3.0</hdop><vdop>2.687</vdop><extensions><gom:speed>0.785</gom:speed></extensions></trkpt>
   <trkpt lat="59.2971537609" lon="34.6650144491"><ele>165.631</ele><time>2026-08-16T15:28:45.638Z</time><hdop>3.0</hdop><vdop>2.687</vdop><extensions><gom:speed>0.798</gom:speed></extensions></trkpt>
   <trkpt lat="59.2971502824" lon="34.6650185563"><ele>165.247</ele><time>2026-08-16T15:28:46.136Z</time><hdop>3.0</hdop><vdop>2.687</vdop><extensions><gom:speed>0.756</gom:speed></extensions></trkpt>
   <trkpt lat="59.2971451695" lon="34.6650267705"><ele>165.017</ele><time>2026-08-16T15:28:46.894Z</time><hdop>3.0</hdop><vdop>2.687</vdop><extensions><gom:speed>0.827</gom:speed></extensions></trkpt>
   <trkpt lat="59.2971396793" lon="34.6650344819"><ele>164.527</ele><time>2026-08-16T15:28:47.640Z</time><hdop>3.0</hdop><vdop>2.625</vdop><extensions><gom:speed>0.855</gom:speed></extensions></trkpt>
   <trkpt lat="59.2971361589" lon="34.6650412712"><ele>164.442</ele><time>2026-08-16T15:28:48.136Z</time><hdop>3.0</hdop><vdop>2.5</vdop><extensions><gom:speed>0.86</gom:speed></extensions></trkpt>
   <trkpt lat="59.2971318842" lon="34.6650579512"><ele>164.572</ele><time>2026-08-16T15:28:49.136Z</time><hdop>3.0</hdop><vdop>2.75</vdop><extensions><gom:speed>0.843</gom:speed></extensions></trkpt>
   <trkpt lat="59.2971312974" lon="34.6650721166"><ele>164.649</ele><time>2026-08-16T15:28:49.995Z</time><hdop>3.0</hdop><vdop>2.75</vdop><extensions><gom:speed>0.841</gom:speed></extensions></trkpt>
   <trkpt lat="59.2971323871" lon="34.6650829293"><ele>164.764</ele><time>2026-08-16T15:28:50.632Z</time><hdop>3.0</hdop><vdop>2.687</vdop><extensions><gom:speed>0.856</gom:speed></extensions></trkpt>
   <trkpt lat="59.2971333929" lon="34.6650917303"><ele>164.941</ele><time>2026-08-16T15:28:51.136Z</time><hdop>3.0</hdop><vdop>2.812</vdop><extensions><gom:speed>0.822</gom:speed></extensions></trkpt>
   <trkpt lat="59.2971361589" lon="34.6651070692"><ele>164.911</ele><time>2026-08-16T15:28:52.136Z</time><hdop>3.0</hdop><vdop>2.562</vdop><extensions><gom:speed>0.798</gom:speed></extensions></trkpt>
   <trkpt lat="59.297139386" lon="34.6651220728"><ele>164.971</ele><time>2026-08-16T15:28:53.135Z</time><hdop>3.0</hdop><vdop>2.812</vdop><extensions><gom:speed>0.796</gom:speed></extensions></trkpt>
   <trkpt lat="59.2971412719" lon="34.6651308738"><ele>165.007</ele><time>2026-08-16T15:28:53.676Z</time><hdop>3.0</hdop><vdop>2.812</vdop><extensions><gom:speed>0.851</gom:speed></extensions></trkpt>
   <trkpt lat="59.2971427806" lon="34.6651377469"><ele>165.047</ele><time>2026-08-16T15:28:54.136Z</time><hdop>3.0</hdop><vdop>2.875</vdop><extensions><gom:speed>0.828</gom:speed></extensions></trkpt>
   <trkpt lat="59.2971443732" lon="34.6651474699"><ele>165.071</ele><time>2026-08-16T15:28:54.755Z</time><hdop>3.0</hdop><vdop>2.875</vdop><extensions><gom:speed>0.853</gom:speed></extensions></trkpt>
   <trkpt lat="59.2971449599" lon="34.6651559357"><ele>164.873</ele><time>2026-08-16T15:28:55.354Z</time><hdop>3.0</hdop><vdop>2.687</vdop><extensions><gom:speed>0.844</gom:speed></extensions></trkpt>
   <trkpt lat="59.2971457981" lon="34.665165491"><ele>164.817</ele><time>2026-08-16T15:28:56.136Z</time><hdop>3.0</hdop><vdop>2.687</vdop><extensions><gom:speed>0.768</gom:speed></extensions></trkpt>
   <trkpt lat="59.2971461753" lon="34.6651773933"><ele>164.783</ele><time>2026-08-16T15:28:56.915Z</time><hdop>3.0</hdop><vdop>2.687</vdop><extensions><gom:speed>0.823</gom:speed></extensions></trkpt>
   <trkpt lat="59.2971432836" lon="34.6651779801"><ele>164.636</ele><time>2026-08-16T15:28:58.136Z</time><hdop>3.0</hdop><vdop>2.75</vdop><extensions><gom:speed>0.391</gom:speed></extensions></trkpt>
   <trkpt lat="59.2971420682" lon="34.6651732862"><ele>164.544</ele><time>2026-08-16T15:28:59.136Z</time><hdop>3.0</hdop><vdop>2.937</vdop><extensions><gom:speed>0.185</gom:speed></extensions></trkpt>
   <trkpt lat="59.2971418586" lon="34.6651677542"><ele>164.487</ele><time>2026-08-16T15:29:00.136Z</time><hdop>3.0</hdop><vdop>2.75</vdop><extensions><gom:speed>0.113</gom:speed></extensions></trkpt>
   <trkpt lat="59.297141691" lon="34.6651649881"><ele>164.438</ele><time>2026-08-16T15:29:01.136Z</time><hdop>3.0</hdop><vdop>2.562</vdop><extensions><gom:speed>0.075</gom:speed></extensions></trkpt>
   <trkpt lat="59.2971420682" lon="34.6651631441"><ele>164.417</ele><time>2026-08-16T15:29:02.136Z</time><hdop>3.0</hdop><vdop>2.5</vdop><extensions><gom:speed>0.063</gom:speed></extensions></trkpt>
   <trkpt lat="59.2971424873" lon="34.665162725"><ele>164.407</ele><time>2026-08-16T15:29:03.135Z</time><hdop>3.0</hdop><vdop>2.5</vdop><extensions><gom:speed>0.087</gom:speed></extensions></trkpt>
   <trkpt lat="59.2971426968" lon="34.6651621383"><ele>164.406</ele><time>2026-08-16T15:29:04.136Z</time><hdop>3.0</hdop><vdop>2.5</vdop><extensions><gom:speed>0.092</gom:speed></extensions></trkpt>
   <trkpt lat="59.2971428645" lon="34.6651617192"><ele>164.398</ele><time>2026-08-16T15:29:05.136Z</time><hdop>3.0</hdop><vdop>2.5</vdop><extensions><gom:speed>0.062</gom:speed></extensions></trkpt>
   <trkpt lat="59.2971431997" lon="34.665162725"><ele>164.214</ele><time>2026-08-16T15:29:06.136Z</time><hdop>3.0</hdop><vdop>2.5</vdop><extensions><gom:speed>0.093</gom:speed></extensions></trkpt>
   <trkpt lat="59.2971431997" lon="34.6651665807"><ele>164.127</ele><time>2026-08-16T15:29:07.136Z</time><hdop>3.0</hdop><vdop>2.5</vdop><extensions><gom:speed>0.172</gom:speed></extensions></trkpt>
   <trkpt lat="59.2971431997" lon="34.6651672512"><ele>164.075</ele><time>2026-08-16T15:29:07.691Z</time><hdop>3.0</hdop><vdop>2.5</vdop><extensions><gom:speed>0.123</gom:speed></extensions></trkpt>
   <trkpt lat="59.2971443732" lon="34.6651730348"><ele>164.076</ele><time>2026-08-16T15:29:08.908Z</time><hdop>3.0</hdop><vdop>2.5</vdop><extensions><gom:speed>0.148</gom:speed></extensions></trkpt>
   <trkpt lat="59.2971457981" lon="34.6651814167"><ele>163.92</ele><time>2026-08-16T15:29:09.723Z</time><hdop>3.0</hdop><vdop>2.562</vdop><extensions><gom:speed>0.22</gom:speed></extensions></trkpt>
   <trkpt lat="59.2971452952" lon="34.6651980966"><ele>163.715</ele><time>2026-08-16T15:29:10.547Z</time><hdop>3.0</hdop><vdop>2.75</vdop><extensions><gom:speed>0.418</gom:speed></extensions></trkpt>
   <trkpt lat="59.2971432836" lon="34.665208574"><ele>163.507</ele><time>2026-08-16T15:29:11.136Z</time><hdop>3.0</hdop><vdop>2.937</vdop><extensions><gom:speed>0.389</gom:speed></extensions></trkpt>
   <trkpt lat="59.2971386735" lon="34.6652221527"><ele>163.324</ele><time>2026-08-16T15:29:12.136Z</time><hdop>3.0</hdop><vdop>2.875</vdop><extensions><gom:speed>0.303</gom:speed></extensions></trkpt>
   <trkpt lat="59.2971355722" lon="34.6652332168"><ele>163.197</ele><time>2026-08-16T15:29:13.136Z</time><hdop>3.0</hdop><vdop>2.937</vdop><extensions><gom:speed>0.215</gom:speed></extensions></trkpt>
   <trkpt lat="59.2971329738" lon="34.6652423531"><ele>163.121</ele><time>2026-08-16T15:29:14.136Z</time><hdop>3.0</hdop><vdop>2.937</vdop><extensions><gom:speed>0.166</gom:speed></extensions></trkpt>
   <trkpt lat="59.2971311717" lon="34.665247969"><ele>163.075</ele><time>2026-08-16T15:29:15.136Z</time><hdop>3.0</hdop><vdop>2.937</vdop><extensions><gom:speed>0.104</gom:speed></extensions></trkpt>
   <trkpt lat="59.2971299982" lon="34.6652522437"><ele>163.047</ele><time>2026-08-16T15:29:16.135Z</time><hdop>3.0</hdop><vdop>2.937</vdop><extensions><gom:speed>0.102</gom:speed></extensions></trkpt>
   <trkpt lat="59.297128699" lon="34.6652568538"><ele>163.031</ele><time>2026-08-16T15:29:17.136Z</time><hdop>3.0</hdop><vdop>2.937</vdop><extensions><gom:speed>0.099</gom:speed></extensions></trkpt>
   <trkpt lat="59.2971282799" lon="34.6652591169"><ele>162.335</ele><time>2026-08-16T15:29:18.136Z</time><hdop>3.0</hdop><vdop>6.062</vdop><extensions><gom:speed>0.07</gom:speed></extensions></trkpt>
   <trkpt lat="59.297127777" lon="34.6652610447"><ele>162.605</ele><time>2026-08-16T15:29:19.135Z</time><hdop>3.0</hdop><vdop>2.937</vdop><extensions><gom:speed>0.065</gom:speed></extensions></trkpt>
   <trkpt lat="59.2971271903" lon="34.6652616315"><ele>162.766</ele><time>2026-08-16T15:29:20.136Z</time><hdop>3.0</hdop><vdop>2.937</vdop><extensions><gom:speed>0.087</gom:speed></extensions></trkpt>
   <trkpt lat="59.2971269808" lon="34.6652619667"><ele>162.863</ele><time>2026-08-16T15:29:21.136Z</time><hdop>3.0</hdop><vdop>2.937</vdop><extensions><gom:speed>0.08</gom:speed></extensions></trkpt>
   <trkpt lat="59.2971264778" lon="34.6652640622"><ele>162.92</ele><time>2026-08-16T15:29:22.135Z</time><hdop>3.0</hdop><vdop>2.937</vdop><extensions><gom:speed>0.063</gom:speed></extensions></trkpt>
   <trkpt lat="59.2971261845" lon="34.6652651519"><ele>162.955</ele><time>2026-08-16T15:29:23.136Z</time><hdop>3.0</hdop><vdop>2.937</vdop><extensions><gom:speed>0.056</gom:speed></extensions></trkpt>
   <trkpt lat="59.2971257654" lon="34.6652658224"><ele>162.975</ele><time>2026-08-16T15:29:24.136Z</time><hdop>3.0</hdop><vdop>2.937</vdop><extensions><gom:speed>0.078</gom:speed></extensions></trkpt>
   <trkpt lat="59.2971248853" lon="34.6652654871"><ele>162.773</ele><time>2026-08-16T15:29:25.136Z</time><hdop>3.0</hdop><vdop>2.625</vdop><extensions><gom:speed>0.093</gom:speed></extensions></trkpt>
   <trkpt lat="59.2971241728" lon="34.6652642299"><ele>162.655</ele><time>2026-08-16T15:29:26.136Z</time><hdop>3.0</hdop><vdop>2.687</vdop><extensions><gom:speed>0.059</gom:speed></extensions></trkpt>
   <trkpt lat="59.2971244662" lon="34.6652621344"><ele>162.612</ele><time>2026-08-16T15:29:27.136Z</time><hdop>3.0</hdop><vdop>2.687</vdop><extensions><gom:speed>0.064</gom:speed></extensions></trkpt>
   <trkpt lat="59.2971247595" lon="34.6652607933"><ele>162.588</ele><time>2026-08-16T15:29:28.136Z</time><hdop>3.0</hdop><vdop>2.812</vdop><extensions><gom:speed>0.09</gom:speed></extensions></trkpt>
   <trkpt lat="59.2971250948" lon="34.6652606256"><ele>162.575</ele><time>2026-08-16T15:29:29.136Z</time><hdop>3.0</hdop><vdop>2.875</vdop><extensions><gom:speed>0.106</gom:speed></extensions></trkpt>
   <trkpt lat="59.2971252625" lon="34.6652611286"><ele>162.571</ele><time>2026-08-16T15:29:30.136Z</time><hdop>3.0</hdop><vdop>2.875</vdop><extensions><gom:speed>0.0</gom:speed></extensions></trkpt>
   <trkpt lat="59.2971252625" lon="34.6652607933"><ele>162.569</ele><time>2026-08-16T15:29:31.136Z</time><hdop>3.0</hdop><vdop>2.75</vdop><extensions><gom:speed>0.013</gom:speed></extensions></trkpt>
   <trkpt lat="59.2971253882" lon="34.6652606256"><ele>162.572</ele><time>2026-08-16T15:29:32.136Z</time><hdop>3.0</hdop><vdop>2.625</vdop><extensions><gom:speed>0.022</gom:speed></extensions></trkpt>
   <trkpt lat="59.2971253882" lon="34.6652607933"><ele>162.579</ele><time>2026-08-16T15:29:33.136Z</time><hdop>3.0</hdop><vdop>2.5</vdop><extensions><gom:speed>0.029</gom:speed></extensions></trkpt>
   <trkpt lat="59.2971253882" lon="34.6652610447"><ele>162.587</ele><time>2026-08-16T15:29:34.136Z</time><hdop>3.0</hdop><vdop>2.5</vdop><extensions><gom:speed>0.036</gom:speed></extensions></trkpt>
   <trkpt lat="59.297125472" lon="34.66526138"><ele>162.602</ele><time>2026-08-16T15:29:35.136Z</time><hdop>3.0</hdop><vdop>2.5</vdop><extensions><gom:speed>0.041</gom:speed></extensions></trkpt>
   <trkpt lat="59.2971255977" lon="34.6652616315"><ele>162.618</ele><time>2026-08-16T15:29:36.136Z</time><hdop>3.0</hdop><vdop>2.5</vdop><extensions><gom:speed>0.048</gom:speed></extensions></trkpt>
   <trkpt lat="59.2971255977" lon="34.6652614638"><ele>162.633</ele><time>2026-08-16T15:29:37.136Z</time><hdop>3.0</hdop><vdop>2.5</vdop><extensions><gom:speed>0.052</gom:speed></extensions></trkpt>
   <trkpt lat="59.2971255977" lon="34.6652617991"><ele>162.649</ele><time>2026-08-16T15:29:38.136Z</time><hdop>3.0</hdop><vdop>2.5</vdop><extensions><gom:speed>0.058</gom:speed></extensions></trkpt>
   <trkpt lat="59.2971256816" lon="34.6652621344"><ele>162.661</ele><time>2026-08-16T15:29:39.136Z</time><hdop>3.0</hdop><vdop>2.5</vdop><extensions><gom:speed>0.117</gom:speed></extensions></trkpt>
   <trkpt lat="59.2971258911" lon="34.6652636431"><ele>162.902</ele><time>2026-08-16T15:29:40.136Z</time><hdop>3.0</hdop><vdop>2.5</vdop><extensions><gom:speed>0.135</gom:speed></extensions></trkpt>
   <trkpt lat="59.2971257654" lon="34.6652645651"><ele>163.069</ele><time>2026-08-16T15:29:41.136Z</time><hdop>3.0</hdop><vdop>2.5</vdop><extensions><gom:speed>0.105</gom:speed></extensions></trkpt>
   <trkpt lat="59.2971253882" lon="34.6652650681"><ele>163.172</ele><time>2026-08-16T15:29:42.136Z</time><hdop>3.0</hdop><vdop>2.5</vdop><extensions><gom:speed>0.093</gom:speed></extensions></trkpt>
   <trkpt lat="59.2971251786" lon="34.6652653195"><ele>163.244</ele><time>2026-08-16T15:29:43.136Z</time><hdop>3.0</hdop><vdop>2.5</vdop><extensions><gom:speed>0.084</gom:speed></extensions></trkpt>
   <trkpt lat="59.2971248853" lon="34.6652653195"><ele>163.274</ele><time>2026-08-16T15:29:44.136Z</time><hdop>3.0</hdop><vdop>2.5</vdop><extensions><gom:speed>0.08</gom:speed></extensions></trkpt>
   <trkpt lat="59.2971246757" lon="34.6652656548"><ele>163.305</ele><time>2026-08-16T15:29:45.136Z</time><hdop>3.0</hdop><vdop>2.5</vdop><extensions><gom:speed>0.078</gom:speed></extensions></trkpt>
   <trkpt lat="59.2971242985" lon="34.6652659901"><ele>163.32</ele><time>2026-08-16T15:29:46.136Z</time><hdop>3.0</hdop><vdop>2.5</vdop><extensions><gom:speed>0.073</gom:speed></extensions></trkpt>
   <trkpt lat="59.2971239633" lon="34.6652662415"><ele>163.321</ele><time>2026-08-16T15:29:47.136Z</time><hdop>3.0</hdop><vdop>2.5</vdop><extensions><gom:speed>0.073</gom:speed></extensions></trkpt>
   <trkpt lat="59.2971239633" lon="34.6652666606"><ele>163.291</ele><time>2026-08-16T15:29:48.136Z</time><hdop>3.0</hdop><vdop>2.5</vdop><extensions><gom:speed>0.594</gom:speed></extensions></trkpt>
   <trkpt lat="59.2971262683" lon="34.6652677503"><ele>163.304</ele><time>2026-08-16T15:29:49.136Z</time><hdop>3.0</hdop><vdop>2.5</vdop><extensions><gom:speed>0.107</gom:speed></extensions></trkpt>
   <trkpt lat="59.2971261845" lon="34.6652663253"><ele>163.309</ele><time>2026-08-16T15:29:50.136Z</time><hdop>3.0</hdop><vdop>2.5</vdop><extensions><gom:speed>0.128</gom:speed></extensions></trkpt>
   <trkpt lat="59.2971261845" lon="34.6652657386"><ele>163.123</ele><time>2026-08-16T15:29:51.136Z</time><hdop>3.0</hdop><vdop>2.5</vdop><extensions><gom:speed>0.472</gom:speed></extensions></trkpt>
   <trkpt lat="59.2971241728" lon="34.6652678341"><ele>162.992</ele><time>2026-08-16T15:29:52.136Z</time><hdop>3.0</hdop><vdop>2.625</vdop><extensions><gom:speed>0.097</gom:speed></extensions></trkpt>
   <trkpt lat="59.2971234604" lon="34.6652660739"><ele>162.9</ele><time>2026-08-16T15:29:53.136Z</time><hdop>3.0</hdop><vdop>2.75</vdop><extensions><gom:speed>0.083</gom:speed></extensions></trkpt>
   <trkpt lat="59.2971229993" lon="34.6652651519"><ele>162.844</ele><time>2026-08-16T15:29:54.136Z</time><hdop>3.0</hdop><vdop>2.812</vdop><extensions><gom:speed>0.076</gom:speed></extensions></trkpt>
   <trkpt lat="59.2971223707" lon="34.6652642299"><ele>162.815</ele><time>2026-08-16T15:29:55.135Z</time><hdop>3.0</hdop><vdop>2.937</vdop><extensions><gom:speed>0.076</gom:speed></extensions></trkpt>
   <trkpt lat="59.2971218678" lon="34.6652636431"><ele>162.791</ele><time>2026-08-16T15:29:56.136Z</time><hdop>3.0</hdop><vdop>2.75</vdop><extensions><gom:speed>0.243</gom:speed></extensions></trkpt>
   <trkpt lat="59.2971206943" lon="34.6652638946"><ele>162.771</ele><time>2026-08-16T15:29:57.136Z</time><hdop>3.0</hdop><vdop>2.625</vdop><extensions><gom:speed>0.092</gom:speed></extensions></trkpt>
   <trkpt lat="59.2971202752" lon="34.6652631402"><ele>162.763</ele><time>2026-08-16T15:29:58.136Z</time><hdop>3.0</hdop><vdop>2.875</vdop><extensions><gom:speed>0.076</gom:speed></extensions></trkpt>
   <trkpt lat="59.2971197723" lon="34.6652623858"><ele>162.76</ele><time>2026-08-16T15:29:59.136Z</time><hdop>3.0</hdop><vdop>2.75</vdop><extensions><gom:speed>0.072</gom:speed></extensions></trkpt>
   <trkpt lat="59.2971192694" lon="34.6652616315"><ele>162.755</ele><time>2026-08-16T15:30:00.136Z</time><hdop>3.0</hdop><vdop>2.625</vdop><extensions><gom:speed>0.068</gom:speed></extensions></trkpt>
   <trkpt lat="59.2971187665" lon="34.6652609609"><ele>162.756</ele><time>2026-08-16T15:30:01.136Z</time><hdop>3.0</hdop><vdop>2.5</vdop><extensions><gom:speed>0.067</gom:speed></extensions></trkpt>
   <trkpt lat="59.2971183893" lon="34.6652600389"><ele>162.756</ele><time>2026-08-16T15:30:02.136Z</time><hdop>3.0</hdop><vdop>2.5</vdop><extensions><gom:speed>0.067</gom:speed></extensions></trkpt>
   <trkpt lat="59.2971180959" lon="34.6652592845"><ele>162.747</ele><time>2026-08-16T15:30:03.136Z</time><hdop>3.0</hdop><vdop>2.5</vdop><extensions><gom:speed>0.068</gom:speed></extensions></trkpt>
   <trkpt lat="59.2971177607" lon="34.6652586978"><ele>162.74</ele><time>2026-08-16T15:30:04.136Z</time><hdop>3.0</hdop><vdop>2.5</vdop><extensions><gom:speed>0.068</gom:speed></extensions></trkpt>
   <trkpt lat="59.297117593" lon="34.6652580273"><ele>162.75</ele><time>2026-08-16T15:30:05.136Z</time><hdop>3.0</hdop><vdop>2.5</vdop><extensions><gom:speed>0.069</gom:speed></extensions></trkpt>
   <trkpt lat="59.2971173835" lon="34.6652573567"><ele>162.755</ele><time>2026-08-16T15:30:06.136Z</time><hdop>3.0</hdop><vdop>2.5</vdop><extensions><gom:speed>0.067</gom:speed></extensions></trkpt>
   <trkpt lat="59.2971171739" lon="34.6652566861"><ele>162.765</ele><time>2026-08-16T15:30:07.136Z</time><hdop>3.0</hdop><vdop>2.5</vdop><extensions><gom:speed>0.069</gom:speed></extensions></trkpt>
   <trkpt lat="59.2971168806" lon="34.6652561832"><ele>162.757</ele><time>2026-08-16T15:30:08.136Z</time><hdop>3.0</hdop><vdop>2.5</vdop><extensions><gom:speed>0.071</gom:speed></extensions></trkpt>
   <trkpt lat="59.2971165872" lon="34.6652557641"><ele>162.758</ele><time>2026-08-16T15:30:09.136Z</time><hdop>3.0</hdop><vdop>2.5</vdop><extensions><gom:speed>0.072</gom:speed></extensions></trkpt>
   <trkpt lat="59.2971163776" lon="34.6652552612"><ele>162.764</ele><time>2026-08-16T15:30:10.136Z</time><hdop>3.0</hdop><vdop>2.5</vdop><extensions><gom:speed>0.07</gom:speed></extensions></trkpt>
   <trkpt lat="59.2971162938" lon="34.6652547583"><ele>162.773</ele><time>2026-08-16T15:30:11.136Z</time><hdop>3.0</hdop><vdop>2.5</vdop><extensions><gom:speed>0.071</gom:speed></extensions></trkpt>
   <trkpt lat="59.2971160843" lon="34.6652542554"><ele>162.793</ele><time>2026-08-16T15:30:12.136Z</time><hdop>3.0</hdop><vdop>2.5</vdop><extensions><gom:speed>0.071</gom:speed></extensions></trkpt>
   <trkpt lat="59.2971157909" lon="34.6652540878"><ele>162.804</ele><time>2026-08-16T15:30:13.136Z</time><hdop>3.0</hdop><vdop>2.5</vdop><extensions><gom:speed>0.071</gom:speed></extensions></trkpt>
   <trkpt lat="59.2971155814" lon="34.6652537525"><ele>162.811</ele><time>2026-08-16T15:30:14.136Z</time><hdop>3.0</hdop><vdop>2.5</vdop><extensions><gom:speed>0.068</gom:speed></extensions></trkpt>
   <trkpt lat="59.2971154975" lon="34.6652543392"><ele>162.838</ele><time>2026-08-16T15:30:15.136Z</time><hdop>3.0</hdop><vdop>2.5</vdop><extensions><gom:speed>0.186</gom:speed></extensions></trkpt>
   <trkpt lat="59.2971149946" lon="34.6652557641"><ele>162.853</ele><time>2026-08-16T15:30:16.136Z</time><hdop>3.0</hdop><vdop>2.5</vdop><extensions><gom:speed>0.09</gom:speed></extensions></trkpt>
   <trkpt lat="59.2971149946" lon="34.6652561832"><ele>162.86</ele><time>2026-08-16T15:30:17.136Z</time><hdop>3.0</hdop><vdop>2.5</vdop><extensions><gom:speed>0.075</gom:speed></extensions></trkpt>
   <trkpt lat="59.2971148689" lon="34.6652563509"><ele>162.859</ele><time>2026-08-16T15:30:18.136Z</time><hdop>3.0</hdop><vdop>2.5</vdop><extensions><gom:speed>0.069</gom:speed></extensions></trkpt>
   <trkpt lat="59.2971145755" lon="34.6652563509"><ele>162.855</ele><time>2026-08-16T15:30:19.136Z</time><hdop>3.0</hdop><vdop>2.5</vdop><extensions><gom:speed>0.067</gom:speed></extensions></trkpt>
   <trkpt lat="59.2971144917" lon="34.6652564347"><ele>162.872</ele><time>2026-08-16T15:30:20.136Z</time><hdop>3.0</hdop><vdop>2.687</vdop><extensions><gom:speed>0.065</gom:speed></extensions></trkpt>
   <trkpt lat="59.2971144917" lon="34.6652565185"><ele>162.901</ele><time>2026-08-16T15:30:21.136Z</time><hdop>3.0</hdop><vdop>2.937</vdop><extensions><gom:speed>0.067</gom:speed></extensions></trkpt>
   <trkpt lat="59.297114366" lon="34.66525677"><ele>162.897</ele><time>2026-08-16T15:30:22.136Z</time><hdop>3.0</hdop><vdop>3.062</vdop><extensions><gom:speed>0.066</gom:speed></extensions></trkpt>
   <trkpt lat="59.2971141983" lon="34.6652569376"><ele>162.884</ele><time>2026-08-16T15:30:23.136Z</time><hdop>3.0</hdop><vdop>3.125</vdop><extensions><gom:speed>0.064</gom:speed></extensions></trkpt>
   <trkpt lat="59.2971140726" lon="34.6652572729"><ele>162.86</ele><time>2026-08-16T15:30:24.136Z</time><hdop>3.0</hdop><vdop>3.25</vdop><extensions><gom:speed>0.065</gom:speed></extensions></trkpt>
   <trkpt lat="59.2971139888" lon="34.6652575243"><ele>162.873</ele><time>2026-08-16T15:30:25.136Z</time><hdop>3.0</hdop><vdop>3.187</vdop><extensions><gom:speed>0.064</gom:speed></extensions></trkpt>
   <trkpt lat="59.2971137793" lon="34.6652578596"><ele>162.882</ele><time>2026-08-16T15:30:26.136Z</time><hdop>3.0</hdop><vdop>3.25</vdop><extensions><gom:speed>0.064</gom:speed></extensions></trkpt>
   <trkpt lat="59.2971136954" lon="34.6652580273"><ele>162.888</ele><time>2026-08-16T15:30:26.868Z</time><hdop>3.0</hdop><vdop>3.25</vdop><extensions><gom:speed>0.064</gom:speed></extensions></trkpt>
   <trkpt lat="59.2971132763" lon="34.6652585302"><ele>163.001</ele><time>2026-08-16T15:30:27.830Z</time><hdop>3.0</hdop><vdop>3.187</vdop><extensions><gom:speed>0.111</gom:speed></extensions></trkpt>
   <trkpt lat="59.2971127734" lon="34.6652580273"><ele>163.063</ele><time>2026-08-16T15:30:29.125Z</time><hdop>3.0</hdop><vdop>3.125</vdop><extensions><gom:speed>0.089</gom:speed></extensions></trkpt>
   <trkpt lat="59.2971127734" lon="34.6652575243"><ele>163.118</ele><time>2026-08-16T15:30:30.136Z</time><hdop>3.0</hdop><vdop>3.437</vdop><extensions><gom:speed>0.139</gom:speed></extensions></trkpt>
   <trkpt lat="59.2971130668" lon="34.6652573567"><ele>163.162</ele><time>2026-08-16T15:30:31.136Z</time><hdop>3.0</hdop><vdop>2.937</vdop><extensions><gom:speed>0.128</gom:speed></extensions></trkpt>
   <trkpt lat="59.2971130668" lon="34.6652578596"><ele>163.188</ele><time>2026-08-16T15:30:31.678Z</time><hdop>3.0</hdop><vdop>2.937</vdop><extensions><gom:speed>0.125</gom:speed></extensions></trkpt>
   <trkpt lat="59.2971136954" lon="34.6652585302"><ele>163.192</ele><time>2026-08-16T15:30:32.136Z</time><hdop>3.0</hdop><vdop>2.937</vdop><extensions><gom:speed>0.146</gom:speed></extensions></trkpt>
   <trkpt lat="59.297114366" lon="34.6652599551"><ele>163.18</ele><time>2026-08-16T15:30:33.136Z</time><hdop>3.0</hdop><vdop>2.875</vdop><extensions><gom:speed>0.094</gom:speed></extensions></trkpt>
   <trkpt lat="59.297115288" lon="34.6652611286"><ele>163.171</ele><time>2026-08-16T15:30:34.136Z</time><hdop>3.0</hdop><vdop>2.875</vdop><extensions><gom:speed>0.082</gom:speed></extensions></trkpt>
   <trkpt lat="59.2971162938" lon="34.6652625535"><ele>163.188</ele><time>2026-08-16T15:30:35.136Z</time><hdop>3.0</hdop><vdop>2.937</vdop><extensions><gom:speed>0.117</gom:speed></extensions></trkpt>
   <trkpt lat="59.2971162938" lon="34.6652634755"><ele>163.198</ele><time>2026-08-16T15:30:36.076Z</time><hdop>3.0</hdop><vdop>2.937</vdop><extensions><gom:speed>0.106</gom:speed></extensions></trkpt>
   <trkpt lat="59.2971179702" lon="34.6652677503"><ele>162.88</ele><time>2026-08-16T15:30:37.136Z</time><hdop>3.0</hdop><vdop>3.0</vdop><extensions><gom:speed>0.198</gom:speed></extensions></trkpt>
   <trkpt lat="59.2971186827" lon="34.6652697619"><ele>162.69</ele><time>2026-08-16T15:30:38.000Z</time><hdop>3.0</hdop><vdop>3.0</vdop><extensions><gom:speed>0.204</gom:speed></extensions></trkpt>
   <trkpt lat="59.2971197723" lon="34.6652760483"><ele>162.501</ele><time>2026-08-16T15:30:38.619Z</time><hdop>3.0</hdop><vdop>2.875</vdop><extensions><gom:speed>0.334</gom:speed></extensions></trkpt>
   <trkpt lat="59.2971212811" lon="34.6652812451"><ele>162.788</ele><time>2026-08-16T15:30:39.136Z</time><hdop>3.0</hdop><vdop>2.812</vdop><extensions><gom:speed>0.38</gom:speed></extensions></trkpt>
   <trkpt lat="59.2971249691" lon="34.6652873639"><ele>163.007</ele><time>2026-08-16T15:30:40.136Z</time><hdop>3.0</hdop><vdop>2.75</vdop><extensions><gom:speed>0.369</gom:speed></extensions></trkpt>
   <trkpt lat="59.2971282799" lon="34.6652929798"><ele>163.295</ele><time>2026-08-16T15:30:41.136Z</time><hdop>3.0</hdop><vdop>2.75</vdop><extensions><gom:speed>0.355</gom:speed></extensions></trkpt>
   <trkpt lat="59.2971295791" lon="34.6652969193"><ele>163.468</ele><time>2026-08-16T15:30:42.103Z</time><hdop>3.0</hdop><vdop>2.75</vdop><extensions><gom:speed>0.322</gom:speed></extensions></trkpt>
   <trkpt lat="59.2971320937" lon="34.6653085701"><ele>163.809</ele><time>2026-08-16T15:30:42.996Z</time><hdop>3.062</hdop><vdop>2.812</vdop><extensions><gom:speed>0.431</gom:speed></extensions></trkpt>
   <trkpt lat="59.2971369971" lon="34.6653177902"><ele>164.155</ele><time>2026-08-16T15:30:43.565Z</time><hdop>3.125</hdop><vdop>3.0</vdop><extensions><gom:speed>0.509</gom:speed></extensions></trkpt>
   <trkpt lat="59.2971424873" lon="34.6653245796"><ele>164.673</ele><time>2026-08-16T15:30:44.136Z</time><hdop>3.125</hdop><vdop>3.187</vdop><extensions><gom:speed>0.576</gom:speed></extensions></trkpt>
   <trkpt lat="59.2971488994" lon="34.6653323747"><ele>164.982</ele><time>2026-08-16T15:30:45.097Z</time><hdop>3.187</hdop><vdop>3.187</vdop><extensions><gom:speed>0.604</gom:speed></extensions></trkpt>
   <trkpt lat="59.2971552697" lon="34.665343355"><ele>164.899</ele><time>2026-08-16T15:30:45.685Z</time><hdop>3.125</hdop><vdop>3.25</vdop><extensions><gom:speed>0.755</gom:speed></extensions></trkpt>
   <trkpt lat="59.297159293" lon="34.6653519884"><ele>164.957</ele><time>2026-08-16T15:30:46.136Z</time><hdop>3.125</hdop><vdop>3.25</vdop><extensions><gom:speed>0.792</gom:speed></extensions></trkpt>
   <trkpt lat="59.2971633582" lon="34.6653637231"><ele>164.991</ele><time>2026-08-16T15:30:46.921Z</time><hdop>3.125</hdop><vdop>3.25</vdop><extensions><gom:speed>0.78</gom:speed></extensions></trkpt>
   <trkpt lat="59.2971662919" lon="34.6653738652"><ele>164.938</ele><time>2026-08-16T15:30:47.442Z</time><hdop>3.125</hdop><vdop>2.937</vdop><extensions><gom:speed>0.802</gom:speed></extensions></trkpt>
   <trkpt lat="59.2971687645" lon="34.6653839234"><ele>164.906</ele><time>2026-08-16T15:30:48.100Z</time><hdop>3.062</hdop><vdop>2.937</vdop><extensions><gom:speed>0.808</gom:speed></extensions></trkpt>
   <trkpt lat="59.2971726621" lon="34.6653996814"><ele>164.777</ele><time>2026-08-16T15:30:48.944Z</time><hdop>3.062</hdop><vdop>2.875</vdop><extensions><gom:speed>0.824</gom:speed></extensions></trkpt>
   <trkpt lat="59.2971763921" lon="34.6654124219"><ele>164.651</ele><time>2026-08-16T15:30:49.700Z</time><hdop>3.062</hdop><vdop>2.812</vdop><extensions><gom:speed>0.834</gom:speed></extensions></trkpt>
   <trkpt lat="59.2971793676" lon="34.6654223964"><ele>164.385</ele><time>2026-08-16T15:30:50.377Z</time><hdop>3.0</hdop><vdop>3.062</vdop><extensions><gom:speed>0.804</gom:speed></extensions></trkpt>
   <trkpt lat="59.2971824689" lon="34.6654321194"><ele>164.226</ele><time>2026-08-16T15:30:51.084Z</time><hdop>3.0</hdop><vdop>3.062</vdop><extensions><gom:speed>0.808</gom:speed></extensions></trkpt>
   <trkpt lat="59.2971835586" lon="34.6654454466"><ele>164.192</ele><time>2026-08-16T15:30:51.859Z</time><hdop>3.0</hdop><vdop>3.125</vdop><extensions><gom:speed>0.863</gom:speed></extensions></trkpt>
   <trkpt lat="59.297182888" lon="34.6654581871"><ele>164.103</ele><time>2026-08-16T15:30:52.459Z</time><hdop>3.0</hdop><vdop>3.062</vdop><extensions><gom:speed>0.906</gom:speed></extensions></trkpt>
   <trkpt lat="59.2971820918" lon="34.6654711791"><ele>164.106</ele><time>2026-08-16T15:30:53.136Z</time><hdop>3.0</hdop><vdop>2.937</vdop><extensions><gom:speed>0.895</gom:speed></extensions></trkpt>
   <trkpt lat="59.2971840615" lon="34.6654885296"><ele>164.107</ele><time>2026-08-16T15:30:54.118Z</time><hdop>3.0</hdop><vdop>2.937</vdop><extensions><gom:speed>0.911</gom:speed></extensions></trkpt>
   <trkpt lat="59.2971864923" lon="34.6654994261"><ele>164.207</ele><time>2026-08-16T15:30:54.844Z</time><hdop>3.0</hdop><vdop>2.812</vdop><extensions><gom:speed>0.899</gom:speed></extensions></trkpt>
   <trkpt lat="59.2971896774" lon="34.6655074727"><ele>164.246</ele><time>2026-08-16T15:30:55.384Z</time><hdop>3.0</hdop><vdop>3.062</vdop><extensions><gom:speed>0.912</gom:speed></extensions></trkpt>
   <trkpt lat="59.2971951675" lon="34.6655148488"><ele>164.182</ele><time>2026-08-16T15:30:56.136Z</time><hdop>3.0</hdop><vdop>3.187</vdop><extensions><gom:speed>0.893</gom:speed></extensions></trkpt>
   <trkpt lat="59.2972007834" lon="34.6655186206"><ele>164.144</ele><time>2026-08-16T15:30:56.778Z</time><hdop>3.0</hdop><vdop>3.187</vdop><extensions><gom:speed>0.894</gom:speed></extensions></trkpt>
   <trkpt lat="59.2972119732" lon="34.665527254"><ele>164.354</ele><time>2026-08-16T15:30:58.063Z</time><hdop>3.0</hdop><vdop>3.187</vdop><extensions><gom:speed>0.891</gom:speed></extensions></trkpt>
   <trkpt lat="59.2972197684" lon="34.6655350492"><ele>164.563</ele><time>2026-08-16T15:30:59.025Z</time><hdop>3.0</hdop><vdop>3.25</vdop><extensions><gom:speed>0.886</gom:speed></extensions></trkpt>
   <trkpt lat="59.2972239594" lon="34.6655384857"><ele>164.342</ele><time>2026-08-16T15:30:59.585Z</time><hdop>3.0</hdop><vdop>2.937</vdop><extensions><gom:speed>0.866</gom:speed></extensions></trkpt>
   <trkpt lat="59.297227396" lon="34.6655419223"><ele>164.368</ele><time>2026-08-16T15:31:00.136Z</time><hdop>3.0</hdop><vdop>2.687</vdop><extensions><gom:speed>0.836</gom:speed></extensions></trkpt>
   <trkpt lat="59.2972325927" lon="34.6655500528"><ele>164.384</ele><time>2026-08-16T15:31:00.959Z</time><hdop>3.0</hdop><vdop>2.687</vdop><extensions><gom:speed>0.857</gom:speed></extensions></trkpt>
   <trkpt lat="59.2972393821" lon="34.6655578479"><ele>164.352</ele><time>2026-08-16T15:31:01.940Z</time><hdop>3.0</hdop><vdop>2.5</vdop><extensions><gom:speed>0.857</gom:speed></extensions></trkpt>
   <trkpt lat="59.2972434892" lon="34.6655604463"><ele>164.301</ele><time>2026-08-16T15:31:02.441Z</time><hdop>3.0</hdop><vdop>2.5</vdop><extensions><gom:speed>0.871</gom:speed></extensions></trkpt>
   <trkpt lat="59.2972483926" lon="34.6655644696"><ele>164.221</ele><time>2026-08-16T15:31:03.136Z</time><hdop>3.0</hdop><vdop>2.5</vdop><extensions><gom:speed>0.841</gom:speed></extensions></trkpt>
   <trkpt lat="59.2972539666" lon="34.665570337"><ele>164.196</ele><time>2026-08-16T15:31:04.136Z</time><hdop>3.0</hdop><vdop>2.5</vdop><extensions><gom:speed>0.787</gom:speed></extensions></trkpt>
   <trkpt lat="59.297256565" lon="34.6655762881"><ele>164.181</ele><time>2026-08-16T15:31:04.777Z</time><hdop>3.0</hdop><vdop>2.5</vdop><extensions><gom:speed>0.743</gom:speed></extensions></trkpt>
   <trkpt lat="59.2972539666" lon="34.665582826"><ele>164.259</ele><time>2026-08-16T15:31:05.621Z</time><hdop>3.0</hdop><vdop>2.5</vdop><extensions><gom:speed>0.584</gom:speed></extensions></trkpt>
   <trkpt lat="59.2972502785" lon="34.6655951474"><ele>164.3</ele><time>2026-08-16T15:31:06.136Z</time><hdop>3.0</hdop><vdop>2.625</vdop><extensions><gom:speed>1.008</gom:speed></extensions></trkpt>
   <trkpt lat="59.2972465905" lon="34.6656069659"><ele>164.324</ele><time>2026-08-16T15:31:06.740Z</time><hdop>3.0</hdop><vdop>2.625</vdop><extensions><gom:speed>0.988</gom:speed></extensions></trkpt>
   <trkpt lat="59.2972419805" lon="34.6656142581"><ele>164.085</ele><time>2026-08-16T15:31:07.545Z</time><hdop>3.0</hdop><vdop>2.5</vdop><extensions><gom:speed>0.735</gom:speed></extensions></trkpt>
   <trkpt lat="59.2972378733" lon="34.6656276692"><ele>163.915</ele><time>2026-08-16T15:31:08.136Z</time><hdop>3.0</hdop><vdop>2.75</vdop><extensions><gom:speed>1.125</gom:speed></extensions></trkpt>
   <trkpt lat="59.297235694" lon="34.6656459417"><ele>163.814</ele><time>2026-08-16T15:31:08.999Z</time><hdop>3.0</hdop><vdop>2.75</vdop><extensions><gom:speed>1.042</gom:speed></extensions></trkpt>
   <trkpt lat="59.2972366999" lon="34.6656574249"><ele>163.677</ele><time>2026-08-16T15:31:09.656Z</time><hdop>3.0</hdop><vdop>3.187</vdop><extensions><gom:speed>0.952</gom:speed></extensions></trkpt>
   <trkpt lat="59.2972393821" lon="34.6656619512"><ele>163.915</ele><time>2026-08-16T15:31:10.136Z</time><hdop>3.0</hdop><vdop>3.125</vdop><extensions><gom:speed>0.93</gom:speed></extensions></trkpt>
   <trkpt lat="59.2972433635" lon="34.6656711713"><ele>164.058</ele><time>2026-08-16T15:31:10.844Z</time><hdop>3.0</hdop><vdop>3.125</vdop><extensions><gom:speed>0.908</gom:speed></extensions></trkpt>
   <trkpt lat="59.2972451656" lon="34.6656778768"><ele>164.221</ele><time>2026-08-16T15:31:11.541Z</time><hdop>3.0</hdop><vdop>3.062</vdop><extensions><gom:speed>0.853</gom:speed></extensions></trkpt>
   <trkpt lat="59.2972453751" lon="34.665684247"><ele>164.367</ele><time>2026-08-16T15:31:12.136Z</time><hdop>3.0</hdop><vdop>3.0</vdop><extensions><gom:speed>0.821</gom:speed></extensions></trkpt>
   <trkpt lat="59.2972447884" lon="34.665699083"><ele>164.454</ele><time>2026-08-16T15:31:13.101Z</time><hdop>3.0</hdop><vdop>3.0</vdop><extensions><gom:speed>0.839</gom:speed></extensions></trkpt>
   <trkpt lat="59.2972410585" lon="34.6657073811"><ele>164.384</ele><time>2026-08-16T15:31:13.877Z</time><hdop>3.0</hdop><vdop>3.0</vdop><extensions><gom:speed>0.839</gom:speed></extensions></trkpt>
   <trkpt lat="59.2972376638" lon="34.6657177746"><ele>164.262</ele><time>2026-08-16T15:31:14.799Z</time><hdop>3.0</hdop><vdop>2.75</vdop><extensions><gom:speed>0.766</gom:speed></extensions></trkpt>
   <trkpt lat="59.2972385858" lon="34.6657248993"><ele>163.986</ele><time>2026-08-16T15:31:15.781Z</time><hdop>3.0</hdop><vdop>2.687</vdop><extensions><gom:speed>0.631</gom:speed></extensions></trkpt>
   <trkpt lat="59.2972381667" lon="34.6657352928"><ele>163.399</ele><time>2026-08-16T15:31:17.018Z</time><hdop>3.0</hdop><vdop>2.562</vdop><extensions><gom:speed>0.554</gom:speed></extensions></trkpt>
   <trkpt lat="59.2972390887" lon="34.665744932"><ele>162.774</ele><time>2026-08-16T15:31:18.117Z</time><hdop>3.0</hdop><vdop>2.5</vdop><extensions><gom:speed>0.495</gom:speed></extensions></trkpt>
   <trkpt lat="59.2972361969" lon="34.6657598518"><ele>162.025</ele><time>2026-08-16T15:31:19.136Z</time><hdop>3.0</hdop><vdop>2.5</vdop><extensions><gom:speed>0.607</gom:speed></extensions></trkpt>
   <trkpt lat="59.2972349816" lon="34.6657734305"><ele>161.577</ele><time>2026-08-16T15:31:19.923Z</time><hdop>3.0</hdop><vdop>2.5</vdop><extensions><gom:speed>0.702</gom:speed></extensions></trkpt>
   <trkpt lat="59.2972329699" lon="34.66579405"><ele>161.111</ele><time>2026-08-16T15:31:21.136Z</time><hdop>3.0</hdop><vdop>3.0</vdop><extensions><gom:speed>0.713</gom:speed></extensions></trkpt>
   <trkpt lat="59.2972335986" lon="34.665802348"><ele>160.832</ele><time>2026-08-16T15:31:21.601Z</time><hdop>3.0</hdop><vdop>3.0</vdop><extensions><gom:speed>0.762</gom:speed></extensions></trkpt>
   <trkpt lat="59.2972349816" lon="34.6658095565"><ele>160.666</ele><time>2026-08-16T15:31:22.063Z</time><hdop>3.0</hdop><vdop>3.0</vdop><extensions><gom:speed>0.763</gom:speed></extensions></trkpt>
   <trkpt lat="59.2972392983" lon="34.6658214588"><ele>160.692</ele><time>2026-08-16T15:31:22.956Z</time><hdop>3.0</hdop><vdop>2.812</vdop><extensions><gom:speed>0.826</gom:speed></extensions></trkpt>
   <trkpt lat="59.2972423996" lon="34.6658284996"><ele>160.476</ele><time>2026-08-16T15:31:23.525Z</time><hdop>3.0</hdop><vdop>2.687</vdop><extensions><gom:speed>0.933</gom:speed></extensions></trkpt>
   <trkpt lat="59.2972452913" lon="34.6658351213"><ele>160.29</ele><time>2026-08-16T15:31:24.136Z</time><hdop>3.0</hdop><vdop>2.75</vdop><extensions><gom:speed>0.874</gom:speed></extensions></trkpt>
   <trkpt lat="59.297250069" lon="34.665846353"><ele>160.003</ele><time>2026-08-16T15:31:25.136Z</time><hdop>3.0</hdop><vdop>2.75</vdop><extensions><gom:speed>0.867</gom:speed></extensions></trkpt>
   <trkpt lat="59.2972558944" lon="34.665855154"><ele>159.832</ele><time>2026-08-16T15:31:26.018Z</time><hdop>3.0</hdop><vdop>2.75</vdop><extensions><gom:speed>0.878</gom:speed></extensions></trkpt>
   <trkpt lat="59.2972610912" lon="34.6658609375"><ele>159.56</ele><time>2026-08-16T15:31:26.803Z</time><hdop>3.0</hdop><vdop>2.875</vdop><extensions><gom:speed>0.853</gom:speed></extensions></trkpt>
   <trkpt lat="59.2972657851" lon="34.6658697385"><ele>159.306</ele><time>2026-08-16T15:31:27.677Z</time><hdop>3.0</hdop><vdop>2.812</vdop><extensions><gom:speed>0.82</gom:speed></extensions></trkpt>
   <trkpt lat="59.297267671" lon="34.6658746839"><ele>159.165</ele><time>2026-08-16T15:31:28.136Z</time><hdop>3.0</hdop><vdop>2.937</vdop><extensions><gom:speed>0.783</gom:speed></extensions></trkpt>
   <trkpt lat="59.297271359" lon="34.6658864185"><ele>159.183</ele><time>2026-08-16T15:31:29.136Z</time><hdop>3.0</hdop><vdop>2.75</vdop><extensions><gom:speed>0.785</gom:speed></extensions></trkpt>
   <trkpt lat="59.2972743765" lon="34.6658984885"><ele>159.194</ele><time>2026-08-16T15:31:30.003Z</time><hdop>3.0</hdop><vdop>2.75</vdop><extensions><gom:speed>0.804</gom:speed></extensions></trkpt>
   <trkpt lat="59.2972768911" lon="34.6659097202"><ele>159.235</ele><time>2026-08-16T15:31:30.837Z</time><hdop>3.0</hdop><vdop>2.687</vdop><extensions><gom:speed>0.806</gom:speed></extensions></trkpt>
   <trkpt lat="59.2972780646" lon="34.6659213711"><ele>159.148</ele><time>2026-08-16T15:31:31.642Z</time><hdop>3.0</hdop><vdop>2.75</vdop><extensions><gom:speed>0.811</gom:speed></extensions></trkpt>
   <trkpt lat="59.2972784837" lon="34.6659277413"><ele>159.156</ele><time>2026-08-16T15:31:32.136Z</time><hdop>3.0</hdop><vdop>2.875</vdop><extensions><gom:speed>0.791</gom:speed></extensions></trkpt>
   <trkpt lat="59.2972802858" lon="34.6659425773"><ele>159.211</ele><time>2026-08-16T15:31:33.136Z</time><hdop>3.0</hdop><vdop>2.875</vdop><extensions><gom:speed>0.83</gom:speed></extensions></trkpt>
   <trkpt lat="59.2972819621" lon="34.6659545634"><ele>159.243</ele><time>2026-08-16T15:31:33.928Z</time><hdop>3.0</hdop><vdop>2.875</vdop><extensions><gom:speed>0.823</gom:speed></extensions></trkpt>
   <trkpt lat="59.2972873685" lon="34.6659652922"><ele>159.13</ele><time>2026-08-16T15:31:34.783Z</time><hdop>3.0</hdop><vdop>2.875</vdop><extensions><gom:speed>0.828</gom:speed></extensions></trkpt>
   <trkpt lat="59.2972925652" lon="34.6659712434"><ele>158.982</ele><time>2026-08-16T15:31:35.392Z</time><hdop>3.0</hdop><vdop>2.75</vdop><extensions><gom:speed>0.874</gom:speed></extensions></trkpt>
   <trkpt lat="59.297296379" lon="34.665977446"><ele>158.894</ele><time>2026-08-16T15:31:35.931Z</time><hdop>3.0</hdop><vdop>2.75</vdop><extensions><gom:speed>0.888</gom:speed></extensions></trkpt>
   <trkpt lat="59.29730057" lon="34.6659800444"><ele>158.803</ele><time>2026-08-16T15:31:36.452Z</time><hdop>3.0</hdop><vdop>2.75</vdop><extensions><gom:speed>0.869</gom:speed></extensions></trkpt>
   <trkpt lat="59.2973057667" lon="34.6659846544"><ele>158.697</ele><time>2026-08-16T15:31:37.136Z</time><hdop>3.0</hdop><vdop>2.562</vdop><extensions><gom:speed>0.873</gom:speed></extensions></trkpt>
   <trkpt lat="59.2973092871" lon="34.6659882587"><ele>158.633</ele><time>2026-08-16T15:31:37.610Z</time><hdop>3.0</hdop><vdop>2.562</vdop><extensions><gom:speed>0.852</gom:speed></extensions></trkpt>
   <trkpt lat="59.2973120951" lon="34.665992282"><ele>158.381</ele><time>2026-08-16T15:31:38.136Z</time><hdop>3.0</hdop><vdop>2.5</vdop><extensions><gom:speed>0.815</gom:speed></extensions></trkpt>
   <trkpt lat="59.2973150707" lon="34.6659984846"><ele>158.23</ele><time>2026-08-16T15:31:38.767Z</time><hdop>3.0</hdop><vdop>2.5</vdop><extensions><gom:speed>0.796</gom:speed></extensions></trkpt>
   <trkpt lat="59.2973163699" lon="34.6660072856"><ele>158.016</ele><time>2026-08-16T15:31:39.543Z</time><hdop>3.0</hdop><vdop>2.5</vdop><extensions><gom:speed>0.745</gom:speed></extensions></trkpt>
   <trkpt lat="59.2973152802" lon="34.6660165895"><ele>157.696</ele><time>2026-08-16T15:31:40.136Z</time><hdop>3.0</hdop><vdop>2.5</vdop><extensions><gom:speed>0.831</gom:speed></extensions></trkpt>
   <trkpt lat="59.2973126818" lon="34.6660323475"><ele>157.505</ele><time>2026-08-16T15:31:41.025Z</time><hdop>3.0</hdop><vdop>2.5</vdop><extensions><gom:speed>0.874</gom:speed></extensions></trkpt>
   <trkpt lat="59.2973092871" lon="34.6660455909"><ele>157.5</ele><time>2026-08-16T15:31:41.791Z</time><hdop>3.0</hdop><vdop>2.5</vdop><extensions><gom:speed>0.862</gom:speed></extensions></trkpt>
   <trkpt lat="59.2973083651" lon="34.6660568226"><ele>157.581</ele><time>2026-08-16T15:31:42.586Z</time><hdop>3.0</hdop><vdop>2.5</vdop><extensions><gom:speed>0.828</gom:speed></extensions></trkpt>
   <trkpt lat="59.2973091614" lon="34.6660631929"><ele>157.658</ele><time>2026-08-16T15:31:43.136Z</time><hdop>3.0</hdop><vdop>2.5</vdop><extensions><gom:speed>0.785</gom:speed></extensions></trkpt>
   <trkpt lat="59.2973134781" lon="34.6660747599"><ele>157.644</ele><time>2026-08-16T15:31:44.136Z</time><hdop>3.0</hdop><vdop>2.5</vdop><extensions><gom:speed>0.832</gom:speed></extensions></trkpt>
   <trkpt lat="59.2973166632" lon="34.6660804596"><ele>157.635</ele><time>2026-08-16T15:31:44.687Z</time><hdop>3.0</hdop><vdop>2.5</vdop><extensions><gom:speed>0.799</gom:speed></extensions></trkpt>
   <trkpt lat="59.2973177948" lon="34.6660965528"><ele>157.706</ele><time>2026-08-16T15:31:45.689Z</time><hdop>3.0</hdop><vdop>2.5</vdop><extensions><gom:speed>0.812</gom:speed></extensions></trkpt>
   <trkpt lat="59.2973168728" lon="34.6661097963"><ele>157.852</ele><time>2026-08-16T15:31:46.386Z</time><hdop>3.0</hdop><vdop>2.687</vdop><extensions><gom:speed>0.891</gom:speed></extensions></trkpt>
   <trkpt lat="59.2973171661" lon="34.6661235426"><ele>157.813</ele><time>2026-08-16T15:31:47.136Z</time><hdop>3.0</hdop><vdop>2.5</vdop><extensions><gom:speed>0.892</gom:speed></extensions></trkpt>
   <trkpt lat="59.2973188844" lon="34.6661393844"><ele>157.789</ele><time>2026-08-16T15:31:47.966Z</time><hdop>3.0</hdop><vdop>2.5</vdop><extensions><gom:speed>0.946</gom:speed></extensions></trkpt>
   <trkpt lat="59.2973234945" lon="34.6661555614"><ele>158.014</ele><time>2026-08-16T15:31:48.889Z</time><hdop>3.0</hdop><vdop>2.5</vdop><extensions><gom:speed>0.914</gom:speed></extensions></trkpt>
   <trkpt lat="59.2973279788" lon="34.6661664579"><ele>158.315</ele><time>2026-08-16T15:31:49.585Z</time><hdop>3.0</hdop><vdop>2.5</vdop><extensions><gom:speed>0.905</gom:speed></extensions></trkpt>
   <trkpt lat="59.2973319602" lon="34.6661742531"><ele>158.434</ele><time>2026-08-16T15:31:50.136Z</time><hdop>3.0</hdop><vdop>2.5</vdop><extensions><gom:speed>0.941</gom:speed></extensions></trkpt>
   <trkpt lat="59.2973405936" lon="34.6661848981"><ele>158.768</ele><time>2026-08-16T15:31:51.136Z</time><hdop>3.0</hdop><vdop>2.5</vdop><extensions><gom:speed>0.942</gom:speed></extensions></trkpt>
   <trkpt lat="59.2973494784" lon="34.6661948726"><ele>159.018</ele><time>2026-08-16T15:31:52.136Z</time><hdop>3.0</hdop><vdop>2.5</vdop><extensions><gom:speed>0.945</gom:speed></extensions></trkpt>
   <trkpt lat="59.2973541722" lon="34.6662044279"><ele>159.168</ele><time>2026-08-16T15:31:52.826Z</time><hdop>3.0</hdop><vdop>2.5</vdop><extensions><gom:speed>0.935</gom:speed></extensions></trkpt>
   <trkpt lat="59.2973589918" lon="34.6662164979"><ele>159.312</ele><time>2026-08-16T15:31:53.631Z</time><hdop>3.0</hdop><vdop>2.5</vdop><extensions><gom:speed>0.914</gom:speed></extensions></trkpt>
   <trkpt lat="59.2973613807" lon="34.6662235387"><ele>159.359</ele><time>2026-08-16T15:31:54.136Z</time><hdop>3.0</hdop><vdop>2.5</vdop><extensions><gom:speed>0.88</gom:speed></extensions></trkpt>
   <trkpt lat="59.2973655716" lon="34.6662358601"><ele>159.333</ele><time>2026-08-16T15:31:55.136Z</time><hdop>3.0</hdop><vdop>2.5</vdop><extensions><gom:speed>0.82</gom:speed></extensions></trkpt>
   <trkpt lat="59.2973701817" lon="34.6662475947"><ele>159.318</ele><time>2026-08-16T15:31:56.143Z</time><hdop>3.0</hdop><vdop>2.5</vdop><extensions><gom:speed>0.794</gom:speed></extensions></trkpt>
   <trkpt lat="59.2973725705" lon="34.6662584912"><ele>159.12</ele><time>2026-08-16T15:31:56.909Z</time><hdop>3.0</hdop><vdop>2.5</vdop><extensions><gom:speed>0.853</gom:speed></extensions></trkpt>
   <trkpt lat="59.297373283" lon="34.6662674599"><ele>159.114</ele><time>2026-08-16T15:31:57.586Z</time><hdop>3.0</hdop><vdop>2.5</vdop><extensions><gom:speed>0.827</gom:speed></extensions></trkpt>
   <trkpt lat="59.2973729896" lon="34.6662737463"><ele>159.133</ele><time>2026-08-16T15:31:58.136Z</time><hdop>3.0</hdop><vdop>2.875</vdop><extensions><gom:speed>0.823</gom:speed></extensions></trkpt>
   <trkpt lat="59.2973743726" lon="34.6662889175"><ele>159.413</ele><time>2026-08-16T15:31:59.136Z</time><hdop>3.0</hdop><vdop>2.812</vdop><extensions><gom:speed>0.951</gom:speed></extensions></trkpt>
   <trkpt lat="59.2973776835" lon="34.6663023286"><ele>159.581</ele><time>2026-08-16T15:31:59.971Z</time><hdop>3.0</hdop><vdop>2.812</vdop><extensions><gom:speed>0.91</gom:speed></extensions></trkpt>
   <trkpt lat="59.2973795694" lon="34.6663100399"><ele>160.206</ele><time>2026-08-16T15:32:00.648Z</time><hdop>3.0</hdop><vdop>2.5</vdop><extensions><gom:speed>0.856</gom:speed></extensions></trkpt>
   <trkpt lat="59.297381162" lon="34.6663147338"><ele>160.744</ele><time>2026-08-16T15:32:01.136Z</time><hdop>3.0</hdop><vdop>2.562</vdop><extensions><gom:speed>0.846</gom:speed></extensions></trkpt>
   <trkpt lat="59.297384389" lon="34.6663256303"><ele>161.066</ele><time>2026-08-16T15:32:01.865Z</time><hdop>3.0</hdop><vdop>2.562</vdop><extensions><gom:speed>0.896</gom:speed></extensions></trkpt>
   <trkpt lat="59.2973872808" lon="34.6663375326"><ele>161.12</ele><time>2026-08-16T15:32:02.788Z</time><hdop>3.0</hdop><vdop>2.5</vdop><extensions><gom:speed>0.906</gom:speed></extensions></trkpt>
   <trkpt lat="59.2973861911" lon="34.6663430646"><ele>161.123</ele><time>2026-08-16T15:32:03.328Z</time><hdop>3.0</hdop><vdop>2.625</vdop><extensions><gom:speed>0.876</gom:speed></extensions></trkpt>
   <trkpt lat="59.2973848919" lon="34.6663513627"><ele>161.125</ele><time>2026-08-16T15:32:03.868Z</time><hdop>3.0</hdop><vdop>2.625</vdop><extensions><gom:speed>0.895</gom:speed></extensions></trkpt>
   <trkpt lat="59.2973809943" lon="34.6663558889"><ele>160.961</ele><time>2026-08-16T15:32:04.349Z</time><hdop>3.0</hdop><vdop>2.75</vdop><extensions><gom:speed>0.823</gom:speed></extensions></trkpt>
   <trkpt lat="59.297379276" lon="34.6663631812"><ele>160.863</ele><time>2026-08-16T15:32:04.869Z</time><hdop>3.0</hdop><vdop>2.75</vdop><extensions><gom:speed>0.817</gom:speed></extensions></trkpt>
   <trkpt lat="59.2973783959" lon="34.6663738262"><ele>160.896</ele><time>2026-08-16T15:32:05.791Z</time><hdop>3.0</hdop><vdop>2.75</vdop><extensions><gom:speed>0.756</gom:speed></extensions></trkpt>
   <trkpt lat="59.2973772644" lon="34.6663835492"><ele>161.144</ele><time>2026-08-16T15:32:06.606Z</time><hdop>3.0</hdop><vdop>2.937</vdop><extensions><gom:speed>0.794</gom:speed></extensions></trkpt>
   <trkpt lat="59.2973770967" lon="34.6663904224"><ele>161.258</ele><time>2026-08-16T15:32:07.136Z</time><hdop>3.0</hdop><vdop>3.125</vdop><extensions><gom:speed>0.811</gom:speed></extensions></trkpt>
   <trkpt lat="59.2973783959" lon="34.6663997263"><ele>161.327</ele><time>2026-08-16T15:32:07.803Z</time><hdop>3.0</hdop><vdop>3.125</vdop><extensions><gom:speed>0.827</gom:speed></extensions></trkpt>
   <trkpt lat="59.2973805752" lon="34.6664115448"><ele>161.533</ele><time>2026-08-16T15:32:08.628Z</time><hdop>3.0</hdop><vdop>3.25</vdop><extensions><gom:speed>0.855</gom:speed></extensions></trkpt>
   <trkpt lat="59.2973816649" lon="34.6664189208"><ele>161.884</ele><time>2026-08-16T15:32:09.136Z</time><hdop>3.0</hdop><vdop>3.187</vdop><extensions><gom:speed>0.845</gom:speed></extensions></trkpt>
   <trkpt lat="59.2973812877" lon="34.666436439"><ele>162.212</ele><time>2026-08-16T15:32:10.136Z</time><hdop>3.0</hdop><vdop>3.062</vdop><extensions><gom:speed>0.943</gom:speed></extensions></trkpt>
   <trkpt lat="59.297372361" lon="34.6664508559"><ele>162.368</ele><time>2026-08-16T15:32:11.136Z</time><hdop>3.0</hdop><vdop>2.875</vdop><extensions><gom:speed>0.991</gom:speed></extensions></trkpt>
   <trkpt lat="59.2973595786" lon="34.6664570585"><ele>162.649</ele><time>2026-08-16T15:32:12.136Z</time><hdop>3.0</hdop><vdop>2.875</vdop><extensions><gom:speed>1.0</gom:speed></extensions></trkpt>
   <trkpt lat="59.2973545913" lon="34.6664615847"><ele>162.817</ele><time>2026-08-16T15:32:12.603Z</time><hdop>3.0</hdop><vdop>2.875</vdop><extensions><gom:speed>0.96</gom:speed></extensions></trkpt>
   <trkpt lat="59.2973493946" lon="34.6664680388"><ele>163.05</ele><time>2026-08-16T15:32:13.136Z</time><hdop>3.0</hdop><vdop>2.75</vdop><extensions><gom:speed>0.926</gom:speed></extensions></trkpt>
   <trkpt lat="59.2973438625" lon="34.6664811984"><ele>163.19</ele><time>2026-08-16T15:32:13.967Z</time><hdop>3.0</hdop><vdop>2.75</vdop><extensions><gom:speed>0.953</gom:speed></extensions></trkpt>
   <trkpt lat="59.2973397973" lon="34.6664958667"><ele>163.196</ele><time>2026-08-16T15:32:14.703Z</time><hdop>3.0</hdop><vdop>2.5</vdop><extensions><gom:speed>0.947</gom:speed></extensions></trkpt>
   <trkpt lat="59.2973383723" lon="34.666511038"><ele>163.124</ele><time>2026-08-16T15:32:15.489Z</time><hdop>3.0</hdop><vdop>2.625</vdop><extensions><gom:speed>0.895</gom:speed></extensions></trkpt>
   <trkpt lat="59.2973376599" lon="34.6665238623"><ele>163.311</ele><time>2026-08-16T15:32:16.136Z</time><hdop>3.0</hdop><vdop>2.562</vdop><extensions><gom:speed>0.915</gom:speed></extensions></trkpt>
   <trkpt lat="59.2973368636" lon="34.6665404584"><ele>163.423</ele><time>2026-08-16T15:32:17.049Z</time><hdop>3.0</hdop><vdop>2.562</vdop><extensions><gom:speed>0.881</gom:speed></extensions></trkpt>
   <trkpt lat="59.2973316668" lon="34.6665620837"><ele>163.815</ele><time>2026-08-16T15:32:18.136Z</time><hdop>3.0</hdop><vdop>2.75</vdop><extensions><gom:speed>0.902</gom:speed></extensions></trkpt>
   <trkpt lat="59.2973301581" lon="34.6665786799"><ele>164.05</ele><time>2026-08-16T15:32:19.130Z</time><hdop>3.0</hdop><vdop>2.75</vdop><extensions><gom:speed>0.861</gom:speed></extensions></trkpt>
   <trkpt lat="59.2973290684" lon="34.6666019816"><ele>164.329</ele><time>2026-08-16T15:32:20.136Z</time><hdop>3.0</hdop><vdop>2.937</vdop><extensions><gom:speed>1.074</gom:speed></extensions></trkpt>
   <trkpt lat="59.2973308705" lon="34.6666239422"><ele>164.496</ele><time>2026-08-16T15:32:21.124Z</time><hdop>3.0</hdop><vdop>2.937</vdop><extensions><gom:speed>1.059</gom:speed></extensions></trkpt>
   <trkpt lat="59.2973308705" lon="34.6666468248"><ele>164.957</ele><time>2026-08-16T15:32:22.086Z</time><hdop>3.0</hdop><vdop>3.25</vdop><extensions><gom:speed>1.031</gom:speed></extensions></trkpt>
   <trkpt lat="59.2973323793" lon="34.6666617446"><ele>165.32</ele><time>2026-08-16T15:32:22.625Z</time><hdop>3.0</hdop><vdop>3.312</vdop><extensions><gom:speed>1.109</gom:speed></extensions></trkpt>
   <trkpt lat="59.2973342652" lon="34.6666745689"><ele>165.568</ele><time>2026-08-16T15:32:23.136Z</time><hdop>3.0</hdop><vdop>3.125</vdop><extensions><gom:speed>1.178</gom:speed></extensions></trkpt>
   <trkpt lat="59.2973373665" lon="34.6666968648"><ele>165.442</ele><time>2026-08-16T15:32:24.136Z</time><hdop>3.0</hdop><vdop>3.187</vdop><extensions><gom:speed>1.2</gom:speed></extensions></trkpt>
   <trkpt lat="59.2973361931" lon="34.6667186577"><ele>165.328</ele><time>2026-08-16T15:32:25.136Z</time><hdop>3.0</hdop><vdop>3.187</vdop><extensions><gom:speed>1.134</gom:speed></extensions></trkpt>
   <trkpt lat="59.2973318764" lon="34.6667366788"><ele>165.608</ele><time>2026-08-16T15:32:26.136Z</time><hdop>3.0</hdop><vdop>3.0</vdop><extensions><gom:speed>1.082</gom:speed></extensions></trkpt>
   <trkpt lat="59.2973296971" lon="34.6667485811"><ele>165.776</ele><time>2026-08-16T15:32:26.866Z</time><hdop>3.0</hdop><vdop>3.0</vdop><extensions><gom:speed>0.987</gom:speed></extensions></trkpt>
   <trkpt lat="59.2973304934" lon="34.6667612378"><ele>166.224</ele><time>2026-08-16T15:32:27.523Z</time><hdop>3.0</hdop><vdop>2.937</vdop><extensions><gom:speed>0.952</gom:speed></extensions></trkpt>
   <trkpt lat="59.2973319602" lon="34.6667726372"><ele>166.697</ele><time>2026-08-16T15:32:28.136Z</time><hdop>3.0</hdop><vdop>2.937</vdop><extensions><gom:speed>0.97</gom:speed></extensions></trkpt>
   <trkpt lat="59.2973362769" lon="34.6667887304"><ele>166.955</ele><time>2026-08-16T15:32:29.136Z</time><hdop>3.0</hdop><vdop>2.937</vdop><extensions><gom:speed>0.941</gom:speed></extensions></trkpt>
   <trkpt lat="59.2973412641" lon="34.6668014709"><ele>167.342</ele><time>2026-08-16T15:32:30.136Z</time><hdop>3.0</hdop><vdop>3.0</vdop><extensions><gom:speed>0.892</gom:speed></extensions></trkpt>
   <trkpt lat="59.2973420604" lon="34.666816726"><ele>167.573</ele><time>2026-08-16T15:32:31.066Z</time><hdop>3.0</hdop><vdop>3.0</vdop><extensions><gom:speed>0.918</gom:speed></extensions></trkpt>
   <trkpt lat="59.297340384" lon="34.6668253593"><ele>167.888</ele><time>2026-08-16T15:32:31.626Z</time><hdop>3.0</hdop><vdop>3.062</vdop><extensions><gom:speed>0.977</gom:speed></extensions></trkpt>
   <trkpt lat="59.2973387914" lon="34.6668344956"><ele>168.076</ele><time>2026-08-16T15:32:32.107Z</time><hdop>3.0</hdop><vdop>3.062</vdop><extensions><gom:speed>0.979</gom:speed></extensions></trkpt>
   <trkpt lat="59.2973351872" lon="34.6668460626"><ele>168.445</ele><time>2026-08-16T15:32:32.951Z</time><hdop>3.0</hdop><vdop>3.0</vdop><extensions><gom:speed>1.006</gom:speed></extensions></trkpt>
   <trkpt lat="59.2973314992" lon="34.6668560371"><ele>168.58</ele><time>2026-08-16T15:32:33.864Z</time><hdop>3.0</hdop><vdop>2.875</vdop><extensions><gom:speed>1.042</gom:speed></extensions></trkpt>
   <trkpt lat="59.2973290684" lon="34.6668675203"><ele>168.555</ele><time>2026-08-16T15:32:34.805Z</time><hdop>3.0</hdop><vdop>2.937</vdop><extensions><gom:speed>0.993</gom:speed></extensions></trkpt>
   <trkpt lat="59.297329278" lon="34.666872298"><ele>168.398</ele><time>2026-08-16T15:32:35.385Z</time><hdop>3.0</hdop><vdop>2.937</vdop><extensions><gom:speed>0.947</gom:speed></extensions></trkpt>
   <trkpt lat="59.2973282722" lon="34.6668845356"><ele>168.304</ele><time>2026-08-16T15:32:36.111Z</time><hdop>3.0</hdop><vdop>2.937</vdop><extensions><gom:speed>0.957</gom:speed></extensions></trkpt>
   <trkpt lat="59.2973271825" lon="34.666891744"><ele>168.097</ele><time>2026-08-16T15:32:36.985Z</time><hdop>3.0</hdop><vdop>2.812</vdop><extensions><gom:speed>0.864</gom:speed></extensions></trkpt>
   <trkpt lat="59.2973259671" lon="34.6668943424"><ele>167.643</ele><time>2026-08-16T15:32:37.790Z</time><hdop>3.0</hdop><vdop>2.937</vdop><extensions><gom:speed>0.786</gom:speed></extensions></trkpt>
   <trkpt lat="59.2973255899" lon="34.6668919955"><ele>167.331</ele><time>2026-08-16T15:32:38.271Z</time><hdop>3.0</hdop><vdop>2.875</vdop><extensions><gom:speed>0.702</gom:speed></extensions></trkpt>
   <trkpt lat="59.2973240812" lon="34.6669030596"><ele>167.145</ele><time>2026-08-16T15:32:39.085Z</time><hdop>3.0</hdop><vdop>2.875</vdop><extensions><gom:speed>0.81</gom:speed></extensions></trkpt>
   <trkpt lat="59.2973245841" lon="34.6669052389"><ele>166.957</ele><time>2026-08-16T15:32:39.586Z</time><hdop>3.0</hdop><vdop>2.937</vdop><extensions><gom:speed>0.815</gom:speed></extensions></trkpt>
   <trkpt lat="59.2973248775" lon="34.666905658"><ele>167.082</ele><time>2026-08-16T15:32:40.136Z</time><hdop>3.0</hdop><vdop>3.062</vdop><extensions><gom:speed>0.717</gom:speed></extensions></trkpt>
   <trkpt lat="59.2973245841" lon="34.6669089269"><ele>167.312</ele><time>2026-08-16T15:32:41.136Z</time><hdop>3.0</hdop><vdop>3.0</vdop><extensions><gom:speed>0.686</gom:speed></extensions></trkpt>
   <trkpt lat="59.29732186" lon="34.6669189852"><ele>167.45</ele><time>2026-08-16T15:32:42.089Z</time><hdop>3.0</hdop><vdop>3.0</vdop><extensions><gom:speed>0.727</gom:speed></extensions></trkpt>
   <trkpt lat="59.2973193873" lon="34.6669179794"><ele>167.595</ele><time>2026-08-16T15:32:42.687Z</time><hdop>3.0</hdop><vdop>3.062</vdop><extensions><gom:speed>0.697</gom:speed></extensions></trkpt>
   <trkpt lat="59.2973178786" lon="34.6669175603"><ele>167.706</ele><time>2026-08-16T15:32:43.266Z</time><hdop>3.0</hdop><vdop>3.25</vdop><extensions><gom:speed>0.642</gom:speed></extensions></trkpt>
   <trkpt lat="59.2973156993" lon="34.6669224218"><ele>167.772</ele><time>2026-08-16T15:32:43.806Z</time><hdop>3.0</hdop><vdop>3.25</vdop><extensions><gom:speed>0.689</gom:speed></extensions></trkpt>
   <trkpt lat="59.2973145677" lon="34.6669291273"><ele>167.588</ele><time>2026-08-16T15:32:45.136Z</time><hdop>3.0</hdop><vdop>2.937</vdop><extensions><gom:speed>0.62</gom:speed></extensions></trkpt>
   <trkpt lat="59.297313981" lon="34.6669364195"><ele>167.478</ele><time>2026-08-16T15:32:45.710Z</time><hdop>3.0</hdop><vdop>2.937</vdop><extensions><gom:speed>0.722</gom:speed></extensions></trkpt>
   <trkpt lat="59.2973148611" lon="34.6669468969"><ele>167.745</ele><time>2026-08-16T15:32:46.643Z</time><hdop>3.0</hdop><vdop>3.0</vdop><extensions><gom:speed>0.736</gom:speed></extensions></trkpt>
   <trkpt lat="59.2973160765" lon="34.6669508364"><ele>168.123</ele><time>2026-08-16T15:32:47.136Z</time><hdop>3.0</hdop><vdop>3.062</vdop><extensions><gom:speed>0.657</gom:speed></extensions></trkpt>
   <trkpt lat="59.2973166632" lon="34.6669580449"><ele>168.349</ele><time>2026-08-16T15:32:47.683Z</time><hdop>3.0</hdop><vdop>3.062</vdop><extensions><gom:speed>0.738</gom:speed></extensions></trkpt>
   <trkpt lat="59.2973188844" lon="34.6669605594"><ele>168.414</ele><time>2026-08-16T15:32:48.136Z</time><hdop>3.0</hdop><vdop>3.0</vdop><extensions><gom:speed>0.718</gom:speed></extensions></trkpt>
   <trkpt lat="59.2973245841" lon="34.6669678517"><ele>168.526</ele><time>2026-08-16T15:32:49.136Z</time><hdop>3.0</hdop><vdop>3.0</vdop><extensions><gom:speed>0.708</gom:speed></extensions></trkpt>
   <trkpt lat="59.2973283979" lon="34.6669759821"><ele>168.593</ele><time>2026-08-16T15:32:49.911Z</time><hdop>3.0</hdop><vdop>3.0</vdop><extensions><gom:speed>0.787</gom:speed></extensions></trkpt>
   <trkpt lat="59.2973328822" lon="34.6669784967"><ele>168.508</ele><time>2026-08-16T15:32:50.490Z</time><hdop>3.0</hdop><vdop>3.312</vdop><extensions><gom:speed>0.774</gom:speed></extensions></trkpt>
   <trkpt lat="59.2973364864" lon="34.6669835258"><ele>168.539</ele><time>2026-08-16T15:32:51.136Z</time><hdop>3.0</hdop><vdop>3.25</vdop><extensions><gom:speed>0.818</gom:speed></extensions></trkpt>
   <trkpt lat="59.2973388753" lon="34.6669933327"><ele>168.833</ele><time>2026-08-16T15:32:52.136Z</time><hdop>3.0</hdop><vdop>3.125</vdop><extensions><gom:speed>0.731</gom:speed></extensions></trkpt>
   <trkpt lat="59.2973402583" lon="34.6670038939"><ele>169.009</ele><time>2026-08-16T15:32:52.944Z</time><hdop>3.0</hdop><vdop>3.125</vdop><extensions><gom:speed>0.78</gom:speed></extensions></trkpt>
   <trkpt lat="59.2973422699" lon="34.6670139521"><ele>169.344</ele><time>2026-08-16T15:32:53.690Z</time><hdop>3.0</hdop><vdop>2.937</vdop><extensions><gom:speed>0.828</gom:speed></extensions></trkpt>
   <trkpt lat="59.2973433596" lon="34.6670244295"><ele>169.284</ele><time>2026-08-16T15:32:54.583Z</time><hdop>3.0</hdop><vdop>3.125</vdop><extensions><gom:speed>0.812</gom:speed></extensions></trkpt>
   <trkpt lat="59.2973449941" lon="34.6670305483"><ele>168.626</ele><time>2026-08-16T15:32:55.136Z</time><hdop>3.0</hdop><vdop>3.375</vdop><extensions><gom:speed>0.792</gom:speed></extensions></trkpt>
   <trkpt lat="59.297348263" lon="34.6670429535"><ele>167.984</ele><time>2026-08-16T15:32:56.136Z</time><hdop>3.0</hdop><vdop>3.312</vdop><extensions><gom:speed>0.794</gom:speed></extensions></trkpt>
   <trkpt lat="59.2973488916" lon="34.6670566999"><ele>167.6</ele><time>2026-08-16T15:32:57.145Z</time><hdop>3.0</hdop><vdop>3.312</vdop><extensions><gom:speed>0.838</gom:speed></extensions></trkpt>
   <trkpt lat="59.2973473829" lon="34.6670662552"><ele>167.083</ele><time>2026-08-16T15:32:57.969Z</time><hdop>3.0</hdop><vdop>3.187</vdop><extensions><gom:speed>0.845</gom:speed></extensions></trkpt>
   <trkpt lat="59.2973487659" lon="34.667072374"><ele>166.59</ele><time>2026-08-16T15:32:58.490Z</time><hdop>3.0</hdop><vdop>3.187</vdop><extensions><gom:speed>0.815</gom:speed></extensions></trkpt>
   <trkpt lat="59.2973504842" lon="34.6670807559"><ele>166.341</ele><time>2026-08-16T15:32:59.136Z</time><hdop>3.0</hdop><vdop>3.437</vdop><extensions><gom:speed>0.784</gom:speed></extensions></trkpt>
   <trkpt lat="59.2973539627" lon="34.6670956757"><ele>166.191</ele><time>2026-08-16T15:33:00.129Z</time><hdop>3.0</hdop><vdop>3.437</vdop><extensions><gom:speed>0.811</gom:speed></extensions></trkpt>
   <trkpt lat="59.2973584889" lon="34.6671049796"><ele>166.661</ele><time>2026-08-16T15:33:00.845Z</time><hdop>3.0</hdop><vdop>3.187</vdop><extensions><gom:speed>0.809</gom:speed></extensions></trkpt>
   <trkpt lat="59.2973675833" lon="34.6671174687"><ele>167.243</ele><time>2026-08-16T15:33:02.136Z</time><hdop>3.0</hdop><vdop>3.062</vdop><extensions><gom:speed>0.747</gom:speed></extensions></trkpt>
   <trkpt lat="59.297373283" lon="34.6671299577"><ele>167.59</ele><time>2026-08-16T15:33:03.132Z</time><hdop>3.0</hdop><vdop>3.062</vdop><extensions><gom:speed>0.835</gom:speed></extensions></trkpt>
   <trkpt lat="59.2973777673" lon="34.6671393454"><ele>167.955</ele><time>2026-08-16T15:33:03.770Z</time><hdop>3.0</hdop><vdop>3.187</vdop><extensions><gom:speed>0.882</gom:speed></extensions></trkpt>
   <trkpt lat="59.297381162" lon="34.6671511639"><ele>167.858</ele><time>2026-08-16T15:33:04.487Z</time><hdop>3.0</hdop><vdop>2.875</vdop><extensions><gom:speed>0.907</gom:speed></extensions></trkpt>
   <trkpt lat="59.2973832993" lon="34.6671623957"><ele>167.798</ele><time>2026-08-16T15:33:05.136Z</time><hdop>3.0</hdop><vdop>3.0</vdop><extensions><gom:speed>0.893</gom:speed></extensions></trkpt>
   <trkpt lat="59.2973848919" lon="34.667171029"><ele>167.762</ele><time>2026-08-16T15:33:05.625Z</time><hdop>3.0</hdop><vdop>3.0</vdop><extensions><gom:speed>0.946</gom:speed></extensions></trkpt>
   <trkpt lat="59.2973859816" lon="34.6671801653"><ele>167.487</ele><time>2026-08-16T15:33:06.136Z</time><hdop>3.0</hdop><vdop>3.0</vdop><extensions><gom:speed>0.926</gom:speed></extensions></trkpt>
   <trkpt lat="59.2973870712" lon="34.6671893854"><ele>167.322</ele><time>2026-08-16T15:33:06.685Z</time><hdop>3.0</hdop><vdop>3.0</vdop><extensions><gom:speed>0.89</gom:speed></extensions></trkpt>
   <trkpt lat="59.2973882866" lon="34.6671980187"><ele>167.082</ele><time>2026-08-16T15:33:07.136Z</time><hdop>3.0</hdop><vdop>3.125</vdop><extensions><gom:speed>0.928</gom:speed></extensions></trkpt>
   <trkpt lat="59.2973895858" lon="34.6672060654"><ele>166.939</ele><time>2026-08-16T15:33:07.588Z</time><hdop>3.0</hdop><vdop>3.125</vdop><extensions><gom:speed>0.877</gom:speed></extensions></trkpt>
   <trkpt lat="59.2973911783" lon="34.6672146987"><ele>166.853</ele><time>2026-08-16T15:33:08.128Z</time><hdop>3.0</hdop><vdop>3.125</vdop><extensions><gom:speed>0.884</gom:speed></extensions></trkpt>
   <trkpt lat="59.2973943635" lon="34.6672276907"><ele>166.96</ele><time>2026-08-16T15:33:08.766Z</time><hdop>3.0</hdop><vdop>3.312</vdop><extensions><gom:speed>0.939</gom:speed></extensions></trkpt>
   <trkpt lat="59.2973977581" lon="34.6672440354"><ele>167.093</ele><time>2026-08-16T15:33:09.571Z</time><hdop>3.0</hdop><vdop>3.25</vdop><extensions><gom:speed>0.951</gom:speed></extensions></trkpt>
   <trkpt lat="59.2973994764" lon="34.6672551833"><ele>167.036</ele><time>2026-08-16T15:33:10.136Z</time><hdop>3.0</hdop><vdop>3.187</vdop><extensions><gom:speed>0.934</gom:speed></extensions></trkpt>
   <trkpt lat="59.297401069" lon="34.6672688458"><ele>167.002</ele><time>2026-08-16T15:33:10.925Z</time><hdop>3.0</hdop><vdop>3.187</vdop><extensions><gom:speed>0.928</gom:speed></extensions></trkpt>
   <trkpt lat="59.2973993926" lon="34.6672819216"><ele>167.012</ele><time>2026-08-16T15:33:11.563Z</time><hdop>3.0</hdop><vdop>3.187</vdop><extensions><gom:speed>0.904</gom:speed></extensions></trkpt>
   <trkpt lat="59.2973963751" lon="34.6672930695"><ele>166.985</ele><time>2026-08-16T15:33:12.136Z</time><hdop>3.0</hdop><vdop>3.0</vdop><extensions><gom:speed>0.891</gom:speed></extensions></trkpt>
   <trkpt lat="59.2973903821" lon="34.6673113421"><ele>166.38</ele><time>2026-08-16T15:33:13.136Z</time><hdop>3.0</hdop><vdop>3.0</vdop><extensions><gom:speed>0.879</gom:speed></extensions></trkpt>
   <trkpt lat="59.297388999" lon="34.6673281897"><ele>166.019</ele><time>2026-08-16T15:33:14.086Z</time><hdop>3.0</hdop><vdop>3.0</vdop><extensions><gom:speed>0.843</gom:speed></extensions></trkpt>
   <trkpt lat="59.2973879932" lon="34.6673455402"><ele>165.361</ele><time>2026-08-16T15:33:14.645Z</time><hdop>3.0</hdop><vdop>3.0</vdop><extensions><gom:speed>1.044</gom:speed></extensions></trkpt>
   <trkpt lat="59.2973870712" lon="34.6673550956"><ele>165.015</ele><time>2026-08-16T15:33:15.136Z</time><hdop>3.0</hdop><vdop>2.937</vdop><extensions><gom:speed>0.949</gom:speed></extensions></trkpt>
   <trkpt lat="59.2973856882" lon="34.6673632261"><ele>164.808</ele><time>2026-08-16T15:33:15.587Z</time><hdop>3.0</hdop><vdop>2.937</vdop><extensions><gom:speed>0.965</gom:speed></extensions></trkpt>
   <trkpt lat="59.2973814972" lon="34.6673706859"><ele>164.586</ele><time>2026-08-16T15:33:16.136Z</time><hdop>3.0</hdop><vdop>3.187</vdop><extensions><gom:speed>0.967</gom:speed></extensions></trkpt>
   <trkpt lat="59.2973738697" lon="34.6673824206"><ele>164.453</ele><time>2026-08-16T15:33:17.148Z</time><hdop>3.0</hdop><vdop>3.187</vdop><extensions><gom:speed>0.933</gom:speed></extensions></trkpt>
   <trkpt lat="59.2973640629" lon="34.6673943229"><ele>164.665</ele><time>2026-08-16T15:33:18.136Z</time><hdop>3.0</hdop><vdop>2.937</vdop><extensions><gom:speed>0.938</gom:speed></extensions></trkpt>
   <trkpt lat="59.2973553876" lon="34.6674047165"><ele>164.725</ele><time>2026-08-16T15:33:19.136Z</time><hdop>3.0</hdop><vdop>2.75</vdop><extensions><gom:speed>0.886</gom:speed></extensions></trkpt>
   <trkpt lat="59.2973483887" lon="34.6674143557"><ele>164.761</ele><time>2026-08-16T15:33:20.043Z</time><hdop>3.0</hdop><vdop>2.75</vdop><extensions><gom:speed>0.877</gom:speed></extensions></trkpt>
   <trkpt lat="59.2973432758" lon="34.6674265932"><ele>165.019</ele><time>2026-08-16T15:33:20.868Z</time><hdop>3.0</hdop><vdop>2.625</vdop><extensions><gom:speed>0.87</gom:speed></extensions></trkpt>
   <trkpt lat="59.2973390848" lon="34.6674410939"><ele>165.068</ele><time>2026-08-16T15:33:21.771Z</time><hdop>3.0</hdop><vdop>2.687</vdop><extensions><gom:speed>0.871</gom:speed></extensions></trkpt>
   <trkpt lat="59.2973339718" lon="34.6674516551"><ele>165.133</ele><time>2026-08-16T15:33:22.428Z</time><hdop>3.0</hdop><vdop>2.937</vdop><extensions><gom:speed>0.951</gom:speed></extensions></trkpt>
   <trkpt lat="59.2973297809" lon="34.667458193"><ele>165.062</ele><time>2026-08-16T15:33:23.136Z</time><hdop>3.0</hdop><vdop>2.687</vdop><extensions><gom:speed>0.852</gom:speed></extensions></trkpt>
   <trkpt lat="59.2973265958" lon="34.6674699277"><ele>165.019</ele><time>2026-08-16T15:33:24.009Z</time><hdop>3.0</hdop><vdop>2.687</vdop><extensions><gom:speed>0.849</gom:speed></extensions></trkpt>
   <trkpt lat="59.2973235783" lon="34.6674813271"><ele>164.876</ele><time>2026-08-16T15:33:25.108Z</time><hdop>3.0</hdop><vdop>2.562</vdop><extensions><gom:speed>0.773</gom:speed></extensions></trkpt>
   <trkpt lat="59.2973233687" lon="34.667483674"><ele>164.36</ele><time>2026-08-16T15:33:25.648Z</time><hdop>3.0</hdop><vdop>2.5</vdop><extensions><gom:speed>0.766</gom:speed></extensions></trkpt>
   <trkpt lat="59.2973228658" lon="34.6674870268"><ele>164.082</ele><time>2026-08-16T15:33:26.136Z</time><hdop>3.0</hdop><vdop>2.5</vdop><extensions><gom:speed>0.736</gom:speed></extensions></trkpt>
   <trkpt lat="59.2973217762" lon="34.6674983423"><ele>164.037</ele><time>2026-08-16T15:33:27.136Z</time><hdop>3.0</hdop><vdop>2.5</vdop><extensions><gom:speed>0.793</gom:speed></extensions></trkpt>
   <trkpt lat="59.2973191778" lon="34.6675099932"><ele>164.09</ele><time>2026-08-16T15:33:28.136Z</time><hdop>3.0</hdop><vdop>2.5</vdop><extensions><gom:speed>0.834</gom:speed></extensions></trkpt>
   <trkpt lat="59.2973167889" lon="34.6675184589"><ele>164.121</ele><time>2026-08-16T15:33:28.690Z</time><hdop>3.0</hdop><vdop>2.5</vdop><extensions><gom:speed>0.906</gom:speed></extensions></trkpt>
   <trkpt lat="59.2973121789" lon="34.6675251644"><ele>164.326</ele><time>2026-08-16T15:33:29.525Z</time><hdop>3.0</hdop><vdop>2.5</vdop><extensions><gom:speed>0.835</gom:speed></extensions></trkpt>
   <trkpt lat="59.2973082813" lon="34.6675268408"><ele>164.501</ele><time>2026-08-16T15:33:30.136Z</time><hdop>3.0</hdop><vdop>2.5</vdop><extensions><gom:speed>0.77</gom:speed></extensions></trkpt>
   <trkpt lat="59.2973047609" lon="34.6675262541"><ele>164.606</ele><time>2026-08-16T15:33:30.604Z</time><hdop>3.0</hdop><vdop>2.5</vdop><extensions><gom:speed>0.745</gom:speed></extensions></trkpt>
   <trkpt lat="59.2973009891" lon="34.6675252482"><ele>164.728</ele><time>2026-08-16T15:33:31.136Z</time><hdop>3.0</hdop><vdop>2.5</vdop><extensions><gom:speed>0.748</gom:speed></extensions></trkpt>
   <trkpt lat="59.2972935711" lon="34.6675262541"><ele>164.801</ele><time>2026-08-16T15:33:32.126Z</time><hdop>3.0</hdop><vdop>2.5</vdop><extensions><gom:speed>0.749</gom:speed></extensions></trkpt>
   <trkpt lat="59.2972890868" lon="34.6675270923"><ele>164.772</ele><time>2026-08-16T15:33:32.872Z</time><hdop>3.0</hdop><vdop>2.5</vdop><extensions><gom:speed>0.724</gom:speed></extensions></trkpt>
   <trkpt lat="59.297282968" lon="34.6675242424"><ele>164.775</ele><time>2026-08-16T15:33:33.745Z</time><hdop>3.0</hdop><vdop>2.5</vdop><extensions><gom:speed>0.763</gom:speed></extensions></trkpt>
   <trkpt lat="59.2972770587" lon="34.6675212249"><ele>164.715</ele><time>2026-08-16T15:33:34.609Z</time><hdop>3.0</hdop><vdop>2.5</vdop><extensions><gom:speed>0.758</gom:speed></extensions></trkpt>
   <trkpt lat="59.2972734964" lon="34.6675223984"><ele>164.576</ele><time>2026-08-16T15:33:35.136Z</time><hdop>3.0</hdop><vdop>2.5</vdop><extensions><gom:speed>0.795</gom:speed></extensions></trkpt>
   <trkpt lat="59.2972681739" lon="34.6675341331"><ele>164.728</ele><time>2026-08-16T15:33:36.136Z</time><hdop>3.0</hdop><vdop>2.5</vdop><extensions><gom:speed>0.803</gom:speed></extensions></trkpt>
   <trkpt lat="59.2972687606" lon="34.6675544173"><ele>164.719</ele><time>2026-08-16T15:33:37.136Z</time><hdop>3.0</hdop><vdop>2.5</vdop><extensions><gom:speed>0.779</gom:speed></extensions></trkpt>
   <trkpt lat="59.2972693893" lon="34.6675694209"><ele>164.713</ele><time>2026-08-16T15:33:37.966Z</time><hdop>3.0</hdop><vdop>2.5</vdop><extensions><gom:speed>0.803</gom:speed></extensions></trkpt>
   <trkpt lat="59.2972704789" lon="34.6675849274"><ele>164.791</ele><time>2026-08-16T15:33:38.584Z</time><hdop>3.0</hdop><vdop>2.5</vdop><extensions><gom:speed>0.886</gom:speed></extensions></trkpt>
   <trkpt lat="59.297270898" lon="34.6675963268"><ele>164.764</ele><time>2026-08-16T15:33:39.136Z</time><hdop>3.0</hdop><vdop>2.5</vdop><extensions><gom:speed>0.868</gom:speed></extensions></trkpt>
   <trkpt lat="59.2972709818" lon="34.6676122524"><ele>164.748</ele><time>2026-08-16T15:33:39.968Z</time><hdop>3.0</hdop><vdop>2.5</vdop><extensions><gom:speed>0.884</gom:speed></extensions></trkpt>
   <trkpt lat="59.2972746699" lon="34.6676308602"><ele>164.55</ele><time>2026-08-16T15:33:41.136Z</time><hdop>3.0</hdop><vdop>2.5</vdop><extensions><gom:speed>0.866</gom:speed></extensions></trkpt>
   <trkpt lat="59.2972779807" lon="34.6676458638"><ele>164.26</ele><time>2026-08-16T15:33:42.136Z</time><hdop>3.0</hdop><vdop>2.5</vdop><extensions><gom:speed>0.791</gom:speed></extensions></trkpt>
   <trkpt lat="59.29728016" lon="34.6676599454"><ele>164.074</ele><time>2026-08-16T15:33:43.136Z</time><hdop>3.0</hdop><vdop>2.5</vdop><extensions><gom:speed>0.804</gom:speed></extensions></trkpt>
   <trkpt lat="59.2972816688" lon="34.6676724345"><ele>163.963</ele><time>2026-08-16T15:33:43.943Z</time><hdop>3.0</hdop><vdop>2.5</vdop><extensions><gom:speed>0.801</gom:speed></extensions></trkpt>
   <trkpt lat="59.2972809982" lon="34.6676799782"><ele>163.785</ele><time>2026-08-16T15:33:44.502Z</time><hdop>3.0</hdop><vdop>2.5</vdop><extensions><gom:speed>0.798</gom:speed></extensions></trkpt>
   <trkpt lat="59.2972789866" lon="34.6676867675"><ele>163.782</ele><time>2026-08-16T15:33:45.136Z</time><hdop>3.0</hdop><vdop>2.5</vdop><extensions><gom:speed>0.745</gom:speed></extensions></trkpt>
   <trkpt lat="59.2972762624" lon="34.6676981669"><ele>163.781</ele><time>2026-08-16T15:33:46.025Z</time><hdop>3.0</hdop><vdop>2.5</vdop><extensions><gom:speed>0.776</gom:speed></extensions></trkpt>
   <trkpt lat="59.2972752985" lon="34.667711997"><ele>163.758</ele><time>2026-08-16T15:33:46.869Z</time><hdop>3.0</hdop><vdop>2.75</vdop><extensions><gom:speed>0.818</gom:speed></extensions></trkpt>
   <trkpt lat="59.2972763882" lon="34.6677232288"><ele>163.351</ele><time>2026-08-16T15:33:47.772Z</time><hdop>3.0</hdop><vdop>2.5</vdop><extensions><gom:speed>0.725</gom:speed></extensions></trkpt>
   <trkpt lat="59.2972761786" lon="34.6677325327"><ele>163.105</ele><time>2026-08-16T15:33:48.547Z</time><hdop>3.0</hdop><vdop>2.5</vdop><extensions><gom:speed>0.71</gom:speed></extensions></trkpt>
   <trkpt lat="59.2972746699" lon="34.667739825"><ele>163.07</ele><time>2026-08-16T15:33:49.136Z</time><hdop>3.0</hdop><vdop>2.5</vdop><extensions><gom:speed>0.746</gom:speed></extensions></trkpt>
   <trkpt lat="59.2972723649" lon="34.6677489612"><ele>163.049</ele><time>2026-08-16T15:33:49.951Z</time><hdop>3.0</hdop><vdop>2.5</vdop><extensions><gom:speed>0.678</gom:speed></extensions></trkpt>
   <trkpt lat="59.2972697665" lon="34.6677596901"><ele>162.966</ele><time>2026-08-16T15:33:50.667Z</time><hdop>3.0</hdop><vdop>2.5</vdop><extensions><gom:speed>0.725</gom:speed></extensions></trkpt>
   <trkpt lat="59.2972686768" lon="34.6677658927"><ele>162.916</ele><time>2026-08-16T15:33:51.129Z</time><hdop>3.0</hdop><vdop>2.5</vdop><extensions><gom:speed>0.712</gom:speed></extensions></trkpt>
   <trkpt lat="59.2972670843" lon="34.667779639"><ele>162.818</ele><time>2026-08-16T15:33:51.904Z</time><hdop>3.0</hdop><vdop>2.5</vdop><extensions><gom:speed>0.769</gom:speed></extensions></trkpt>
   <trkpt lat="59.2972675872" lon="34.6677899487"><ele>162.795</ele><time>2026-08-16T15:33:52.444Z</time><hdop>3.0</hdop><vdop>2.5</vdop><extensions><gom:speed>0.781</gom:speed></extensions></trkpt>
   <trkpt lat="59.2972682996" lon="34.667801432"><ele>162.597</ele><time>2026-08-16T15:33:53.136Z</time><hdop>3.0</hdop><vdop>2.562</vdop><extensions><gom:speed>0.815</gom:speed></extensions></trkpt>
   <trkpt lat="59.2972692636" lon="34.6678167708"><ele>162.509</ele><time>2026-08-16T15:33:54.136Z</time><hdop>3.0</hdop><vdop>2.5</vdop><extensions><gom:speed>0.794</gom:speed></extensions></trkpt>
   <trkpt lat="59.2972694731" lon="34.6678308524"><ele>162.457</ele><time>2026-08-16T15:33:55.006Z</time><hdop>3.0</hdop><vdop>2.5</vdop><extensions><gom:speed>0.783</gom:speed></extensions></trkpt>
   <trkpt lat="59.2972695988" lon="34.6678447664"><ele>162.31</ele><time>2026-08-16T15:33:55.869Z</time><hdop>3.0</hdop><vdop>2.5</vdop><extensions><gom:speed>0.833</gom:speed></extensions></trkpt>
   <trkpt lat="59.2972687606" lon="34.6678515557"><ele>162.214</ele><time>2026-08-16T15:33:56.409Z</time><hdop>3.0</hdop><vdop>2.5</vdop><extensions><gom:speed>0.842</gom:speed></extensions></trkpt>
   <trkpt lat="59.2972670843" lon="34.6678605244"><ele>161.978</ele><time>2026-08-16T15:33:57.136Z</time><hdop>3.0</hdop><vdop>2.562</vdop><extensions><gom:speed>0.792</gom:speed></extensions></trkpt>
   <trkpt lat="59.297265366" lon="34.6678663917"><ele>161.837</ele><time>2026-08-16T15:33:57.607Z</time><hdop>3.0</hdop><vdop>2.562</vdop><extensions><gom:speed>0.831</gom:speed></extensions></trkpt>
   <trkpt lat="59.2972648631" lon="34.6678724267"><ele>161.843</ele><time>2026-08-16T15:33:58.136Z</time><hdop>3.0</hdop><vdop>2.5</vdop><extensions><gom:speed>0.804</gom:speed></extensions></trkpt>
   <trkpt lat="59.2972643601" lon="34.6678823173"><ele>161.847</ele><time>2026-08-16T15:33:58.883Z</time><hdop>3.0</hdop><vdop>2.5</vdop><extensions><gom:speed>0.763</gom:speed></extensions></trkpt>
   <trkpt lat="59.2972671681" lon="34.6678933814"><ele>162.012</ele><time>2026-08-16T15:33:59.668Z</time><hdop>3.0</hdop><vdop>2.562</vdop><extensions><gom:speed>0.763</gom:speed></extensions></trkpt>
   <trkpt lat="59.2972687606" lon="34.6678992488"><ele>161.795</ele><time>2026-08-16T15:34:00.136Z</time><hdop>3.0</hdop><vdop>2.5</vdop><extensions><gom:speed>0.758</gom:speed></extensions></trkpt>
   <trkpt lat="59.297270898" lon="34.6679128274"><ele>161.665</ele><time>2026-08-16T15:34:01.003Z</time><hdop>3.0</hdop><vdop>2.5</vdop><extensions><gom:speed>0.79</gom:speed></extensions></trkpt>
   <trkpt lat="59.297271359" lon="34.6679293398"><ele>161.425</ele><time>2026-08-16T15:34:01.886Z</time><hdop>3.0</hdop><vdop>2.562</vdop><extensions><gom:speed>0.859</gom:speed></extensions></trkpt>
   <trkpt lat="59.2972716943" lon="34.6679372188"><ele>161.635</ele><time>2026-08-16T15:34:02.485Z</time><hdop>3.0</hdop><vdop>2.812</vdop><extensions><gom:speed>0.778</gom:speed></extensions></trkpt>
   <trkpt lat="59.2972716943" lon="34.6679465227"><ele>161.76</ele><time>2026-08-16T15:34:03.123Z</time><hdop>3.0</hdop><vdop>2.812</vdop><extensions><gom:speed>0.766</gom:speed></extensions></trkpt>
   <trkpt lat="59.2972737898" lon="34.667955659"><ele>161.574</ele><time>2026-08-16T15:34:03.985Z</time><hdop>3.0</hdop><vdop>2.812</vdop><extensions><gom:speed>0.724</gom:speed></extensions></trkpt>
   <trkpt lat="59.2972754662" lon="34.6679637894"><ele>161.344</ele><time>2026-08-16T15:34:04.723Z</time><hdop>3.0</hdop><vdop>2.5</vdop><extensions><gom:speed>0.754</gom:speed></extensions></trkpt>
   <trkpt lat="59.2972763882" lon="34.6679711655"><ele>161.213</ele><time>2026-08-16T15:34:05.351Z</time><hdop>3.0</hdop><vdop>2.5</vdop><extensions><gom:speed>0.819</gom:speed></extensions></trkpt>
   <trkpt lat="59.2972768911" lon="34.6679810561"><ele>160.901</ele><time>2026-08-16T15:34:06.136Z</time><hdop>3.0</hdop><vdop>2.562</vdop><extensions><gom:speed>0.771</gom:speed></extensions></trkpt>
   <trkpt lat="59.2972766815" lon="34.667989438"><ele>160.714</ele><time>2026-08-16T15:34:06.784Z</time><hdop>3.0</hdop><vdop>2.562</vdop><extensions><gom:speed>0.755</gom:speed></extensions></trkpt>
   <trkpt lat="59.2972732869" lon="34.6680039387"><ele>160.475</ele><time>2026-08-16T15:34:07.991Z</time><hdop>3.0</hdop><vdop>2.562</vdop><extensions><gom:speed>0.739</gom:speed></extensions></trkpt>
   <trkpt lat="59.2972702694" lon="34.6680131588"><ele>160.533</ele><time>2026-08-16T15:34:08.727Z</time><hdop>3.0</hdop><vdop>2.625</vdop><extensions><gom:speed>0.766</gom:speed></extensions></trkpt>
   <trkpt lat="59.2972688864" lon="34.6680217922"><ele>160.509</ele><time>2026-08-16T15:34:09.287Z</time><hdop>3.0</hdop><vdop>2.812</vdop><extensions><gom:speed>0.771</gom:speed></extensions></trkpt>
   <trkpt lat="59.2972681739" lon="34.6680338621"><ele>160.494</ele><time>2026-08-16T15:34:10.072Z</time><hdop>3.0</hdop><vdop>2.812</vdop><extensions><gom:speed>0.801</gom:speed></extensions></trkpt>
   <trkpt lat="59.2972702694" lon="34.6680443395"><ele>160.225</ele><time>2026-08-16T15:34:10.827Z</time><hdop>3.0</hdop><vdop>2.875</vdop><extensions><gom:speed>0.777</gom:speed></extensions></trkpt>
   <trkpt lat="59.2972712752" lon="34.6680548169"><ele>159.709</ele><time>2026-08-16T15:34:11.425Z</time><hdop>3.0</hdop><vdop>2.75</vdop><extensions><gom:speed>0.89</gom:speed></extensions></trkpt>
   <trkpt lat="59.2972707723" lon="34.6680648752"><ele>159.401</ele><time>2026-08-16T15:34:11.986Z</time><hdop>3.0</hdop><vdop>2.75</vdop><extensions><gom:speed>0.884</gom:speed></extensions></trkpt>
   <trkpt lat="59.2972692636" lon="34.6680741791"><ele>159.163</ele><time>2026-08-16T15:34:12.564Z</time><hdop>3.0</hdop><vdop>2.5</vdop><extensions><gom:speed>0.888</gom:speed></extensions></trkpt>
   <trkpt lat="59.2972686768" lon="34.6680836506"><ele>159.021</ele><time>2026-08-16T15:34:13.105Z</time><hdop>3.0</hdop><vdop>2.5</vdop><extensions><gom:speed>0.892</gom:speed></extensions></trkpt>
   <trkpt lat="59.2972665813" lon="34.6680977322"><ele>158.781</ele><time>2026-08-16T15:34:13.908Z</time><hdop>3.0</hdop><vdop>2.5</vdop><extensions><gom:speed>0.895</gom:speed></extensions></trkpt>
   <trkpt lat="59.297263983" lon="34.6680996601"><ele>158.418</ele><time>2026-08-16T15:34:14.646Z</time><hdop>3.0</hdop><vdop>2.5</vdop><extensions><gom:speed>0.637</gom:speed></extensions></trkpt>
   <trkpt lat="59.2972628933" lon="34.6680978999"><ele>158.17</ele><time>2026-08-16T15:34:15.136Z</time><hdop>3.0</hdop><vdop>2.5</vdop><extensions><gom:speed>0.447</gom:speed></extensions></trkpt>
   <trkpt lat="59.2972616779" lon="34.6680944633"><ele>158.038</ele><time>2026-08-16T15:34:16.136Z</time><hdop>3.0</hdop><vdop>2.5</vdop><extensions><gom:speed>0.282</gom:speed></extensions></trkpt>
   <trkpt lat="59.297261175" lon="34.6680892665"><ele>157.975</ele><time>2026-08-16T15:34:17.136Z</time><hdop>3.0</hdop><vdop>2.5</vdop><extensions><gom:speed>0.164</gom:speed></extensions></trkpt>
   <trkpt lat="59.2972612588" lon="34.6680832315"><ele>157.944</ele><time>2026-08-16T15:34:18.136Z</time><hdop>3.0</hdop><vdop>2.5</vdop><extensions><gom:speed>0.094</gom:speed></extensions></trkpt>
   <trkpt lat="59.2972616779" lon="34.6680804655"><ele>157.919</ele><time>2026-08-16T15:34:19.136Z</time><hdop>3.0</hdop><vdop>2.5</vdop><extensions><gom:speed>0.094</gom:speed></extensions></trkpt>
   <trkpt lat="59.2972616779" lon="34.6680795435"><ele>157.761</ele><time>2026-08-16T15:34:20.136Z</time><hdop>3.0</hdop><vdop>2.5</vdop><extensions><gom:speed>0.107</gom:speed></extensions></trkpt>
   <trkpt lat="59.2972617618" lon="34.6680800464"><ele>157.666</ele><time>2026-08-16T15:34:20.849Z</time><hdop>3.0</hdop><vdop>2.5</vdop><extensions><gom:speed>0.086</gom:speed></extensions></trkpt>
   <trkpt lat="59.2972617618" lon="34.6680809684"><ele>157.637</ele><time>2026-08-16T15:34:21.850Z</time><hdop>3.0</hdop><vdop>2.562</vdop><extensions><gom:speed>0.097</gom:speed></extensions></trkpt>
   <trkpt lat="59.2972612588" lon="34.6680844888"><ele>157.729</ele><time>2026-08-16T15:34:22.566Z</time><hdop>3.0</hdop><vdop>2.687</vdop><extensions><gom:speed>0.155</gom:speed></extensions></trkpt>
   <trkpt lat="59.2972607978" lon="34.6680897694"><ele>157.46</ele><time>2026-08-16T15:34:23.136Z</time><hdop>3.0</hdop><vdop>2.625</vdop><extensions><gom:speed>0.216</gom:speed></extensions></trkpt>
   <trkpt lat="59.2972598758" lon="34.6681006659"><ele>157.408</ele><time>2026-08-16T15:34:24.136Z</time><hdop>3.0</hdop><vdop>2.687</vdop><extensions><gom:speed>0.328</gom:speed></extensions></trkpt>
   <trkpt lat="59.2972593729" lon="34.6681107242"><ele>157.377</ele><time>2026-08-16T15:34:24.912Z</time><hdop>3.0</hdop><vdop>2.687</vdop><extensions><gom:speed>0.439</gom:speed></extensions></trkpt>
   <trkpt lat="59.2972584928" lon="34.668123297"><ele>157.513</ele><time>2026-08-16T15:34:25.364Z</time><hdop>3.0</hdop><vdop>2.687</vdop><extensions><gom:speed>0.638</gom:speed></extensions></trkpt>
   <trkpt lat="59.2972564812" lon="34.6681367919"><ele>157.885</ele><time>2026-08-16T15:34:26.136Z</time><hdop>3.0</hdop><vdop>2.875</vdop><extensions><gom:speed>0.659</gom:speed></extensions></trkpt>
   <trkpt lat="59.2972528769" lon="34.6681490295"><ele>158.107</ele><time>2026-08-16T15:34:27.071Z</time><hdop>3.0</hdop><vdop>2.875</vdop><extensions><gom:speed>0.662</gom:speed></extensions></trkpt>
   <trkpt lat="59.2972475963" lon="34.6681595907"><ele>158.111</ele><time>2026-08-16T15:34:27.906Z</time><hdop>3.0</hdop><vdop>2.562</vdop><extensions><gom:speed>0.696</gom:speed></extensions></trkpt>
   <trkpt lat="59.2972416871" lon="34.6681724988"><ele>157.98</ele><time>2026-08-16T15:34:28.769Z</time><hdop>3.0</hdop><vdop>2.562</vdop><extensions><gom:speed>0.763</gom:speed></extensions></trkpt>
   <trkpt lat="59.297238963" lon="34.6681826409"><ele>158.039</ele><time>2026-08-16T15:34:29.231Z</time><hdop>3.0</hdop><vdop>2.562</vdop><extensions><gom:speed>0.799</gom:speed></extensions></trkpt>
   <trkpt lat="59.2972360712" lon="34.6681941241"><ele>158.075</ele><time>2026-08-16T15:34:30.006Z</time><hdop>3.0</hdop><vdop>2.562</vdop><extensions><gom:speed>0.818</gom:speed></extensions></trkpt>
   <trkpt lat="59.2972354845" lon="34.6682128996"><ele>158.181</ele><time>2026-08-16T15:34:31.135Z</time><hdop>3.0</hdop><vdop>2.5</vdop><extensions><gom:speed>0.714</gom:speed></extensions></trkpt>
   <trkpt lat="59.2972349816" lon="34.6682288252"><ele>158.377</ele><time>2026-08-16T15:34:32.135Z</time><hdop>3.0</hdop><vdop>2.5</vdop><extensions><gom:speed>0.735</gom:speed></extensions></trkpt>
   <trkpt lat="59.2972336824" lon="34.6682378776"><ele>158.495</ele><time>2026-08-16T15:34:32.725Z</time><hdop>3.0</hdop><vdop>2.5</vdop><extensions><gom:speed>0.726</gom:speed></extensions></trkpt>
   <trkpt lat="59.2972322994" lon="34.6682505343"><ele>158.669</ele><time>2026-08-16T15:34:33.490Z</time><hdop>3.0</hdop><vdop>2.5</vdop><extensions><gom:speed>0.711</gom:speed></extensions></trkpt>
   <trkpt lat="59.2972321736" lon="34.6682599221"><ele>158.882</ele><time>2026-08-16T15:34:34.136Z</time><hdop>3.0</hdop><vdop>2.5</vdop><extensions><gom:speed>0.663</gom:speed></extensions></trkpt>
   <trkpt lat="59.2972322994" lon="34.66827107"><ele>159.01</ele><time>2026-08-16T15:34:35.012Z</time><hdop>3.0</hdop><vdop>2.5</vdop><extensions><gom:speed>0.638</gom:speed></extensions></trkpt>
   <trkpt lat="59.2972315869" lon="34.66828775"><ele>158.945</ele><time>2026-08-16T15:34:36.003Z</time><hdop>3.0</hdop><vdop>2.5</vdop><extensions><gom:speed>0.71</gom:speed></extensions></trkpt>
   <trkpt lat="59.297232467" lon="34.6683013287"><ele>158.694</ele><time>2026-08-16T15:34:36.788Z</time><hdop>3.0</hdop><vdop>2.5</vdop><extensions><gom:speed>0.806</gom:speed></extensions></trkpt>
   <trkpt lat="59.297232467" lon="34.668313231"><ele>158.414</ele><time>2026-08-16T15:34:37.544Z</time><hdop>3.0</hdop><vdop>2.5</vdop><extensions><gom:speed>0.836</gom:speed></extensions></trkpt>
   <trkpt lat="59.2972319641" lon="34.6683189307"><ele>158.289</ele><time>2026-08-16T15:34:38.136Z</time><hdop>3.0</hdop><vdop>2.5</vdop><extensions><gom:speed>0.772</gom:speed></extensions></trkpt>
   <trkpt lat="59.2972309583" lon="34.6683254685"><ele>158.102</ele><time>2026-08-16T15:34:39.136Z</time><hdop>3.0</hdop><vdop>2.5</vdop><extensions><gom:speed>0.72</gom:speed></extensions></trkpt>
   <trkpt lat="59.297230162" lon="34.6683285698"><ele>157.991</ele><time>2026-08-16T15:34:39.988Z</time><hdop>3.062</hdop><vdop>2.5</vdop><extensions><gom:speed>0.728</gom:speed></extensions></trkpt>
   <trkpt lat="59.2972285694" lon="34.6683347725"><ele>158.055</ele><time>2026-08-16T15:34:40.645Z</time><hdop>3.125</hdop><vdop>2.5</vdop><extensions><gom:speed>0.77</gom:speed></extensions></trkpt>
   <trkpt lat="59.297228779" lon="34.6683423162"><ele>158.273</ele><time>2026-08-16T15:34:41.136Z</time><hdop>3.125</hdop><vdop>2.5</vdop><extensions><gom:speed>0.728</gom:speed></extensions></trkpt>
   <trkpt lat="59.2972289885" lon="34.6683473453"><ele>158.404</ele><time>2026-08-16T15:34:41.588Z</time><hdop>3.187</hdop><vdop>2.5</vdop><extensions><gom:speed>0.72</gom:speed></extensions></trkpt>
   <trkpt lat="59.2972297848" lon="34.6683582418"><ele>158.761</ele><time>2026-08-16T15:34:42.136Z</time><hdop>3.25</hdop><vdop>2.5</vdop><extensions><gom:speed>0.75</gom:speed></extensions></trkpt>
   <trkpt lat="59.2972318803" lon="34.6683776878"><ele>159.081</ele><time>2026-08-16T15:34:43.136Z</time><hdop>3.375</hdop><vdop>2.5</vdop><extensions><gom:speed>0.765</gom:speed></extensions></trkpt>
   <trkpt lat="59.2972340596" lon="34.6683907636"><ele>159.272</ele><time>2026-08-16T15:34:43.943Z</time><hdop>3.437</hdop><vdop>2.5</vdop><extensions><gom:speed>0.766</gom:speed></extensions></trkpt>
   <trkpt lat="59.2972384601" lon="34.6684031688"><ele>159.346</ele><time>2026-08-16T15:34:44.709Z</time><hdop>3.562</hdop><vdop>2.5</vdop><extensions><gom:speed>0.75</gom:speed></extensions></trkpt>
   <trkpt lat="59.2972411842" lon="34.6684091199"><ele>159.222</ele><time>2026-08-16T15:34:45.503Z</time><hdop>3.5</hdop><vdop>2.5</vdop><extensions><gom:speed>0.757</gom:speed></extensions></trkpt>
   <trkpt lat="59.2972416871" lon="34.6684141491"><ele>159.043</ele><time>2026-08-16T15:34:46.136Z</time><hdop>3.5</hdop><vdop>2.5</vdop><extensions><gom:speed>0.667</gom:speed></extensions></trkpt>
   <trkpt lat="59.29724219" lon="34.6684170827"><ele>158.936</ele><time>2026-08-16T15:34:46.888Z</time><hdop>3.437</hdop><vdop>2.5</vdop><extensions><gom:speed>0.706</gom:speed></extensions></trkpt>
   <trkpt lat="59.2972407651" lon="34.6684296556"><ele>158.678</ele><time>2026-08-16T15:34:47.830Z</time><hdop>3.437</hdop><vdop>2.5</vdop><extensions><gom:speed>0.819</gom:speed></extensions></trkpt>
   <trkpt lat="59.2972413937" lon="34.6684464194"><ele>158.282</ele><time>2026-08-16T15:34:48.870Z</time><hdop>3.5</hdop><vdop>2.5</vdop><extensions><gom:speed>0.797</gom:speed></extensions></trkpt>
   <trkpt lat="59.2972445789" lon="34.668459579"><ele>158.107</ele><time>2026-08-16T15:34:49.723Z</time><hdop>3.5</hdop><vdop>2.5</vdop><extensions><gom:speed>0.824</gom:speed></extensions></trkpt>
   <trkpt lat="59.2972513682" lon="34.6684744988"><ele>158.215</ele><time>2026-08-16T15:34:50.765Z</time><hdop>3.562</hdop><vdop>2.5</vdop><extensions><gom:speed>0.784</gom:speed></extensions></trkpt>
   <trkpt lat="59.2972547629" lon="34.6684829645"><ele>158.167</ele><time>2026-08-16T15:34:51.609Z</time><hdop>3.625</hdop><vdop>2.5</vdop><extensions><gom:speed>0.667</gom:speed></extensions></trkpt>
   <trkpt lat="59.2972550981" lon="34.6684860658"><ele>157.97</ele><time>2026-08-16T15:34:52.136Z</time><hdop>3.562</hdop><vdop>2.5</vdop><extensions><gom:speed>0.542</gom:speed></extensions></trkpt>
   <trkpt lat="59.2972557687" lon="34.6684904244"><ele>157.852</ele><time>2026-08-16T15:34:52.846Z</time><hdop>3.562</hdop><vdop>2.5</vdop><extensions><gom:speed>0.484</gom:speed></extensions></trkpt>
   <trkpt lat="59.2972531703" lon="34.6684986387"><ele>157.961</ele><time>2026-08-16T15:34:53.945Z</time><hdop>3.437</hdop><vdop>2.5</vdop><extensions><gom:speed>0.455</gom:speed></extensions></trkpt>
   <trkpt lat="59.2972476802" lon="34.6685101219"><ele>157.723</ele><time>2026-08-16T15:34:54.651Z</time><hdop>3.375</hdop><vdop>2.5</vdop><extensions><gom:speed>0.598</gom:speed></extensions></trkpt>
   <trkpt lat="59.2972431958" lon="34.6685178332"><ele>157.37</ele><time>2026-08-16T15:34:55.136Z</time><hdop>3.25</hdop><vdop>2.5</vdop><extensions><gom:speed>0.642</gom:speed></extensions></trkpt>
   <trkpt lat="59.2972358617" lon="34.6685313281"><ele>157.127</ele><time>2026-08-16T15:34:56.136Z</time><hdop>3.125</hdop><vdop>2.5</vdop><extensions><gom:speed>0.684</gom:speed></extensions></trkpt>
   <trkpt lat="59.2972318803" lon="34.6685421407"><ele>156.982</ele><time>2026-08-16T15:34:56.968Z</time><hdop>3.125</hdop><vdop>2.5</vdop><extensions><gom:speed>0.703</gom:speed></extensions></trkpt>
   <trkpt lat="59.2972280665" lon="34.6685601618"><ele>156.928</ele><time>2026-08-16T15:34:57.930Z</time><hdop>3.062</hdop><vdop>2.5</vdop><extensions><gom:speed>0.752</gom:speed></extensions></trkpt>
   <trkpt lat="59.2972274798" lon="34.6685793564"><ele>156.782</ele><time>2026-08-16T15:34:58.744Z</time><hdop>3.062</hdop><vdop>2.5</vdop><extensions><gom:speed>0.83</gom:speed></extensions></trkpt>
   <trkpt lat="59.2972297848" lon="34.6685963716"><ele>156.661</ele><time>2026-08-16T15:34:59.431Z</time><hdop>3.062</hdop><vdop>2.562</vdop><extensions><gom:speed>0.912</gom:speed></extensions></trkpt>
   <trkpt lat="59.2972316707" lon="34.668611962"><ele>156.572</ele><time>2026-08-16T15:35:00.136Z</time><hdop>3.062</hdop><vdop>2.5</vdop><extensions><gom:speed>0.946</gom:speed></extensions></trkpt>
   <trkpt lat="59.2972322994" lon="34.6686229423"><ele>156.519</ele><time>2026-08-16T15:35:00.707Z</time><hdop>3.062</hdop><vdop>2.5</vdop><extensions><gom:speed>0.871</gom:speed></extensions></trkpt>
   <trkpt lat="59.297234772" lon="34.6686376944"><ele>156.337</ele><time>2026-08-16T15:35:01.629Z</time><hdop>3.062</hdop><vdop>2.5</vdop><extensions><gom:speed>0.834</gom:speed></extensions></trkpt>
   <trkpt lat="59.2972364903" lon="34.6686440647"><ele>156.217</ele><time>2026-08-16T15:35:02.136Z</time><hdop>3.0</hdop><vdop>2.5</vdop><extensions><gom:speed>0.825</gom:speed></extensions></trkpt>
   <trkpt lat="59.2972392983" lon="34.6686543744"><ele>156.071</ele><time>2026-08-16T15:35:03.136Z</time><hdop>3.0</hdop><vdop>2.5</vdop><extensions><gom:speed>0.744</gom:speed></extensions></trkpt>
   <trkpt lat="59.2972424834" lon="34.6686619181"><ele>156.161</ele><time>2026-08-16T15:35:04.136Z</time><hdop>3.0</hdop><vdop>2.5</vdop><extensions><gom:speed>0.674</gom:speed></extensions></trkpt>
   <trkpt lat="59.2972441598" lon="34.6686664444"><ele>156.214</ele><time>2026-08-16T15:35:04.643Z</time><hdop>3.0</hdop><vdop>2.5</vdop><extensions><gom:speed>0.659</gom:speed></extensions></trkpt>
   <trkpt lat="59.2972448722" lon="34.6686657738"><ele>156.302</ele><time>2026-08-16T15:35:05.136Z</time><hdop>3.0</hdop><vdop>2.5</vdop><extensions><gom:speed>0.503</gom:speed></extensions></trkpt>
   <trkpt lat="59.2972445789" lon="34.668664768"><ele>156.365</ele><time>2026-08-16T15:35:06.136Z</time><hdop>3.0</hdop><vdop>2.625</vdop><extensions><gom:speed>0.315</gom:speed></extensions></trkpt>
   <trkpt lat="59.2972441598" lon="34.6686621696"><ele>156.412</ele><time>2026-08-16T15:35:07.136Z</time><hdop>3.0</hdop><vdop>2.625</vdop><extensions><gom:speed>0.185</gom:speed></extensions></trkpt>
   <trkpt lat="59.2972438664" lon="34.6686582301"><ele>156.458</ele><time>2026-08-16T15:35:08.136Z</time><hdop>3.0</hdop><vdop>2.687</vdop><extensions><gom:speed>0.076</gom:speed></extensions></trkpt>
   <trkpt lat="59.297243573" lon="34.6686538715"><ele>156.48</ele><time>2026-08-16T15:35:09.136Z</time><hdop>3.0</hdop><vdop>2.687</vdop><extensions><gom:speed>0.07</gom:speed></extensions></trkpt>
   <trkpt lat="59.2972431958" lon="34.6686532848"><ele>156.494</ele><time>2026-08-16T15:35:09.669Z</time><hdop>3.0</hdop><vdop>2.687</vdop><extensions><gom:speed>0.067</gom:speed></extensions></trkpt>
   <trkpt lat="59.2972434892" lon="34.6686530333"><ele>156.451</ele><time>2026-08-16T15:35:10.136Z</time><hdop>3.0</hdop><vdop>2.562</vdop><extensions><gom:speed>0.107</gom:speed></extensions></trkpt>
   <trkpt lat="59.297244495" lon="34.6686540391"><ele>156.326</ele><time>2026-08-16T15:35:11.136Z</time><hdop>3.0</hdop><vdop>2.625</vdop><extensions><gom:speed>0.141</gom:speed></extensions></trkpt>
   <trkpt lat="59.2972448722" lon="34.6686543744"><ele>156.251</ele><time>2026-08-16T15:35:11.671Z</time><hdop>3.0</hdop><vdop>2.625</vdop><extensions><gom:speed>0.124</gom:speed></extensions></trkpt>
   <trkpt lat="59.2972460876" lon="34.6686564699"><ele>156.243</ele><time>2026-08-16T15:35:12.136Z</time><hdop>3.0</hdop><vdop>2.687</vdop><extensions><gom:speed>0.203</gom:speed></extensions></trkpt>
   <trkpt lat="59.2972495661" lon="34.6686611638"><ele>156.084</ele><time>2026-08-16T15:35:13.135Z</time><hdop>3.0</hdop><vdop>2.687</vdop><extensions><gom:speed>0.286</gom:speed></extensions></trkpt>
   <trkpt lat="59.2972536732" lon="34.6686634269"><ele>155.989</ele><time>2026-08-16T15:35:14.085Z</time><hdop>3.0</hdop><vdop>2.687</vdop><extensions><gom:speed>0.336</gom:speed></extensions></trkpt>
   <trkpt lat="59.297261175" lon="34.6686676178"><ele>156.027</ele><time>2026-08-16T15:35:14.890Z</time><hdop>3.0</hdop><vdop>2.625</vdop><extensions><gom:speed>0.506</gom:speed></extensions></trkpt>
   <trkpt lat="59.2972670843" lon="34.6686722279"><ele>156.037</ele><time>2026-08-16T15:35:15.548Z</time><hdop>3.0</hdop><vdop>2.5</vdop><extensions><gom:speed>0.526</gom:speed></extensions></trkpt>
   <trkpt lat="59.2972706885" lon="34.668678179"><ele>155.824</ele><time>2026-08-16T15:35:16.136Z</time><hdop>3.0</hdop><vdop>2.5</vdop><extensions><gom:speed>0.577</gom:speed></extensions></trkpt>
   <trkpt lat="59.2972730773" lon="34.6686850522"><ele>155.697</ele><time>2026-08-16T15:35:16.824Z</time><hdop>3.0</hdop><vdop>2.5</vdop><extensions><gom:speed>0.54</gom:speed></extensions></trkpt>
   <trkpt lat="59.2972769749" lon="34.6686962839"><ele>155.717</ele><time>2026-08-16T15:35:17.707Z</time><hdop>3.0</hdop><vdop>2.562</vdop><extensions><gom:speed>0.615</gom:speed></extensions></trkpt>
   <trkpt lat="59.2972795733" lon="34.6687007263"><ele>155.411</ele><time>2026-08-16T15:35:18.286Z</time><hdop>3.0</hdop><vdop>2.5</vdop><extensions><gom:speed>0.586</gom:speed></extensions></trkpt>
   <trkpt lat="59.2972809982" lon="34.6687098626"><ele>155.228</ele><time>2026-08-16T15:35:19.002Z</time><hdop>3.0</hdop><vdop>2.5</vdop><extensions><gom:speed>0.665</gom:speed></extensions></trkpt>
   <trkpt lat="59.2972843929" lon="34.6687157299"><ele>154.915</ele><time>2026-08-16T15:35:19.464Z</time><hdop>3.0</hdop><vdop>2.5</vdop><extensions><gom:speed>0.717</gom:speed></extensions></trkpt>
   <trkpt lat="59.2972879971" lon="34.6687226869"><ele>154.639</ele><time>2026-08-16T15:35:20.136Z</time><hdop>3.0</hdop><vdop>2.5</vdop><extensions><gom:speed>0.684</gom:speed></extensions></trkpt>
   <trkpt lat="59.2972899669" lon="34.6687287219"><ele>154.474</ele><time>2026-08-16T15:35:20.691Z</time><hdop>3.0</hdop><vdop>2.5</vdop><extensions><gom:speed>0.686</gom:speed></extensions></trkpt>
   <trkpt lat="59.2972935711" lon="34.6687383611"><ele>154.554</ele><time>2026-08-16T15:35:21.486Z</time><hdop>3.0</hdop><vdop>2.5</vdop><extensions><gom:speed>0.711</gom:speed></extensions></trkpt>
   <trkpt lat="59.2972976782" lon="34.6687428873"><ele>154.658</ele><time>2026-08-16T15:35:22.136Z</time><hdop>3.0</hdop><vdop>2.5</vdop><extensions><gom:speed>0.677</gom:speed></extensions></trkpt>
   <trkpt lat="59.2973011986" lon="34.6687435579"><ele>154.72</ele><time>2026-08-16T15:35:22.683Z</time><hdop>3.0</hdop><vdop>2.5</vdop><extensions><gom:speed>0.633</gom:speed></extensions></trkpt>
   <trkpt lat="59.2973055991" lon="34.6687436417"><ele>154.911</ele><time>2026-08-16T15:35:23.136Z</time><hdop>3.0</hdop><vdop>2.5</vdop><extensions><gom:speed>0.694</gom:speed></extensions></trkpt>
   <trkpt lat="59.2973096643" lon="34.6687463239"><ele>155.025</ele><time>2026-08-16T15:35:23.704Z</time><hdop>3.0</hdop><vdop>2.5</vdop><extensions><gom:speed>0.667</gom:speed></extensions></trkpt>
   <trkpt lat="59.2973145677" lon="34.6687514369"><ele>155.08</ele><time>2026-08-16T15:35:24.489Z</time><hdop>3.0</hdop><vdop>2.5</vdop><extensions><gom:speed>0.625</gom:speed></extensions></trkpt>
   <trkpt lat="59.2973166632" lon="34.6687557954"><ele>155.563</ele><time>2026-08-16T15:35:25.136Z</time><hdop>3.0</hdop><vdop>2.5</vdop><extensions><gom:speed>0.517</gom:speed></extensions></trkpt>
   <trkpt lat="59.2973161603" lon="34.6687597349"><ele>156.023</ele><time>2026-08-16T15:35:26.136Z</time><hdop>3.0</hdop><vdop>2.5</vdop><extensions><gom:speed>0.307</gom:speed></extensions></trkpt>
   <trkpt lat="59.2973148611" lon="34.6687608246"><ele>156.298</ele><time>2026-08-16T15:35:26.709Z</time><hdop>3.0</hdop><vdop>2.5</vdop><extensions><gom:speed>0.284</gom:speed></extensions></trkpt>
   <trkpt lat="59.297311676" lon="34.6687682845"><ele>156.386</ele><time>2026-08-16T15:35:27.425Z</time><hdop>3.0</hdop><vdop>2.5</vdop><extensions><gom:speed>0.447</gom:speed></extensions></trkpt>
   <trkpt lat="59.2973100834" lon="34.6687734813"><ele>156.439</ele><time>2026-08-16T15:35:28.083Z</time><hdop>3.0</hdop><vdop>2.5</vdop><extensions><gom:speed>0.447</gom:speed></extensions></trkpt>
   <trkpt lat="59.2973083651" lon="34.6687850483"><ele>156.553</ele><time>2026-08-16T15:35:28.652Z</time><hdop>3.0</hdop><vdop>2.5</vdop><extensions><gom:speed>0.574</gom:speed></extensions></trkpt>
   <trkpt lat="59.2973080718" lon="34.6687918376"><ele>156.622</ele><time>2026-08-16T15:35:29.123Z</time><hdop>3.0</hdop><vdop>2.5</vdop><extensions><gom:speed>0.586</gom:speed></extensions></trkpt>
   <trkpt lat="59.2973064792" lon="34.6688155584"><ele>156.929</ele><time>2026-08-16T15:35:30.124Z</time><hdop>3.0</hdop><vdop>2.5</vdop><extensions><gom:speed>0.772</gom:speed></extensions></trkpt>
   <trkpt lat="59.2973064792" lon="34.6688219287"><ele>156.616</ele><time>2026-08-16T15:35:30.890Z</time><hdop>3.0</hdop><vdop>2.5</vdop><extensions><gom:speed>0.609</gom:speed></extensions></trkpt>
   <trkpt lat="59.2973085747" lon="34.6688327413"><ele>156.603</ele><time>2026-08-16T15:35:31.724Z</time><hdop>3.0</hdop><vdop>2.5</vdop><extensions><gom:speed>0.683</gom:speed></extensions></trkpt>
   <trkpt lat="59.2973137715" lon="34.6688452304"><ele>156.712</ele><time>2026-08-16T15:35:32.823Z</time><hdop>3.0</hdop><vdop>2.5</vdop><extensions><gom:speed>0.713</gom:speed></extensions></trkpt>
   <trkpt lat="59.2973200998" lon="34.6688484993"><ele>156.436</ele><time>2026-08-16T15:35:33.952Z</time><hdop>3.0</hdop><vdop>2.5</vdop><extensions><gom:speed>0.555</gom:speed></extensions></trkpt>
   <trkpt lat="59.2973244584" lon="34.6688485831"><ele>156.43</ele><time>2026-08-16T15:35:34.766Z</time><hdop>3.0</hdop><vdop>2.5</vdop><extensions><gom:speed>0.559</gom:speed></extensions></trkpt>
   <trkpt lat="59.2973274759" lon="34.6688496728"><ele>156.243</ele><time>2026-08-16T15:35:36.110Z</time><hdop>3.0</hdop><vdop>2.5</vdop><extensions><gom:speed>0.336</gom:speed></extensions></trkpt>
   <trkpt lat="59.2973298647" lon="34.6688605692"><ele>156.218</ele><time>2026-08-16T15:35:37.083Z</time><hdop>3.0</hdop><vdop>2.5</vdop><extensions><gom:speed>0.349</gom:speed></extensions></trkpt>
   <trkpt lat="59.2973331756" lon="34.6688819431"><ele>156.521</ele><time>2026-08-16T15:35:38.006Z</time><hdop>3.0</hdop><vdop>2.5</vdop><extensions><gom:speed>0.526</gom:speed></extensions></trkpt>
   <trkpt lat="59.2973375761" lon="34.6689019758"><ele>156.907</ele><time>2026-08-16T15:35:38.663Z</time><hdop>3.0</hdop><vdop>2.687</vdop><extensions><gom:speed>0.726</gom:speed></extensions></trkpt>
   <trkpt lat="59.2973388753" lon="34.6689114474"><ele>156.669</ele><time>2026-08-16T15:35:39.136Z</time><hdop>3.0</hdop><vdop>2.5</vdop><extensions><gom:speed>0.77</gom:speed></extensions></trkpt>
   <trkpt lat="59.2973379952" lon="34.6689230982"><ele>156.526</ele><time>2026-08-16T15:35:40.087Z</time><hdop>3.0</hdop><vdop>2.5</vdop><extensions><gom:speed>0.647</gom:speed></extensions></trkpt>
   <trkpt lat="59.2973392944" lon="34.6689341623"><ele>156.501</ele><time>2026-08-16T15:35:41.107Z</time><hdop>3.0</hdop><vdop>2.5</vdop><extensions><gom:speed>0.549</gom:speed></extensions></trkpt>
   <trkpt lat="59.2973401745" lon="34.6689348329"><ele>156.257</ele><time>2026-08-16T15:35:41.608Z</time><hdop>3.0</hdop><vdop>2.5</vdop><extensions><gom:speed>0.425</gom:speed></extensions></trkpt>
   <trkpt lat="59.2973407612" lon="34.6689383533"><ele>156.111</ele><time>2026-08-16T15:35:42.148Z</time><hdop>3.0</hdop><vdop>2.5</vdop><extensions><gom:speed>0.436</gom:speed></extensions></trkpt>
   <trkpt lat="59.2973399649" lon="34.6689456456"><ele>156.232</ele><time>2026-08-16T15:35:43.136Z</time><hdop>3.0</hdop><vdop>2.5</vdop><extensions><gom:speed>0.475</gom:speed></extensions></trkpt>
   <trkpt lat="59.2973382885" lon="34.6689521834"><ele>156.305</ele><time>2026-08-16T15:35:43.924Z</time><hdop>3.0</hdop><vdop>2.5</vdop><extensions><gom:speed>0.476</gom:speed></extensions></trkpt>
   <trkpt lat="59.2973355644" lon="34.66896769"><ele>156.307</ele><time>2026-08-16T15:35:45.136Z</time><hdop>3.0</hdop><vdop>2.5</vdop><extensions><gom:speed>0.541</gom:speed></extensions></trkpt>
   <trkpt lat="59.2973333851" lon="34.6689814363"><ele>156.228</ele><time>2026-08-16T15:35:46.135Z</time><hdop>3.0</hdop><vdop>2.5</vdop><extensions><gom:speed>0.624</gom:speed></extensions></trkpt>
   <trkpt lat="59.2973321697" lon="34.6689877227"><ele>156.181</ele><time>2026-08-16T15:35:46.663Z</time><hdop>3.0</hdop><vdop>2.5</vdop><extensions><gom:speed>0.552</gom:speed></extensions></trkpt>
   <trkpt lat="59.2973304934" lon="34.6689901535"><ele>156.137</ele><time>2026-08-16T15:35:47.136Z</time><hdop>3.0</hdop><vdop>2.5</vdop><extensions><gom:speed>0.417</gom:speed></extensions></trkpt>
   <trkpt lat="59.2973282722" lon="34.6689916622"><ele>156.084</ele><time>2026-08-16T15:35:48.136Z</time><hdop>3.0</hdop><vdop>2.5</vdop><extensions><gom:speed>0.261</gom:speed></extensions></trkpt>
   <trkpt lat="59.297326973" lon="34.6689914946"><ele>155.689</ele><time>2026-08-16T15:35:49.136Z</time><hdop>3.0</hdop><vdop>2.5</vdop><extensions><gom:speed>0.177</gom:speed></extensions></trkpt>
   <trkpt lat="59.2973258833" lon="34.6689913269"><ele>155.476</ele><time>2026-08-16T15:35:50.136Z</time><hdop>3.0</hdop><vdop>2.5</vdop><extensions><gom:speed>0.155</gom:speed></extensions></trkpt>
   <trkpt lat="59.2973248775" lon="34.6689911593"><ele>155.357</ele><time>2026-08-16T15:35:51.136Z</time><hdop>3.0</hdop><vdop>2.5</vdop><extensions><gom:speed>0.116</gom:speed></extensions></trkpt>
   <trkpt lat="59.2973233687" lon="34.6689897344"><ele>155.191</ele><time>2026-08-16T15:35:52.136Z</time><hdop>3.0</hdop><vdop>2.5</vdop><extensions><gom:speed>0.132</gom:speed></extensions></trkpt>
   <trkpt lat="59.2973210637" lon="34.6689877227"><ele>155.095</ele><time>2026-08-16T15:35:53.136Z</time><hdop>3.0</hdop><vdop>2.5</vdop><extensions><gom:speed>0.131</gom:speed></extensions></trkpt>
   <trkpt lat="59.2973189682" lon="34.668985292"><ele>155.027</ele><time>2026-08-16T15:35:54.136Z</time><hdop>3.0</hdop><vdop>2.5</vdop><extensions><gom:speed>0.127</gom:speed></extensions></trkpt>
   <trkpt lat="59.2973175852" lon="34.6689828612"><ele>154.787</ele><time>2026-08-16T15:35:55.136Z</time><hdop>3.0</hdop><vdop>2.5</vdop><extensions><gom:speed>0.096</gom:speed></extensions></trkpt>
   <trkpt lat="59.2973160765" lon="34.6689809334"><ele>154.634</ele><time>2026-08-16T15:35:56.136Z</time><hdop>3.0</hdop><vdop>2.5</vdop><extensions><gom:speed>0.098</gom:speed></extensions></trkpt>
   <trkpt lat="59.2973158669" lon="34.6689818554"><ele>154.612</ele><time>2026-08-16T15:35:57.135Z</time><hdop>3.0</hdop><vdop>2.5</vdop><extensions><gom:speed>0.181</gom:speed></extensions></trkpt>
   <trkpt lat="59.2973157831" lon="34.6689840347"><ele>154.599</ele><time>2026-08-16T15:35:58.146Z</time><hdop>3.0</hdop><vdop>2.5</vdop><extensions><gom:speed>0.181</gom:speed></extensions></trkpt>
   <trkpt lat="59.2973157831" lon="34.6689840347"><ele>154.524</ele><time>2026-08-16T15:35:58.627Z</time><hdop>3.0</hdop><vdop>2.5</vdop><extensions><gom:speed>0.122</gom:speed></extensions></trkpt>
   <trkpt lat="59.2973152802" lon="34.6689832803"><ele>154.27</ele><time>2026-08-16T15:35:59.136Z</time><hdop>3.0</hdop><vdop>2.5</vdop><extensions><gom:speed>0.135</gom:speed></extensions></trkpt>
   <trkpt lat="59.2973136876" lon="34.6689813525"><ele>153.988</ele><time>2026-08-16T15:36:00.136Z</time><hdop>3.0</hdop><vdop>2.5</vdop><extensions><gom:speed>0.161</gom:speed></extensions></trkpt>
   <trkpt lat="59.2973119694" lon="34.6689802628"><ele>153.829</ele><time>2026-08-16T15:36:01.136Z</time><hdop>3.0</hdop><vdop>2.5</vdop><extensions><gom:speed>0.148</gom:speed></extensions></trkpt>
   <trkpt lat="59.2973108797" lon="34.6689796761"><ele>153.706</ele><time>2026-08-16T15:36:02.136Z</time><hdop>3.0</hdop><vdop>2.5</vdop><extensions><gom:speed>0.206</gom:speed></extensions></trkpt>
   <trkpt lat="59.2973099996" lon="34.668975988"><ele>153.372</ele><time>2026-08-16T15:36:03.136Z</time><hdop>3.0</hdop><vdop>2.5</vdop><extensions><gom:speed>0.187</gom:speed></extensions></trkpt>
   <trkpt lat="59.2973100834" lon="34.6689736411"><ele>153.172</ele><time>2026-08-16T15:36:03.830Z</time><hdop>3.0</hdop><vdop>2.5</vdop><extensions><gom:speed>0.166</gom:speed></extensions></trkpt>
   <trkpt lat="59.2973097901" lon="34.6689702883"><ele>152.951</ele><time>2026-08-16T15:36:04.567Z</time><hdop>3.0</hdop><vdop>2.5</vdop><extensions><gom:speed>0.131</gom:speed></extensions></trkpt>
   <trkpt lat="59.297309371" lon="34.6689678576"><ele>152.658</ele><time>2026-08-16T15:36:05.136Z</time><hdop>3.0</hdop><vdop>2.5</vdop><extensions><gom:speed>0.13</gom:speed></extensions></trkpt>
   <trkpt lat="59.2973086585" lon="34.668963499"><ele>152.474</ele><time>2026-08-16T15:36:06.136Z</time><hdop>3.0</hdop><vdop>2.5</vdop><extensions><gom:speed>0.117</gom:speed></extensions></trkpt>
   <trkpt lat="59.2973078622" lon="34.668961655"><ele>152.309</ele><time>2026-08-16T15:36:07.157Z</time><hdop>3.0</hdop><vdop>2.5</vdop><extensions><gom:speed>0.116</gom:speed></extensions></trkpt>
   <trkpt lat="59.2973062697" lon="34.6689570449"><ele>152.233</ele><time>2026-08-16T15:36:08.136Z</time><hdop>3.0</hdop><vdop>2.5</vdop><extensions><gom:speed>0.09</gom:speed></extensions></trkpt>
   <trkpt lat="59.2973055991" lon="34.6689544466"><ele>152.2</ele><time>2026-08-16T15:36:09.136Z</time><hdop>3.0</hdop><vdop>2.5</vdop><extensions><gom:speed>0.097</gom:speed></extensions></trkpt>
   <trkpt lat="59.2973059763" lon="34.6689534407"><ele>152.181</ele><time>2026-08-16T15:36:09.886Z</time><hdop>3.0</hdop><vdop>2.5</vdop><extensions><gom:speed>0.074</gom:speed></extensions></trkpt>
   <trkpt lat="59.29730518" lon="34.6689516805"><ele>152.172</ele><time>2026-08-16T15:36:11.064Z</time><hdop>3.0</hdop><vdop>2.5</vdop><extensions><gom:speed>0.084</gom:speed></extensions></trkpt>
   <trkpt lat="59.2973046771" lon="34.6689505909"><ele>152.314</ele><time>2026-08-16T15:36:11.604Z</time><hdop>3.0</hdop><vdop>2.5</vdop><extensions><gom:speed>0.066</gom:speed></extensions></trkpt>
   <trkpt lat="59.2973042999" lon="34.6689498365"><ele>152.51</ele><time>2026-08-16T15:36:12.136Z</time><hdop>3.0</hdop><vdop>2.5</vdop><extensions><gom:speed>0.09</gom:speed></extensions></trkpt>
   <trkpt lat="59.2973033779" lon="34.6689490821"><ele>152.626</ele><time>2026-08-16T15:36:13.136Z</time><hdop>3.0</hdop><vdop>2.5</vdop><extensions><gom:speed>0.099</gom:speed></extensions></trkpt>
   <trkpt lat="59.2973029588" lon="34.6689481601"><ele>152.687</ele><time>2026-08-16T15:36:14.136Z</time><hdop>3.0</hdop><vdop>2.5</vdop><extensions><gom:speed>0.096</gom:speed></extensions></trkpt>
   <trkpt lat="59.2973025816" lon="34.6689471543"><ele>152.792</ele><time>2026-08-16T15:36:15.136Z</time><hdop>3.0</hdop><vdop>2.5</vdop><extensions><gom:speed>0.071</gom:speed></extensions></trkpt>
   <trkpt lat="59.2973018692" lon="34.668946819"><ele>152.861</ele><time>2026-08-16T15:36:16.136Z</time><hdop>3.0</hdop><vdop>2.5</vdop><extensions><gom:speed>0.101</gom:speed></extensions></trkpt>
   <trkpt lat="59.2973019949" lon="34.6689470705"><ele>152.902</ele><time>2026-08-16T15:36:16.845Z</time><hdop>3.0</hdop><vdop>2.5</vdop><extensions><gom:speed>0.099</gom:speed></extensions></trkpt>
   <trkpt lat="59.2973027912" lon="34.6689462323"><ele>152.954</ele><time>2026-08-16T15:36:18.136Z</time><hdop>3.0</hdop><vdop>2.5</vdop><extensions><gom:speed>0.101</gom:speed></extensions></trkpt>
   <trkpt lat="59.2973031684" lon="34.6689470705"><ele>153.011</ele><time>2026-08-16T15:36:19.136Z</time><hdop>3.0</hdop><vdop>2.5</vdop><extensions><gom:speed>0.094</gom:speed></extensions></trkpt>
   <trkpt lat="59.2973031684" lon="34.6689471543"><ele>153.034</ele><time>2026-08-16T15:36:20.136Z</time><hdop>3.0</hdop><vdop>2.5</vdop><extensions><gom:speed>0.066</gom:speed></extensions></trkpt>
   <trkpt lat="59.2973034617" lon="34.6689470705"><ele>153.061</ele><time>2026-08-16T15:36:21.136Z</time><hdop>3.0</hdop><vdop>2.5</vdop><extensions><gom:speed>0.079</gom:speed></extensions></trkpt>
   <trkpt lat="59.2973034617" lon="34.6689463999"><ele>153.105</ele><time>2026-08-16T15:36:22.136Z</time><hdop>3.0</hdop><vdop>2.5</vdop><extensions><gom:speed>0.101</gom:speed></extensions></trkpt>
   <trkpt lat="59.2973033779" lon="34.6689462323"><ele>153.138</ele><time>2026-08-16T15:36:23.136Z</time><hdop>3.0</hdop><vdop>2.5</vdop><extensions><gom:speed>0.105</gom:speed></extensions></trkpt>
   <trkpt lat="59.2973031684" lon="34.6689459808"><ele>153.169</ele><time>2026-08-16T15:36:24.136Z</time><hdop>3.0</hdop><vdop>2.5</vdop><extensions><gom:speed>0.076</gom:speed></extensions></trkpt>
   <trkpt lat="59.2973032941" lon="34.6689457294"><ele>153.2</ele><time>2026-08-16T15:36:25.136Z</time><hdop>3.0</hdop><vdop>2.5</vdop><extensions><gom:speed>0.064</gom:speed></extensions></trkpt>
   <trkpt lat="59.2973032941" lon="34.6689461485"><ele>153.226</ele><time>2026-08-16T15:36:26.136Z</time><hdop>3.0</hdop><vdop>2.5</vdop><extensions><gom:speed>0.092</gom:speed></extensions></trkpt>
   <trkpt lat="59.2973034617" lon="34.6689457294"><ele>153.243</ele><time>2026-08-16T15:36:27.136Z</time><hdop>3.0</hdop><vdop>2.5</vdop><extensions><gom:speed>0.093</gom:speed></extensions></trkpt>
   <trkpt lat="59.2973034617" lon="34.6689457294"><ele>153.272</ele><time>2026-08-16T15:36:28.136Z</time><hdop>3.0</hdop><vdop>2.5</vdop><extensions><gom:speed>0.066</gom:speed></extensions></trkpt>
   <trkpt lat="59.2973035875" lon="34.6689453941"><ele>153.303</ele><time>2026-08-16T15:36:29.136Z</time><hdop>3.0</hdop><vdop>2.5</vdop><extensions><gom:speed>0.055</gom:speed></extensions></trkpt>
   <trkpt lat="59.2973032941" lon="34.6689444721"><ele>153.215</ele><time>2026-08-16T15:36:30.136Z</time><hdop>3.0</hdop><vdop>2.5</vdop><extensions><gom:speed>0.084</gom:speed></extensions></trkpt>
   <trkpt lat="59.2973030845" lon="34.6689442206"><ele>153.179</ele><time>2026-08-16T15:36:31.135Z</time><hdop>3.0</hdop><vdop>2.5</vdop><extensions><gom:speed>0.071</gom:speed></extensions></trkpt>
   <trkpt lat="59.2973029588" lon="34.6689444721"><ele>153.165</ele><time>2026-08-16T15:36:32.136Z</time><hdop>3.0</hdop><vdop>2.5</vdop><extensions><gom:speed>0.076</gom:speed></extensions></trkpt>
   <trkpt lat="59.2973025816" lon="34.6689447235"><ele>153.182</ele><time>2026-08-16T15:36:33.136Z</time><hdop>3.0</hdop><vdop>2.5</vdop><extensions><gom:speed>0.097</gom:speed></extensions></trkpt>
   <trkpt lat="59.2973025816" lon="34.668944975"><ele>153.216</ele><time>2026-08-16T15:36:34.136Z</time><hdop>3.0</hdop><vdop>2.5</vdop><extensions><gom:speed>0.048</gom:speed></extensions></trkpt>
   <trkpt lat="59.2973025816" lon="34.668944975"><ele>153.271</ele><time>2026-08-16T15:36:35.136Z</time><hdop>3.0</hdop><vdop>2.5</vdop><extensions><gom:speed>0.052</gom:speed></extensions></trkpt>
   <trkpt lat="59.2973025816" lon="34.6689451426"><ele>153.313</ele><time>2026-08-16T15:36:36.136Z</time><hdop>3.0</hdop><vdop>2.5</vdop><extensions><gom:speed>0.057</gom:speed></extensions></trkpt>
   <trkpt lat="59.2973024978" lon="34.6689454779"><ele>153.337</ele><time>2026-08-16T15:36:37.136Z</time><hdop>3.0</hdop><vdop>2.5</vdop><extensions><gom:speed>0.059</gom:speed></extensions></trkpt>
   <trkpt lat="59.2973023721" lon="34.668945897"><ele>153.359</ele><time>2026-08-16T15:36:38.136Z</time><hdop>3.0</hdop><vdop>2.5</vdop><extensions><gom:speed>0.061</gom:speed></extensions></trkpt>
   <trkpt lat="59.2973021625" lon="34.6689461485"><ele>153.371</ele><time>2026-08-16T15:36:39.136Z</time><hdop>3.0</hdop><vdop>2.5</vdop><extensions><gom:speed>0.064</gom:speed></extensions></trkpt>
   <trkpt lat="59.2973020787" lon="34.6689466514"><ele>153.386</ele><time>2026-08-16T15:36:40.136Z</time><hdop>3.0</hdop><vdop>2.5</vdop><extensions><gom:speed>0.067</gom:speed></extensions></trkpt>
   <trkpt lat="59.2973020787" lon="34.6689470705"><ele>153.402</ele><time>2026-08-16T15:36:41.136Z</time><hdop>3.0</hdop><vdop>2.5</vdop><extensions><gom:speed>0.067</gom:speed></extensions></trkpt>
   <trkpt lat="59.2973018692" lon="34.6689474896"><ele>153.397</ele><time>2026-08-16T15:36:42.136Z</time><hdop>3.0</hdop><vdop>2.5</vdop><extensions><gom:speed>0.069</gom:speed></extensions></trkpt>
   <trkpt lat="59.2973017853" lon="34.668947741"><ele>153.364</ele><time>2026-08-16T15:36:43.135Z</time><hdop>3.0</hdop><vdop>2.5</vdop><extensions><gom:speed>0.072</gom:speed></extensions></trkpt>
   <trkpt lat="59.2973016596" lon="34.6689481601"><ele>153.344</ele><time>2026-08-16T15:36:44.136Z</time><hdop>3.0</hdop><vdop>2.5</vdop><extensions><gom:speed>0.075</gom:speed></extensions></trkpt>
   <trkpt lat="59.2973015758" lon="34.6689485792"><ele>153.346</ele><time>2026-08-16T15:36:45.136Z</time><hdop>3.0</hdop><vdop>2.5</vdop><extensions><gom:speed>0.075</gom:speed></extensions></trkpt>
   <trkpt lat="59.2973015758" lon="34.6689487469"><ele>153.349</ele><time>2026-08-16T15:36:46.136Z</time><hdop>3.0</hdop><vdop>2.5</vdop><extensions><gom:speed>0.075</gom:speed></extensions></trkpt>
   <trkpt lat="59.2973015758" lon="34.6689490821"><ele>153.363</ele><time>2026-08-16T15:36:47.136Z</time><hdop>3.0</hdop><vdop>2.5</vdop><extensions><gom:speed>0.076</gom:speed></extensions></trkpt>
   <trkpt lat="59.2973015758" lon="34.6689493336"><ele>153.376</ele><time>2026-08-16T15:36:48.136Z</time><hdop>3.0</hdop><vdop>2.5</vdop><extensions><gom:speed>0.075</gom:speed></extensions></trkpt>
   <trkpt lat="59.297301492" lon="34.6689492498"><ele>153.364</ele><time>2026-08-16T15:36:49.136Z</time><hdop>3.0</hdop><vdop>2.5</vdop><extensions><gom:speed>0.074</gom:speed></extensions></trkpt>
   <trkpt lat="59.297301492" lon="34.6689494174"><ele>153.366</ele><time>2026-08-16T15:36:50.136Z</time><hdop>3.0</hdop><vdop>2.5</vdop><extensions><gom:speed>0.073</gom:speed></extensions></trkpt>
   <trkpt lat="59.297301492" lon="34.6689497527"><ele>153.36</ele><time>2026-08-16T15:36:51.136Z</time><hdop>3.0</hdop><vdop>2.5</vdop><extensions><gom:speed>0.072</gom:speed></extensions></trkpt>
   <trkpt lat="59.297301492" lon="34.6689501718"><ele>153.361</ele><time>2026-08-16T15:36:52.136Z</time><hdop>3.0</hdop><vdop>2.5</vdop><extensions><gom:speed>0.073</gom:speed></extensions></trkpt>
   <trkpt lat="59.2973013662" lon="34.6689503394"><ele>153.353</ele><time>2026-08-16T15:36:53.136Z</time><hdop>3.0</hdop><vdop>2.5</vdop><extensions><gom:speed>0.074</gom:speed></extensions></trkpt>
   <trkpt lat="59.2973012824" lon="34.6689506747"><ele>153.338</ele><time>2026-08-16T15:36:54.136Z</time><hdop>3.0</hdop><vdop>2.5</vdop><extensions><gom:speed>0.074</gom:speed></extensions></trkpt>
   <trkpt lat="59.2973010729" lon="34.6689509262"><ele>153.319</ele><time>2026-08-16T15:36:55.136Z</time><hdop>3.0</hdop><vdop>2.5</vdop><extensions><gom:speed>0.07</gom:speed></extensions></trkpt>
   <trkpt lat="59.2973010729" lon="34.6689513452"><ele>153.286</ele><time>2026-08-16T15:36:56.136Z</time><hdop>3.0</hdop><vdop>2.5</vdop><extensions><gom:speed>0.067</gom:speed></extensions></trkpt>
   <trkpt lat="59.2973007795" lon="34.6689515967"><ele>153.272</ele><time>2026-08-16T15:36:57.136Z</time><hdop>3.0</hdop><vdop>2.5</vdop><extensions><gom:speed>0.109</gom:speed></extensions></trkpt>
   <trkpt lat="59.29730057" lon="34.6689516805"><ele>153.289</ele><time>2026-08-16T15:36:58.136Z</time><hdop>3.0</hdop><vdop>2.5</vdop><extensions><gom:speed>0.088</gom:speed></extensions></trkpt>
   <trkpt lat="59.2973002766" lon="34.6689514291"><ele>153.311</ele><time>2026-08-16T15:36:59.136Z</time><hdop>3.0</hdop><vdop>2.5</vdop><extensions><gom:speed>0.079</gom:speed></extensions></trkpt>
   <trkpt lat="59.2973000671" lon="34.6689515967"><ele>153.344</ele><time>2026-08-16T15:37:00.136Z</time><hdop>3.0</hdop><vdop>2.5</vdop><extensions><gom:speed>0.072</gom:speed></extensions></trkpt>
   <trkpt lat="59.2972997737" lon="34.6689515967"><ele>153.37</ele><time>2026-08-16T15:37:01.136Z</time><hdop>3.0</hdop><vdop>2.5</vdop><extensions><gom:speed>0.069</gom:speed></extensions></trkpt>
   <trkpt lat="59.2972994803" lon="34.6689517643"><ele>153.383</ele><time>2026-08-16T15:37:02.136Z</time><hdop>3.0</hdop><vdop>2.5</vdop><extensions><gom:speed>0.066</gom:speed></extensions></trkpt>
   <trkpt lat="59.2972992708" lon="34.6689520996"><ele>153.407</ele><time>2026-08-16T15:37:03.136Z</time><hdop>3.0</hdop><vdop>2.5</vdop><extensions><gom:speed>0.067</gom:speed></extensions></trkpt>
   <trkpt lat="59.2972989774" lon="34.6689523511"><ele>153.433</ele><time>2026-08-16T15:37:04.136Z</time><hdop>3.0</hdop><vdop>2.5</vdop><extensions><gom:speed>0.068</gom:speed></extensions></trkpt>
   <trkpt lat="59.2972987679" lon="34.6689526864"><ele>153.451</ele><time>2026-08-16T15:37:05.136Z</time><hdop>3.0</hdop><vdop>2.5</vdop><extensions><gom:speed>0.07</gom:speed></extensions></trkpt>
   <trkpt lat="59.2972985583" lon="34.6689529378"><ele>153.468</ele><time>2026-08-16T15:37:06.136Z</time><hdop>3.0</hdop><vdop>2.5</vdop><extensions><gom:speed>0.07</gom:speed></extensions></trkpt>
   <trkpt lat="59.2972984745" lon="34.6689533569"><ele>153.483</ele><time>2026-08-16T15:37:07.136Z</time><hdop>3.0</hdop><vdop>2.5</vdop><extensions><gom:speed>0.069</gom:speed></extensions></trkpt>
   <trkpt lat="59.2972982649" lon="34.6689536922"><ele>153.494</ele><time>2026-08-16T15:37:08.136Z</time><hdop>3.0</hdop><vdop>2.5</vdop><extensions><gom:speed>0.067</gom:speed></extensions></trkpt>
   <trkpt lat="59.2972981811" lon="34.6689538598"><ele>153.509</ele><time>2026-08-16T15:37:09.136Z</time><hdop>3.0</hdop><vdop>2.5</vdop><extensions><gom:speed>0.066</gom:speed></extensions></trkpt>
   <trkpt lat="59.2972979716" lon="34.6689542789"><ele>153.539</ele><time>2026-08-16T15:37:10.136Z</time><hdop>3.0</hdop><vdop>2.5</vdop><extensions><gom:speed>0.066</gom:speed></extensions></trkpt>
   <trkpt lat="59.297297762" lon="34.6689544466"><ele>153.573</ele><time>2026-08-16T15:37:11.136Z</time><hdop>3.0</hdop><vdop>2.5</vdop><extensions><gom:speed>0.069</gom:speed></extensions></trkpt>
   <trkpt lat="59.2972975944" lon="34.6689548656"><ele>153.612</ele><time>2026-08-16T15:37:12.136Z</time><hdop>3.0</hdop><vdop>2.5</vdop><extensions><gom:speed>0.071</gom:speed></extensions></trkpt>
   <trkpt lat="59.2972973848" lon="34.6689553686"><ele>153.659</ele><time>2026-08-16T15:37:13.136Z</time><hdop>3.0</hdop><vdop>2.5</vdop><extensions><gom:speed>0.072</gom:speed></extensions></trkpt>
   <trkpt lat="59.2972971753" lon="34.6689558715"><ele>153.687</ele><time>2026-08-16T15:37:14.135Z</time><hdop>3.0</hdop><vdop>2.5</vdop><extensions><gom:speed>0.071</gom:speed></extensions></trkpt>
   <trkpt lat="59.2972969657" lon="34.6689564582"><ele>153.708</ele><time>2026-08-16T15:37:15.136Z</time><hdop>3.0</hdop><vdop>2.5</vdop><extensions><gom:speed>0.071</gom:speed></extensions></trkpt>
   <trkpt lat="59.2972965886" lon="34.6689572964"><ele>153.669</ele><time>2026-08-16T15:37:16.136Z</time><hdop>3.0</hdop><vdop>2.5</vdop><extensions><gom:speed>0.245</gom:speed></extensions></trkpt>
   <trkpt lat="59.2972960856" lon="34.6689587213"><ele>153.525</ele><time>2026-08-16T15:37:17.136Z</time><hdop>3.0</hdop><vdop>2.5</vdop><extensions><gom:speed>0.477</gom:speed></extensions></trkpt>
   <trkpt lat="59.2972953732" lon="34.6689610683"><ele>153.353</ele><time>2026-08-16T15:37:18.135Z</time><hdop>3.0</hdop><vdop>2.5</vdop><extensions><gom:speed>0.211</gom:speed></extensions></trkpt>
   <trkpt lat="59.2972951636" lon="34.6689611521"><ele>153.298</ele><time>2026-08-16T15:37:19.136Z</time><hdop>3.0</hdop><vdop>2.5</vdop><extensions><gom:speed>0.216</gom:speed></extensions></trkpt>
   <trkpt lat="59.2972947865" lon="34.668961655"><ele>153.244</ele><time>2026-08-16T15:37:20.136Z</time><hdop>3.0</hdop><vdop>2.5</vdop><extensions><gom:speed>0.475</gom:speed></extensions></trkpt>
   <trkpt lat="59.2972928586" lon="34.6689645887"><ele>153.237</ele><time>2026-08-16T15:37:21.136Z</time><hdop>3.0</hdop><vdop>2.5</vdop><extensions><gom:speed>0.285</gom:speed></extensions></trkpt>
   <trkpt lat="59.2972901764" lon="34.6689655945"><ele>153.271</ele><time>2026-08-16T15:37:22.136Z</time><hdop>3.0</hdop><vdop>2.5</vdop><extensions><gom:speed>0.364</gom:speed></extensions></trkpt>
   <trkpt lat="59.2972870751" lon="34.668966265"><ele>153.224</ele><time>2026-08-16T15:37:23.136Z</time><hdop>3.0</hdop><vdop>2.5</vdop><extensions><gom:speed>0.279</gom:speed></extensions></trkpt>
   <trkpt lat="59.2972840995" lon="34.6689654268"><ele>153.103</ele><time>2026-08-16T15:37:24.136Z</time><hdop>3.062</hdop><vdop>2.5</vdop><extensions><gom:speed>0.235</gom:speed></extensions></trkpt>
   <trkpt lat="59.2972820879" lon="34.668966265"><ele>153.039</ele><time>2026-08-16T15:37:25.135Z</time><hdop>3.062</hdop><vdop>2.5</vdop><extensions><gom:speed>0.224</gom:speed></extensions></trkpt>
   <trkpt lat="59.2972804953" lon="34.668967187"><ele>153.002</ele><time>2026-08-16T15:37:26.136Z</time><hdop>3.125</hdop><vdop>2.5</vdop><extensions><gom:speed>0.055</gom:speed></extensions></trkpt>
   <trkpt lat="59.2972798667" lon="34.6689675223"><ele>152.992</ele><time>2026-08-16T15:37:27.136Z</time><hdop>3.062</hdop><vdop>2.5</vdop><extensions><gom:speed>0.049</gom:speed></extensions></trkpt>
   <trkpt lat="59.2972792799" lon="34.6689677738"><ele>152.999</ele><time>2026-08-16T15:37:28.136Z</time><hdop>3.062</hdop><vdop>2.5</vdop><extensions><gom:speed>0.051</gom:speed></extensions></trkpt>
   <trkpt lat="59.2972788608" lon="34.6689670194"><ele>152.853</ele><time>2026-08-16T15:37:29.136Z</time><hdop>3.0</hdop><vdop>2.5</vdop><extensions><gom:speed>0.302</gom:speed></extensions></trkpt>
   <trkpt lat="59.2972770587" lon="34.668964421"><ele>152.765</ele><time>2026-08-16T15:37:30.136Z</time><hdop>3.0</hdop><vdop>2.5</vdop><extensions><gom:speed>0.089</gom:speed></extensions></trkpt>
   <trkpt lat="59.2972767654" lon="34.6689632476"><ele>152.711</ele><time>2026-08-16T15:37:31.136Z</time><hdop>3.0</hdop><vdop>2.5</vdop><extensions><gom:speed>0.077</gom:speed></extensions></trkpt>
   <trkpt lat="59.2972765977" lon="34.6689623255"><ele>152.673</ele><time>2026-08-16T15:37:32.135Z</time><hdop>3.0</hdop><vdop>2.5</vdop><extensions><gom:speed>0.072</gom:speed></extensions></trkpt>
   <trkpt lat="59.2972765977" lon="34.6689614874"><ele>152.65</ele><time>2026-08-16T15:37:33.136Z</time><hdop>3.0</hdop><vdop>2.5</vdop><extensions><gom:speed>0.071</gom:speed></extensions></trkpt>
   <trkpt lat="59.2972766815" lon="34.668960733"><ele>152.649</ele><time>2026-08-16T15:37:34.136Z</time><hdop>3.0</hdop><vdop>2.5</vdop><extensions><gom:speed>0.065</gom:speed></extensions></trkpt>
   <trkpt lat="59.2972771845" lon="34.6689605653"><ele>152.694</ele><time>2026-08-16T15:37:35.136Z</time><hdop>3.0</hdop><vdop>2.5</vdop><extensions><gom:speed>0.569</gom:speed></extensions></trkpt>
   <trkpt lat="59.2972778969" lon="34.6689617388"><ele>152.79</ele><time>2026-08-16T15:37:36.136Z</time><hdop>3.0</hdop><vdop>2.5</vdop><extensions><gom:speed>0.514</gom:speed></extensions></trkpt>
   <trkpt lat="59.2972793638" lon="34.6689618226"><ele>152.958</ele><time>2026-08-16T15:37:37.136Z</time><hdop>3.0</hdop><vdop>2.5</vdop><extensions><gom:speed>0.696</gom:speed></extensions></trkpt>
   <trkpt lat="59.2972821717" lon="34.6689636666"><ele>153.32</ele><time>2026-08-16T15:37:38.136Z</time><hdop>3.0</hdop><vdop>2.5</vdop><extensions><gom:speed>0.573</gom:speed></extensions></trkpt>
   <trkpt lat="59.2972867817" lon="34.6689651754"><ele>153.348</ele><time>2026-08-16T15:37:39.136Z</time><hdop>3.0</hdop><vdop>2.5</vdop><extensions><gom:speed>0.374</gom:speed></extensions></trkpt>
   <trkpt lat="59.2972921881" lon="34.6689641696"><ele>153.183</ele><time>2026-08-16T15:37:40.136Z</time><hdop>3.062</hdop><vdop>2.5</vdop><extensions><gom:speed>0.447</gom:speed></extensions></trkpt>
   <trkpt lat="59.2972992708" lon="34.6689646725"><ele>153.043</ele><time>2026-08-16T15:37:41.136Z</time><hdop>3.187</hdop><vdop>2.5</vdop><extensions><gom:speed>0.375</gom:speed></extensions></trkpt>
   <trkpt lat="59.297302875" lon="34.6689682767"><ele>152.783</ele><time>2026-08-16T15:37:42.136Z</time><hdop>3.187</hdop><vdop>2.5</vdop><extensions><gom:speed>0.269</gom:speed></extensions></trkpt>
   <trkpt lat="59.29730518" lon="34.6689681929"><ele>152.493</ele><time>2026-08-16T15:37:43.136Z</time><hdop>3.187</hdop><vdop>2.5</vdop><extensions><gom:speed>0.208</gom:speed></extensions></trkpt>
   <trkpt lat="59.2973062697" lon="34.6689664327"><ele>152.517</ele><time>2026-08-16T15:37:44.136Z</time><hdop>3.125</hdop><vdop>2.5</vdop><extensions><gom:speed>0.147</gom:speed></extensions></trkpt>
   <trkpt lat="59.2973069821" lon="34.6689672709"><ele>152.648</ele><time>2026-08-16T15:37:45.136Z</time><hdop>3.062</hdop><vdop>2.5</vdop><extensions><gom:speed>0.136</gom:speed></extensions></trkpt>
   <trkpt lat="59.2973073593" lon="34.6689681929"><ele>152.825</ele><time>2026-08-16T15:37:46.136Z</time><hdop>3.0</hdop><vdop>2.5</vdop><extensions><gom:speed>0.105</gom:speed></extensions></trkpt>
   <trkpt lat="59.2973071917" lon="34.6689680252"><ele>152.64</ele><time>2026-08-16T15:37:47.136Z</time><hdop>3.0</hdop><vdop>2.5</vdop><extensions><gom:speed>0.0</gom:speed></extensions></trkpt>
   <trkpt lat="59.297307485" lon="34.6689677738"><ele>152.847</ele><time>2026-08-16T15:37:48.135Z</time><hdop>3.0</hdop><vdop>2.5</vdop><extensions><gom:speed>0.015</gom:speed></extensions></trkpt>
   <trkpt lat="59.2973076946" lon="34.6689680252"><ele>152.97</ele><time>2026-08-16T15:37:49.136Z</time><hdop>3.0</hdop><vdop>2.5</vdop><extensions><gom:speed>0.026</gom:speed></extensions></trkpt>
   <trkpt lat="59.2973077784" lon="34.6689685281"><ele>152.832</ele><time>2026-08-16T15:37:50.136Z</time><hdop>3.0</hdop><vdop>2.5</vdop><extensions><gom:speed>0.305</gom:speed></extensions></trkpt>
   <trkpt lat="59.2973064792" lon="34.6689718809"><ele>152.786</ele><time>2026-08-16T15:37:51.136Z</time><hdop>3.0</hdop><vdop>2.5</vdop><extensions><gom:speed>0.093</gom:speed></extensions></trkpt>
   <trkpt lat="59.2973061858" lon="34.6689721324"><ele>152.842</ele><time>2026-08-16T15:37:52.136Z</time><hdop>3.0</hdop><vdop>2.5</vdop><extensions><gom:speed>0.24</gom:speed></extensions></trkpt>
   <trkpt lat="59.2973054734" lon="34.6689740602"><ele>152.891</ele><time>2026-08-16T15:37:53.136Z</time><hdop>3.0</hdop><vdop>2.5</vdop><extensions><gom:speed>0.087</gom:speed></extensions></trkpt>
   <trkpt lat="59.2973059763" lon="34.6689749822"><ele>152.921</ele><time>2026-08-16T15:37:54.136Z</time><hdop>3.0</hdop><vdop>2.5</vdop><extensions><gom:speed>0.07</gom:speed></extensions></trkpt>
   <trkpt lat="59.2973063954" lon="34.6689755689"><ele>152.966</ele><time>2026-08-16T15:37:55.136Z</time><hdop>3.0</hdop><vdop>2.5</vdop><extensions><gom:speed>0.065</gom:speed></extensions></trkpt>
   <trkpt lat="59.2973070659" lon="34.6689763233"><ele>153.088</ele><time>2026-08-16T15:37:56.136Z</time><hdop>3.0</hdop><vdop>2.5</vdop><extensions><gom:speed>0.268</gom:speed></extensions></trkpt>
   <trkpt lat="59.2973084909" lon="34.6689798437"><ele>153.202</ele><time>2026-08-16T15:37:57.136Z</time><hdop>3.0</hdop><vdop>2.5</vdop><extensions><gom:speed>0.382</gom:speed></extensions></trkpt>
   <trkpt lat="59.2973104606" lon="34.6689831965"><ele>153.269</ele><time>2026-08-16T15:37:58.055Z</time><hdop>3.0</hdop><vdop>2.5</vdop><extensions><gom:speed>0.405</gom:speed></extensions></trkpt>
   <trkpt lat="59.2973132685" lon="34.6689859625"><ele>153.335</ele><time>2026-08-16T15:37:59.136Z</time><hdop>3.0</hdop><vdop>2.5</vdop><extensions><gom:speed>0.058</gom:speed></extensions></trkpt>
   <trkpt lat="59.297313059" lon="34.6689864654"><ele>153.374</ele><time>2026-08-16T15:38:00.136Z</time><hdop>3.0</hdop><vdop>2.5</vdop><extensions><gom:speed>0.401</gom:speed></extensions></trkpt>
   <trkpt lat="59.297312598" lon="34.6689910755"><ele>153.397</ele><time>2026-08-16T15:38:00.941Z</time><hdop>3.0</hdop><vdop>2.5</vdop><extensions><gom:speed>0.42</gom:speed></extensions></trkpt>
   <trkpt lat="59.2973114664" lon="34.6689922489"><ele>153.407</ele><time>2026-08-16T15:38:01.775Z</time><hdop>3.0</hdop><vdop>2.5</vdop><extensions><gom:speed>0.139</gom:speed></extensions></trkpt>
   <trkpt lat="59.2973110893" lon="34.6689942606"><ele>153.47</ele><time>2026-08-16T15:38:03.136Z</time><hdop>3.0</hdop><vdop>2.5</vdop><extensions><gom:speed>0.101</gom:speed></extensions></trkpt>
   <trkpt lat="59.2973114664" lon="34.6689951826"><ele>153.516</ele><time>2026-08-16T15:38:04.136Z</time><hdop>3.0</hdop><vdop>2.5</vdop><extensions><gom:speed>0.092</gom:speed></extensions></trkpt>
   <trkpt lat="59.2973118855" lon="34.6689958532"><ele>153.695</ele><time>2026-08-16T15:38:05.136Z</time><hdop>3.0</hdop><vdop>2.5</vdop><extensions><gom:speed>0.435</gom:speed></extensions></trkpt>
   <trkpt lat="59.2973150707" lon="34.6689984515"><ele>153.801</ele><time>2026-08-16T15:38:06.142Z</time><hdop>3.0</hdop><vdop>2.5</vdop><extensions><gom:speed>0.51</gom:speed></extensions></trkpt>
   <trkpt lat="59.2973175852" lon="34.6689975295"><ele>153.693</ele><time>2026-08-16T15:38:07.136Z</time><hdop>3.0</hdop><vdop>2.5</vdop><extensions><gom:speed>0.125</gom:speed></extensions></trkpt>
   <trkpt lat="59.2973177948" lon="34.6689965237"><ele>153.628</ele><time>2026-08-16T15:38:07.920Z</time><hdop>3.0</hdop><vdop>2.5</vdop><extensions><gom:speed>0.111</gom:speed></extensions></trkpt>
   <trkpt lat="59.2973196807" lon="34.6689950988"><ele>153.53</ele><time>2026-08-16T15:38:08.695Z</time><hdop>3.0</hdop><vdop>2.5</vdop><extensions><gom:speed>0.191</gom:speed></extensions></trkpt>
   <trkpt lat="59.2973223629" lon="34.6689923328"><ele>153.546</ele><time>2026-08-16T15:38:09.294Z</time><hdop>3.0</hdop><vdop>2.5</vdop><extensions><gom:speed>0.28</gom:speed></extensions></trkpt>
   <trkpt lat="59.297325087" lon="34.6689876389"><ele>153.555</ele><time>2026-08-16T15:38:10.079Z</time><hdop>3.0</hdop><vdop>2.5</vdop><extensions><gom:speed>0.413</gom:speed></extensions></trkpt>
   <trkpt lat="59.2973303676" lon="34.6689823583"><ele>153.671</ele><time>2026-08-16T15:38:10.737Z</time><hdop>3.0</hdop><vdop>2.5</vdop><extensions><gom:speed>0.571</gom:speed></extensions></trkpt>
   <trkpt lat="59.2973389591" lon="34.668980179"><ele>153.618</ele><time>2026-08-16T15:38:11.915Z</time><hdop>3.0</hdop><vdop>2.5</vdop><extensions><gom:speed>0.618</gom:speed></extensions></trkpt>
   <trkpt lat="59.2973442816" lon="34.6689810172"><ele>153.54</ele><time>2026-08-16T15:38:12.582Z</time><hdop>3.0</hdop><vdop>2.5</vdop><extensions><gom:speed>0.66</gom:speed></extensions></trkpt>
   <trkpt lat="59.2973473829" lon="34.6689823583"><ele>153.5</ele><time>2026-08-16T15:38:13.136Z</time><hdop>3.0</hdop><vdop>2.5</vdop><extensions><gom:speed>0.577</gom:speed></extensions></trkpt>
   <trkpt lat="59.2973510709" lon="34.668985292"><ele>153.477</ele><time>2026-08-16T15:38:13.858Z</time><hdop>3.062</hdop><vdop>2.5</vdop><extensions><gom:speed>0.555</gom:speed></extensions></trkpt>
   <trkpt lat="59.2973501908" lon="34.6689815201"><ele>153.441</ele><time>2026-08-16T15:38:15.136Z</time><hdop>3.0</hdop><vdop>2.5</vdop><extensions><gom:speed>0.234</gom:speed></extensions></trkpt>
   <trkpt lat="59.2973492688" lon="34.6689796761"><ele>153.357</ele><time>2026-08-16T15:38:16.136Z</time><hdop>3.0</hdop><vdop>2.5</vdop><extensions><gom:speed>0.137</gom:speed></extensions></trkpt>
   <trkpt lat="59.2973503585" lon="34.6689781673"><ele>153.131</ele><time>2026-08-16T15:38:17.136Z</time><hdop>3.0</hdop><vdop>2.5</vdop><extensions><gom:speed>0.167</gom:speed></extensions></trkpt>
   <trkpt lat="59.2973540884" lon="34.668978335"><ele>153.058</ele><time>2026-08-16T15:38:18.136Z</time><hdop>3.0</hdop><vdop>2.5</vdop><extensions><gom:speed>0.264</gom:speed></extensions></trkpt>
   <trkpt lat="59.2973563934" lon="34.6689800952"><ele>153.015</ele><time>2026-08-16T15:38:19.119Z</time><hdop>3.0</hdop><vdop>2.5</vdop><extensions><gom:speed>0.225</gom:speed></extensions></trkpt>
   <trkpt lat="59.2973589918" lon="34.6689825259"><ele>153.039</ele><time>2026-08-16T15:38:20.136Z</time><hdop>3.0</hdop><vdop>2.5</vdop><extensions><gom:speed>0.11</gom:speed></extensions></trkpt>
   <trkpt lat="59.2973603748" lon="34.6689848729"><ele>153.057</ele><time>2026-08-16T15:38:21.136Z</time><hdop>3.0</hdop><vdop>2.5</vdop><extensions><gom:speed>0.108</gom:speed></extensions></trkpt>
   <trkpt lat="59.297361674" lon="34.6689860463"><ele>153.248</ele><time>2026-08-16T15:38:22.135Z</time><hdop>3.0</hdop><vdop>2.5</vdop><extensions><gom:speed>0.151</gom:speed></extensions></trkpt>
   <trkpt lat="59.2973627637" lon="34.6689856272"><ele>153.238</ele><time>2026-08-16T15:38:23.136Z</time><hdop>3.0</hdop><vdop>2.5</vdop><extensions><gom:speed>0.167</gom:speed></extensions></trkpt>
   <trkpt lat="59.297363099" lon="34.6689844538"><ele>153.232</ele><time>2026-08-16T15:38:23.595Z</time><hdop>3.0</hdop><vdop>2.5</vdop><extensions><gom:speed>0.159</gom:speed></extensions></trkpt>
   <trkpt lat="59.2973642724" lon="34.6689817716"><ele>153.18</ele><time>2026-08-16T15:38:24.136Z</time><hdop>3.0</hdop><vdop>2.5</vdop><extensions><gom:speed>0.23</gom:speed></extensions></trkpt>
   <trkpt lat="59.2973650687" lon="34.6689805981"><ele>153.149</ele><time>2026-08-16T15:38:24.714Z</time><hdop>3.0</hdop><vdop>2.5</vdop><extensions><gom:speed>0.234</gom:speed></extensions></trkpt>
   <trkpt lat="59.297370978" lon="34.6689737249"><ele>152.978</ele><time>2026-08-16T15:38:26.136Z</time><hdop>3.0</hdop><vdop>2.5</vdop><extensions><gom:speed>0.323</gom:speed></extensions></trkpt>
   <trkpt lat="59.2973734925" lon="34.6689727191"><ele>152.876</ele><time>2026-08-16T15:38:26.735Z</time><hdop>3.0</hdop><vdop>2.5</vdop><extensions><gom:speed>0.331</gom:speed></extensions></trkpt>
   <trkpt lat="59.2973822935" lon="34.6689663489"><ele>152.927</ele><time>2026-08-16T15:38:27.894Z</time><hdop>3.0</hdop><vdop>2.5</vdop><extensions><gom:speed>0.501</gom:speed></extensions></trkpt>
   <trkpt lat="59.297394573" lon="34.6689593919"><ele>153.208</ele><time>2026-08-16T15:38:29.136Z</time><hdop>3.0</hdop><vdop>2.5</vdop><extensions><gom:speed>0.571</gom:speed></extensions></trkpt>
   <trkpt lat="59.2974032902" lon="34.6689584699"><ele>153.666</ele><time>2026-08-16T15:38:30.136Z</time><hdop>3.0</hdop><vdop>2.5</vdop><extensions><gom:speed>0.573</gom:speed></extensions></trkpt>
   <trkpt lat="59.2974060981" lon="34.6689592242"><ele>153.939</ele><time>2026-08-16T15:38:31.016Z</time><hdop>3.0</hdop><vdop>2.5</vdop><extensions><gom:speed>0.599</gom:speed></extensions></trkpt>
   <trkpt lat="59.2974100795" lon="34.6689618226"><ele>154.172</ele><time>2026-08-16T15:38:32.056Z</time><hdop>3.062</hdop><vdop>2.5</vdop><extensions><gom:speed>0.484</gom:speed></extensions></trkpt>
   <trkpt lat="59.2974193834" lon="34.66896769"><ele>154.144</ele><time>2026-08-16T15:38:33.136Z</time><hdop>3.0</hdop><vdop>2.5</vdop><extensions><gom:speed>0.411</gom:speed></extensions></trkpt>
   <trkpt lat="59.2974210598" lon="34.6689701207"><ele>154.128</ele><time>2026-08-16T15:38:33.803Z</time><hdop>3.0</hdop><vdop>2.5</vdop><extensions><gom:speed>0.434</gom:speed></extensions></trkpt>
   <trkpt lat="59.2974247898" lon="34.6689734735"><ele>153.992</ele><time>2026-08-16T15:38:34.579Z</time><hdop>3.0</hdop><vdop>2.5</vdop><extensions><gom:speed>0.299</gom:speed></extensions></trkpt>
   <trkpt lat="59.2974282683" lon="34.668973222"><ele>153.683</ele><time>2026-08-16T15:38:35.136Z</time><hdop>3.0</hdop><vdop>2.5</vdop><extensions><gom:speed>0.37</gom:speed></extensions></trkpt>
   <trkpt lat="59.2974296932" lon="34.6689727191"><ele>153.498</ele><time>2026-08-16T15:38:35.599Z</time><hdop>3.0</hdop><vdop>2.5</vdop><extensions><gom:speed>0.341</gom:speed></extensions></trkpt>
   <trkpt lat="59.297434387" lon="34.6689711265"><ele>153.634</ele><time>2026-08-16T15:38:36.136Z</time><hdop>3.0</hdop><vdop>2.5</vdop><extensions><gom:speed>0.443</gom:speed></extensions></trkpt>
   <trkpt lat="59.2974367759" lon="34.6689698693"><ele>153.716</ele><time>2026-08-16T15:38:36.698Z</time><hdop>3.0</hdop><vdop>2.5</vdop><extensions><gom:speed>0.442</gom:speed></extensions></trkpt>
   <trkpt lat="59.2974445711" lon="34.668969534"><ele>153.599</ele><time>2026-08-16T15:38:37.543Z</time><hdop>3.0</hdop><vdop>2.5</vdop><extensions><gom:speed>0.567</gom:speed></extensions></trkpt>
   <trkpt lat="59.29745157" lon="34.6689707913"><ele>153.744</ele><time>2026-08-16T15:38:38.136Z</time><hdop>3.0</hdop><vdop>2.5</vdop><extensions><gom:speed>0.662</gom:speed></extensions></trkpt>
   <trkpt lat="59.2974622988" lon="34.6689705398"><ele>153.834</ele><time>2026-08-16T15:38:39.135Z</time><hdop>3.0</hdop><vdop>2.5</vdop><extensions><gom:speed>0.683</gom:speed></extensions></trkpt>
   <trkpt lat="59.2974707645" lon="34.6689643372"><ele>153.803</ele><time>2026-08-16T15:38:40.136Z</time><hdop>3.0</hdop><vdop>2.5</vdop><extensions><gom:speed>0.639</gom:speed></extensions></trkpt>
   <trkpt lat="59.2974750812" lon="34.6689538598"><ele>153.463</ele><time>2026-08-16T15:38:41.136Z</time><hdop>3.0</hdop><vdop>2.5</vdop><extensions><gom:speed>0.578</gom:speed></extensions></trkpt>
   <trkpt lat="59.2974782663" lon="34.6689472381"><ele>153.26</ele><time>2026-08-16T15:38:42.019Z</time><hdop>3.0</hdop><vdop>2.5</vdop><extensions><gom:speed>0.535</gom:speed></extensions></trkpt>
   <trkpt lat="59.2974842594" lon="34.6689417899"><ele>153.213</ele><time>2026-08-16T15:38:42.902Z</time><hdop>3.0</hdop><vdop>2.5</vdop><extensions><gom:speed>0.609</gom:speed></extensions></trkpt>
   <trkpt lat="59.2974889951" lon="34.6689404488"><ele>153.28</ele><time>2026-08-16T15:38:43.403Z</time><hdop>3.0</hdop><vdop>2.5</vdop><extensions><gom:speed>0.648</gom:speed></extensions></trkpt>
   <trkpt lat="59.2974940662" lon="34.6689413708"><ele>153.319</ele><time>2026-08-16T15:38:44.139Z</time><hdop>3.0</hdop><vdop>2.5</vdop><extensions><gom:speed>0.649</gom:speed></extensions></trkpt>
   <trkpt lat="59.2975002688" lon="34.6689411193"><ele>153.308</ele><time>2026-08-16T15:38:44.944Z</time><hdop>3.0</hdop><vdop>2.5</vdop><extensions><gom:speed>0.63</gom:speed></extensions></trkpt>
   <trkpt lat="59.2975079802" lon="34.6689388562"><ele>153.577</ele><time>2026-08-16T15:38:45.680Z</time><hdop>3.0</hdop><vdop>2.5</vdop><extensions><gom:speed>0.757</gom:speed></extensions></trkpt>
   <trkpt lat="59.2975108719" lon="34.6689377666"><ele>153.656</ele><time>2026-08-16T15:38:46.136Z</time><hdop>3.0</hdop><vdop>2.5</vdop><extensions><gom:speed>0.698</gom:speed></extensions></trkpt>
   <trkpt lat="59.2975178708" lon="34.6689364255"><ele>153.829</ele><time>2026-08-16T15:38:47.135Z</time><hdop>3.0</hdop><vdop>2.5</vdop><extensions><gom:speed>0.75</gom:speed></extensions></trkpt>
   <trkpt lat="59.2975238639" lon="34.6689391915"><ele>153.974</ele><time>2026-08-16T15:38:48.136Z</time><hdop>3.0</hdop><vdop>2.5</vdop><extensions><gom:speed>0.661</gom:speed></extensions></trkpt>
   <trkpt lat="59.297526588" lon="34.6689421252"><ele>154.06</ele><time>2026-08-16T15:38:48.654Z</time><hdop>3.0</hdop><vdop>2.5</vdop><extensions><gom:speed>0.659</gom:speed></extensions></trkpt>
   <trkpt lat="59.2975293959" lon="34.6689479925"><ele>154.02</ele><time>2026-08-16T15:38:49.136Z</time><hdop>3.0</hdop><vdop>2.5</vdop><extensions><gom:speed>0.738</gom:speed></extensions></trkpt>
   <trkpt lat="59.2975319943" lon="34.6689536922"><ele>153.995</ele><time>2026-08-16T15:38:49.616Z</time><hdop>3.0</hdop><vdop>2.5</vdop><extensions><gom:speed>0.748</gom:speed></extensions></trkpt>
   <trkpt lat="59.2975342993" lon="34.6689605653"><ele>154.103</ele><time>2026-08-16T15:38:50.136Z</time><hdop>3.0</hdop><vdop>2.5</vdop><extensions><gom:speed>0.738</gom:speed></extensions></trkpt>
   <trkpt lat="59.2975385741" lon="34.6689716295"><ele>154.07</ele><time>2026-08-16T15:38:51.136Z</time><hdop>3.0</hdop><vdop>2.5</vdop><extensions><gom:speed>0.713</gom:speed></extensions></trkpt>
   <trkpt lat="59.2975443995" lon="34.6689832803"><ele>154.037</ele><time>2026-08-16T15:38:52.136Z</time><hdop>3.0</hdop><vdop>2.5</vdop><extensions><gom:speed>0.747</gom:speed></extensions></trkpt>
   <trkpt lat="59.2975488838" lon="34.6689923328"><ele>153.883</ele><time>2026-08-16T15:38:53.136Z</time><hdop>3.0</hdop><vdop>2.5</vdop><extensions><gom:speed>0.56</gom:speed></extensions></trkpt>
   <trkpt lat="59.2975526976" lon="34.6689980324"><ele>153.791</ele><time>2026-08-16T15:38:54.121Z</time><hdop>3.0</hdop><vdop>2.5</vdop><extensions><gom:speed>0.511</gom:speed></extensions></trkpt>
   <trkpt lat="59.297556679" lon="34.6690072525"><ele>153.681</ele><time>2026-08-16T15:38:54.719Z</time><hdop>3.0</hdop><vdop>2.5</vdop><extensions><gom:speed>0.614</gom:speed></extensions></trkpt>
   <trkpt lat="59.2975603671" lon="34.669017227"><ele>153.6</ele><time>2026-08-16T15:38:55.456Z</time><hdop>3.0</hdop><vdop>2.5</vdop><extensions><gom:speed>0.557</gom:speed></extensions></trkpt>
   <trkpt lat="59.2975641808" lon="34.6690262795"><ele>153.687</ele><time>2026-08-16T15:38:56.136Z</time><hdop>3.0</hdop><vdop>2.5</vdop><extensions><gom:speed>0.675</gom:speed></extensions></trkpt>
   <trkpt lat="59.2975688747" lon="34.6690363377"><ele>153.738</ele><time>2026-08-16T15:38:56.939Z</time><hdop>3.0</hdop><vdop>2.5</vdop><extensions><gom:speed>0.725</gom:speed></extensions></trkpt>
   <trkpt lat="59.2975759993" lon="34.6690434624"><ele>153.732</ele><time>2026-08-16T15:38:57.882Z</time><hdop>3.0</hdop><vdop>2.5</vdop><extensions><gom:speed>0.722</gom:speed></extensions></trkpt>
   <trkpt lat="59.2975792682" lon="34.6690450549"><ele>153.586</ele><time>2026-08-16T15:38:58.461Z</time><hdop>3.0</hdop><vdop>2.5</vdop><extensions><gom:speed>0.694</gom:speed></extensions></trkpt>
   <trkpt lat="59.2975845908" lon="34.6690497488"><ele>153.824</ele><time>2026-08-16T15:38:59.136Z</time><hdop>3.0</hdop><vdop>2.5</vdop><extensions><gom:speed>0.835</gom:speed></extensions></trkpt>
   <trkpt lat="59.2975901647" lon="34.6690571249"><ele>153.966</ele><time>2026-08-16T15:39:00.136Z</time><hdop>3.0</hdop><vdop>2.5</vdop><extensions><gom:speed>0.597</gom:speed></extensions></trkpt>
   <trkpt lat="59.2975949843" lon="34.6690625731"><ele>153.882</ele><time>2026-08-16T15:39:01.136Z</time><hdop>3.0</hdop><vdop>2.5</vdop><extensions><gom:speed>0.614</gom:speed></extensions></trkpt>
   <trkpt lat="59.2976024861" lon="34.6690685243"><ele>154.512</ele><time>2026-08-16T15:39:02.136Z</time><hdop>3.0</hdop><vdop>2.5</vdop><extensions><gom:speed>0.729</gom:speed></extensions></trkpt>
   <trkpt lat="59.2976082696" lon="34.6690713741"><ele>154.889</ele><time>2026-08-16T15:39:02.898Z</time><hdop>3.0</hdop><vdop>2.5</vdop><extensions><gom:speed>0.714</gom:speed></extensions></trkpt>
   <trkpt lat="59.2976138855" lon="34.6690732181"><ele>155.132</ele><time>2026-08-16T15:39:03.782Z</time><hdop>3.0</hdop><vdop>2.5</vdop><extensions><gom:speed>0.686</gom:speed></extensions></trkpt>
   <trkpt lat="59.2976167773" lon="34.6690747269"><ele>155.303</ele><time>2026-08-16T15:39:04.341Z</time><hdop>3.0</hdop><vdop>2.5</vdop><extensions><gom:speed>0.673</gom:speed></extensions></trkpt>
   <trkpt lat="59.2976216807" lon="34.6690738887"><ele>155.406</ele><time>2026-08-16T15:39:05.058Z</time><hdop>3.0</hdop><vdop>2.5</vdop><extensions><gom:speed>0.682</gom:speed></extensions></trkpt>
   <trkpt lat="59.2976264584" lon="34.6690723799"><ele>155.365</ele><time>2026-08-16T15:39:05.843Z</time><hdop>3.0</hdop><vdop>2.5</vdop><extensions><gom:speed>0.717</gom:speed></extensions></trkpt>
   <trkpt lat="59.2976296854" lon="34.6690735534"><ele>155.601</ele><time>2026-08-16T15:39:06.403Z</time><hdop>3.0</hdop><vdop>2.5</vdop><extensions><gom:speed>0.746</gom:speed></extensions></trkpt>
   <trkpt lat="59.2976331639" lon="34.6690756489"><ele>155.58</ele><time>2026-08-16T15:39:07.136Z</time><hdop>3.0</hdop><vdop>2.5</vdop><extensions><gom:speed>0.7</gom:speed></extensions></trkpt>
   <trkpt lat="59.2976391989" lon="34.6690821868"><ele>155.567</ele><time>2026-08-16T15:39:08.140Z</time><hdop>3.0</hdop><vdop>2.5</vdop><extensions><gom:speed>0.721</gom:speed></extensions></trkpt>
   <trkpt lat="59.2976418811" lon="34.6690895628"><ele>155.663</ele><time>2026-08-16T15:39:09.136Z</time><hdop>3.0</hdop><vdop>2.5</vdop><extensions><gom:speed>0.677</gom:speed></extensions></trkpt>
   <trkpt lat="59.2976428869" lon="34.66909828"><ele>155.768</ele><time>2026-08-16T15:39:10.136Z</time><hdop>3.0</hdop><vdop>2.5</vdop><extensions><gom:speed>0.589</gom:speed></extensions></trkpt>
   <trkpt lat="59.2976441861" lon="34.6691040635"><ele>155.83</ele><time>2026-08-16T15:39:10.623Z</time><hdop>3.0</hdop><vdop>2.5</vdop><extensions><gom:speed>0.646</gom:speed></extensions></trkpt>
   <trkpt lat="59.297644689" lon="34.6691082545"><ele>155.848</ele><time>2026-08-16T15:39:11.136Z</time><hdop>3.0</hdop><vdop>2.5</vdop><extensions><gom:speed>0.593</gom:speed></extensions></trkpt>
   <trkpt lat="59.2976461977" lon="34.6691173907"><ele>155.797</ele><time>2026-08-16T15:39:12.136Z</time><hdop>3.0</hdop><vdop>2.5</vdop><extensions><gom:speed>0.59</gom:speed></extensions></trkpt>
   <trkpt lat="59.297646994" lon="34.6691243477"><ele>155.767</ele><time>2026-08-16T15:39:12.743Z</time><hdop>3.0</hdop><vdop>2.5</vdop><extensions><gom:speed>0.583</gom:speed></extensions></trkpt>
   <trkpt lat="59.2976485866" lon="34.669137675"><ele>155.887</ele><time>2026-08-16T15:39:14.135Z</time><hdop>3.0</hdop><vdop>2.5</vdop><extensions><gom:speed>0.564</gom:speed></extensions></trkpt>
   <trkpt lat="59.2976499696" lon="34.6691470627"><ele>155.958</ele><time>2026-08-16T15:39:15.060Z</time><hdop>3.0</hdop><vdop>2.5</vdop><extensions><gom:speed>0.607</gom:speed></extensions></trkpt>
   <trkpt lat="59.2976522746" lon="34.6691599708"><ele>156.056</ele><time>2026-08-16T15:39:15.963Z</time><hdop>3.0</hdop><vdop>2.5</vdop><extensions><gom:speed>0.734</gom:speed></extensions></trkpt>
   <trkpt lat="59.2976547892" lon="34.6691715378"><ele>156.093</ele><time>2026-08-16T15:39:16.876Z</time><hdop>3.0</hdop><vdop>2.5</vdop><extensions><gom:speed>0.739</gom:speed></extensions></trkpt>
   <trkpt lat="59.2976592735" lon="34.6691780757"><ele>156.274</ele><time>2026-08-16T15:39:17.798Z</time><hdop>3.0</hdop><vdop>2.5</vdop><extensions><gom:speed>0.677</gom:speed></extensions></trkpt>
   <trkpt lat="59.2976662724" lon="34.6691777405"><ele>156.32</ele><time>2026-08-16T15:39:19.136Z</time><hdop>3.0</hdop><vdop>2.5</vdop><extensions><gom:speed>0.587</gom:speed></extensions></trkpt>
   <trkpt lat="59.2976700862" lon="34.669176567"><ele>156.411</ele><time>2026-08-16T15:39:20.136Z</time><hdop>3.0</hdop><vdop>2.5</vdop><extensions><gom:speed>0.553</gom:speed></extensions></trkpt>
   <trkpt lat="59.2976738999" lon="34.6691810932"><ele>156.288</ele><time>2026-08-16T15:39:21.136Z</time><hdop>3.0</hdop><vdop>2.5</vdop><extensions><gom:speed>0.502</gom:speed></extensions></trkpt>
   <trkpt lat="59.297676666" lon="34.669185368"><ele>155.878</ele><time>2026-08-16T15:39:22.136Z</time><hdop>3.0</hdop><vdop>2.5</vdop><extensions><gom:speed>0.401</gom:speed></extensions></trkpt>
   <trkpt lat="59.2976799768" lon="34.6691863738"><ele>155.632</ele><time>2026-08-16T15:39:23.136Z</time><hdop>3.0</hdop><vdop>2.5</vdop><extensions><gom:speed>0.564</gom:speed></extensions></trkpt>
   <trkpt lat="59.297682659" lon="34.6691851165"><ele>155.485</ele><time>2026-08-16T15:39:23.923Z</time><hdop>3.0</hdop><vdop>2.5</vdop><extensions><gom:speed>0.479</gom:speed></extensions></trkpt>
   <trkpt lat="59.2976832877" lon="34.6691889722"><ele>155.57</ele><time>2026-08-16T15:39:24.600Z</time><hdop>3.0</hdop><vdop>2.5</vdop><extensions><gom:speed>0.4</gom:speed></extensions></trkpt>
   <trkpt lat="59.2976875624" lon="34.6691897266"><ele>155.595</ele><time>2026-08-16T15:39:25.136Z</time><hdop>3.0</hdop><vdop>2.5</vdop><extensions><gom:speed>0.603</gom:speed></extensions></trkpt>
   <trkpt lat="59.29769519" lon="34.6691901457"><ele>155.44</ele><time>2026-08-16T15:39:26.136Z</time><hdop>3.0</hdop><vdop>2.5</vdop><extensions><gom:speed>0.715</gom:speed></extensions></trkpt>
   <trkpt lat="59.2976984589" lon="34.6691904809"><ele>155.348</ele><time>2026-08-16T15:39:26.622Z</time><hdop>3.0</hdop><vdop>2.5</vdop><extensions><gom:speed>0.68</gom:speed></extensions></trkpt>
   <trkpt lat="59.2976997581" lon="34.6691947557"><ele>155.338</ele><time>2026-08-16T15:39:27.136Z</time><hdop>3.0</hdop><vdop>2.5</vdop><extensions><gom:speed>0.614</gom:speed></extensions></trkpt>
   <trkpt lat="59.2977022727" lon="34.669200623"><ele>155.295</ele><time>2026-08-16T15:39:28.136Z</time><hdop>3.0</hdop><vdop>2.5</vdop><extensions><gom:speed>0.647</gom:speed></extensions></trkpt>
   <trkpt lat="59.2977068827" lon="34.6691974379"><ele>155.269</ele><time>2026-08-16T15:39:29.115Z</time><hdop>3.0</hdop><vdop>2.5</vdop><extensions><gom:speed>0.65</gom:speed></extensions></trkpt>
   <trkpt lat="59.2977115766" lon="34.6692005392"><ele>155.55</ele><time>2026-08-16T15:39:30.076Z</time><hdop>3.0</hdop><vdop>2.5</vdop><extensions><gom:speed>0.661</gom:speed></extensions></trkpt>
   <trkpt lat="59.2977192879" lon="34.6692067418"><ele>155.547</ele><time>2026-08-16T15:39:31.136Z</time><hdop>3.0</hdop><vdop>2.5</vdop><extensions><gom:speed>0.716</gom:speed></extensions></trkpt>
   <trkpt lat="59.2977263706" lon="34.6692175545"><ele>155.84</ele><time>2026-08-16T15:39:32.136Z</time><hdop>3.0</hdop><vdop>2.5</vdop><extensions><gom:speed>0.797</gom:speed></extensions></trkpt>
   <trkpt lat="59.2977282985" lon="34.6692292892"><ele>156.004</ele><time>2026-08-16T15:39:33.136Z</time><hdop>3.0</hdop><vdop>2.5</vdop><extensions><gom:speed>0.48</gom:speed></extensions></trkpt>
   <trkpt lat="59.2977276698" lon="34.6692349889"><ele>156.098</ele><time>2026-08-16T15:39:34.136Z</time><hdop>3.0</hdop><vdop>2.5</vdop><extensions><gom:speed>0.241</gom:speed></extensions></trkpt>
   <trkpt lat="59.2977269993" lon="34.6692371681"><ele>156.192</ele><time>2026-08-16T15:39:35.136Z</time><hdop>3.0</hdop><vdop>2.5</vdop><extensions><gom:speed>0.141</gom:speed></extensions></trkpt>
   <trkpt lat="59.2977270831" lon="34.6692384254"><ele>156.243</ele><time>2026-08-16T15:39:36.135Z</time><hdop>3.0</hdop><vdop>2.5</vdop><extensions><gom:speed>0.115</gom:speed></extensions></trkpt>
   <trkpt lat="59.2977273765" lon="34.6692389283"><ele>156.448</ele><time>2026-08-16T15:39:37.136Z</time><hdop>3.0</hdop><vdop>2.5</vdop><extensions><gom:speed>0.082</gom:speed></extensions></trkpt>
   <trkpt lat="59.2977277956" lon="34.6692397665"><ele>156.561</ele><time>2026-08-16T15:39:38.136Z</time><hdop>3.0</hdop><vdop>2.5</vdop><extensions><gom:speed>0.068</gom:speed></extensions></trkpt>
   <trkpt lat="59.2977284661" lon="34.66924094"><ele>156.542</ele><time>2026-08-16T15:39:39.136Z</time><hdop>3.0</hdop><vdop>2.5</vdop><extensions><gom:speed>0.093</gom:speed></extensions></trkpt>
   <trkpt lat="59.2977288852" lon="34.6692413591"><ele>156.529</ele><time>2026-08-16T15:39:40.136Z</time><hdop>3.0</hdop><vdop>2.562</vdop><extensions><gom:speed>0.104</gom:speed></extensions></trkpt>
   <trkpt lat="59.2977297653" lon="34.6692414429"><ele>156.517</ele><time>2026-08-16T15:39:41.136Z</time><hdop>3.0</hdop><vdop>2.625</vdop><extensions><gom:speed>0.074</gom:speed></extensions></trkpt>
   <trkpt lat="59.297729891" lon="34.6692412753"><ele>156.497</ele><time>2026-08-16T15:39:42.136Z</time><hdop>3.0</hdop><vdop>2.75</vdop><extensions><gom:speed>0.074</gom:speed></extensions></trkpt>
   <trkpt lat="59.2977301844" lon="34.6692413591"><ele>156.474</ele><time>2026-08-16T15:39:43.136Z</time><hdop>3.0</hdop><vdop>2.812</vdop><extensions><gom:speed>0.088</gom:speed></extensions></trkpt>
   <trkpt lat="59.2977297653" lon="34.6692420296"><ele>156.448</ele><time>2026-08-16T15:39:44.136Z</time><hdop>3.0</hdop><vdop>2.812</vdop><extensions><gom:speed>0.1</gom:speed></extensions></trkpt>
   <trkpt lat="59.2977296815" lon="34.6692424487"><ele>156.411</ele><time>2026-08-16T15:39:45.136Z</time><hdop>3.0</hdop><vdop>2.875</vdop><extensions><gom:speed>0.063</gom:speed></extensions></trkpt>
   <trkpt lat="59.297729472" lon="34.6692430355"><ele>156.384</ele><time>2026-08-16T15:39:46.136Z</time><hdop>3.0</hdop><vdop>2.812</vdop><extensions><gom:speed>0.058</gom:speed></extensions></trkpt>
   <trkpt lat="59.2977287595" lon="34.6692436222"><ele>156.37</ele><time>2026-08-16T15:39:47.136Z</time><hdop>3.0</hdop><vdop>2.75</vdop><extensions><gom:speed>0.09</gom:speed></extensions></trkpt>
   <trkpt lat="59.2977283823" lon="34.6692441251"><ele>156.336</ele><time>2026-08-16T15:39:48.136Z</time><hdop>3.0</hdop><vdop>2.812</vdop><extensions><gom:speed>0.094</gom:speed></extensions></trkpt>
   <trkpt lat="59.2977282985" lon="34.6692440413"><ele>156.323</ele><time>2026-08-16T15:39:49.136Z</time><hdop>3.0</hdop><vdop>2.875</vdop><extensions><gom:speed>0.066</gom:speed></extensions></trkpt>
   <trkpt lat="59.2977284661" lon="34.6692441251"><ele>156.315</ele><time>2026-08-16T15:39:50.136Z</time><hdop>3.0</hdop><vdop>2.812</vdop><extensions><gom:speed>0.069</gom:speed></extensions></trkpt>
   <trkpt lat="59.2977286757" lon="34.6692444604"><ele>156.305</ele><time>2026-08-16T15:39:51.135Z</time><hdop>3.0</hdop><vdop>2.812</vdop><extensions><gom:speed>0.065</gom:speed></extensions></trkpt>
   <trkpt lat="59.2977288852" lon="34.669244628"><ele>156.301</ele><time>2026-08-16T15:39:52.136Z</time><hdop>3.0</hdop><vdop>2.812</vdop><extensions><gom:speed>0.065</gom:speed></extensions></trkpt>
   <trkpt lat="59.297728969" lon="34.6692447957"><ele>156.299</ele><time>2026-08-16T15:39:52.723Z</time><hdop>3.0</hdop><vdop>2.812</vdop><extensions><gom:speed>0.065</gom:speed></extensions></trkpt>
   <trkpt lat="59.2977283823" lon="34.6692453824"><ele>156.328</ele><time>2026-08-16T15:39:54.136Z</time><hdop>3.0</hdop><vdop>2.812</vdop><extensions><gom:speed>0.063</gom:speed></extensions></trkpt>
   <trkpt lat="59.2977281728" lon="34.66924555"><ele>156.351</ele><time>2026-08-16T15:39:55.136Z</time><hdop>3.0</hdop><vdop>3.125</vdop><extensions><gom:speed>0.066</gom:speed></extensions></trkpt>
   <trkpt lat="59.2977280889" lon="34.66924555"><ele>156.257</ele><time>2026-08-16T15:39:56.136Z</time><hdop>3.0</hdop><vdop>3.0</vdop><extensions><gom:speed>0.277</gom:speed></extensions></trkpt>
   <trkpt lat="59.2977279632" lon="34.6692467235"><ele>156.172</ele><time>2026-08-16T15:39:57.136Z</time><hdop>3.0</hdop><vdop>2.937</vdop><extensions><gom:speed>0.112</gom:speed></extensions></trkpt>
   <trkpt lat="59.2977276698" lon="34.6692464721"><ele>156.08</ele><time>2026-08-16T15:39:58.136Z</time><hdop>3.0</hdop><vdop>2.75</vdop><extensions><gom:speed>0.473</gom:speed></extensions></trkpt>
   <trkpt lat="59.2977273765" lon="34.6692473941"><ele>156.121</ele><time>2026-08-16T15:39:59.136Z</time><hdop>3.0</hdop><vdop>2.625</vdop><extensions><gom:speed>0.233</gom:speed></extensions></trkpt>
   <trkpt lat="59.297726664" lon="34.6692462206"><ele>156.051</ele><time>2026-08-16T15:40:00.136Z</time><hdop>3.0</hdop><vdop>2.5</vdop><extensions><gom:speed>0.247</gom:speed></extensions></trkpt>
   <trkpt lat="59.2977253648" lon="34.6692456339"><ele>155.641</ele><time>2026-08-16T15:40:01.136Z</time><hdop>3.0</hdop><vdop>2.5</vdop><extensions><gom:speed>0.072</gom:speed></extensions></trkpt>
   <trkpt lat="59.297724359" lon="34.669244628"><ele>155.368</ele><time>2026-08-16T15:40:02.136Z</time><hdop>3.0</hdop><vdop>2.5</vdop><extensions><gom:speed>0.061</gom:speed></extensions></trkpt>
   <trkpt lat="59.2977235627" lon="34.6692442928"><ele>155.265</ele><time>2026-08-16T15:40:03.136Z</time><hdop>3.0</hdop><vdop>2.5</vdop><extensions><gom:speed>0.251</gom:speed></extensions></trkpt>
   <trkpt lat="59.2977220959" lon="34.6692441251"><ele>155.196</ele><time>2026-08-16T15:40:04.136Z</time><hdop>3.0</hdop><vdop>2.5</vdop><extensions><gom:speed>0.099</gom:speed></extensions></trkpt>
   <trkpt lat="59.2977218863" lon="34.6692442928"><ele>155.154</ele><time>2026-08-16T15:40:04.854Z</time><hdop>3.0</hdop><vdop>2.5</vdop><extensions><gom:speed>0.095</gom:speed></extensions></trkpt>
   <trkpt lat="59.2977205871" lon="34.6692445442"><ele>154.95</ele><time>2026-08-16T15:40:06.136Z</time><hdop>3.0</hdop><vdop>2.5</vdop><extensions><gom:speed>0.071</gom:speed></extensions></trkpt>
   <trkpt lat="59.297720168" lon="34.6692447957"><ele>154.828</ele><time>2026-08-16T15:40:06.955Z</time><hdop>3.0</hdop><vdop>2.5</vdop><extensions><gom:speed>0.072</gom:speed></extensions></trkpt>
   <trkpt lat="59.2977171925" lon="34.6692410238"><ele>154.705</ele><time>2026-08-16T15:40:07.956Z</time><hdop>3.062</hdop><vdop>2.5</vdop><extensions><gom:speed>0.069</gom:speed></extensions></trkpt>
   <trkpt lat="59.2977160609" lon="34.6692398504"><ele>154.431</ele><time>2026-08-16T15:40:08.938Z</time><hdop>3.062</hdop><vdop>2.5</vdop><extensions><gom:speed>0.173</gom:speed></extensions></trkpt>
   <trkpt lat="59.2977134625" lon="34.669233061"><ele>154.249</ele><time>2026-08-16T15:40:09.860Z</time><hdop>3.062</hdop><vdop>2.5</vdop><extensions><gom:speed>0.209</gom:speed></extensions></trkpt>
   <trkpt lat="59.2977093973" lon="34.6692211587"><ele>154.147</ele><time>2026-08-16T15:40:11.136Z</time><hdop>3.062</hdop><vdop>2.5</vdop><extensions><gom:speed>0.243</gom:speed></extensions></trkpt>
   <trkpt lat="59.2977074695" lon="34.6692167163"><ele>154.099</ele><time>2026-08-16T15:40:12.136Z</time><hdop>3.0</hdop><vdop>2.5</vdop><extensions><gom:speed>0.178</gom:speed></extensions></trkpt>
   <trkpt lat="59.2977063798" lon="34.6692144532"><ele>154.116</ele><time>2026-08-16T15:40:13.136Z</time><hdop>3.0</hdop><vdop>2.5</vdop><extensions><gom:speed>0.092</gom:speed></extensions></trkpt>
   <trkpt lat="59.2977061703" lon="34.6692121901"><ele>154.188</ele><time>2026-08-16T15:40:14.136Z</time><hdop>3.0</hdop><vdop>2.5</vdop><extensions><gom:speed>0.099</gom:speed></extensions></trkpt>
   <trkpt lat="59.2977060864" lon="34.669209424"><ele>154.241</ele><time>2026-08-16T15:40:15.136Z</time><hdop>3.0</hdop><vdop>2.5</vdop><extensions><gom:speed>0.115</gom:speed></extensions></trkpt>
   <trkpt lat="59.2977063798" lon="34.6692062389"><ele>154.428</ele><time>2026-08-16T15:40:16.136Z</time><hdop>3.0</hdop><vdop>2.5</vdop><extensions><gom:speed>0.136</gom:speed></extensions></trkpt>
   <trkpt lat="59.2977059607" lon="34.6692053169"><ele>154.541</ele><time>2026-08-16T15:40:16.918Z</time><hdop>3.0</hdop><vdop>2.5</vdop><extensions><gom:speed>0.115</gom:speed></extensions></trkpt>
   <trkpt lat="59.2977064636" lon="34.6692039758"><ele>154.767</ele><time>2026-08-16T15:40:17.536Z</time><hdop>3.0</hdop><vdop>2.5</vdop><extensions><gom:speed>0.122</gom:speed></extensions></trkpt>
   <trkpt lat="59.2977069665" lon="34.6692026347"><ele>154.882</ele><time>2026-08-16T15:40:18.136Z</time><hdop>3.0</hdop><vdop>2.5</vdop><extensions><gom:speed>0.11</gom:speed></extensions></trkpt>
   <trkpt lat="59.2977074695" lon="34.6692022994"><ele>155.007</ele><time>2026-08-16T15:40:19.136Z</time><hdop>3.0</hdop><vdop>2.5</vdop><extensions><gom:speed>0.111</gom:speed></extensions></trkpt>
   <trkpt lat="59.297707679" lon="34.6692021318"><ele>155.083</ele><time>2026-08-16T15:40:19.823Z</time><hdop>3.0</hdop><vdop>2.5</vdop><extensions><gom:speed>0.112</gom:speed></extensions></trkpt>
   <trkpt lat="59.2977077628" lon="34.6692016289"><ele>155.135</ele><time>2026-08-16T15:40:20.520Z</time><hdop>3.0</hdop><vdop>2.5</vdop><extensions><gom:speed>0.099</gom:speed></extensions></trkpt>
   <trkpt lat="59.297707679" lon="34.6692010421"><ele>155.166</ele><time>2026-08-16T15:40:20.982Z</time><hdop>3.0</hdop><vdop>2.5</vdop><extensions><gom:speed>0.126</gom:speed></extensions></trkpt>
   <trkpt lat="59.2977065894" lon="34.669198779"><ele>155.087</ele><time>2026-08-16T15:40:21.942Z</time><hdop>3.0</hdop><vdop>2.5</vdop><extensions><gom:speed>0.19</gom:speed></extensions></trkpt>
   <trkpt lat="59.2977050806" lon="34.6691938337"><ele>154.908</ele><time>2026-08-16T15:40:22.582Z</time><hdop>3.0</hdop><vdop>2.5</vdop><extensions><gom:speed>0.344</gom:speed></extensions></trkpt>
   <trkpt lat="59.2977022727" lon="34.6691869605"><ele>154.774</ele><time>2026-08-16T15:40:23.136Z</time><hdop>3.0</hdop><vdop>2.5</vdop><extensions><gom:speed>0.473</gom:speed></extensions></trkpt>
   <trkpt lat="59.297697495" lon="34.6691815961"><ele>154.693</ele><time>2026-08-16T15:40:24.075Z</time><hdop>3.0</hdop><vdop>2.5</vdop><extensions><gom:speed>0.586</gom:speed></extensions></trkpt>
   <trkpt lat="59.29769146" lon="34.6691717893"><ele>154.529</ele><time>2026-08-16T15:40:25.017Z</time><hdop>3.062</hdop><vdop>2.5</vdop><extensions><gom:speed>0.764</gom:speed></extensions></trkpt>
   <trkpt lat="59.2976902866" lon="34.6691619825"><ele>154.445</ele><time>2026-08-16T15:40:25.616Z</time><hdop>3.125</hdop><vdop>2.5</vdop><extensions><gom:speed>0.715</gom:speed></extensions></trkpt>
   <trkpt lat="59.2976895741" lon="34.6691557799"><ele>154.295</ele><time>2026-08-16T15:40:26.136Z</time><hdop>3.125</hdop><vdop>2.5</vdop><extensions><gom:speed>0.588</gom:speed></extensions></trkpt>
   <trkpt lat="59.2976895741" lon="34.6691467274"><ele>154.206</ele><time>2026-08-16T15:40:27.118Z</time><hdop>3.25</hdop><vdop>2.5</vdop><extensions><gom:speed>0.506</gom:speed></extensions></trkpt>
   <trkpt lat="59.2976888616" lon="34.66913625"><ele>154.026</ele><time>2026-08-16T15:40:28.099Z</time><hdop>3.25</hdop><vdop>2.5</vdop><extensions><gom:speed>0.434</gom:speed></extensions></trkpt>
   <trkpt lat="59.2976885683" lon="34.6691302989"><ele>153.819</ele><time>2026-08-16T15:40:28.599Z</time><hdop>3.25</hdop><vdop>2.5</vdop><extensions><gom:speed>0.416</gom:speed></extensions></trkpt>
   <trkpt lat="59.2976879815" lon="34.669124683"><ele>153.932</ele><time>2026-08-16T15:40:29.136Z</time><hdop>3.25</hdop><vdop>2.5</vdop><extensions><gom:speed>0.468</gom:speed></extensions></trkpt>
   <trkpt lat="59.297687772" lon="34.6691143733"><ele>154.137</ele><time>2026-08-16T15:40:30.136Z</time><hdop>3.187</hdop><vdop>2.5</vdop><extensions><gom:speed>0.41</gom:speed></extensions></trkpt>
   <trkpt lat="59.2976875624" lon="34.6691048179"><ele>154.424</ele><time>2026-08-16T15:40:31.136Z</time><hdop>3.125</hdop><vdop>2.5</vdop><extensions><gom:speed>0.47</gom:speed></extensions></trkpt>
   <trkpt lat="59.2976891969" lon="34.6690960169"><ele>154.581</ele><time>2026-08-16T15:40:32.136Z</time><hdop>3.0</hdop><vdop>2.5</vdop><extensions><gom:speed>0.436</gom:speed></extensions></trkpt>
   <trkpt lat="59.2976907895" lon="34.6690891437"><ele>154.675</ele><time>2026-08-16T15:40:32.958Z</time><hdop>3.0</hdop><vdop>2.5</vdop><extensions><gom:speed>0.441</gom:speed></extensions></trkpt>
   <trkpt lat="59.2976958605" lon="34.669088557"><ele>154.537</ele><time>2026-08-16T15:40:34.136Z</time><hdop>3.0</hdop><vdop>2.5</vdop><extensions><gom:speed>0.308</gom:speed></extensions></trkpt>
   <trkpt lat="59.2976971597" lon="34.6690871321"><ele>154.454</ele><time>2026-08-16T15:40:35.039Z</time><hdop>3.0</hdop><vdop>2.5</vdop><extensions><gom:speed>0.265</gom:speed></extensions></trkpt>
   <trkpt lat="59.297700261" lon="34.6690842822"><ele>154.583</ele><time>2026-08-16T15:40:35.638Z</time><hdop>3.0</hdop><vdop>2.5</vdop><extensions><gom:speed>0.36</gom:speed></extensions></trkpt>
   <trkpt lat="59.2977027756" lon="34.6690809295"><ele>154.766</ele><time>2026-08-16T15:40:36.136Z</time><hdop>3.0</hdop><vdop>2.5</vdop><extensions><gom:speed>0.398</gom:speed></extensions></trkpt>
   <trkpt lat="59.2977066732" lon="34.6690757327"><ele>154.858</ele><time>2026-08-16T15:40:37.135Z</time><hdop>3.0</hdop><vdop>2.5</vdop><extensions><gom:speed>0.352</gom:speed></extensions></trkpt>
   <trkpt lat="59.2977080981" lon="34.6690764871"><ele>154.926</ele><time>2026-08-16T15:40:38.136Z</time><hdop>3.0</hdop><vdop>2.5</vdop><extensions><gom:speed>0.218</gom:speed></extensions></trkpt>
   <trkpt lat="59.297709984" lon="34.6690762356"><ele>154.928</ele><time>2026-08-16T15:40:39.136Z</time><hdop>3.0</hdop><vdop>2.5</vdop><extensions><gom:speed>0.214</gom:speed></extensions></trkpt>
   <trkpt lat="59.2977109899" lon="34.6690725476"><ele>154.928</ele><time>2026-08-16T15:40:40.143Z</time><hdop>3.0</hdop><vdop>2.5</vdop><extensions><gom:speed>0.261</gom:speed></extensions></trkpt>
   <trkpt lat="59.2977125824" lon="34.6690679375"><ele>154.963</ele><time>2026-08-16T15:40:40.780Z</time><hdop>3.0</hdop><vdop>2.5</vdop><extensions><gom:speed>0.339</gom:speed></extensions></trkpt>
   <trkpt lat="59.2977149713" lon="34.6690660935"><ele>154.875</ele><time>2026-08-16T15:40:41.536Z</time><hdop>3.0</hdop><vdop>2.5</vdop><extensions><gom:speed>0.251</gom:speed></extensions></trkpt>
   <trkpt lat="59.2977156837" lon="34.6690638304"><ele>154.823</ele><time>2026-08-16T15:40:42.057Z</time><hdop>3.0</hdop><vdop>2.5</vdop><extensions><gom:speed>0.258</gom:speed></extensions></trkpt>
   <trkpt lat="59.2977176954" lon="34.6690664288"><ele>154.792</ele><time>2026-08-16T15:40:42.617Z</time><hdop>3.0</hdop><vdop>2.5</vdop><extensions><gom:speed>0.187</gom:speed></extensions></trkpt>
   <trkpt lat="59.2977203776" lon="34.6690677699"><ele>154.5</ele><time>2026-08-16T15:40:43.136Z</time><hdop>3.0</hdop><vdop>2.5</vdop><extensions><gom:speed>0.26</gom:speed></extensions></trkpt>
   <trkpt lat="59.2977234789" lon="34.6690674346"><ele>154.326</ele><time>2026-08-16T15:40:43.814Z</time><hdop>3.0</hdop><vdop>2.5</vdop><extensions><gom:speed>0.297</gom:speed></extensions></trkpt>
   <trkpt lat="59.297730394" lon="34.669068189"><ele>154.434</ele><time>2026-08-16T15:40:44.501Z</time><hdop>3.0</hdop><vdop>2.5</vdop><extensions><gom:speed>0.499</gom:speed></extensions></trkpt>
   <trkpt lat="59.2977369738" lon="34.6690669317"><ele>154.446</ele><time>2026-08-16T15:40:45.136Z</time><hdop>3.0</hdop><vdop>2.5</vdop><extensions><gom:speed>0.699</gom:speed></extensions></trkpt>
   <trkpt lat="59.2977458586" lon="34.6690623216"><ele>154.453</ele><time>2026-08-16T15:40:46.062Z</time><hdop>3.0</hdop><vdop>2.5</vdop><extensions><gom:speed>0.785</gom:speed></extensions></trkpt>
   <trkpt lat="59.297756797" lon="34.669071877"><ele>154.352</ele><time>2026-08-16T15:40:46.878Z</time><hdop>3.0</hdop><vdop>2.5</vdop><extensions><gom:speed>0.823</gom:speed></extensions></trkpt>
   <trkpt lat="59.2977679868" lon="34.6690800913"><ele>154.3</ele><time>2026-08-16T15:40:47.840Z</time><hdop>3.0</hdop><vdop>2.5</vdop><extensions><gom:speed>0.865</gom:speed></extensions></trkpt>
   <trkpt lat="59.2977762849" lon="34.6690887246"><ele>154.198</ele><time>2026-08-16T15:40:48.763Z</time><hdop>3.0</hdop><vdop>2.5</vdop><extensions><gom:speed>0.767</gom:speed></extensions></trkpt>
   <trkpt lat="59.2977850859" lon="34.6690891437"><ele>154.22</ele><time>2026-08-16T15:40:49.823Z</time><hdop>3.0</hdop><vdop>2.5</vdop><extensions><gom:speed>0.804</gom:speed></extensions></trkpt>
   <trkpt lat="59.2977913723" lon="34.6690865453"><ele>154.267</ele><time>2026-08-16T15:40:50.657Z</time><hdop>3.0</hdop><vdop>2.5</vdop><extensions><gom:speed>0.867</gom:speed></extensions></trkpt>
   <trkpt lat="59.2977941802" lon="34.6690858748"><ele>154.319</ele><time>2026-08-16T15:40:51.135Z</time><hdop>3.0</hdop><vdop>2.5</vdop><extensions><gom:speed>0.85</gom:speed></extensions></trkpt>
   <trkpt lat="59.297799377" lon="34.6690785825"><ele>154.35</ele><time>2026-08-16T15:40:51.963Z</time><hdop>3.0</hdop><vdop>2.5</vdop><extensions><gom:speed>0.877</gom:speed></extensions></trkpt>
   <trkpt lat="59.2978033584" lon="34.6690777443"><ele>154.364</ele><time>2026-08-16T15:40:52.660Z</time><hdop>3.0</hdop><vdop>2.5</vdop><extensions><gom:speed>0.894</gom:speed></extensions></trkpt>
   <trkpt lat="59.2978047834" lon="34.6690812647"><ele>153.95</ele><time>2026-08-16T15:40:53.136Z</time><hdop>3.0</hdop><vdop>2.5</vdop><extensions><gom:speed>0.819</gom:speed></extensions></trkpt>
   <trkpt lat="59.2978094772" lon="34.6690877188"><ele>153.614</ele><time>2026-08-16T15:40:54.136Z</time><hdop>3.0</hdop><vdop>2.5</vdop><extensions><gom:speed>0.723</gom:speed></extensions></trkpt>
   <trkpt lat="59.2978133748" lon="34.6690932509"><ele>153.413</ele><time>2026-08-16T15:40:54.682Z</time><hdop>3.0</hdop><vdop>2.5</vdop><extensions><gom:speed>0.76</gom:speed></extensions></trkpt>
   <trkpt lat="59.2978154703" lon="34.6690970227"><ele>153.361</ele><time>2026-08-16T15:40:55.136Z</time><hdop>3.0</hdop><vdop>2.5</vdop><extensions><gom:speed>0.73</gom:speed></extensions></trkpt>
   <trkpt lat="59.2978193679" lon="34.6690981962"><ele>153.331</ele><time>2026-08-16T15:40:55.722Z</time><hdop>3.0</hdop><vdop>2.5</vdop><extensions><gom:speed>0.748</gom:speed></extensions></trkpt>
   <trkpt lat="59.2978203737" lon="34.6691018842"><ele>153.291</ele><time>2026-08-16T15:40:56.183Z</time><hdop>3.0</hdop><vdop>2.5</vdop><extensions><gom:speed>0.61</gom:speed></extensions></trkpt>
   <trkpt lat="59.2978226787" lon="34.6691025548"><ele>153.268</ele><time>2026-08-16T15:40:56.654Z</time><hdop>3.0</hdop><vdop>2.5</vdop><extensions><gom:speed>0.618</gom:speed></extensions></trkpt>
   <trkpt lat="59.2978244808" lon="34.669107081"><ele>152.943</ele><time>2026-08-16T15:40:57.136Z</time><hdop>3.0</hdop><vdop>2.5</vdop><extensions><gom:speed>0.617</gom:speed></extensions></trkpt>
   <trkpt lat="59.2978286718" lon="34.6691163849"><ele>152.749</ele><time>2026-08-16T15:40:58.079Z</time><hdop>3.0</hdop><vdop>2.5</vdop><extensions><gom:speed>0.604</gom:speed></extensions></trkpt>
   <trkpt lat="59.297830893" lon="34.6691292931"><ele>152.48</ele><time>2026-08-16T15:40:58.796Z</time><hdop>3.0</hdop><vdop>2.5</vdop><extensions><gom:speed>0.643</gom:speed></extensions></trkpt>
   <trkpt lat="59.2978337847" lon="34.6691482362"><ele>152.31</ele><time>2026-08-16T15:40:59.738Z</time><hdop>3.0</hdop><vdop>2.5</vdop><extensions><gom:speed>0.69</gom:speed></extensions></trkpt>
   <trkpt lat="59.2978360898" lon="34.6691585459"><ele>152.216</ele><time>2026-08-16T15:41:00.682Z</time><hdop>3.0</hdop><vdop>2.5</vdop><extensions><gom:speed>0.487</gom:speed></extensions></trkpt>
   <trkpt lat="59.2978365927" lon="34.6691616472"><ele>152.157</ele><time>2026-08-16T15:41:01.136Z</time><hdop>3.0</hdop><vdop>2.5</vdop><extensions><gom:speed>0.392</gom:speed></extensions></trkpt>
   <trkpt lat="59.2978371794" lon="34.6691658381"><ele>152.138</ele><time>2026-08-16T15:41:02.136Z</time><hdop>3.0</hdop><vdop>2.5</vdop><extensions><gom:speed>0.268</gom:speed></extensions></trkpt>
   <trkpt lat="59.297836886" lon="34.6691676822"><ele>152.128</ele><time>2026-08-16T15:41:03.136Z</time><hdop>3.0</hdop><vdop>2.5</vdop><extensions><gom:speed>0.151</gom:speed></extensions></trkpt>
   <trkpt lat="59.2978363831" lon="34.6691688556"><ele>152.242</ele><time>2026-08-16T15:41:04.136Z</time><hdop>3.0</hdop><vdop>2.5</vdop><extensions><gom:speed>0.133</gom:speed></extensions></trkpt>
   <trkpt lat="59.2978361736" lon="34.6691696938"><ele>152.31</ele><time>2026-08-16T15:41:04.981Z</time><hdop>3.0</hdop><vdop>2.5</vdop><extensions><gom:speed>0.09</gom:speed></extensions></trkpt>
   <trkpt lat="59.2978371794" lon="34.6691733819"><ele>152.318</ele><time>2026-08-16T15:41:06.002Z</time><hdop>3.0</hdop><vdop>2.5</vdop><extensions><gom:speed>0.099</gom:speed></extensions></trkpt>
   <trkpt lat="59.2978406998" lon="34.6691787463"><ele>152.514</ele><time>2026-08-16T15:41:06.856Z</time><hdop>3.0</hdop><vdop>2.5</vdop><extensions><gom:speed>0.151</gom:speed></extensions></trkpt>
   <trkpt lat="59.297847573" lon="34.6691827696"><ele>152.737</ele><time>2026-08-16T15:41:07.700Z</time><hdop>3.0</hdop><vdop>2.5</vdop><extensions><gom:speed>0.276</gom:speed></extensions></trkpt>
   <trkpt lat="59.2978561644" lon="34.6691863738"><ele>152.872</ele><time>2026-08-16T15:41:08.700Z</time><hdop>3.0</hdop><vdop>2.5</vdop><extensions><gom:speed>0.307</gom:speed></extensions></trkpt>
   <trkpt lat="59.2978627861" lon="34.6691945881"><ele>152.796</ele><time>2026-08-16T15:41:09.859Z</time><hdop>3.0</hdop><vdop>2.5</vdop><extensions><gom:speed>0.331</gom:speed></extensions></trkpt>
   <trkpt lat="59.2978673962" lon="34.6692044787"><ele>152.708</ele><time>2026-08-16T15:41:10.419Z</time><hdop>3.0</hdop><vdop>2.5</vdop><extensions><gom:speed>0.523</gom:speed></extensions></trkpt>
   <trkpt lat="59.2978691983" lon="34.6692095917"><ele>152.656</ele><time>2026-08-16T15:41:10.880Z</time><hdop>3.0</hdop><vdop>2.5</vdop><extensions><gom:speed>0.534</gom:speed></extensions></trkpt>
   <trkpt lat="59.2978770773" lon="34.6692207396"><ele>152.783</ele><time>2026-08-16T15:41:12.019Z</time><hdop>3.0</hdop><vdop>2.5</vdop><extensions><gom:speed>0.562</gom:speed></extensions></trkpt>
   <trkpt lat="59.29788416" lon="34.6692237571"><ele>152.978</ele><time>2026-08-16T15:41:12.981Z</time><hdop>3.0</hdop><vdop>2.5</vdop><extensions><gom:speed>0.551</gom:speed></extensions></trkpt>
   <trkpt lat="59.2978872613" lon="34.6692246791"><ele>152.954</ele><time>2026-08-16T15:41:13.678Z</time><hdop>3.0</hdop><vdop>2.5</vdop><extensions><gom:speed>0.436</gom:speed></extensions></trkpt>
   <trkpt lat="59.2978894825" lon="34.6692262717"><ele>152.814</ele><time>2026-08-16T15:41:14.136Z</time><hdop>3.0</hdop><vdop>2.5</vdop><extensions><gom:speed>0.413</gom:speed></extensions></trkpt>
   <trkpt lat="59.2978909912" lon="34.6692278642"><ele>152.73</ele><time>2026-08-16T15:41:14.639Z</time><hdop>3.0</hdop><vdop>2.5</vdop><extensions><gom:speed>0.358</gom:speed></extensions></trkpt>
   <trkpt lat="59.2978943859" lon="34.6692298759"><ele>152.968</ele><time>2026-08-16T15:41:15.136Z</time><hdop>3.0</hdop><vdop>2.5</vdop><extensions><gom:speed>0.433</gom:speed></extensions></trkpt>
   <trkpt lat="59.2978986607" lon="34.6692315523"><ele>153.11</ele><time>2026-08-16T15:41:15.896Z</time><hdop>3.0</hdop><vdop>2.5</vdop><extensions><gom:speed>0.454</gom:speed></extensions></trkpt>
   <trkpt lat="59.2979085932" lon="34.6692311332"><ele>153.461</ele><time>2026-08-16T15:41:16.995Z</time><hdop>3.0</hdop><vdop>2.5</vdop><extensions><gom:speed>0.584</gom:speed></extensions></trkpt>
   <trkpt lat="59.2979199926" lon="34.669228451"><ele>153.559</ele><time>2026-08-16T15:41:18.075Z</time><hdop>3.0</hdop><vdop>2.5</vdop><extensions><gom:speed>0.724</gom:speed></extensions></trkpt>
   <trkpt lat="59.2979269915" lon="34.6692217454"><ele>153.698</ele><time>2026-08-16T15:41:18.939Z</time><hdop>3.0</hdop><vdop>2.5</vdop><extensions><gom:speed>0.775</gom:speed></extensions></trkpt>
   <trkpt lat="59.2979331941" lon="34.6692167163"><ele>153.678</ele><time>2026-08-16T15:41:19.744Z</time><hdop>3.0</hdop><vdop>2.5</vdop><extensions><gom:speed>0.739</gom:speed></extensions></trkpt>
   <trkpt lat="59.2979381813" lon="34.669218728"><ele>153.941</ele><time>2026-08-16T15:41:20.460Z</time><hdop>3.0</hdop><vdop>2.5</vdop><extensions><gom:speed>0.713</gom:speed></extensions></trkpt>
   <trkpt lat="59.2979422885" lon="34.6692201529"><ele>154.163</ele><time>2026-08-16T15:41:21.136Z</time><hdop>3.0</hdop><vdop>2.5</vdop><extensions><gom:speed>0.667</gom:speed></extensions></trkpt>
   <trkpt lat="59.2979461861" lon="34.6692217454"><ele>154.296</ele><time>2026-08-16T15:41:21.853Z</time><hdop>3.0</hdop><vdop>2.5</vdop><extensions><gom:speed>0.6</gom:speed></extensions></trkpt>
   <trkpt lat="59.2979521791" lon="34.6692232542"><ele>154.021</ele><time>2026-08-16T15:41:23.136Z</time><hdop>3.0</hdop><vdop>2.5</vdop><extensions><gom:speed>0.573</gom:speed></extensions></trkpt>
   <trkpt lat="59.2979563701" lon="34.6692203205"><ele>153.854</ele><time>2026-08-16T15:41:24.136Z</time><hdop>3.0</hdop><vdop>2.5</vdop><extensions><gom:speed>0.525</gom:speed></extensions></trkpt>
   <trkpt lat="59.297960561" lon="34.6692174707"><ele>154.171</ele><time>2026-08-16T15:41:25.136Z</time><hdop>3.0</hdop><vdop>2.5</vdop><extensions><gom:speed>0.494</gom:speed></extensions></trkpt>
   <trkpt lat="59.2979630756" lon="34.6692134474"><ele>154.24</ele><time>2026-08-16T15:41:26.136Z</time><hdop>3.0</hdop><vdop>2.5</vdop><extensions><gom:speed>0.337</gom:speed></extensions></trkpt>
   <trkpt lat="59.2979623631" lon="34.6692128606"><ele>154.286</ele><time>2026-08-16T15:41:27.136Z</time><hdop>3.0</hdop><vdop>2.5</vdop><extensions><gom:speed>0.188</gom:speed></extensions></trkpt>
   <trkpt lat="59.2979617764" lon="34.669212693"><ele>154.241</ele><time>2026-08-16T15:41:28.136Z</time><hdop>3.0</hdop><vdop>2.5</vdop><extensions><gom:speed>0.172</gom:speed></extensions></trkpt>
   <trkpt lat="59.2979624889" lon="34.6692123577"><ele>154.214</ele><time>2026-08-16T15:41:29.137Z</time><hdop>3.0</hdop><vdop>2.5</vdop><extensions><gom:speed>0.162</gom:speed></extensions></trkpt>
   <trkpt lat="59.2979638719" lon="34.6692043949"><ele>154.263</ele><time>2026-08-16T15:41:30.136Z</time><hdop>3.0</hdop><vdop>2.5</vdop><extensions><gom:speed>0.219</gom:speed></extensions></trkpt>
   <trkpt lat="59.2979638719" lon="34.6691998687"><ele>154.372</ele><time>2026-08-16T15:41:31.136Z</time><hdop>3.0</hdop><vdop>2.5</vdop><extensions><gom:speed>0.178</gom:speed></extensions></trkpt>
   <trkpt lat="59.2979629918" lon="34.6691940852"><ele>154.329</ele><time>2026-08-16T15:41:32.136Z</time><hdop>3.0</hdop><vdop>2.5</vdop><extensions><gom:speed>0.181</gom:speed></extensions></trkpt>
   <trkpt lat="59.2979613992" lon="34.6691888884"><ele>154.125</ele><time>2026-08-16T15:41:33.136Z</time><hdop>3.0</hdop><vdop>2.5</vdop><extensions><gom:speed>0.196</gom:speed></extensions></trkpt>
   <trkpt lat="59.2979599743" lon="34.6691859547"><ele>154.105</ele><time>2026-08-16T15:41:34.136Z</time><hdop>3.0</hdop><vdop>2.5</vdop><extensions><gom:speed>0.193</gom:speed></extensions></trkpt>
   <trkpt lat="59.2979596809" lon="34.6691846974"><ele>154.094</ele><time>2026-08-16T15:41:34.879Z</time><hdop>3.0</hdop><vdop>2.5</vdop><extensions><gom:speed>0.158</gom:speed></extensions></trkpt>
   <trkpt lat="59.2979586751" lon="34.669179333"><ele>154.064</ele><time>2026-08-16T15:41:35.655Z</time><hdop>3.0</hdop><vdop>2.5</vdop><extensions><gom:speed>0.177</gom:speed></extensions></trkpt>
   <trkpt lat="59.2979611897" lon="34.6691741362"><ele>154.152</ele><time>2026-08-16T15:41:36.135Z</time><hdop>3.0</hdop><vdop>2.5</vdop><extensions><gom:speed>0.177</gom:speed></extensions></trkpt>
   <trkpt lat="59.2979663864" lon="34.6691687718"><ele>154.057</ele><time>2026-08-16T15:41:37.136Z</time><hdop>3.0</hdop><vdop>2.5</vdop><extensions><gom:speed>0.143</gom:speed></extensions></trkpt>
   <trkpt lat="59.2979682724" lon="34.6691673469"><ele>154.0</ele><time>2026-08-16T15:41:38.060Z</time><hdop>3.0</hdop><vdop>2.5</vdop><extensions><gom:speed>0.172</gom:speed></extensions></trkpt>
   <trkpt lat="59.2979742654" lon="34.6691661734"><ele>153.916</ele><time>2026-08-16T15:41:39.136Z</time><hdop>3.0</hdop><vdop>2.5</vdop><extensions><gom:speed>0.38</gom:speed></extensions></trkpt>
   <trkpt lat="59.2979787917" lon="34.6691664249"><ele>153.85</ele><time>2026-08-16T15:41:40.135Z</time><hdop>3.0</hdop><vdop>2.5</vdop><extensions><gom:speed>0.328</gom:speed></extensions></trkpt>
   <trkpt lat="59.2979843656" lon="34.6691696938"><ele>153.948</ele><time>2026-08-16T15:41:41.136Z</time><hdop>3.0</hdop><vdop>2.5</vdop><extensions><gom:speed>0.421</gom:speed></extensions></trkpt>
   <trkpt lat="59.2979917836" lon="34.6691796683"><ele>154.727</ele><time>2026-08-16T15:41:42.136Z</time><hdop>3.0</hdop><vdop>2.5</vdop><extensions><gom:speed>0.613</gom:speed></extensions></trkpt>
   <trkpt lat="59.2979998721" lon="34.6691879664"><ele>155.531</ele><time>2026-08-16T15:41:43.135Z</time><hdop>3.0</hdop><vdop>2.5</vdop><extensions><gom:speed>0.709</gom:speed></extensions></trkpt>
   <trkpt lat="59.2980027639" lon="34.6691935822"><ele>156.012</ele><time>2026-08-16T15:41:44.018Z</time><hdop>3.062</hdop><vdop>2.5</vdop><extensions><gom:speed>0.733</gom:speed></extensions></trkpt>
   <trkpt lat="59.2980150853" lon="34.6691924926"><ele>156.691</ele><time>2026-08-16T15:41:45.136Z</time><hdop>3.062</hdop><vdop>2.5</vdop><extensions><gom:speed>0.89</gom:speed></extensions></trkpt>
   <trkpt lat="59.2980188991" lon="34.6691872958"><ele>157.097</ele><time>2026-08-16T15:41:46.079Z</time><hdop>3.125</hdop><vdop>2.5</vdop><extensions><gom:speed>0.62</gom:speed></extensions></trkpt>
   <trkpt lat="59.2980267781" lon="34.6691763993"><ele>157.408</ele><time>2026-08-16T15:41:47.080Z</time><hdop>3.187</hdop><vdop>2.5</vdop><extensions><gom:speed>0.609</gom:speed></extensions></trkpt>
   <trkpt lat="59.2980381774" lon="34.6691741362"><ele>157.558</ele><time>2026-08-16T15:41:47.914Z</time><hdop>3.25</hdop><vdop>2.5</vdop><extensions><gom:speed>0.934</gom:speed></extensions></trkpt>
   <trkpt lat="59.2980416978" lon="34.6691804227"><ele>157.52</ele><time>2026-08-16T15:41:48.857Z</time><hdop>3.187</hdop><vdop>2.5</vdop><extensions><gom:speed>0.848</gom:speed></extensions></trkpt>
   <trkpt lat="59.2980464755" lon="34.6691804227"><ele>157.67</ele><time>2026-08-16T15:41:49.779Z</time><hdop>3.25</hdop><vdop>2.5</vdop><extensions><gom:speed>0.952</gom:speed></extensions></trkpt>
   <trkpt lat="59.298060599" lon="34.6691787463"><ele>158.419</ele><time>2026-08-16T15:41:51.136Z</time><hdop>3.25</hdop><vdop>2.5</vdop><extensions><gom:speed>0.891</gom:speed></extensions></trkpt>
   <trkpt lat="59.2980645804" lon="34.6691784948"><ele>158.867</ele><time>2026-08-16T15:41:51.723Z</time><hdop>3.312</hdop><vdop>2.5</vdop><extensions><gom:speed>0.788</gom:speed></extensions></trkpt>
   <trkpt lat="59.2980708669" lon="34.6691833563"><ele>159.095</ele><time>2026-08-16T15:41:52.400Z</time><hdop>3.312</hdop><vdop>2.5</vdop><extensions><gom:speed>0.836</gom:speed></extensions></trkpt>
   <trkpt lat="59.2980727947" lon="34.6691902295"><ele>158.901</ele><time>2026-08-16T15:41:53.136Z</time><hdop>3.25</hdop><vdop>2.5</vdop><extensions><gom:speed>0.746</gom:speed></extensions></trkpt>
   <trkpt lat="59.2980709926" lon="34.6691976894"><ele>158.856</ele><time>2026-08-16T15:41:54.136Z</time><hdop>3.312</hdop><vdop>2.5</vdop><extensions><gom:speed>0.538</gom:speed></extensions></trkpt>
   <trkpt lat="59.2980697772" lon="34.6692022994"><ele>158.829</ele><time>2026-08-16T15:41:54.962Z</time><hdop>3.25</hdop><vdop>2.5</vdop><extensions><gom:speed>0.477</gom:speed></extensions></trkpt>
   <trkpt lat="59.2980659635" lon="34.6692102622"><ele>158.671</ele><time>2026-08-16T15:41:55.944Z</time><hdop>3.25</hdop><vdop>2.5</vdop><extensions><gom:speed>0.515</gom:speed></extensions></trkpt>
   <trkpt lat="59.2980601799" lon="34.6692181412"><ele>158.669</ele><time>2026-08-16T15:41:56.680Z</time><hdop>3.187</hdop><vdop>2.5</vdop><extensions><gom:speed>0.536</gom:speed></extensions></trkpt>
   <trkpt lat="59.2980565757" lon="34.6692230865"><ele>158.585</ele><time>2026-08-16T15:41:57.136Z</time><hdop>3.187</hdop><vdop>2.5</vdop><extensions><gom:speed>0.574</gom:speed></extensions></trkpt>
   <trkpt lat="59.2980515885" lon="34.6692323905"><ele>158.535</ele><time>2026-08-16T15:41:58.094Z</time><hdop>3.25</hdop><vdop>2.5</vdop><extensions><gom:speed>0.596</gom:speed></extensions></trkpt>
   <trkpt lat="59.2980440867" lon="34.6692386769"><ele>158.208</ele><time>2026-08-16T15:41:58.801Z</time><hdop>3.25</hdop><vdop>2.5</vdop><extensions><gom:speed>0.586</gom:speed></extensions></trkpt>
   <trkpt lat="59.2980389737" lon="34.6692472264"><ele>157.947</ele><time>2026-08-16T15:41:59.577Z</time><hdop>3.25</hdop><vdop>2.5</vdop><extensions><gom:speed>0.619</gom:speed></extensions></trkpt>
   <trkpt lat="59.2980368782" lon="34.6692507468"><ele>157.616</ele><time>2026-08-16T15:42:00.136Z</time><hdop>3.25</hdop><vdop>2.5</vdop><extensions><gom:speed>0.584</gom:speed></extensions></trkpt>
   <trkpt lat="59.2980350761" lon="34.6692547701"><ele>157.443</ele><time>2026-08-16T15:42:01.136Z</time><hdop>3.25</hdop><vdop>2.5</vdop><extensions><gom:speed>0.543</gom:speed></extensions></trkpt>
   <trkpt lat="59.2980347828" lon="34.6692542672"><ele>157.34</ele><time>2026-08-16T15:42:01.864Z</time><hdop>3.25</hdop><vdop>2.5</vdop><extensions><gom:speed>0.478</gom:speed></extensions></trkpt>
   <trkpt lat="59.298034196" lon="34.6692554407"><ele>157.087</ele><time>2026-08-16T15:42:02.334Z</time><hdop>3.187</hdop><vdop>2.5</vdop><extensions><gom:speed>0.449</gom:speed></extensions></trkpt>
   <trkpt lat="59.298034699" lon="34.6692562789"><ele>156.936</ele><time>2026-08-16T15:42:03.061Z</time><hdop>3.25</hdop><vdop>2.5</vdop><extensions><gom:speed>0.407</gom:speed></extensions></trkpt>
   <trkpt lat="59.2980398957" lon="34.6692593802"><ele>156.603</ele><time>2026-08-16T15:42:04.136Z</time><hdop>3.125</hdop><vdop>2.5</vdop><extensions><gom:speed>0.4</gom:speed></extensions></trkpt>
   <trkpt lat="59.2980444639" lon="34.6692553569"><ele>156.21</ele><time>2026-08-16T15:42:05.136Z</time><hdop>3.125</hdop><vdop>2.5</vdop><extensions><gom:speed>0.465</gom:speed></extensions></trkpt>
   <trkpt lat="59.2980474814" lon="34.6692519203"><ele>155.975</ele><time>2026-08-16T15:42:05.917Z</time><hdop>3.187</hdop><vdop>2.5</vdop><extensions><gom:speed>0.52</gom:speed></extensions></trkpt>
   <trkpt lat="59.2980516723" lon="34.6692511659"><ele>155.989</ele><time>2026-08-16T15:42:06.976Z</time><hdop>3.187</hdop><vdop>2.5</vdop><extensions><gom:speed>0.401</gom:speed></extensions></trkpt>
   <trkpt lat="59.2980548993" lon="34.669255776"><ele>155.744</ele><time>2026-08-16T15:42:08.136Z</time><hdop>3.125</hdop><vdop>2.5</vdop><extensions><gom:speed>0.325</gom:speed></extensions></trkpt>
   <trkpt lat="59.2980564919" lon="34.6692569494"><ele>155.598</ele><time>2026-08-16T15:42:08.676Z</time><hdop>3.125</hdop><vdop>2.5</vdop><extensions><gom:speed>0.384</gom:speed></extensions></trkpt>
   <trkpt lat="59.2980571625" lon="34.6692578714"><ele>155.421</ele><time>2026-08-16T15:42:09.136Z</time><hdop>3.125</hdop><vdop>2.5</vdop><extensions><gom:speed>0.38</gom:speed></extensions></trkpt>
   <trkpt lat="59.298058294" lon="34.6692571171"><ele>155.336</ele><time>2026-08-16T15:42:10.136Z</time><hdop>3.125</hdop><vdop>2.5</vdop><extensions><gom:speed>0.286</gom:speed></extensions></trkpt>
   <trkpt lat="59.2980579587" lon="34.6692560274"><ele>155.276</ele><time>2026-08-16T15:42:11.136Z</time><hdop>3.0</hdop><vdop>2.5</vdop><extensions><gom:speed>0.189</gom:speed></extensions></trkpt>
   <trkpt lat="59.2980574977" lon="34.6692556922"><ele>155.136</ele><time>2026-08-16T15:42:12.135Z</time><hdop>3.0</hdop><vdop>2.5</vdop><extensions><gom:speed>0.123</gom:speed></extensions></trkpt>
   <trkpt lat="59.2980575816" lon="34.6692542672"><ele>154.974</ele><time>2026-08-16T15:42:13.136Z</time><hdop>3.0</hdop><vdop>2.5</vdop><extensions><gom:speed>0.125</gom:speed></extensions></trkpt>
   <trkpt lat="59.2980578749" lon="34.6692535967"><ele>154.935</ele><time>2026-08-16T15:42:14.136Z</time><hdop>3.0</hdop><vdop>2.5</vdop><extensions><gom:speed>0.147</gom:speed></extensions></trkpt>
   <trkpt lat="59.298058294" lon="34.6692535967"><ele>154.912</ele><time>2026-08-16T15:42:14.635Z</time><hdop>3.0</hdop><vdop>2.5</vdop><extensions><gom:speed>0.143</gom:speed></extensions></trkpt>
   <trkpt lat="59.2980589646" lon="34.669253429"><ele>154.951</ele><time>2026-08-16T15:42:15.135Z</time><hdop>3.0</hdop><vdop>2.5</vdop><extensions><gom:speed>0.135</gom:speed></extensions></trkpt>
   <trkpt lat="59.2980595932" lon="34.6692542672"><ele>154.96</ele><time>2026-08-16T15:42:16.136Z</time><hdop>3.0</hdop><vdop>2.5</vdop><extensions><gom:speed>0.112</gom:speed></extensions></trkpt>
   <trkpt lat="59.2980593837" lon="34.6692537643"><ele>154.997</ele><time>2026-08-16T15:42:17.136Z</time><hdop>3.0</hdop><vdop>2.5</vdop><extensions><gom:speed>0.109</gom:speed></extensions></trkpt>
   <trkpt lat="59.2980599704" lon="34.6692541834"><ele>155.013</ele><time>2026-08-16T15:42:18.136Z</time><hdop>3.0</hdop><vdop>2.5</vdop><extensions><gom:speed>0.112</gom:speed></extensions></trkpt>
   <trkpt lat="59.2980603895" lon="34.6692547701"><ele>155.079</ele><time>2026-08-16T15:42:19.136Z</time><hdop>3.0</hdop><vdop>2.5</vdop><extensions><gom:speed>0.128</gom:speed></extensions></trkpt>
   <trkpt lat="59.2980604733" lon="34.6692547701"><ele>155.118</ele><time>2026-08-16T15:42:19.837Z</time><hdop>3.0</hdop><vdop>2.5</vdop><extensions><gom:speed>0.099</gom:speed></extensions></trkpt>
   <trkpt lat="59.2980617725" lon="34.6692563627"><ele>155.178</ele><time>2026-08-16T15:42:21.142Z</time><hdop>3.0</hdop><vdop>2.5</vdop><extensions><gom:speed>0.136</gom:speed></extensions></trkpt>
   <trkpt lat="59.2980631974" lon="34.6692569494"><ele>155.145</ele><time>2026-08-16T15:42:21.643Z</time><hdop>3.0</hdop><vdop>2.5</vdop><extensions><gom:speed>0.148</gom:speed></extensions></trkpt>
   <trkpt lat="59.2980654605" lon="34.6692567818"><ele>155.316</ele><time>2026-08-16T15:42:22.136Z</time><hdop>3.0</hdop><vdop>2.5</vdop><extensions><gom:speed>0.224</gom:speed></extensions></trkpt>
   <trkpt lat="59.2980687714" lon="34.6692556922"><ele>155.335</ele><time>2026-08-16T15:42:23.136Z</time><hdop>3.0</hdop><vdop>2.5</vdop><extensions><gom:speed>0.309</gom:speed></extensions></trkpt>
   <trkpt lat="59.2980709926" lon="34.6692581229"><ele>155.451</ele><time>2026-08-16T15:42:24.136Z</time><hdop>3.0</hdop><vdop>2.5</vdop><extensions><gom:speed>0.318</gom:speed></extensions></trkpt>
   <trkpt lat="59.2980741777" lon="34.6692616433"><ele>155.601</ele><time>2026-08-16T15:42:25.136Z</time><hdop>3.0</hdop><vdop>2.5</vdop><extensions><gom:speed>0.263</gom:speed></extensions></trkpt>
   <trkpt lat="59.2980747645" lon="34.66926223"><ele>155.691</ele><time>2026-08-16T15:42:25.658Z</time><hdop>3.0</hdop><vdop>2.5</vdop><extensions><gom:speed>0.257</gom:speed></extensions></trkpt>
   <trkpt lat="59.2980766923" lon="34.6692648284"><ele>155.718</ele><time>2026-08-16T15:42:26.136Z</time><hdop>3.0</hdop><vdop>2.5</vdop><extensions><gom:speed>0.256</gom:speed></extensions></trkpt>
   <trkpt lat="59.2980780753" lon="34.6692669239"><ele>155.734</ele><time>2026-08-16T15:42:27.042Z</time><hdop>3.0</hdop><vdop>2.5</vdop><extensions><gom:speed>0.243</gom:speed></extensions></trkpt>
   <trkpt lat="59.2980792907" lon="34.669271953"><ele>155.758</ele><time>2026-08-16T15:42:27.601Z</time><hdop>3.0</hdop><vdop>2.5</vdop><extensions><gom:speed>0.25</gom:speed></extensions></trkpt>
   <trkpt lat="59.2980798774" lon="34.6692762278"><ele>155.756</ele><time>2026-08-16T15:42:28.136Z</time><hdop>3.0</hdop><vdop>2.5</vdop><extensions><gom:speed>0.206</gom:speed></extensions></trkpt>
   <trkpt lat="59.2980798774" lon="34.6692811731"><ele>155.617</ele><time>2026-08-16T15:42:29.136Z</time><hdop>3.0</hdop><vdop>2.5</vdop><extensions><gom:speed>0.184</gom:speed></extensions></trkpt>
   <trkpt lat="59.2980790811" lon="34.6692818437"><ele>155.534</ele><time>2026-08-16T15:42:29.819Z</time><hdop>3.0</hdop><vdop>2.5</vdop><extensions><gom:speed>0.219</gom:speed></extensions></trkpt>
   <trkpt lat="59.2980782849" lon="34.6692876272"><ele>155.142</ele><time>2026-08-16T15:42:31.136Z</time><hdop>3.0</hdop><vdop>2.5</vdop><extensions><gom:speed>0.205</gom:speed></extensions></trkpt>
   <trkpt lat="59.2980773628" lon="34.6692903932"><ele>154.676</ele><time>2026-08-16T15:42:32.135Z</time><hdop>3.0</hdop><vdop>2.5</vdop><extensions><gom:speed>0.258</gom:speed></extensions></trkpt>
   <trkpt lat="59.2980763989" lon="34.6692959253"><ele>154.382</ele><time>2026-08-16T15:42:33.136Z</time><hdop>3.0</hdop><vdop>2.5</vdop><extensions><gom:speed>0.232</gom:speed></extensions></trkpt>
   <trkpt lat="59.298075896" lon="34.6692981884"><ele>154.207</ele><time>2026-08-16T15:42:33.922Z</time><hdop>3.0</hdop><vdop>2.5</vdop><extensions><gom:speed>0.216</gom:speed></extensions></trkpt>
   <trkpt lat="59.2980756865" lon="34.6693027984"><ele>154.106</ele><time>2026-08-16T15:42:34.619Z</time><hdop>3.0</hdop><vdop>2.5</vdop><extensions><gom:speed>0.134</gom:speed></extensions></trkpt>
   <trkpt lat="59.2980755607" lon="34.669307157"><ele>154.228</ele><time>2026-08-16T15:42:35.136Z</time><hdop>3.0</hdop><vdop>2.5</vdop><extensions><gom:speed>0.165</gom:speed></extensions></trkpt>
   <trkpt lat="59.2980757703" lon="34.6693152875"><ele>154.406</ele><time>2026-08-16T15:42:36.136Z</time><hdop>3.0</hdop><vdop>2.5</vdop><extensions><gom:speed>0.217</gom:speed></extensions></trkpt>
   <trkpt lat="59.2980763989" lon="34.6693185564"><ele>154.512</ele><time>2026-08-16T15:42:36.955Z</time><hdop>3.0</hdop><vdop>2.5</vdop><extensions><gom:speed>0.23</gom:speed></extensions></trkpt>
   <trkpt lat="59.2980770695" lon="34.6693266869"><ele>154.675</ele><time>2026-08-16T15:42:37.701Z</time><hdop>3.0</hdop><vdop>2.5</vdop><extensions><gom:speed>0.262</gom:speed></extensions></trkpt>
   <trkpt lat="59.298075896" lon="34.6693379186"><ele>154.693</ele><time>2026-08-16T15:42:39.136Z</time><hdop>3.0</hdop><vdop>2.5</vdop><extensions><gom:speed>0.185</gom:speed></extensions></trkpt>
   <trkpt lat="59.2980755607" lon="34.6693389245"><ele>154.703</ele><time>2026-08-16T15:42:39.763Z</time><hdop>3.0</hdop><vdop>2.5</vdop><extensions><gom:speed>0.17</gom:speed></extensions></trkpt>
   <trkpt lat="59.2980739682" lon="34.6693447918"><ele>154.778</ele><time>2026-08-16T15:42:40.734Z</time><hdop>3.0</hdop><vdop>2.5</vdop><extensions><gom:speed>0.195</gom:speed></extensions></trkpt>
   <trkpt lat="59.2980744711" lon="34.6693543472"><ele>154.844</ele><time>2026-08-16T15:42:42.040Z</time><hdop>3.0</hdop><vdop>2.5</vdop><extensions><gom:speed>0.251</gom:speed></extensions></trkpt>
   <trkpt lat="59.2980756865" lon="34.6693615556"><ele>154.903</ele><time>2026-08-16T15:42:42.874Z</time><hdop>3.0</hdop><vdop>2.5</vdop><extensions><gom:speed>0.229</gom:speed></extensions></trkpt>
   <trkpt lat="59.2980764827" lon="34.6693708595"><ele>155.064</ele><time>2026-08-16T15:42:43.954Z</time><hdop>3.0</hdop><vdop>2.5</vdop><extensions><gom:speed>0.218</gom:speed></extensions></trkpt>
   <trkpt lat="59.2980782849" lon="34.6693823427"><ele>155.198</ele><time>2026-08-16T15:42:44.999Z</time><hdop>3.0</hdop><vdop>2.5</vdop><extensions><gom:speed>0.268</gom:speed></extensions></trkpt>
   <trkpt lat="59.2980806737" lon="34.6693860307"><ele>155.151</ele><time>2026-08-16T15:42:45.954Z</time><hdop>3.0</hdop><vdop>2.5</vdop><extensions><gom:speed>0.186</gom:speed></extensions></trkpt>
   <trkpt lat="59.298082392" lon="34.6693901379"><ele>155.149</ele><time>2026-08-16T15:42:46.916Z</time><hdop>3.0</hdop><vdop>2.5</vdop><extensions><gom:speed>0.144</gom:speed></extensions></trkpt>
   <trkpt lat="59.298083775" lon="34.6693946641"><ele>155.161</ele><time>2026-08-16T15:42:48.135Z</time><hdop>3.0</hdop><vdop>2.5</vdop><extensions><gom:speed>0.109</gom:speed></extensions></trkpt>
   <trkpt lat="59.2980848646" lon="34.6693969272"><ele>155.225</ele><time>2026-08-16T15:42:49.136Z</time><hdop>3.0</hdop><vdop>2.5</vdop><extensions><gom:speed>0.111</gom:speed></extensions></trkpt>
   <trkpt lat="59.2980856609" lon="34.6693971787"><ele>155.263</ele><time>2026-08-16T15:42:49.998Z</time><hdop>3.0</hdop><vdop>2.5</vdop><extensions><gom:speed>0.101</gom:speed></extensions></trkpt>
   <trkpt lat="59.2980863734" lon="34.669397933"><ele>155.254</ele><time>2026-08-16T15:42:51.018Z</time><hdop>3.0</hdop><vdop>2.5</vdop><extensions><gom:speed>0.104</gom:speed></extensions></trkpt>
   <trkpt lat="59.2980868763" lon="34.6693995256"><ele>155.249</ele><time>2026-08-16T15:42:51.981Z</time><hdop>3.0</hdop><vdop>2.5</vdop><extensions><gom:speed>0.137</gom:speed></extensions></trkpt>
   <trkpt lat="59.2980901872" lon="34.669398436"><ele>155.173</ele><time>2026-08-16T15:42:53.136Z</time><hdop>3.0</hdop><vdop>2.5</vdop><extensions><gom:speed>0.21</gom:speed></extensions></trkpt>
   <trkpt lat="59.2980919893" lon="34.6693965919"><ele>155.128</ele><time>2026-08-16T15:42:54.062Z</time><hdop>3.0</hdop><vdop>2.5</vdop><extensions><gom:speed>0.235</gom:speed></extensions></trkpt>
   <trkpt lat="59.2980950906" lon="34.6693943288"><ele>155.07</ele><time>2026-08-16T15:42:54.739Z</time><hdop>3.0</hdop><vdop>2.5</vdop><extensions><gom:speed>0.277</gom:speed></extensions></trkpt>
   <trkpt lat="59.2980991977" lon="34.669393323"><ele>154.997</ele><time>2026-08-16T15:42:56.015Z</time><hdop>3.0</hdop><vdop>2.5</vdop><extensions><gom:speed>0.292</gom:speed></extensions></trkpt>
   <trkpt lat="59.2981007903" lon="34.6693935745"><ele>154.868</ele><time>2026-08-16T15:42:56.634Z</time><hdop>3.0</hdop><vdop>2.5</vdop><extensions><gom:speed>0.241</gom:speed></extensions></trkpt>
   <trkpt lat="59.2981024666" lon="34.6693949994"><ele>154.767</ele><time>2026-08-16T15:42:57.136Z</time><hdop>3.0</hdop><vdop>2.5</vdop><extensions><gom:speed>0.334</gom:speed></extensions></trkpt>
   <trkpt lat="59.2981070767" lon="34.6693962567"><ele>154.345</ele><time>2026-08-16T15:42:58.136Z</time><hdop>3.0</hdop><vdop>2.5</vdop><extensions><gom:speed>0.42</gom:speed></extensions></trkpt>
   <trkpt lat="59.2981123992" lon="34.6693927363"><ele>153.829</ele><time>2026-08-16T15:42:59.136Z</time><hdop>3.0</hdop><vdop>2.5</vdop><extensions><gom:speed>0.464</gom:speed></extensions></trkpt>
   <trkpt lat="59.2981139918" lon="34.6693904732"><ele>153.52</ele><time>2026-08-16T15:42:59.657Z</time><hdop>3.0</hdop><vdop>2.5</vdop><extensions><gom:speed>0.412</gom:speed></extensions></trkpt>
   <trkpt lat="59.2981160872" lon="34.6693932392"><ele>153.398</ele><time>2026-08-16T15:43:00.136Z</time><hdop>3.0</hdop><vdop>2.5</vdop><extensions><gom:speed>0.363</gom:speed></extensions></trkpt>
   <trkpt lat="59.2981196915" lon="34.6694003638"><ele>153.242</ele><time>2026-08-16T15:43:01.136Z</time><hdop>3.0</hdop><vdop>2.5</vdop><extensions><gom:speed>0.408</gom:speed></extensions></trkpt>
   <trkpt lat="59.2981249721" lon="34.6694037166"><ele>153.254</ele><time>2026-08-16T15:43:02.136Z</time><hdop>3.0</hdop><vdop>2.5</vdop><extensions><gom:speed>0.396</gom:speed></extensions></trkpt>
   <trkpt lat="59.2981275704" lon="34.6694049738"><ele>153.261</ele><time>2026-08-16T15:43:03.054Z</time><hdop>3.0</hdop><vdop>2.5</vdop><extensions><gom:speed>0.337</gom:speed></extensions></trkpt>
   <trkpt lat="59.2981309651" lon="34.6694163732"><ele>153.271</ele><time>2026-08-16T15:43:04.136Z</time><hdop>3.0</hdop><vdop>2.5</vdop><extensions><gom:speed>0.351</gom:speed></extensions></trkpt>
   <trkpt lat="59.2981320967" lon="34.6694209833"><ele>153.276</ele><time>2026-08-16T15:43:04.743Z</time><hdop>3.0</hdop><vdop>2.5</vdop><extensions><gom:speed>0.388</gom:speed></extensions></trkpt>
   <trkpt lat="59.2981385926" lon="34.6694378309"><ele>153.102</ele><time>2026-08-16T15:43:05.734Z</time><hdop>3.0</hdop><vdop>2.5</vdop><extensions><gom:speed>0.609</gom:speed></extensions></trkpt>
   <trkpt lat="59.2981462621" lon="34.6694561873"><ele>153.128</ele><time>2026-08-16T15:43:07.136Z</time><hdop>3.0</hdop><vdop>2.5</vdop><extensions><gom:speed>0.613</gom:speed></extensions></trkpt>
   <trkpt lat="59.2981524647" lon="34.6694665808"><ele>153.336</ele><time>2026-08-16T15:43:08.136Z</time><hdop>3.0</hdop><vdop>2.5</vdop><extensions><gom:speed>0.566</gom:speed></extensions></trkpt>
   <trkpt lat="59.2981571586" lon="34.669475298"><ele>153.459</ele><time>2026-08-16T15:43:09.121Z</time><hdop>3.0</hdop><vdop>2.5</vdop><extensions><gom:speed>0.619</gom:speed></extensions></trkpt>
   <trkpt lat="59.2981682646" lon="34.6694913913"><ele>153.434</ele><time>2026-08-16T15:43:10.136Z</time><hdop>3.0</hdop><vdop>2.5</vdop><extensions><gom:speed>0.8</gom:speed></extensions></trkpt>
   <trkpt lat="59.2981719945" lon="34.6695024554"><ele>153.419</ele><time>2026-08-16T15:43:10.976Z</time><hdop>3.0</hdop><vdop>2.5</vdop><extensions><gom:speed>0.776</gom:speed></extensions></trkpt>
   <trkpt lat="59.2981722879" lon="34.6695107535"><ele>153.072</ele><time>2026-08-16T15:43:11.702Z</time><hdop>3.0</hdop><vdop>2.5</vdop><extensions><gom:speed>0.674</gom:speed></extensions></trkpt>
   <trkpt lat="59.2981744672" lon="34.6695276849"><ele>153.431</ele><time>2026-08-16T15:43:13.136Z</time><hdop>3.0</hdop><vdop>2.5</vdop><extensions><gom:speed>0.758</gom:speed></extensions></trkpt>
   <trkpt lat="59.2981739643" lon="34.6695372403"><ele>153.596</ele><time>2026-08-16T15:43:14.136Z</time><hdop>3.0</hdop><vdop>2.5</vdop><extensions><gom:speed>0.573</gom:speed></extensions></trkpt>
   <trkpt lat="59.2981750958" lon="34.6695428562"><ele>153.694</ele><time>2026-08-16T15:43:14.942Z</time><hdop>3.0</hdop><vdop>2.5</vdop><extensions><gom:speed>0.49</gom:speed></extensions></trkpt>
   <trkpt lat="59.2981748863" lon="34.6695443649"><ele>153.705</ele><time>2026-08-16T15:43:15.442Z</time><hdop>3.0</hdop><vdop>2.5</vdop><extensions><gom:speed>0.419</gom:speed></extensions></trkpt>
   <trkpt lat="59.2981749701" lon="34.6695455384"><ele>153.734</ele><time>2026-08-16T15:43:16.136Z</time><hdop>3.0</hdop><vdop>2.5</vdop><extensions><gom:speed>0.292</gom:speed></extensions></trkpt>
   <trkpt lat="59.2981751797" lon="34.6695444487"><ele>153.748</ele><time>2026-08-16T15:43:17.135Z</time><hdop>3.0</hdop><vdop>2.5</vdop><extensions><gom:speed>0.18</gom:speed></extensions></trkpt>
   <trkpt lat="59.2981748863" lon="34.6695437782"><ele>153.753</ele><time>2026-08-16T15:43:18.136Z</time><hdop>3.0</hdop><vdop>2.5</vdop><extensions><gom:speed>0.12</gom:speed></extensions></trkpt>
   <trkpt lat="59.2981745929" lon="34.6695443649"><ele>153.755</ele><time>2026-08-16T15:43:18.956Z</time><hdop>3.0</hdop><vdop>2.5</vdop><extensions><gom:speed>0.109</gom:speed></extensions></trkpt>
   <trkpt lat="59.2981739643" lon="34.6695446164"><ele>153.724</ele><time>2026-08-16T15:43:20.136Z</time><hdop>3.0</hdop><vdop>2.5</vdop><extensions><gom:speed>0.1</gom:speed></extensions></trkpt>
   <trkpt lat="59.2981736709" lon="34.6695445325"><ele>153.701</ele><time>2026-08-16T15:43:21.136Z</time><hdop>3.0</hdop><vdop>2.5</vdop><extensions><gom:speed>0.103</gom:speed></extensions></trkpt>
   <trkpt lat="59.2981739643" lon="34.6695442811"><ele>153.687</ele><time>2026-08-16T15:43:21.660Z</time><hdop>3.0</hdop><vdop>2.5</vdop><extensions><gom:speed>0.098</gom:speed></extensions></trkpt>
   <trkpt lat="59.29817409" lon="34.6695446164"><ele>153.641</ele><time>2026-08-16T15:43:22.136Z</time><hdop>3.0</hdop><vdop>2.5</vdop><extensions><gom:speed>0.13</gom:speed></extensions></trkpt>
   <trkpt lat="59.2981741738" lon="34.6695469633"><ele>153.733</ele><time>2026-08-16T15:43:23.136Z</time><hdop>3.0</hdop><vdop>2.5</vdop><extensions><gom:speed>0.13</gom:speed></extensions></trkpt>
   <trkpt lat="59.2981750958" lon="34.6695491426"><ele>153.799</ele><time>2026-08-16T15:43:24.136Z</time><hdop>3.0</hdop><vdop>2.5</vdop><extensions><gom:speed>0.147</gom:speed></extensions></trkpt>
   <trkpt lat="59.2981752635" lon="34.6695499808"><ele>153.838</ele><time>2026-08-16T15:43:24.762Z</time><hdop>3.0</hdop><vdop>2.5</vdop><extensions><gom:speed>0.119</gom:speed></extensions></trkpt>
   <trkpt lat="59.2981752635" lon="34.6695506513"><ele>153.678</ele><time>2026-08-16T15:43:25.645Z</time><hdop>3.0</hdop><vdop>2.5</vdop><extensions><gom:speed>0.101</gom:speed></extensions></trkpt>
   <trkpt lat="59.2981750958" lon="34.6695512381"><ele>153.648</ele><time>2026-08-16T15:43:26.136Z</time><hdop>3.0</hdop><vdop>2.5</vdop><extensions><gom:speed>0.131</gom:speed></extensions></trkpt>
   <trkpt lat="59.2981749701" lon="34.6695527468"><ele>153.743</ele><time>2026-08-16T15:43:27.136Z</time><hdop>3.0</hdop><vdop>2.5</vdop><extensions><gom:speed>0.128</gom:speed></extensions></trkpt>
   <trkpt lat="59.29817409" lon="34.669553585"><ele>153.814</ele><time>2026-08-16T15:43:28.136Z</time><hdop>3.0</hdop><vdop>2.5</vdop><extensions><gom:speed>0.135</gom:speed></extensions></trkpt>
   <trkpt lat="59.2981742996" lon="34.6695538364"><ele>153.856</ele><time>2026-08-16T15:43:28.783Z</time><hdop>3.0</hdop><vdop>2.5</vdop><extensions><gom:speed>0.171</gom:speed></extensions></trkpt>
   <trkpt lat="59.2981725813" lon="34.6695534174"><ele>153.85</ele><time>2026-08-16T15:43:29.284Z</time><hdop>3.0</hdop><vdop>2.5</vdop><extensions><gom:speed>0.163</gom:speed></extensions></trkpt>
   <trkpt lat="59.2981729584" lon="34.6695538364"><ele>153.846</ele><time>2026-08-16T15:43:30.079Z</time><hdop>3.0</hdop><vdop>2.5</vdop><extensions><gom:speed>0.152</gom:speed></extensions></trkpt>
   <trkpt lat="59.2981700667" lon="34.6695552614"><ele>153.922</ele><time>2026-08-16T15:43:31.136Z</time><hdop>3.0</hdop><vdop>2.5</vdop><extensions><gom:speed>0.114</gom:speed></extensions></trkpt>
   <trkpt lat="59.2981677617" lon="34.6695560996"><ele>154.0</ele><time>2026-08-16T15:43:32.136Z</time><hdop>3.0</hdop><vdop>2.5</vdop><extensions><gom:speed>0.125</gom:speed></extensions></trkpt>
   <trkpt lat="59.2981661691" lon="34.6695565187"><ele>154.053</ele><time>2026-08-16T15:43:33.136Z</time><hdop>3.0</hdop><vdop>2.5</vdop><extensions><gom:speed>0.131</gom:speed></extensions></trkpt>
   <trkpt lat="59.2981651633" lon="34.6695555966"><ele>154.144</ele><time>2026-08-16T15:43:34.136Z</time><hdop>3.0</hdop><vdop>2.5</vdop><extensions><gom:speed>0.136</gom:speed></extensions></trkpt>
   <trkpt lat="59.2981644927" lon="34.6695558481"><ele>154.209</ele><time>2026-08-16T15:43:35.136Z</time><hdop>3.0</hdop><vdop>2.5</vdop><extensions><gom:speed>0.109</gom:speed></extensions></trkpt>
   <trkpt lat="59.2981640736" lon="34.6695559319"><ele>154.251</ele><time>2026-08-16T15:43:36.136Z</time><hdop>3.0</hdop><vdop>2.5</vdop><extensions><gom:speed>0.099</gom:speed></extensions></trkpt>
   <trkpt lat="59.2981638641" lon="34.6695560996"><ele>154.277</ele><time>2026-08-16T15:43:37.146Z</time><hdop>3.0</hdop><vdop>2.5</vdop><extensions><gom:speed>0.103</gom:speed></extensions></trkpt>
   <trkpt lat="59.2981627744" lon="34.6695561834"><ele>154.393</ele><time>2026-08-16T15:43:38.136Z</time><hdop>3.0</hdop><vdop>2.5</vdop><extensions><gom:speed>0.146</gom:speed></extensions></trkpt>
   <trkpt lat="59.2981623972" lon="34.6695574407"><ele>154.55</ele><time>2026-08-16T15:43:39.136Z</time><hdop>3.0</hdop><vdop>2.5</vdop><extensions><gom:speed>0.111</gom:speed></extensions></trkpt>
   <trkpt lat="59.2981622715" lon="34.6695569378"><ele>154.644</ele><time>2026-08-16T15:43:39.865Z</time><hdop>3.0</hdop><vdop>2.5</vdop><extensions><gom:speed>0.138</gom:speed></extensions></trkpt>
   <trkpt lat="59.2981615591" lon="34.6695593685"><ele>154.823</ele><time>2026-08-16T15:43:41.136Z</time><hdop>3.0</hdop><vdop>2.5</vdop><extensions><gom:speed>0.121</gom:speed></extensions></trkpt>
   <trkpt lat="59.2981608885" lon="34.6695637271"><ele>154.928</ele><time>2026-08-16T15:43:42.136Z</time><hdop>3.0</hdop><vdop>2.5</vdop><extensions><gom:speed>0.121</gom:speed></extensions></trkpt>
   <trkpt lat="59.2981605951" lon="34.669565152"><ele>154.991</ele><time>2026-08-16T15:43:42.938Z</time><hdop>3.0</hdop><vdop>2.5</vdop><extensions><gom:speed>0.117</gom:speed></extensions></trkpt>
   <trkpt lat="59.2981589607" lon="34.6695716899"><ele>154.828</ele><time>2026-08-16T15:43:44.136Z</time><hdop>3.0</hdop><vdop>2.5</vdop><extensions><gom:speed>0.185</gom:speed></extensions></trkpt>
   <trkpt lat="59.2981585835" lon="34.6695735339"><ele>154.787</ele><time>2026-08-16T15:43:45.135Z</time><hdop>3.0</hdop><vdop>2.5</vdop><extensions><gom:speed>0.192</gom:speed></extensions></trkpt>
   <trkpt lat="59.298155566" lon="34.6695787307"><ele>154.839</ele><time>2026-08-16T15:43:46.136Z</time><hdop>3.0</hdop><vdop>2.5</vdop><extensions><gom:speed>0.184</gom:speed></extensions></trkpt>
   <trkpt lat="59.2981542668" lon="34.6695797365"><ele>154.913</ele><time>2026-08-16T15:43:47.139Z</time><hdop>3.0</hdop><vdop>2.5</vdop><extensions><gom:speed>0.173</gom:speed></extensions></trkpt>
   <trkpt lat="59.2981527581" lon="34.6695800718"><ele>154.958</ele><time>2026-08-16T15:43:47.767Z</time><hdop>3.0</hdop><vdop>2.5</vdop><extensions><gom:speed>0.18</gom:speed></extensions></trkpt>
   <trkpt lat="59.2981514589" lon="34.6695801556"><ele>154.859</ele><time>2026-08-16T15:43:48.238Z</time><hdop>3.0</hdop><vdop>2.5</vdop><extensions><gom:speed>0.168</gom:speed></extensions></trkpt>
   <trkpt lat="59.2981508721" lon="34.6695815805"><ele>154.819</ele><time>2026-08-16T15:43:49.135Z</time><hdop>3.0</hdop><vdop>2.5</vdop><extensions><gom:speed>0.131</gom:speed></extensions></trkpt>
   <trkpt lat="59.2981507883" lon="34.6695821673"><ele>154.794</ele><time>2026-08-16T15:43:50.084Z</time><hdop>3.0</hdop><vdop>2.5</vdop><extensions><gom:speed>0.152</gom:speed></extensions></trkpt>
   <trkpt lat="59.2981508721" lon="34.6695825864"><ele>154.816</ele><time>2026-08-16T15:43:51.136Z</time><hdop>3.0</hdop><vdop>2.5</vdop><extensions><gom:speed>0.098</gom:speed></extensions></trkpt>
   <trkpt lat="59.2981505788" lon="34.6695835922"><ele>154.77</ele><time>2026-08-16T15:43:52.136Z</time><hdop>3.0</hdop><vdop>2.5</vdop><extensions><gom:speed>0.122</gom:speed></extensions></trkpt>
   <trkpt lat="59.2981506626" lon="34.6695850171"><ele>154.808</ele><time>2026-08-16T15:43:53.136Z</time><hdop>3.0</hdop><vdop>2.5</vdop><extensions><gom:speed>0.162</gom:speed></extensions></trkpt>
   <trkpt lat="59.2981506626" lon="34.6695863582"><ele>154.83</ele><time>2026-08-16T15:43:53.981Z</time><hdop>3.0</hdop><vdop>2.5</vdop><extensions><gom:speed>0.201</gom:speed></extensions></trkpt>
   <trkpt lat="59.2981503692" lon="34.6695973385"><ele>154.882</ele><time>2026-08-16T15:43:55.135Z</time><hdop>3.062</hdop><vdop>2.5</vdop><extensions><gom:speed>0.199</gom:speed></extensions></trkpt>
   <trkpt lat="59.2981502854" lon="34.6695938181"><ele>154.846</ele><time>2026-08-16T15:43:56.136Z</time><hdop>3.062</hdop><vdop>2.5</vdop><extensions><gom:speed>0.191</gom:speed></extensions></trkpt>
   <trkpt lat="59.2981507883" lon="34.6695927285"><ele>154.824</ele><time>2026-08-16T15:43:57.102Z</time><hdop>3.062</hdop><vdop>2.5</vdop><extensions><gom:speed>0.23</gom:speed></extensions></trkpt>
   <trkpt lat="59.2981506626" lon="34.6695971709"><ele>154.681</ele><time>2026-08-16T15:43:57.838Z</time><hdop>3.062</hdop><vdop>2.5</vdop><extensions><gom:speed>0.307</gom:speed></extensions></trkpt>
   <trkpt lat="59.298149992" lon="34.6696067263"><ele>154.583</ele><time>2026-08-16T15:43:59.136Z</time><hdop>3.062</hdop><vdop>2.5</vdop><extensions><gom:speed>0.148</gom:speed></extensions></trkpt>
   <trkpt lat="59.2981500759" lon="34.6696096599"><ele>154.483</ele><time>2026-08-16T15:44:00.136Z</time><hdop>3.0</hdop><vdop>2.5</vdop><extensions><gom:speed>0.091</gom:speed></extensions></trkpt>
   <trkpt lat="59.2981501597" lon="34.6696130965"><ele>154.412</ele><time>2026-08-16T15:44:01.136Z</time><hdop>3.0</hdop><vdop>2.5</vdop><extensions><gom:speed>0.096</gom:speed></extensions></trkpt>
   <trkpt lat="59.2981498663" lon="34.6696152758"><ele>154.385</ele><time>2026-08-16T15:44:02.135Z</time><hdop>3.0</hdop><vdop>2.5</vdop><extensions><gom:speed>0.109</gom:speed></extensions></trkpt>
   <trkpt lat="59.2981495729" lon="34.6696167845"><ele>154.353</ele><time>2026-08-16T15:44:03.136Z</time><hdop>3.0</hdop><vdop>2.5</vdop><extensions><gom:speed>0.075</gom:speed></extensions></trkpt>
   <trkpt lat="59.2981493634" lon="34.6696184609"><ele>154.459</ele><time>2026-08-16T15:44:04.136Z</time><hdop>3.0</hdop><vdop>2.5</vdop><extensions><gom:speed>0.086</gom:speed></extensions></trkpt>
   <trkpt lat="59.2981494891" lon="34.6696195506"><ele>154.613</ele><time>2026-08-16T15:44:05.136Z</time><hdop>3.0</hdop><vdop>2.5</vdop><extensions><gom:speed>0.121</gom:speed></extensions></trkpt>
   <trkpt lat="59.298149992" lon="34.6696201373"><ele>154.718</ele><time>2026-08-16T15:44:06.136Z</time><hdop>3.0</hdop><vdop>2.5</vdop><extensions><gom:speed>0.108</gom:speed></extensions></trkpt>
   <trkpt lat="59.2981506626" lon="34.6696198858"><ele>154.785</ele><time>2026-08-16T15:44:07.136Z</time><hdop>3.0</hdop><vdop>2.5</vdop><extensions><gom:speed>0.112</gom:speed></extensions></trkpt>
   <trkpt lat="59.2981511655" lon="34.6696199697"><ele>154.82</ele><time>2026-08-16T15:44:08.136Z</time><hdop>3.0</hdop><vdop>2.5</vdop><extensions><gom:speed>0.126</gom:speed></extensions></trkpt>
   <trkpt lat="59.298151375" lon="34.6696201373"><ele>154.854</ele><time>2026-08-16T15:44:09.136Z</time><hdop>3.0</hdop><vdop>2.5</vdop><extensions><gom:speed>0.082</gom:speed></extensions></trkpt>
   <trkpt lat="59.2981515846" lon="34.6696198858"><ele>154.88</ele><time>2026-08-16T15:44:10.136Z</time><hdop>3.0</hdop><vdop>2.5</vdop><extensions><gom:speed>0.077</gom:speed></extensions></trkpt>
   <trkpt lat="59.2981517941" lon="34.669622149"><ele>154.909</ele><time>2026-08-16T15:44:11.136Z</time><hdop>3.0</hdop><vdop>2.5</vdop><extensions><gom:speed>0.089</gom:speed></extensions></trkpt>
   <trkpt lat="59.2981525904" lon="34.6696233224"><ele>154.947</ele><time>2026-08-16T15:44:12.136Z</time><hdop>3.0</hdop><vdop>2.5</vdop><extensions><gom:speed>0.1</gom:speed></extensions></trkpt>
   <trkpt lat="59.2981531772" lon="34.6696241606"><ele>154.983</ele><time>2026-08-16T15:44:13.136Z</time><hdop>3.0</hdop><vdop>2.5</vdop><extensions><gom:speed>0.067</gom:speed></extensions></trkpt>
   <trkpt lat="59.2981535963" lon="34.6696244959"><ele>155.091</ele><time>2026-08-16T15:44:14.136Z</time><hdop>3.0</hdop><vdop>2.5</vdop><extensions><gom:speed>0.104</gom:speed></extensions></trkpt>
   <trkpt lat="59.2981539734" lon="34.6696259208"><ele>155.114</ele><time>2026-08-16T15:44:15.136Z</time><hdop>3.0</hdop><vdop>2.5</vdop><extensions><gom:speed>0.152</gom:speed></extensions></trkpt>
   <trkpt lat="59.2981542668" lon="34.6696268428"><ele>155.128</ele><time>2026-08-16T15:44:15.939Z</time><hdop>3.0</hdop><vdop>2.5</vdop><extensions><gom:speed>0.132</gom:speed></extensions></trkpt>
   <trkpt lat="59.2981561946" lon="34.6696320396"><ele>155.28</ele><time>2026-08-16T15:44:17.136Z</time><hdop>3.0</hdop><vdop>2.5</vdop><extensions><gom:speed>0.182</gom:speed></extensions></trkpt>
   <trkpt lat="59.2981574938" lon="34.6696363982"><ele>155.325</ele><time>2026-08-16T15:44:18.136Z</time><hdop>3.0</hdop><vdop>2.5</vdop><extensions><gom:speed>0.187</gom:speed></extensions></trkpt>
   <trkpt lat="59.2981592959" lon="34.6696420979"><ele>155.302</ele><time>2026-08-16T15:44:19.136Z</time><hdop>3.0</hdop><vdop>2.5</vdop><extensions><gom:speed>0.183</gom:speed></extensions></trkpt>
   <trkpt lat="59.2981600922" lon="34.6696460374"><ele>155.201</ele><time>2026-08-16T15:44:20.136Z</time><hdop>3.0</hdop><vdop>2.5</vdop><extensions><gom:speed>0.164</gom:speed></extensions></trkpt>
   <trkpt lat="59.2981609723" lon="34.6696495578"><ele>155.144</ele><time>2026-08-16T15:44:21.136Z</time><hdop>3.0</hdop><vdop>2.5</vdop><extensions><gom:speed>0.129</gom:speed></extensions></trkpt>
   <trkpt lat="59.2981622715" lon="34.6696533296"><ele>155.002</ele><time>2026-08-16T15:44:22.136Z</time><hdop>3.0</hdop><vdop>2.5</vdop><extensions><gom:speed>0.258</gom:speed></extensions></trkpt>
   <trkpt lat="59.2981631935" lon="34.6696584426"><ele>154.884</ele><time>2026-08-16T15:44:23.136Z</time><hdop>3.0</hdop><vdop>2.5</vdop><extensions><gom:speed>0.101</gom:speed></extensions></trkpt>
   <trkpt lat="59.2981632773" lon="34.6696593646"><ele>154.813</ele><time>2026-08-16T15:44:24.050Z</time><hdop>3.0</hdop><vdop>2.5</vdop><extensions><gom:speed>0.129</gom:speed></extensions></trkpt>
   <trkpt lat="59.2981640736" lon="34.6696657349"><ele>154.643</ele><time>2026-08-16T15:44:25.136Z</time><hdop>3.0</hdop><vdop>2.5</vdop><extensions><gom:speed>0.108</gom:speed></extensions></trkpt>
   <trkpt lat="59.2981641994" lon="34.6696683332"><ele>154.619</ele><time>2026-08-16T15:44:26.136Z</time><hdop>3.0</hdop><vdop>2.5</vdop><extensions><gom:speed>0.109</gom:speed></extensions></trkpt>
   <trkpt lat="59.2981641994" lon="34.6696700934"><ele>154.583</ele><time>2026-08-16T15:44:27.136Z</time><hdop>3.0</hdop><vdop>2.5</vdop><extensions><gom:speed>0.12</gom:speed></extensions></trkpt>
   <trkpt lat="59.2981632773" lon="34.6696710993"><ele>154.314</ele><time>2026-08-16T15:44:28.136Z</time><hdop>3.0</hdop><vdop>2.5</vdop><extensions><gom:speed>0.116</gom:speed></extensions></trkpt>
   <trkpt lat="59.2981621877" lon="34.6696719375"><ele>154.15</ele><time>2026-08-16T15:44:29.136Z</time><hdop>3.0</hdop><vdop>2.5</vdop><extensions><gom:speed>0.105</gom:speed></extensions></trkpt>
   <trkpt lat="59.2981611819" lon="34.6696743682"><ele>154.044</ele><time>2026-08-16T15:44:30.136Z</time><hdop>3.0</hdop><vdop>2.5</vdop><extensions><gom:speed>0.098</gom:speed></extensions></trkpt>
   <trkpt lat="59.2981603856" lon="34.6696755417"><ele>153.995</ele><time>2026-08-16T15:44:31.136Z</time><hdop>3.0</hdop><vdop>2.5</vdop><extensions><gom:speed>0.125</gom:speed></extensions></trkpt>
   <trkpt lat="59.2981602599" lon="34.6696766313"><ele>153.966</ele><time>2026-08-16T15:44:31.668Z</time><hdop>3.0</hdop><vdop>2.5</vdop><extensions><gom:speed>0.117</gom:speed></extensions></trkpt>
   <trkpt lat="59.2981596731" lon="34.6696774695"><ele>153.959</ele><time>2026-08-16T15:44:32.136Z</time><hdop>3.0</hdop><vdop>2.5</vdop><extensions><gom:speed>0.128</gom:speed></extensions></trkpt>
   <trkpt lat="59.2981592959" lon="34.6696781401"><ele>153.956</ele><time>2026-08-16T15:44:32.905Z</time><hdop>3.0</hdop><vdop>2.5</vdop><extensions><gom:speed>0.126</gom:speed></extensions></trkpt>
   <trkpt lat="59.2981576615" lon="34.6696799841"><ele>153.941</ele><time>2026-08-16T15:44:33.779Z</time><hdop>3.0</hdop><vdop>2.5</vdop><extensions><gom:speed>0.126</gom:speed></extensions></trkpt>
   <trkpt lat="59.2981559851" lon="34.6696830854"><ele>153.927</ele><time>2026-08-16T15:44:35.136Z</time><hdop>3.0</hdop><vdop>2.5</vdop><extensions><gom:speed>0.109</gom:speed></extensions></trkpt>
   <trkpt lat="59.2981553984" lon="34.6696836721"><ele>153.91</ele><time>2026-08-16T15:44:36.136Z</time><hdop>3.0</hdop><vdop>2.5</vdop><extensions><gom:speed>0.111</gom:speed></extensions></trkpt>
   <trkpt lat="59.2981543925" lon="34.6696839236"><ele>153.888</ele><time>2026-08-16T15:44:37.135Z</time><hdop>3.0</hdop><vdop>2.5</vdop><extensions><gom:speed>0.099</gom:speed></extensions></trkpt>
   <trkpt lat="59.2981539734" lon="34.6696850971"><ele>153.85</ele><time>2026-08-16T15:44:38.136Z</time><hdop>3.0</hdop><vdop>2.5</vdop><extensions><gom:speed>0.092</gom:speed></extensions></trkpt>
   <trkpt lat="59.2981534705" lon="34.6696849294"><ele>153.788</ele><time>2026-08-16T15:44:39.136Z</time><hdop>3.0</hdop><vdop>2.5</vdop><extensions><gom:speed>0.107</gom:speed></extensions></trkpt>
   <trkpt lat="59.2981525904" lon="34.669684175"><ele>153.74</ele><time>2026-08-16T15:44:40.136Z</time><hdop>3.0</hdop><vdop>2.5</vdop><extensions><gom:speed>0.07</gom:speed></extensions></trkpt>
   <trkpt lat="59.2981525904" lon="34.6696838398"><ele>153.711</ele><time>2026-08-16T15:44:41.002Z</time><hdop>3.0</hdop><vdop>2.5</vdop><extensions><gom:speed>0.079</gom:speed></extensions></trkpt>
   <trkpt lat="59.2981523809" lon="34.6696839236"><ele>153.643</ele><time>2026-08-16T15:44:41.759Z</time><hdop>3.0</hdop><vdop>2.5</vdop><extensions><gom:speed>0.095</gom:speed></extensions></trkpt>
   <trkpt lat="59.2981522971" lon="34.6696837559"><ele>153.76</ele><time>2026-08-16T15:44:42.986Z</time><hdop>3.0</hdop><vdop>2.5</vdop><extensions><gom:speed>0.13</gom:speed></extensions></trkpt>
   <trkpt lat="59.2981519618" lon="34.6696819957"><ele>153.839</ele><time>2026-08-16T15:44:44.136Z</time><hdop>3.0</hdop><vdop>2.5</vdop><extensions><gom:speed>0.085</gom:speed></extensions></trkpt>
   <trkpt lat="59.2981522971" lon="34.6696800679"><ele>153.888</ele><time>2026-08-16T15:44:45.136Z</time><hdop>3.0</hdop><vdop>2.5</vdop><extensions><gom:speed>0.09</gom:speed></extensions></trkpt>
   <trkpt lat="59.2981523809" lon="34.6696788944"><ele>153.94</ele><time>2026-08-16T15:44:46.136Z</time><hdop>3.0</hdop><vdop>2.5</vdop><extensions><gom:speed>0.099</gom:speed></extensions></trkpt>
   <trkpt lat="59.2981519618" lon="34.6696785592"><ele>153.94</ele><time>2026-08-16T15:44:47.136Z</time><hdop>3.0</hdop><vdop>2.5</vdop><extensions><gom:speed>0.107</gom:speed></extensions></trkpt>
   <trkpt lat="59.298151375" lon="34.6696787268"><ele>153.907</ele><time>2026-08-16T15:44:48.136Z</time><hdop>3.0</hdop><vdop>2.5</vdop><extensions><gom:speed>0.116</gom:speed></extensions></trkpt>
   <trkpt lat="59.2981510817" lon="34.6696789783"><ele>153.887</ele><time>2026-08-16T15:44:48.601Z</time><hdop>3.0</hdop><vdop>2.5</vdop><extensions><gom:speed>0.056</gom:speed></extensions></trkpt>
   <trkpt lat="59.2981505788" lon="34.6696787268"><ele>153.864</ele><time>2026-08-16T15:44:49.136Z</time><hdop>3.0</hdop><vdop>2.5</vdop><extensions><gom:speed>0.08</gom:speed></extensions></trkpt>
   <trkpt lat="59.2981500759" lon="34.6696785592"><ele>153.646</ele><time>2026-08-16T15:44:50.136Z</time><hdop>3.0</hdop><vdop>2.5</vdop><extensions><gom:speed>0.087</gom:speed></extensions></trkpt>
   <trkpt lat="59.2981498663" lon="34.6696785592"><ele>153.516</ele><time>2026-08-16T15:44:50.898Z</time><hdop>3.0</hdop><vdop>2.5</vdop><extensions><gom:speed>0.109</gom:speed></extensions></trkpt>
   <trkpt lat="59.2981486928" lon="34.6696788944"><ele>153.056</ele><time>2026-08-16T15:44:52.136Z</time><hdop>3.0</hdop><vdop>2.5</vdop><extensions><gom:speed>0.098</gom:speed></extensions></trkpt>
   <trkpt lat="59.2981477708" lon="34.6696793974"><ele>152.673</ele><time>2026-08-16T15:44:53.136Z</time><hdop>3.0</hdop><vdop>2.5</vdop><extensions><gom:speed>0.109</gom:speed></extensions></trkpt>
   <trkpt lat="59.2981473936" lon="34.6696802355"><ele>152.332</ele><time>2026-08-16T15:44:54.136Z</time><hdop>3.0</hdop><vdop>2.5</vdop><extensions><gom:speed>0.145</gom:speed></extensions></trkpt>
   <trkpt lat="59.298146765" lon="34.6696797326"><ele>152.129</ele><time>2026-08-16T15:44:54.638Z</time><hdop>3.0</hdop><vdop>2.5</vdop><extensions><gom:speed>0.118</gom:speed></extensions></trkpt>
   <trkpt lat="59.298146765" lon="34.669680487"><ele>152.007</ele><time>2026-08-16T15:44:55.136Z</time><hdop>3.0</hdop><vdop>2.5</vdop><extensions><gom:speed>0.114</gom:speed></extensions></trkpt>
   <trkpt lat="59.2981466812" lon="34.6696814928"><ele>151.934</ele><time>2026-08-16T15:44:55.983Z</time><hdop>3.0</hdop><vdop>2.5</vdop><extensions><gom:speed>0.091</gom:speed></extensions></trkpt>
   <trkpt lat="59.2981464716" lon="34.6696830854"><ele>151.744</ele><time>2026-08-16T15:44:57.136Z</time><hdop>3.0</hdop><vdop>2.5</vdop><extensions><gom:speed>0.094</gom:speed></extensions></trkpt>
   <trkpt lat="59.2981459687" lon="34.6696833369"><ele>151.628</ele><time>2026-08-16T15:44:58.136Z</time><hdop>3.0</hdop><vdop>2.5</vdop><extensions><gom:speed>0.114</gom:speed></extensions></trkpt>
   <trkpt lat="59.2981452982" lon="34.669684175"><ele>151.536</ele><time>2026-08-16T15:44:59.136Z</time><hdop>3.0</hdop><vdop>2.5</vdop><extensions><gom:speed>0.121</gom:speed></extensions></trkpt>
   <trkpt lat="59.2981446695" lon="34.6696860191"><ele>151.468</ele><time>2026-08-16T15:45:00.136Z</time><hdop>3.0</hdop><vdop>2.5</vdop><extensions><gom:speed>0.094</gom:speed></extensions></trkpt>
   <trkpt lat="59.298143999" lon="34.6696868573"><ele>151.428</ele><time>2026-08-16T15:45:00.881Z</time><hdop>3.0</hdop><vdop>2.5</vdop><extensions><gom:speed>0.103</gom:speed></extensions></trkpt>
   <trkpt lat="59.2981431608" lon="34.6696881984"><ele>151.398</ele><time>2026-08-16T15:45:01.577Z</time><hdop>3.0</hdop><vdop>2.5</vdop><extensions><gom:speed>0.089</gom:speed></extensions></trkpt>
   <trkpt lat="59.2981429931" lon="34.6696884498"><ele>151.379</ele><time>2026-08-16T15:45:02.136Z</time><hdop>3.0</hdop><vdop>2.5</vdop><extensions><gom:speed>0.107</gom:speed></extensions></trkpt>
   <trkpt lat="59.2981424902" lon="34.6696890365"><ele>151.359</ele><time>2026-08-16T15:45:03.136Z</time><hdop>3.0</hdop><vdop>2.5</vdop><extensions><gom:speed>0.118</gom:speed></extensions></trkpt>
   <trkpt lat="59.2981424902" lon="34.6696912997"><ele>151.408</ele><time>2026-08-16T15:45:04.136Z</time><hdop>3.0</hdop><vdop>2.5</vdop><extensions><gom:speed>0.094</gom:speed></extensions></trkpt>
   <trkpt lat="59.2981424902" lon="34.6696914673"><ele>151.437</ele><time>2026-08-16T15:45:05.043Z</time><hdop>3.0</hdop><vdop>2.5</vdop><extensions><gom:speed>0.106</gom:speed></extensions></trkpt>
   <trkpt lat="59.2981424902" lon="34.6696944848"><ele>151.45</ele><time>2026-08-16T15:45:06.136Z</time><hdop>3.0</hdop><vdop>2.5</vdop><extensions><gom:speed>0.104</gom:speed></extensions></trkpt>
   <trkpt lat="59.2981426998" lon="34.6696963288"><ele>151.464</ele><time>2026-08-16T15:45:07.136Z</time><hdop>3.0</hdop><vdop>2.5</vdop><extensions><gom:speed>0.095</gom:speed></extensions></trkpt>
   <trkpt lat="59.2981424902" lon="34.6696956582"><ele>151.472</ele><time>2026-08-16T15:45:08.145Z</time><hdop>3.0</hdop><vdop>2.5</vdop><extensions><gom:speed>0.09</gom:speed></extensions></trkpt>
   <trkpt lat="59.2981426998" lon="34.6696979214"><ele>151.313</ele><time>2026-08-16T15:45:08.626Z</time><hdop>3.0</hdop><vdop>2.5</vdop><extensions><gom:speed>0.07</gom:speed></extensions></trkpt>
   <trkpt lat="59.2981428674" lon="34.6697010227"><ele>151.225</ele><time>2026-08-16T15:45:09.136Z</time><hdop>3.0</hdop><vdop>2.5</vdop><extensions><gom:speed>0.102</gom:speed></extensions></trkpt>
   <trkpt lat="59.298142574" lon="34.6697066385"><ele>151.482</ele><time>2026-08-16T15:45:10.136Z</time><hdop>3.0</hdop><vdop>2.5</vdop><extensions><gom:speed>0.112</gom:speed></extensions></trkpt>
   <trkpt lat="59.2981424902" lon="34.6697130926"><ele>151.629</ele><time>2026-08-16T15:45:11.136Z</time><hdop>3.0</hdop><vdop>2.5</vdop><extensions><gom:speed>0.129</gom:speed></extensions></trkpt>
   <trkpt lat="59.2981424902" lon="34.6697151881"><ele>151.716</ele><time>2026-08-16T15:45:12.042Z</time><hdop>3.0</hdop><vdop>2.5</vdop><extensions><gom:speed>0.112</gom:speed></extensions></trkpt>
   <trkpt lat="59.298143077" lon="34.6697199658"><ele>151.761</ele><time>2026-08-16T15:45:12.743Z</time><hdop>3.0</hdop><vdop>2.5</vdop><extensions><gom:speed>0.104</gom:speed></extensions></trkpt>
   <trkpt lat="59.2981445857" lon="34.6697257493"><ele>151.662</ele><time>2026-08-16T15:45:13.691Z</time><hdop>3.0</hdop><vdop>2.5</vdop><extensions><gom:speed>0.144</gom:speed></extensions></trkpt>
   <trkpt lat="59.2981477708" lon="34.6697343826"><ele>151.512</ele><time>2026-08-16T15:45:14.564Z</time><hdop>3.0</hdop><vdop>2.562</vdop><extensions><gom:speed>0.237</gom:speed></extensions></trkpt>
   <trkpt lat="59.2981482737" lon="34.669736059"><ele>151.423</ele><time>2026-08-16T15:45:15.065Z</time><hdop>3.0</hdop><vdop>2.562</vdop><extensions><gom:speed>0.246</gom:speed></extensions></trkpt>
   <trkpt lat="59.298151878" lon="34.6697492186"><ele>151.554</ele><time>2026-08-16T15:45:16.136Z</time><hdop>3.0</hdop><vdop>2.5</vdop><extensions><gom:speed>0.183</gom:speed></extensions></trkpt>
   <trkpt lat="59.2981536801" lon="34.6697553374"><ele>151.621</ele><time>2026-08-16T15:45:17.136Z</time><hdop>3.0</hdop><vdop>2.5</vdop><extensions><gom:speed>0.124</gom:speed></extensions></trkpt>
   <trkpt lat="59.298155566" lon="34.6697588578"><ele>151.636</ele><time>2026-08-16T15:45:18.136Z</time><hdop>3.0</hdop><vdop>2.5</vdop><extensions><gom:speed>0.145</gom:speed></extensions></trkpt>
   <trkpt lat="59.2981583739" lon="34.6697625458"><ele>151.545</ele><time>2026-08-16T15:45:19.135Z</time><hdop>3.0</hdop><vdop>2.75</vdop><extensions><gom:speed>0.183</gom:speed></extensions></trkpt>
   <trkpt lat="59.2981609723" lon="34.6697641384"><ele>151.472</ele><time>2026-08-16T15:45:20.136Z</time><hdop>3.0</hdop><vdop>2.625</vdop><extensions><gom:speed>0.138</gom:speed></extensions></trkpt>
   <trkpt lat="59.2981623972" lon="34.6697658986"><ele>151.391</ele><time>2026-08-16T15:45:21.136Z</time><hdop>3.0</hdop><vdop>2.5</vdop><extensions><gom:speed>0.103</gom:speed></extensions></trkpt>
   <trkpt lat="59.2981623972" lon="34.669765731"><ele>151.343</ele><time>2026-08-16T15:45:21.985Z</time><hdop>3.0</hdop><vdop>2.5</vdop><extensions><gom:speed>0.104</gom:speed></extensions></trkpt>
   <trkpt lat="59.2981633612" lon="34.6697671559"><ele>151.269</ele><time>2026-08-16T15:45:23.136Z</time><hdop>3.0</hdop><vdop>2.5</vdop><extensions><gom:speed>0.104</gom:speed></extensions></trkpt>
   <trkpt lat="59.2981633612" lon="34.6697685808"><ele>151.182</ele><time>2026-08-16T15:45:24.136Z</time><hdop>3.0</hdop><vdop>2.5</vdop><extensions><gom:speed>0.106</gom:speed></extensions></trkpt>
   <trkpt lat="59.2981637803" lon="34.6697693352"><ele>151.147</ele><time>2026-08-16T15:45:25.136Z</time><hdop>3.0</hdop><vdop>2.5</vdop><extensions><gom:speed>0.076</gom:speed></extensions></trkpt>
   <trkpt lat="59.2981640736" lon="34.6697693352"><ele>151.127</ele><time>2026-08-16T15:45:25.764Z</time><hdop>3.0</hdop><vdop>2.5</vdop><extensions><gom:speed>0.08</gom:speed></extensions></trkpt>
   <trkpt lat="59.298164367" lon="34.6697696705"><ele>151.116</ele><time>2026-08-16T15:45:27.136Z</time><hdop>3.0</hdop><vdop>2.5</vdop><extensions><gom:speed>0.076</gom:speed></extensions></trkpt>
   <trkpt lat="59.298164367" lon="34.6697701734"><ele>151.11</ele><time>2026-08-16T15:45:27.865Z</time><hdop>3.0</hdop><vdop>2.5</vdop><extensions><gom:speed>0.069</gom:speed></extensions></trkpt>
   <trkpt lat="59.2981640736" lon="34.6697705925"><ele>151.054</ele><time>2026-08-16T15:45:29.092Z</time><hdop>3.0</hdop><vdop>2.5</vdop><extensions><gom:speed>0.068</gom:speed></extensions></trkpt>
   <trkpt lat="59.2981636964" lon="34.669770341"><ele>150.929</ele><time>2026-08-16T15:45:30.136Z</time><hdop>3.0</hdop><vdop>2.5</vdop><extensions><gom:speed>0.09</gom:speed></extensions></trkpt>
   <trkpt lat="59.2981631935" lon="34.6697716821"><ele>150.776</ele><time>2026-08-16T15:45:31.136Z</time><hdop>3.0</hdop><vdop>2.5</vdop><extensions><gom:speed>0.11</gom:speed></extensions></trkpt>
   <trkpt lat="59.2981621877" lon="34.6697739452"><ele>150.519</ele><time>2026-08-16T15:45:32.136Z</time><hdop>3.0</hdop><vdop>2.5</vdop><extensions><gom:speed>0.138</gom:speed></extensions></trkpt>
   <trkpt lat="59.2981616848" lon="34.6697757892"><ele>150.226</ele><time>2026-08-16T15:45:33.136Z</time><hdop>3.0</hdop><vdop>2.5</vdop><extensions><gom:speed>0.099</gom:speed></extensions></trkpt>
   <trkpt lat="59.2981617686" lon="34.669777298"><ele>150.047</ele><time>2026-08-16T15:45:34.136Z</time><hdop>3.0</hdop><vdop>2.5</vdop><extensions><gom:speed>0.088</gom:speed></extensions></trkpt>
   <trkpt lat="59.2981613914" lon="34.6697788905"><ele>149.942</ele><time>2026-08-16T15:45:35.136Z</time><hdop>3.0</hdop><vdop>2.5</vdop><extensions><gom:speed>0.106</gom:speed></extensions></trkpt>
   <trkpt lat="59.2981605951" lon="34.6697815728"><ele>150.22</ele><time>2026-08-16T15:45:36.136Z</time><hdop>3.0</hdop><vdop>2.5</vdop><extensions><gom:speed>0.116</gom:speed></extensions></trkpt>
   <trkpt lat="59.2981599665" lon="34.6697855961"><ele>150.373</ele><time>2026-08-16T15:45:37.136Z</time><hdop>3.0</hdop><vdop>2.5</vdop><extensions><gom:speed>0.092</gom:speed></extensions></trkpt>
   <trkpt lat="59.2981600922" lon="34.6697890327"><ele>150.453</ele><time>2026-08-16T15:45:38.136Z</time><hdop>3.0</hdop><vdop>2.5</vdop><extensions><gom:speed>0.088</gom:speed></extensions></trkpt>
   <trkpt lat="59.2981599665" lon="34.6697925531"><ele>150.508</ele><time>2026-08-16T15:45:39.136Z</time><hdop>3.0</hdop><vdop>2.5</vdop><extensions><gom:speed>0.114</gom:speed></extensions></trkpt>
   <trkpt lat="59.2981597989" lon="34.6697965764"><ele>150.507</ele><time>2026-08-16T15:45:40.136Z</time><hdop>3.0</hdop><vdop>2.5</vdop><extensions><gom:speed>0.107</gom:speed></extensions></trkpt>
   <trkpt lat="59.2981596731" lon="34.6697999291"><ele>150.493</ele><time>2026-08-16T15:45:41.136Z</time><hdop>3.0</hdop><vdop>2.687</vdop><extensions><gom:speed>0.096</gom:speed></extensions></trkpt>
   <trkpt lat="59.2981596731" lon="34.6698039524"><ele>150.482</ele><time>2026-08-16T15:45:42.136Z</time><hdop>3.0</hdop><vdop>2.5</vdop><extensions><gom:speed>0.088</gom:speed></extensions></trkpt>
   <trkpt lat="59.2981597989" lon="34.6698085625"><ele>150.406</ele><time>2026-08-16T15:45:43.136Z</time><hdop>3.0</hdop><vdop>2.5</vdop><extensions><gom:speed>0.1</gom:speed></extensions></trkpt>
   <trkpt lat="59.2981596731" lon="34.6698132564"><ele>150.701</ele><time>2026-08-16T15:45:44.136Z</time><hdop>3.0</hdop><vdop>2.5</vdop><extensions><gom:speed>0.112</gom:speed></extensions></trkpt>
   <trkpt lat="59.2981596731" lon="34.6698178664"><ele>150.994</ele><time>2026-08-16T15:45:45.136Z</time><hdop>3.0</hdop><vdop>2.5</vdop><extensions><gom:speed>0.117</gom:speed></extensions></trkpt>
   <trkpt lat="59.2981596731" lon="34.6698187884"><ele>151.168</ele><time>2026-08-16T15:45:45.730Z</time><hdop>3.0</hdop><vdop>2.5</vdop><extensions><gom:speed>0.081</gom:speed></extensions></trkpt>
   <trkpt lat="59.2981596731" lon="34.6698220573"><ele>151.264</ele><time>2026-08-16T15:45:46.309Z</time><hdop>3.0</hdop><vdop>2.5</vdop><extensions><gom:speed>0.1</gom:speed></extensions></trkpt>
   <trkpt lat="59.2981594636" lon="34.6698230632"><ele>151.322</ele><time>2026-08-16T15:45:47.124Z</time><hdop>3.0</hdop><vdop>2.5</vdop><extensions><gom:speed>0.137</gom:speed></extensions></trkpt>
   <trkpt lat="59.2981589607" lon="34.6698283438"><ele>151.368</ele><time>2026-08-16T15:45:47.988Z</time><hdop>3.0</hdop><vdop>2.5</vdop><extensions><gom:speed>0.134</gom:speed></extensions></trkpt>
   <trkpt lat="59.2981589607" lon="34.6698313613"><ele>151.406</ele><time>2026-08-16T15:45:48.567Z</time><hdop>3.0</hdop><vdop>2.5</vdop><extensions><gom:speed>0.101</gom:speed></extensions></trkpt>
   <trkpt lat="59.2981589607" lon="34.6698329538"><ele>151.438</ele><time>2026-08-16T15:45:49.136Z</time><hdop>3.0</hdop><vdop>2.5</vdop><extensions><gom:speed>0.105</gom:speed></extensions></trkpt>
   <trkpt lat="59.2981586673" lon="34.6698351331"><ele>151.463</ele><time>2026-08-16T15:45:50.136Z</time><hdop>3.0</hdop><vdop>2.5</vdop><extensions><gom:speed>0.099</gom:speed></extensions></trkpt>
   <trkpt lat="59.2981584997" lon="34.669837061"><ele>151.465</ele><time>2026-08-16T15:45:51.136Z</time><hdop>3.0</hdop><vdop>2.5</vdop><extensions><gom:speed>0.111</gom:speed></extensions></trkpt>
   <trkpt lat="59.2981586673" lon="34.6698385697"><ele>151.471</ele><time>2026-08-16T15:45:52.136Z</time><hdop>3.0</hdop><vdop>2.5</vdop><extensions><gom:speed>0.11</gom:speed></extensions></trkpt>
   <trkpt lat="59.298158793" lon="34.669839827"><ele>151.471</ele><time>2026-08-16T15:45:53.136Z</time><hdop>3.0</hdop><vdop>2.5</vdop><extensions><gom:speed>0.072</gom:speed></extensions></trkpt>
   <trkpt lat="59.298158793" lon="34.6698401623"><ele>151.478</ele><time>2026-08-16T15:45:54.136Z</time><hdop>3.0</hdop><vdop>2.5</vdop><extensions><gom:speed>0.063</gom:speed></extensions></trkpt>
   <trkpt lat="59.2981583739" lon="34.6698408328"><ele>151.476</ele><time>2026-08-16T15:45:55.136Z</time><hdop>3.0</hdop><vdop>2.5</vdop><extensions><gom:speed>0.085</gom:speed></extensions></trkpt>
   <trkpt lat="59.2981582901" lon="34.6698402461"><ele>151.476</ele><time>2026-08-16T15:45:56.136Z</time><hdop>3.0</hdop><vdop>2.5</vdop><extensions><gom:speed>0.069</gom:speed></extensions></trkpt>
   <trkpt lat="59.2981583739" lon="34.6698395755"><ele>151.383</ele><time>2026-08-16T15:45:57.136Z</time><hdop>3.0</hdop><vdop>2.5</vdop><extensions><gom:speed>0.058</gom:speed></extensions></trkpt>
   <trkpt lat="59.2981589607" lon="34.6698395755"><ele>151.327</ele><time>2026-08-16T15:45:58.136Z</time><hdop>3.0</hdop><vdop>2.5</vdop><extensions><gom:speed>0.094</gom:speed></extensions></trkpt>
   <trkpt lat="59.2981593798" lon="34.6698383182"><ele>151.293</ele><time>2026-08-16T15:45:59.136Z</time><hdop>3.0</hdop><vdop>2.5</vdop><extensions><gom:speed>0.091</gom:speed></extensions></trkpt>
   <trkpt lat="59.2981596731" lon="34.6698374801"><ele>151.251</ele><time>2026-08-16T15:46:00.136Z</time><hdop>3.0</hdop><vdop>2.5</vdop><extensions><gom:speed>0.068</gom:speed></extensions></trkpt>
   <trkpt lat="59.2981598827" lon="34.6698364742"><ele>151.235</ele><time>2026-08-16T15:46:01.136Z</time><hdop>3.0</hdop><vdop>2.5</vdop><extensions><gom:speed>0.067</gom:speed></extensions></trkpt>
   <trkpt lat="59.2981599665" lon="34.6698359713"><ele>151.233</ele><time>2026-08-16T15:46:02.136Z</time><hdop>3.0</hdop><vdop>2.5</vdop><extensions><gom:speed>0.087</gom:speed></extensions></trkpt>
   <trkpt lat="59.2981605951" lon="34.6698355522"><ele>151.238</ele><time>2026-08-16T15:46:03.136Z</time><hdop>3.0</hdop><vdop>2.5</vdop><extensions><gom:speed>0.091</gom:speed></extensions></trkpt>
   <trkpt lat="59.2981612657" lon="34.669835636"><ele>151.243</ele><time>2026-08-16T15:46:04.136Z</time><hdop>3.0</hdop><vdop>2.5</vdop><extensions><gom:speed>0.064</gom:speed></extensions></trkpt>
   <trkpt lat="59.2981612657" lon="34.6698367257"><ele>151.25</ele><time>2026-08-16T15:46:05.136Z</time><hdop>3.0</hdop><vdop>2.5</vdop><extensions><gom:speed>0.057</gom:speed></extensions></trkpt>
   <trkpt lat="59.2981611819" lon="34.6698368933"><ele>151.255</ele><time>2026-08-16T15:46:06.136Z</time><hdop>3.0</hdop><vdop>2.5</vdop><extensions><gom:speed>0.09</gom:speed></extensions></trkpt>
   <trkpt lat="59.2981615591" lon="34.6698362228"><ele>151.257</ele><time>2026-08-16T15:46:07.136Z</time><hdop>3.0</hdop><vdop>2.5</vdop><extensions><gom:speed>0.098</gom:speed></extensions></trkpt>
   <trkpt lat="59.298162062" lon="34.6698361389"><ele>151.259</ele><time>2026-08-16T15:46:08.136Z</time><hdop>3.0</hdop><vdop>2.5</vdop><extensions><gom:speed>0.061</gom:speed></extensions></trkpt>
   <trkpt lat="59.298162062" lon="34.6698360551"><ele>151.253</ele><time>2026-08-16T15:46:09.136Z</time><hdop>3.0</hdop><vdop>2.5</vdop><extensions><gom:speed>0.022</gom:speed></extensions></trkpt>
   <trkpt lat="59.2981621877" lon="34.6698362228"><ele>151.247</ele><time>2026-08-16T15:46:10.136Z</time><hdop>3.0</hdop><vdop>2.5</vdop><extensions><gom:speed>0.031</gom:speed></extensions></trkpt>
   <trkpt lat="59.2981622715" lon="34.6698362228"><ele>151.237</ele><time>2026-08-16T15:46:11.136Z</time><hdop>3.0</hdop><vdop>2.5</vdop><extensions><gom:speed>0.038</gom:speed></extensions></trkpt>
   <trkpt lat="59.2981623972" lon="34.6698362228"><ele>151.228</ele><time>2026-08-16T15:46:12.136Z</time><hdop>3.0</hdop><vdop>2.5</vdop><extensions><gom:speed>0.042</gom:speed></extensions></trkpt>
   <trkpt lat="59.2981624811" lon="34.6698362228"><ele>151.216</ele><time>2026-08-16T15:46:13.136Z</time><hdop>3.0</hdop><vdop>2.5</vdop><extensions><gom:speed>0.046</gom:speed></extensions></trkpt>
   <trkpt lat="59.2981625649" lon="34.6698360551"><ele>151.228</ele><time>2026-08-16T15:46:14.136Z</time><hdop>3.0</hdop><vdop>2.5</vdop><extensions><gom:speed>0.049</gom:speed></extensions></trkpt>
   <trkpt lat="59.2981626906" lon="34.6698359713"><ele>151.237</ele><time>2026-08-16T15:46:15.136Z</time><hdop>3.0</hdop><vdop>2.5</vdop><extensions><gom:speed>0.055</gom:speed></extensions></trkpt>
   <trkpt lat="59.2981626906" lon="34.6698358875"><ele>151.242</ele><time>2026-08-16T15:46:16.136Z</time><hdop>3.0</hdop><vdop>2.5</vdop><extensions><gom:speed>0.057</gom:speed></extensions></trkpt>
   <trkpt lat="59.2981626906" lon="34.6698354684"><ele>151.243</ele><time>2026-08-16T15:46:17.136Z</time><hdop>3.0</hdop><vdop>2.5</vdop><extensions><gom:speed>0.058</gom:speed></extensions></trkpt>
   <trkpt lat="59.2981626906" lon="34.6698352169"><ele>151.242</ele><time>2026-08-16T15:46:18.136Z</time><hdop>3.0</hdop><vdop>2.5</vdop><extensions><gom:speed>0.11</gom:speed></extensions></trkpt>
   <trkpt lat="59.2981627744" lon="34.6698350493"><ele>151.136</ele><time>2026-08-16T15:46:19.136Z</time><hdop>3.0</hdop><vdop>2.5</vdop><extensions><gom:speed>0.313</gom:speed></extensions></trkpt>
   <trkpt lat="59.2981627744" lon="34.6698338758"><ele>151.072</ele><time>2026-08-16T15:46:19.828Z</time><hdop>3.0</hdop><vdop>2.5</vdop><extensions><gom:speed>0.335</gom:speed></extensions></trkpt>
   <trkpt lat="59.2981618943" lon="34.6698338758"><ele>151.033</ele><time>2026-08-16T15:46:20.468Z</time><hdop>3.0</hdop><vdop>2.5</vdop><extensions><gom:speed>0.465</gom:speed></extensions></trkpt>
   <trkpt lat="59.2981612657" lon="34.66983287"><ele>151.01</ele><time>2026-08-16T15:46:21.097Z</time><hdop>3.0</hdop><vdop>2.5</vdop><extensions><gom:speed>0.491</gom:speed></extensions></trkpt>
   <trkpt lat="59.2981522971" lon="34.6698494662"><ele>150.755</ele><time>2026-08-16T15:46:22.136Z</time><hdop>3.0</hdop><vdop>2.5</vdop><extensions><gom:speed>0.76</gom:speed></extensions></trkpt>
   <trkpt lat="59.2981479804" lon="34.6698538248"><ele>150.603</ele><time>2026-08-16T15:46:22.927Z</time><hdop>3.062</hdop><vdop>2.5</vdop><extensions><gom:speed>0.73</gom:speed></extensions></trkpt>
   <trkpt lat="59.29814446" lon="34.6698719297"><ele>150.38</ele><time>2026-08-16T15:46:23.791Z</time><hdop>3.125</hdop><vdop>2.5</vdop><extensions><gom:speed>0.624</gom:speed></extensions></trkpt>
   <trkpt lat="59.2981452982" lon="34.6698942255"><ele>150.548</ele><time>2026-08-16T15:46:24.832Z</time><hdop>3.125</hdop><vdop>2.5</vdop><extensions><gom:speed>0.551</gom:speed></extensions></trkpt>
   <trkpt lat="59.2981481899" lon="34.6699123304"><ele>150.83</ele><time>2026-08-16T15:46:25.509Z</time><hdop>3.125</hdop><vdop>2.5</vdop><extensions><gom:speed>0.641</gom:speed></extensions></trkpt>
   <trkpt lat="59.2981515846" lon="34.6699251548"><ele>151.04</ele><time>2026-08-16T15:46:26.136Z</time><hdop>3.125</hdop><vdop>2.5</vdop><extensions><gom:speed>0.614</gom:speed></extensions></trkpt>
   <trkpt lat="59.2981545602" lon="34.6699371409"><ele>151.165</ele><time>2026-08-16T15:46:26.952Z</time><hdop>3.187</hdop><vdop>2.5</vdop><extensions><gom:speed>0.675</gom:speed></extensions></trkpt>
   <trkpt lat="59.298158793" lon="34.6699531503"><ele>151.448</ele><time>2026-08-16T15:46:27.875Z</time><hdop>3.125</hdop><vdop>2.5</vdop><extensions><gom:speed>0.682</gom:speed></extensions></trkpt>
   <trkpt lat="59.2981612657" lon="34.6699634601"><ele>151.757</ele><time>2026-08-16T15:46:28.492Z</time><hdop>3.062</hdop><vdop>2.5</vdop><extensions><gom:speed>0.722</gom:speed></extensions></trkpt>
   <trkpt lat="59.2981630678" lon="34.6699700818"><ele>151.866</ele><time>2026-08-16T15:46:29.136Z</time><hdop>3.0</hdop><vdop>2.5</vdop><extensions><gom:speed>0.709</gom:speed></extensions></trkpt>
   <trkpt lat="59.2981635707" lon="34.6699742727"><ele>151.93</ele><time>2026-08-16T15:46:30.054Z</time><hdop>3.0</hdop><vdop>2.5</vdop><extensions><gom:speed>0.762</gom:speed></extensions></trkpt>
   <trkpt lat="59.2981654986" lon="34.6699839957"><ele>151.968</ele><time>2026-08-16T15:46:31.026Z</time><hdop>3.0</hdop><vdop>2.5</vdop><extensions><gom:speed>0.716</gom:speed></extensions></trkpt>
   <trkpt lat="59.2981676778" lon="34.6699950598"><ele>151.898</ele><time>2026-08-16T15:46:31.487Z</time><hdop>3.0</hdop><vdop>2.5</vdop><extensions><gom:speed>0.725</gom:speed></extensions></trkpt>
   <trkpt lat="59.2981711982" lon="34.6700063754"><ele>152.006</ele><time>2026-08-16T15:46:32.136Z</time><hdop>3.0</hdop><vdop>2.5</vdop><extensions><gom:speed>0.654</gom:speed></extensions></trkpt>
   <trkpt lat="59.2981741738" lon="34.6700129971"><ele>152.071</ele><time>2026-08-16T15:46:32.792Z</time><hdop>3.062</hdop><vdop>2.5</vdop><extensions><gom:speed>0.655</gom:speed></extensions></trkpt>
   <trkpt lat="59.2981823881" lon="34.670020457"><ele>152.329</ele><time>2026-08-16T15:46:33.686Z</time><hdop>3.062</hdop><vdop>2.5</vdop><extensions><gom:speed>0.685</gom:speed></extensions></trkpt>
   <trkpt lat="59.2981863695" lon="34.6700223848"><ele>152.669</ele><time>2026-08-16T15:46:34.136Z</time><hdop>3.062</hdop><vdop>2.5</vdop><extensions><gom:speed>0.716</gom:speed></extensions></trkpt>
   <trkpt lat="59.2981952962" lon="34.6700249832"><ele>152.702</ele><time>2026-08-16T15:46:35.136Z</time><hdop>3.062</hdop><vdop>2.5</vdop><extensions><gom:speed>0.741</gom:speed></extensions></trkpt>
   <trkpt lat="59.2982024627" lon="34.6700282522"><ele>152.722</ele><time>2026-08-16T15:46:36.013Z</time><hdop>3.062</hdop><vdop>2.5</vdop><extensions><gom:speed>0.791</gom:speed></extensions></trkpt>
   <trkpt lat="59.2982076595" lon="34.6700314373"><ele>152.75</ele><time>2026-08-16T15:46:36.592Z</time><hdop>3.0</hdop><vdop>2.5</vdop><extensions><gom:speed>0.777</gom:speed></extensions></trkpt>
   <trkpt lat="59.2982114733" lon="34.6700359635"><ele>152.86</ele><time>2026-08-16T15:46:37.136Z</time><hdop>3.0</hdop><vdop>2.5</vdop><extensions><gom:speed>0.769</gom:speed></extensions></trkpt>
   <trkpt lat="59.2982147841" lon="34.6700415794"><ele>152.926</ele><time>2026-08-16T15:46:37.711Z</time><hdop>3.0</hdop><vdop>2.5</vdop><extensions><gom:speed>0.775</gom:speed></extensions></trkpt>
   <trkpt lat="59.298218095" lon="34.6700481173"><ele>152.948</ele><time>2026-08-16T15:46:38.212Z</time><hdop>3.0</hdop><vdop>2.5</vdop><extensions><gom:speed>0.787</gom:speed></extensions></trkpt>
   <trkpt lat="59.2982226631" lon="34.6700594328"><ele>152.96</ele><time>2026-08-16T15:46:39.007Z</time><hdop>3.0</hdop><vdop>2.5</vdop><extensions><gom:speed>0.86</gom:speed></extensions></trkpt>
   <trkpt lat="59.2982257644" lon="34.6700694911"><ele>152.799</ele><time>2026-08-16T15:46:39.675Z</time><hdop>3.0</hdop><vdop>2.5</vdop><extensions><gom:speed>0.905</gom:speed></extensions></trkpt>
   <trkpt lat="59.2982266864" lon="34.6700766996"><ele>152.893</ele><time>2026-08-16T15:46:40.136Z</time><hdop>3.0</hdop><vdop>2.5</vdop><extensions><gom:speed>0.842</gom:speed></extensions></trkpt>
   <trkpt lat="59.2982288657" lon="34.6700934634"><ele>152.899</ele><time>2026-08-16T15:46:41.136Z</time><hdop>3.0</hdop><vdop>2.5</vdop><extensions><gom:speed>0.842</gom:speed></extensions></trkpt>
   <trkpt lat="59.2982316737" lon="34.6701058686"><ele>152.997</ele><time>2026-08-16T15:46:42.136Z</time><hdop>3.0</hdop><vdop>2.5</vdop><extensions><gom:speed>0.768</gom:speed></extensions></trkpt>
   <trkpt lat="59.2982340625" lon="34.6701167651"><ele>152.936</ele><time>2026-08-16T15:46:43.136Z</time><hdop>3.0</hdop><vdop>2.5</vdop><extensions><gom:speed>0.701</gom:speed></extensions></trkpt>
   <trkpt lat="59.2982354874" lon="34.6701235544"><ele>152.899</ele><time>2026-08-16T15:46:43.767Z</time><hdop>3.0</hdop><vdop>2.5</vdop><extensions><gom:speed>0.652</gom:speed></extensions></trkpt>
   <trkpt lat="59.2982372896" lon="34.6701362949"><ele>152.689</ele><time>2026-08-16T15:46:45.054Z</time><hdop>3.0</hdop><vdop>2.5</vdop><extensions><gom:speed>0.57</gom:speed></extensions></trkpt>
   <trkpt lat="59.2982359904" lon="34.6701454312"><ele>152.853</ele><time>2026-08-16T15:46:45.869Z</time><hdop>3.0</hdop><vdop>2.5</vdop><extensions><gom:speed>0.56</gom:speed></extensions></trkpt>
   <trkpt lat="59.2982345654" lon="34.6701563276"><ele>152.986</ele><time>2026-08-16T15:46:46.811Z</time><hdop>3.0</hdop><vdop>2.5</vdop><extensions><gom:speed>0.536</gom:speed></extensions></trkpt>
   <trkpt lat="59.2982345654" lon="34.6701636199"><ele>153.152</ele><time>2026-08-16T15:46:47.469Z</time><hdop>3.0</hdop><vdop>2.5</vdop><extensions><gom:speed>0.579</gom:speed></extensions></trkpt>
   <trkpt lat="59.2982359904" lon="34.670170996"><ele>153.543</ele><time>2026-08-16T15:46:48.136Z</time><hdop>3.0</hdop><vdop>2.5</vdop><extensions><gom:speed>0.599</gom:speed></extensions></trkpt>
   <trkpt lat="59.2982394688" lon="34.6701813895"><ele>153.961</ele><time>2026-08-16T15:46:49.136Z</time><hdop>3.0</hdop><vdop>2.5</vdop><extensions><gom:speed>0.619</gom:speed></extensions></trkpt>
   <trkpt lat="59.2982427797" lon="34.6701851614"><ele>154.187</ele><time>2026-08-16T15:46:50.136Z</time><hdop>3.0</hdop><vdop>2.5</vdop><extensions><gom:speed>0.412</gom:speed></extensions></trkpt>
   <trkpt lat="59.2982454619" lon="34.6701854967"><ele>154.321</ele><time>2026-08-16T15:46:51.151Z</time><hdop>3.0</hdop><vdop>2.5</vdop><extensions><gom:speed>0.327</gom:speed></extensions></trkpt>
   <trkpt lat="59.2982463839" lon="34.6701828983"><ele>154.465</ele><time>2026-08-16T15:46:52.136Z</time><hdop>3.0</hdop><vdop>2.5</vdop><extensions><gom:speed>0.165</gom:speed></extensions></trkpt>
   <trkpt lat="59.2982463839" lon="34.6701803837"><ele>154.534</ele><time>2026-08-16T15:46:53.136Z</time><hdop>3.0</hdop><vdop>2.5</vdop><extensions><gom:speed>0.124</gom:speed></extensions></trkpt>
   <trkpt lat="59.298247264" lon="34.6701786235"><ele>154.825</ele><time>2026-08-16T15:46:54.136Z</time><hdop>3.0</hdop><vdop>2.5</vdop><extensions><gom:speed>0.089</gom:speed></extensions></trkpt>
   <trkpt lat="59.2982482698" lon="34.6701767795"><ele>155.107</ele><time>2026-08-16T15:46:55.136Z</time><hdop>3.0</hdop><vdop>2.5</vdop><extensions><gom:speed>0.079</gom:speed></extensions></trkpt>
   <trkpt lat="59.2982492757" lon="34.6701758575"><ele>155.31</ele><time>2026-08-16T15:46:56.136Z</time><hdop>3.0</hdop><vdop>2.5</vdop><extensions><gom:speed>0.098</gom:speed></extensions></trkpt>
   <trkpt lat="59.2982498624" lon="34.6701749355"><ele>155.444</ele><time>2026-08-16T15:46:57.136Z</time><hdop>3.0</hdop><vdop>2.5</vdop><extensions><gom:speed>0.11</gom:speed></extensions></trkpt>
   <trkpt lat="59.2982505749" lon="34.6701749355"><ele>155.524</ele><time>2026-08-16T15:46:58.136Z</time><hdop>3.0</hdop><vdop>2.5</vdop><extensions><gom:speed>0.083</gom:speed></extensions></trkpt>
   <trkpt lat="59.2982512873" lon="34.6701764442"><ele>155.689</ele><time>2026-08-16T15:46:59.136Z</time><hdop>3.0</hdop><vdop>2.5</vdop><extensions><gom:speed>0.111</gom:speed></extensions></trkpt>
   <trkpt lat="59.2982518741" lon="34.6701773662"><ele>155.788</ele><time>2026-08-16T15:46:59.614Z</time><hdop>3.0</hdop><vdop>2.5</vdop><extensions><gom:speed>0.104</gom:speed></extensions></trkpt>
   <trkpt lat="59.2982526703" lon="34.6701796293"><ele>155.975</ele><time>2026-08-16T15:47:00.136Z</time><hdop>3.0</hdop><vdop>2.5</vdop><extensions><gom:speed>0.155</gom:speed></extensions></trkpt>
   <trkpt lat="59.2982544725" lon="34.6701855805"><ele>156.329</ele><time>2026-08-16T15:47:01.136Z</time><hdop>3.0</hdop><vdop>2.5</vdop><extensions><gom:speed>0.241</gom:speed></extensions></trkpt>
   <trkpt lat="59.298256065" lon="34.6701910287"><ele>156.54</ele><time>2026-08-16T15:47:02.028Z</time><hdop>3.0</hdop><vdop>2.5</vdop><extensions><gom:speed>0.246</gom:speed></extensions></trkpt>
   <trkpt lat="59.2982600883" lon="34.6702082954"><ele>156.967</ele><time>2026-08-16T15:47:02.853Z</time><hdop>3.0</hdop><vdop>2.5</vdop><extensions><gom:speed>0.485</gom:speed></extensions></trkpt>
   <trkpt lat="59.2982644888" lon="34.6702261489"><ele>157.351</ele><time>2026-08-16T15:47:03.550Z</time><hdop>3.0</hdop><vdop>2.5</vdop><extensions><gom:speed>0.659</gom:speed></extensions></trkpt>
   <trkpt lat="59.2982674644" lon="34.6702374645"><ele>157.811</ele><time>2026-08-16T15:47:04.136Z</time><hdop>3.0</hdop><vdop>2.5</vdop><extensions><gom:speed>0.686</gom:speed></extensions></trkpt>
   <trkpt lat="59.2982708591" lon="34.6702445891"><ele>158.085</ele><time>2026-08-16T15:47:04.746Z</time><hdop>3.0</hdop><vdop>2.5</vdop><extensions><gom:speed>0.651</gom:speed></extensions></trkpt>
   <trkpt lat="59.2982783609" lon="34.6702460978"><ele>157.791</ele><time>2026-08-16T15:47:05.955Z</time><hdop>3.0</hdop><vdop>2.5</vdop><extensions><gom:speed>0.638</gom:speed></extensions></trkpt>
   <trkpt lat="59.2982822585" lon="34.6702470198"><ele>157.609</ele><time>2026-08-16T15:47:06.593Z</time><hdop>3.0</hdop><vdop>2.5</vdop><extensions><gom:speed>0.686</gom:speed></extensions></trkpt>
   <trkpt lat="59.2982848988" lon="34.6702494506"><ele>157.554</ele><time>2026-08-16T15:47:07.136Z</time><hdop>3.0</hdop><vdop>2.5</vdop><extensions><gom:speed>0.606</gom:speed></extensions></trkpt>
   <trkpt lat="59.2982871619" lon="34.6702515461"><ele>157.522</ele><time>2026-08-16T15:47:07.614Z</time><hdop>3.0</hdop><vdop>2.5</vdop><extensions><gom:speed>0.556</gom:speed></extensions></trkpt>
   <trkpt lat="59.2982882934" lon="34.6702554856"><ele>157.479</ele><time>2026-08-16T15:47:08.136Z</time><hdop>3.0</hdop><vdop>2.5</vdop><extensions><gom:speed>0.463</gom:speed></extensions></trkpt>
   <trkpt lat="59.2982877905" lon="34.6702632807"><ele>157.515</ele><time>2026-08-16T15:47:09.136Z</time><hdop>3.0</hdop><vdop>2.5</vdop><extensions><gom:speed>0.281</gom:speed></extensions></trkpt>
   <trkpt lat="59.2982863656" lon="34.6702689804"><ele>157.521</ele><time>2026-08-16T15:47:10.136Z</time><hdop>3.0</hdop><vdop>2.5</vdop><extensions><gom:speed>0.212</gom:speed></extensions></trkpt>
   <trkpt lat="59.2982848988" lon="34.6702720817"><ele>157.513</ele><time>2026-08-16T15:47:11.136Z</time><hdop>3.0</hdop><vdop>2.5</vdop><extensions><gom:speed>0.13</gom:speed></extensions></trkpt>
   <trkpt lat="59.2982844797" lon="34.670274261"><ele>157.511</ele><time>2026-08-16T15:47:12.135Z</time><hdop>3.0</hdop><vdop>2.5</vdop><extensions><gom:speed>0.114</gom:speed></extensions></trkpt>
   <trkpt lat="59.2982843959" lon="34.6702763565"><ele>157.501</ele><time>2026-08-16T15:47:13.136Z</time><hdop>3.0</hdop><vdop>2.5</vdop><extensions><gom:speed>0.097</gom:speed></extensions></trkpt>
   <trkpt lat="59.2982845635" lon="34.6702773623"><ele>157.5</ele><time>2026-08-16T15:47:14.141Z</time><hdop>3.0</hdop><vdop>2.5</vdop><extensions><gom:speed>0.08</gom:speed></extensions></trkpt>
   <trkpt lat="59.2982852759" lon="34.6702798769"><ele>157.495</ele><time>2026-08-16T15:47:15.136Z</time><hdop>3.0</hdop><vdop>2.5</vdop><extensions><gom:speed>0.06</gom:speed></extensions></trkpt>
   <trkpt lat="59.2982852759" lon="34.6702815533"><ele>157.501</ele><time>2026-08-16T15:47:16.136Z</time><hdop>3.0</hdop><vdop>2.5</vdop><extensions><gom:speed>0.092</gom:speed></extensions></trkpt>
   <trkpt lat="59.2982852759" lon="34.6702820562"><ele>157.504</ele><time>2026-08-16T15:47:16.733Z</time><hdop>3.0</hdop><vdop>2.5</vdop><extensions><gom:speed>0.075</gom:speed></extensions></trkpt>
   <trkpt lat="59.2982854855" lon="34.6702829782"><ele>157.632</ele><time>2026-08-16T15:47:17.331Z</time><hdop>3.0</hdop><vdop>2.5</vdop><extensions><gom:speed>0.094</gom:speed></extensions></trkpt>
   <trkpt lat="59.2982857789" lon="34.6702836488"><ele>157.709</ele><time>2026-08-16T15:47:17.930Z</time><hdop>3.0</hdop><vdop>2.5</vdop><extensions><gom:speed>0.079</gom:speed></extensions></trkpt>
   <trkpt lat="59.2982858627" lon="34.6702845708"><ele>157.755</ele><time>2026-08-16T15:47:18.470Z</time><hdop>3.0</hdop><vdop>2.5</vdop><extensions><gom:speed>0.059</gom:speed></extensions></trkpt>
   <trkpt lat="59.2982854855" lon="34.6702852413"><ele>157.893</ele><time>2026-08-16T15:47:19.136Z</time><hdop>3.0</hdop><vdop>2.5</vdop><extensions><gom:speed>0.11</gom:speed></extensions></trkpt>
   <trkpt lat="59.2982835996" lon="34.6702847384"><ele>157.485</ele><time>2026-08-16T15:47:20.136Z</time><hdop>3.0</hdop><vdop>2.5</vdop><extensions><gom:speed>0.178</gom:speed></extensions></trkpt>
   <trkpt lat="59.2982817975" lon="34.6702844869"><ele>157.241</ele><time>2026-08-16T15:47:21.130Z</time><hdop>3.0</hdop><vdop>2.5</vdop><extensions><gom:speed>0.203</gom:speed></extensions></trkpt>
   <trkpt lat="59.2982781932" lon="34.6702847384"><ele>156.801</ele><time>2026-08-16T15:47:21.631Z</time><hdop>3.0</hdop><vdop>2.5</vdop><extensions><gom:speed>0.277</gom:speed></extensions></trkpt>
   <trkpt lat="59.2982738766" lon="34.6702862471"><ele>156.696</ele><time>2026-08-16T15:47:22.136Z</time><hdop>3.0</hdop><vdop>2.5</vdop><extensions><gom:speed>0.359</gom:speed></extensions></trkpt>
   <trkpt lat="59.298271362" lon="34.6702886779"><ele>156.632</ele><time>2026-08-16T15:47:22.730Z</time><hdop>3.0</hdop><vdop>2.5</vdop><extensions><gom:speed>0.347</gom:speed></extensions></trkpt>
   <trkpt lat="59.2982647822" lon="34.6702966407"><ele>156.652</ele><time>2026-08-16T15:47:23.535Z</time><hdop>3.0</hdop><vdop>2.5</vdop><extensions><gom:speed>0.46</gom:speed></extensions></trkpt>
   <trkpt lat="59.2982630639" lon="34.6703024242"><ele>156.664</ele><time>2026-08-16T15:47:24.114Z</time><hdop>3.0</hdop><vdop>2.5</vdop><extensions><gom:speed>0.482</gom:speed></extensions></trkpt>
   <trkpt lat="59.2982558974" lon="34.6703151647"><ele>157.026</ele><time>2026-08-16T15:47:24.850Z</time><hdop>3.0</hdop><vdop>2.5</vdop><extensions><gom:speed>0.722</gom:speed></extensions></trkpt>
   <trkpt lat="59.298247264" lon="34.6703250554"><ele>157.316</ele><time>2026-08-16T15:47:25.469Z</time><hdop>3.0</hdop><vdop>2.625</vdop><extensions><gom:speed>0.952</gom:speed></extensions></trkpt>
   <trkpt lat="59.2982385887" lon="34.6703392208"><ele>157.314</ele><time>2026-08-16T15:47:26.136Z</time><hdop>3.0</hdop><vdop>2.5</vdop><extensions><gom:speed>0.989</gom:speed></extensions></trkpt>
   <trkpt lat="59.2982327633" lon="34.670354392"><ele>157.313</ele><time>2026-08-16T15:47:26.990Z</time><hdop>3.062</hdop><vdop>2.5</vdop><extensions><gom:speed>0.972</gom:speed></extensions></trkpt>
   <trkpt lat="59.2982261835" lon="34.6703767717"><ele>157.574</ele><time>2026-08-16T15:47:27.933Z</time><hdop>3.125</hdop><vdop>2.5</vdop><extensions><gom:speed>0.926</gom:speed></extensions></trkpt>
   <trkpt lat="59.2982226631" lon="34.6703982294"><ele>157.844</ele><time>2026-08-16T15:47:28.767Z</time><hdop>3.125</hdop><vdop>2.5</vdop><extensions><gom:speed>0.924</gom:speed></extensions></trkpt>
   <trkpt lat="59.2982215735" lon="34.6704138197"><ele>158.118</ele><time>2026-08-16T15:47:29.366Z</time><hdop>3.125</hdop><vdop>2.5</vdop><extensions><gom:speed>0.927</gom:speed></extensions></trkpt>
   <trkpt lat="59.2982210706" lon="34.6704244647"><ele>158.282</ele><time>2026-08-16T15:47:29.906Z</time><hdop>3.125</hdop><vdop>2.5</vdop><extensions><gom:speed>0.912</gom:speed></extensions></trkpt>
   <trkpt lat="59.2982144908" lon="34.6704291586"><ele>157.886</ele><time>2026-08-16T15:47:30.750Z</time><hdop>3.125</hdop><vdop>2.5</vdop><extensions><gom:speed>0.75</gom:speed></extensions></trkpt>
   <trkpt lat="59.2982095874" lon="34.6704219502"><ele>157.611</ele><time>2026-08-16T15:47:31.348Z</time><hdop>3.062</hdop><vdop>2.5</vdop><extensions><gom:speed>0.591</gom:speed></extensions></trkpt>
   <trkpt lat="59.2982048935" lon="34.6704207767"><ele>157.043</ele><time>2026-08-16T15:47:32.136Z</time><hdop>3.0</hdop><vdop>2.5</vdop><extensions><gom:speed>0.734</gom:speed></extensions></trkpt>
   <trkpt lat="59.2981980622" lon="34.6704293262"><ele>157.136</ele><time>2026-08-16T15:47:33.136Z</time><hdop>3.0</hdop><vdop>2.5</vdop><extensions><gom:speed>0.433</gom:speed></extensions></trkpt>
   <trkpt lat="59.2981938713" lon="34.6704366185"><ele>157.237</ele><time>2026-08-16T15:47:34.136Z</time><hdop>3.0</hdop><vdop>2.5</vdop><extensions><gom:speed>0.255</gom:speed></extensions></trkpt>
   <trkpt lat="59.298193075" lon="34.6704379596"><ele>157.297</ele><time>2026-08-16T15:47:35.029Z</time><hdop>3.0</hdop><vdop>2.5</vdop><extensions><gom:speed>0.148</gom:speed></extensions></trkpt>
   <trkpt lat="59.2981897642" lon="34.6704398874"><ele>157.301</ele><time>2026-08-16T15:47:35.745Z</time><hdop>3.0</hdop><vdop>2.5</vdop><extensions><gom:speed>0.104</gom:speed></extensions></trkpt>
   <trkpt lat="59.298186579" lon="34.6704437431"><ele>157.158</ele><time>2026-08-16T15:47:36.286Z</time><hdop>3.0</hdop><vdop>2.5</vdop><extensions><gom:speed>0.159</gom:speed></extensions></trkpt>
   <trkpt lat="59.2981860761" lon="34.6704458386"><ele>157.073</ele><time>2026-08-16T15:47:37.091Z</time><hdop>3.0</hdop><vdop>2.5</vdop><extensions><gom:speed>0.138</gom:speed></extensions></trkpt>
   <trkpt lat="59.2981827653" lon="34.6704556454"><ele>156.505</ele><time>2026-08-16T15:47:37.807Z</time><hdop>3.0</hdop><vdop>2.5</vdop><extensions><gom:speed>0.238</gom:speed></extensions></trkpt>
   <trkpt lat="59.2981758921" lon="34.6704840601"><ele>156.24</ele><time>2026-08-16T15:47:39.136Z</time><hdop>3.0</hdop><vdop>2.5</vdop><extensions><gom:speed>0.577</gom:speed></extensions></trkpt>
   <trkpt lat="59.2981739643" lon="34.6704925258"><ele>156.081</ele><time>2026-08-16T15:47:39.613Z</time><hdop>3.0</hdop><vdop>2.5</vdop><extensions><gom:speed>0.6</gom:speed></extensions></trkpt>
   <trkpt lat="59.2981710725" lon="34.6705017459"><ele>156.194</ele><time>2026-08-16T15:47:40.136Z</time><hdop>3.0</hdop><vdop>2.5</vdop><extensions><gom:speed>0.641</gom:speed></extensions></trkpt>
   <trkpt lat="59.2981669654" lon="34.6705169171"><ele>156.262</ele><time>2026-08-16T15:47:41.066Z</time><hdop>3.0</hdop><vdop>2.5</vdop><extensions><gom:speed>0.726</gom:speed></extensions></trkpt>
   <trkpt lat="59.2981619782" lon="34.6705303282"><ele>156.603</ele><time>2026-08-16T15:47:41.793Z</time><hdop>3.0</hdop><vdop>2.812</vdop><extensions><gom:speed>0.806</gom:speed></extensions></trkpt>
   <trkpt lat="59.2981589607" lon="34.6705420628"><ele>156.806</ele><time>2026-08-16T15:47:42.411Z</time><hdop>3.0</hdop><vdop>2.812</vdop><extensions><gom:speed>0.848</gom:speed></extensions></trkpt>
   <trkpt lat="59.2981574938" lon="34.6705528755"><ele>157.23</ele><time>2026-08-16T15:47:43.136Z</time><hdop>3.0</hdop><vdop>2.875</vdop><extensions><gom:speed>0.818</gom:speed></extensions></trkpt>
   <trkpt lat="59.2981560689" lon="34.6705652807"><ele>157.484</ele><time>2026-08-16T15:47:43.874Z</time><hdop>3.0</hdop><vdop>2.875</vdop><extensions><gom:speed>0.841</gom:speed></extensions></trkpt>
   <trkpt lat="59.2981547697" lon="34.6705761772"><ele>158.122</ele><time>2026-08-16T15:47:44.727Z</time><hdop>3.0</hdop><vdop>2.875</vdop><extensions><gom:speed>0.81</gom:speed></extensions></trkpt>
   <trkpt lat="59.2981543925" lon="34.6705844753"><ele>158.254</ele><time>2026-08-16T15:47:45.434Z</time><hdop>3.0</hdop><vdop>3.0</vdop><extensions><gom:speed>0.746</gom:speed></extensions></trkpt>
   <trkpt lat="59.2981540992" lon="34.6705923543"><ele>158.545</ele><time>2026-08-16T15:47:46.136Z</time><hdop>3.0</hdop><vdop>2.875</vdop><extensions><gom:speed>0.68</gom:speed></extensions></trkpt>
   <trkpt lat="59.2981544764" lon="34.6706003171"><ele>158.799</ele><time>2026-08-16T15:47:47.136Z</time><hdop>3.0</hdop><vdop>2.75</vdop><extensions><gom:speed>0.515</gom:speed></extensions></trkpt>
   <trkpt lat="59.2981558594" lon="34.6706038375"><ele>158.959</ele><time>2026-08-16T15:47:48.136Z</time><hdop>3.0</hdop><vdop>2.625</vdop><extensions><gom:speed>0.372</gom:speed></extensions></trkpt>
   <trkpt lat="59.2981576615" lon="34.6706030831"><ele>159.054</ele><time>2026-08-16T15:47:49.136Z</time><hdop>3.0</hdop><vdop>2.812</vdop><extensions><gom:speed>0.224</gom:speed></extensions></trkpt>
   <trkpt lat="59.2981594636" lon="34.6706001494"><ele>159.106</ele><time>2026-08-16T15:47:50.136Z</time><hdop>3.0</hdop><vdop>2.687</vdop><extensions><gom:speed>0.104</gom:speed></extensions></trkpt>
   <trkpt lat="59.2981605951" lon="34.6705981378"><ele>159.135</ele><time>2026-08-16T15:47:51.136Z</time><hdop>3.0</hdop><vdop>2.562</vdop><extensions><gom:speed>0.092</gom:speed></extensions></trkpt>
   <trkpt lat="59.2981612657" lon="34.6705968805"><ele>159.14</ele><time>2026-08-16T15:47:52.136Z</time><hdop>3.0</hdop><vdop>2.5</vdop><extensions><gom:speed>0.088</gom:speed></extensions></trkpt>
   <trkpt lat="59.2981618943" lon="34.6705958747"><ele>159.136</ele><time>2026-08-16T15:47:53.136Z</time><hdop>3.0</hdop><vdop>2.5</vdop><extensions><gom:speed>0.055</gom:speed></extensions></trkpt>
   <trkpt lat="59.2981625649" lon="34.6705952879"><ele>159.157</ele><time>2026-08-16T15:47:54.136Z</time><hdop>3.0</hdop><vdop>2.5</vdop><extensions><gom:speed>0.057</gom:speed></extensions></trkpt>
   <trkpt lat="59.2981632773" lon="34.6705955394"><ele>159.199</ele><time>2026-08-16T15:47:55.136Z</time><hdop>3.0</hdop><vdop>2.687</vdop><extensions><gom:speed>0.096</gom:speed></extensions></trkpt>
   <trkpt lat="59.2981640736" lon="34.6705953717"><ele>159.261</ele><time>2026-08-16T15:47:56.136Z</time><hdop>3.0</hdop><vdop>2.687</vdop><extensions><gom:speed>0.095</gom:speed></extensions></trkpt>
   <trkpt lat="59.298164367" lon="34.6705962937"><ele>159.315</ele><time>2026-08-16T15:47:57.136Z</time><hdop>3.0</hdop><vdop>2.687</vdop><extensions><gom:speed>0.058</gom:speed></extensions></trkpt>
   <trkpt lat="59.2981647861" lon="34.670596629"><ele>159.361</ele><time>2026-08-16T15:47:58.136Z</time><hdop>3.0</hdop><vdop>2.75</vdop><extensions><gom:speed>0.059</gom:speed></extensions></trkpt>
   <trkpt lat="59.2981653728" lon="34.6705967967"><ele>159.402</ele><time>2026-08-16T15:47:59.136Z</time><hdop>3.0</hdop><vdop>2.75</vdop><extensions><gom:speed>0.088</gom:speed></extensions></trkpt>
   <trkpt lat="59.2981657919" lon="34.6705971319"><ele>159.428</ele><time>2026-08-16T15:48:00.136Z</time><hdop>3.0</hdop><vdop>2.875</vdop><extensions><gom:speed>0.093</gom:speed></extensions></trkpt>
   <trkpt lat="59.2981662948" lon="34.6705972996"><ele>159.452</ele><time>2026-08-16T15:48:01.136Z</time><hdop>3.0</hdop><vdop>2.812</vdop><extensions><gom:speed>0.06</gom:speed></extensions></trkpt>
   <trkpt lat="59.2981659596" lon="34.6705980539"><ele>159.546</ele><time>2026-08-16T15:48:02.136Z</time><hdop>3.0</hdop><vdop>2.562</vdop><extensions><gom:speed>0.096</gom:speed></extensions></trkpt>
   <trkpt lat="59.2981655824" lon="34.6705980539"><ele>159.603</ele><time>2026-08-16T15:48:02.692Z</time><hdop>3.0</hdop><vdop>2.562</vdop><extensions><gom:speed>0.081</gom:speed></extensions></trkpt>
   <trkpt lat="59.298164367" lon="34.6706006523"><ele>159.733</ele><time>2026-08-16T15:48:03.546Z</time><hdop>3.0</hdop><vdop>2.5</vdop><extensions><gom:speed>0.135</gom:speed></extensions></trkpt>
   <trkpt lat="59.2981638641" lon="34.6706016582"><ele>159.811</ele><time>2026-08-16T15:48:04.115Z</time><hdop>3.0</hdop><vdop>2.5</vdop><extensions><gom:speed>0.17</gom:speed></extensions></trkpt>
   <trkpt lat="59.298160679" lon="34.6706098724"><ele>160.008</ele><time>2026-08-16T15:48:04.871Z</time><hdop>3.0</hdop><vdop>2.5</vdop><extensions><gom:speed>0.281</gom:speed></extensions></trkpt>
   <trkpt lat="59.2981568652" lon="34.6706166618"><ele>160.09</ele><time>2026-08-16T15:48:05.587Z</time><hdop>3.0</hdop><vdop>2.5</vdop><extensions><gom:speed>0.291</gom:speed></extensions></trkpt>
   <trkpt lat="59.2981525904" lon="34.6706264686"><ele>160.254</ele><time>2026-08-16T15:48:06.135Z</time><hdop>3.0</hdop><vdop>2.5</vdop><extensions><gom:speed>0.513</gom:speed></extensions></trkpt>
   <trkpt lat="59.298147687" lon="34.6706395444"><ele>160.352</ele><time>2026-08-16T15:48:07.030Z</time><hdop>3.0</hdop><vdop>2.5</vdop><extensions><gom:speed>0.595</gom:speed></extensions></trkpt>
   <trkpt lat="59.2981405624" lon="34.6706637681"><ele>160.175</ele><time>2026-08-16T15:48:08.136Z</time><hdop>3.0</hdop><vdop>2.5</vdop><extensions><gom:speed>0.768</gom:speed></extensions></trkpt>
   <trkpt lat="59.2981392632" lon="34.6706811186"><ele>160.048</ele><time>2026-08-16T15:48:09.136Z</time><hdop>3.0</hdop><vdop>2.5</vdop><extensions><gom:speed>0.761</gom:speed></extensions></trkpt>
   <trkpt lat="59.2981387603" lon="34.6706951164"><ele>159.973</ele><time>2026-08-16T15:48:09.926Z</time><hdop>3.0</hdop><vdop>2.5</vdop><extensions><gom:speed>0.818</gom:speed></extensions></trkpt>
   <trkpt lat="59.2981401852" lon="34.6707077731"><ele>159.577</ele><time>2026-08-16T15:48:10.809Z</time><hdop>3.0</hdop><vdop>2.5</vdop><extensions><gom:speed>0.788</gom:speed></extensions></trkpt>
   <trkpt lat="59.2981449629" lon="34.6707171608"><ele>159.426</ele><time>2026-08-16T15:48:11.614Z</time><hdop>3.0</hdop><vdop>2.5</vdop><extensions><gom:speed>0.786</gom:speed></extensions></trkpt>
   <trkpt lat="59.2981493634" lon="34.6707220223"><ele>159.114</ele><time>2026-08-16T15:48:12.136Z</time><hdop>3.0</hdop><vdop>2.5</vdop><extensions><gom:speed>0.805</gom:speed></extensions></trkpt>
   <trkpt lat="59.2981552726" lon="34.6707339246"><ele>158.928</ele><time>2026-08-16T15:48:13.146Z</time><hdop>3.0</hdop><vdop>2.5</vdop><extensions><gom:speed>0.806</gom:speed></extensions></trkpt>
   <trkpt lat="59.2981595893" lon="34.6707442343"><ele>158.627</ele><time>2026-08-16T15:48:14.029Z</time><hdop>3.0</hdop><vdop>2.5</vdop><extensions><gom:speed>0.783</gom:speed></extensions></trkpt>
   <trkpt lat="59.2981640736" lon="34.6707478386"><ele>158.382</ele><time>2026-08-16T15:48:14.588Z</time><hdop>3.0</hdop><vdop>2.5</vdop><extensions><gom:speed>0.804</gom:speed></extensions></trkpt>
   <trkpt lat="59.2981671749" lon="34.6707516942"><ele>158.319</ele><time>2026-08-16T15:48:15.136Z</time><hdop>3.0</hdop><vdop>2.5</vdop><extensions><gom:speed>0.762</gom:speed></extensions></trkpt>
   <trkpt lat="59.2981681808" lon="34.6707613334"><ele>158.119</ele><time>2026-08-16T15:48:16.136Z</time><hdop>3.0</hdop><vdop>2.5</vdop><extensions><gom:speed>0.748</gom:speed></extensions></trkpt>
   <trkpt lat="59.298166672" lon="34.6707669493"><ele>158.0</ele><time>2026-08-16T15:48:16.650Z</time><hdop>3.0</hdop><vdop>2.5</vdop><extensions><gom:speed>0.726</gom:speed></extensions></trkpt>
   <trkpt lat="59.2981654986" lon="34.6707730681"><ele>158.053</ele><time>2026-08-16T15:48:17.136Z</time><hdop>3.0</hdop><vdop>2.5</vdop><extensions><gom:speed>0.785</gom:speed></extensions></trkpt>
   <trkpt lat="59.2981642832" lon="34.6707881555"><ele>158.108</ele><time>2026-08-16T15:48:18.136Z</time><hdop>3.0</hdop><vdop>2.5</vdop><extensions><gom:speed>0.834</gom:speed></extensions></trkpt>
   <trkpt lat="59.2981651633" lon="34.6708015666"><ele>158.141</ele><time>2026-08-16T15:48:18.868Z</time><hdop>3.0</hdop><vdop>2.5</vdop><extensions><gom:speed>0.87</gom:speed></extensions></trkpt>
   <trkpt lat="59.2981653728" lon="34.6708155643"><ele>158.607</ele><time>2026-08-16T15:48:19.810Z</time><hdop>3.0</hdop><vdop>2.5</vdop><extensions><gom:speed>0.838</gom:speed></extensions></trkpt>
   <trkpt lat="59.2981645765" lon="34.6708239462"><ele>158.973</ele><time>2026-08-16T15:48:20.449Z</time><hdop>3.0</hdop><vdop>2.5</vdop><extensions><gom:speed>0.858</gom:speed></extensions></trkpt>
   <trkpt lat="59.2981622715" lon="34.6708325796"><ele>158.954</ele><time>2026-08-16T15:48:21.136Z</time><hdop>3.0</hdop><vdop>2.5</vdop><extensions><gom:speed>0.845</gom:speed></extensions></trkpt>
   <trkpt lat="59.2981598827" lon="34.6708419673"><ele>158.942</ele><time>2026-08-16T15:48:21.793Z</time><hdop>3.0</hdop><vdop>2.5</vdop><extensions><gom:speed>0.865</gom:speed></extensions></trkpt>
   <trkpt lat="59.2981569909" lon="34.6708512712"><ele>159.077</ele><time>2026-08-16T15:48:22.549Z</time><hdop>3.0</hdop><vdop>2.5</vdop><extensions><gom:speed>0.866</gom:speed></extensions></trkpt>
   <trkpt lat="59.2981546859" lon="34.6708598208"><ele>159.158</ele><time>2026-08-16T15:48:23.128Z</time><hdop>3.0</hdop><vdop>2.5</vdop><extensions><gom:speed>0.876</gom:speed></extensions></trkpt>
   <trkpt lat="59.2981505788" lon="34.6708719745"><ele>159.243</ele><time>2026-08-16T15:48:23.974Z</time><hdop>3.0</hdop><vdop>2.5</vdop><extensions><gom:speed>0.893</gom:speed></extensions></trkpt>
   <trkpt lat="59.2981488605" lon="34.6708803564"><ele>159.261</ele><time>2026-08-16T15:48:24.494Z</time><hdop>3.0</hdop><vdop>2.5</vdop><extensions><gom:speed>0.908</gom:speed></extensions></trkpt>
   <trkpt lat="59.2981473936" lon="34.6708909176"><ele>159.38</ele><time>2026-08-16T15:48:25.136Z</time><hdop>3.0</hdop><vdop>2.5</vdop><extensions><gom:speed>0.881</gom:speed></extensions></trkpt>
   <trkpt lat="59.2981458849" lon="34.6709049992"><ele>159.451</ele><time>2026-08-16T15:48:25.927Z</time><hdop>3.0</hdop><vdop>2.5</vdop><extensions><gom:speed>0.886</gom:speed></extensions></trkpt>
   <trkpt lat="59.2981466812" lon="34.6709192485"><ele>159.37</ele><time>2026-08-16T15:48:26.771Z</time><hdop>3.0</hdop><vdop>2.5</vdop><extensions><gom:speed>0.908</gom:speed></extensions></trkpt>
   <trkpt lat="59.2981497825" lon="34.6709263731"><ele>159.179</ele><time>2026-08-16T15:48:27.311Z</time><hdop>3.0</hdop><vdop>2.5</vdop><extensions><gom:speed>0.895</gom:speed></extensions></trkpt>
   <trkpt lat="59.2981547697" lon="34.6709355932"><ele>158.893</ele><time>2026-08-16T15:48:28.136Z</time><hdop>3.0</hdop><vdop>2.5</vdop><extensions><gom:speed>0.842</gom:speed></extensions></trkpt>
   <trkpt lat="59.2981593798" lon="34.6709423825"><ele>158.721</ele><time>2026-08-16T15:48:28.852Z</time><hdop>3.0</hdop><vdop>2.5</vdop><extensions><gom:speed>0.819</gom:speed></extensions></trkpt>
   <trkpt lat="59.298162984" lon="34.670949591"><ele>158.497</ele><time>2026-08-16T15:48:29.647Z</time><hdop>3.0</hdop><vdop>2.5</vdop><extensions><gom:speed>0.758</gom:speed></extensions></trkpt>
   <trkpt lat="59.2981635707" lon="34.6709547877"><ele>158.329</ele><time>2026-08-16T15:48:30.136Z</time><hdop>3.0</hdop><vdop>2.5</vdop><extensions><gom:speed>0.728</gom:speed></extensions></trkpt>
   <trkpt lat="59.2981623972" lon="34.6709675282"><ele>158.363</ele><time>2026-08-16T15:48:31.136Z</time><hdop>3.0</hdop><vdop>2.5</vdop><extensions><gom:speed>0.744</gom:speed></extensions></trkpt>
   <trkpt lat="59.2981603856" lon="34.6709813584"><ele>158.424</ele><time>2026-08-16T15:48:32.136Z</time><hdop>3.0</hdop><vdop>2.5</vdop><extensions><gom:speed>0.738</gom:speed></extensions></trkpt>
   <trkpt lat="59.2981608885" lon="34.6709934283"><ele>158.46</ele><time>2026-08-16T15:48:32.955Z</time><hdop>3.0</hdop><vdop>2.5</vdop><extensions><gom:speed>0.76</gom:speed></extensions></trkpt>
   <trkpt lat="59.2981589607" lon="34.6710125391"><ele>158.097</ele><time>2026-08-16T15:48:34.136Z</time><hdop>3.0</hdop><vdop>2.5</vdop><extensions><gom:speed>0.791</gom:speed></extensions></trkpt>
   <trkpt lat="59.2981558594" lon="34.6710243575"><ele>157.879</ele><time>2026-08-16T15:48:34.868Z</time><hdop>3.0</hdop><vdop>2.5</vdop><extensions><gom:speed>0.828</gom:speed></extensions></trkpt>
   <trkpt lat="59.2981517941" lon="34.67103802"><ele>157.833</ele><time>2026-08-16T15:48:35.674Z</time><hdop>3.0</hdop><vdop>2.5</vdop><extensions><gom:speed>0.897</gom:speed></extensions></trkpt>
   <trkpt lat="59.2981493634" lon="34.6710451447"><ele>157.537</ele><time>2026-08-16T15:48:36.136Z</time><hdop>3.0</hdop><vdop>2.5</vdop><extensions><gom:speed>0.874</gom:speed></extensions></trkpt>
   <trkpt lat="59.2981454658" lon="34.671056544"><ele>157.36</ele><time>2026-08-16T15:48:36.911Z</time><hdop>3.0</hdop><vdop>2.5</vdop><extensions><gom:speed>0.901</gom:speed></extensions></trkpt>
   <trkpt lat="59.2981422807" lon="34.6710651774"><ele>157.509</ele><time>2026-08-16T15:48:37.411Z</time><hdop>3.0</hdop><vdop>2.5</vdop><extensions><gom:speed>0.956</gom:speed></extensions></trkpt>
   <trkpt lat="59.298137964" lon="34.6710768283"><ele>157.522</ele><time>2026-08-16T15:48:38.136Z</time><hdop>3.0</hdop><vdop>2.5</vdop><extensions><gom:speed>0.954</gom:speed></extensions></trkpt>
   <trkpt lat="59.2981340664" lon="34.6710867189"><ele>157.53</ele><time>2026-08-16T15:48:38.746Z</time><hdop>3.0</hdop><vdop>2.5</vdop><extensions><gom:speed>0.997</gom:speed></extensions></trkpt>
   <trkpt lat="59.2981281991" lon="34.6710982859"><ele>157.548</ele><time>2026-08-16T15:48:39.571Z</time><hdop>3.0</hdop><vdop>2.5</vdop><extensions><gom:speed>0.999</gom:speed></extensions></trkpt>
   <trkpt lat="59.2981249721" lon="34.6711054944"><ele>157.558</ele><time>2026-08-16T15:48:40.051Z</time><hdop>3.0</hdop><vdop>2.5</vdop><extensions><gom:speed>0.998</gom:speed></extensions></trkpt>
   <trkpt lat="59.2981197753" lon="34.6711210847"><ele>157.49</ele><time>2026-08-16T15:48:41.136Z</time><hdop>3.0</hdop><vdop>2.5</vdop><extensions><gom:speed>0.968</gom:speed></extensions></trkpt>
   <trkpt lat="59.2981151652" lon="34.6711355854"><ele>157.377</ele><time>2026-08-16T15:48:42.136Z</time><hdop>3.0</hdop><vdop>2.5</vdop><extensions><gom:speed>0.973</gom:speed></extensions></trkpt>
   <trkpt lat="59.2981129859" lon="34.6711438835"><ele>157.31</ele><time>2026-08-16T15:48:42.634Z</time><hdop>3.0</hdop><vdop>2.5</vdop><extensions><gom:speed>1.008</gom:speed></extensions></trkpt>
   <trkpt lat="59.2981126926" lon="34.6711521816"><ele>157.221</ele><time>2026-08-16T15:48:43.136Z</time><hdop>3.0</hdop><vdop>2.5</vdop><extensions><gom:speed>0.941</gom:speed></extensions></trkpt>
   <trkpt lat="59.2981107647" lon="34.6711687777"><ele>157.168</ele><time>2026-08-16T15:48:44.086Z</time><hdop>3.0</hdop><vdop>2.5</vdop><extensions><gom:speed>0.947</gom:speed></extensions></trkpt>
   <trkpt lat="59.2981088788" lon="34.6711805962"><ele>157.186</ele><time>2026-08-16T15:48:45.136Z</time><hdop>3.0</hdop><vdop>2.5</vdop><extensions><gom:speed>0.9</gom:speed></extensions></trkpt>
   <trkpt lat="59.2981033887" lon="34.6711925823"><ele>157.197</ele><time>2026-08-16T15:48:46.128Z</time><hdop>3.0</hdop><vdop>2.5</vdop><extensions><gom:speed>0.905</gom:speed></extensions></trkpt>
   <trkpt lat="59.2980979823" lon="34.6712031435"><ele>157.164</ele><time>2026-08-16T15:48:47.136Z</time><hdop>3.0</hdop><vdop>2.5</vdop><extensions><gom:speed>0.939</gom:speed></extensions></trkpt>
   <trkpt lat="59.2980932885" lon="34.6712135371"><ele>157.144</ele><time>2026-08-16T15:48:47.914Z</time><hdop>3.0</hdop><vdop>2.5</vdop><extensions><gom:speed>0.979</gom:speed></extensions></trkpt>
   <trkpt lat="59.2980913606" lon="34.6712243498"><ele>157.071</ele><time>2026-08-16T15:48:48.709Z</time><hdop>3.0</hdop><vdop>2.5</vdop><extensions><gom:speed>0.969</gom:speed></extensions></trkpt>
   <trkpt lat="59.2980914863" lon="34.6712313905"><ele>156.881</ele><time>2026-08-16T15:48:49.190Z</time><hdop>3.0</hdop><vdop>2.5</vdop><extensions><gom:speed>0.956</gom:speed></extensions></trkpt>
   <trkpt lat="59.298088888" lon="34.6712445501"><ele>156.768</ele><time>2026-08-16T15:48:49.985Z</time><hdop>3.0</hdop><vdop>2.5</vdop><extensions><gom:speed>0.997</gom:speed></extensions></trkpt>
   <trkpt lat="59.2980862896" lon="34.6712514233"><ele>156.635</ele><time>2026-08-16T15:48:50.535Z</time><hdop>3.0</hdop><vdop>2.5</vdop><extensions><gom:speed>1.0</gom:speed></extensions></trkpt>
   <trkpt lat="59.2980827692" lon="34.6712577935"><ele>156.685</ele><time>2026-08-16T15:48:51.136Z</time><hdop>3.0</hdop><vdop>2.5</vdop><extensions><gom:speed>0.987</gom:speed></extensions></trkpt>
   <trkpt lat="59.2980780753" lon="34.6712671813"><ele>156.716</ele><time>2026-08-16T15:48:51.831Z</time><hdop>3.0</hdop><vdop>2.5</vdop><extensions><gom:speed>1.015</gom:speed></extensions></trkpt>
   <trkpt lat="59.2980745968" lon="34.6712776587"><ele>156.585</ele><time>2026-08-16T15:48:52.646Z</time><hdop>3.0</hdop><vdop>2.5</vdop><extensions><gom:speed>0.97</gom:speed></extensions></trkpt>
   <trkpt lat="59.2980740939" lon="34.6712847833"><ele>156.632</ele><time>2026-08-16T15:48:53.136Z</time><hdop>3.0</hdop><vdop>2.5</vdop><extensions><gom:speed>0.937</gom:speed></extensions></trkpt>
   <trkpt lat="59.2980727947" lon="34.671301128"><ele>156.66</ele><time>2026-08-16T15:48:54.128Z</time><hdop>3.0</hdop><vdop>2.5</vdop><extensions><gom:speed>0.896</gom:speed></extensions></trkpt>
   <trkpt lat="59.2980700706" lon="34.6713032235"><ele>156.642</ele><time>2026-08-16T15:48:54.992Z</time><hdop>3.0</hdop><vdop>2.5</vdop><extensions><gom:speed>0.681</gom:speed></extensions></trkpt>
   <trkpt lat="59.2980693581" lon="34.6712918241"><ele>156.602</ele><time>2026-08-16T15:48:56.136Z</time><hdop>3.0</hdop><vdop>2.5</vdop><extensions><gom:speed>0.288</gom:speed></extensions></trkpt>
   <trkpt lat="59.2980701963" lon="34.6712851185"><ele>156.579</ele><time>2026-08-16T15:48:57.135Z</time><hdop>3.0</hdop><vdop>2.5</vdop><extensions><gom:speed>0.166</gom:speed></extensions></trkpt>
   <trkpt lat="59.2980709926" lon="34.67128076"><ele>156.563</ele><time>2026-08-16T15:48:58.136Z</time><hdop>3.0</hdop><vdop>2.5</vdop><extensions><gom:speed>0.08</gom:speed></extensions></trkpt>
   <trkpt lat="59.2980714955" lon="34.6712796703"><ele>156.741</ele><time>2026-08-16T15:48:59.135Z</time><hdop>3.0</hdop><vdop>2.5</vdop><extensions><gom:speed>0.089</gom:speed></extensions></trkpt>
   <trkpt lat="59.2980718727" lon="34.6712798379"><ele>156.972</ele><time>2026-08-16T15:49:00.136Z</time><hdop>3.0</hdop><vdop>2.5</vdop><extensions><gom:speed>0.1</gom:speed></extensions></trkpt>
   <trkpt lat="59.2980720822" lon="34.671281682"><ele>157.135</ele><time>2026-08-16T15:49:01.136Z</time><hdop>3.0</hdop><vdop>2.5</vdop><extensions><gom:speed>0.1</gom:speed></extensions></trkpt>
   <trkpt lat="59.2980722918" lon="34.6712827716"><ele>157.247</ele><time>2026-08-16T15:49:02.136Z</time><hdop>3.0</hdop><vdop>2.5</vdop><extensions><gom:speed>0.073</gom:speed></extensions></trkpt>
   <trkpt lat="59.2980721661" lon="34.6712828554"><ele>157.327</ele><time>2026-08-16T15:49:03.136Z</time><hdop>3.0</hdop><vdop>2.5</vdop><extensions><gom:speed>0.079</gom:speed></extensions></trkpt>
   <trkpt lat="59.2980720822" lon="34.6712828554"><ele>157.408</ele><time>2026-08-16T15:49:04.136Z</time><hdop>3.0</hdop><vdop>2.5</vdop><extensions><gom:speed>0.122</gom:speed></extensions></trkpt>
   <trkpt lat="59.2980713698" lon="34.6712828554"><ele>157.453</ele><time>2026-08-16T15:49:05.136Z</time><hdop>3.0</hdop><vdop>2.5</vdop><extensions><gom:speed>0.112</gom:speed></extensions></trkpt>
   <trkpt lat="59.2980709926" lon="34.6712819334"><ele>157.479</ele><time>2026-08-16T15:49:06.136Z</time><hdop>3.0</hdop><vdop>2.5</vdop><extensions><gom:speed>0.076</gom:speed></extensions></trkpt>
   <trkpt lat="59.298070783" lon="34.671281682"><ele>157.466</ele><time>2026-08-16T15:49:07.135Z</time><hdop>3.0</hdop><vdop>2.5</vdop><extensions><gom:speed>0.078</gom:speed></extensions></trkpt>
   <trkpt lat="59.2980701963" lon="34.671281682"><ele>157.439</ele><time>2026-08-16T15:49:08.136Z</time><hdop>3.0</hdop><vdop>2.5</vdop><extensions><gom:speed>0.094</gom:speed></extensions></trkpt>
   <trkpt lat="59.2980699868" lon="34.671281682"><ele>157.416</ele><time>2026-08-16T15:49:09.136Z</time><hdop>3.0</hdop><vdop>2.5</vdop><extensions><gom:speed>0.093</gom:speed></extensions></trkpt>
   <trkpt lat="59.298069861" lon="34.6712813467"><ele>157.395</ele><time>2026-08-16T15:49:10.136Z</time><hdop>3.0</hdop><vdop>2.5</vdop><extensions><gom:speed>0.065</gom:speed></extensions></trkpt>
   <trkpt lat="59.298069861" lon="34.6712811791"><ele>157.383</ele><time>2026-08-16T15:49:10.795Z</time><hdop>3.0</hdop><vdop>2.5</vdop><extensions><gom:speed>0.088</gom:speed></extensions></trkpt>
   <trkpt lat="59.2980691905" lon="34.6712827716"><ele>157.3</ele><time>2026-08-16T15:49:12.136Z</time><hdop>3.0</hdop><vdop>2.5</vdop><extensions><gom:speed>0.079</gom:speed></extensions></trkpt>
   <trkpt lat="59.2980690648" lon="34.6712836936"><ele>157.247</ele><time>2026-08-16T15:49:13.136Z</time><hdop>3.0</hdop><vdop>2.5</vdop><extensions><gom:speed>0.091</gom:speed></extensions></trkpt>
   <trkpt lat="59.2980692743" lon="34.6712838613"><ele>157.208</ele><time>2026-08-16T15:49:14.136Z</time><hdop>3.0</hdop><vdop>2.5</vdop><extensions><gom:speed>0.096</gom:speed></extensions></trkpt>
   <trkpt lat="59.2980690648" lon="34.6712850347"><ele>157.18</ele><time>2026-08-16T15:49:15.135Z</time><hdop>3.0</hdop><vdop>2.5</vdop><extensions><gom:speed>0.065</gom:speed></extensions></trkpt>
   <trkpt lat="59.2980694839" lon="34.6712856215"><ele>157.156</ele><time>2026-08-16T15:49:16.136Z</time><hdop>3.0</hdop><vdop>2.5</vdop><extensions><gom:speed>0.0</gom:speed></extensions></trkpt>
   <trkpt lat="59.2980696934" lon="34.6712855376"><ele>157.124</ele><time>2026-08-16T15:49:17.136Z</time><hdop>3.0</hdop><vdop>2.5</vdop><extensions><gom:speed>0.015</gom:speed></extensions></trkpt>
   <trkpt lat="59.2980695677" lon="34.6712857891"><ele>156.931</ele><time>2026-08-16T15:49:18.136Z</time><hdop>3.0</hdop><vdop>2.5</vdop><extensions><gom:speed>0.26</gom:speed></extensions></trkpt>
   <trkpt lat="59.2980677656" lon="34.6712878846"><ele>156.785</ele><time>2026-08-16T15:49:19.136Z</time><hdop>3.0</hdop><vdop>2.5</vdop><extensions><gom:speed>0.08</gom:speed></extensions></trkpt>
   <trkpt lat="59.2980671788" lon="34.6712873817"><ele>156.713</ele><time>2026-08-16T15:49:20.135Z</time><hdop>3.0</hdop><vdop>2.5</vdop><extensions><gom:speed>0.341</gom:speed></extensions></trkpt>
   <trkpt lat="59.2980650834" lon="34.6712894771"><ele>156.639</ele><time>2026-08-16T15:49:21.136Z</time><hdop>3.0</hdop><vdop>2.5</vdop><extensions><gom:speed>0.104</gom:speed></extensions></trkpt>
   <trkpt lat="59.29806479" lon="34.6712900639"><ele>156.591</ele><time>2026-08-16T15:49:22.136Z</time><hdop>3.0</hdop><vdop>2.5</vdop><extensions><gom:speed>0.088</gom:speed></extensions></trkpt>
   <trkpt lat="59.2980646643" lon="34.6712905668"><ele>156.556</ele><time>2026-08-16T15:49:23.136Z</time><hdop>3.0</hdop><vdop>2.5</vdop><extensions><gom:speed>0.08</gom:speed></extensions></trkpt>
   <trkpt lat="59.2980646643" lon="34.6712907344"><ele>156.525</ele><time>2026-08-16T15:49:24.136Z</time><hdop>3.0</hdop><vdop>2.5</vdop><extensions><gom:speed>0.073</gom:speed></extensions></trkpt>
   <trkpt lat="59.2980645804" lon="34.6712908182"><ele>156.482</ele><time>2026-08-16T15:49:25.135Z</time><hdop>3.0</hdop><vdop>2.5</vdop><extensions><gom:speed>0.067</gom:speed></extensions></trkpt>
   <trkpt lat="59.2980644966" lon="34.6712908182"><ele>156.46</ele><time>2026-08-16T15:49:26.136Z</time><hdop>3.0</hdop><vdop>2.5</vdop><extensions><gom:speed>0.061</gom:speed></extensions></trkpt>
   <trkpt lat="59.2980643709" lon="34.6712909859"><ele>156.455</ele><time>2026-08-16T15:49:27.136Z</time><hdop>3.0</hdop><vdop>2.5</vdop><extensions><gom:speed>0.06</gom:speed></extensions></trkpt>
   <trkpt lat="59.2980642871" lon="34.6712910697"><ele>156.438</ele><time>2026-08-16T15:49:28.136Z</time><hdop>3.0</hdop><vdop>2.5</vdop><extensions><gom:speed>0.059</gom:speed></extensions></trkpt>
   <trkpt lat="59.2980641613" lon="34.6712912373"><ele>156.411</ele><time>2026-08-16T15:49:29.136Z</time><hdop>3.0</hdop><vdop>2.5</vdop><extensions><gom:speed>0.06</gom:speed></extensions></trkpt>
   <trkpt lat="59.2980640775" lon="34.6712914888"><ele>156.388</ele><time>2026-08-16T15:49:30.136Z</time><hdop>3.0</hdop><vdop>2.5</vdop><extensions><gom:speed>0.061</gom:speed></extensions></trkpt>
   <trkpt lat="59.2980642871" lon="34.6712917403"><ele>156.376</ele><time>2026-08-16T15:49:31.136Z</time><hdop>3.0</hdop><vdop>2.5</vdop><extensions><gom:speed>0.061</gom:speed></extensions></trkpt>
   <trkpt lat="59.2980642871" lon="34.6712922432"><ele>156.467</ele><time>2026-08-16T15:49:32.136Z</time><hdop>3.0</hdop><vdop>2.5</vdop><extensions><gom:speed>0.447</gom:speed></extensions></trkpt>
   <trkpt lat="59.298063868" lon="34.6712972723"><ele>156.509</ele><time>2026-08-16T15:49:33.136Z</time><hdop>3.0</hdop><vdop>2.5</vdop><extensions><gom:speed>0.71</gom:speed></extensions></trkpt>
   <trkpt lat="59.2980649995" lon="34.6713010442"><ele>156.535</ele><time>2026-08-16T15:49:33.626Z</time><hdop>3.0</hdop><vdop>2.5</vdop><extensions><gom:speed>0.71</gom:speed></extensions></trkpt>
   <trkpt lat="59.2980669693" lon="34.6713054866"><ele>156.527</ele><time>2026-08-16T15:49:34.136Z</time><hdop>3.0</hdop><vdop>2.5</vdop><extensions><gom:speed>0.908</gom:speed></extensions></trkpt>
   <trkpt lat="59.2980710764" lon="34.6713170536"><ele>156.592</ele><time>2026-08-16T15:49:35.136Z</time><hdop>3.0</hdop><vdop>2.5</vdop><extensions><gom:speed>0.761</gom:speed></extensions></trkpt>
   <trkpt lat="59.2980728785" lon="34.671321496"><ele>156.63</ele><time>2026-08-16T15:49:35.688Z</time><hdop>3.125</hdop><vdop>2.5</vdop><extensions><gom:speed>0.759</gom:speed></extensions></trkpt>
   <trkpt lat="59.2980782849" lon="34.6713340689"><ele>156.775</ele><time>2026-08-16T15:49:36.630Z</time><hdop>3.25</hdop><vdop>2.5</vdop><extensions><gom:speed>0.918</gom:speed></extensions></trkpt>
   <trkpt lat="59.2980815957" lon="34.6713370863"><ele>156.862</ele><time>2026-08-16T15:49:37.131Z</time><hdop>3.375</hdop><vdop>2.5</vdop><extensions><gom:speed>0.917</gom:speed></extensions></trkpt>
   <trkpt lat="59.2980906901" lon="34.6713481505"><ele>157.018</ele><time>2026-08-16T15:49:38.014Z</time><hdop>3.437</hdop><vdop>2.5</vdop><extensions><gom:speed>0.939</gom:speed></extensions></trkpt>
   <trkpt lat="59.2980946715" lon="34.6713543531"><ele>157.15</ele><time>2026-08-16T15:49:38.465Z</time><hdop>3.437</hdop><vdop>2.5</vdop><extensions><gom:speed>0.949</gom:speed></extensions></trkpt>
   <trkpt lat="59.2980994911" lon="34.6713587955"><ele>157.255</ele><time>2026-08-16T15:49:39.136Z</time><hdop>3.437</hdop><vdop>2.5</vdop><extensions><gom:speed>0.889</gom:speed></extensions></trkpt>
   <trkpt lat="59.2981044783" lon="34.6713644952"><ele>157.317</ele><time>2026-08-16T15:49:39.771Z</time><hdop>3.437</hdop><vdop>2.5</vdop><extensions><gom:speed>0.919</gom:speed></extensions></trkpt>
   <trkpt lat="59.2981157939" lon="34.6713745535"><ele>157.212</ele><time>2026-08-16T15:49:41.136Z</time><hdop>3.375</hdop><vdop>2.5</vdop><extensions><gom:speed>0.88</gom:speed></extensions></trkpt>
   <trkpt lat="59.2981214936" lon="34.6713767327"><ele>157.149</ele><time>2026-08-16T15:49:41.852Z</time><hdop>3.312</hdop><vdop>2.5</vdop><extensions><gom:speed>0.848</gom:speed></extensions></trkpt>
   <trkpt lat="59.2981264808" lon="34.6713792473"><ele>157.134</ele><time>2026-08-16T15:49:42.372Z</time><hdop>3.187</hdop><vdop>2.5</vdop><extensions><gom:speed>0.922</gom:speed></extensions></trkpt>
   <trkpt lat="59.298131468" lon="34.671381259"><ele>157.124</ele><time>2026-08-16T15:49:42.912Z</time><hdop>3.187</hdop><vdop>2.5</vdop><extensions><gom:speed>0.915</gom:speed></extensions></trkpt>
   <trkpt lat="59.2981380897" lon="34.6713859528"><ele>156.991</ele><time>2026-08-16T15:49:43.727Z</time><hdop>3.062</hdop><vdop>2.5</vdop><extensions><gom:speed>0.888</gom:speed></extensions></trkpt>
   <trkpt lat="59.2981426998" lon="34.6713890541"><ele>156.874</ele><time>2026-08-16T15:49:44.375Z</time><hdop>3.062</hdop><vdop>2.5</vdop><extensions><gom:speed>0.816</gom:speed></extensions></trkpt>
   <trkpt lat="59.2981471841" lon="34.6713906467"><ele>156.875</ele><time>2026-08-16T15:49:45.136Z</time><hdop>3.062</hdop><vdop>2.5</vdop><extensions><gom:speed>0.695</gom:speed></extensions></trkpt>
   <trkpt lat="59.2981498663" lon="34.6713896409"><ele>156.832</ele><time>2026-08-16T15:49:46.136Z</time><hdop>3.062</hdop><vdop>2.5</vdop><extensions><gom:speed>0.47</gom:speed></extensions></trkpt>
   <trkpt lat="59.2981512912" lon="34.6713863719"><ele>156.829</ele><time>2026-08-16T15:49:47.136Z</time><hdop>3.0</hdop><vdop>2.5</vdop><extensions><gom:speed>0.33</gom:speed></extensions></trkpt>
   <trkpt lat="59.298151375" lon="34.6713859528"><ele>156.759</ele><time>2026-08-16T15:49:48.136Z</time><hdop>3.0</hdop><vdop>2.5</vdop><extensions><gom:speed>0.212</gom:speed></extensions></trkpt>
   <trkpt lat="59.2981517941" lon="34.6713870425"><ele>156.718</ele><time>2026-08-16T15:49:49.008Z</time><hdop>3.0</hdop><vdop>2.5</vdop><extensions><gom:speed>0.17</gom:speed></extensions></trkpt>
   <trkpt lat="59.2981529676" lon="34.6713885512"><ele>156.752</ele><time>2026-08-16T15:49:49.950Z</time><hdop>3.0</hdop><vdop>2.5</vdop><extensions><gom:speed>0.181</gom:speed></extensions></trkpt>
   <trkpt lat="59.2981554822" lon="34.671390982"><ele>156.864</ele><time>2026-08-16T15:49:50.529Z</time><hdop>3.0</hdop><vdop>2.5</vdop><extensions><gom:speed>0.249</gom:speed></extensions></trkpt>
   <trkpt lat="59.2981585835" lon="34.6713927422"><ele>156.954</ele><time>2026-08-16T15:49:51.136Z</time><hdop>3.0</hdop><vdop>2.5</vdop><extensions><gom:speed>0.321</gom:speed></extensions></trkpt>
   <trkpt lat="59.2981648699" lon="34.6713956759"><ele>156.799</ele><time>2026-08-16T15:49:52.136Z</time><hdop>3.0</hdop><vdop>2.5</vdop><extensions><gom:speed>0.455</gom:speed></extensions></trkpt>
   <trkpt lat="59.2981729584" lon="34.6714002859"><ele>157.096</ele><time>2026-08-16T15:49:53.136Z</time><hdop>3.0</hdop><vdop>2.5</vdop><extensions><gom:speed>0.579</gom:speed></extensions></trkpt>
   <trkpt lat="59.2981811727" lon="34.6714066561"><ele>157.273</ele><time>2026-08-16T15:49:54.112Z</time><hdop>3.0</hdop><vdop>2.5</vdop><extensions><gom:speed>0.661</gom:speed></extensions></trkpt>
   <trkpt lat="59.2981910634" lon="34.671419229"><ele>157.666</ele><time>2026-08-16T15:49:55.136Z</time><hdop>3.0</hdop><vdop>2.5</vdop><extensions><gom:speed>0.763</gom:speed></extensions></trkpt>
   <trkpt lat="59.2981969726" lon="34.6714285329"><ele>157.901</ele><time>2026-08-16T15:49:55.928Z</time><hdop>3.0</hdop><vdop>2.5</vdop><extensions><gom:speed>0.766</gom:speed></extensions></trkpt>
   <trkpt lat="59.2982064861" lon="34.6714362443"><ele>158.24</ele><time>2026-08-16T15:49:56.752Z</time><hdop>3.0</hdop><vdop>2.562</vdop><extensions><gom:speed>0.842</gom:speed></extensions></trkpt>
   <trkpt lat="59.2982163767" lon="34.6714399323"><ele>158.644</ele><time>2026-08-16T15:49:57.606Z</time><hdop>3.0</hdop><vdop>2.562</vdop><extensions><gom:speed>0.828</gom:speed></extensions></trkpt>
   <trkpt lat="59.2982207772" lon="34.6714403514"><ele>158.886</ele><time>2026-08-16T15:49:58.107Z</time><hdop>3.0</hdop><vdop>2.562</vdop><extensions><gom:speed>0.835</gom:speed></extensions></trkpt>
   <trkpt lat="59.2982317994" lon="34.6714406867"><ele>159.31</ele><time>2026-08-16T15:49:59.108Z</time><hdop>3.0</hdop><vdop>2.5</vdop><extensions><gom:speed>0.873</gom:speed></extensions></trkpt>
   <trkpt lat="59.2982388821" lon="34.6714409381"><ele>159.662</ele><time>2026-08-16T15:49:59.628Z</time><hdop>3.0</hdop><vdop>2.562</vdop><extensions><gom:speed>0.909</gom:speed></extensions></trkpt>
   <trkpt lat="59.2982450847" lon="34.6714432851"><ele>160.045</ele><time>2026-08-16T15:50:00.136Z</time><hdop>3.0</hdop><vdop>2.562</vdop><extensions><gom:speed>0.936</gom:speed></extensions></trkpt>
   <trkpt lat="59.2982525865" lon="34.6714487333"><ele>160.273</ele><time>2026-08-16T15:50:00.914Z</time><hdop>3.0</hdop><vdop>2.562</vdop><extensions><gom:speed>0.904</gom:speed></extensions></trkpt>
   <trkpt lat="59.2982596692" lon="34.6714552712"><ele>160.386</ele><time>2026-08-16T15:50:01.709Z</time><hdop>3.0</hdop><vdop>2.625</vdop><extensions><gom:speed>0.875</gom:speed></extensions></trkpt>
   <trkpt lat="59.298263483" lon="34.6714587916"><ele>160.473</ele><time>2026-08-16T15:50:02.210Z</time><hdop>3.0</hdop><vdop>2.75</vdop><extensions><gom:speed>0.85</gom:speed></extensions></trkpt>
   <trkpt lat="59.2982700628" lon="34.6714631502"><ele>160.524</ele><time>2026-08-16T15:50:03.093Z</time><hdop>3.062</hdop><vdop>2.75</vdop><extensions><gom:speed>0.831</gom:speed></extensions></trkpt>
   <trkpt lat="59.2982733736" lon="34.6714619767"><ele>160.259</ele><time>2026-08-16T15:50:03.612Z</time><hdop>3.062</hdop><vdop>2.687</vdop><extensions><gom:speed>0.757</gom:speed></extensions></trkpt>
   <trkpt lat="59.2982763911" lon="34.6714603841"><ele>160.133</ele><time>2026-08-16T15:50:04.136Z</time><hdop>3.0</hdop><vdop>2.75</vdop><extensions><gom:speed>0.722</gom:speed></extensions></trkpt>
   <trkpt lat="59.298282468" lon="34.6714572828"><ele>160.058</ele><time>2026-08-16T15:50:04.988Z</time><hdop>3.0</hdop><vdop>2.75</vdop><extensions><gom:speed>0.764</gom:speed></extensions></trkpt>
   <trkpt lat="59.2982883773" lon="34.6714541815"><ele>159.76</ele><time>2026-08-16T15:50:05.851Z</time><hdop>3.0</hdop><vdop>2.562</vdop><extensions><gom:speed>0.767</gom:speed></extensions></trkpt>
   <trkpt lat="59.2982938674" lon="34.671451667"><ele>159.653</ele><time>2026-08-16T15:50:06.666Z</time><hdop>3.0</hdop><vdop>2.625</vdop><extensions><gom:speed>0.765</gom:speed></extensions></trkpt>
   <trkpt lat="59.2982961724" lon="34.6714519184"><ele>159.631</ele><time>2026-08-16T15:50:07.136Z</time><hdop>3.0</hdop><vdop>2.562</vdop><extensions><gom:speed>0.71</gom:speed></extensions></trkpt>
   <trkpt lat="59.2982995671" lon="34.6714521699"><ele>159.617</ele><time>2026-08-16T15:50:07.795Z</time><hdop>3.0</hdop><vdop>2.562</vdop><extensions><gom:speed>0.655</gom:speed></extensions></trkpt>
   <trkpt lat="59.2983038838" lon="34.6714529242"><ele>159.516</ele><time>2026-08-16T15:50:09.136Z</time><hdop>3.0</hdop><vdop>2.5</vdop><extensions><gom:speed>0.446</gom:speed></extensions></trkpt>
   <trkpt lat="59.2983044705" lon="34.6714495715"><ele>159.455</ele><time>2026-08-16T15:50:09.650Z</time><hdop>3.0</hdop><vdop>2.5</vdop><extensions><gom:speed>0.389</gom:speed></extensions></trkpt>
   <trkpt lat="59.2983045962" lon="34.6714490686"><ele>159.531</ele><time>2026-08-16T15:50:10.136Z</time><hdop>3.0</hdop><vdop>2.5</vdop><extensions><gom:speed>0.409</gom:speed></extensions></trkpt>
   <trkpt lat="59.2983073623" lon="34.6714548521"><ele>159.52</ele><time>2026-08-16T15:50:11.136Z</time><hdop>3.0</hdop><vdop>2.625</vdop><extensions><gom:speed>0.462</gom:speed></extensions></trkpt>
   <trkpt lat="59.2983117628" lon="34.6714594621"><ele>159.513</ele><time>2026-08-16T15:50:12.094Z</time><hdop>3.0</hdop><vdop>2.625</vdop><extensions><gom:speed>0.486</gom:speed></extensions></trkpt>
   <trkpt lat="59.2983172948" lon="34.6714634854"><ele>159.522</ele><time>2026-08-16T15:50:12.673Z</time><hdop>3.0</hdop><vdop>2.937</vdop><extensions><gom:speed>0.638</gom:speed></extensions></trkpt>
   <trkpt lat="59.2983207733" lon="34.6714674249"><ele>159.393</ele><time>2026-08-16T15:50:13.136Z</time><hdop>3.0</hdop><vdop>2.625</vdop><extensions><gom:speed>0.643</gom:speed></extensions></trkpt>
   <trkpt lat="59.2983280656" lon="34.6714736276"><ele>159.014</ele><time>2026-08-16T15:50:14.136Z</time><hdop>3.0</hdop><vdop>2.5</vdop><extensions><gom:speed>0.696</gom:speed></extensions></trkpt>
   <trkpt lat="59.2983345615" lon="34.6714753878"><ele>158.788</ele><time>2026-08-16T15:50:14.970Z</time><hdop>3.0</hdop><vdop>2.5</vdop><extensions><gom:speed>0.74</gom:speed></extensions></trkpt>
   <trkpt lat="59.2983405965" lon="34.6714777347"><ele>158.754</ele><time>2026-08-16T15:50:15.746Z</time><hdop>3.0</hdop><vdop>2.5</vdop><extensions><gom:speed>0.765</gom:speed></extensions></trkpt>
   <trkpt lat="59.2983464638" lon="34.6714818418"><ele>158.697</ele><time>2026-08-16T15:50:16.492Z</time><hdop>3.0</hdop><vdop>2.625</vdop><extensions><gom:speed>0.801</gom:speed></extensions></trkpt>
   <trkpt lat="59.2983508643" lon="34.6714835182"><ele>158.663</ele><time>2026-08-16T15:50:17.012Z</time><hdop>3.0</hdop><vdop>2.625</vdop><extensions><gom:speed>0.807</gom:speed></extensions></trkpt>
   <trkpt lat="59.2983567736" lon="34.6714837697"><ele>158.903</ele><time>2026-08-16T15:50:17.846Z</time><hdop>3.0</hdop><vdop>2.562</vdop><extensions><gom:speed>0.806</gom:speed></extensions></trkpt>
   <trkpt lat="59.2983605874" lon="34.6714804169"><ele>159.062</ele><time>2026-08-16T15:50:18.455Z</time><hdop>3.0</hdop><vdop>2.562</vdop><extensions><gom:speed>0.864</gom:speed></extensions></trkpt>
   <trkpt lat="59.2983650717" lon="34.6714772318"><ele>158.983</ele><time>2026-08-16T15:50:19.136Z</time><hdop>3.0</hdop><vdop>2.5</vdop><extensions><gom:speed>0.846</gom:speed></extensions></trkpt>
   <trkpt lat="59.2983695979" lon="34.671475723"><ele>158.935</ele><time>2026-08-16T15:50:19.691Z</time><hdop>3.0</hdop><vdop>2.5</vdop><extensions><gom:speed>0.879</gom:speed></extensions></trkpt>
   <trkpt lat="59.298374166" lon="34.6714734599"><ele>158.961</ele><time>2026-08-16T15:50:20.369Z</time><hdop>3.0</hdop><vdop>2.687</vdop><extensions><gom:speed>0.92</gom:speed></extensions></trkpt>
   <trkpt lat="59.2983800753" lon="34.6714743819"><ele>158.976</ele><time>2026-08-16T15:50:21.026Z</time><hdop>3.0</hdop><vdop>2.687</vdop><extensions><gom:speed>0.94</gom:speed></extensions></trkpt>
   <trkpt lat="59.2983867808" lon="34.6714772318"><ele>158.846</ele><time>2026-08-16T15:50:21.792Z</time><hdop>3.0</hdop><vdop>2.562</vdop><extensions><gom:speed>1.004</gom:speed></extensions></trkpt>
   <trkpt lat="59.2983904688" lon="34.6714751363"><ele>158.837</ele><time>2026-08-16T15:50:22.253Z</time><hdop>3.0</hdop><vdop>2.562</vdop><extensions><gom:speed>0.963</gom:speed></extensions></trkpt>
   <trkpt lat="59.298396881" lon="34.6714725379"><ele>158.831</ele><time>2026-08-16T15:50:22.911Z</time><hdop>3.0</hdop><vdop>2.562</vdop><extensions><gom:speed>1.01</gom:speed></extensions></trkpt>
   <trkpt lat="59.29840476" lon="34.6714603841"><ele>158.598</ele><time>2026-08-16T15:50:24.136Z</time><hdop>3.0</hdop><vdop>2.75</vdop><extensions><gom:speed>0.877</gom:speed></extensions></trkpt>
   <trkpt lat="59.2984101663" lon="34.6714557741"><ele>158.459</ele><time>2026-08-16T15:50:24.874Z</time><hdop>3.0</hdop><vdop>2.75</vdop><extensions><gom:speed>0.875</gom:speed></extensions></trkpt>
   <trkpt lat="59.2984165785" lon="34.6714524213"><ele>158.645</ele><time>2026-08-16T15:50:25.708Z</time><hdop>3.0</hdop><vdop>3.0</vdop><extensions><gom:speed>0.851</gom:speed></extensions></trkpt>
   <trkpt lat="59.2984265948" lon="34.6714490686"><ele>158.837</ele><time>2026-08-16T15:50:26.926Z</time><hdop>3.0</hdop><vdop>2.937</vdop><extensions><gom:speed>0.884</gom:speed></extensions></trkpt>
   <trkpt lat="59.2984312887" lon="34.6714494877"><ele>159.146</ele><time>2026-08-16T15:50:27.446Z</time><hdop>3.0</hdop><vdop>2.937</vdop><extensions><gom:speed>0.887</gom:speed></extensions></trkpt>
   <trkpt lat="59.2984375751" lon="34.6714499906"><ele>159.331</ele><time>2026-08-16T15:50:28.133Z</time><hdop>3.0</hdop><vdop>2.937</vdop><extensions><gom:speed>0.889</gom:speed></extensions></trkpt>
   <trkpt lat="59.2984415984" lon="34.671450242"><ele>159.355</ele><time>2026-08-16T15:50:28.614Z</time><hdop>3.0</hdop><vdop>2.937</vdop><extensions><gom:speed>0.905</gom:speed></extensions></trkpt>
   <trkpt lat="59.2984463761" lon="34.6714505773"><ele>159.894</ele><time>2026-08-16T15:50:29.136Z</time><hdop>3.0</hdop><vdop>2.875</vdop><extensions><gom:speed>0.892</gom:speed></extensions></trkpt>
   <trkpt lat="59.2984538779" lon="34.6714486495"><ele>160.217</ele><time>2026-08-16T15:50:29.910Z</time><hdop>3.0</hdop><vdop>2.875</vdop><extensions><gom:speed>0.947</gom:speed></extensions></trkpt>
   <trkpt lat="59.2984622598" lon="34.6714455482"><ele>160.703</ele><time>2026-08-16T15:50:30.813Z</time><hdop>3.0</hdop><vdop>2.875</vdop><extensions><gom:speed>0.923</gom:speed></extensions></trkpt>
   <trkpt lat="59.2984715637" lon="34.6714397647"><ele>161.129</ele><time>2026-08-16T15:50:32.030Z</time><hdop>3.0</hdop><vdop>2.5</vdop><extensions><gom:speed>0.853</gom:speed></extensions></trkpt>
   <trkpt lat="59.2984740783" lon="34.6714379206"><ele>161.866</ele><time>2026-08-16T15:50:32.511Z</time><hdop>3.0</hdop><vdop>2.5</vdop><extensions><gom:speed>0.812</gom:speed></extensions></trkpt>
   <trkpt lat="59.2984777664" lon="34.6714360766"><ele>162.171</ele><time>2026-08-16T15:50:33.136Z</time><hdop>3.0</hdop><vdop>2.5</vdop><extensions><gom:speed>0.803</gom:speed></extensions></trkpt>
   <trkpt lat="59.2984836756" lon="34.6714338973"><ele>162.353</ele><time>2026-08-16T15:50:33.973Z</time><hdop>3.0</hdop><vdop>2.5</vdop><extensions><gom:speed>0.772</gom:speed></extensions></trkpt>
   <trkpt lat="59.2984875732" lon="34.6714353223"><ele>162.169</ele><time>2026-08-16T15:50:34.494Z</time><hdop>3.0</hdop><vdop>2.5</vdop><extensions><gom:speed>0.785</gom:speed></extensions></trkpt>
   <trkpt lat="59.2984925604" lon="34.6714363281"><ele>161.978</ele><time>2026-08-16T15:50:35.136Z</time><hdop>3.0</hdop><vdop>2.5</vdop><extensions><gom:speed>0.797</gom:speed></extensions></trkpt>
   <trkpt lat="59.2984982601" lon="34.6714357413"><ele>161.864</ele><time>2026-08-16T15:50:35.809Z</time><hdop>3.0</hdop><vdop>2.5</vdop><extensions><gom:speed>0.801</gom:speed></extensions></trkpt>
   <trkpt lat="59.2985058876" lon="34.6714383397"><ele>161.647</ele><time>2026-08-16T15:50:36.594Z</time><hdop>3.0</hdop><vdop>2.562</vdop><extensions><gom:speed>0.838</gom:speed></extensions></trkpt>
   <trkpt lat="59.298510372" lon="34.6714380883"><ele>161.518</ele><time>2026-08-16T15:50:37.095Z</time><hdop>3.0</hdop><vdop>2.562</vdop><extensions><gom:speed>0.832</gom:speed></extensions></trkpt>
   <trkpt lat="59.2985184605" lon="34.6714375854"><ele>161.437</ele><time>2026-08-16T15:50:37.811Z</time><hdop>3.0</hdop><vdop>2.5</vdop><extensions><gom:speed>0.924</gom:speed></extensions></trkpt>
   <trkpt lat="59.2985243697" lon="34.6714384236"><ele>161.396</ele><time>2026-08-16T15:50:38.312Z</time><hdop>3.0</hdop><vdop>2.5</vdop><extensions><gom:speed>0.929</gom:speed></extensions></trkpt>
   <trkpt lat="59.2985321649" lon="34.671436831"><ele>161.371</ele><time>2026-08-16T15:50:39.048Z</time><hdop>3.0</hdop><vdop>2.5</vdop><extensions><gom:speed>1.009</gom:speed></extensions></trkpt>
   <trkpt lat="59.2985433967" lon="34.6714468893"><ele>160.7</ele><time>2026-08-16T15:50:40.136Z</time><hdop>3.0</hdop><vdop>2.5</vdop><extensions><gom:speed>0.97</gom:speed></extensions></trkpt>
   <trkpt lat="59.2985486773" lon="34.671450242"><ele>160.3</ele><time>2026-08-16T15:50:40.609Z</time><hdop>3.0</hdop><vdop>2.5</vdop><extensions><gom:speed>1.062</gom:speed></extensions></trkpt>
   <trkpt lat="59.2985536645" lon="34.6714528404"><ele>159.765</ele><time>2026-08-16T15:50:41.136Z</time><hdop>3.0</hdop><vdop>2.5</vdop><extensions><gom:speed>1.012</gom:speed></extensions></trkpt>
   <trkpt lat="59.2985608729" lon="34.6714543492"><ele>159.445</ele><time>2026-08-16T15:50:41.806Z</time><hdop>3.0</hdop><vdop>2.5</vdop><extensions><gom:speed>1.066</gom:speed></extensions></trkpt>
   <trkpt lat="59.2985729848" lon="34.6714552712"><ele>159.336</ele><time>2026-08-16T15:50:43.014Z</time><hdop>3.0</hdop><vdop>2.5</vdop><extensions><gom:speed>1.091</gom:speed></extensions></trkpt>
   <trkpt lat="59.2985831688" lon="34.6714570314"><ele>159.414</ele><time>2026-08-16T15:50:44.136Z</time><hdop>3.0</hdop><vdop>2.5</vdop><extensions><gom:speed>1.067</gom:speed></extensions></trkpt>
   <trkpt lat="59.2985922632" lon="34.6714585401"><ele>159.461</ele><time>2026-08-16T15:50:44.986Z</time><hdop>3.0</hdop><vdop>2.5</vdop><extensions><gom:speed>1.076</gom:speed></extensions></trkpt>
   <trkpt lat="59.2985961607" lon="34.6714614738"><ele>159.349</ele><time>2026-08-16T15:50:45.467Z</time><hdop>3.0</hdop><vdop>2.5</vdop><extensions><gom:speed>0.988</gom:speed></extensions></trkpt>
   <trkpt lat="59.2986016928" lon="34.6714633178"><ele>159.228</ele><time>2026-08-16T15:50:46.136Z</time><hdop>3.0</hdop><vdop>2.5</vdop><extensions><gom:speed>0.963</gom:speed></extensions></trkpt>
   <trkpt lat="59.2986071829" lon="34.6714635693"><ele>159.156</ele><time>2026-08-16T15:50:46.714Z</time><hdop>3.0</hdop><vdop>2.5</vdop><extensions><gom:speed>0.979</gom:speed></extensions></trkpt>
   <trkpt lat="59.2986136789" lon="34.6714629825"><ele>159.073</ele><time>2026-08-16T15:50:47.450Z</time><hdop>3.0</hdop><vdop>2.5</vdop><extensions><gom:speed>0.978</gom:speed></extensions></trkpt>
   <trkpt lat="59.2986186661" lon="34.6714620605"><ele>159.023</ele><time>2026-08-16T15:50:47.970Z</time><hdop>3.0</hdop><vdop>2.5</vdop><extensions><gom:speed>0.973</gom:speed></extensions></trkpt>
   <trkpt lat="59.298625665" lon="34.6714584563"><ele>158.969</ele><time>2026-08-16T15:50:48.746Z</time><hdop>3.0</hdop><vdop>2.5</vdop><extensions><gom:speed>0.995</gom:speed></extensions></trkpt>
   <trkpt lat="59.2986302751" lon="34.6714570314"><ele>158.773</ele><time>2026-08-16T15:50:49.335Z</time><hdop>3.0</hdop><vdop>2.5</vdop><extensions><gom:speed>0.933</gom:speed></extensions></trkpt>
   <trkpt lat="59.2986376931" lon="34.6714577858"><ele>158.656</ele><time>2026-08-16T15:50:50.091Z</time><hdop>3.0</hdop><vdop>2.5</vdop><extensions><gom:speed>0.983</gom:speed></extensions></trkpt>
   <trkpt lat="59.2986420936" lon="34.6714639884"><ele>158.494</ele><time>2026-08-16T15:50:50.630Z</time><hdop>3.0</hdop><vdop>2.5</vdop><extensions><gom:speed>0.972</gom:speed></extensions></trkpt>
   <trkpt lat="59.2986456978" lon="34.6714708615"><ele>158.226</ele><time>2026-08-16T15:50:51.135Z</time><hdop>3.0</hdop><vdop>2.5</vdop><extensions><gom:speed>0.942</gom:speed></extensions></trkpt>
   <trkpt lat="59.2986522776" lon="34.6714794949"><ele>158.066</ele><time>2026-08-16T15:50:52.053Z</time><hdop>3.0</hdop><vdop>2.5</vdop><extensions><gom:speed>0.892</gom:speed></extensions></trkpt>
   <trkpt lat="59.2986545826" lon="34.6714795787"><ele>158.403</ele><time>2026-08-16T15:50:52.515Z</time><hdop>3.0</hdop><vdop>2.5</vdop><extensions><gom:speed>0.757</gom:speed></extensions></trkpt>
   <trkpt lat="59.2986564685" lon="34.6714767289"><ele>158.435</ele><time>2026-08-16T15:50:53.136Z</time><hdop>3.0</hdop><vdop>2.5</vdop><extensions><gom:speed>0.578</gom:speed></extensions></trkpt>
   <trkpt lat="59.298658564" lon="34.6714709453"><ele>158.454</ele><time>2026-08-16T15:50:53.929Z</time><hdop>3.0</hdop><vdop>2.5</vdop><extensions><gom:speed>0.531</gom:speed></extensions></trkpt>
   <trkpt lat="59.2986619587" lon="34.6714630664"><ele>158.665</ele><time>2026-08-16T15:50:55.136Z</time><hdop>3.0</hdop><vdop>2.5</vdop><extensions><gom:speed>0.537</gom:speed></extensions></trkpt>
   <trkpt lat="59.2986641799" lon="34.6714577858"><ele>159.102</ele><time>2026-08-16T15:50:56.136Z</time><hdop>3.0</hdop><vdop>2.5</vdop><extensions><gom:speed>0.473</gom:speed></extensions></trkpt>
   <trkpt lat="59.2986686642" lon="34.6714490686"><ele>159.52</ele><time>2026-08-16T15:50:57.136Z</time><hdop>3.0</hdop><vdop>2.5</vdop><extensions><gom:speed>0.695</gom:speed></extensions></trkpt>
   <trkpt lat="59.2986719751" lon="34.6714455482"><ele>159.61</ele><time>2026-08-16T15:50:58.136Z</time><hdop>3.0</hdop><vdop>2.5</vdop><extensions><gom:speed>0.377</gom:speed></extensions></trkpt>
   <trkpt lat="59.2986730647" lon="34.6714472246"><ele>159.744</ele><time>2026-08-16T15:50:59.136Z</time><hdop>3.0</hdop><vdop>2.5</vdop><extensions><gom:speed>0.189</gom:speed></extensions></trkpt>
   <trkpt lat="59.2986726875" lon="34.6714501582"><ele>159.829</ele><time>2026-08-16T15:51:00.136Z</time><hdop>3.0</hdop><vdop>2.5</vdop><extensions><gom:speed>0.104</gom:speed></extensions></trkpt>
   <trkpt lat="59.2986722684" lon="34.6714521699"><ele>159.861</ele><time>2026-08-16T15:51:01.135Z</time><hdop>3.0</hdop><vdop>2.5</vdop><extensions><gom:speed>0.097</gom:speed></extensions></trkpt>
   <trkpt lat="59.2986715979" lon="34.6714529242"><ele>159.876</ele><time>2026-08-16T15:51:02.136Z</time><hdop>3.0</hdop><vdop>2.5</vdop><extensions><gom:speed>0.093</gom:speed></extensions></trkpt>
   <trkpt lat="59.2986712626" lon="34.6714536786"><ele>159.886</ele><time>2026-08-16T15:51:03.136Z</time><hdop>3.0</hdop><vdop>2.5</vdop><extensions><gom:speed>0.064</gom:speed></extensions></trkpt>
   <trkpt lat="59.2986714721" lon="34.6714523375"><ele>159.876</ele><time>2026-08-16T15:51:04.136Z</time><hdop>3.0</hdop><vdop>2.5</vdop><extensions><gom:speed>0.077</gom:speed></extensions></trkpt>
   <trkpt lat="59.2986715979" lon="34.6714518346"><ele>159.835</ele><time>2026-08-16T15:51:05.135Z</time><hdop>3.0</hdop><vdop>2.5</vdop><extensions><gom:speed>0.093</gom:speed></extensions></trkpt>
   <trkpt lat="59.2986718912" lon="34.671451667"><ele>159.814</ele><time>2026-08-16T15:51:06.136Z</time><hdop>3.0</hdop><vdop>2.5</vdop><extensions><gom:speed>0.09</gom:speed></extensions></trkpt>
   <trkpt lat="59.2986721846" lon="34.6714509964"><ele>159.779</ele><time>2026-08-16T15:51:07.136Z</time><hdop>3.0</hdop><vdop>2.5</vdop><extensions><gom:speed>0.062</gom:speed></extensions></trkpt>
   <trkpt lat="59.2986722684" lon="34.6714512479"><ele>159.75</ele><time>2026-08-16T15:51:08.135Z</time><hdop>3.0</hdop><vdop>2.5</vdop><extensions><gom:speed>0.057</gom:speed></extensions></trkpt>
   <trkpt lat="59.2986730647" lon="34.6714519184"><ele>159.885</ele><time>2026-08-16T15:51:09.136Z</time><hdop>3.0</hdop><vdop>2.5</vdop><extensions><gom:speed>0.105</gom:speed></extensions></trkpt>
   <trkpt lat="59.2986732742" lon="34.6714528404"><ele>159.967</ele><time>2026-08-16T15:51:10.136Z</time><hdop>3.0</hdop><vdop>2.5</vdop><extensions><gom:speed>0.085</gom:speed></extensions></trkpt>
   <trkpt lat="59.2986732742" lon="34.6714549359"><ele>160.005</ele><time>2026-08-16T15:51:11.136Z</time><hdop>3.0</hdop><vdop>2.5</vdop><extensions><gom:speed>0.058</gom:speed></extensions></trkpt>
   <trkpt lat="59.2986730647" lon="34.6714566961"><ele>160.023</ele><time>2026-08-16T15:51:12.136Z</time><hdop>3.0</hdop><vdop>2.5</vdop><extensions><gom:speed>0.06</gom:speed></extensions></trkpt>
   <trkpt lat="59.2986731904" lon="34.6714566961"><ele>160.039</ele><time>2026-08-16T15:51:13.136Z</time><hdop>3.0</hdop><vdop>2.625</vdop><extensions><gom:speed>0.0</gom:speed></extensions></trkpt>
   <trkpt lat="59.2986732742" lon="34.6714569476"><ele>160.064</ele><time>2026-08-16T15:51:14.136Z</time><hdop>3.0</hdop><vdop>2.625</vdop><extensions><gom:speed>0.013</gom:speed></extensions></trkpt>
   <trkpt lat="59.2986735676" lon="34.671457199"><ele>160.091</ele><time>2026-08-16T15:51:15.136Z</time><hdop>3.0</hdop><vdop>2.687</vdop><extensions><gom:speed>0.023</gom:speed></extensions></trkpt>
   <trkpt lat="59.2986737772" lon="34.6714576181"><ele>160.049</ele><time>2026-08-16T15:51:16.136Z</time><hdop>3.0</hdop><vdop>2.625</vdop><extensions><gom:speed>0.219</gom:speed></extensions></trkpt>
   <trkpt lat="59.2986753697" lon="34.6714568637"><ele>160.013</ele><time>2026-08-16T15:51:17.136Z</time><hdop>3.0</hdop><vdop>2.5</vdop><extensions><gom:speed>0.072</gom:speed></extensions></trkpt>
   <trkpt lat="59.2986756631" lon="34.6714568637"><ele>159.957</ele><time>2026-08-16T15:51:18.136Z</time><hdop>3.0</hdop><vdop>2.5</vdop><extensions><gom:speed>0.068</gom:speed></extensions></trkpt>
   <trkpt lat="59.2986758726" lon="34.6714569476"><ele>159.924</ele><time>2026-08-16T15:51:19.136Z</time><hdop>3.0</hdop><vdop>2.5</vdop><extensions><gom:speed>0.069</gom:speed></extensions></trkpt>
   <trkpt lat="59.2986759984" lon="34.671457199"><ele>159.91</ele><time>2026-08-16T15:51:20.136Z</time><hdop>3.0</hdop><vdop>2.5</vdop><extensions><gom:speed>0.067</gom:speed></extensions></trkpt>
   <trkpt lat="59.298676166" lon="34.6714572828"><ele>159.898</ele><time>2026-08-16T15:51:21.136Z</time><hdop>3.0</hdop><vdop>2.5</vdop><extensions><gom:speed>0.065</gom:speed></extensions></trkpt>
   <trkpt lat="59.2986763756" lon="34.6714574505"><ele>159.892</ele><time>2026-08-16T15:51:22.136Z</time><hdop>3.0</hdop><vdop>2.5</vdop><extensions><gom:speed>0.063</gom:speed></extensions></trkpt>
   <trkpt lat="59.2986764594" lon="34.6714568637"><ele>159.857</ele><time>2026-08-16T15:51:23.136Z</time><hdop>3.0</hdop><vdop>2.5</vdop><extensions><gom:speed>0.502</gom:speed></extensions></trkpt>
   <trkpt lat="59.2986788901" lon="34.6714524213"><ele>159.863</ele><time>2026-08-16T15:51:24.136Z</time><hdop>3.0</hdop><vdop>2.5</vdop><extensions><gom:speed>0.618</gom:speed></extensions></trkpt>
   <trkpt lat="59.298682662" lon="34.6714499906"><ele>160.058</ele><time>2026-08-16T15:51:25.136Z</time><hdop>3.0</hdop><vdop>2.5</vdop><extensions><gom:speed>0.459</gom:speed></extensions></trkpt>
   <trkpt lat="59.2986851766" lon="34.6714491524"><ele>160.183</ele><time>2026-08-16T15:51:26.136Z</time><hdop>3.0</hdop><vdop>2.5</vdop><extensions><gom:speed>0.089</gom:speed></extensions></trkpt>
   <trkpt lat="59.298684967" lon="34.6714503259"><ele>160.272</ele><time>2026-08-16T15:51:27.136Z</time><hdop>3.0</hdop><vdop>2.5</vdop><extensions><gom:speed>0.065</gom:speed></extensions></trkpt>
   <trkpt lat="59.2986845898" lon="34.6714510802"><ele>160.313</ele><time>2026-08-16T15:51:28.136Z</time><hdop>3.0</hdop><vdop>2.5</vdop><extensions><gom:speed>0.056</gom:speed></extensions></trkpt>
   <trkpt lat="59.2986842965" lon="34.6714518346"><ele>160.354</ele><time>2026-08-16T15:51:29.136Z</time><hdop>3.0</hdop><vdop>2.5</vdop><extensions><gom:speed>0.055</gom:speed></extensions></trkpt>
   <trkpt lat="59.2986840869" lon="34.671452589"><ele>160.387</ele><time>2026-08-16T15:51:30.136Z</time><hdop>3.0</hdop><vdop>2.5</vdop><extensions><gom:speed>0.054</gom:speed></extensions></trkpt>
   <trkpt lat="59.2986839612" lon="34.6714533433"><ele>160.392</ele><time>2026-08-16T15:51:31.136Z</time><hdop>3.0</hdop><vdop>2.5</vdop><extensions><gom:speed>0.057</gom:speed></extensions></trkpt>
   <trkpt lat="59.2986838774" lon="34.6714537624"><ele>160.379</ele><time>2026-08-16T15:51:32.136Z</time><hdop>3.0</hdop><vdop>2.5</vdop><extensions><gom:speed>0.057</gom:speed></extensions></trkpt>
   <trkpt lat="59.2986837935" lon="34.6714540977"><ele>160.371</ele><time>2026-08-16T15:51:33.136Z</time><hdop>3.0</hdop><vdop>2.5</vdop><extensions><gom:speed>0.056</gom:speed></extensions></trkpt>
   <trkpt lat="59.2986836678" lon="34.6714541815"><ele>160.351</ele><time>2026-08-16T15:51:34.136Z</time><hdop>3.0</hdop><vdop>2.5</vdop><extensions><gom:speed>0.057</gom:speed></extensions></trkpt>
   <trkpt lat="59.2986833744" lon="34.6714542654"><ele>160.342</ele><time>2026-08-16T15:51:35.136Z</time><hdop>3.0</hdop><vdop>2.5</vdop><extensions><gom:speed>0.059</gom:speed></extensions></trkpt>
   <trkpt lat="59.2986831649" lon="34.6714542654"><ele>160.347</ele><time>2026-08-16T15:51:36.136Z</time><hdop>3.0</hdop><vdop>2.5</vdop><extensions><gom:speed>0.061</gom:speed></extensions></trkpt>
   <trkpt lat="59.2986833744" lon="34.6714545168"><ele>160.321</ele><time>2026-08-16T15:51:37.136Z</time><hdop>3.0</hdop><vdop>2.5</vdop><extensions><gom:speed>0.545</gom:speed></extensions></trkpt>
   <trkpt lat="59.2986852604" lon="34.6714509964"><ele>160.305</ele><time>2026-08-16T15:51:38.118Z</time><hdop>3.0</hdop><vdop>2.5</vdop><extensions><gom:speed>0.547</gom:speed></extensions></trkpt>
   <trkpt lat="59.2986882779" lon="34.6714523375"><ele>160.157</ele><time>2026-08-16T15:51:39.002Z</time><hdop>3.0</hdop><vdop>2.5</vdop><extensions><gom:speed>0.633</gom:speed></extensions></trkpt>
   <trkpt lat="59.2986918821" lon="34.6714584563"><ele>159.848</ele><time>2026-08-16T15:51:39.699Z</time><hdop>3.062</hdop><vdop>2.5</vdop><extensions><gom:speed>0.635</gom:speed></extensions></trkpt>
   <trkpt lat="59.2986957797" lon="34.6714651618"><ele>159.587</ele><time>2026-08-16T15:51:40.445Z</time><hdop>3.187</hdop><vdop>2.5</vdop><extensions><gom:speed>0.533</gom:speed></extensions></trkpt>
   <trkpt lat="59.2987030719" lon="34.6714630664"><ele>159.353</ele><time>2026-08-16T15:51:41.136Z</time><hdop>3.187</hdop><vdop>2.5</vdop><extensions><gom:speed>0.831</gom:speed></extensions></trkpt>
   <trkpt lat="59.2987104899" lon="34.6714610547"><ele>159.212</ele><time>2026-08-16T15:51:41.975Z</time><hdop>3.375</hdop><vdop>2.5</vdop><extensions><gom:speed>0.857</gom:speed></extensions></trkpt>
   <trkpt lat="59.2987177822" lon="34.6714510802"><ele>158.88</ele><time>2026-08-16T15:51:42.917Z</time><hdop>3.437</hdop><vdop>2.5</vdop><extensions><gom:speed>0.802</gom:speed></extensions></trkpt>
   <trkpt lat="59.2987231885" lon="34.6714458835"><ele>158.513</ele><time>2026-08-16T15:51:43.556Z</time><hdop>3.562</hdop><vdop>2.5</vdop><extensions><gom:speed>0.825</gom:speed></extensions></trkpt>
   <trkpt lat="59.2987288882" lon="34.6714361604"><ele>158.227</ele><time>2026-08-16T15:51:44.136Z</time><hdop>3.625</hdop><vdop>2.5</vdop><extensions><gom:speed>0.968</gom:speed></extensions></trkpt>
   <trkpt lat="59.2987373958" lon="34.67142803"><ele>158.057</ele><time>2026-08-16T15:51:45.058Z</time><hdop>3.625</hdop><vdop>2.5</vdop><extensions><gom:speed>0.942</gom:speed></extensions></trkpt>
   <trkpt lat="59.2987416706" lon="34.6714133617"><ele>157.794</ele><time>2026-08-16T15:51:45.843Z</time><hdop>3.625</hdop><vdop>2.5</vdop><extensions><gom:speed>0.901</gom:speed></extensions></trkpt>
   <trkpt lat="59.298745191" lon="34.6713962626"><ele>157.802</ele><time>2026-08-16T15:51:46.599Z</time><hdop>3.5</hdop><vdop>2.5</vdop><extensions><gom:speed>0.894</gom:speed></extensions></trkpt>
   <trkpt lat="59.2987490886" lon="34.6713920716"><ele>157.807</ele><time>2026-08-16T15:51:47.119Z</time><hdop>3.437</hdop><vdop>2.5</vdop><extensions><gom:speed>0.884</gom:speed></extensions></trkpt>
   <trkpt lat="59.2987546625" lon="34.6713798341"><ele>158.298</ele><time>2026-08-16T15:51:48.136Z</time><hdop>3.312</hdop><vdop>2.5</vdop><extensions><gom:speed>0.986</gom:speed></extensions></trkpt>
   <trkpt lat="59.2987589792" lon="34.6713787444"><ele>158.592</ele><time>2026-08-16T15:51:48.680Z</time><hdop>3.25</hdop><vdop>2.5</vdop><extensions><gom:speed>0.928</gom:speed></extensions></trkpt>
   <trkpt lat="59.2987620805" lon="34.6713802531"><ele>158.573</ele><time>2026-08-16T15:51:49.136Z</time><hdop>3.187</hdop><vdop>2.5</vdop><extensions><gom:speed>0.908</gom:speed></extensions></trkpt>
   <trkpt lat="59.2987697919" lon="34.6713805884"><ele>158.561</ele><time>2026-08-16T15:51:50.084Z</time><hdop>3.125</hdop><vdop>2.5</vdop><extensions><gom:speed>0.866</gom:speed></extensions></trkpt>
   <trkpt lat="59.298773899" lon="34.6713847794"><ele>158.522</ele><time>2026-08-16T15:51:50.800Z</time><hdop>3.125</hdop><vdop>2.5</vdop><extensions><gom:speed>0.797</gom:speed></extensions></trkpt>
   <trkpt lat="59.2987760783" lon="34.6713933289"><ele>158.517</ele><time>2026-08-16T15:51:51.536Z</time><hdop>3.062</hdop><vdop>2.5</vdop><extensions><gom:speed>0.798</gom:speed></extensions></trkpt>
   <trkpt lat="59.2987791796" lon="34.6713986933"><ele>158.514</ele><time>2026-08-16T15:51:52.037Z</time><hdop>3.062</hdop><vdop>2.5</vdop><extensions><gom:speed>0.81</gom:speed></extensions></trkpt>
   <trkpt lat="59.2987826581" lon="34.6714075782"><ele>158.605</ele><time>2026-08-16T15:51:52.803Z</time><hdop>3.0</hdop><vdop>2.5</vdop><extensions><gom:speed>0.849</gom:speed></extensions></trkpt>
   <trkpt lat="59.2987861785" lon="34.6714127749"><ele>159.156</ele><time>2026-08-16T15:51:53.284Z</time><hdop>3.0</hdop><vdop>2.5</vdop><extensions><gom:speed>0.923</gom:speed></extensions></trkpt>
   <trkpt lat="59.2987934707" lon="34.6714197319"><ele>159.217</ele><time>2026-08-16T15:51:54.136Z</time><hdop>3.0</hdop><vdop>2.5</vdop><extensions><gom:speed>0.949</gom:speed></extensions></trkpt>
   <trkpt lat="59.2988022717" lon="34.671424342"><ele>158.921</ele><time>2026-08-16T15:51:55.136Z</time><hdop>3.0</hdop><vdop>2.5</vdop><extensions><gom:speed>0.92</gom:speed></extensions></trkpt>
   <trkpt lat="59.2988097735" lon="34.6714268565"><ele>158.744</ele><time>2026-08-16T15:51:55.924Z</time><hdop>3.0</hdop><vdop>2.5</vdop><extensions><gom:speed>0.936</gom:speed></extensions></trkpt>
   <trkpt lat="59.2988156828" lon="34.6714250963"><ele>158.626</ele><time>2026-08-16T15:51:56.561Z</time><hdop>3.0</hdop><vdop>2.5</vdop><extensions><gom:speed>0.955</gom:speed></extensions></trkpt>
   <trkpt lat="59.2988203766" lon="34.6714257669"><ele>158.555</ele><time>2026-08-16T15:51:57.023Z</time><hdop>3.0</hdop><vdop>2.5</vdop><extensions><gom:speed>0.965</gom:speed></extensions></trkpt>
   <trkpt lat="59.2988286747" lon="34.6714215759"><ele>158.229</ele><time>2026-08-16T15:51:58.135Z</time><hdop>3.0</hdop><vdop>2.5</vdop><extensions><gom:speed>0.914</gom:speed></extensions></trkpt>
   <trkpt lat="59.2988366795" lon="34.6714217436"><ele>158.213</ele><time>2026-08-16T15:51:59.136Z</time><hdop>3.0</hdop><vdop>2.5</vdop><extensions><gom:speed>0.909</gom:speed></extensions></trkpt>
   <trkpt lat="59.2988449775" lon="34.6714239229"><ele>158.141</ele><time>2026-08-16T15:52:00.136Z</time><hdop>3.0</hdop><vdop>2.5</vdop><extensions><gom:speed>0.898</gom:speed></extensions></trkpt>
   <trkpt lat="59.2988495876" lon="34.6714254316"><ele>158.097</ele><time>2026-08-16T15:52:00.626Z</time><hdop>3.0</hdop><vdop>2.5</vdop><extensions><gom:speed>0.955</gom:speed></extensions></trkpt>
   <trkpt lat="59.2988534852" lon="34.6714262698"><ele>158.258</ele><time>2026-08-16T15:52:01.136Z</time><hdop>3.0</hdop><vdop>2.5</vdop><extensions><gom:speed>0.903</gom:speed></extensions></trkpt>
   <trkpt lat="59.2988608612" lon="34.6714275271"><ele>158.034</ele><time>2026-08-16T15:52:02.136Z</time><hdop>3.0</hdop><vdop>2.5</vdop><extensions><gom:speed>0.861</gom:speed></extensions></trkpt>
   <trkpt lat="59.2988658904" lon="34.6714227494"><ele>157.899</ele><time>2026-08-16T15:52:02.904Z</time><hdop>3.0</hdop><vdop>2.5</vdop><extensions><gom:speed>0.794</gom:speed></extensions></trkpt>
   <trkpt lat="59.2988656808" lon="34.6714081649"><ele>158.139</ele><time>2026-08-16T15:52:04.136Z</time><hdop>3.0</hdop><vdop>2.625</vdop><extensions><gom:speed>0.419</gom:speed></extensions></trkpt>
   <trkpt lat="59.2988663933" lon="34.6714012917"><ele>158.277</ele><time>2026-08-16T15:52:05.136Z</time><hdop>3.0</hdop><vdop>2.75</vdop><extensions><gom:speed>0.237</gom:speed></extensions></trkpt>
   <trkpt lat="59.2988667705" lon="34.6713982742"><ele>158.355</ele><time>2026-08-16T15:52:06.136Z</time><hdop>3.0</hdop><vdop>2.687</vdop><extensions><gom:speed>0.109</gom:speed></extensions></trkpt>
   <trkpt lat="59.2988665609" lon="34.6713967655"><ele>158.404</ele><time>2026-08-16T15:52:07.136Z</time><hdop>3.0</hdop><vdop>2.625</vdop><extensions><gom:speed>0.081</gom:speed></extensions></trkpt>
   <trkpt lat="59.2988668962" lon="34.67139467"><ele>158.43</ele><time>2026-08-16T15:52:08.136Z</time><hdop>3.0</hdop><vdop>2.625</vdop><extensions><gom:speed>0.1</gom:speed></extensions></trkpt>
   <trkpt lat="59.2988675668" lon="34.6713919878"><ele>158.464</ele><time>2026-08-16T15:52:09.136Z</time><hdop>3.0</hdop><vdop>2.75</vdop><extensions><gom:speed>0.095</gom:speed></extensions></trkpt>
   <trkpt lat="59.2988680697" lon="34.6713898923"><ele>158.527</ele><time>2026-08-16T15:52:10.136Z</time><hdop>3.0</hdop><vdop>2.75</vdop><extensions><gom:speed>0.06</gom:speed></extensions></trkpt>
   <trkpt lat="59.2988678601" lon="34.6713887189"><ele>158.595</ele><time>2026-08-16T15:52:11.136Z</time><hdop>3.0</hdop><vdop>2.812</vdop><extensions><gom:speed>0.057</gom:speed></extensions></trkpt>
   <trkpt lat="59.2988675668" lon="34.6713872939"><ele>158.654</ele><time>2026-08-16T15:52:12.136Z</time><hdop>3.0</hdop><vdop>2.625</vdop><extensions><gom:speed>0.087</gom:speed></extensions></trkpt>
   <trkpt lat="59.2988680697" lon="34.6713863719"><ele>158.725</ele><time>2026-08-16T15:52:13.136Z</time><hdop>3.0</hdop><vdop>2.562</vdop><extensions><gom:speed>0.134</gom:speed></extensions></trkpt>
   <trkpt lat="59.2988682792" lon="34.6713864558"><ele>158.767</ele><time>2026-08-16T15:52:13.898Z</time><hdop>3.0</hdop><vdop>2.562</vdop><extensions><gom:speed>0.09</gom:speed></extensions></trkpt>
   <trkpt lat="59.2988693689" lon="34.6713877969"><ele>158.744</ele><time>2026-08-16T15:52:14.496Z</time><hdop>3.0</hdop><vdop>2.687</vdop><extensions><gom:speed>0.091</gom:speed></extensions></trkpt>
   <trkpt lat="59.2988698718" lon="34.6713881321"><ele>158.73</ele><time>2026-08-16T15:52:15.124Z</time><hdop>3.0</hdop><vdop>2.687</vdop><extensions><gom:speed>0.131</gom:speed></extensions></trkpt>
   <trkpt lat="59.298874859" lon="34.6713888865"><ele>158.814</ele><time>2026-08-16T15:52:15.920Z</time><hdop>3.0</hdop><vdop>3.0</vdop><extensions><gom:speed>0.242</gom:speed></extensions></trkpt>
   <trkpt lat="59.2988839953" lon="34.6713895571"><ele>159.006</ele><time>2026-08-16T15:52:16.420Z</time><hdop>3.0</hdop><vdop>2.937</vdop><extensions><gom:speed>0.591</gom:speed></extensions></trkpt>
   <trkpt lat="59.2988902817" lon="34.6713907305"><ele>159.12</ele><time>2026-08-16T15:52:17.117Z</time><hdop>3.0</hdop><vdop>2.937</vdop><extensions><gom:speed>0.618</gom:speed></extensions></trkpt>
   <trkpt lat="59.2989068779" lon="34.6713956759"><ele>159.243</ele><time>2026-08-16T15:52:18.136Z</time><hdop>3.0</hdop><vdop>3.0</vdop><extensions><gom:speed>0.888</gom:speed></extensions></trkpt>
   <trkpt lat="59.2989142959" lon="34.6713972684"><ele>159.316</ele><time>2026-08-16T15:52:18.717Z</time><hdop>3.0</hdop><vdop>3.0</vdop><extensions><gom:speed>1.0</gom:speed></extensions></trkpt>
   <trkpt lat="59.2989230969" lon="34.6713984419"><ele>159.349</ele><time>2026-08-16T15:52:19.424Z</time><hdop>3.0</hdop><vdop>2.937</vdop><extensions><gom:speed>1.053</gom:speed></extensions></trkpt>
   <trkpt lat="59.2989290899" lon="34.6713985257"><ele>159.369</ele><time>2026-08-16T15:52:19.944Z</time><hdop>3.0</hdop><vdop>2.937</vdop><extensions><gom:speed>1.071</gom:speed></extensions></trkpt>
   <trkpt lat="59.2989363822" lon="34.6713989448"><ele>159.151</ele><time>2026-08-16T15:52:20.641Z</time><hdop>3.0</hdop><vdop>2.937</vdop><extensions><gom:speed>1.066</gom:speed></extensions></trkpt>
   <trkpt lat="59.2989416628" lon="34.6713995315"><ele>159.02</ele><time>2026-08-16T15:52:21.122Z</time><hdop>3.0</hdop><vdop>2.937</vdop><extensions><gom:speed>1.083</gom:speed></extensions></trkpt>
   <trkpt lat="59.2989487874" lon="34.6714002859"><ele>158.528</ele><time>2026-08-16T15:52:21.857Z</time><hdop>3.0</hdop><vdop>2.875</vdop><extensions><gom:speed>1.054</gom:speed></extensions></trkpt>
   <trkpt lat="59.2989522659" lon="34.6713999506"><ele>158.304</ele><time>2026-08-16T15:52:22.319Z</time><hdop>3.0</hdop><vdop>2.875</vdop><extensions><gom:speed>0.998</gom:speed></extensions></trkpt>
   <trkpt lat="59.2989599772" lon="34.6714018785"><ele>158.17</ele><time>2026-08-16T15:52:23.046Z</time><hdop>3.0</hdop><vdop>2.875</vdop><extensions><gom:speed>1.043</gom:speed></extensions></trkpt>
   <trkpt lat="59.2989644616" lon="34.6714018785"><ele>157.76</ele><time>2026-08-16T15:52:23.517Z</time><hdop>3.0</hdop><vdop>2.75</vdop><extensions><gom:speed>1.067</gom:speed></extensions></trkpt>
   <trkpt lat="59.298970287" lon="34.6714026328"><ele>157.122</ele><time>2026-08-16T15:52:24.136Z</time><hdop>3.0</hdop><vdop>2.687</vdop><extensions><gom:speed>1.043</gom:speed></extensions></trkpt>
   <trkpt lat="59.2989759867" lon="34.671403471"><ele>156.741</ele><time>2026-08-16T15:52:24.685Z</time><hdop>3.0</hdop><vdop>2.687</vdop><extensions><gom:speed>1.099</gom:speed></extensions></trkpt>
   <trkpt lat="59.2989802615" lon="34.6714035548"><ele>156.423</ele><time>2026-08-16T15:52:25.136Z</time><hdop>3.0</hdop><vdop>2.5</vdop><extensions><gom:speed>1.073</gom:speed></extensions></trkpt>
   <trkpt lat="59.2989881824" lon="34.6714047283"><ele>156.232</ele><time>2026-08-16T15:52:25.863Z</time><hdop>3.0</hdop><vdop>2.5</vdop><extensions><gom:speed>1.083</gom:speed></extensions></trkpt>
   <trkpt lat="59.2989945945" lon="34.6714041416"><ele>156.036</ele><time>2026-08-16T15:52:26.578Z</time><hdop>150.0</hdop><vdop>2.5</vdop><extensions><gom:speed>1.059</gom:speed></extensions></trkpt>
   <trkpt lat="59.2990007971" lon="34.6714048959"><ele>155.919</ele><time>2026-08-16T15:52:27.138Z</time><hdop>3.0</hdop><vdop>2.5</vdop><extensions><gom:speed>1.072</gom:speed></extensions></trkpt>
   <trkpt lat="59.2990066644" lon="34.6714047283"><ele>155.925</ele><time>2026-08-16T15:52:27.757Z</time><hdop>3.0</hdop><vdop>2.5</vdop><extensions><gom:speed>1.061</gom:speed></extensions></trkpt>
   <trkpt lat="59.2990099753" lon="34.6714035548"><ele>155.696</ele><time>2026-08-16T15:52:28.258Z</time><hdop>3.0</hdop><vdop>2.5</vdop><extensions><gom:speed>0.997</gom:speed></extensions></trkpt>
   <trkpt lat="59.2990175609" lon="34.6714008726"><ele>155.502</ele><time>2026-08-16T15:52:29.136Z</time><hdop>3.0</hdop><vdop>2.5</vdop><extensions><gom:speed>1.0</gom:speed></extensions></trkpt>
   <trkpt lat="59.299028164" lon="34.6713961788"><ele>155.387</ele><time>2026-08-16T15:52:30.123Z</time><hdop>3.0</hdop><vdop>2.5</vdop><extensions><gom:speed>1.063</gom:speed></extensions></trkpt>
   <trkpt lat="59.2990323969" lon="34.671392826"><ele>155.819</ele><time>2026-08-16T15:52:30.623Z</time><hdop>3.0</hdop><vdop>2.5</vdop><extensions><gom:speed>1.037</gom:speed></extensions></trkpt>
   <trkpt lat="59.2990363783" lon="34.6713895571"><ele>156.129</ele><time>2026-08-16T15:52:31.135Z</time><hdop>3.0</hdop><vdop>2.5</vdop><extensions><gom:speed>0.991</gom:speed></extensions></trkpt>
   <trkpt lat="59.2990428743" lon="34.6713871263"><ele>156.314</ele><time>2026-08-16T15:52:31.821Z</time><hdop>3.0</hdop><vdop>2.5</vdop><extensions><gom:speed>1.019</gom:speed></extensions></trkpt>
   <trkpt lat="59.2990541898" lon="34.6713796664"><ele>156.241</ele><time>2026-08-16T15:52:33.077Z</time><hdop>3.0</hdop><vdop>2.5</vdop><extensions><gom:speed>0.976</gom:speed></extensions></trkpt>
   <trkpt lat="59.2990540641" lon="34.6713596337"><ele>156.088</ele><time>2026-08-16T15:52:34.136Z</time><hdop>3.0</hdop><vdop>2.5</vdop><extensions><gom:speed>0.872</gom:speed></extensions></trkpt>
   <trkpt lat="59.2990517591" lon="34.6713453844"><ele>155.852</ele><time>2026-08-16T15:52:35.136Z</time><hdop>3.0</hdop><vdop>2.5</vdop><extensions><gom:speed>0.506</gom:speed></extensions></trkpt>
   <trkpt lat="59.2990506694" lon="34.6713415288"><ele>155.731</ele><time>2026-08-16T15:52:36.136Z</time><hdop>3.0</hdop><vdop>2.5</vdop><extensions><gom:speed>0.215</gom:speed></extensions></trkpt>
   <trkpt lat="59.2990498732" lon="34.6713412773"><ele>155.616</ele><time>2026-08-16T15:52:37.136Z</time><hdop>3.0</hdop><vdop>2.5</vdop><extensions><gom:speed>0.146</gom:speed></extensions></trkpt>
   <trkpt lat="59.2990496636" lon="34.6713412773"><ele>155.548</ele><time>2026-08-16T15:52:37.681Z</time><hdop>3.0</hdop><vdop>2.5</vdop><extensions><gom:speed>0.094</gom:speed></extensions></trkpt>
   <trkpt lat="59.2990506694" lon="34.6713394333"><ele>155.44</ele><time>2026-08-16T15:52:38.136Z</time><hdop>3.0</hdop><vdop>2.5</vdop><extensions><gom:speed>0.202</gom:speed></extensions></trkpt>
   <trkpt lat="59.2990527649" lon="34.6713374216"><ele>155.375</ele><time>2026-08-16T15:52:39.045Z</time><hdop>3.0</hdop><vdop>2.5</vdop><extensions><gom:speed>0.232</gom:speed></extensions></trkpt>
   <trkpt lat="59.2990567882" lon="34.671332141"><ele>155.179</ele><time>2026-08-16T15:52:39.516Z</time><hdop>3.0</hdop><vdop>2.5</vdop><extensions><gom:speed>0.448</gom:speed></extensions></trkpt>
   <trkpt lat="59.2990593866" lon="34.6713303808"><ele>155.062</ele><time>2026-08-16T15:52:39.977Z</time><hdop>3.0</hdop><vdop>2.5</vdop><extensions><gom:speed>0.452</gom:speed></extensions></trkpt>
   <trkpt lat="59.2990692773" lon="34.6713216636"><ele>155.432</ele><time>2026-08-16T15:52:40.782Z</time><hdop>3.0</hdop><vdop>2.5</vdop><extensions><gom:speed>0.78</gom:speed></extensions></trkpt>
   <trkpt lat="59.2990736778" lon="34.6713093422"><ele>155.722</ele><time>2026-08-16T15:52:41.842Z</time><hdop>3.0</hdop><vdop>2.5</vdop><extensions><gom:speed>0.643</gom:speed></extensions></trkpt>
   <trkpt lat="59.2990776592" lon="34.671289561"><ele>156.152</ele><time>2026-08-16T15:52:42.520Z</time><hdop>3.0</hdop><vdop>2.5</vdop><extensions><gom:speed>1.01</gom:speed></extensions></trkpt>
   <trkpt lat="59.2990775753" lon="34.6712788321"><ele>156.409</ele><time>2026-08-16T15:52:43.001Z</time><hdop>3.0</hdop><vdop>2.5</vdop><extensions><gom:speed>1.017</gom:speed></extensions></trkpt>
   <trkpt lat="59.2990792936" lon="34.6712786645"><ele>156.549</ele><time>2026-08-16T15:52:44.136Z</time><hdop>3.0</hdop><vdop>2.5</vdop><extensions><gom:speed>0.723</gom:speed></extensions></trkpt>
   <trkpt lat="59.2990844904" lon="34.6712748926"><ele>156.632</ele><time>2026-08-16T15:52:45.062Z</time><hdop>3.0</hdop><vdop>2.5</vdop><extensions><gom:speed>0.657</gom:speed></extensions></trkpt>
   <trkpt lat="59.299090693" lon="34.6712794189"><ele>156.622</ele><time>2026-08-16T15:52:45.837Z</time><hdop>3.0</hdop><vdop>2.5</vdop><extensions><gom:speed>0.617</gom:speed></extensions></trkpt>
   <trkpt lat="59.2991009609" lon="34.6712882199"><ele>157.372</ele><time>2026-08-16T15:52:46.564Z</time><hdop>3.0</hdop><vdop>2.5</vdop><extensions><gom:speed>0.738</gom:speed></extensions></trkpt>
   <trkpt lat="59.2991091751" lon="34.6712986972"><ele>157.622</ele><time>2026-08-16T15:52:47.136Z</time><hdop>3.0</hdop><vdop>2.5</vdop><extensions><gom:speed>0.838</gom:speed></extensions></trkpt>
   <trkpt lat="59.2991160902" lon="34.6713089232"><ele>157.771</ele><time>2026-08-16T15:52:47.840Z</time><hdop>3.0</hdop><vdop>2.5</vdop><extensions><gom:speed>0.835</gom:speed></extensions></trkpt>
   <trkpt lat="59.2991231729" lon="34.671316886"><ele>157.927</ele><time>2026-08-16T15:52:48.320Z</time><hdop>3.0</hdop><vdop>2.5</vdop><extensions><gom:speed>0.886</gom:speed></extensions></trkpt>
   <trkpt lat="59.2991308843" lon="34.6713244297"><ele>158.02</ele><time>2026-08-16T15:52:49.057Z</time><hdop>3.0</hdop><vdop>2.5</vdop><extensions><gom:speed>0.988</gom:speed></extensions></trkpt>
   <trkpt lat="59.2991441696" lon="34.6713347394"><ele>158.211</ele><time>2026-08-16T15:52:50.058Z</time><hdop>3.0</hdop><vdop>2.5</vdop><extensions><gom:speed>1.083</gom:speed></extensions></trkpt>
   <trkpt lat="59.2991500788" lon="34.6713391818"><ele>158.395</ele><time>2026-08-16T15:52:50.559Z</time><hdop>3.0</hdop><vdop>2.5</vdop><extensions><gom:speed>1.085</gom:speed></extensions></trkpt>
   <trkpt lat="59.2991561976" lon="34.6713446301"><ele>158.681</ele><time>2026-08-16T15:52:51.136Z</time><hdop>3.0</hdop><vdop>2.5</vdop><extensions><gom:speed>1.031</gom:speed></extensions></trkpt>
   <trkpt lat="59.2991628612" lon="34.6713544369"><ele>158.852</ele><time>2026-08-16T15:52:51.903Z</time><hdop>3.0</hdop><vdop>2.5</vdop><extensions><gom:speed>1.041</gom:speed></extensions></trkpt>
   <trkpt lat="59.2991681837" lon="34.6713643275"><ele>159.025</ele><time>2026-08-16T15:52:52.640Z</time><hdop>3.0</hdop><vdop>2.5</vdop><extensions><gom:speed>0.971</gom:speed></extensions></trkpt>
   <trkpt lat="59.2991711593" lon="34.6713709492"><ele>159.128</ele><time>2026-08-16T15:52:53.101Z</time><hdop>3.0</hdop><vdop>2.5</vdop><extensions><gom:speed>0.97</gom:speed></extensions></trkpt>
   <trkpt lat="59.2991790802" lon="34.6713784929"><ele>159.491</ele><time>2026-08-16T15:52:54.135Z</time><hdop>3.0</hdop><vdop>2.5</vdop><extensions><gom:speed>0.892</gom:speed></extensions></trkpt>
   <trkpt lat="59.2991876716" lon="34.6713824324"><ele>160.402</ele><time>2026-08-16T15:52:55.136Z</time><hdop>3.0</hdop><vdop>2.5</vdop><extensions><gom:speed>0.846</gom:speed></extensions></trkpt>
   <trkpt lat="59.299194461" lon="34.6713799179"><ele>160.911</ele><time>2026-08-16T15:52:56.135Z</time><hdop>3.0</hdop><vdop>2.5</vdop><extensions><gom:speed>0.68</gom:speed></extensions></trkpt>
   <trkpt lat="59.299197688" lon="34.6713732962"><ele>161.216</ele><time>2026-08-16T15:52:56.899Z</time><hdop>3.0</hdop><vdop>2.5</vdop><extensions><gom:speed>0.565</gom:speed></extensions></trkpt>
   <trkpt lat="59.2992017952" lon="34.6713678479"><ele>161.379</ele><time>2026-08-16T15:52:57.380Z</time><hdop>3.0</hdop><vdop>2.5</vdop><extensions><gom:speed>0.64</gom:speed></extensions></trkpt>
   <trkpt lat="59.2992076625" lon="34.6713640761"><ele>161.248</ele><time>2026-08-16T15:52:58.136Z</time><hdop>3.0</hdop><vdop>2.5</vdop><extensions><gom:speed>0.73</gom:speed></extensions></trkpt>
   <trkpt lat="59.2992145776" lon="34.6713617291"><ele>161.17</ele><time>2026-08-16T15:52:58.980Z</time><hdop>3.0</hdop><vdop>2.5</vdop><extensions><gom:speed>0.749</gom:speed></extensions></trkpt>
   <trkpt lat="59.299219481" lon="34.6713599689"><ele>160.809</ele><time>2026-08-16T15:52:59.442Z</time><hdop>3.0</hdop><vdop>2.5</vdop><extensions><gom:speed>0.871</gom:speed></extensions></trkpt>
   <trkpt lat="59.2992249711" lon="34.6713561971"><ele>160.539</ele><time>2026-08-16T15:53:00.136Z</time><hdop>3.0</hdop><vdop>2.5</vdop><extensions><gom:speed>0.897</gom:speed></extensions></trkpt>
   <trkpt lat="59.2992298745" lon="34.6713512518"><ele>160.378</ele><time>2026-08-16T15:53:00.678Z</time><hdop>3.0</hdop><vdop>2.5</vdop><extensions><gom:speed>0.963</gom:speed></extensions></trkpt>
   <trkpt lat="59.2992316766" lon="34.671345133"><ele>160.083</ele><time>2026-08-16T15:53:01.136Z</time><hdop>3.0</hdop><vdop>2.5</vdop><extensions><gom:speed>0.941</gom:speed></extensions></trkpt>
   <trkpt lat="59.2992368734" lon="34.6713291235"><ele>159.907</ele><time>2026-08-16T15:53:02.121Z</time><hdop>3.0</hdop><vdop>2.5</vdop><extensions><gom:speed>0.978</gom:speed></extensions></trkpt>
   <trkpt lat="59.2992371668" lon="34.6713146228"><ele>159.789</ele><time>2026-08-16T15:53:02.759Z</time><hdop>3.0</hdop><vdop>2.5</vdop><extensions><gom:speed>1.037</gom:speed></extensions></trkpt>
   <trkpt lat="59.2992365801" lon="34.671301128"><ele>159.739</ele><time>2026-08-16T15:53:03.437Z</time><hdop>3.0</hdop><vdop>2.5</vdop><extensions><gom:speed>0.995</gom:speed></extensions></trkpt>
   <trkpt lat="59.2992371668" lon="34.6712900639"><ele>159.344</ele><time>2026-08-16T15:53:04.136Z</time><hdop>3.0</hdop><vdop>2.5</vdop><extensions><gom:speed>0.997</gom:speed></extensions></trkpt>
   <trkpt lat="59.2992391784" lon="34.6712778263"><ele>159.109</ele><time>2026-08-16T15:53:04.899Z</time><hdop>3.0</hdop><vdop>2.5</vdop><extensions><gom:speed>0.969</gom:speed></extensions></trkpt>
   <trkpt lat="59.2992383822" lon="34.6712672651"><ele>159.084</ele><time>2026-08-16T15:53:05.665Z</time><hdop>3.0</hdop><vdop>2.5</vdop><extensions><gom:speed>0.909</gom:speed></extensions></trkpt>
   <trkpt lat="59.2992386755" lon="34.6712620683"><ele>158.997</ele><time>2026-08-16T15:53:06.135Z</time><hdop>3.0</hdop><vdop>2.5</vdop><extensions><gom:speed>0.897</gom:speed></extensions></trkpt>
   <trkpt lat="59.2992424893" lon="34.6712530997"><ele>158.759</ele><time>2026-08-16T15:53:07.136Z</time><hdop>3.0</hdop><vdop>2.5</vdop><extensions><gom:speed>0.825</gom:speed></extensions></trkpt>
   <trkpt lat="59.2992480633" lon="34.6712460589"><ele>158.616</ele><time>2026-08-16T15:53:07.962Z</time><hdop>3.0</hdop><vdop>2.5</vdop><extensions><gom:speed>0.858</gom:speed></extensions></trkpt>
   <trkpt lat="59.2992486919" lon="34.6712475676"><ele>158.536</ele><time>2026-08-16T15:53:08.943Z</time><hdop>3.0</hdop><vdop>2.5</vdop><extensions><gom:speed>0.61</gom:speed></extensions></trkpt>
   <trkpt lat="59.2992526733" lon="34.6712561172"><ele>159.485</ele><time>2026-08-16T15:53:10.136Z</time><hdop>3.0</hdop><vdop>2.625</vdop><extensions><gom:speed>0.625</gom:speed></extensions></trkpt>
   <trkpt lat="59.2992531762" lon="34.6712696958"><ele>160.052</ele><time>2026-08-16T15:53:10.956Z</time><hdop>3.0</hdop><vdop>2.625</vdop><extensions><gom:speed>0.632</gom:speed></extensions></trkpt>
   <trkpt lat="59.299251877" lon="34.6712856215"><ele>160.057</ele><time>2026-08-16T15:53:11.702Z</time><hdop>3.0</hdop><vdop>3.062</vdop><extensions><gom:speed>0.731</gom:speed></extensions></trkpt>
   <trkpt lat="59.2992524638" lon="34.6713019662"><ele>159.926</ele><time>2026-08-16T15:53:12.498Z</time><hdop>3.0</hdop><vdop>3.0</vdop><extensions><gom:speed>0.755</gom:speed></extensions></trkpt>
   <trkpt lat="59.2992530924" lon="34.6713138685"><ele>159.85</ele><time>2026-08-16T15:53:13.136Z</time><hdop>3.0</hdop><vdop>2.937</vdop><extensions><gom:speed>0.742</gom:speed></extensions></trkpt>
   <trkpt lat="59.2992530924" lon="34.6713287883"><ele>159.805</ele><time>2026-08-16T15:53:13.940Z</time><hdop>3.0</hdop><vdop>2.937</vdop><extensions><gom:speed>0.799</gom:speed></extensions></trkpt>
   <trkpt lat="59.2992524638" lon="34.6713449653"><ele>159.787</ele><time>2026-08-16T15:53:14.500Z</time><hdop>3.0</hdop><vdop>3.062</vdop><extensions><gom:speed>0.914</gom:speed></extensions></trkpt>
   <trkpt lat="59.2992530924" lon="34.6713599689"><ele>159.831</ele><time>2026-08-16T15:53:15.136Z</time><hdop>3.0</hdop><vdop>3.25</vdop><extensions><gom:speed>0.931</gom:speed></extensions></trkpt>
   <trkpt lat="59.2992551879" lon="34.6713769842"><ele>159.858</ele><time>2026-08-16T15:53:15.943Z</time><hdop>3.0</hdop><vdop>3.25</vdop><extensions><gom:speed>0.961</gom:speed></extensions></trkpt>
   <trkpt lat="59.2992588759" lon="34.6713932451"><ele>160.772</ele><time>2026-08-16T15:53:16.679Z</time><hdop>3.0</hdop><vdop>3.125</vdop><extensions><gom:speed>1.021</gom:speed></extensions></trkpt>
   <trkpt lat="59.2992646594" lon="34.6714009565"><ele>161.736</ele><time>2026-08-16T15:53:17.136Z</time><hdop>3.0</hdop><vdop>3.125</vdop><extensions><gom:speed>1.184</gom:speed></extensions></trkpt>
   <trkpt lat="59.2992728737" lon="34.6714123558"><ele>162.311</ele><time>2026-08-16T15:53:17.876Z</time><hdop>3.0</hdop><vdop>3.125</vdop><extensions><gom:speed>1.162</gom:speed></extensions></trkpt>
   <trkpt lat="59.2992801659" lon="34.6714144513"><ele>162.274</ele><time>2026-08-16T15:53:18.357Z</time><hdop>3.0</hdop><vdop>3.0</vdop><extensions><gom:speed>1.133</gom:speed></extensions></trkpt>
   <trkpt lat="59.2992868715" lon="34.6714242581"><ele>162.253</ele><time>2026-08-16T15:53:19.084Z</time><hdop>3.0</hdop><vdop>3.0</vdop><extensions><gom:speed>1.133</gom:speed></extensions></trkpt>
   <trkpt lat="59.2992980613" lon="34.671434065"><ele>161.66</ele><time>2026-08-16T15:53:20.136Z</time><hdop>3.0</hdop><vdop>2.562</vdop><extensions><gom:speed>1.104</gom:speed></extensions></trkpt>
   <trkpt lat="59.2993027971" lon="34.6714397647"><ele>161.306</ele><time>2026-08-16T15:53:20.664Z</time><hdop>3.0</hdop><vdop>2.562</vdop><extensions><gom:speed>1.089</gom:speed></extensions></trkpt>
   <trkpt lat="59.2993087901" lon="34.6714410219"><ele>161.433</ele><time>2026-08-16T15:53:21.136Z</time><hdop>3.0</hdop><vdop>2.5</vdop><extensions><gom:speed>1.236</gom:speed></extensions></trkpt>
   <trkpt lat="59.2993186808" lon="34.6714436203"><ele>161.509</ele><time>2026-08-16T15:53:21.960Z</time><hdop>3.0</hdop><vdop>2.5</vdop><extensions><gom:speed>1.174</gom:speed></extensions></trkpt>
   <trkpt lat="59.2993243805" lon="34.6714421954"><ele>161.153</ele><time>2026-08-16T15:53:22.617Z</time><hdop>3.0</hdop><vdop>2.5</vdop><extensions><gom:speed>1.076</gom:speed></extensions></trkpt>
   <trkpt lat="59.2993294934" lon="34.6714410219"><ele>160.94</ele><time>2026-08-16T15:53:23.118Z</time><hdop>3.0</hdop><vdop>2.5</vdop><extensions><gom:speed>1.076</gom:speed></extensions></trkpt>
   <trkpt lat="59.2993386716" lon="34.6714342326"><ele>160.629</ele><time>2026-08-16T15:53:24.136Z</time><hdop>3.0</hdop><vdop>2.5</vdop><extensions><gom:speed>1.159</gom:speed></extensions></trkpt>
   <trkpt lat="59.2993478917" lon="34.6714338973"><ele>160.443</ele><time>2026-08-16T15:53:25.022Z</time><hdop>3.0</hdop><vdop>2.5</vdop><extensions><gom:speed>1.125</gom:speed></extensions></trkpt>
   <trkpt lat="59.2993492747" lon="34.6714380883"><ele>160.176</ele><time>2026-08-16T15:53:25.483Z</time><hdop>3.0</hdop><vdop>2.5</vdop><extensions><gom:speed>1.098</gom:speed></extensions></trkpt>
   <trkpt lat="59.2993534657" lon="34.6714445423"><ele>159.858</ele><time>2026-08-16T15:53:26.136Z</time><hdop>3.0</hdop><vdop>2.5</vdop><extensions><gom:speed>1.147</gom:speed></extensions></trkpt>
   <trkpt lat="59.2993586625" lon="34.6714497391"><ele>159.668</ele><time>2026-08-16T15:53:26.681Z</time><hdop>3.0</hdop><vdop>2.5</vdop><extensions><gom:speed>1.157</gom:speed></extensions></trkpt>
   <trkpt lat="59.2993609675" lon="34.6714542654"><ele>159.425</ele><time>2026-08-16T15:53:27.136Z</time><hdop>3.0</hdop><vdop>2.5</vdop><extensions><gom:speed>1.089</gom:speed></extensions></trkpt>
   <trkpt lat="59.2993674635" lon="34.6714609709"><ele>159.28</ele><time>2026-08-16T15:53:27.957Z</time><hdop>3.0</hdop><vdop>2.5</vdop><extensions><gom:speed>1.068</gom:speed></extensions></trkpt>
   <trkpt lat="59.2993724926" lon="34.671469269"><ele>159.294</ele><time>2026-08-16T15:53:28.781Z</time><hdop>3.0</hdop><vdop>2.5</vdop><extensions><gom:speed>1.0</gom:speed></extensions></trkpt>
   <trkpt lat="59.2993769769" lon="34.6714837697"><ele>159.152</ele><time>2026-08-16T15:53:29.861Z</time><hdop>3.0</hdop><vdop>2.5</vdop><extensions><gom:speed>0.996</gom:speed></extensions></trkpt>
   <trkpt lat="59.2993780666" lon="34.6714932412"><ele>159.044</ele><time>2026-08-16T15:53:30.401Z</time><hdop>3.0</hdop><vdop>2.5</vdop><extensions><gom:speed>0.973</gom:speed></extensions></trkpt>
   <trkpt lat="59.2993811679" lon="34.6715037186"><ele>158.98</ele><time>2026-08-16T15:53:31.039Z</time><hdop>3.0</hdop><vdop>2.5</vdop><extensions><gom:speed>0.968</gom:speed></extensions></trkpt>
   <trkpt lat="59.2993809583" lon="34.6715154532"><ele>158.928</ele><time>2026-08-16T15:53:31.579Z</time><hdop>3.0</hdop><vdop>2.5</vdop><extensions><gom:speed>0.95</gom:speed></extensions></trkpt>
   <trkpt lat="59.2993802878" lon="34.6715278585"><ele>158.86</ele><time>2026-08-16T15:53:32.136Z</time><hdop>3.0</hdop><vdop>2.5</vdop><extensions><gom:speed>0.926</gom:speed></extensions></trkpt>
   <trkpt lat="59.2993798687" lon="34.6715426944"><ele>158.82</ele><time>2026-08-16T15:53:32.835Z</time><hdop>3.0</hdop><vdop>2.5</vdop><extensions><gom:speed>0.934</gom:speed></extensions></trkpt>
   <trkpt lat="59.2993789886" lon="34.6715587877"><ele>158.881</ele><time>2026-08-16T15:53:33.542Z</time><hdop>3.0</hdop><vdop>2.5</vdop><extensions><gom:speed>0.934</gom:speed></extensions></trkpt>
   <trkpt lat="59.2993802878" lon="34.6715700194"><ele>159.145</ele><time>2026-08-16T15:53:34.136Z</time><hdop>3.0</hdop><vdop>2.5</vdop><extensions><gom:speed>0.92</gom:speed></extensions></trkpt>
   <trkpt lat="59.2993842692" lon="34.6715821732"><ele>159.302</ele><time>2026-08-16T15:53:34.916Z</time><hdop>3.0</hdop><vdop>2.5</vdop><extensions><gom:speed>0.908</gom:speed></extensions></trkpt>
   <trkpt lat="59.2993868676" lon="34.6715905551"><ele>159.477</ele><time>2026-08-16T15:53:35.417Z</time><hdop>3.0</hdop><vdop>2.5</vdop><extensions><gom:speed>0.917</gom:speed></extensions></trkpt>
   <trkpt lat="59.2993901784" lon="34.6716019545"><ele>159.865</ele><time>2026-08-16T15:53:36.136Z</time><hdop>3.0</hdop><vdop>2.5</vdop><extensions><gom:speed>0.893</gom:speed></extensions></trkpt>
   <trkpt lat="59.299392693" lon="34.6716135215"><ele>160.097</ele><time>2026-08-16T15:53:36.742Z</time><hdop>3.0</hdop><vdop>2.5</vdop><extensions><gom:speed>0.942</gom:speed></extensions></trkpt>
   <trkpt lat="59.2993960877" lon="34.6716283575"><ele>160.601</ele><time>2026-08-16T15:53:37.576Z</time><hdop>3.0</hdop><vdop>2.5</vdop><extensions><gom:speed>0.964</gom:speed></extensions></trkpt>
   <trkpt lat="59.2993995662" lon="34.6716357336"><ele>160.602</ele><time>2026-08-16T15:53:38.136Z</time><hdop>3.0</hdop><vdop>2.5</vdop><extensions><gom:speed>0.922</gom:speed></extensions></trkpt>
   <trkpt lat="59.2994059783" lon="34.6716441993"><ele>160.603</ele><time>2026-08-16T15:53:38.999Z</time><hdop>3.0</hdop><vdop>2.5</vdop><extensions><gom:speed>0.933</gom:speed></extensions></trkpt>
   <trkpt lat="59.2994098759" lon="34.6716469653"><ele>160.499</ele><time>2026-08-16T15:53:39.500Z</time><hdop>3.0</hdop><vdop>2.5</vdop><extensions><gom:speed>0.936</gom:speed></extensions></trkpt>
   <trkpt lat="59.2994145698" lon="34.6716492284"><ele>160.62</ele><time>2026-08-16T15:53:40.136Z</time><hdop>3.0</hdop><vdop>2.5</vdop><extensions><gom:speed>0.905</gom:speed></extensions></trkpt>
   <trkpt lat="59.2994216944" lon="34.6716518268"><ele>160.973</ele><time>2026-08-16T15:53:41.136Z</time><hdop>3.0</hdop><vdop>2.5</vdop><extensions><gom:speed>0.884</gom:speed></extensions></trkpt>
   <trkpt lat="59.2994276874" lon="34.6716592867"><ele>161.184</ele><time>2026-08-16T15:53:42.042Z</time><hdop>3.0</hdop><vdop>2.5</vdop><extensions><gom:speed>0.828</gom:speed></extensions></trkpt>
   <trkpt lat="59.2994298667" lon="34.6716719434"><ele>161.675</ele><time>2026-08-16T15:53:42.837Z</time><hdop>3.0</hdop><vdop>2.5</vdop><extensions><gom:speed>0.805</gom:speed></extensions></trkpt>
   <trkpt lat="59.2994327585" lon="34.6716847677"><ele>162.154</ele><time>2026-08-16T15:53:43.662Z</time><hdop>3.0</hdop><vdop>2.5</vdop><extensions><gom:speed>0.812</gom:speed></extensions></trkpt>
   <trkpt lat="59.2994356922" lon="34.6716888748"><ele>162.185</ele><time>2026-08-16T15:53:44.136Z</time><hdop>3.0</hdop><vdop>2.5</vdop><extensions><gom:speed>0.813</gom:speed></extensions></trkpt>
   <trkpt lat="59.299439464" lon="34.6716907188"><ele>162.204</ele><time>2026-08-16T15:53:44.624Z</time><hdop>3.0</hdop><vdop>2.5</vdop><extensions><gom:speed>0.823</gom:speed></extensions></trkpt>
   <trkpt lat="59.2994432778" lon="34.671692479"><ele>162.515</ele><time>2026-08-16T15:53:45.136Z</time><hdop>3.0</hdop><vdop>2.5</vdop><extensions><gom:speed>0.817</gom:speed></extensions></trkpt>
   <trkpt lat="59.2994494804" lon="34.6716987655"><ele>163.216</ele><time>2026-08-16T15:53:46.136Z</time><hdop>3.0</hdop><vdop>2.5</vdop><extensions><gom:speed>0.863</gom:speed></extensions></trkpt>
   <trkpt lat="59.2994527912" lon="34.6717113383"><ele>163.634</ele><time>2026-08-16T15:53:47.123Z</time><hdop>3.0</hdop><vdop>2.5</vdop><extensions><gom:speed>0.806</gom:speed></extensions></trkpt>
   <trkpt lat="59.2994546772" lon="34.6717206422"><ele>164.074</ele><time>2026-08-16T15:53:47.575Z</time><hdop>3.0</hdop><vdop>2.562</vdop><extensions><gom:speed>0.967</gom:speed></extensions></trkpt>
   <trkpt lat="59.2994585748" lon="34.6717246656"><ele>164.337</ele><time>2026-08-16T15:53:48.056Z</time><hdop>3.0</hdop><vdop>2.562</vdop><extensions><gom:speed>0.961</gom:speed></extensions></trkpt>
   <trkpt lat="59.299460293" lon="34.6717214804"><ele>163.204</ele><time>2026-08-16T15:53:48.517Z</time><hdop>3.0</hdop><vdop>2.5</vdop><extensions><gom:speed>0.854</gom:speed></extensions></trkpt>
   <trkpt lat="59.2994623885" lon="34.6717185468"><ele>162.638</ele><time>2026-08-16T15:53:49.136Z</time><hdop>3.0</hdop><vdop>2.625</vdop><extensions><gom:speed>0.742</gom:speed></extensions></trkpt>
   <trkpt lat="59.2994608798" lon="34.6717117574"><ele>162.382</ele><time>2026-08-16T15:53:50.136Z</time><hdop>3.0</hdop><vdop>2.562</vdop><extensions><gom:speed>0.395</gom:speed></extensions></trkpt>
   <trkpt lat="59.2994580718" lon="34.6717127632"><ele>162.244</ele><time>2026-08-16T15:53:51.136Z</time><hdop>3.0</hdop><vdop>2.562</vdop><extensions><gom:speed>0.197</gom:speed></extensions></trkpt>
   <trkpt lat="59.2994569822" lon="34.6717139367"><ele>162.161</ele><time>2026-08-16T15:53:51.903Z</time><hdop>3.0</hdop><vdop>2.562</vdop><extensions><gom:speed>0.169</gom:speed></extensions></trkpt>
   <trkpt lat="59.2994567726" lon="34.6717207261"><ele>162.187</ele><time>2026-08-16T15:53:53.136Z</time><hdop>3.0</hdop><vdop>2.75</vdop><extensions><gom:speed>0.307</gom:speed></extensions></trkpt>
   <trkpt lat="59.2994567726" lon="34.6717250846"><ele>161.85</ele><time>2026-08-16T15:53:54.135Z</time><hdop>3.0</hdop><vdop>2.937</vdop><extensions><gom:speed>0.223</gom:speed></extensions></trkpt>
   <trkpt lat="59.2994580718" lon="34.6717297785"><ele>161.542</ele><time>2026-08-16T15:53:55.136Z</time><hdop>3.0</hdop><vdop>2.875</vdop><extensions><gom:speed>0.357</gom:speed></extensions></trkpt>
   <trkpt lat="59.2994573594" lon="34.6717316225"><ele>161.359</ele><time>2026-08-16T15:53:56.032Z</time><hdop>3.0</hdop><vdop>2.875</vdop><extensions><gom:speed>0.361</gom:speed></extensions></trkpt>
   <trkpt lat="59.2994575689" lon="34.6717359811"><ele>161.298</ele><time>2026-08-16T15:53:57.136Z</time><hdop>3.0</hdop><vdop>2.812</vdop><extensions><gom:speed>0.172</gom:speed></extensions></trkpt>
   <trkpt lat="59.2994577785" lon="34.6717366517"><ele>161.261</ele><time>2026-08-16T15:53:57.868Z</time><hdop>3.0</hdop><vdop>2.812</vdop><extensions><gom:speed>0.148</gom:speed></extensions></trkpt>
   <trkpt lat="59.2994590777" lon="34.6717395853"><ele>161.196</ele><time>2026-08-16T15:53:58.408Z</time><hdop>3.0</hdop><vdop>2.875</vdop><extensions><gom:speed>0.127</gom:speed></extensions></trkpt>
   <trkpt lat="59.2994604607" lon="34.6717426866"><ele>161.325</ele><time>2026-08-16T15:53:59.136Z</time><hdop>3.0</hdop><vdop>2.937</vdop><extensions><gom:speed>0.153</gom:speed></extensions></trkpt>
   <trkpt lat="59.2994615922" lon="34.671744363"><ele>161.402</ele><time>2026-08-16T15:53:59.674Z</time><hdop>3.0</hdop><vdop>2.937</vdop><extensions><gom:speed>0.136</gom:speed></extensions></trkpt>
   <trkpt lat="59.2994632686" lon="34.6717449498"><ele>161.418</ele><time>2026-08-16T15:54:00.136Z</time><hdop>3.0</hdop><vdop>2.75</vdop><extensions><gom:speed>0.242</gom:speed></extensions></trkpt>
   <trkpt lat="59.2994663699" lon="34.6717460394"><ele>161.215</ele><time>2026-08-16T15:54:01.136Z</time><hdop>3.0</hdop><vdop>2.75</vdop><extensions><gom:speed>0.34</gom:speed></extensions></trkpt>
   <trkpt lat="59.2994675853" lon="34.6717454527"><ele>161.094</ele><time>2026-08-16T15:54:01.677Z</time><hdop>3.0</hdop><vdop>2.75</vdop><extensions><gom:speed>0.281</gom:speed></extensions></trkpt>
   <trkpt lat="59.2994705609" lon="34.6717459556"><ele>161.009</ele><time>2026-08-16T15:54:02.136Z</time><hdop>3.0</hdop><vdop>2.75</vdop><extensions><gom:speed>0.367</gom:speed></extensions></trkpt>
   <trkpt lat="59.2994796972" lon="34.6717465423"><ele>160.936</ele><time>2026-08-16T15:54:03.136Z</time><hdop>3.0</hdop><vdop>3.0</vdop><extensions><gom:speed>0.642</gom:speed></extensions></trkpt>
   <trkpt lat="59.2994915995" lon="34.6717562653"><ele>160.669</ele><time>2026-08-16T15:54:04.136Z</time><hdop>3.062</hdop><vdop>3.187</vdop><extensions><gom:speed>0.867</gom:speed></extensions></trkpt>
   <trkpt lat="59.2994993946" lon="34.6717676647"><ele>160.51</ele><time>2026-08-16T15:54:05.066Z</time><hdop>3.125</hdop><vdop>3.187</vdop><extensions><gom:speed>0.871</gom:speed></extensions></trkpt>
   <trkpt lat="59.2995011967" lon="34.6717723586"><ele>160.382</ele><time>2026-08-16T15:54:05.684Z</time><hdop>3.125</hdop><vdop>3.0</vdop><extensions><gom:speed>0.584</gom:speed></extensions></trkpt>
   <trkpt lat="59.2995028731" lon="34.6717763819"><ele>160.391</ele><time>2026-08-16T15:54:06.136Z</time><hdop>3.125</hdop><vdop>3.062</vdop><extensions><gom:speed>0.625</gom:speed></extensions></trkpt>
   <trkpt lat="59.2995065612" lon="34.67178468"><ele>160.396</ele><time>2026-08-16T15:54:07.039Z</time><hdop>3.187</hdop><vdop>3.062</vdop><extensions><gom:speed>0.663</gom:speed></extensions></trkpt>
   <trkpt lat="59.2995154879" lon="34.6717970852"><ele>161.063</ele><time>2026-08-16T15:54:08.136Z</time><hdop>3.187</hdop><vdop>2.562</vdop><extensions><gom:speed>0.946</gom:speed></extensions></trkpt>
   <trkpt lat="59.2995217743" lon="34.6718072273"><ele>161.37</ele><time>2026-08-16T15:54:09.136Z</time><hdop>3.187</hdop><vdop>2.5</vdop><extensions><gom:speed>0.828</gom:speed></extensions></trkpt>
   <trkpt lat="59.2995261748" lon="34.6718174532"><ele>161.37</ele><time>2026-08-16T15:54:10.136Z</time><hdop>3.062</hdop><vdop>2.687</vdop><extensions><gom:speed>0.808</gom:speed></extensions></trkpt>
   <trkpt lat="59.2995299886" lon="34.6718282659"><ele>161.37</ele><time>2026-08-16T15:54:10.925Z</time><hdop>3.062</hdop><vdop>2.687</vdop><extensions><gom:speed>0.876</gom:speed></extensions></trkpt>
   <trkpt lat="59.2995323774" lon="34.6718336303"><ele>161.332</ele><time>2026-08-16T15:54:11.564Z</time><hdop>3.062</hdop><vdop>2.687</vdop><extensions><gom:speed>0.875</gom:speed></extensions></trkpt>
   <trkpt lat="59.2995357721" lon="34.6718399167"><ele>161.515</ele><time>2026-08-16T15:54:12.136Z</time><hdop>3.0</hdop><vdop>2.625</vdop><extensions><gom:speed>0.953</gom:speed></extensions></trkpt>
   <trkpt lat="59.2995433996" lon="34.6718482986"><ele>161.669</ele><time>2026-08-16T15:54:13.136Z</time><hdop>3.0</hdop><vdop>2.75</vdop><extensions><gom:speed>0.93</gom:speed></extensions></trkpt>
   <trkpt lat="59.2995488898" lon="34.671849975"><ele>161.569</ele><time>2026-08-16T15:54:14.136Z</time><hdop>3.0</hdop><vdop>2.5</vdop><extensions><gom:speed>0.735</gom:speed></extensions></trkpt>
   <trkpt lat="59.299549686" lon="34.6718523219"><ele>161.509</ele><time>2026-08-16T15:54:14.663Z</time><hdop>3.0</hdop><vdop>2.5</vdop><extensions><gom:speed>0.668</gom:speed></extensions></trkpt>
   <trkpt lat="59.2995504823" lon="34.6718493883"><ele>161.427</ele><time>2026-08-16T15:54:15.136Z</time><hdop>3.0</hdop><vdop>2.5</vdop><extensions><gom:speed>0.623</gom:speed></extensions></trkpt>
   <trkpt lat="59.2995530807" lon="34.6718477957"><ele>161.379</ele><time>2026-08-16T15:54:15.997Z</time><hdop>3.0</hdop><vdop>2.5</vdop><extensions><gom:speed>0.5</gom:speed></extensions></trkpt>
   <trkpt lat="59.2995542961" lon="34.6718368992"><ele>161.016</ele><time>2026-08-16T15:54:16.743Z</time><hdop>3.0</hdop><vdop>2.5</vdop><extensions><gom:speed>0.479</gom:speed></extensions></trkpt>
   <trkpt lat="59.2995533741" lon="34.6718311995"><ele>160.448</ele><time>2026-08-16T15:54:17.460Z</time><hdop>3.0</hdop><vdop>2.562</vdop><extensions><gom:speed>0.492</gom:speed></extensions></trkpt>
   <trkpt lat="59.2995553857" lon="34.6718334627"><ele>160.109</ele><time>2026-08-16T15:54:18.137Z</time><hdop>3.0</hdop><vdop>2.562</vdop><extensions><gom:speed>0.522</gom:speed></extensions></trkpt>
   <trkpt lat="59.2995541704" lon="34.6718308643"><ele>159.765</ele><time>2026-08-16T15:54:19.135Z</time><hdop>3.0</hdop><vdop>3.0</vdop><extensions><gom:speed>0.452</gom:speed></extensions></trkpt>
   <trkpt lat="59.2995564754" lon="34.6718334627"><ele>159.363</ele><time>2026-08-16T15:54:20.136Z</time><hdop>3.0</hdop><vdop>2.875</vdop><extensions><gom:speed>0.481</gom:speed></extensions></trkpt>
   <trkpt lat="59.2995593671" lon="34.6718444429"><ele>159.042</ele><time>2026-08-16T15:54:21.135Z</time><hdop>3.0</hdop><vdop>2.937</vdop><extensions><gom:speed>0.595</gom:speed></extensions></trkpt>
   <trkpt lat="59.2995609597" lon="34.6718552556"><ele>158.85</ele><time>2026-08-16T15:54:21.906Z</time><hdop>3.062</hdop><vdop>2.937</vdop><extensions><gom:speed>0.766</gom:speed></extensions></trkpt>
   <trkpt lat="59.299566366" lon="34.6718708459"><ele>158.362</ele><time>2026-08-16T15:54:22.583Z</time><hdop>3.062</hdop><vdop>2.625</vdop><extensions><gom:speed>0.792</gom:speed></extensions></trkpt>
   <trkpt lat="59.2995722753" lon="34.6718832512"><ele>158.27</ele><time>2026-08-16T15:54:23.136Z</time><hdop>3.062</hdop><vdop>2.562</vdop><extensions><gom:speed>0.779</gom:speed></extensions></trkpt>
   <trkpt lat="59.2995830879" lon="34.6719000988"><ele>158.383</ele><time>2026-08-16T15:54:24.136Z</time><hdop>3.0</hdop><vdop>2.562</vdop><extensions><gom:speed>0.764</gom:speed></extensions></trkpt>
   <trkpt lat="59.2995922661" lon="34.6719095703"><ele>158.45</ele><time>2026-08-16T15:54:25.077Z</time><hdop>3.062</hdop><vdop>2.562</vdop><extensions><gom:speed>0.801</gom:speed></extensions></trkpt>
   <trkpt lat="59.2995995584" lon="34.6719224785"><ele>158.655</ele><time>2026-08-16T15:54:25.901Z</time><hdop>3.062</hdop><vdop>2.75</vdop><extensions><gom:speed>0.759</gom:speed></extensions></trkpt>
   <trkpt lat="59.299606683" lon="34.6719401643"><ele>159.105</ele><time>2026-08-16T15:54:26.804Z</time><hdop>3.062</hdop><vdop>2.875</vdop><extensions><gom:speed>0.773</gom:speed></extensions></trkpt>
   <trkpt lat="59.2996115864" lon="34.6719551679"><ele>159.22</ele><time>2026-08-16T15:54:27.403Z</time><hdop>3.0</hdop><vdop>2.937</vdop><extensions><gom:speed>0.845</gom:speed></extensions></trkpt>
   <trkpt lat="59.2996142686" lon="34.6719637174"><ele>159.288</ele><time>2026-08-16T15:54:27.904Z</time><hdop>3.0</hdop><vdop>2.937</vdop><extensions><gom:speed>0.846</gom:speed></extensions></trkpt>
   <trkpt lat="59.2996220638" lon="34.671978721"><ele>159.329</ele><time>2026-08-16T15:54:28.777Z</time><hdop>3.0</hdop><vdop>2.687</vdop><extensions><gom:speed>0.889</gom:speed></extensions></trkpt>
   <trkpt lat="59.2996286855" lon="34.6719812356"><ele>159.456</ele><time>2026-08-16T15:54:29.346Z</time><hdop>3.0</hdop><vdop>2.687</vdop><extensions><gom:speed>0.849</gom:speed></extensions></trkpt>
   <trkpt lat="59.2996334632" lon="34.6719795592"><ele>159.531</ele><time>2026-08-16T15:54:29.837Z</time><hdop>3.0</hdop><vdop>2.687</vdop><extensions><gom:speed>0.844</gom:speed></extensions></trkpt>
   <trkpt lat="59.2996404621" lon="34.6719707582"><ele>159.559</ele><time>2026-08-16T15:54:30.819Z</time><hdop>3.0</hdop><vdop>2.562</vdop><extensions><gom:speed>0.775</gom:speed></extensions></trkpt>
   <trkpt lat="59.2996463713" lon="34.6719657291"><ele>159.825</ele><time>2026-08-16T15:54:31.359Z</time><hdop>3.0</hdop><vdop>2.5</vdop><extensions><gom:speed>0.912</gom:speed></extensions></trkpt>
   <trkpt lat="59.2996527835" lon="34.6719606999"><ele>160.293</ele><time>2026-08-16T15:54:32.136Z</time><hdop>3.0</hdop><vdop>2.562</vdop><extensions><gom:speed>0.832</gom:speed></extensions></trkpt>
   <trkpt lat="59.2996603691" lon="34.6719614543"><ele>160.573</ele><time>2026-08-16T15:54:33.057Z</time><hdop>3.0</hdop><vdop>2.562</vdop><extensions><gom:speed>0.809</gom:speed></extensions></trkpt>
   <trkpt lat="59.2996669908" lon="34.6719709259"><ele>160.619</ele><time>2026-08-16T15:54:33.842Z</time><hdop>3.0</hdop><vdop>2.625</vdop><extensions><gom:speed>0.817</gom:speed></extensions></trkpt>
   <trkpt lat="59.2996732772" lon="34.6719788887"><ele>160.37</ele><time>2026-08-16T15:54:34.303Z</time><hdop>3.0</hdop><vdop>2.5</vdop><extensions><gom:speed>0.965</gom:speed></extensions></trkpt>
   <trkpt lat="59.2996781806" lon="34.6719827443"><ele>160.221</ele><time>2026-08-16T15:54:34.843Z</time><hdop>3.0</hdop><vdop>2.5</vdop><extensions><gom:speed>0.899</gom:speed></extensions></trkpt>
   <trkpt lat="59.2996794798" lon="34.6719871868"><ele>160.064</ele><time>2026-08-16T15:54:35.324Z</time><hdop>3.0</hdop><vdop>2.5</vdop><extensions><gom:speed>0.686</gom:speed></extensions></trkpt>
   <trkpt lat="59.2996810724" lon="34.6719932217"><ele>159.995</ele><time>2026-08-16T15:54:36.136Z</time><hdop>3.0</hdop><vdop>2.5</vdop><extensions><gom:speed>0.521</gom:speed></extensions></trkpt>
   <trkpt lat="59.2996804856" lon="34.6719987538"><ele>159.346</ele><time>2026-08-16T15:54:37.136Z</time><hdop>3.0</hdop><vdop>2.5</vdop><extensions><gom:speed>0.359</gom:speed></extensions></trkpt>
   <trkpt lat="59.2996801923" lon="34.6720005978"><ele>158.958</ele><time>2026-08-16T15:54:37.680Z</time><hdop>3.0</hdop><vdop>2.5</vdop><extensions><gom:speed>0.306</gom:speed></extensions></trkpt>
   <trkpt lat="59.2996798989" lon="34.6720011845"><ele>158.876</ele><time>2026-08-16T15:54:38.136Z</time><hdop>3.0</hdop><vdop>2.5</vdop><extensions><gom:speed>0.273</gom:speed></extensions></trkpt>
   <trkpt lat="59.2996842994" lon="34.6720050402"><ele>159.268</ele><time>2026-08-16T15:54:39.136Z</time><hdop>3.0</hdop><vdop>2.5</vdop><extensions><gom:speed>0.612</gom:speed></extensions></trkpt>
   <trkpt lat="59.2996900829" lon="34.6720054593"><ele>159.502</ele><time>2026-08-16T15:54:39.958Z</time><hdop>3.0</hdop><vdop>2.5</vdop><extensions><gom:speed>0.608</gom:speed></extensions></trkpt>
   <trkpt lat="59.2996942739" lon="34.6720037829"><ele>159.483</ele><time>2026-08-16T15:54:40.704Z</time><hdop>3.0</hdop><vdop>2.5</vdop><extensions><gom:speed>0.595</gom:speed></extensions></trkpt>
   <trkpt lat="59.2996952797" lon="34.6720031962"><ele>159.44</ele><time>2026-08-16T15:54:41.283Z</time><hdop>3.0</hdop><vdop>2.5</vdop><extensions><gom:speed>0.411</gom:speed></extensions></trkpt>
   <trkpt lat="59.2996977943" lon="34.6720013522"><ele>159.414</ele><time>2026-08-16T15:54:41.941Z</time><hdop>3.0</hdop><vdop>2.5</vdop><extensions><gom:speed>0.448</gom:speed></extensions></trkpt>
   <trkpt lat="59.2997001831" lon="34.6720004302"><ele>159.763</ele><time>2026-08-16T15:54:42.883Z</time><hdop>3.0</hdop><vdop>2.5</vdop><extensions><gom:speed>0.379</gom:speed></extensions></trkpt>
   <trkpt lat="59.2997032844" lon="34.6720017713"><ele>160.106</ele><time>2026-08-16T15:54:43.845Z</time><hdop>3.0</hdop><vdop>2.5</vdop><extensions><gom:speed>0.413</gom:speed></extensions></trkpt>
   <trkpt lat="59.299709487" lon="34.6720039506"><ele>160.873</ele><time>2026-08-16T15:54:44.699Z</time><hdop>3.0</hdop><vdop>2.5</vdop><extensions><gom:speed>0.595</gom:speed></extensions></trkpt>
   <trkpt lat="59.2997143904" lon="34.6720063813"><ele>160.837</ele><time>2026-08-16T15:54:45.857Z</time><hdop>3.0</hdop><vdop>2.5</vdop><extensions><gom:speed>0.419</gom:speed></extensions></trkpt>
   <trkpt lat="59.2997158992" lon="34.6720150985"><ele>160.397</ele><time>2026-08-16T15:54:46.937Z</time><hdop>3.0</hdop><vdop>2.5</vdop><extensions><gom:speed>0.574</gom:speed></extensions></trkpt>
   <trkpt lat="59.2997152705" lon="34.6720288448"><ele>160.085</ele><time>2026-08-16T15:54:47.997Z</time><hdop>3.0</hdop><vdop>2.5</vdop><extensions><gom:speed>0.707</gom:speed></extensions></trkpt>
   <trkpt lat="59.2997145581" lon="34.672034796"><ele>160.012</ele><time>2026-08-16T15:54:48.763Z</time><hdop>3.0</hdop><vdop>2.5</vdop><extensions><gom:speed>0.662</gom:speed></extensions></trkpt>
   <trkpt lat="59.2997158992" lon="34.6720405795"><ele>159.825</ele><time>2026-08-16T15:54:49.941Z</time><hdop>3.0</hdop><vdop>2.5</vdop><extensions><gom:speed>0.513</gom:speed></extensions></trkpt>
   <trkpt lat="59.2997166955" lon="34.6720474526"><ele>159.582</ele><time>2026-08-16T15:54:50.803Z</time><hdop>3.0</hdop><vdop>2.5</vdop><extensions><gom:speed>0.576</gom:speed></extensions></trkpt>
   <trkpt lat="59.2997220599" lon="34.6720521465"><ele>159.578</ele><time>2026-08-16T15:54:51.619Z</time><hdop>3.0</hdop><vdop>2.5</vdop><extensions><gom:speed>0.724</gom:speed></extensions></trkpt>
   <trkpt lat="59.2997269633" lon="34.6720493805"><ele>159.54</ele><time>2026-08-16T15:54:52.136Z</time><hdop>3.0</hdop><vdop>2.5</vdop><extensions><gom:speed>0.699</gom:speed></extensions></trkpt>
   <trkpt lat="59.2997352614" lon="34.6720438484"><ele>159.348</ele><time>2026-08-16T15:54:53.136Z</time><hdop>3.0</hdop><vdop>2.5</vdop><extensions><gom:speed>0.672</gom:speed></extensions></trkpt>
   <trkpt lat="59.2997406677" lon="34.6720427588"><ele>159.233</ele><time>2026-08-16T15:54:53.857Z</time><hdop>3.0</hdop><vdop>2.5</vdop><extensions><gom:speed>0.701</gom:speed></extensions></trkpt>
   <trkpt lat="59.2997467865" lon="34.6720392384"><ele>158.912</ele><time>2026-08-16T15:54:54.858Z</time><hdop>3.0</hdop><vdop>2.5</vdop><extensions><gom:speed>0.659</gom:speed></extensions></trkpt>
   <trkpt lat="59.2997514804" lon="34.6720309403"><ele>158.698</ele><time>2026-08-16T15:54:56.136Z</time><hdop>3.0</hdop><vdop>2.5</vdop><extensions><gom:speed>0.544</gom:speed></extensions></trkpt>
   <trkpt lat="59.299753492" lon="34.672028761"><ele>158.571</ele><time>2026-08-16T15:54:56.625Z</time><hdop>3.0</hdop><vdop>2.5</vdop><extensions><gom:speed>0.562</gom:speed></extensions></trkpt>
   <trkpt lat="59.2997544978" lon="34.6720280904"><ele>158.659</ele><time>2026-08-16T15:54:57.136Z</time><hdop>3.0</hdop><vdop>2.5</vdop><extensions><gom:speed>0.468</gom:speed></extensions></trkpt>
   <trkpt lat="59.2997568867" lon="34.6720313594"><ele>158.711</ele><time>2026-08-16T15:54:57.881Z</time><hdop>3.0</hdop><vdop>2.5</vdop><extensions><gom:speed>0.49</gom:speed></extensions></trkpt>
   <trkpt lat="59.2997607843" lon="34.672033371"><ele>158.526</ele><time>2026-08-16T15:54:58.764Z</time><hdop>3.0</hdop><vdop>2.5</vdop><extensions><gom:speed>0.557</gom:speed></extensions></trkpt>
   <trkpt lat="59.2997640951" lon="34.6720316947"><ele>158.556</ele><time>2026-08-16T15:54:59.324Z</time><hdop>3.0</hdop><vdop>2.5</vdop><extensions><gom:speed>0.587</gom:speed></extensions></trkpt>
   <trkpt lat="59.2997693757" lon="34.6720307727"><ele>158.72</ele><time>2026-08-16T15:55:00.135Z</time><hdop>3.0</hdop><vdop>2.5</vdop><extensions><gom:speed>0.682</gom:speed></extensions></trkpt>
   <trkpt lat="59.2997744887" lon="34.6720303536"><ele>158.818</ele><time>2026-08-16T15:55:00.737Z</time><hdop>3.0</hdop><vdop>2.5</vdop><extensions><gom:speed>0.747</gom:speed></extensions></trkpt>
   <trkpt lat="59.2997782605" lon="34.6720322814"><ele>158.836</ele><time>2026-08-16T15:55:01.218Z</time><hdop>3.0</hdop><vdop>2.5</vdop><extensions><gom:speed>0.776</gom:speed></extensions></trkpt>
   <trkpt lat="59.2997846727" lon="34.672034796"><ele>158.846</ele><time>2026-08-16T15:55:02.043Z</time><hdop>3.0</hdop><vdop>2.5</vdop><extensions><gom:speed>0.799</gom:speed></extensions></trkpt>
   <trkpt lat="59.2997905819" lon="34.6720390707"><ele>158.863</ele><time>2026-08-16T15:55:02.779Z</time><hdop>3.0</hdop><vdop>2.5</vdop><extensions><gom:speed>0.841</gom:speed></extensions></trkpt>
   <trkpt lat="59.2997957787" lon="34.672043597"><ele>158.805</ele><time>2026-08-16T15:55:03.339Z</time><hdop>3.0</hdop><vdop>2.5</vdop><extensions><gom:speed>0.864</gom:speed></extensions></trkpt>
   <trkpt lat="59.2998036996" lon="34.6720480394"><ele>158.894</ele><time>2026-08-16T15:55:04.136Z</time><hdop>3.0</hdop><vdop>2.5</vdop><extensions><gom:speed>0.944</gom:speed></extensions></trkpt>
   <trkpt lat="59.2998140932" lon="34.6720520627"><ele>158.879</ele><time>2026-08-16T15:55:05.136Z</time><hdop>3.0</hdop><vdop>2.5</vdop><extensions><gom:speed>0.951</gom:speed></extensions></trkpt>
   <trkpt lat="59.2998222655" lon="34.6720519789"><ele>158.87</ele><time>2026-08-16T15:55:05.978Z</time><hdop>3.0</hdop><vdop>2.5</vdop><extensions><gom:speed>0.931</gom:speed></extensions></trkpt>
   <trkpt lat="59.2998282586" lon="34.6720532362"><ele>158.992</ele><time>2026-08-16T15:55:06.646Z</time><hdop>3.0</hdop><vdop>2.5</vdop><extensions><gom:speed>0.996</gom:speed></extensions></trkpt>
   <trkpt lat="59.2998324915" lon="34.672055164"><ele>158.862</ele><time>2026-08-16T15:55:07.136Z</time><hdop>3.0</hdop><vdop>2.5</vdop><extensions><gom:speed>0.947</gom:speed></extensions></trkpt>
   <trkpt lat="59.2998398675" lon="34.67205793"><ele>158.785</ele><time>2026-08-16T15:55:07.903Z</time><hdop>3.0</hdop><vdop>2.5</vdop><extensions><gom:speed>0.998</gom:speed></extensions></trkpt>
   <trkpt lat="59.299844268" lon="34.6720657252"><ele>158.599</ele><time>2026-08-16T15:55:08.443Z</time><hdop>3.0</hdop><vdop>2.5</vdop><extensions><gom:speed>0.987</gom:speed></extensions></trkpt>
   <trkpt lat="59.2998508897" lon="34.6720699161"><ele>158.488</ele><time>2026-08-16T15:55:09.120Z</time><hdop>3.0</hdop><vdop>2.5</vdop><extensions><gom:speed>0.993</gom:speed></extensions></trkpt>
   <trkpt lat="59.2998597746" lon="34.6720779628"><ele>158.569</ele><time>2026-08-16T15:55:10.136Z</time><hdop>3.0</hdop><vdop>2.875</vdop><extensions><gom:speed>0.989</gom:speed></extensions></trkpt>
   <trkpt lat="59.2998668992" lon="34.6720823214"><ele>158.618</ele><time>2026-08-16T15:55:10.906Z</time><hdop>3.0</hdop><vdop>2.875</vdop><extensions><gom:speed>0.978</gom:speed></extensions></trkpt>
   <trkpt lat="59.2998712997" lon="34.6720882725"><ele>158.799</ele><time>2026-08-16T15:55:11.505Z</time><hdop>3.0</hdop><vdop>3.0</vdop><extensions><gom:speed>0.956</gom:speed></extensions></trkpt>
   <trkpt lat="59.2998760774" lon="34.6720929664"><ele>158.908</ele><time>2026-08-16T15:55:12.064Z</time><hdop>3.0</hdop><vdop>3.0</vdop><extensions><gom:speed>0.952</gom:speed></extensions></trkpt>
   <trkpt lat="59.2998815675" lon="34.6721007615"><ele>158.658</ele><time>2026-08-16T15:55:12.781Z</time><hdop>3.0</hdop><vdop>2.937</vdop><extensions><gom:speed>0.932</gom:speed></extensions></trkpt>
   <trkpt lat="59.2998874767" lon="34.6721075509"><ele>158.726</ele><time>2026-08-16T15:55:13.419Z</time><hdop>3.0</hdop><vdop>3.125</vdop><extensions><gom:speed>0.985</gom:speed></extensions></trkpt>
   <trkpt lat="59.2998943918" lon="34.6721135859"><ele>158.686</ele><time>2026-08-16T15:55:14.136Z</time><hdop>3.0</hdop><vdop>2.875</vdop><extensions><gom:speed>0.975</gom:speed></extensions></trkpt>
   <trkpt lat="59.2998990857" lon="34.6721148431"><ele>158.663</ele><time>2026-08-16T15:55:14.597Z</time><hdop>3.0</hdop><vdop>2.875</vdop><extensions><gom:speed>1.006</gom:speed></extensions></trkpt>
   <trkpt lat="59.2999045758" lon="34.6721156813"><ele>158.649</ele><time>2026-08-16T15:55:15.117Z</time><hdop>3.0</hdop><vdop>2.875</vdop><extensions><gom:speed>0.997</gom:speed></extensions></trkpt>
   <trkpt lat="59.2999112813" lon="34.6721223869"><ele>158.438</ele><time>2026-08-16T15:55:15.922Z</time><hdop>3.0</hdop><vdop>2.812</vdop><extensions><gom:speed>0.994</gom:speed></extensions></trkpt>
   <trkpt lat="59.2999213815" lon="34.6721364685"><ele>157.919</ele><time>2026-08-16T15:55:17.138Z</time><hdop>3.0</hdop><vdop>3.0</vdop><extensions><gom:speed>0.98</gom:speed></extensions></trkpt>
   <trkpt lat="59.2999279613" lon="34.6721530646"><ele>157.413</ele><time>2026-08-16T15:55:18.136Z</time><hdop>3.0</hdop><vdop>2.937</vdop><extensions><gom:speed>0.976</gom:speed></extensions></trkpt>
   <trkpt lat="59.2999343735" lon="34.6721687388"><ele>157.443</ele><time>2026-08-16T15:55:19.136Z</time><hdop>3.0</hdop><vdop>2.562</vdop><extensions><gom:speed>0.99</gom:speed></extensions></trkpt>
   <trkpt lat="59.2999426716" lon="34.6721777912"><ele>157.377</ele><time>2026-08-16T15:55:20.136Z</time><hdop>3.0</hdop><vdop>2.5</vdop><extensions><gom:speed>0.962</gom:speed></extensions></trkpt>
   <trkpt lat="59.2999477845" lon="34.6721824851"><ele>157.337</ele><time>2026-08-16T15:55:20.722Z</time><hdop>3.0</hdop><vdop>2.5</vdop><extensions><gom:speed>0.967</gom:speed></extensions></trkpt>
   <trkpt lat="59.2999525622" lon="34.6721856702"><ele>157.381</ele><time>2026-08-16T15:55:21.222Z</time><hdop>3.0</hdop><vdop>2.5</vdop><extensions><gom:speed>1.015</gom:speed></extensions></trkpt>
   <trkpt lat="59.2999603993" lon="34.6721937169"><ele>157.407</ele><time>2026-08-16T15:55:22.106Z</time><hdop>3.0</hdop><vdop>2.5</vdop><extensions><gom:speed>0.981</gom:speed></extensions></trkpt>
   <trkpt lat="59.299966099" lon="34.6722052839"><ele>157.457</ele><time>2026-08-16T15:55:22.999Z</time><hdop>3.0</hdop><vdop>2.5</vdop><extensions><gom:speed>0.978</gom:speed></extensions></trkpt>
   <trkpt lat="59.2999705833" lon="34.6722108998"><ele>157.855</ele><time>2026-08-16T15:55:23.597Z</time><hdop>3.0</hdop><vdop>2.5</vdop><extensions><gom:speed>0.939</gom:speed></extensions></trkpt>
   <trkpt lat="59.2999752772" lon="34.6722153422"><ele>158.142</ele><time>2026-08-16T15:55:24.135Z</time><hdop>3.0</hdop><vdop>2.5</vdop><extensions><gom:speed>0.931</gom:speed></extensions></trkpt>
   <trkpt lat="59.2999814798" lon="34.6722202875"><ele>158.314</ele><time>2026-08-16T15:55:24.824Z</time><hdop>3.0</hdop><vdop>2.5</vdop><extensions><gom:speed>0.944</gom:speed></extensions></trkpt>
   <trkpt lat="59.2999894845" lon="34.6722241432"><ele>158.735</ele><time>2026-08-16T15:55:25.737Z</time><hdop>3.0</hdop><vdop>2.5</vdop><extensions><gom:speed>0.906</gom:speed></extensions></trkpt>
   <trkpt lat="59.2999944717" lon="34.6722258195"><ele>159.349</ele><time>2026-08-16T15:55:26.238Z</time><hdop>3.0</hdop><vdop>2.687</vdop><extensions><gom:speed>0.91</gom:speed></extensions></trkpt>
   <trkpt lat="59.3000000876" lon="34.6722303458"><ele>159.717</ele><time>2026-08-16T15:55:26.866Z</time><hdop>3.0</hdop><vdop>2.687</vdop><extensions><gom:speed>0.944</gom:speed></extensions></trkpt>
   <trkpt lat="59.3000108584" lon="34.6722361293"><ele>160.302</ele><time>2026-08-16T15:55:28.103Z</time><hdop>3.0</hdop><vdop>2.75</vdop><extensions><gom:speed>0.879</gom:speed></extensions></trkpt>
   <trkpt lat="59.3000167676" lon="34.6722392306"><ele>160.495</ele><time>2026-08-16T15:55:28.898Z</time><hdop>3.0</hdop><vdop>2.812</vdop><extensions><gom:speed>0.806</gom:speed></extensions></trkpt>
   <trkpt lat="59.3000234731" lon="34.6722416613"><ele>160.447</ele><time>2026-08-16T15:55:29.703Z</time><hdop>3.0</hdop><vdop>2.687</vdop><extensions><gom:speed>0.784</gom:speed></extensions></trkpt>
   <trkpt lat="59.3000291728" lon="34.6722439245"><ele>160.088</ele><time>2026-08-16T15:55:30.359Z</time><hdop>3.0</hdop><vdop>2.625</vdop><extensions><gom:speed>0.807</gom:speed></extensions></trkpt>
   <trkpt lat="59.3000339924" lon="34.6722459361"><ele>159.873</ele><time>2026-08-16T15:55:30.860Z</time><hdop>3.0</hdop><vdop>2.625</vdop><extensions><gom:speed>0.854</gom:speed></extensions></trkpt>
   <trkpt lat="59.3000397759" lon="34.6722518873"><ele>159.92</ele><time>2026-08-16T15:55:31.597Z</time><hdop>3.0</hdop><vdop>2.562</vdop><extensions><gom:speed>0.879</gom:speed></extensions></trkpt>
   <trkpt lat="59.3000433801" lon="34.6722558268"><ele>159.947</ele><time>2026-08-16T15:55:32.078Z</time><hdop>3.0</hdop><vdop>2.562</vdop><extensions><gom:speed>0.893</gom:speed></extensions></trkpt>
   <trkpt lat="59.3000483674" lon="34.6722623646"><ele>159.696</ele><time>2026-08-16T15:55:32.804Z</time><hdop>3.0</hdop><vdop>2.5</vdop><extensions><gom:speed>0.89</gom:speed></extensions></trkpt>
   <trkpt lat="59.3000519716" lon="34.6722662203"><ele>159.477</ele><time>2026-08-16T15:55:33.305Z</time><hdop>3.0</hdop><vdop>2.5</vdop><extensions><gom:speed>0.876</gom:speed></extensions></trkpt>
   <trkpt lat="59.3000584676" lon="34.6722718362"><ele>159.347</ele><time>2026-08-16T15:55:34.080Z</time><hdop>3.0</hdop><vdop>2.5</vdop><extensions><gom:speed>0.902</gom:speed></extensions></trkpt>
   <trkpt lat="59.3000652988" lon="34.6722765301"><ele>159.257</ele><time>2026-08-16T15:55:34.846Z</time><hdop>3.0</hdop><vdop>2.5</vdop><extensions><gom:speed>0.932</gom:speed></extensions></trkpt>
   <trkpt lat="59.3000700765" lon="34.6722780388"><ele>158.987</ele><time>2026-08-16T15:55:35.464Z</time><hdop>3.0</hdop><vdop>2.5</vdop><extensions><gom:speed>0.966</gom:speed></extensions></trkpt>
   <trkpt lat="59.3000741836" lon="34.6722794637"><ele>158.826</ele><time>2026-08-16T15:55:35.926Z</time><hdop>3.0</hdop><vdop>2.5</vdop><extensions><gom:speed>0.964</gom:speed></extensions></trkpt>
   <trkpt lat="59.3000812663" lon="34.6722804696"><ele>158.358</ele><time>2026-08-16T15:55:36.779Z</time><hdop>3.0</hdop><vdop>2.5</vdop><extensions><gom:speed>0.978</gom:speed></extensions></trkpt>
   <trkpt lat="59.3000852897" lon="34.6722804696"><ele>158.069</ele><time>2026-08-16T15:55:37.300Z</time><hdop>3.0</hdop><vdop>2.5</vdop><extensions><gom:speed>0.954</gom:speed></extensions></trkpt>
   <trkpt lat="59.3000925819" lon="34.6722811401"><ele>157.896</ele><time>2026-08-16T15:55:38.026Z</time><hdop>3.0</hdop><vdop>2.5</vdop><extensions><gom:speed>0.995</gom:speed></extensions></trkpt>
   <trkpt lat="59.3000967729" lon="34.6722818945"><ele>157.593</ele><time>2026-08-16T15:55:38.497Z</time><hdop>3.0</hdop><vdop>2.5</vdop><extensions><gom:speed>1.02</gom:speed></extensions></trkpt>
   <trkpt lat="59.3001019696" lon="34.6722821459"><ele>157.412</ele><time>2026-08-16T15:55:38.998Z</time><hdop>3.0</hdop><vdop>2.5</vdop><extensions><gom:speed>1.029</gom:speed></extensions></trkpt>
   <trkpt lat="59.3001086752" lon="34.6722847443"><ele>157.126</ele><time>2026-08-16T15:55:39.803Z</time><hdop>3.0</hdop><vdop>2.5</vdop><extensions><gom:speed>1.066</gom:speed></extensions></trkpt>
   <trkpt lat="59.3001117765" lon="34.6722880971"><ele>157.17</ele><time>2026-08-16T15:55:40.323Z</time><hdop>3.0</hdop><vdop>2.5</vdop><extensions><gom:speed>1.023</gom:speed></extensions></trkpt>
   <trkpt lat="59.3001178953" lon="34.6722917851"><ele>157.196</ele><time>2026-08-16T15:55:41.020Z</time><hdop>3.0</hdop><vdop>2.5</vdop><extensions><gom:speed>1.014</gom:speed></extensions></trkpt>
   <trkpt lat="59.3001222958" lon="34.6722959761"><ele>157.473</ele><time>2026-08-16T15:55:41.737Z</time><hdop>3.0</hdop><vdop>2.5</vdop><extensions><gom:speed>0.931</gom:speed></extensions></trkpt>
   <trkpt lat="59.3001218767" lon="34.6722933777"><ele>157.058</ele><time>2026-08-16T15:55:43.136Z</time><hdop>3.0</hdop><vdop>2.5</vdop><extensions><gom:speed>0.573</gom:speed></extensions></trkpt>
   <trkpt lat="59.3001226729" lon="34.6722942997"><ele>156.81</ele><time>2026-08-16T15:55:43.602Z</time><hdop>3.0</hdop><vdop>2.5</vdop><extensions><gom:speed>0.538</gom:speed></extensions></trkpt>
   <trkpt lat="59.3001243912" lon="34.6722952217"><ele>156.773</ele><time>2026-08-16T15:55:44.136Z</time><hdop>3.0</hdop><vdop>2.5</vdop><extensions><gom:speed>0.602</gom:speed></extensions></trkpt>
   <trkpt lat="59.3001298814" lon="34.6722957246"><ele>156.751</ele><time>2026-08-16T15:55:45.124Z</time><hdop>3.0</hdop><vdop>2.5</vdop><extensions><gom:speed>0.607</gom:speed></extensions></trkpt>
   <trkpt lat="59.3001332761" lon="34.6722971495"><ele>156.895</ele><time>2026-08-16T15:55:45.605Z</time><hdop>3.0</hdop><vdop>2.5</vdop><extensions><gom:speed>0.718</gom:speed></extensions></trkpt>
   <trkpt lat="59.3001367965" lon="34.6723002508"><ele>157.027</ele><time>2026-08-16T15:55:46.135Z</time><hdop>3.0</hdop><vdop>2.5</vdop><extensions><gom:speed>0.758</gom:speed></extensions></trkpt>
   <trkpt lat="59.3001438792" lon="34.672307124"><ele>157.286</ele><time>2026-08-16T15:55:47.136Z</time><hdop>3.0</hdop><vdop>2.5</vdop><extensions><gom:speed>0.785</gom:speed></extensions></trkpt>
   <trkpt lat="59.3001509619" lon="34.6723130752"><ele>157.948</ele><time>2026-08-16T15:55:48.136Z</time><hdop>3.0</hdop><vdop>2.5</vdop><extensions><gom:speed>0.784</gom:speed></extensions></trkpt>
   <trkpt lat="59.3001581703" lon="34.6723139972"><ele>158.344</ele><time>2026-08-16T15:55:48.981Z</time><hdop>3.0</hdop><vdop>2.5</vdop><extensions><gom:speed>0.814</gom:speed></extensions></trkpt>
   <trkpt lat="59.3001578769" lon="34.6723137457"><ele>157.978</ele><time>2026-08-16T15:55:49.461Z</time><hdop>3.0</hdop><vdop>2.5</vdop><extensions><gom:speed>0.525</gom:speed></extensions></trkpt>
   <trkpt lat="59.3001598886" lon="34.6723178528"><ele>157.849</ele><time>2026-08-16T15:55:50.136Z</time><hdop>3.0</hdop><vdop>2.5</vdop><extensions><gom:speed>0.639</gom:speed></extensions></trkpt>
   <trkpt lat="59.3001628642" lon="34.6723271568"><ele>157.45</ele><time>2026-08-16T15:55:51.136Z</time><hdop>3.0</hdop><vdop>2.5</vdop><extensions><gom:speed>0.586</gom:speed></extensions></trkpt>
   <trkpt lat="59.3001671809" lon="34.6723313477"><ele>157.249</ele><time>2026-08-16T15:55:52.136Z</time><hdop>3.0</hdop><vdop>2.5</vdop><extensions><gom:speed>0.576</gom:speed></extensions></trkpt>
   <trkpt lat="59.3001717909" lon="34.6723322697"><ele>157.129</ele><time>2026-08-16T15:55:52.858Z</time><hdop>3.0</hdop><vdop>2.5</vdop><extensions><gom:speed>0.649</gom:speed></extensions></trkpt>
   <trkpt lat="59.3001817654" lon="34.6723357901"><ele>156.668</ele><time>2026-08-16T15:55:54.026Z</time><hdop>3.0</hdop><vdop>2.5</vdop><extensions><gom:speed>0.809</gom:speed></extensions></trkpt>
   <trkpt lat="59.3001895605" lon="34.6723392267"><ele>156.295</ele><time>2026-08-16T15:55:54.820Z</time><hdop>3.0</hdop><vdop>2.5</vdop><extensions><gom:speed>0.903</gom:speed></extensions></trkpt>
   <trkpt lat="59.3001963918" lon="34.6723426633"><ele>155.981</ele><time>2026-08-16T15:55:55.577Z</time><hdop>3.0</hdop><vdop>2.5</vdop><extensions><gom:speed>0.917</gom:speed></extensions></trkpt>
   <trkpt lat="59.3002010856" lon="34.6723436691"><ele>155.892</ele><time>2026-08-16T15:55:56.136Z</time><hdop>3.0</hdop><vdop>2.5</vdop><extensions><gom:speed>0.898</gom:speed></extensions></trkpt>
   <trkpt lat="59.3002089646" lon="34.6723452617"><ele>155.693</ele><time>2026-08-16T15:55:57.136Z</time><hdop>3.0</hdop><vdop>2.5</vdop><extensions><gom:speed>0.88</gom:speed></extensions></trkpt>
   <trkpt lat="59.3002162988" lon="34.6723487821"><ele>155.574</ele><time>2026-08-16T15:55:58.001Z</time><hdop>3.0</hdop><vdop>2.5</vdop><extensions><gom:speed>0.905</gom:speed></extensions></trkpt>
   <trkpt lat="59.3002202802" lon="34.6723491173"><ele>155.42</ele><time>2026-08-16T15:55:58.581Z</time><hdop>3.0</hdop><vdop>2.5</vdop><extensions><gom:speed>0.907</gom:speed></extensions></trkpt>
   <trkpt lat="59.3002233815" lon="34.6723467704"><ele>154.843</ele><time>2026-08-16T15:55:59.136Z</time><hdop>3.0</hdop><vdop>2.5</vdop><extensions><gom:speed>0.825</gom:speed></extensions></trkpt>
   <trkpt lat="59.3002275725" lon="34.6723438367"><ele>154.498</ele><time>2026-08-16T15:55:59.777Z</time><hdop>3.0</hdop><vdop>2.5</vdop><extensions><gom:speed>0.782</gom:speed></extensions></trkpt>
   <trkpt lat="59.3002325597" lon="34.6723421604"><ele>154.217</ele><time>2026-08-16T15:56:00.720Z</time><hdop>3.0</hdop><vdop>2.5</vdop><extensions><gom:speed>0.733</gom:speed></extensions></trkpt>
   <trkpt lat="59.3002361639" lon="34.6723396458"><ele>153.997</ele><time>2026-08-16T15:56:01.437Z</time><hdop>3.0</hdop><vdop>2.5</vdop><extensions><gom:speed>0.719</gom:speed></extensions></trkpt>
   <trkpt lat="59.3002386785" lon="34.6723349519"><ele>153.655</ele><time>2026-08-16T15:56:02.136Z</time><hdop>3.0</hdop><vdop>2.5</vdop><extensions><gom:speed>0.647</gom:speed></extensions></trkpt>
   <trkpt lat="59.3002395586" lon="34.6723214571"><ele>153.75</ele><time>2026-08-16T15:56:03.136Z</time><hdop>3.0</hdop><vdop>2.5</vdop><extensions><gom:speed>0.782</gom:speed></extensions></trkpt>
   <trkpt lat="59.3002382594" lon="34.6723138295"><ele>153.807</ele><time>2026-08-16T15:56:03.645Z</time><hdop>3.0</hdop><vdop>2.5</vdop><extensions><gom:speed>0.779</gom:speed></extensions></trkpt>
   <trkpt lat="59.3002372955" lon="34.6723086327"><ele>153.904</ele><time>2026-08-16T15:56:04.136Z</time><hdop>3.0</hdop><vdop>2.5</vdop><extensions><gom:speed>0.736</gom:speed></extensions></trkpt>
   <trkpt lat="59.300235661" lon="34.6723038551"><ele>153.961</ele><time>2026-08-16T15:56:04.617Z</time><hdop>3.0</hdop><vdop>2.5</vdop><extensions><gom:speed>0.71</gom:speed></extensions></trkpt>
   <trkpt lat="59.3002361639" lon="34.6723011729"><ele>153.941</ele><time>2026-08-16T15:56:05.136Z</time><hdop>3.0</hdop><vdop>2.5</vdop><extensions><gom:speed>0.645</gom:speed></extensions></trkpt>
   <trkpt lat="59.3002373793" lon="34.6722989936"><ele>153.822</ele><time>2026-08-16T15:56:06.136Z</time><hdop>3.0</hdop><vdop>2.5</vdop><extensions><gom:speed>0.467</gom:speed></extensions></trkpt>
   <trkpt lat="59.3002401872" lon="34.6722991612"><ele>153.735</ele><time>2026-08-16T15:56:07.136Z</time><hdop>3.0</hdop><vdop>2.5</vdop><extensions><gom:speed>0.355</gom:speed></extensions></trkpt>
   <trkpt lat="59.3002429952" lon="34.6723006699"><ele>153.804</ele><time>2026-08-16T15:56:08.136Z</time><hdop>3.0</hdop><vdop>2.5</vdop><extensions><gom:speed>0.305</gom:speed></extensions></trkpt>
   <trkpt lat="59.3002450906" lon="34.672296479"><ele>153.845</ele><time>2026-08-16T15:56:09.024Z</time><hdop>3.0</hdop><vdop>2.5</vdop><extensions><gom:speed>0.342</gom:speed></extensions></trkpt>
   <trkpt lat="59.3002468927" lon="34.6722984906"><ele>153.7</ele><time>2026-08-16T15:56:09.722Z</time><hdop>3.0</hdop><vdop>2.5</vdop><extensions><gom:speed>0.267</gom:speed></extensions></trkpt>
   <trkpt lat="59.300249575" lon="34.6723028492"><ele>153.566</ele><time>2026-08-16T15:56:11.136Z</time><hdop>3.0</hdop><vdop>2.5</vdop><extensions><gom:speed>0.328</gom:speed></extensions></trkpt>
   <trkpt lat="59.3002506646" lon="34.672301089"><ele>153.486</ele><time>2026-08-16T15:56:11.744Z</time><hdop>3.0</hdop><vdop>2.5</vdop><extensions><gom:speed>0.32</gom:speed></extensions></trkpt>
   <trkpt lat="59.3002526763" lon="34.6723042742"><ele>153.34</ele><time>2026-08-16T15:56:12.961Z</time><hdop>3.0</hdop><vdop>2.5</vdop><extensions><gom:speed>0.292</gom:speed></extensions></trkpt>
   <trkpt lat="59.3002543946" lon="34.6723157574"><ele>153.226</ele><time>2026-08-16T15:56:14.136Z</time><hdop>3.0</hdop><vdop>2.5</vdop><extensions><gom:speed>0.279</gom:speed></extensions></trkpt>
   <trkpt lat="59.3002556937" lon="34.6723234687"><ele>153.161</ele><time>2026-08-16T15:56:15.135Z</time><hdop>3.0</hdop><vdop>2.5</vdop><extensions><gom:speed>0.192</gom:speed></extensions></trkpt>
   <trkpt lat="59.3002570768" lon="34.672330761"><ele>152.635</ele><time>2026-08-16T15:56:16.136Z</time><hdop>3.0</hdop><vdop>2.5</vdop><extensions><gom:speed>0.134</gom:speed></extensions></trkpt>
   <trkpt lat="59.300257873" lon="34.6723358739"><ele>152.314</ele><time>2026-08-16T15:56:17.136Z</time><hdop>3.0</hdop><vdop>2.5</vdop><extensions><gom:speed>0.121</gom:speed></extensions></trkpt>
   <trkpt lat="59.3002580826" lon="34.6723398972"><ele>152.116</ele><time>2026-08-16T15:56:18.136Z</time><hdop>3.0</hdop><vdop>2.5</vdop><extensions><gom:speed>0.082</gom:speed></extensions></trkpt>
   <trkpt lat="59.3002586693" lon="34.6723426633"><ele>152.085</ele><time>2026-08-16T15:56:19.136Z</time><hdop>3.0</hdop><vdop>2.5</vdop><extensions><gom:speed>0.08</gom:speed></extensions></trkpt>
   <trkpt lat="59.3002589627" lon="34.6723451778"><ele>152.003</ele><time>2026-08-16T15:56:20.136Z</time><hdop>3.0</hdop><vdop>2.5</vdop><extensions><gom:speed>0.104</gom:speed></extensions></trkpt>
   <trkpt lat="59.3002585855" lon="34.6723471895"><ele>152.069</ele><time>2026-08-16T15:56:21.136Z</time><hdop>3.0</hdop><vdop>2.5</vdop><extensions><gom:speed>0.127</gom:speed></extensions></trkpt>
   <trkpt lat="59.3002584598" lon="34.672349285"><ele>152.183</ele><time>2026-08-16T15:56:22.136Z</time><hdop>3.0</hdop><vdop>2.5</vdop><extensions><gom:speed>0.104</gom:speed></extensions></trkpt>
   <trkpt lat="59.3002586693" lon="34.6723507937"><ele>152.253</ele><time>2026-08-16T15:56:23.136Z</time><hdop>3.0</hdop><vdop>2.5</vdop><extensions><gom:speed>0.145</gom:speed></extensions></trkpt>
   <trkpt lat="59.3002585855" lon="34.6723496203"><ele>152.294</ele><time>2026-08-16T15:56:23.719Z</time><hdop>3.0</hdop><vdop>2.5</vdop><extensions><gom:speed>0.154</gom:speed></extensions></trkpt>
   <trkpt lat="59.3002579988" lon="34.6723505423"><ele>152.327</ele><time>2026-08-16T15:56:25.136Z</time><hdop>3.0</hdop><vdop>2.5</vdop><extensions><gom:speed>0.204</gom:speed></extensions></trkpt>
   <trkpt lat="59.3002584598" lon="34.6723525539"><ele>152.155</ele><time>2026-08-16T15:56:26.136Z</time><hdop>3.0</hdop><vdop>2.5</vdop><extensions><gom:speed>0.184</gom:speed></extensions></trkpt>
   <trkpt lat="59.3002595913" lon="34.6723543979"><ele>152.052</ele><time>2026-08-16T15:56:27.085Z</time><hdop>3.0</hdop><vdop>2.5</vdop><extensions><gom:speed>0.179</gom:speed></extensions></trkpt>
   <trkpt lat="59.300259298" lon="34.6723559905"><ele>151.987</ele><time>2026-08-16T15:56:27.900Z</time><hdop>3.0</hdop><vdop>2.5</vdop><extensions><gom:speed>0.133</gom:speed></extensions></trkpt>
   <trkpt lat="59.3002587951" lon="34.6723565772"><ele>151.867</ele><time>2026-08-16T15:56:28.783Z</time><hdop>3.0</hdop><vdop>2.5</vdop><extensions><gom:speed>0.132</gom:speed></extensions></trkpt>
   <trkpt lat="59.3002575797" lon="34.6723575831"><ele>151.818</ele><time>2026-08-16T15:56:30.020Z</time><hdop>3.0</hdop><vdop>2.5</vdop><extensions><gom:speed>0.103</gom:speed></extensions></trkpt>
   <trkpt lat="59.3002557776" lon="34.6723573316"><ele>151.896</ele><time>2026-08-16T15:56:31.136Z</time><hdop>3.0</hdop><vdop>2.5</vdop><extensions><gom:speed>0.092</gom:speed></extensions></trkpt>
   <trkpt lat="59.3002547717" lon="34.6723567449"><ele>151.951</ele><time>2026-08-16T15:56:32.136Z</time><hdop>3.0</hdop><vdop>2.5</vdop><extensions><gom:speed>0.101</gom:speed></extensions></trkpt>
   <trkpt lat="59.3002535983" lon="34.6723577507"><ele>151.953</ele><time>2026-08-16T15:56:33.136Z</time><hdop>3.0</hdop><vdop>2.5</vdop><extensions><gom:speed>0.177</gom:speed></extensions></trkpt>
   <trkpt lat="59.3002531792" lon="34.6723591756"><ele>151.968</ele><time>2026-08-16T15:56:34.136Z</time><hdop>3.0</hdop><vdop>2.5</vdop><extensions><gom:speed>0.131</gom:speed></extensions></trkpt>
   <trkpt lat="59.3002521733" lon="34.6723625284"><ele>151.945</ele><time>2026-08-16T15:56:35.136Z</time><hdop>3.0</hdop><vdop>2.5</vdop><extensions><gom:speed>0.136</gom:speed></extensions></trkpt>
   <trkpt lat="59.3002514609" lon="34.6723661326"><ele>152.007</ele><time>2026-08-16T15:56:36.136Z</time><hdop>3.0</hdop><vdop>2.5</vdop><extensions><gom:speed>0.158</gom:speed></extensions></trkpt>
   <trkpt lat="59.3002512932" lon="34.6723684795"><ele>152.043</ele><time>2026-08-16T15:56:37.136Z</time><hdop>3.0</hdop><vdop>2.5</vdop><extensions><gom:speed>0.136</gom:speed></extensions></trkpt>
   <trkpt lat="59.3002508742" lon="34.6723685634"><ele>152.113</ele><time>2026-08-16T15:56:38.136Z</time><hdop>3.0</hdop><vdop>2.5</vdop><extensions><gom:speed>0.096</gom:speed></extensions></trkpt>
   <trkpt lat="59.3002505808" lon="34.6723672222"><ele>151.995</ele><time>2026-08-16T15:56:39.136Z</time><hdop>3.0</hdop><vdop>2.5</vdop><extensions><gom:speed>0.137</gom:speed></extensions></trkpt>
   <trkpt lat="59.3002502874" lon="34.672363618"><ele>151.813</ele><time>2026-08-16T15:56:40.136Z</time><hdop>3.0</hdop><vdop>2.5</vdop><extensions><gom:speed>0.135</gom:speed></extensions></trkpt>
   <trkpt lat="59.3002498683" lon="34.6723611873"><ele>151.715</ele><time>2026-08-16T15:56:41.136Z</time><hdop>3.0</hdop><vdop>2.5</vdop><extensions><gom:speed>0.126</gom:speed></extensions></trkpt>
   <trkpt lat="59.3002494911" lon="34.6723596785"><ele>151.668</ele><time>2026-08-16T15:56:42.136Z</time><hdop>3.0</hdop><vdop>2.5</vdop><extensions><gom:speed>0.094</gom:speed></extensions></trkpt>
   <trkpt lat="59.300249072" lon="34.6723588403"><ele>151.641</ele><time>2026-08-16T15:56:43.136Z</time><hdop>3.0</hdop><vdop>2.5</vdop><extensions><gom:speed>0.083</gom:speed></extensions></trkpt>
   <trkpt lat="59.3002484853" lon="34.6723582536"><ele>151.629</ele><time>2026-08-16T15:56:44.136Z</time><hdop>3.0</hdop><vdop>2.5</vdop><extensions><gom:speed>0.095</gom:speed></extensions></trkpt>
   <trkpt lat="59.3002475633" lon="34.6723579183"><ele>151.631</ele><time>2026-08-16T15:56:45.136Z</time><hdop>3.0</hdop><vdop>2.5</vdop><extensions><gom:speed>0.088</gom:speed></extensions></trkpt>
   <trkpt lat="59.3002465994" lon="34.6723579183"><ele>151.633</ele><time>2026-08-16T15:56:46.136Z</time><hdop>3.0</hdop><vdop>2.5</vdop><extensions><gom:speed>0.056</gom:speed></extensions></trkpt>
   <trkpt lat="59.3002455936" lon="34.6723577507"><ele>151.631</ele><time>2026-08-16T15:56:47.136Z</time><hdop>3.0</hdop><vdop>2.5</vdop><extensions><gom:speed>0.056</gom:speed></extensions></trkpt>
   <trkpt lat="59.3002454678" lon="34.6723565772"><ele>151.766</ele><time>2026-08-16T15:56:48.136Z</time><hdop>3.0</hdop><vdop>2.5</vdop><extensions><gom:speed>0.097</gom:speed></extensions></trkpt>
   <trkpt lat="59.3002455936" lon="34.6723550685"><ele>151.861</ele><time>2026-08-16T15:56:49.136Z</time><hdop>3.0</hdop><vdop>2.5</vdop><extensions><gom:speed>0.077</gom:speed></extensions></trkpt>
   <trkpt lat="59.3002451745" lon="34.6723539788"><ele>151.924</ele><time>2026-08-16T15:56:50.136Z</time><hdop>3.0</hdop><vdop>2.5</vdop><extensions><gom:speed>0.086</gom:speed></extensions></trkpt>
   <trkpt lat="59.3002452583" lon="34.6723530568"><ele>152.013</ele><time>2026-08-16T15:56:51.136Z</time><hdop>3.0</hdop><vdop>2.5</vdop><extensions><gom:speed>0.102</gom:speed></extensions></trkpt>
   <trkpt lat="59.3002454678" lon="34.6723512966"><ele>151.983</ele><time>2026-08-16T15:56:52.136Z</time><hdop>3.0</hdop><vdop>2.5</vdop><extensions><gom:speed>0.063</gom:speed></extensions></trkpt>
   <trkpt lat="59.300245384" lon="34.6723501232"><ele>152.017</ele><time>2026-08-16T15:56:53.136Z</time><hdop>3.0</hdop><vdop>2.5</vdop><extensions><gom:speed>0.055</gom:speed></extensions></trkpt>
   <trkpt lat="59.300245384" lon="34.6723489497"><ele>152.002</ele><time>2026-08-16T15:56:54.136Z</time><hdop>3.0</hdop><vdop>2.5</vdop><extensions><gom:speed>0.516</gom:speed></extensions></trkpt>
   <trkpt lat="59.3002455936" lon="34.6723445911"><ele>151.993</ele><time>2026-08-16T15:56:54.599Z</time><hdop>3.0</hdop><vdop>2.5</vdop><extensions><gom:speed>0.565</gom:speed></extensions></trkpt>
   <trkpt lat="59.3002459707" lon="34.6723389752"><ele>152.039</ele><time>2026-08-16T15:56:55.136Z</time><hdop>3.0</hdop><vdop>2.5</vdop><extensions><gom:speed>1.168</gom:speed></extensions></trkpt>
   <trkpt lat="59.300245384" lon="34.672324726"><ele>152.066</ele><time>2026-08-16T15:56:55.806Z</time><hdop>3.0</hdop><vdop>2.5</vdop><extensions><gom:speed>1.384</gom:speed></extensions></trkpt>
   <trkpt lat="59.3002579988" lon="34.6723167632"><ele>152.031</ele><time>2026-08-16T15:56:56.817Z</time><hdop>3.0</hdop><vdop>2.5</vdop><extensions><gom:speed>1.165</gom:speed></extensions></trkpt>
   <trkpt lat="59.3002670931" lon="34.6723198645"><ele>152.13</ele><time>2026-08-16T15:56:57.357Z</time><hdop>3.062</hdop><vdop>2.5</vdop><extensions><gom:speed>1.034</gom:speed></extensions></trkpt>
   <trkpt lat="59.3002764809" lon="34.6723182719"><ele>152.205</ele><time>2026-08-16T15:56:58.136Z</time><hdop>3.062</hdop><vdop>2.5</vdop><extensions><gom:speed>0.965</gom:speed></extensions></trkpt>
   <trkpt lat="59.3002843599" lon="34.672314081"><ele>152.25</ele><time>2026-08-16T15:56:58.966Z</time><hdop>3.062</hdop><vdop>2.5</vdop><extensions><gom:speed>0.949</gom:speed></extensions></trkpt>
   <trkpt lat="59.3002945858" lon="34.6723181881"><ele>152.382</ele><time>2026-08-16T15:56:59.644Z</time><hdop>3.062</hdop><vdop>2.5</vdop><extensions><gom:speed>0.955</gom:speed></extensions></trkpt>
   <trkpt lat="59.3002991958" lon="34.6723220438"><ele>152.493</ele><time>2026-08-16T15:57:00.136Z</time><hdop>3.062</hdop><vdop>2.5</vdop><extensions><gom:speed>0.839</gom:speed></extensions></trkpt>
   <trkpt lat="59.3003104695" lon="34.6723187748"><ele>152.577</ele><time>2026-08-16T15:57:01.136Z</time><hdop>3.125</hdop><vdop>2.5</vdop><extensions><gom:speed>1.073</gom:speed></extensions></trkpt>
   <trkpt lat="59.3003160854" lon="34.6723105606"><ele>152.627</ele><time>2026-08-16T15:57:01.901Z</time><hdop>3.062</hdop><vdop>2.5</vdop><extensions><gom:speed>0.964</gom:speed></extensions></trkpt>
   <trkpt lat="59.3003200668" lon="34.6722987421"><ele>152.658</ele><time>2026-08-16T15:57:03.118Z</time><hdop>3.062</hdop><vdop>2.5</vdop><extensions><gom:speed>0.708</gom:speed></extensions></trkpt>
   <trkpt lat="59.30031948" lon="34.6722852472"><ele>152.537</ele><time>2026-08-16T15:57:04.136Z</time><hdop>3.0</hdop><vdop>2.5</vdop><extensions><gom:speed>0.699</gom:speed></extensions></trkpt>
   <trkpt lat="59.3003209888" lon="34.6722755242"><ele>152.497</ele><time>2026-08-16T15:57:05.136Z</time><hdop>3.0</hdop><vdop>2.5</vdop><extensions><gom:speed>0.66</gom:speed></extensions></trkpt>
   <trkpt lat="59.3003211983" lon="34.672264963"><ele>152.69</ele><time>2026-08-16T15:57:06.136Z</time><hdop>3.0</hdop><vdop>2.5</vdop><extensions><gom:speed>0.666</gom:speed></extensions></trkpt>
   <trkpt lat="59.3003218689" lon="34.6722546533"><ele>152.805</ele><time>2026-08-16T15:57:07.025Z</time><hdop>3.0</hdop><vdop>2.5</vdop><extensions><gom:speed>0.655</gom:speed></extensions></trkpt>
   <trkpt lat="59.3003195639" lon="34.6722406555"><ele>152.752</ele><time>2026-08-16T15:57:08.026Z</time><hdop>3.0</hdop><vdop>2.5</vdop><extensions><gom:speed>0.718</gom:speed></extensions></trkpt>
   <trkpt lat="59.3003140737" lon="34.6722335309"><ele>152.682</ele><time>2026-08-16T15:57:08.526Z</time><hdop>3.0</hdop><vdop>2.5</vdop><extensions><gom:speed>0.819</gom:speed></extensions></trkpt>
   <trkpt lat="59.3003102599" lon="34.6722346205"><ele>152.726</ele><time>2026-08-16T15:57:09.136Z</time><hdop>3.0</hdop><vdop>2.5</vdop><extensions><gom:speed>0.546</gom:speed></extensions></trkpt>
   <trkpt lat="59.3003094637" lon="34.6722323574"><ele>152.752</ele><time>2026-08-16T15:57:09.744Z</time><hdop>3.0</hdop><vdop>2.5</vdop><extensions><gom:speed>0.492</gom:speed></extensions></trkpt>
   <trkpt lat="59.3003068653" lon="34.6722510491"><ele>152.776</ele><time>2026-08-16T15:57:11.136Z</time><hdop>3.0</hdop><vdop>2.5</vdop><extensions><gom:speed>0.103</gom:speed></extensions></trkpt>
   <trkpt lat="59.3003057756" lon="34.6722553238"><ele>152.488</ele><time>2026-08-16T15:57:12.136Z</time><hdop>3.0</hdop><vdop>2.5</vdop><extensions><gom:speed>0.167</gom:speed></extensions></trkpt>
   <trkpt lat="59.3003040992" lon="34.6722602692"><ele>152.454</ele><time>2026-08-16T15:57:13.136Z</time><hdop>3.0</hdop><vdop>2.5</vdop><extensions><gom:speed>0.238</gom:speed></extensions></trkpt>
   <trkpt lat="59.3003040992" lon="34.6722650468"><ele>152.434</ele><time>2026-08-16T15:57:14.062Z</time><hdop>3.0</hdop><vdop>2.5</vdop><extensions><gom:speed>0.181</gom:speed></extensions></trkpt>
   <trkpt lat="59.300304686" lon="34.6722786255"><ele>152.46</ele><time>2026-08-16T15:57:14.926Z</time><hdop>3.0</hdop><vdop>2.5</vdop><extensions><gom:speed>0.249</gom:speed></extensions></trkpt>
   <trkpt lat="59.3003066976" lon="34.6722950541"><ele>152.523</ele><time>2026-08-16T15:57:15.466Z</time><hdop>3.0</hdop><vdop>2.5</vdop><extensions><gom:speed>0.409</gom:speed></extensions></trkpt>
   <trkpt lat="59.3003110981" lon="34.6723109797"><ele>152.584</ele><time>2026-08-16T15:57:16.136Z</time><hdop>3.0</hdop><vdop>2.5</vdop><extensions><gom:speed>0.588</gom:speed></extensions></trkpt>
   <trkpt lat="59.3003155824" lon="34.6723180205"><ele>152.62</ele><time>2026-08-16T15:57:16.820Z</time><hdop>3.0</hdop><vdop>2.5</vdop><extensions><gom:speed>0.665</gom:speed></extensions></trkpt>
   <trkpt lat="59.3003232938" lon="34.6723325212"><ele>152.541</ele><time>2026-08-16T15:57:17.586Z</time><hdop>3.0</hdop><vdop>2.5</vdop><extensions><gom:speed>0.809</gom:speed></extensions></trkpt>
   <trkpt lat="59.3003285744" lon="34.6723422442"><ele>152.756</ele><time>2026-08-16T15:57:18.136Z</time><hdop>3.0</hdop><vdop>2.5</vdop><extensions><gom:speed>0.852</gom:speed></extensions></trkpt>
   <trkpt lat="59.3003344836" lon="34.6723513805"><ele>152.884</ele><time>2026-08-16T15:57:18.901Z</time><hdop>3.0</hdop><vdop>2.5</vdop><extensions><gom:speed>0.819</gom:speed></extensions></trkpt>
   <trkpt lat="59.3003405605" lon="34.6723582536"><ele>153.26</ele><time>2026-08-16T15:57:19.421Z</time><hdop>3.0</hdop><vdop>2.5</vdop><extensions><gom:speed>0.843</gom:speed></extensions></trkpt>
   <trkpt lat="59.3003480623" lon="34.6723644562"><ele>153.316</ele><time>2026-08-16T15:57:20.136Z</time><hdop>3.0</hdop><vdop>2.5</vdop><extensions><gom:speed>0.848</gom:speed></extensions></trkpt>
   <trkpt lat="59.3003529657" lon="34.6723679766"><ele>153.35</ele><time>2026-08-16T15:57:20.638Z</time><hdop>3.0</hdop><vdop>2.5</vdop><extensions><gom:speed>0.861</gom:speed></extensions></trkpt>
   <trkpt lat="59.3003591683" lon="34.6723734249"><ele>153.406</ele><time>2026-08-16T15:57:21.136Z</time><hdop>3.0</hdop><vdop>2.5</vdop><extensions><gom:speed>0.909</gom:speed></extensions></trkpt>
   <trkpt lat="59.3003654967" lon="34.6723815553"><ele>153.44</ele><time>2026-08-16T15:57:21.806Z</time><hdop>3.0</hdop><vdop>2.5</vdop><extensions><gom:speed>0.945</gom:speed></extensions></trkpt>
   <trkpt lat="59.3003733757" lon="34.6723939605"><ele>153.277</ele><time>2026-08-16T15:57:22.562Z</time><hdop>3.0</hdop><vdop>2.5</vdop><extensions><gom:speed>0.937</gom:speed></extensions></trkpt>
   <trkpt lat="59.3003788658" lon="34.6724018395"><ele>153.02</ele><time>2026-08-16T15:57:23.135Z</time><hdop>3.0</hdop><vdop>2.5</vdop><extensions><gom:speed>0.942</gom:speed></extensions></trkpt>
   <trkpt lat="59.3003844817" lon="34.6724102214"><ele>152.866</ele><time>2026-08-16T15:57:23.838Z</time><hdop>3.0</hdop><vdop>2.5</vdop><extensions><gom:speed>0.906</gom:speed></extensions></trkpt>
   <trkpt lat="59.3003894689" lon="34.6724171784"><ele>152.694</ele><time>2026-08-16T15:57:24.398Z</time><hdop>3.0</hdop><vdop>2.5</vdop><extensions><gom:speed>0.843</gom:speed></extensions></trkpt>
   <trkpt lat="59.3003938694" lon="34.672425225"><ele>152.591</ele><time>2026-08-16T15:57:25.124Z</time><hdop>3.0</hdop><vdop>2.5</vdop><extensions><gom:speed>0.843</gom:speed></extensions></trkpt>
   <trkpt lat="59.3003979766" lon="34.6724329364"><ele>152.656</ele><time>2026-08-16T15:57:25.585Z</time><hdop>3.0</hdop><vdop>2.5</vdop><extensions><gom:speed>0.897</gom:speed></extensions></trkpt>
   <trkpt lat="59.3004027961" lon="34.6724423241"><ele>153.104</ele><time>2026-08-16T15:57:26.136Z</time><hdop>3.0</hdop><vdop>2.5</vdop><extensions><gom:speed>0.907</gom:speed></extensions></trkpt>
   <trkpt lat="59.3004089988" lon="34.6724518795"><ele>153.372</ele><time>2026-08-16T15:57:26.881Z</time><hdop>3.0</hdop><vdop>2.5</vdop><extensions><gom:speed>0.934</gom:speed></extensions></trkpt>
   <trkpt lat="59.3004155786" lon="34.6724606805"><ele>153.634</ele><time>2026-08-16T15:57:27.539Z</time><hdop>3.0</hdop><vdop>2.5</vdop><extensions><gom:speed>1.016</gom:speed></extensions></trkpt>
   <trkpt lat="59.3004188894" lon="34.6724671345"><ele>153.791</ele><time>2026-08-16T15:57:28.000Z</time><hdop>3.0</hdop><vdop>2.5</vdop><extensions><gom:speed>1.011</gom:speed></extensions></trkpt>
   <trkpt lat="59.3004239605" lon="34.6724821381"><ele>153.783</ele><time>2026-08-16T15:57:28.766Z</time><hdop>3.0</hdop><vdop>2.5</vdop><extensions><gom:speed>1.05</gom:speed></extensions></trkpt>
   <trkpt lat="59.3004275647" lon="34.672492867"><ele>153.992</ele><time>2026-08-16T15:57:29.266Z</time><hdop>3.0</hdop><vdop>2.5</vdop><extensions><gom:speed>1.034</gom:speed></extensions></trkpt>
   <trkpt lat="59.3004304983" lon="34.6725070324"><ele>154.116</ele><time>2026-08-16T15:57:29.963Z</time><hdop>3.0</hdop><vdop>2.5</vdop><extensions><gom:speed>1.089</gom:speed></extensions></trkpt>
   <trkpt lat="59.3004340606" lon="34.6725177612"><ele>154.366</ele><time>2026-08-16T15:57:30.503Z</time><hdop>3.0</hdop><vdop>2.5</vdop><extensions><gom:speed>1.064</gom:speed></extensions></trkpt>
   <trkpt lat="59.3004376649" lon="34.6725267299"><ele>153.546</ele><time>2026-08-16T15:57:31.136Z</time><hdop>3.0</hdop><vdop>2.5</vdop><extensions><gom:speed>0.974</gom:speed></extensions></trkpt>
   <trkpt lat="59.3004415625" lon="34.6725370396"><ele>153.056</ele><time>2026-08-16T15:57:31.838Z</time><hdop>3.0</hdop><vdop>2.5</vdop><extensions><gom:speed>0.979</gom:speed></extensions></trkpt>
   <trkpt lat="59.3004471783" lon="34.6725453377"><ele>152.591</ele><time>2026-08-16T15:57:32.545Z</time><hdop>3.0</hdop><vdop>2.5</vdop><extensions><gom:speed>0.978</gom:speed></extensions></trkpt>
   <trkpt lat="59.3004509921" lon="34.6725515403"><ele>152.314</ele><time>2026-08-16T15:57:33.025Z</time><hdop>3.0</hdop><vdop>2.5</vdop><extensions><gom:speed>0.977</gom:speed></extensions></trkpt>
   <trkpt lat="59.3004563984" lon="34.6725620177"><ele>152.159</ele><time>2026-08-16T15:57:33.722Z</time><hdop>3.0</hdop><vdop>2.5</vdop><extensions><gom:speed>1.03</gom:speed></extensions></trkpt>
   <trkpt lat="59.3004598769" lon="34.6725696452"><ele>151.898</ele><time>2026-08-16T15:57:34.184Z</time><hdop>3.0</hdop><vdop>2.5</vdop><extensions><gom:speed>1.01</gom:speed></extensions></trkpt>
   <trkpt lat="59.3004671692" lon="34.6725856546"><ele>151.61</ele><time>2026-08-16T15:57:35.136Z</time><hdop>3.0</hdop><vdop>2.5</vdop><extensions><gom:speed>1.057</gom:speed></extensions></trkpt>
   <trkpt lat="59.3004760959" lon="34.672601245"><ele>151.603</ele><time>2026-08-16T15:57:36.136Z</time><hdop>3.0</hdop><vdop>2.5</vdop><extensions><gom:speed>1.077</gom:speed></extensions></trkpt>
   <trkpt lat="59.3004800773" lon="34.6726092916"><ele>151.599</ele><time>2026-08-16T15:57:36.637Z</time><hdop>3.0</hdop><vdop>2.5</vdop><extensions><gom:speed>1.09</gom:speed></extensions></trkpt>
   <trkpt lat="59.3004850645" lon="34.672615578"><ele>151.778</ele><time>2026-08-16T15:57:37.136Z</time><hdop>3.0</hdop><vdop>2.5</vdop><extensions><gom:speed>1.067</gom:speed></extensions></trkpt>
   <trkpt lat="59.3004898841" lon="34.6726251334"><ele>151.885</ele><time>2026-08-16T15:57:37.737Z</time><hdop>3.0</hdop><vdop>2.5</vdop><extensions><gom:speed>1.064</gom:speed></extensions></trkpt>
   <trkpt lat="59.3004975955" lon="34.6726363652"><ele>152.232</ele><time>2026-08-16T15:57:38.503Z</time><hdop>3.0</hdop><vdop>2.5</vdop><extensions><gom:speed>1.1</gom:speed></extensions></trkpt>
   <trkpt lat="59.3005017864" lon="34.6726441603"><ele>152.44</ele><time>2026-08-16T15:57:38.983Z</time><hdop>3.0</hdop><vdop>2.5</vdop><extensions><gom:speed>1.106</gom:speed></extensions></trkpt>
   <trkpt lat="59.3005097911" lon="34.6726518717"><ele>152.709</ele><time>2026-08-16T15:57:39.680Z</time><hdop>3.0</hdop><vdop>2.5</vdop><extensions><gom:speed>1.061</gom:speed></extensions></trkpt>
   <trkpt lat="59.3005151975" lon="34.6726541348"><ele>153.012</ele><time>2026-08-16T15:57:40.136Z</time><hdop>3.0</hdop><vdop>2.5</vdop><extensions><gom:speed>1.023</gom:speed></extensions></trkpt>
   <trkpt lat="59.3005187598" lon="34.6726578228"><ele>153.192</ele><time>2026-08-16T15:57:40.897Z</time><hdop>3.0</hdop><vdop>2.5</vdop><extensions><gom:speed>1.331</gom:speed></extensions></trkpt>
   <trkpt lat="59.3005234956" lon="34.672664696"><ele>153.215</ele><time>2026-08-16T15:57:42.065Z</time><hdop>3.125</hdop><vdop>2.5</vdop><extensions><gom:speed>1.171</gom:speed></extensions></trkpt>
   <trkpt lat="59.3005281894" lon="34.6726760954"><ele>154.355</ele><time>2026-08-16T15:57:42.704Z</time><hdop>3.25</hdop><vdop>2.5</vdop><extensions><gom:speed>1.027</gom:speed></extensions></trkpt>
   <trkpt lat="59.3005324642" lon="34.6726909313"><ele>155.447</ele><time>2026-08-16T15:57:43.263Z</time><hdop>3.312</hdop><vdop>2.5</vdop><extensions><gom:speed>0.977</gom:speed></extensions></trkpt>
   <trkpt lat="59.3005347692" lon="34.6727007382"><ele>156.1</ele><time>2026-08-16T15:57:43.862Z</time><hdop>3.437</hdop><vdop>2.5</vdop><extensions><gom:speed>0.97</gom:speed></extensions></trkpt>
   <trkpt lat="59.3005382896" lon="34.6727179211"><ele>156.613</ele><time>2026-08-16T15:57:44.441Z</time><hdop>3.5</hdop><vdop>2.5</vdop><extensions><gom:speed>0.999</gom:speed></extensions></trkpt>
   <trkpt lat="59.3005405946" lon="34.6727288176"><ele>156.919</ele><time>2026-08-16T15:57:45.000Z</time><hdop>3.562</hdop><vdop>2.5</vdop><extensions><gom:speed>0.999</gom:speed></extensions></trkpt>
   <trkpt lat="59.3005462943" lon="34.6727407199"><ele>157.002</ele><time>2026-08-16T15:57:45.599Z</time><hdop>3.625</hdop><vdop>2.5</vdop><extensions><gom:speed>1.039</gom:speed></extensions></trkpt>
   <trkpt lat="59.3005516587" lon="34.6727492694"><ele>157.24</ele><time>2026-08-16T15:57:46.136Z</time><hdop>3.625</hdop><vdop>2.5</vdop><extensions><gom:speed>1.045</gom:speed></extensions></trkpt>
   <trkpt lat="59.3005566879" lon="34.6727593277"><ele>157.382</ele><time>2026-08-16T15:57:46.738Z</time><hdop>3.625</hdop><vdop>2.5</vdop><extensions><gom:speed>1.06</gom:speed></extensions></trkpt>
   <trkpt lat="59.3005608788" lon="34.6727718167"><ele>157.666</ele><time>2026-08-16T15:57:47.464Z</time><hdop>3.5</hdop><vdop>2.5</vdop><extensions><gom:speed>1.14</gom:speed></extensions></trkpt>
   <trkpt lat="59.3005619685" lon="34.6727761753"><ele>157.835</ele><time>2026-08-16T15:57:48.102Z</time><hdop>3.437</hdop><vdop>2.5</vdop><extensions><gom:speed>1.096</gom:speed></extensions></trkpt>
   <trkpt lat="59.300564986" lon="34.6727796957"><ele>157.862</ele><time>2026-08-16T15:57:49.005Z</time><hdop>3.312</hdop><vdop>2.5</vdop><extensions><gom:speed>1.038</gom:speed></extensions></trkpt>
   <trkpt lat="59.3005693865" lon="34.6727791928"><ele>157.734</ele><time>2026-08-16T15:57:49.564Z</time><hdop>3.312</hdop><vdop>2.5</vdop><extensions><gom:speed>0.882</gom:speed></extensions></trkpt>
   <trkpt lat="59.3005735774" lon="34.6727853954"><ele>157.499</ele><time>2026-08-16T15:57:50.136Z</time><hdop>3.312</hdop><vdop>2.5</vdop><extensions><gom:speed>0.852</gom:speed></extensions></trkpt>
   <trkpt lat="59.30057978" lon="34.6727886643"><ele>157.358</ele><time>2026-08-16T15:57:51.066Z</time><hdop>3.375</hdop><vdop>2.5</vdop><extensions><gom:speed>0.823</gom:speed></extensions></trkpt>
   <trkpt lat="59.3005835938" lon="34.6727928553"><ele>157.145</ele><time>2026-08-16T15:57:51.743Z</time><hdop>3.437</hdop><vdop>2.5</vdop><extensions><gom:speed>0.776</gom:speed></extensions></trkpt>
   <trkpt lat="59.3005850606" lon="34.6728024945"><ele>156.972</ele><time>2026-08-16T15:57:52.480Z</time><hdop>3.5</hdop><vdop>2.5</vdop><extensions><gom:speed>0.775</gom:speed></extensions></trkpt>
   <trkpt lat="59.3005884972" lon="34.6728049252"><ele>156.868</ele><time>2026-08-16T15:57:53.078Z</time><hdop>3.5</hdop><vdop>2.5</vdop><extensions><gom:speed>0.766</gom:speed></extensions></trkpt>
   <trkpt lat="59.3005829652" lon="34.67283049"><ele>156.662</ele><time>2026-08-16T15:57:54.135Z</time><hdop>3.5</hdop><vdop>2.5</vdop><extensions><gom:speed>0.645</gom:speed></extensions></trkpt>
   <trkpt lat="59.3005784808" lon="34.6728430629"><ele>156.538</ele><time>2026-08-16T15:57:55.061Z</time><hdop>3.5</hdop><vdop>2.5</vdop><extensions><gom:speed>0.489</gom:speed></extensions></trkpt>
   <trkpt lat="59.3005726973" lon="34.6728556357"><ele>156.153</ele><time>2026-08-16T15:57:56.136Z</time><hdop>3.375</hdop><vdop>2.5</vdop><extensions><gom:speed>0.524</gom:speed></extensions></trkpt>
   <trkpt lat="59.300572865" lon="34.6728651911"><ele>155.841</ele><time>2026-08-16T15:57:57.136Z</time><hdop>3.25</hdop><vdop>2.5</vdop><extensions><gom:speed>0.521</gom:speed></extensions></trkpt>
   <trkpt lat="59.3005812888" lon="34.6728982996"><ele>155.634</ele><time>2026-08-16T15:57:58.136Z</time><hdop>3.187</hdop><vdop>2.5</vdop><extensions><gom:speed>0.722</gom:speed></extensions></trkpt>
   <trkpt lat="59.3005781875" lon="34.6728866488"><ele>155.404</ele><time>2026-08-16T15:57:59.136Z</time><hdop>3.187</hdop><vdop>2.5</vdop><extensions><gom:speed>0.44</gom:speed></extensions></trkpt>
   <trkpt lat="59.3005771816" lon="34.672886565"><ele>155.266</ele><time>2026-08-16T15:57:59.684Z</time><hdop>3.125</hdop><vdop>2.5</vdop><extensions><gom:speed>0.335</gom:speed></extensions></trkpt>
   <trkpt lat="59.3005778941" lon="34.6728912588"><ele>154.959</ele><time>2026-08-16T15:58:00.136Z</time><hdop>3.125</hdop><vdop>2.5</vdop><extensions><gom:speed>0.27</gom:speed></extensions></trkpt>
   <trkpt lat="59.3005780617" lon="34.6728938572"><ele>154.776</ele><time>2026-08-16T15:58:00.842Z</time><hdop>3.062</hdop><vdop>2.5</vdop><extensions><gom:speed>0.24</gom:speed></extensions></trkpt>
   <trkpt lat="59.3005791933" lon="34.6728985511"><ele>154.687</ele><time>2026-08-16T15:58:01.363Z</time><hdop>3.062</hdop><vdop>2.5</vdop><extensions><gom:speed>0.2</gom:speed></extensions></trkpt>
   <trkpt lat="59.3005798639" lon="34.6729023229"><ele>154.645</ele><time>2026-08-16T15:58:02.136Z</time><hdop>3.062</hdop><vdop>2.5</vdop><extensions><gom:speed>0.165</gom:speed></extensions></trkpt>
   <trkpt lat="59.3005809954" lon="34.6729056757"><ele>154.6</ele><time>2026-08-16T15:58:03.136Z</time><hdop>3.0</hdop><vdop>2.5</vdop><extensions><gom:speed>0.14</gom:speed></extensions></trkpt>
   <trkpt lat="59.3005812888" lon="34.6729077712"><ele>154.581</ele><time>2026-08-16T15:58:04.136Z</time><hdop>3.0</hdop><vdop>2.5</vdop><extensions><gom:speed>0.108</gom:speed></extensions></trkpt>
   <trkpt lat="59.3005814983" lon="34.672908777"><ele>154.567</ele><time>2026-08-16T15:58:05.136Z</time><hdop>3.0</hdop><vdop>2.5</vdop><extensions><gom:speed>0.102</gom:speed></extensions></trkpt>
   <trkpt lat="59.3005819593" lon="34.6729100343"><ele>154.565</ele><time>2026-08-16T15:58:06.136Z</time><hdop>3.0</hdop><vdop>2.5</vdop><extensions><gom:speed>0.077</gom:speed></extensions></trkpt>
   <trkpt lat="59.3005823784" lon="34.6729109563"><ele>154.577</ele><time>2026-08-16T15:58:07.136Z</time><hdop>3.0</hdop><vdop>2.5</vdop><extensions><gom:speed>0.069</gom:speed></extensions></trkpt>
   <trkpt lat="59.300582588" lon="34.6729122974"><ele>154.586</ele><time>2026-08-16T15:58:08.136Z</time><hdop>3.0</hdop><vdop>2.5</vdop><extensions><gom:speed>0.085</gom:speed></extensions></trkpt>
   <trkpt lat="59.3005829652" lon="34.672912968"><ele>154.544</ele><time>2026-08-16T15:58:09.136Z</time><hdop>3.0</hdop><vdop>2.5</vdop><extensions><gom:speed>0.1</gom:speed></extensions></trkpt>
   <trkpt lat="59.3005834681" lon="34.67291389"><ele>154.518</ele><time>2026-08-16T15:58:10.136Z</time><hdop>3.0</hdop><vdop>2.5</vdop><extensions><gom:speed>0.067</gom:speed></extensions></trkpt>
   <trkpt lat="59.3005840967" lon="34.6729147282"><ele>154.545</ele><time>2026-08-16T15:58:11.136Z</time><hdop>3.0</hdop><vdop>2.5</vdop><extensions><gom:speed>0.071</gom:speed></extensions></trkpt>
   <trkpt lat="59.3005842644" lon="34.6729154825"><ele>154.608</ele><time>2026-08-16T15:58:12.136Z</time><hdop>3.0</hdop><vdop>2.5</vdop><extensions><gom:speed>0.086</gom:speed></extensions></trkpt>
   <trkpt lat="59.3005849768" lon="34.6729163207"><ele>154.639</ele><time>2026-08-16T15:58:13.136Z</time><hdop>3.0</hdop><vdop>2.5</vdop><extensions><gom:speed>0.097</gom:speed></extensions></trkpt>
   <trkpt lat="59.3005847673" lon="34.6729169913"><ele>154.657</ele><time>2026-08-16T15:58:14.024Z</time><hdop>3.0</hdop><vdop>2.5</vdop><extensions><gom:speed>0.095</gom:speed></extensions></trkpt>
   <trkpt lat="59.300584893" lon="34.6729197573"><ele>154.894</ele><time>2026-08-16T15:58:15.136Z</time><hdop>3.0</hdop><vdop>2.5</vdop><extensions><gom:speed>0.114</gom:speed></extensions></trkpt>
   <trkpt lat="59.3005850606" lon="34.6729204279"><ele>155.035</ele><time>2026-08-16T15:58:16.046Z</time><hdop>3.0</hdop><vdop>2.5</vdop><extensions><gom:speed>0.144</gom:speed></extensions></trkpt>
   <trkpt lat="59.3005860665" lon="34.6729221881"><ele>155.064</ele><time>2026-08-16T15:58:16.999Z</time><hdop>3.0</hdop><vdop>2.5</vdop><extensions><gom:speed>0.145</gom:speed></extensions></trkpt>
   <trkpt lat="59.3005878686" lon="34.672924535"><ele>154.756</ele><time>2026-08-16T15:58:17.744Z</time><hdop>3.0</hdop><vdop>2.5</vdop><extensions><gom:speed>0.251</gom:speed></extensions></trkpt>
   <trkpt lat="59.3005897964" lon="34.672929145"><ele>154.606</ele><time>2026-08-16T15:58:18.324Z</time><hdop>3.0</hdop><vdop>2.5</vdop><extensions><gom:speed>0.363</gom:speed></extensions></trkpt>
   <trkpt lat="59.3005906765" lon="34.6729303185"><ele>154.516</ele><time>2026-08-16T15:58:19.001Z</time><hdop>3.0</hdop><vdop>2.5</vdop><extensions><gom:speed>0.373</gom:speed></extensions></trkpt>
   <trkpt lat="59.3005926882" lon="34.6729428914"><ele>154.473</ele><time>2026-08-16T15:58:19.541Z</time><hdop>3.0</hdop><vdop>2.5</vdop><extensions><gom:speed>0.565</gom:speed></extensions></trkpt>
   <trkpt lat="59.3005960828" lon="34.6729574759"><ele>154.528</ele><time>2026-08-16T15:58:20.136Z</time><hdop>3.0</hdop><vdop>2.5</vdop><extensions><gom:speed>0.703</gom:speed></extensions></trkpt>
   <trkpt lat="59.3005990584" lon="34.672974072"><ele>154.561</ele><time>2026-08-16T15:58:21.003Z</time><hdop>3.0</hdop><vdop>2.5</vdop><extensions><gom:speed>0.798</gom:speed></extensions></trkpt>
   <trkpt lat="59.3006044647" lon="34.6729903329"><ele>155.015</ele><time>2026-08-16T15:58:21.739Z</time><hdop>3.0</hdop><vdop>2.5</vdop><extensions><gom:speed>0.788</gom:speed></extensions></trkpt>
   <trkpt lat="59.3006095777" lon="34.6730008941"><ele>155.395</ele><time>2026-08-16T15:58:22.240Z</time><hdop>3.0</hdop><vdop>2.5</vdop><extensions><gom:speed>0.855</gom:speed></extensions></trkpt>
   <trkpt lat="59.3006122599" lon="34.6730123773"><ele>155.621</ele><time>2026-08-16T15:58:23.025Z</time><hdop>3.0</hdop><vdop>2.5</vdop><extensions><gom:speed>0.808</gom:speed></extensions></trkpt>
   <trkpt lat="59.3006219829" lon="34.6730311528"><ele>156.268</ele><time>2026-08-16T15:58:24.136Z</time><hdop>3.0</hdop><vdop>2.5</vdop><extensions><gom:speed>0.929</gom:speed></extensions></trkpt>
   <trkpt lat="59.3006247909" lon="34.6730423845"><ele>156.654</ele><time>2026-08-16T15:58:24.704Z</time><hdop>3.0</hdop><vdop>2.5</vdop><extensions><gom:speed>0.975</gom:speed></extensions></trkpt>
   <trkpt lat="59.3006323765" lon="34.6730661892"><ele>156.94</ele><time>2026-08-16T15:58:25.921Z</time><hdop>3.0</hdop><vdop>2.5</vdop><extensions><gom:speed>1.014</gom:speed></extensions></trkpt>
   <trkpt lat="59.3006396687" lon="34.673081528"><ele>157.189</ele><time>2026-08-16T15:58:26.745Z</time><hdop>3.0</hdop><vdop>2.5</vdop><extensions><gom:speed>1.044</gom:speed></extensions></trkpt>
   <trkpt lat="59.3006463743" lon="34.6730885688"><ele>157.423</ele><time>2026-08-16T15:58:27.246Z</time><hdop>3.0</hdop><vdop>2.5</vdop><extensions><gom:speed>1.031</gom:speed></extensions></trkpt>
   <trkpt lat="59.3006502718" lon="34.6731030695"><ele>157.563</ele><time>2026-08-16T15:58:28.002Z</time><hdop>3.0</hdop><vdop>2.5</vdop><extensions><gom:speed>1.039</gom:speed></extensions></trkpt>
   <trkpt lat="59.3006568935" lon="34.6731080987"><ele>157.764</ele><time>2026-08-16T15:58:28.483Z</time><hdop>3.0</hdop><vdop>2.5</vdop><extensions><gom:speed>1.037</gom:speed></extensions></trkpt>
   <trkpt lat="59.3006638924" lon="34.6731170673"><ele>158.072</ele><time>2026-08-16T15:58:29.136Z</time><hdop>3.0</hdop><vdop>2.5</vdop><extensions><gom:speed>1.046</gom:speed></extensions></trkpt>
   <trkpt lat="59.300670095" lon="34.6731287182"><ele>158.256</ele><time>2026-08-16T15:58:29.866Z</time><hdop>3.062</hdop><vdop>2.5</vdop><extensions><gom:speed>1.054</gom:speed></extensions></trkpt>
   <trkpt lat="59.300676591" lon="34.67314917"><ele>158.146</ele><time>2026-08-16T15:58:31.136Z</time><hdop>3.062</hdop><vdop>2.5</vdop><extensions><gom:speed>0.992</gom:speed></extensions></trkpt>
   <trkpt lat="59.3006748727" lon="34.6731644251"><ele>158.08</ele><time>2026-08-16T15:58:31.839Z</time><hdop>3.062</hdop><vdop>2.5</vdop><extensions><gom:speed>1.016</gom:speed></extensions></trkpt>
   <trkpt lat="59.3006753756" lon="34.6731811889"><ele>157.741</ele><time>2026-08-16T15:58:32.841Z</time><hdop>3.062</hdop><vdop>2.5</vdop><extensions><gom:speed>0.932</gom:speed></extensions></trkpt>
   <trkpt lat="59.3006794828" lon="34.6731826976"><ele>157.308</ele><time>2026-08-16T15:58:33.321Z</time><hdop>3.062</hdop><vdop>2.5</vdop><extensions><gom:speed>0.91</gom:speed></extensions></trkpt>
   <trkpt lat="59.3006840928" lon="34.6731840387"><ele>157.05</ele><time>2026-08-16T15:58:33.959Z</time><hdop>3.062</hdop><vdop>2.5</vdop><extensions><gom:speed>0.808</gom:speed></extensions></trkpt>
   <trkpt lat="59.3006908822" lon="34.6731822785"><ele>156.97</ele><time>2026-08-16T15:58:34.941Z</time><hdop>3.0</hdop><vdop>2.5</vdop><extensions><gom:speed>0.694</gom:speed></extensions></trkpt>
   <trkpt lat="59.3006966657" lon="34.673183452"><ele>157.051</ele><time>2026-08-16T15:58:35.599Z</time><hdop>3.0</hdop><vdop>2.5</vdop><extensions><gom:speed>0.749</gom:speed></extensions></trkpt>
   <trkpt lat="59.3007015691" lon="34.6731863856"><ele>157.315</ele><time>2026-08-16T15:58:36.136Z</time><hdop>3.0</hdop><vdop>2.5</vdop><extensions><gom:speed>0.795</gom:speed></extensions></trkpt>
   <trkpt lat="59.3007090709" lon="34.6731907442"><ele>157.473</ele><time>2026-08-16T15:58:37.002Z</time><hdop>3.0</hdop><vdop>2.5</vdop><extensions><gom:speed>0.819</gom:speed></extensions></trkpt>
   <trkpt lat="59.3007171594" lon="34.6732012216"><ele>156.961</ele><time>2026-08-16T15:58:38.121Z</time><hdop>3.0</hdop><vdop>2.5</vdop><extensions><gom:speed>0.843</gom:speed></extensions></trkpt>
   <trkpt lat="59.3007223981" lon="34.6732099388"><ele>156.859</ele><time>2026-08-16T15:58:38.838Z</time><hdop>3.0</hdop><vdop>2.5</vdop><extensions><gom:speed>0.93</gom:speed></extensions></trkpt>
   <trkpt lat="59.3007243679" lon="34.6732160576"><ele>156.807</ele><time>2026-08-16T15:58:39.319Z</time><hdop>3.0</hdop><vdop>2.5</vdop><extensions><gom:speed>0.914</gom:speed></extensions></trkpt>
   <trkpt lat="59.3007286845" lon="34.6732263673"><ele>156.888</ele><time>2026-08-16T15:58:40.136Z</time><hdop>3.0</hdop><vdop>2.5</vdop><extensions><gom:speed>0.959</gom:speed></extensions></trkpt>
   <trkpt lat="59.3007361863" lon="34.6732358389"><ele>156.81</ele><time>2026-08-16T15:58:41.136Z</time><hdop>3.0</hdop><vdop>2.5</vdop><extensions><gom:speed>1.001</gom:speed></extensions></trkpt>
   <trkpt lat="59.3007434786" lon="34.6732421253"><ele>156.763</ele><time>2026-08-16T15:58:41.939Z</time><hdop>3.0</hdop><vdop>2.5</vdop><extensions><gom:speed>1.016</gom:speed></extensions></trkpt>
   <trkpt lat="59.3007517767" lon="34.6732474897"><ele>156.757</ele><time>2026-08-16T15:58:42.901Z</time><hdop>3.0</hdop><vdop>2.5</vdop><extensions><gom:speed>1.022</gom:speed></extensions></trkpt>
   <trkpt lat="59.3007581888" lon="34.673249669"><ele>156.966</ele><time>2026-08-16T15:58:43.705Z</time><hdop>3.0</hdop><vdop>2.5</vdop><extensions><gom:speed>0.979</gom:speed></extensions></trkpt>
   <trkpt lat="59.3007632599" lon="34.6732611522"><ele>157.678</ele><time>2026-08-16T15:58:44.619Z</time><hdop>3.0</hdop><vdop>2.5</vdop><extensions><gom:speed>0.947</gom:speed></extensions></trkpt>
   <trkpt lat="59.3007632599" lon="34.67327054"><ele>157.989</ele><time>2026-08-16T15:58:45.136Z</time><hdop>3.0</hdop><vdop>2.5</vdop><extensions><gom:speed>0.932</gom:speed></extensions></trkpt>
   <trkpt lat="59.3007612901" lon="34.6732880581"><ele>158.175</ele><time>2026-08-16T15:58:46.042Z</time><hdop>3.0</hdop><vdop>2.5</vdop><extensions><gom:speed>0.95</gom:speed></extensions></trkpt>
   <trkpt lat="59.3007634694" lon="34.6732985355"><ele>158.36</ele><time>2026-08-16T15:58:46.778Z</time><hdop>3.0</hdop><vdop>2.5</vdop><extensions><gom:speed>0.887</gom:speed></extensions></trkpt>
   <trkpt lat="59.3007677861" lon="34.6732988708"><ele>158.731</ele><time>2026-08-16T15:58:47.259Z</time><hdop>3.0</hdop><vdop>2.5</vdop><extensions><gom:speed>0.852</gom:speed></extensions></trkpt>
   <trkpt lat="59.3007734858" lon="34.6733063307"><ele>158.953</ele><time>2026-08-16T15:58:48.143Z</time><hdop>3.0</hdop><vdop>2.5</vdop><extensions><gom:speed>0.803</gom:speed></extensions></trkpt>
   <trkpt lat="59.3007783892" lon="34.6733151317"><ele>159.644</ele><time>2026-08-16T15:58:49.085Z</time><hdop>3.0</hdop><vdop>2.5</vdop><extensions><gom:speed>0.8</gom:speed></extensions></trkpt>
   <trkpt lat="59.3007822868" lon="34.6733225916"><ele>159.886</ele><time>2026-08-16T15:58:50.037Z</time><hdop>3.0</hdop><vdop>2.5</vdop><extensions><gom:speed>0.737</gom:speed></extensions></trkpt>
   <trkpt lat="59.3007899982" lon="34.6733226754"><ele>160.143</ele><time>2026-08-16T15:58:50.920Z</time><hdop>3.0</hdop><vdop>2.5</vdop><extensions><gom:speed>0.791</gom:speed></extensions></trkpt>
   <trkpt lat="59.3007974581" lon="34.6733232621"><ele>160.28</ele><time>2026-08-16T15:58:51.902Z</time><hdop>3.0</hdop><vdop>2.5</vdop><extensions><gom:speed>0.779</gom:speed></extensions></trkpt>
   <trkpt lat="59.3007994697" lon="34.6733322308"><ele>160.485</ele><time>2026-08-16T15:58:52.540Z</time><hdop>3.0</hdop><vdop>2.5</vdop><extensions><gom:speed>0.734</gom:speed></extensions></trkpt>
   <trkpt lat="59.3008008946" lon="34.6733429596"><ele>160.668</ele><time>2026-08-16T15:58:53.136Z</time><hdop>3.0</hdop><vdop>2.5</vdop><extensions><gom:speed>0.794</gom:speed></extensions></trkpt>
   <trkpt lat="59.3008027806" lon="34.6733512577"><ele>160.777</ele><time>2026-08-16T15:58:53.698Z</time><hdop>3.0</hdop><vdop>2.5</vdop><extensions><gom:speed>0.742</gom:speed></extensions></trkpt>
   <trkpt lat="59.3008103662" lon="34.6733638305"><ele>160.77</ele><time>2026-08-16T15:58:54.837Z</time><hdop>3.0</hdop><vdop>2.5</vdop><extensions><gom:speed>0.793</gom:speed></extensions></trkpt>
   <trkpt lat="59.3008172813" lon="34.6733706199"><ele>160.955</ele><time>2026-08-16T15:58:55.661Z</time><hdop>3.0</hdop><vdop>2.5</vdop><extensions><gom:speed>0.843</gom:speed></extensions></trkpt>
   <trkpt lat="59.3008207598" lon="34.6733753976"><ele>160.924</ele><time>2026-08-16T15:58:56.136Z</time><hdop>3.0</hdop><vdop>2.5</vdop><extensions><gom:speed>0.856</gom:speed></extensions></trkpt>
   <trkpt lat="59.3008267947" lon="34.6733809296"><ele>160.906</ele><time>2026-08-16T15:58:56.839Z</time><hdop>3.0</hdop><vdop>2.5</vdop><extensions><gom:speed>0.91</gom:speed></extensions></trkpt>
   <trkpt lat="59.3008315724" lon="34.6733887248"><ele>160.808</ele><time>2026-08-16T15:58:57.506Z</time><hdop>3.0</hdop><vdop>2.5</vdop><extensions><gom:speed>0.919</gom:speed></extensions></trkpt>
   <trkpt lat="59.3008365596" lon="34.673394173"><ele>160.75</ele><time>2026-08-16T15:58:58.105Z</time><hdop>3.0</hdop><vdop>2.5</vdop><extensions><gom:speed>0.921</gom:speed></extensions></trkpt>
   <trkpt lat="59.3008414631" lon="34.6734034769"><ele>160.696</ele><time>2026-08-16T15:58:58.861Z</time><hdop>3.0</hdop><vdop>2.5</vdop><extensions><gom:speed>0.922</gom:speed></extensions></trkpt>
   <trkpt lat="59.3008450673" lon="34.6734116912"><ele>160.582</ele><time>2026-08-16T15:58:59.459Z</time><hdop>3.0</hdop><vdop>2.5</vdop><extensions><gom:speed>0.913</gom:speed></extensions></trkpt>
   <trkpt lat="59.3008493839" lon="34.6734182291"><ele>160.513</ele><time>2026-08-16T15:59:00.038Z</time><hdop>3.0</hdop><vdop>2.5</vdop><extensions><gom:speed>0.927</gom:speed></extensions></trkpt>
   <trkpt lat="59.300853072" lon="34.6734268624"><ele>160.74</ele><time>2026-08-16T15:59:00.677Z</time><hdop>3.0</hdop><vdop>2.5</vdop><extensions><gom:speed>0.944</gom:speed></extensions></trkpt>
   <trkpt lat="59.3008554608" lon="34.6734329812"><ele>160.661</ele><time>2026-08-16T15:59:01.136Z</time><hdop>3.0</hdop><vdop>2.5</vdop><extensions><gom:speed>0.915</gom:speed></extensions></trkpt>
   <trkpt lat="59.3008614958" lon="34.6734396868"><ele>160.614</ele><time>2026-08-16T15:59:01.845Z</time><hdop>3.0</hdop><vdop>2.5</vdop><extensions><gom:speed>0.976</gom:speed></extensions></trkpt>
   <trkpt lat="59.3008661897" lon="34.6734447997"><ele>160.505</ele><time>2026-08-16T15:59:02.501Z</time><hdop>3.0</hdop><vdop>2.5</vdop><extensions><gom:speed>0.997</gom:speed></extensions></trkpt>
   <trkpt lat="59.3008708835" lon="34.6734449674"><ele>160.44</ele><time>2026-08-16T15:59:02.982Z</time><hdop>3.0</hdop><vdop>2.5</vdop><extensions><gom:speed>0.986</gom:speed></extensions></trkpt>
   <trkpt lat="59.3008773795" lon="34.6734512538"><ele>159.954</ele><time>2026-08-16T15:59:04.136Z</time><hdop>3.0</hdop><vdop>2.687</vdop><extensions><gom:speed>0.941</gom:speed></extensions></trkpt>
   <trkpt lat="59.3008830792" lon="34.6734504994"><ele>159.663</ele><time>2026-08-16T15:59:04.858Z</time><hdop>3.0</hdop><vdop>2.687</vdop><extensions><gom:speed>1.003</gom:speed></extensions></trkpt>
   <trkpt lat="59.3008864739" lon="34.6734563667"><ele>159.115</ele><time>2026-08-16T15:59:05.506Z</time><hdop>3.0</hdop><vdop>2.75</vdop><extensions><gom:speed>0.995</gom:speed></extensions></trkpt>
   <trkpt lat="59.3008923831" lon="34.6734584622"><ele>158.788</ele><time>2026-08-16T15:59:06.124Z</time><hdop>3.0</hdop><vdop>2.75</vdop><extensions><gom:speed>1.003</gom:speed></extensions></trkpt>
   <trkpt lat="59.3008944786" lon="34.6734746393"><ele>158.605</ele><time>2026-08-16T15:59:06.782Z</time><hdop>3.0</hdop><vdop>2.812</vdop><extensions><gom:speed>0.973</gom:speed></extensions></trkpt>
   <trkpt lat="59.3008937661" lon="34.67349375"><ele>158.602</ele><time>2026-08-16T15:59:07.302Z</time><hdop>3.0</hdop><vdop>2.687</vdop><extensions><gom:speed>0.921</gom:speed></extensions></trkpt>
   <trkpt lat="59.3008935985" lon="34.6735150401"><ele>158.677</ele><time>2026-08-16T15:59:08.136Z</time><hdop>3.0</hdop><vdop>2.625</vdop><extensions><gom:speed>0.929</gom:speed></extensions></trkpt>
   <trkpt lat="59.3008924669" lon="34.6735277806"><ele>158.722</ele><time>2026-08-16T15:59:08.666Z</time><hdop>3.0</hdop><vdop>2.625</vdop><extensions><gom:speed>0.954</gom:speed></extensions></trkpt>
   <trkpt lat="59.3008924669" lon="34.6735398505"><ele>158.805</ele><time>2026-08-16T15:59:09.136Z</time><hdop>3.0</hdop><vdop>2.562</vdop><extensions><gom:speed>0.946</gom:speed></extensions></trkpt>
   <trkpt lat="59.300894772" lon="34.6735561952"><ele>158.854</ele><time>2026-08-16T15:59:09.923Z</time><hdop>3.0</hdop><vdop>2.562</vdop><extensions><gom:speed>1.029</gom:speed></extensions></trkpt>
   <trkpt lat="59.3008988791" lon="34.6735734619"><ele>159.48</ele><time>2026-08-16T15:59:10.845Z</time><hdop>3.0</hdop><vdop>2.687</vdop><extensions><gom:speed>0.977</gom:speed></extensions></trkpt>
   <trkpt lat="59.3009017708" lon="34.6735921536"><ele>160.111</ele><time>2026-08-16T15:59:11.866Z</time><hdop>3.0</hdop><vdop>2.812</vdop><extensions><gom:speed>0.952</gom:speed></extensions></trkpt>
   <trkpt lat="59.3009055846" lon="34.6736144494"><ele>160.302</ele><time>2026-08-16T15:59:13.082Z</time><hdop>3.0</hdop><vdop>2.75</vdop><extensions><gom:speed>0.969</gom:speed></extensions></trkpt>
   <trkpt lat="59.3009094822" lon="34.6736332249"><ele>160.482</ele><time>2026-08-16T15:59:13.820Z</time><hdop>3.0</hdop><vdop>2.937</vdop><extensions><gom:speed>1.099</gom:speed></extensions></trkpt>
   <trkpt lat="59.3009156848" lon="34.6736487314"><ele>160.991</ele><time>2026-08-16T15:59:14.300Z</time><hdop>3.0</hdop><vdop>2.875</vdop><extensions><gom:speed>1.25</gom:speed></extensions></trkpt>
   <trkpt lat="59.3009202949" lon="34.6736676745"><ele>161.295</ele><time>2026-08-16T15:59:15.124Z</time><hdop>3.0</hdop><vdop>2.875</vdop><extensions><gom:speed>1.189</gom:speed></extensions></trkpt>
   <trkpt lat="59.3009296826" lon="34.6736791577"><ele>161.699</ele><time>2026-08-16T15:59:15.585Z</time><hdop>3.0</hdop><vdop>2.875</vdop><extensions><gom:speed>1.244</gom:speed></extensions></trkpt>
   <trkpt lat="59.3009386931" lon="34.6736904733"><ele>163.001</ele><time>2026-08-16T15:59:16.136Z</time><hdop>3.0</hdop><vdop>2.812</vdop><extensions><gom:speed>1.339</gom:speed></extensions></trkpt>
   <trkpt lat="59.3009451891" lon="34.6737064827"><ele>163.778</ele><time>2026-08-16T15:59:16.882Z</time><hdop>3.0</hdop><vdop>2.812</vdop><extensions><gom:speed>1.214</gom:speed></extensions></trkpt>
   <trkpt lat="59.3009529843" lon="34.6737344783"><ele>164.421</ele><time>2026-08-16T15:59:18.079Z</time><hdop>3.0</hdop><vdop>3.0</vdop><extensions><gom:speed>1.162</gom:speed></extensions></trkpt>
   <trkpt lat="59.300957762" lon="34.6737457939"><ele>165.236</ele><time>2026-08-16T15:59:18.560Z</time><hdop>3.0</hdop><vdop>3.312</vdop><extensions><gom:speed>1.191</gom:speed></extensions></trkpt>
   <trkpt lat="59.3009637969" lon="34.6737586182"><ele>166.193</ele><time>2026-08-16T15:59:19.136Z</time><hdop>3.0</hdop><vdop>3.625</vdop><extensions><gom:speed>1.291</gom:speed></extensions></trkpt>
   <trkpt lat="59.3009689937" lon="34.673769347"><ele>166.764</ele><time>2026-08-16T15:59:19.660Z</time><hdop>3.0</hdop><vdop>3.625</vdop><extensions><gom:speed>1.257</gom:speed></extensions></trkpt>
   <trkpt lat="59.300974861" lon="34.673777226"><ele>166.902</ele><time>2026-08-16T15:59:20.136Z</time><hdop>3.0</hdop><vdop>3.25</vdop><extensions><gom:speed>1.254</gom:speed></extensions></trkpt>
   <trkpt lat="59.3009815666" lon="34.6737910561"><ele>166.985</ele><time>2026-08-16T15:59:20.857Z</time><hdop>3.0</hdop><vdop>3.25</vdop><extensions><gom:speed>1.226</gom:speed></extensions></trkpt>
   <trkpt lat="59.3009882721" lon="34.6738029584"><ele>167.177</ele><time>2026-08-16T15:59:21.564Z</time><hdop>3.0</hdop><vdop>3.25</vdop><extensions><gom:speed>1.199</gom:speed></extensions></trkpt>
   <trkpt lat="59.3009920859" lon="34.6738127653"><ele>167.291</ele><time>2026-08-16T15:59:22.064Z</time><hdop>3.0</hdop><vdop>3.25</vdop><extensions><gom:speed>1.202</gom:speed></extensions></trkpt>
   <trkpt lat="59.3009987914" lon="34.6738232426"><ele>166.934</ele><time>2026-08-16T15:59:22.879Z</time><hdop>3.0</hdop><vdop>3.312</vdop><extensions><gom:speed>1.169</gom:speed></extensions></trkpt>
   <trkpt lat="59.3010034852" lon="34.673825841"><ele>166.536</ele><time>2026-08-16T15:59:23.340Z</time><hdop>3.0</hdop><vdop>3.312</vdop><extensions><gom:speed>1.168</gom:speed></extensions></trkpt>
   <trkpt lat="59.3010090592" lon="34.6738365699"><ele>166.299</ele><time>2026-08-16T15:59:24.057Z</time><hdop>3.0</hdop><vdop>3.312</vdop><extensions><gom:speed>1.136</gom:speed></extensions></trkpt>
   <trkpt lat="59.3010139626" lon="34.6738409285"><ele>166.076</ele><time>2026-08-16T15:59:24.577Z</time><hdop>3.0</hdop><vdop>3.437</vdop><extensions><gom:speed>1.154</gom:speed></extensions></trkpt>
   <trkpt lat="59.3010183631" lon="34.6738461252"><ele>166.089</ele><time>2026-08-16T15:59:25.136Z</time><hdop>3.0</hdop><vdop>3.0</vdop><extensions><gom:speed>1.129</gom:speed></extensions></trkpt>
   <trkpt lat="59.3010252782" lon="34.6738538366"><ele>166.097</ele><time>2026-08-16T15:59:25.902Z</time><hdop>3.0</hdop><vdop>3.0</vdop><extensions><gom:speed>1.093</gom:speed></extensions></trkpt>
   <trkpt lat="59.3010328638" lon="34.6738554292"><ele>166.273</ele><time>2026-08-16T15:59:26.746Z</time><hdop>3.0</hdop><vdop>2.625</vdop><extensions><gom:speed>1.036</gom:speed></extensions></trkpt>
   <trkpt lat="59.3010384797" lon="34.6738496456"><ele>166.536</ele><time>2026-08-16T15:59:27.404Z</time><hdop>3.0</hdop><vdop>2.625</vdop><extensions><gom:speed>0.994</gom:speed></extensions></trkpt>
   <trkpt lat="59.3010441794" lon="34.6738424372"><ele>166.744</ele><time>2026-08-16T15:59:28.136Z</time><hdop>3.0</hdop><vdop>2.5</vdop><extensions><gom:speed>0.99</gom:speed></extensions></trkpt>
   <trkpt lat="59.301051765" lon="34.6738330495"><ele>166.869</ele><time>2026-08-16T15:59:29.082Z</time><hdop>3.0</hdop><vdop>2.5</vdop><extensions><gom:speed>0.949</gom:speed></extensions></trkpt>
   <trkpt lat="59.3010577581" lon="34.6738478854"><ele>167.27</ele><time>2026-08-16T15:59:30.136Z</time><hdop>3.0</hdop><vdop>2.562</vdop><extensions><gom:speed>0.961</gom:speed></extensions></trkpt>
   <trkpt lat="59.3010592668" lon="34.6738690917"><ele>167.211</ele><time>2026-08-16T15:59:31.136Z</time><hdop>3.0</hdop><vdop>2.562</vdop><extensions><gom:speed>0.939</gom:speed></extensions></trkpt>
   <trkpt lat="59.3010603984" lon="34.6738792338"><ele>167.176</ele><time>2026-08-16T15:59:31.625Z</time><hdop>3.0</hdop><vdop>2.562</vdop><extensions><gom:speed>0.978</gom:speed></extensions></trkpt>
   <trkpt lat="59.3010617814" lon="34.6738885377"><ele>166.918</ele><time>2026-08-16T15:59:32.136Z</time><hdop>3.0</hdop><vdop>2.5</vdop><extensions><gom:speed>0.99</gom:speed></extensions></trkpt>
   <trkpt lat="59.3010650922" lon="34.673899518"><ele>166.764</ele><time>2026-08-16T15:59:32.763Z</time><hdop>3.0</hdop><vdop>2.5</vdop><extensions><gom:speed>1.0</gom:speed></extensions></trkpt>
   <trkpt lat="59.301072594" lon="34.6739162818"><ele>166.281</ele><time>2026-08-16T15:59:33.902Z</time><hdop>3.0</hdop><vdop>2.5</vdop><extensions><gom:speed>1.045</gom:speed></extensions></trkpt>
   <trkpt lat="59.30107909" lon="34.6739262562"><ele>165.958</ele><time>2026-08-16T15:59:34.942Z</time><hdop>3.0</hdop><vdop>2.5</vdop><extensions><gom:speed>0.979</gom:speed></extensions></trkpt>
   <trkpt lat="59.3010818979" lon="34.6739274297"><ele>165.304</ele><time>2026-08-16T15:59:35.540Z</time><hdop>3.0</hdop><vdop>2.562</vdop><extensions><gom:speed>0.895</gom:speed></extensions></trkpt>
   <trkpt lat="59.3010859632" lon="34.6739307825"><ele>164.914</ele><time>2026-08-16T15:59:36.100Z</time><hdop>3.0</hdop><vdop>2.562</vdop><extensions><gom:speed>0.883</gom:speed></extensions></trkpt>
   <trkpt lat="59.3010874719" lon="34.6739395835"><ele>164.897</ele><time>2026-08-16T15:59:36.620Z</time><hdop>3.0</hdop><vdop>2.625</vdop><extensions><gom:speed>0.91</gom:speed></extensions></trkpt>
   <trkpt lat="59.3010888968" lon="34.6739492227"><ele>164.729</ele><time>2026-08-16T15:59:37.136Z</time><hdop>3.0</hdop><vdop>2.5</vdop><extensions><gom:speed>0.936</gom:speed></extensions></trkpt>
   <trkpt lat="59.3010936745" lon="34.6739627175"><ele>164.628</ele><time>2026-08-16T15:59:38.024Z</time><hdop>3.0</hdop><vdop>2.5</vdop><extensions><gom:speed>0.92</gom:speed></extensions></trkpt>
   <trkpt lat="59.30109577" lon="34.6739687525"><ele>164.418</ele><time>2026-08-16T15:59:38.505Z</time><hdop>3.0</hdop><vdop>2.5</vdop><extensions><gom:speed>0.869</gom:speed></extensions></trkpt>
   <trkpt lat="59.3010985779" lon="34.6739777211"><ele>164.473</ele><time>2026-08-16T15:59:39.136Z</time><hdop>3.0</hdop><vdop>2.5</vdop><extensions><gom:speed>0.879</gom:speed></extensions></trkpt>
   <trkpt lat="59.3011017631" lon="34.6739905454"><ele>164.506</ele><time>2026-08-16T15:59:39.997Z</time><hdop>3.0</hdop><vdop>2.5</vdop><extensions><gom:speed>0.841</gom:speed></extensions></trkpt>
   <trkpt lat="59.3011036909" lon="34.6740008552"><ele>164.364</ele><time>2026-08-16T15:59:40.603Z</time><hdop>3.0</hdop><vdop>2.5</vdop><extensions><gom:speed>0.868</gom:speed></extensions></trkpt>
   <trkpt lat="59.3011053673" lon="34.6740091533"><ele>164.153</ele><time>2026-08-16T15:59:41.136Z</time><hdop>3.0</hdop><vdop>2.5</vdop><extensions><gom:speed>0.858</gom:speed></extensions></trkpt>
   <trkpt lat="59.3011092649" lon="34.6740175352"><ele>164.027</ele><time>2026-08-16T15:59:41.820Z</time><hdop>3.0</hdop><vdop>2.5</vdop><extensions><gom:speed>0.863</gom:speed></extensions></trkpt>
   <trkpt lat="59.3011124919" lon="34.6740218938"><ele>163.496</ele><time>2026-08-16T15:59:42.341Z</time><hdop>3.0</hdop><vdop>2.562</vdop><extensions><gom:speed>0.895</gom:speed></extensions></trkpt>
   <trkpt lat="59.3011167667" lon="34.674027342"><ele>163.179</ele><time>2026-08-16T15:59:42.979Z</time><hdop>3.0</hdop><vdop>2.562</vdop><extensions><gom:speed>0.9</gom:speed></extensions></trkpt>
   <trkpt lat="59.3011180659" lon="34.6740376517"><ele>162.781</ele><time>2026-08-16T15:59:43.999Z</time><hdop>3.0</hdop><vdop>2.562</vdop><extensions><gom:speed>0.769</gom:speed></extensions></trkpt>
   <trkpt lat="59.3011193651" lon="34.6740471233"><ele>162.406</ele><time>2026-08-16T15:59:45.136Z</time><hdop>3.0</hdop><vdop>2.687</vdop><extensions><gom:speed>0.721</gom:speed></extensions></trkpt>
   <trkpt lat="59.301115677" lon="34.674068078"><ele>162.455</ele><time>2026-08-16T15:59:46.136Z</time><hdop>3.0</hdop><vdop>2.75</vdop><extensions><gom:speed>0.956</gom:speed></extensions></trkpt>
   <trkpt lat="59.3011112765" lon="34.6740798965"><ele>162.484</ele><time>2026-08-16T15:59:46.740Z</time><hdop>3.0</hdop><vdop>2.75</vdop><extensions><gom:speed>0.909</gom:speed></extensions></trkpt>
   <trkpt lat="59.3010968596" lon="34.6740890328"><ele>162.439</ele><time>2026-08-16T15:59:47.623Z</time><hdop>3.0</hdop><vdop>2.875</vdop><extensions><gom:speed>1.037</gom:speed></extensions></trkpt>
   <trkpt lat="59.3010924591" lon="34.6740857639"><ele>162.412</ele><time>2026-08-16T15:59:48.084Z</time><hdop>3.0</hdop><vdop>2.875</vdop><extensions><gom:speed>0.941</gom:speed></extensions></trkpt>
   <trkpt lat="59.3010830714" lon="34.6741028629"><ele>162.112</ele><time>2026-08-16T15:59:48.821Z</time><hdop>3.062</hdop><vdop>2.562</vdop><extensions><gom:speed>1.242</gom:speed></extensions></trkpt>
   <trkpt lat="59.3010782937" lon="34.6741325349"><ele>161.728</ele><time>2026-08-16T15:59:49.557Z</time><hdop>3.062</hdop><vdop>2.5</vdop><extensions><gom:speed>1.354</gom:speed></extensions></trkpt>
   <trkpt lat="59.3010770783" lon="34.6741469517"><ele>161.277</ele><time>2026-08-16T15:59:50.136Z</time><hdop>3.062</hdop><vdop>2.562</vdop><extensions><gom:speed>1.235</gom:speed></extensions></trkpt>
   <trkpt lat="59.3010768688" lon="34.6741577644"><ele>161.008</ele><time>2026-08-16T15:59:50.921Z</time><hdop>3.187</hdop><vdop>2.562</vdop><extensions><gom:speed>1.216</gom:speed></extensions></trkpt>
   <trkpt lat="59.3010727617" lon="34.6741728518"><ele>160.365</ele><time>2026-08-16T15:59:52.136Z</time><hdop>3.375</hdop><vdop>2.75</vdop><extensions><gom:speed>1.051</gom:speed></extensions></trkpt>
   <trkpt lat="59.3010709596" lon="34.6741776295"><ele>159.98</ele><time>2026-08-16T15:59:53.020Z</time><hdop>3.5</hdop><vdop>2.75</vdop><extensions><gom:speed>1.076</gom:speed></extensions></trkpt>
   <trkpt lat="59.3010681935" lon="34.6741934713"><ele>159.333</ele><time>2026-08-16T15:59:53.677Z</time><hdop>3.625</hdop><vdop>2.937</vdop><extensions><gom:speed>1.049</gom:speed></extensions></trkpt>
   <trkpt lat="59.3010672715" lon="34.6742049545"><ele>158.623</ele><time>2026-08-16T15:59:54.135Z</time><hdop>3.625</hdop><vdop>3.125</vdop><extensions><gom:speed>0.936</gom:speed></extensions></trkpt>
   <trkpt lat="59.3010668943" lon="34.6742120791"><ele>158.199</ele><time>2026-08-16T15:59:54.600Z</time><hdop>3.75</hdop><vdop>3.125</vdop><extensions><gom:speed>1.003</gom:speed></extensions></trkpt>
   <trkpt lat="59.3010665591" lon="34.6742157672"><ele>157.945</ele><time>2026-08-16T15:59:55.120Z</time><hdop>3.75</hdop><vdop>3.125</vdop><extensions><gom:speed>0.986</gom:speed></extensions></trkpt>
   <trkpt lat="59.3010701633" lon="34.674220461"><ele>157.598</ele><time>2026-08-16T15:59:55.876Z</time><hdop>3.812</hdop><vdop>3.437</vdop><extensions><gom:speed>1.05</gom:speed></extensions></trkpt>
   <trkpt lat="59.301075863" lon="34.6742247358"><ele>157.097</ele><time>2026-08-16T15:59:56.357Z</time><hdop>3.75</hdop><vdop>3.375</vdop><extensions><gom:speed>1.015</gom:speed></extensions></trkpt>
   <trkpt lat="59.3010843706" lon="34.6742331177"><ele>156.715</ele><time>2026-08-16T15:59:57.136Z</time><hdop>3.812</hdop><vdop>3.375</vdop><extensions><gom:speed>1.077</gom:speed></extensions></trkpt>
   <trkpt lat="59.301094387" lon="34.6742433436"><ele>156.099</ele><time>2026-08-16T15:59:58.136Z</time><hdop>3.75</hdop><vdop>3.375</vdop><extensions><gom:speed>1.004</gom:speed></extensions></trkpt>
   <trkpt lat="59.3011000867" lon="34.6742527314"><ele>155.73</ele><time>2026-08-16T15:59:58.938Z</time><hdop>3.812</hdop><vdop>3.375</vdop><extensions><gom:speed>0.98</gom:speed></extensions></trkpt>
   <trkpt lat="59.3011037747" lon="34.6742645499"><ele>155.431</ele><time>2026-08-16T16:00:00.136Z</time><hdop>3.75</hdop><vdop>3.25</vdop><extensions><gom:speed>0.618</gom:speed></extensions></trkpt>
   <trkpt lat="59.301100883" lon="34.6742673997"><ele>155.337</ele><time>2026-08-16T16:00:01.136Z</time><hdop>3.687</hdop><vdop>3.187</vdop><extensions><gom:speed>0.311</gom:speed></extensions></trkpt>
   <trkpt lat="59.3010961891" lon="34.6742713392"><ele>155.345</ele><time>2026-08-16T16:00:02.136Z</time><hdop>3.562</hdop><vdop>3.062</vdop><extensions><gom:speed>0.236</gom:speed></extensions></trkpt>
   <trkpt lat="59.3010949737" lon="34.6742735185"><ele>155.35</ele><time>2026-08-16T16:00:03.002Z</time><hdop>3.375</hdop><vdop>3.062</vdop><extensions><gom:speed>0.178</gom:speed></extensions></trkpt>
   <trkpt lat="59.301093465" lon="34.6742772903"><ele>155.609</ele><time>2026-08-16T16:00:03.512Z</time><hdop>3.187</hdop><vdop>3.187</vdop><extensions><gom:speed>0.125</gom:speed></extensions></trkpt>
   <trkpt lat="59.3010937583" lon="34.6742810622"><ele>155.864</ele><time>2026-08-16T16:00:04.136Z</time><hdop>3.062</hdop><vdop>3.25</vdop><extensions><gom:speed>0.27</gom:speed></extensions></trkpt>
   <trkpt lat="59.3010940936" lon="34.6742868457"><ele>156.115</ele><time>2026-08-16T16:00:05.136Z</time><hdop>3.0</hdop><vdop>3.312</vdop><extensions><gom:speed>0.21</gom:speed></extensions></trkpt>
   <trkpt lat="59.3010951833" lon="34.6742893603"><ele>156.045</ele><time>2026-08-16T16:00:06.136Z</time><hdop>3.0</hdop><vdop>3.375</vdop><extensions><gom:speed>0.278</gom:speed></extensions></trkpt>
   <trkpt lat="59.3010956862" lon="34.6742904499"><ele>156.004</ele><time>2026-08-16T16:00:07.095Z</time><hdop>3.0</hdop><vdop>3.375</vdop><extensions><gom:speed>0.273</gom:speed></extensions></trkpt>
   <trkpt lat="59.3010981588" lon="34.6742936351"><ele>155.738</ele><time>2026-08-16T16:00:08.017Z</time><hdop>3.0</hdop><vdop>3.375</vdop><extensions><gom:speed>0.356</gom:speed></extensions></trkpt>
   <trkpt lat="59.3011007991" lon="34.6743000891"><ele>155.354</ele><time>2026-08-16T16:00:08.577Z</time><hdop>3.0</hdop><vdop>3.125</vdop><extensions><gom:speed>0.408</gom:speed></extensions></trkpt>
   <trkpt lat="59.3011035652" lon="34.6743069623"><ele>155.402</ele><time>2026-08-16T16:00:09.136Z</time><hdop>3.0</hdop><vdop>3.25</vdop><extensions><gom:speed>0.467</gom:speed></extensions></trkpt>
   <trkpt lat="59.3011066665" lon="34.674313584"><ele>155.431</ele><time>2026-08-16T16:00:09.872Z</time><hdop>3.0</hdop><vdop>3.25</vdop><extensions><gom:speed>0.53</gom:speed></extensions></trkpt>
   <trkpt lat="59.3011132882" lon="34.6743306831"><ele>155.908</ele><time>2026-08-16T16:00:10.638Z</time><hdop>3.062</hdop><vdop>3.125</vdop><extensions><gom:speed>0.694</gom:speed></extensions></trkpt>
   <trkpt lat="59.301118485" lon="34.6743428368"><ele>156.122</ele><time>2026-08-16T16:00:11.135Z</time><hdop>3.062</hdop><vdop>2.812</vdop><extensions><gom:speed>0.754</gom:speed></extensions></trkpt>
   <trkpt lat="59.3011256934" lon="34.6743588463"><ele>156.259</ele><time>2026-08-16T16:00:12.136Z</time><hdop>3.062</hdop><vdop>2.812</vdop><extensions><gom:speed>0.753</gom:speed></extensions></trkpt>
   <trkpt lat="59.3011317703" lon="34.6743696589"><ele>156.341</ele><time>2026-08-16T16:00:12.954Z</time><hdop>3.062</hdop><vdop>2.812</vdop><extensions><gom:speed>0.803</gom:speed></extensions></trkpt>
   <trkpt lat="59.3011410742" lon="34.6743796334"><ele>156.238</ele><time>2026-08-16T16:00:13.798Z</time><hdop>3.062</hdop><vdop>2.875</vdop><extensions><gom:speed>0.876</gom:speed></extensions></trkpt>
   <trkpt lat="59.3011482826" lon="34.6743842434"><ele>155.962</ele><time>2026-08-16T16:00:14.436Z</time><hdop>3.062</hdop><vdop>2.812</vdop><extensions><gom:speed>0.872</gom:speed></extensions></trkpt>
   <trkpt lat="59.3011549881" lon="34.6743893564"><ele>155.635</ele><time>2026-08-16T16:00:15.135Z</time><hdop>3.0</hdop><vdop>2.75</vdop><extensions><gom:speed>0.859</gom:speed></extensions></trkpt>
   <trkpt lat="59.3011624899" lon="34.6743980736"><ele>155.485</ele><time>2026-08-16T16:00:16.136Z</time><hdop>3.0</hdop><vdop>3.0</vdop><extensions><gom:speed>0.753</gom:speed></extensions></trkpt>
   <trkpt lat="59.301168483" lon="34.6744087186"><ele>155.394</ele><time>2026-08-16T16:00:17.155Z</time><hdop>3.0</hdop><vdop>3.0</vdop><extensions><gom:speed>0.76</gom:speed></extensions></trkpt>
   <trkpt lat="59.3011722968" lon="34.6744124904"><ele>155.172</ele><time>2026-08-16T16:00:17.636Z</time><hdop>3.0</hdop><vdop>3.0</vdop><extensions><gom:speed>0.812</gom:speed></extensions></trkpt>
   <trkpt lat="59.3011758591" lon="34.6744162623"><ele>154.945</ele><time>2026-08-16T16:00:18.136Z</time><hdop>3.0</hdop><vdop>2.812</vdop><extensions><gom:speed>0.799</gom:speed></extensions></trkpt>
   <trkpt lat="59.3011808882" lon="34.6744237222"><ele>154.808</ele><time>2026-08-16T16:00:18.794Z</time><hdop>3.0</hdop><vdop>2.812</vdop><extensions><gom:speed>0.886</gom:speed></extensions></trkpt>
   <trkpt lat="59.3011854983" lon="34.6744319365"><ele>154.879</ele><time>2026-08-16T16:00:19.462Z</time><hdop>3.0</hdop><vdop>3.062</vdop><extensions><gom:speed>0.966</gom:speed></extensions></trkpt>
   <trkpt lat="59.3011892701" lon="34.6744397316"><ele>154.922</ele><time>2026-08-16T16:00:19.972Z</time><hdop>3.0</hdop><vdop>3.062</vdop><extensions><gom:speed>0.991</gom:speed></extensions></trkpt>
   <trkpt lat="59.3011944669" lon="34.6744489517"><ele>154.25</ele><time>2026-08-16T16:00:20.698Z</time><hdop>3.0</hdop><vdop>2.937</vdop><extensions><gom:speed>1.052</gom:speed></extensions></trkpt>
   <trkpt lat="59.3012039804" lon="34.674461776"><ele>153.607</ele><time>2026-08-16T16:00:21.817Z</time><hdop>3.0</hdop><vdop>2.812</vdop><extensions><gom:speed>1.08</gom:speed></extensions></trkpt>
   <trkpt lat="59.301208297" lon="34.6744636201"><ele>153.309</ele><time>2026-08-16T16:00:22.338Z</time><hdop>3.0</hdop><vdop>2.75</vdop><extensions><gom:speed>1.031</gom:speed></extensions></trkpt>
   <trkpt lat="59.3012152959" lon="34.6744690683"><ele>153.131</ele><time>2026-08-16T16:00:23.015Z</time><hdop>3.0</hdop><vdop>2.75</vdop><extensions><gom:speed>1.081</gom:speed></extensions></trkpt>
   <trkpt lat="59.3012202832" lon="34.674474768"><ele>153.219</ele><time>2026-08-16T16:00:23.653Z</time><hdop>3.0</hdop><vdop>2.687</vdop><extensions><gom:speed>1.065</gom:speed></extensions></trkpt>
   <trkpt lat="59.3012243903" lon="34.674481222"><ele>153.272</ele><time>2026-08-16T16:00:24.152Z</time><hdop>3.0</hdop><vdop>2.687</vdop><extensions><gom:speed>1.069</gom:speed></extensions></trkpt>
   <trkpt lat="59.3012287908" lon="34.6744950522"><ele>153.582</ele><time>2026-08-16T16:00:25.136Z</time><hdop>3.0</hdop><vdop>2.75</vdop><extensions><gom:speed>1.034</gom:speed></extensions></trkpt>
   <trkpt lat="59.3012327722" lon="34.6745058648"><ele>153.767</ele><time>2026-08-16T16:00:25.792Z</time><hdop>3.0</hdop><vdop>2.75</vdop><extensions><gom:speed>1.075</gom:speed></extensions></trkpt>
   <trkpt lat="59.3012366698" lon="34.6745184377"><ele>153.727</ele><time>2026-08-16T16:00:26.695Z</time><hdop>3.0</hdop><vdop>2.875</vdop><extensions><gom:speed>1.041</gom:speed></extensions></trkpt>
   <trkpt lat="59.3012454708" lon="34.6745355368"><ele>153.656</ele><time>2026-08-16T16:00:28.079Z</time><hdop>3.0</hdop><vdop>2.75</vdop><extensions><gom:speed>0.994</gom:speed></extensions></trkpt>
   <trkpt lat="59.3012517991" lon="34.6745456789"><ele>153.709</ele><time>2026-08-16T16:00:29.136Z</time><hdop>3.0</hdop><vdop>2.5</vdop><extensions><gom:speed>0.979</gom:speed></extensions></trkpt>
   <trkpt lat="59.3012553614" lon="34.674552552"><ele>153.741</ele><time>2026-08-16T16:00:29.640Z</time><hdop>3.0</hdop><vdop>2.5</vdop><extensions><gom:speed>1.02</gom:speed></extensions></trkpt>
   <trkpt lat="59.3012582951" lon="34.6745587547"><ele>153.944</ele><time>2026-08-16T16:00:30.136Z</time><hdop>3.0</hdop><vdop>2.5</vdop><extensions><gom:speed>0.993</gom:speed></extensions></trkpt>
   <trkpt lat="59.3012642882" lon="34.6745696511"><ele>154.065</ele><time>2026-08-16T16:00:30.955Z</time><hdop>3.0</hdop><vdop>2.5</vdop><extensions><gom:speed>0.999</gom:speed></extensions></trkpt>
   <trkpt lat="59.3012697783" lon="34.6745791227"><ele>153.855</ele><time>2026-08-16T16:00:31.799Z</time><hdop>3.0</hdop><vdop>2.5</vdop><extensions><gom:speed>1.015</gom:speed></extensions></trkpt>
   <trkpt lat="59.3012785793" lon="34.6745903544"><ele>153.794</ele><time>2026-08-16T16:00:32.840Z</time><hdop>3.0</hdop><vdop>2.687</vdop><extensions><gom:speed>1.042</gom:speed></extensions></trkpt>
   <trkpt lat="59.3012823931" lon="34.6745941263"><ele>153.82</ele><time>2026-08-16T16:00:33.419Z</time><hdop>3.0</hdop><vdop>2.625</vdop><extensions><gom:speed>1.019</gom:speed></extensions></trkpt>
   <trkpt lat="59.3012873803" lon="34.6746010833"><ele>153.867</ele><time>2026-08-16T16:00:34.136Z</time><hdop>3.0</hdop><vdop>2.5</vdop><extensions><gom:speed>0.998</gom:speed></extensions></trkpt>
   <trkpt lat="59.3012914874" lon="34.6746094652"><ele>153.896</ele><time>2026-08-16T16:00:34.734Z</time><hdop>3.0</hdop><vdop>2.5</vdop><extensions><gom:speed>1.008</gom:speed></extensions></trkpt>
   <trkpt lat="59.3012964747" lon="34.6746236306"><ele>154.04</ele><time>2026-08-16T16:00:35.617Z</time><hdop>3.0</hdop><vdop>2.5</vdop><extensions><gom:speed>1.024</gom:speed></extensions></trkpt>
   <trkpt lat="59.3012993664" lon="34.6746323478"><ele>154.316</ele><time>2026-08-16T16:00:36.136Z</time><hdop>3.0</hdop><vdop>2.5</vdop><extensions><gom:speed>0.993</gom:speed></extensions></trkpt>
   <trkpt lat="59.3013036831" lon="34.6746417355"><ele>154.48</ele><time>2026-08-16T16:00:36.756Z</time><hdop>3.0</hdop><vdop>2.5</vdop><extensions><gom:speed>1.027</gom:speed></extensions></trkpt>
   <trkpt lat="59.3013053595" lon="34.6746478543"><ele>154.556</ele><time>2026-08-16T16:00:37.217Z</time><hdop>3.0</hdop><vdop>2.5</vdop><extensions><gom:speed>0.974</gom:speed></extensions></trkpt>
   <trkpt lat="59.30130976" lon="34.6746574935"><ele>154.601</ele><time>2026-08-16T16:00:37.855Z</time><hdop>3.0</hdop><vdop>2.5</vdop><extensions><gom:speed>1.017</gom:speed></extensions></trkpt>
   <trkpt lat="59.3013128613" lon="34.6746659592"><ele>154.836</ele><time>2026-08-16T16:00:38.415Z</time><hdop>3.0</hdop><vdop>2.5</vdop><extensions><gom:speed>1.042</gom:speed></extensions></trkpt>
   <trkpt lat="59.3013183933" lon="34.6746769395"><ele>154.976</ele><time>2026-08-16T16:00:39.140Z</time><hdop>3.0</hdop><vdop>2.5</vdop><extensions><gom:speed>1.064</gom:speed></extensions></trkpt>
   <trkpt lat="59.3013209917" lon="34.6746858243"><ele>155.612</ele><time>2026-08-16T16:00:39.681Z</time><hdop>3.0</hdop><vdop>2.5</vdop><extensions><gom:speed>1.076</gom:speed></extensions></trkpt>
   <trkpt lat="59.3013225843" lon="34.6746929489"><ele>156.088</ele><time>2026-08-16T16:00:40.136Z</time><hdop>3.0</hdop><vdop>2.5</vdop><extensions><gom:speed>1.044</gom:speed></extensions></trkpt>
   <trkpt lat="59.3013277811" lon="34.6747047674"><ele>156.373</ele><time>2026-08-16T16:00:40.898Z</time><hdop>3.0</hdop><vdop>2.5</vdop><extensions><gom:speed>1.088</gom:speed></extensions></trkpt>
   <trkpt lat="59.3013321816" lon="34.6747144904"><ele>156.64</ele><time>2026-08-16T16:00:41.634Z</time><hdop>3.0</hdop><vdop>2.5</vdop><extensions><gom:speed>1.027</gom:speed></extensions></trkpt>
   <trkpt lat="59.3013346961" lon="34.6747211959"><ele>156.685</ele><time>2026-08-16T16:00:42.136Z</time><hdop>3.0</hdop><vdop>2.5</vdop><extensions><gom:speed>0.991</gom:speed></extensions></trkpt>
   <trkpt lat="59.3013394738" lon="34.6747341879"><ele>156.711</ele><time>2026-08-16T16:00:42.959Z</time><hdop>3.0</hdop><vdop>2.5</vdop><extensions><gom:speed>1.012</gom:speed></extensions></trkpt>
   <trkpt lat="59.3013421979" lon="34.6747439947"><ele>157.039</ele><time>2026-08-16T16:00:43.578Z</time><hdop>3.0</hdop><vdop>2.5</vdop><extensions><gom:speed>1.047</gom:speed></extensions></trkpt>
   <trkpt lat="59.3013451735" lon="34.6747529633"><ele>157.436</ele><time>2026-08-16T16:00:44.136Z</time><hdop>3.0</hdop><vdop>2.5</vdop><extensions><gom:speed>1.023</gom:speed></extensions></trkpt>
   <trkpt lat="59.3013489873" lon="34.6747621834"><ele>157.673</ele><time>2026-08-16T16:00:44.736Z</time><hdop>3.0</hdop><vdop>2.5</vdop><extensions><gom:speed>1.049</gom:speed></extensions></trkpt>
   <trkpt lat="59.3013519629" lon="34.6747749239"><ele>157.867</ele><time>2026-08-16T16:00:45.482Z</time><hdop>3.0</hdop><vdop>2.5</vdop><extensions><gom:speed>1.015</gom:speed></extensions></trkpt>
   <trkpt lat="59.3013551899" lon="34.674785066"><ele>157.983</ele><time>2026-08-16T16:00:46.100Z</time><hdop>3.0</hdop><vdop>2.5</vdop><extensions><gom:speed>1.025</gom:speed></extensions></trkpt>
   <trkpt lat="59.3013596742" lon="34.6747955434"><ele>158.138</ele><time>2026-08-16T16:00:46.797Z</time><hdop>3.0</hdop><vdop>2.5</vdop><extensions><gom:speed>1.036</gom:speed></extensions></trkpt>
   <trkpt lat="59.3013635718" lon="34.6748028357"><ele>158.57</ele><time>2026-08-16T16:00:47.337Z</time><hdop>3.0</hdop><vdop>2.562</vdop><extensions><gom:speed>1.012</gom:speed></extensions></trkpt>
   <trkpt lat="59.301369481" lon="34.6748117205"><ele>158.828</ele><time>2026-08-16T16:00:48.034Z</time><hdop>3.0</hdop><vdop>2.562</vdop><extensions><gom:speed>1.069</gom:speed></extensions></trkpt>
   <trkpt lat="59.3013741749" lon="34.6748258859"><ele>158.911</ele><time>2026-08-16T16:00:48.838Z</time><hdop>3.0</hdop><vdop>2.687</vdop><extensions><gom:speed>1.061</gom:speed></extensions></trkpt>
   <trkpt lat="59.3013772762" lon="34.6748403866"><ele>159.318</ele><time>2026-08-16T16:00:49.653Z</time><hdop>3.0</hdop><vdop>2.562</vdop><extensions><gom:speed>1.002</gom:speed></extensions></trkpt>
   <trkpt lat="59.3013792879" lon="34.6748496905"><ele>159.561</ele><time>2026-08-16T16:00:50.154Z</time><hdop>3.0</hdop><vdop>2.562</vdop><extensions><gom:speed>1.005</gom:speed></extensions></trkpt>
   <trkpt lat="59.3013835626" lon="34.6748622634"><ele>159.334</ele><time>2026-08-16T16:00:50.919Z</time><hdop>3.0</hdop><vdop>2.687</vdop><extensions><gom:speed>1.017</gom:speed></extensions></trkpt>
   <trkpt lat="59.3013866639" lon="34.6748694718"><ele>159.166</ele><time>2026-08-16T16:00:51.439Z</time><hdop>3.0</hdop><vdop>2.75</vdop><extensions><gom:speed>1.014</gom:speed></extensions></trkpt>
   <trkpt lat="59.3013904777" lon="34.6748802845"><ele>159.466</ele><time>2026-08-16T16:00:52.136Z</time><hdop>3.062</hdop><vdop>2.75</vdop><extensions><gom:speed>1.007</gom:speed></extensions></trkpt>
   <trkpt lat="59.3013931599" lon="34.6748922706"><ele>159.646</ele><time>2026-08-16T16:00:52.794Z</time><hdop>3.125</hdop><vdop>2.75</vdop><extensions><gom:speed>0.992</gom:speed></extensions></trkpt>
   <trkpt lat="59.3013975604" lon="34.6749153208"><ele>160.295</ele><time>2026-08-16T16:00:54.041Z</time><hdop>3.312</hdop><vdop>2.5</vdop><extensions><gom:speed>0.968</gom:speed></extensions></trkpt>
   <trkpt lat="59.301400075" lon="34.6749289833"><ele>160.714</ele><time>2026-08-16T16:00:54.796Z</time><hdop>3.5</hdop><vdop>2.5</vdop><extensions><gom:speed>0.984</gom:speed></extensions></trkpt>
   <trkpt lat="59.3014024638" lon="34.6749400474"><ele>161.178</ele><time>2026-08-16T16:00:55.395Z</time><hdop>3.625</hdop><vdop>2.5</vdop><extensions><gom:speed>0.981</gom:speed></extensions></trkpt>
   <trkpt lat="59.3014058585" lon="34.6749533747"><ele>161.585</ele><time>2026-08-16T16:00:56.136Z</time><hdop>3.75</hdop><vdop>2.5</vdop><extensions><gom:speed>0.967</gom:speed></extensions></trkpt>
   <trkpt lat="59.3014095884" lon="34.6749716472"><ele>161.744</ele><time>2026-08-16T16:00:57.136Z</time><hdop>4.062</hdop><vdop>2.5</vdop><extensions><gom:speed>1.003</gom:speed></extensions></trkpt>
   <trkpt lat="59.3014132765" lon="34.6749863994"><ele>161.943</ele><time>2026-08-16T16:00:58.136Z</time><hdop>4.187</hdop><vdop>2.5</vdop><extensions><gom:speed>0.916</gom:speed></extensions></trkpt>
   <trkpt lat="59.3014165873" lon="34.6749996428"><ele>162.062</ele><time>2026-08-16T16:00:59.017Z</time><hdop>4.375</hdop><vdop>2.5</vdop><extensions><gom:speed>0.901</gom:speed></extensions></trkpt>
   <trkpt lat="59.3014201916" lon="34.6750101201"><ele>161.976</ele><time>2026-08-16T16:00:59.694Z</time><hdop>4.562</hdop><vdop>2.5</vdop><extensions><gom:speed>0.945</gom:speed></extensions></trkpt>
   <trkpt lat="59.3014255979" lon="34.675022693"><ele>161.975</ele><time>2026-08-16T16:01:00.499Z</time><hdop>4.75</hdop><vdop>2.5</vdop><extensions><gom:speed>0.943</gom:speed></extensions></trkpt>
   <trkpt lat="59.3014302917" lon="34.6750310749"><ele>161.619</ele><time>2026-08-16T16:01:01.136Z</time><hdop>4.812</hdop><vdop>2.5</vdop><extensions><gom:speed>0.95</gom:speed></extensions></trkpt>
   <trkpt lat="59.301436662" lon="34.6750413846"><ele>161.407</ele><time>2026-08-16T16:01:02.099Z</time><hdop>4.875</hdop><vdop>2.5</vdop><extensions><gom:speed>0.894</gom:speed></extensions></trkpt>
   <trkpt lat="59.3014475585" lon="34.6750474196"><ele>160.838</ele><time>2026-08-16T16:01:03.136Z</time><hdop>5.0</hdop><vdop>2.5</vdop><extensions><gom:speed>0.957</gom:speed></extensions></trkpt>
   <trkpt lat="59.3014589998" lon="34.6750511915"><ele>160.367</ele><time>2026-08-16T16:01:04.136Z</time><hdop>4.937</hdop><vdop>2.5</vdop><extensions><gom:speed>1.027</gom:speed></extensions></trkpt>
   <trkpt lat="59.301468597" lon="34.6750626747"><ele>160.334</ele><time>2026-08-16T16:01:05.136Z</time><hdop>4.937</hdop><vdop>2.5</vdop><extensions><gom:speed>1.033</gom:speed></extensions></trkpt>
   <trkpt lat="59.3014717822" lon="34.6750714757"><ele>160.314</ele><time>2026-08-16T16:01:05.613Z</time><hdop>4.937</hdop><vdop>2.5</vdop><extensions><gom:speed>1.073</gom:speed></extensions></trkpt>
   <trkpt lat="59.3014753864" lon="34.6750805281"><ele>160.045</ele><time>2026-08-16T16:01:06.136Z</time><hdop>4.937</hdop><vdop>2.5</vdop><extensions><gom:speed>1.069</gom:speed></extensions></trkpt>
   <trkpt lat="59.3014804993" lon="34.6750946935"><ele>159.885</ele><time>2026-08-16T16:01:06.819Z</time><hdop>4.937</hdop><vdop>2.5</vdop><extensions><gom:speed>1.13</gom:speed></extensions></trkpt>
   <trkpt lat="59.3014885879" lon="34.6751145587"><ele>159.803</ele><time>2026-08-16T16:01:07.978Z</time><hdop>4.937</hdop><vdop>2.5</vdop><extensions><gom:speed>1.148</gom:speed></extensions></trkpt>
   <trkpt lat="59.301494078" lon="34.6751339208"><ele>159.698</ele><time>2026-08-16T16:01:09.136Z</time><hdop>5.0</hdop><vdop>2.5</vdop><extensions><gom:speed>1.092</gom:speed></extensions></trkpt>
   <trkpt lat="59.3014971793" lon="34.675151439"><ele>159.636</ele><time>2026-08-16T16:01:10.078Z</time><hdop>5.0</hdop><vdop>2.5</vdop><extensions><gom:speed>1.085</gom:speed></extensions></trkpt>
   <trkpt lat="59.301498269" lon="34.6751685381"><ele>159.692</ele><time>2026-08-16T16:01:11.136Z</time><hdop>5.062</hdop><vdop>2.5</vdop><extensions><gom:speed>1.034</gom:speed></extensions></trkpt>
   <trkpt lat="59.3015003645" lon="34.6751856372"><ele>159.726</ele><time>2026-08-16T16:01:12.060Z</time><hdop>5.062</hdop><vdop>2.5</vdop><extensions><gom:speed>1.001</gom:speed></extensions></trkpt>
   <trkpt lat="59.3015040944" lon="34.675197288"><ele>159.702</ele><time>2026-08-16T16:01:12.895Z</time><hdop>5.062</hdop><vdop>2.5</vdop><extensions><gom:speed>0.927</gom:speed></extensions></trkpt>
   <trkpt lat="59.3015066928" lon="34.6752041612"><ele>159.717</ele><time>2026-08-16T16:01:13.455Z</time><hdop>5.062</hdop><vdop>2.5</vdop><extensions><gom:speed>0.916</gom:speed></extensions></trkpt>
   <trkpt lat="59.3015099617" lon="34.6752131298"><ele>159.739</ele><time>2026-08-16T16:01:14.136Z</time><hdop>5.062</hdop><vdop>2.5</vdop><extensions><gom:speed>0.913</gom:speed></extensions></trkpt>
   <trkpt lat="59.3015132726" lon="34.6752231881"><ele>159.752</ele><time>2026-08-16T16:01:14.819Z</time><hdop>5.062</hdop><vdop>2.5</vdop><extensions><gom:speed>0.943</gom:speed></extensions></trkpt>
   <trkpt lat="59.3015168768" lon="34.6752375212"><ele>159.958</ele><time>2026-08-16T16:01:16.136Z</time><hdop>5.0</hdop><vdop>2.5</vdop><extensions><gom:speed>0.804</gom:speed></extensions></trkpt>
   <trkpt lat="59.3015189723" lon="34.6752406225"><ele>160.081</ele><time>2026-08-16T16:01:16.822Z</time><hdop>5.0</hdop><vdop>2.5</vdop><extensions><gom:speed>0.668</gom:speed></extensions></trkpt>
   <trkpt lat="59.3015265998" lon="34.6752418798"><ele>159.994</ele><time>2026-08-16T16:01:17.813Z</time><hdop>4.937</hdop><vdop>2.5</vdop><extensions><gom:speed>0.809</gom:speed></extensions></trkpt>
   <trkpt lat="59.3015319642" lon="34.6752419636"><ele>160.002</ele><time>2026-08-16T16:01:18.372Z</time><hdop>4.875</hdop><vdop>2.5</vdop><extensions><gom:speed>0.829</gom:speed></extensions></trkpt>
   <trkpt lat="59.3015386698" lon="34.6752440591"><ele>159.94</ele><time>2026-08-16T16:01:19.135Z</time><hdop>4.812</hdop><vdop>2.5</vdop><extensions><gom:speed>0.884</gom:speed></extensions></trkpt>
   <trkpt lat="59.301542274" lon="34.6752480824"><ele>159.903</ele><time>2026-08-16T16:01:19.599Z</time><hdop>4.812</hdop><vdop>2.5</vdop><extensions><gom:speed>0.89</gom:speed></extensions></trkpt>
   <trkpt lat="59.301545962" lon="34.6752534468"><ele>160.024</ele><time>2026-08-16T16:01:20.136Z</time><hdop>4.812</hdop><vdop>2.562</vdop><extensions><gom:speed>0.891</gom:speed></extensions></trkpt>
   <trkpt lat="59.3015517874" lon="34.6752646785"><ele>160.096</ele><time>2026-08-16T16:01:20.895Z</time><hdop>4.875</hdop><vdop>2.562</vdop><extensions><gom:speed>1.003</gom:speed></extensions></trkpt>
   <trkpt lat="59.3015580739" lon="34.6752801851"><ele>160.287</ele><time>2026-08-16T16:01:21.778Z</time><hdop>4.937</hdop><vdop>2.5</vdop><extensions><gom:speed>1.065</gom:speed></extensions></trkpt>
   <trkpt lat="59.3015655757" lon="34.6752962783"><ele>160.151</ele><time>2026-08-16T16:01:22.838Z</time><hdop>5.0</hdop><vdop>2.5</vdop><extensions><gom:speed>1.075</gom:speed></extensions></trkpt>
   <trkpt lat="59.3015694733" lon="34.6753015589"><ele>159.78</ele><time>2026-08-16T16:01:23.378Z</time><hdop>5.062</hdop><vdop>2.5</vdop><extensions><gom:speed>1.065</gom:speed></extensions></trkpt>
   <trkpt lat="59.3015761788" lon="34.6753116172"><ele>159.558</ele><time>2026-08-16T16:01:24.134Z</time><hdop>5.125</hdop><vdop>2.5</vdop><extensions><gom:speed>1.079</gom:speed></extensions></trkpt>
   <trkpt lat="59.3015803697" lon="34.6753169816"><ele>159.313</ele><time>2026-08-16T16:01:24.654Z</time><hdop>5.187</hdop><vdop>2.5</vdop><extensions><gom:speed>1.089</gom:speed></extensions></trkpt>
   <trkpt lat="59.3015832615" lon="34.6753216755"><ele>159.394</ele><time>2026-08-16T16:01:25.136Z</time><hdop>5.187</hdop><vdop>2.5</vdop><extensions><gom:speed>1.078</gom:speed></extensions></trkpt>
   <trkpt lat="59.3015878715" lon="34.675332991"><ele>159.443</ele><time>2026-08-16T16:01:25.901Z</time><hdop>5.187</hdop><vdop>2.5</vdop><extensions><gom:speed>1.091</gom:speed></extensions></trkpt>
   <trkpt lat="59.30159508" lon="34.675349671"><ele>159.47</ele><time>2026-08-16T16:01:27.118Z</time><hdop>5.25</hdop><vdop>2.5</vdop><extensions><gom:speed>1.075</gom:speed></extensions></trkpt>
   <trkpt lat="59.3015999834" lon="34.675361741"><ele>159.433</ele><time>2026-08-16T16:01:28.060Z</time><hdop>5.25</hdop><vdop>2.5</vdop><extensions><gom:speed>1.065</gom:speed></extensions></trkpt>
   <trkpt lat="59.3016058926" lon="34.675376996"><ele>159.62</ele><time>2026-08-16T16:01:29.159Z</time><hdop>5.375</hdop><vdop>2.5</vdop><extensions><gom:speed>1.042</gom:speed></extensions></trkpt>
   <trkpt lat="59.3016095807" lon="34.6753824443"><ele>159.908</ele><time>2026-08-16T16:01:29.719Z</time><hdop>5.437</hdop><vdop>2.5</vdop><extensions><gom:speed>1.0</gom:speed></extensions></trkpt>
   <trkpt lat="59.3016148613" lon="34.6753861323"><ele>160.131</ele><time>2026-08-16T16:01:30.494Z</time><hdop>5.437</hdop><vdop>2.5</vdop><extensions><gom:speed>0.979</gom:speed></extensions></trkpt>
   <trkpt lat="59.3016201838" lon="34.6753900718"><ele>160.264</ele><time>2026-08-16T16:01:31.092Z</time><hdop>5.437</hdop><vdop>2.5</vdop><extensions><gom:speed>0.985</gom:speed></extensions></trkpt>
   <trkpt lat="59.3016262606" lon="34.6753952686"><ele>160.421</ele><time>2026-08-16T16:01:31.976Z</time><hdop>5.375</hdop><vdop>2.5</vdop><extensions><gom:speed>0.976</gom:speed></extensions></trkpt>
   <trkpt lat="59.3016308707" lon="34.6754026447"><ele>160.404</ele><time>2026-08-16T16:01:32.742Z</time><hdop>5.312</hdop><vdop>2.5</vdop><extensions><gom:speed>0.988</gom:speed></extensions></trkpt>
   <trkpt lat="59.3016354807" lon="34.6754092664"><ele>159.805</ele><time>2026-08-16T16:01:33.537Z</time><hdop>5.187</hdop><vdop>2.5</vdop><extensions><gom:speed>0.932</gom:speed></extensions></trkpt>
   <trkpt lat="59.3016380791" lon="34.6754143793"><ele>159.335</ele><time>2026-08-16T16:01:34.136Z</time><hdop>5.187</hdop><vdop>2.562</vdop><extensions><gom:speed>0.918</gom:speed></extensions></trkpt>
   <trkpt lat="59.3016409709" lon="34.6754260302"><ele>159.054</ele><time>2026-08-16T16:01:35.097Z</time><hdop>5.0</hdop><vdop>2.562</vdop><extensions><gom:speed>0.835</gom:speed></extensions></trkpt>
   <trkpt lat="59.3016382887" lon="34.6754366752"><ele>159.031</ele><time>2026-08-16T16:01:36.079Z</time><hdop>4.937</hdop><vdop>2.687</vdop><extensions><gom:speed>0.714</gom:speed></extensions></trkpt>
   <trkpt lat="59.3016364866" lon="34.6754465658"><ele>159.301</ele><time>2026-08-16T16:01:37.136Z</time><hdop>4.687</hdop><vdop>2.812</vdop><extensions><gom:speed>0.692</gom:speed></extensions></trkpt>
   <trkpt lat="59.3016374924" lon="34.6754527684"><ele>159.462</ele><time>2026-08-16T16:01:37.718Z</time><hdop>4.687</hdop><vdop>2.812</vdop><extensions><gom:speed>0.681</gom:speed></extensions></trkpt>
   <trkpt lat="59.3016395879" lon="34.6754595578"><ele>159.682</ele><time>2026-08-16T16:01:38.552Z</time><hdop>4.562</hdop><vdop>2.625</vdop><extensions><gom:speed>0.646</gom:speed></extensions></trkpt>
   <trkpt lat="59.3016412643" lon="34.6754651737"><ele>159.999</ele><time>2026-08-16T16:01:39.135Z</time><hdop>4.562</hdop><vdop>2.687</vdop><extensions><gom:speed>0.647</gom:speed></extensions></trkpt>
   <trkpt lat="59.3016459581" lon="34.6754763216"><ele>160.206</ele><time>2026-08-16T16:01:40.136Z</time><hdop>4.5</hdop><vdop>2.625</vdop><extensions><gom:speed>0.713</gom:speed></extensions></trkpt>
   <trkpt lat="59.3016493947" lon="34.6754850388"><ele>160.329</ele><time>2026-08-16T16:01:40.761Z</time><hdop>4.562</hdop><vdop>2.625</vdop><extensions><gom:speed>0.765</gom:speed></extensions></trkpt>
   <trkpt lat="59.3016506939" lon="34.6754997909"><ele>160.324</ele><time>2026-08-16T16:01:41.752Z</time><hdop>4.562</hdop><vdop>2.5</vdop><extensions><gom:speed>0.788</gom:speed></extensions></trkpt>
   <trkpt lat="59.3016487661" lon="34.6755219191"><ele>160.682</ele><time>2026-08-16T16:01:43.136Z</time><hdop>4.625</hdop><vdop>2.5</vdop><extensions><gom:speed>0.867</gom:speed></extensions></trkpt>
   <trkpt lat="59.3016528732" lon="34.6755383477"><ele>160.895</ele><time>2026-08-16T16:01:44.157Z</time><hdop>4.687</hdop><vdop>2.5</vdop><extensions><gom:speed>0.888</gom:speed></extensions></trkpt>
   <trkpt lat="59.3016544657" lon="34.6755463943"><ele>161.49</ele><time>2026-08-16T16:01:44.657Z</time><hdop>4.75</hdop><vdop>2.5</vdop><extensions><gom:speed>0.914</gom:speed></extensions></trkpt>
   <trkpt lat="59.3016555973" lon="34.6755531836"><ele>161.791</ele><time>2026-08-16T16:01:45.136Z</time><hdop>4.75</hdop><vdop>2.5</vdop><extensions><gom:speed>0.9</gom:speed></extensions></trkpt>
   <trkpt lat="59.3016594949" lon="34.6755676843"><ele>161.971</ele><time>2026-08-16T16:01:45.973Z</time><hdop>4.875</hdop><vdop>2.5</vdop><extensions><gom:speed>0.957</gom:speed></extensions></trkpt>
   <trkpt lat="59.3016651946" lon="34.6755898964"><ele>161.946</ele><time>2026-08-16T16:01:47.138Z</time><hdop>5.0</hdop><vdop>2.5</vdop><extensions><gom:speed>1.011</gom:speed></extensions></trkpt>
   <trkpt lat="59.3016696789" lon="34.6756061573"><ele>162.059</ele><time>2026-08-16T16:01:48.136Z</time><hdop>5.062</hdop><vdop>2.5</vdop><extensions><gom:speed>1.009</gom:speed></extensions></trkpt>
   <trkpt lat="59.3016749595" lon="34.6756223343"><ele>162.127</ele><time>2026-08-16T16:01:49.112Z</time><hdop>5.125</hdop><vdop>2.5</vdop><extensions><gom:speed>1.039</gom:speed></extensions></trkpt>
   <trkpt lat="59.3016767616" lon="34.6756295428"><ele>162.387</ele><time>2026-08-16T16:01:49.614Z</time><hdop>5.125</hdop><vdop>2.5</vdop><extensions><gom:speed>1.035</gom:speed></extensions></trkpt>
   <trkpt lat="59.3016782704" lon="34.6756372541"><ele>162.545</ele><time>2026-08-16T16:01:50.136Z</time><hdop>5.187</hdop><vdop>2.5</vdop><extensions><gom:speed>1.03</gom:speed></extensions></trkpt>
   <trkpt lat="59.3016798629" lon="34.6756531797"><ele>162.639</ele><time>2026-08-16T16:01:50.977Z</time><hdop>5.187</hdop><vdop>2.5</vdop><extensions><gom:speed>1.021</gom:speed></extensions></trkpt>
   <trkpt lat="59.3016808687" lon="34.6756679319"><ele>162.61</ele><time>2026-08-16T16:01:51.813Z</time><hdop>5.25</hdop><vdop>2.5</vdop><extensions><gom:speed>1.053</gom:speed></extensions></trkpt>
   <trkpt lat="59.3016846825" lon="34.6756879646"><ele>162.747</ele><time>2026-08-16T16:01:53.059Z</time><hdop>5.25</hdop><vdop>2.5</vdop><extensions><gom:speed>1.038</gom:speed></extensions></trkpt>
   <trkpt lat="59.3016910947" lon="34.6757010404"><ele>162.62</ele><time>2026-08-16T16:01:54.136Z</time><hdop>5.25</hdop><vdop>2.5</vdop><extensions><gom:speed>1.015</gom:speed></extensions></trkpt>
   <trkpt lat="59.3016943636" lon="34.6757096738"><ele>162.545</ele><time>2026-08-16T16:01:54.698Z</time><hdop>5.187</hdop><vdop>2.5</vdop><extensions><gom:speed>1.032</gom:speed></extensions></trkpt>
   <trkpt lat="59.3016996861" lon="34.6757174689"><ele>162.123</ele><time>2026-08-16T16:01:55.375Z</time><hdop>5.187</hdop><vdop>2.5</vdop><extensions><gom:speed>1.029</gom:speed></extensions></trkpt>
   <trkpt lat="59.3017038771" lon="34.6757245936"><ele>161.871</ele><time>2026-08-16T16:01:55.993Z</time><hdop>5.187</hdop><vdop>2.5</vdop><extensions><gom:speed>1.01</gom:speed></extensions></trkpt>
   <trkpt lat="59.301710373" lon="34.6757295389"><ele>161.46</ele><time>2026-08-16T16:01:56.740Z</time><hdop>5.187</hdop><vdop>2.5</vdop><extensions><gom:speed>0.983</gom:speed></extensions></trkpt>
   <trkpt lat="59.3017149831" lon="34.6757344842"><ele>161.141</ele><time>2026-08-16T16:01:57.338Z</time><hdop>5.125</hdop><vdop>2.5</vdop><extensions><gom:speed>0.967</gom:speed></extensions></trkpt>
   <trkpt lat="59.301719174" lon="34.6757460512"><ele>160.95</ele><time>2026-08-16T16:01:58.114Z</time><hdop>5.125</hdop><vdop>2.5</vdop><extensions><gom:speed>0.982</gom:speed></extensions></trkpt>
   <trkpt lat="59.3017258796" lon="34.6757611387"><ele>160.916</ele><time>2026-08-16T16:01:59.136Z</time><hdop>5.125</hdop><vdop>2.5</vdop><extensions><gom:speed>1.021</gom:speed></extensions></trkpt>
   <trkpt lat="59.3017303639" lon="34.6757760584"><ele>160.895</ele><time>2026-08-16T16:02:00.057Z</time><hdop>5.125</hdop><vdop>2.5</vdop><extensions><gom:speed>1.026</gom:speed></extensions></trkpt>
   <trkpt lat="59.3017327946" lon="34.6757902239"><ele>160.883</ele><time>2026-08-16T16:02:00.833Z</time><hdop>5.125</hdop><vdop>2.5</vdop><extensions><gom:speed>1.041</gom:speed></extensions></trkpt>
   <trkpt lat="59.3017362731" lon="34.6758126874"><ele>160.775</ele><time>2026-08-16T16:02:02.099Z</time><hdop>5.062</hdop><vdop>2.5</vdop><extensions><gom:speed>1.044</gom:speed></extensions></trkpt>
   <trkpt lat="59.3017407994" lon="34.6758268528"><ele>160.887</ele><time>2026-08-16T16:02:03.136Z</time><hdop>5.062</hdop><vdop>2.5</vdop><extensions><gom:speed>1.029</gom:speed></extensions></trkpt>
   <trkpt lat="59.3017433977" lon="34.6758368272"><ele>160.955</ele><time>2026-08-16T16:02:03.640Z</time><hdop>5.0</hdop><vdop>2.5</vdop><extensions><gom:speed>1.083</gom:speed></extensions></trkpt>
   <trkpt lat="59.3017458704" lon="34.6758447901"><ele>160.931</ele><time>2026-08-16T16:02:04.136Z</time><hdop>5.0</hdop><vdop>2.5</vdop><extensions><gom:speed>1.067</gom:speed></extensions></trkpt>
   <trkpt lat="59.3017495584" lon="34.6758590393"><ele>160.917</ele><time>2026-08-16T16:02:04.818Z</time><hdop>5.0</hdop><vdop>2.5</vdop><extensions><gom:speed>1.114</gom:speed></extensions></trkpt>
   <trkpt lat="59.3017530788" lon="34.6758724503"><ele>160.909</ele><time>2026-08-16T16:02:05.613Z</time><hdop>5.0</hdop><vdop>2.5</vdop><extensions><gom:speed>1.13</gom:speed></extensions></trkpt>
   <trkpt lat="59.3017555934" lon="34.675880497"><ele>161.111</ele><time>2026-08-16T16:02:06.136Z</time><hdop>5.0</hdop><vdop>2.5</vdop><extensions><gom:speed>1.123</gom:speed></extensions></trkpt>
   <trkpt lat="59.3017586947" lon="34.6758907229"><ele>161.232</ele><time>2026-08-16T16:02:06.722Z</time><hdop>5.0</hdop><vdop>2.5</vdop><extensions><gom:speed>1.177</gom:speed></extensions></trkpt>
   <trkpt lat="59.3017616703" lon="34.6758956682"><ele>161.324</ele><time>2026-08-16T16:02:07.212Z</time><hdop>5.0</hdop><vdop>2.5</vdop><extensions><gom:speed>1.157</gom:speed></extensions></trkpt>
   <trkpt lat="59.3017662803" lon="34.675910588"><ele>161.379</ele><time>2026-08-16T16:02:08.017Z</time><hdop>5.0</hdop><vdop>2.5</vdop><extensions><gom:speed>1.167</gom:speed></extensions></trkpt>
   <trkpt lat="59.3017746622" lon="34.6759237476"><ele>160.878</ele><time>2026-08-16T16:02:09.136Z</time><hdop>5.0</hdop><vdop>2.5</vdop><extensions><gom:speed>1.165</gom:speed></extensions></trkpt>
   <trkpt lat="59.301782667" lon="34.6759356499"><ele>160.558</ele><time>2026-08-16T16:02:10.136Z</time><hdop>4.937</hdop><vdop>2.5</vdop><extensions><gom:speed>1.157</gom:speed></extensions></trkpt>
   <trkpt lat="59.3017888696" lon="34.6759429421"><ele>160.367</ele><time>2026-08-16T16:02:10.795Z</time><hdop>4.937</hdop><vdop>2.5</vdop><extensions><gom:speed>1.152</gom:speed></extensions></trkpt>
   <trkpt lat="59.3017967905" lon="34.675945792"><ele>160.57</ele><time>2026-08-16T16:02:11.541Z</time><hdop>4.875</hdop><vdop>2.5</vdop><extensions><gom:speed>1.144</gom:speed></extensions></trkpt>
   <trkpt lat="59.3018031607" lon="34.6759459596"><ele>160.61</ele><time>2026-08-16T16:02:12.136Z</time><hdop>4.812</hdop><vdop>2.5</vdop><extensions><gom:speed>1.128</gom:speed></extensions></trkpt>
   <trkpt lat="59.3018124646" lon="34.6759489771"><ele>160.635</ele><time>2026-08-16T16:02:13.052Z</time><hdop>4.812</hdop><vdop>2.5</vdop><extensions><gom:speed>1.079</gom:speed></extensions></trkpt>
   <trkpt lat="59.3018219781" lon="34.6759568561"><ele>160.812</ele><time>2026-08-16T16:02:14.136Z</time><hdop>4.687</hdop><vdop>2.5</vdop><extensions><gom:speed>1.027</gom:speed></extensions></trkpt>
   <trkpt lat="59.3018291865" lon="34.6759650704"><ele>160.917</ele><time>2026-08-16T16:02:14.975Z</time><hdop>4.687</hdop><vdop>2.5</vdop><extensions><gom:speed>0.987</gom:speed></extensions></trkpt>
   <trkpt lat="59.3018351796" lon="34.675975883"><ele>161.239</ele><time>2026-08-16T16:02:15.938Z</time><hdop>4.687</hdop><vdop>2.5</vdop><extensions><gom:speed>0.961</gom:speed></extensions></trkpt>
   <trkpt lat="59.3018375684" lon="34.6759831753"><ele>161.067</ele><time>2026-08-16T16:02:16.458Z</time><hdop>4.687</hdop><vdop>2.5</vdop><extensions><gom:speed>0.955</gom:speed></extensions></trkpt>
   <trkpt lat="59.3018418851" lon="34.6759913895"><ele>161.204</ele><time>2026-08-16T16:02:17.136Z</time><hdop>4.75</hdop><vdop>2.5</vdop><extensions><gom:speed>0.956</gom:speed></extensions></trkpt>
   <trkpt lat="59.3018476686" lon="34.675998598"><ele>161.285</ele><time>2026-08-16T16:02:17.882Z</time><hdop>4.75</hdop><vdop>2.5</vdop><extensions><gom:speed>0.954</gom:speed></extensions></trkpt>
   <trkpt lat="59.301857685" lon="34.6760117576"><ele>161.219</ele><time>2026-08-16T16:02:19.059Z</time><hdop>4.812</hdop><vdop>2.5</vdop><extensions><gom:speed>1.005</gom:speed></extensions></trkpt>
   <trkpt lat="59.3018642648" lon="34.6760203909"><ele>160.951</ele><time>2026-08-16T16:02:19.814Z</time><hdop>4.875</hdop><vdop>2.5</vdop><extensions><gom:speed>1.024</gom:speed></extensions></trkpt>
   <trkpt lat="59.3018686653" lon="34.6760248333"><ele>160.91</ele><time>2026-08-16T16:02:20.316Z</time><hdop>4.875</hdop><vdop>2.5</vdop><extensions><gom:speed>1.017</gom:speed></extensions></trkpt>
   <trkpt lat="59.3018760833" lon="34.6760315389"><ele>160.885</ele><time>2026-08-16T16:02:21.121Z</time><hdop>4.937</hdop><vdop>2.5</vdop><extensions><gom:speed>1.033</gom:speed></extensions></trkpt>
   <trkpt lat="59.3018793941" lon="34.67603749"><ele>160.771</ele><time>2026-08-16T16:02:21.572Z</time><hdop>4.937</hdop><vdop>2.5</vdop><extensions><gom:speed>1.038</gom:speed></extensions></trkpt>
   <trkpt lat="59.3018830822" lon="34.6760449499"><ele>160.824</ele><time>2026-08-16T16:02:22.136Z</time><hdop>4.937</hdop><vdop>2.5</vdop><extensions><gom:speed>1.03</gom:speed></extensions></trkpt>
   <trkpt lat="59.3018875665" lon="34.6760549244"><ele>160.855</ele><time>2026-08-16T16:02:22.799Z</time><hdop>5.0</hdop><vdop>2.5</vdop><extensions><gom:speed>1.03</gom:speed></extensions></trkpt>
   <trkpt lat="59.301890584" lon="34.6760693412"><ele>160.561</ele><time>2026-08-16T16:02:23.633Z</time><hdop>5.0</hdop><vdop>2.5</vdop><extensions><gom:speed>0.964</gom:speed></extensions></trkpt>
   <trkpt lat="59.3018895781" lon="34.6760780584"><ele>160.159</ele><time>2026-08-16T16:02:24.136Z</time><hdop>5.0</hdop><vdop>2.5</vdop><extensions><gom:speed>0.963</gom:speed></extensions></trkpt>
   <trkpt lat="59.3018839623" lon="34.6760929782"><ele>160.095</ele><time>2026-08-16T16:02:25.136Z</time><hdop>5.0</hdop><vdop>2.5</vdop><extensions><gom:speed>0.936</gom:speed></extensions></trkpt>
   <trkpt lat="59.3018815734" lon="34.6760996837"><ele>160.056</ele><time>2026-08-16T16:02:25.616Z</time><hdop>5.0</hdop><vdop>2.5</vdop><extensions><gom:speed>0.96</gom:speed></extensions></trkpt>
   <trkpt lat="59.301878975" lon="34.676107898"><ele>160.254</ele><time>2026-08-16T16:02:26.136Z</time><hdop>4.937</hdop><vdop>2.5</vdop><extensions><gom:speed>0.953</gom:speed></extensions></trkpt>
   <trkpt lat="59.3018773825" lon="34.6761233207"><ele>160.372</ele><time>2026-08-16T16:02:27.059Z</time><hdop>4.937</hdop><vdop>2.5</vdop><extensions><gom:speed>0.905</gom:speed></extensions></trkpt>
   <trkpt lat="59.3018778854" lon="34.6761341334"><ele>160.324</ele><time>2026-08-16T16:02:27.756Z</time><hdop>4.875</hdop><vdop>2.5</vdop><extensions><gom:speed>0.84</gom:speed></extensions></trkpt>
   <trkpt lat="59.3018773825" lon="34.6761423476"><ele>160.523</ele><time>2026-08-16T16:02:28.314Z</time><hdop>4.812</hdop><vdop>2.5</vdop><extensions><gom:speed>0.821</gom:speed></extensions></trkpt>
   <trkpt lat="59.3018758737" lon="34.6761507295"><ele>161.014</ele><time>2026-08-16T16:02:29.136Z</time><hdop>4.75</hdop><vdop>2.5</vdop><extensions><gom:speed>0.689</gom:speed></extensions></trkpt>
   <trkpt lat="59.3018741973" lon="34.6761557587"><ele>161.392</ele><time>2026-08-16T16:02:30.136Z</time><hdop>4.75</hdop><vdop>2.5</vdop><extensions><gom:speed>0.533</gom:speed></extensions></trkpt>
   <trkpt lat="59.3018742812" lon="34.6761590276"><ele>161.617</ele><time>2026-08-16T16:02:30.798Z</time><hdop>4.75</hdop><vdop>2.5</vdop><extensions><gom:speed>0.47</gom:speed></extensions></trkpt>
   <trkpt lat="59.3018740716" lon="34.6761641406"><ele>161.941</ele><time>2026-08-16T16:02:31.892Z</time><hdop>4.812</hdop><vdop>2.5</vdop><extensions><gom:speed>0.417</gom:speed></extensions></trkpt>
   <trkpt lat="59.3018714732" lon="34.6761653979"><ele>162.348</ele><time>2026-08-16T16:02:32.756Z</time><hdop>4.812</hdop><vdop>2.5</vdop><extensions><gom:speed>0.32</gom:speed></extensions></trkpt>
   <trkpt lat="59.301871096" lon="34.6761681639"><ele>162.498</ele><time>2026-08-16T16:02:34.136Z</time><hdop>4.562</hdop><vdop>2.5</vdop><extensions><gom:speed>0.144</gom:speed></extensions></trkpt>
   <trkpt lat="59.3018714732" lon="34.6761680801"><ele>162.594</ele><time>2026-08-16T16:02:35.136Z</time><hdop>4.437</hdop><vdop>2.5</vdop><extensions><gom:speed>0.123</gom:speed></extensions></trkpt>
   <trkpt lat="59.301871599" lon="34.6761686668"><ele>162.652</ele><time>2026-08-16T16:02:35.710Z</time><hdop>4.187</hdop><vdop>2.5</vdop><extensions><gom:speed>0.121</gom:speed></extensions></trkpt>
   <trkpt lat="59.301871096" lon="34.6761720196"><ele>162.813</ele><time>2026-08-16T16:02:36.515Z</time><hdop>3.687</hdop><vdop>2.5</vdop><extensions><gom:speed>0.129</gom:speed></extensions></trkpt>
   <trkpt lat="59.3018700902" lon="34.6761753723"><ele>163.063</ele><time>2026-08-16T16:02:37.135Z</time><hdop>3.5</hdop><vdop>2.5</vdop><extensions><gom:speed>0.181</gom:speed></extensions></trkpt>
   <trkpt lat="59.3018662764" lon="34.6761848439"><ele>163.239</ele><time>2026-08-16T16:02:38.136Z</time><hdop>3.062</hdop><vdop>2.5</vdop><extensions><gom:speed>0.453</gom:speed></extensions></trkpt>
   <trkpt lat="59.3018614988" lon="34.6761970814"><ele>163.481</ele><time>2026-08-16T16:02:39.136Z</time><hdop>3.0</hdop><vdop>2.5</vdop><extensions><gom:speed>0.571</gom:speed></extensions></trkpt>
   <trkpt lat="59.3018614988" lon="34.6762126718"><ele>163.534</ele><time>2026-08-16T16:02:40.136Z</time><hdop>3.0</hdop><vdop>2.5</vdop><extensions><gom:speed>0.517</gom:speed></extensions></trkpt>
   <trkpt lat="59.3018615826" lon="34.676224155"><ele>163.565</ele><time>2026-08-16T16:02:41.147Z</time><hdop>3.0</hdop><vdop>2.5</vdop><extensions><gom:speed>0.521</gom:speed></extensions></trkpt>
   <trkpt lat="59.3018643905" lon="34.6762412541"><ele>163.562</ele><time>2026-08-16T16:02:42.136Z</time><hdop>3.0</hdop><vdop>2.5</vdop><extensions><gom:speed>0.627</gom:speed></extensions></trkpt>
   <trkpt lat="59.3018650611" lon="34.6762563415"><ele>163.56</ele><time>2026-08-16T16:02:42.993Z</time><hdop>3.0</hdop><vdop>2.5</vdop><extensions><gom:speed>0.708</gom:speed></extensions></trkpt>
   <trkpt lat="59.3018677852" lon="34.676271848"><ele>163.646</ele><time>2026-08-16T16:02:43.877Z</time><hdop>3.0</hdop><vdop>2.5</vdop><extensions><gom:speed>0.739</gom:speed></extensions></trkpt>
   <trkpt lat="59.3018704674" lon="34.6762812358"><ele>163.541</ele><time>2026-08-16T16:02:44.456Z</time><hdop>3.0</hdop><vdop>2.5</vdop><extensions><gom:speed>0.765</gom:speed></extensions></trkpt>
   <trkpt lat="59.3018721857" lon="34.6762911264"><ele>163.419</ele><time>2026-08-16T16:02:45.136Z</time><hdop>3.0</hdop><vdop>2.5</vdop><extensions><gom:speed>0.754</gom:speed></extensions></trkpt>
   <trkpt lat="59.3018727724" lon="34.6762987539"><ele>163.346</ele><time>2026-08-16T16:02:45.633Z</time><hdop>3.0</hdop><vdop>2.5</vdop><extensions><gom:speed>0.773</gom:speed></extensions></trkpt>
   <trkpt lat="59.3018737782" lon="34.6763055433"><ele>163.279</ele><time>2026-08-16T16:02:46.136Z</time><hdop>3.0</hdop><vdop>2.5</vdop><extensions><gom:speed>0.776</gom:speed></extensions></trkpt>
   <trkpt lat="59.3018739878" lon="34.6763195411"><ele>163.263</ele><time>2026-08-16T16:02:47.136Z</time><hdop>3.0</hdop><vdop>2.5</vdop><extensions><gom:speed>0.757</gom:speed></extensions></trkpt>
   <trkpt lat="59.3018738621" lon="34.6763336226"><ele>163.253</ele><time>2026-08-16T16:02:48.117Z</time><hdop>3.0</hdop><vdop>2.5</vdop><extensions><gom:speed>0.753</gom:speed></extensions></trkpt>
   <trkpt lat="59.3018748679" lon="34.67633949"><ele>163.14</ele><time>2026-08-16T16:02:48.608Z</time><hdop>3.0</hdop><vdop>2.5</vdop><extensions><gom:speed>0.68</gom:speed></extensions></trkpt>
   <trkpt lat="59.3018746583" lon="34.6763446868"><ele>163.022</ele><time>2026-08-16T16:02:49.136Z</time><hdop>3.0</hdop><vdop>2.562</vdop><extensions><gom:speed>0.62</gom:speed></extensions></trkpt>
   <trkpt lat="59.3018707608" lon="34.6763520628"><ele>162.968</ele><time>2026-08-16T16:02:50.136Z</time><hdop>3.0</hdop><vdop>2.5</vdop><extensions><gom:speed>0.61</gom:speed></extensions></trkpt>
   <trkpt lat="59.3018666955" lon="34.6763587684"><ele>162.936</ele><time>2026-08-16T16:02:50.914Z</time><hdop>3.0</hdop><vdop>2.5</vdop><extensions><gom:speed>0.682</gom:speed></extensions></trkpt>
   <trkpt lat="59.3018645582" lon="34.6763661444"><ele>162.879</ele><time>2026-08-16T16:02:51.650Z</time><hdop>3.0</hdop><vdop>2.5</vdop><extensions><gom:speed>0.672</gom:speed></extensions></trkpt>
   <trkpt lat="59.301864181" lon="34.676371425"><ele>162.886</ele><time>2026-08-16T16:02:52.136Z</time><hdop>3.0</hdop><vdop>2.562</vdop><extensions><gom:speed>0.619</gom:speed></extensions></trkpt>
   <trkpt lat="59.3018631751" lon="34.6763840817"><ele>162.89</ele><time>2026-08-16T16:02:53.073Z</time><hdop>3.0</hdop><vdop>2.562</vdop><extensions><gom:speed>0.645</gom:speed></extensions></trkpt>
   <trkpt lat="59.3018660669" lon="34.6763946429"><ele>162.943</ele><time>2026-08-16T16:02:54.035Z</time><hdop>3.0</hdop><vdop>2.687</vdop><extensions><gom:speed>0.637</gom:speed></extensions></trkpt>
   <trkpt lat="59.3018693777" lon="34.6764009293"><ele>162.72</ele><time>2026-08-16T16:02:54.693Z</time><hdop>3.0</hdop><vdop>2.875</vdop><extensions><gom:speed>0.69</gom:speed></extensions></trkpt>
   <trkpt lat="59.3018734849" lon="34.6764107362"><ele>162.894</ele><time>2026-08-16T16:02:55.596Z</time><hdop>3.0</hdop><vdop>2.937</vdop><extensions><gom:speed>0.669</gom:speed></extensions></trkpt>
   <trkpt lat="59.3018767957" lon="34.6764165197"><ele>162.977</ele><time>2026-08-16T16:02:56.136Z</time><hdop>3.0</hdop><vdop>2.937</vdop><extensions><gom:speed>0.709</gom:speed></extensions></trkpt>
   <trkpt lat="59.3018813639" lon="34.676425153"><ele>163.026</ele><time>2026-08-16T16:02:56.893Z</time><hdop>3.0</hdop><vdop>2.937</vdop><extensions><gom:speed>0.738</gom:speed></extensions></trkpt>
   <trkpt lat="59.3018899972" lon="34.6764295954"><ele>162.919</ele><time>2026-08-16T16:02:57.757Z</time><hdop>3.0</hdop><vdop>2.937</vdop><extensions><gom:speed>0.771</gom:speed></extensions></trkpt>
   <trkpt lat="59.301897499" lon="34.6764313556"><ele>162.964</ele><time>2026-08-16T16:02:58.375Z</time><hdop>3.0</hdop><vdop>3.0</vdop><extensions><gom:speed>0.811</gom:speed></extensions></trkpt>
   <trkpt lat="59.3019043722" lon="34.676437223"><ele>163.093</ele><time>2026-08-16T16:02:59.136Z</time><hdop>3.0</hdop><vdop>2.875</vdop><extensions><gom:speed>0.809</gom:speed></extensions></trkpt>
   <trkpt lat="59.3019090661" lon="34.6764451858"><ele>163.169</ele><time>2026-08-16T16:02:59.809Z</time><hdop>3.0</hdop><vdop>2.875</vdop><extensions><gom:speed>0.836</gom:speed></extensions></trkpt>
   <trkpt lat="59.3019152687" lon="34.6764559984"><ele>163.162</ele><time>2026-08-16T16:03:00.724Z</time><hdop>3.0</hdop><vdop>3.125</vdop><extensions><gom:speed>0.82</gom:speed></extensions></trkpt>
   <trkpt lat="59.3019217646" lon="34.6764621172"><ele>163.112</ele><time>2026-08-16T16:03:01.303Z</time><hdop>3.0</hdop><vdop>3.625</vdop><extensions><gom:speed>0.936</gom:speed></extensions></trkpt>
   <trkpt lat="59.3019290988" lon="34.6764679846"><ele>163.081</ele><time>2026-08-16T16:03:02.069Z</time><hdop>3.0</hdop><vdop>3.625</vdop><extensions><gom:speed>0.959</gom:speed></extensions></trkpt>
   <trkpt lat="59.3019338765" lon="34.6764747739"><ele>163.159</ele><time>2026-08-16T16:03:02.686Z</time><hdop>3.0</hdop><vdop>3.812</vdop><extensions><gom:speed>0.951</gom:speed></extensions></trkpt>
   <trkpt lat="59.301935972" lon="34.6764877658"><ele>163.316</ele><time>2026-08-16T16:03:03.404Z</time><hdop>3.0</hdop><vdop>3.562</vdop><extensions><gom:speed>0.98</gom:speed></extensions></trkpt>
   <trkpt lat="59.301939199" lon="34.6764968183"><ele>163.41</ele><time>2026-08-16T16:03:03.963Z</time><hdop>3.0</hdop><vdop>3.562</vdop><extensions><gom:speed>0.986</gom:speed></extensions></trkpt>
   <trkpt lat="59.3019392828" lon="34.6765119895"><ele>163.392</ele><time>2026-08-16T16:03:04.641Z</time><hdop>3.0</hdop><vdop>3.5</vdop><extensions><gom:speed>1.033</gom:speed></extensions></trkpt>
   <trkpt lat="59.3019370616" lon="34.676522886"><ele>162.993</ele><time>2026-08-16T16:03:05.136Z</time><hdop>3.0</hdop><vdop>3.375</vdop><extensions><gom:speed>0.973</gom:speed></extensions></trkpt>
   <trkpt lat="59.3019274643" lon="34.6765422482"><ele>162.359</ele><time>2026-08-16T16:03:06.136Z</time><hdop>3.0</hdop><vdop>3.75</vdop><extensions><gom:speed>1.044</gom:speed></extensions></trkpt>
   <trkpt lat="59.3019219742" lon="34.676546523"><ele>161.98</ele><time>2026-08-16T16:03:06.762Z</time><hdop>3.0</hdop><vdop>3.75</vdop><extensions><gom:speed>1.243</gom:speed></extensions></trkpt>
   <trkpt lat="59.3019145981" lon="34.676551133"><ele>161.402</ele><time>2026-08-16T16:03:07.469Z</time><hdop>3.0</hdop><vdop>3.5</vdop><extensions><gom:speed>1.166</gom:speed></extensions></trkpt>
   <trkpt lat="59.3019064677" lon="34.6765577547"><ele>161.109</ele><time>2026-08-16T16:03:08.136Z</time><hdop>3.062</hdop><vdop>3.687</vdop><extensions><gom:speed>1.067</gom:speed></extensions></trkpt>
   <trkpt lat="59.3019010613" lon="34.6765665557"><ele>160.933</ele><time>2026-08-16T16:03:08.990Z</time><hdop>3.187</hdop><vdop>3.687</vdop><extensions><gom:speed>1.022</gom:speed></extensions></trkpt>
   <trkpt lat="59.301897499" lon="34.6765834872"><ele>161.099</ele><time>2026-08-16T16:03:10.109Z</time><hdop>3.25</hdop><vdop>3.75</vdop><extensions><gom:speed>0.772</gom:speed></extensions></trkpt>
   <trkpt lat="59.3019020672" lon="34.676587762"><ele>161.081</ele><time>2026-08-16T16:03:10.845Z</time><hdop>3.312</hdop><vdop>3.937</vdop><extensions><gom:speed>0.579</gom:speed></extensions></trkpt>
   <trkpt lat="59.3019085631" lon="34.6765819784"><ele>160.635</ele><time>2026-08-16T16:03:11.944Z</time><hdop>3.25</hdop><vdop>3.875</vdop><extensions><gom:speed>0.482</gom:speed></extensions></trkpt>
   <trkpt lat="59.3019139695" lon="34.6765839901"><ele>160.253</ele><time>2026-08-16T16:03:13.024Z</time><hdop>3.25</hdop><vdop>3.5</vdop><extensions><gom:speed>0.45</gom:speed></extensions></trkpt>
   <trkpt lat="59.3019190824" lon="34.6765897736"><ele>160.236</ele><time>2026-08-16T16:03:14.136Z</time><hdop>3.125</hdop><vdop>3.187</vdop><extensions><gom:speed>0.422</gom:speed></extensions></trkpt>
   <trkpt lat="59.3019211779" lon="34.6765919529"><ele>160.227</ele><time>2026-08-16T16:03:14.830Z</time><hdop>3.062</hdop><vdop>3.187</vdop><extensions><gom:speed>0.361</gom:speed></extensions></trkpt>
   <trkpt lat="59.3019222676" lon="34.6765913662"><ele>160.23</ele><time>2026-08-16T16:03:15.496Z</time><hdop>3.0</hdop><vdop>3.0</vdop><extensions><gom:speed>0.269</gom:speed></extensions></trkpt>
   <trkpt lat="59.3019247821" lon="34.6765949704"><ele>160.283</ele><time>2026-08-16T16:03:16.136Z</time><hdop>3.0</hdop><vdop>3.187</vdop><extensions><gom:speed>0.45</gom:speed></extensions></trkpt>
   <trkpt lat="59.3019260813" lon="34.6766003348"><ele>160.316</ele><time>2026-08-16T16:03:16.861Z</time><hdop>3.0</hdop><vdop>3.187</vdop><extensions><gom:speed>0.443</gom:speed></extensions></trkpt>
   <trkpt lat="59.301939199" lon="34.676614584"><ele>160.227</ele><time>2026-08-16T16:03:18.135Z</time><hdop>3.0</hdop><vdop>3.5</vdop><extensions><gom:speed>0.8</gom:speed></extensions></trkpt>
   <trkpt lat="59.3019448987" lon="34.6766190265"><ele>160.174</ele><time>2026-08-16T16:03:18.657Z</time><hdop>3.0</hdop><vdop>3.5</vdop><extensions><gom:speed>0.846</gom:speed></extensions></trkpt>
   <trkpt lat="59.3019509756" lon="34.6766246423"><ele>160.11</ele><time>2026-08-16T16:03:19.136Z</time><hdop>3.0</hdop><vdop>3.687</vdop><extensions><gom:speed>0.872</gom:speed></extensions></trkpt>
   <trkpt lat="59.3019587707" lon="34.6766350359"><ele>160.072</ele><time>2026-08-16T16:03:19.962Z</time><hdop>3.0</hdop><vdop>3.687</vdop><extensions><gom:speed>0.938</gom:speed></extensions></trkpt>
   <trkpt lat="59.3019658954" lon="34.6766501233"><ele>159.979</ele><time>2026-08-16T16:03:20.777Z</time><hdop>3.062</hdop><vdop>3.875</vdop><extensions><gom:speed>0.973</gom:speed></extensions></trkpt>
   <trkpt lat="59.3019707988" lon="34.676664624"><ele>160.036</ele><time>2026-08-16T16:03:21.425Z</time><hdop>3.062</hdop><vdop>3.875</vdop><extensions><gom:speed>0.957</gom:speed></extensions></trkpt>
   <trkpt lat="59.3019755765" lon="34.676676191"><ele>160.832</ele><time>2026-08-16T16:03:22.136Z</time><hdop>3.062</hdop><vdop>3.687</vdop><extensions><gom:speed>0.935</gom:speed></extensions></trkpt>
   <trkpt lat="59.3019828687" lon="34.6766820584"><ele>161.308</ele><time>2026-08-16T16:03:23.025Z</time><hdop>3.125</hdop><vdop>3.687</vdop><extensions><gom:speed>0.926</gom:speed></extensions></trkpt>
   <trkpt lat="59.3019886941" lon="34.6766890992"><ele>161.48</ele><time>2026-08-16T16:03:23.859Z</time><hdop>3.125</hdop><vdop>3.562</vdop><extensions><gom:speed>0.837</gom:speed></extensions></trkpt>
   <trkpt lat="59.3019950644" lon="34.6766948827"><ele>161.495</ele><time>2026-08-16T16:03:24.683Z</time><hdop>3.187</hdop><vdop>3.625</vdop><extensions><gom:speed>0.852</gom:speed></extensions></trkpt>
   <trkpt lat="59.3019990877" lon="34.6766983193"><ele>161.55</ele><time>2026-08-16T16:03:25.136Z</time><hdop>3.125</hdop><vdop>3.562</vdop><extensions><gom:speed>0.855</gom:speed></extensions></trkpt>
   <trkpt lat="59.3020069667" lon="34.6767024264"><ele>161.583</ele><time>2026-08-16T16:03:25.999Z</time><hdop>3.125</hdop><vdop>3.562</vdop><extensions><gom:speed>0.902</gom:speed></extensions></trkpt>
   <trkpt lat="59.3020154743" lon="34.6767190226"><ele>161.875</ele><time>2026-08-16T16:03:27.136Z</time><hdop>3.125</hdop><vdop>3.187</vdop><extensions><gom:speed>0.844</gom:speed></extensions></trkpt>
   <trkpt lat="59.3020201682" lon="34.6767351996"><ele>162.05</ele><time>2026-08-16T16:03:28.098Z</time><hdop>3.062</hdop><vdop>3.187</vdop><extensions><gom:speed>0.823</gom:speed></extensions></trkpt>
   <trkpt lat="59.3020260774" lon="34.6767474372"><ele>161.737</ele><time>2026-08-16T16:03:29.002Z</time><hdop>3.062</hdop><vdop>3.125</vdop><extensions><gom:speed>0.827</gom:speed></extensions></trkpt>
   <trkpt lat="59.3020334954" lon="34.6767560706"><ele>161.491</ele><time>2026-08-16T16:03:29.925Z</time><hdop>3.062</hdop><vdop>3.187</vdop><extensions><gom:speed>0.834</gom:speed></extensions></trkpt>
   <trkpt lat="59.3020392789" lon="34.6767626923"><ele>162.041</ele><time>2026-08-16T16:03:30.582Z</time><hdop>3.062</hdop><vdop>2.5</vdop><extensions><gom:speed>0.901</gom:speed></extensions></trkpt>
   <trkpt lat="59.3020430927" lon="34.6767673861"><ele>162.369</ele><time>2026-08-16T16:03:31.043Z</time><hdop>3.062</hdop><vdop>2.5</vdop><extensions><gom:speed>0.905</gom:speed></extensions></trkpt>
   <trkpt lat="59.30204896" lon="34.676780881"><ele>163.057</ele><time>2026-08-16T16:03:31.780Z</time><hdop>3.062</hdop><vdop>2.5</vdop><extensions><gom:speed>1.04</gom:speed></extensions></trkpt>
   <trkpt lat="59.3020515584" lon="34.676789682"><ele>163.386</ele><time>2026-08-16T16:03:32.240Z</time><hdop>3.062</hdop><vdop>2.625</vdop><extensions><gom:speed>0.987</gom:speed></extensions></trkpt>
   <trkpt lat="59.3020553722" lon="34.6767973934"><ele>163.582</ele><time>2026-08-16T16:03:32.781Z</time><hdop>3.062</hdop><vdop>2.625</vdop><extensions><gom:speed>1.0</gom:speed></extensions></trkpt>
   <trkpt lat="59.3020616586" lon="34.6768038474"><ele>163.752</ele><time>2026-08-16T16:03:33.537Z</time><hdop>3.062</hdop><vdop>2.562</vdop><extensions><gom:speed>0.95</gom:speed></extensions></trkpt>
   <trkpt lat="59.3020673583" lon="34.6768058591"><ele>163.863</ele><time>2026-08-16T16:03:34.136Z</time><hdop>3.062</hdop><vdop>2.625</vdop><extensions><gom:speed>0.948</gom:speed></extensions></trkpt>
   <trkpt lat="59.3020763688" lon="34.6768034283"><ele>164.123</ele><time>2026-08-16T16:03:35.136Z</time><hdop>3.0</hdop><vdop>2.687</vdop><extensions><gom:speed>0.943</gom:speed></extensions></trkpt>
   <trkpt lat="59.3020838706" lon="34.6767956332"><ele>164.374</ele><time>2026-08-16T16:03:36.136Z</time><hdop>3.0</hdop><vdop>2.625</vdop><extensions><gom:speed>0.88</gom:speed></extensions></trkpt>
   <trkpt lat="59.3020874749" lon="34.6767904364"><ele>164.524</ele><time>2026-08-16T16:03:36.638Z</time><hdop>3.0</hdop><vdop>2.625</vdop><extensions><gom:speed>0.877</gom:speed></extensions></trkpt>
   <trkpt lat="59.3020922945" lon="34.6767860778"><ele>165.004</ele><time>2026-08-16T16:03:37.136Z</time><hdop>3.0</hdop><vdop>2.562</vdop><extensions><gom:speed>0.927</gom:speed></extensions></trkpt>
   <trkpt lat="59.3020998801" lon="34.6767822221"><ele>165.291</ele><time>2026-08-16T16:03:37.885Z</time><hdop>3.0</hdop><vdop>2.562</vdop><extensions><gom:speed>0.978</gom:speed></extensions></trkpt>
   <trkpt lat="59.302108262" lon="34.6767837308"><ele>165.785</ele><time>2026-08-16T16:03:38.561Z</time><hdop>3.0</hdop><vdop>2.75</vdop><extensions><gom:speed>1.038</gom:speed></extensions></trkpt>
   <trkpt lat="59.3021154704" lon="34.6767865807"><ele>166.465</ele><time>2026-08-16T16:03:39.136Z</time><hdop>3.0</hdop><vdop>3.0</vdop><extensions><gom:speed>1.036</gom:speed></extensions></trkpt>
   <trkpt lat="59.3021263669" lon="34.6767943759"><ele>166.523</ele><time>2026-08-16T16:03:40.136Z</time><hdop>3.0</hdop><vdop>3.0</vdop><extensions><gom:speed>1.039</gom:speed></extensions></trkpt>
   <trkpt lat="59.30213697" lon="34.6768037636"><ele>167.317</ele><time>2026-08-16T16:03:41.136Z</time><hdop>3.0</hdop><vdop>2.687</vdop><extensions><gom:speed>1.025</gom:speed></extensions></trkpt>
   <trkpt lat="59.3021475731" lon="34.6768097986"><ele>167.785</ele><time>2026-08-16T16:03:42.136Z</time><hdop>3.0</hdop><vdop>2.812</vdop><extensions><gom:speed>1.018</gom:speed></extensions></trkpt>
   <trkpt lat="59.3021585953" lon="34.6768147439"><ele>168.089</ele><time>2026-08-16T16:03:43.136Z</time><hdop>3.0</hdop><vdop>2.937</vdop><extensions><gom:speed>0.995</gom:speed></extensions></trkpt>
   <trkpt lat="59.3021654685" lon="34.6768175937"><ele>168.271</ele><time>2026-08-16T16:03:43.785Z</time><hdop>3.0</hdop><vdop>2.937</vdop><extensions><gom:speed>0.995</gom:speed></extensions></trkpt>
   <trkpt lat="59.3021734732" lon="34.6768203598"><ele>168.436</ele><time>2026-08-16T16:03:44.521Z</time><hdop>3.0</hdop><vdop>3.187</vdop><extensions><gom:speed>1.006</gom:speed></extensions></trkpt>
   <trkpt lat="59.3021785862" lon="34.6768227905"><ele>168.535</ele><time>2026-08-16T16:03:45.022Z</time><hdop>3.0</hdop><vdop>3.187</vdop><extensions><gom:speed>1.004</gom:speed></extensions></trkpt>
   <trkpt lat="59.3021851659" lon="34.6768262271"><ele>168.441</ele><time>2026-08-16T16:03:45.679Z</time><hdop>3.0</hdop><vdop>3.125</vdop><extensions><gom:speed>0.974</gom:speed></extensions></trkpt>
   <trkpt lat="59.3021893988" lon="34.6768281549"><ele>169.184</ele><time>2026-08-16T16:03:46.136Z</time><hdop>3.0</hdop><vdop>2.5</vdop><extensions><gom:speed>0.966</gom:speed></extensions></trkpt>
   <trkpt lat="59.3021977807" lon="34.676830418"><ele>169.627</ele><time>2026-08-16T16:03:47.023Z</time><hdop>3.0</hdop><vdop>2.5</vdop><extensions><gom:speed>0.901</gom:speed></extensions></trkpt>
   <trkpt lat="59.3022092639" lon="34.6768388838"><ele>169.525</ele><time>2026-08-16T16:03:48.136Z</time><hdop>3.0</hdop><vdop>2.5</vdop><extensions><gom:speed>0.941</gom:speed></extensions></trkpt>
   <trkpt lat="59.3022144607" lon="34.6768458408"><ele>169.464</ele><time>2026-08-16T16:03:48.722Z</time><hdop>3.0</hdop><vdop>2.5</vdop><extensions><gom:speed>0.948</gom:speed></extensions></trkpt>
   <trkpt lat="59.3022241837" lon="34.6768635266"><ele>169.153</ele><time>2026-08-16T16:03:50.036Z</time><hdop>3.0</hdop><vdop>2.687</vdop><extensions><gom:speed>0.932</gom:speed></extensions></trkpt>
   <trkpt lat="59.3022306797" lon="34.6768754289"><ele>169.158</ele><time>2026-08-16T16:03:50.940Z</time><hdop>3.0</hdop><vdop>2.812</vdop><extensions><gom:speed>0.924</gom:speed></extensions></trkpt>
   <trkpt lat="59.302236086" lon="34.6768824697"><ele>169.051</ele><time>2026-08-16T16:03:51.559Z</time><hdop>3.0</hdop><vdop>2.75</vdop><extensions><gom:speed>0.939</gom:speed></extensions></trkpt>
   <trkpt lat="59.3022403608" lon="34.6768885885"><ele>169.02</ele><time>2026-08-16T16:03:52.136Z</time><hdop>3.0</hdop><vdop>2.562</vdop><extensions><gom:speed>0.932</gom:speed></extensions></trkpt>
   <trkpt lat="59.3022449708" lon="34.6768960484"><ele>169.002</ele><time>2026-08-16T16:03:52.756Z</time><hdop>3.0</hdop><vdop>2.562</vdop><extensions><gom:speed>0.953</gom:speed></extensions></trkpt>
   <trkpt lat="59.3022494971" lon="34.6769043464"><ele>168.935</ele><time>2026-08-16T16:03:53.404Z</time><hdop>3.0</hdop><vdop>2.562</vdop><extensions><gom:speed>1.02</gom:speed></extensions></trkpt>
   <trkpt lat="59.3022534785" lon="34.6769104652"><ele>168.895</ele><time>2026-08-16T16:03:53.885Z</time><hdop>3.0</hdop><vdop>2.562</vdop><extensions><gom:speed>1.028</gom:speed></extensions></trkpt>
   <trkpt lat="59.302257879" lon="34.676913818"><ele>168.877</ele><time>2026-08-16T16:03:54.405Z</time><hdop>3.0</hdop><vdop>2.625</vdop><extensions><gom:speed>0.993</gom:speed></extensions></trkpt>
   <trkpt lat="59.3022637882" lon="34.6769171707"><ele>168.538</ele><time>2026-08-16T16:03:55.135Z</time><hdop>3.0</hdop><vdop>2.5</vdop><extensions><gom:speed>0.976</gom:speed></extensions></trkpt>
   <trkpt lat="59.3022718767" lon="34.6769190986"><ele>167.952</ele><time>2026-08-16T16:03:56.136Z</time><hdop>3.0</hdop><vdop>2.562</vdop><extensions><gom:speed>0.95</gom:speed></extensions></trkpt>
   <trkpt lat="59.3022772831" lon="34.6769192662"><ele>167.602</ele><time>2026-08-16T16:03:56.721Z</time><hdop>3.0</hdop><vdop>2.562</vdop><extensions><gom:speed>0.994</gom:speed></extensions></trkpt>
   <trkpt lat="59.302284282" lon="34.67691935"><ele>167.442</ele><time>2026-08-16T16:03:57.458Z</time><hdop>3.0</hdop><vdop>2.5</vdop><extensions><gom:speed>1.001</gom:speed></extensions></trkpt>
   <trkpt lat="59.3022905684" lon="34.6769176737"><ele>167.191</ele><time>2026-08-16T16:03:58.136Z</time><hdop>3.0</hdop><vdop>2.5</vdop><extensions><gom:speed>0.98</gom:speed></extensions></trkpt>
   <trkpt lat="59.3022989922" lon="34.6769097947"><ele>167.116</ele><time>2026-08-16T16:03:59.136Z</time><hdop>3.0</hdop><vdop>2.5</vdop><extensions><gom:speed>0.93</gom:speed></extensions></trkpt>
   <trkpt lat="59.3023077932" lon="34.6769048494"><ele>167.071</ele><time>2026-08-16T16:04:00.137Z</time><hdop>3.0</hdop><vdop>2.5</vdop><extensions><gom:speed>0.921</gom:speed></extensions></trkpt>
   <trkpt lat="59.3023118584" lon="34.6769057714"><ele>167.395</ele><time>2026-08-16T16:04:00.697Z</time><hdop>3.0</hdop><vdop>2.5</vdop><extensions><gom:speed>0.829</gom:speed></extensions></trkpt>
   <trkpt lat="59.302316678" lon="34.6769112196"><ele>167.628</ele><time>2026-08-16T16:04:01.443Z</time><hdop>3.0</hdop><vdop>2.5</vdop><extensions><gom:speed>0.791</gom:speed></extensions></trkpt>
   <trkpt lat="59.3023204918" lon="34.6769166678"><ele>167.677</ele><time>2026-08-16T16:04:02.136Z</time><hdop>3.0</hdop><vdop>2.5</vdop><extensions><gom:speed>0.785</gom:speed></extensions></trkpt>
   <trkpt lat="59.3023227968" lon="34.6769202721"><ele>167.707</ele><time>2026-08-16T16:04:02.601Z</time><hdop>3.0</hdop><vdop>2.5</vdop><extensions><gom:speed>0.732</gom:speed></extensions></trkpt>
   <trkpt lat="59.3023257724" lon="34.6769227866"><ele>167.333</ele><time>2026-08-16T16:04:03.136Z</time><hdop>3.0</hdop><vdop>2.5</vdop><extensions><gom:speed>0.736</gom:speed></extensions></trkpt>
   <trkpt lat="59.3023281612" lon="34.6769243792"><ele>167.11</ele><time>2026-08-16T16:04:03.602Z</time><hdop>3.0</hdop><vdop>2.5</vdop><extensions><gom:speed>0.665</gom:speed></extensions></trkpt>
   <trkpt lat="59.3023311787" lon="34.6769252174"><ele>166.977</ele><time>2026-08-16T16:04:04.103Z</time><hdop>3.0</hdop><vdop>2.5</vdop><extensions><gom:speed>0.662</gom:speed></extensions></trkpt>
   <trkpt lat="59.3023376747" lon="34.6769222837"><ele>167.194</ele><time>2026-08-16T16:04:04.937Z</time><hdop>3.0</hdop><vdop>2.5</vdop><extensions><gom:speed>0.733</gom:speed></extensions></trkpt>
   <trkpt lat="59.3023461823" lon="34.6769137342"><ele>167.303</ele><time>2026-08-16T16:04:05.820Z</time><hdop>3.0</hdop><vdop>2.5</vdop><extensions><gom:speed>0.881</gom:speed></extensions></trkpt>
   <trkpt lat="59.3023525945" lon="34.6769071963"><ele>167.363</ele><time>2026-08-16T16:04:06.684Z</time><hdop>3.0</hdop><vdop>2.5</vdop><extensions><gom:speed>0.9</gom:speed></extensions></trkpt>
   <trkpt lat="59.302356073" lon="34.6769065257"><ele>167.503</ele><time>2026-08-16T16:04:07.136Z</time><hdop>3.0</hdop><vdop>2.5</vdop><extensions><gom:speed>0.938</gom:speed></extensions></trkpt>
   <trkpt lat="59.3023634909" lon="34.6769139856"><ele>167.587</ele><time>2026-08-16T16:04:08.058Z</time><hdop>3.0</hdop><vdop>2.5</vdop><extensions><gom:speed>0.95</gom:speed></extensions></trkpt>
   <trkpt lat="59.3023655864" lon="34.6769215293"><ele>167.628</ele><time>2026-08-16T16:04:08.539Z</time><hdop>3.0</hdop><vdop>2.5</vdop><extensions><gom:speed>0.98</gom:speed></extensions></trkpt>
   <trkpt lat="59.3023687715" lon="34.6769283187"><ele>167.034</ele><time>2026-08-16T16:04:09.135Z</time><hdop>3.0</hdop><vdop>2.5</vdop><extensions><gom:speed>0.929</gom:speed></extensions></trkpt>
   <trkpt lat="59.3023737588" lon="34.6769328449"><ele>166.679</ele><time>2026-08-16T16:04:09.735Z</time><hdop>3.0</hdop><vdop>2.5</vdop><extensions><gom:speed>0.981</gom:speed></extensions></trkpt>
   <trkpt lat="59.3023784945" lon="34.6769400533"><ele>166.279</ele><time>2026-08-16T16:04:10.522Z</time><hdop>3.0</hdop><vdop>2.5</vdop><extensions><gom:speed>1.019</gom:speed></extensions></trkpt>
   <trkpt lat="59.3023829789" lon="34.6769440767"><ele>166.04</ele><time>2026-08-16T16:04:11.022Z</time><hdop>3.0</hdop><vdop>2.5</vdop><extensions><gom:speed>1.024</gom:speed></extensions></trkpt>
   <trkpt lat="59.3023867926" lon="34.6769515366"><ele>166.05</ele><time>2026-08-16T16:04:11.719Z</time><hdop>3.0</hdop><vdop>2.5</vdop><extensions><gom:speed>1.036</gom:speed></extensions></trkpt>
   <trkpt lat="59.3023883852" lon="34.6769562304"><ele>166.173</ele><time>2026-08-16T16:04:12.200Z</time><hdop>3.0</hdop><vdop>2.5</vdop><extensions><gom:speed>0.977</gom:speed></extensions></trkpt>
   <trkpt lat="59.3023946716" lon="34.6769618463"><ele>166.76</ele><time>2026-08-16T16:04:13.136Z</time><hdop>3.0</hdop><vdop>2.5</vdop><extensions><gom:speed>0.916</gom:speed></extensions></trkpt>
   <trkpt lat="59.3024017962" lon="34.6769637741"><ele>167.11</ele><time>2026-08-16T16:04:13.937Z</time><hdop>3.0</hdop><vdop>2.5</vdop><extensions><gom:speed>0.954</gom:speed></extensions></trkpt>
   <trkpt lat="59.3024048975" lon="34.6769641932"><ele>167.466</ele><time>2026-08-16T16:04:14.683Z</time><hdop>3.0</hdop><vdop>2.5</vdop><extensions><gom:speed>0.856</gom:speed></extensions></trkpt>
   <trkpt lat="59.3024066996" lon="34.6769660372"><ele>167.889</ele><time>2026-08-16T16:04:15.136Z</time><hdop>3.0</hdop><vdop>2.5</vdop><extensions><gom:speed>0.835</gom:speed></extensions></trkpt>
   <trkpt lat="59.3024118964" lon="34.6769738324"><ele>168.141</ele><time>2026-08-16T16:04:16.136Z</time><hdop>3.0</hdop><vdop>2.5</vdop><extensions><gom:speed>0.762</gom:speed></extensions></trkpt>
   <trkpt lat="59.3024156683" lon="34.6769812923"><ele>168.549</ele><time>2026-08-16T16:04:16.960Z</time><hdop>3.0</hdop><vdop>2.5</vdop><extensions><gom:speed>0.795</gom:speed></extensions></trkpt>
   <trkpt lat="59.3024206974" lon="34.6769875787"><ele>168.914</ele><time>2026-08-16T16:04:17.785Z</time><hdop>3.0</hdop><vdop>2.5</vdop><extensions><gom:speed>0.81</gom:speed></extensions></trkpt>
   <trkpt lat="59.302425978" lon="34.6769876626"><ele>169.273</ele><time>2026-08-16T16:04:18.384Z</time><hdop>3.0</hdop><vdop>2.5</vdop><extensions><gom:speed>0.804</gom:speed></extensions></trkpt>
   <trkpt lat="59.3024299594" lon="34.6769898418"><ele>169.487</ele><time>2026-08-16T16:04:18.865Z</time><hdop>3.0</hdop><vdop>2.5</vdop><extensions><gom:speed>0.804</gom:speed></extensions></trkpt>
   <trkpt lat="59.302436162" lon="34.6769874949"><ele>169.513</ele><time>2026-08-16T16:04:19.542Z</time><hdop>3.0</hdop><vdop>2.5</vdop><extensions><gom:speed>0.795</gom:speed></extensions></trkpt>
   <trkpt lat="59.3024413588" lon="34.6769846451"><ele>169.597</ele><time>2026-08-16T16:04:20.136Z</time><hdop>3.0</hdop><vdop>2.5</vdop><extensions><gom:speed>0.81</gom:speed></extensions></trkpt>
   <trkpt lat="59.3024492797" lon="34.6769845612"><ele>169.647</ele><time>2026-08-16T16:04:20.965Z</time><hdop>3.0</hdop><vdop>2.5</vdop><extensions><gom:speed>0.879</gom:speed></extensions></trkpt>
   <trkpt lat="59.3024549794" lon="34.676985148"><ele>169.54</ele><time>2026-08-16T16:04:21.524Z</time><hdop>3.0</hdop><vdop>2.5</vdop><extensions><gom:speed>0.957</gom:speed></extensions></trkpt>
   <trkpt lat="59.3024601762" lon="34.6769886684"><ele>169.252</ele><time>2026-08-16T16:04:22.136Z</time><hdop>3.0</hdop><vdop>2.5</vdop><extensions><gom:speed>0.919</gom:speed></extensions></trkpt>
   <trkpt lat="59.3024656663" lon="34.6769922726"><ele>169.079</ele><time>2026-08-16T16:04:22.643Z</time><hdop>3.0</hdop><vdop>2.5</vdop><extensions><gom:speed>1.037</gom:speed></extensions></trkpt>
   <trkpt lat="59.3024701926" lon="34.6769942843"><ele>169.515</ele><time>2026-08-16T16:04:23.136Z</time><hdop>3.0</hdop><vdop>2.5</vdop><extensions><gom:speed>0.982</gom:speed></extensions></trkpt>
   <trkpt lat="59.3024779877" lon="34.6769980561"><ele>169.775</ele><time>2026-08-16T16:04:23.919Z</time><hdop>3.0</hdop><vdop>2.5</vdop><extensions><gom:speed>1.006</gom:speed></extensions></trkpt>
   <trkpt lat="59.3024859925" lon="34.6770058513"><ele>169.947</ele><time>2026-08-16T16:04:25.136Z</time><hdop>3.0</hdop><vdop>2.625</vdop><extensions><gom:speed>0.918</gom:speed></extensions></trkpt>
   <trkpt lat="59.3024902672" lon="34.6770135626"><ele>170.051</ele><time>2026-08-16T16:04:25.745Z</time><hdop>3.0</hdop><vdop>2.625</vdop><extensions><gom:speed>0.995</gom:speed></extensions></trkpt>
   <trkpt lat="59.3024942905" lon="34.6770180889"><ele>169.857</ele><time>2026-08-16T16:04:26.304Z</time><hdop>3.0</hdop><vdop>2.812</vdop><extensions><gom:speed>0.974</gom:speed></extensions></trkpt>
   <trkpt lat="59.3025018762" lon="34.67702404"><ele>169.653</ele><time>2026-08-16T16:04:27.136Z</time><hdop>3.0</hdop><vdop>2.75</vdop><extensions><gom:speed>1.047</gom:speed></extensions></trkpt>
   <trkpt lat="59.3025158739" lon="34.6770173345"><ele>170.498</ele><time>2026-08-16T16:04:28.136Z</time><hdop>3.0</hdop><vdop>2.625</vdop><extensions><gom:speed>1.409</gom:speed></extensions></trkpt>
   <trkpt lat="59.3025268961" lon="34.6770009898"><ele>171.003</ele><time>2026-08-16T16:04:29.063Z</time><hdop>3.0</hdop><vdop>2.625</vdop><extensions><gom:speed>1.28</gom:speed></extensions></trkpt>
   <trkpt lat="59.3025317996" lon="34.6769931946"><ele>171.713</ele><time>2026-08-16T16:04:29.524Z</time><hdop>3.0</hdop><vdop>2.625</vdop><extensions><gom:speed>1.198</gom:speed></extensions></trkpt>
   <trkpt lat="59.3025385889" lon="34.6769877464"><ele>171.918</ele><time>2026-08-16T16:04:30.136Z</time><hdop>3.0</hdop><vdop>2.75</vdop><extensions><gom:speed>1.202</gom:speed></extensions></trkpt>
   <trkpt lat="59.3025475994" lon="34.6769835554"><ele>172.041</ele><time>2026-08-16T16:04:31.016Z</time><hdop>3.0</hdop><vdop>2.75</vdop><extensions><gom:speed>1.091</gom:speed></extensions></trkpt>
   <trkpt lat="59.3025544726" lon="34.6769756764"><ele>172.211</ele><time>2026-08-16T16:04:31.860Z</time><hdop>3.0</hdop><vdop>2.75</vdop><extensions><gom:speed>1.005</gom:speed></extensions></trkpt>
   <trkpt lat="59.3025592922" lon="34.6769670431"><ele>172.4</ele><time>2026-08-16T16:04:32.645Z</time><hdop>3.0</hdop><vdop>2.625</vdop><extensions><gom:speed>1.015</gom:speed></extensions></trkpt>
   <trkpt lat="59.3025629802" lon="34.6769635227"><ele>172.774</ele><time>2026-08-16T16:04:33.135Z</time><hdop>3.0</hdop><vdop>2.812</vdop><extensions><gom:speed>1.01</gom:speed></extensions></trkpt>
   <trkpt lat="59.3025733738" lon="34.6769643609"><ele>173.87</ele><time>2026-08-16T16:04:34.136Z</time><hdop>3.0</hdop><vdop>2.625</vdop><extensions><gom:speed>1.188</gom:speed></extensions></trkpt>
   <trkpt lat="59.3025858628" lon="34.6769738324"><ele>175.119</ele><time>2026-08-16T16:04:35.135Z</time><hdop>3.0</hdop><vdop>2.812</vdop><extensions><gom:speed>1.267</gom:speed></extensions></trkpt>
   <trkpt lat="59.3025981842" lon="34.6769835554"><ele>176.409</ele><time>2026-08-16T16:04:36.136Z</time><hdop>3.0</hdop><vdop>2.75</vdop><extensions><gom:speed>1.286</gom:speed></extensions></trkpt>
   <trkpt lat="59.3026109666" lon="34.6769899257"><ele>177.534</ele><time>2026-08-16T16:04:37.136Z</time><hdop>3.0</hdop><vdop>2.75</vdop><extensions><gom:speed>1.282</gom:speed></extensions></trkpt>
   <trkpt lat="59.3026187618" lon="34.6769883331"><ele>178.206</ele><time>2026-08-16T16:04:37.778Z</time><hdop>3.0</hdop><vdop>2.75</vdop><extensions><gom:speed>1.155</gom:speed></extensions></trkpt>
   <trkpt lat="59.3026264732" lon="34.6769816276"><ele>178.451</ele><time>2026-08-16T16:04:38.505Z</time><hdop>3.0</hdop><vdop>2.687</vdop><extensions><gom:speed>1.141</gom:speed></extensions></trkpt>
   <trkpt lat="59.3026317957" lon="34.6769649476"><ele>178.382</ele><time>2026-08-16T16:04:39.136Z</time><hdop>3.0</hdop><vdop>2.75</vdop><extensions><gom:speed>1.447</gom:speed></extensions></trkpt>
   <trkpt lat="59.3026330949" lon="34.6769347727"><ele>177.731</ele><time>2026-08-16T16:04:40.136Z</time><hdop>3.0</hdop><vdop>2.625</vdop><extensions><gom:speed>1.334</gom:speed></extensions></trkpt>
   <trkpt lat="59.302633472" lon="34.6769139856"><ele>177.165</ele><time>2026-08-16T16:04:41.136Z</time><hdop>3.0</hdop><vdop>2.75</vdop><extensions><gom:speed>1.124</gom:speed></extensions></trkpt>
   <trkpt lat="59.3026378725" lon="34.6769079507"><ele>176.826</ele><time>2026-08-16T16:04:41.881Z</time><hdop>3.0</hdop><vdop>2.75</vdop><extensions><gom:speed>0.964</gom:speed></extensions></trkpt>
   <trkpt lat="59.3026420635" lon="34.6769139856"><ele>176.7</ele><time>2026-08-16T16:04:43.135Z</time><hdop>3.0</hdop><vdop>2.625</vdop><extensions><gom:speed>0.695</gom:speed></extensions></trkpt>
   <trkpt lat="59.3026435722" lon="34.6769185957"><ele>176.625</ele><time>2026-08-16T16:04:43.696Z</time><hdop>3.0</hdop><vdop>2.625</vdop><extensions><gom:speed>0.601</gom:speed></extensions></trkpt>
   <trkpt lat="59.3026456677" lon="34.6769245468"><ele>176.648</ele><time>2026-08-16T16:04:44.482Z</time><hdop>3.0</hdop><vdop>2.687</vdop><extensions><gom:speed>0.593</gom:speed></extensions></trkpt>
   <trkpt lat="59.3026486852" lon="34.6769280672"><ele>176.803</ele><time>2026-08-16T16:04:45.136Z</time><hdop>3.0</hdop><vdop>2.937</vdop><extensions><gom:speed>0.628</gom:speed></extensions></trkpt>
   <trkpt lat="59.3026535886" lon="34.6769277319"><ele>176.896</ele><time>2026-08-16T16:04:46.082Z</time><hdop>3.0</hdop><vdop>2.937</vdop><extensions><gom:speed>0.584</gom:speed></extensions></trkpt>
   <trkpt lat="59.302658492" lon="34.6769317553"><ele>177.567</ele><time>2026-08-16T16:04:47.024Z</time><hdop>3.0</hdop><vdop>2.75</vdop><extensions><gom:speed>0.608</gom:speed></extensions></trkpt>
   <trkpt lat="59.3026608809" lon="34.6769456692"><ele>177.666</ele><time>2026-08-16T16:04:47.702Z</time><hdop>3.0</hdop><vdop>2.812</vdop><extensions><gom:speed>0.648</gom:speed></extensions></trkpt>
   <trkpt lat="59.302661258" lon="34.676966624"><ele>177.005</ele><time>2026-08-16T16:04:48.398Z</time><hdop>3.0</hdop><vdop>2.812</vdop><extensions><gom:speed>0.841</gom:speed></extensions></trkpt>
   <trkpt lat="59.3026593721" lon="34.6769865729"><ele>176.299</ele><time>2026-08-16T16:04:49.136Z</time><hdop>3.0</hdop><vdop>2.875</vdop><extensions><gom:speed>0.869</gom:speed></extensions></trkpt>
   <trkpt lat="59.3026570671" lon="34.6770114672"><ele>175.408</ele><time>2026-08-16T16:04:50.136Z</time><hdop>3.0</hdop><vdop>2.937</vdop><extensions><gom:speed>0.864</gom:speed></extensions></trkpt>
   <trkpt lat="59.3026562708" lon="34.6770254649"><ele>174.876</ele><time>2026-08-16T16:04:50.921Z</time><hdop>3.0</hdop><vdop>2.937</vdop><extensions><gom:speed>0.808</gom:speed></extensions></trkpt>
   <trkpt lat="59.3026535886" lon="34.6770435698"><ele>173.948</ele><time>2026-08-16T16:04:51.520Z</time><hdop>3.0</hdop><vdop>3.0</vdop><extensions><gom:speed>0.886</gom:speed></extensions></trkpt>
   <trkpt lat="59.3026544687" lon="34.6770545501"><ele>173.394</ele><time>2026-08-16T16:04:52.059Z</time><hdop>3.0</hdop><vdop>3.0</vdop><extensions><gom:speed>0.881</gom:speed></extensions></trkpt>
   <trkpt lat="59.3026574862" lon="34.6770711463"><ele>173.355</ele><time>2026-08-16T16:04:52.756Z</time><hdop>3.0</hdop><vdop>3.187</vdop><extensions><gom:speed>0.953</gom:speed></extensions></trkpt>
   <trkpt lat="59.3026616771" lon="34.6770849764"><ele>172.784</ele><time>2026-08-16T16:04:53.502Z</time><hdop>3.0</hdop><vdop>2.937</vdop><extensions><gom:speed>0.91</gom:speed></extensions></trkpt>
   <trkpt lat="59.3026650718" lon="34.6770934422"><ele>172.158</ele><time>2026-08-16T16:04:54.136Z</time><hdop>3.0</hdop><vdop>2.812</vdop><extensions><gom:speed>0.927</gom:speed></extensions></trkpt>
   <trkpt lat="59.3026718612" lon="34.6771018241"><ele>171.784</ele><time>2026-08-16T16:04:54.945Z</time><hdop>3.0</hdop><vdop>2.812</vdop><extensions><gom:speed>0.956</gom:speed></extensions></trkpt>
   <trkpt lat="59.3026805783" lon="34.6771055959"><ele>171.285</ele><time>2026-08-16T16:04:56.084Z</time><hdop>3.0</hdop><vdop>2.812</vdop><extensions><gom:speed>0.962</gom:speed></extensions></trkpt>
   <trkpt lat="59.3026859847" lon="34.6771067694"><ele>170.822</ele><time>2026-08-16T16:04:56.918Z</time><hdop>3.0</hdop><vdop>2.812</vdop><extensions><gom:speed>0.955</gom:speed></extensions></trkpt>
   <trkpt lat="59.3026930674" lon="34.6771121338"><ele>170.46</ele><time>2026-08-16T16:04:58.125Z</time><hdop>3.0</hdop><vdop>2.937</vdop><extensions><gom:speed>0.907</gom:speed></extensions></trkpt>
   <trkpt lat="59.302696462" lon="34.6771141455"><ele>170.15</ele><time>2026-08-16T16:04:58.744Z</time><hdop>3.0</hdop><vdop>2.562</vdop><extensions><gom:speed>0.882</gom:speed></extensions></trkpt>
   <trkpt lat="59.3026999824" lon="34.6771140617"><ele>170.194</ele><time>2026-08-16T16:04:59.362Z</time><hdop>3.0</hdop><vdop>2.5</vdop><extensions><gom:speed>0.854</gom:speed></extensions></trkpt>
   <trkpt lat="59.3027054726" lon="34.6771164924"><ele>170.171</ele><time>2026-08-16T16:05:00.136Z</time><hdop>3.0</hdop><vdop>2.687</vdop><extensions><gom:speed>0.871</gom:speed></extensions></trkpt>
   <trkpt lat="59.3027135611" lon="34.6771210186"><ele>170.157</ele><time>2026-08-16T16:05:01.099Z</time><hdop>3.0</hdop><vdop>2.687</vdop><extensions><gom:speed>0.928</gom:speed></extensions></trkpt>
   <trkpt lat="59.3027184645" lon="34.6771213539"><ele>170.277</ele><time>2026-08-16T16:05:01.776Z</time><hdop>3.0</hdop><vdop>2.75</vdop><extensions><gom:speed>0.966</gom:speed></extensions></trkpt>
   <trkpt lat="59.3027219849" lon="34.6771197613"><ele>169.895</ele><time>2026-08-16T16:05:02.277Z</time><hdop>3.0</hdop><vdop>2.75</vdop><extensions><gom:speed>0.919</gom:speed></extensions></trkpt>
   <trkpt lat="59.3027285647" lon="34.6771237847"><ele>169.667</ele><time>2026-08-16T16:05:03.003Z</time><hdop>3.062</hdop><vdop>2.75</vdop><extensions><gom:speed>0.991</gom:speed></extensions></trkpt>
   <trkpt lat="59.3027320851" lon="34.6771219406"><ele>169.248</ele><time>2026-08-16T16:05:03.484Z</time><hdop>3.062</hdop><vdop>2.875</vdop><extensions><gom:speed>0.975</gom:speed></extensions></trkpt>
   <trkpt lat="59.3027368628" lon="34.6771237847"><ele>169.11</ele><time>2026-08-16T16:05:04.136Z</time><hdop>3.062</hdop><vdop>2.687</vdop><extensions><gom:speed>0.961</gom:speed></extensions></trkpt>
   <trkpt lat="59.3027416824" lon="34.6771257963"><ele>169.027</ele><time>2026-08-16T16:05:04.682Z</time><hdop>3.062</hdop><vdop>2.687</vdop><extensions><gom:speed>0.995</gom:speed></extensions></trkpt>
   <trkpt lat="59.3027450771" lon="34.6771271374"><ele>168.803</ele><time>2026-08-16T16:05:05.136Z</time><hdop>3.062</hdop><vdop>2.75</vdop><extensions><gom:speed>0.96</gom:speed></extensions></trkpt>
   <trkpt lat="59.3027508606" lon="34.6771307416"><ele>168.669</ele><time>2026-08-16T16:05:05.820Z</time><hdop>3.062</hdop><vdop>2.75</vdop><extensions><gom:speed>0.991</gom:speed></extensions></trkpt>
   <trkpt lat="59.302756686" lon="34.6771315798"><ele>168.806</ele><time>2026-08-16T16:05:06.536Z</time><hdop>3.062</hdop><vdop>2.5</vdop><extensions><gom:speed>0.98</gom:speed></extensions></trkpt>
   <trkpt lat="59.3027616732" lon="34.6771322504"><ele>169.327</ele><time>2026-08-16T16:05:07.136Z</time><hdop>3.062</hdop><vdop>2.5</vdop><extensions><gom:speed>0.972</gom:speed></extensions></trkpt>
   <trkpt lat="59.3027661995" lon="34.6771329209"><ele>169.639</ele><time>2026-08-16T16:05:07.636Z</time><hdop>3.062</hdop><vdop>2.5</vdop><extensions><gom:speed>0.982</gom:speed></extensions></trkpt>
   <trkpt lat="59.3027709772" lon="34.6771337591"><ele>169.825</ele><time>2026-08-16T16:05:08.137Z</time><hdop>3.062</hdop><vdop>2.5</vdop><extensions><gom:speed>0.989</gom:speed></extensions></trkpt>
   <trkpt lat="59.302778479" lon="34.6771340944"><ele>170.108</ele><time>2026-08-16T16:05:09.136Z</time><hdop>3.062</hdop><vdop>2.75</vdop><extensions><gom:speed>0.921</gom:speed></extensions></trkpt>
   <trkpt lat="59.3027860646" lon="34.6771316636"><ele>170.418</ele><time>2026-08-16T16:05:10.136Z</time><hdop>3.0</hdop><vdop>3.0</vdop><extensions><gom:speed>0.911</gom:speed></extensions></trkpt>
   <trkpt lat="59.3027915966" lon="34.6771263831"><ele>170.603</ele><time>2026-08-16T16:05:10.865Z</time><hdop>3.0</hdop><vdop>3.0</vdop><extensions><gom:speed>0.875</gom:speed></extensions></trkpt>
   <trkpt lat="59.3027948656" lon="34.6771237847"><ele>170.69</ele><time>2026-08-16T16:05:11.444Z</time><hdop>3.0</hdop><vdop>3.125</vdop><extensions><gom:speed>0.845</gom:speed></extensions></trkpt>
   <trkpt lat="59.3028001881" lon="34.6771216892"><ele>170.742</ele><time>2026-08-16T16:05:12.102Z</time><hdop>3.0</hdop><vdop>3.125</vdop><extensions><gom:speed>0.842</gom:speed></extensions></trkpt>
   <trkpt lat="59.3028050915" lon="34.677124539"><ele>170.596</ele><time>2026-08-16T16:05:12.740Z</time><hdop>3.0</hdop><vdop>2.812</vdop><extensions><gom:speed>0.87</gom:speed></extensions></trkpt>
   <trkpt lat="59.3028095758" lon="34.6771300711"><ele>170.426</ele><time>2026-08-16T16:05:13.319Z</time><hdop>3.0</hdop><vdop>2.75</vdop><extensions><gom:speed>0.847</gom:speed></extensions></trkpt>
   <trkpt lat="59.3028151917" lon="34.6771320827"><ele>170.325</ele><time>2026-08-16T16:05:13.937Z</time><hdop>3.0</hdop><vdop>2.75</vdop><extensions><gom:speed>0.891</gom:speed></extensions></trkpt>
   <trkpt lat="59.3028202628" lon="34.6771374472"><ele>170.123</ele><time>2026-08-16T16:05:14.605Z</time><hdop>3.0</hdop><vdop>2.812</vdop><extensions><gom:speed>0.873</gom:speed></extensions></trkpt>
   <trkpt lat="59.3028239927" lon="34.6771422248"><ele>169.981</ele><time>2026-08-16T16:05:15.136Z</time><hdop>3.0</hdop><vdop>2.875</vdop><extensions><gom:speed>0.839</gom:speed></extensions></trkpt>
   <trkpt lat="59.3028296924" lon="34.6771469187"><ele>169.896</ele><time>2026-08-16T16:05:15.881Z</time><hdop>3.0</hdop><vdop>2.875</vdop><extensions><gom:speed>0.827</gom:speed></extensions></trkpt>
   <trkpt lat="59.3028371942" lon="34.6771600783"><ele>170.044</ele><time>2026-08-16T16:05:17.019Z</time><hdop>3.0</hdop><vdop>2.75</vdop><extensions><gom:speed>0.848</gom:speed></extensions></trkpt>
   <trkpt lat="59.3028438997" lon="34.6771740761"><ele>170.176</ele><time>2026-08-16T16:05:18.099Z</time><hdop>3.0</hdop><vdop>2.625</vdop><extensions><gom:speed>0.869</gom:speed></extensions></trkpt>
   <trkpt lat="59.302848887" lon="34.6771849726"><ele>169.953</ele><time>2026-08-16T16:05:18.943Z</time><hdop>3.0</hdop><vdop>2.562</vdop><extensions><gom:speed>0.862</gom:speed></extensions></trkpt>
   <trkpt lat="59.3028556763" lon="34.6771953661"><ele>169.766</ele><time>2026-08-16T16:05:19.905Z</time><hdop>3.0</hdop><vdop>2.625</vdop><extensions><gom:speed>0.876</gom:speed></extensions></trkpt>
   <trkpt lat="59.3028581909" lon="34.6771994732"><ele>169.816</ele><time>2026-08-16T16:05:20.356Z</time><hdop>3.0</hdop><vdop>2.75</vdop><extensions><gom:speed>0.839</gom:speed></extensions></trkpt>
   <trkpt lat="59.3028648964" lon="34.6772064302"><ele>169.845</ele><time>2026-08-16T16:05:21.122Z</time><hdop>3.0</hdop><vdop>2.75</vdop><extensions><gom:speed>0.928</gom:speed></extensions></trkpt>
   <trkpt lat="59.302868794" lon="34.677207939"><ele>169.948</ele><time>2026-08-16T16:05:21.603Z</time><hdop>3.0</hdop><vdop>2.875</vdop><extensions><gom:speed>0.947</gom:speed></extensions></trkpt>
   <trkpt lat="59.3028721886" lon="34.6772086933"><ele>170.047</ele><time>2026-08-16T16:05:22.135Z</time><hdop>3.0</hdop><vdop>3.062</vdop><extensions><gom:speed>0.863</gom:speed></extensions></trkpt>
   <trkpt lat="59.3028772597" lon="34.6772130519"><ele>170.105</ele><time>2026-08-16T16:05:22.780Z</time><hdop>3.0</hdop><vdop>3.062</vdop><extensions><gom:speed>0.931</gom:speed></extensions></trkpt>
   <trkpt lat="59.3028796904" lon="34.6772199251"><ele>169.979</ele><time>2026-08-16T16:05:23.478Z</time><hdop>3.0</hdop><vdop>2.937</vdop><extensions><gom:speed>0.906</gom:speed></extensions></trkpt>
   <trkpt lat="59.3028829594" lon="34.6772263792"><ele>169.904</ele><time>2026-08-16T16:05:23.978Z</time><hdop>3.0</hdop><vdop>2.937</vdop><extensions><gom:speed>0.909</gom:speed></extensions></trkpt>
   <trkpt lat="59.3028870665" lon="34.6772342581"><ele>169.749</ele><time>2026-08-16T16:05:24.705Z</time><hdop>3.0</hdop><vdop>3.0</vdop><extensions><gom:speed>0.938</gom:speed></extensions></trkpt>
   <trkpt lat="59.302890084" lon="34.677238952"><ele>169.416</ele><time>2026-08-16T16:05:25.176Z</time><hdop>3.0</hdop><vdop>3.0</vdop><extensions><gom:speed>0.873</gom:speed></extensions></trkpt>
   <trkpt lat="59.3028948617" lon="34.6772461604"><ele>169.218</ele><time>2026-08-16T16:05:25.902Z</time><hdop>3.0</hdop><vdop>3.0</vdop><extensions><gom:speed>0.944</gom:speed></extensions></trkpt>
   <trkpt lat="59.3028992622" lon="34.6772489265"><ele>168.858</ele><time>2026-08-16T16:05:26.541Z</time><hdop>3.0</hdop><vdop>3.187</vdop><extensions><gom:speed>0.954</gom:speed></extensions></trkpt>
   <trkpt lat="59.3029037884" lon="34.6772489265"><ele>169.476</ele><time>2026-08-16T16:05:27.136Z</time><hdop>3.0</hdop><vdop>3.437</vdop><extensions><gom:speed>0.891</gom:speed></extensions></trkpt>
   <trkpt lat="59.3029110807" lon="34.6772482559"><ele>169.845</ele><time>2026-08-16T16:05:27.945Z</time><hdop>3.0</hdop><vdop>3.437</vdop><extensions><gom:speed>0.936</gom:speed></extensions></trkpt>
   <trkpt lat="59.3029170737" lon="34.677244987"><ele>169.721</ele><time>2026-08-16T16:05:28.661Z</time><hdop>3.0</hdop><vdop>3.25</vdop><extensions><gom:speed>0.916</gom:speed></extensions></trkpt>
   <trkpt lat="59.3029211809" lon="34.677243143"><ele>169.57</ele><time>2026-08-16T16:05:29.136Z</time><hdop>3.0</hdop><vdop>3.312</vdop><extensions><gom:speed>0.91</gom:speed></extensions></trkpt>
   <trkpt lat="59.3029297723" lon="34.6772447355"><ele>169.48</ele><time>2026-08-16T16:05:30.104Z</time><hdop>3.0</hdop><vdop>3.312</vdop><extensions><gom:speed>0.932</gom:speed></extensions></trkpt>
   <trkpt lat="59.3029364778" lon="34.6772454899"><ele>169.704</ele><time>2026-08-16T16:05:30.703Z</time><hdop>3.0</hdop><vdop>3.25</vdop><extensions><gom:speed>1.026</gom:speed></extensions></trkpt>
   <trkpt lat="59.3029473743" lon="34.677244987"><ele>169.796</ele><time>2026-08-16T16:05:31.645Z</time><hdop>3.0</hdop><vdop>3.187</vdop><extensions><gom:speed>1.044</gom:speed></extensions></trkpt>
   <trkpt lat="59.3029535769" lon="34.6772430591"><ele>169.918</ele><time>2026-08-16T16:05:32.136Z</time><hdop>3.0</hdop><vdop>3.25</vdop><extensions><gom:speed>1.072</gom:speed></extensions></trkpt>
   <trkpt lat="59.3029631742" lon="34.6772415504"><ele>169.99</ele><time>2026-08-16T16:05:32.960Z</time><hdop>3.0</hdop><vdop>3.25</vdop><extensions><gom:speed>1.071</gom:speed></extensions></trkpt>
   <trkpt lat="59.3029697959" lon="34.6772385329"><ele>170.385</ele><time>2026-08-16T16:05:33.441Z</time><hdop>3.0</hdop><vdop>3.187</vdop><extensions><gom:speed>1.083</gom:speed></extensions></trkpt>
   <trkpt lat="59.302978094" lon="34.6772375271"><ele>170.853</ele><time>2026-08-16T16:05:34.136Z</time><hdop>3.0</hdop><vdop>3.187</vdop><extensions><gom:speed>1.085</gom:speed></extensions></trkpt>
   <trkpt lat="59.3029843804" lon="34.6772383653"><ele>171.132</ele><time>2026-08-16T16:05:34.658Z</time><hdop>3.0</hdop><vdop>3.187</vdop><extensions><gom:speed>1.089</gom:speed></extensions></trkpt>
   <trkpt lat="59.3029902897" lon="34.6772385329"><ele>171.308</ele><time>2026-08-16T16:05:35.136Z</time><hdop>3.0</hdop><vdop>3.125</vdop><extensions><gom:speed>1.086</gom:speed></extensions></trkpt>
   <trkpt lat="59.3030000965" lon="34.6772397902"><ele>171.414</ele><time>2026-08-16T16:05:36.082Z</time><hdop>3.0</hdop><vdop>3.125</vdop><extensions><gom:speed>1.035</gom:speed></extensions></trkpt>
   <trkpt lat="59.3030059638" lon="34.677236186"><ele>171.422</ele><time>2026-08-16T16:05:36.720Z</time><hdop>3.0</hdop><vdop>2.812</vdop><extensions><gom:speed>0.939</gom:speed></extensions></trkpt>
   <trkpt lat="59.3030106996" lon="34.6772346772"><ele>171.315</ele><time>2026-08-16T16:05:37.201Z</time><hdop>3.0</hdop><vdop>2.937</vdop><extensions><gom:speed>0.937</gom:speed></extensions></trkpt>
   <trkpt lat="59.3030179918" lon="34.6772369404"><ele>171.25</ele><time>2026-08-16T16:05:38.005Z</time><hdop>3.0</hdop><vdop>2.937</vdop><extensions><gom:speed>0.931</gom:speed></extensions></trkpt>
   <trkpt lat="59.30302256" lon="34.6772391196"><ele>171.32</ele><time>2026-08-16T16:05:38.476Z</time><hdop>3.0</hdop><vdop>2.812</vdop><extensions><gom:speed>0.98</gom:speed></extensions></trkpt>
   <trkpt lat="59.3030289721" lon="34.6772409637"><ele>171.024</ele><time>2026-08-16T16:05:39.136Z</time><hdop>3.0</hdop><vdop>2.875</vdop><extensions><gom:speed>0.955</gom:speed></extensions></trkpt>
   <trkpt lat="59.3030351747" lon="34.6772406284"><ele>170.847</ele><time>2026-08-16T16:05:39.703Z</time><hdop>3.0</hdop><vdop>2.875</vdop><extensions><gom:speed>1.007</gom:speed></extensions></trkpt>
   <trkpt lat="59.3030418803" lon="34.6772400417"><ele>170.598</ele><time>2026-08-16T16:05:40.381Z</time><hdop>3.0</hdop><vdop>3.062</vdop><extensions><gom:speed>1.016</gom:speed></extensions></trkpt>
   <trkpt lat="59.30304758" lon="34.6772405446"><ele>170.45</ele><time>2026-08-16T16:05:40.920Z</time><hdop>3.0</hdop><vdop>3.062</vdop><extensions><gom:speed>1.014</gom:speed></extensions></trkpt>
   <trkpt lat="59.3030538664" lon="34.6772402931"><ele>170.354</ele><time>2026-08-16T16:05:41.637Z</time><hdop>3.0</hdop><vdop>3.0</vdop><extensions><gom:speed>1.023</gom:speed></extensions></trkpt>
   <trkpt lat="59.3030574706" lon="34.6772404608"><ele>170.417</ele><time>2026-08-16T16:05:42.136Z</time><hdop>3.0</hdop><vdop>3.25</vdop><extensions><gom:speed>0.964</gom:speed></extensions></trkpt>
   <trkpt lat="59.3030645952" lon="34.6772409637"><ele>170.455</ele><time>2026-08-16T16:05:42.883Z</time><hdop>3.0</hdop><vdop>3.25</vdop><extensions><gom:speed>1.002</gom:speed></extensions></trkpt>
   <trkpt lat="59.3030678642" lon="34.6772418857"><ele>170.075</ele><time>2026-08-16T16:05:43.403Z</time><hdop>3.0</hdop><vdop>3.375</vdop><extensions><gom:speed>0.975</gom:speed></extensions></trkpt>
   <trkpt lat="59.3030727676" lon="34.6772427239"><ele>169.847</ele><time>2026-08-16T16:05:43.923Z</time><hdop>3.0</hdop><vdop>3.375</vdop><extensions><gom:speed>0.978</gom:speed></extensions></trkpt>
   <trkpt lat="59.3030756593" lon="34.6772478368"><ele>169.896</ele><time>2026-08-16T16:05:44.444Z</time><hdop>3.0</hdop><vdop>3.312</vdop><extensions><gom:speed>0.99</gom:speed></extensions></trkpt>
   <trkpt lat="59.3030810657" lon="34.6772546262"><ele>169.925</ele><time>2026-08-16T16:05:45.081Z</time><hdop>3.0</hdop><vdop>3.312</vdop><extensions><gom:speed>0.988</gom:speed></extensions></trkpt>
   <trkpt lat="59.3030865977" lon="34.6772643492"><ele>169.841</ele><time>2026-08-16T16:05:45.878Z</time><hdop>3.0</hdop><vdop>3.312</vdop><extensions><gom:speed>1.052</gom:speed></extensions></trkpt>
   <trkpt lat="59.3030941833" lon="34.677269043"><ele>169.586</ele><time>2026-08-16T16:05:47.136Z</time><hdop>3.0</hdop><vdop>3.562</vdop><extensions><gom:speed>0.996</gom:speed></extensions></trkpt>
   <trkpt lat="59.3030995897" lon="34.6772614993"><ele>169.433</ele><time>2026-08-16T16:05:48.018Z</time><hdop>3.0</hdop><vdop>3.562</vdop><extensions><gom:speed>0.864</gom:speed></extensions></trkpt>
   <trkpt lat="59.3031021881" lon="34.6772512734"><ele>170.083</ele><time>2026-08-16T16:05:48.901Z</time><hdop>3.0</hdop><vdop>3.625</vdop><extensions><gom:speed>0.779</gom:speed></extensions></trkpt>
   <trkpt lat="59.3031037806" lon="34.6772470825"><ele>170.489</ele><time>2026-08-16T16:05:49.480Z</time><hdop>3.0</hdop><vdop>3.437</vdop><extensions><gom:speed>0.757</gom:speed></extensions></trkpt>
   <trkpt lat="59.3031082649" lon="34.6772445679"><ele>170.896</ele><time>2026-08-16T16:05:50.136Z</time><hdop>3.0</hdop><vdop>3.437</vdop><extensions><gom:speed>0.819</gom:speed></extensions></trkpt>
   <trkpt lat="59.3031141742" lon="34.6772441488"><ele>171.139</ele><time>2026-08-16T16:05:50.776Z</time><hdop>3.0</hdop><vdop>3.437</vdop><extensions><gom:speed>0.855</gom:speed></extensions></trkpt>
   <trkpt lat="59.3031246935" lon="34.6772433944"><ele>171.146</ele><time>2026-08-16T16:05:51.885Z</time><hdop>3.0</hdop><vdop>3.312</vdop><extensions><gom:speed>0.943</gom:speed></extensions></trkpt>
   <trkpt lat="59.3031289682" lon="34.6772412989"><ele>170.751</ele><time>2026-08-16T16:05:52.356Z</time><hdop>3.0</hdop><vdop>3.437</vdop><extensions><gom:speed>0.946</gom:speed></extensions></trkpt>
   <trkpt lat="59.3031355899" lon="34.6772349287"><ele>170.514</ele><time>2026-08-16T16:05:53.063Z</time><hdop>3.0</hdop><vdop>3.437</vdop><extensions><gom:speed>1.004</gom:speed></extensions></trkpt>
   <trkpt lat="59.303142966" lon="34.6772277203"><ele>170.122</ele><time>2026-08-16T16:05:53.858Z</time><hdop>3.0</hdop><vdop>3.687</vdop><extensions><gom:speed>1.062</gom:speed></extensions></trkpt>
   <trkpt lat="59.303146696" lon="34.6772257924"><ele>169.391</ele><time>2026-08-16T16:05:54.339Z</time><hdop>3.0</hdop><vdop>3.312</vdop><extensions><gom:speed>1.013</gom:speed></extensions></trkpt>
   <trkpt lat="59.303154072" lon="34.6772206795"><ele>168.955</ele><time>2026-08-16T16:05:55.065Z</time><hdop>3.0</hdop><vdop>3.312</vdop><extensions><gom:speed>1.059</gom:speed></extensions></trkpt>
   <trkpt lat="59.3031581792" lon="34.6772211824"><ele>168.341</ele><time>2026-08-16T16:05:55.576Z</time><hdop>3.0</hdop><vdop>3.125</vdop><extensions><gom:speed>1.046</gom:speed></extensions></trkpt>
   <trkpt lat="59.3031626635" lon="34.6772216853"><ele>167.662</ele><time>2026-08-16T16:05:56.136Z</time><hdop>3.0</hdop><vdop>3.062</vdop><extensions><gom:speed>0.986</gom:speed></extensions></trkpt>
   <trkpt lat="59.3031681956" lon="34.6772205956"><ele>167.257</ele><time>2026-08-16T16:05:56.724Z</time><hdop>3.0</hdop><vdop>3.062</vdop><extensions><gom:speed>1.065</gom:speed></extensions></trkpt>
   <trkpt lat="59.3031774995" lon="34.6772151474"><ele>166.746</ele><time>2026-08-16T16:05:57.804Z</time><hdop>3.0</hdop><vdop>3.0</vdop><extensions><gom:speed>1.057</gom:speed></extensions></trkpt>
   <trkpt lat="59.3031824867" lon="34.6772099506"><ele>166.222</ele><time>2026-08-16T16:05:58.520Z</time><hdop>3.0</hdop><vdop>2.75</vdop><extensions><gom:speed>1.049</gom:speed></extensions></trkpt>
   <trkpt lat="59.3031863843" lon="34.6772029936"><ele>165.962</ele><time>2026-08-16T16:05:59.136Z</time><hdop>3.0</hdop><vdop>2.75</vdop><extensions><gom:speed>1.005</gom:speed></extensions></trkpt>
   <trkpt lat="59.3031907848" lon="34.6771941926"><ele>165.806</ele><time>2026-08-16T16:05:59.845Z</time><hdop>3.0</hdop><vdop>2.75</vdop><extensions><gom:speed>1.033</gom:speed></extensions></trkpt>
   <trkpt lat="59.3031965683" lon="34.6771761716"><ele>165.677</ele><time>2026-08-16T16:06:01.136Z</time><hdop>3.0</hdop><vdop>2.5</vdop><extensions><gom:speed>1.048</gom:speed></extensions></trkpt>
   <trkpt lat="59.303204573" lon="34.6771670353"><ele>165.783</ele><time>2026-08-16T16:06:02.135Z</time><hdop>3.0</hdop><vdop>2.5</vdop><extensions><gom:speed>1.057</gom:speed></extensions></trkpt>
   <trkpt lat="59.303211069" lon="34.6771670353"><ele>165.846</ele><time>2026-08-16T16:06:02.780Z</time><hdop>3.0</hdop><vdop>2.5</vdop><extensions><gom:speed>1.052</gom:speed></extensions></trkpt>
   <trkpt lat="59.3032185708" lon="34.6771723997"><ele>165.725</ele><time>2026-08-16T16:06:03.604Z</time><hdop>3.0</hdop><vdop>2.5</vdop><extensions><gom:speed>1.009</gom:speed></extensions></trkpt>
   <trkpt lat="59.3032229713" lon="34.6771775965"><ele>165.424</ele><time>2026-08-16T16:06:04.136Z</time><hdop>3.0</hdop><vdop>2.5</vdop><extensions><gom:speed>0.976</gom:speed></extensions></trkpt>
   <trkpt lat="59.3032290901" lon="34.6771847211"><ele>165.244</ele><time>2026-08-16T16:06:04.900Z</time><hdop>3.0</hdop><vdop>2.5</vdop><extensions><gom:speed>0.971</gom:speed></extensions></trkpt>
   <trkpt lat="59.3032314789" lon="34.6771931868"><ele>165.102</ele><time>2026-08-16T16:06:05.401Z</time><hdop>3.0</hdop><vdop>2.5</vdop><extensions><gom:speed>0.956</gom:speed></extensions></trkpt>
   <trkpt lat="59.3032359632" lon="34.6772016525"><ele>165.017</ele><time>2026-08-16T16:06:06.039Z</time><hdop>3.0</hdop><vdop>2.5</vdop><extensions><gom:speed>0.949</gom:speed></extensions></trkpt>
   <trkpt lat="59.3032390645" lon="34.677213471"><ele>164.406</ele><time>2026-08-16T16:06:06.696Z</time><hdop>3.0</hdop><vdop>2.562</vdop><extensions><gom:speed>0.967</gom:speed></extensions></trkpt>
   <trkpt lat="59.303240699" lon="34.6772271335"><ele>163.543</ele><time>2026-08-16T16:06:07.344Z</time><hdop>3.0</hdop><vdop>2.562</vdop><extensions><gom:speed>0.918</gom:speed></extensions></trkpt>
   <trkpt lat="59.3032426688" lon="34.6772368565"><ele>163.026</ele><time>2026-08-16T16:06:07.864Z</time><hdop>3.0</hdop><vdop>2.562</vdop><extensions><gom:speed>0.973</gom:speed></extensions></trkpt>
   <trkpt lat="59.3032484942" lon="34.6772579789"><ele>162.855</ele><time>2026-08-16T16:06:09.022Z</time><hdop>3.0</hdop><vdop>2.562</vdop><extensions><gom:speed>1.013</gom:speed></extensions></trkpt>
   <trkpt lat="59.303253691" lon="34.677269043"><ele>162.669</ele><time>2026-08-16T16:06:09.719Z</time><hdop>3.0</hdop><vdop>2.5</vdop><extensions><gom:speed>1.009</gom:speed></extensions></trkpt>
   <trkpt lat="59.3032578819" lon="34.6772770897"><ele>162.542</ele><time>2026-08-16T16:06:10.239Z</time><hdop>3.0</hdop><vdop>2.5</vdop><extensions><gom:speed>0.985</gom:speed></extensions></trkpt>
   <trkpt lat="59.303264797" lon="34.6772867289"><ele>162.326</ele><time>2026-08-16T16:06:11.136Z</time><hdop>3.0</hdop><vdop>2.5</vdop><extensions><gom:speed>0.946</gom:speed></extensions></trkpt>
   <trkpt lat="59.3032736818" lon="34.6772922609"><ele>161.916</ele><time>2026-08-16T16:06:12.136Z</time><hdop>3.0</hdop><vdop>2.5</vdop><extensions><gom:speed>0.933</gom:speed></extensions></trkpt>
   <trkpt lat="59.303279591" lon="34.6772955299"><ele>161.671</ele><time>2026-08-16T16:06:12.742Z</time><hdop>3.0</hdop><vdop>2.5</vdop><extensions><gom:speed>0.994</gom:speed></extensions></trkpt>
   <trkpt lat="59.3032848716" lon="34.677303325"><ele>161.359</ele><time>2026-08-16T16:06:13.400Z</time><hdop>3.0</hdop><vdop>2.5</vdop><extensions><gom:speed>1.043</gom:speed></extensions></trkpt>
   <trkpt lat="59.3032885597" lon="34.6773092762"><ele>161.173</ele><time>2026-08-16T16:06:13.860Z</time><hdop>3.0</hdop><vdop>2.5</vdop><extensions><gom:speed>1.043</gom:speed></extensions></trkpt>
   <trkpt lat="59.3032936726" lon="34.6773165684"><ele>161.032</ele><time>2026-08-16T16:06:14.519Z</time><hdop>3.0</hdop><vdop>2.5</vdop><extensions><gom:speed>1.051</gom:speed></extensions></trkpt>
   <trkpt lat="59.3032986599" lon="34.6773225196"><ele>160.948</ele><time>2026-08-16T16:06:15.059Z</time><hdop>3.0</hdop><vdop>2.5</vdop><extensions><gom:speed>1.049</gom:speed></extensions></trkpt>
   <trkpt lat="59.3033042758" lon="34.6773295604"><ele>160.868</ele><time>2026-08-16T16:06:15.736Z</time><hdop>3.0</hdop><vdop>2.5</vdop><extensions><gom:speed>1.032</gom:speed></extensions></trkpt>
   <trkpt lat="59.3033079638" lon="34.6773347572"><ele>160.792</ele><time>2026-08-16T16:06:16.256Z</time><hdop>3.0</hdop><vdop>2.5</vdop><extensions><gom:speed>1.01</gom:speed></extensions></trkpt>
   <trkpt lat="59.3033153818" lon="34.6773407921"><ele>160.777</ele><time>2026-08-16T16:06:17.136Z</time><hdop>3.0</hdop><vdop>2.5</vdop><extensions><gom:speed>0.991</gom:speed></extensions></trkpt>
   <trkpt lat="59.3033233865" lon="34.67734733"><ele>160.931</ele><time>2026-08-16T16:06:18.135Z</time><hdop>3.0</hdop><vdop>2.5</vdop><extensions><gom:speed>0.979</gom:speed></extensions></trkpt>
   <trkpt lat="59.3033288766" lon="34.6773545385"><ele>161.023</ele><time>2026-08-16T16:06:18.877Z</time><hdop>3.0</hdop><vdop>2.5</vdop><extensions><gom:speed>0.999</gom:speed></extensions></trkpt>
   <trkpt lat="59.3033360851" lon="34.6773599867"><ele>161.075</ele><time>2026-08-16T16:06:19.780Z</time><hdop>3.0</hdop><vdop>2.5</vdop><extensions><gom:speed>0.992</gom:speed></extensions></trkpt>
   <trkpt lat="59.3033408628" lon="34.677357053"><ele>161.207</ele><time>2026-08-16T16:06:20.339Z</time><hdop>3.0</hdop><vdop>2.5</vdop><extensions><gom:speed>0.954</gom:speed></extensions></trkpt>
   <trkpt lat="59.3033477778" lon="34.6773550414"><ele>161.286</ele><time>2026-08-16T16:06:21.016Z</time><hdop>3.0</hdop><vdop>2.5</vdop><extensions><gom:speed>0.985</gom:speed></extensions></trkpt>
   <trkpt lat="59.3033534775" lon="34.6773545385"><ele>161.458</ele><time>2026-08-16T16:06:21.664Z</time><hdop>3.0</hdop><vdop>2.5</vdop><extensions><gom:speed>1.009</gom:speed></extensions></trkpt>
   <trkpt lat="59.3033575847" lon="34.6773549576"><ele>161.739</ele><time>2026-08-16T16:06:22.136Z</time><hdop>3.0</hdop><vdop>2.5</vdop><extensions><gom:speed>0.983</gom:speed></extensions></trkpt>
   <trkpt lat="59.3033671819" lon="34.6773536164"><ele>161.906</ele><time>2026-08-16T16:06:23.117Z</time><hdop>3.0</hdop><vdop>2.5</vdop><extensions><gom:speed>1.015</gom:speed></extensions></trkpt>
   <trkpt lat="59.3033720853" lon="34.6773591485"><ele>162.319</ele><time>2026-08-16T16:06:23.824Z</time><hdop>3.0</hdop><vdop>2.5</vdop><extensions><gom:speed>0.965</gom:speed></extensions></trkpt>
   <trkpt lat="59.3033767792" lon="34.6773702964"><ele>162.763</ele><time>2026-08-16T16:06:24.658Z</time><hdop>3.0</hdop><vdop>2.5</vdop><extensions><gom:speed>0.893</gom:speed></extensions></trkpt>
   <trkpt lat="59.3033801739" lon="34.6773754932"><ele>163.242</ele><time>2026-08-16T16:06:25.135Z</time><hdop>3.0</hdop><vdop>2.5</vdop><extensions><gom:speed>0.895</gom:speed></extensions></trkpt>
   <trkpt lat="59.3033855802" lon="34.6773801871"><ele>163.528</ele><time>2026-08-16T16:06:25.777Z</time><hdop>3.0</hdop><vdop>2.5</vdop><extensions><gom:speed>0.904</gom:speed></extensions></trkpt>
   <trkpt lat="59.3033929982" lon="34.6773882337"><ele>163.443</ele><time>2026-08-16T16:06:26.601Z</time><hdop>3.0</hdop><vdop>2.5</vdop><extensions><gom:speed>0.967</gom:speed></extensions></trkpt>
   <trkpt lat="59.3033976921" lon="34.6773933467"><ele>163.431</ele><time>2026-08-16T16:06:27.136Z</time><hdop>3.0</hdop><vdop>2.5</vdop><extensions><gom:speed>0.969</gom:speed></extensions></trkpt>
   <trkpt lat="59.3034045652" lon="34.6774017286"><ele>163.423</ele><time>2026-08-16T16:06:27.897Z</time><hdop>3.0</hdop><vdop>2.5</vdop><extensions><gom:speed>1.04</gom:speed></extensions></trkpt>
   <trkpt lat="59.3034096782" lon="34.677405249"><ele>163.277</ele><time>2026-08-16T16:06:28.397Z</time><hdop>3.0</hdop><vdop>2.5</vdop><extensions><gom:speed>1.062</gom:speed></extensions></trkpt>
   <trkpt lat="59.3034158808" lon="34.677409859"><ele>163.034</ele><time>2026-08-16T16:06:29.136Z</time><hdop>3.0</hdop><vdop>2.5</vdop><extensions><gom:speed>0.982</gom:speed></extensions></trkpt>
   <trkpt lat="59.3034221672" lon="34.6774148882"><ele>162.889</ele><time>2026-08-16T16:06:29.821Z</time><hdop>3.0</hdop><vdop>2.5</vdop><extensions><gom:speed>1.013</gom:speed></extensions></trkpt>
   <trkpt lat="59.3034283698" lon="34.6774183247"><ele>162.892</ele><time>2026-08-16T16:06:30.557Z</time><hdop>3.0</hdop><vdop>2.5</vdop><extensions><gom:speed>0.99</gom:speed></extensions></trkpt>
   <trkpt lat="59.303433399" lon="34.6774216775"><ele>162.893</ele><time>2026-08-16T16:06:31.097Z</time><hdop>3.0</hdop><vdop>2.5</vdop><extensions><gom:speed>0.991</gom:speed></extensions></trkpt>
   <trkpt lat="59.3034416971" lon="34.677423773"><ele>163.093</ele><time>2026-08-16T16:06:31.999Z</time><hdop>3.0</hdop><vdop>2.5</vdop><extensions><gom:speed>0.97</gom:speed></extensions></trkpt>
   <trkpt lat="59.3034496599" lon="34.6774286345"><ele>163.017</ele><time>2026-08-16T16:06:33.136Z</time><hdop>3.0</hdop><vdop>2.5</vdop><extensions><gom:speed>1.007</gom:speed></extensions></trkpt>
   <trkpt lat="59.3034578741" lon="34.6774342504"><ele>162.972</ele><time>2026-08-16T16:06:34.080Z</time><hdop>3.0</hdop><vdop>2.5</vdop><extensions><gom:speed>0.977</gom:speed></extensions></trkpt>
   <trkpt lat="59.3034654597" lon="34.6774285507"><ele>162.873</ele><time>2026-08-16T16:06:35.136Z</time><hdop>3.0</hdop><vdop>2.5</vdop><extensions><gom:speed>0.896</gom:speed></extensions></trkpt>
   <trkpt lat="59.303472291" lon="34.6774193306"><ele>162.814</ele><time>2026-08-16T16:06:36.063Z</time><hdop>3.0</hdop><vdop>2.5</vdop><extensions><gom:speed>0.889</gom:speed></extensions></trkpt>
   <trkpt lat="59.3034758952" lon="34.6774103619"><ele>162.902</ele><time>2026-08-16T16:06:36.721Z</time><hdop>3.0</hdop><vdop>2.5</vdop><extensions><gom:speed>0.869</gom:speed></extensions></trkpt>
   <trkpt lat="59.3034807986" lon="34.6773949392"><ele>162.872</ele><time>2026-08-16T16:06:37.682Z</time><hdop>3.0</hdop><vdop>2.5</vdop><extensions><gom:speed>0.895</gom:speed></extensions></trkpt>
   <trkpt lat="59.3034835647" lon="34.6773897424"><ele>163.01</ele><time>2026-08-16T16:06:38.136Z</time><hdop>3.0</hdop><vdop>2.5</vdop><extensions><gom:speed>0.88</gom:speed></extensions></trkpt>
   <trkpt lat="59.3034908988" lon="34.6773854677"><ele>163.093</ele><time>2026-08-16T16:06:38.978Z</time><hdop>3.0</hdop><vdop>2.5</vdop><extensions><gom:speed>0.891</gom:speed></extensions></trkpt>
   <trkpt lat="59.3034979815" lon="34.6773842942"><ele>162.802</ele><time>2026-08-16T16:06:39.803Z</time><hdop>3.0</hdop><vdop>2.5</vdop><extensions><gom:speed>0.938</gom:speed></extensions></trkpt>
   <trkpt lat="59.3035016696" lon="34.6773824502"><ele>162.586</ele><time>2026-08-16T16:06:40.283Z</time><hdop>3.0</hdop><vdop>2.5</vdop><extensions><gom:speed>0.912</gom:speed></extensions></trkpt>
   <trkpt lat="59.3035092971" lon="34.6773774211"><ele>162.457</ele><time>2026-08-16T16:06:41.059Z</time><hdop>3.0</hdop><vdop>2.5</vdop><extensions><gom:speed>1.016</gom:speed></extensions></trkpt>
   <trkpt lat="59.303513991" lon="34.6773763314"><ele>162.495</ele><time>2026-08-16T16:06:41.559Z</time><hdop>3.0</hdop><vdop>2.5</vdop><extensions><gom:speed>1.052</gom:speed></extensions></trkpt>
   <trkpt lat="59.3035186848" lon="34.6773772534"><ele>162.437</ele><time>2026-08-16T16:06:42.136Z</time><hdop>3.0</hdop><vdop>2.5</vdop><extensions><gom:speed>1.018</gom:speed></extensions></trkpt>
   <trkpt lat="59.3035257675" lon="34.6773783431"><ele>162.402</ele><time>2026-08-16T16:06:42.856Z</time><hdop>3.0</hdop><vdop>2.5</vdop><extensions><gom:speed>1.037</gom:speed></extensions></trkpt>
   <trkpt lat="59.3035322635" lon="34.6773766667"><ele>162.39</ele><time>2026-08-16T16:06:43.641Z</time><hdop>3.0</hdop><vdop>2.5</vdop><extensions><gom:speed>1.026</gom:speed></extensions></trkpt>
   <trkpt lat="59.3035367897" lon="34.6773731463"><ele>162.383</ele><time>2026-08-16T16:06:44.142Z</time><hdop>3.0</hdop><vdop>2.5</vdop><extensions><gom:speed>1.03</gom:speed></extensions></trkpt>
   <trkpt lat="59.3035436629" lon="34.6773674466"><ele>162.473</ele><time>2026-08-16T16:06:45.136Z</time><hdop>3.0</hdop><vdop>2.5</vdop><extensions><gom:speed>0.984</gom:speed></extensions></trkpt>
   <trkpt lat="59.3035517934" lon="34.6773645967"><ele>162.545</ele><time>2026-08-16T16:06:46.136Z</time><hdop>3.0</hdop><vdop>2.5</vdop><extensions><gom:speed>0.949</gom:speed></extensions></trkpt>
   <trkpt lat="59.3035592952" lon="34.6773643453"><ele>162.588</ele><time>2026-08-16T16:06:46.959Z</time><hdop>3.0</hdop><vdop>2.5</vdop><extensions><gom:speed>0.998</gom:speed></extensions></trkpt>
   <trkpt lat="59.3035654978" lon="34.6773644291"><ele>162.378</ele><time>2026-08-16T16:06:47.705Z</time><hdop>3.0</hdop><vdop>2.5</vdop><extensions><gom:speed>0.969</gom:speed></extensions></trkpt>
   <trkpt lat="59.3035766876" lon="34.6773656864"><ele>162.189</ele><time>2026-08-16T16:06:49.000Z</time><hdop>3.0</hdop><vdop>2.5</vdop><extensions><gom:speed>0.968</gom:speed></extensions></trkpt>
   <trkpt lat="59.303581591" lon="34.6773669437"><ele>162.077</ele><time>2026-08-16T16:06:49.697Z</time><hdop>3.0</hdop><vdop>2.5</vdop><extensions><gom:speed>0.936</gom:speed></extensions></trkpt>
   <trkpt lat="59.3035858658" lon="34.6773710508"><ele>161.907</ele><time>2026-08-16T16:06:50.345Z</time><hdop>3.0</hdop><vdop>2.5</vdop><extensions><gom:speed>0.885</gom:speed></extensions></trkpt>
   <trkpt lat="59.3035913978" lon="34.6773763314"><ele>161.441</ele><time>2026-08-16T16:06:51.136Z</time><hdop>3.0</hdop><vdop>2.5</vdop><extensions><gom:speed>0.891</gom:speed></extensions></trkpt>
   <trkpt lat="59.303599193" lon="34.6773813605"><ele>161.163</ele><time>2026-08-16T16:06:52.082Z</time><hdop>3.0</hdop><vdop>2.5</vdop><extensions><gom:speed>0.923</gom:speed></extensions></trkpt>
   <trkpt lat="59.3036061919" lon="34.6773813605"><ele>160.995</ele><time>2026-08-16T16:06:52.956Z</time><hdop>3.0</hdop><vdop>2.5</vdop><extensions><gom:speed>0.928</gom:speed></extensions></trkpt>
   <trkpt lat="59.3036096704" lon="34.6773814444"><ele>160.995</ele><time>2026-08-16T16:06:53.437Z</time><hdop>3.0</hdop><vdop>2.5</vdop><extensions><gom:speed>0.927</gom:speed></extensions></trkpt>
   <trkpt lat="59.3036148672" lon="34.6773850486"><ele>160.978</ele><time>2026-08-16T16:06:54.136Z</time><hdop>3.0</hdop><vdop>2.5</vdop><extensions><gom:speed>0.888</gom:speed></extensions></trkpt>
   <trkpt lat="59.3036197706" lon="34.6773902454"><ele>160.967</ele><time>2026-08-16T16:06:54.703Z</time><hdop>3.0</hdop><vdop>2.5</vdop><extensions><gom:speed>0.953</gom:speed></extensions></trkpt>
   <trkpt lat="59.3036256798" lon="34.6773984596"><ele>160.776</ele><time>2026-08-16T16:06:55.498Z</time><hdop>3.0</hdop><vdop>2.5</vdop><extensions><gom:speed>0.972</gom:speed></extensions></trkpt>
   <trkpt lat="59.3036303737" lon="34.6774007227"><ele>160.661</ele><time>2026-08-16T16:06:55.999Z</time><hdop>3.0</hdop><vdop>2.5</vdop><extensions><gom:speed>0.967</gom:speed></extensions></trkpt>
   <trkpt lat="59.3036361991" lon="34.6773991302"><ele>160.43</ele><time>2026-08-16T16:06:56.764Z</time><hdop>3.0</hdop><vdop>2.5</vdop><extensions><gom:speed>0.948</gom:speed></extensions></trkpt>
   <trkpt lat="59.3036390909" lon="34.6773953583"><ele>160.357</ele><time>2026-08-16T16:06:57.284Z</time><hdop>3.0</hdop><vdop>2.5</vdop><extensions><gom:speed>0.883</gom:speed></extensions></trkpt>
   <trkpt lat="59.3036428627" lon="34.6773928438"><ele>160.313</ele><time>2026-08-16T16:06:57.736Z</time><hdop>3.0</hdop><vdop>2.5</vdop><extensions><gom:speed>0.936</gom:speed></extensions></trkpt>
   <trkpt lat="59.3036476823" lon="34.677391335"><ele>160.223</ele><time>2026-08-16T16:06:58.737Z</time><hdop>3.0</hdop><vdop>2.5</vdop><extensions><gom:speed>0.721</gom:speed></extensions></trkpt>
   <trkpt lat="59.3036492749" lon="34.6773920894"><ele>160.457</ele><time>2026-08-16T16:06:59.238Z</time><hdop>3.0</hdop><vdop>2.5</vdop><extensions><gom:speed>0.728</gom:speed></extensions></trkpt>
   <trkpt lat="59.3036535916" lon="34.6773920894"><ele>160.597</ele><time>2026-08-16T16:06:59.836Z</time><hdop>3.0</hdop><vdop>2.5</vdop><extensions><gom:speed>0.765</gom:speed></extensions></trkpt>
   <trkpt lat="59.3036587883" lon="34.6773893234"><ele>160.69</ele><time>2026-08-16T16:07:00.582Z</time><hdop>3.0</hdop><vdop>2.5</vdop><extensions><gom:speed>0.866</gom:speed></extensions></trkpt>
   <trkpt lat="59.3036633984" lon="34.6773881499"><ele>160.747</ele><time>2026-08-16T16:07:01.102Z</time><hdop>3.0</hdop><vdop>2.5</vdop><extensions><gom:speed>0.867</gom:speed></extensions></trkpt>
   <trkpt lat="59.3036681761" lon="34.6773900777"><ele>160.812</ele><time>2026-08-16T16:07:01.701Z</time><hdop>3.0</hdop><vdop>2.5</vdop><extensions><gom:speed>0.916</gom:speed></extensions></trkpt>
   <trkpt lat="59.3036733729" lon="34.677395023"><ele>161.065</ele><time>2026-08-16T16:07:02.398Z</time><hdop>3.0</hdop><vdop>2.5</vdop><extensions><gom:speed>0.923</gom:speed></extensions></trkpt>
   <trkpt lat="59.3036792821" lon="34.6773988787"><ele>161.216</ele><time>2026-08-16T16:07:03.105Z</time><hdop>3.0</hdop><vdop>2.5</vdop><extensions><gom:speed>0.931</gom:speed></extensions></trkpt>
   <trkpt lat="59.3036840598" lon="34.6773999684"><ele>161.344</ele><time>2026-08-16T16:07:03.664Z</time><hdop>3.0</hdop><vdop>2.5</vdop><extensions><gom:speed>0.973</gom:speed></extensions></trkpt>
   <trkpt lat="59.3036877897" lon="34.6774015609"><ele>161.461</ele><time>2026-08-16T16:07:04.136Z</time><hdop>3.0</hdop><vdop>2.5</vdop><extensions><gom:speed>0.934</gom:speed></extensions></trkpt>
   <trkpt lat="59.3036949982" lon="34.677405249"><ele>161.531</ele><time>2026-08-16T16:07:04.940Z</time><hdop>3.0</hdop><vdop>2.5</vdop><extensions><gom:speed>1.017</gom:speed></extensions></trkpt>
   <trkpt lat="59.3037005721" lon="34.6774090208"><ele>161.487</ele><time>2026-08-16T16:07:05.617Z</time><hdop>3.0</hdop><vdop>2.5</vdop><extensions><gom:speed>1.011</gom:speed></extensions></trkpt>
   <trkpt lat="59.3037051822" lon="34.6774119545"><ele>161.368</ele><time>2026-08-16T16:07:06.136Z</time><hdop>3.0</hdop><vdop>2.5</vdop><extensions><gom:speed>0.95</gom:speed></extensions></trkpt>
   <trkpt lat="59.3037125583" lon="34.6774147205"><ele>161.296</ele><time>2026-08-16T16:07:06.863Z</time><hdop>3.0</hdop><vdop>2.5</vdop><extensions><gom:speed>1.024</gom:speed></extensions></trkpt>
   <trkpt lat="59.3037201858" lon="34.6774146367"><ele>161.217</ele><time>2026-08-16T16:07:07.659Z</time><hdop>3.0</hdop><vdop>2.5</vdop><extensions><gom:speed>1.025</gom:speed></extensions></trkpt>
   <trkpt lat="59.3037253826" lon="34.6774137985"><ele>161.171</ele><time>2026-08-16T16:07:08.140Z</time><hdop>3.0</hdop><vdop>2.5</vdop><extensions><gom:speed>1.036</gom:speed></extensions></trkpt>
   <trkpt lat="59.3037331777" lon="34.6774152234"><ele>161.123</ele><time>2026-08-16T16:07:08.945Z</time><hdop>3.0</hdop><vdop>2.5</vdop><extensions><gom:speed>1.043</gom:speed></extensions></trkpt>
   <trkpt lat="59.3037365724" lon="34.6774151396"><ele>161.194</ele><time>2026-08-16T16:07:09.437Z</time><hdop>3.0</hdop><vdop>2.5</vdop><extensions><gom:speed>1.039</gom:speed></extensions></trkpt>
   <trkpt lat="59.3037417692" lon="34.6774118707"><ele>161.179</ele><time>2026-08-16T16:07:10.136Z</time><hdop>3.0</hdop><vdop>2.5</vdop><extensions><gom:speed>1.005</gom:speed></extensions></trkpt>
   <trkpt lat="59.3037464631" lon="34.6774075959"><ele>161.17</ele><time>2026-08-16T16:07:10.663Z</time><hdop>3.0</hdop><vdop>2.5</vdop><extensions><gom:speed>1.048</gom:speed></extensions></trkpt>
   <trkpt lat="59.3037493967" lon="34.6774025668"><ele>160.982</ele><time>2026-08-16T16:07:11.136Z</time><hdop>3.0</hdop><vdop>2.5</vdop><extensions><gom:speed>0.987</gom:speed></extensions></trkpt>
   <trkpt lat="59.3037554736" lon="34.6773952745"><ele>160.869</ele><time>2026-08-16T16:07:11.861Z</time><hdop>3.0</hdop><vdop>2.5</vdop><extensions><gom:speed>1.041</gom:speed></extensions></trkpt>
   <trkpt lat="59.3037633945" lon="34.677388569"><ele>160.877</ele><time>2026-08-16T16:07:12.803Z</time><hdop>3.0</hdop><vdop>2.5</vdop><extensions><gom:speed>1.013</gom:speed></extensions></trkpt>
   <trkpt lat="59.3037670825" lon="34.6773856353"><ele>160.943</ele><time>2026-08-16T16:07:13.343Z</time><hdop>3.0</hdop><vdop>2.5</vdop><extensions><gom:speed>0.975</gom:speed></extensions></trkpt>
   <trkpt lat="59.3037743748" lon="34.6773820311"><ele>160.982</ele><time>2026-08-16T16:07:14.099Z</time><hdop>3.0</hdop><vdop>2.5</vdop><extensions><gom:speed>0.976</gom:speed></extensions></trkpt>
   <trkpt lat="59.3037790687" lon="34.6773810253"><ele>161.232</ele><time>2026-08-16T16:07:14.658Z</time><hdop>3.0</hdop><vdop>2.5</vdop><extensions><gom:speed>1.001</gom:speed></extensions></trkpt>
   <trkpt lat="59.3037827986" lon="34.6773836237"><ele>161.3</ele><time>2026-08-16T16:07:15.136Z</time><hdop>3.0</hdop><vdop>2.5</vdop><extensions><gom:speed>0.948</gom:speed></extensions></trkpt>
   <trkpt lat="59.3037913901" lon="34.6773907483"><ele>161.279</ele><time>2026-08-16T16:07:16.136Z</time><hdop>3.0</hdop><vdop>2.5</vdop><extensions><gom:speed>0.963</gom:speed></extensions></trkpt>
   <trkpt lat="59.3037989757" lon="34.6773871441"><ele>161.267</ele><time>2026-08-16T16:07:16.984Z</time><hdop>3.0</hdop><vdop>2.5</vdop><extensions><gom:speed>0.976</gom:speed></extensions></trkpt>
   <trkpt lat="59.3038035857" lon="34.6773844618"><ele>161.251</ele><time>2026-08-16T16:07:17.740Z</time><hdop>3.0</hdop><vdop>2.5</vdop><extensions><gom:speed>0.926</gom:speed></extensions></trkpt>
   <trkpt lat="59.3038060584" lon="34.6773943525"><ele>161.114</ele><time>2026-08-16T16:07:18.300Z</time><hdop>3.0</hdop><vdop>2.5</vdop><extensions><gom:speed>0.864</gom:speed></extensions></trkpt>
   <trkpt lat="59.3038087825" lon="34.677404327"><ele>161.032</ele><time>2026-08-16T16:07:18.898Z</time><hdop>3.0</hdop><vdop>2.5</vdop><extensions><gom:speed>0.907</gom:speed></extensions></trkpt>
   <trkpt lat="59.3038123867" lon="34.677419582"><ele>160.825</ele><time>2026-08-16T16:07:19.821Z</time><hdop>3.0</hdop><vdop>2.5</vdop><extensions><gom:speed>0.868</gom:speed></extensions></trkpt>
   <trkpt lat="59.3038155718" lon="34.6774252817"><ele>160.539</ele><time>2026-08-16T16:07:20.341Z</time><hdop>3.0</hdop><vdop>2.5</vdop><extensions><gom:speed>0.832</gom:speed></extensions></trkpt>
   <trkpt lat="59.3038211877" lon="34.6774326578"><ele>160.368</ele><time>2026-08-16T16:07:21.136Z</time><hdop>3.0</hdop><vdop>2.5</vdop><extensions><gom:speed>0.848</gom:speed></extensions></trkpt>
   <trkpt lat="59.3038260911" lon="34.677439028"><ele>160.286</ele><time>2026-08-16T16:07:21.676Z</time><hdop>3.0</hdop><vdop>2.5</vdop><extensions><gom:speed>0.944</gom:speed></extensions></trkpt>
   <trkpt lat="59.3038302821" lon="34.6774435543"><ele>160.162</ele><time>2026-08-16T16:07:22.136Z</time><hdop>3.0</hdop><vdop>2.5</vdop><extensions><gom:speed>0.962</gom:speed></extensions></trkpt>
   <trkpt lat="59.3038400889" lon="34.6774448954"><ele>159.777</ele><time>2026-08-16T16:07:23.136Z</time><hdop>3.0</hdop><vdop>2.5</vdop><extensions><gom:speed>0.995</gom:speed></extensions></trkpt>
   <trkpt lat="59.3038478841" lon="34.6774430514"><ele>159.547</ele><time>2026-08-16T16:07:23.825Z</time><hdop>3.0</hdop><vdop>2.5</vdop><extensions><gom:speed>1.063</gom:speed></extensions></trkpt>
   <trkpt lat="59.3038517817" lon="34.6774356753"><ele>159.448</ele><time>2026-08-16T16:07:24.385Z</time><hdop>3.0</hdop><vdop>2.5</vdop><extensions><gom:speed>1.073</gom:speed></extensions></trkpt>
   <trkpt lat="59.3038558888" lon="34.6774234377"><ele>159.39</ele><time>2026-08-16T16:07:25.121Z</time><hdop>3.0</hdop><vdop>2.5</vdop><extensions><gom:speed>1.097</gom:speed></extensions></trkpt>
   <trkpt lat="59.3038667853" lon="34.6774276287"><ele>159.223</ele><time>2026-08-16T16:07:26.136Z</time><hdop>3.0</hdop><vdop>2.5</vdop><extensions><gom:speed>1.193</gom:speed></extensions></trkpt>
   <trkpt lat="59.3038688807" lon="34.6774447277"><ele>159.124</ele><time>2026-08-16T16:07:26.937Z</time><hdop>3.0</hdop><vdop>2.5</vdop><extensions><gom:speed>1.138</gom:speed></extensions></trkpt>
   <trkpt lat="59.3038706829" lon="34.6774540316"><ele>158.892</ele><time>2026-08-16T16:07:27.643Z</time><hdop>3.0</hdop><vdop>2.5</vdop><extensions><gom:speed>1.045</gom:speed></extensions></trkpt>
   <trkpt lat="59.3038734908" lon="34.6774606533"><ele>158.753</ele><time>2026-08-16T16:07:28.124Z</time><hdop>3.0</hdop><vdop>2.5</vdop><extensions><gom:speed>1.05</gom:speed></extensions></trkpt>
   <trkpt lat="59.3038808669" lon="34.6774688676"><ele>158.388</ele><time>2026-08-16T16:07:29.136Z</time><hdop>3.062</hdop><vdop>2.5</vdop><extensions><gom:speed>0.946</gom:speed></extensions></trkpt>
   <trkpt lat="59.3038883687" lon="34.6774798479"><ele>158.178</ele><time>2026-08-16T16:07:30.136Z</time><hdop>3.062</hdop><vdop>2.5</vdop><extensions><gom:speed>0.962</gom:speed></extensions></trkpt>
   <trkpt lat="59.3038921824" lon="34.6774856314"><ele>158.053</ele><time>2026-08-16T16:07:30.617Z</time><hdop>3.125</hdop><vdop>2.5</vdop><extensions><gom:speed>1.038</gom:speed></extensions></trkpt>
   <trkpt lat="59.3038968763" lon="34.677491834"><ele>158.167</ele><time>2026-08-16T16:07:31.135Z</time><hdop>3.125</hdop><vdop>2.5</vdop><extensions><gom:speed>1.032</gom:speed></extensions></trkpt>
   <trkpt lat="59.3039024922" lon="34.6775018923"><ele>158.235</ele><time>2026-08-16T16:07:31.864Z</time><hdop>3.187</hdop><vdop>2.5</vdop><extensions><gom:speed>1.072</gom:speed></extensions></trkpt>
   <trkpt lat="59.3039156937" lon="34.6775137946"><ele>158.311</ele><time>2026-08-16T16:07:33.061Z</time><hdop>3.25</hdop><vdop>2.5</vdop><extensions><gom:speed>1.105</gom:speed></extensions></trkpt>
   <trkpt lat="59.3039243689" lon="34.6775237691"><ele>158.423</ele><time>2026-08-16T16:07:33.856Z</time><hdop>3.25</hdop><vdop>2.5</vdop><extensions><gom:speed>1.11</gom:speed></extensions></trkpt>
   <trkpt lat="59.3039298591" lon="34.6775317319"><ele>158.536</ele><time>2026-08-16T16:07:34.395Z</time><hdop>3.187</hdop><vdop>2.5</vdop><extensions><gom:speed>1.121</gom:speed></extensions></trkpt>
   <trkpt lat="59.3039366903" lon="34.6775428798"><ele>158.467</ele><time>2026-08-16T16:07:35.136Z</time><hdop>3.187</hdop><vdop>2.5</vdop><extensions><gom:speed>1.091</gom:speed></extensions></trkpt>
   <trkpt lat="59.3039419709" lon="34.6775503397"><ele>158.426</ele><time>2026-08-16T16:07:35.662Z</time><hdop>3.125</hdop><vdop>2.5</vdop><extensions><gom:speed>1.113</gom:speed></extensions></trkpt>
   <trkpt lat="59.3039468744" lon="34.6775561232"><ele>158.527</ele><time>2026-08-16T16:07:36.136Z</time><hdop>3.125</hdop><vdop>2.5</vdop><extensions><gom:speed>1.075</gom:speed></extensions></trkpt>
   <trkpt lat="59.30395446" lon="34.6775662653"><ele>158.587</ele><time>2026-08-16T16:07:36.938Z</time><hdop>3.062</hdop><vdop>2.5</vdop><extensions><gom:speed>1.092</gom:speed></extensions></trkpt>
   <trkpt lat="59.3039612912" lon="34.6775751501"><ele>158.614</ele><time>2026-08-16T16:07:37.704Z</time><hdop>3.062</hdop><vdop>2.5</vdop><extensions><gom:speed>1.06</gom:speed></extensions></trkpt>
   <trkpt lat="59.3039718943" lon="34.6775889803"><ele>158.703</ele><time>2026-08-16T16:07:38.960Z</time><hdop>3.0</hdop><vdop>2.5</vdop><extensions><gom:speed>1.042</gom:speed></extensions></trkpt>
   <trkpt lat="59.3039757919" lon="34.6775947638"><ele>158.86</ele><time>2026-08-16T16:07:39.461Z</time><hdop>3.0</hdop><vdop>2.5</vdop><extensions><gom:speed>1.048</gom:speed></extensions></trkpt>
   <trkpt lat="59.3039807792" lon="34.6776035648"><ele>159.09</ele><time>2026-08-16T16:07:40.136Z</time><hdop>3.0</hdop><vdop>2.5</vdop><extensions><gom:speed>1.02</gom:speed></extensions></trkpt>
   <trkpt lat="59.3039856826" lon="34.6776120305"><ele>159.227</ele><time>2026-08-16T16:07:40.756Z</time><hdop>3.0</hdop><vdop>2.5</vdop><extensions><gom:speed>1.04</gom:speed></extensions></trkpt>
   <trkpt lat="59.3039923881" lon="34.6776209992"><ele>159.404</ele><time>2026-08-16T16:07:41.620Z</time><hdop>3.0</hdop><vdop>2.5</vdop><extensions><gom:speed>1.013</gom:speed></extensions></trkpt>
   <trkpt lat="59.3039967886" lon="34.6776261959"><ele>159.509</ele><time>2026-08-16T16:07:42.140Z</time><hdop>3.0</hdop><vdop>2.5</vdop><extensions><gom:speed>1.021</gom:speed></extensions></trkpt>
   <trkpt lat="59.3040046676" lon="34.6776282914"><ele>159.837</ele><time>2026-08-16T16:07:43.136Z</time><hdop>3.0</hdop><vdop>2.5</vdop><extensions><gom:speed>0.74</gom:speed></extensions></trkpt>
   <trkpt lat="59.3040116665" lon="34.6776290458"><ele>160.529</ele><time>2026-08-16T16:07:44.136Z</time><hdop>3.0</hdop><vdop>2.5</vdop><extensions><gom:speed>0.685</gom:speed></extensions></trkpt>
   <trkpt lat="59.3040163603" lon="34.6776287943"><ele>160.787</ele><time>2026-08-16T16:07:45.136Z</time><hdop>3.0</hdop><vdop>2.5</vdop><extensions><gom:speed>0.398</gom:speed></extensions></trkpt>
   <trkpt lat="59.3040176595" lon="34.6776260283"><ele>160.923</ele><time>2026-08-16T16:07:46.136Z</time><hdop>3.0</hdop><vdop>2.5</vdop><extensions><gom:speed>0.193</gom:speed></extensions></trkpt>
   <trkpt lat="59.3040174919" lon="34.6776251901"><ele>161.005</ele><time>2026-08-16T16:07:46.596Z</time><hdop>3.0</hdop><vdop>2.5</vdop><extensions><gom:speed>0.123</gom:speed></extensions></trkpt>
   <trkpt lat="59.3040191683" lon="34.677625693"><ele>161.054</ele><time>2026-08-16T16:07:47.136Z</time><hdop>3.0</hdop><vdop>2.5</vdop><extensions><gom:speed>0.221</gom:speed></extensions></trkpt>
   <trkpt lat="59.3040232754" lon="34.6776268665"><ele>161.405</ele><time>2026-08-16T16:07:48.136Z</time><hdop>3.0</hdop><vdop>2.5</vdop><extensions><gom:speed>0.28</gom:speed></extensions></trkpt>
   <trkpt lat="59.3040254966" lon="34.67762804"><ele>161.614</ele><time>2026-08-16T16:07:48.657Z</time><hdop>3.0</hdop><vdop>2.5</vdop><extensions><gom:speed>0.257</gom:speed></extensions></trkpt>
   <trkpt lat="59.3040295618" lon="34.6776299678"><ele>161.91</ele><time>2026-08-16T16:07:49.136Z</time><hdop>3.0</hdop><vdop>2.5</vdop><extensions><gom:speed>0.381</gom:speed></extensions></trkpt>
   <trkpt lat="59.3040341719" lon="34.677631728"><ele>162.086</ele><time>2026-08-16T16:07:49.883Z</time><hdop>3.0</hdop><vdop>2.5</vdop><extensions><gom:speed>0.414</gom:speed></extensions></trkpt>
   <trkpt lat="59.3040413803" lon="34.6776352484"><ele>162.431</ele><time>2026-08-16T16:07:50.385Z</time><hdop>3.0</hdop><vdop>2.5</vdop><extensions><gom:speed>0.647</gom:speed></extensions></trkpt>
   <trkpt lat="59.3040487983" lon="34.6776360866"><ele>162.649</ele><time>2026-08-16T16:07:51.136Z</time><hdop>3.0</hdop><vdop>2.5</vdop><extensions><gom:speed>0.713</gom:speed></extensions></trkpt>
   <trkpt lat="59.3040540789" lon="34.6776299678"><ele>162.683</ele><time>2026-08-16T16:07:52.136Z</time><hdop>3.0</hdop><vdop>2.5</vdop><extensions><gom:speed>0.41</gom:speed></extensions></trkpt>
   <trkpt lat="59.3040556715" lon="34.6776258607"><ele>162.688</ele><time>2026-08-16T16:07:53.136Z</time><hdop>3.0</hdop><vdop>2.5</vdop><extensions><gom:speed>0.224</gom:speed></extensions></trkpt>
   <trkpt lat="59.304055881" lon="34.6776241843"><ele>162.686</ele><time>2026-08-16T16:07:54.136Z</time><hdop>3.0</hdop><vdop>2.5</vdop><extensions><gom:speed>0.115</gom:speed></extensions></trkpt>
   <trkpt lat="59.304055881" lon="34.6776237652"><ele>162.752</ele><time>2026-08-16T16:07:55.136Z</time><hdop>3.0</hdop><vdop>2.5</vdop><extensions><gom:speed>0.093</gom:speed></extensions></trkpt>
   <trkpt lat="59.3040569707" lon="34.6776230946"><ele>162.717</ele><time>2026-08-16T16:07:56.136Z</time><hdop>3.0</hdop><vdop>2.5</vdop><extensions><gom:speed>0.103</gom:speed></extensions></trkpt>
   <trkpt lat="59.3040577669" lon="34.677622927"><ele>162.696</ele><time>2026-08-16T16:07:57.020Z</time><hdop>3.0</hdop><vdop>2.5</vdop><extensions><gom:speed>0.127</gom:speed></extensions></trkpt>
   <trkpt lat="59.3040608682" lon="34.6776243519"><ele>162.679</ele><time>2026-08-16T16:07:57.697Z</time><hdop>3.0</hdop><vdop>2.5</vdop><extensions><gom:speed>0.176</gom:speed></extensions></trkpt>
   <trkpt lat="59.3040650592" lon="34.6776301354"><ele>162.656</ele><time>2026-08-16T16:07:58.256Z</time><hdop>3.0</hdop><vdop>2.5</vdop><extensions><gom:speed>0.351</gom:speed></extensions></trkpt>
   <trkpt lat="59.304066987" lon="34.6776353322"><ele>162.642</ele><time>2026-08-16T16:07:59.061Z</time><hdop>3.0</hdop><vdop>2.5</vdop><extensions><gom:speed>0.323</gom:speed></extensions></trkpt>
   <trkpt lat="59.3040759976" lon="34.6776527666"><ele>162.784</ele><time>2026-08-16T16:08:00.135Z</time><hdop>3.0</hdop><vdop>2.5</vdop><extensions><gom:speed>0.591</gom:speed></extensions></trkpt>
   <trkpt lat="59.3040811944" lon="34.6776626572"><ele>162.869</ele><time>2026-08-16T16:08:01.024Z</time><hdop>3.0</hdop><vdop>2.5</vdop><extensions><gom:speed>0.556</gom:speed></extensions></trkpt>
   <trkpt lat="59.304083667" lon="34.6776816841"><ele>163.262</ele><time>2026-08-16T16:08:02.136Z</time><hdop>3.0</hdop><vdop>2.5</vdop><extensions><gom:speed>0.584</gom:speed></extensions></trkpt>
   <trkpt lat="59.3040849662" lon="34.6776984479"><ele>163.751</ele><time>2026-08-16T16:08:03.136Z</time><hdop>3.0</hdop><vdop>2.5</vdop><extensions><gom:speed>0.605</gom:speed></extensions></trkpt>
   <trkpt lat="59.3040875646" lon="34.6777070813"><ele>163.968</ele><time>2026-08-16T16:08:04.136Z</time><hdop>3.0</hdop><vdop>2.5</vdop><extensions><gom:speed>0.358</gom:speed></extensions></trkpt>
   <trkpt lat="59.3040938929" lon="34.6777115237"><ele>164.412</ele><time>2026-08-16T16:08:05.135Z</time><hdop>3.0</hdop><vdop>2.5</vdop><extensions><gom:speed>0.852</gom:speed></extensions></trkpt>
   <trkpt lat="59.3041002632" lon="34.6777145412"><ele>164.678</ele><time>2026-08-16T16:08:05.922Z</time><hdop>3.0</hdop><vdop>2.5</vdop><extensions><gom:speed>0.73</gom:speed></extensions></trkpt>
   <trkpt lat="59.3041032807" lon="34.6777213305"><ele>164.91</ele><time>2026-08-16T16:08:06.520Z</time><hdop>3.0</hdop><vdop>2.5</vdop><extensions><gom:speed>0.548</gom:speed></extensions></trkpt>
   <trkpt lat="59.3041053761" lon="34.6777262759"><ele>165.049</ele><time>2026-08-16T16:08:07.139Z</time><hdop>3.0</hdop><vdop>2.5</vdop><extensions><gom:speed>0.515</gom:speed></extensions></trkpt>
   <trkpt lat="59.3041073878" lon="34.6777371723"><ele>165.234</ele><time>2026-08-16T16:08:07.679Z</time><hdop>3.0</hdop><vdop>2.5</vdop><extensions><gom:speed>0.643</gom:speed></extensions></trkpt>
   <trkpt lat="59.3041088965" lon="34.6777502481"><ele>165.238</ele><time>2026-08-16T16:08:08.136Z</time><hdop>3.0</hdop><vdop>2.5</vdop><extensions><gom:speed>0.774</gom:speed></extensions></trkpt>
   <trkpt lat="59.3041121655" lon="34.6777746394"><ele>165.074</ele><time>2026-08-16T16:08:09.136Z</time><hdop>3.0</hdop><vdop>2.5</vdop><extensions><gom:speed>0.912</gom:speed></extensions></trkpt>
   <trkpt lat="59.3041149734" lon="34.6777847815"><ele>164.976</ele><time>2026-08-16T16:08:09.661Z</time><hdop>3.0</hdop><vdop>2.5</vdop><extensions><gom:speed>0.929</gom:speed></extensions></trkpt>
   <trkpt lat="59.3041178652" lon="34.6777927444"><ele>164.647</ele><time>2026-08-16T16:08:10.136Z</time><hdop>3.0</hdop><vdop>2.5</vdop><extensions><gom:speed>0.941</gom:speed></extensions></trkpt>
   <trkpt lat="59.3041244869" lon="34.6778001204"><ele>164.451</ele><time>2026-08-16T16:08:10.898Z</time><hdop>3.0</hdop><vdop>2.5</vdop><extensions><gom:speed>0.975</gom:speed></extensions></trkpt>
   <trkpt lat="59.3041290969" lon="34.6778093405"><ele>164.473</ele><time>2026-08-16T16:08:11.624Z</time><hdop>3.0</hdop><vdop>2.5</vdop><extensions><gom:speed>0.978</gom:speed></extensions></trkpt>
   <trkpt lat="59.3041317791" lon="34.6778159622"><ele>164.372</ele><time>2026-08-16T16:08:12.136Z</time><hdop>3.0</hdop><vdop>2.5</vdop><extensions><gom:speed>0.995</gom:speed></extensions></trkpt>
   <trkpt lat="59.3041378979" lon="34.6778213266"><ele>164.311</ele><time>2026-08-16T16:08:12.841Z</time><hdop>3.0</hdop><vdop>2.5</vdop><extensions><gom:speed>0.96</gom:speed></extensions></trkpt>
   <trkpt lat="59.304142969" lon="34.6778195664"><ele>164.372</ele><time>2026-08-16T16:08:13.381Z</time><hdop>3.0</hdop><vdop>2.5</vdop><extensions><gom:speed>1.027</gom:speed></extensions></trkpt>
   <trkpt lat="59.3041491716" lon="34.6778180577"><ele>164.408</ele><time>2026-08-16T16:08:13.980Z</time><hdop>3.0</hdop><vdop>2.5</vdop><extensions><gom:speed>1.037</gom:speed></extensions></trkpt>
   <trkpt lat="59.3041527758" lon="34.6778118551"><ele>164.242</ele><time>2026-08-16T16:08:14.461Z</time><hdop>3.0</hdop><vdop>2.5</vdop><extensions><gom:speed>1.08</gom:speed></extensions></trkpt>
   <trkpt lat="59.3041575954" lon="34.6778080832"><ele>164.143</ele><time>2026-08-16T16:08:14.922Z</time><hdop>3.0</hdop><vdop>2.5</vdop><extensions><gom:speed>1.089</gom:speed></extensions></trkpt>
   <trkpt lat="59.3041636723" lon="34.6777876314"><ele>163.871</ele><time>2026-08-16T16:08:16.002Z</time><hdop>3.0</hdop><vdop>2.5</vdop><extensions><gom:speed>1.09</gom:speed></extensions></trkpt>
   <trkpt lat="59.3041626665" lon="34.6777750585"><ele>163.554</ele><time>2026-08-16T16:08:16.463Z</time><hdop>3.0</hdop><vdop>2.5</vdop><extensions><gom:speed>1.055</gom:speed></extensions></trkpt>
   <trkpt lat="59.3041624988" lon="34.6777599711"><ele>163.22</ele><time>2026-08-16T16:08:17.135Z</time><hdop>3.0</hdop><vdop>2.5</vdop><extensions><gom:speed>1.051</gom:speed></extensions></trkpt>
   <trkpt lat="59.3041633789" lon="34.6777403575"><ele>162.9</ele><time>2026-08-16T16:08:18.136Z</time><hdop>3.0</hdop><vdop>2.5</vdop><extensions><gom:speed>1.01</gom:speed></extensions></trkpt>
   <trkpt lat="59.3041644686" lon="34.6777267788"><ele>162.667</ele><time>2026-08-16T16:08:19.136Z</time><hdop>3.0</hdop><vdop>2.5</vdop><extensions><gom:speed>0.918</gom:speed></extensions></trkpt>
   <trkpt lat="59.3041666898" lon="34.6777183969"><ele>162.527</ele><time>2026-08-16T16:08:19.741Z</time><hdop>3.0</hdop><vdop>2.5</vdop><extensions><gom:speed>0.913</gom:speed></extensions></trkpt>
   <trkpt lat="59.3041707969" lon="34.6777119428"><ele>162.509</ele><time>2026-08-16T16:08:20.644Z</time><hdop>3.0</hdop><vdop>2.5</vdop><extensions><gom:speed>0.897</gom:speed></extensions></trkpt>
   <trkpt lat="59.3041745688" lon="34.6777097635"><ele>162.499</ele><time>2026-08-16T16:08:21.125Z</time><hdop>3.0</hdop><vdop>2.5</vdop><extensions><gom:speed>0.895</gom:speed></extensions></trkpt>
   <trkpt lat="59.3041773767" lon="34.6777106855"><ele>162.269</ele><time>2026-08-16T16:08:21.881Z</time><hdop>3.0</hdop><vdop>2.5</vdop><extensions><gom:speed>0.841</gom:speed></extensions></trkpt>
   <trkpt lat="59.3041805618" lon="34.6777117752"><ele>162.315</ele><time>2026-08-16T16:08:22.617Z</time><hdop>3.0</hdop><vdop>2.5</vdop><extensions><gom:speed>0.844</gom:speed></extensions></trkpt>
   <trkpt lat="59.3041825735" lon="34.6777114399"><ele>162.215</ele><time>2026-08-16T16:08:23.136Z</time><hdop>3.0</hdop><vdop>2.5</vdop><extensions><gom:speed>0.842</gom:speed></extensions></trkpt>
   <trkpt lat="59.3041873931" lon="34.6777091768"><ele>162.155</ele><time>2026-08-16T16:08:23.765Z</time><hdop>3.0</hdop><vdop>2.5</vdop><extensions><gom:speed>0.902</gom:speed></extensions></trkpt>
   <trkpt lat="59.304194392" lon="34.6777053211"><ele>162.089</ele><time>2026-08-16T16:08:24.678Z</time><hdop>3.0</hdop><vdop>2.5</vdop><extensions><gom:speed>0.965</gom:speed></extensions></trkpt>
   <trkpt lat="59.3041976609" lon="34.6777023874"><ele>161.973</ele><time>2026-08-16T16:08:25.136Z</time><hdop>3.0</hdop><vdop>2.5</vdop><extensions><gom:speed>0.971</gom:speed></extensions></trkpt>
   <trkpt lat="59.3042041988" lon="34.6776962686"><ele>161.903</ele><time>2026-08-16T16:08:25.963Z</time><hdop>3.0</hdop><vdop>2.5</vdop><extensions><gom:speed>0.998</gom:speed></extensions></trkpt>
   <trkpt lat="59.3042076773" lon="34.6776926644"><ele>161.892</ele><time>2026-08-16T16:08:26.661Z</time><hdop>3.0</hdop><vdop>2.5</vdop><extensions><gom:speed>0.985</gom:speed></extensions></trkpt>
   <trkpt lat="59.3042093956" lon="34.6776901499"><ele>161.822</ele><time>2026-08-16T16:08:27.136Z</time><hdop>3.0</hdop><vdop>2.5</vdop><extensions><gom:speed>0.941</gom:speed></extensions></trkpt>
   <trkpt lat="59.3042155982" lon="34.677679421"><ele>161.78</ele><time>2026-08-16T16:08:28.123Z</time><hdop>3.062</hdop><vdop>2.5</vdop><extensions><gom:speed>0.967</gom:speed></extensions></trkpt>
   <trkpt lat="59.3042184899" lon="34.6776653394"><ele>161.634</ele><time>2026-08-16T16:08:29.036Z</time><hdop>3.062</hdop><vdop>2.5</vdop><extensions><gom:speed>0.976</gom:speed></extensions></trkpt>
   <trkpt lat="59.3042188671" lon="34.6776588854"><ele>161.645</ele><time>2026-08-16T16:08:29.537Z</time><hdop>3.062</hdop><vdop>2.5</vdop><extensions><gom:speed>0.956</gom:speed></extensions></trkpt>
   <trkpt lat="59.3042206692" lon="34.6776527666"><ele>161.731</ele><time>2026-08-16T16:08:30.136Z</time><hdop>3.062</hdop><vdop>2.5</vdop><extensions><gom:speed>0.925</gom:speed></extensions></trkpt>
   <trkpt lat="59.3042257822" lon="34.6776425406"><ele>162.024</ele><time>2026-08-16T16:08:31.136Z</time><hdop>3.062</hdop><vdop>2.5</vdop><extensions><gom:speed>0.982</gom:speed></extensions></trkpt>
   <trkpt lat="59.3042317752" lon="34.6776383497"><ele>162.2</ele><time>2026-08-16T16:08:31.842Z</time><hdop>3.062</hdop><vdop>2.5</vdop><extensions><gom:speed>0.947</gom:speed></extensions></trkpt>
   <trkpt lat="59.3042364691" lon="34.6776463963"><ele>162.105</ele><time>2026-08-16T16:08:32.363Z</time><hdop>3.062</hdop><vdop>2.5</vdop><extensions><gom:speed>0.93</gom:speed></extensions></trkpt>
   <trkpt lat="59.3042429651" lon="34.6776560355"><ele>161.801</ele><time>2026-08-16T16:08:33.136Z</time><hdop>3.0</hdop><vdop>2.5</vdop><extensions><gom:speed>0.909</gom:speed></extensions></trkpt>
   <trkpt lat="59.3042475751" lon="34.6776621543"><ele>161.619</ele><time>2026-08-16T16:08:33.660Z</time><hdop>3.0</hdop><vdop>2.5</vdop><extensions><gom:speed>0.979</gom:speed></extensions></trkpt>
   <trkpt lat="59.304250886" lon="34.6776689436"><ele>161.485</ele><time>2026-08-16T16:08:34.136Z</time><hdop>3.0</hdop><vdop>2.5</vdop><extensions><gom:speed>0.949</gom:speed></extensions></trkpt>
   <trkpt lat="59.3042576753" lon="34.6776790857"><ele>161.405</ele><time>2026-08-16T16:08:35.005Z</time><hdop>3.0</hdop><vdop>2.5</vdop><extensions><gom:speed>0.975</gom:speed></extensions></trkpt>
   <trkpt lat="59.3042622854" lon="34.6776911557"><ele>161.216</ele><time>2026-08-16T16:08:35.760Z</time><hdop>3.0</hdop><vdop>2.5</vdop><extensions><gom:speed>0.923</gom:speed></extensions></trkpt>
   <trkpt lat="59.3042703739" lon="34.6777077519"><ele>161.137</ele><time>2026-08-16T16:08:36.919Z</time><hdop>3.0</hdop><vdop>2.5</vdop><extensions><gom:speed>0.971</gom:speed></extensions></trkpt>
   <trkpt lat="59.3042754869" lon="34.6777174749"><ele>161.099</ele><time>2026-08-16T16:08:37.517Z</time><hdop>3.0</hdop><vdop>2.5</vdop><extensions><gom:speed>1.051</gom:speed></extensions></trkpt>
   <trkpt lat="59.3042807675" lon="34.677724348"><ele>160.894</ele><time>2026-08-16T16:08:38.136Z</time><hdop>3.0</hdop><vdop>2.5</vdop><extensions><gom:speed>1.012</gom:speed></extensions></trkpt>
   <trkpt lat="59.3042854613" lon="34.6777287904"><ele>160.772</ele><time>2026-08-16T16:08:38.636Z</time><hdop>3.0</hdop><vdop>2.5</vdop><extensions><gom:speed>1.012</gom:speed></extensions></trkpt>
   <trkpt lat="59.3042899876" lon="34.6777319756"><ele>160.653</ele><time>2026-08-16T16:08:39.136Z</time><hdop>3.0</hdop><vdop>2.5</vdop><extensions><gom:speed>1.006</gom:speed></extensions></trkpt>
   <trkpt lat="59.3042968607" lon="34.6777360827"><ele>160.582</ele><time>2026-08-16T16:08:39.902Z</time><hdop>3.0</hdop><vdop>2.5</vdop><extensions><gom:speed>0.962</gom:speed></extensions></trkpt>
   <trkpt lat="59.3043030633" lon="34.6777360827"><ele>160.459</ele><time>2026-08-16T16:08:40.599Z</time><hdop>3.0</hdop><vdop>2.5</vdop><extensions><gom:speed>0.972</gom:speed></extensions></trkpt>
   <trkpt lat="59.3043084697" lon="34.6777365856"><ele>160.386</ele><time>2026-08-16T16:08:41.139Z</time><hdop>3.0</hdop><vdop>2.5</vdop><extensions><gom:speed>0.978</gom:speed></extensions></trkpt>
   <trkpt lat="59.3043129959" lon="34.6777356636"><ele>160.361</ele><time>2026-08-16T16:08:41.620Z</time><hdop>3.0</hdop><vdop>2.5</vdop><extensions><gom:speed>0.983</gom:speed></extensions></trkpt>
   <trkpt lat="59.3043170611" lon="34.6777325623"><ele>160.311</ele><time>2026-08-16T16:08:42.136Z</time><hdop>3.0</hdop><vdop>2.5</vdop><extensions><gom:speed>0.941</gom:speed></extensions></trkpt>
   <trkpt lat="59.3043258621" lon="34.6777256891"><ele>160.388</ele><time>2026-08-16T16:08:43.136Z</time><hdop>3.0</hdop><vdop>2.5</vdop><extensions><gom:speed>0.983</gom:speed></extensions></trkpt>
   <trkpt lat="59.3043326934" lon="34.6777214982"><ele>160.434</ele><time>2026-08-16T16:08:43.819Z</time><hdop>3.0</hdop><vdop>2.5</vdop><extensions><gom:speed>1.016</gom:speed></extensions></trkpt>
   <trkpt lat="59.3043410753" lon="34.6777166367"><ele>160.674</ele><time>2026-08-16T16:08:44.643Z</time><hdop>3.0</hdop><vdop>2.5</vdop><extensions><gom:speed>1.069</gom:speed></extensions></trkpt>
   <trkpt lat="59.304346272" lon="34.6777142897"><ele>161.17</ele><time>2026-08-16T16:08:45.136Z</time><hdop>3.0</hdop><vdop>2.5</vdop><extensions><gom:speed>1.111</gom:speed></extensions></trkpt>
   <trkpt lat="59.3043540672" lon="34.6777122781"><ele>161.467</ele><time>2026-08-16T16:08:45.880Z</time><hdop>3.0</hdop><vdop>2.5</vdop><extensions><gom:speed>1.066</gom:speed></extensions></trkpt>
   <trkpt lat="59.3043596831" lon="34.6777128648"><ele>162.106</ele><time>2026-08-16T16:08:46.380Z</time><hdop>3.0</hdop><vdop>2.5</vdop><extensions><gom:speed>1.074</gom:speed></extensions></trkpt>
   <trkpt lat="59.3043676878" lon="34.6777143736"><ele>162.488</ele><time>2026-08-16T16:08:47.137Z</time><hdop>3.0</hdop><vdop>2.5</vdop><extensions><gom:speed>1.074</gom:speed></extensions></trkpt>
   <trkpt lat="59.304373178" lon="34.6777153794"><ele>162.925</ele><time>2026-08-16T16:08:47.656Z</time><hdop>3.0</hdop><vdop>2.5</vdop><extensions><gom:speed>1.06</gom:speed></extensions></trkpt>
   <trkpt lat="59.3043779975" lon="34.6777136192"><ele>163.187</ele><time>2026-08-16T16:08:48.119Z</time><hdop>3.0</hdop><vdop>2.5</vdop><extensions><gom:speed>1.061</gom:speed></extensions></trkpt>
   <trkpt lat="59.3043863795" lon="34.6777051535"><ele>162.862</ele><time>2026-08-16T16:08:49.136Z</time><hdop>3.0</hdop><vdop>2.5</vdop><extensions><gom:speed>1.021</gom:speed></extensions></trkpt>
   <trkpt lat="59.3043905704" lon="34.677691491"><ele>162.567</ele><time>2026-08-16T16:08:50.136Z</time><hdop>3.0</hdop><vdop>2.5</vdop><extensions><gom:speed>0.921</gom:speed></extensions></trkpt>
   <trkpt lat="59.3043960605" lon="34.677679421"><ele>162.39</ele><time>2026-08-16T16:08:51.083Z</time><hdop>3.0</hdop><vdop>2.5</vdop><extensions><gom:speed>0.926</gom:speed></extensions></trkpt>
   <trkpt lat="59.3044005868" lon="34.6776765712"><ele>161.996</ele><time>2026-08-16T16:08:51.937Z</time><hdop>3.0</hdop><vdop>2.5</vdop><extensions><gom:speed>0.795</gom:speed></extensions></trkpt>
   <trkpt lat="59.3044023889" lon="34.6776754815"><ele>161.672</ele><time>2026-08-16T16:08:52.477Z</time><hdop>3.0</hdop><vdop>2.5</vdop><extensions><gom:speed>0.809</gom:speed></extensions></trkpt>
   <trkpt lat="59.3044056997" lon="34.6776734699"><ele>161.478</ele><time>2026-08-16T16:08:52.938Z</time><hdop>3.0</hdop><vdop>2.5</vdop><extensions><gom:speed>0.81</gom:speed></extensions></trkpt>
   <trkpt lat="59.3044115671" lon="34.677672464"><ele>161.365</ele><time>2026-08-16T16:08:53.959Z</time><hdop>3.0</hdop><vdop>2.5</vdop><extensions><gom:speed>0.818</gom:speed></extensions></trkpt>
   <trkpt lat="59.3044160933" lon="34.6776751463"><ele>161.366</ele><time>2026-08-16T16:08:54.822Z</time><hdop>3.0</hdop><vdop>2.5</vdop><extensions><gom:speed>0.811</gom:speed></extensions></trkpt>
   <trkpt lat="59.3044197813" lon="34.6776771579"><ele>161.061</ele><time>2026-08-16T16:08:55.519Z</time><hdop>3.0</hdop><vdop>2.5</vdop><extensions><gom:speed>0.848</gom:speed></extensions></trkpt>
   <trkpt lat="59.3044241818" lon="34.6776765712"><ele>160.879</ele><time>2026-08-16T16:08:56.079Z</time><hdop>3.0</hdop><vdop>2.5</vdop><extensions><gom:speed>0.856</gom:speed></extensions></trkpt>
   <trkpt lat="59.3044270736" lon="34.6776778285"><ele>160.621</ele><time>2026-08-16T16:08:56.618Z</time><hdop>3.0</hdop><vdop>2.5</vdop><extensions><gom:speed>0.875</gom:speed></extensions></trkpt>
   <trkpt lat="59.3044288757" lon="34.6776814327"><ele>160.49</ele><time>2026-08-16T16:08:57.136Z</time><hdop>3.0</hdop><vdop>2.5</vdop><extensions><gom:speed>0.649</gom:speed></extensions></trkpt>
   <trkpt lat="59.3044300911" lon="34.6776931673"><ele>160.257</ele><time>2026-08-16T16:08:58.136Z</time><hdop>3.0</hdop><vdop>2.5</vdop><extensions><gom:speed>0.612</gom:speed></extensions></trkpt>
   <trkpt lat="59.3044280794" lon="34.6776995376"><ele>160.117</ele><time>2026-08-16T16:08:58.659Z</time><hdop>3.0</hdop><vdop>2.5</vdop><extensions><gom:speed>0.572</gom:speed></extensions></trkpt>
   <trkpt lat="59.3044281632" lon="34.6777112723"><ele>160.297</ele><time>2026-08-16T16:08:59.136Z</time><hdop>3.0</hdop><vdop>2.5</vdop><extensions><gom:speed>0.912</gom:speed></extensions></trkpt>
   <trkpt lat="59.3044321866" lon="34.6777239289"><ele>160.405</ele><time>2026-08-16T16:08:59.857Z</time><hdop>3.0</hdop><vdop>2.5</vdop><extensions><gom:speed>0.884</gom:speed></extensions></trkpt>
   <trkpt lat="59.3044416581" lon="34.6777281199"><ele>160.783</ele><time>2026-08-16T16:09:00.643Z</time><hdop>3.0</hdop><vdop>2.5</vdop><extensions><gom:speed>0.942</gom:speed></extensions></trkpt>
   <trkpt lat="59.3044465615" lon="34.6777284552"><ele>161.008</ele><time>2026-08-16T16:09:01.123Z</time><hdop>3.0</hdop><vdop>2.5</vdop><extensions><gom:speed>0.936</gom:speed></extensions></trkpt>
   <trkpt lat="59.3044529737" lon="34.6777275331"><ele>160.826</ele><time>2026-08-16T16:09:01.801Z</time><hdop>3.0</hdop><vdop>2.5</vdop><extensions><gom:speed>0.894</gom:speed></extensions></trkpt>
   <trkpt lat="59.3044566617" lon="34.67772527"><ele>160.655</ele><time>2026-08-16T16:09:02.262Z</time><hdop>3.0</hdop><vdop>2.5</vdop><extensions><gom:speed>0.855</gom:speed></extensions></trkpt>
   <trkpt lat="59.3044612718" lon="34.6777196542"><ele>160.552</ele><time>2026-08-16T16:09:02.861Z</time><hdop>3.0</hdop><vdop>2.5</vdop><extensions><gom:speed>0.898</gom:speed></extensions></trkpt>
   <trkpt lat="59.3044660914" lon="34.6777121943"><ele>160.556</ele><time>2026-08-16T16:09:03.558Z</time><hdop>3.0</hdop><vdop>2.5</vdop><extensions><gom:speed>0.931</gom:speed></extensions></trkpt>
   <trkpt lat="59.3044697794" lon="34.6777045667"><ele>160.67</ele><time>2026-08-16T16:09:04.136Z</time><hdop>3.0</hdop><vdop>2.5</vdop><extensions><gom:speed>0.944</gom:speed></extensions></trkpt>
   <trkpt lat="59.3044732998" lon="34.6776955981"><ele>160.738</ele><time>2026-08-16T16:09:04.697Z</time><hdop>3.0</hdop><vdop>2.5</vdop><extensions><gom:speed>1.008</gom:speed></extensions></trkpt>
   <trkpt lat="59.3044784966" lon="34.6776823547"><ele>160.906</ele><time>2026-08-16T16:09:05.640Z</time><hdop>3.0</hdop><vdop>2.5</vdop><extensions><gom:speed>0.956</gom:speed></extensions></trkpt>
   <trkpt lat="59.3044822684" lon="34.6776799239"><ele>160.978</ele><time>2026-08-16T16:09:06.136Z</time><hdop>3.0</hdop><vdop>2.5</vdop><extensions><gom:speed>0.92</gom:speed></extensions></trkpt>
   <trkpt lat="59.3044917819" lon="34.677677577"><ele>161.022</ele><time>2026-08-16T16:09:07.082Z</time><hdop>3.0</hdop><vdop>2.5</vdop><extensions><gom:speed>0.992</gom:speed></extensions></trkpt>
   <trkpt lat="59.3045041871" lon="34.6776853722"><ele>161.042</ele><time>2026-08-16T16:09:08.136Z</time><hdop>3.0</hdop><vdop>2.5</vdop><extensions><gom:speed>1.043</gom:speed></extensions></trkpt>
   <trkpt lat="59.3045104735" lon="34.6776893955"><ele>161.054</ele><time>2026-08-16T16:09:08.702Z</time><hdop>3.0</hdop><vdop>2.5</vdop><extensions><gom:speed>1.038</gom:speed></extensions></trkpt>
   <trkpt lat="59.3045246809" lon="34.6776925806"><ele>161.076</ele><time>2026-08-16T16:09:10.125Z</time><hdop>3.0</hdop><vdop>2.5</vdop><extensions><gom:speed>0.966</gom:speed></extensions></trkpt>
   <trkpt lat="59.3045348649" lon="34.6776918262"><ele>161.191</ele><time>2026-08-16T16:09:11.135Z</time><hdop>3.0</hdop><vdop>2.5</vdop><extensions><gom:speed>0.945</gom:speed></extensions></trkpt>
   <trkpt lat="59.3045416961" lon="34.6776908204"><ele>161.26</ele><time>2026-08-16T16:09:11.803Z</time><hdop>3.0</hdop><vdop>2.5</vdop><extensions><gom:speed>0.991</gom:speed></extensions></trkpt>
   <trkpt lat="59.3045494913" lon="34.6776932512"><ele>161.324</ele><time>2026-08-16T16:09:12.559Z</time><hdop>3.0</hdop><vdop>2.5</vdop><extensions><gom:speed>1.016</gom:speed></extensions></trkpt>
   <trkpt lat="59.3045547719" lon="34.6776966877"><ele>161.309</ele><time>2026-08-16T16:09:13.136Z</time><hdop>3.0</hdop><vdop>2.5</vdop><extensions><gom:speed>0.976</gom:speed></extensions></trkpt>
   <trkpt lat="59.304561184" lon="34.67769937"><ele>161.301</ele><time>2026-08-16T16:09:13.776Z</time><hdop>3.0</hdop><vdop>2.5</vdop><extensions><gom:speed>1.006</gom:speed></extensions></trkpt>
   <trkpt lat="59.3045692726" lon="34.6777006272"><ele>161.209</ele><time>2026-08-16T16:09:14.619Z</time><hdop>3.0</hdop><vdop>2.5</vdop><extensions><gom:speed>0.989</gom:speed></extensions></trkpt>
   <trkpt lat="59.3045740922" lon="34.6777006272"><ele>161.155</ele><time>2026-08-16T16:09:15.101Z</time><hdop>3.0</hdop><vdop>2.5</vdop><extensions><gom:speed>0.989</gom:speed></extensions></trkpt>
   <trkpt lat="59.3045810911" lon="34.6776981965"><ele>160.831</ele><time>2026-08-16T16:09:15.916Z</time><hdop>3.0</hdop><vdop>2.5</vdop><extensions><gom:speed>0.936</gom:speed></extensions></trkpt>
   <trkpt lat="59.3045853658" lon="34.6776959334"><ele>160.63</ele><time>2026-08-16T16:09:16.397Z</time><hdop>3.0</hdop><vdop>2.5</vdop><extensions><gom:speed>0.969</gom:speed></extensions></trkpt>
   <trkpt lat="59.3045919875" lon="34.6776936703"><ele>160.708</ele><time>2026-08-16T16:09:17.136Z</time><hdop>3.0</hdop><vdop>2.5</vdop><extensions><gom:speed>0.93</gom:speed></extensions></trkpt>
   <trkpt lat="59.3045971843" lon="34.6776923292"><ele>160.755</ele><time>2026-08-16T16:09:17.683Z</time><hdop>3.0</hdop><vdop>2.5</vdop><extensions><gom:speed>0.988</gom:speed></extensions></trkpt>
   <trkpt lat="59.3046016686" lon="34.6776926644"><ele>160.915</ele><time>2026-08-16T16:09:18.136Z</time><hdop>3.0</hdop><vdop>2.5</vdop><extensions><gom:speed>0.95</gom:speed></extensions></trkpt>
   <trkpt lat="59.3046111821" lon="34.677695179"><ele>160.88</ele><time>2026-08-16T16:09:19.136Z</time><hdop>3.0</hdop><vdop>2.5</vdop><extensions><gom:speed>0.912</gom:speed></extensions></trkpt>
   <trkpt lat="59.3046182648" lon="34.6776983641"><ele>160.859</ele><time>2026-08-16T16:09:19.881Z</time><hdop>3.0</hdop><vdop>2.5</vdop><extensions><gom:speed>0.976</gom:speed></extensions></trkpt>
   <trkpt lat="59.304622791" lon="34.6776994538"><ele>160.666</ele><time>2026-08-16T16:09:20.382Z</time><hdop>3.0</hdop><vdop>2.5</vdop><extensions><gom:speed>1.021</gom:speed></extensions></trkpt>
   <trkpt lat="59.304629287" lon="34.6777017169"><ele>160.23</ele><time>2026-08-16T16:09:21.136Z</time><hdop>3.0</hdop><vdop>2.5</vdop><extensions><gom:speed>0.967</gom:speed></extensions></trkpt>
   <trkpt lat="59.3046340647" lon="34.6777033933"><ele>159.97</ele><time>2026-08-16T16:09:21.638Z</time><hdop>3.0</hdop><vdop>2.5</vdop><extensions><gom:speed>1.046</gom:speed></extensions></trkpt>
   <trkpt lat="59.3046382976" lon="34.6777048182"><ele>159.825</ele><time>2026-08-16T16:09:22.136Z</time><hdop>3.0</hdop><vdop>2.5</vdop><extensions><gom:speed>0.979</gom:speed></extensions></trkpt>
   <trkpt lat="59.3046470985" lon="34.6777060755"><ele>159.71</ele><time>2026-08-16T16:09:23.136Z</time><hdop>3.0</hdop><vdop>2.5</vdop><extensions><gom:speed>0.951</gom:speed></extensions></trkpt>
   <trkpt lat="59.3046559834" lon="34.6777111884"><ele>159.458</ele><time>2026-08-16T16:09:24.136Z</time><hdop>3.0</hdop><vdop>2.5</vdop><extensions><gom:speed>0.976</gom:speed></extensions></trkpt>
   <trkpt lat="59.3046630661" lon="34.6777181454"><ele>159.308</ele><time>2026-08-16T16:09:24.916Z</time><hdop>3.0</hdop><vdop>2.5</vdop><extensions><gom:speed>1.008</gom:speed></extensions></trkpt>
   <trkpt lat="59.3046692687" lon="34.6777227555"><ele>159.14</ele><time>2026-08-16T16:09:25.584Z</time><hdop>3.0</hdop><vdop>2.5</vdop><extensions><gom:speed>0.991</gom:speed></extensions></trkpt>
   <trkpt lat="59.3046741721" lon="34.6777256891"><ele>159.15</ele><time>2026-08-16T16:09:26.136Z</time><hdop>3.0</hdop><vdop>2.5</vdop><extensions><gom:speed>0.919</gom:speed></extensions></trkpt>
   <trkpt lat="59.3046792851" lon="34.6777298801"><ele>159.156</ele><time>2026-08-16T16:09:26.801Z</time><hdop>3.0</hdop><vdop>2.5</vdop><extensions><gom:speed>0.904</gom:speed></extensions></trkpt>
   <trkpt lat="59.3046851943" lon="34.6777333167"><ele>159.225</ele><time>2026-08-16T16:09:27.517Z</time><hdop>3.0</hdop><vdop>2.5</vdop><extensions><gom:speed>0.931</gom:speed></extensions></trkpt>
   <trkpt lat="59.3046912712" lon="34.6777357474"><ele>159.582</ele><time>2026-08-16T16:09:28.136Z</time><hdop>3.0</hdop><vdop>2.5</vdop><extensions><gom:speed>0.978</gom:speed></extensions></trkpt>
   <trkpt lat="59.3046989825" lon="34.6777396869"><ele>159.795</ele><time>2026-08-16T16:09:28.979Z</time><hdop>3.0</hdop><vdop>2.5</vdop><extensions><gom:speed>0.909</gom:speed></extensions></trkpt>
   <trkpt lat="59.3047019581" lon="34.6777483203"><ele>159.848</ele><time>2026-08-16T16:09:29.539Z</time><hdop>3.0</hdop><vdop>2.5</vdop><extensions><gom:speed>0.886</gom:speed></extensions></trkpt>
   <trkpt lat="59.3047046822" lon="34.6777577918"><ele>160.105</ele><time>2026-08-16T16:09:30.136Z</time><hdop>3.0</hdop><vdop>2.5</vdop><extensions><gom:speed>0.868</gom:speed></extensions></trkpt>
   <trkpt lat="59.3047103819" lon="34.6777694427"><ele>160.258</ele><time>2026-08-16T16:09:31.041Z</time><hdop>3.0</hdop><vdop>2.5</vdop><extensions><gom:speed>0.901</gom:speed></extensions></trkpt>
   <trkpt lat="59.3047181771" lon="34.6777744718"><ele>160.362</ele><time>2026-08-16T16:09:31.944Z</time><hdop>3.0</hdop><vdop>2.5</vdop><extensions><gom:speed>0.895</gom:speed></extensions></trkpt>
   <trkpt lat="59.3047273972" lon="34.6777694427"><ele>161.691</ele><time>2026-08-16T16:09:32.719Z</time><hdop>3.0</hdop><vdop>2.5</vdop><extensions><gom:speed>0.991</gom:speed></extensions></trkpt>
   <trkpt lat="59.3047352762" lon="34.677762821"><ele>163.008</ele><time>2026-08-16T16:09:33.377Z</time><hdop>3.0</hdop><vdop>2.5</vdop><extensions><gom:speed>1.003</gom:speed></extensions></trkpt>
   <trkpt lat="59.3047419817" lon="34.6777612284"><ele>163.795</ele><time>2026-08-16T16:09:34.141Z</time><hdop>3.0</hdop><vdop>2.5</vdop><extensions><gom:speed>0.898</gom:speed></extensions></trkpt>
   <trkpt lat="59.3047495673" lon="34.6777640782"><ele>164.44</ele><time>2026-08-16T16:09:34.957Z</time><hdop>3.0</hdop><vdop>2.5</vdop><extensions><gom:speed>0.882</gom:speed></extensions></trkpt>
   <trkpt lat="59.304755267" lon="34.6777660899"><ele>165.004</ele><time>2026-08-16T16:09:35.457Z</time><hdop>3.0</hdop><vdop>2.5</vdop><extensions><gom:speed>0.897</gom:speed></extensions></trkpt>
   <trkpt lat="59.3047618887" lon="34.6777693588"><ele>165.43</ele><time>2026-08-16T16:09:36.135Z</time><hdop>3.0</hdop><vdop>2.5</vdop><extensions><gom:speed>0.886</gom:speed></extensions></trkpt>
   <trkpt lat="59.3047697677" lon="34.6777719572"><ele>165.685</ele><time>2026-08-16T16:09:36.998Z</time><hdop>3.0</hdop><vdop>2.5</vdop><extensions><gom:speed>0.857</gom:speed></extensions></trkpt>
   <trkpt lat="59.3047778981" lon="34.677778076"><ele>165.921</ele><time>2026-08-16T16:09:37.842Z</time><hdop>3.0</hdop><vdop>2.5</vdop><extensions><gom:speed>0.913</gom:speed></extensions></trkpt>
   <trkpt lat="59.304782592" lon="34.6777819317"><ele>165.886</ele><time>2026-08-16T16:09:38.383Z</time><hdop>3.0</hdop><vdop>2.5</vdop><extensions><gom:speed>0.949</gom:speed></extensions></trkpt>
   <trkpt lat="59.3047889623" lon="34.6777862903"><ele>165.998</ele><time>2026-08-16T16:09:39.136Z</time><hdop>3.0</hdop><vdop>2.5</vdop><extensions><gom:speed>0.909</gom:speed></extensions></trkpt>
   <trkpt lat="59.3047972603" lon="34.6777880505"><ele>166.064</ele><time>2026-08-16T16:09:40.022Z</time><hdop>3.0</hdop><vdop>2.5</vdop><extensions><gom:speed>0.929</gom:speed></extensions></trkpt>
   <trkpt lat="59.304803882" lon="34.6777854521"><ele>166.165</ele><time>2026-08-16T16:09:40.739Z</time><hdop>3.0</hdop><vdop>2.5</vdop><extensions><gom:speed>0.982</gom:speed></extensions></trkpt>
   <trkpt lat="59.3048083664" lon="34.6777820993"><ele>166.585</ele><time>2026-08-16T16:09:41.279Z</time><hdop>3.0</hdop><vdop>2.5</vdop><extensions><gom:speed>0.96</gom:speed></extensions></trkpt>
   <trkpt lat="59.3048140661" lon="34.67777992"><ele>166.837</ele><time>2026-08-16T16:09:41.799Z</time><hdop>3.0</hdop><vdop>2.5</vdop><extensions><gom:speed>1.063</gom:speed></extensions></trkpt>
   <trkpt lat="59.3048208973" lon="34.6777703647"><ele>166.78</ele><time>2026-08-16T16:09:42.604Z</time><hdop>3.0</hdop><vdop>2.5</vdop><extensions><gom:speed>1.069</gom:speed></extensions></trkpt>
   <trkpt lat="59.304824292" lon="34.6777630724"><ele>166.643</ele><time>2026-08-16T16:09:43.136Z</time><hdop>3.0</hdop><vdop>2.5</vdop><extensions><gom:speed>1.026</gom:speed></extensions></trkpt>
   <trkpt lat="59.304830285" lon="34.6777496614"><ele>166.561</ele><time>2026-08-16T16:09:43.997Z</time><hdop>3.0</hdop><vdop>2.5</vdop><extensions><gom:speed>1.062</gom:speed></extensions></trkpt>
   <trkpt lat="59.3048332606" lon="34.6777386811"><ele>166.51</ele><time>2026-08-16T16:09:44.724Z</time><hdop>3.0</hdop><vdop>2.5</vdop><extensions><gom:speed>1.013</gom:speed></extensions></trkpt>
   <trkpt lat="59.3048347694" lon="34.6777319756"><ele>166.433</ele><time>2026-08-16T16:09:45.264Z</time><hdop>3.0</hdop><vdop>2.5</vdop><extensions><gom:speed>0.964</gom:speed></extensions></trkpt>
   <trkpt lat="59.304840972" lon="34.6777232584"><ele>166.387</ele><time>2026-08-16T16:09:46.098Z</time><hdop>3.0</hdop><vdop>2.5</vdop><extensions><gom:speed>0.972</gom:speed></extensions></trkpt>
   <trkpt lat="59.3048428998" lon="34.6777185645"><ele>166.35</ele><time>2026-08-16T16:09:46.618Z</time><hdop>3.0</hdop><vdop>2.5</vdop><extensions><gom:speed>0.962</gom:speed></extensions></trkpt>
   <trkpt lat="59.3048447857" lon="34.6777138706"><ele>166.102</ele><time>2026-08-16T16:09:47.136Z</time><hdop>3.0</hdop><vdop>2.5</vdop><extensions><gom:speed>0.912</gom:speed></extensions></trkpt>
   <trkpt lat="59.3048499825" lon="34.6777064946"><ele>165.953</ele><time>2026-08-16T16:09:47.943Z</time><hdop>3.0</hdop><vdop>2.5</vdop><extensions><gom:speed>0.894</gom:speed></extensions></trkpt>
   <trkpt lat="59.304855766" lon="34.6777056564"><ele>165.753</ele><time>2026-08-16T16:09:48.738Z</time><hdop>3.0</hdop><vdop>2.5</vdop><extensions><gom:speed>0.877</gom:speed></extensions></trkpt>
   <trkpt lat="59.3048591607" lon="34.6777082548"><ele>165.351</ele><time>2026-08-16T16:09:49.219Z</time><hdop>3.0</hdop><vdop>2.5</vdop><extensions><gom:speed>0.829</gom:speed></extensions></trkpt>
   <trkpt lat="59.3048665787" lon="34.6777063269"><ele>165.111</ele><time>2026-08-16T16:09:50.063Z</time><hdop>3.0</hdop><vdop>2.5</vdop><extensions><gom:speed>0.912</gom:speed></extensions></trkpt>
   <trkpt lat="59.3048703924" lon="34.6777093444"><ele>164.576</ele><time>2026-08-16T16:09:50.544Z</time><hdop>3.0</hdop><vdop>2.625</vdop><extensions><gom:speed>0.915</gom:speed></extensions></trkpt>
   <trkpt lat="59.3048750863" lon="34.6777131163"><ele>164.132</ele><time>2026-08-16T16:09:51.136Z</time><hdop>3.0</hdop><vdop>2.625</vdop><extensions><gom:speed>0.851</gom:speed></extensions></trkpt>
   <trkpt lat="59.304880786" lon="34.6777163852"><ele>163.866</ele><time>2026-08-16T16:09:51.761Z</time><hdop>3.0</hdop><vdop>2.625</vdop><extensions><gom:speed>0.952</gom:speed></extensions></trkpt>
   <trkpt lat="59.3048922692" lon="34.6777210791"><ele>163.411</ele><time>2026-08-16T16:09:52.998Z</time><hdop>3.0</hdop><vdop>2.687</vdop><extensions><gom:speed>1.002</gom:speed></extensions></trkpt>
   <trkpt lat="59.3049013636" lon="34.67772066"><ele>163.23</ele><time>2026-08-16T16:09:54.136Z</time><hdop>3.0</hdop><vdop>2.562</vdop><extensions><gom:speed>0.968</gom:speed></extensions></trkpt>
   <trkpt lat="59.3049090749" lon="34.6777225878"><ele>163.123</ele><time>2026-08-16T16:09:54.941Z</time><hdop>3.0</hdop><vdop>2.562</vdop><extensions><gom:speed>1.006</gom:speed></extensions></trkpt>
   <trkpt lat="59.3049132659" lon="34.677728539"><ele>163.146</ele><time>2026-08-16T16:09:55.461Z</time><hdop>3.0</hdop><vdop>2.5</vdop><extensions><gom:speed>1.008</gom:speed></extensions></trkpt>
   <trkpt lat="59.3049190913" lon="34.6777345739"><ele>163.16</ele><time>2026-08-16T16:09:56.099Z</time><hdop>3.0</hdop><vdop>2.5</vdop><extensions><gom:speed>1.015</gom:speed></extensions></trkpt>
   <trkpt lat="59.304922486" lon="34.677743794"><ele>162.866</ele><time>2026-08-16T16:09:56.619Z</time><hdop>3.0</hdop><vdop>2.5</vdop><extensions><gom:speed>1.03</gom:speed></extensions></trkpt>
   <trkpt lat="59.3049257968" lon="34.6777524274"><ele>162.724</ele><time>2026-08-16T16:09:57.136Z</time><hdop>3.0</hdop><vdop>2.5</vdop><extensions><gom:speed>1.019</gom:speed></extensions></trkpt>
   <trkpt lat="59.3049297782" lon="34.6777615637"><ele>162.639</ele><time>2026-08-16T16:09:57.699Z</time><hdop>3.0</hdop><vdop>2.5</vdop><extensions><gom:speed>1.034</gom:speed></extensions></trkpt>
   <trkpt lat="59.3049366933" lon="34.6777702809"><ele>162.384</ele><time>2026-08-16T16:09:58.543Z</time><hdop>3.0</hdop><vdop>2.5</vdop><extensions><gom:speed>0.999</gom:speed></extensions></trkpt>
   <trkpt lat="59.3049413872" lon="34.6777728792"><ele>162.231</ele><time>2026-08-16T16:09:59.024Z</time><hdop>3.0</hdop><vdop>2.5</vdop><extensions><gom:speed>1.0</gom:speed></extensions></trkpt>
   <trkpt lat="59.3049496853" lon="34.6777698618"><ele>161.771</ele><time>2026-08-16T16:09:59.819Z</time><hdop>3.0</hdop><vdop>2.5</vdop><extensions><gom:speed>0.98</gom:speed></extensions></trkpt>
   <trkpt lat="59.3049544629" lon="34.6777652517"><ele>161.792</ele><time>2026-08-16T16:10:00.300Z</time><hdop>3.0</hdop><vdop>2.5</vdop><extensions><gom:speed>0.969</gom:speed></extensions></trkpt>
   <trkpt lat="59.3049633897" lon="34.6777610608"><ele>161.609</ele><time>2026-08-16T16:10:01.136Z</time><hdop>3.0</hdop><vdop>2.5</vdop><extensions><gom:speed>1.028</gom:speed></extensions></trkpt>
   <trkpt lat="59.3049725678" lon="34.6777641621"><ele>161.5</ele><time>2026-08-16T16:10:02.037Z</time><hdop>3.0</hdop><vdop>2.5</vdop><extensions><gom:speed>1.0</gom:speed></extensions></trkpt>
   <trkpt lat="59.3049801954" lon="34.6777740527"><ele>161.612</ele><time>2026-08-16T16:10:02.822Z</time><hdop>3.0</hdop><vdop>2.5</vdop><extensions><gom:speed>1.053</gom:speed></extensions></trkpt>
   <trkpt lat="59.3049887868" lon="34.677790146"><ele>161.739</ele><time>2026-08-16T16:10:03.922Z</time><hdop>3.0</hdop><vdop>2.5</vdop><extensions><gom:speed>1.087</gom:speed></extensions></trkpt>
   <trkpt lat="59.3049918881" lon="34.6778004557"><ele>161.998</ele><time>2026-08-16T16:10:04.501Z</time><hdop>3.0</hdop><vdop>2.5</vdop><extensions><gom:speed>1.037</gom:speed></extensions></trkpt>
   <trkpt lat="59.3049939836" lon="34.6778107654"><ele>162.259</ele><time>2026-08-16T16:10:05.136Z</time><hdop>3.0</hdop><vdop>2.5</vdop><extensions><gom:speed>0.989</gom:speed></extensions></trkpt>
   <trkpt lat="59.3049964982" lon="34.6778217457"><ele>162.414</ele><time>2026-08-16T16:10:05.757Z</time><hdop>3.0</hdop><vdop>2.5</vdop><extensions><gom:speed>1.03</gom:speed></extensions></trkpt>
   <trkpt lat="59.3049984679" lon="34.6778352406"><ele>162.248</ele><time>2026-08-16T16:10:06.542Z</time><hdop>3.0</hdop><vdop>2.5</vdop><extensions><gom:speed>1.027</gom:speed></extensions></trkpt>
   <trkpt lat="59.3050009825" lon="34.6778439578"><ele>162.149</ele><time>2026-08-16T16:10:07.043Z</time><hdop>3.0</hdop><vdop>2.5</vdop><extensions><gom:speed>1.032</gom:speed></extensions></trkpt>
   <trkpt lat="59.3050033713" lon="34.6778552734"><ele>161.915</ele><time>2026-08-16T16:10:07.759Z</time><hdop>3.0</hdop><vdop>2.5</vdop><extensions><gom:speed>0.965</gom:speed></extensions></trkpt>
   <trkpt lat="59.3050048801" lon="34.6778619789"><ele>161.629</ele><time>2026-08-16T16:10:08.221Z</time><hdop>3.0</hdop><vdop>2.5</vdop><extensions><gom:speed>0.933</gom:speed></extensions></trkpt>
   <trkpt lat="59.3050080652" lon="34.6778704446"><ele>161.458</ele><time>2026-08-16T16:10:08.818Z</time><hdop>3.0</hdop><vdop>2.5</vdop><extensions><gom:speed>0.966</gom:speed></extensions></trkpt>
   <trkpt lat="59.3050106636" lon="34.6778768987"><ele>161.488</ele><time>2026-08-16T16:10:09.339Z</time><hdop>3.0</hdop><vdop>2.5</vdop><extensions><gom:speed>0.929</gom:speed></extensions></trkpt>
   <trkpt lat="59.3050154832" lon="34.6778861188"><ele>161.505</ele><time>2026-08-16T16:10:09.997Z</time><hdop>3.0</hdop><vdop>2.5</vdop><extensions><gom:speed>1.004</gom:speed></extensions></trkpt>
   <trkpt lat="59.3050190874" lon="34.6778931596"><ele>161.322</ele><time>2026-08-16T16:10:10.517Z</time><hdop>3.0</hdop><vdop>2.5</vdop><extensions><gom:speed>1.034</gom:speed></extensions></trkpt>
   <trkpt lat="59.305022985" lon="34.6779005356"><ele>161.149</ele><time>2026-08-16T16:10:11.136Z</time><hdop>3.0</hdop><vdop>2.5</vdop><extensions><gom:speed>0.976</gom:speed></extensions></trkpt>
   <trkpt lat="59.3050276789" lon="34.6779076602"><ele>161.046</ele><time>2026-08-16T16:10:11.764Z</time><hdop>3.0</hdop><vdop>2.5</vdop><extensions><gom:speed>1.011</gom:speed></extensions></trkpt>
   <trkpt lat="59.3050369828" lon="34.6779199816"><ele>161.074</ele><time>2026-08-16T16:10:13.000Z</time><hdop>3.0</hdop><vdop>2.5</vdop><extensions><gom:speed>1.003</gom:speed></extensions></trkpt>
   <trkpt lat="59.3050409642" lon="34.6779280283"><ele>161.069</ele><time>2026-08-16T16:10:13.658Z</time><hdop>3.0</hdop><vdop>2.5</vdop><extensions><gom:speed>1.058</gom:speed></extensions></trkpt>
   <trkpt lat="59.3050438978" lon="34.677936494"><ele>161.067</ele><time>2026-08-16T16:10:14.139Z</time><hdop>3.0</hdop><vdop>2.5</vdop><extensions><gom:speed>1.063</gom:speed></extensions></trkpt>
   <trkpt lat="59.3050475859" lon="34.6779463846"><ele>160.798</ele><time>2026-08-16T16:10:14.816Z</time><hdop>3.0</hdop><vdop>2.5</vdop><extensions><gom:speed>1.055</gom:speed></extensions></trkpt>
   <trkpt lat="59.3050502681" lon="34.6779527549"><ele>160.502</ele><time>2026-08-16T16:10:15.336Z</time><hdop>3.0</hdop><vdop>2.5</vdop><extensions><gom:speed>1.019</gom:speed></extensions></trkpt>
   <trkpt lat="59.3050543752" lon="34.6779624779"><ele>160.326</ele><time>2026-08-16T16:10:15.964Z</time><hdop>3.0</hdop><vdop>2.5</vdop><extensions><gom:speed>1.062</gom:speed></extensions></trkpt>
   <trkpt lat="59.3050566802" lon="34.6779680938"><ele>160.425</ele><time>2026-08-16T16:10:16.465Z</time><hdop>3.0</hdop><vdop>2.5</vdop><extensions><gom:speed>1.031</gom:speed></extensions></trkpt>
   <trkpt lat="59.3050612903" lon="34.6779748831"><ele>160.484</ele><time>2026-08-16T16:10:17.064Z</time><hdop>3.0</hdop><vdop>2.5</vdop><extensions><gom:speed>1.022</gom:speed></extensions></trkpt>
   <trkpt lat="59.3050656908" lon="34.677977733"><ele>160.754</ele><time>2026-08-16T16:10:17.741Z</time><hdop>3.0</hdop><vdop>2.5</vdop><extensions><gom:speed>0.978</gom:speed></extensions></trkpt>
   <trkpt lat="59.3050711809" lon="34.677984187"><ele>161.3</ele><time>2026-08-16T16:10:18.722Z</time><hdop>3.0</hdop><vdop>2.5</vdop><extensions><gom:speed>0.875</gom:speed></extensions></trkpt>
   <trkpt lat="59.3050745756" lon="34.6779918984"><ele>161.838</ele><time>2026-08-16T16:10:19.557Z</time><hdop>3.0</hdop><vdop>2.5</vdop><extensions><gom:speed>0.838</gom:speed></extensions></trkpt>
   <trkpt lat="59.3050766711" lon="34.6779985201"><ele>162.159</ele><time>2026-08-16T16:10:20.077Z</time><hdop>3.0</hdop><vdop>2.5</vdop><extensions><gom:speed>0.852</gom:speed></extensions></trkpt>
   <trkpt lat="59.3050796886" lon="34.6780080754"><ele>162.528</ele><time>2026-08-16T16:10:20.901Z</time><hdop>3.0</hdop><vdop>2.5</vdop><extensions><gom:speed>0.844</gom:speed></extensions></trkpt>
   <trkpt lat="59.3050826641" lon="34.6780132722"><ele>162.693</ele><time>2026-08-16T16:10:21.579Z</time><hdop>3.0</hdop><vdop>2.5</vdop><extensions><gom:speed>0.792</gom:speed></extensions></trkpt>
   <trkpt lat="59.3050865617" lon="34.6780160383"><ele>162.746</ele><time>2026-08-16T16:10:22.136Z</time><hdop>3.0</hdop><vdop>2.5</vdop><extensions><gom:speed>0.799</gom:speed></extensions></trkpt>
   <trkpt lat="59.3050927643" lon="34.6780196425"><ele>162.778</ele><time>2026-08-16T16:10:22.904Z</time><hdop>3.0</hdop><vdop>2.5</vdop><extensions><gom:speed>0.806</gom:speed></extensions></trkpt>
   <trkpt lat="59.3051026969" lon="34.6780259289"><ele>162.615</ele><time>2026-08-16T16:10:24.042Z</time><hdop>3.0</hdop><vdop>2.5</vdop><extensions><gom:speed>0.849</gom:speed></extensions></trkpt>
   <trkpt lat="59.3051090671" lon="34.6780336403"><ele>162.247</ele><time>2026-08-16T16:10:24.719Z</time><hdop>3.0</hdop><vdop>2.5</vdop><extensions><gom:speed>0.946</gom:speed></extensions></trkpt>
   <trkpt lat="59.3051187902" lon="34.6780469675"><ele>161.843</ele><time>2026-08-16T16:10:25.897Z</time><hdop>3.0</hdop><vdop>2.5</vdop><extensions><gom:speed>0.961</gom:speed></extensions></trkpt>
   <trkpt lat="59.3051263758" lon="34.6780557685"><ele>161.38</ele><time>2026-08-16T16:10:26.839Z</time><hdop>3.0</hdop><vdop>2.5</vdop><extensions><gom:speed>0.953</gom:speed></extensions></trkpt>
   <trkpt lat="59.305132285" lon="34.6780636475"><ele>161.041</ele><time>2026-08-16T16:10:27.536Z</time><hdop>3.0</hdop><vdop>2.5</vdop><extensions><gom:speed>1.014</gom:speed></extensions></trkpt>
   <trkpt lat="59.3051377752" lon="34.6780696824"><ele>160.667</ele><time>2026-08-16T16:10:28.136Z</time><hdop>3.0</hdop><vdop>2.5</vdop><extensions><gom:speed>0.994</gom:speed></extensions></trkpt>
   <trkpt lat="59.3051442711" lon="34.6780738734"><ele>160.444</ele><time>2026-08-16T16:10:28.743Z</time><hdop>3.0</hdop><vdop>2.5</vdop><extensions><gom:speed>1.037</gom:speed></extensions></trkpt>
   <trkpt lat="59.3051500966" lon="34.6780777291"><ele>160.185</ele><time>2026-08-16T16:10:29.362Z</time><hdop>3.0</hdop><vdop>2.5</vdop><extensions><gom:speed>1.001</gom:speed></extensions></trkpt>
   <trkpt lat="59.3051547904" lon="34.6780830935"><ele>160.03</ele><time>2026-08-16T16:10:29.823Z</time><hdop>3.0</hdop><vdop>2.5</vdop><extensions><gom:speed>1.085</gom:speed></extensions></trkpt>
   <trkpt lat="59.3051588976" lon="34.6780863624"><ele>159.965</ele><time>2026-08-16T16:10:30.284Z</time><hdop>3.0</hdop><vdop>2.5</vdop><extensions><gom:speed>1.03</gom:speed></extensions></trkpt>
   <trkpt lat="59.3051655612" lon="34.6780942414"><ele>159.926</ele><time>2026-08-16T16:10:31.039Z</time><hdop>3.0</hdop><vdop>2.5</vdop><extensions><gom:speed>1.039</gom:speed></extensions></trkpt>
   <trkpt lat="59.3051694588" lon="34.6781029586"><ele>160.162</ele><time>2026-08-16T16:10:31.776Z</time><hdop>3.0</hdop><vdop>2.5</vdop><extensions><gom:speed>0.978</gom:speed></extensions></trkpt>
   <trkpt lat="59.3051698779" lon="34.6781115919"><ele>160.35</ele><time>2026-08-16T16:10:32.316Z</time><hdop>3.0</hdop><vdop>2.5</vdop><extensions><gom:speed>0.962</gom:speed></extensions></trkpt>
   <trkpt lat="59.3051705903" lon="34.6781261765"><ele>160.462</ele><time>2026-08-16T16:10:33.082Z</time><hdop>3.0</hdop><vdop>2.5</vdop><extensions><gom:speed>0.995</gom:speed></extensions></trkpt>
   <trkpt lat="59.3051732725" lon="34.6781329658"><ele>160.537</ele><time>2026-08-16T16:10:33.582Z</time><hdop>3.0</hdop><vdop>2.5</vdop><extensions><gom:speed>0.996</gom:speed></extensions></trkpt>
   <trkpt lat="59.3051780921" lon="34.6781361509"><ele>160.637</ele><time>2026-08-16T16:10:34.136Z</time><hdop>3.0</hdop><vdop>2.5</vdop><extensions><gom:speed>0.958</gom:speed></extensions></trkpt>
   <trkpt lat="59.305185091" lon="34.6781309541"><ele>160.696</ele><time>2026-08-16T16:10:34.838Z</time><hdop>3.0</hdop><vdop>2.5</vdop><extensions><gom:speed>0.964</gom:speed></extensions></trkpt>
   <trkpt lat="59.3051924671" lon="34.6781294454"><ele>160.636</ele><time>2026-08-16T16:10:35.683Z</time><hdop>3.0</hdop><vdop>2.5</vdop><extensions><gom:speed>0.911</gom:speed></extensions></trkpt>
   <trkpt lat="59.3051954846" lon="34.6781355642"><ele>160.723</ele><time>2026-08-16T16:10:36.136Z</time><hdop>3.0</hdop><vdop>2.5</vdop><extensions><gom:speed>0.89</gom:speed></extensions></trkpt>
   <trkpt lat="59.3051991726" lon="34.6781475503"><ele>160.775</ele><time>2026-08-16T16:10:36.939Z</time><hdop>3.0</hdop><vdop>2.5</vdop><extensions><gom:speed>0.905</gom:speed></extensions></trkpt>
   <trkpt lat="59.3052011843" lon="34.6781546749"><ele>160.733</ele><time>2026-08-16T16:10:37.420Z</time><hdop>3.0</hdop><vdop>2.5</vdop><extensions><gom:speed>0.899</gom:speed></extensions></trkpt>
   <trkpt lat="59.305205459" lon="34.6781622186"><ele>160.731</ele><time>2026-08-16T16:10:38.136Z</time><hdop>3.0</hdop><vdop>2.5</vdop><extensions><gom:speed>0.881</gom:speed></extensions></trkpt>
   <trkpt lat="59.3052100691" lon="34.6781673316"><ele>160.73</ele><time>2026-08-16T16:10:38.676Z</time><hdop>3.0</hdop><vdop>2.5</vdop><extensions><gom:speed>0.959</gom:speed></extensions></trkpt>
   <trkpt lat="59.30521426" lon="34.6781716902"><ele>160.925</ele><time>2026-08-16T16:10:39.136Z</time><hdop>3.0</hdop><vdop>2.5</vdop><extensions><gom:speed>0.969</gom:speed></extensions></trkpt>
   <trkpt lat="59.305221678" lon="34.6781782281"><ele>161.042</ele><time>2026-08-16T16:10:39.923Z</time><hdop>3.0</hdop><vdop>2.5</vdop><extensions><gom:speed>0.999</gom:speed></extensions></trkpt>
   <trkpt lat="59.3052291798" lon="34.6781770546"><ele>161.176</ele><time>2026-08-16T16:10:40.718Z</time><hdop>3.0</hdop><vdop>2.5</vdop><extensions><gom:speed>0.97</gom:speed></extensions></trkpt>
   <trkpt lat="59.3052396991" lon="34.6781917229"><ele>161.616</ele><time>2026-08-16T16:10:42.136Z</time><hdop>3.0</hdop><vdop>2.5</vdop><extensions><gom:speed>0.982</gom:speed></extensions></trkpt>
   <trkpt lat="59.3052409983" lon="34.6782153599"><ele>161.989</ele><time>2026-08-16T16:10:43.136Z</time><hdop>3.0</hdop><vdop>2.5</vdop><extensions><gom:speed>1.002</gom:speed></extensions></trkpt>
   <trkpt lat="59.3052428842" lon="34.6782271784"><ele>162.212</ele><time>2026-08-16T16:10:43.661Z</time><hdop>3.0</hdop><vdop>2.5</vdop><extensions><gom:speed>1.054</gom:speed></extensions></trkpt>
   <trkpt lat="59.3052450635" lon="34.6782366499"><ele>162.497</ele><time>2026-08-16T16:10:44.136Z</time><hdop>3.0</hdop><vdop>2.5</vdop><extensions><gom:speed>1.033</gom:speed></extensions></trkpt>
   <trkpt lat="59.3052493802" lon="34.6782493904"><ele>162.667</ele><time>2026-08-16T16:10:44.820Z</time><hdop>3.0</hdop><vdop>2.5</vdop><extensions><gom:speed>1.084</gom:speed></extensions></trkpt>
   <trkpt lat="59.3052579717" lon="34.6782672439"><ele>162.214</ele><time>2026-08-16T16:10:46.018Z</time><hdop>3.0</hdop><vdop>2.5</vdop><extensions><gom:speed>1.063</gom:speed></extensions></trkpt>
   <trkpt lat="59.305263378" lon="34.6782782242"><ele>161.9</ele><time>2026-08-16T16:10:46.803Z</time><hdop>3.0</hdop><vdop>2.5</vdop><extensions><gom:speed>1.052</gom:speed></extensions></trkpt>
   <trkpt lat="59.3052714665" lon="34.6782900427"><ele>161.792</ele><time>2026-08-16T16:10:47.882Z</time><hdop>3.0</hdop><vdop>2.562</vdop><extensions><gom:speed>0.985</gom:speed></extensions></trkpt>
   <trkpt lat="59.3052755736" lon="34.678297754"><ele>162.159</ele><time>2026-08-16T16:10:48.501Z</time><hdop>3.0</hdop><vdop>2.625</vdop><extensions><gom:speed>0.974</gom:speed></extensions></trkpt>
   <trkpt lat="59.3052791779" lon="34.6783066388"><ele>162.347</ele><time>2026-08-16T16:10:49.135Z</time><hdop>3.0</hdop><vdop>2.625</vdop><extensions><gom:speed>0.959</gom:speed></extensions></trkpt>
   <trkpt lat="59.3052850871" lon="34.6783200499"><ele>162.464</ele><time>2026-08-16T16:10:50.136Z</time><hdop>3.0</hdop><vdop>2.562</vdop><extensions><gom:speed>0.941</gom:speed></extensions></trkpt>
   <trkpt lat="59.3052885656" lon="34.6783254981"><ele>162.534</ele><time>2026-08-16T16:10:50.660Z</time><hdop>3.0</hdop><vdop>2.562</vdop><extensions><gom:speed>0.92</gom:speed></extensions></trkpt>
   <trkpt lat="59.3052919603" lon="34.6783305273"><ele>162.866</ele><time>2026-08-16T16:10:51.136Z</time><hdop>3.0</hdop><vdop>2.5</vdop><extensions><gom:speed>0.906</gom:speed></extensions></trkpt>
   <trkpt lat="59.3052991687" lon="34.6783401664"><ele>163.064</ele><time>2026-08-16T16:10:52.004Z</time><hdop>3.0</hdop><vdop>2.5</vdop><extensions><gom:speed>0.954</gom:speed></extensions></trkpt>
   <trkpt lat="59.3053036949" lon="34.6783456985"><ele>163.232</ele><time>2026-08-16T16:10:52.584Z</time><hdop>3.0</hdop><vdop>2.687</vdop><extensions><gom:speed>0.936</gom:speed></extensions></trkpt>
   <trkpt lat="59.3053069639" lon="34.6783510629"><ele>163.692</ele><time>2026-08-16T16:10:53.136Z</time><hdop>3.0</hdop><vdop>2.75</vdop><extensions><gom:speed>0.919</gom:speed></extensions></trkpt>
   <trkpt lat="59.3053120768" lon="34.6783595286"><ele>163.966</ele><time>2026-08-16T16:10:53.860Z</time><hdop>3.0</hdop><vdop>2.75</vdop><extensions><gom:speed>0.942</gom:speed></extensions></trkpt>
   <trkpt lat="59.3053179861" lon="34.6783712633"><ele>164.322</ele><time>2026-08-16T16:10:54.743Z</time><hdop>3.0</hdop><vdop>2.75</vdop><extensions><gom:speed>0.93</gom:speed></extensions></trkpt>
   <trkpt lat="59.3053216741" lon="34.6783788908"><ele>164.543</ele><time>2026-08-16T16:10:55.459Z</time><hdop>3.0</hdop><vdop>2.812</vdop><extensions><gom:speed>0.862</gom:speed></extensions></trkpt>
   <trkpt lat="59.3053246916" lon="34.6783863507"><ele>164.545</ele><time>2026-08-16T16:10:56.136Z</time><hdop>3.0</hdop><vdop>2.937</vdop><extensions><gom:speed>0.83</gom:speed></extensions></trkpt>
   <trkpt lat="59.3053279605" lon="34.6783942297"><ele>164.546</ele><time>2026-08-16T16:10:56.765Z</time><hdop>3.0</hdop><vdop>2.937</vdop><extensions><gom:speed>0.865</gom:speed></extensions></trkpt>
   <trkpt lat="59.305329595" lon="34.678401522"><ele>164.206</ele><time>2026-08-16T16:10:57.324Z</time><hdop>3.0</hdop><vdop>2.75</vdop><extensions><gom:speed>0.845</gom:speed></extensions></trkpt>
   <trkpt lat="59.3053332831" lon="34.6784106583"><ele>164.002</ele><time>2026-08-16T16:10:58.001Z</time><hdop>3.0</hdop><vdop>2.75</vdop><extensions><gom:speed>0.895</gom:speed></extensions></trkpt>
   <trkpt lat="59.3053357976" lon="34.6784164418"><ele>163.678</ele><time>2026-08-16T16:10:58.502Z</time><hdop>3.0</hdop><vdop>2.75</vdop><extensions><gom:speed>0.93</gom:speed></extensions></trkpt>
   <trkpt lat="59.3053392761" lon="34.6784220576"><ele>163.589</ele><time>2026-08-16T16:10:59.136Z</time><hdop>3.0</hdop><vdop>2.562</vdop><extensions><gom:speed>0.899</gom:speed></extensions></trkpt>
   <trkpt lat="59.3053464845" lon="34.678432535"><ele>163.536</ele><time>2026-08-16T16:11:00.082Z</time><hdop>3.0</hdop><vdop>2.562</vdop><extensions><gom:speed>0.959</gom:speed></extensions></trkpt>
   <trkpt lat="59.3053480771" lon="34.6784388214"><ele>163.334</ele><time>2026-08-16T16:11:00.563Z</time><hdop>3.0</hdop><vdop>2.562</vdop><extensions><gom:speed>0.982</gom:speed></extensions></trkpt>
   <trkpt lat="59.305350885" lon="34.6784447726"><ele>163.231</ele><time>2026-08-16T16:11:01.136Z</time><hdop>3.0</hdop><vdop>2.5</vdop><extensions><gom:speed>0.954</gom:speed></extensions></trkpt>
   <trkpt lat="59.3053567943" lon="34.6784509752"><ele>163.169</ele><time>2026-08-16T16:11:01.819Z</time><hdop>3.0</hdop><vdop>2.5</vdop><extensions><gom:speed>1.036</gom:speed></extensions></trkpt>
   <trkpt lat="59.3053648828" lon="34.6784611173"><ele>163.247</ele><time>2026-08-16T16:11:03.136Z</time><hdop>3.0</hdop><vdop>2.5</vdop><extensions><gom:speed>0.944</gom:speed></extensions></trkpt>
   <trkpt lat="59.3053682775" lon="34.678466817"><ele>163.293</ele><time>2026-08-16T16:11:03.636Z</time><hdop>3.0</hdop><vdop>2.5</vdop><extensions><gom:speed>0.964</gom:speed></extensions></trkpt>
   <trkpt lat="59.3053708759" lon="34.6784718461"><ele>163.327</ele><time>2026-08-16T16:11:04.136Z</time><hdop>3.0</hdop><vdop>2.5</vdop><extensions><gom:speed>0.919</gom:speed></extensions></trkpt>
   <trkpt lat="59.3053751926" lon="34.67847654"><ele>163.602</ele><time>2026-08-16T16:11:05.136Z</time><hdop>3.0</hdop><vdop>2.5</vdop><extensions><gom:speed>1.095</gom:speed></extensions></trkpt>
   <trkpt lat="59.3053756955" lon="34.6784791384"><ele>163.767</ele><time>2026-08-16T16:11:05.599Z</time><hdop>3.0</hdop><vdop>2.5</vdop><extensions><gom:speed>1.016</gom:speed></extensions></trkpt>
   <trkpt lat="59.3053767851" lon="34.6784849219"><ele>163.962</ele><time>2026-08-16T16:11:06.136Z</time><hdop>3.0</hdop><vdop>2.5</vdop><extensions><gom:speed>0.917</gom:speed></extensions></trkpt>
   <trkpt lat="59.3053787968" lon="34.6784893643"><ele>164.078</ele><time>2026-08-16T16:11:07.022Z</time><hdop>3.125</hdop><vdop>2.5</vdop><extensions><gom:speed>0.901</gom:speed></extensions></trkpt>
   <trkpt lat="59.3053839936" lon="34.6785008475"><ele>164.06</ele><time>2026-08-16T16:11:07.857Z</time><hdop>3.25</hdop><vdop>2.5</vdop><extensions><gom:speed>0.843</gom:speed></extensions></trkpt>
   <trkpt lat="59.3053881845" lon="34.678510822"><ele>164.097</ele><time>2026-08-16T16:11:08.318Z</time><hdop>3.312</hdop><vdop>2.5</vdop><extensions><gom:speed>0.834</gom:speed></extensions></trkpt>
   <trkpt lat="59.305392585" lon="34.6785202935"><ele>164.119</ele><time>2026-08-16T16:11:09.084Z</time><hdop>3.437</hdop><vdop>2.5</vdop><extensions><gom:speed>0.898</gom:speed></extensions></trkpt>
   <trkpt lat="59.3053963988" lon="34.6785298489"><ele>164.089</ele><time>2026-08-16T16:11:09.565Z</time><hdop>3.5</hdop><vdop>2.562</vdop><extensions><gom:speed>0.937</gom:speed></extensions></trkpt>
   <trkpt lat="59.3053997935" lon="34.6785408292"><ele>163.939</ele><time>2026-08-16T16:11:10.136Z</time><hdop>3.5</hdop><vdop>2.75</vdop><extensions><gom:speed>0.899</gom:speed></extensions></trkpt>
   <trkpt lat="59.3054034815" lon="34.6785534859"><ele>163.85</ele><time>2026-08-16T16:11:10.821Z</time><hdop>3.562</hdop><vdop>2.75</vdop><extensions><gom:speed>1.007</gom:speed></extensions></trkpt>
   <trkpt lat="59.3054066666" lon="34.6785721775"><ele>163.82</ele><time>2026-08-16T16:11:11.900Z</time><hdop>3.562</hdop><vdop>2.875</vdop><extensions><gom:speed>0.918</gom:speed></extensions></trkpt>
   <trkpt lat="59.3054074629" lon="34.6785896957"><ele>163.959</ele><time>2026-08-16T16:11:13.019Z</time><hdop>3.375</hdop><vdop>2.937</vdop><extensions><gom:speed>0.821</gom:speed></extensions></trkpt>
   <trkpt lat="59.3054084687" lon="34.678603442"><ele>163.805</ele><time>2026-08-16T16:11:13.824Z</time><hdop>3.312</hdop><vdop>2.875</vdop><extensions><gom:speed>0.835</gom:speed></extensions></trkpt>
   <trkpt lat="59.3054105642" lon="34.678616434"><ele>163.752</ele><time>2026-08-16T16:11:14.619Z</time><hdop>3.125</hdop><vdop>2.812</vdop><extensions><gom:speed>0.875</gom:speed></extensions></trkpt>
   <trkpt lat="59.3054127854" lon="34.6786255703"><ele>163.632</ele><time>2026-08-16T16:11:15.136Z</time><hdop>3.125</hdop><vdop>2.875</vdop><extensions><gom:speed>0.893</gom:speed></extensions></trkpt>
   <trkpt lat="59.305418988" lon="34.6786424179"><ele>163.903</ele><time>2026-08-16T16:11:16.136Z</time><hdop>3.062</hdop><vdop>2.812</vdop><extensions><gom:speed>0.918</gom:speed></extensions></trkpt>
   <trkpt lat="59.3054239752" lon="34.6786539849"><ele>164.064</ele><time>2026-08-16T16:11:16.877Z</time><hdop>3.062</hdop><vdop>2.812</vdop><extensions><gom:speed>0.91</gom:speed></extensions></trkpt>
   <trkpt lat="59.3054274956" lon="34.6786672283"><ele>164.238</ele><time>2026-08-16T16:11:17.544Z</time><hdop>3.0</hdop><vdop>2.812</vdop><extensions><gom:speed>0.959</gom:speed></extensions></trkpt>
   <trkpt lat="59.3054293816" lon="34.6786784601"><ele>164.341</ele><time>2026-08-16T16:11:18.123Z</time><hdop>3.0</hdop><vdop>2.812</vdop><extensions><gom:speed>0.961</gom:speed></extensions></trkpt>
   <trkpt lat="59.3054330696" lon="34.6786907815"><ele>164.594</ele><time>2026-08-16T16:11:18.741Z</time><hdop>3.0</hdop><vdop>3.0</vdop><extensions><gom:speed>0.987</gom:speed></extensions></trkpt>
   <trkpt lat="59.3054427926" lon="34.6787116524"><ele>164.989</ele><time>2026-08-16T16:11:19.978Z</time><hdop>3.0</hdop><vdop>2.812</vdop><extensions><gom:speed>1.036</gom:speed></extensions></trkpt>
   <trkpt lat="59.3054557846" lon="34.6787202858"><ele>165.557</ele><time>2026-08-16T16:11:21.136Z</time><hdop>3.0</hdop><vdop>2.625</vdop><extensions><gom:speed>1.014</gom:speed></extensions></trkpt>
   <trkpt lat="59.3054655914" lon="34.678730344"><ele>166.284</ele><time>2026-08-16T16:11:22.136Z</time><hdop>3.0</hdop><vdop>2.562</vdop><extensions><gom:speed>0.996</gom:speed></extensions></trkpt>
   <trkpt lat="59.3054704948" lon="34.678736379"><ele>166.719</ele><time>2026-08-16T16:11:22.715Z</time><hdop>3.0</hdop><vdop>2.562</vdop><extensions><gom:speed>0.977</gom:speed></extensions></trkpt>
   <trkpt lat="59.3054851631" lon="34.6787411567"><ele>167.362</ele><time>2026-08-16T16:11:24.136Z</time><hdop>3.0</hdop><vdop>2.875</vdop><extensions><gom:speed>0.977</gom:speed></extensions></trkpt>
   <trkpt lat="59.3054952633" lon="34.6787362952"><ele>167.983</ele><time>2026-08-16T16:11:25.136Z</time><hdop>3.0</hdop><vdop>2.875</vdop><extensions><gom:speed>0.953</gom:speed></extensions></trkpt>
   <trkpt lat="59.3055020946" lon="34.6787225489"><ele>168.022</ele><time>2026-08-16T16:11:26.136Z</time><hdop>3.0</hdop><vdop>2.562</vdop><extensions><gom:speed>0.902</gom:speed></extensions></trkpt>
   <trkpt lat="59.3055072914" lon="34.6787109818"><ele>168.045</ele><time>2026-08-16T16:11:27.143Z</time><hdop>3.0</hdop><vdop>2.562</vdop><extensions><gom:speed>0.804</gom:speed></extensions></trkpt>
   <trkpt lat="59.3055087582" lon="34.6787096407"><ele>168.519</ele><time>2026-08-16T16:11:27.781Z</time><hdop>3.0</hdop><vdop>2.687</vdop><extensions><gom:speed>0.822</gom:speed></extensions></trkpt>
   <trkpt lat="59.3055108956" lon="34.6787104789"><ele>168.735</ele><time>2026-08-16T16:11:28.321Z</time><hdop>3.0</hdop><vdop>2.5</vdop><extensions><gom:speed>0.886</gom:speed></extensions></trkpt>
   <trkpt lat="59.3055166791" lon="34.6787147537"><ele>168.837</ele><time>2026-08-16T16:11:29.136Z</time><hdop>3.062</hdop><vdop>2.5</vdop><extensions><gom:speed>0.885</gom:speed></extensions></trkpt>
   <trkpt lat="59.3055271984" lon="34.6787225489"><ele>169.029</ele><time>2026-08-16T16:11:30.136Z</time><hdop>3.187</hdop><vdop>2.625</vdop><extensions><gom:speed>0.92</gom:speed></extensions></trkpt>
   <trkpt lat="59.3055343649" lon="34.6787264884"><ele>169.144</ele><time>2026-08-16T16:11:30.863Z</time><hdop>3.312</hdop><vdop>2.625</vdop><extensions><gom:speed>0.965</gom:speed></extensions></trkpt>
   <trkpt lat="59.3055428725" lon="34.6787281647"><ele>169.39</ele><time>2026-08-16T16:11:31.501Z</time><hdop>3.312</hdop><vdop>2.562</vdop><extensions><gom:speed>0.982</gom:speed></extensions></trkpt>
   <trkpt lat="59.3055489913" lon="34.6787289191"><ele>169.537</ele><time>2026-08-16T16:11:32.099Z</time><hdop>3.375</hdop><vdop>2.562</vdop><extensions><gom:speed>0.989</gom:speed></extensions></trkpt>
   <trkpt lat="59.3055577923" lon="34.6787259855"><ele>169.626</ele><time>2026-08-16T16:11:32.962Z</time><hdop>3.437</hdop><vdop>2.625</vdop><extensions><gom:speed>0.989</gom:speed></extensions></trkpt>
   <trkpt lat="59.3055621928" lon="34.6787209563"><ele>169.64</ele><time>2026-08-16T16:11:33.424Z</time><hdop>3.437</hdop><vdop>2.562</vdop><extensions><gom:speed>0.999</gom:speed></extensions></trkpt>
   <trkpt lat="59.3055677668" lon="34.6787166815"><ele>169.849</ele><time>2026-08-16T16:11:34.136Z</time><hdop>3.437</hdop><vdop>2.5</vdop><extensions><gom:speed>0.953</gom:speed></extensions></trkpt>
   <trkpt lat="59.3055760649" lon="34.6787154243"><ele>169.974</ele><time>2026-08-16T16:11:34.936Z</time><hdop>3.312</hdop><vdop>2.5</vdop><extensions><gom:speed>0.985</gom:speed></extensions></trkpt>
   <trkpt lat="59.3055840696" lon="34.6787221298"><ele>169.971</ele><time>2026-08-16T16:11:35.623Z</time><hdop>3.25</hdop><vdop>2.5</vdop><extensions><gom:speed>1.021</gom:speed></extensions></trkpt>
   <trkpt lat="59.3055891826" lon="34.678722968"><ele>170.175</ele><time>2026-08-16T16:11:36.136Z</time><hdop>3.187</hdop><vdop>2.5</vdop><extensions><gom:speed>0.984</gom:speed></extensions></trkpt>
   <trkpt lat="59.3055951756" lon="34.678717855"><ele>170.297</ele><time>2026-08-16T16:11:36.801Z</time><hdop>3.125</hdop><vdop>2.5</vdop><extensions><gom:speed>1.012</gom:speed></extensions></trkpt>
   <trkpt lat="59.3056013782" lon="34.6787177712"><ele>170.391</ele><time>2026-08-16T16:11:37.439Z</time><hdop>3.062</hdop><vdop>2.5</vdop><extensions><gom:speed>1.032</gom:speed></extensions></trkpt>
   <trkpt lat="59.3056072875" lon="34.6787212916"><ele>170.46</ele><time>2026-08-16T16:11:38.136Z</time><hdop>3.0</hdop><vdop>2.5</vdop><extensions><gom:speed>0.978</gom:speed></extensions></trkpt>
   <trkpt lat="59.305613071" lon="34.6787241414"><ele>170.501</ele><time>2026-08-16T16:11:38.764Z</time><hdop>3.0</hdop><vdop>2.5</vdop><extensions><gom:speed>0.976</gom:speed></extensions></trkpt>
   <trkpt lat="59.3056169686" lon="34.6787344512"><ele>170.227</ele><time>2026-08-16T16:11:39.382Z</time><hdop>3.0</hdop><vdop>2.5</vdop><extensions><gom:speed>0.908</gom:speed></extensions></trkpt>
   <trkpt lat="59.3056217882" lon="34.6787422463"><ele>169.782</ele><time>2026-08-16T16:11:40.136Z</time><hdop>3.0</hdop><vdop>2.5</vdop><extensions><gom:speed>0.876</gom:speed></extensions></trkpt>
   <trkpt lat="59.3056271945" lon="34.6787537296"><ele>169.538</ele><time>2026-08-16T16:11:41.136Z</time><hdop>3.0</hdop><vdop>2.5</vdop><extensions><gom:speed>0.843</gom:speed></extensions></trkpt>
   <trkpt lat="59.3056308825" lon="34.6787691523"><ele>169.426</ele><time>2026-08-16T16:11:42.136Z</time><hdop>3.0</hdop><vdop>2.5</vdop><extensions><gom:speed>0.827</gom:speed></extensions></trkpt>
   <trkpt lat="59.3056335647" lon="34.6787851617"><ele>169.34</ele><time>2026-08-16T16:11:43.136Z</time><hdop>3.0</hdop><vdop>2.5</vdop><extensions><gom:speed>0.892</gom:speed></extensions></trkpt>
   <trkpt lat="59.3056402703" lon="34.6787936274"><ele>169.312</ele><time>2026-08-16T16:11:44.136Z</time><hdop>3.0</hdop><vdop>2.5</vdop><extensions><gom:speed>0.895</gom:speed></extensions></trkpt>
   <trkpt lat="59.3056471853" lon="34.6787902746"><ele>169.295</ele><time>2026-08-16T16:11:44.878Z</time><hdop>3.0</hdop><vdop>2.5</vdop><extensions><gom:speed>0.906</gom:speed></extensions></trkpt>
   <trkpt lat="59.3056530946" lon="34.6787848264"><ele>169.335</ele><time>2026-08-16T16:11:45.477Z</time><hdop>3.0</hdop><vdop>2.5</vdop><extensions><gom:speed>0.955</gom:speed></extensions></trkpt>
   <trkpt lat="59.3056592972" lon="34.6787815575"><ele>169.359</ele><time>2026-08-16T16:11:46.105Z</time><hdop>3.0</hdop><vdop>2.5</vdop><extensions><gom:speed>0.95</gom:speed></extensions></trkpt>
   <trkpt lat="59.3056661703" lon="34.6787797973"><ele>169.515</ele><time>2026-08-16T16:11:46.763Z</time><hdop>3.0</hdop><vdop>2.5</vdop><extensions><gom:speed>1.018</gom:speed></extensions></trkpt>
   <trkpt lat="59.30567187" lon="34.6787791267"><ele>169.589</ele><time>2026-08-16T16:11:47.341Z</time><hdop>3.0</hdop><vdop>2.5</vdop><extensions><gom:speed>1.013</gom:speed></extensions></trkpt>
   <trkpt lat="59.3056788689" lon="34.6787786238"><ele>169.545</ele><time>2026-08-16T16:11:48.136Z</time><hdop>3.0</hdop><vdop>2.5</vdop><extensions><gom:speed>0.995</gom:speed></extensions></trkpt>
   <trkpt lat="59.3056840657" lon="34.678777618"><ele>169.518</ele><time>2026-08-16T16:11:48.637Z</time><hdop>3.0</hdop><vdop>2.5</vdop><extensions><gom:speed>1.07</gom:speed></extensions></trkpt>
   <trkpt lat="59.3056879633" lon="34.67877854"><ele>169.714</ele><time>2026-08-16T16:11:49.135Z</time><hdop>3.0</hdop><vdop>2.5</vdop><extensions><gom:speed>0.999</gom:speed></extensions></trkpt>
   <trkpt lat="59.3056944593" lon="34.6787799649"><ele>169.831</ele><time>2026-08-16T16:11:49.844Z</time><hdop>3.0</hdop><vdop>2.5</vdop><extensions><gom:speed>1.006</gom:speed></extensions></trkpt>
   <trkpt lat="59.3056994884" lon="34.678777618"><ele>169.906</ele><time>2026-08-16T16:11:50.640Z</time><hdop>3.0</hdop><vdop>2.5</vdop><extensions><gom:speed>0.949</gom:speed></extensions></trkpt>
   <trkpt lat="59.3057022963" lon="34.6787737623"><ele>169.921</ele><time>2026-08-16T16:11:51.136Z</time><hdop>3.0</hdop><vdop>2.5</vdop><extensions><gom:speed>0.966</gom:speed></extensions></trkpt>
   <trkpt lat="59.305707996" lon="34.6787666377"><ele>169.929</ele><time>2026-08-16T16:11:51.837Z</time><hdop>3.0</hdop><vdop>2.5</vdop><extensions><gom:speed>1.013</gom:speed></extensions></trkpt>
   <trkpt lat="59.3057122708" lon="34.6787630335"><ele>169.985</ele><time>2026-08-16T16:11:52.603Z</time><hdop>3.0</hdop><vdop>2.5</vdop><extensions><gom:speed>0.934</gom:speed></extensions></trkpt>
   <trkpt lat="59.3057160846" lon="34.6787617762"><ele>170.018</ele><time>2026-08-16T16:11:53.064Z</time><hdop>3.0</hdop><vdop>2.5</vdop><extensions><gom:speed>0.934</gom:speed></extensions></trkpt>
   <trkpt lat="59.3057204851" lon="34.6787625306"><ele>170.215</ele><time>2026-08-16T16:11:53.820Z</time><hdop>3.0</hdop><vdop>2.5</vdop><extensions><gom:speed>0.895</gom:speed></extensions></trkpt>
   <trkpt lat="59.3057229996" lon="34.6787610218"><ele>170.294</ele><time>2026-08-16T16:11:54.399Z</time><hdop>3.0</hdop><vdop>2.5</vdop><extensions><gom:speed>0.926</gom:speed></extensions></trkpt>
   <trkpt lat="59.3057293699" lon="34.678758172"><ele>170.342</ele><time>2026-08-16T16:11:55.145Z</time><hdop>3.0</hdop><vdop>2.5</vdop><extensions><gom:speed>0.937</gom:speed></extensions></trkpt>
   <trkpt lat="59.3057347762" lon="34.6787554898"><ele>170.216</ele><time>2026-08-16T16:11:56.136Z</time><hdop>3.0</hdop><vdop>2.5</vdop><extensions><gom:speed>0.9</gom:speed></extensions></trkpt>
   <trkpt lat="59.3057409788" lon="34.6787598483"><ele>170.14</ele><time>2026-08-16T16:11:56.921Z</time><hdop>3.0</hdop><vdop>2.5</vdop><extensions><gom:speed>0.941</gom:speed></extensions></trkpt>
   <trkpt lat="59.3057440801" lon="34.678760938"><ele>169.793</ele><time>2026-08-16T16:11:57.480Z</time><hdop>3.0</hdop><vdop>2.5</vdop><extensions><gom:speed>1.016</gom:speed></extensions></trkpt>
   <trkpt lat="59.3057500732" lon="34.6787588425"><ele>169.586</ele><time>2026-08-16T16:11:58.099Z</time><hdop>3.0</hdop><vdop>2.5</vdop><extensions><gom:speed>1.019</gom:speed></extensions></trkpt>
   <trkpt lat="59.3057531745" lon="34.6787536457"><ele>169.055</ele><time>2026-08-16T16:11:58.599Z</time><hdop>3.0</hdop><vdop>2.5</vdop><extensions><gom:speed>1.114</gom:speed></extensions></trkpt>
   <trkpt lat="59.3057585808" lon="34.6787491195"><ele>168.737</ele><time>2026-08-16T16:11:59.100Z</time><hdop>3.0</hdop><vdop>2.5</vdop><extensions><gom:speed>1.12</gom:speed></extensions></trkpt>
   <trkpt lat="59.3057642805" lon="34.678747024"><ele>168.627</ele><time>2026-08-16T16:11:59.856Z</time><hdop>3.0</hdop><vdop>2.5</vdop><extensions><gom:speed>1.086</gom:speed></extensions></trkpt>
   <trkpt lat="59.3057667951" lon="34.6787505444"><ele>168.409</ele><time>2026-08-16T16:12:00.376Z</time><hdop>3.0</hdop><vdop>2.5</vdop><extensions><gom:speed>1.038</gom:speed></extensions></trkpt>
   <trkpt lat="59.305773794" lon="34.6787541486"><ele>168.279</ele><time>2026-08-16T16:12:01.102Z</time><hdop>3.0</hdop><vdop>2.5</vdop><extensions><gom:speed>1.093</gom:speed></extensions></trkpt>
   <trkpt lat="59.3057770629" lon="34.6787585911"><ele>168.035</ele><time>2026-08-16T16:12:01.563Z</time><hdop>3.0</hdop><vdop>2.5</vdop><extensions><gom:speed>1.105</gom:speed></extensions></trkpt>
   <trkpt lat="59.3057813796" lon="34.6787619438"><ele>167.715</ele><time>2026-08-16T16:12:02.136Z</time><hdop>3.0</hdop><vdop>2.5</vdop><extensions><gom:speed>1.038</gom:speed></extensions></trkpt>
   <trkpt lat="59.3057870793" lon="34.6787617762"><ele>167.524</ele><time>2026-08-16T16:12:02.741Z</time><hdop>3.0</hdop><vdop>2.5</vdop><extensions><gom:speed>1.077</gom:speed></extensions></trkpt>
   <trkpt lat="59.3057933657" lon="34.6787561603"><ele>167.181</ele><time>2026-08-16T16:12:03.585Z</time><hdop>3.0</hdop><vdop>2.5</vdop><extensions><gom:speed>1.037</gom:speed></extensions></trkpt>
   <trkpt lat="59.3057975986" lon="34.6787516341"><ele>166.976</ele><time>2026-08-16T16:12:04.056Z</time><hdop>3.0</hdop><vdop>2.5</vdop><extensions><gom:speed>1.034</gom:speed></extensions></trkpt>
   <trkpt lat="59.3058033821" lon="34.6787506282"><ele>166.5</ele><time>2026-08-16T16:12:04.763Z</time><hdop>3.0</hdop><vdop>2.5</vdop><extensions><gom:speed>1.075</gom:speed></extensions></trkpt>
   <trkpt lat="59.3058064834" lon="34.6787547354"><ele>165.911</ele><time>2026-08-16T16:12:05.244Z</time><hdop>3.0</hdop><vdop>2.5</vdop><extensions><gom:speed>1.029</gom:speed></extensions></trkpt>
   <trkpt lat="59.3058148653" lon="34.6787565794"><ele>165.56</ele><time>2026-08-16T16:12:06.059Z</time><hdop>3.0</hdop><vdop>2.5</vdop><extensions><gom:speed>1.058</gom:speed></extensions></trkpt>
   <trkpt lat="59.3058178828" lon="34.6787608542"><ele>165.222</ele><time>2026-08-16T16:12:06.559Z</time><hdop>3.0</hdop><vdop>2.5</vdop><extensions><gom:speed>1.036</gom:speed></extensions></trkpt>
   <trkpt lat="59.305821487" lon="34.6787649613"><ele>164.925</ele><time>2026-08-16T16:12:07.136Z</time><hdop>3.0</hdop><vdop>2.5</vdop><extensions><gom:speed>0.978</gom:speed></extensions></trkpt>
   <trkpt lat="59.3058275639" lon="34.6787681464"><ele>164.747</ele><time>2026-08-16T16:12:07.845Z</time><hdop>3.0</hdop><vdop>2.5</vdop><extensions><gom:speed>1.022</gom:speed></extensions></trkpt>
   <trkpt lat="59.3058326768" lon="34.6787704934"><ele>164.87</ele><time>2026-08-16T16:12:08.601Z</time><hdop>3.0</hdop><vdop>2.5</vdop><extensions><gom:speed>0.981</gom:speed></extensions></trkpt>
   <trkpt lat="59.305835862" lon="34.6787738461"><ele>164.949</ele><time>2026-08-16T16:12:09.135Z</time><hdop>3.0</hdop><vdop>2.5</vdop><extensions><gom:speed>0.915</gom:speed></extensions></trkpt>
   <trkpt lat="59.3058407654" lon="34.6787789591"><ele>164.996</ele><time>2026-08-16T16:12:09.818Z</time><hdop>3.0</hdop><vdop>2.5</vdop><extensions><gom:speed>0.937</gom:speed></extensions></trkpt>
   <trkpt lat="59.3058437829" lon="34.6787839882"><ele>165.085</ele><time>2026-08-16T16:12:10.358Z</time><hdop>3.0</hdop><vdop>2.5</vdop><extensions><gom:speed>0.901</gom:speed></extensions></trkpt>
   <trkpt lat="59.3058489796" lon="34.6787908614"><ele>165.261</ele><time>2026-08-16T16:12:11.136Z</time><hdop>3.0</hdop><vdop>2.5</vdop><extensions><gom:speed>0.9</gom:speed></extensions></trkpt>
   <trkpt lat="59.3058547632" lon="34.6788024284"><ele>165.366</ele><time>2026-08-16T16:12:12.036Z</time><hdop>3.0</hdop><vdop>2.5</vdop><extensions><gom:speed>0.906</gom:speed></extensions></trkpt>
   <trkpt lat="59.3058583674" lon="34.678813744"><ele>165.5</ele><time>2026-08-16T16:12:12.939Z</time><hdop>3.0</hdop><vdop>2.5</vdop><extensions><gom:speed>0.847</gom:speed></extensions></trkpt>
   <trkpt lat="59.305862265" lon="34.6788168453"><ele>165.474</ele><time>2026-08-16T16:12:13.596Z</time><hdop>3.0</hdop><vdop>2.75</vdop><extensions><gom:speed>0.821</gom:speed></extensions></trkpt>
   <trkpt lat="59.3058661625" lon="34.6788182702"><ele>165.68</ele><time>2026-08-16T16:12:14.136Z</time><hdop>3.0</hdop><vdop>2.687</vdop><extensions><gom:speed>0.803</gom:speed></extensions></trkpt>
   <trkpt lat="59.3058740834" lon="34.6788237184"><ele>165.915</ele><time>2026-08-16T16:12:15.136Z</time><hdop>3.0</hdop><vdop>2.625</vdop><extensions><gom:speed>0.827</gom:speed></extensions></trkpt>
   <trkpt lat="59.3058836807" lon="34.6788298372"><ele>166.344</ele><time>2026-08-16T16:12:16.136Z</time><hdop>3.0</hdop><vdop>2.687</vdop><extensions><gom:speed>0.928</gom:speed></extensions></trkpt>
   <trkpt lat="59.3058902605" lon="34.6788346987"><ele>166.599</ele><time>2026-08-16T16:12:16.796Z</time><hdop>3.0</hdop><vdop>2.687</vdop><extensions><gom:speed>0.935</gom:speed></extensions></trkpt>
   <trkpt lat="59.3059021628" lon="34.6788494509"><ele>166.99</ele><time>2026-08-16T16:12:17.984Z</time><hdop>3.0</hdop><vdop>2.687</vdop><extensions><gom:speed>0.987</gom:speed></extensions></trkpt>
   <trkpt lat="59.305908575" lon="34.6788548991"><ele>167.391</ele><time>2026-08-16T16:12:18.543Z</time><hdop>3.0</hdop><vdop>2.5</vdop><extensions><gom:speed>0.991</gom:speed></extensions></trkpt>
   <trkpt lat="59.3059153643" lon="34.6788618561"><ele>168.113</ele><time>2026-08-16T16:12:19.136Z</time><hdop>3.0</hdop><vdop>2.5</vdop><extensions><gom:speed>1.052</gom:speed></extensions></trkpt>
   <trkpt lat="59.3059215669" lon="34.6788728364"><ele>168.506</ele><time>2026-08-16T16:12:20.136Z</time><hdop>3.0</hdop><vdop>2.5</vdop><extensions><gom:speed>0.748</gom:speed></extensions></trkpt>
   <trkpt lat="59.305923872" lon="34.6788842358"><ele>169.096</ele><time>2026-08-16T16:12:21.136Z</time><hdop>3.0</hdop><vdop>2.625</vdop><extensions><gom:speed>0.815</gom:speed></extensions></trkpt>
   <trkpt lat="59.3059256741" lon="34.6788931206"><ele>169.449</ele><time>2026-08-16T16:12:21.821Z</time><hdop>3.0</hdop><vdop>2.625</vdop><extensions><gom:speed>0.718</gom:speed></extensions></trkpt>
   <trkpt lat="59.3059328825" lon="34.6789095491"><ele>169.845</ele><time>2026-08-16T16:12:22.842Z</time><hdop>3.0</hdop><vdop>2.687</vdop><extensions><gom:speed>0.835</gom:speed></extensions></trkpt>
   <trkpt lat="59.3059413901" lon="34.6789214514"><ele>170.262</ele><time>2026-08-16T16:12:23.578Z</time><hdop>3.0</hdop><vdop>2.625</vdop><extensions><gom:speed>0.931</gom:speed></extensions></trkpt>
   <trkpt lat="59.3059487662" lon="34.6789259777"><ele>170.679</ele><time>2026-08-16T16:12:24.136Z</time><hdop>3.0</hdop><vdop>2.5</vdop><extensions><gom:speed>0.992</gom:speed></extensions></trkpt>
   <trkpt lat="59.3059572738" lon="34.6789273188"><ele>170.927</ele><time>2026-08-16T16:12:24.864Z</time><hdop>3.0</hdop><vdop>2.5</vdop><extensions><gom:speed>0.953</gom:speed></extensions></trkpt>
   <trkpt lat="59.3059685894" lon="34.6789255586"><ele>171.197</ele><time>2026-08-16T16:12:25.659Z</time><hdop>3.0</hdop><vdop>2.562</vdop><extensions><gom:speed>1.037</gom:speed></extensions></trkpt>
   <trkpt lat="59.3059739957" lon="34.6789243851"><ele>171.358</ele><time>2026-08-16T16:12:26.120Z</time><hdop>3.0</hdop><vdop>2.562</vdop><extensions><gom:speed>1.039</gom:speed></extensions></trkpt>
   <trkpt lat="59.3059845988" lon="34.6789192721"><ele>171.408</ele><time>2026-08-16T16:12:26.856Z</time><hdop>3.0</hdop><vdop>2.5</vdop><extensions><gom:speed>1.089</gom:speed></extensions></trkpt>
   <trkpt lat="59.3059921845" lon="34.6789174281"><ele>171.757</ele><time>2026-08-16T16:12:27.416Z</time><hdop>3.0</hdop><vdop>2.5</vdop><extensions><gom:speed>1.112</gom:speed></extensions></trkpt>
   <trkpt lat="59.3060001892" lon="34.6789187692"><ele>171.966</ele><time>2026-08-16T16:12:28.103Z</time><hdop>3.0</hdop><vdop>2.5</vdop><extensions><gom:speed>1.105</gom:speed></extensions></trkpt>
   <trkpt lat="59.3060059727" lon="34.6789172605"><ele>171.764</ele><time>2026-08-16T16:12:28.603Z</time><hdop>3.0</hdop><vdop>2.5</vdop><extensions><gom:speed>1.125</gom:speed></extensions></trkpt>
   <trkpt lat="59.3060111695" lon="34.6789144945"><ele>171.464</ele><time>2026-08-16T16:12:29.136Z</time><hdop>3.0</hdop><vdop>2.5</vdop><extensions><gom:speed>1.12</gom:speed></extensions></trkpt>
   <trkpt lat="59.3060174978" lon="34.6789103873"><ele>171.286</ele><time>2026-08-16T16:12:29.742Z</time><hdop>3.0</hdop><vdop>2.5</vdop><extensions><gom:speed>1.163</gom:speed></extensions></trkpt>
   <trkpt lat="59.3060238681" lon="34.6789040171"><ele>171.005</ele><time>2026-08-16T16:12:30.478Z</time><hdop>3.0</hdop><vdop>2.5</vdop><extensions><gom:speed>1.122</gom:speed></extensions></trkpt>
   <trkpt lat="59.3060301964" lon="34.6789005805"><ele>170.838</ele><time>2026-08-16T16:12:31.077Z</time><hdop>3.0</hdop><vdop>2.5</vdop><extensions><gom:speed>1.121</gom:speed></extensions></trkpt>
   <trkpt lat="59.3060394584" lon="34.6788935397"><ele>170.606</ele><time>2026-08-16T16:12:32.117Z</time><hdop>3.0</hdop><vdop>2.5</vdop><extensions><gom:speed>1.114</gom:speed></extensions></trkpt>
   <trkpt lat="59.3060446971" lon="34.6788871695"><ele>170.331</ele><time>2026-08-16T16:12:32.941Z</time><hdop>3.0</hdop><vdop>2.5</vdop><extensions><gom:speed>1.052</gom:speed></extensions></trkpt>
   <trkpt lat="59.3060463735" lon="34.6788857445"><ele>170.03</ele><time>2026-08-16T16:12:33.442Z</time><hdop>3.0</hdop><vdop>2.5</vdop><extensions><gom:speed>1.016</gom:speed></extensions></trkpt>
   <trkpt lat="59.3060503968" lon="34.6788838167"><ele>169.59</ele><time>2026-08-16T16:12:34.136Z</time><hdop>3.0</hdop><vdop>2.5</vdop><extensions><gom:speed>0.989</gom:speed></extensions></trkpt>
   <trkpt lat="59.3060543782" lon="34.6788815536"><ele>169.327</ele><time>2026-08-16T16:12:34.659Z</time><hdop>3.0</hdop><vdop>2.5</vdop><extensions><gom:speed>1.001</gom:speed></extensions></trkpt>
   <trkpt lat="59.3060566832" lon="34.6788786199"><ele>168.803</ele><time>2026-08-16T16:12:35.136Z</time><hdop>3.0</hdop><vdop>2.5</vdop><extensions><gom:speed>0.951</gom:speed></extensions></trkpt>
   <trkpt lat="59.3060614609" lon="34.6788729202"><ele>168.49</ele><time>2026-08-16T16:12:35.798Z</time><hdop>3.0</hdop><vdop>2.5</vdop><extensions><gom:speed>0.963</gom:speed></extensions></trkpt>
   <trkpt lat="59.306065568" lon="34.678868394"><ele>168.311</ele><time>2026-08-16T16:12:36.818Z</time><hdop>3.0</hdop><vdop>2.5</vdop><extensions><gom:speed>0.857</gom:speed></extensions></trkpt>
   <trkpt lat="59.3060694656" lon="34.6788719982"><ele>168.601</ele><time>2026-08-16T16:12:37.662Z</time><hdop>3.0</hdop><vdop>2.5</vdop><extensions><gom:speed>0.756</gom:speed></extensions></trkpt>
   <trkpt lat="59.3060712677" lon="34.6788769435"><ele>169.003</ele><time>2026-08-16T16:12:38.136Z</time><hdop>3.0</hdop><vdop>2.5</vdop><extensions><gom:speed>0.803</gom:speed></extensions></trkpt>
   <trkpt lat="59.3060740757" lon="34.6788855769"><ele>169.244</ele><time>2026-08-16T16:12:38.840Z</time><hdop>3.0</hdop><vdop>2.5</vdop><extensions><gom:speed>0.774</gom:speed></extensions></trkpt>
   <trkpt lat="59.306075291" lon="34.6788928691"><ele>169.3</ele><time>2026-08-16T16:12:39.301Z</time><hdop>3.0</hdop><vdop>2.5</vdop><extensions><gom:speed>0.816</gom:speed></extensions></trkpt>
   <trkpt lat="59.3060792724" lon="34.6789009996"><ele>169.333</ele><time>2026-08-16T16:12:40.077Z</time><hdop>3.0</hdop><vdop>2.5</vdop><extensions><gom:speed>0.78</gom:speed></extensions></trkpt>
   <trkpt lat="59.3060839663" lon="34.6789030951"><ele>170.321</ele><time>2026-08-16T16:12:41.136Z</time><hdop>3.0</hdop><vdop>2.5</vdop><extensions><gom:speed>0.662</gom:speed></extensions></trkpt>
   <trkpt lat="59.3060843854" lon="34.6788995747"><ele>170.795</ele><time>2026-08-16T16:12:42.136Z</time><hdop>3.0</hdop><vdop>2.5</vdop><extensions><gom:speed>0.316</gom:speed></extensions></trkpt>
   <trkpt lat="59.3060841758" lon="34.6788990718"><ele>171.079</ele><time>2026-08-16T16:12:42.776Z</time><hdop>3.0</hdop><vdop>2.5</vdop><extensions><gom:speed>0.283</gom:speed></extensions></trkpt>
   <trkpt lat="59.3060879896" lon="34.6788997423"><ele>171.396</ele><time>2026-08-16T16:12:43.885Z</time><hdop>3.0</hdop><vdop>2.5</vdop><extensions><gom:speed>0.375</gom:speed></extensions></trkpt>
   <trkpt lat="59.3060946951" lon="34.6788990718"><ele>171.419</ele><time>2026-08-16T16:12:45.136Z</time><hdop>3.0</hdop><vdop>2.5</vdop><extensions><gom:speed>0.49</gom:speed></extensions></trkpt>
   <trkpt lat="59.3060975869" lon="34.6788987365"><ele>171.433</ele><time>2026-08-16T16:12:45.858Z</time><hdop>3.0</hdop><vdop>2.5</vdop><extensions><gom:speed>0.429</gom:speed></extensions></trkpt>
   <trkpt lat="59.3061043762" lon="34.678900832"><ele>170.918</ele><time>2026-08-16T16:12:47.136Z</time><hdop>3.0</hdop><vdop>2.5</vdop><extensions><gom:speed>0.643</gom:speed></extensions></trkpt>
   <trkpt lat="59.3061115847" lon="34.6789038494"><ele>170.294</ele><time>2026-08-16T16:12:48.136Z</time><hdop>3.0</hdop><vdop>2.5</vdop><extensions><gom:speed>0.744</gom:speed></extensions></trkpt>
   <trkpt lat="59.3061181645" lon="34.6789031789"><ele>169.921</ele><time>2026-08-16T16:12:48.822Z</time><hdop>3.0</hdop><vdop>2.5</vdop><extensions><gom:speed>0.83</gom:speed></extensions></trkpt>
   <trkpt lat="59.3061229841" lon="34.6789050229"><ele>169.607</ele><time>2026-08-16T16:12:49.519Z</time><hdop>3.0</hdop><vdop>2.5</vdop><extensions><gom:speed>0.787</gom:speed></extensions></trkpt>
   <trkpt lat="59.3061266721" lon="34.6789079566"><ele>169.42</ele><time>2026-08-16T16:12:50.000Z</time><hdop>3.0</hdop><vdop>2.5</vdop><extensions><gom:speed>0.784</gom:speed></extensions></trkpt>
   <trkpt lat="59.3061310726" lon="34.6789213676"><ele>169.253</ele><time>2026-08-16T16:12:51.002Z</time><hdop>3.0</hdop><vdop>2.5</vdop><extensions><gom:speed>0.827</gom:speed></extensions></trkpt>
   <trkpt lat="59.3061337967" lon="34.6789339405"><ele>168.855</ele><time>2026-08-16T16:12:51.925Z</time><hdop>3.0</hdop><vdop>2.5</vdop><extensions><gom:speed>0.778</gom:speed></extensions></trkpt>
   <trkpt lat="59.3061370657" lon="34.6789391373"><ele>168.658</ele><time>2026-08-16T16:12:52.680Z</time><hdop>3.0</hdop><vdop>2.5</vdop><extensions><gom:speed>0.754</gom:speed></extensions></trkpt>
   <trkpt lat="59.3061387839" lon="34.6789412327"><ele>168.63</ele><time>2026-08-16T16:12:53.136Z</time><hdop>3.0</hdop><vdop>2.5</vdop><extensions><gom:speed>0.731</gom:speed></extensions></trkpt>
   <trkpt lat="59.3061412985" lon="34.6789438311"><ele>168.614</ele><time>2026-08-16T16:12:53.732Z</time><hdop>3.0</hdop><vdop>2.5</vdop><extensions><gom:speed>0.642</gom:speed></extensions></trkpt>
   <trkpt lat="59.3061436874" lon="34.6789476868"><ele>168.66</ele><time>2026-08-16T16:12:54.674Z</time><hdop>3.0</hdop><vdop>2.5</vdop><extensions><gom:speed>0.551</gom:speed></extensions></trkpt>
   <trkpt lat="59.3061446932" lon="34.6789498661"><ele>168.813</ele><time>2026-08-16T16:12:55.136Z</time><hdop>3.0</hdop><vdop>2.5</vdop><extensions><gom:speed>0.562</gom:speed></extensions></trkpt>
   <trkpt lat="59.3061466629" lon="34.6789541409"><ele>168.904</ele><time>2026-08-16T16:12:55.920Z</time><hdop>3.0</hdop><vdop>2.5</vdop><extensions><gom:speed>0.495</gom:speed></extensions></trkpt>
   <trkpt lat="59.3061496804" lon="34.6789622713"><ele>169.034</ele><time>2026-08-16T16:12:56.853Z</time><hdop>3.0</hdop><vdop>2.5</vdop><extensions><gom:speed>0.55</gom:speed></extensions></trkpt>
   <trkpt lat="59.3061530751" lon="34.6789721619"><ele>169.05</ele><time>2026-08-16T16:12:57.638Z</time><hdop>3.0</hdop><vdop>2.5</vdop><extensions><gom:speed>0.652</gom:speed></extensions></trkpt>
   <trkpt lat="59.3061559668" lon="34.6789763529"><ele>169.105</ele><time>2026-08-16T16:12:58.136Z</time><hdop>3.0</hdop><vdop>2.5</vdop><extensions><gom:speed>0.668</gom:speed></extensions></trkpt>
   <trkpt lat="59.3061631753" lon="34.6789798733"><ele>169.137</ele><time>2026-08-16T16:12:59.061Z</time><hdop>3.0</hdop><vdop>2.5</vdop><extensions><gom:speed>0.731</gom:speed></extensions></trkpt>
   <trkpt lat="59.3061699646" lon="34.6789800409"><ele>168.968</ele><time>2026-08-16T16:12:59.797Z</time><hdop>3.0</hdop><vdop>2.5</vdop><extensions><gom:speed>0.833</gom:speed></extensions></trkpt>
   <trkpt lat="59.3061765863" lon="34.6789756823"><ele>168.88</ele><time>2026-08-16T16:13:00.533Z</time><hdop>3.0</hdop><vdop>2.5</vdop><extensions><gom:speed>0.869</gom:speed></extensions></trkpt>
   <trkpt lat="59.3061818669" lon="34.6789675519"><ele>168.687</ele><time>2026-08-16T16:13:01.136Z</time><hdop>3.0</hdop><vdop>2.5</vdop><extensions><gom:speed>0.941</gom:speed></extensions></trkpt>
   <trkpt lat="59.30618786" lon="34.6789525483"><ele>168.571</ele><time>2026-08-16T16:13:02.035Z</time><hdop>3.0</hdop><vdop>2.5</vdop><extensions><gom:speed>0.995</gom:speed></extensions></trkpt>
   <trkpt lat="59.3061926796" lon="34.6789407298"><ele>168.548</ele><time>2026-08-16T16:13:02.712Z</time><hdop>3.0</hdop><vdop>2.5</vdop><extensions><gom:speed>1.009</gom:speed></extensions></trkpt>
   <trkpt lat="59.3061968705" lon="34.6789363712"><ele>168.14</ele><time>2026-08-16T16:13:03.213Z</time><hdop>3.0</hdop><vdop>2.5</vdop><extensions><gom:speed>1.036</gom:speed></extensions></trkpt>
   <trkpt lat="59.3062041628" lon="34.6789320965"><ele>167.897</ele><time>2026-08-16T16:13:03.959Z</time><hdop>3.0</hdop><vdop>2.5</vdop><extensions><gom:speed>1.037</gom:speed></extensions></trkpt>
   <trkpt lat="59.3062079766" lon="34.6789284922"><ele>167.561</ele><time>2026-08-16T16:13:04.459Z</time><hdop>3.0</hdop><vdop>2.5</vdop><extensions><gom:speed>1.063</gom:speed></extensions></trkpt>
   <trkpt lat="59.30621288" lon="34.6789237984"><ele>167.24</ele><time>2026-08-16T16:13:05.136Z</time><hdop>3.0</hdop><vdop>2.5</vdop><extensions><gom:speed>1.039</gom:speed></extensions></trkpt>
   <trkpt lat="59.3062178672" lon="34.6789167576"><ele>167.048</ele><time>2026-08-16T16:13:05.755Z</time><hdop>3.0</hdop><vdop>2.5</vdop><extensions><gom:speed>1.034</gom:speed></extensions></trkpt>
   <trkpt lat="59.3062266682" lon="34.6789198589"><ele>166.882</ele><time>2026-08-16T16:13:06.874Z</time><hdop>3.0</hdop><vdop>2.5</vdop><extensions><gom:speed>0.957</gom:speed></extensions></trkpt>
   <trkpt lat="59.306232787" lon="34.6789326832"><ele>166.443</ele><time>2026-08-16T16:13:07.718Z</time><hdop>3.0</hdop><vdop>2.5</vdop><extensions><gom:speed>0.993</gom:speed></extensions></trkpt>
   <trkpt lat="59.3062367684" lon="34.6789412327"><ele>165.853</ele><time>2026-08-16T16:13:08.356Z</time><hdop>3.0</hdop><vdop>2.5</vdop><extensions><gom:speed>0.935</gom:speed></extensions></trkpt>
   <trkpt lat="59.306241588" lon="34.6789456751"><ele>165.501</ele><time>2026-08-16T16:13:08.915Z</time><hdop>3.0</hdop><vdop>2.5</vdop><extensions><gom:speed>0.969</gom:speed></extensions></trkpt>
   <trkpt lat="59.3062465752" lon="34.6789580804"><ele>165.045</ele><time>2026-08-16T16:13:09.759Z</time><hdop>3.0</hdop><vdop>2.5</vdop><extensions><gom:speed>0.903</gom:speed></extensions></trkpt>
   <trkpt lat="59.3062495927" lon="34.6789655402"><ele>164.675</ele><time>2026-08-16T16:13:10.299Z</time><hdop>3.0</hdop><vdop>2.5</vdop><extensions><gom:speed>0.873</gom:speed></extensions></trkpt>
   <trkpt lat="59.3062555858" lon="34.6789699827"><ele>164.454</ele><time>2026-08-16T16:13:10.996Z</time><hdop>3.0</hdop><vdop>2.5</vdop><extensions><gom:speed>0.919</gom:speed></extensions></trkpt>
   <trkpt lat="59.3062624589" lon="34.6789777778"><ele>163.916</ele><time>2026-08-16T16:13:12.136Z</time><hdop>3.0</hdop><vdop>2.5</vdop><extensions><gom:speed>0.827</gom:speed></extensions></trkpt>
   <trkpt lat="59.3062659793" lon="34.6789829746"><ele>163.595</ele><time>2026-08-16T16:13:12.674Z</time><hdop>3.0</hdop><vdop>2.5</vdop><extensions><gom:speed>0.857</gom:speed></extensions></trkpt>
   <trkpt lat="59.3062687873" lon="34.6789876685"><ele>163.253</ele><time>2026-08-16T16:13:13.136Z</time><hdop>3.0</hdop><vdop>2.5</vdop><extensions><gom:speed>0.839</gom:speed></extensions></trkpt>
   <trkpt lat="59.3062725591" lon="34.6789926976"><ele>163.048</ele><time>2026-08-16T16:13:13.617Z</time><hdop>3.0</hdop><vdop>2.5</vdop><extensions><gom:speed>0.949</gom:speed></extensions></trkpt>
   <trkpt lat="59.3062759957" lon="34.6789983973"><ele>162.997</ele><time>2026-08-16T16:13:14.136Z</time><hdop>3.0</hdop><vdop>2.5</vdop><extensions><gom:speed>0.932</gom:speed></extensions></trkpt>
   <trkpt lat="59.3062817792" lon="34.6790055219"><ele>162.966</ele><time>2026-08-16T16:13:14.893Z</time><hdop>3.0</hdop><vdop>2.5</vdop><extensions><gom:speed>0.945</gom:speed></extensions></trkpt>
   <trkpt lat="59.3062867664" lon="34.6790115569"><ele>162.908</ele><time>2026-08-16T16:13:15.599Z</time><hdop>3.0</hdop><vdop>2.5</vdop><extensions><gom:speed>1.013</gom:speed></extensions></trkpt>
   <trkpt lat="59.3062903707" lon="34.6790178433"><ele>162.593</ele><time>2026-08-16T16:13:16.136Z</time><hdop>3.0</hdop><vdop>2.5</vdop><extensions><gom:speed>0.98</gom:speed></extensions></trkpt>
   <trkpt lat="59.3062946873" lon="34.6790276501"><ele>162.405</ele><time>2026-08-16T16:13:16.777Z</time><hdop>3.0</hdop><vdop>2.5</vdop><extensions><gom:speed>1.063</gom:speed></extensions></trkpt>
   <trkpt lat="59.3063006804" lon="34.6790483534"><ele>162.376</ele><time>2026-08-16T16:13:18.015Z</time><hdop>3.0</hdop><vdop>2.5</vdop><extensions><gom:speed>1.086</gom:speed></extensions></trkpt>
   <trkpt lat="59.3063039913" lon="34.6790523768"><ele>162.241</ele><time>2026-08-16T16:13:18.535Z</time><hdop>3.0</hdop><vdop>2.5</vdop><extensions><gom:speed>1.037</gom:speed></extensions></trkpt>
   <trkpt lat="59.306308266" lon="34.6790535502"><ele>162.167</ele><time>2026-08-16T16:13:19.136Z</time><hdop>3.0</hdop><vdop>2.5</vdop><extensions><gom:speed>0.976</gom:speed></extensions></trkpt>
   <trkpt lat="59.306311996" lon="34.6790544722"><ele>162.122</ele><time>2026-08-16T16:13:19.615Z</time><hdop>3.0</hdop><vdop>2.5</vdop><extensions><gom:speed>0.943</gom:speed></extensions></trkpt>
   <trkpt lat="59.3063145944" lon="34.6790521253"><ele>162.203</ele><time>2026-08-16T16:13:20.136Z</time><hdop>3.0</hdop><vdop>2.5</vdop><extensions><gom:speed>0.749</gom:speed></extensions></trkpt>
   <trkpt lat="59.3063193721" lon="34.6790465932"><ele>162.281</ele><time>2026-08-16T16:13:21.136Z</time><hdop>3.0</hdop><vdop>2.5</vdop><extensions><gom:speed>0.704</gom:speed></extensions></trkpt>
   <trkpt lat="59.3063232696" lon="34.6790425699"><ele>162.324</ele><time>2026-08-16T16:13:22.136Z</time><hdop>3.0</hdop><vdop>2.5</vdop><extensions><gom:speed>0.491</gom:speed></extensions></trkpt>
   <trkpt lat="59.306323563" lon="34.6790395525"><ele>162.353</ele><time>2026-08-16T16:13:23.136Z</time><hdop>3.0</hdop><vdop>2.5</vdop><extensions><gom:speed>0.221</gom:speed></extensions></trkpt>
   <trkpt lat="59.3063230601" lon="34.6790364511"><ele>162.38</ele><time>2026-08-16T16:13:24.136Z</time><hdop>3.0</hdop><vdop>2.5</vdop><extensions><gom:speed>0.127</gom:speed></extensions></trkpt>
   <trkpt lat="59.3063229763" lon="34.6790337689"><ele>162.397</ele><time>2026-08-16T16:13:25.136Z</time><hdop>3.0</hdop><vdop>2.5</vdop><extensions><gom:speed>0.095</gom:speed></extensions></trkpt>
   <trkpt lat="59.3063223895" lon="34.6790321764"><ele>162.417</ele><time>2026-08-16T16:13:26.136Z</time><hdop>3.0</hdop><vdop>2.5</vdop><extensions><gom:speed>0.065</gom:speed></extensions></trkpt>
   <trkpt lat="59.3063216771" lon="34.6790307515"><ele>162.442</ele><time>2026-08-16T16:13:27.136Z</time><hdop>3.0</hdop><vdop>2.5</vdop><extensions><gom:speed>0.063</gom:speed></extensions></trkpt>
   <trkpt lat="59.3063216771" lon="34.6790297456"><ele>162.448</ele><time>2026-08-16T16:13:28.136Z</time><hdop>3.0</hdop><vdop>2.5</vdop><extensions><gom:speed>0.091</gom:speed></extensions></trkpt>
   <trkpt lat="59.3063218866" lon="34.6790300809"><ele>162.461</ele><time>2026-08-16T16:13:29.136Z</time><hdop>3.0</hdop><vdop>2.5</vdop><extensions><gom:speed>0.09</gom:speed></extensions></trkpt>
   <trkpt lat="59.3063213837" lon="34.6790299971"><ele>162.486</ele><time>2026-08-16T16:13:30.135Z</time><hdop>3.0</hdop><vdop>2.5</vdop><extensions><gom:speed>0.06</gom:speed></extensions></trkpt>
   <trkpt lat="59.3063208808" lon="34.6790300809"><ele>162.492</ele><time>2026-08-16T16:13:31.136Z</time><hdop>3.0</hdop><vdop>2.5</vdop><extensions><gom:speed>0.062</gom:speed></extensions></trkpt>
   <trkpt lat="59.3063205874" lon="34.6790299971"><ele>162.486</ele><time>2026-08-16T16:13:32.136Z</time><hdop>3.0</hdop><vdop>2.5</vdop><extensions><gom:speed>0.101</gom:speed></extensions></trkpt>
   <trkpt lat="59.3063202941" lon="34.6790297456"><ele>162.465</ele><time>2026-08-16T16:13:33.136Z</time><hdop>3.0</hdop><vdop>2.5</vdop><extensions><gom:speed>0.093</gom:speed></extensions></trkpt>
   <trkpt lat="59.3063204617" lon="34.6790296618"><ele>162.449</ele><time>2026-08-16T16:13:34.136Z</time><hdop>3.0</hdop><vdop>2.5</vdop><extensions><gom:speed>0.074</gom:speed></extensions></trkpt>
   <trkpt lat="59.3063203779" lon="34.6790292427"><ele>162.451</ele><time>2026-08-16T16:13:35.136Z</time><hdop>3.0</hdop><vdop>2.5</vdop><extensions><gom:speed>0.066</gom:speed></extensions></trkpt>
   <trkpt lat="59.3063212999" lon="34.6790287398"><ele>162.612</ele><time>2026-08-16T16:13:36.136Z</time><hdop>3.0</hdop><vdop>2.5</vdop><extensions><gom:speed>0.093</gom:speed></extensions></trkpt>
   <trkpt lat="59.3063216771" lon="34.6790288236"><ele>162.708</ele><time>2026-08-16T16:13:36.713Z</time><hdop>3.0</hdop><vdop>2.5</vdop><extensions><gom:speed>0.082</gom:speed></extensions></trkpt>
   <trkpt lat="59.3063231858" lon="34.6790287398"><ele>162.93</ele><time>2026-08-16T16:13:37.597Z</time><hdop>3.0</hdop><vdop>2.5</vdop><extensions><gom:speed>0.072</gom:speed></extensions></trkpt>
   <trkpt lat="59.3063237726" lon="34.6790281531"><ele>163.063</ele><time>2026-08-16T16:13:38.058Z</time><hdop>3.0</hdop><vdop>2.5</vdop><extensions><gom:speed>0.112</gom:speed></extensions></trkpt>
   <trkpt lat="59.3063278797" lon="34.6790271472"><ele>163.053</ele><time>2026-08-16T16:13:39.136Z</time><hdop>3.0</hdop><vdop>2.5</vdop><extensions><gom:speed>0.192</gom:speed></extensions></trkpt>
   <trkpt lat="59.3063292627" lon="34.6790266443"><ele>163.047</ele><time>2026-08-16T16:13:40.021Z</time><hdop>3.0</hdop><vdop>2.5</vdop><extensions><gom:speed>0.191</gom:speed></extensions></trkpt>
   <trkpt lat="59.3063319868" lon="34.6790268958"><ele>162.977</ele><time>2026-08-16T16:13:40.600Z</time><hdop>3.0</hdop><vdop>2.5</vdop><extensions><gom:speed>0.203</gom:speed></extensions></trkpt>
   <trkpt lat="59.3063343757" lon="34.6790268958"><ele>162.946</ele><time>2026-08-16T16:13:41.136Z</time><hdop>3.0</hdop><vdop>2.5</vdop><extensions><gom:speed>0.237</gom:speed></extensions></trkpt>
   <trkpt lat="59.3063365969" lon="34.6790257223"><ele>162.928</ele><time>2026-08-16T16:13:41.935Z</time><hdop>3.0</hdop><vdop>2.5</vdop><extensions><gom:speed>0.23</gom:speed></extensions></trkpt>
   <trkpt lat="59.3063400754" lon="34.6790267281"><ele>162.94</ele><time>2026-08-16T16:13:42.494Z</time><hdop>3.0</hdop><vdop>2.5</vdop><extensions><gom:speed>0.294</gom:speed></extensions></trkpt>
   <trkpt lat="59.3063421708" lon="34.6790276501"><ele>162.948</ele><time>2026-08-16T16:13:43.113Z</time><hdop>3.0</hdop><vdop>2.5</vdop><extensions><gom:speed>0.31</gom:speed></extensions></trkpt>
   <trkpt lat="59.3063484992" lon="34.6790297456"><ele>162.802</ele><time>2026-08-16T16:13:43.732Z</time><hdop>3.0</hdop><vdop>2.5</vdop><extensions><gom:speed>0.479</gom:speed></extensions></trkpt>
   <trkpt lat="59.3063581803" lon="34.6790310867"><ele>162.751</ele><time>2026-08-16T16:13:44.419Z</time><hdop>3.0</hdop><vdop>2.5</vdop><extensions><gom:speed>0.73</gom:speed></extensions></trkpt>
   <trkpt lat="59.3063632932" lon="34.6790307515"><ele>162.721</ele><time>2026-08-16T16:13:44.959Z</time><hdop>3.0</hdop><vdop>2.5</vdop><extensions><gom:speed>0.739</gom:speed></extensions></trkpt>
   <trkpt lat="59.3063714656" lon="34.6790322602"><ele>162.55</ele><time>2026-08-16T16:13:45.656Z</time><hdop>3.0</hdop><vdop>2.5</vdop><extensions><gom:speed>0.836</gom:speed></extensions></trkpt>
   <trkpt lat="59.3063760756" lon="34.679032344"><ele>162.448</ele><time>2026-08-16T16:13:46.117Z</time><hdop>3.0</hdop><vdop>2.5</vdop><extensions><gom:speed>0.836</gom:speed></extensions></trkpt>
   <trkpt lat="59.3063839965" lon="34.6790353615"><ele>162.41</ele><time>2026-08-16T16:13:46.952Z</time><hdop>3.0</hdop><vdop>2.5</vdop><extensions><gom:speed>0.829</gom:speed></extensions></trkpt>
   <trkpt lat="59.3063896962" lon="34.679038379"><ele>162.245</ele><time>2026-08-16T16:13:47.541Z</time><hdop>3.0</hdop><vdop>2.5</vdop><extensions><gom:speed>0.853</gom:speed></extensions></trkpt>
   <trkpt lat="59.3063941805" lon="34.6790412288"><ele>162.289</ele><time>2026-08-16T16:13:48.136Z</time><hdop>3.0</hdop><vdop>2.5</vdop><extensions><gom:speed>0.831</gom:speed></extensions></trkpt>
   <trkpt lat="59.3064007603" lon="34.6790446654"><ele>162.314</ele><time>2026-08-16T16:13:48.875Z</time><hdop>3.062</hdop><vdop>2.5</vdop><extensions><gom:speed>0.879</gom:speed></extensions></trkpt>
   <trkpt lat="59.3064051608" lon="34.6790524606"><ele>162.286</ele><time>2026-08-16T16:13:49.513Z</time><hdop>3.062</hdop><vdop>2.5</vdop><extensions><gom:speed>0.892</gom:speed></extensions></trkpt>
   <trkpt lat="59.3064091841" lon="34.6790602558"><ele>162.41</ele><time>2026-08-16T16:13:50.136Z</time><hdop>3.062</hdop><vdop>2.5</vdop><extensions><gom:speed>0.894</gom:speed></extensions></trkpt>
   <trkpt lat="59.3064153868" lon="34.6790731639"><ele>162.489</ele><time>2026-08-16T16:13:51.136Z</time><hdop>3.0</hdop><vdop>2.5</vdop><extensions><gom:speed>0.847</gom:speed></extensions></trkpt>
   <trkpt lat="59.306418991" lon="34.6790796179"><ele>162.536</ele><time>2026-08-16T16:13:51.673Z</time><hdop>3.0</hdop><vdop>2.5</vdop><extensions><gom:speed>0.884</gom:speed></extensions></trkpt>
   <trkpt lat="59.3064221761" lon="34.67908515"><ele>162.655</ele><time>2026-08-16T16:13:52.136Z</time><hdop>3.0</hdop><vdop>2.5</vdop><extensions><gom:speed>0.889</gom:speed></extensions></trkpt>
   <trkpt lat="59.306429175" lon="34.679094873"><ele>162.726</ele><time>2026-08-16T16:13:52.958Z</time><hdop>3.0</hdop><vdop>2.5</vdop><extensions><gom:speed>0.958</gom:speed></extensions></trkpt>
   <trkpt lat="59.3064363834" lon="34.6791113854"><ele>162.544</ele><time>2026-08-16T16:13:54.097Z</time><hdop>3.0</hdop><vdop>2.5</vdop><extensions><gom:speed>0.992</gom:speed></extensions></trkpt>
   <trkpt lat="59.3064415802" lon="34.6791219466"><ele>162.256</ele><time>2026-08-16T16:13:55.000Z</time><hdop>3.0</hdop><vdop>2.5</vdop><extensions><gom:speed>0.946</gom:speed></extensions></trkpt>
   <trkpt lat="59.3064438852" lon="34.6791268919"><ele>161.978</ele><time>2026-08-16T16:13:55.481Z</time><hdop>3.0</hdop><vdop>2.5</vdop><extensions><gom:speed>0.918</gom:speed></extensions></trkpt>
   <trkpt lat="59.3064475733" lon="34.6791338489"><ele>161.565</ele><time>2026-08-16T16:13:56.135Z</time><hdop>3.0</hdop><vdop>2.5</vdop><extensions><gom:speed>0.906</gom:speed></extensions></trkpt>
   <trkpt lat="59.3064514708" lon="34.6791394647"><ele>161.318</ele><time>2026-08-16T16:13:56.659Z</time><hdop>3.0</hdop><vdop>2.5</vdop><extensions><gom:speed>0.936</gom:speed></extensions></trkpt>
   <trkpt lat="59.3064549912" lon="34.679143069"><ele>161.059</ele><time>2026-08-16T16:13:57.136Z</time><hdop>3.0</hdop><vdop>2.5</vdop><extensions><gom:speed>0.926</gom:speed></extensions></trkpt>
   <trkpt lat="59.3064607748" lon="34.6791489363"><ele>160.904</ele><time>2026-08-16T16:13:57.758Z</time><hdop>3.0</hdop><vdop>2.5</vdop><extensions><gom:speed>1.014</gom:speed></extensions></trkpt>
   <trkpt lat="59.3064668935" lon="34.6791545522"><ele>160.817</ele><time>2026-08-16T16:13:58.434Z</time><hdop>3.0</hdop><vdop>2.5</vdop><extensions><gom:speed>1.04</gom:speed></extensions></trkpt>
   <trkpt lat="59.3064719646" lon="34.6791585755"><ele>160.765</ele><time>2026-08-16T16:13:58.955Z</time><hdop>3.0</hdop><vdop>2.5</vdop><extensions><gom:speed>1.035</gom:speed></extensions></trkpt>
   <trkpt lat="59.3064770776" lon="34.6791534625"><ele>160.475</ele><time>2026-08-16T16:13:59.613Z</time><hdop>3.0</hdop><vdop>2.5</vdop><extensions><gom:speed>1.002</gom:speed></extensions></trkpt>
   <trkpt lat="59.306481059" lon="34.6791489363"><ele>160.302</ele><time>2026-08-16T16:14:00.074Z</time><hdop>3.0</hdop><vdop>2.5</vdop><extensions><gom:speed>1.0</gom:speed></extensions></trkpt>
   <trkpt lat="59.3064868844" lon="34.6791431528"><ele>160.337</ele><time>2026-08-16T16:14:00.800Z</time><hdop>3.0</hdop><vdop>2.5</vdop><extensions><gom:speed>0.985</gom:speed></extensions></trkpt>
   <trkpt lat="59.3064902791" lon="34.6791447453"><ele>160.265</ele><time>2026-08-16T16:14:01.301Z</time><hdop>3.0</hdop><vdop>2.5</vdop><extensions><gom:speed>0.942</gom:speed></extensions></trkpt>
   <trkpt lat="59.306496775" lon="34.6791494392"><ele>160.27</ele><time>2026-08-16T16:14:02.136Z</time><hdop>3.0</hdop><vdop>2.5</vdop><extensions><gom:speed>0.948</gom:speed></extensions></trkpt>
   <trkpt lat="59.3065045702" lon="34.6791575696"><ele>160.186</ele><time>2026-08-16T16:14:03.136Z</time><hdop>3.0</hdop><vdop>2.5</vdop><extensions><gom:speed>0.975</gom:speed></extensions></trkpt>
   <trkpt lat="59.3065090964" lon="34.6791629341"><ele>160.135</ele><time>2026-08-16T16:14:03.696Z</time><hdop>3.0</hdop><vdop>2.5</vdop><extensions><gom:speed>1.025</gom:speed></extensions></trkpt>
   <trkpt lat="59.3065139998" lon="34.6791716512"><ele>160.014</ele><time>2026-08-16T16:14:04.432Z</time><hdop>3.0</hdop><vdop>2.5</vdop><extensions><gom:speed>1.03</gom:speed></extensions></trkpt>
   <trkpt lat="59.3065175622" lon="34.6791783568"><ele>159.942</ele><time>2026-08-16T16:14:04.912Z</time><hdop>3.0</hdop><vdop>2.5</vdop><extensions><gom:speed>1.037</gom:speed></extensions></trkpt>
   <trkpt lat="59.3065223817" lon="34.6791862358"><ele>159.666</ele><time>2026-08-16T16:14:05.639Z</time><hdop>3.0</hdop><vdop>2.5</vdop><extensions><gom:speed>1.044</gom:speed></extensions></trkpt>
   <trkpt lat="59.3065263632" lon="34.6791892532"><ele>159.332</ele><time>2026-08-16T16:14:06.136Z</time><hdop>3.0</hdop><vdop>2.5</vdop><extensions><gom:speed>1.028</gom:speed></extensions></trkpt>
   <trkpt lat="59.3065334878" lon="34.6791947853"><ele>159.133</ele><time>2026-08-16T16:14:06.876Z</time><hdop>3.0</hdop><vdop>2.5</vdop><extensions><gom:speed>1.069</gom:speed></extensions></trkpt>
   <trkpt lat="59.3065386845" lon="34.6791971322"><ele>158.902</ele><time>2026-08-16T16:14:07.475Z</time><hdop>3.0</hdop><vdop>2.5</vdop><extensions><gom:speed>1.028</gom:speed></extensions></trkpt>
   <trkpt lat="59.3065446776" lon="34.6791981381"><ele>158.798</ele><time>2026-08-16T16:14:08.136Z</time><hdop>3.0</hdop><vdop>2.5</vdop><extensions><gom:speed>0.974</gom:speed></extensions></trkpt>
   <trkpt lat="59.3065496648" lon="34.6791969646"><ele>158.736</ele><time>2026-08-16T16:14:08.692Z</time><hdop>3.0</hdop><vdop>2.5</vdop><extensions><gom:speed>0.987</gom:speed></extensions></trkpt>
   <trkpt lat="59.3065602679" lon="34.6791911811"><ele>158.54</ele><time>2026-08-16T16:14:09.899Z</time><hdop>3.0</hdop><vdop>2.5</vdop><extensions><gom:speed>0.959</gom:speed></extensions></trkpt>
   <trkpt lat="59.3065663867" lon="34.6791848947"><ele>158.453</ele><time>2026-08-16T16:14:10.673Z</time><hdop>3.0</hdop><vdop>2.5</vdop><extensions><gom:speed>0.927</gom:speed></extensions></trkpt>
   <trkpt lat="59.3065697814" lon="34.6791802846"><ele>158.22</ele><time>2026-08-16T16:14:11.135Z</time><hdop>3.0</hdop><vdop>2.5</vdop><extensions><gom:speed>0.905</gom:speed></extensions></trkpt>
   <trkpt lat="59.306577367" lon="34.6791712321"><ele>158.124</ele><time>2026-08-16T16:14:12.135Z</time><hdop>3.0</hdop><vdop>2.5</vdop><extensions><gom:speed>0.955</gom:speed></extensions></trkpt>
   <trkpt lat="59.3065864614" lon="34.6791674603"><ele>158.022</ele><time>2026-08-16T16:14:13.136Z</time><hdop>3.0</hdop><vdop>2.5</vdop><extensions><gom:speed>0.969</gom:speed></extensions></trkpt>
   <trkpt lat="59.3065914905" lon="34.6791679632"><ele>157.962</ele><time>2026-08-16T16:14:13.638Z</time><hdop>3.0</hdop><vdop>2.5</vdop><extensions><gom:speed>1.008</gom:speed></extensions></trkpt>
   <trkpt lat="59.3065955977" lon="34.6791704778"><ele>157.786</ele><time>2026-08-16T16:14:14.136Z</time><hdop>3.0</hdop><vdop>2.5</vdop><extensions><gom:speed>0.962</gom:speed></extensions></trkpt>
   <trkpt lat="59.306602387" lon="34.6791736629"><ele>157.681</ele><time>2026-08-16T16:14:14.875Z</time><hdop>3.0</hdop><vdop>2.5</vdop><extensions><gom:speed>0.997</gom:speed></extensions></trkpt>
   <trkpt lat="59.3066101822" lon="34.6791809552"><ele>157.628</ele><time>2026-08-16T16:14:15.837Z</time><hdop>3.0</hdop><vdop>2.5</vdop><extensions><gom:speed>0.95</gom:speed></extensions></trkpt>
   <trkpt lat="59.3066175583" lon="34.6791835535"><ele>157.687</ele><time>2026-08-16T16:14:16.760Z</time><hdop>3.0</hdop><vdop>2.5</vdop><extensions><gom:speed>0.921</gom:speed></extensions></trkpt>
   <trkpt lat="59.3066230903" lon="34.6791807875"><ele>157.953</ele><time>2026-08-16T16:14:17.476Z</time><hdop>3.0</hdop><vdop>2.5</vdop><extensions><gom:speed>0.891</gom:speed></extensions></trkpt>
   <trkpt lat="59.3066279937" lon="34.679181961"><ele>158.445</ele><time>2026-08-16T16:14:18.136Z</time><hdop>3.0</hdop><vdop>2.5</vdop><extensions><gom:speed>0.846</gom:speed></extensions></trkpt>
   <trkpt lat="59.3066341963" lon="34.6791914325"><ele>159.096</ele><time>2026-08-16T16:14:19.136Z</time><hdop>3.0</hdop><vdop>2.5</vdop><extensions><gom:speed>0.827</gom:speed></extensions></trkpt>
   <trkpt lat="59.3066370881" lon="34.6791972999"><ele>159.485</ele><time>2026-08-16T16:14:19.635Z</time><hdop>3.0</hdop><vdop>2.5</vdop><extensions><gom:speed>0.864</gom:speed></extensions></trkpt>
   <trkpt lat="59.3066393931" lon="34.6792039216"><ele>159.755</ele><time>2026-08-16T16:14:20.136Z</time><hdop>3.0</hdop><vdop>2.5</vdop><extensions><gom:speed>0.827</gom:speed></extensions></trkpt>
   <trkpt lat="59.3066415724" lon="34.6792108786"><ele>159.916</ele><time>2026-08-16T16:14:20.617Z</time><hdop>3.0</hdop><vdop>2.5</vdop><extensions><gom:speed>0.862</gom:speed></extensions></trkpt>
   <trkpt lat="59.3066439613" lon="34.6792173326"><ele>160.123</ele><time>2026-08-16T16:14:21.136Z</time><hdop>3.0</hdop><vdop>2.5</vdop><extensions><gom:speed>0.813</gom:speed></extensions></trkpt>
   <trkpt lat="59.3066498705" lon="34.6792274747"><ele>160.407</ele><time>2026-08-16T16:14:22.136Z</time><hdop>3.0</hdop><vdop>2.5</vdop><extensions><gom:speed>0.802</gom:speed></extensions></trkpt>
   <trkpt lat="59.3066538938" lon="34.679231498"><ele>160.576</ele><time>2026-08-16T16:14:22.757Z</time><hdop>150.0</hdop><vdop>2.5</vdop><extensions><gom:speed>0.801</gom:speed></extensions></trkpt>
   <trkpt lat="59.3066633654" lon="34.6792322524"><ele>161.067</ele><time>2026-08-16T16:14:23.856Z</time><hdop>3.0</hdop><vdop>2.5</vdop><extensions><gom:speed>0.763</gom:speed></extensions></trkpt>
   <trkpt lat="59.3066683945" lon="34.679225966"><ele>161.635</ele><time>2026-08-16T16:14:24.553Z</time><hdop>3.0</hdop><vdop>2.5</vdop><extensions><gom:speed>0.709</gom:speed></extensions></trkpt>
   <trkpt lat="59.3066731722" lon="34.679220853"><ele>162.244</ele><time>2026-08-16T16:14:25.136Z</time><hdop>3.0</hdop><vdop>2.5</vdop><extensions><gom:speed>0.749</gom:speed></extensions></trkpt>
   <trkpt lat="59.3066798777" lon="34.6792142313"><ele>162.778</ele><time>2026-08-16T16:14:26.136Z</time><hdop>3.0</hdop><vdop>2.5</vdop><extensions><gom:speed>0.665</gom:speed></extensions></trkpt>
   <trkpt lat="59.3066870861" lon="34.6792056818"><ele>163.452</ele><time>2026-08-16T16:14:27.136Z</time><hdop>3.0</hdop><vdop>2.5</vdop><extensions><gom:speed>0.73</gom:speed></extensions></trkpt>
   <trkpt lat="59.3066914866" lon="34.6792010717"><ele>163.855</ele><time>2026-08-16T16:14:27.714Z</time><hdop>3.0</hdop><vdop>2.5</vdop><extensions><gom:speed>0.715</gom:speed></extensions></trkpt>
   <trkpt lat="59.3066962643" lon="34.6791959588"><ele>164.06</ele><time>2026-08-16T16:14:28.892Z</time><hdop>3.0</hdop><vdop>2.5</vdop><extensions><gom:speed>0.555</gom:speed></extensions></trkpt>
   <trkpt lat="59.3067004972" lon="34.6791918516"><ele>164.274</ele><time>2026-08-16T16:14:29.481Z</time><hdop>3.0</hdop><vdop>2.5</vdop><extensions><gom:speed>0.677</gom:speed></extensions></trkpt>
   <trkpt lat="59.306704269" lon="34.6791877445"><ele>164.46</ele><time>2026-08-16T16:14:30.136Z</time><hdop>3.0</hdop><vdop>2.5</vdop><extensions><gom:speed>0.657</gom:speed></extensions></trkpt>
   <trkpt lat="59.3067094658" lon="34.6791835535"><ele>164.677</ele><time>2026-08-16T16:14:31.136Z</time><hdop>3.0</hdop><vdop>2.5</vdop><extensions><gom:speed>0.611</gom:speed></extensions></trkpt>
   <trkpt lat="59.3067129862" lon="34.6791818772"><ele>164.507</ele><time>2026-08-16T16:14:32.136Z</time><hdop>3.0</hdop><vdop>2.5</vdop><extensions><gom:speed>0.486</gom:speed></extensions></trkpt>
   <trkpt lat="59.3067183926" lon="34.6791843917"><ele>164.216</ele><time>2026-08-16T16:14:33.136Z</time><hdop>3.0</hdop><vdop>2.5</vdop><extensions><gom:speed>0.553</gom:speed></extensions></trkpt>
   <trkpt lat="59.3067231702" lon="34.6791843917"><ele>164.043</ele><time>2026-08-16T16:14:33.858Z</time><hdop>3.0</hdop><vdop>2.5</vdop><extensions><gom:speed>0.634</gom:speed></extensions></trkpt>
   <trkpt lat="59.3067302949" lon="34.6791849785"><ele>163.94</ele><time>2026-08-16T16:14:34.732Z</time><hdop>3.0</hdop><vdop>2.5</vdop><extensions><gom:speed>0.703</gom:speed></extensions></trkpt>
   <trkpt lat="59.306734863" lon="34.6791871578"><ele>163.83</ele><time>2026-08-16T16:14:35.232Z</time><hdop>3.0</hdop><vdop>2.5</vdop><extensions><gom:speed>0.739</gom:speed></extensions></trkpt>
   <trkpt lat="59.306741359" lon="34.6791895885"><ele>163.764</ele><time>2026-08-16T16:14:36.136Z</time><hdop>3.0</hdop><vdop>2.5</vdop><extensions><gom:speed>0.723</gom:speed></extensions></trkpt>
   <trkpt lat="59.3067490703" lon="34.6791915164"><ele>163.852</ele><time>2026-08-16T16:14:37.038Z</time><hdop>3.0</hdop><vdop>2.5</vdop><extensions><gom:speed>0.795</gom:speed></extensions></trkpt>
   <trkpt lat="59.3067559854" lon="34.6791924384"><ele>163.779</ele><time>2026-08-16T16:14:37.873Z</time><hdop>3.0</hdop><vdop>2.5</vdop><extensions><gom:speed>0.782</gom:speed></extensions></trkpt>
   <trkpt lat="59.3067634872" lon="34.6791974675"><ele>163.94</ele><time>2026-08-16T16:14:38.814Z</time><hdop>3.0</hdop><vdop>2.5</vdop><extensions><gom:speed>0.771</gom:speed></extensions></trkpt>
   <trkpt lat="59.3067701927" lon="34.6792075258"><ele>164.342</ele><time>2026-08-16T16:14:39.738Z</time><hdop>3.0</hdop><vdop>2.5</vdop><extensions><gom:speed>0.77</gom:speed></extensions></trkpt>
   <trkpt lat="59.3067762696" lon="34.6792234514"><ele>164.342</ele><time>2026-08-16T16:14:40.817Z</time><hdop>3.0</hdop><vdop>2.5</vdop><extensions><gom:speed>0.82</gom:speed></extensions></trkpt>
   <trkpt lat="59.3067825979" lon="34.6792357728"><ele>164.3</ele><time>2026-08-16T16:14:41.633Z</time><hdop>3.0</hdop><vdop>2.5</vdop><extensions><gom:speed>0.932</gom:speed></extensions></trkpt>
   <trkpt lat="59.3067866632" lon="34.6792407181"><ele>164.274</ele><time>2026-08-16T16:14:42.094Z</time><hdop>3.0</hdop><vdop>2.5</vdop><extensions><gom:speed>0.934</gom:speed></extensions></trkpt>
   <trkpt lat="59.3067940811" lon="34.6792462502"><ele>164.241</ele><time>2026-08-16T16:14:42.919Z</time><hdop>3.0</hdop><vdop>2.5</vdop><extensions><gom:speed>0.955</gom:speed></extensions></trkpt>
   <trkpt lat="59.3068012896" lon="34.6792455796"><ele>163.998</ele><time>2026-08-16T16:14:43.655Z</time><hdop>3.0</hdop><vdop>2.5</vdop><extensions><gom:speed>0.968</gom:speed></extensions></trkpt>
   <trkpt lat="59.3068045585" lon="34.679241221"><ele>163.571</ele><time>2026-08-16T16:14:44.136Z</time><hdop>3.0</hdop><vdop>2.5</vdop><extensions><gom:speed>0.903</gom:speed></extensions></trkpt>
   <trkpt lat="59.3068086656" lon="34.6792353537"><ele>163.316</ele><time>2026-08-16T16:14:44.656Z</time><hdop>3.0</hdop><vdop>2.5</vdop><extensions><gom:speed>0.951</gom:speed></extensions></trkpt>
   <trkpt lat="59.3068109707" lon="34.6792286482"><ele>163.329</ele><time>2026-08-16T16:14:45.136Z</time><hdop>3.0</hdop><vdop>2.5</vdop><extensions><gom:speed>0.92</gom:speed></extensions></trkpt>
   <trkpt lat="59.3068146587" lon="34.6792194281"><ele>163.402</ele><time>2026-08-16T16:14:46.136Z</time><hdop>3.0</hdop><vdop>2.5</vdop><extensions><gom:speed>0.726</gom:speed></extensions></trkpt>
   <trkpt lat="59.3068188916" lon="34.6792195957"><ele>163.087</ele><time>2026-08-16T16:14:47.136Z</time><hdop>3.0</hdop><vdop>2.5</vdop><extensions><gom:speed>0.66</gom:speed></extensions></trkpt>
   <trkpt lat="59.3068247589" lon="34.6792205177"><ele>162.898</ele><time>2026-08-16T16:14:48.101Z</time><hdop>3.0</hdop><vdop>2.5</vdop><extensions><gom:speed>0.684</gom:speed></extensions></trkpt>
   <trkpt lat="59.3068290756" lon="34.6792179193"><ele>162.78</ele><time>2026-08-16T16:14:48.916Z</time><hdop>3.0</hdop><vdop>2.5</vdop><extensions><gom:speed>0.685</gom:speed></extensions></trkpt>
   <trkpt lat="59.3068338952" lon="34.6792167459"><ele>162.7</ele><time>2026-08-16T16:14:49.652Z</time><hdop>3.0</hdop><vdop>2.5</vdop><extensions><gom:speed>0.787</gom:speed></extensions></trkpt>
   <trkpt lat="59.3068374994" lon="34.6792167459"><ele>162.657</ele><time>2026-08-16T16:14:50.136Z</time><hdop>3.0</hdop><vdop>2.5</vdop><extensions><gom:speed>0.796</gom:speed></extensions></trkpt>
   <trkpt lat="59.3068419837" lon="34.6792166621"><ele>162.631</ele><time>2026-08-16T16:14:50.594Z</time><hdop>3.0</hdop><vdop>2.5</vdop><extensions><gom:speed>0.903</gom:speed></extensions></trkpt>
   <trkpt lat="59.3068461747" lon="34.6792174164"><ele>162.749</ele><time>2026-08-16T16:14:51.136Z</time><hdop>3.0</hdop><vdop>2.5</vdop><extensions><gom:speed>0.839</gom:speed></extensions></trkpt>
   <trkpt lat="59.3068546823" lon="34.6792147342"><ele>162.82</ele><time>2026-08-16T16:14:51.958Z</time><hdop>3.0</hdop><vdop>2.5</vdop><extensions><gom:speed>0.935</gom:speed></extensions></trkpt>
   <trkpt lat="59.3068610945" lon="34.6792099565"><ele>162.718</ele><time>2026-08-16T16:14:52.695Z</time><hdop>3.0</hdop><vdop>2.5</vdop><extensions><gom:speed>1.003</gom:speed></extensions></trkpt>
   <trkpt lat="59.3068655788" lon="34.6792058494"><ele>162.683</ele><time>2026-08-16T16:14:53.351Z</time><hdop>3.0</hdop><vdop>2.5</vdop><extensions><gom:speed>0.917</gom:speed></extensions></trkpt>
   <trkpt lat="59.3068722843" lon="34.6792020776"><ele>162.661</ele><time>2026-08-16T16:14:54.020Z</time><hdop>3.0</hdop><vdop>2.5</vdop><extensions><gom:speed>1.023</gom:speed></extensions></trkpt>
   <trkpt lat="59.3068755951" lon="34.679200485"><ele>162.454</ele><time>2026-08-16T16:14:54.481Z</time><hdop>3.0</hdop><vdop>2.5</vdop><extensions><gom:speed>1.042</gom:speed></extensions></trkpt>
   <trkpt lat="59.3068804986" lon="34.6791985572"><ele>162.365</ele><time>2026-08-16T16:14:55.136Z</time><hdop>3.0</hdop><vdop>2.5</vdop><extensions><gom:speed>0.968</gom:speed></extensions></trkpt>
   <trkpt lat="59.3068854858" lon="34.6791974675"><ele>162.311</ele><time>2026-08-16T16:14:55.718Z</time><hdop>3.0</hdop><vdop>2.5</vdop><extensions><gom:speed>0.973</gom:speed></extensions></trkpt>
   <trkpt lat="59.3068948735" lon="34.6791999821"><ele>162.57</ele><time>2026-08-16T16:14:57.013Z</time><hdop>3.0</hdop><vdop>2.5</vdop><extensions><gom:speed>0.882</gom:speed></extensions></trkpt>
   <trkpt lat="59.3069010761" lon="34.679206017"><ele>162.879</ele><time>2026-08-16T16:14:58.112Z</time><hdop>3.0</hdop><vdop>2.5</vdop><extensions><gom:speed>0.749</gom:speed></extensions></trkpt>
   <trkpt lat="59.3069072787" lon="34.6792130578"><ele>163.319</ele><time>2026-08-16T16:14:59.055Z</time><hdop>3.0</hdop><vdop>2.5</vdop><extensions><gom:speed>0.765</gom:speed></extensions></trkpt>
   <trkpt lat="59.3069136909" lon="34.6792170812"><ele>163.694</ele><time>2026-08-16T16:15:00.136Z</time><hdop>3.0</hdop><vdop>2.5</vdop><extensions><gom:speed>0.678</gom:speed></extensions></trkpt>
   <trkpt lat="59.3069170856" lon="34.6792118844"><ele>163.919</ele><time>2026-08-16T16:15:00.880Z</time><hdop>3.0</hdop><vdop>2.5</vdop><extensions><gom:speed>0.595</gom:speed></extensions></trkpt>
   <trkpt lat="59.3069151996" lon="34.6791981381"><ele>163.863</ele><time>2026-08-16T16:15:02.136Z</time><hdop>3.0</hdop><vdop>2.5</vdop><extensions><gom:speed>0.306</gom:speed></extensions></trkpt>
   <trkpt lat="59.3069143614" lon="34.6791922707"><ele>163.807</ele><time>2026-08-16T16:15:03.136Z</time><hdop>3.0</hdop><vdop>2.5</vdop><extensions><gom:speed>0.343</gom:speed></extensions></trkpt>
   <trkpt lat="59.3069140681" lon="34.6791887503"><ele>163.774</ele><time>2026-08-16T16:15:03.992Z</time><hdop>3.0</hdop><vdop>2.5</vdop><extensions><gom:speed>0.268</gom:speed></extensions></trkpt>
   <trkpt lat="59.3069163731" lon="34.6791821286"><ele>163.686</ele><time>2026-08-16T16:15:04.659Z</time><hdop>3.0</hdop><vdop>2.5</vdop><extensions><gom:speed>0.383</gom:speed></extensions></trkpt>
   <trkpt lat="59.306918259" lon="34.6791764289"><ele>163.846</ele><time>2026-08-16T16:15:05.136Z</time><hdop>3.0</hdop><vdop>2.5</vdop><extensions><gom:speed>0.451</gom:speed></extensions></trkpt>
   <trkpt lat="59.3069205641" lon="34.6791700587"><ele>163.941</ele><time>2026-08-16T16:15:06.013Z</time><hdop>3.0</hdop><vdop>2.5</vdop><extensions><gom:speed>0.414</gom:speed></extensions></trkpt>
   <trkpt lat="59.306925677" lon="34.6791668736"><ele>164.133</ele><time>2026-08-16T16:15:06.916Z</time><hdop>3.0</hdop><vdop>2.5</vdop><extensions><gom:speed>0.417</gom:speed></extensions></trkpt>
   <trkpt lat="59.3069323825" lon="34.679168969"><ele>164.427</ele><time>2026-08-16T16:15:07.653Z</time><hdop>3.0</hdop><vdop>2.5</vdop><extensions><gom:speed>0.569</gom:speed></extensions></trkpt>
   <trkpt lat="59.3069369926" lon="34.6791723218"><ele>164.681</ele><time>2026-08-16T16:15:08.135Z</time><hdop>3.0</hdop><vdop>2.5</vdop><extensions><gom:speed>0.652</gom:speed></extensions></trkpt>
   <trkpt lat="59.3069473861" lon="34.679175926"><ele>164.822</ele><time>2026-08-16T16:15:09.136Z</time><hdop>3.0</hdop><vdop>2.5</vdop><extensions><gom:speed>0.791</gom:speed></extensions></trkpt>
   <trkpt lat="59.3069559776" lon="34.6791697234"><ele>165.002</ele><time>2026-08-16T16:15:10.136Z</time><hdop>3.0</hdop><vdop>2.5</vdop><extensions><gom:speed>0.774</gom:speed></extensions></trkpt>
   <trkpt lat="59.306962264" lon="34.6791630179"><ele>165.11</ele><time>2026-08-16T16:15:11.137Z</time><hdop>3.0</hdop><vdop>2.5</vdop><extensions><gom:speed>0.7</gom:speed></extensions></trkpt>
   <trkpt lat="59.3069689695" lon="34.6791644428"><ele>165.452</ele><time>2026-08-16T16:15:12.136Z</time><hdop>3.0</hdop><vdop>2.5</vdop><extensions><gom:speed>0.698</gom:speed></extensions></trkpt>
   <trkpt lat="59.3069741663" lon="34.6791611739"><ele>165.656</ele><time>2026-08-16T16:15:12.992Z</time><hdop>3.0</hdop><vdop>2.5</vdop><extensions><gom:speed>0.688</gom:speed></extensions></trkpt>
   <trkpt lat="59.3069764714" lon="34.6791577373"><ele>165.778</ele><time>2026-08-16T16:15:13.491Z</time><hdop>3.0</hdop><vdop>2.5</vdop><extensions><gom:speed>0.648</gom:speed></extensions></trkpt>
   <trkpt lat="59.3069782735" lon="34.6791514509"><ele>165.705</ele><time>2026-08-16T16:15:14.136Z</time><hdop>3.0</hdop><vdop>2.5</vdop><extensions><gom:speed>0.659</gom:speed></extensions></trkpt>
   <trkpt lat="59.3069796984" lon="34.6791405544"><ele>165.662</ele><time>2026-08-16T16:15:14.974Z</time><hdop>3.0</hdop><vdop>2.5</vdop><extensions><gom:speed>0.676</gom:speed></extensions></trkpt>
   <trkpt lat="59.3069797822" lon="34.6791311667"><ele>165.425</ele><time>2026-08-16T16:15:15.778Z</time><hdop>3.0</hdop><vdop>2.5</vdop><extensions><gom:speed>0.785</gom:speed></extensions></trkpt>
   <trkpt lat="59.3069805785" lon="34.6791253831"><ele>165.146</ele><time>2026-08-16T16:15:16.378Z</time><hdop>3.0</hdop><vdop>2.5</vdop><extensions><gom:speed>0.838</gom:speed></extensions></trkpt>
   <trkpt lat="59.3069828835" lon="34.6791158278"><ele>164.98</ele><time>2026-08-16T16:15:17.055Z</time><hdop>3.0</hdop><vdop>2.5</vdop><extensions><gom:speed>0.843</gom:speed></extensions></trkpt>
   <trkpt lat="59.3069870745" lon="34.6791122236"><ele>164.696</ele><time>2026-08-16T16:15:17.595Z</time><hdop>3.0</hdop><vdop>2.5</vdop><extensions><gom:speed>0.906</gom:speed></extensions></trkpt>
   <trkpt lat="59.3069913911" lon="34.6791091222"><ele>164.459</ele><time>2026-08-16T16:15:18.136Z</time><hdop>3.0</hdop><vdop>2.5</vdop><extensions><gom:speed>0.918</gom:speed></extensions></trkpt>
   <trkpt lat="59.3069971747" lon="34.6791039255"><ele>164.318</ele><time>2026-08-16T16:15:18.753Z</time><hdop>3.0</hdop><vdop>2.5</vdop><extensions><gom:speed>0.975</gom:speed></extensions></trkpt>
   <trkpt lat="59.3070026648" lon="34.6791043446"><ele>164.358</ele><time>2026-08-16T16:15:19.421Z</time><hdop>3.0</hdop><vdop>2.5</vdop><extensions><gom:speed>0.944</gom:speed></extensions></trkpt>
   <trkpt lat="59.3070081969" lon="34.6791044284"><ele>164.382</ele><time>2026-08-16T16:15:20.000Z</time><hdop>3.0</hdop><vdop>2.5</vdop><extensions><gom:speed>0.947</gom:speed></extensions></trkpt>
   <trkpt lat="59.3070129745" lon="34.6791098766"><ele>164.312</ele><time>2026-08-16T16:15:20.481Z</time><hdop>3.0</hdop><vdop>2.5</vdop><extensions><gom:speed>0.987</gom:speed></extensions></trkpt>
   <trkpt lat="59.3070191771" lon="34.679114319"><ele>164.161</ele><time>2026-08-16T16:15:21.136Z</time><hdop>3.0</hdop><vdop>2.5</vdop><extensions><gom:speed>0.974</gom:speed></extensions></trkpt>
   <trkpt lat="59.3070278943" lon="34.6791139838"><ele>164.071</ele><time>2026-08-16T16:15:22.012Z</time><hdop>3.0</hdop><vdop>2.5</vdop><extensions><gom:speed>1.001</gom:speed></extensions></trkpt>
   <trkpt lat="59.3070332587" lon="34.6791140676"><ele>163.872</ele><time>2026-08-16T16:15:22.493Z</time><hdop>3.0</hdop><vdop>2.5</vdop><extensions><gom:speed>1.069</gom:speed></extensions></trkpt>
   <trkpt lat="59.3070396709" lon="34.6791131456"><ele>164.0</ele><time>2026-08-16T16:15:23.136Z</time><hdop>3.0</hdop><vdop>2.5</vdop><extensions><gom:speed>1.041</gom:speed></extensions></trkpt>
   <trkpt lat="59.3070475918" lon="34.6791103795"><ele>164.077</ele><time>2026-08-16T16:15:23.915Z</time><hdop>3.0</hdop><vdop>2.5</vdop><extensions><gom:speed>1.058</gom:speed></extensions></trkpt>
   <trkpt lat="59.3070554708" lon="34.6791131456"><ele>164.235</ele><time>2026-08-16T16:15:24.799Z</time><hdop>3.0</hdop><vdop>2.5</vdop><extensions><gom:speed>1.029</gom:speed></extensions></trkpt>
   <trkpt lat="59.3070603742" lon="34.6791198511"><ele>164.605</ele><time>2026-08-16T16:15:25.476Z</time><hdop>3.0</hdop><vdop>2.5</vdop><extensions><gom:speed>0.974</gom:speed></extensions></trkpt>
   <trkpt lat="59.3070649842" lon="34.6791269757"><ele>165.0</ele><time>2026-08-16T16:15:26.136Z</time><hdop>3.0</hdop><vdop>2.5</vdop><extensions><gom:speed>0.944</gom:speed></extensions></trkpt>
   <trkpt lat="59.3070722765" lon="34.6791359443"><ele>165.237</ele><time>2026-08-16T16:15:26.998Z</time><hdop>3.0</hdop><vdop>2.5</vdop><extensions><gom:speed>0.972</gom:speed></extensions></trkpt>
   <trkpt lat="59.3070790658" lon="34.6791465894"><ele>165.443</ele><time>2026-08-16T16:15:27.920Z</time><hdop>3.0</hdop><vdop>2.5</vdop><extensions><gom:speed>0.949</gom:speed></extensions></trkpt>
   <trkpt lat="59.3070844722" lon="34.6791512832"><ele>165.786</ele><time>2026-08-16T16:15:28.676Z</time><hdop>3.0</hdop><vdop>2.5</vdop><extensions><gom:speed>0.926</gom:speed></extensions></trkpt>
   <trkpt lat="59.307087783" lon="34.6791511994"><ele>166.004</ele><time>2026-08-16T16:15:29.136Z</time><hdop>3.0</hdop><vdop>2.5</vdop><extensions><gom:speed>0.934</gom:speed></extensions></trkpt>
   <trkpt lat="59.3070944885" lon="34.6791454997"><ele>166.035</ele><time>2026-08-16T16:15:30.136Z</time><hdop>3.0</hdop><vdop>2.5</vdop><extensions><gom:speed>0.876</gom:speed></extensions></trkpt>
   <trkpt lat="59.3070978832" lon="34.6791402191"><ele>166.053</ele><time>2026-08-16T16:15:30.619Z</time><hdop>3.0</hdop><vdop>2.5</vdop><extensions><gom:speed>0.896</gom:speed></extensions></trkpt>
   <trkpt lat="59.3071002721" lon="34.6791360282"><ele>165.82</ele><time>2026-08-16T16:15:31.136Z</time><hdop>3.0</hdop><vdop>2.5</vdop><extensions><gom:speed>0.837</gom:speed></extensions></trkpt>
   <trkpt lat="59.3071046726" lon="34.6791308314"><ele>165.681</ele><time>2026-08-16T16:15:31.778Z</time><hdop>3.0</hdop><vdop>2.5</vdop><extensions><gom:speed>0.856</gom:speed></extensions></trkpt>
   <trkpt lat="59.3071101627" lon="34.679129155"><ele>165.663</ele><time>2026-08-16T16:15:32.720Z</time><hdop>3.0</hdop><vdop>2.5</vdop><extensions><gom:speed>0.835</gom:speed></extensions></trkpt>
   <trkpt lat="59.3071133897" lon="34.6791315857"><ele>165.578</ele><time>2026-08-16T16:15:33.299Z</time><hdop>3.0</hdop><vdop>2.5</vdop><extensions><gom:speed>0.819</gom:speed></extensions></trkpt>
   <trkpt lat="59.3071187961" lon="34.6791345194"><ele>165.353</ele><time>2026-08-16T16:15:34.136Z</time><hdop>3.0</hdop><vdop>2.5</vdop><extensions><gom:speed>0.81</gom:speed></extensions></trkpt>
   <trkpt lat="59.3071267589" lon="34.6791371178"><ele>165.219</ele><time>2026-08-16T16:15:35.115Z</time><hdop>3.0</hdop><vdop>2.5</vdop><extensions><gom:speed>0.863</gom:speed></extensions></trkpt>
   <trkpt lat="59.3071326681" lon="34.6791382913"><ele>164.915</ele><time>2026-08-16T16:15:35.959Z</time><hdop>3.0</hdop><vdop>2.5</vdop><extensions><gom:speed>0.86</gom:speed></extensions></trkpt>
   <trkpt lat="59.307140589" lon="34.6791392971"><ele>164.671</ele><time>2026-08-16T16:15:37.137Z</time><hdop>3.0</hdop><vdop>2.5</vdop><extensions><gom:speed>0.875</gom:speed></extensions></trkpt>
   <trkpt lat="59.3071458696" lon="34.6791409735"><ele>164.649</ele><time>2026-08-16T16:15:37.794Z</time><hdop>3.0</hdop><vdop>2.5</vdop><extensions><gom:speed>0.967</gom:speed></extensions></trkpt>
   <trkpt lat="59.3071496834" lon="34.6791389618"><ele>164.389</ele><time>2026-08-16T16:15:38.452Z</time><hdop>3.0</hdop><vdop>2.5</vdop><extensions><gom:speed>0.992</gom:speed></extensions></trkpt>
   <trkpt lat="59.3071560955" lon="34.6791362796"><ele>164.234</ele><time>2026-08-16T16:15:39.118Z</time><hdop>3.0</hdop><vdop>2.5</vdop><extensions><gom:speed>0.998</gom:speed></extensions></trkpt>
   <trkpt lat="59.3071598674" lon="34.6791290712"><ele>164.082</ele><time>2026-08-16T16:15:39.796Z</time><hdop>3.0</hdop><vdop>2.5</vdop><extensions><gom:speed>0.983</gom:speed></extensions></trkpt>
   <trkpt lat="59.3071622981" lon="34.6791209407"><ele>163.839</ele><time>2026-08-16T16:15:40.375Z</time><hdop>3.0</hdop><vdop>2.5</vdop><extensions><gom:speed>0.948</gom:speed></extensions></trkpt>
   <trkpt lat="59.3071673692" lon="34.6791130617"><ele>163.694</ele><time>2026-08-16T16:15:40.994Z</time><hdop>3.0</hdop><vdop>2.5</vdop><extensions><gom:speed>1.027</gom:speed></extensions></trkpt>
   <trkpt lat="59.3071704705" lon="34.679107362"><ele>163.635</ele><time>2026-08-16T16:15:41.514Z</time><hdop>3.0</hdop><vdop>2.5</vdop><extensions><gom:speed>1.028</gom:speed></extensions></trkpt>
   <trkpt lat="59.3071749967" lon="34.6791030873"><ele>163.655</ele><time>2026-08-16T16:15:42.135Z</time><hdop>3.0</hdop><vdop>2.5</vdop><extensions><gom:speed>0.955</gom:speed></extensions></trkpt>
   <trkpt lat="59.3071812832" lon="34.6790983934"><ele>163.667</ele><time>2026-08-16T16:15:42.859Z</time><hdop>3.0</hdop><vdop>2.5</vdop><extensions><gom:speed>0.987</gom:speed></extensions></trkpt>
   <trkpt lat="59.3071894974" lon="34.6790961303"><ele>163.696</ele><time>2026-08-16T16:15:43.839Z</time><hdop>3.0</hdop><vdop>2.5</vdop><extensions><gom:speed>0.972</gom:speed></extensions></trkpt>
   <trkpt lat="59.3071953648" lon="34.6790986449"><ele>163.688</ele><time>2026-08-16T16:15:44.576Z</time><hdop>3.0</hdop><vdop>2.5</vdop><extensions><gom:speed>0.941</gom:speed></extensions></trkpt>
   <trkpt lat="59.3072000586" lon="34.6791008242"><ele>163.775</ele><time>2026-08-16T16:15:45.136Z</time><hdop>3.0</hdop><vdop>2.5</vdop><extensions><gom:speed>0.91</gom:speed></extensions></trkpt>
   <trkpt lat="59.3072065965" lon="34.6791010756"><ele>163.827</ele><time>2026-08-16T16:15:45.833Z</time><hdop>3.0</hdop><vdop>2.5</vdop><extensions><gom:speed>0.97</gom:speed></extensions></trkpt>
   <trkpt lat="59.3072110808" lon="34.6791006565"><ele>164.006</ele><time>2026-08-16T16:15:46.333Z</time><hdop>3.0</hdop><vdop>2.5</vdop><extensions><gom:speed>0.969</gom:speed></extensions></trkpt>
   <trkpt lat="59.3072155651" lon="34.6790975552"><ele>164.113</ele><time>2026-08-16T16:15:46.794Z</time><hdop>3.0</hdop><vdop>2.5</vdop><extensions><gom:speed>1.027</gom:speed></extensions></trkpt>
   <trkpt lat="59.3072201752" lon="34.6790955436"><ele>164.265</ele><time>2026-08-16T16:15:47.354Z</time><hdop>3.0</hdop><vdop>2.5</vdop><extensions><gom:speed>0.983</gom:speed></extensions></trkpt>
   <trkpt lat="59.3072265873" lon="34.679094873"><ele>164.792</ele><time>2026-08-16T16:15:48.136Z</time><hdop>3.0</hdop><vdop>2.5</vdop><extensions><gom:speed>0.929</gom:speed></extensions></trkpt>
   <trkpt lat="59.3072352626" lon="34.6791016624"><ele>165.019</ele><time>2026-08-16T16:15:49.136Z</time><hdop>3.0</hdop><vdop>2.5</vdop><extensions><gom:speed>0.886</gom:speed></extensions></trkpt>
   <trkpt lat="59.3072411719" lon="34.679111553"><ele>165.154</ele><time>2026-08-16T16:15:49.993Z</time><hdop>3.0</hdop><vdop>2.5</vdop><extensions><gom:speed>0.856</gom:speed></extensions></trkpt>
   <trkpt lat="59.307245279" lon="34.6791170851"><ele>165.531</ele><time>2026-08-16T16:15:50.495Z</time><hdop>3.0</hdop><vdop>2.5</vdop><extensions><gom:speed>0.88</gom:speed></extensions></trkpt>
   <trkpt lat="59.3072506853" lon="34.6791222818"><ele>165.914</ele><time>2026-08-16T16:15:51.136Z</time><hdop>3.0</hdop><vdop>2.5</vdop><extensions><gom:speed>0.873</gom:speed></extensions></trkpt>
   <trkpt lat="59.3072595701" lon="34.6791276463"><ele>166.143</ele><time>2026-08-16T16:15:52.135Z</time><hdop>3.0</hdop><vdop>2.5</vdop><extensions><gom:speed>0.865</gom:speed></extensions></trkpt>
   <trkpt lat="59.3072662757" lon="34.6791340165"><ele>166.281</ele><time>2026-08-16T16:15:53.037Z</time><hdop>3.0</hdop><vdop>2.5</vdop><extensions><gom:speed>0.816</gom:speed></extensions></trkpt>
   <trkpt lat="59.3072711791" lon="34.679142566"><ele>166.617</ele><time>2026-08-16T16:15:53.773Z</time><hdop>3.0</hdop><vdop>2.5</vdop><extensions><gom:speed>0.82</gom:speed></extensions></trkpt>
   <trkpt lat="59.3072748671" lon="34.6791486848"><ele>166.914</ele><time>2026-08-16T16:15:54.332Z</time><hdop>3.0</hdop><vdop>2.5</vdop><extensions><gom:speed>0.808</gom:speed></extensions></trkpt>
   <trkpt lat="59.307279561" lon="34.6791540492"><ele>167.001</ele><time>2026-08-16T16:15:55.136Z</time><hdop>3.0</hdop><vdop>2.5</vdop><extensions><gom:speed>0.749</gom:speed></extensions></trkpt>
   <trkpt lat="59.3072863922" lon="34.6791598328"><ele>166.95</ele><time>2026-08-16T16:15:56.136Z</time><hdop>3.0</hdop><vdop>2.5</vdop><extensions><gom:speed>0.792</gom:speed></extensions></trkpt>
   <trkpt lat="59.3072921757" lon="34.6791636884"><ele>166.919</ele><time>2026-08-16T16:15:56.894Z</time><hdop>3.0</hdop><vdop>2.5</vdop><extensions><gom:speed>0.778</gom:speed></extensions></trkpt>
   <trkpt lat="59.307298085" lon="34.6791663706"><ele>167.036</ele><time>2026-08-16T16:15:57.679Z</time><hdop>3.0</hdop><vdop>2.5</vdop><extensions><gom:speed>0.831</gom:speed></extensions></trkpt>
   <trkpt lat="59.3073011863" lon="34.6791690529"><ele>166.988</ele><time>2026-08-16T16:15:58.136Z</time><hdop>3.0</hdop><vdop>2.5</vdop><extensions><gom:speed>0.838</gom:speed></extensions></trkpt>
   <trkpt lat="59.3073080594" lon="34.679174082"><ele>166.821</ele><time>2026-08-16T16:15:59.136Z</time><hdop>3.0</hdop><vdop>2.5</vdop><extensions><gom:speed>0.788</gom:speed></extensions></trkpt>
   <trkpt lat="59.307314765" lon="34.6791809552"><ele>166.891</ele><time>2026-08-16T16:16:00.136Z</time><hdop>3.0</hdop><vdop>2.5</vdop><extensions><gom:speed>0.887</gom:speed></extensions></trkpt>
   <trkpt lat="59.3073232726" lon="34.6791863196"><ele>166.78</ele><time>2026-08-16T16:16:01.135Z</time><hdop>3.0</hdop><vdop>2.5</vdop><extensions><gom:speed>0.935</gom:speed></extensions></trkpt>
   <trkpt lat="59.3073289723" lon="34.6791892532"><ele>166.61</ele><time>2026-08-16T16:16:02.136Z</time><hdop>3.0</hdop><vdop>2.5</vdop><extensions><gom:speed>0.623</gom:speed></extensions></trkpt>
   <trkpt lat="59.3073287627" lon="34.6791993953"><ele>166.199</ele><time>2026-08-16T16:16:03.136Z</time><hdop>3.0</hdop><vdop>2.5</vdop><extensions><gom:speed>0.602</gom:speed></extensions></trkpt>
   <trkpt lat="59.3073293914" lon="34.6792093698"><ele>166.132</ele><time>2026-08-16T16:16:04.136Z</time><hdop>3.0</hdop><vdop>2.5</vdop><extensions><gom:speed>0.583</gom:speed></extensions></trkpt>
   <trkpt lat="59.3073359712" lon="34.679216243"><ele>166.28</ele><time>2026-08-16T16:16:05.136Z</time><hdop>3.0</hdop><vdop>2.5</vdop><extensions><gom:speed>0.657</gom:speed></extensions></trkpt>
   <trkpt lat="59.3073430958" lon="34.6792228647"><ele>166.33</ele><time>2026-08-16T16:16:06.136Z</time><hdop>3.0</hdop><vdop>2.5</vdop><extensions><gom:speed>0.669</gom:speed></extensions></trkpt>
   <trkpt lat="59.3073486698" lon="34.6792316657"><ele>166.185</ele><time>2026-08-16T16:16:07.136Z</time><hdop>3.0</hdop><vdop>2.5</vdop><extensions><gom:speed>0.671</gom:speed></extensions></trkpt>
   <trkpt lat="59.3073514777" lon="34.6792442385"><ele>166.003</ele><time>2026-08-16T16:16:08.136Z</time><hdop>3.0</hdop><vdop>2.5</vdop><extensions><gom:speed>0.65</gom:speed></extensions></trkpt>
   <trkpt lat="59.3073524835" lon="34.6792499382"><ele>165.894</ele><time>2026-08-16T16:16:08.593Z</time><hdop>3.0</hdop><vdop>2.5</vdop><extensions><gom:speed>0.625</gom:speed></extensions></trkpt>
   <trkpt lat="59.3073535732" lon="34.6792566437"><ele>165.829</ele><time>2026-08-16T16:16:09.114Z</time><hdop>3.0</hdop><vdop>2.5</vdop><extensions><gom:speed>0.628</gom:speed></extensions></trkpt>
   <trkpt lat="59.3073575965" lon="34.679267624"><ele>165.549</ele><time>2026-08-16T16:16:09.781Z</time><hdop>3.0</hdop><vdop>2.5</vdop><extensions><gom:speed>0.748</gom:speed></extensions></trkpt>
   <trkpt lat="59.3073649726" lon="34.6792737428"><ele>165.594</ele><time>2026-08-16T16:16:10.478Z</time><hdop>3.0</hdop><vdop>2.5</vdop><extensions><gom:speed>0.84</gom:speed></extensions></trkpt>
   <trkpt lat="59.3073713847" lon="34.6792739943"><ele>165.226</ele><time>2026-08-16T16:16:11.136Z</time><hdop>3.0</hdop><vdop>2.5</vdop><extensions><gom:speed>0.868</gom:speed></extensions></trkpt>
   <trkpt lat="59.3073810658" lon="34.6792680431"><ele>164.804</ele><time>2026-08-16T16:16:12.136Z</time><hdop>3.0</hdop><vdop>2.5</vdop><extensions><gom:speed>0.911</gom:speed></extensions></trkpt>
   <trkpt lat="59.3073873942" lon="34.6792625949"><ele>164.552</ele><time>2026-08-16T16:16:12.794Z</time><hdop>3.0</hdop><vdop>2.5</vdop><extensions><gom:speed>0.934</gom:speed></extensions></trkpt>
   <trkpt lat="59.307394393" lon="34.6792541292"><ele>164.432</ele><time>2026-08-16T16:16:13.501Z</time><hdop>3.0</hdop><vdop>2.5</vdop><extensions><gom:speed>1.015</gom:speed></extensions></trkpt>
   <trkpt lat="59.3073987935" lon="34.6792493515"><ele>164.36</ele><time>2026-08-16T16:16:13.972Z</time><hdop>3.0</hdop><vdop>2.5</vdop><extensions><gom:speed>1.002</gom:speed></extensions></trkpt>
   <trkpt lat="59.3074030683" lon="34.6792357728"><ele>164.284</ele><time>2026-08-16T16:16:14.717Z</time><hdop>3.0</hdop><vdop>2.5</vdop><extensions><gom:speed>0.992</gom:speed></extensions></trkpt>
   <trkpt lat="59.3074007633" lon="34.6792067714"><ele>163.935</ele><time>2026-08-16T16:16:16.136Z</time><hdop>3.0</hdop><vdop>2.5</vdop><extensions><gom:speed>0.995</gom:speed></extensions></trkpt>
   <trkpt lat="59.3074058763" lon="34.6791923545"><ele>163.642</ele><time>2026-08-16T16:16:17.135Z</time><hdop>3.0</hdop><vdop>2.5</vdop><extensions><gom:speed>1.012</gom:speed></extensions></trkpt>
   <trkpt lat="59.3074098996" lon="34.6791872416"><ele>163.468</ele><time>2026-08-16T16:16:17.594Z</time><hdop>3.0</hdop><vdop>2.5</vdop><extensions><gom:speed>1.059</gom:speed></extensions></trkpt>
   <trkpt lat="59.307413881" lon="34.6791830506"><ele>163.512</ele><time>2026-08-16T16:16:18.136Z</time><hdop>3.0</hdop><vdop>2.5</vdop><extensions><gom:speed>1.034</gom:speed></extensions></trkpt>
   <trkpt lat="59.3074206703" lon="34.6791745849"><ele>163.538</ele><time>2026-08-16T16:16:18.958Z</time><hdop>3.0</hdop><vdop>2.5</vdop><extensions><gom:speed>1.032</gom:speed></extensions></trkpt>
   <trkpt lat="59.3074257833" lon="34.6791754231"><ele>163.496</ele><time>2026-08-16T16:16:19.537Z</time><hdop>3.0</hdop><vdop>2.5</vdop><extensions><gom:speed>1.007</gom:speed></extensions></trkpt>
   <trkpt lat="59.307431483" lon="34.6791756746"><ele>163.471</ele><time>2026-08-16T16:16:20.116Z</time><hdop>3.0</hdop><vdop>2.5</vdop><extensions><gom:speed>1.004</gom:speed></extensions></trkpt>
   <trkpt lat="59.3074367636" lon="34.6791761775"><ele>163.39</ele><time>2026-08-16T16:16:20.715Z</time><hdop>3.0</hdop><vdop>2.5</vdop><extensions><gom:speed>1.03</gom:speed></extensions></trkpt>
   <trkpt lat="59.3074487916" lon="34.6791704778"><ele>162.911</ele><time>2026-08-16T16:16:22.135Z</time><hdop>3.0</hdop><vdop>2.5</vdop><extensions><gom:speed>0.986</gom:speed></extensions></trkpt>
   <trkpt lat="59.3074553714" lon="34.679163437"><ele>162.539</ele><time>2026-08-16T16:16:23.136Z</time><hdop>3.0</hdop><vdop>2.5</vdop><extensions><gom:speed>0.951</gom:speed></extensions></trkpt>
   <trkpt lat="59.3074626636" lon="34.6791566476"><ele>162.329</ele><time>2026-08-16T16:16:24.136Z</time><hdop>3.0</hdop><vdop>2.5</vdop><extensions><gom:speed>0.993</gom:speed></extensions></trkpt>
   <trkpt lat="59.3074704588" lon="34.679151367"><ele>162.037</ele><time>2026-08-16T16:16:25.136Z</time><hdop>3.0</hdop><vdop>2.5</vdop><extensions><gom:speed>1.048</gom:speed></extensions></trkpt>
   <trkpt lat="59.3074748593" lon="34.6791469246"><ele>161.863</ele><time>2026-08-16T16:16:25.611Z</time><hdop>3.0</hdop><vdop>2.5</vdop><extensions><gom:speed>1.148</gom:speed></extensions></trkpt>
   <trkpt lat="59.3074789664" lon="34.6791460864"><ele>161.77</ele><time>2026-08-16T16:16:26.136Z</time><hdop>3.0</hdop><vdop>2.5</vdop><extensions><gom:speed>1.077</gom:speed></extensions></trkpt>
   <trkpt lat="59.3074846661" lon="34.6791411411"><ele>161.714</ele><time>2026-08-16T16:16:26.750Z</time><hdop>3.062</hdop><vdop>2.5</vdop><extensions><gom:speed>1.117</gom:speed></extensions></trkpt>
   <trkpt lat="59.3074991668" lon="34.6791408897"><ele>161.64</ele><time>2026-08-16T16:16:28.099Z</time><hdop>3.062</hdop><vdop>2.5</vdop><extensions><gom:speed>1.176</gom:speed></extensions></trkpt>
   <trkpt lat="59.3075097699" lon="34.6791558933"><ele>161.648</ele><time>2026-08-16T16:16:29.136Z</time><hdop>3.125</hdop><vdop>2.5</vdop><extensions><gom:speed>1.138</gom:speed></extensions></trkpt>
   <trkpt lat="59.3075160983" lon="34.6791684661"><ele>161.653</ele><time>2026-08-16T16:16:29.838Z</time><hdop>3.062</hdop><vdop>2.5</vdop><extensions><gom:speed>1.116</gom:speed></extensions></trkpt>
   <trkpt lat="59.3075278749" lon="34.6791675441"><ele>161.614</ele><time>2026-08-16T16:16:30.976Z</time><hdop>3.062</hdop><vdop>2.5</vdop><extensions><gom:speed>1.079</gom:speed></extensions></trkpt>
   <trkpt lat="59.3075381846" lon="34.6791525405"><ele>161.541</ele><time>2026-08-16T16:16:32.036Z</time><hdop>3.062</hdop><vdop>2.5</vdop><extensions><gom:speed>1.047</gom:speed></extensions></trkpt>
   <trkpt lat="59.3075425851" lon="34.6791397162"><ele>161.681</ele><time>2026-08-16T16:16:32.537Z</time><hdop>3.125</hdop><vdop>2.5</vdop><extensions><gom:speed>1.06</gom:speed></extensions></trkpt>
   <trkpt lat="59.3075487877" lon="34.6791280653"><ele>161.968</ele><time>2026-08-16T16:16:33.135Z</time><hdop>3.062</hdop><vdop>2.5</vdop><extensions><gom:speed>1.088</gom:speed></extensions></trkpt>
   <trkpt lat="59.3075549903" lon="34.6791177556"><ele>162.139</ele><time>2026-08-16T16:16:33.773Z</time><hdop>3.062</hdop><vdop>2.5</vdop><extensions><gom:speed>1.08</gom:speed></extensions></trkpt>
   <trkpt lat="59.307562995" lon="34.6791068591"><ele>162.468</ele><time>2026-08-16T16:16:34.451Z</time><hdop>3.062</hdop><vdop>2.5</vdop><extensions><gom:speed>1.082</gom:speed></extensions></trkpt>
   <trkpt lat="59.3075706645" lon="34.6790974714"><ele>162.882</ele><time>2026-08-16T16:16:35.136Z</time><hdop>3.125</hdop><vdop>2.5</vdop><extensions><gom:speed>1.103</gom:speed></extensions></trkpt>
   <trkpt lat="59.307575987" lon="34.6790905982"><ele>163.13</ele><time>2026-08-16T16:16:35.658Z</time><hdop>3.125</hdop><vdop>2.5</vdop><extensions><gom:speed>1.105</gom:speed></extensions></trkpt>
   <trkpt lat="59.3075815609" lon="34.6790840604"><ele>163.372</ele><time>2026-08-16T16:16:36.136Z</time><hdop>3.125</hdop><vdop>2.5</vdop><extensions><gom:speed>1.118</gom:speed></extensions></trkpt>
   <trkpt lat="59.3075934632" lon="34.6790748403"><ele>163.257</ele><time>2026-08-16T16:16:37.136Z</time><hdop>3.125</hdop><vdop>2.5</vdop><extensions><gom:speed>1.133</gom:speed></extensions></trkpt>
   <trkpt lat="59.3076010908" lon="34.6790583279"><ele>163.188</ele><time>2026-08-16T16:16:38.076Z</time><hdop>3.125</hdop><vdop>2.5</vdop><extensions><gom:speed>1.125</gom:speed></extensions></trkpt>
   <trkpt lat="59.3076108976" lon="34.6790445816"><ele>162.938</ele><time>2026-08-16T16:16:39.136Z</time><hdop>3.125</hdop><vdop>2.5</vdop><extensions><gom:speed>1.087</gom:speed></extensions></trkpt>
   <trkpt lat="59.3076200758" lon="34.6790359482"><ele>162.883</ele><time>2026-08-16T16:16:40.136Z</time><hdop>3.125</hdop><vdop>2.5</vdop><extensions><gom:speed>1.108</gom:speed></extensions></trkpt>
   <trkpt lat="59.3076254821" lon="34.6790304162"><ele>162.851</ele><time>2026-08-16T16:16:40.716Z</time><hdop>3.125</hdop><vdop>2.5</vdop><extensions><gom:speed>1.14</gom:speed></extensions></trkpt>
   <trkpt lat="59.3076351632" lon="34.6790272311"><ele>162.722</ele><time>2026-08-16T16:16:41.561Z</time><hdop>3.125</hdop><vdop>2.5</vdop><extensions><gom:speed>1.161</gom:speed></extensions></trkpt>
   <trkpt lat="59.3076401924" lon="34.6790220343"><ele>162.645</ele><time>2026-08-16T16:16:42.061Z</time><hdop>3.187</hdop><vdop>2.5</vdop><extensions><gom:speed>1.168</gom:speed></extensions></trkpt>
   <trkpt lat="59.3076503764" lon="34.6790242974"><ele>162.599</ele><time>2026-08-16T16:16:42.719Z</time><hdop>3.25</hdop><vdop>2.5</vdop><extensions><gom:speed>1.231</gom:speed></extensions></trkpt>
   <trkpt lat="59.3076592612" lon="34.6790306676"><ele>162.673</ele><time>2026-08-16T16:16:43.200Z</time><hdop>3.187</hdop><vdop>2.5</vdop><extensions><gom:speed>1.251</gom:speed></extensions></trkpt>
   <trkpt lat="59.3076671821" lon="34.6790305838"><ele>162.717</ele><time>2026-08-16T16:16:43.818Z</time><hdop>3.25</hdop><vdop>2.5</vdop><extensions><gom:speed>1.23</gom:speed></extensions></trkpt>
   <trkpt lat="59.3076752706" lon="34.6790353615"><ele>162.815</ele><time>2026-08-16T16:16:44.338Z</time><hdop>3.187</hdop><vdop>2.5</vdop><extensions><gom:speed>1.242</gom:speed></extensions></trkpt>
   <trkpt lat="59.3076842812" lon="34.6790352777"><ele>162.873</ele><time>2026-08-16T16:16:45.055Z</time><hdop>3.25</hdop><vdop>2.5</vdop><extensions><gom:speed>1.217</gom:speed></extensions></trkpt>
   <trkpt lat="59.3076918668" lon="34.6790353615"><ele>162.958</ele><time>2026-08-16T16:16:45.673Z</time><hdop>3.187</hdop><vdop>2.5</vdop><extensions><gom:speed>1.207</gom:speed></extensions></trkpt>
   <trkpt lat="59.3076970636" lon="34.6790366188"><ele>163.215</ele><time>2026-08-16T16:16:46.136Z</time><hdop>3.187</hdop><vdop>2.5</vdop><extensions><gom:speed>1.204</gom:speed></extensions></trkpt>
   <trkpt lat="59.307706577" lon="34.6790463418"><ele>163.368</ele><time>2026-08-16T16:16:47.081Z</time><hdop>3.125</hdop><vdop>2.5</vdop><extensions><gom:speed>1.159</gom:speed></extensions></trkpt>
   <trkpt lat="59.3077126958" lon="34.6790445816"><ele>163.406</ele><time>2026-08-16T16:16:47.774Z</time><hdop>3.062</hdop><vdop>2.5</vdop><extensions><gom:speed>1.103</gom:speed></extensions></trkpt>
   <trkpt lat="59.3077188984" lon="34.6790311705"><ele>163.444</ele><time>2026-08-16T16:16:48.392Z</time><hdop>3.062</hdop><vdop>2.5</vdop><extensions><gom:speed>1.084</gom:speed></extensions></trkpt>
   <trkpt lat="59.3077267774" lon="34.6790199388"><ele>163.526</ele><time>2026-08-16T16:16:49.136Z</time><hdop>3.0</hdop><vdop>2.5</vdop><extensions><gom:speed>1.137</gom:speed></extensions></trkpt>
   <trkpt lat="59.3077346983" lon="34.6790091261"><ele>163.575</ele><time>2026-08-16T16:16:50.005Z</time><hdop>3.062</hdop><vdop>2.5</vdop><extensions><gom:speed>1.072</gom:speed></extensions></trkpt>
   <trkpt lat="59.307743164" lon="34.6790004928"><ele>163.795</ele><time>2026-08-16T16:16:50.770Z</time><hdop>3.0</hdop><vdop>2.5</vdop><extensions><gom:speed>1.046</gom:speed></extensions></trkpt>
   <trkpt lat="59.307757078" lon="34.6789882552"><ele>163.984</ele><time>2026-08-16T16:16:51.948Z</time><hdop>3.062</hdop><vdop>2.5</vdop><extensions><gom:speed>1.064</gom:speed></extensions></trkpt>
   <trkpt lat="59.3077637835" lon="34.6789834775"><ele>164.065</ele><time>2026-08-16T16:16:52.411Z</time><hdop>3.0</hdop><vdop>2.5</vdop><extensions><gom:speed>1.073</gom:speed></extensions></trkpt>
   <trkpt lat="59.3077728779" lon="34.6789759338"><ele>164.269</ele><time>2026-08-16T16:16:53.136Z</time><hdop>3.0</hdop><vdop>2.5</vdop><extensions><gom:speed>1.105</gom:speed></extensions></trkpt>
   <trkpt lat="59.3077853669" lon="34.6789638639"><ele>164.418</ele><time>2026-08-16T16:16:54.136Z</time><hdop>3.062</hdop><vdop>2.5</vdop><extensions><gom:speed>1.115</gom:speed></extensions></trkpt>
   <trkpt lat="59.3077917791" lon="34.6789569907"><ele>164.507</ele><time>2026-08-16T16:16:54.727Z</time><hdop>3.062</hdop><vdop>2.5</vdop><extensions><gom:speed>1.121</gom:speed></extensions></trkpt>
   <trkpt lat="59.3077992809" lon="34.678948525"><ele>164.655</ele><time>2026-08-16T16:16:55.306Z</time><hdop>3.062</hdop><vdop>2.5</vdop><extensions><gom:speed>1.119</gom:speed></extensions></trkpt>
   <trkpt lat="59.3078052739" lon="34.6789394725"><ele>164.744</ele><time>2026-08-16T16:16:55.924Z</time><hdop>3.062</hdop><vdop>2.5</vdop><extensions><gom:speed>1.126</gom:speed></extensions></trkpt>
   <trkpt lat="59.3078129853" lon="34.678929079"><ele>164.617</ele><time>2026-08-16T16:16:56.592Z</time><hdop>3.062</hdop><vdop>2.5</vdop><extensions><gom:speed>1.126</gom:speed></extensions></trkpt>
   <trkpt lat="59.3078176792" lon="34.6789224573"><ele>164.542</ele><time>2026-08-16T16:16:57.073Z</time><hdop>3.062</hdop><vdop>2.5</vdop><extensions><gom:speed>1.119</gom:speed></extensions></trkpt>
   <trkpt lat="59.3078259772" lon="34.6789154165"><ele>164.541</ele><time>2026-08-16T16:16:57.770Z</time><hdop>3.062</hdop><vdop>2.5</vdop><extensions><gom:speed>1.1</gom:speed></extensions></trkpt>
   <trkpt lat="59.3078315931" lon="34.678912399"><ele>164.463</ele><time>2026-08-16T16:16:58.231Z</time><hdop>3.062</hdop><vdop>2.5</vdop><extensions><gom:speed>1.101</gom:speed></extensions></trkpt>
   <trkpt lat="59.3078377957" lon="34.678905442"><ele>164.416</ele><time>2026-08-16T16:16:58.869Z</time><hdop>3.062</hdop><vdop>2.5</vdop><extensions><gom:speed>1.085</gom:speed></extensions></trkpt>
   <trkpt lat="59.3078434954" lon="34.6789023407"><ele>164.401</ele><time>2026-08-16T16:16:59.428Z</time><hdop>3.062</hdop><vdop>2.5</vdop><extensions><gom:speed>1.057</gom:speed></extensions></trkpt>
   <trkpt lat="59.3078504943" lon="34.6788979821"><ele>164.346</ele><time>2026-08-16T16:17:00.135Z</time><hdop>3.062</hdop><vdop>2.5</vdop><extensions><gom:speed>1.07</gom:speed></extensions></trkpt>
   <trkpt lat="59.3078557749" lon="34.6788940426"><ele>164.313</ele><time>2026-08-16T16:17:00.645Z</time><hdop>3.062</hdop><vdop>2.5</vdop><extensions><gom:speed>1.087</gom:speed></extensions></trkpt>
   <trkpt lat="59.3078611812" lon="34.6788917795"><ele>164.327</ele><time>2026-08-16T16:17:01.136Z</time><hdop>3.0</hdop><vdop>2.5</vdop><extensions><gom:speed>1.089</gom:speed></extensions></trkpt>
   <trkpt lat="59.3078685992" lon="34.6788867504"><ele>164.335</ele><time>2026-08-16T16:17:01.833Z</time><hdop>3.0</hdop><vdop>2.5</vdop><extensions><gom:speed>1.09</gom:speed></extensions></trkpt>
   <trkpt lat="59.3078808787" lon="34.6788802963"><ele>164.385</ele><time>2026-08-16T16:17:02.913Z</time><hdop>3.0</hdop><vdop>2.5</vdop><extensions><gom:speed>1.111</gom:speed></extensions></trkpt>
   <trkpt lat="59.3078925715" lon="34.6788747642"><ele>164.384</ele><time>2026-08-16T16:17:03.973Z</time><hdop>3.0</hdop><vdop>2.5</vdop><extensions><gom:speed>1.08</gom:speed></extensions></trkpt>
   <trkpt lat="59.3079064854" lon="34.6788715791"><ele>164.577</ele><time>2026-08-16T16:17:05.136Z</time><hdop>3.0</hdop><vdop>2.5</vdop><extensions><gom:speed>1.118</gom:speed></extensions></trkpt>
   <trkpt lat="59.3079158731" lon="34.678867472"><ele>164.692</ele><time>2026-08-16T16:17:05.927Z</time><hdop>3.0</hdop><vdop>2.5</vdop><extensions><gom:speed>1.126</gom:speed></extensions></trkpt>
   <trkpt lat="59.3079238779" lon="34.6788699865"><ele>165.062</ele><time>2026-08-16T16:17:06.526Z</time><hdop>3.0</hdop><vdop>2.5</vdop><extensions><gom:speed>1.13</gom:speed></extensions></trkpt>
   <trkpt lat="59.3079311701" lon="34.6788779494"><ele>165.251</ele><time>2026-08-16T16:17:07.136Z</time><hdop>3.0</hdop><vdop>2.5</vdop><extensions><gom:speed>1.134</gom:speed></extensions></trkpt>
   <trkpt lat="59.3079378756" lon="34.6788874209"><ele>165.364</ele><time>2026-08-16T16:17:07.772Z</time><hdop>3.0</hdop><vdop>2.5</vdop><extensions><gom:speed>1.119</gom:speed></extensions></trkpt>
   <trkpt lat="59.3079465928" lon="34.6788960543"><ele>165.578</ele><time>2026-08-16T16:17:08.548Z</time><hdop>3.0</hdop><vdop>2.5</vdop><extensions><gom:speed>1.104</gom:speed></extensions></trkpt>
   <trkpt lat="59.3079517896" lon="34.6788958866"><ele>165.707</ele><time>2026-08-16T16:17:09.009Z</time><hdop>3.0</hdop><vdop>2.5</vdop><extensions><gom:speed>1.103</gom:speed></extensions></trkpt>
   <trkpt lat="59.3079597943" lon="34.6788958866"><ele>165.88</ele><time>2026-08-16T16:17:09.706Z</time><hdop>3.0</hdop><vdop>2.5</vdop><extensions><gom:speed>1.114</gom:speed></extensions></trkpt>
   <trkpt lat="59.3079651587" lon="34.6788935397"><ele>165.773</ele><time>2026-08-16T16:17:10.187Z</time><hdop>3.0</hdop><vdop>2.5</vdop><extensions><gom:speed>1.137</gom:speed></extensions></trkpt>
   <trkpt lat="59.3079750913" lon="34.6788864989"><ele>165.845</ele><time>2026-08-16T16:17:11.136Z</time><hdop>3.0</hdop><vdop>2.5</vdop><extensions><gom:speed>1.161</gom:speed></extensions></trkpt>
   <trkpt lat="59.3079848981" lon="34.6788770273"><ele>165.889</ele><time>2026-08-16T16:17:12.012Z</time><hdop>3.0</hdop><vdop>2.5</vdop><extensions><gom:speed>1.207</gom:speed></extensions></trkpt>
   <trkpt lat="59.3079964651" lon="34.6788793743"><ele>165.62</ele><time>2026-08-16T16:17:13.136Z</time><hdop>3.0</hdop><vdop>2.5</vdop><extensions><gom:speed>1.133</gom:speed></extensions></trkpt>
   <trkpt lat="59.3080028773" lon="34.6788811345"><ele>165.459</ele><time>2026-08-16T16:17:13.710Z</time><hdop>3.0</hdop><vdop>2.5</vdop><extensions><gom:speed>1.156</gom:speed></extensions></trkpt>
   <trkpt lat="59.3080155759" lon="34.6788836491"><ele>165.427</ele><time>2026-08-16T16:17:14.849Z</time><hdop>3.0</hdop><vdop>2.5</vdop><extensions><gom:speed>1.158</gom:speed></extensions></trkpt>
   <trkpt lat="59.3080231615" lon="34.6788813859"><ele>165.667</ele><time>2026-08-16T16:17:15.507Z</time><hdop>3.0</hdop><vdop>2.5</vdop><extensions><gom:speed>1.186</gom:speed></extensions></trkpt>
   <trkpt lat="59.3080288612" lon="34.6788793743"><ele>165.81</ele><time>2026-08-16T16:17:15.987Z</time><hdop>3.0</hdop><vdop>2.5</vdop><extensions><gom:speed>1.192</gom:speed></extensions></trkpt>
   <trkpt lat="59.3080361954" lon="34.6788775303"><ele>165.954</ele><time>2026-08-16T16:17:16.625Z</time><hdop>3.0</hdop><vdop>2.5</vdop><extensions><gom:speed>1.181</gom:speed></extensions></trkpt>
   <trkpt lat="59.3080418951" lon="34.6788768597"><ele>165.842</ele><time>2026-08-16T16:17:17.136Z</time><hdop>3.0</hdop><vdop>2.5</vdop><extensions><gom:speed>1.158</gom:speed></extensions></trkpt>
   <trkpt lat="59.3080494807" lon="34.6788757701"><ele>165.775</ele><time>2026-08-16T16:17:17.813Z</time><hdop>3.0</hdop><vdop>2.5</vdop><extensions><gom:speed>1.154</gom:speed></extensions></trkpt>
   <trkpt lat="59.308054887" lon="34.6788758539"><ele>165.688</ele><time>2026-08-16T16:17:18.332Z</time><hdop>3.0</hdop><vdop>2.5</vdop><extensions><gom:speed>1.14</gom:speed></extensions></trkpt>
   <trkpt lat="59.3080624726" lon="34.6788748481"><ele>165.636</ele><time>2026-08-16T16:17:19.030Z</time><hdop>3.0</hdop><vdop>2.5</vdop><extensions><gom:speed>1.128</gom:speed></extensions></trkpt>
   <trkpt lat="59.3080666636" lon="34.6788738422"><ele>165.669</ele><time>2026-08-16T16:17:19.531Z</time><hdop>3.0</hdop><vdop>2.5</vdop><extensions><gom:speed>1.098</gom:speed></extensions></trkpt>
   <trkpt lat="59.3080717765" lon="34.6788729202"><ele>165.718</ele><time>2026-08-16T16:17:20.136Z</time><hdop>3.0</hdop><vdop>2.5</vdop><extensions><gom:speed>1.067</gom:speed></extensions></trkpt>
   <trkpt lat="59.3080775601" lon="34.6788729202"><ele>165.748</ele><time>2026-08-16T16:17:20.708Z</time><hdop>3.0</hdop><vdop>2.5</vdop><extensions><gom:speed>1.101</gom:speed></extensions></trkpt>
   <trkpt lat="59.3080838884" lon="34.6788748481"><ele>165.862</ele><time>2026-08-16T16:17:21.386Z</time><hdop>3.0</hdop><vdop>2.5</vdop><extensions><gom:speed>1.107</gom:speed></extensions></trkpt>
   <trkpt lat="59.3080890852" lon="34.6788758539"><ele>165.931</ele><time>2026-08-16T16:17:21.866Z</time><hdop>3.0</hdop><vdop>2.5</vdop><extensions><gom:speed>1.105</gom:speed></extensions></trkpt>
   <trkpt lat="59.3080958745" lon="34.6788765244"><ele>165.987</ele><time>2026-08-16T16:17:22.573Z</time><hdop>3.0</hdop><vdop>2.5</vdop><extensions><gom:speed>1.112</gom:speed></extensions></trkpt>
   <trkpt lat="59.3081008618" lon="34.6788773626"><ele>166.021</ele><time>2026-08-16T16:17:23.044Z</time><hdop>3.0</hdop><vdop>2.5</vdop><extensions><gom:speed>1.11</gom:speed></extensions></trkpt>
   <trkpt lat="59.3081080702" lon="34.678879039"><ele>166.014</ele><time>2026-08-16T16:17:23.790Z</time><hdop>3.0</hdop><vdop>2.5</vdop><extensions><gom:speed>1.088</gom:speed></extensions></trkpt>
   <trkpt lat="59.3081125964" lon="34.6788783685"><ele>166.107</ele><time>2026-08-16T16:17:24.270Z</time><hdop>3.0</hdop><vdop>2.5</vdop><extensions><gom:speed>1.102</gom:speed></extensions></trkpt>
   <trkpt lat="59.3081209783" lon="34.6788755186"><ele>166.415</ele><time>2026-08-16T16:17:25.136Z</time><hdop>3.0</hdop><vdop>2.5</vdop><extensions><gom:speed>1.118</gom:speed></extensions></trkpt>
   <trkpt lat="59.3081311623" lon="34.6788694836"><ele>166.599</ele><time>2026-08-16T16:17:26.087Z</time><hdop>3.0</hdop><vdop>2.5</vdop><extensions><gom:speed>1.148</gom:speed></extensions></trkpt>
   <trkpt lat="59.3081355628" lon="34.6788653765"><ele>166.767</ele><time>2026-08-16T16:17:26.607Z</time><hdop>3.0</hdop><vdop>2.5</vdop><extensions><gom:speed>1.18</gom:speed></extensions></trkpt>
   <trkpt lat="59.3081403824" lon="34.6788619399"><ele>166.797</ele><time>2026-08-16T16:17:27.136Z</time><hdop>3.0</hdop><vdop>2.5</vdop><extensions><gom:speed>1.157</gom:speed></extensions></trkpt>
   <trkpt lat="59.3081463755" lon="34.678858671"><ele>166.816</ele><time>2026-08-16T16:17:27.726Z</time><hdop>3.0</hdop><vdop>2.5</vdop><extensions><gom:speed>1.165</gom:speed></extensions></trkpt>
   <trkpt lat="59.308152159" lon="34.6788525522"><ele>166.972</ele><time>2026-08-16T16:17:28.413Z</time><hdop>3.0</hdop><vdop>2.5</vdop><extensions><gom:speed>1.137</gom:speed></extensions></trkpt>
   <trkpt lat="59.3081568948" lon="34.678848026"><ele>167.065</ele><time>2026-08-16T16:17:28.884Z</time><hdop>3.0</hdop><vdop>2.5</vdop><extensions><gom:speed>1.136</gom:speed></extensions></trkpt>
   <trkpt lat="59.3081627621" lon="34.6788409852"><ele>167.211</ele><time>2026-08-16T16:17:29.571Z</time><hdop>3.0</hdop><vdop>2.5</vdop><extensions><gom:speed>1.105</gom:speed></extensions></trkpt>
   <trkpt lat="59.3081679589" lon="34.6788370457"><ele>167.298</ele><time>2026-08-16T16:17:30.092Z</time><hdop>3.0</hdop><vdop>2.5</vdop><extensions><gom:speed>1.109</gom:speed></extensions></trkpt>
   <trkpt lat="59.3081742872" lon="34.6788335253"><ele>167.125</ele><time>2026-08-16T16:17:30.730Z</time><hdop>3.0</hdop><vdop>2.5</vdop><extensions><gom:speed>1.055</gom:speed></extensions></trkpt>
   <trkpt lat="59.308179484" lon="34.6788338605"><ele>166.95</ele><time>2026-08-16T16:17:31.230Z</time><hdop>3.0</hdop><vdop>2.5</vdop><extensions><gom:speed>1.085</gom:speed></extensions></trkpt>
   <trkpt lat="59.3081890813" lon="34.6788352855"><ele>166.638</ele><time>2026-08-16T16:17:32.136Z</time><hdop>3.0</hdop><vdop>2.5</vdop><extensions><gom:speed>1.095</gom:speed></extensions></trkpt>
   <trkpt lat="59.3081994748" lon="34.6788361237"><ele>166.452</ele><time>2026-08-16T16:17:33.066Z</time><hdop>3.0</hdop><vdop>2.5</vdop><extensions><gom:speed>1.095</gom:speed></extensions></trkpt>
   <trkpt lat="59.3082056775" lon="34.6788342796"><ele>166.421</ele><time>2026-08-16T16:17:33.586Z</time><hdop>3.0</hdop><vdop>2.5</vdop><extensions><gom:speed>1.165</gom:speed></extensions></trkpt>
   <trkpt lat="59.3082120896" lon="34.6788330224"><ele>166.269</ele><time>2026-08-16T16:17:34.136Z</time><hdop>3.0</hdop><vdop>2.5</vdop><extensions><gom:speed>1.168</gom:speed></extensions></trkpt>
   <trkpt lat="59.3082190885" lon="34.6788333576"><ele>166.179</ele><time>2026-08-16T16:17:34.705Z</time><hdop>3.0</hdop><vdop>2.5</vdop><extensions><gom:speed>1.204</gom:speed></extensions></trkpt>
   <trkpt lat="59.3082281829" lon="34.6788339444"><ele>166.37</ele><time>2026-08-16T16:17:35.470Z</time><hdop>3.0</hdop><vdop>2.5</vdop><extensions><gom:speed>1.209</gom:speed></extensions></trkpt>
   <trkpt lat="59.3082357685" lon="34.6788326871"><ele>166.826</ele><time>2026-08-16T16:17:36.136Z</time><hdop>3.0</hdop><vdop>2.5</vdop><extensions><gom:speed>1.204</gom:speed></extensions></trkpt>
   <trkpt lat="59.3082448628" lon="34.6788308431"><ele>167.098</ele><time>2026-08-16T16:17:36.933Z</time><hdop>3.0</hdop><vdop>2.5</vdop><extensions><gom:speed>1.212</gom:speed></extensions></trkpt>
   <trkpt lat="59.3082509816" lon="34.6788275741"><ele>167.134</ele><time>2026-08-16T16:17:37.551Z</time><hdop>3.0</hdop><vdop>2.5</vdop><extensions><gom:speed>1.22</gom:speed></extensions></trkpt>
   <trkpt lat="59.3082571842" lon="34.6788253948"><ele>167.136</ele><time>2026-08-16T16:17:38.136Z</time><hdop>3.0</hdop><vdop>2.5</vdop><extensions><gom:speed>1.202</gom:speed></extensions></trkpt>
   <trkpt lat="59.3082678712" lon="34.6788240537"><ele>167.138</ele><time>2026-08-16T16:17:39.092Z</time><hdop>3.0</hdop><vdop>2.5</vdop><extensions><gom:speed>1.213</gom:speed></extensions></trkpt>
   <trkpt lat="59.3082789772" lon="34.6788210362"><ele>167.197</ele><time>2026-08-16T16:17:40.136Z</time><hdop>3.0</hdop><vdop>2.5</vdop><extensions><gom:speed>1.236</gom:speed></extensions></trkpt>
   <trkpt lat="59.3082911729" lon="34.6788158395"><ele>167.207</ele><time>2026-08-16T16:17:41.135Z</time><hdop>3.0</hdop><vdop>2.5</vdop><extensions><gom:speed>1.235</gom:speed></extensions></trkpt>
   <trkpt lat="59.3083025723" lon="34.6788070385"><ele>167.375</ele><time>2026-08-16T16:17:42.136Z</time><hdop>3.0</hdop><vdop>2.5</vdop><extensions><gom:speed>1.221</gom:speed></extensions></trkpt>
   <trkpt lat="59.3083140974" lon="34.6787984889"><ele>167.555</ele><time>2026-08-16T16:17:43.136Z</time><hdop>3.0</hdop><vdop>2.5</vdop><extensions><gom:speed>1.238</gom:speed></extensions></trkpt>
   <trkpt lat="59.3083198809" lon="34.6787949685"><ele>167.663</ele><time>2026-08-16T16:17:43.607Z</time><hdop>3.0</hdop><vdop>2.5</vdop><extensions><gom:speed>1.212</gom:speed></extensions></trkpt>
   <trkpt lat="59.3083261673" lon="34.6787896879"><ele>167.77</ele><time>2026-08-16T16:17:44.136Z</time><hdop>3.0</hdop><vdop>2.5</vdop><extensions><gom:speed>1.216</gom:speed></extensions></trkpt>
   <trkpt lat="59.3083336691" lon="34.678784072"><ele>167.834</ele><time>2026-08-16T16:17:44.765Z</time><hdop>3.0</hdop><vdop>2.5</vdop><extensions><gom:speed>1.202</gom:speed></extensions></trkpt>
   <trkpt lat="59.3083454876" lon="34.6787731756"><ele>168.074</ele><time>2026-08-16T16:17:45.864Z</time><hdop>3.0</hdop><vdop>2.5</vdop><extensions><gom:speed>1.192</gom:speed></extensions></trkpt>
   <trkpt lat="59.3083533666" lon="34.678768817"><ele>168.21</ele><time>2026-08-16T16:17:46.532Z</time><hdop>3.0</hdop><vdop>2.5</vdop><extensions><gom:speed>1.192</gom:speed></extensions></trkpt>
   <trkpt lat="59.3083593596" lon="34.6787661348"><ele>168.292</ele><time>2026-08-16T16:17:47.032Z</time><hdop>3.0</hdop><vdop>2.5</vdop><extensions><gom:speed>1.198</gom:speed></extensions></trkpt>
   <trkpt lat="59.3083662747" lon="34.6787580881"><ele>168.163</ele><time>2026-08-16T16:17:47.690Z</time><hdop>3.0</hdop><vdop>2.5</vdop><extensions><gom:speed>1.208</gom:speed></extensions></trkpt>
   <trkpt lat="59.3083709686" lon="34.6787511312"><ele>168.135</ele><time>2026-08-16T16:17:48.190Z</time><hdop>3.0</hdop><vdop>2.5</vdop><extensions><gom:speed>1.198</gom:speed></extensions></trkpt>
   <trkpt lat="59.3083772969" lon="34.6787438389"><ele>168.118</ele><time>2026-08-16T16:17:48.809Z</time><hdop>3.0</hdop><vdop>2.5</vdop><extensions><gom:speed>1.209</gom:speed></extensions></trkpt>
   <trkpt lat="59.3083830804" lon="34.6787418272"><ele>168.256</ele><time>2026-08-16T16:17:49.309Z</time><hdop>3.0</hdop><vdop>2.5</vdop><extensions><gom:speed>1.194</gom:speed></extensions></trkpt>
   <trkpt lat="59.3083928873" lon="34.678741492"><ele>168.462</ele><time>2026-08-16T16:17:50.136Z</time><hdop>3.0</hdop><vdop>2.5</vdop><extensions><gom:speed>1.173</gom:speed></extensions></trkpt>
   <trkpt lat="59.3084047896" lon="34.6787409891"><ele>168.286</ele><time>2026-08-16T16:17:51.135Z</time><hdop>3.0</hdop><vdop>2.5</vdop><extensions><gom:speed>1.193</gom:speed></extensions></trkpt>
   <trkpt lat="59.3084102797" lon="34.6787376363"><ele>168.18</ele><time>2026-08-16T16:17:51.606Z</time><hdop>3.0</hdop><vdop>2.5</vdop><extensions><gom:speed>1.21</gom:speed></extensions></trkpt>
   <trkpt lat="59.3084164823" lon="34.6787320204"><ele>168.139</ele><time>2026-08-16T16:17:52.136Z</time><hdop>3.0</hdop><vdop>2.5</vdop><extensions><gom:speed>1.229</gom:speed></extensions></trkpt>
   <trkpt lat="59.3084227687" lon="34.6787253987"><ele>168.114</ele><time>2026-08-16T16:17:52.725Z</time><hdop>3.0</hdop><vdop>2.5</vdop><extensions><gom:speed>1.186</gom:speed></extensions></trkpt>
   <trkpt lat="59.3084277979" lon="34.6787170168"><ele>168.077</ele><time>2026-08-16T16:17:53.304Z</time><hdop>3.0</hdop><vdop>2.5</vdop><extensions><gom:speed>1.179</gom:speed></extensions></trkpt>
   <trkpt lat="59.3084337909" lon="34.6787086349"><ele>168.054</ele><time>2026-08-16T16:17:53.952Z</time><hdop>3.0</hdop><vdop>2.5</vdop><extensions><gom:speed>1.153</gom:speed></extensions></trkpt>
   <trkpt lat="59.308443472" lon="34.6786948886"><ele>168.226</ele><time>2026-08-16T16:17:55.090Z</time><hdop>3.0</hdop><vdop>2.5</vdop><extensions><gom:speed>1.116</gom:speed></extensions></trkpt>
   <trkpt lat="59.308449968" lon="34.6786893565"><ele>168.146</ele><time>2026-08-16T16:17:55.846Z</time><hdop>3.0</hdop><vdop>2.5</vdop><extensions><gom:speed>1.101</gom:speed></extensions></trkpt>
   <trkpt lat="59.3084625828" lon="34.6786811423"><ele>168.169</ele><time>2026-08-16T16:17:57.136Z</time><hdop>3.0</hdop><vdop>2.5</vdop><extensions><gom:speed>1.085</gom:speed></extensions></trkpt>
   <trkpt lat="59.3084723896" lon="34.6786760293"><ele>168.066</ele><time>2026-08-16T16:17:58.136Z</time><hdop>3.0</hdop><vdop>2.5</vdop><extensions><gom:speed>1.058</gom:speed></extensions></trkpt>
   <trkpt lat="59.3084785922" lon="34.6786723413"><ele>168.005</ele><time>2026-08-16T16:17:58.732Z</time><hdop>3.0</hdop><vdop>2.5</vdop><extensions><gom:speed>1.046</gom:speed></extensions></trkpt>
   <trkpt lat="59.3084907879" lon="34.6786674798"><ele>168.08</ele><time>2026-08-16T16:17:59.949Z</time><hdop>3.0</hdop><vdop>2.5</vdop><extensions><gom:speed>1.056</gom:speed></extensions></trkpt>
   <trkpt lat="59.3085037798" lon="34.6786671445"><ele>168.256</ele><time>2026-08-16T16:18:01.087Z</time><hdop>3.0</hdop><vdop>2.5</vdop><extensions><gom:speed>1.086</gom:speed></extensions></trkpt>
   <trkpt lat="59.3085155983" lon="34.6786578406"><ele>168.323</ele><time>2026-08-16T16:18:02.136Z</time><hdop>3.0</hdop><vdop>2.5</vdop><extensions><gom:speed>1.138</gom:speed></extensions></trkpt>
   <trkpt lat="59.3085242736" lon="34.678649291"><ele>168.363</ele><time>2026-08-16T16:18:02.932Z</time><hdop>3.0</hdop><vdop>2.5</vdop><extensions><gom:speed>1.149</gom:speed></extensions></trkpt>
   <trkpt lat="59.308529177" lon="34.6786431722"><ele>168.407</ele><time>2026-08-16T16:18:03.433Z</time><hdop>3.0</hdop><vdop>2.5</vdop><extensions><gom:speed>1.178</gom:speed></extensions></trkpt>
   <trkpt lat="59.3085361759" lon="34.6786357962"><ele>168.434</ele><time>2026-08-16T16:18:04.110Z</time><hdop>3.0</hdop><vdop>2.5</vdop><extensions><gom:speed>1.175</gom:speed></extensions></trkpt>
   <trkpt lat="59.308541666" lon="34.6786313538"><ele>168.542</ele><time>2026-08-16T16:18:04.630Z</time><hdop>3.0</hdop><vdop>2.5</vdop><extensions><gom:speed>1.169</gom:speed></extensions></trkpt>
   <trkpt lat="59.3085472819" lon="34.6786294259"><ele>168.654</ele><time>2026-08-16T16:18:05.136Z</time><hdop>3.0</hdop><vdop>2.5</vdop><extensions><gom:speed>1.159</gom:speed></extensions></trkpt>
   <trkpt lat="59.3085539874" lon="34.6786342874"><ele>168.72</ele><time>2026-08-16T16:18:05.828Z</time><hdop>3.0</hdop><vdop>2.5</vdop><extensions><gom:speed>1.122</gom:speed></extensions></trkpt>
   <trkpt lat="59.3085590585" lon="34.6786901947"><ele>169.055</ele><time>2026-08-16T16:18:07.136Z</time><hdop>3.0</hdop><vdop>2.5</vdop><extensions><gom:speed>1.452</gom:speed></extensions></trkpt>
   <trkpt lat="59.308557885" lon="34.6787091378"><ele>169.256</ele><time>2026-08-16T16:18:07.712Z</time><hdop>3.0</hdop><vdop>2.5</vdop><extensions><gom:speed>1.329</gom:speed></extensions></trkpt>
   <trkpt lat="59.3085590585" lon="34.6787463535"><ele>170.584</ele><time>2026-08-16T16:18:09.136Z</time><hdop>3.0</hdop><vdop>2.5</vdop><extensions><gom:speed>1.23</gom:speed></extensions></trkpt>
   <trkpt lat="59.3085739783" lon="34.6787390612"><ele>171.579</ele><time>2026-08-16T16:18:10.136Z</time><hdop>3.0</hdop><vdop>2.5</vdop><extensions><gom:speed>1.019</gom:speed></extensions></trkpt>
   <trkpt lat="59.3085827793" lon="34.6787253987"><ele>172.173</ele><time>2026-08-16T16:18:10.932Z</time><hdop>3.0</hdop><vdop>2.5</vdop><extensions><gom:speed>0.966</gom:speed></extensions></trkpt>
   <trkpt lat="59.3085922927" lon="34.6787112333"><ele>172.424</ele><time>2026-08-16T16:18:11.589Z</time><hdop>3.0</hdop><vdop>2.5</vdop><extensions><gom:speed>1.013</gom:speed></extensions></trkpt>
   <trkpt lat="59.3085970704" lon="34.6787043601"><ele>172.574</ele><time>2026-08-16T16:18:12.090Z</time><hdop>3.0</hdop><vdop>2.5</vdop><extensions><gom:speed>1.011</gom:speed></extensions></trkpt>
   <trkpt lat="59.3086063743" lon="34.6786889374"><ele>172.409</ele><time>2026-08-16T16:18:12.787Z</time><hdop>3.0</hdop><vdop>2.5</vdop><extensions><gom:speed>1.073</gom:speed></extensions></trkpt>
   <trkpt lat="59.3086124931" lon="34.678674772"><ele>171.903</ele><time>2026-08-16T16:18:13.287Z</time><hdop>3.0</hdop><vdop>2.5</vdop><extensions><gom:speed>1.106</gom:speed></extensions></trkpt>
   <trkpt lat="59.308619492" lon="34.6786544878"><ele>171.487</ele><time>2026-08-16T16:18:14.136Z</time><hdop>3.0</hdop><vdop>2.5</vdop><extensions><gom:speed>1.138</gom:speed></extensions></trkpt>
   <trkpt lat="59.308625066" lon="34.6786330301"><ele>171.238</ele><time>2026-08-16T16:18:15.132Z</time><hdop>3.0</hdop><vdop>2.5</vdop><extensions><gom:speed>1.106</gom:speed></extensions></trkpt>
   <trkpt lat="59.3086266585" lon="34.6786158472"><ele>170.836</ele><time>2026-08-16T16:18:15.613Z</time><hdop>3.0</hdop><vdop>2.5</vdop><extensions><gom:speed>1.14</gom:speed></extensions></trkpt>
   <trkpt lat="59.3086289636" lon="34.6786003407"><ele>170.39</ele><time>2026-08-16T16:18:16.136Z</time><hdop>3.0</hdop><vdop>2.5</vdop><extensions><gom:speed>1.135</gom:speed></extensions></trkpt>
   <trkpt lat="59.3086328611" lon="34.6785852533"><ele>170.123</ele><time>2026-08-16T16:18:16.791Z</time><hdop>3.0</hdop><vdop>2.5</vdop><extensions><gom:speed>1.135</gom:speed></extensions></trkpt>
   <trkpt lat="59.3086376807" lon="34.6785728481"><ele>169.856</ele><time>2026-08-16T16:18:17.428Z</time><hdop>3.0</hdop><vdop>2.5</vdop><extensions><gom:speed>1.148</gom:speed></extensions></trkpt>
   <trkpt lat="59.3086417879" lon="34.6785647176"><ele>169.696</ele><time>2026-08-16T16:18:17.910Z</time><hdop>3.0</hdop><vdop>2.5</vdop><extensions><gom:speed>1.145</gom:speed></extensions></trkpt>
   <trkpt lat="59.3086464817" lon="34.6785534859"><ele>169.421</ele><time>2026-08-16T16:18:18.568Z</time><hdop>3.0</hdop><vdop>2.5</vdop><extensions><gom:speed>1.135</gom:speed></extensions></trkpt>
   <trkpt lat="59.3086502955" lon="34.6785451878"><ele>169.257</ele><time>2026-08-16T16:18:19.068Z</time><hdop>3.0</hdop><vdop>2.5</vdop><extensions><gom:speed>1.139</gom:speed></extensions></trkpt>
   <trkpt lat="59.3086549894" lon="34.6785352972"><ele>168.884</ele><time>2026-08-16T16:18:19.686Z</time><hdop>3.0</hdop><vdop>2.5</vdop><extensions><gom:speed>1.157</gom:speed></extensions></trkpt>
   <trkpt lat="59.3086587612" lon="34.6785295975"><ele>168.579</ele><time>2026-08-16T16:18:20.136Z</time><hdop>3.0</hdop><vdop>2.5</vdop><extensions><gom:speed>1.198</gom:speed></extensions></trkpt>
   <trkpt lat="59.3086653829" lon="34.6785182819"><ele>168.397</ele><time>2026-08-16T16:18:20.864Z</time><hdop>3.0</hdop><vdop>2.5</vdop><extensions><gom:speed>1.212</gom:speed></extensions></trkpt>
   <trkpt lat="59.3086683585" lon="34.6785124984"><ele>167.994</ele><time>2026-08-16T16:18:21.326Z</time><hdop>3.0</hdop><vdop>2.5</vdop><extensions><gom:speed>1.199</gom:speed></extensions></trkpt>
   <trkpt lat="59.3086733876" lon="34.6785007637"><ele>167.753</ele><time>2026-08-16T16:18:21.993Z</time><hdop>3.0</hdop><vdop>2.5</vdop><extensions><gom:speed>1.205</gom:speed></extensions></trkpt>
   <trkpt lat="59.3086758603" lon="34.6784939744"><ele>167.446</ele><time>2026-08-16T16:18:22.484Z</time><hdop>3.0</hdop><vdop>2.5</vdop><extensions><gom:speed>1.194</gom:speed></extensions></trkpt>
   <trkpt lat="59.308680177" lon="34.6784830779"><ele>167.263</ele><time>2026-08-16T16:18:23.092Z</time><hdop>3.0</hdop><vdop>2.5</vdop><extensions><gom:speed>1.195</gom:speed></extensions></trkpt>
   <trkpt lat="59.3086822725" lon="34.6784759533"><ele>167.117</ele><time>2026-08-16T16:18:23.611Z</time><hdop>3.0</hdop><vdop>2.5</vdop><extensions><gom:speed>1.17</gom:speed></extensions></trkpt>
   <trkpt lat="59.3086853738" lon="34.6784715947"><ele>166.93</ele><time>2026-08-16T16:18:24.136Z</time><hdop>3.0</hdop><vdop>2.5</vdop><extensions><gom:speed>1.128</gom:speed></extensions></trkpt>
   <trkpt lat="59.3086907801" lon="34.6784679905"><ele>166.819</ele><time>2026-08-16T16:18:24.692Z</time><hdop>3.0</hdop><vdop>2.5</vdop><extensions><gom:speed>1.136</gom:speed></extensions></trkpt>
   <trkpt lat="59.3086960607" lon="34.6784693316"><ele>166.759</ele><time>2026-08-16T16:18:25.271Z</time><hdop>3.0</hdop><vdop>2.5</vdop><extensions><gom:speed>1.133</gom:speed></extensions></trkpt>
   <trkpt lat="59.3087015928" lon="34.6784667332"><ele>166.723</ele><time>2026-08-16T16:18:25.772Z</time><hdop>3.0</hdop><vdop>2.5</vdop><extensions><gom:speed>1.184</gom:speed></extensions></trkpt>
   <trkpt lat="59.3087081725" lon="34.6784662303"><ele>166.959</ele><time>2026-08-16T16:18:26.449Z</time><hdop>3.0</hdop><vdop>2.5</vdop><extensions><gom:speed>1.219</gom:speed></extensions></trkpt>
   <trkpt lat="59.3087136627" lon="34.6784616202"><ele>167.1</ele><time>2026-08-16T16:18:26.969Z</time><hdop>3.0</hdop><vdop>2.5</vdop><extensions><gom:speed>1.219</gom:speed></extensions></trkpt>
   <trkpt lat="59.3087187757" lon="34.678458938"><ele>167.074</ele><time>2026-08-16T16:18:27.587Z</time><hdop>3.0</hdop><vdop>2.5</vdop><extensions><gom:speed>1.199</gom:speed></extensions></trkpt>
   <trkpt lat="59.3087235952" lon="34.6784549985"><ele>167.059</ele><time>2026-08-16T16:18:28.049Z</time><hdop>3.0</hdop><vdop>2.5</vdop><extensions><gom:speed>1.203</gom:speed></extensions></trkpt>
   <trkpt lat="59.3087302589" lon="34.6784409169"><ele>166.862</ele><time>2026-08-16T16:18:29.136Z</time><hdop>3.0</hdop><vdop>2.5</vdop><extensions><gom:speed>1.199</gom:speed></extensions></trkpt>
   <trkpt lat="59.3087342822" lon="34.6784292661"><ele>166.744</ele><time>2026-08-16T16:18:29.786Z</time><hdop>3.0</hdop><vdop>2.5</vdop><extensions><gom:speed>1.206</gom:speed></extensions></trkpt>
   <trkpt lat="59.3087376768" lon="34.6784225606"><ele>166.676</ele><time>2026-08-16T16:18:30.287Z</time><hdop>3.0</hdop><vdop>2.5</vdop><extensions><gom:speed>1.206</gom:speed></extensions></trkpt>
   <trkpt lat="59.3087435861" lon="34.6784146816"><ele>166.635</ele><time>2026-08-16T16:18:30.905Z</time><hdop>3.0</hdop><vdop>2.5</vdop><extensions><gom:speed>1.223</gom:speed></extensions></trkpt>
   <trkpt lat="59.3087481961" lon="34.678411245"><ele>166.488</ele><time>2026-08-16T16:18:31.425Z</time><hdop>3.0</hdop><vdop>2.5</vdop><extensions><gom:speed>1.231</gom:speed></extensions></trkpt>
   <trkpt lat="59.3087544826" lon="34.6784073893"><ele>166.38</ele><time>2026-08-16T16:18:32.136Z</time><hdop>3.0</hdop><vdop>2.5</vdop><extensions><gom:speed>1.221</gom:speed></extensions></trkpt>
   <trkpt lat="59.3087638703" lon="34.6784012705"><ele>166.133</ele><time>2026-08-16T16:18:33.136Z</time><hdop>3.0</hdop><vdop>2.5</vdop><extensions><gom:speed>1.183</gom:speed></extensions></trkpt>
   <trkpt lat="59.3087692766" lon="34.6783971634"><ele>165.986</ele><time>2026-08-16T16:18:33.653Z</time><hdop>3.0</hdop><vdop>2.5</vdop><extensions><gom:speed>1.182</gom:speed></extensions></trkpt>
   <trkpt lat="59.3087731742" lon="34.6783932239"><ele>165.853</ele><time>2026-08-16T16:18:34.136Z</time><hdop>3.0</hdop><vdop>2.5</vdop><extensions><gom:speed>1.184</gom:speed></extensions></trkpt>
   <trkpt lat="59.3087787901" lon="34.6783833333"><ele>165.774</ele><time>2026-08-16T16:18:34.831Z</time><hdop>3.0</hdop><vdop>2.5</vdop><extensions><gom:speed>1.202</gom:speed></extensions></trkpt>
   <trkpt lat="59.308785789" lon="34.6783652283"><ele>165.656</ele><time>2026-08-16T16:18:35.910Z</time><hdop>3.0</hdop><vdop>2.5</vdop><extensions><gom:speed>1.22</gom:speed></extensions></trkpt>
   <trkpt lat="59.3087956796" lon="34.6783509791"><ele>165.613</ele><time>2026-08-16T16:18:37.029Z</time><hdop>3.0</hdop><vdop>2.5</vdop><extensions><gom:speed>1.219</gom:speed></extensions></trkpt>
   <trkpt lat="59.308805696" lon="34.6783369813"><ele>165.019</ele><time>2026-08-16T16:18:38.109Z</time><hdop>3.0</hdop><vdop>2.5</vdop><extensions><gom:speed>1.216</gom:speed></extensions></trkpt>
   <trkpt lat="59.3088132816" lon="34.678323235"><ele>164.555</ele><time>2026-08-16T16:18:39.136Z</time><hdop>3.0</hdop><vdop>2.5</vdop><extensions><gom:speed>1.222</gom:speed></extensions></trkpt>
   <trkpt lat="59.30882049" lon="34.6783118356"><ele>164.277</ele><time>2026-08-16T16:18:39.905Z</time><hdop>3.062</hdop><vdop>2.5</vdop><extensions><gom:speed>1.233</gom:speed></extensions></trkpt>
   <trkpt lat="59.3088234656" lon="34.6783023641"><ele>164.136</ele><time>2026-08-16T16:18:40.445Z</time><hdop>3.0</hdop><vdop>2.5</vdop><extensions><gom:speed>1.236</gom:speed></extensions></trkpt>
   <trkpt lat="59.308828369" lon="34.678290797"><ele>164.27</ele><time>2026-08-16T16:18:41.136Z</time><hdop>3.0</hdop><vdop>2.5</vdop><extensions><gom:speed>1.241</gom:speed></extensions></trkpt>
   <trkpt lat="59.308837673" lon="34.6782756258"><ele>164.602</ele><time>2026-08-16T16:18:42.136Z</time><hdop>3.0</hdop><vdop>2.5</vdop><extensions><gom:speed>1.274</gom:speed></extensions></trkpt>
   <trkpt lat="59.3088427859" lon="34.6782670763"><ele>164.801</ele><time>2026-08-16T16:18:42.693Z</time><hdop>3.0</hdop><vdop>2.5</vdop><extensions><gom:speed>1.203</gom:speed></extensions></trkpt>
   <trkpt lat="59.3088469769" lon="34.6782545872"><ele>164.913</ele><time>2026-08-16T16:18:43.370Z</time><hdop>3.0</hdop><vdop>2.5</vdop><extensions><gom:speed>1.167</gom:speed></extensions></trkpt>
   <trkpt lat="59.3088502877" lon="34.6782445289"><ele>164.981</ele><time>2026-08-16T16:18:43.910Z</time><hdop>3.0</hdop><vdop>2.5</vdop><extensions><gom:speed>1.143</gom:speed></extensions></trkpt>
   <trkpt lat="59.3088562808" lon="34.6782223169"><ele>164.903</ele><time>2026-08-16T16:18:45.009Z</time><hdop>3.0</hdop><vdop>2.5</vdop><extensions><gom:speed>1.152</gom:speed></extensions></trkpt>
   <trkpt lat="59.3088616871" lon="34.678208822"><ele>164.756</ele><time>2026-08-16T16:18:45.686Z</time><hdop>3.0</hdop><vdop>2.5</vdop><extensions><gom:speed>1.181</gom:speed></extensions></trkpt>
   <trkpt lat="59.3088651656" lon="34.6782017812"><ele>164.667</ele><time>2026-08-16T16:18:46.136Z</time><hdop>3.0</hdop><vdop>2.5</vdop><extensions><gom:speed>1.162</gom:speed></extensions></trkpt>
   <trkpt lat="59.3088716616" lon="34.6781943213"><ele>164.613</ele><time>2026-08-16T16:18:46.784Z</time><hdop>3.0</hdop><vdop>2.5</vdop><extensions><gom:speed>1.149</gom:speed></extensions></trkpt>
   <trkpt lat="59.3088795825" lon="34.678217623"><ele>164.102</ele><time>2026-08-16T16:18:48.136Z</time><hdop>3.0</hdop><vdop>2.5</vdop><extensions><gom:speed>0.925</gom:speed></extensions></trkpt>
   <trkpt lat="59.3088744695" lon="34.6782299444"><ele>163.816</ele><time>2026-08-16T16:18:49.136Z</time><hdop>3.0</hdop><vdop>2.5</vdop><extensions><gom:speed>0.491</gom:speed></extensions></trkpt>
   <trkpt lat="59.3088772774" lon="34.6782253344"><ele>163.661</ele><time>2026-08-16T16:18:50.135Z</time><hdop>3.0</hdop><vdop>2.5</vdop><extensions><gom:speed>0.434</gom:speed></extensions></trkpt>
   <trkpt lat="59.3088766907" lon="34.6782220654"><ele>163.568</ele><time>2026-08-16T16:18:50.889Z</time><hdop>3.0</hdop><vdop>2.5</vdop><extensions><gom:speed>0.293</gom:speed></extensions></trkpt>
   <trkpt lat="59.3088739666" lon="34.6782140188"><ele>162.668</ele><time>2026-08-16T16:18:51.684Z</time><hdop>3.0</hdop><vdop>2.5</vdop><extensions><gom:speed>0.42</gom:speed></extensions></trkpt>
   <trkpt lat="59.3088734637" lon="34.6782095764"><ele>161.895</ele><time>2026-08-16T16:18:52.136Z</time><hdop>3.0</hdop><vdop>2.5</vdop><extensions><gom:speed>0.297</gom:speed></extensions></trkpt>
   <trkpt lat="59.3088766907" lon="34.6781887893"><ele>161.322</ele><time>2026-08-16T16:18:53.136Z</time><hdop>3.0</hdop><vdop>2.5</vdop><extensions><gom:speed>0.824</gom:speed></extensions></trkpt>
   <trkpt lat="59.3088846954" lon="34.6781616319"><ele>160.584</ele><time>2026-08-16T16:18:54.136Z</time><hdop>3.0</hdop><vdop>2.5</vdop><extensions><gom:speed>0.895</gom:speed></extensions></trkpt>
   <trkpt lat="59.3088914848" lon="34.6781414315"><ele>159.92</ele><time>2026-08-16T16:18:55.136Z</time><hdop>3.0</hdop><vdop>2.5</vdop><extensions><gom:speed>0.795</gom:speed></extensions></trkpt>
   <trkpt lat="59.3088953824" lon="34.6781332173"><ele>159.524</ele><time>2026-08-16T16:18:55.728Z</time><hdop>3.0</hdop><vdop>2.5</vdop><extensions><gom:speed>0.899</gom:speed></extensions></trkpt>
   <trkpt lat="59.3089046863" lon="34.6781025395"><ele>159.276</ele><time>2026-08-16T16:18:57.136Z</time><hdop>3.0</hdop><vdop>2.5</vdop><extensions><gom:speed>1.104</gom:speed></extensions></trkpt>
   <trkpt lat="59.3089072847" lon="34.6780918945"><ele>159.128</ele><time>2026-08-16T16:18:57.593Z</time><hdop>3.0</hdop><vdop>2.5</vdop><extensions><gom:speed>1.129</gom:speed></extensions></trkpt>
   <trkpt lat="59.3089108889" lon="34.6780798245"><ele>159.038</ele><time>2026-08-16T16:18:58.136Z</time><hdop>3.0</hdop><vdop>2.562</vdop><extensions><gom:speed>1.152</gom:speed></extensions></trkpt>
   <trkpt lat="59.3089165886" lon="34.6780625578"><ele>158.983</ele><time>2026-08-16T16:18:59.026Z</time><hdop>3.0</hdop><vdop>2.562</vdop><extensions><gom:speed>1.137</gom:speed></extensions></trkpt>
   <trkpt lat="59.3089253896" lon="34.6780385856"><ele>159.176</ele><time>2026-08-16T16:19:00.136Z</time><hdop>3.0</hdop><vdop>2.625</vdop><extensions><gom:speed>1.203</gom:speed></extensions></trkpt>
   <trkpt lat="59.3089331847" lon="34.6780201454"><ele>159.286</ele><time>2026-08-16T16:19:01.136Z</time><hdop>3.0</hdop><vdop>2.75</vdop><extensions><gom:speed>1.145</gom:speed></extensions></trkpt>
   <trkpt lat="59.3089395969" lon="34.6780009508"><ele>159.187</ele><time>2026-08-16T16:19:02.135Z</time><hdop>3.0</hdop><vdop>2.75</vdop><extensions><gom:speed>1.104</gom:speed></extensions></trkpt>
   <trkpt lat="59.3089456738" lon="34.6779828459"><ele>159.07</ele><time>2026-08-16T16:19:03.136Z</time><hdop>3.0</hdop><vdop>2.625</vdop><extensions><gom:speed>1.05</gom:speed></extensions></trkpt>
   <trkpt lat="59.3089487751" lon="34.6779730391"><ele>159.0</ele><time>2026-08-16T16:19:03.688Z</time><hdop>3.0</hdop><vdop>2.625</vdop><extensions><gom:speed>1.092</gom:speed></extensions></trkpt>
   <trkpt lat="59.3089550615" lon="34.6779510785"><ele>159.367</ele><time>2026-08-16T16:19:04.827Z</time><hdop>3.0</hdop><vdop>2.687</vdop><extensions><gom:speed>1.102</gom:speed></extensions></trkpt>
   <trkpt lat="59.3089620604" lon="34.6779268548"><ele>160.169</ele><time>2026-08-16T16:19:05.945Z</time><hdop>3.0</hdop><vdop>2.562</vdop><extensions><gom:speed>1.155</gom:speed></extensions></trkpt>
   <trkpt lat="59.3089698975" lon="34.6778999489"><ele>161.208</ele><time>2026-08-16T16:19:07.084Z</time><hdop>3.0</hdop><vdop>2.5</vdop><extensions><gom:speed>1.2</gom:speed></extensions></trkpt>
   <trkpt lat="59.3089757648" lon="34.6778770663"><ele>162.196</ele><time>2026-08-16T16:19:07.947Z</time><hdop>3.0</hdop><vdop>2.5</vdop><extensions><gom:speed>1.216</gom:speed></extensions></trkpt>
   <trkpt lat="59.3089826799" lon="34.6778458856"><ele>162.881</ele><time>2026-08-16T16:19:09.136Z</time><hdop>3.0</hdop><vdop>2.5</vdop><extensions><gom:speed>1.146</gom:speed></extensions></trkpt>
   <trkpt lat="59.3089870804" lon="34.6778254338"><ele>163.397</ele><time>2026-08-16T16:19:10.136Z</time><hdop>3.0</hdop><vdop>2.562</vdop><extensions><gom:speed>1.132</gom:speed></extensions></trkpt>
   <trkpt lat="59.3089894692" lon="34.6778157946"><ele>163.705</ele><time>2026-08-16T16:19:10.608Z</time><hdop>3.0</hdop><vdop>2.562</vdop><extensions><gom:speed>1.15</gom:speed></extensions></trkpt>
   <trkpt lat="59.3089916904" lon="34.6778050658"><ele>163.636</ele><time>2026-08-16T16:19:11.136Z</time><hdop>3.0</hdop><vdop>2.5</vdop><extensions><gom:speed>1.154</gom:speed></extensions></trkpt>
   <trkpt lat="59.3089942888" lon="34.6777841948"><ele>163.712</ele><time>2026-08-16T16:19:12.136Z</time><hdop>3.0</hdop><vdop>2.562</vdop><extensions><gom:speed>1.138</gom:speed></extensions></trkpt>
   <trkpt lat="59.3089948755" lon="34.6777666766"><ele>163.757</ele><time>2026-08-16T16:19:12.904Z</time><hdop>3.0</hdop><vdop>2.562</vdop><extensions><gom:speed>1.144</gom:speed></extensions></trkpt>
   <trkpt lat="59.3089943726" lon="34.6777384296"><ele>163.651</ele><time>2026-08-16T16:19:14.072Z</time><hdop>3.0</hdop><vdop>2.75</vdop><extensions><gom:speed>1.157</gom:speed></extensions></trkpt>
   <trkpt lat="59.3089934925" lon="34.6777138706"><ele>163.492</ele><time>2026-08-16T16:19:15.136Z</time><hdop>3.0</hdop><vdop>3.0</vdop><extensions><gom:speed>1.183</gom:speed></extensions></trkpt>
   <trkpt lat="59.3089963843" lon="34.677693335"><ele>163.398</ele><time>2026-08-16T16:19:16.083Z</time><hdop>3.0</hdop><vdop>3.0</vdop><extensions><gom:speed>1.185</gom:speed></extensions></trkpt>
   <trkpt lat="59.3089966777" lon="34.677672967"><ele>163.967</ele><time>2026-08-16T16:19:17.136Z</time><hdop>3.0</hdop><vdop>2.75</vdop><extensions><gom:speed>1.153</gom:speed></extensions></trkpt>
   <trkpt lat="59.3089964681" lon="34.6776616514"><ele>164.307</ele><time>2026-08-16T16:19:17.665Z</time><hdop>3.0</hdop><vdop>2.75</vdop><extensions><gom:speed>1.14</gom:speed></extensions></trkpt>
   <trkpt lat="59.3089957976" lon="34.6776517607"><ele>164.548</ele><time>2026-08-16T16:19:18.136Z</time><hdop>3.0</hdop><vdop>2.687</vdop><extensions><gom:speed>1.127</gom:speed></extensions></trkpt>
   <trkpt lat="59.3089958814" lon="34.6776367571"><ele>164.692</ele><time>2026-08-16T16:19:18.804Z</time><hdop>3.0</hdop><vdop>2.687</vdop><extensions><gom:speed>1.121</gom:speed></extensions></trkpt>
   <trkpt lat="59.3089965938" lon="34.6776195742"><ele>164.249</ele><time>2026-08-16T16:19:19.589Z</time><hdop>3.0</hdop><vdop>2.5</vdop><extensions><gom:speed>1.132</gom:speed></extensions></trkpt>
   <trkpt lat="59.3089974739" lon="34.6776076719"><ele>163.865</ele><time>2026-08-16T16:19:20.136Z</time><hdop>3.0</hdop><vdop>2.5</vdop><extensions><gom:speed>1.135</gom:speed></extensions></trkpt>
   <trkpt lat="59.3090002819" lon="34.6775878906"><ele>163.635</ele><time>2026-08-16T16:19:21.072Z</time><hdop>3.0</hdop><vdop>2.5</vdop><extensions><gom:speed>1.141</gom:speed></extensions></trkpt>
   <trkpt lat="59.3090006591" lon="34.6775702886"><ele>163.431</ele><time>2026-08-16T16:19:21.867Z</time><hdop>3.0</hdop><vdop>2.5</vdop><extensions><gom:speed>1.151</gom:speed></extensions></trkpt>
   <trkpt lat="59.308999779" lon="34.6775436342"><ele>163.43</ele><time>2026-08-16T16:19:23.025Z</time><hdop>3.0</hdop><vdop>2.5</vdop><extensions><gom:speed>1.165</gom:speed></extensions></trkpt>
   <trkpt lat="59.3089982702" lon="34.6775201649"><ele>163.113</ele><time>2026-08-16T16:19:24.136Z</time><hdop>3.0</hdop><vdop>2.5</vdop><extensions><gom:speed>1.15</gom:speed></extensions></trkpt>
   <trkpt lat="59.3089983959" lon="34.6774994616"><ele>162.836</ele><time>2026-08-16T16:19:25.136Z</time><hdop>3.0</hdop><vdop>2.5</vdop><extensions><gom:speed>1.163</gom:speed></extensions></trkpt>
   <trkpt lat="59.3089991922" lon="34.6774876431"><ele>162.67</ele><time>2026-08-16T16:19:25.686Z</time><hdop>3.0</hdop><vdop>2.5</vdop><extensions><gom:speed>1.172</gom:speed></extensions></trkpt>
   <trkpt lat="59.3089991922" lon="34.6774789259"><ele>162.625</ele><time>2026-08-16T16:19:26.136Z</time><hdop>3.0</hdop><vdop>2.5</vdop><extensions><gom:speed>1.157</gom:speed></extensions></trkpt>
   <trkpt lat="59.3090003657" lon="34.6774634194"><ele>162.599</ele><time>2026-08-16T16:19:26.844Z</time><hdop>3.0</hdop><vdop>2.5</vdop><extensions><gom:speed>1.177</gom:speed></extensions></trkpt>
   <trkpt lat="59.3090018744" lon="34.6774464879"><ele>163.014</ele><time>2026-08-16T16:19:27.688Z</time><hdop>3.0</hdop><vdop>2.5</vdop><extensions><gom:speed>1.189</gom:speed></extensions></trkpt>
   <trkpt lat="59.3090039699" lon="34.6774224319"><ele>163.046</ele><time>2026-08-16T16:19:28.768Z</time><hdop>3.0</hdop><vdop>2.5</vdop><extensions><gom:speed>1.167</gom:speed></extensions></trkpt>
   <trkpt lat="59.3090072808" lon="34.6773937658"><ele>162.3</ele><time>2026-08-16T16:19:30.136Z</time><hdop>3.0</hdop><vdop>2.5</vdop><extensions><gom:speed>1.208</gom:speed></extensions></trkpt>
   <trkpt lat="59.3090130643" lon="34.6773741521"><ele>161.855</ele><time>2026-08-16T16:19:31.104Z</time><hdop>3.0</hdop><vdop>2.5</vdop><extensions><gom:speed>1.179</gom:speed></extensions></trkpt>
   <trkpt lat="59.3090203984" lon="34.6773527783"><ele>161.206</ele><time>2026-08-16T16:19:32.136Z</time><hdop>3.0</hdop><vdop>2.5</vdop><extensions><gom:speed>1.168</gom:speed></extensions></trkpt>
   <trkpt lat="59.3090230806" lon="34.6773411274"><ele>160.818</ele><time>2026-08-16T16:19:32.645Z</time><hdop>3.0</hdop><vdop>2.5</vdop><extensions><gom:speed>1.199</gom:speed></extensions></trkpt>
   <trkpt lat="59.3090250923" lon="34.6773300633"><ele>160.744</ele><time>2026-08-16T16:19:33.136Z</time><hdop>3.0</hdop><vdop>2.5</vdop><extensions><gom:speed>1.18</gom:speed></extensions></trkpt>
   <trkpt lat="59.3090276907" lon="34.6773158979"><ele>160.699</ele><time>2026-08-16T16:19:33.743Z</time><hdop>3.0</hdop><vdop>2.5</vdop><extensions><gom:speed>1.213</gom:speed></extensions></trkpt>
   <trkpt lat="59.3090302891" lon="34.6772980444"><ele>161.043</ele><time>2026-08-16T16:19:34.510Z</time><hdop>3.0</hdop><vdop>2.5</vdop><extensions><gom:speed>1.205</gom:speed></extensions></trkpt>
   <trkpt lat="59.3090316721" lon="34.677283879"><ele>161.289</ele><time>2026-08-16T16:19:35.136Z</time><hdop>3.0</hdop><vdop>2.5</vdop><extensions><gom:speed>1.189</gom:speed></extensions></trkpt>
   <trkpt lat="59.3090339771" lon="34.6772648521"><ele>161.437</ele><time>2026-08-16T16:19:35.992Z</time><hdop>3.0</hdop><vdop>2.5</vdop><extensions><gom:speed>1.218</gom:speed></extensions></trkpt>
   <trkpt lat="59.3090416885" lon="34.6772435621"><ele>161.505</ele><time>2026-08-16T16:19:37.130Z</time><hdop>3.0</hdop><vdop>2.5</vdop><extensions><gom:speed>1.205</gom:speed></extensions></trkpt>
   <trkpt lat="59.3090479749" lon="34.6772239484"><ele>161.133</ele><time>2026-08-16T16:19:38.136Z</time><hdop>3.0</hdop><vdop>2.5</vdop><extensions><gom:speed>1.198</gom:speed></extensions></trkpt>
   <trkpt lat="59.3090521659" lon="34.6772040833"><ele>161.046</ele><time>2026-08-16T16:19:39.136Z</time><hdop>3.0</hdop><vdop>2.5</vdop><extensions><gom:speed>1.191</gom:speed></extensions></trkpt>
   <trkpt lat="59.3090576979" lon="34.677185224"><ele>161.005</ele><time>2026-08-16T16:19:40.136Z</time><hdop>3.0</hdop><vdop>2.5</vdop><extensions><gom:speed>1.188</gom:speed></extensions></trkpt>
   <trkpt lat="59.309062769" lon="34.6771670353"><ele>161.64</ele><time>2026-08-16T16:19:41.136Z</time><hdop>3.0</hdop><vdop>2.5</vdop><extensions><gom:speed>1.192</gom:speed></extensions></trkpt>
   <trkpt lat="59.3090661636" lon="34.6771539595"><ele>162.02</ele><time>2026-08-16T16:19:41.773Z</time><hdop>3.0</hdop><vdop>2.5</vdop><extensions><gom:speed>1.211</gom:speed></extensions></trkpt>
   <trkpt lat="59.3090722824" lon="34.6771349326"><ele>162.406</ele><time>2026-08-16T16:19:42.785Z</time><hdop>3.0</hdop><vdop>2.5</vdop><extensions><gom:speed>1.216</gom:speed></extensions></trkpt>
   <trkpt lat="59.3090793651" lon="34.6771161571"><ele>162.623</ele><time>2026-08-16T16:19:43.845Z</time><hdop>3.0</hdop><vdop>2.5</vdop><extensions><gom:speed>1.22</gom:speed></extensions></trkpt>
   <trkpt lat="59.3090857773" lon="34.6771018241"><ele>162.456</ele><time>2026-08-16T16:19:44.689Z</time><hdop>3.0</hdop><vdop>2.5</vdop><extensions><gom:speed>1.206</gom:speed></extensions></trkpt>
   <trkpt lat="59.3090936982" lon="34.6770815399"><ele>162.261</ele><time>2026-08-16T16:19:45.808Z</time><hdop>3.0</hdop><vdop>2.5</vdop><extensions><gom:speed>1.203</gom:speed></extensions></trkpt>
   <trkpt lat="59.3090996912" lon="34.6770594955"><ele>162.15</ele><time>2026-08-16T16:19:46.907Z</time><hdop>3.0</hdop><vdop>2.5</vdop><extensions><gom:speed>1.225</gom:speed></extensions></trkpt>
   <trkpt lat="59.3091080731" lon="34.6770415582"><ele>162.012</ele><time>2026-08-16T16:19:48.136Z</time><hdop>3.0</hdop><vdop>2.937</vdop><extensions><gom:speed>1.197</gom:speed></extensions></trkpt>
   <trkpt lat="59.3091146949" lon="34.6770256326"><ele>162.275</ele><time>2026-08-16T16:19:49.136Z</time><hdop>3.0</hdop><vdop>2.75</vdop><extensions><gom:speed>1.2</gom:speed></extensions></trkpt>
   <trkpt lat="59.3091163712" lon="34.6770157419"><ele>162.432</ele><time>2026-08-16T16:19:49.626Z</time><hdop>3.0</hdop><vdop>2.75</vdop><extensions><gom:speed>1.192</gom:speed></extensions></trkpt>
   <trkpt lat="59.3091166646" lon="34.6770062704"><ele>162.743</ele><time>2026-08-16T16:19:50.136Z</time><hdop>3.0</hdop><vdop>2.562</vdop><extensions><gom:speed>1.183</gom:speed></extensions></trkpt>
   <trkpt lat="59.3091179638" lon="34.6769931946"><ele>162.928</ele><time>2026-08-16T16:19:50.803Z</time><hdop>3.0</hdop><vdop>2.562</vdop><extensions><gom:speed>1.161</gom:speed></extensions></trkpt>
   <trkpt lat="59.3091162874" lon="34.6769798674"><ele>162.959</ele><time>2026-08-16T16:19:51.353Z</time><hdop>3.0</hdop><vdop>2.875</vdop><extensions><gom:speed>1.29</gom:speed></extensions></trkpt>
   <trkpt lat="59.3091191792" lon="34.676966624"><ele>164.129</ele><time>2026-08-16T16:19:52.136Z</time><hdop>3.0</hdop><vdop>2.875</vdop><extensions><gom:speed>1.241</gom:speed></extensions></trkpt>
   <trkpt lat="59.3091271839" lon="34.6769544702"><ele>164.556</ele><time>2026-08-16T16:19:53.136Z</time><hdop>3.0</hdop><vdop>2.875</vdop><extensions><gom:speed>1.127</gom:speed></extensions></trkpt>
   <trkpt lat="59.3091321711" lon="34.676947178"><ele>164.811</ele><time>2026-08-16T16:19:53.709Z</time><hdop>3.0</hdop><vdop>2.875</vdop><extensions><gom:speed>1.121</gom:speed></extensions></trkpt>
   <trkpt lat="59.3091402597" lon="34.6769434899"><ele>164.691</ele><time>2026-08-16T16:19:54.406Z</time><hdop>3.0</hdop><vdop>2.75</vdop><extensions><gom:speed>1.141</gom:speed></extensions></trkpt>
   <trkpt lat="59.3091486835" lon="34.6769421488"><ele>164.313</ele><time>2026-08-16T16:19:55.135Z</time><hdop>3.0</hdop><vdop>2.875</vdop><extensions><gom:speed>1.114</gom:speed></extensions></trkpt>
   <trkpt lat="59.3091610887" lon="34.6769553922"><ele>164.121</ele><time>2026-08-16T16:19:56.136Z</time><hdop>3.0</hdop><vdop>3.125</vdop><extensions><gom:speed>1.101</gom:speed></extensions></trkpt>
   <trkpt lat="59.3091654892" lon="34.6769671269"><ele>164.005</ele><time>2026-08-16T16:19:56.673Z</time><hdop>3.0</hdop><vdop>3.125</vdop><extensions><gom:speed>1.139</gom:speed></extensions></trkpt>
   <trkpt lat="59.309169764" lon="34.6769758441"><ele>164.331</ele><time>2026-08-16T16:19:57.136Z</time><hdop>3.0</hdop><vdop>3.0</vdop><extensions><gom:speed>1.102</gom:speed></extensions></trkpt>
   <trkpt lat="59.3091747931" lon="34.6769883331"><ele>164.525</ele><time>2026-08-16T16:19:57.831Z</time><hdop>3.0</hdop><vdop>3.0</vdop><extensions><gom:speed>1.122</gom:speed></extensions></trkpt>
   <trkpt lat="59.3091820854" lon="34.6769960445"><ele>164.753</ele><time>2026-08-16T16:19:58.607Z</time><hdop>3.0</hdop><vdop>3.125</vdop><extensions><gom:speed>1.118</gom:speed></extensions></trkpt>
   <trkpt lat="59.3091874917" lon="34.6769995649"><ele>164.98</ele><time>2026-08-16T16:19:59.136Z</time><hdop>3.0</hdop><vdop>3.437</vdop><extensions><gom:speed>1.183</gom:speed></extensions></trkpt>
   <trkpt lat="59.3091935686" lon="34.6770054322"><ele>165.116</ele><time>2026-08-16T16:19:59.784Z</time><hdop>3.0</hdop><vdop>3.437</vdop><extensions><gom:speed>1.173</gom:speed></extensions></trkpt>
   <trkpt lat="59.3092022857" lon="34.6769960445"><ele>164.954</ele><time>2026-08-16T16:20:00.933Z</time><hdop>3.0</hdop><vdop>3.437</vdop><extensions><gom:speed>1.138</gom:speed></extensions></trkpt>
   <trkpt lat="59.3092136851" lon="34.676946675"><ele>164.712</ele><time>2026-08-16T16:20:02.136Z</time><hdop>3.0</hdop><vdop>3.625</vdop><extensions><gom:speed>1.219</gom:speed></extensions></trkpt>
   <trkpt lat="59.3092237853" lon="34.6769171707"><ele>164.312</ele><time>2026-08-16T16:20:03.136Z</time><hdop>3.0</hdop><vdop>3.437</vdop><extensions><gom:speed>1.239</gom:speed></extensions></trkpt>
   <trkpt lat="59.3092339693" lon="34.6768893428"><ele>164.351</ele><time>2026-08-16T16:20:04.135Z</time><hdop>3.0</hdop><vdop>3.312</vdop><extensions><gom:speed>1.242</gom:speed></extensions></trkpt>
   <trkpt lat="59.3092403815" lon="34.6768759318"><ele>164.374</ele><time>2026-08-16T16:20:04.731Z</time><hdop>3.0</hdop><vdop>3.312</vdop><extensions><gom:speed>1.218</gom:speed></extensions></trkpt>
   <trkpt lat="59.3092522838" lon="34.6768515404"><ele>164.618</ele><time>2026-08-16T16:20:05.870Z</time><hdop>3.0</hdop><vdop>3.312</vdop><extensions><gom:speed>1.207</gom:speed></extensions></trkpt>
   <trkpt lat="59.3092656948" lon="34.6768282388"><ele>164.928</ele><time>2026-08-16T16:20:07.067Z</time><hdop>3.0</hdop><vdop>3.437</vdop><extensions><gom:speed>1.196</gom:speed></extensions></trkpt>
   <trkpt lat="59.3092817881" lon="34.6768083736"><ele>164.714</ele><time>2026-08-16T16:20:08.136Z</time><hdop>3.0</hdop><vdop>2.875</vdop><extensions><gom:speed>1.252</gom:speed></extensions></trkpt>
   <trkpt lat="59.3092953668" lon="34.67679337"><ele>164.309</ele><time>2026-08-16T16:20:09.136Z</time><hdop>3.0</hdop><vdop>2.812</vdop><extensions><gom:speed>1.253</gom:speed></extensions></trkpt>
   <trkpt lat="59.3093072691" lon="34.6767844852"><ele>163.93</ele><time>2026-08-16T16:20:10.136Z</time><hdop>3.0</hdop><vdop>2.75</vdop><extensions><gom:speed>1.203</gom:speed></extensions></trkpt>
   <trkpt lat="59.3093168664" lon="34.6767769415"><ele>163.761</ele><time>2026-08-16T16:20:11.136Z</time><hdop>3.0</hdop><vdop>2.812</vdop><extensions><gom:speed>1.152</gom:speed></extensions></trkpt>
   <trkpt lat="59.3093221889" lon="34.6767718285"><ele>163.659</ele><time>2026-08-16T16:20:11.669Z</time><hdop>3.0</hdop><vdop>2.812</vdop><extensions><gom:speed>1.187</gom:speed></extensions></trkpt>
   <trkpt lat="59.309325374" lon="34.6767691463"><ele>163.459</ele><time>2026-08-16T16:20:12.136Z</time><hdop>3.0</hdop><vdop>2.75</vdop><extensions><gom:speed>1.134</gom:speed></extensions></trkpt>
   <trkpt lat="59.3093315766" lon="34.676763279"><ele>163.339</ele><time>2026-08-16T16:20:12.809Z</time><hdop>3.0</hdop><vdop>2.75</vdop><extensions><gom:speed>1.154</gom:speed></extensions></trkpt>
   <trkpt lat="59.3093392879" lon="34.6767622732"><ele>163.218</ele><time>2026-08-16T16:20:13.633Z</time><hdop>3.0</hdop><vdop>2.937</vdop><extensions><gom:speed>1.152</gom:speed></extensions></trkpt>
   <trkpt lat="59.3093445685" lon="34.6767625246"><ele>163.191</ele><time>2026-08-16T16:20:14.136Z</time><hdop>3.0</hdop><vdop>3.187</vdop><extensions><gom:speed>1.178</gom:speed></extensions></trkpt>
   <trkpt lat="59.3093515674" lon="34.6767598424"><ele>163.175</ele><time>2026-08-16T16:20:14.791Z</time><hdop>3.0</hdop><vdop>3.187</vdop><extensions><gom:speed>1.184</gom:speed></extensions></trkpt>
   <trkpt lat="59.309364266" lon="34.6767545618"><ele>163.196</ele><time>2026-08-16T16:20:15.969Z</time><hdop>3.0</hdop><vdop>3.125</vdop><extensions><gom:speed>1.178</gom:speed></extensions></trkpt>
   <trkpt lat="59.3093773837" lon="34.6767557353"><ele>162.873</ele><time>2026-08-16T16:20:17.070Z</time><hdop>3.0</hdop><vdop>3.125</vdop><extensions><gom:speed>1.198</gom:speed></extensions></trkpt>
   <trkpt lat="59.3093894955" lon="34.6767609321"><ele>163.438</ele><time>2026-08-16T16:20:18.136Z</time><hdop>3.0</hdop><vdop>3.687</vdop><extensions><gom:speed>1.205</gom:speed></extensions></trkpt>
   <trkpt lat="59.3093951952" lon="34.6767613512"><ele>163.776</ele><time>2026-08-16T16:20:18.611Z</time><hdop>3.0</hdop><vdop>3.687</vdop><extensions><gom:speed>1.197</gom:speed></extensions></trkpt>
   <trkpt lat="59.3094009788" lon="34.6767627761"><ele>164.297</ele><time>2026-08-16T16:20:19.136Z</time><hdop>3.0</hdop><vdop>3.875</vdop><extensions><gom:speed>1.196</gom:speed></extensions></trkpt>
   <trkpt lat="59.3094071814" lon="34.6767602615"><ele>164.609</ele><time>2026-08-16T16:20:19.690Z</time><hdop>3.0</hdop><vdop>3.875</vdop><extensions><gom:speed>1.207</gom:speed></extensions></trkpt>
   <trkpt lat="59.3094146832" lon="34.6767555677"><ele>164.773</ele><time>2026-08-16T16:20:20.426Z</time><hdop>3.0</hdop><vdop>4.0</vdop><extensions><gom:speed>1.254</gom:speed></extensions></trkpt>
   <trkpt lat="59.3094222688" lon="34.676748946"><ele>165.02</ele><time>2026-08-16T16:20:21.136Z</time><hdop>3.0</hdop><vdop>3.812</vdop><extensions><gom:speed>1.224</gom:speed></extensions></trkpt>
   <trkpt lat="59.3094303992" lon="34.676741067"><ele>165.167</ele><time>2026-08-16T16:20:21.889Z</time><hdop>3.0</hdop><vdop>3.812</vdop><extensions><gom:speed>1.247</gom:speed></extensions></trkpt>
   <trkpt lat="59.3094370628" lon="34.6767372951"><ele>164.932</ele><time>2026-08-16T16:20:22.507Z</time><hdop>3.0</hdop><vdop>3.375</vdop><extensions><gom:speed>1.209</gom:speed></extensions></trkpt>
   <trkpt lat="59.3094424692" lon="34.6767319307"><ele>164.791</ele><time>2026-08-16T16:20:23.047Z</time><hdop>3.0</hdop><vdop>3.375</vdop><extensions><gom:speed>1.205</gom:speed></extensions></trkpt>
   <trkpt lat="59.3094512702" lon="34.6767182682"><ele>164.781</ele><time>2026-08-16T16:20:24.136Z</time><hdop>3.0</hdop><vdop>2.875</vdop><extensions><gom:speed>1.187</gom:speed></extensions></trkpt>
   <trkpt lat="59.3094563831" lon="34.676704438"><ele>164.774</ele><time>2026-08-16T16:20:24.912Z</time><hdop>3.0</hdop><vdop>2.875</vdop><extensions><gom:speed>1.167</gom:speed></extensions></trkpt>
   <trkpt lat="59.3094645974" lon="34.6766872551"><ele>164.634</ele><time>2026-08-16T16:20:26.050Z</time><hdop>3.0</hdop><vdop>2.875</vdop><extensions><gom:speed>1.179</gom:speed></extensions></trkpt>
   <trkpt lat="59.3094678663" lon="34.6766829804"><ele>164.377</ele><time>2026-08-16T16:20:26.512Z</time><hdop>3.0</hdop><vdop>2.812</vdop><extensions><gom:speed>1.147</gom:speed></extensions></trkpt>
   <trkpt lat="59.3094734822" lon="34.6766778674"><ele>164.176</ele><time>2026-08-16T16:20:27.136Z</time><hdop>3.0</hdop><vdop>2.562</vdop><extensions><gom:speed>1.134</gom:speed></extensions></trkpt>
   <trkpt lat="59.3094791819" lon="34.6766721677"><ele>164.056</ele><time>2026-08-16T16:20:27.729Z</time><hdop>3.0</hdop><vdop>2.562</vdop><extensions><gom:speed>1.161</gom:speed></extensions></trkpt>
   <trkpt lat="59.3094901622" lon="34.6766605169"><ele>163.898</ele><time>2026-08-16T16:20:28.887Z</time><hdop>3.0</hdop><vdop>2.562</vdop><extensions><gom:speed>1.141</gom:speed></extensions></trkpt>
   <trkpt lat="59.3094955685" lon="34.6766518835"><ele>163.849</ele><time>2026-08-16T16:20:29.633Z</time><hdop>3.0</hdop><vdop>2.5</vdop><extensions><gom:speed>1.105</gom:speed></extensions></trkpt>
   <trkpt lat="59.3094986698" lon="34.6766441722"><ele>163.819</ele><time>2026-08-16T16:20:30.104Z</time><hdop>3.0</hdop><vdop>2.5</vdop><extensions><gom:speed>1.105</gom:speed></extensions></trkpt>
   <trkpt lat="59.3095033637" lon="34.6766361255"><ele>163.885</ele><time>2026-08-16T16:20:30.771Z</time><hdop>3.0</hdop><vdop>2.562</vdop><extensions><gom:speed>1.089</gom:speed></extensions></trkpt>
   <trkpt lat="59.3095066746" lon="34.6766311802"><ele>164.192</ele><time>2026-08-16T16:20:31.233Z</time><hdop>3.0</hdop><vdop>2.5</vdop><extensions><gom:speed>1.088</gom:speed></extensions></trkpt>
   <trkpt lat="59.3095107817" lon="34.6766197808"><ele>164.376</ele><time>2026-08-16T16:20:31.910Z</time><hdop>3.0</hdop><vdop>2.5</vdop><extensions><gom:speed>1.094</gom:speed></extensions></trkpt>
   <trkpt lat="59.309515266" lon="34.6766148355"><ele>164.629</ele><time>2026-08-16T16:20:32.410Z</time><hdop>3.0</hdop><vdop>2.5</vdop><extensions><gom:speed>1.12</gom:speed></extensions></trkpt>
   <trkpt lat="59.3095208819" lon="34.6766055316"><ele>164.78</ele><time>2026-08-16T16:20:33.088Z</time><hdop>3.0</hdop><vdop>2.5</vdop><extensions><gom:speed>1.119</gom:speed></extensions></trkpt>
   <trkpt lat="59.309527294" lon="34.6766014245"><ele>165.123</ele><time>2026-08-16T16:20:33.569Z</time><hdop>3.0</hdop><vdop>2.5</vdop><extensions><gom:speed>1.179</gom:speed></extensions></trkpt>
   <trkpt lat="59.3095338738" lon="34.6765973173"><ele>165.506</ele><time>2026-08-16T16:20:34.135Z</time><hdop>3.0</hdop><vdop>2.5</vdop><extensions><gom:speed>1.158</gom:speed></extensions></trkpt>
   <trkpt lat="59.3095405794" lon="34.6765921205"><ele>165.735</ele><time>2026-08-16T16:20:34.687Z</time><hdop>3.0</hdop><vdop>2.5</vdop><extensions><gom:speed>1.229</gom:speed></extensions></trkpt>
   <trkpt lat="59.3095486679" lon="34.6765869238"><ele>165.816</ele><time>2026-08-16T16:20:35.384Z</time><hdop>3.0</hdop><vdop>2.5</vdop><extensions><gom:speed>1.224</gom:speed></extensions></trkpt>
   <trkpt lat="59.3095542838" lon="34.6765822299"><ele>165.864</ele><time>2026-08-16T16:20:35.865Z</time><hdop>3.0</hdop><vdop>2.5</vdop><extensions><gom:speed>1.224</gom:speed></extensions></trkpt>
   <trkpt lat="59.3095604864" lon="34.6765714172"><ele>165.849</ele><time>2026-08-16T16:20:36.592Z</time><hdop>3.0</hdop><vdop>2.5</vdop><extensions><gom:speed>1.235</gom:speed></extensions></trkpt>
   <trkpt lat="59.3095642582" lon="34.6765620295"><ele>165.84</ele><time>2026-08-16T16:20:37.072Z</time><hdop>3.0</hdop><vdop>2.5</vdop><extensions><gom:speed>1.251</gom:speed></extensions></trkpt>
   <trkpt lat="59.3095682815" lon="34.6765491214"><ele>165.729</ele><time>2026-08-16T16:20:37.750Z</time><hdop>3.0</hdop><vdop>2.5</vdop><extensions><gom:speed>1.225</gom:speed></extensions></trkpt>
   <trkpt lat="59.3095716762" lon="34.676542835"><ele>165.463</ele><time>2026-08-16T16:20:38.231Z</time><hdop>3.0</hdop><vdop>2.5</vdop><extensions><gom:speed>1.212</gom:speed></extensions></trkpt>
   <trkpt lat="59.3095774597" lon="34.6765325252"><ele>165.304</ele><time>2026-08-16T16:20:38.908Z</time><hdop>3.0</hdop><vdop>2.5</vdop><extensions><gom:speed>1.23</gom:speed></extensions></trkpt>
   <trkpt lat="59.3095818602" lon="34.6765300945"><ele>165.049</ele><time>2026-08-16T16:20:39.389Z</time><hdop>3.0</hdop><vdop>2.5</vdop><extensions><gom:speed>1.201</gom:speed></extensions></trkpt>
   <trkpt lat="59.3095888591" lon="34.676521964"><ele>164.897</ele><time>2026-08-16T16:20:40.086Z</time><hdop>3.0</hdop><vdop>2.5</vdop><extensions><gom:speed>1.194</gom:speed></extensions></trkpt>
   <trkpt lat="59.3095929662" lon="34.6765212935"><ele>164.773</ele><time>2026-08-16T16:20:40.606Z</time><hdop>3.0</hdop><vdop>2.5</vdop><extensions><gom:speed>1.15</gom:speed></extensions></trkpt>
   <trkpt lat="59.3095974925" lon="34.67652012"><ele>164.808</ele><time>2026-08-16T16:20:41.136Z</time><hdop>3.0</hdop><vdop>2.5</vdop><extensions><gom:speed>1.117</gom:speed></extensions></trkpt>
   <trkpt lat="59.3096039884" lon="34.6765151747"><ele>164.829</ele><time>2026-08-16T16:20:41.833Z</time><hdop>3.0</hdop><vdop>2.5</vdop><extensions><gom:speed>1.121</gom:speed></extensions></trkpt>
   <trkpt lat="59.309610694" lon="34.6765123248"><ele>164.996</ele><time>2026-08-16T16:20:42.549Z</time><hdop>3.0</hdop><vdop>2.5</vdop><extensions><gom:speed>1.123</gom:speed></extensions></trkpt>
   <trkpt lat="59.3096156812" lon="34.676507631"><ele>165.096</ele><time>2026-08-16T16:20:43.050Z</time><hdop>3.0</hdop><vdop>2.5</vdop><extensions><gom:speed>1.124</gom:speed></extensions></trkpt>
   <trkpt lat="59.3096239793" lon="34.6764974889"><ele>165.086</ele><time>2026-08-16T16:20:44.136Z</time><hdop>3.0</hdop><vdop>2.5</vdop><extensions><gom:speed>1.149</gom:speed></extensions></trkpt>
   <trkpt lat="59.3096299723" lon="34.6764823176"><ele>165.067</ele><time>2026-08-16T16:20:45.136Z</time><hdop>3.0</hdop><vdop>2.5</vdop><extensions><gom:speed>1.127</gom:speed></extensions></trkpt>
   <trkpt lat="59.3096341633" lon="34.676464548"><ele>165.056</ele><time>2026-08-16T16:20:46.033Z</time><hdop>3.0</hdop><vdop>2.5</vdop><extensions><gom:speed>1.135</gom:speed></extensions></trkpt>
   <trkpt lat="59.3096353787" lon="34.6764536515"><ele>165.212</ele><time>2026-08-16T16:20:46.524Z</time><hdop>3.0</hdop><vdop>2.5</vdop><extensions><gom:speed>1.167</gom:speed></extensions></trkpt>
   <trkpt lat="59.3096382704" lon="34.6764432579"><ele>165.394</ele><time>2026-08-16T16:20:47.136Z</time><hdop>3.0</hdop><vdop>2.5</vdop><extensions><gom:speed>1.172</gom:speed></extensions></trkpt>
   <trkpt lat="59.3096417908" lon="34.6764334511"><ele>165.503</ele><time>2026-08-16T16:20:47.653Z</time><hdop>3.062</hdop><vdop>2.5</vdop><extensions><gom:speed>1.208</gom:speed></extensions></trkpt>
   <trkpt lat="59.3096456884" lon="34.6764275838"><ele>165.502</ele><time>2026-08-16T16:20:48.136Z</time><hdop>3.0</hdop><vdop>2.5</vdop><extensions><gom:speed>1.201</gom:speed></extensions></trkpt>
   <trkpt lat="59.3096522682" lon="34.6764175255"><ele>165.501</ele><time>2026-08-16T16:20:48.850Z</time><hdop>3.0</hdop><vdop>2.5</vdop><extensions><gom:speed>1.194</gom:speed></extensions></trkpt>
   <trkpt lat="59.3096599796" lon="34.6764014322"><ele>165.483</ele><time>2026-08-16T16:20:49.989Z</time><hdop>3.062</hdop><vdop>2.5</vdop><extensions><gom:speed>1.168</gom:speed></extensions></trkpt>
   <trkpt lat="59.3096659726" lon="34.6763946429"><ele>165.462</ele><time>2026-08-16T16:20:50.666Z</time><hdop>3.062</hdop><vdop>2.5</vdop><extensions><gom:speed>1.178</gom:speed></extensions></trkpt>
   <trkpt lat="59.3096697864" lon="34.6763905358"><ele>165.371</ele><time>2026-08-16T16:20:51.136Z</time><hdop>3.0</hdop><vdop>2.5</vdop><extensions><gom:speed>1.154</gom:speed></extensions></trkpt>
   <trkpt lat="59.3096752765" lon="34.6763788849"><ele>165.316</ele><time>2026-08-16T16:20:51.892Z</time><hdop>3.0</hdop><vdop>2.5</vdop><extensions><gom:speed>1.159</gom:speed></extensions></trkpt>
   <trkpt lat="59.3096785874" lon="34.6763743587"><ele>165.265</ele><time>2026-08-16T16:20:52.394Z</time><hdop>3.0</hdop><vdop>2.5</vdop><extensions><gom:speed>1.154</gom:speed></extensions></trkpt>
   <trkpt lat="59.3096842871" lon="34.6763638813"><ele>165.235</ele><time>2026-08-16T16:20:53.090Z</time><hdop>3.0</hdop><vdop>2.5</vdop><extensions><gom:speed>1.148</gom:speed></extensions></trkpt>
   <trkpt lat="59.3096923756" lon="34.6763541583"><ele>165.292</ele><time>2026-08-16T16:20:54.135Z</time><hdop>3.0</hdop><vdop>2.5</vdop><extensions><gom:speed>1.136</gom:speed></extensions></trkpt>
   <trkpt lat="59.3096975724" lon="34.6763435971"><ele>165.327</ele><time>2026-08-16T16:20:54.808Z</time><hdop>3.0</hdop><vdop>2.5</vdop><extensions><gom:speed>1.166</gom:speed></extensions></trkpt>
   <trkpt lat="59.3097069601" lon="34.676326498"><ele>165.402</ele><time>2026-08-16T16:20:55.986Z</time><hdop>3.0</hdop><vdop>2.5</vdop><extensions><gom:speed>1.128</gom:speed></extensions></trkpt>
   <trkpt lat="59.3097141686" lon="34.6763194572"><ele>165.321</ele><time>2026-08-16T16:20:56.732Z</time><hdop>3.0</hdop><vdop>2.5</vdop><extensions><gom:speed>1.14</gom:speed></extensions></trkpt>
   <trkpt lat="59.3097193653" lon="34.6763150986"><ele>165.316</ele><time>2026-08-16T16:20:57.252Z</time><hdop>3.0</hdop><vdop>2.5</vdop><extensions><gom:speed>1.134</gom:speed></extensions></trkpt>
   <trkpt lat="59.309723682" lon="34.6763093989"><ele>165.313</ele><time>2026-08-16T16:20:57.733Z</time><hdop>3.0</hdop><vdop>2.5</vdop><extensions><gom:speed>1.137</gom:speed></extensions></trkpt>
   <trkpt lat="59.3097303875" lon="34.6763056271"><ele>165.371</ele><time>2026-08-16T16:20:58.390Z</time><hdop>3.0</hdop><vdop>2.5</vdop><extensions><gom:speed>1.102</gom:speed></extensions></trkpt>
   <trkpt lat="59.309737596" lon="34.67630152"><ele>165.63</ele><time>2026-08-16T16:20:59.136Z</time><hdop>3.0</hdop><vdop>2.5</vdop><extensions><gom:speed>1.079</gom:speed></extensions></trkpt>
   <trkpt lat="59.3097434633" lon="34.6762971614"><ele>165.786</ele><time>2026-08-16T16:20:59.725Z</time><hdop>3.0</hdop><vdop>2.5</vdop><extensions><gom:speed>1.083</gom:speed></extensions></trkpt>
   <trkpt lat="59.3097506718" lon="34.676294563"><ele>165.878</ele><time>2026-08-16T16:21:00.452Z</time><hdop>3.0</hdop><vdop>2.5</vdop><extensions><gom:speed>1.088</gom:speed></extensions></trkpt>
   <trkpt lat="59.3097553656" lon="34.6762907911"><ele>165.933</ele><time>2026-08-16T16:21:00.913Z</time><hdop>3.0</hdop><vdop>2.5</vdop><extensions><gom:speed>1.082</gom:speed></extensions></trkpt>
   <trkpt lat="59.3097628674" lon="34.6762859296"><ele>166.09</ele><time>2026-08-16T16:21:01.806Z</time><hdop>3.0</hdop><vdop>2.5</vdop><extensions><gom:speed>1.021</gom:speed></extensions></trkpt>
   <trkpt lat="59.3097662621" lon="34.676285762"><ele>166.341</ele><time>2026-08-16T16:21:02.287Z</time><hdop>3.0</hdop><vdop>2.5</vdop><extensions><gom:speed>0.983</gom:speed></extensions></trkpt>
   <trkpt lat="59.3097730933" lon="34.6762807328"><ele>166.491</ele><time>2026-08-16T16:21:03.072Z</time><hdop>3.0</hdop><vdop>2.5</vdop><extensions><gom:speed>1.029</gom:speed></extensions></trkpt>
   <trkpt lat="59.3097773681" lon="34.676279727"><ele>166.612</ele><time>2026-08-16T16:21:03.690Z</time><hdop>3.0</hdop><vdop>2.5</vdop><extensions><gom:speed>0.992</gom:speed></extensions></trkpt>
   <trkpt lat="59.3097817686" lon="34.676282493"><ele>166.815</ele><time>2026-08-16T16:21:04.328Z</time><hdop>3.0</hdop><vdop>2.5</vdop><extensions><gom:speed>0.928</gom:speed></extensions></trkpt>
   <trkpt lat="59.3097878874" lon="34.6762845885"><ele>166.696</ele><time>2026-08-16T16:21:05.136Z</time><hdop>3.0</hdop><vdop>2.5</vdop><extensions><gom:speed>0.914</gom:speed></extensions></trkpt>
   <trkpt lat="59.3097920784" lon="34.6762821578"><ele>166.625</ele><time>2026-08-16T16:21:05.693Z</time><hdop>3.0</hdop><vdop>2.5</vdop><extensions><gom:speed>0.888</gom:speed></extensions></trkpt>
   <trkpt lat="59.3097942996" lon="34.6762703393"><ele>166.998</ele><time>2026-08-16T16:21:07.136Z</time><hdop>3.0</hdop><vdop>2.5</vdop><extensions><gom:speed>0.77</gom:speed></extensions></trkpt>
   <trkpt lat="59.3097913659" lon="34.6762633823"><ele>167.221</ele><time>2026-08-16T16:21:07.911Z</time><hdop>3.0</hdop><vdop>2.5</vdop><extensions><gom:speed>0.696</gom:speed></extensions></trkpt>
   <trkpt lat="59.3097912821" lon="34.6762661483"><ele>167.329</ele><time>2026-08-16T16:21:08.549Z</time><hdop>3.0</hdop><vdop>2.5</vdop><extensions><gom:speed>0.492</gom:speed></extensions></trkpt>
   <trkpt lat="59.3097904858" lon="34.676265394"><ele>167.394</ele><time>2026-08-16T16:21:09.010Z</time><hdop>3.0</hdop><vdop>2.5</vdop><extensions><gom:speed>0.498</gom:speed></extensions></trkpt>
   <trkpt lat="59.3097903601" lon="34.6762673218"><ele>167.65</ele><time>2026-08-16T16:21:10.011Z</time><hdop>3.0</hdop><vdop>2.5</vdop><extensions><gom:speed>0.382</gom:speed></extensions></trkpt>
   <trkpt lat="59.3097935871" lon="34.6762765419"><ele>167.556</ele><time>2026-08-16T16:21:11.136Z</time><hdop>3.0</hdop><vdop>2.5</vdop><extensions><gom:speed>0.152</gom:speed></extensions></trkpt>
   <trkpt lat="59.3097938805" lon="34.6762809843"><ele>167.492</ele><time>2026-08-16T16:21:12.136Z</time><hdop>3.0</hdop><vdop>2.5</vdop><extensions><gom:speed>0.138</gom:speed></extensions></trkpt>
   <trkpt lat="59.309793168" lon="34.676283918"><ele>167.456</ele><time>2026-08-16T16:21:13.136Z</time><hdop>3.0</hdop><vdop>2.5</vdop><extensions><gom:speed>0.093</gom:speed></extensions></trkpt>
   <trkpt lat="59.3097920784" lon="34.6762854267"><ele>167.442</ele><time>2026-08-16T16:21:14.136Z</time><hdop>3.0</hdop><vdop>2.5</vdop><extensions><gom:speed>0.075</gom:speed></extensions></trkpt>
   <trkpt lat="59.3097911983" lon="34.6762869354"><ele>167.446</ele><time>2026-08-16T16:21:15.135Z</time><hdop>3.0</hdop><vdop>2.5</vdop><extensions><gom:speed>0.059</gom:speed></extensions></trkpt>
   <trkpt lat="59.3097905696" lon="34.6762881927"><ele>167.462</ele><time>2026-08-16T16:21:16.136Z</time><hdop>3.0</hdop><vdop>2.5</vdop><extensions><gom:speed>0.084</gom:speed></extensions></trkpt>
   <trkpt lat="59.3097899829" lon="34.6762884442"><ele>167.481</ele><time>2026-08-16T16:21:17.135Z</time><hdop>3.0</hdop><vdop>2.5</vdop><extensions><gom:speed>0.056</gom:speed></extensions></trkpt>
   <trkpt lat="59.30978948" lon="34.6762884442"><ele>167.503</ele><time>2026-08-16T16:21:18.136Z</time><hdop>3.0</hdop><vdop>2.5</vdop><extensions><gom:speed>0.055</gom:speed></extensions></trkpt>
   <trkpt lat="59.3097892704" lon="34.6762889471"><ele>167.524</ele><time>2026-08-16T16:21:19.135Z</time><hdop>3.0</hdop><vdop>2.5</vdop><extensions><gom:speed>0.052</gom:speed></extensions></trkpt>
   <trkpt lat="59.3097890609" lon="34.6762897853"><ele>167.539</ele><time>2026-08-16T16:21:20.136Z</time><hdop>3.0</hdop><vdop>2.5</vdop><extensions><gom:speed>0.081</gom:speed></extensions></trkpt>
   <trkpt lat="59.3097887675" lon="34.6762902882"><ele>167.547</ele><time>2026-08-16T16:21:21.136Z</time><hdop>3.0</hdop><vdop>2.5</vdop><extensions><gom:speed>0.052</gom:speed></extensions></trkpt>
   <trkpt lat="59.3097884741" lon="34.6762905397"><ele>167.559</ele><time>2026-08-16T16:21:22.136Z</time><hdop>3.0</hdop><vdop>2.5</vdop><extensions><gom:speed>0.058</gom:speed></extensions></trkpt>
   <trkpt lat="59.3097884741" lon="34.6762906235"><ele>167.566</ele><time>2026-08-16T16:21:23.136Z</time><hdop>3.0</hdop><vdop>2.5</vdop><extensions><gom:speed>0.053</gom:speed></extensions></trkpt>
   <trkpt lat="59.3097887675" lon="34.6762907911"><ele>167.57</ele><time>2026-08-16T16:21:24.136Z</time><hdop>3.0</hdop><vdop>2.5</vdop><extensions><gom:speed>0.097</gom:speed></extensions></trkpt>
   <trkpt lat="59.3097886837" lon="34.6762908749"><ele>167.572</ele><time>2026-08-16T16:21:25.136Z</time><hdop>3.0</hdop><vdop>2.5</vdop><extensions><gom:speed>0.055</gom:speed></extensions></trkpt>
   <trkpt lat="59.3097889771" lon="34.676291294"><ele>167.58</ele><time>2026-08-16T16:21:26.136Z</time><hdop>3.0</hdop><vdop>2.5</vdop><extensions><gom:speed>0.053</gom:speed></extensions></trkpt>
   <trkpt lat="59.3097891866" lon="34.6762916293"><ele>167.585</ele><time>2026-08-16T16:21:27.136Z</time><hdop>3.0</hdop><vdop>2.5</vdop><extensions><gom:speed>0.057</gom:speed></extensions></trkpt>
   <trkpt lat="59.3097892704" lon="34.6762919646"><ele>167.586</ele><time>2026-08-16T16:21:28.136Z</time><hdop>3.0</hdop><vdop>2.5</vdop><extensions><gom:speed>0.083</gom:speed></extensions></trkpt>
   <trkpt lat="59.30978948" lon="34.6762925513"><ele>167.589</ele><time>2026-08-16T16:21:29.136Z</time><hdop>3.0</hdop><vdop>2.5</vdop><extensions><gom:speed>0.06</gom:speed></extensions></trkpt>
   <trkpt lat="59.3097892704" lon="34.6762938924"><ele>167.589</ele><time>2026-08-16T16:21:30.136Z</time><hdop>3.0</hdop><vdop>2.5</vdop><extensions><gom:speed>0.0</gom:speed></extensions></trkpt>
   <trkpt lat="59.3097892704" lon="34.6762944792"><ele>167.583</ele><time>2026-08-16T16:21:31.136Z</time><hdop>3.0</hdop><vdop>2.5</vdop><extensions><gom:speed>0.014</gom:speed></extensions></trkpt>
   <trkpt lat="59.3097893961" lon="34.6762948983"><ele>167.577</ele><time>2026-08-16T16:21:32.136Z</time><hdop>3.0</hdop><vdop>2.5</vdop><extensions><gom:speed>0.024</gom:speed></extensions></trkpt>
   <trkpt lat="59.30978948" lon="34.6762950659"><ele>167.568</ele><time>2026-08-16T16:21:33.135Z</time><hdop>3.0</hdop><vdop>2.5</vdop><extensions><gom:speed>0.032</gom:speed></extensions></trkpt>
   <trkpt lat="59.3097896895" lon="34.6762953174"><ele>167.56</ele><time>2026-08-16T16:21:34.136Z</time><hdop>3.0</hdop><vdop>2.5</vdop><extensions><gom:speed>0.04</gom:speed></extensions></trkpt>
   <trkpt lat="59.3097898991" lon="34.676295485"><ele>167.552</ele><time>2026-08-16T16:21:35.136Z</time><hdop>3.0</hdop><vdop>2.5</vdop><extensions><gom:speed>0.047</gom:speed></extensions></trkpt>
   <trkpt lat="59.3097899829" lon="34.6762955688"><ele>167.546</ele><time>2026-08-16T16:21:36.136Z</time><hdop>3.0</hdop><vdop>2.5</vdop><extensions><gom:speed>0.051</gom:speed></extensions></trkpt>
   <trkpt lat="59.3097900667" lon="34.6762955688"><ele>167.541</ele><time>2026-08-16T16:21:37.136Z</time><hdop>3.0</hdop><vdop>2.5</vdop><extensions><gom:speed>0.054</gom:speed></extensions></trkpt>
   <trkpt lat="59.3097901924" lon="34.6762957364"><ele>167.534</ele><time>2026-08-16T16:21:38.136Z</time><hdop>3.0</hdop><vdop>2.5</vdop><extensions><gom:speed>0.058</gom:speed></extensions></trkpt>
   <trkpt lat="59.3097903601" lon="34.6762959879"><ele>167.526</ele><time>2026-08-16T16:21:39.135Z</time><hdop>3.0</hdop><vdop>2.5</vdop><extensions><gom:speed>0.063</gom:speed></extensions></trkpt>
   <trkpt lat="59.3097906953" lon="34.6762961555"><ele>167.519</ele><time>2026-08-16T16:21:40.136Z</time><hdop>3.0</hdop><vdop>2.5</vdop><extensions><gom:speed>0.065</gom:speed></extensions></trkpt>
   <trkpt lat="59.309790863" lon="34.6762963232"><ele>167.508</ele><time>2026-08-16T16:21:41.136Z</time><hdop>3.0</hdop><vdop>2.5</vdop><extensions><gom:speed>0.063</gom:speed></extensions></trkpt>
   <trkpt lat="59.3097910725" lon="34.6762966585"><ele>167.499</ele><time>2026-08-16T16:21:42.136Z</time><hdop>3.0</hdop><vdop>2.5</vdop><extensions><gom:speed>0.063</gom:speed></extensions></trkpt>
   <trkpt lat="59.3097911983" lon="34.6762969937"><ele>167.489</ele><time>2026-08-16T16:21:43.135Z</time><hdop>3.0</hdop><vdop>2.5</vdop><extensions><gom:speed>0.066</gom:speed></extensions></trkpt>
   <trkpt lat="59.3097912821" lon="34.676297329"><ele>167.482</ele><time>2026-08-16T16:21:44.136Z</time><hdop>3.0</hdop><vdop>2.5</vdop><extensions><gom:speed>0.067</gom:speed></extensions></trkpt>
   <trkpt lat="59.3097916593" lon="34.6762974966"><ele>167.48</ele><time>2026-08-16T16:21:45.135Z</time><hdop>3.0</hdop><vdop>2.5</vdop><extensions><gom:speed>0.068</gom:speed></extensions></trkpt>
   <trkpt lat="59.309791785" lon="34.6762976643"><ele>167.477</ele><time>2026-08-16T16:21:46.136Z</time><hdop>3.0</hdop><vdop>2.5</vdop><extensions><gom:speed>0.072</gom:speed></extensions></trkpt>
   <trkpt lat="59.3097918688" lon="34.6762977481"><ele>167.479</ele><time>2026-08-16T16:21:47.136Z</time><hdop>3.0</hdop><vdop>2.5</vdop><extensions><gom:speed>0.076</gom:speed></extensions></trkpt>
   <trkpt lat="59.3097918688" lon="34.6762976643"><ele>167.487</ele><time>2026-08-16T16:21:48.136Z</time><hdop>3.0</hdop><vdop>2.5</vdop><extensions><gom:speed>0.076</gom:speed></extensions></trkpt>
   <trkpt lat="59.3097918688" lon="34.6762975805"><ele>167.493</ele><time>2026-08-16T16:21:49.136Z</time><hdop>3.0</hdop><vdop>2.5</vdop><extensions><gom:speed>0.075</gom:speed></extensions></trkpt>
   <trkpt lat="59.3097918688" lon="34.6762974966"><ele>167.499</ele><time>2026-08-16T16:21:50.136Z</time><hdop>3.0</hdop><vdop>2.5</vdop><extensions><gom:speed>0.074</gom:speed></extensions></trkpt>
   <trkpt lat="59.3097918688" lon="34.6762972452"><ele>167.505</ele><time>2026-08-16T16:21:51.136Z</time><hdop>3.0</hdop><vdop>2.5</vdop><extensions><gom:speed>0.072</gom:speed></extensions></trkpt>
   <trkpt lat="59.309791785" lon="34.6762965746"><ele>167.495</ele><time>2026-08-16T16:21:52.136Z</time><hdop>3.0</hdop><vdop>2.5</vdop><extensions><gom:speed>0.074</gom:speed></extensions></trkpt>
   <trkpt lat="59.3097916593" lon="34.6762963232"><ele>167.484</ele><time>2026-08-16T16:21:53.136Z</time><hdop>3.0</hdop><vdop>2.5</vdop><extensions><gom:speed>0.075</gom:speed></extensions></trkpt>
   <trkpt lat="59.3097915754" lon="34.6762961555"><ele>167.485</ele><time>2026-08-16T16:21:54.136Z</time><hdop>3.0</hdop><vdop>2.5</vdop><extensions><gom:speed>0.073</gom:speed></extensions></trkpt>
   <trkpt lat="59.3097915754" lon="34.6762960717"><ele>167.485</ele><time>2026-08-16T16:21:55.135Z</time><hdop>3.0</hdop><vdop>2.5</vdop><extensions><gom:speed>0.071</gom:speed></extensions></trkpt>
   <trkpt lat="59.3097914916" lon="34.6762959879"><ele>167.484</ele><time>2026-08-16T16:21:56.135Z</time><hdop>3.0</hdop><vdop>2.5</vdop><extensions><gom:speed>0.07</gom:speed></extensions></trkpt>
   <trkpt lat="59.3097914916" lon="34.6762959879"><ele>167.467</ele><time>2026-08-16T16:21:57.136Z</time><hdop>3.0</hdop><vdop>2.5</vdop><extensions><gom:speed>0.071</gom:speed></extensions></trkpt>
   <trkpt lat="59.3097914916" lon="34.6762959879"><ele>167.446</ele><time>2026-08-16T16:21:58.136Z</time><hdop>3.0</hdop><vdop>2.5</vdop><extensions><gom:speed>0.07</gom:speed></extensions></trkpt>
   <trkpt lat="59.3097912821" lon="34.6762963232"><ele>167.444</ele><time>2026-08-16T16:21:59.136Z</time><hdop>3.0</hdop><vdop>2.5</vdop><extensions><gom:speed>0.071</gom:speed></extensions></trkpt>
   <trkpt lat="59.3097913659" lon="34.6762966585"><ele>167.446</ele><time>2026-08-16T16:22:00.136Z</time><hdop>3.0</hdop><vdop>2.5</vdop><extensions><gom:speed>0.072</gom:speed></extensions></trkpt>
   <trkpt lat="59.3097913659" lon="34.6762968261"><ele>167.449</ele><time>2026-08-16T16:22:01.136Z</time><hdop>3.0</hdop><vdop>2.5</vdop><extensions><gom:speed>0.069</gom:speed></extensions></trkpt>
   <trkpt lat="59.3097913659" lon="34.6762969937"><ele>167.455</ele><time>2026-08-16T16:22:02.136Z</time><hdop>3.0</hdop><vdop>2.5</vdop><extensions><gom:speed>0.068</gom:speed></extensions></trkpt>
   <trkpt lat="59.3097914916" lon="34.6762970776"><ele>167.474</ele><time>2026-08-16T16:22:03.136Z</time><hdop>3.0</hdop><vdop>2.5</vdop><extensions><gom:speed>0.068</gom:speed></extensions></trkpt>
   <trkpt lat="59.3097914916" lon="34.6762971614"><ele>167.488</ele><time>2026-08-16T16:22:04.136Z</time><hdop>3.0</hdop><vdop>2.5</vdop><extensions><gom:speed>0.066</gom:speed></extensions></trkpt>
   <trkpt lat="59.3097913659" lon="34.6762974966"><ele>167.511</ele><time>2026-08-16T16:22:05.136Z</time><hdop>3.0</hdop><vdop>2.5</vdop><extensions><gom:speed>0.066</gom:speed></extensions></trkpt>
   <trkpt lat="59.3097912821" lon="34.676297329"><ele>167.543</ele><time>2026-08-16T16:22:06.136Z</time><hdop>3.0</hdop><vdop>2.5</vdop><extensions><gom:speed>0.064</gom:speed></extensions></trkpt>
   <trkpt lat="59.3097912821" lon="34.6762975805"><ele>167.576</ele><time>2026-08-16T16:22:07.136Z</time><hdop>3.0</hdop><vdop>2.5</vdop><extensions><gom:speed>0.064</gom:speed></extensions></trkpt>
   <trkpt lat="59.3097912821" lon="34.6762977481"><ele>167.605</ele><time>2026-08-16T16:22:08.136Z</time><hdop>3.0</hdop><vdop>2.5</vdop><extensions><gom:speed>0.064</gom:speed></extensions></trkpt>
   <trkpt lat="59.3097913659" lon="34.6762979996"><ele>167.621</ele><time>2026-08-16T16:22:09.136Z</time><hdop>3.0</hdop><vdop>2.5</vdop><extensions><gom:speed>0.063</gom:speed></extensions></trkpt>
   <trkpt lat="59.3097913659" lon="34.6762981672"><ele>167.648</ele><time>2026-08-16T16:22:10.135Z</time><hdop>3.0</hdop><vdop>2.5</vdop><extensions><gom:speed>0.067</gom:speed></extensions></trkpt>
   <trkpt lat="59.3097913659" lon="34.6762984187"><ele>167.672</ele><time>2026-08-16T16:22:11.136Z</time><hdop>3.0</hdop><vdop>2.5</vdop><extensions><gom:speed>0.069</gom:speed></extensions></trkpt>
   <trkpt lat="59.3097912821" lon="34.6762987539"><ele>167.685</ele><time>2026-08-16T16:22:12.136Z</time><hdop>3.0</hdop><vdop>2.5</vdop><extensions><gom:speed>0.067</gom:speed></extensions></trkpt>
   <trkpt lat="59.3097912821" lon="34.6762988378"><ele>167.689</ele><time>2026-08-16T16:22:13.136Z</time><hdop>3.0</hdop><vdop>2.5</vdop><extensions><gom:speed>0.066</gom:speed></extensions></trkpt>
   <trkpt lat="59.3097912821" lon="34.676299173"><ele>167.703</ele><time>2026-08-16T16:22:14.136Z</time><hdop>3.0</hdop><vdop>2.5</vdop><extensions><gom:speed>0.067</gom:speed></extensions></trkpt>
   <trkpt lat="59.3097913659" lon="34.6762993407"><ele>167.717</ele><time>2026-08-16T16:22:15.136Z</time><hdop>3.0</hdop><vdop>2.5</vdop><extensions><gom:speed>0.068</gom:speed></extensions></trkpt>
   <trkpt lat="59.3097914916" lon="34.6762996759"><ele>167.738</ele><time>2026-08-16T16:22:16.136Z</time><hdop>3.0</hdop><vdop>2.5</vdop><extensions><gom:speed>0.069</gom:speed></extensions></trkpt>
   <trkpt lat="59.3097915754" lon="34.6762998436"><ele>167.765</ele><time>2026-08-16T16:22:17.136Z</time><hdop>3.0</hdop><vdop>2.5</vdop><extensions><gom:speed>0.068</gom:speed></extensions></trkpt>
   <trkpt lat="59.3097916593" lon="34.6762999274"><ele>167.795</ele><time>2026-08-16T16:22:18.136Z</time><hdop>3.0</hdop><vdop>2.5</vdop><extensions><gom:speed>0.069</gom:speed></extensions></trkpt>
   <trkpt lat="59.3097918688" lon="34.676300095"><ele>167.816</ele><time>2026-08-16T16:22:19.135Z</time><hdop>3.0</hdop><vdop>2.5</vdop><extensions><gom:speed>0.071</gom:speed></extensions></trkpt>
   <trkpt lat="59.3097920784" lon="34.6763001789"><ele>167.836</ele><time>2026-08-16T16:22:20.136Z</time><hdop>3.0</hdop><vdop>2.5</vdop><extensions><gom:speed>0.072</gom:speed></extensions></trkpt>
   <trkpt lat="59.3097922879" lon="34.6763002627"><ele>167.852</ele><time>2026-08-16T16:22:21.136Z</time><hdop>3.0</hdop><vdop>2.5</vdop><extensions><gom:speed>0.067</gom:speed></extensions></trkpt>
   <trkpt lat="59.3097925813" lon="34.6763004303"><ele>167.852</ele><time>2026-08-16T16:22:22.136Z</time><hdop>3.0</hdop><vdop>2.5</vdop><extensions><gom:speed>0.068</gom:speed></extensions></trkpt>
   <trkpt lat="59.3097927908" lon="34.6763004303"><ele>167.937</ele><time>2026-08-16T16:22:23.136Z</time><hdop>3.0</hdop><vdop>2.5</vdop><extensions><gom:speed>0.363</gom:speed></extensions></trkpt>
   <trkpt lat="59.309793168" lon="34.6763013523"><ele>167.758</ele><time>2026-08-16T16:22:24.136Z</time><hdop>3.0</hdop><vdop>2.5</vdop><extensions><gom:speed>0.12</gom:speed></extensions></trkpt>
   <trkpt lat="59.3097930842" lon="34.6763011847"><ele>167.651</ele><time>2026-08-16T16:22:24.920Z</time><hdop>3.0</hdop><vdop>2.5</vdop><extensions><gom:speed>0.12</gom:speed></extensions></trkpt>
   <trkpt lat="59.3097921622" lon="34.6763027772"><ele>167.576</ele><time>2026-08-16T16:22:26.136Z</time><hdop>3.0</hdop><vdop>2.5</vdop><extensions><gom:speed>0.076</gom:speed></extensions></trkpt>
   <trkpt lat="59.3097918688" lon="34.6763034478"><ele>167.523</ele><time>2026-08-16T16:22:27.136Z</time><hdop>3.0</hdop><vdop>2.5</vdop><extensions><gom:speed>0.068</gom:speed></extensions></trkpt>
   <trkpt lat="59.3097913659" lon="34.6763039507"><ele>167.27</ele><time>2026-08-16T16:22:28.136Z</time><hdop>3.0</hdop><vdop>2.5</vdop><extensions><gom:speed>0.113</gom:speed></extensions></trkpt>
   <trkpt lat="59.3097906953" lon="34.6763044536"><ele>166.866</ele><time>2026-08-16T16:22:29.136Z</time><hdop>3.0</hdop><vdop>2.5</vdop><extensions><gom:speed>0.266</gom:speed></extensions></trkpt>
   <trkpt lat="59.309790863" lon="34.6763054595"><ele>166.625</ele><time>2026-08-16T16:22:30.121Z</time><hdop>3.0</hdop><vdop>2.5</vdop><extensions><gom:speed>0.267</gom:speed></extensions></trkpt>
   <trkpt lat="59.3097888932" lon="34.6763045374"><ele>166.6</ele><time>2026-08-16T16:22:31.136Z</time><hdop>3.0</hdop><vdop>2.5</vdop><extensions><gom:speed>0.082</gom:speed></extensions></trkpt>
   <trkpt lat="59.3097877617" lon="34.6763032802"><ele>166.634</ele><time>2026-08-16T16:22:32.136Z</time><hdop>3.0</hdop><vdop>2.5</vdop><extensions><gom:speed>0.599</gom:speed></extensions></trkpt>
   <trkpt lat="59.3097859596" lon="34.676303364"><ele>166.654</ele><time>2026-08-16T16:22:33.036Z</time><hdop>3.062</hdop><vdop>2.5</vdop><extensions><gom:speed>0.6</gom:speed></extensions></trkpt>
   <trkpt lat="59.3097854986" lon="34.6762913779"><ele>166.506</ele><time>2026-08-16T16:22:34.136Z</time><hdop>3.187</hdop><vdop>2.5</vdop><extensions><gom:speed>0.231</gom:speed></extensions></trkpt>
   <trkpt lat="59.3097869654" lon="34.6762858458"><ele>166.283</ele><time>2026-08-16T16:22:35.136Z</time><hdop>3.375</hdop><vdop>2.5</vdop><extensions><gom:speed>0.078</gom:speed></extensions></trkpt>
   <trkpt lat="59.3097873845" lon="34.6762850914"><ele>166.15</ele><time>2026-08-16T16:22:35.942Z</time><hdop>3.437</hdop><vdop>2.5</vdop><extensions><gom:speed>0.079</gom:speed></extensions></trkpt>
   <trkpt lat="59.3097889771" lon="34.6762802299"><ele>166.093</ele><time>2026-08-16T16:22:36.737Z</time><hdop>3.5</hdop><vdop>2.5</vdop><extensions><gom:speed>0.088</gom:speed></extensions></trkpt>
   <trkpt lat="59.3097913659" lon="34.6762754522"><ele>166.271</ele><time>2026-08-16T16:22:38.136Z</time><hdop>3.437</hdop><vdop>2.5</vdop><extensions><gom:speed>0.119</gom:speed></extensions></trkpt>
   <trkpt lat="59.3097929585" lon="34.6762732729"><ele>166.282</ele><time>2026-08-16T16:22:39.136Z</time><hdop>3.312</hdop><vdop>2.5</vdop><extensions><gom:speed>0.099</gom:speed></extensions></trkpt>
   <trkpt lat="59.3097944672" lon="34.6762705907"><ele>166.31</ele><time>2026-08-16T16:22:40.136Z</time><hdop>3.25</hdop><vdop>2.5</vdop><extensions><gom:speed>0.1</gom:speed></extensions></trkpt>
   <trkpt lat="59.3097957664" lon="34.6762678247"><ele>166.331</ele><time>2026-08-16T16:22:41.136Z</time><hdop>3.0</hdop><vdop>2.5</vdop><extensions><gom:speed>0.106</gom:speed></extensions></trkpt>
   <trkpt lat="59.3097967722" lon="34.6762649749"><ele>166.349</ele><time>2026-08-16T16:22:42.136Z</time><hdop>3.0</hdop><vdop>2.5</vdop><extensions><gom:speed>0.079</gom:speed></extensions></trkpt>
   <trkpt lat="59.3097980714" lon="34.6762624603"><ele>166.362</ele><time>2026-08-16T16:22:43.136Z</time><hdop>3.0</hdop><vdop>2.5</vdop><extensions><gom:speed>0.074</gom:speed></extensions></trkpt>
   <trkpt lat="59.309799664" lon="34.6762592752"><ele>166.38</ele><time>2026-08-16T16:22:44.136Z</time><hdop>3.0</hdop><vdop>2.5</vdop><extensions><gom:speed>0.131</gom:speed></extensions></trkpt>
   <trkpt lat="59.3098027653" lon="34.676255168"><ele>166.293</ele><time>2026-08-16T16:22:45.136Z</time><hdop>3.0</hdop><vdop>2.5</vdop><extensions><gom:speed>0.148</gom:speed></extensions></trkpt>
   <trkpt lat="59.3098044836" lon="34.6762534917"><ele>166.24</ele><time>2026-08-16T16:22:45.776Z</time><hdop>3.0</hdop><vdop>2.5</vdop><extensions><gom:speed>0.164</gom:speed></extensions></trkpt>
   <trkpt lat="59.3098087583" lon="34.6762447745"><ele>166.347</ele><time>2026-08-16T16:22:46.434Z</time><hdop>3.0</hdop><vdop>2.5</vdop><extensions><gom:speed>0.355</gom:speed></extensions></trkpt>
   <trkpt lat="59.3098100994" lon="34.6762403321"><ele>166.41</ele><time>2026-08-16T16:22:46.954Z</time><hdop>3.0</hdop><vdop>2.5</vdop><extensions><gom:speed>0.377</gom:speed></extensions></trkpt>
   <trkpt lat="59.3098146676" lon="34.6762252446"><ele>166.448</ele><time>2026-08-16T16:22:47.680Z</time><hdop>3.0</hdop><vdop>2.5</vdop><extensions><gom:speed>0.642</gom:speed></extensions></trkpt>
   <trkpt lat="59.3098185652" lon="34.6762165275"><ele>166.595</ele><time>2026-08-16T16:22:48.136Z</time><hdop>3.0</hdop><vdop>2.5</vdop><extensions><gom:speed>0.736</gom:speed></extensions></trkpt>
   <trkpt lat="59.3098240972" lon="34.676209319"><ele>166.683</ele><time>2026-08-16T16:22:48.858Z</time><hdop>3.0</hdop><vdop>2.5</vdop><extensions><gom:speed>0.75</gom:speed></extensions></trkpt>
   <trkpt lat="59.3098323953" lon="34.6762018591"><ele>166.657</ele><time>2026-08-16T16:22:49.574Z</time><hdop>3.0</hdop><vdop>2.5</vdop><extensions><gom:speed>0.857</gom:speed></extensions></trkpt>
   <trkpt lat="59.3098369634" lon="34.6761999313"><ele>166.642</ele><time>2026-08-16T16:22:50.055Z</time><hdop>3.0</hdop><vdop>2.5</vdop><extensions><gom:speed>0.864</gom:speed></extensions></trkpt>
   <trkpt lat="59.3098456806" lon="34.6761970814"><ele>166.447</ele><time>2026-08-16T16:22:50.742Z</time><hdop>3.0</hdop><vdop>2.5</vdop><extensions><gom:speed>0.936</gom:speed></extensions></trkpt>
   <trkpt lat="59.3098527633" lon="34.6761951536"><ele>166.38</ele><time>2026-08-16T16:22:51.214Z</time><hdop>3.0</hdop><vdop>2.5</vdop><extensions><gom:speed>0.98</gom:speed></extensions></trkpt>
   <trkpt lat="59.3098607681" lon="34.6761939801"><ele>166.34</ele><time>2026-08-16T16:22:51.960Z</time><hdop>3.0</hdop><vdop>2.5</vdop><extensions><gom:speed>0.985</gom:speed></extensions></trkpt>
   <trkpt lat="59.309869569" lon="34.6761918847"><ele>166.229</ele><time>2026-08-16T16:22:52.675Z</time><hdop>3.0</hdop><vdop>2.5</vdop><extensions><gom:speed>0.994</gom:speed></extensions></trkpt>
   <trkpt lat="59.3098749754" lon="34.6761892863"><ele>166.066</ele><time>2026-08-16T16:22:53.136Z</time><hdop>3.0</hdop><vdop>2.5</vdop><extensions><gom:speed>0.995</gom:speed></extensions></trkpt>
   <trkpt lat="59.3098812618" lon="34.6761859335"><ele>165.968</ele><time>2026-08-16T16:22:53.736Z</time><hdop>3.0</hdop><vdop>2.5</vdop><extensions><gom:speed>0.965</gom:speed></extensions></trkpt>
   <trkpt lat="59.3098886798" lon="34.6761836704"><ele>165.959</ele><time>2026-08-16T16:22:54.432Z</time><hdop>3.0</hdop><vdop>2.5</vdop><extensions><gom:speed>0.915</gom:speed></extensions></trkpt>
   <trkpt lat="59.3098947986" lon="34.6761831675"><ele>165.953</ele><time>2026-08-16T16:22:55.081Z</time><hdop>3.0</hdop><vdop>2.5</vdop><extensions><gom:speed>0.914</gom:speed></extensions></trkpt>
   <trkpt lat="59.3099012946" lon="34.6761799824"><ele>165.999</ele><time>2026-08-16T16:22:55.719Z</time><hdop>3.0</hdop><vdop>2.5</vdop><extensions><gom:speed>0.934</gom:speed></extensions></trkpt>
   <trkpt lat="59.309906659" lon="34.6761740312"><ele>166.124</ele><time>2026-08-16T16:22:56.180Z</time><hdop>3.0</hdop><vdop>2.5</vdop><extensions><gom:speed>0.964</gom:speed></extensions></trkpt>
   <trkpt lat="59.3099155857" lon="34.6761660684"><ele>166.13</ele><time>2026-08-16T16:22:57.136Z</time><hdop>3.0</hdop><vdop>2.5</vdop><extensions><gom:speed>0.975</gom:speed></extensions></trkpt>
   <trkpt lat="59.3099248896" lon="34.6761600334"><ele>166.134</ele><time>2026-08-16T16:22:58.113Z</time><hdop>3.0</hdop><vdop>2.5</vdop><extensions><gom:speed>0.974</gom:speed></extensions></trkpt>
   <trkpt lat="59.3099303798" lon="34.6761554234"><ele>166.097</ele><time>2026-08-16T16:22:58.594Z</time><hdop>3.0</hdop><vdop>2.5</vdop><extensions><gom:speed>1.045</gom:speed></extensions></trkpt>
   <trkpt lat="59.3099359956" lon="34.6761503942"><ele>165.989</ele><time>2026-08-16T16:22:59.136Z</time><hdop>3.0</hdop><vdop>2.5</vdop><extensions><gom:speed>1.057</gom:speed></extensions></trkpt>
   <trkpt lat="59.3099429945" lon="34.6761442755"><ele>165.925</ele><time>2026-08-16T16:22:59.821Z</time><hdop>3.0</hdop><vdop>2.5</vdop><extensions><gom:speed>1.066</gom:speed></extensions></trkpt>
   <trkpt lat="59.309948778" lon="34.6761337981"><ele>165.917</ele><time>2026-08-16T16:23:00.518Z</time><hdop>3.0</hdop><vdop>2.5</vdop><extensions><gom:speed>1.069</gom:speed></extensions></trkpt>
   <trkpt lat="59.3099526756" lon="34.6761268411"><ele>165.913</ele><time>2026-08-16T16:23:00.999Z</time><hdop>3.0</hdop><vdop>2.5</vdop><extensions><gom:speed>1.075</gom:speed></extensions></trkpt>
   <trkpt lat="59.3099578724" lon="34.6761142682"><ele>165.933</ele><time>2026-08-16T16:23:01.676Z</time><hdop>3.0</hdop><vdop>2.5</vdop><extensions><gom:speed>1.117</gom:speed></extensions></trkpt>
   <trkpt lat="59.3099612671" lon="34.6761055511"><ele>165.734</ele><time>2026-08-16T16:23:02.135Z</time><hdop>3.0</hdop><vdop>2.5</vdop><extensions><gom:speed>1.106</gom:speed></extensions></trkpt>
   <trkpt lat="59.3099662962" lon="34.6760942355"><ele>165.616</ele><time>2026-08-16T16:23:02.854Z</time><hdop>3.0</hdop><vdop>2.5</vdop><extensions><gom:speed>1.107</gom:speed></extensions></trkpt>
   <trkpt lat="59.3099755582" lon="34.6760776393"><ele>165.684</ele><time>2026-08-16T16:23:04.136Z</time><hdop>3.0</hdop><vdop>2.5</vdop><extensions><gom:speed>1.091</gom:speed></extensions></trkpt>
   <trkpt lat="59.3099842754" lon="34.6760677487"><ele>165.603</ele><time>2026-08-16T16:23:05.135Z</time><hdop>3.0</hdop><vdop>2.5</vdop><extensions><gom:speed>1.091</gom:speed></extensions></trkpt>
   <trkpt lat="59.3099902685" lon="34.6760619652"><ele>165.555</ele><time>2026-08-16T16:23:05.720Z</time><hdop>3.0</hdop><vdop>2.5</vdop><extensions><gom:speed>1.117</gom:speed></extensions></trkpt>
   <trkpt lat="59.3100026737" lon="34.6760552596"><ele>165.534</ele><time>2026-08-16T16:23:06.839Z</time><hdop>3.0</hdop><vdop>2.5</vdop><extensions><gom:speed>1.145</gom:speed></extensions></trkpt>
   <trkpt lat="59.3100139892" lon="34.6760464586"><ele>165.644</ele><time>2026-08-16T16:23:07.958Z</time><hdop>3.0</hdop><vdop>2.5</vdop><extensions><gom:speed>1.14</gom:speed></extensions></trkpt>
   <trkpt lat="59.3100201918" lon="34.676040256"><ele>165.589</ele><time>2026-08-16T16:23:08.674Z</time><hdop>3.0</hdop><vdop>2.5</vdop><extensions><gom:speed>1.118</gom:speed></extensions></trkpt>
   <trkpt lat="59.3100239637" lon="34.6760373224"><ele>165.439</ele><time>2026-08-16T16:23:09.136Z</time><hdop>3.0</hdop><vdop>2.5</vdop><extensions><gom:speed>1.112</gom:speed></extensions></trkpt>
   <trkpt lat="59.3100324713" lon="34.6760283537"><ele>165.333</ele><time>2026-08-16T16:23:10.136Z</time><hdop>3.0</hdop><vdop>2.5</vdop><extensions><gom:speed>1.084</gom:speed></extensions></trkpt>
   <trkpt lat="59.310039596" lon="34.6760161162"><ele>165.27</ele><time>2026-08-16T16:23:11.059Z</time><hdop>3.0</hdop><vdop>2.5</vdop><extensions><gom:speed>1.057</gom:speed></extensions></trkpt>
   <trkpt lat="59.310044667" lon="34.6760142721"><ele>165.236</ele><time>2026-08-16T16:23:11.579Z</time><hdop>3.0</hdop><vdop>2.5</vdop><extensions><gom:speed>1.075</gom:speed></extensions></trkpt>
   <trkpt lat="59.3100494866" lon="34.6760119252"><ele>165.103</ele><time>2026-08-16T16:23:12.136Z</time><hdop>3.0</hdop><vdop>2.5</vdop><extensions><gom:speed>1.057</gom:speed></extensions></trkpt>
   <trkpt lat="59.3100551863" lon="34.6760069799"><ele>165.023</ele><time>2026-08-16T16:23:12.757Z</time><hdop>3.0</hdop><vdop>2.5</vdop><extensions><gom:speed>1.069</gom:speed></extensions></trkpt>
   <trkpt lat="59.3100618918" lon="34.6760042977"><ele>164.961</ele><time>2026-08-16T16:23:13.474Z</time><hdop>3.0</hdop><vdop>2.5</vdop><extensions><gom:speed>1.095</gom:speed></extensions></trkpt>
   <trkpt lat="59.3100667952" lon="34.67599952"><ele>164.924</ele><time>2026-08-16T16:23:13.974Z</time><hdop>3.0</hdop><vdop>2.5</vdop><extensions><gom:speed>1.094</gom:speed></extensions></trkpt>
   <trkpt lat="59.3100729978" lon="34.6759963349"><ele>164.848</ele><time>2026-08-16T16:23:14.681Z</time><hdop>3.0</hdop><vdop>2.5</vdop><extensions><gom:speed>1.112</gom:speed></extensions></trkpt>
   <trkpt lat="59.3100770631" lon="34.6759952452"><ele>164.867</ele><time>2026-08-16T16:23:15.136Z</time><hdop>3.0</hdop><vdop>2.5</vdop><extensions><gom:speed>1.103</gom:speed></extensions></trkpt>
   <trkpt lat="59.3100843972" lon="34.6759906352"><ele>164.878</ele><time>2026-08-16T16:23:15.909Z</time><hdop>3.0</hdop><vdop>2.5</vdop><extensions><gom:speed>1.088</gom:speed></extensions></trkpt>
   <trkpt lat="59.3100887977" lon="34.6759911381"><ele>164.869</ele><time>2026-08-16T16:23:16.410Z</time><hdop>3.0</hdop><vdop>2.5</vdop><extensions><gom:speed>1.098</gom:speed></extensions></trkpt>
   <trkpt lat="59.3100955871" lon="34.6759878691"><ele>164.864</ele><time>2026-08-16T16:23:17.086Z</time><hdop>3.0</hdop><vdop>2.5</vdop><extensions><gom:speed>1.094</gom:speed></extensions></trkpt>
   <trkpt lat="59.3101008677" lon="34.6759878691"><ele>164.831</ele><time>2026-08-16T16:23:17.607Z</time><hdop>3.0</hdop><vdop>2.5</vdop><extensions><gom:speed>1.106</gom:speed></extensions></trkpt>
   <trkpt lat="59.3101057711" lon="34.6759852708"><ele>164.672</ele><time>2026-08-16T16:23:18.136Z</time><hdop>3.0</hdop><vdop>2.5</vdop><extensions><gom:speed>1.111</gom:speed></extensions></trkpt>
   <trkpt lat="59.3101120994" lon="34.6759795711"><ele>164.577</ele><time>2026-08-16T16:23:18.785Z</time><hdop>3.0</hdop><vdop>2.5</vdop><extensions><gom:speed>1.106</gom:speed></extensions></trkpt>
   <trkpt lat="59.31011738" lon="34.6759747934"><ele>164.314</ele><time>2026-08-16T16:23:19.403Z</time><hdop>3.0</hdop><vdop>2.5</vdop><extensions><gom:speed>1.126</gom:speed></extensions></trkpt>
   <trkpt lat="59.3101220739" lon="34.6759688422"><ele>164.157</ele><time>2026-08-16T16:23:19.923Z</time><hdop>3.0</hdop><vdop>2.5</vdop><extensions><gom:speed>1.126</gom:speed></extensions></trkpt>
   <trkpt lat="59.3101272707" lon="34.6759625558"><ele>164.105</ele><time>2026-08-16T16:23:20.591Z</time><hdop>3.0</hdop><vdop>2.5</vdop><extensions><gom:speed>1.106</gom:speed></extensions></trkpt>
   <trkpt lat="59.3101316712" lon="34.6759572752"><ele>164.073</ele><time>2026-08-16T16:23:21.072Z</time><hdop>3.0</hdop><vdop>2.5</vdop><extensions><gom:speed>1.102</gom:speed></extensions></trkpt>
   <trkpt lat="59.3101376642" lon="34.6759515755"><ele>164.032</ele><time>2026-08-16T16:23:21.769Z</time><hdop>3.0</hdop><vdop>2.5</vdop><extensions><gom:speed>1.071</gom:speed></extensions></trkpt>
   <trkpt lat="59.3101478901" lon="34.6759418525"><ele>164.042</ele><time>2026-08-16T16:23:22.887Z</time><hdop>3.0</hdop><vdop>2.5</vdop><extensions><gom:speed>1.092</gom:speed></extensions></trkpt>
   <trkpt lat="59.3101519973" lon="34.6759393379"><ele>164.087</ele><time>2026-08-16T16:23:23.388Z</time><hdop>3.0</hdop><vdop>2.5</vdop><extensions><gom:speed>1.07</gom:speed></extensions></trkpt>
   <trkpt lat="59.3101584933" lon="34.6759350632"><ele>164.114</ele><time>2026-08-16T16:23:24.046Z</time><hdop>3.0</hdop><vdop>2.5</vdop><extensions><gom:speed>1.076</gom:speed></extensions></trkpt>
   <trkpt lat="59.3101633967" lon="34.6759308722"><ele>164.133</ele><time>2026-08-16T16:23:24.605Z</time><hdop>3.0</hdop><vdop>2.5</vdop><extensions><gom:speed>1.108</gom:speed></extensions></trkpt>
   <trkpt lat="59.3101675876" lon="34.6759265974"><ele>164.118</ele><time>2026-08-16T16:23:25.136Z</time><hdop>3.0</hdop><vdop>2.5</vdop><extensions><gom:speed>1.109</gom:speed></extensions></trkpt>
   <trkpt lat="59.3101723653" lon="34.6759214845"><ele>164.109</ele><time>2026-08-16T16:23:25.665Z</time><hdop>3.0</hdop><vdop>2.5</vdop><extensions><gom:speed>1.114</gom:speed></extensions></trkpt>
   <trkpt lat="59.3101760952" lon="34.6759182993"><ele>164.105</ele><time>2026-08-16T16:23:26.136Z</time><hdop>3.0</hdop><vdop>2.5</vdop><extensions><gom:speed>1.1</gom:speed></extensions></trkpt>
   <trkpt lat="59.310183178" lon="34.6759144437"><ele>164.103</ele><time>2026-08-16T16:23:26.872Z</time><hdop>3.0</hdop><vdop>2.5</vdop><extensions><gom:speed>1.143</gom:speed></extensions></trkpt>
   <trkpt lat="59.3101943678" lon="34.6759080734"><ele>164.108</ele><time>2026-08-16T16:23:28.030Z</time><hdop>3.0</hdop><vdop>2.5</vdop><extensions><gom:speed>1.135</gom:speed></extensions></trkpt>
   <trkpt lat="59.3102036717" lon="34.6759043854"><ele>163.997</ele><time>2026-08-16T16:23:29.136Z</time><hdop>3.0</hdop><vdop>2.5</vdop><extensions><gom:speed>1.12</gom:speed></extensions></trkpt>
   <trkpt lat="59.3102116764" lon="34.675899943"><ele>163.931</ele><time>2026-08-16T16:23:29.944Z</time><hdop>3.0</hdop><vdop>2.5</vdop><extensions><gom:speed>1.118</gom:speed></extensions></trkpt>
   <trkpt lat="59.3102165798" lon="34.6759019546"><ele>163.999</ele><time>2026-08-16T16:23:30.425Z</time><hdop>3.0</hdop><vdop>2.5</vdop><extensions><gom:speed>1.129</gom:speed></extensions></trkpt>
   <trkpt lat="59.3102241655" lon="34.6758992724"><ele>164.039</ele><time>2026-08-16T16:23:31.152Z</time><hdop>3.0</hdop><vdop>2.5</vdop><extensions><gom:speed>1.117</gom:speed></extensions></trkpt>
   <trkpt lat="59.3102295718" lon="34.675900865"><ele>164.071</ele><time>2026-08-16T16:23:31.633Z</time><hdop>3.0</hdop><vdop>2.5</vdop><extensions><gom:speed>1.116</gom:speed></extensions></trkpt>
   <trkpt lat="59.3102346848" lon="34.6759026252"><ele>164.192</ele><time>2026-08-16T16:23:32.136Z</time><hdop>3.0</hdop><vdop>2.5</vdop><extensions><gom:speed>1.086</gom:speed></extensions></trkpt>
   <trkpt lat="59.3102420608" lon="34.6759011164"><ele>164.265</ele><time>2026-08-16T16:23:32.830Z</time><hdop>3.0</hdop><vdop>2.5</vdop><extensions><gom:speed>1.134</gom:speed></extensions></trkpt>
   <trkpt lat="59.3102491854" lon="34.6759013679"><ele>164.356</ele><time>2026-08-16T16:23:33.488Z</time><hdop>3.0</hdop><vdop>2.5</vdop><extensions><gom:speed>1.146</gom:speed></extensions></trkpt>
   <trkpt lat="59.3102550947" lon="34.6758991886"><ele>164.41</ele><time>2026-08-16T16:23:34.008Z</time><hdop>3.0</hdop><vdop>2.5</vdop><extensions><gom:speed>1.145</gom:speed></extensions></trkpt>
   <trkpt lat="59.3102620936" lon="34.6758983504"><ele>164.435</ele><time>2026-08-16T16:23:34.685Z</time><hdop>3.0</hdop><vdop>2.5</vdop><extensions><gom:speed>1.144</gom:speed></extensions></trkpt>
   <trkpt lat="59.3102664941" lon="34.6758988533"><ele>164.588</ele><time>2026-08-16T16:23:35.136Z</time><hdop>3.0</hdop><vdop>2.5</vdop><extensions><gom:speed>1.122</gom:speed></extensions></trkpt>
   <trkpt lat="59.3102769715" lon="34.675900865"><ele>164.628</ele><time>2026-08-16T16:23:36.136Z</time><hdop>3.0</hdop><vdop>2.5</vdop><extensions><gom:speed>1.12</gom:speed></extensions></trkpt>
   <trkpt lat="59.3102883708" lon="34.6759006973"><ele>164.651</ele><time>2026-08-16T16:23:37.129Z</time><hdop>3.0</hdop><vdop>2.5</vdop><extensions><gom:speed>1.138</gom:speed></extensions></trkpt>
   <trkpt lat="59.3102986806" lon="34.6758993562"><ele>164.672</ele><time>2026-08-16T16:23:38.110Z</time><hdop>3.0</hdop><vdop>2.5</vdop><extensions><gom:speed>1.164</gom:speed></extensions></trkpt>
   <trkpt lat="59.3103038774" lon="34.6758982666"><ele>164.679</ele><time>2026-08-16T16:23:38.611Z</time><hdop>3.0</hdop><vdop>2.5</vdop><extensions><gom:speed>1.203</gom:speed></extensions></trkpt>
   <trkpt lat="59.3103090741" lon="34.6758976799"><ele>164.586</ele><time>2026-08-16T16:23:39.136Z</time><hdop>3.0</hdop><vdop>2.5</vdop><extensions><gom:speed>1.144</gom:speed></extensions></trkpt>
   <trkpt lat="59.3103159892" lon="34.6758972608"><ele>164.53</ele><time>2026-08-16T16:23:39.730Z</time><hdop>3.062</hdop><vdop>2.5</vdop><extensions><gom:speed>1.21</gom:speed></extensions></trkpt>
   <trkpt lat="59.3103284782" lon="34.6759060618"><ele>164.548</ele><time>2026-08-16T16:23:40.926Z</time><hdop>3.062</hdop><vdop>2.5</vdop><extensions><gom:speed>1.187</gom:speed></extensions></trkpt>
   <trkpt lat="59.3103346809" lon="34.6759109233"><ele>164.633</ele><time>2026-08-16T16:23:41.565Z</time><hdop>3.062</hdop><vdop>2.5</vdop><extensions><gom:speed>1.211</gom:speed></extensions></trkpt>
   <trkpt lat="59.3103404644" lon="34.6759108395"><ele>164.684</ele><time>2026-08-16T16:23:42.046Z</time><hdop>3.062</hdop><vdop>2.5</vdop><extensions><gom:speed>1.213</gom:speed></extensions></trkpt>
   <trkpt lat="59.3103471699" lon="34.675904553"><ele>164.762</ele><time>2026-08-16T16:23:42.704Z</time><hdop>3.062</hdop><vdop>2.5</vdop><extensions><gom:speed>1.188</gom:speed></extensions></trkpt>
   <trkpt lat="59.3103525762" lon="34.675899943"><ele>164.492</ele><time>2026-08-16T16:23:43.263Z</time><hdop>3.0</hdop><vdop>2.5</vdop><extensions><gom:speed>1.162</gom:speed></extensions></trkpt>
   <trkpt lat="59.3103594913" lon="34.6758982666"><ele>164.33</ele><time>2026-08-16T16:23:43.872Z</time><hdop>3.0</hdop><vdop>2.5</vdop><extensions><gom:speed>1.153</gom:speed></extensions></trkpt>
   <trkpt lat="59.3103649814" lon="34.6758989372"><ele>164.281</ele><time>2026-08-16T16:23:44.372Z</time><hdop>3.0</hdop><vdop>2.5</vdop><extensions><gom:speed>1.164</gom:speed></extensions></trkpt>
   <trkpt lat="59.3103728604" lon="34.6759010326"><ele>164.213</ele><time>2026-08-16T16:23:45.136Z</time><hdop>3.0</hdop><vdop>2.5</vdop><extensions><gom:speed>1.126</gom:speed></extensions></trkpt>
   <trkpt lat="59.3103779734" lon="34.6759011164"><ele>164.173</ele><time>2026-08-16T16:23:45.589Z</time><hdop>3.0</hdop><vdop>2.5</vdop><extensions><gom:speed>1.162</gom:speed></extensions></trkpt>
   <trkpt lat="59.3103831702" lon="34.675901787"><ele>164.16</ele><time>2026-08-16T16:23:46.136Z</time><hdop>3.0</hdop><vdop>2.5</vdop><extensions><gom:speed>1.116</gom:speed></extensions></trkpt>
   <trkpt lat="59.3103909653" lon="34.6759014517"><ele>164.153</ele><time>2026-08-16T16:23:46.806Z</time><hdop>3.0</hdop><vdop>2.5</vdop><extensions><gom:speed>1.168</gom:speed></extensions></trkpt>
   <trkpt lat="59.3103978804" lon="34.6759031281"><ele>164.243</ele><time>2026-08-16T16:23:47.533Z</time><hdop>3.0</hdop><vdop>2.5</vdop><extensions><gom:speed>1.168</gom:speed></extensions></trkpt>
   <trkpt lat="59.3104037896" lon="34.6759046368"><ele>164.297</ele><time>2026-08-16T16:23:48.053Z</time><hdop>3.0</hdop><vdop>2.5</vdop><extensions><gom:speed>1.171</gom:speed></extensions></trkpt>
   <trkpt lat="59.3104101599" lon="34.6759075705"><ele>164.288</ele><time>2026-08-16T16:23:48.709Z</time><hdop>3.0</hdop><vdop>2.5</vdop><extensions><gom:speed>1.183</gom:speed></extensions></trkpt>
   <trkpt lat="59.3104152729" lon="34.6759094983"><ele>164.237</ele><time>2026-08-16T16:23:49.270Z</time><hdop>3.0</hdop><vdop>2.5</vdop><extensions><gom:speed>1.169</gom:speed></extensions></trkpt>
   <trkpt lat="59.3104236967" lon="34.6759102527"><ele>164.207</ele><time>2026-08-16T16:23:49.986Z</time><hdop>3.0</hdop><vdop>2.5</vdop><extensions><gom:speed>1.201</gom:speed></extensions></trkpt>
   <trkpt lat="59.310428181" lon="34.6759110909"><ele>164.096</ele><time>2026-08-16T16:23:50.448Z</time><hdop>3.0</hdop><vdop>2.5</vdop><extensions><gom:speed>1.222</gom:speed></extensions></trkpt>
   <trkpt lat="59.3104349703" lon="34.6759129349"><ele>163.899</ele><time>2026-08-16T16:23:51.136Z</time><hdop>3.0</hdop><vdop>2.5</vdop><extensions><gom:speed>1.157</gom:speed></extensions></trkpt>
   <trkpt lat="59.3104408796" lon="34.6759139408"><ele>163.781</ele><time>2026-08-16T16:23:51.664Z</time><hdop>3.0</hdop><vdop>2.5</vdop><extensions><gom:speed>1.204</gom:speed></extensions></trkpt>
   <trkpt lat="59.3104452801" lon="34.6759157848"><ele>163.726</ele><time>2026-08-16T16:23:52.136Z</time><hdop>3.0</hdop><vdop>2.5</vdop><extensions><gom:speed>1.158</gom:speed></extensions></trkpt>
   <trkpt lat="59.3104538715" lon="34.6759183832"><ele>163.693</ele><time>2026-08-16T16:23:52.911Z</time><hdop>3.0</hdop><vdop>2.5</vdop><extensions><gom:speed>1.177</gom:speed></extensions></trkpt>
   <trkpt lat="59.3104657738" lon="34.6759218197"><ele>163.837</ele><time>2026-08-16T16:23:54.069Z</time><hdop>3.0</hdop><vdop>2.5</vdop><extensions><gom:speed>1.155</gom:speed></extensions></trkpt>
   <trkpt lat="59.3104731918" lon="34.6759258431"><ele>163.905</ele><time>2026-08-16T16:23:54.884Z</time><hdop>3.0</hdop><vdop>2.5</vdop><extensions><gom:speed>1.149</gom:speed></extensions></trkpt>
   <trkpt lat="59.3104769637" lon="34.6759330515"><ele>164.185</ele><time>2026-08-16T16:23:55.384Z</time><hdop>3.0</hdop><vdop>2.5</vdop><extensions><gom:speed>1.142</gom:speed></extensions></trkpt>
   <trkpt lat="59.3104821604" lon="34.6759446185"><ele>164.029</ele><time>2026-08-16T16:23:56.136Z</time><hdop>3.0</hdop><vdop>2.5</vdop><extensions><gom:speed>1.103</gom:speed></extensions></trkpt>
   <trkpt lat="59.3104898718" lon="34.6759563532"><ele>163.689</ele><time>2026-08-16T16:23:57.136Z</time><hdop>3.0</hdop><vdop>2.5</vdop><extensions><gom:speed>1.068</gom:speed></extensions></trkpt>
   <trkpt lat="59.3104954877" lon="34.675962472"><ele>163.485</ele><time>2026-08-16T16:23:57.770Z</time><hdop>3.0</hdop><vdop>2.5</vdop><extensions><gom:speed>1.072</gom:speed></extensions></trkpt>
   <trkpt lat="59.3105015645" lon="34.6759666629"><ele>162.948</ele><time>2026-08-16T16:23:58.565Z</time><hdop>3.0</hdop><vdop>2.5</vdop><extensions><gom:speed>1.065</gom:speed></extensions></trkpt>
   <trkpt lat="59.3105062584" lon="34.6759681717"><ele>162.516</ele><time>2026-08-16T16:23:59.136Z</time><hdop>3.0</hdop><vdop>2.5</vdop><extensions><gom:speed>1.062</gom:speed></extensions></trkpt>
   <trkpt lat="59.3105116647" lon="34.6759726979"><ele>162.257</ele><time>2026-08-16T16:23:59.752Z</time><hdop>3.0</hdop><vdop>2.5</vdop><extensions><gom:speed>1.075</gom:speed></extensions></trkpt>
   <trkpt lat="59.3105244891" lon="34.6759767212"><ele>161.878</ele><time>2026-08-16T16:24:01.136Z</time><hdop>3.0</hdop><vdop>2.5</vdop><extensions><gom:speed>1.112</gom:speed></extensions></trkpt>
   <trkpt lat="59.3105339606" lon="34.6759764698"><ele>161.406</ele><time>2026-08-16T16:24:02.136Z</time><hdop>3.0</hdop><vdop>2.5</vdop><extensions><gom:speed>1.102</gom:speed></extensions></trkpt>
   <trkpt lat="59.3105443961" lon="34.6759752963"><ele>160.909</ele><time>2026-08-16T16:24:03.136Z</time><hdop>3.0</hdop><vdop>2.5</vdop><extensions><gom:speed>1.067</gom:speed></extensions></trkpt>
   <trkpt lat="59.3105496767" lon="34.6759755477"><ele>160.613</ele><time>2026-08-16T16:24:03.609Z</time><hdop>3.0</hdop><vdop>2.5</vdop><extensions><gom:speed>1.117</gom:speed></extensions></trkpt>
   <trkpt lat="59.3105544963" lon="34.675974039"><ele>160.187</ele><time>2026-08-16T16:24:04.136Z</time><hdop>3.0</hdop><vdop>2.5</vdop><extensions><gom:speed>1.07</gom:speed></extensions></trkpt>
   <trkpt lat="59.3105611599" lon="34.6759744581"><ele>159.932</ele><time>2026-08-16T16:24:04.786Z</time><hdop>3.0</hdop><vdop>2.5</vdop><extensions><gom:speed>1.091</gom:speed></extensions></trkpt>
   <trkpt lat="59.310568997" lon="34.6759704348"><ele>159.631</ele><time>2026-08-16T16:24:05.504Z</time><hdop>3.0</hdop><vdop>2.5</vdop><extensions><gom:speed>1.079</gom:speed></extensions></trkpt>
   <trkpt lat="59.3105755768" lon="34.6759673335"><ele>159.426</ele><time>2026-08-16T16:24:06.136Z</time><hdop>3.0</hdop><vdop>2.5</vdop><extensions><gom:speed>1.046</gom:speed></extensions></trkpt>
   <trkpt lat="59.3105848807" lon="34.6759675849"><ele>159.304</ele><time>2026-08-16T16:24:07.025Z</time><hdop>3.0</hdop><vdop>2.5</vdop><extensions><gom:speed>1.09</gom:speed></extensions></trkpt>
   <trkpt lat="59.3105927597" lon="34.6759715244"><ele>159.119</ele><time>2026-08-16T16:24:07.830Z</time><hdop>3.0</hdop><vdop>2.5</vdop><extensions><gom:speed>1.071</gom:speed></extensions></trkpt>
   <trkpt lat="59.3106050811" lon="34.6759815827"><ele>158.904</ele><time>2026-08-16T16:24:09.136Z</time><hdop>3.0</hdop><vdop>2.5</vdop><extensions><gom:speed>1.07</gom:speed></extensions></trkpt>
   <trkpt lat="59.3106119961" lon="34.6759851869"><ele>158.777</ele><time>2026-08-16T16:24:09.832Z</time><hdop>3.0</hdop><vdop>2.5</vdop><extensions><gom:speed>1.095</gom:speed></extensions></trkpt>
   <trkpt lat="59.310620378" lon="34.6759877853"><ele>158.843</ele><time>2026-08-16T16:24:10.607Z</time><hdop>3.0</hdop><vdop>2.5</vdop><extensions><gom:speed>1.126</gom:speed></extensions></trkpt>
   <trkpt lat="59.3106259939" lon="34.6759885397"><ele>158.909</ele><time>2026-08-16T16:24:11.136Z</time><hdop>3.0</hdop><vdop>2.5</vdop><extensions><gom:speed>1.116</gom:speed></extensions></trkpt>
   <trkpt lat="59.3106323641" lon="34.6759877853"><ele>158.949</ele><time>2026-08-16T16:24:11.726Z</time><hdop>3.0</hdop><vdop>2.5</vdop><extensions><gom:speed>1.14</gom:speed></extensions></trkpt>
   <trkpt lat="59.3106440988" lon="34.6759871986"><ele>159.1</ele><time>2026-08-16T16:24:12.865Z</time><hdop>3.0</hdop><vdop>2.5</vdop><extensions><gom:speed>1.109</gom:speed></extensions></trkpt>
   <trkpt lat="59.3106502595" lon="34.6759836782"><ele>159.279</ele><time>2026-08-16T16:24:13.532Z</time><hdop>3.0</hdop><vdop>2.5</vdop><extensions><gom:speed>1.097</gom:speed></extensions></trkpt>
   <trkpt lat="59.3106554982" lon="34.6759801578"><ele>159.387</ele><time>2026-08-16T16:24:14.052Z</time><hdop>3.0</hdop><vdop>2.5</vdop><extensions><gom:speed>1.095</gom:speed></extensions></trkpt>
   <trkpt lat="59.310662078" lon="34.675977727"><ele>159.419</ele><time>2026-08-16T16:24:14.690Z</time><hdop>3.0</hdop><vdop>2.5</vdop><extensions><gom:speed>1.106</gom:speed></extensions></trkpt>
   <trkpt lat="59.3106676939" lon="34.6759772241"><ele>159.404</ele><time>2026-08-16T16:24:15.230Z</time><hdop>3.0</hdop><vdop>2.5</vdop><extensions><gom:speed>1.096</gom:speed></extensions></trkpt>
   <trkpt lat="59.3106748604" lon="34.675974961"><ele>159.394</ele><time>2026-08-16T16:24:15.907Z</time><hdop>3.0</hdop><vdop>2.5</vdop><extensions><gom:speed>1.116</gom:speed></extensions></trkpt>
   <trkpt lat="59.3106804763" lon="34.6759747934"><ele>159.432</ele><time>2026-08-16T16:24:16.428Z</time><hdop>3.0</hdop><vdop>2.5</vdop><extensions><gom:speed>1.149</gom:speed></extensions></trkpt>
   <trkpt lat="59.3106877685" lon="34.675973117"><ele>159.454</ele><time>2026-08-16T16:24:17.065Z</time><hdop>3.0</hdop><vdop>2.5</vdop><extensions><gom:speed>1.15</gom:speed></extensions></trkpt>
   <trkpt lat="59.310693594" lon="34.6759737875"><ele>159.517</ele><time>2026-08-16T16:24:17.566Z</time><hdop>3.0</hdop><vdop>2.5</vdop><extensions><gom:speed>1.171</gom:speed></extensions></trkpt>
   <trkpt lat="59.3106998804" lon="34.6759738714"><ele>159.663</ele><time>2026-08-16T16:24:18.136Z</time><hdop>3.0</hdop><vdop>2.5</vdop><extensions><gom:speed>1.143</gom:speed></extensions></trkpt>
   <trkpt lat="59.3107069631" lon="34.6759734523"><ele>159.75</ele><time>2026-08-16T16:24:18.763Z</time><hdop>3.0</hdop><vdop>2.5</vdop><extensions><gom:speed>1.165</gom:speed></extensions></trkpt>
   <trkpt lat="59.3107189911" lon="34.6759739552"><ele>159.702</ele><time>2026-08-16T16:24:19.823Z</time><hdop>3.0</hdop><vdop>2.5</vdop><extensions><gom:speed>1.157</gom:speed></extensions></trkpt>
   <trkpt lat="59.3107314802" lon="34.67596616"><ele>159.606</ele><time>2026-08-16T16:24:20.991Z</time><hdop>3.0</hdop><vdop>2.5</vdop><extensions><gom:speed>1.176</gom:speed></extensions></trkpt>
   <trkpt lat="59.310743592" lon="34.6759560179"><ele>159.774</ele><time>2026-08-16T16:24:22.136Z</time><hdop>3.0</hdop><vdop>2.5</vdop><extensions><gom:speed>1.166</gom:speed></extensions></trkpt>
   <trkpt lat="59.310755159" lon="34.6759558503"><ele>159.95</ele><time>2026-08-16T16:24:23.136Z</time><hdop>3.0</hdop><vdop>2.5</vdop><extensions><gom:speed>1.166</gom:speed></extensions></trkpt>
   <trkpt lat="59.3107654688" lon="34.6759535872"><ele>160.056</ele><time>2026-08-16T16:24:23.967Z</time><hdop>3.0</hdop><vdop>2.5</vdop><extensions><gom:speed>1.209</gom:speed></extensions></trkpt>
   <trkpt lat="59.310771378" lon="34.6759546768"><ele>160.094</ele><time>2026-08-16T16:24:24.447Z</time><hdop>3.0</hdop><vdop>2.5</vdop><extensions><gom:speed>1.214</gom:speed></extensions></trkpt>
   <trkpt lat="59.3107793827" lon="34.6759514917"><ele>160.116</ele><time>2026-08-16T16:24:25.125Z</time><hdop>3.0</hdop><vdop>2.5</vdop><extensions><gom:speed>1.213</gom:speed></extensions></trkpt>
   <trkpt lat="59.31078437" lon="34.6759525813"><ele>160.21</ele><time>2026-08-16T16:24:25.586Z</time><hdop>3.0</hdop><vdop>2.5</vdop><extensions><gom:speed>1.218</gom:speed></extensions></trkpt>
   <trkpt lat="59.3107899858" lon="34.6759535872"><ele>160.306</ele><time>2026-08-16T16:24:26.136Z</time><hdop>3.0</hdop><vdop>2.5</vdop><extensions><gom:speed>1.18</gom:speed></extensions></trkpt>
   <trkpt lat="59.3107972781" lon="34.6759540901"><ele>160.364</ele><time>2026-08-16T16:24:26.783Z</time><hdop>3.0</hdop><vdop>2.5</vdop><extensions><gom:speed>1.214</gom:speed></extensions></trkpt>
   <trkpt lat="59.310805199" lon="34.6759578619"><ele>160.544</ele><time>2026-08-16T16:24:27.470Z</time><hdop>3.0</hdop><vdop>2.5</vdop><extensions><gom:speed>1.205</gom:speed></extensions></trkpt>
   <trkpt lat="59.3108110663" lon="34.6759584487"><ele>160.652</ele><time>2026-08-16T16:24:27.991Z</time><hdop>3.0</hdop><vdop>2.5</vdop><extensions><gom:speed>1.201</gom:speed></extensions></trkpt>
   <trkpt lat="59.3108236811" lon="34.6759627234"><ele>160.827</ele><time>2026-08-16T16:24:29.136Z</time><hdop>3.0</hdop><vdop>2.5</vdop><extensions><gom:speed>1.183</gom:speed></extensions></trkpt>
   <trkpt lat="59.3108315601" lon="34.6759647351"><ele>160.932</ele><time>2026-08-16T16:24:29.806Z</time><hdop>3.0</hdop><vdop>2.5</vdop><extensions><gom:speed>1.172</gom:speed></extensions></trkpt>
   <trkpt lat="59.3108365892" lon="34.6759672497"><ele>161.101</ele><time>2026-08-16T16:24:30.307Z</time><hdop>3.0</hdop><vdop>2.5</vdop><extensions><gom:speed>1.146</gom:speed></extensions></trkpt>
   <trkpt lat="59.3108446778" lon="34.6759692613"><ele>161.203</ele><time>2026-08-16T16:24:30.984Z</time><hdop>3.0</hdop><vdop>2.5</vdop><extensions><gom:speed>1.191</gom:speed></extensions></trkpt>
   <trkpt lat="59.3108500841" lon="34.6759705186"><ele>161.382</ele><time>2026-08-16T16:24:31.465Z</time><hdop>3.0</hdop><vdop>2.5</vdop><extensions><gom:speed>1.202</gom:speed></extensions></trkpt>
   <trkpt lat="59.3108569992" lon="34.675971273"><ele>161.567</ele><time>2026-08-16T16:24:32.136Z</time><hdop>3.0</hdop><vdop>2.5</vdop><extensions><gom:speed>1.17</gom:speed></extensions></trkpt>
   <trkpt lat="59.3108626988" lon="34.6759704348"><ele>161.678</ele><time>2026-08-16T16:24:32.653Z</time><hdop>3.0</hdop><vdop>2.5</vdop><extensions><gom:speed>1.19</gom:speed></extensions></trkpt>
   <trkpt lat="59.3108674765" lon="34.6759702671"><ele>161.658</ele><time>2026-08-16T16:24:33.136Z</time><hdop>3.0</hdop><vdop>2.5</vdop><extensions><gom:speed>1.149</gom:speed></extensions></trkpt>
   <trkpt lat="59.3108754812" lon="34.6759711892"><ele>161.646</ele><time>2026-08-16T16:24:33.811Z</time><hdop>3.0</hdop><vdop>2.5</vdop><extensions><gom:speed>1.187</gom:speed></extensions></trkpt>
   <trkpt lat="59.3108822706" lon="34.6759736199"><ele>161.581</ele><time>2026-08-16T16:24:34.567Z</time><hdop>3.0</hdop><vdop>2.5</vdop><extensions><gom:speed>1.192</gom:speed></extensions></trkpt>
   <trkpt lat="59.3108879703" lon="34.6759750448"><ele>161.542</ele><time>2026-08-16T16:24:35.067Z</time><hdop>3.0</hdop><vdop>2.5</vdop><extensions><gom:speed>1.185</gom:speed></extensions></trkpt>
   <trkpt lat="59.3108941729" lon="34.6759725303"><ele>161.373</ele><time>2026-08-16T16:24:35.705Z</time><hdop>3.0</hdop><vdop>2.5</vdop><extensions><gom:speed>1.18</gom:speed></extensions></trkpt>
   <trkpt lat="59.3108981962" lon="34.6759698481"><ele>161.294</ele><time>2026-08-16T16:24:36.186Z</time><hdop>3.0</hdop><vdop>2.5</vdop><extensions><gom:speed>1.141</gom:speed></extensions></trkpt>
   <trkpt lat="59.3109072906" lon="34.6759681717"><ele>161.235</ele><time>2026-08-16T16:24:37.136Z</time><hdop>3.0</hdop><vdop>2.5</vdop><extensions><gom:speed>1.093</gom:speed></extensions></trkpt>
   <trkpt lat="59.3109171812" lon="34.6759691775"><ele>161.2</ele><time>2026-08-16T16:24:38.069Z</time><hdop>3.0</hdop><vdop>2.5</vdop><extensions><gom:speed>1.097</gom:speed></extensions></trkpt>
   <trkpt lat="59.3109218751" lon="34.6759683393"><ele>161.074</ele><time>2026-08-16T16:24:38.591Z</time><hdop>3.0</hdop><vdop>2.5</vdop><extensions><gom:speed>1.061</gom:speed></extensions></trkpt>
   <trkpt lat="59.310927491" lon="34.675967082"><ele>161.0</ele><time>2026-08-16T16:24:39.130Z</time><hdop>3.0</hdop><vdop>2.5</vdop><extensions><gom:speed>1.059</gom:speed></extensions></trkpt>
   <trkpt lat="59.3109323944" lon="34.6759649865"><ele>160.897</ele><time>2026-08-16T16:24:39.690Z</time><hdop>3.0</hdop><vdop>2.5</vdop><extensions><gom:speed>1.018</gom:speed></extensions></trkpt>
   <trkpt lat="59.3109384713" lon="34.6759627234"><ele>160.832</ele><time>2026-08-16T16:24:40.347Z</time><hdop>3.0</hdop><vdop>2.5</vdop><extensions><gom:speed>1.026</gom:speed></extensions></trkpt>
   <trkpt lat="59.3109434585" lon="34.67596155"><ele>160.793</ele><time>2026-08-16T16:24:40.848Z</time><hdop>3.0</hdop><vdop>2.5</vdop><extensions><gom:speed>1.016</gom:speed></extensions></trkpt>
   <trkpt lat="59.3109551931" lon="34.6759587839"><ele>160.774</ele><time>2026-08-16T16:24:42.006Z</time><hdop>3.0</hdop><vdop>2.5</vdop><extensions><gom:speed>0.994</gom:speed></extensions></trkpt>
   <trkpt lat="59.3109658801" lon="34.675957359"><ele>160.686</ele><time>2026-08-16T16:24:43.125Z</time><hdop>3.0</hdop><vdop>2.5</vdop><extensions><gom:speed>0.943</gom:speed></extensions></trkpt>
   <trkpt lat="59.3109775728" lon="34.6759567723"><ele>160.714</ele><time>2026-08-16T16:24:44.136Z</time><hdop>3.0</hdop><vdop>2.5</vdop><extensions><gom:speed>1.041</gom:speed></extensions></trkpt>
   <trkpt lat="59.3109869606" lon="34.6759562694"><ele>160.731</ele><time>2026-08-16T16:24:44.931Z</time><hdop>3.0</hdop><vdop>2.5</vdop><extensions><gom:speed>1.066</gom:speed></extensions></trkpt>
   <trkpt lat="59.3109934984" lon="34.6759571914"><ele>160.739</ele><time>2026-08-16T16:24:45.471Z</time><hdop>3.0</hdop><vdop>2.5</vdop><extensions><gom:speed>1.061</gom:speed></extensions></trkpt>
   <trkpt lat="59.3110007907" lon="34.6759584487"><ele>160.517</ele><time>2026-08-16T16:24:46.136Z</time><hdop>3.0</hdop><vdop>2.5</vdop><extensions><gom:speed>1.057</gom:speed></extensions></trkpt>
   <trkpt lat="59.3110118967" lon="34.6759610471"><ele>160.377</ele><time>2026-08-16T16:24:47.136Z</time><hdop>3.0</hdop><vdop>2.5</vdop><extensions><gom:speed>1.047</gom:speed></extensions></trkpt>
   <trkpt lat="59.3110183927" lon="34.6759642322"><ele>160.294</ele><time>2026-08-16T16:24:47.828Z</time><hdop>3.0</hdop><vdop>2.5</vdop><extensions><gom:speed>0.964</gom:speed></extensions></trkpt>
   <trkpt lat="59.311023799" lon="34.6759672497"><ele>160.403</ele><time>2026-08-16T16:24:48.426Z</time><hdop>3.0</hdop><vdop>2.5</vdop><extensions><gom:speed>0.941</gom:speed></extensions></trkpt>
   <trkpt lat="59.3110297921" lon="34.6759692613"><ele>160.468</ele><time>2026-08-16T16:24:49.084Z</time><hdop>3.0</hdop><vdop>2.5</vdop><extensions><gom:speed>0.938</gom:speed></extensions></trkpt>
   <trkpt lat="59.311035869" lon="34.6759700995"><ele>160.598</ele><time>2026-08-16T16:24:49.603Z</time><hdop>3.0</hdop><vdop>2.5</vdop><extensions><gom:speed>0.969</gom:speed></extensions></trkpt>
   <trkpt lat="59.3110421973" lon="34.6759705186"><ele>160.7</ele><time>2026-08-16T16:24:50.136Z</time><hdop>3.0</hdop><vdop>2.5</vdop><extensions><gom:speed>1.012</gom:speed></extensions></trkpt>
   <trkpt lat="59.3110484837" lon="34.6759715244"><ele>160.76</ele><time>2026-08-16T16:24:50.704Z</time><hdop>3.0</hdop><vdop>2.5</vdop><extensions><gom:speed>0.994</gom:speed></extensions></trkpt>
   <trkpt lat="59.3110553988" lon="34.6759720273"><ele>160.685</ele><time>2026-08-16T16:24:51.284Z</time><hdop>3.0</hdop><vdop>2.5</vdop><extensions><gom:speed>1.012</gom:speed></extensions></trkpt>
   <trkpt lat="59.3110642836" lon="34.6759702671"><ele>160.777</ele><time>2026-08-16T16:24:52.136Z</time><hdop>3.0</hdop><vdop>2.5</vdop><extensions><gom:speed>1.038</gom:speed></extensions></trkpt>
   <trkpt lat="59.3110748867" lon="34.675965238"><ele>160.777</ele><time>2026-08-16T16:24:53.136Z</time><hdop>3.0</hdop><vdop>2.5</vdop><extensions><gom:speed>1.113</gom:speed></extensions></trkpt>
   <trkpt lat="59.3110800835" lon="34.6759660762"><ele>160.776</ele><time>2026-08-16T16:24:53.610Z</time><hdop>3.0</hdop><vdop>2.5</vdop><extensions><gom:speed>1.076</gom:speed></extensions></trkpt>
   <trkpt lat="59.3110854898" lon="34.675967082"><ele>160.64</ele><time>2026-08-16T16:24:54.136Z</time><hdop>3.0</hdop><vdop>2.5</vdop><extensions><gom:speed>1.074</gom:speed></extensions></trkpt>
   <trkpt lat="59.3110926983" lon="34.6759678364"><ele>160.559</ele><time>2026-08-16T16:24:54.807Z</time><hdop>3.0</hdop><vdop>2.5</vdop><extensions><gom:speed>1.065</gom:speed></extensions></trkpt>
   <trkpt lat="59.3110999905" lon="34.6759700995"><ele>160.461</ele><time>2026-08-16T16:24:55.504Z</time><hdop>3.0</hdop><vdop>2.5</vdop><extensions><gom:speed>1.091</gom:speed></extensions></trkpt>
   <trkpt lat="59.3111052711" lon="34.6759708539"><ele>160.402</ele><time>2026-08-16T16:24:55.985Z</time><hdop>3.0</hdop><vdop>2.5</vdop><extensions><gom:speed>1.092</gom:speed></extensions></trkpt>
   <trkpt lat="59.311116461" lon="34.6759723626"><ele>160.4</ele><time>2026-08-16T16:24:57.045Z</time><hdop>3.0</hdop><vdop>2.5</vdop><extensions><gom:speed>1.119</gom:speed></extensions></trkpt>
   <trkpt lat="59.3111280699" lon="34.6759768888"><ele>160.658</ele><time>2026-08-16T16:24:58.136Z</time><hdop>3.0</hdop><vdop>2.5</vdop><extensions><gom:speed>1.116</gom:speed></extensions></trkpt>
   <trkpt lat="59.3111389664" lon="34.6759790681"><ele>160.686</ele><time>2026-08-16T16:24:59.136Z</time><hdop>3.0</hdop><vdop>2.5</vdop><extensions><gom:speed>1.125</gom:speed></extensions></trkpt>
   <trkpt lat="59.3111493599" lon="34.6759775594"><ele>160.702</ele><time>2026-08-16T16:25:00.010Z</time><hdop>3.0</hdop><vdop>2.5</vdop><extensions><gom:speed>1.146</gom:speed></extensions></trkpt>
   <trkpt lat="59.3111557721" lon="34.6759792358"><ele>160.645</ele><time>2026-08-16T16:25:00.530Z</time><hdop>3.0</hdop><vdop>2.5</vdop><extensions><gom:speed>1.176</gom:speed></extensions></trkpt>
   <trkpt lat="59.3111621842" lon="34.6759826724"><ele>160.643</ele><time>2026-08-16T16:25:01.136Z</time><hdop>3.0</hdop><vdop>2.5</vdop><extensions><gom:speed>1.179</gom:speed></extensions></trkpt>
   <trkpt lat="59.3111736675" lon="34.6759900484"><ele>160.594</ele><time>2026-08-16T16:25:02.136Z</time><hdop>3.0</hdop><vdop>2.5</vdop><extensions><gom:speed>1.241</gom:speed></extensions></trkpt>
   <trkpt lat="59.3111805825" lon="34.6760030404"><ele>160.565</ele><time>2026-08-16T16:25:02.866Z</time><hdop>3.0</hdop><vdop>2.5</vdop><extensions><gom:speed>1.25</gom:speed></extensions></trkpt>
   <trkpt lat="59.3111933649" lon="34.6760032918"><ele>160.541</ele><time>2026-08-16T16:25:03.926Z</time><hdop>3.0</hdop><vdop>2.5</vdop><extensions><gom:speed>1.235</gom:speed></extensions></trkpt>
   <trkpt lat="59.3112013696" lon="34.6759997714"><ele>160.462</ele><time>2026-08-16T16:25:04.633Z</time><hdop>3.0</hdop><vdop>2.5</vdop><extensions><gom:speed>1.218</gom:speed></extensions></trkpt>
   <trkpt lat="59.3112070693" lon="34.67599952"><ele>160.415</ele><time>2026-08-16T16:25:05.104Z</time><hdop>3.0</hdop><vdop>2.5</vdop><extensions><gom:speed>1.221</gom:speed></extensions></trkpt>
   <trkpt lat="59.3112176724" lon="34.6759939879"><ele>160.425</ele><time>2026-08-16T16:25:06.136Z</time><hdop>3.0</hdop><vdop>2.5</vdop><extensions><gom:speed>1.144</gom:speed></extensions></trkpt>
   <trkpt lat="59.311226683" lon="34.6759875339"><ele>160.43</ele><time>2026-08-16T16:25:06.948Z</time><hdop>3.0</hdop><vdop>2.5</vdop><extensions><gom:speed>1.162</gom:speed></extensions></trkpt>
   <trkpt lat="59.3112314607" lon="34.67598284"><ele>160.466</ele><time>2026-08-16T16:25:07.410Z</time><hdop>3.0</hdop><vdop>2.5</vdop><extensions><gom:speed>1.184</gom:speed></extensions></trkpt>
   <trkpt lat="59.3112390882" lon="34.6759783976"><ele>160.548</ele><time>2026-08-16T16:25:08.136Z</time><hdop>3.0</hdop><vdop>2.5</vdop><extensions><gom:speed>1.179</gom:speed></extensions></trkpt>
   <trkpt lat="59.3112496913" lon="34.6759752963"><ele>160.609</ele><time>2026-08-16T16:25:09.136Z</time><hdop>3.0</hdop><vdop>2.5</vdop><extensions><gom:speed>1.114</gom:speed></extensions></trkpt>
   <trkpt lat="59.3112554748" lon="34.6759724464"><ele>160.645</ele><time>2026-08-16T16:25:09.706Z</time><hdop>3.0</hdop><vdop>2.5</vdop><extensions><gom:speed>1.051</gom:speed></extensions></trkpt>
   <trkpt lat="59.3112611745" lon="34.6759717759"><ele>160.634</ele><time>2026-08-16T16:25:10.345Z</time><hdop>3.0</hdop><vdop>2.5</vdop><extensions><gom:speed>1.023</gom:speed></extensions></trkpt>
   <trkpt lat="59.3112670838" lon="34.6759690937"><ele>160.627</ele><time>2026-08-16T16:25:10.944Z</time><hdop>3.0</hdop><vdop>2.5</vdop><extensions><gom:speed>1.008</gom:speed></extensions></trkpt>
   <trkpt lat="59.3112717776" lon="34.6759716921"><ele>160.703</ele><time>2026-08-16T16:25:11.405Z</time><hdop>3.0</hdop><vdop>2.5</vdop><extensions><gom:speed>1.039</gom:speed></extensions></trkpt>
   <trkpt lat="59.3112793633" lon="34.6759733685"><ele>160.747</ele><time>2026-08-16T16:25:12.111Z</time><hdop>3.0</hdop><vdop>2.5</vdop><extensions><gom:speed>1.039</gom:speed></extensions></trkpt>
   <trkpt lat="59.3112865717" lon="34.6759759668"><ele>160.736</ele><time>2026-08-16T16:25:12.750Z</time><hdop>3.0</hdop><vdop>2.5</vdop><extensions><gom:speed>1.1</gom:speed></extensions></trkpt>
   <trkpt lat="59.3112913913" lon="34.6759781461"><ele>160.639</ele><time>2026-08-16T16:25:13.211Z</time><hdop>3.0</hdop><vdop>2.5</vdop><extensions><gom:speed>1.096</gom:speed></extensions></trkpt>
   <trkpt lat="59.3113008628" lon="34.6759813313"><ele>160.413</ele><time>2026-08-16T16:25:14.136Z</time><hdop>3.0</hdop><vdop>2.5</vdop><extensions><gom:speed>1.084</gom:speed></extensions></trkpt>
   <trkpt lat="59.3113117593" lon="34.6759825885"><ele>160.181</ele><time>2026-08-16T16:25:15.136Z</time><hdop>3.0</hdop><vdop>2.5</vdop><extensions><gom:speed>1.092</gom:speed></extensions></trkpt>
   <trkpt lat="59.3113229911" lon="34.6759821694"><ele>160.043</ele><time>2026-08-16T16:25:16.126Z</time><hdop>3.0</hdop><vdop>2.5</vdop><extensions><gom:speed>1.108</gom:speed></extensions></trkpt>
   <trkpt lat="59.3113291937" lon="34.6759836782"><ele>159.967</ele><time>2026-08-16T16:25:16.626Z</time><hdop>3.0</hdop><vdop>2.5</vdop><extensions><gom:speed>1.129</gom:speed></extensions></trkpt>
   <trkpt lat="59.3113354801" lon="34.6759851869"><ele>159.927</ele><time>2026-08-16T16:25:17.136Z</time><hdop>3.0</hdop><vdop>2.5</vdop><extensions><gom:speed>1.158</gom:speed></extensions></trkpt>
   <trkpt lat="59.3113417665" lon="34.6759862766"><ele>159.902</ele><time>2026-08-16T16:25:17.667Z</time><hdop>3.0</hdop><vdop>2.5</vdop><extensions><gom:speed>1.163</gom:speed></extensions></trkpt>
   <trkpt lat="59.3113476758" lon="34.6759869471"><ele>160.073</ele><time>2026-08-16T16:25:18.136Z</time><hdop>3.0</hdop><vdop>2.5</vdop><extensions><gom:speed>1.179</gom:speed></extensions></trkpt>
   <trkpt lat="59.3113562672" lon="34.6759880368"><ele>160.176</ele><time>2026-08-16T16:25:18.825Z</time><hdop>3.0</hdop><vdop>2.5</vdop><extensions><gom:speed>1.16</gom:speed></extensions></trkpt>
   <trkpt lat="59.3113622603" lon="34.6759862766"><ele>160.241</ele><time>2026-08-16T16:25:19.286Z</time><hdop>3.0</hdop><vdop>2.5</vdop><extensions><gom:speed>1.179</gom:speed></extensions></trkpt>
   <trkpt lat="59.3113712708" lon="34.6759834267"><ele>160.28</ele><time>2026-08-16T16:25:20.052Z</time><hdop>3.062</hdop><vdop>2.5</vdop><extensions><gom:speed>1.168</gom:speed></extensions></trkpt>
   <trkpt lat="59.3113786888" lon="34.6759788167"><ele>160.276</ele><time>2026-08-16T16:25:20.651Z</time><hdop>3.062</hdop><vdop>2.5</vdop><extensions><gom:speed>1.188</gom:speed></extensions></trkpt>
   <trkpt lat="59.3113843885" lon="34.6759754639"><ele>160.126</ele><time>2026-08-16T16:25:21.136Z</time><hdop>3.062</hdop><vdop>2.5</vdop><extensions><gom:speed>1.189</gom:speed></extensions></trkpt>
   <trkpt lat="59.31139298" lon="34.6759711892"><ele>160.037</ele><time>2026-08-16T16:25:21.848Z</time><hdop>3.062</hdop><vdop>2.5</vdop><extensions><gom:speed>1.187</gom:speed></extensions></trkpt>
   <trkpt lat="59.3113984701" lon="34.6759676688"><ele>160.121</ele><time>2026-08-16T16:25:22.368Z</time><hdop>3.0</hdop><vdop>2.5</vdop><extensions><gom:speed>1.161</gom:speed></extensions></trkpt>
   <trkpt lat="59.3114053852" lon="34.6759640645"><ele>160.171</ele><time>2026-08-16T16:25:23.006Z</time><hdop>3.062</hdop><vdop>2.5</vdop><extensions><gom:speed>1.163</gom:speed></extensions></trkpt>
   <trkpt lat="59.3114107915" lon="34.6759616338"><ele>160.435</ele><time>2026-08-16T16:25:23.507Z</time><hdop>3.062</hdop><vdop>2.5</vdop><extensions><gom:speed>1.142</gom:speed></extensions></trkpt>
   <trkpt lat="59.3114180838" lon="34.6759595383"><ele>160.593</ele><time>2026-08-16T16:25:24.145Z</time><hdop>3.0</hdop><vdop>2.5</vdop><extensions><gom:speed>1.145</gom:speed></extensions></trkpt>
   <trkpt lat="59.3114233644" lon="34.6759594545"><ele>160.663</ele><time>2026-08-16T16:25:24.606Z</time><hdop>3.0</hdop><vdop>2.5</vdop><extensions><gom:speed>1.153</gom:speed></extensions></trkpt>
   <trkpt lat="59.3114287707" lon="34.6759619691"><ele>160.724</ele><time>2026-08-16T16:25:25.136Z</time><hdop>3.0</hdop><vdop>2.5</vdop><extensions><gom:speed>1.167</gom:speed></extensions></trkpt>
   <trkpt lat="59.3114360629" lon="34.6759665791"><ele>160.761</ele><time>2026-08-16T16:25:25.744Z</time><hdop>3.0</hdop><vdop>2.5</vdop><extensions><gom:speed>1.205</gom:speed></extensions></trkpt>
   <trkpt lat="59.3114474623" lon="34.6759783976"><ele>161.011</ele><time>2026-08-16T16:25:26.863Z</time><hdop>3.0</hdop><vdop>2.5</vdop><extensions><gom:speed>1.188</gom:speed></extensions></trkpt>
   <trkpt lat="59.3114552994" lon="34.6759840973"><ele>161.135</ele><time>2026-08-16T16:25:27.609Z</time><hdop>3.0</hdop><vdop>2.5</vdop><extensions><gom:speed>1.212</gom:speed></extensions></trkpt>
   <trkpt lat="59.3114604962" lon="34.6759878691"><ele>161.21</ele><time>2026-08-16T16:25:28.070Z</time><hdop>3.0</hdop><vdop>2.5</vdop><extensions><gom:speed>1.205</gom:speed></extensions></trkpt>
   <trkpt lat="59.3114680818" lon="34.6759869471"><ele>161.159</ele><time>2026-08-16T16:25:28.708Z</time><hdop>3.0</hdop><vdop>2.5</vdop><extensions><gom:speed>1.226</gom:speed></extensions></trkpt>
   <trkpt lat="59.3114745778" lon="34.6759830915"><ele>161.237</ele><time>2026-08-16T16:25:29.189Z</time><hdop>3.0</hdop><vdop>2.5</vdop><extensions><gom:speed>1.225</gom:speed></extensions></trkpt>
   <trkpt lat="59.3114815767" lon="34.6759827562"><ele>161.284</ele><time>2026-08-16T16:25:29.768Z</time><hdop>3.0</hdop><vdop>2.5</vdop><extensions><gom:speed>1.227</gom:speed></extensions></trkpt>
   <trkpt lat="59.3114872764" lon="34.6759810798"><ele>161.339</ele><time>2026-08-16T16:25:30.230Z</time><hdop>3.0</hdop><vdop>2.5</vdop><extensions><gom:speed>1.212</gom:speed></extensions></trkpt>
   <trkpt lat="59.3114950715" lon="34.6759823371"><ele>161.372</ele><time>2026-08-16T16:25:30.907Z</time><hdop>3.0</hdop><vdop>2.5</vdop><extensions><gom:speed>1.209</gom:speed></extensions></trkpt>
   <trkpt lat="59.3115002683" lon="34.6759796549"><ele>161.558</ele><time>2026-08-16T16:25:31.368Z</time><hdop>3.0</hdop><vdop>2.5</vdop><extensions><gom:speed>1.194</gom:speed></extensions></trkpt>
   <trkpt lat="59.311508273" lon="34.6759780623"><ele>161.669</ele><time>2026-08-16T16:25:32.026Z</time><hdop>3.0</hdop><vdop>2.5</vdop><extensions><gom:speed>1.237</gom:speed></extensions></trkpt>
   <trkpt lat="59.3115141823" lon="34.6759726979"><ele>161.666</ele><time>2026-08-16T16:25:32.507Z</time><hdop>3.0</hdop><vdop>2.5</vdop><extensions><gom:speed>1.265</gom:speed></extensions></trkpt>
   <trkpt lat="59.3115202592" lon="34.6759667467"><ele>161.665</ele><time>2026-08-16T16:25:33.047Z</time><hdop>3.0</hdop><vdop>2.5</vdop><extensions><gom:speed>1.263</gom:speed></extensions></trkpt>
   <trkpt lat="59.3115238634" lon="34.6759508211"><ele>161.476</ele><time>2026-08-16T16:25:33.645Z</time><hdop>3.0</hdop><vdop>2.5</vdop><extensions><gom:speed>1.23</gom:speed></extensions></trkpt>
   <trkpt lat="59.3115245758" lon="34.6759380806"><ele>161.363</ele><time>2026-08-16T16:25:34.146Z</time><hdop>3.0</hdop><vdop>2.5</vdop><extensions><gom:speed>1.226</gom:speed></extensions></trkpt>
   <trkpt lat="59.3115242825" lon="34.6759163715"><ele>161.23</ele><time>2026-08-16T16:25:34.764Z</time><hdop>3.0</hdop><vdop>2.5</vdop><extensions><gom:speed>1.335</gom:speed></extensions></trkpt>
   <trkpt lat="59.3115257912" lon="34.6759026252"><ele>161.315</ele><time>2026-08-16T16:25:35.265Z</time><hdop>3.0</hdop><vdop>2.5</vdop><extensions><gom:speed>1.3</gom:speed></extensions></trkpt>
   <trkpt lat="59.3115252883" lon="34.6758876216"><ele>161.366</ele><time>2026-08-16T16:25:35.863Z</time><hdop>3.0</hdop><vdop>2.5</vdop><extensions><gom:speed>1.23</gom:speed></extensions></trkpt>
   <trkpt lat="59.3115290601" lon="34.6758824248"><ele>161.462</ele><time>2026-08-16T16:25:36.472Z</time><hdop>3.0</hdop><vdop>2.5</vdop><extensions><gom:speed>1.179</gom:speed></extensions></trkpt>
   <trkpt lat="59.3115290601" lon="34.675870774"><ele>161.52</ele><time>2026-08-16T16:25:37.071Z</time><hdop>3.0</hdop><vdop>2.5</vdop><extensions><gom:speed>1.167</gom:speed></extensions></trkpt>
   <trkpt lat="59.3115347598" lon="34.6758689299"><ele>161.396</ele><time>2026-08-16T16:25:37.630Z</time><hdop>3.0</hdop><vdop>2.5</vdop><extensions><gom:speed>1.132</gom:speed></extensions></trkpt>
   <trkpt lat="59.3115402919" lon="34.6758676727"><ele>161.123</ele><time>2026-08-16T16:25:38.136Z</time><hdop>3.0</hdop><vdop>2.5</vdop><extensions><gom:speed>1.084</gom:speed></extensions></trkpt>
   <trkpt lat="59.3115447762" lon="34.6758585364"><ele>160.959</ele><time>2026-08-16T16:25:38.808Z</time><hdop>3.0</hdop><vdop>2.5</vdop><extensions><gom:speed>1.108</gom:speed></extensions></trkpt>
   <trkpt lat="59.3115503921" lon="34.6758578658"><ele>160.919</ele><time>2026-08-16T16:25:39.367Z</time><hdop>3.0</hdop><vdop>2.5</vdop><extensions><gom:speed>1.111</gom:speed></extensions></trkpt>
   <trkpt lat="59.3115528648" lon="34.675848981"><ele>160.896</ele><time>2026-08-16T16:25:39.868Z</time><hdop>3.0</hdop><vdop>2.5</vdop><extensions><gom:speed>1.153</gom:speed></extensions></trkpt>
   <trkpt lat="59.3115581873" lon="34.6758466341"><ele>161.104</ele><time>2026-08-16T16:25:40.525Z</time><hdop>3.0</hdop><vdop>2.5</vdop><extensions><gom:speed>1.155</gom:speed></extensions></trkpt>
   <trkpt lat="59.3115611628" lon="34.6758368272"><ele>161.228</ele><time>2026-08-16T16:25:41.085Z</time><hdop>3.0</hdop><vdop>2.5</vdop><extensions><gom:speed>1.162</gom:speed></extensions></trkpt>
   <trkpt lat="59.3115654795" lon="34.6758340612"><ele>161.336</ele><time>2026-08-16T16:25:41.684Z</time><hdop>3.0</hdop><vdop>2.5</vdop><extensions><gom:speed>1.138</gom:speed></extensions></trkpt>
   <trkpt lat="59.3115691676" lon="34.6758333907"><ele>161.445</ele><time>2026-08-16T16:25:42.136Z</time><hdop>3.0</hdop><vdop>2.5</vdop><extensions><gom:speed>1.127</gom:speed></extensions></trkpt>
   <trkpt lat="59.311574071" lon="34.6758233324"><ele>161.511</ele><time>2026-08-16T16:25:42.891Z</time><hdop>3.0</hdop><vdop>2.5</vdop><extensions><gom:speed>1.146</gom:speed></extensions></trkpt>
   <trkpt lat="59.3115788906" lon="34.6758275233"><ele>161.394</ele><time>2026-08-16T16:25:43.391Z</time><hdop>3.0</hdop><vdop>2.5</vdop><extensions><gom:speed>1.152</gom:speed></extensions></trkpt>
   <trkpt lat="59.311585177" lon="34.6758201473"><ele>161.323</ele><time>2026-08-16T16:25:44.088Z</time><hdop>3.0</hdop><vdop>2.5</vdop><extensions><gom:speed>1.137</gom:speed></extensions></trkpt>
   <trkpt lat="59.3115991748" lon="34.6758298703"><ele>161.433</ele><time>2026-08-16T16:25:45.129Z</time><hdop>3.0</hdop><vdop>2.5</vdop><extensions><gom:speed>1.136</gom:speed></extensions></trkpt>
   <trkpt lat="59.3116133821" lon="34.6758509927"><ele>161.477</ele><time>2026-08-16T16:25:45.865Z</time><hdop>3.0</hdop><vdop>2.5</vdop><extensions><gom:speed>1.259</gom:speed></extensions></trkpt>
   <trkpt lat="59.3116243624" lon="34.6758666668"><ele>161.683</ele><time>2026-08-16T16:25:46.326Z</time><hdop>3.0</hdop><vdop>2.5</vdop><extensions><gom:speed>1.342</gom:speed></extensions></trkpt>
   <trkpt lat="59.3116399946" lon="34.6758875378"><ele>161.816</ele><time>2026-08-16T16:25:47.136Z</time><hdop>3.0</hdop><vdop>2.5</vdop><extensions><gom:speed>1.485</gom:speed></extensions></trkpt>
   <trkpt lat="59.3116586863" lon="34.6759104204"><ele>161.916</ele><time>2026-08-16T16:25:48.136Z</time><hdop>3.0</hdop><vdop>2.5</vdop><extensions><gom:speed>1.376</gom:speed></extensions></trkpt>
   <trkpt lat="59.311668074" lon="34.6759201434"><ele>161.976</ele><time>2026-08-16T16:25:48.710Z</time><hdop>3.0</hdop><vdop>2.5</vdop><extensions><gom:speed>1.291</gom:speed></extensions></trkpt>
   <trkpt lat="59.3116863885" lon="34.6759423554"><ele>162.132</ele><time>2026-08-16T16:25:49.850Z</time><hdop>3.0</hdop><vdop>2.5</vdop><extensions><gom:speed>1.349</gom:speed></extensions></trkpt>
   <trkpt lat="59.3117028589" lon="34.6759592869"><ele>162.626</ele><time>2026-08-16T16:25:50.970Z</time><hdop>3.0</hdop><vdop>2.5</vdop><extensions><gom:speed>1.283</gom:speed></extensions></trkpt>
   <trkpt lat="59.3117119952" lon="34.6759676688"><ele>162.839</ele><time>2026-08-16T16:25:51.647Z</time><hdop>3.0</hdop><vdop>2.5</vdop><extensions><gom:speed>1.227</gom:speed></extensions></trkpt>
   <trkpt lat="59.3117176949" lon="34.6759714406"><ele>162.966</ele><time>2026-08-16T16:25:52.127Z</time><hdop>3.0</hdop><vdop>2.5</vdop><extensions><gom:speed>1.231</gom:speed></extensions></trkpt>
   <trkpt lat="59.3117265797" lon="34.6759765536"><ele>162.914</ele><time>2026-08-16T16:25:52.824Z</time><hdop>3.0</hdop><vdop>2.5</vdop><extensions><gom:speed>1.193</gom:speed></extensions></trkpt>
   <trkpt lat="59.3117337881" lon="34.675977727"><ele>162.847</ele><time>2026-08-16T16:25:53.364Z</time><hdop>3.0</hdop><vdop>2.5</vdop><extensions><gom:speed>1.186</gom:speed></extensions></trkpt>
   <trkpt lat="59.3117404937" lon="34.6759794872"><ele>162.807</ele><time>2026-08-16T16:25:53.943Z</time><hdop>3.0</hdop><vdop>2.5</vdop><extensions><gom:speed>1.157</gom:speed></extensions></trkpt>
   <trkpt lat="59.3117461934" lon="34.6759772241"><ele>162.585</ele><time>2026-08-16T16:25:54.444Z</time><hdop>3.0</hdop><vdop>2.5</vdop><extensions><gom:speed>1.117</gom:speed></extensions></trkpt>
   <trkpt lat="59.3117521864" lon="34.6759780623"><ele>162.451</ele><time>2026-08-16T16:25:55.003Z</time><hdop>3.0</hdop><vdop>2.5</vdop><extensions><gom:speed>1.118</gom:speed></extensions></trkpt>
   <trkpt lat="59.3117591853" lon="34.6759746257"><ele>162.482</ele><time>2026-08-16T16:25:55.592Z</time><hdop>3.0</hdop><vdop>2.5</vdop><extensions><gom:speed>1.146</gom:speed></extensions></trkpt>
   <trkpt lat="59.3117652622" lon="34.6759719435"><ele>162.304</ele><time>2026-08-16T16:25:56.136Z</time><hdop>3.0</hdop><vdop>2.5</vdop><extensions><gom:speed>1.155</gom:speed></extensions></trkpt>
   <trkpt lat="59.3117714648" lon="34.675974039"><ele>162.197</ele><time>2026-08-16T16:25:56.711Z</time><hdop>3.0</hdop><vdop>2.5</vdop><extensions><gom:speed>1.136</gom:speed></extensions></trkpt>
   <trkpt lat="59.3117843729" lon="34.6759742905"><ele>162.216</ele><time>2026-08-16T16:25:57.910Z</time><hdop>3.0</hdop><vdop>2.5</vdop><extensions><gom:speed>1.101</gom:speed></extensions></trkpt>
   <trkpt lat="59.3117913718" lon="34.6759690937"><ele>162.422</ele><time>2026-08-16T16:25:58.567Z</time><hdop>3.0</hdop><vdop>2.5</vdop><extensions><gom:speed>1.054</gom:speed></extensions></trkpt>
   <trkpt lat="59.3117959819" lon="34.675970351"><ele>162.545</ele><time>2026-08-16T16:25:59.029Z</time><hdop>3.0</hdop><vdop>2.5</vdop><extensions><gom:speed>1.052</gom:speed></extensions></trkpt>
   <trkpt lat="59.3118069621" lon="34.6759659924"><ele>162.569</ele><time>2026-08-16T16:26:00.068Z</time><hdop>3.0</hdop><vdop>2.5</vdop><extensions><gom:speed>1.077</gom:speed></extensions></trkpt>
   <trkpt lat="59.3118155955" lon="34.6759600412"><ele>162.464</ele><time>2026-08-16T16:26:00.844Z</time><hdop>3.0</hdop><vdop>2.5</vdop><extensions><gom:speed>1.1</gom:speed></extensions></trkpt>
   <trkpt lat="59.3118283779" lon="34.6759525813"><ele>162.196</ele><time>2026-08-16T16:26:01.993Z</time><hdop>3.0</hdop><vdop>2.5</vdop><extensions><gom:speed>1.128</gom:speed></extensions></trkpt>
   <trkpt lat="59.3118404898" lon="34.6759399247"><ele>161.795</ele><time>2026-08-16T16:26:03.136Z</time><hdop>3.0</hdop><vdop>2.5</vdop><extensions><gom:speed>1.124</gom:speed></extensions></trkpt>
   <trkpt lat="59.3118456865" lon="34.6759371586"><ele>161.555</ele><time>2026-08-16T16:26:03.612Z</time><hdop>3.0</hdop><vdop>2.5</vdop><extensions><gom:speed>1.141</gom:speed></extensions></trkpt>
   <trkpt lat="59.3118517634" lon="34.675931878"><ele>161.259</ele><time>2026-08-16T16:26:04.136Z</time><hdop>3.0</hdop><vdop>2.5</vdop><extensions><gom:speed>1.139</gom:speed></extensions></trkpt>
   <trkpt lat="59.3118582594" lon="34.6759284414"><ele>161.082</ele><time>2026-08-16T16:26:04.692Z</time><hdop>3.0</hdop><vdop>2.5</vdop><extensions><gom:speed>1.15</gom:speed></extensions></trkpt>
   <trkpt lat="59.31187188" lon="34.6759185508"><ele>160.944</ele><time>2026-08-16T16:26:05.909Z</time><hdop>3.0</hdop><vdop>2.5</vdop><extensions><gom:speed>1.142</gom:speed></extensions></trkpt>
   <trkpt lat="59.3118798847" lon="34.6759108395"><ele>160.917</ele><time>2026-08-16T16:26:06.566Z</time><hdop>3.0</hdop><vdop>2.5</vdop><extensions><gom:speed>1.183</gom:speed></extensions></trkpt>
   <trkpt lat="59.3118856682" lon="34.6759070676"><ele>160.902</ele><time>2026-08-16T16:26:07.047Z</time><hdop>3.0</hdop><vdop>2.5</vdop><extensions><gom:speed>1.181</gom:speed></extensions></trkpt>
   <trkpt lat="59.3118929605" lon="34.6758976799"><ele>160.904</ele><time>2026-08-16T16:26:07.705Z</time><hdop>3.0</hdop><vdop>2.5</vdop><extensions><gom:speed>1.206</gom:speed></extensions></trkpt>
   <trkpt lat="59.3118979896" lon="34.6758916449"><ele>160.946</ele><time>2026-08-16T16:26:08.167Z</time><hdop>3.0</hdop><vdop>2.5</vdop><extensions><gom:speed>1.198</gom:speed></extensions></trkpt>
   <trkpt lat="59.3119055752" lon="34.675888376"><ele>160.97</ele><time>2026-08-16T16:26:08.825Z</time><hdop>3.0</hdop><vdop>2.5</vdop><extensions><gom:speed>1.195</gom:speed></extensions></trkpt>
   <trkpt lat="59.3119114845" lon="34.675883263"><ele>161.051</ele><time>2026-08-16T16:26:09.326Z</time><hdop>3.0</hdop><vdop>2.5</vdop><extensions><gom:speed>1.204</gom:speed></extensions></trkpt>
   <trkpt lat="59.311920495" lon="34.6758761384"><ele>161.053</ele><time>2026-08-16T16:26:10.136Z</time><hdop>3.0</hdop><vdop>2.5</vdop><extensions><gom:speed>1.183</gom:speed></extensions></trkpt>
   <trkpt lat="59.3119312658" lon="34.6758669183"><ele>161.054</ele><time>2026-08-16T16:26:11.092Z</time><hdop>3.0</hdop><vdop>2.5</vdop><extensions><gom:speed>1.202</gom:speed></extensions></trkpt>
   <trkpt lat="59.3119366721" lon="34.6758625597"><ele>161.192</ele><time>2026-08-16T16:26:11.563Z</time><hdop>3.0</hdop><vdop>2.5</vdop><extensions><gom:speed>1.212</gom:speed></extensions></trkpt>
   <trkpt lat="59.3119432938" lon="34.6758592907"><ele>161.186</ele><time>2026-08-16T16:26:12.136Z</time><hdop>3.0</hdop><vdop>2.5</vdop><extensions><gom:speed>1.189</gom:speed></extensions></trkpt>
   <trkpt lat="59.3119496641" lon="34.6758565247"><ele>161.182</ele><time>2026-08-16T16:26:12.672Z</time><hdop>3.0</hdop><vdop>2.5</vdop><extensions><gom:speed>1.218</gom:speed></extensions></trkpt>
   <trkpt lat="59.3119550704" lon="34.6758560218"><ele>161.274</ele><time>2026-08-16T16:26:13.136Z</time><hdop>3.0</hdop><vdop>2.5</vdop><extensions><gom:speed>1.192</gom:speed></extensions></trkpt>
   <trkpt lat="59.3119636618" lon="34.6758544292"><ele>161.329</ele><time>2026-08-16T16:26:13.831Z</time><hdop>3.0</hdop><vdop>2.5</vdop><extensions><gom:speed>1.22</gom:speed></extensions></trkpt>
   <trkpt lat="59.3119716665" lon="34.6758537587"><ele>161.525</ele><time>2026-08-16T16:26:14.488Z</time><hdop>3.0</hdop><vdop>2.5</vdop><extensions><gom:speed>1.216</gom:speed></extensions></trkpt>
   <trkpt lat="59.3119776596" lon="34.6758511603"><ele>161.642</ele><time>2026-08-16T16:26:14.989Z</time><hdop>3.0</hdop><vdop>2.5</vdop><extensions><gom:speed>1.217</gom:speed></extensions></trkpt>
   <trkpt lat="59.3119847842" lon="34.6758490648"><ele>161.776</ele><time>2026-08-16T16:26:15.666Z</time><hdop>3.0</hdop><vdop>2.5</vdop><extensions><gom:speed>1.189</gom:speed></extensions></trkpt>
   <trkpt lat="59.3119900648" lon="34.6758483943"><ele>161.963</ele><time>2026-08-16T16:26:16.136Z</time><hdop>3.0</hdop><vdop>2.5</vdop><extensions><gom:speed>1.187</gom:speed></extensions></trkpt>
   <trkpt lat="59.3120018833" lon="34.6758457959"><ele>162.074</ele><time>2026-08-16T16:26:17.148Z</time><hdop>3.0</hdop><vdop>2.5</vdop><extensions><gom:speed>1.166</gom:speed></extensions></trkpt>
   <trkpt lat="59.3120109777" lon="34.6758453768"><ele>162.128</ele><time>2026-08-16T16:26:17.953Z</time><hdop>3.0</hdop><vdop>2.5</vdop><extensions><gom:speed>1.173</gom:speed></extensions></trkpt>
   <trkpt lat="59.3120231733" lon="34.6758427784"><ele>161.89</ele><time>2026-08-16T16:26:19.136Z</time><hdop>3.0</hdop><vdop>2.5</vdop><extensions><gom:speed>1.13</gom:speed></extensions></trkpt>
   <trkpt lat="59.3120283701" lon="34.6758409344"><ele>161.748</ele><time>2026-08-16T16:26:19.591Z</time><hdop>3.0</hdop><vdop>2.5</vdop><extensions><gom:speed>1.121</gom:speed></extensions></trkpt>
   <trkpt lat="59.3120341955" lon="34.6758400962"><ele>161.604</ele><time>2026-08-16T16:26:20.136Z</time><hdop>3.0</hdop><vdop>2.5</vdop><extensions><gom:speed>1.108</gom:speed></extensions></trkpt>
   <trkpt lat="59.3120412783" lon="34.6758398447"><ele>161.518</ele><time>2026-08-16T16:26:20.750Z</time><hdop>3.0</hdop><vdop>2.5</vdop><extensions><gom:speed>1.107</gom:speed></extensions></trkpt>
   <trkpt lat="59.3120544798" lon="34.6758387551"><ele>161.515</ele><time>2026-08-16T16:26:21.869Z</time><hdop>3.0</hdop><vdop>2.5</vdop><extensions><gom:speed>1.14</gom:speed></extensions></trkpt>
   <trkpt lat="59.3120615625" lon="34.6758374978"><ele>161.214</ele><time>2026-08-16T16:26:22.507Z</time><hdop>3.0</hdop><vdop>2.5</vdop><extensions><gom:speed>1.117</gom:speed></extensions></trkpt>
   <trkpt lat="59.3120670945" lon="34.6758367434"><ele>161.033</ele><time>2026-08-16T16:26:22.988Z</time><hdop>3.0</hdop><vdop>2.5</vdop><extensions><gom:speed>1.115</gom:speed></extensions></trkpt>
   <trkpt lat="59.3120720817" lon="34.6758347318"><ele>160.841</ele><time>2026-08-16T16:26:23.526Z</time><hdop>3.0</hdop><vdop>2.5</vdop><extensions><gom:speed>1.088</gom:speed></extensions></trkpt>
   <trkpt lat="59.312077991" lon="34.6758322172"><ele>160.9</ele><time>2026-08-16T16:26:24.136Z</time><hdop>3.0</hdop><vdop>2.5</vdop><extensions><gom:speed>1.056</gom:speed></extensions></trkpt>
   <trkpt lat="59.3120840679" lon="34.6758287806"><ele>160.935</ele><time>2026-08-16T16:26:24.784Z</time><hdop>3.0</hdop><vdop>2.5</vdop><extensions><gom:speed>1.031</gom:speed></extensions></trkpt>
   <trkpt lat="59.3120892646" lon="34.6758265175"><ele>161.085</ele><time>2026-08-16T16:26:25.343Z</time><hdop>3.0</hdop><vdop>2.5</vdop><extensions><gom:speed>1.064</gom:speed></extensions></trkpt>
   <trkpt lat="59.3120951739" lon="34.6758236677"><ele>161.175</ele><time>2026-08-16T16:26:25.991Z</time><hdop>3.0</hdop><vdop>2.5</vdop><extensions><gom:speed>1.017</gom:speed></extensions></trkpt>
   <trkpt lat="59.3121073696" lon="34.6758218236"><ele>161.206</ele><time>2026-08-16T16:26:27.136Z</time><hdop>3.0</hdop><vdop>2.5</vdop><extensions><gom:speed>1.062</gom:speed></extensions></trkpt>
   <trkpt lat="59.3121129854" lon="34.6758226618"><ele>161.224</ele><time>2026-08-16T16:26:27.630Z</time><hdop>3.0</hdop><vdop>2.5</vdop><extensions><gom:speed>1.078</gom:speed></extensions></trkpt>
   <trkpt lat="59.3121186851" lon="34.6758224942"><ele>161.277</ele><time>2026-08-16T16:26:28.136Z</time><hdop>3.0</hdop><vdop>2.5</vdop><extensions><gom:speed>1.097</gom:speed></extensions></trkpt>
   <trkpt lat="59.3121261869" lon="34.675822578"><ele>161.308</ele><time>2026-08-16T16:26:28.808Z</time><hdop>3.0</hdop><vdop>2.5</vdop><extensions><gom:speed>1.091</gom:speed></extensions></trkpt>
   <trkpt lat="59.3121364967" lon="34.6758217398"><ele>161.89</ele><time>2026-08-16T16:26:29.750Z</time><hdop>3.0</hdop><vdop>2.5</vdop><extensions><gom:speed>1.107</gom:speed></extensions></trkpt>
   <trkpt lat="59.3121463873" lon="34.6758240868"><ele>162.32</ele><time>2026-08-16T16:26:30.684Z</time><hdop>3.0</hdop><vdop>2.5</vdop><extensions><gom:speed>1.103</gom:speed></extensions></trkpt>
   <trkpt lat="59.312151165" lon="34.6758266851"><ele>162.615</ele><time>2026-08-16T16:26:31.136Z</time><hdop>3.0</hdop><vdop>2.5</vdop><extensions><gom:speed>1.11</gom:speed></extensions></trkpt>
   <trkpt lat="59.3121588764" lon="34.6758311276"><ele>162.792</ele><time>2026-08-16T16:26:31.871Z</time><hdop>3.0</hdop><vdop>2.5</vdop><extensions><gom:speed>1.103</gom:speed></extensions></trkpt>
   <trkpt lat="59.3121640731" lon="34.6758344803"><ele>162.907</ele><time>2026-08-16T16:26:32.333Z</time><hdop>3.0</hdop><vdop>2.5</vdop><extensions><gom:speed>1.105</gom:speed></extensions></trkpt>
   <trkpt lat="59.3121723712" lon="34.6758409344"><ele>162.814</ele><time>2026-08-16T16:26:33.136Z</time><hdop>3.0</hdop><vdop>2.5</vdop><extensions><gom:speed>1.075</gom:speed></extensions></trkpt>
   <trkpt lat="59.3121823876" lon="34.6758487296"><ele>162.874</ele><time>2026-08-16T16:26:34.136Z</time><hdop>3.0</hdop><vdop>2.5</vdop><extensions><gom:speed>1.057</gom:speed></extensions></trkpt>
   <trkpt lat="59.3121884645" lon="34.6758513279"><ele>162.91</ele><time>2026-08-16T16:26:34.708Z</time><hdop>3.0</hdop><vdop>2.5</vdop><extensions><gom:speed>1.098</gom:speed></extensions></trkpt>
   <trkpt lat="59.3121961758" lon="34.6758564409"><ele>163.123</ele><time>2026-08-16T16:26:35.424Z</time><hdop>3.0</hdop><vdop>2.5</vdop><extensions><gom:speed>1.063</gom:speed></extensions></trkpt>
   <trkpt lat="59.312201666" lon="34.67586147"><ele>163.251</ele><time>2026-08-16T16:26:35.963Z</time><hdop>3.0</hdop><vdop>2.5</vdop><extensions><gom:speed>1.057</gom:speed></extensions></trkpt>
   <trkpt lat="59.3122081619" lon="34.6758714445"><ele>163.183</ele><time>2026-08-16T16:26:36.730Z</time><hdop>3.0</hdop><vdop>2.5</vdop><extensions><gom:speed>1.028</gom:speed></extensions></trkpt>
   <trkpt lat="59.312210467" lon="34.6758835983"><ele>163.095</ele><time>2026-08-16T16:26:37.250Z</time><hdop>3.0</hdop><vdop>2.5</vdop><extensions><gom:speed>1.052</gom:speed></extensions></trkpt>
   <trkpt lat="59.3122122691" lon="34.6758981828"><ele>163.042</ele><time>2026-08-16T16:26:38.025Z</time><hdop>3.0</hdop><vdop>2.5</vdop><extensions><gom:speed>0.99</gom:speed></extensions></trkpt>
   <trkpt lat="59.3122117662" lon="34.6759120967"><ele>163.13</ele><time>2026-08-16T16:26:38.565Z</time><hdop>3.0</hdop><vdop>2.5</vdop><extensions><gom:speed>0.966</gom:speed></extensions></trkpt>
   <trkpt lat="59.3122119757" lon="34.6759245858"><ele>163.023</ele><time>2026-08-16T16:26:39.135Z</time><hdop>3.0</hdop><vdop>2.5</vdop><extensions><gom:speed>0.931</gom:speed></extensions></trkpt>
   <trkpt lat="59.3122116823" lon="34.675939757"><ele>162.96</ele><time>2026-08-16T16:26:39.929Z</time><hdop>3.0</hdop><vdop>2.5</vdop><extensions><gom:speed>0.919</gom:speed></extensions></trkpt>
   <trkpt lat="59.3122119757" lon="34.6759498991"><ele>162.862</ele><time>2026-08-16T16:26:40.508Z</time><hdop>3.0</hdop><vdop>2.5</vdop><extensions><gom:speed>0.799</gom:speed></extensions></trkpt>
   <trkpt lat="59.3122129815" lon="34.6759581972"><ele>162.829</ele><time>2026-08-16T16:26:41.136Z</time><hdop>3.0</hdop><vdop>2.5</vdop><extensions><gom:speed>0.68</gom:speed></extensions></trkpt>
   <trkpt lat="59.3122133587" lon="34.6759658247"><ele>162.81</ele><time>2026-08-16T16:26:41.853Z</time><hdop>3.0</hdop><vdop>2.5</vdop><extensions><gom:speed>0.618</gom:speed></extensions></trkpt>
   <trkpt lat="59.3122142807" lon="34.6759690937"><ele>162.954</ele><time>2026-08-16T16:26:43.136Z</time><hdop>3.0</hdop><vdop>2.5</vdop><extensions><gom:speed>0.318</gom:speed></extensions></trkpt>
   <trkpt lat="59.3122149932" lon="34.6759691775"><ele>163.017</ele><time>2026-08-16T16:26:44.136Z</time><hdop>3.0</hdop><vdop>2.5</vdop><extensions><gom:speed>0.175</gom:speed></extensions></trkpt>
   <trkpt lat="59.3122157895" lon="34.6759684231"><ele>163.051</ele><time>2026-08-16T16:26:45.136Z</time><hdop>3.0</hdop><vdop>2.5</vdop><extensions><gom:speed>0.111</gom:speed></extensions></trkpt>
   <trkpt lat="59.3122163762" lon="34.6759688422"><ele>163.086</ele><time>2026-08-16T16:26:46.136Z</time><hdop>3.0</hdop><vdop>2.5</vdop><extensions><gom:speed>0.085</gom:speed></extensions></trkpt>
   <trkpt lat="59.3122168791" lon="34.6759687584"><ele>163.103</ele><time>2026-08-16T16:26:47.136Z</time><hdop>3.0</hdop><vdop>2.5</vdop><extensions><gom:speed>0.096</gom:speed></extensions></trkpt>
   <trkpt lat="59.3122171725" lon="34.6759690937"><ele>163.11</ele><time>2026-08-16T16:26:48.136Z</time><hdop>3.0</hdop><vdop>2.5</vdop><extensions><gom:speed>0.093</gom:speed></extensions></trkpt>
   <trkpt lat="59.3122176754" lon="34.6759701833"><ele>163.107</ele><time>2026-08-16T16:26:49.136Z</time><hdop>3.0</hdop><vdop>2.5</vdop><extensions><gom:speed>0.116</gom:speed></extensions></trkpt>
   <trkpt lat="59.312219268" lon="34.6759705186"><ele>163.128</ele><time>2026-08-16T16:26:50.136Z</time><hdop>3.0</hdop><vdop>2.5</vdop><extensions><gom:speed>0.082</gom:speed></extensions></trkpt>
   <trkpt lat="59.3122211958" lon="34.6759701833"><ele>163.204</ele><time>2026-08-16T16:26:51.135Z</time><hdop>3.0</hdop><vdop>2.5</vdop><extensions><gom:speed>0.096</gom:speed></extensions></trkpt>
   <trkpt lat="59.3122222855" lon="34.675970351"><ele>163.26</ele><time>2026-08-16T16:26:52.135Z</time><hdop>3.0</hdop><vdop>2.5</vdop><extensions><gom:speed>0.103</gom:speed></extensions></trkpt>
   <trkpt lat="59.3122243809" lon="34.6759705186"><ele>163.23</ele><time>2026-08-16T16:26:53.136Z</time><hdop>3.0</hdop><vdop>2.5</vdop><extensions><gom:speed>0.065</gom:speed></extensions></trkpt>
   <trkpt lat="59.3122270631" lon="34.6759697642"><ele>163.295</ele><time>2026-08-16T16:26:54.136Z</time><hdop>3.0</hdop><vdop>2.5</vdop><extensions><gom:speed>0.108</gom:speed></extensions></trkpt>
   <trkpt lat="59.3122308769" lon="34.6759690937"><ele>163.314</ele><time>2026-08-16T16:26:55.135Z</time><hdop>3.0</hdop><vdop>2.5</vdop><extensions><gom:speed>0.204</gom:speed></extensions></trkpt>
   <trkpt lat="59.3122331819" lon="34.675968926"><ele>163.325</ele><time>2026-08-16T16:26:55.947Z</time><hdop>3.0</hdop><vdop>2.5</vdop><extensions><gom:speed>0.177</gom:speed></extensions></trkpt>
   <trkpt lat="59.3122401808" lon="34.6759700995"><ele>163.234</ele><time>2026-08-16T16:26:56.546Z</time><hdop>3.0</hdop><vdop>2.5</vdop><extensions><gom:speed>0.34</gom:speed></extensions></trkpt>
   <trkpt lat="59.3122481855" lon="34.6759725303"><ele>163.116</ele><time>2026-08-16T16:26:57.136Z</time><hdop>3.0</hdop><vdop>2.5</vdop><extensions><gom:speed>0.596</gom:speed></extensions></trkpt>
   <trkpt lat="59.3122564836" lon="34.675975883"><ele>163.045</ele><time>2026-08-16T16:26:57.890Z</time><hdop>3.0</hdop><vdop>2.5</vdop><extensions><gom:speed>0.723</gom:speed></extensions></trkpt>
   <trkpt lat="59.3122661647" lon="34.6759773918"><ele>162.938</ele><time>2026-08-16T16:26:58.666Z</time><hdop>3.0</hdop><vdop>2.5</vdop><extensions><gom:speed>0.83</gom:speed></extensions></trkpt>
   <trkpt lat="59.3122716968" lon="34.6759762183"><ele>162.938</ele><time>2026-08-16T16:26:59.135Z</time><hdop>3.0</hdop><vdop>2.5</vdop><extensions><gom:speed>0.837</gom:speed></extensions></trkpt>
   <trkpt lat="59.312280372" lon="34.6759754639"><ele>162.938</ele><time>2026-08-16T16:27:00.089Z</time><hdop>3.0</hdop><vdop>2.5</vdop><extensions><gom:speed>0.831</gom:speed></extensions></trkpt>
   <trkpt lat="59.3122864908" lon="34.6759773918"><ele>162.964</ele><time>2026-08-16T16:27:00.609Z</time><hdop>3.0</hdop><vdop>2.5</vdop><extensions><gom:speed>0.872</gom:speed></extensions></trkpt>
   <trkpt lat="59.3122922743" lon="34.6759792358"><ele>162.99</ele><time>2026-08-16T16:27:01.136Z</time><hdop>3.0</hdop><vdop>2.5</vdop><extensions><gom:speed>0.894</gom:speed></extensions></trkpt>
   <trkpt lat="59.3122985608" lon="34.6759808283"><ele>163.005</ele><time>2026-08-16T16:27:01.747Z</time><hdop>3.0</hdop><vdop>2.5</vdop><extensions><gom:speed>0.936</gom:speed></extensions></trkpt>
   <trkpt lat="59.3123119718" lon="34.6759763859"><ele>162.938</ele><time>2026-08-16T16:27:02.964Z</time><hdop>3.0</hdop><vdop>2.5</vdop><extensions><gom:speed>0.979</gom:speed></extensions></trkpt>
   <trkpt lat="59.3123226587" lon="34.6759610471"><ele>162.898</ele><time>2026-08-16T16:27:04.136Z</time><hdop>3.0</hdop><vdop>2.5</vdop><extensions><gom:speed>0.985</gom:speed></extensions></trkpt>
   <trkpt lat="59.31232949" lon="34.6759525813"><ele>162.874</ele><time>2026-08-16T16:27:04.867Z</time><hdop>3.0</hdop><vdop>2.5</vdop><extensions><gom:speed>1.025</gom:speed></extensions></trkpt>
   <trkpt lat="59.312335064" lon="34.675945792"><ele>162.845</ele><time>2026-08-16T16:27:05.389Z</time><hdop>3.0</hdop><vdop>2.5</vdop><extensions><gom:speed>1.029</gom:speed></extensions></trkpt>
   <trkpt lat="59.3123414761" lon="34.6759401761"><ele>162.827</ele><time>2026-08-16T16:27:06.046Z</time><hdop>3.0</hdop><vdop>2.5</vdop><extensions><gom:speed>1.026</gom:speed></extensions></trkpt>
   <trkpt lat="59.3123468824" lon="34.6759375777"><ele>162.932</ele><time>2026-08-16T16:27:06.547Z</time><hdop>3.0</hdop><vdop>2.5</vdop><extensions><gom:speed>1.003</gom:speed></extensions></trkpt>
   <trkpt lat="59.3123534622" lon="34.6759348955"><ele>163.048</ele><time>2026-08-16T16:27:07.136Z</time><hdop>3.0</hdop><vdop>2.5</vdop><extensions><gom:speed>1.03</gom:speed></extensions></trkpt>
   <trkpt lat="59.3123594972" lon="34.6759322971"><ele>163.118</ele><time>2026-08-16T16:27:07.704Z</time><hdop>3.0</hdop><vdop>2.5</vdop><extensions><gom:speed>1.051</gom:speed></extensions></trkpt>
   <trkpt lat="59.3123731597" lon="34.6759257592"><ele>163.154</ele><time>2026-08-16T16:27:08.971Z</time><hdop>3.0</hdop><vdop>2.5</vdop><extensions><gom:speed>1.087</gom:speed></extensions></trkpt>
   <trkpt lat="59.3123817931" lon="34.6759248372"><ele>163.066</ele><time>2026-08-16T16:27:09.648Z</time><hdop>3.0</hdop><vdop>2.5</vdop><extensions><gom:speed>1.122</gom:speed></extensions></trkpt>
   <trkpt lat="59.3123874928" lon="34.6759225741"><ele>163.014</ele><time>2026-08-16T16:27:10.129Z</time><hdop>3.0</hdop><vdop>2.5</vdop><extensions><gom:speed>1.108</gom:speed></extensions></trkpt>
   <trkpt lat="59.3123956651" lon="34.6759215683"><ele>163.002</ele><time>2026-08-16T16:27:10.806Z</time><hdop>3.0</hdop><vdop>2.5</vdop><extensions><gom:speed>1.1</gom:speed></extensions></trkpt>
   <trkpt lat="59.312402664" lon="34.6759218197"><ele>162.955</ele><time>2026-08-16T16:27:11.366Z</time><hdop>3.0</hdop><vdop>2.5</vdop><extensions><gom:speed>1.112</gom:speed></extensions></trkpt>
   <trkpt lat="59.3124083637" lon="34.6759205625"><ele>162.927</ele><time>2026-08-16T16:27:11.886Z</time><hdop>3.0</hdop><vdop>2.5</vdop><extensions><gom:speed>1.088</gom:speed></extensions></trkpt>
   <trkpt lat="59.3124156979" lon="34.6759196405"><ele>162.981</ele><time>2026-08-16T16:27:12.563Z</time><hdop>3.0</hdop><vdop>2.5</vdop><extensions><gom:speed>1.046</gom:speed></extensions></trkpt>
   <trkpt lat="59.3124222777" lon="34.6759190537"><ele>163.133</ele><time>2026-08-16T16:27:13.136Z</time><hdop>3.0</hdop><vdop>2.5</vdop><extensions><gom:speed>1.055</gom:speed></extensions></trkpt>
   <trkpt lat="59.3124291927" lon="34.6759174612"><ele>163.224</ele><time>2026-08-16T16:27:13.770Z</time><hdop>3.0</hdop><vdop>2.5</vdop><extensions><gom:speed>1.011</gom:speed></extensions></trkpt>
   <trkpt lat="59.312440173" lon="34.6759141922"><ele>163.432</ele><time>2026-08-16T16:27:14.713Z</time><hdop>3.0</hdop><vdop>2.5</vdop><extensions><gom:speed>1.036</gom:speed></extensions></trkpt>
   <trkpt lat="59.3124503989" lon="34.6759131864"><ele>163.678</ele><time>2026-08-16T16:27:15.567Z</time><hdop>3.0</hdop><vdop>2.5</vdop><extensions><gom:speed>1.081</gom:speed></extensions></trkpt>
   <trkpt lat="59.3124576912" lon="34.6759148628"><ele>163.768</ele><time>2026-08-16T16:27:16.136Z</time><hdop>3.0</hdop><vdop>2.5</vdop><extensions><gom:speed>1.112</gom:speed></extensions></trkpt>
   <trkpt lat="59.3124694678" lon="34.6759180479"><ele>163.822</ele><time>2026-08-16T16:27:17.127Z</time><hdop>3.0</hdop><vdop>2.5</vdop><extensions><gom:speed>1.111</gom:speed></extensions></trkpt>
   <trkpt lat="59.3124806995" lon="34.6759131864"><ele>163.622</ele><time>2026-08-16T16:27:18.136Z</time><hdop>3.0</hdop><vdop>2.5</vdop><extensions><gom:speed>1.152</gom:speed></extensions></trkpt>
   <trkpt lat="59.3124918894" lon="34.6759029605"><ele>163.581</ele><time>2026-08-16T16:27:19.136Z</time><hdop>3.0</hdop><vdop>2.5</vdop><extensions><gom:speed>1.145</gom:speed></extensions></trkpt>
   <trkpt lat="59.3125018638" lon="34.6758898847"><ele>163.557</ele><time>2026-08-16T16:27:20.111Z</time><hdop>3.0</hdop><vdop>2.5</vdop><extensions><gom:speed>1.151</gom:speed></extensions></trkpt>
   <trkpt lat="59.3125074797" lon="34.6758816704"><ele>163.43</ele><time>2026-08-16T16:27:20.670Z</time><hdop>3.0</hdop><vdop>2.5</vdop><extensions><gom:speed>1.14</gom:speed></extensions></trkpt>
   <trkpt lat="59.3125115868" lon="34.6758759707"><ele>163.193</ele><time>2026-08-16T16:27:21.136Z</time><hdop>3.0</hdop><vdop>2.5</vdop><extensions><gom:speed>1.14</gom:speed></extensions></trkpt>
   <trkpt lat="59.3125171608" lon="34.6758682594"><ele>163.051</ele><time>2026-08-16T16:27:21.750Z</time><hdop>3.0</hdop><vdop>2.5</vdop><extensions><gom:speed>1.109</gom:speed></extensions></trkpt>
   <trkpt lat="59.3125233634" lon="34.6758610509"><ele>162.933</ele><time>2026-08-16T16:27:22.368Z</time><hdop>3.0</hdop><vdop>2.5</vdop><extensions><gom:speed>1.121</gom:speed></extensions></trkpt>
   <trkpt lat="59.3125279735" lon="34.6758552674"><ele>162.863</ele><time>2026-08-16T16:27:22.869Z</time><hdop>3.0</hdop><vdop>2.5</vdop><extensions><gom:speed>1.126</gom:speed></extensions></trkpt>
   <trkpt lat="59.3125385766" lon="34.6758408506"><ele>162.673</ele><time>2026-08-16T16:27:24.045Z</time><hdop>3.0</hdop><vdop>2.5</vdop><extensions><gom:speed>1.115</gom:speed></extensions></trkpt>
   <trkpt lat="59.3125447792" lon="34.6758318819"><ele>162.549</ele><time>2026-08-16T16:27:24.742Z</time><hdop>3.0</hdop><vdop>2.5</vdop><extensions><gom:speed>1.119</gom:speed></extensions></trkpt>
   <trkpt lat="59.3125498921" lon="34.675827691"><ele>162.364</ele><time>2026-08-16T16:27:25.244Z</time><hdop>3.0</hdop><vdop>2.5</vdop><extensions><gom:speed>1.104</gom:speed></extensions></trkpt>
   <trkpt lat="59.3125571844" lon="34.675820734"><ele>162.253</ele><time>2026-08-16T16:27:25.970Z</time><hdop>3.0</hdop><vdop>2.5</vdop><extensions><gom:speed>1.104</gom:speed></extensions></trkpt>
   <trkpt lat="59.3125614592" lon="34.675817046"><ele>162.104</ele><time>2026-08-16T16:27:26.431Z</time><hdop>3.0</hdop><vdop>2.5</vdop><extensions><gom:speed>1.112</gom:speed></extensions></trkpt>
   <trkpt lat="59.3125680809" lon="34.6758116815"><ele>161.985</ele><time>2026-08-16T16:27:27.136Z</time><hdop>3.0</hdop><vdop>2.5</vdop><extensions><gom:speed>1.093</gom:speed></extensions></trkpt>
   <trkpt lat="59.3125724814" lon="34.675807742"><ele>161.914</ele><time>2026-08-16T16:27:27.590Z</time><hdop>3.0</hdop><vdop>2.5</vdop><extensions><gom:speed>1.105</gom:speed></extensions></trkpt>
   <trkpt lat="59.3125771752" lon="34.6758029644"><ele>161.78</ele><time>2026-08-16T16:27:28.136Z</time><hdop>3.0</hdop><vdop>2.5</vdop><extensions><gom:speed>1.129</gom:speed></extensions></trkpt>
   <trkpt lat="59.3125828749" lon="34.6757968456"><ele>161.7</ele><time>2026-08-16T16:27:28.748Z</time><hdop>3.0</hdop><vdop>2.5</vdop><extensions><gom:speed>1.146</gom:speed></extensions></trkpt>
   <trkpt lat="59.3125883651" lon="34.6757912297"><ele>161.552</ele><time>2026-08-16T16:27:29.366Z</time><hdop>3.0</hdop><vdop>2.5</vdop><extensions><gom:speed>1.155</gom:speed></extensions></trkpt>
   <trkpt lat="59.3125932685" lon="34.67578553"><ele>161.463</ele><time>2026-08-16T16:27:29.847Z</time><hdop>3.0</hdop><vdop>2.5</vdop><extensions><gom:speed>1.162</gom:speed></extensions></trkpt>
   <trkpt lat="59.3126026981" lon="34.6757745497"><ele>161.703</ele><time>2026-08-16T16:27:30.887Z</time><hdop>3.0</hdop><vdop>2.5</vdop><extensions><gom:speed>1.183</gom:speed></extensions></trkpt>
   <trkpt lat="59.3126044583" lon="34.6757601328"><ele>161.78</ele><time>2026-08-16T16:27:31.653Z</time><hdop>3.0</hdop><vdop>2.5</vdop><extensions><gom:speed>1.166</gom:speed></extensions></trkpt>
   <trkpt lat="59.3126043745" lon="34.6757532597"><ele>161.784</ele><time>2026-08-16T16:27:32.136Z</time><hdop>3.0</hdop><vdop>2.5</vdop><extensions><gom:speed>1.144</gom:speed></extensions></trkpt>
   <trkpt lat="59.3126024886" lon="34.6757408545"><ele>161.786</ele><time>2026-08-16T16:27:32.831Z</time><hdop>3.0</hdop><vdop>2.5</vdop><extensions><gom:speed>1.133</gom:speed></extensions></trkpt>
   <trkpt lat="59.3126032849" lon="34.6757351548"><ele>161.737</ele><time>2026-08-16T16:27:33.469Z</time><hdop>3.0</hdop><vdop>2.5</vdop><extensions><gom:speed>1.12</gom:speed></extensions></trkpt>
   <trkpt lat="59.3126019857" lon="34.6757253479"><ele>161.708</ele><time>2026-08-16T16:27:34.008Z</time><hdop>3.0</hdop><vdop>2.5</vdop><extensions><gom:speed>1.129</gom:speed></extensions></trkpt>
   <trkpt lat="59.3126049612" lon="34.675720235"><ele>161.791</ele><time>2026-08-16T16:27:34.627Z</time><hdop>3.0</hdop><vdop>2.5</vdop><extensions><gom:speed>1.129</gom:speed></extensions></trkpt>
   <trkpt lat="59.3126052965" lon="34.6757102605"><ele>161.841</ele><time>2026-08-16T16:27:35.147Z</time><hdop>3.0</hdop><vdop>2.5</vdop><extensions><gom:speed>1.119</gom:speed></extensions></trkpt>
   <trkpt lat="59.3126104933" lon="34.6757042255"><ele>161.88</ele><time>2026-08-16T16:27:35.785Z</time><hdop>3.0</hdop><vdop>2.5</vdop><extensions><gom:speed>1.114</gom:speed></extensions></trkpt>
   <trkpt lat="59.3126206773" lon="34.6757061534"><ele>162.12</ele><time>2026-08-16T16:27:36.324Z</time><hdop>3.0</hdop><vdop>2.5</vdop><extensions><gom:speed>1.135</gom:speed></extensions></trkpt>
   <trkpt lat="59.3126280953" lon="34.6757037226"><ele>162.264</ele><time>2026-08-16T16:27:36.923Z</time><hdop>3.0</hdop><vdop>2.5</vdop><extensions><gom:speed>1.086</gom:speed></extensions></trkpt>
   <trkpt lat="59.3126399976" lon="34.6757134456"><ele>162.303</ele><time>2026-08-16T16:27:37.650Z</time><hdop>3.0</hdop><vdop>2.5</vdop><extensions><gom:speed>1.072</gom:speed></extensions></trkpt>
   <trkpt lat="59.312645362" lon="34.6757189777"><ele>162.327</ele><time>2026-08-16T16:27:38.131Z</time><hdop>3.0</hdop><vdop>2.5</vdop><extensions><gom:speed>1.071</gom:speed></extensions></trkpt>
   <trkpt lat="59.312661581" lon="34.6757340651"><ele>162.337</ele><time>2026-08-16T16:27:39.136Z</time><hdop>3.0</hdop><vdop>2.5</vdop><extensions><gom:speed>1.12</gom:speed></extensions></trkpt>
   <trkpt lat="59.3126750759" lon="34.6757456321"><ele>162.311</ele><time>2026-08-16T16:27:40.136Z</time><hdop>3.0</hdop><vdop>2.5</vdop><extensions><gom:speed>1.086</gom:speed></extensions></trkpt>
   <trkpt lat="59.3126857628" lon="34.6757573668"><ele>162.296</ele><time>2026-08-16T16:27:41.124Z</time><hdop>3.0</hdop><vdop>2.5</vdop><extensions><gom:speed>1.097</gom:speed></extensions></trkpt>
   <trkpt lat="59.3126931808" lon="34.675760049"><ele>162.461</ele><time>2026-08-16T16:27:41.585Z</time><hdop>3.0</hdop><vdop>2.5</vdop><extensions><gom:speed>1.165</gom:speed></extensions></trkpt>
   <trkpt lat="59.3127009759" lon="34.675763318"><ele>162.442</ele><time>2026-08-16T16:27:42.136Z</time><hdop>3.0</hdop><vdop>2.5</vdop><extensions><gom:speed>1.175</gom:speed></extensions></trkpt>
   <trkpt lat="59.3127088968" lon="34.6757703588"><ele>162.43</ele><time>2026-08-16T16:27:42.793Z</time><hdop>3.0</hdop><vdop>2.5</vdop><extensions><gom:speed>1.174</gom:speed></extensions></trkpt>
   <trkpt lat="59.3127238585" lon="34.6757779863"><ele>162.423</ele><time>2026-08-16T16:27:43.951Z</time><hdop>3.0</hdop><vdop>2.5</vdop><extensions><gom:speed>1.192</gom:speed></extensions></trkpt>
   <trkpt lat="59.3127346712" lon="34.675774885"><ele>162.244</ele><time>2026-08-16T16:27:44.628Z</time><hdop>3.0</hdop><vdop>2.5</vdop><extensions><gom:speed>1.21</gom:speed></extensions></trkpt>
   <trkpt lat="59.3127415863" lon="34.6757733762"><ele>162.136</ele><time>2026-08-16T16:27:45.148Z</time><hdop>3.0</hdop><vdop>2.5</vdop><extensions><gom:speed>1.219</gom:speed></extensions></trkpt>
   <trkpt lat="59.3127516865" lon="34.6757669222"><ele>161.978</ele><time>2026-08-16T16:27:45.845Z</time><hdop>3.0</hdop><vdop>2.5</vdop><extensions><gom:speed>1.203</gom:speed></extensions></trkpt>
   <trkpt lat="59.3127596912" lon="34.6757613901"><ele>161.76</ele><time>2026-08-16T16:27:46.346Z</time><hdop>3.0</hdop><vdop>2.5</vdop><extensions><gom:speed>1.194</gom:speed></extensions></trkpt>
   <trkpt lat="59.3127656842" lon="34.6757597976"><ele>161.63</ele><time>2026-08-16T16:27:46.827Z</time><hdop>3.0</hdop><vdop>2.5</vdop><extensions><gom:speed>1.203</gom:speed></extensions></trkpt>
   <trkpt lat="59.3127734794" lon="34.6757578697"><ele>161.388</ele><time>2026-08-16T16:27:47.464Z</time><hdop>3.0</hdop><vdop>2.5</vdop><extensions><gom:speed>1.133</gom:speed></extensions></trkpt>
   <trkpt lat="59.312781065" lon="34.6757564448"><ele>161.262</ele><time>2026-08-16T16:27:48.136Z</time><hdop>3.0</hdop><vdop>2.5</vdop><extensions><gom:speed>1.11</gom:speed></extensions></trkpt>
   <trkpt lat="59.3127885668" lon="34.6757573668"><ele>161.187</ele><time>2026-08-16T16:27:48.848Z</time><hdop>3.0</hdop><vdop>2.5</vdop><extensions><gom:speed>1.047</gom:speed></extensions></trkpt>
   <trkpt lat="59.3127954819" lon="34.6757537626"><ele>161.162</ele><time>2026-08-16T16:27:49.643Z</time><hdop>3.0</hdop><vdop>2.5</vdop><extensions><gom:speed>0.978</gom:speed></extensions></trkpt>
   <trkpt lat="59.3127998824" lon="34.6757494878"><ele>161.287</ele><time>2026-08-16T16:27:50.136Z</time><hdop>3.0</hdop><vdop>2.5</vdop><extensions><gom:speed>0.987</gom:speed></extensions></trkpt>
   <trkpt lat="59.3128080967" lon="34.6757432852"><ele>161.228</ele><time>2026-08-16T16:27:51.136Z</time><hdop>3.0</hdop><vdop>2.5</vdop><extensions><gom:speed>0.916</gom:speed></extensions></trkpt>
   <trkpt lat="59.3128118685" lon="34.675742447"><ele>161.192</ele><time>2026-08-16T16:27:51.626Z</time><hdop>3.0</hdop><vdop>2.5</vdop><extensions><gom:speed>0.865</gom:speed></extensions></trkpt>
   <trkpt lat="59.3128154727" lon="34.6757402677"><ele>161.301</ele><time>2026-08-16T16:27:52.136Z</time><hdop>3.0</hdop><vdop>2.5</vdop><extensions><gom:speed>0.868</gom:speed></extensions></trkpt>
   <trkpt lat="59.3128215915" lon="34.6757372502"><ele>161.366</ele><time>2026-08-16T16:27:52.892Z</time><hdop>3.0</hdop><vdop>2.5</vdop><extensions><gom:speed>0.867</gom:speed></extensions></trkpt>
   <trkpt lat="59.3128291772" lon="34.6757343166"><ele>161.429</ele><time>2026-08-16T16:27:53.726Z</time><hdop>3.0</hdop><vdop>2.5</vdop><extensions><gom:speed>0.931</gom:speed></extensions></trkpt>
   <trkpt lat="59.3128333681" lon="34.6757313829"><ele>161.273</ele><time>2026-08-16T16:27:54.188Z</time><hdop>3.0</hdop><vdop>2.5</vdop><extensions><gom:speed>0.946</gom:speed></extensions></trkpt>
   <trkpt lat="59.3128400736" lon="34.6757302933"><ele>161.179</ele><time>2026-08-16T16:27:54.924Z</time><hdop>3.0</hdop><vdop>2.5</vdop><extensions><gom:speed>0.943</gom:speed></extensions></trkpt>
   <trkpt lat="59.3128448932" lon="34.6757256832"><ele>161.114</ele><time>2026-08-16T16:27:55.444Z</time><hdop>3.0</hdop><vdop>2.5</vdop><extensions><gom:speed>0.96</gom:speed></extensions></trkpt>
   <trkpt lat="59.312851473" lon="34.6757205703"><ele>161.016</ele><time>2026-08-16T16:27:56.136Z</time><hdop>3.0</hdop><vdop>2.5</vdop><extensions><gom:speed>0.988</gom:speed></extensions></trkpt>
   <trkpt lat="59.3128564602" lon="34.6757152897"><ele>160.957</ele><time>2026-08-16T16:27:56.690Z</time><hdop>3.0</hdop><vdop>2.5</vdop><extensions><gom:speed>0.976</gom:speed></extensions></trkpt>
   <trkpt lat="59.3128652612" lon="34.6756996993"><ele>160.894</ele><time>2026-08-16T16:27:57.790Z</time><hdop>3.0</hdop><vdop>2.5</vdop><extensions><gom:speed>1.019</gom:speed></extensions></trkpt>
   <trkpt lat="59.3128748585" lon="34.6756791636"><ele>160.924</ele><time>2026-08-16T16:27:59.066Z</time><hdop>3.0</hdop><vdop>2.5</vdop><extensions><gom:speed>1.023</gom:speed></extensions></trkpt>
   <trkpt lat="59.3128821927" lon="34.6756723743"><ele>160.962</ele><time>2026-08-16T16:27:59.831Z</time><hdop>3.0</hdop><vdop>2.5</vdop><extensions><gom:speed>1.05</gom:speed></extensions></trkpt>
   <trkpt lat="59.3128864675" lon="34.6756704465"><ele>161.086</ele><time>2026-08-16T16:28:00.292Z</time><hdop>3.0</hdop><vdop>2.5</vdop><extensions><gom:speed>1.049</gom:speed></extensions></trkpt>
   <trkpt lat="59.3128938854" lon="34.6756672613"><ele>161.205</ele><time>2026-08-16T16:28:01.136Z</time><hdop>3.0</hdop><vdop>2.5</vdop><extensions><gom:speed>1.034</gom:speed></extensions></trkpt>
   <trkpt lat="59.3129034827" lon="34.6756690215"><ele>161.277</ele><time>2026-08-16T16:28:02.088Z</time><hdop>3.0</hdop><vdop>2.5</vdop><extensions><gom:speed>1.038</gom:speed></extensions></trkpt>
   <trkpt lat="59.312906584" lon="34.6756629866"><ele>161.327</ele><time>2026-08-16T16:28:03.011Z</time><hdop>3.0</hdop><vdop>2.5</vdop><extensions><gom:speed>0.786</gom:speed></extensions></trkpt>
   <trkpt lat="59.3129085957" lon="34.6756591309"><ele>161.565</ele><time>2026-08-16T16:28:04.136Z</time><hdop>3.0</hdop><vdop>2.5</vdop><extensions><gom:speed>0.486</gom:speed></extensions></trkpt>
   <trkpt lat="59.3129074641" lon="34.6756599691"><ele>161.654</ele><time>2026-08-16T16:28:05.136Z</time><hdop>3.0</hdop><vdop>2.5</vdop><extensions><gom:speed>0.461</gom:speed></extensions></trkpt>
   <trkpt lat="59.3129068774" lon="34.675663238"><ele>161.708</ele><time>2026-08-16T16:28:05.592Z</time><hdop>3.0</hdop><vdop>2.5</vdop><extensions><gom:speed>0.358</gom:speed></extensions></trkpt>
   <trkpt lat="59.3129023931" lon="34.6756676804"><ele>161.759</ele><time>2026-08-16T16:28:06.136Z</time><hdop>3.0</hdop><vdop>2.5</vdop><extensions><gom:speed>0.495</gom:speed></extensions></trkpt>
   <trkpt lat="59.3128923767" lon="34.6756782416"><ele>161.693</ele><time>2026-08-16T16:28:07.136Z</time><hdop>3.0</hdop><vdop>2.5</vdop><extensions><gom:speed>0.75</gom:speed></extensions></trkpt>
   <trkpt lat="59.3128802649" lon="34.6756933291"><ele>161.516</ele><time>2026-08-16T16:28:08.136Z</time><hdop>3.0</hdop><vdop>2.5</vdop><extensions><gom:speed>0.975</gom:speed></extensions></trkpt>
   <trkpt lat="59.3128740622" lon="34.6757039741"><ele>161.411</ele><time>2026-08-16T16:28:08.753Z</time><hdop>3.0</hdop><vdop>2.5</vdop><extensions><gom:speed>1.039</gom:speed></extensions></trkpt>
   <trkpt lat="59.3128627886" lon="34.6757300418"><ele>161.388</ele><time>2026-08-16T16:28:09.910Z</time><hdop>3.0</hdop><vdop>2.5</vdop><extensions><gom:speed>1.124</gom:speed></extensions></trkpt>
   <trkpt lat="59.3128539876" lon="34.6757597976"><ele>161.457</ele><time>2026-08-16T16:28:11.069Z</time><hdop>3.0</hdop><vdop>2.5</vdop><extensions><gom:speed>1.141</gom:speed></extensions></trkpt>
   <trkpt lat="59.3128476592" lon="34.675790643"><ele>161.54</ele><time>2026-08-16T16:28:12.136Z</time><hdop>3.0</hdop><vdop>2.5</vdop><extensions><gom:speed>1.117</gom:speed></extensions></trkpt>
   <trkpt lat="59.3128465696" lon="34.6758063171"><ele>161.59</ele><time>2026-08-16T16:28:12.728Z</time><hdop>3.0</hdop><vdop>2.5</vdop><extensions><gom:speed>1.122</gom:speed></extensions></trkpt>
   <trkpt lat="59.3128490842" lon="34.6758256793"><ele>161.711</ele><time>2026-08-16T16:28:13.483Z</time><hdop>3.0</hdop><vdop>2.5</vdop><extensions><gom:speed>1.063</gom:speed></extensions></trkpt>
   <trkpt lat="59.3128522693" lon="34.6758339774"><ele>161.784</ele><time>2026-08-16T16:28:13.964Z</time><hdop>3.0</hdop><vdop>2.5</vdop><extensions><gom:speed>1.051</gom:speed></extensions></trkpt>
   <trkpt lat="59.3128569632" lon="34.6758478914"><ele>161.947</ele><time>2026-08-16T16:28:14.710Z</time><hdop>3.0</hdop><vdop>2.5</vdop><extensions><gom:speed>1.03</gom:speed></extensions></trkpt>
   <trkpt lat="59.3128634591" lon="34.6758694329"><ele>162.105</ele><time>2026-08-16T16:28:15.888Z</time><hdop>3.0</hdop><vdop>2.5</vdop><extensions><gom:speed>1.041</gom:speed></extensions></trkpt>
   <trkpt lat="59.3128673986" lon="34.6758879569"><ele>162.118</ele><time>2026-08-16T16:28:16.712Z</time><hdop>3.0</hdop><vdop>2.5</vdop><extensions><gom:speed>1.045</gom:speed></extensions></trkpt>
   <trkpt lat="59.3128698713" lon="34.675901787"><ele>162.369</ele><time>2026-08-16T16:28:17.331Z</time><hdop>3.0</hdop><vdop>2.5</vdop><extensions><gom:speed>1.049</gom:speed></extensions></trkpt>
   <trkpt lat="59.3128733917" lon="34.6759144437"><ele>162.519</ele><time>2026-08-16T16:28:17.988Z</time><hdop>3.0</hdop><vdop>2.5</vdop><extensions><gom:speed>1.085</gom:speed></extensions></trkpt>
   <trkpt lat="59.3128761996" lon="34.6759238314"><ele>162.718</ele><time>2026-08-16T16:28:18.450Z</time><hdop>3.0</hdop><vdop>2.5</vdop><extensions><gom:speed>1.104</gom:speed></extensions></trkpt>
   <trkpt lat="59.3128813964" lon="34.6759340573"><ele>162.839</ele><time>2026-08-16T16:28:19.136Z</time><hdop>3.0</hdop><vdop>2.5</vdop><extensions><gom:speed>1.109</gom:speed></extensions></trkpt>
   <trkpt lat="59.3128857969" lon="34.6759403438"><ele>162.912</ele><time>2026-08-16T16:28:19.667Z</time><hdop>3.0</hdop><vdop>2.5</vdop><extensions><gom:speed>1.061</gom:speed></extensions></trkpt>
   <trkpt lat="59.3128896945" lon="34.6759455405"><ele>162.932</ele><time>2026-08-16T16:28:20.136Z</time><hdop>3.0</hdop><vdop>2.5</vdop><extensions><gom:speed>1.071</gom:speed></extensions></trkpt>
   <trkpt lat="59.3128948913" lon="34.6759549283"><ele>162.944</ele><time>2026-08-16T16:28:20.864Z</time><hdop>3.0</hdop><vdop>2.5</vdop><extensions><gom:speed>1.032</gom:speed></extensions></trkpt>
   <trkpt lat="59.3129003814" lon="34.6759682555"><ele>162.837</ele><time>2026-08-16T16:28:21.708Z</time><hdop>3.0</hdop><vdop>2.5</vdop><extensions><gom:speed>1.045</gom:speed></extensions></trkpt>
   <trkpt lat="59.3129039856" lon="34.6759774756"><ele>162.702</ele><time>2026-08-16T16:28:22.267Z</time><hdop>3.0</hdop><vdop>2.5</vdop><extensions><gom:speed>1.034</gom:speed></extensions></trkpt>
   <trkpt lat="59.31290847" lon="34.6759871986"><ele>162.621</ele><time>2026-08-16T16:28:22.945Z</time><hdop>3.0</hdop><vdop>2.5</vdop><extensions><gom:speed>1.014</gom:speed></extensions></trkpt>
   <trkpt lat="59.3129110683" lon="34.6759966701"><ele>162.604</ele><time>2026-08-16T16:28:23.504Z</time><hdop>3.0</hdop><vdop>2.5</vdop><extensions><gom:speed>0.995</gom:speed></extensions></trkpt>
   <trkpt lat="59.3129139601" lon="34.6760070637"><ele>162.533</ele><time>2026-08-16T16:28:24.136Z</time><hdop>3.0</hdop><vdop>2.5</vdop><extensions><gom:speed>1.004</gom:speed></extensions></trkpt>
   <trkpt lat="59.3129169776" lon="34.6760183793"><ele>162.49</ele><time>2026-08-16T16:28:24.771Z</time><hdop>3.0</hdop><vdop>2.5</vdop><extensions><gom:speed>1.022</gom:speed></extensions></trkpt>
   <trkpt lat="59.3129236831" lon="34.6760421839"><ele>162.25</ele><time>2026-08-16T16:28:26.087Z</time><hdop>3.0</hdop><vdop>2.5</vdop><extensions><gom:speed>0.99</gom:speed></extensions></trkpt>
   <trkpt lat="59.3129299695" lon="34.6760591991"><ele>162.042</ele><time>2026-08-16T16:28:27.136Z</time><hdop>3.0</hdop><vdop>2.5</vdop><extensions><gom:speed>0.967</gom:speed></extensions></trkpt>
   <trkpt lat="59.3129361721" lon="34.6760715205"><ele>161.917</ele><time>2026-08-16T16:28:27.971Z</time><hdop>3.0</hdop><vdop>2.5</vdop><extensions><gom:speed>1.006</gom:speed></extensions></trkpt>
   <trkpt lat="59.3129416623" lon="34.676082417"><ele>161.843</ele><time>2026-08-16T16:28:28.687Z</time><hdop>3.0</hdop><vdop>2.5</vdop><extensions><gom:speed>1.017</gom:speed></extensions></trkpt>
   <trkpt lat="59.3129516787" lon="34.676096331"><ele>161.801</ele><time>2026-08-16T16:28:29.944Z</time><hdop>3.0</hdop><vdop>2.5</vdop><extensions><gom:speed>0.97</gom:speed></extensions></trkpt>
   <trkpt lat="59.3129582585" lon="34.6761072274"><ele>161.622</ele><time>2026-08-16T16:28:30.768Z</time><hdop>3.0</hdop><vdop>2.5</vdop><extensions><gom:speed>0.993</gom:speed></extensions></trkpt>
   <trkpt lat="59.3129623656" lon="34.6761153579"><ele>161.636</ele><time>2026-08-16T16:28:31.288Z</time><hdop>3.0</hdop><vdop>2.5</vdop><extensions><gom:speed>1.015</gom:speed></extensions></trkpt>
   <trkpt lat="59.3129683587" lon="34.6761270926"><ele>161.644</ele><time>2026-08-16T16:28:32.151Z</time><hdop>3.0</hdop><vdop>2.5</vdop><extensions><gom:speed>0.965</gom:speed></extensions></trkpt>
   <trkpt lat="59.3129715857" lon="34.6761348877"><ele>161.653</ele><time>2026-08-16T16:28:32.750Z</time><hdop>3.0</hdop><vdop>2.5</vdop><extensions><gom:speed>0.926</gom:speed></extensions></trkpt>
   <trkpt lat="59.3129725915" lon="34.6761532441"><ele>161.772</ele><time>2026-08-16T16:28:34.136Z</time><hdop>3.0</hdop><vdop>2.5</vdop><extensions><gom:speed>0.803</gom:speed></extensions></trkpt>
   <trkpt lat="59.3129726753" lon="34.6761668228"><ele>161.844</ele><time>2026-08-16T16:28:35.146Z</time><hdop>3.0</hdop><vdop>2.5</vdop><extensions><gom:speed>0.756</gom:speed></extensions></trkpt>
   <trkpt lat="59.3129755671" lon="34.6761743665"><ele>161.84</ele><time>2026-08-16T16:28:35.646Z</time><hdop>3.0</hdop><vdop>2.5</vdop><extensions><gom:speed>0.887</gom:speed></extensions></trkpt>
   <trkpt lat="59.3129798838" lon="34.6761826646"><ele>161.977</ele><time>2026-08-16T16:28:36.136Z</time><hdop>3.0</hdop><vdop>2.5</vdop><extensions><gom:speed>0.982</gom:speed></extensions></trkpt>
   <trkpt lat="59.3129858768" lon="34.6761954889"><ele>162.059</ele><time>2026-08-16T16:28:36.912Z</time><hdop>3.0</hdop><vdop>2.5</vdop><extensions><gom:speed>0.988</gom:speed></extensions></trkpt>
   <trkpt lat="59.3129931691" lon="34.6762081456"><ele>162.238</ele><time>2026-08-16T16:28:37.726Z</time><hdop>3.0</hdop><vdop>2.5</vdop><extensions><gom:speed>1.032</gom:speed></extensions></trkpt>
   <trkpt lat="59.3129976953" lon="34.6762156893"><ele>162.779</ele><time>2026-08-16T16:28:38.188Z</time><hdop>3.0</hdop><vdop>2.5</vdop><extensions><gom:speed>1.056</gom:speed></extensions></trkpt>
   <trkpt lat="59.3130027664" lon="34.6762293518"><ele>163.102</ele><time>2026-08-16T16:28:38.993Z</time><hdop>3.0</hdop><vdop>2.5</vdop><extensions><gom:speed>1.051</gom:speed></extensions></trkpt>
   <trkpt lat="59.3130065801" lon="34.6762382366"><ele>163.442</ele><time>2026-08-16T16:28:39.464Z</time><hdop>3.0</hdop><vdop>2.5</vdop><extensions><gom:speed>1.095</gom:speed></extensions></trkpt>
   <trkpt lat="59.3130117769" lon="34.6762493845"><ele>163.572</ele><time>2026-08-16T16:28:40.136Z</time><hdop>3.0</hdop><vdop>2.5</vdop><extensions><gom:speed>1.095</gom:speed></extensions></trkpt>
   <trkpt lat="59.3130175604" lon="34.6762605325"><ele>163.649</ele><time>2026-08-16T16:28:40.848Z</time><hdop>3.0</hdop><vdop>2.5</vdop><extensions><gom:speed>1.087</gom:speed></extensions></trkpt>
   <trkpt lat="59.3130222962" lon="34.6762697525"><ele>163.772</ele><time>2026-08-16T16:28:41.505Z</time><hdop>3.0</hdop><vdop>2.5</vdop><extensions><gom:speed>1.076</gom:speed></extensions></trkpt>
   <trkpt lat="59.3130257747" lon="34.6762761228"><ele>163.845</ele><time>2026-08-16T16:28:41.967Z</time><hdop>3.0</hdop><vdop>2.5</vdop><extensions><gom:speed>1.076</gom:speed></extensions></trkpt>
   <trkpt lat="59.3130307619" lon="34.6762889471"><ele>163.942</ele><time>2026-08-16T16:28:42.752Z</time><hdop>3.0</hdop><vdop>2.5</vdop><extensions><gom:speed>1.064</gom:speed></extensions></trkpt>
   <trkpt lat="59.3130331927" lon="34.6762976643"><ele>163.953</ele><time>2026-08-16T16:28:43.233Z</time><hdop>3.0</hdop><vdop>2.5</vdop><extensions><gom:speed>1.058</gom:speed></extensions></trkpt>
   <trkpt lat="59.3130379704" lon="34.6763100695"><ele>163.96</ele><time>2026-08-16T16:28:43.969Z</time><hdop>3.0</hdop><vdop>2.5</vdop><extensions><gom:speed>1.068</gom:speed></extensions></trkpt>
   <trkpt lat="59.3130407783" lon="34.6763357181"><ele>164.057</ele><time>2026-08-16T16:28:45.136Z</time><hdop>3.0</hdop><vdop>2.5</vdop><extensions><gom:speed>1.056</gom:speed></extensions></trkpt>
   <trkpt lat="59.3130449692" lon="34.6763468661"><ele>164.115</ele><time>2026-08-16T16:28:45.785Z</time><hdop>3.0</hdop><vdop>2.5</vdop><extensions><gom:speed>1.086</gom:speed></extensions></trkpt>
   <trkpt lat="59.3130536864" lon="34.6763678208"><ele>164.217</ele><time>2026-08-16T16:28:47.011Z</time><hdop>3.0</hdop><vdop>2.5</vdop><extensions><gom:speed>1.092</gom:speed></extensions></trkpt>
   <trkpt lat="59.3130577936" lon="34.6763808966"><ele>164.232</ele><time>2026-08-16T16:28:47.708Z</time><hdop>3.0</hdop><vdop>2.5</vdop><extensions><gom:speed>1.096</gom:speed></extensions></trkpt>
   <trkpt lat="59.3130629903" lon="34.676386261"><ele>164.354</ele><time>2026-08-16T16:28:48.287Z</time><hdop>3.0</hdop><vdop>2.5</vdop><extensions><gom:speed>1.092</gom:speed></extensions></trkpt>
   <trkpt lat="59.3130710789" lon="34.676392296"><ele>164.426</ele><time>2026-08-16T16:28:49.092Z</time><hdop>3.0</hdop><vdop>2.5</vdop><extensions><gom:speed>1.095</gom:speed></extensions></trkpt>
   <trkpt lat="59.3130795865" lon="34.6763827406"><ele>164.24</ele><time>2026-08-16T16:28:49.809Z</time><hdop>3.0</hdop><vdop>2.5</vdop><extensions><gom:speed>1.08</gom:speed></extensions></trkpt>
   <trkpt lat="59.3130845737" lon="34.676372347"><ele>163.953</ele><time>2026-08-16T16:28:50.348Z</time><hdop>3.0</hdop><vdop>2.5</vdop><extensions><gom:speed>1.098</gom:speed></extensions></trkpt>
   <trkpt lat="59.3130906925" lon="34.6763702516"><ele>163.6</ele><time>2026-08-16T16:28:51.136Z</time><hdop>3.0</hdop><vdop>2.5</vdop><extensions><gom:speed>1.026</gom:speed></extensions></trkpt>
   <trkpt lat="59.3130987811" lon="34.6763810642"><ele>163.328</ele><time>2026-08-16T16:28:52.136Z</time><hdop>3.0</hdop><vdop>2.5</vdop><extensions><gom:speed>0.966</gom:speed></extensions></trkpt>
   <trkpt lat="59.3131062829" lon="34.6763865963"><ele>163.166</ele><time>2026-08-16T16:28:53.008Z</time><hdop>3.0</hdop><vdop>2.5</vdop><extensions><gom:speed>0.96</gom:speed></extensions></trkpt>
   <trkpt lat="59.3131115635" lon="34.6763878536"><ele>162.909</ele><time>2026-08-16T16:28:53.627Z</time><hdop>3.0</hdop><vdop>2.5</vdop><extensions><gom:speed>1.013</gom:speed></extensions></trkpt>
   <trkpt lat="59.3131151677" lon="34.6763891947"><ele>162.518</ele><time>2026-08-16T16:28:54.136Z</time><hdop>3.0</hdop><vdop>2.5</vdop><extensions><gom:speed>0.977</gom:speed></extensions></trkpt>
   <trkpt lat="59.3131220828" lon="34.676393218"><ele>162.284</ele><time>2026-08-16T16:28:54.931Z</time><hdop>3.0</hdop><vdop>2.5</vdop><extensions><gom:speed>0.981</gom:speed></extensions></trkpt>
   <trkpt lat="59.3131274891" lon="34.676418699"><ele>162.348</ele><time>2026-08-16T16:28:56.136Z</time><hdop>3.0</hdop><vdop>2.5</vdop><extensions><gom:speed>1.042</gom:speed></extensions></trkpt>
   <trkpt lat="59.3131306742" lon="34.6764365524"><ele>162.385</ele><time>2026-08-16T16:28:56.924Z</time><hdop>3.0</hdop><vdop>2.5</vdop><extensions><gom:speed>1.077</gom:speed></extensions></trkpt>
   <trkpt lat="59.3131332726" lon="34.676466392"><ele>162.168</ele><time>2026-08-16T16:28:58.136Z</time><hdop>3.0</hdop><vdop>2.5</vdop><extensions><gom:speed>1.106</gom:speed></extensions></trkpt>
   <trkpt lat="59.3131352843" lon="34.6764804736"><ele>162.038</ele><time>2026-08-16T16:28:58.730Z</time><hdop>3.0</hdop><vdop>2.5</vdop><extensions><gom:speed>1.154</gom:speed></extensions></trkpt>
   <trkpt lat="59.313136793" lon="34.6764970698"><ele>162.096</ele><time>2026-08-16T16:28:59.407Z</time><hdop>3.0</hdop><vdop>2.5</vdop><extensions><gom:speed>1.18</gom:speed></extensions></trkpt>
   <trkpt lat="59.3131385951" lon="34.6765092235"><ele>162.131</ele><time>2026-08-16T16:28:59.967Z</time><hdop>3.0</hdop><vdop>2.5</vdop><extensions><gom:speed>1.177</gom:speed></extensions></trkpt>
   <trkpt lat="59.3131419898" lon="34.6765337825"><ele>162.256</ele><time>2026-08-16T16:29:01.105Z</time><hdop>3.0</hdop><vdop>2.5</vdop><extensions><gom:speed>1.13</gom:speed></extensions></trkpt>
   <trkpt lat="59.3131444624" lon="34.6765500434"><ele>162.424</ele><time>2026-08-16T16:29:01.890Z</time><hdop>3.0</hdop><vdop>2.5</vdop><extensions><gom:speed>1.167</gom:speed></extensions></trkpt>
   <trkpt lat="59.3131456778" lon="34.6765619457"><ele>162.566</ele><time>2026-08-16T16:29:02.450Z</time><hdop>3.0</hdop><vdop>2.5</vdop><extensions><gom:speed>1.148</gom:speed></extensions></trkpt>
   <trkpt lat="59.3131476895" lon="34.6765748538"><ele>162.651</ele><time>2026-08-16T16:29:03.029Z</time><hdop>3.0</hdop><vdop>2.5</vdop><extensions><gom:speed>1.145</gom:speed></extensions></trkpt>
   <trkpt lat="59.3131482762" lon="34.676586337"><ele>162.674</ele><time>2026-08-16T16:29:03.588Z</time><hdop>3.0</hdop><vdop>2.5</vdop><extensions><gom:speed>1.139</gom:speed></extensions></trkpt>
   <trkpt lat="59.3131497849" lon="34.6765959762"><ele>162.797</ele><time>2026-08-16T16:29:04.135Z</time><hdop>3.0</hdop><vdop>2.5</vdop><extensions><gom:speed>1.088</gom:speed></extensions></trkpt>
   <trkpt lat="59.3131522995" lon="34.6766080462"><ele>162.87</ele><time>2026-08-16T16:29:04.767Z</time><hdop>3.0</hdop><vdop>2.5</vdop><extensions><gom:speed>1.138</gom:speed></extensions></trkpt>
   <trkpt lat="59.3131589631" lon="34.6766256482"><ele>163.07</ele><time>2026-08-16T16:29:05.886Z</time><hdop>3.0</hdop><vdop>2.5</vdop><extensions><gom:speed>1.132</gom:speed></extensions></trkpt>
   <trkpt lat="59.3131691891" lon="34.67664149"><ele>163.097</ele><time>2026-08-16T16:29:07.025Z</time><hdop>3.0</hdop><vdop>2.5</vdop><extensions><gom:speed>1.17</gom:speed></extensions></trkpt>
   <trkpt lat="59.3131764813" lon="34.6766490337"><ele>163.095</ele><time>2026-08-16T16:29:07.751Z</time><hdop>3.0</hdop><vdop>2.5</vdop><extensions><gom:speed>1.11</gom:speed></extensions></trkpt>
   <trkpt lat="59.3131817619" lon="34.6766529732"><ele>163.322</ele><time>2026-08-16T16:29:08.310Z</time><hdop>3.0</hdop><vdop>2.5</vdop><extensions><gom:speed>1.094</gom:speed></extensions></trkpt>
   <trkpt lat="59.3131882998" lon="34.67666278"><ele>163.458</ele><time>2026-08-16T16:29:09.066Z</time><hdop>3.0</hdop><vdop>2.5</vdop><extensions><gom:speed>1.109</gom:speed></extensions></trkpt>
   <trkpt lat="59.3131943767" lon="34.6766650431"><ele>163.456</ele><time>2026-08-16T16:29:09.606Z</time><hdop>3.0</hdop><vdop>2.5</vdop><extensions><gom:speed>1.084</gom:speed></extensions></trkpt>
   <trkpt lat="59.3131996992" lon="34.6766695693"><ele>163.462</ele><time>2026-08-16T16:29:10.136Z</time><hdop>3.0</hdop><vdop>2.5</vdop><extensions><gom:speed>1.066</gom:speed></extensions></trkpt>
   <trkpt lat="59.313204393" lon="34.6766788732"><ele>163.465</ele><time>2026-08-16T16:29:10.746Z</time><hdop>3.0</hdop><vdop>2.5</vdop><extensions><gom:speed>1.113</gom:speed></extensions></trkpt>
   <trkpt lat="59.3132111824" lon="34.6766883448"><ele>163.415</ele><time>2026-08-16T16:29:11.531Z</time><hdop>3.0</hdop><vdop>2.5</vdop><extensions><gom:speed>1.117</gom:speed></extensions></trkpt>
   <trkpt lat="59.3132154991" lon="34.6766969782"><ele>163.385</ele><time>2026-08-16T16:29:12.071Z</time><hdop>3.0</hdop><vdop>2.5</vdop><extensions><gom:speed>1.117</gom:speed></extensions></trkpt>
   <trkpt lat="59.3132209892" lon="34.6767063659"><ele>163.405</ele><time>2026-08-16T16:29:12.728Z</time><hdop>3.0</hdop><vdop>2.5</vdop><extensions><gom:speed>1.137</gom:speed></extensions></trkpt>
   <trkpt lat="59.3132249706" lon="34.6767116465"><ele>163.543</ele><time>2026-08-16T16:29:13.190Z</time><hdop>3.0</hdop><vdop>2.5</vdop><extensions><gom:speed>1.117</gom:speed></extensions></trkpt>
   <trkpt lat="59.3132302931" lon="34.6767246384"><ele>163.625</ele><time>2026-08-16T16:29:13.965Z</time><hdop>3.0</hdop><vdop>2.5</vdop><extensions><gom:speed>1.149</gom:speed></extensions></trkpt>
   <trkpt lat="59.3132343584" lon="34.6767302543"><ele>163.648</ele><time>2026-08-16T16:29:14.426Z</time><hdop>3.0</hdop><vdop>2.5</vdop><extensions><gom:speed>1.137</gom:speed></extensions></trkpt>
   <trkpt lat="59.313239597" lon="34.6767425757"><ele>163.661</ele><time>2026-08-16T16:29:15.153Z</time><hdop>3.0</hdop><vdop>2.5</vdop><extensions><gom:speed>1.132</gom:speed></extensions></trkpt>
   <trkpt lat="59.3132438718" lon="34.676749365"><ele>163.652</ele><time>2026-08-16T16:29:15.643Z</time><hdop>3.0</hdop><vdop>2.5</vdop><extensions><gom:speed>1.163</gom:speed></extensions></trkpt>
   <trkpt lat="59.313248398" lon="34.6767539751"><ele>163.454</ele><time>2026-08-16T16:29:16.136Z</time><hdop>3.0</hdop><vdop>2.5</vdop><extensions><gom:speed>1.147</gom:speed></extensions></trkpt>
   <trkpt lat="59.3132546845" lon="34.6767618541"><ele>163.335</ele><time>2026-08-16T16:29:16.792Z</time><hdop>3.0</hdop><vdop>2.5</vdop><extensions><gom:speed>1.188</gom:speed></extensions></trkpt>
   <trkpt lat="59.3132615995" lon="34.6767661289"><ele>163.235</ele><time>2026-08-16T16:29:17.469Z</time><hdop>3.0</hdop><vdop>2.5</vdop><extensions><gom:speed>1.11</gom:speed></extensions></trkpt>
   <trkpt lat="59.3132666706" lon="34.6767722476"><ele>163.175</ele><time>2026-08-16T16:29:18.028Z</time><hdop>3.0</hdop><vdop>2.5</vdop><extensions><gom:speed>1.108</gom:speed></extensions></trkpt>
   <trkpt lat="59.3132721607" lon="34.6767764386"><ele>163.211</ele><time>2026-08-16T16:29:18.607Z</time><hdop>3.0</hdop><vdop>2.5</vdop><extensions><gom:speed>1.091</gom:speed></extensions></trkpt>
   <trkpt lat="59.3132760583" lon="34.6767826412"><ele>163.232</ele><time>2026-08-16T16:29:19.069Z</time><hdop>3.0</hdop><vdop>2.5</vdop><extensions><gom:speed>1.09</gom:speed></extensions></trkpt>
   <trkpt lat="59.3132819676" lon="34.676789682"><ele>162.967</ele><time>2026-08-16T16:29:19.746Z</time><hdop>3.0</hdop><vdop>2.5</vdop><extensions><gom:speed>1.117</gom:speed></extensions></trkpt>
   <trkpt lat="59.3132863681" lon="34.6767939568"><ele>162.666</ele><time>2026-08-16T16:29:20.227Z</time><hdop>3.0</hdop><vdop>2.5</vdop><extensions><gom:speed>1.095</gom:speed></extensions></trkpt>
   <trkpt lat="59.3132920678" lon="34.6768019196"><ele>162.486</ele><time>2026-08-16T16:29:20.884Z</time><hdop>3.0</hdop><vdop>2.5</vdop><extensions><gom:speed>1.116</gom:speed></extensions></trkpt>
   <trkpt lat="59.3132972645" lon="34.6768056914"><ele>162.219</ele><time>2026-08-16T16:29:21.385Z</time><hdop>3.0</hdop><vdop>2.5</vdop><extensions><gom:speed>1.147</gom:speed></extensions></trkpt>
   <trkpt lat="59.3133028804" lon="34.6768125646"><ele>162.059</ele><time>2026-08-16T16:29:21.964Z</time><hdop>3.0</hdop><vdop>2.5</vdop><extensions><gom:speed>1.145</gom:speed></extensions></trkpt>
   <trkpt lat="59.313308161" lon="34.676817929"><ele>162.095</ele><time>2026-08-16T16:29:22.484Z</time><hdop>3.0</hdop><vdop>2.5</vdop><extensions><gom:speed>1.174</gom:speed></extensions></trkpt>
   <trkpt lat="59.3133140702" lon="34.6768258918"><ele>162.116</ele><time>2026-08-16T16:29:23.063Z</time><hdop>3.0</hdop><vdop>2.5</vdop><extensions><gom:speed>1.177</gom:speed></extensions></trkpt>
   <trkpt lat="59.3133180936" lon="34.6768334355"><ele>162.192</ele><time>2026-08-16T16:29:23.564Z</time><hdop>3.0</hdop><vdop>2.5</vdop><extensions><gom:speed>1.182</gom:speed></extensions></trkpt>
   <trkpt lat="59.3133222845" lon="34.6768432424"><ele>162.223</ele><time>2026-08-16T16:29:24.135Z</time><hdop>3.0</hdop><vdop>2.5</vdop><extensions><gom:speed>1.208</gom:speed></extensions></trkpt>
   <trkpt lat="59.3133265593" lon="34.6768548932"><ele>162.242</ele><time>2026-08-16T16:29:24.732Z</time><hdop>3.0</hdop><vdop>2.5</vdop><extensions><gom:speed>1.236</gom:speed></extensions></trkpt>
   <trkpt lat="59.3133339773" lon="34.676877692"><ele>162.328</ele><time>2026-08-16T16:29:25.850Z</time><hdop>3.0</hdop><vdop>2.5</vdop><extensions><gom:speed>1.242</gom:speed></extensions></trkpt>
   <trkpt lat="59.3133383778" lon="34.6768896781"><ele>162.514</ele><time>2026-08-16T16:29:26.469Z</time><hdop>3.0</hdop><vdop>2.5</vdop><extensions><gom:speed>1.236</gom:speed></extensions></trkpt>
   <trkpt lat="59.3133422754" lon="34.6768992335"><ele>162.625</ele><time>2026-08-16T16:29:26.950Z</time><hdop>3.0</hdop><vdop>2.5</vdop><extensions><gom:speed>1.235</gom:speed></extensions></trkpt>
   <trkpt lat="59.3133491904" lon="34.6769101299"><ele>162.632</ele><time>2026-08-16T16:29:27.647Z</time><hdop>3.0</hdop><vdop>2.5</vdop><extensions><gom:speed>1.244</gom:speed></extensions></trkpt>
   <trkpt lat="59.3133547644" lon="34.6769174222"><ele>162.771</ele><time>2026-08-16T16:29:28.136Z</time><hdop>3.0</hdop><vdop>2.5</vdop><extensions><gom:speed>1.262</gom:speed></extensions></trkpt>
   <trkpt lat="59.3133616795" lon="34.6769273967"><ele>162.854</ele><time>2026-08-16T16:29:28.805Z</time><hdop>3.0</hdop><vdop>2.5</vdop><extensions><gom:speed>1.25</gom:speed></extensions></trkpt>
   <trkpt lat="59.3133665829" lon="34.6769372873"><ele>162.861</ele><time>2026-08-16T16:29:29.345Z</time><hdop>3.0</hdop><vdop>2.5</vdop><extensions><gom:speed>1.237</gom:speed></extensions></trkpt>
   <trkpt lat="59.3133716958" lon="34.6769497764"><ele>162.864</ele><time>2026-08-16T16:29:30.012Z</time><hdop>3.0</hdop><vdop>2.5</vdop><extensions><gom:speed>1.21</gom:speed></extensions></trkpt>
   <trkpt lat="59.3133766831" lon="34.6769714855"><ele>163.243</ele><time>2026-08-16T16:29:31.136Z</time><hdop>3.0</hdop><vdop>2.5</vdop><extensions><gom:speed>1.158</gom:speed></extensions></trkpt>
   <trkpt lat="59.3133790719" lon="34.676993949"><ele>163.758</ele><time>2026-08-16T16:29:32.136Z</time><hdop>3.0</hdop><vdop>2.5</vdop><extensions><gom:speed>1.158</gom:speed></extensions></trkpt>
   <trkpt lat="59.3133819637" lon="34.6770110481"><ele>164.065</ele><time>2026-08-16T16:29:32.908Z</time><hdop>3.0</hdop><vdop>2.5</vdop><extensions><gom:speed>1.159</gom:speed></extensions></trkpt>
   <trkpt lat="59.3133890883" lon="34.6770366967"><ele>164.33</ele><time>2026-08-16T16:29:34.125Z</time><hdop>3.0</hdop><vdop>2.5</vdop><extensions><gom:speed>1.174</gom:speed></extensions></trkpt>
   <trkpt lat="59.3133958776" lon="34.6770494372"><ele>164.609</ele><time>2026-08-16T16:29:34.950Z</time><hdop>3.0</hdop><vdop>2.5</vdop><extensions><gom:speed>1.106</gom:speed></extensions></trkpt>
   <trkpt lat="59.3134087858" lon="34.6770596631"><ele>165.191</ele><time>2026-08-16T16:29:36.136Z</time><hdop>3.0</hdop><vdop>2.5</vdop><extensions><gom:speed>1.098</gom:speed></extensions></trkpt>
   <trkpt lat="59.3134147788" lon="34.6770631835"><ele>165.538</ele><time>2026-08-16T16:29:36.648Z</time><hdop>3.0</hdop><vdop>2.5</vdop><extensions><gom:speed>1.126</gom:speed></extensions></trkpt>
   <trkpt lat="59.313420269" lon="34.6770678774"><ele>165.523</ele><time>2026-08-16T16:29:37.136Z</time><hdop>3.0</hdop><vdop>2.5</vdop><extensions><gom:speed>1.129</gom:speed></extensions></trkpt>
   <trkpt lat="59.3134278965" lon="34.6770728227"><ele>165.514</ele><time>2026-08-16T16:29:37.826Z</time><hdop>3.0</hdop><vdop>2.5</vdop><extensions><gom:speed>1.106</gom:speed></extensions></trkpt>
   <trkpt lat="59.3134356917" lon="34.6770812884"><ele>165.518</ele><time>2026-08-16T16:29:38.572Z</time><hdop>3.0</hdop><vdop>2.5</vdop><extensions><gom:speed>1.112</gom:speed></extensions></trkpt>
   <trkpt lat="59.3134405951" lon="34.6770879939"><ele>165.52</ele><time>2026-08-16T16:29:39.072Z</time><hdop>3.0</hdop><vdop>2.5</vdop><extensions><gom:speed>1.121</gom:speed></extensions></trkpt>
   <trkpt lat="59.3134451632" lon="34.6771006506"><ele>165.351</ele><time>2026-08-16T16:29:39.769Z</time><hdop>3.0</hdop><vdop>2.5</vdop><extensions><gom:speed>1.128</gom:speed></extensions></trkpt>
   <trkpt lat="59.3134478873" lon="34.6771090325"><ele>165.015</ele><time>2026-08-16T16:29:40.250Z</time><hdop>3.0</hdop><vdop>2.5</vdop><extensions><gom:speed>1.096</gom:speed></extensions></trkpt>
   <trkpt lat="59.313453587" lon="34.6771209348"><ele>164.814</ele><time>2026-08-16T16:29:40.986Z</time><hdop>3.0</hdop><vdop>2.5</vdop><extensions><gom:speed>1.115</gom:speed></extensions></trkpt>
   <trkpt lat="59.3134622623" lon="34.6771360222"><ele>164.651</ele><time>2026-08-16T16:29:42.136Z</time><hdop>3.0</hdop><vdop>2.5</vdop><extensions><gom:speed>1.122</gom:speed></extensions></trkpt>
   <trkpt lat="59.3134681715" lon="34.6771434821"><ele>164.553</ele><time>2026-08-16T16:29:42.753Z</time><hdop>3.0</hdop><vdop>2.5</vdop><extensions><gom:speed>1.145</gom:speed></extensions></trkpt>
   <trkpt lat="59.3134784813" lon="34.6771525346"><ele>164.561</ele><time>2026-08-16T16:29:43.782Z</time><hdop>3.0</hdop><vdop>2.5</vdop><extensions><gom:speed>1.154</gom:speed></extensions></trkpt>
   <trkpt lat="59.3134895873" lon="34.6771661971"><ele>164.819</ele><time>2026-08-16T16:29:45.049Z</time><hdop>3.0</hdop><vdop>2.5</vdop><extensions><gom:speed>1.14</gom:speed></extensions></trkpt>
   <trkpt lat="59.3134950774" lon="34.6771765907"><ele>164.981</ele><time>2026-08-16T16:29:45.785Z</time><hdop>3.0</hdop><vdop>2.5</vdop><extensions><gom:speed>1.12</gom:speed></extensions></trkpt>
   <trkpt lat="59.3134979692" lon="34.6771838829"><ele>164.969</ele><time>2026-08-16T16:29:46.305Z</time><hdop>3.0</hdop><vdop>2.5</vdop><extensions><gom:speed>1.084</gom:speed></extensions></trkpt>
   <trkpt lat="59.3135022859" lon="34.6771962881"><ele>164.961</ele><time>2026-08-16T16:29:47.032Z</time><hdop>3.0</hdop><vdop>2.5</vdop><extensions><gom:speed>1.096</gom:speed></extensions></trkpt>
   <trkpt lat="59.3135081951" lon="34.6772103697"><ele>164.98</ele><time>2026-08-16T16:29:48.136Z</time><hdop>3.0</hdop><vdop>2.5</vdop><extensions><gom:speed>1.042</gom:speed></extensions></trkpt>
   <trkpt lat="59.3135115898" lon="34.6772186678"><ele>164.991</ele><time>2026-08-16T16:29:48.690Z</time><hdop>3.0</hdop><vdop>2.5</vdop><extensions><gom:speed>1.063</gom:speed></extensions></trkpt>
   <trkpt lat="59.3135214804" lon="34.6772309892"><ele>164.985</ele><time>2026-08-16T16:29:49.829Z</time><hdop>3.0</hdop><vdop>2.5</vdop><extensions><gom:speed>1.097</gom:speed></extensions></trkpt>
   <trkpt lat="59.313527264" lon="34.6772433944"><ele>164.92</ele><time>2026-08-16T16:29:50.624Z</time><hdop>3.0</hdop><vdop>2.5</vdop><extensions><gom:speed>1.115</gom:speed></extensions></trkpt>
   <trkpt lat="59.313530491" lon="34.6772508543"><ele>164.896</ele><time>2026-08-16T16:29:51.136Z</time><hdop>3.0</hdop><vdop>2.5</vdop><extensions><gom:speed>1.103</gom:speed></extensions></trkpt>
   <trkpt lat="59.3135357716" lon="34.6772588171"><ele>164.881</ele><time>2026-08-16T16:29:51.792Z</time><hdop>3.0</hdop><vdop>2.5</vdop><extensions><gom:speed>1.09</gom:speed></extensions></trkpt>
   <trkpt lat="59.313545788" lon="34.6772720605"><ele>164.54</ele><time>2026-08-16T16:29:53.136Z</time><hdop>3.0</hdop><vdop>2.5</vdop><extensions><gom:speed>1.022</gom:speed></extensions></trkpt>
   <trkpt lat="59.3135537927" lon="34.6772814483"><ele>164.208</ele><time>2026-08-16T16:29:54.136Z</time><hdop>3.0</hdop><vdop>2.5</vdop><extensions><gom:speed>1.011</gom:speed></extensions></trkpt>
   <trkpt lat="59.3135586961" lon="34.6772859745"><ele>164.01</ele><time>2026-08-16T16:29:54.726Z</time><hdop>3.0</hdop><vdop>2.5</vdop><extensions><gom:speed>0.998</gom:speed></extensions></trkpt>
   <trkpt lat="59.3135636833" lon="34.6772916742"><ele>163.903</ele><time>2026-08-16T16:29:55.472Z</time><hdop>3.0</hdop><vdop>2.5</vdop><extensions><gom:speed>0.978</gom:speed></extensions></trkpt>
   <trkpt lat="59.3135673714" lon="34.6772958651"><ele>163.84</ele><time>2026-08-16T16:29:55.924Z</time><hdop>3.0</hdop><vdop>2.5</vdop><extensions><gom:speed>0.979</gom:speed></extensions></trkpt>
   <trkpt lat="59.3135757952" lon="34.6773080189"><ele>163.8</ele><time>2026-08-16T16:29:57.136Z</time><hdop>3.0</hdop><vdop>2.5</vdop><extensions><gom:speed>0.991</gom:speed></extensions></trkpt>
   <trkpt lat="59.3135840933" lon="34.677318161"><ele>163.775</ele><time>2026-08-16T16:29:58.136Z</time><hdop>3.0</hdop><vdop>2.5</vdop><extensions><gom:speed>1.011</gom:speed></extensions></trkpt>
   <trkpt lat="59.3135930619" lon="34.6773247827"><ele>163.946</ele><time>2026-08-16T16:29:59.136Z</time><hdop>3.0</hdop><vdop>2.5</vdop><extensions><gom:speed>1.0</gom:speed></extensions></trkpt>
   <trkpt lat="59.3136032878" lon="34.6773270458"><ele>164.116</ele><time>2026-08-16T16:30:00.136Z</time><hdop>3.0</hdop><vdop>2.5</vdop><extensions><gom:speed>1.05</gom:speed></extensions></trkpt>
   <trkpt lat="59.3136127594" lon="34.6773270458"><ele>164.218</ele><time>2026-08-16T16:30:00.988Z</time><hdop>3.0</hdop><vdop>2.5</vdop><extensions><gom:speed>1.054</gom:speed></extensions></trkpt>
   <trkpt lat="59.313624494" lon="34.677327884"><ele>164.339</ele><time>2026-08-16T16:30:02.136Z</time><hdop>3.0</hdop><vdop>2.5</vdop><extensions><gom:speed>1.031</gom:speed></extensions></trkpt>
   <trkpt lat="59.3136330855" lon="34.6773323264"><ele>164.411</ele><time>2026-08-16T16:30:03.010Z</time><hdop>3.0</hdop><vdop>2.5</vdop><extensions><gom:speed>1.018</gom:speed></extensions></trkpt>
   <trkpt lat="59.3136441915" lon="34.6773397863"><ele>164.664</ele><time>2026-08-16T16:30:04.136Z</time><hdop>3.0</hdop><vdop>2.5</vdop><extensions><gom:speed>1.024</gom:speed></extensions></trkpt>
   <trkpt lat="59.3136493883" lon="34.6773430552"><ele>164.816</ele><time>2026-08-16T16:30:04.687Z</time><hdop>3.0</hdop><vdop>2.5</vdop><extensions><gom:speed>1.021</gom:speed></extensions></trkpt>
   <trkpt lat="59.3136586922" lon="34.6773446478"><ele>164.812</ele><time>2026-08-16T16:30:05.532Z</time><hdop>3.0</hdop><vdop>2.5</vdop><extensions><gom:speed>1.064</gom:speed></extensions></trkpt>
   <trkpt lat="59.3136642662" lon="34.6773450669"><ele>164.809</ele><time>2026-08-16T16:30:06.023Z</time><hdop>3.0</hdop><vdop>2.5</vdop><extensions><gom:speed>1.055</gom:speed></extensions></trkpt>
   <trkpt lat="59.3136729833" lon="34.6773446478"><ele>164.923</ele><time>2026-08-16T16:30:06.730Z</time><hdop>3.0</hdop><vdop>2.5</vdop><extensions><gom:speed>1.077</gom:speed></extensions></trkpt>
   <trkpt lat="59.3136792698" lon="34.6773456536"><ele>165.223</ele><time>2026-08-16T16:30:07.251Z</time><hdop>3.0</hdop><vdop>2.5</vdop><extensions><gom:speed>1.073</gom:speed></extensions></trkpt>
   <trkpt lat="59.313688867" lon="34.6773489226"><ele>165.511</ele><time>2026-08-16T16:30:08.136Z</time><hdop>3.0</hdop><vdop>2.5</vdop><extensions><gom:speed>1.089</gom:speed></extensions></trkpt>
   <trkpt lat="59.3136989672" lon="34.6773536164"><ele>165.777</ele><time>2026-08-16T16:30:09.136Z</time><hdop>3.0</hdop><vdop>2.5</vdop><extensions><gom:speed>1.058</gom:speed></extensions></trkpt>
   <trkpt lat="59.3137056728" lon="34.6773602381"><ele>165.936</ele><time>2026-08-16T16:30:09.852Z</time><hdop>3.0</hdop><vdop>2.5</vdop><extensions><gom:speed>1.057</gom:speed></extensions></trkpt>
   <trkpt lat="59.313709277" lon="34.6773734816"><ele>165.936</ele><time>2026-08-16T16:30:10.510Z</time><hdop>3.0</hdop><vdop>2.5</vdop><extensions><gom:speed>1.087</gom:speed></extensions></trkpt>
   <trkpt lat="59.3137122945" lon="34.6773847971"><ele>165.937</ele><time>2026-08-16T16:30:11.069Z</time><hdop>3.0</hdop><vdop>2.5</vdop><extensions><gom:speed>1.103</gom:speed></extensions></trkpt>
   <trkpt lat="59.3137173655" lon="34.6773976214"><ele>166.058</ele><time>2026-08-16T16:30:11.825Z</time><hdop>3.0</hdop><vdop>2.5</vdop><extensions><gom:speed>1.149</gom:speed></extensions></trkpt>
   <trkpt lat="59.3137228976" lon="34.6773992978"><ele>166.407</ele><time>2026-08-16T16:30:12.325Z</time><hdop>3.0</hdop><vdop>2.5</vdop><extensions><gom:speed>1.111</gom:speed></extensions></trkpt>
   <trkpt lat="59.313731489" lon="34.6774030697"><ele>166.616</ele><time>2026-08-16T16:30:13.111Z</time><hdop>3.0</hdop><vdop>2.5</vdop><extensions><gom:speed>1.112</gom:speed></extensions></trkpt>
   <trkpt lat="59.3137371887" lon="34.6774012257"><ele>166.727</ele><time>2026-08-16T16:30:13.631Z</time><hdop>3.0</hdop><vdop>2.5</vdop><extensions><gom:speed>1.105</gom:speed></extensions></trkpt>
   <trkpt lat="59.3137423855" lon="34.6773976214"><ele>166.848</ele><time>2026-08-16T16:30:14.136Z</time><hdop>3.0</hdop><vdop>2.5</vdop><extensions><gom:speed>1.083</gom:speed></extensions></trkpt>
   <trkpt lat="59.3137507674" lon="34.6773932628"><ele>166.92</ele><time>2026-08-16T16:30:14.887Z</time><hdop>3.0</hdop><vdop>2.5</vdop><extensions><gom:speed>1.096</gom:speed></extensions></trkpt>
   <trkpt lat="59.3137622925" lon="34.6773858868"><ele>166.708</ele><time>2026-08-16T16:30:16.027Z</time><hdop>3.0</hdop><vdop>2.5</vdop><extensions><gom:speed>1.094</gom:speed></extensions></trkpt>
   <trkpt lat="59.3137653938" lon="34.6773730625"><ele>166.569</ele><time>2026-08-16T16:30:16.684Z</time><hdop>3.0</hdop><vdop>2.5</vdop><extensions><gom:speed>1.067</gom:speed></extensions></trkpt>
   <trkpt lat="59.3137658967" lon="34.6773646806"><ele>165.878</ele><time>2026-08-16T16:30:17.136Z</time><hdop>3.0</hdop><vdop>2.5</vdop><extensions><gom:speed>1.059</gom:speed></extensions></trkpt>
   <trkpt lat="59.3137662739" lon="34.6773489226"><ele>165.465</ele><time>2026-08-16T16:30:17.931Z</time><hdop>3.0</hdop><vdop>2.5</vdop><extensions><gom:speed>1.026</gom:speed></extensions></trkpt>
   <trkpt lat="59.313769459" lon="34.677338529"><ele>165.03</ele><time>2026-08-16T16:30:19.136Z</time><hdop>3.0</hdop><vdop>2.5</vdop><extensions><gom:speed>0.93</gom:speed></extensions></trkpt>
   <trkpt lat="59.3137695848" lon="34.6773289737"><ele>164.771</ele><time>2026-08-16T16:30:19.866Z</time><hdop>3.0</hdop><vdop>2.5</vdop><extensions><gom:speed>0.914</gom:speed></extensions></trkpt>
   <trkpt lat="59.3137706744" lon="34.6773296442"><ele>164.578</ele><time>2026-08-16T16:30:20.386Z</time><hdop>3.0</hdop><vdop>2.5</vdop><extensions><gom:speed>0.911</gom:speed></extensions></trkpt>
   <trkpt lat="59.3137678665" lon="34.6773208432"><ele>164.462</ele><time>2026-08-16T16:30:21.091Z</time><hdop>3.0</hdop><vdop>2.5</vdop><extensions><gom:speed>0.909</gom:speed></extensions></trkpt>
   <trkpt lat="59.3137701715" lon="34.6773196697"><ele>164.279</ele><time>2026-08-16T16:30:21.671Z</time><hdop>3.0</hdop><vdop>2.5</vdop><extensions><gom:speed>0.944</gom:speed></extensions></trkpt>
   <trkpt lat="59.3137738595" lon="34.6773201727"><ele>164.184</ele><time>2026-08-16T16:30:22.135Z</time><hdop>3.0</hdop><vdop>2.5</vdop><extensions><gom:speed>0.966</gom:speed></extensions></trkpt>
   <trkpt lat="59.3137759969" lon="34.6773119584"><ele>164.127</ele><time>2026-08-16T16:30:22.849Z</time><hdop>3.0</hdop><vdop>2.5</vdop><extensions><gom:speed>0.971</gom:speed></extensions></trkpt>
   <trkpt lat="59.3137825767" lon="34.6773116231"><ele>164.204</ele><time>2026-08-16T16:30:23.468Z</time><hdop>3.0</hdop><vdop>2.5</vdop><extensions><gom:speed>0.925</gom:speed></extensions></trkpt>
   <trkpt lat="59.3137873963" lon="34.6773052529"><ele>164.25</ele><time>2026-08-16T16:30:24.086Z</time><hdop>3.0</hdop><vdop>2.5</vdop><extensions><gom:speed>0.909</gom:speed></extensions></trkpt>
   <trkpt lat="59.313796365" lon="34.6773157302"><ele>164.045</ele><time>2026-08-16T16:30:24.645Z</time><hdop>3.0</hdop><vdop>2.5</vdop><extensions><gom:speed>0.884</gom:speed></extensions></trkpt>
   <trkpt lat="59.3138036991" lon="34.6773261238"><ele>163.755</ele><time>2026-08-16T16:30:25.136Z</time><hdop>3.0</hdop><vdop>2.5</vdop><extensions><gom:speed>0.92</gom:speed></extensions></trkpt>
   <trkpt lat="59.3138100694" lon="34.6773341704"><ele>163.581</ele><time>2026-08-16T16:30:25.705Z</time><hdop>3.0</hdop><vdop>2.5</vdop><extensions><gom:speed>0.975</gom:speed></extensions></trkpt>
   <trkpt lat="59.3138206725" lon="34.6773517724"><ele>163.415</ele><time>2026-08-16T16:30:26.432Z</time><hdop>3.0</hdop><vdop>2.5</vdop><extensions><gom:speed>1.11</gom:speed></extensions></trkpt>
   <trkpt lat="59.3138258693" lon="34.6773600705"><ele>163.315</ele><time>2026-08-16T16:30:26.912Z</time><hdop>3.0</hdop><vdop>2.5</vdop><extensions><gom:speed>1.12</gom:speed></extensions></trkpt>
   <trkpt lat="59.3138422978" lon="34.6773826178"><ele>163.005</ele><time>2026-08-16T16:30:28.110Z</time><hdop>3.0</hdop><vdop>2.5</vdop><extensions><gom:speed>1.167</gom:speed></extensions></trkpt>
   <trkpt lat="59.3138515598" lon="34.6773916703"><ele>162.446</ele><time>2026-08-16T16:30:28.806Z</time><hdop>3.0</hdop><vdop>2.5</vdop><extensions><gom:speed>1.078</gom:speed></extensions></trkpt>
   <trkpt lat="59.3138571757" lon="34.6773971185"><ele>161.976</ele><time>2026-08-16T16:30:29.268Z</time><hdop>3.0</hdop><vdop>2.5</vdop><extensions><gom:speed>1.038</gom:speed></extensions></trkpt>
   <trkpt lat="59.3138642584" lon="34.6774040755"><ele>161.696</ele><time>2026-08-16T16:30:30.004Z</time><hdop>3.0</hdop><vdop>2.5</vdop><extensions><gom:speed>1.04</gom:speed></extensions></trkpt>
   <trkpt lat="59.3138691618" lon="34.6774067577"><ele>161.427</ele><time>2026-08-16T16:30:30.485Z</time><hdop>3.0</hdop><vdop>2.5</vdop><extensions><gom:speed>0.977</gom:speed></extensions></trkpt>
   <trkpt lat="59.3138751968" lon="34.6774119545"><ele>161.122</ele><time>2026-08-16T16:30:31.136Z</time><hdop>3.0</hdop><vdop>2.5</vdop><extensions><gom:speed>0.96</gom:speed></extensions></trkpt>
   <trkpt lat="59.3138798906" lon="34.6774179895"><ele>160.939</ele><time>2026-08-16T16:30:31.712Z</time><hdop>3.0</hdop><vdop>2.5</vdop><extensions><gom:speed>0.988</gom:speed></extensions></trkpt>
   <trkpt lat="59.3138864704" lon="34.6774255332"><ele>160.839</ele><time>2026-08-16T16:30:32.408Z</time><hdop>3.0</hdop><vdop>2.5</vdop><extensions><gom:speed>1.038</gom:speed></extensions></trkpt>
   <trkpt lat="59.3138910805" lon="34.6774308976"><ele>160.778</ele><time>2026-08-16T16:30:32.890Z</time><hdop>3.0</hdop><vdop>2.5</vdop><extensions><gom:speed>1.04</gom:speed></extensions></trkpt>
   <trkpt lat="59.31390336" lon="34.677439531"><ele>160.931</ele><time>2026-08-16T16:30:34.067Z</time><hdop>3.0</hdop><vdop>2.5</vdop><extensions><gom:speed>1.075</gom:speed></extensions></trkpt>
   <trkpt lat="59.3139142983" lon="34.677439028"><ele>161.23</ele><time>2026-08-16T16:30:34.872Z</time><hdop>3.0</hdop><vdop>2.5</vdop><extensions><gom:speed>1.115</gom:speed></extensions></trkpt>
   <trkpt lat="59.3139293858" lon="34.677440453"><ele>161.627</ele><time>2026-08-16T16:30:36.130Z</time><hdop>3.0</hdop><vdop>2.5</vdop><extensions><gom:speed>1.081</gom:speed></extensions></trkpt>
   <trkpt lat="59.3139344987" lon="34.6774475776"><ele>161.769</ele><time>2026-08-16T16:30:36.650Z</time><hdop>3.0</hdop><vdop>2.5</vdop><extensions><gom:speed>1.047</gom:speed></extensions></trkpt>
   <trkpt lat="59.3139385639" lon="34.6774553728"><ele>161.707</ele><time>2026-08-16T16:30:37.136Z</time><hdop>3.0</hdop><vdop>2.5</vdop><extensions><gom:speed>1.002</gom:speed></extensions></trkpt>
   <trkpt lat="59.3139437607" lon="34.6774665207"><ele>161.67</ele><time>2026-08-16T16:30:37.867Z</time><hdop>3.0</hdop><vdop>2.5</vdop><extensions><gom:speed>1.029</gom:speed></extensions></trkpt>
   <trkpt lat="59.3139531904" lon="34.6774843741"><ele>161.685</ele><time>2026-08-16T16:30:39.064Z</time><hdop>3.0</hdop><vdop>2.5</vdop><extensions><gom:speed>1.014</gom:speed></extensions></trkpt>
   <trkpt lat="59.3139611951" lon="34.6774930913"><ele>161.757</ele><time>2026-08-16T16:30:39.790Z</time><hdop>3.0</hdop><vdop>2.5</vdop><extensions><gom:speed>1.004</gom:speed></extensions></trkpt>
   <trkpt lat="59.3139688645" lon="34.6774988748"><ele>161.77</ele><time>2026-08-16T16:30:40.389Z</time><hdop>3.0</hdop><vdop>2.5</vdop><extensions><gom:speed>1.04</gom:speed></extensions></trkpt>
   <trkpt lat="59.3139743966" lon="34.6775050774"><ele>161.778</ele><time>2026-08-16T16:30:40.949Z</time><hdop>3.0</hdop><vdop>2.5</vdop><extensions><gom:speed>1.04</gom:speed></extensions></trkpt>
   <trkpt lat="59.3139788809" lon="34.6775150519"><ele>161.676</ele><time>2026-08-16T16:30:41.469Z</time><hdop>3.0</hdop><vdop>2.5</vdop><extensions><gom:speed>1.088</gom:speed></extensions></trkpt>
   <trkpt lat="59.3139823594" lon="34.6775289659"><ele>161.615</ele><time>2026-08-16T16:30:42.146Z</time><hdop>3.0</hdop><vdop>2.5</vdop><extensions><gom:speed>1.095</gom:speed></extensions></trkpt>
   <trkpt lat="59.3139840777" lon="34.6775394432"><ele>161.561</ele><time>2026-08-16T16:30:42.607Z</time><hdop>3.0</hdop><vdop>2.5</vdop><extensions><gom:speed>1.103</gom:speed></extensions></trkpt>
   <trkpt lat="59.3139859636" lon="34.6775509264"><ele>161.271</ele><time>2026-08-16T16:30:43.136Z</time><hdop>3.0</hdop><vdop>2.5</vdop><extensions><gom:speed>1.066</gom:speed></extensions></trkpt>
   <trkpt lat="59.3139879753" lon="34.6775665168"><ele>161.097</ele><time>2026-08-16T16:30:43.844Z</time><hdop>3.0</hdop><vdop>2.5</vdop><extensions><gom:speed>1.065</gom:speed></extensions></trkpt>
   <trkpt lat="59.3139890649" lon="34.6775855437"><ele>161.08</ele><time>2026-08-16T16:30:44.630Z</time><hdop>3.0</hdop><vdop>2.5</vdop><extensions><gom:speed>1.075</gom:speed></extensions></trkpt>
   <trkpt lat="59.313989484" lon="34.6775966916"><ele>161.071</ele><time>2026-08-16T16:30:45.131Z</time><hdop>3.0</hdop><vdop>2.5</vdop><extensions><gom:speed>1.066</gom:speed></extensions></trkpt>
   <trkpt lat="59.313990867" lon="34.6776170597"><ele>161.132</ele><time>2026-08-16T16:30:46.136Z</time><hdop>3.0</hdop><vdop>2.5</vdop><extensions><gom:speed>1.023</gom:speed></extensions></trkpt>
   <trkpt lat="59.313991789" lon="34.6776331529"><ele>161.168</ele><time>2026-08-16T16:30:47.005Z</time><hdop>3.0</hdop><vdop>2.5</vdop><extensions><gom:speed>0.976</gom:speed></extensions></trkpt>
   <trkpt lat="59.3139941779" lon="34.677643295"><ele>161.192</ele><time>2026-08-16T16:30:47.545Z</time><hdop>3.0</hdop><vdop>2.5</vdop><extensions><gom:speed>1.01</gom:speed></extensions></trkpt>
   <trkpt lat="59.3139977821" lon="34.6776537724"><ele>161.077</ele><time>2026-08-16T16:30:48.136Z</time><hdop>3.0</hdop><vdop>2.5</vdop><extensions><gom:speed>0.991</gom:speed></extensions></trkpt>
   <trkpt lat="59.3140025598" lon="34.6776645851"><ele>161.008</ele><time>2026-08-16T16:30:48.870Z</time><hdop>3.0</hdop><vdop>2.5</vdop><extensions><gom:speed>0.956</gom:speed></extensions></trkpt>
   <trkpt lat="59.3140057868" lon="34.6776740566"><ele>160.994</ele><time>2026-08-16T16:30:49.448Z</time><hdop>3.0</hdop><vdop>2.5</vdop><extensions><gom:speed>0.945</gom:speed></extensions></trkpt>
   <trkpt lat="59.3140081757" lon="34.6776822709"><ele>160.986</ele><time>2026-08-16T16:30:49.950Z</time><hdop>3.0</hdop><vdop>2.5</vdop><extensions><gom:speed>0.948</gom:speed></extensions></trkpt>
   <trkpt lat="59.3140119894" lon="34.6776923292"><ele>161.041</ele><time>2026-08-16T16:30:50.549Z</time><hdop>3.0</hdop><vdop>2.5</vdop><extensions><gom:speed>0.967</gom:speed></extensions></trkpt>
   <trkpt lat="59.3140150907" lon="34.6777000405"><ele>161.015</ele><time>2026-08-16T16:30:51.136Z</time><hdop>3.0</hdop><vdop>2.5</vdop><extensions><gom:speed>0.875</gom:speed></extensions></trkpt>
   <trkpt lat="59.3140205809" lon="34.6777110208"><ele>161.273</ele><time>2026-08-16T16:30:52.136Z</time><hdop>3.0</hdop><vdop>2.5</vdop><extensions><gom:speed>0.822</gom:speed></extensions></trkpt>
   <trkpt lat="59.314022383" lon="34.6777160499"><ele>161.428</ele><time>2026-08-16T16:30:52.727Z</time><hdop>3.0</hdop><vdop>2.5</vdop><extensions><gom:speed>0.671</gom:speed></extensions></trkpt>
   <trkpt lat="59.3140251909" lon="34.6777328976"><ele>161.646</ele><time>2026-08-16T16:30:53.886Z</time><hdop>3.0</hdop><vdop>2.5</vdop><extensions><gom:speed>0.794</gom:speed></extensions></trkpt>
   <trkpt lat="59.3140261967" lon="34.6777496614"><ele>161.857</ele><time>2026-08-16T16:30:54.651Z</time><hdop>3.0</hdop><vdop>2.5</vdop><extensions><gom:speed>0.87</gom:speed></extensions></trkpt>
   <trkpt lat="59.3140262806" lon="34.6777585462"><ele>161.983</ele><time>2026-08-16T16:30:55.112Z</time><hdop>3.0</hdop><vdop>2.5</vdop><extensions><gom:speed>0.871</gom:speed></extensions></trkpt>
   <trkpt lat="59.3140256938" lon="34.6777752262"><ele>161.939</ele><time>2026-08-16T16:30:55.868Z</time><hdop>3.0</hdop><vdop>2.5</vdop><extensions><gom:speed>0.905</gom:speed></extensions></trkpt>
   <trkpt lat="59.3140245623" lon="34.6778018806"><ele>162.016</ele><time>2026-08-16T16:30:57.085Z</time><hdop>3.0</hdop><vdop>2.5</vdop><extensions><gom:speed>0.961</gom:speed></extensions></trkpt>
   <trkpt lat="59.3140234726" lon="34.6778135315"><ele>162.016</ele><time>2026-08-16T16:30:57.566Z</time><hdop>3.0</hdop><vdop>2.5</vdop><extensions><gom:speed>0.959</gom:speed></extensions></trkpt>
   <trkpt lat="59.3140226763" lon="34.6778263558"><ele>162.198</ele><time>2026-08-16T16:30:58.136Z</time><hdop>3.0</hdop><vdop>2.5</vdop><extensions><gom:speed>0.96</gom:speed></extensions></trkpt>
   <trkpt lat="59.3140220896" lon="34.6778401859"><ele>162.306</ele><time>2026-08-16T16:30:58.832Z</time><hdop>3.0</hdop><vdop>2.5</vdop><extensions><gom:speed>0.953</gom:speed></extensions></trkpt>
   <trkpt lat="59.3140222992" lon="34.677861476"><ele>162.4</ele><time>2026-08-16T16:31:00.049Z</time><hdop>3.0</hdop><vdop>2.5</vdop><extensions><gom:speed>0.827</gom:speed></extensions></trkpt>
   <trkpt lat="59.3140241851" lon="34.6778708637"><ele>162.225</ele><time>2026-08-16T16:31:01.136Z</time><hdop>3.0</hdop><vdop>2.5</vdop><extensions><gom:speed>0.534</gom:speed></extensions></trkpt>
   <trkpt lat="59.3140290885" lon="34.6778706961"><ele>162.374</ele><time>2026-08-16T16:31:02.136Z</time><hdop>3.0</hdop><vdop>2.5</vdop><extensions><gom:speed>0.548</gom:speed></extensions></trkpt>
   <trkpt lat="59.3140317707" lon="34.6778672595"><ele>162.453</ele><time>2026-08-16T16:31:03.136Z</time><hdop>3.0</hdop><vdop>2.5</vdop><extensions><gom:speed>0.327</gom:speed></extensions></trkpt>
   <trkpt lat="59.3140318964" lon="34.677866086"><ele>162.632</ele><time>2026-08-16T16:31:04.136Z</time><hdop>3.0</hdop><vdop>2.5</vdop><extensions><gom:speed>0.187</gom:speed></extensions></trkpt>
   <trkpt lat="59.3140316869" lon="34.6778637391"><ele>162.771</ele><time>2026-08-16T16:31:05.136Z</time><hdop>3.0</hdop><vdop>2.5</vdop><extensions><gom:speed>0.137</gom:speed></extensions></trkpt>
   <trkpt lat="59.3140332795" lon="34.6778608892"><ele>162.9</ele><time>2026-08-16T16:31:06.136Z</time><hdop>3.0</hdop><vdop>2.5</vdop><extensions><gom:speed>0.229</gom:speed></extensions></trkpt>
   <trkpt lat="59.3140344948" lon="34.6778594643"><ele>162.977</ele><time>2026-08-16T16:31:06.890Z</time><hdop>3.0</hdop><vdop>2.5</vdop><extensions><gom:speed>0.204</gom:speed></extensions></trkpt>
   <trkpt lat="59.3140402783" lon="34.6778541837"><ele>162.913</ele><time>2026-08-16T16:31:07.793Z</time><hdop>3.0</hdop><vdop>2.5</vdop><extensions><gom:speed>0.347</gom:speed></extensions></trkpt>
   <trkpt lat="59.3140507976" lon="34.6778405212"><ele>162.74</ele><time>2026-08-16T16:31:09.136Z</time><hdop>3.0</hdop><vdop>2.5</vdop><extensions><gom:speed>0.521</gom:speed></extensions></trkpt>
   <trkpt lat="59.3140550724" lon="34.6778360788"><ele>162.636</ele><time>2026-08-16T16:31:09.765Z</time><hdop>3.0</hdop><vdop>2.5</vdop><extensions><gom:speed>0.558</gom:speed></extensions></trkpt>
   <trkpt lat="59.3140633705" lon="34.6778272778"><ele>162.534</ele><time>2026-08-16T16:31:10.551Z</time><hdop>3.0</hdop><vdop>2.5</vdop><extensions><gom:speed>0.704</gom:speed></extensions></trkpt>
   <trkpt lat="59.3140679805" lon="34.6778219972"><ele>162.44</ele><time>2026-08-16T16:31:11.136Z</time><hdop>3.0</hdop><vdop>2.5</vdop><extensions><gom:speed>0.689</gom:speed></extensions></trkpt>
   <trkpt lat="59.3140716686" lon="34.6778199855"><ele>162.384</ele><time>2026-08-16T16:31:11.611Z</time><hdop>3.0</hdop><vdop>2.5</vdop><extensions><gom:speed>0.731</gom:speed></extensions></trkpt>
   <trkpt lat="59.3140761948" lon="34.6778190635"><ele>162.499</ele><time>2026-08-16T16:31:12.135Z</time><hdop>3.0</hdop><vdop>2.5</vdop><extensions><gom:speed>0.769</gom:speed></extensions></trkpt>
   <trkpt lat="59.3140833613" lon="34.6778221648"><ele>162.6</ele><time>2026-08-16T16:31:13.136Z</time><hdop>3.0</hdop><vdop>2.5</vdop><extensions><gom:speed>0.746</gom:speed></extensions></trkpt>
   <trkpt lat="59.314089061" lon="34.6778254338"><ele>162.66</ele><time>2026-08-16T16:31:13.927Z</time><hdop>3.0</hdop><vdop>2.5</vdop><extensions><gom:speed>0.772</gom:speed></extensions></trkpt>
   <trkpt lat="59.3140952636" lon="34.6778281998"><ele>162.498</ele><time>2026-08-16T16:31:14.790Z</time><hdop>3.0</hdop><vdop>2.5</vdop><extensions><gom:speed>0.79</gom:speed></extensions></trkpt>
   <trkpt lat="59.3140983649" lon="34.6778291218"><ele>162.502</ele><time>2026-08-16T16:31:15.271Z</time><hdop>3.0</hdop><vdop>2.5</vdop><extensions><gom:speed>0.798</gom:speed></extensions></trkpt>
   <trkpt lat="59.3141022625" lon="34.6778298762"><ele>162.505</ele><time>2026-08-16T16:31:15.772Z</time><hdop>3.0</hdop><vdop>2.5</vdop><extensions><gom:speed>0.817</gom:speed></extensions></trkpt>
   <trkpt lat="59.3141071659" lon="34.6778317202"><ele>162.446</ele><time>2026-08-16T16:31:16.528Z</time><hdop>3.0</hdop><vdop>2.5</vdop><extensions><gom:speed>0.799</gom:speed></extensions></trkpt>
   <trkpt lat="59.3141115664" lon="34.6778346539"><ele>162.411</ele><time>2026-08-16T16:31:17.107Z</time><hdop>3.0</hdop><vdop>2.5</vdop><extensions><gom:speed>0.792</gom:speed></extensions></trkpt>
   <trkpt lat="59.3141147935" lon="34.6778406888"><ele>162.343</ele><time>2026-08-16T16:31:17.666Z</time><hdop>3.0</hdop><vdop>2.5</vdop><extensions><gom:speed>0.8</gom:speed></extensions></trkpt>
   <trkpt lat="59.3141166794" lon="34.677845718"><ele>162.214</ele><time>2026-08-16T16:31:18.136Z</time><hdop>3.0</hdop><vdop>2.5</vdop><extensions><gom:speed>0.757</gom:speed></extensions></trkpt>
   <trkpt lat="59.3141209961" lon="34.6778524235"><ele>162.138</ele><time>2026-08-16T16:31:18.932Z</time><hdop>3.0</hdop><vdop>2.5</vdop><extensions><gom:speed>0.726</gom:speed></extensions></trkpt>
   <trkpt lat="59.3141269891" lon="34.6778634876"><ele>162.217</ele><time>2026-08-16T16:31:20.071Z</time><hdop>3.0</hdop><vdop>2.5</vdop><extensions><gom:speed>0.705</gom:speed></extensions></trkpt>
   <trkpt lat="59.3141296713" lon="34.677870277"><ele>162.314</ele><time>2026-08-16T16:31:20.709Z</time><hdop>3.0</hdop><vdop>2.5</vdop><extensions><gom:speed>0.696</gom:speed></extensions></trkpt>
   <trkpt lat="59.3141350777" lon="34.6778870408"><ele>162.33</ele><time>2026-08-16T16:31:21.886Z</time><hdop>3.0</hdop><vdop>2.5</vdop><extensions><gom:speed>0.78</gom:speed></extensions></trkpt>
   <trkpt lat="59.3141371731" lon="34.6778959256"><ele>162.272</ele><time>2026-08-16T16:31:22.426Z</time><hdop>3.0</hdop><vdop>2.5</vdop><extensions><gom:speed>0.795</gom:speed></extensions></trkpt>
   <trkpt lat="59.3141400649" lon="34.6779072412"><ele>162.299</ele><time>2026-08-16T16:31:23.136Z</time><hdop>3.0</hdop><vdop>2.5</vdop><extensions><gom:speed>0.831</gom:speed></extensions></trkpt>
   <trkpt lat="59.3141423699" lon="34.6779153716"><ele>162.316</ele><time>2026-08-16T16:31:23.624Z</time><hdop>3.0</hdop><vdop>2.5</vdop><extensions><gom:speed>0.849</gom:speed></extensions></trkpt>
   <trkpt lat="59.3141442978" lon="34.6779250946"><ele>162.351</ele><time>2026-08-16T16:31:24.136Z</time><hdop>3.0</hdop><vdop>2.5</vdop><extensions><gom:speed>0.849</gom:speed></extensions></trkpt>
   <trkpt lat="59.3141471895" lon="34.6779373322"><ele>162.373</ele><time>2026-08-16T16:31:24.831Z</time><hdop>3.0</hdop><vdop>2.5</vdop><extensions><gom:speed>0.898</gom:speed></extensions></trkpt>
   <trkpt lat="59.3141503746" lon="34.6779504918"><ele>162.359</ele><time>2026-08-16T16:31:25.567Z</time><hdop>3.0</hdop><vdop>2.5</vdop><extensions><gom:speed>0.922</gom:speed></extensions></trkpt>
   <trkpt lat="59.3141527635" lon="34.6779587899"><ele>162.351</ele><time>2026-08-16T16:31:26.068Z</time><hdop>3.0</hdop><vdop>2.5</vdop><extensions><gom:speed>0.918</gom:speed></extensions></trkpt>
   <trkpt lat="59.3141559905" lon="34.677971698"><ele>162.238</ele><time>2026-08-16T16:31:26.822Z</time><hdop>3.0</hdop><vdop>2.5</vdop><extensions><gom:speed>0.89</gom:speed></extensions></trkpt>
   <trkpt lat="59.31416366" lon="34.6779904734"><ele>162.104</ele><time>2026-08-16T16:31:28.011Z</time><hdop>3.0</hdop><vdop>2.5</vdop><extensions><gom:speed>0.901</gom:speed></extensions></trkpt>
   <trkpt lat="59.3141678928" lon="34.6779939938"><ele>161.976</ele><time>2026-08-16T16:31:28.472Z</time><hdop>3.0</hdop><vdop>2.5</vdop><extensions><gom:speed>0.875</gom:speed></extensions></trkpt>
   <trkpt lat="59.3141730896" lon="34.6779977657"><ele>161.951</ele><time>2026-08-16T16:31:29.136Z</time><hdop>3.0</hdop><vdop>2.5</vdop><extensions><gom:speed>0.841</gom:speed></extensions></trkpt>
   <trkpt lat="59.3141806752" lon="34.6780027948"><ele>162.125</ele><time>2026-08-16T16:31:30.136Z</time><hdop>3.0</hdop><vdop>2.5</vdop><extensions><gom:speed>0.815</gom:speed></extensions></trkpt>
   <trkpt lat="59.3141863749" lon="34.6780083269"><ele>162.229</ele><time>2026-08-16T16:31:30.926Z</time><hdop>3.0</hdop><vdop>2.5</vdop><extensions><gom:speed>0.812</gom:speed></extensions></trkpt>
   <trkpt lat="59.3141938767" lon="34.6780084945"><ele>162.27</ele><time>2026-08-16T16:31:32.136Z</time><hdop>3.0</hdop><vdop>2.5</vdop><extensions><gom:speed>0.629</gom:speed></extensions></trkpt>
   <trkpt lat="59.3141954693" lon="34.6780093327"><ele>162.23</ele><time>2026-08-16T16:31:33.136Z</time><hdop>3.0</hdop><vdop>2.5</vdop><extensions><gom:speed>0.359</gom:speed></extensions></trkpt>
   <trkpt lat="59.3141949664" lon="34.6780069858"><ele>162.192</ele><time>2026-08-16T16:31:34.136Z</time><hdop>3.0</hdop><vdop>2.5</vdop><extensions><gom:speed>0.2</gom:speed></extensions></trkpt>
   <trkpt lat="59.3141937929" lon="34.6780027948"><ele>162.174</ele><time>2026-08-16T16:31:35.136Z</time><hdop>3.0</hdop><vdop>2.5</vdop><extensions><gom:speed>0.085</gom:speed></extensions></trkpt>
   <trkpt lat="59.3141927871" lon="34.6779995259"><ele>162.088</ele><time>2026-08-16T16:31:36.136Z</time><hdop>3.0</hdop><vdop>2.5</vdop><extensions><gom:speed>0.105</gom:speed></extensions></trkpt>
   <trkpt lat="59.3141931643" lon="34.677999023"><ele>161.977</ele><time>2026-08-16T16:31:37.136Z</time><hdop>3.0</hdop><vdop>2.5</vdop><extensions><gom:speed>0.156</gom:speed></extensions></trkpt>
   <trkpt lat="59.3141926613" lon="34.6779992744"><ele>161.91</ele><time>2026-08-16T16:31:38.110Z</time><hdop>3.0</hdop><vdop>2.5</vdop><extensions><gom:speed>0.136</gom:speed></extensions></trkpt>
   <trkpt lat="59.3141960979" lon="34.6780006994"><ele>161.731</ele><time>2026-08-16T16:31:39.136Z</time><hdop>3.0</hdop><vdop>2.5</vdop><extensions><gom:speed>0.281</gom:speed></extensions></trkpt>
   <trkpt lat="59.3141973971" lon="34.6779987715"><ele>161.624</ele><time>2026-08-16T16:31:39.887Z</time><hdop>3.0</hdop><vdop>2.5</vdop><extensions><gom:speed>0.382</gom:speed></extensions></trkpt>
   <trkpt lat="59.3142036835" lon="34.6779886294"><ele>161.552</ele><time>2026-08-16T16:31:40.466Z</time><hdop>3.0</hdop><vdop>2.5</vdop><extensions><gom:speed>1.031</gom:speed></extensions></trkpt>
   <trkpt lat="59.3142051923" lon="34.6779799961"><ele>161.508</ele><time>2026-08-16T16:31:41.045Z</time><hdop>3.062</hdop><vdop>2.5</vdop><extensions><gom:speed>1.035</gom:speed></extensions></trkpt>
   <trkpt lat="59.314208587" lon="34.6779652439"><ele>161.373</ele><time>2026-08-16T16:31:41.565Z</time><hdop>3.062</hdop><vdop>2.5</vdop><extensions><gom:speed>1.067</gom:speed></extensions></trkpt>
   <trkpt lat="59.3142075811" lon="34.6779453788"><ele>160.855</ele><time>2026-08-16T16:31:42.136Z</time><hdop>3.062</hdop><vdop>2.5</vdop><extensions><gom:speed>1.265</gom:speed></extensions></trkpt>
   <trkpt lat="59.3142068687" lon="34.6779266872"><ele>160.546</ele><time>2026-08-16T16:31:42.772Z</time><hdop>3.062</hdop><vdop>2.5</vdop><extensions><gom:speed>1.17</gom:speed></extensions></trkpt>
   <trkpt lat="59.3142068687" lon="34.6779109292"><ele>160.269</ele><time>2026-08-16T16:31:43.391Z</time><hdop>3.062</hdop><vdop>2.562</vdop><extensions><gom:speed>1.085</gom:speed></extensions></trkpt>
   <trkpt lat="59.314207162" lon="34.6778981887"><ele>160.103</ele><time>2026-08-16T16:31:43.988Z</time><hdop>3.062</hdop><vdop>2.562</vdop><extensions><gom:speed>1.085</gom:speed></extensions></trkpt>
   <trkpt lat="59.3142107663" lon="34.6778907288"><ele>159.685</ele><time>2026-08-16T16:31:44.568Z</time><hdop>3.125</hdop><vdop>2.5</vdop><extensions><gom:speed>0.986</gom:speed></extensions></trkpt>
   <trkpt lat="59.3142141609" lon="34.6778823469"><ele>159.435</ele><time>2026-08-16T16:31:45.147Z</time><hdop>3.187</hdop><vdop>2.5</vdop><extensions><gom:speed>0.985</gom:speed></extensions></trkpt>
   <trkpt lat="59.3142211598" lon="34.6778810896"><ele>158.928</ele><time>2026-08-16T16:31:45.746Z</time><hdop>3.25</hdop><vdop>2.5</vdop><extensions><gom:speed>1.126</gom:speed></extensions></trkpt>
   <trkpt lat="59.3142305895" lon="34.6778941654"><ele>158.415</ele><time>2026-08-16T16:31:46.344Z</time><hdop>3.25</hdop><vdop>2.562</vdop><extensions><gom:speed>1.075</gom:speed></extensions></trkpt>
   <trkpt lat="59.3142322658" lon="34.6778987754"><ele>158.109</ele><time>2026-08-16T16:31:46.904Z</time><hdop>3.312</hdop><vdop>2.562</vdop><extensions><gom:speed>1.026</gom:speed></extensions></trkpt>
   <trkpt lat="59.3142516699" lon="34.6779310458"><ele>157.15</ele><time>2026-08-16T16:31:48.136Z</time><hdop>3.437</hdop><vdop>2.5</vdop><extensions><gom:speed>0.966</gom:speed></extensions></trkpt>
   <trkpt lat="59.3142573696" lon="34.6779444568"><ele>156.577</ele><time>2026-08-16T16:31:48.828Z</time><hdop>3.562</hdop><vdop>2.5</vdop><extensions><gom:speed>0.977</gom:speed></extensions></trkpt>
   <trkpt lat="59.3142632789" lon="34.6779662497"><ele>156.167</ele><time>2026-08-16T16:31:49.407Z</time><hdop>3.562</hdop><vdop>2.562</vdop><extensions><gom:speed>0.971</gom:speed></extensions></trkpt>
   <trkpt lat="59.3142730857" lon="34.6779950835"><ele>158.141</ele><time>2026-08-16T16:31:50.136Z</time><hdop>3.562</hdop><vdop>2.5</vdop><extensions><gom:speed>1.014</gom:speed></extensions></trkpt>
   <trkpt lat="59.314279875" lon="34.6780088298"><ele>159.321</ele><time>2026-08-16T16:31:50.791Z</time><hdop>3.5</hdop><vdop>2.5</vdop><extensions><gom:speed>0.924</gom:speed></extensions></trkpt>
   <trkpt lat="59.314290562" lon="34.6780258451"><ele>160.023</ele><time>2026-08-16T16:31:51.448Z</time><hdop>3.375</hdop><vdop>2.5</vdop><extensions><gom:speed>0.862</gom:speed></extensions></trkpt>
   <trkpt lat="59.3142948786" lon="34.678032383"><ele>160.443</ele><time>2026-08-16T16:31:51.949Z</time><hdop>3.25</hdop><vdop>2.5</vdop><extensions><gom:speed>0.872</gom:speed></extensions></trkpt>
   <trkpt lat="59.3143036796" lon="34.6780493982"><ele>160.705</ele><time>2026-08-16T16:31:52.685Z</time><hdop>3.187</hdop><vdop>2.5</vdop><extensions><gom:speed>0.879</gom:speed></extensions></trkpt>
   <trkpt lat="59.3143079963" lon="34.6780593727"><ele>160.684</ele><time>2026-08-16T16:31:53.135Z</time><hdop>3.125</hdop><vdop>2.5</vdop><extensions><gom:speed>0.847</gom:speed></extensions></trkpt>
   <trkpt lat="59.3143138637" lon="34.6780714426"><ele>160.672</ele><time>2026-08-16T16:31:53.912Z</time><hdop>3.0</hdop><vdop>2.5</vdop><extensions><gom:speed>0.861</gom:speed></extensions></trkpt>
   <trkpt lat="59.3143246763" lon="34.6780900505"><ele>160.588</ele><time>2026-08-16T16:31:55.108Z</time><hdop>3.0</hdop><vdop>2.5</vdop><extensions><gom:speed>0.946</gom:speed></extensions></trkpt>
   <trkpt lat="59.3143318848" lon="34.6781030424"><ele>160.478</ele><time>2026-08-16T16:31:55.728Z</time><hdop>3.0</hdop><vdop>2.5</vdop><extensions><gom:speed>1.047</gom:speed></extensions></trkpt>
   <trkpt lat="59.3143367882" lon="34.6781126816"><ele>160.18</ele><time>2026-08-16T16:31:56.346Z</time><hdop>3.0</hdop><vdop>2.5</vdop><extensions><gom:speed>0.969</gom:speed></extensions></trkpt>
   <trkpt lat="59.3143403924" lon="34.6781190518"><ele>160.003</ele><time>2026-08-16T16:31:56.827Z</time><hdop>3.0</hdop><vdop>2.5</vdop><extensions><gom:speed>0.996</gom:speed></extensions></trkpt>
   <trkpt lat="59.3143449605" lon="34.6781220693"><ele>159.948</ele><time>2026-08-16T16:31:57.483Z</time><hdop>3.0</hdop><vdop>2.5</vdop><extensions><gom:speed>0.901</gom:speed></extensions></trkpt>
   <trkpt lat="59.3143484809" lon="34.678122237"><ele>159.788</ele><time>2026-08-16T16:31:58.136Z</time><hdop>3.0</hdop><vdop>2.5</vdop><extensions><gom:speed>0.763</gom:speed></extensions></trkpt>
   <trkpt lat="59.3143538872" lon="34.6781252545"><ele>159.693</ele><time>2026-08-16T16:31:59.006Z</time><hdop>3.0</hdop><vdop>2.5</vdop><extensions><gom:speed>0.791</gom:speed></extensions></trkpt>
   <trkpt lat="59.3143571981" lon="34.6781126816"><ele>159.733</ele><time>2026-08-16T16:32:00.136Z</time><hdop>3.0</hdop><vdop>2.5</vdop><extensions><gom:speed>0.423</gom:speed></extensions></trkpt>
   <trkpt lat="59.314358162" lon="34.6781085745"><ele>159.757</ele><time>2026-08-16T16:32:00.792Z</time><hdop>3.0</hdop><vdop>2.5</vdop><extensions><gom:speed>0.354</gom:speed></extensions></trkpt>
   <trkpt lat="59.3143597965" lon="34.6781043835"><ele>159.759</ele><time>2026-08-16T16:32:02.127Z</time><hdop>3.0</hdop><vdop>2.5</vdop><extensions><gom:speed>0.272</gom:speed></extensions></trkpt>
   <trkpt lat="59.3143599641" lon="34.6781015337"><ele>159.754</ele><time>2026-08-16T16:32:02.951Z</time><hdop>3.0</hdop><vdop>2.5</vdop><extensions><gom:speed>0.203</gom:speed></extensions></trkpt>
   <trkpt lat="59.3143608861" lon="34.6781017851"><ele>159.797</ele><time>2026-08-16T16:32:03.511Z</time><hdop>3.0</hdop><vdop>2.5</vdop><extensions><gom:speed>0.263</gom:speed></extensions></trkpt>
   <trkpt lat="59.3143623949" lon="34.6781043835"><ele>159.653</ele><time>2026-08-16T16:32:04.136Z</time><hdop>3.0</hdop><vdop>2.5</vdop><extensions><gom:speed>0.356</gom:speed></extensions></trkpt>
   <trkpt lat="59.3143639874" lon="34.6781080716"><ele>159.499</ele><time>2026-08-16T16:32:05.136Z</time><hdop>3.0</hdop><vdop>2.5</vdop><extensions><gom:speed>0.332</gom:speed></extensions></trkpt>
   <trkpt lat="59.3143634845" lon="34.678110167"><ele>159.407</ele><time>2026-08-16T16:32:05.591Z</time><hdop>3.0</hdop><vdop>2.5</vdop><extensions><gom:speed>0.319</gom:speed></extensions></trkpt>
   <trkpt lat="59.3143629816" lon="34.67811528"><ele>159.287</ele><time>2026-08-16T16:32:06.136Z</time><hdop>3.0</hdop><vdop>2.5</vdop><extensions><gom:speed>0.403</gom:speed></extensions></trkpt>
   <trkpt lat="59.3143626882" lon="34.6781267632"><ele>159.423</ele><time>2026-08-16T16:32:07.135Z</time><hdop>3.0</hdop><vdop>2.5</vdop><extensions><gom:speed>0.565</gom:speed></extensions></trkpt>
   <trkpt lat="59.314363275" lon="34.6781345584"><ele>159.504</ele><time>2026-08-16T16:32:07.849Z</time><hdop>3.0</hdop><vdop>2.5</vdop><extensions><gom:speed>0.602</gom:speed></extensions></trkpt>
   <trkpt lat="59.3143661667" lon="34.678149562"><ele>159.587</ele><time>2026-08-16T16:32:08.388Z</time><hdop>3.062</hdop><vdop>2.5</vdop><extensions><gom:speed>0.742</gom:speed></extensions></trkpt>
   <trkpt lat="59.3143690585" lon="34.6781580277"><ele>159.637</ele><time>2026-08-16T16:32:09.046Z</time><hdop>3.187</hdop><vdop>2.5</vdop><extensions><gom:speed>0.765</gom:speed></extensions></trkpt>
   <trkpt lat="59.3143733752" lon="34.6781744562"><ele>159.504</ele><time>2026-08-16T16:32:09.586Z</time><hdop>3.25</hdop><vdop>2.687</vdop><extensions><gom:speed>0.848</gom:speed></extensions></trkpt>
   <trkpt lat="59.3143773985" lon="34.6781866938"><ele>159.616</ele><time>2026-08-16T16:32:10.136Z</time><hdop>3.25</hdop><vdop>2.5</vdop><extensions><gom:speed>0.854</gom:speed></extensions></trkpt>
   <trkpt lat="59.3143807932" lon="34.6782005239"><ele>159.684</ele><time>2026-08-16T16:32:10.832Z</time><hdop>3.312</hdop><vdop>2.5</vdop><extensions><gom:speed>0.923</gom:speed></extensions></trkpt>
   <trkpt lat="59.3143878759" lon="34.67822458"><ele>159.68</ele><time>2026-08-16T16:32:12.030Z</time><hdop>3.375</hdop><vdop>2.5</vdop><extensions><gom:speed>0.966</gom:speed></extensions></trkpt>
   <trkpt lat="59.3143967607" lon="34.6782371529"><ele>159.46</ele><time>2026-08-16T16:32:12.825Z</time><hdop>3.375</hdop><vdop>2.5</vdop><extensions><gom:speed>0.995</gom:speed></extensions></trkpt>
   <trkpt lat="59.3144032986" lon="34.6782451995"><ele>159.244</ele><time>2026-08-16T16:32:13.384Z</time><hdop>3.312</hdop><vdop>2.5</vdop><extensions><gom:speed>0.936</gom:speed></extensions></trkpt>
   <trkpt lat="59.3144092916" lon="34.6782536652"><ele>159.116</ele><time>2026-08-16T16:32:14.130Z</time><hdop>3.187</hdop><vdop>2.5</vdop><extensions><gom:speed>0.919</gom:speed></extensions></trkpt>
   <trkpt lat="59.3144200624" lon="34.6782701776"><ele>159.092</ele><time>2026-08-16T16:32:15.136Z</time><hdop>3.125</hdop><vdop>2.5</vdop><extensions><gom:speed>0.935</gom:speed></extensions></trkpt>
   <trkpt lat="59.3144254687" lon="34.6782807388"><ele>159.078</ele><time>2026-08-16T16:32:15.887Z</time><hdop>3.062</hdop><vdop>2.5</vdop><extensions><gom:speed>0.921</gom:speed></extensions></trkpt>
   <trkpt lat="59.3144305817" lon="34.6782937307"><ele>158.988</ele><time>2026-08-16T16:32:16.544Z</time><hdop>3.062</hdop><vdop>2.5</vdop><extensions><gom:speed>0.936</gom:speed></extensions></trkpt>
   <trkpt lat="59.3144344792" lon="34.6783045434"><ele>159.22</ele><time>2026-08-16T16:32:17.136Z</time><hdop>3.062</hdop><vdop>2.5</vdop><extensions><gom:speed>0.882</gom:speed></extensions></trkpt>
   <trkpt lat="59.3144400951" lon="34.6783207204"><ele>159.678</ele><time>2026-08-16T16:32:18.136Z</time><hdop>3.0</hdop><vdop>2.562</vdop><extensions><gom:speed>0.81</gom:speed></extensions></trkpt>
   <trkpt lat="59.3144427773" lon="34.6783302758"><ele>159.952</ele><time>2026-08-16T16:32:18.772Z</time><hdop>3.0</hdop><vdop>2.562</vdop><extensions><gom:speed>0.811</gom:speed></extensions></trkpt>
   <trkpt lat="59.3144463815" lon="34.6783429325"><ele>160.262</ele><time>2026-08-16T16:32:19.508Z</time><hdop>3.0</hdop><vdop>2.562</vdop><extensions><gom:speed>0.863</gom:speed></extensions></trkpt>
   <trkpt lat="59.3144499858" lon="34.6783526555"><ele>160.482</ele><time>2026-08-16T16:32:20.135Z</time><hdop>3.0</hdop><vdop>2.562</vdop><extensions><gom:speed>0.857</gom:speed></extensions></trkpt>
   <trkpt lat="59.3144542605" lon="34.6783626299"><ele>160.613</ele><time>2026-08-16T16:32:20.891Z</time><hdop>3.0</hdop><vdop>2.562</vdop><extensions><gom:speed>0.834</gom:speed></extensions></trkpt>
   <trkpt lat="59.3144575714" lon="34.6783666533"><ele>160.494</ele><time>2026-08-16T16:32:21.344Z</time><hdop>3.0</hdop><vdop>2.562</vdop><extensions><gom:speed>0.774</gom:speed></extensions></trkpt>
   <trkpt lat="59.3144636902" lon="34.6783724368"><ele>160.402</ele><time>2026-08-16T16:32:22.136Z</time><hdop>3.0</hdop><vdop>2.5</vdop><extensions><gom:speed>0.794</gom:speed></extensions></trkpt>
   <trkpt lat="59.3144700604" lon="34.6783745323"><ele>160.347</ele><time>2026-08-16T16:32:22.845Z</time><hdop>3.0</hdop><vdop>2.5</vdop><extensions><gom:speed>0.827</gom:speed></extensions></trkpt>
   <trkpt lat="59.3144764726" lon="34.6783753704"><ele>160.322</ele><time>2026-08-16T16:32:23.483Z</time><hdop>3.0</hdop><vdop>2.5</vdop><extensions><gom:speed>0.834</gom:speed></extensions></trkpt>
   <trkpt lat="59.314482759" lon="34.6783772983"><ele>160.404</ele><time>2026-08-16T16:32:24.136Z</time><hdop>3.0</hdop><vdop>2.5</vdop><extensions><gom:speed>0.829</gom:speed></extensions></trkpt>
   <trkpt lat="59.3144919791" lon="34.6783830818"><ele>160.453</ele><time>2026-08-16T16:32:25.152Z</time><hdop>3.0</hdop><vdop>2.5</vdop><extensions><gom:speed>0.854</gom:speed></extensions></trkpt>
   <trkpt lat="59.3144971759" lon="34.6783862669"><ele>160.621</ele><time>2026-08-16T16:32:25.672Z</time><hdop>3.0</hdop><vdop>2.5</vdop><extensions><gom:speed>0.909</gom:speed></extensions></trkpt>
   <trkpt lat="59.3145014926" lon="34.6783890329"><ele>160.706</ele><time>2026-08-16T16:32:26.135Z</time><hdop>3.0</hdop><vdop>2.5</vdop><extensions><gom:speed>0.887</gom:speed></extensions></trkpt>
   <trkpt lat="59.3145087848" lon="34.6783956546"><ele>160.756</ele><time>2026-08-16T16:32:26.948Z</time><hdop>3.0</hdop><vdop>2.5</vdop><extensions><gom:speed>0.937</gom:speed></extensions></trkpt>
   <trkpt lat="59.3145163704" lon="34.678397331"><ele>160.89</ele><time>2026-08-16T16:32:27.722Z</time><hdop>3.0</hdop><vdop>2.5</vdop><extensions><gom:speed>0.939</gom:speed></extensions></trkpt>
   <trkpt lat="59.314523998" lon="34.6783941459"><ele>161.172</ele><time>2026-08-16T16:32:28.489Z</time><hdop>3.0</hdop><vdop>2.5</vdop><extensions><gom:speed>0.881</gom:speed></extensions></trkpt>
   <trkpt lat="59.3145296977" lon="34.6783880271"><ele>161.622</ele><time>2026-08-16T16:32:29.135Z</time><hdop>3.0</hdop><vdop>2.5</vdop><extensions><gom:speed>0.906</gom:speed></extensions></trkpt>
   <trkpt lat="59.31453326" lon="34.678379729"><ele>161.892</ele><time>2026-08-16T16:32:29.667Z</time><hdop>3.0</hdop><vdop>2.5</vdop><extensions><gom:speed>0.912</gom:speed></extensions></trkpt>
   <trkpt lat="59.3145358584" lon="34.6783713471"><ele>162.032</ele><time>2026-08-16T16:32:30.136Z</time><hdop>3.0</hdop><vdop>2.5</vdop><extensions><gom:speed>0.892</gom:speed></extensions></trkpt>
   <trkpt lat="59.3145422705" lon="34.6783595286"><ele>162.116</ele><time>2026-08-16T16:32:31.109Z</time><hdop>3.0</hdop><vdop>2.5</vdop><extensions><gom:speed>0.859</gom:speed></extensions></trkpt>
   <trkpt lat="59.3145506943" lon="34.678355673"><ele>161.941</ele><time>2026-08-16T16:32:31.963Z</time><hdop>3.0</hdop><vdop>2.5</vdop><extensions><gom:speed>0.877</gom:speed></extensions></trkpt>
   <trkpt lat="59.3145553882" lon="34.6783563435"><ele>161.956</ele><time>2026-08-16T16:32:32.464Z</time><hdop>3.0</hdop><vdop>2.5</vdop><extensions><gom:speed>0.853</gom:speed></extensions></trkpt>
   <trkpt lat="59.3145614651" lon="34.6783573494"><ele>161.875</ele><time>2026-08-16T16:32:33.136Z</time><hdop>3.0</hdop><vdop>2.5</vdop><extensions><gom:speed>0.87</gom:speed></extensions></trkpt>
   <trkpt lat="59.314567081" lon="34.6783573494"><ele>161.826</ele><time>2026-08-16T16:32:33.828Z</time><hdop>3.0</hdop><vdop>2.5</vdop><extensions><gom:speed>0.832</gom:speed></extensions></trkpt>
   <trkpt lat="59.314571691" lon="34.6783487998"><ele>162.074</ele><time>2026-08-16T16:32:34.486Z</time><hdop>3.0</hdop><vdop>2.5</vdop><extensions><gom:speed>0.831</gom:speed></extensions></trkpt>
   <trkpt lat="59.3145742894" lon="34.6783401664"><ele>162.222</ele><time>2026-08-16T16:32:35.084Z</time><hdop>3.0</hdop><vdop>2.5</vdop><extensions><gom:speed>0.831</gom:speed></extensions></trkpt>
   <trkpt lat="59.314577265" lon="34.6783285994"><ele>162.381</ele><time>2026-08-16T16:32:35.712Z</time><hdop>3.0</hdop><vdop>2.5</vdop><extensions><gom:speed>0.876</gom:speed></extensions></trkpt>
   <trkpt lat="59.3145801986" lon="34.6783191279"><ele>162.598</ele><time>2026-08-16T16:32:36.311Z</time><hdop>3.0</hdop><vdop>2.5</vdop><extensions><gom:speed>0.895</gom:speed></extensions></trkpt>
   <trkpt lat="59.314581875" lon="34.6783095725"><ele>162.728</ele><time>2026-08-16T16:32:36.850Z</time><hdop>3.0</hdop><vdop>2.5</vdop><extensions><gom:speed>0.948</gom:speed></extensions></trkpt>
   <trkpt lat="59.3145857726" lon="34.6783031184"><ele>161.64</ele><time>2026-08-16T16:32:37.469Z</time><hdop>3.0</hdop><vdop>2.5</vdop><extensions><gom:speed>1.011</gom:speed></extensions></trkpt>
   <trkpt lat="59.3145872813" lon="34.6782925572"><ele>160.989</ele><time>2026-08-16T16:32:38.067Z</time><hdop>3.0</hdop><vdop>2.5</vdop><extensions><gom:speed>1.011</gom:speed></extensions></trkpt>
   <trkpt lat="59.3145904665" lon="34.678285265"><ele>160.381</ele><time>2026-08-16T16:32:38.686Z</time><hdop>3.0</hdop><vdop>2.5</vdop><extensions><gom:speed>1.032</gom:speed></extensions></trkpt>
   <trkpt lat="59.314594867" lon="34.6782855164"><ele>159.959</ele><time>2026-08-16T16:32:39.136Z</time><hdop>3.0</hdop><vdop>2.5</vdop><extensions><gom:speed>1.023</gom:speed></extensions></trkpt>
   <trkpt lat="59.3146012791" lon="34.6782806549"><ele>159.707</ele><time>2026-08-16T16:32:39.825Z</time><hdop>3.0</hdop><vdop>2.5</vdop><extensions><gom:speed>1.003</gom:speed></extensions></trkpt>
   <trkpt lat="59.314614774" lon="34.6782899588"><ele>159.574</ele><time>2026-08-16T16:32:40.570Z</time><hdop>3.0</hdop><vdop>2.5</vdop><extensions><gom:speed>1.086</gom:speed></extensions></trkpt>
   <trkpt lat="59.3146236588" lon="34.6782997657"><ele>159.533</ele><time>2026-08-16T16:32:41.136Z</time><hdop>3.0</hdop><vdop>2.5</vdop><extensions><gom:speed>1.065</gom:speed></extensions></trkpt>
   <trkpt lat="59.3146318731" lon="34.6783088181"><ele>159.508</ele><time>2026-08-16T16:32:41.847Z</time><hdop>3.0</hdop><vdop>2.5</vdop><extensions><gom:speed>1.023</gom:speed></extensions></trkpt>
   <trkpt lat="59.3146381595" lon="34.6783176191"><ele>159.67</ele><time>2026-08-16T16:32:42.328Z</time><hdop>3.0</hdop><vdop>2.5</vdop><extensions><gom:speed>1.016</gom:speed></extensions></trkpt>
   <trkpt lat="59.3146440687" lon="34.6783272583"><ele>159.766</ele><time>2026-08-16T16:32:43.044Z</time><hdop>3.0</hdop><vdop>2.5</vdop><extensions><gom:speed>1.001</gom:speed></extensions></trkpt>
   <trkpt lat="59.3146503971" lon="34.6783359755"><ele>159.928</ele><time>2026-08-16T16:32:43.603Z</time><hdop>3.0</hdop><vdop>2.5</vdop><extensions><gom:speed>1.005</gom:speed></extensions></trkpt>
   <trkpt lat="59.3146553843" lon="34.6783421781"><ele>160.123</ele><time>2026-08-16T16:32:44.136Z</time><hdop>3.0</hdop><vdop>2.5</vdop><extensions><gom:speed>0.953</gom:speed></extensions></trkpt>
   <trkpt lat="59.3146619641" lon="34.6783548348"><ele>160.239</ele><time>2026-08-16T16:32:45.027Z</time><hdop>3.0</hdop><vdop>2.5</vdop><extensions><gom:speed>0.949</gom:speed></extensions></trkpt>
   <trkpt lat="59.3146668675" lon="34.6783629652"><ele>160.366</ele><time>2026-08-16T16:32:45.684Z</time><hdop>3.0</hdop><vdop>2.5</vdop><extensions><gom:speed>0.952</gom:speed></extensions></trkpt>
   <trkpt lat="59.3146699688" lon="34.6783678267"><ele>160.548</ele><time>2026-08-16T16:32:46.136Z</time><hdop>3.0</hdop><vdop>2.5</vdop><extensions><gom:speed>0.935</gom:speed></extensions></trkpt>
   <trkpt lat="59.3146743693" lon="34.6783801481"><ele>160.657</ele><time>2026-08-16T16:32:46.988Z</time><hdop>3.0</hdop><vdop>2.5</vdop><extensions><gom:speed>0.947</gom:speed></extensions></trkpt>
   <trkpt lat="59.3146793985" lon="34.678385764"><ele>160.931</ele><time>2026-08-16T16:32:47.510Z</time><hdop>3.0</hdop><vdop>2.5</vdop><extensions><gom:speed>0.992</gom:speed></extensions></trkpt>
   <trkpt lat="59.3146854753" lon="34.6783897873"><ele>161.224</ele><time>2026-08-16T16:32:48.136Z</time><hdop>3.0</hdop><vdop>2.5</vdop><extensions><gom:speed>0.911</gom:speed></extensions></trkpt>
   <trkpt lat="59.3146931867" lon="34.6783944812"><ele>161.399</ele><time>2026-08-16T16:32:48.883Z</time><hdop>3.0</hdop><vdop>2.5</vdop><extensions><gom:speed>0.939</gom:speed></extensions></trkpt>
   <trkpt lat="59.3146987607" lon="34.6783923857"><ele>161.685</ele><time>2026-08-16T16:32:49.630Z</time><hdop>3.0</hdop><vdop>2.5</vdop><extensions><gom:speed>0.779</gom:speed></extensions></trkpt>
   <trkpt lat="59.3147024906" lon="34.6783912961"><ele>161.948</ele><time>2026-08-16T16:32:50.136Z</time><hdop>3.0</hdop><vdop>2.5</vdop><extensions><gom:speed>0.766</gom:speed></extensions></trkpt>
   <trkpt lat="59.3147081903" lon="34.6783888653"><ele>162.014</ele><time>2026-08-16T16:32:51.136Z</time><hdop>3.0</hdop><vdop>2.5</vdop><extensions><gom:speed>0.585</gom:speed></extensions></trkpt>
   <trkpt lat="59.3147132613" lon="34.6783813216"><ele>161.901</ele><time>2026-08-16T16:32:52.136Z</time><hdop>3.0</hdop><vdop>2.5</vdop><extensions><gom:speed>0.564</gom:speed></extensions></trkpt>
   <trkpt lat="59.3147188772" lon="34.6783756219"><ele>161.848</ele><time>2026-08-16T16:32:53.136Z</time><hdop>3.0</hdop><vdop>2.5</vdop><extensions><gom:speed>0.586</gom:speed></extensions></trkpt>
   <trkpt lat="59.3147224814" lon="34.6783734426"><ele>161.816</ele><time>2026-08-16T16:32:53.811Z</time><hdop>3.0</hdop><vdop>2.5</vdop><extensions><gom:speed>0.549</gom:speed></extensions></trkpt>
   <trkpt lat="59.3147299832" lon="34.6783729397"><ele>161.79</ele><time>2026-08-16T16:32:54.624Z</time><hdop>3.0</hdop><vdop>2.5</vdop><extensions><gom:speed>0.769</gom:speed></extensions></trkpt>
   <trkpt lat="59.3147349705" lon="34.6783720177"><ele>161.632</ele><time>2026-08-16T16:32:55.135Z</time><hdop>3.0</hdop><vdop>2.5</vdop><extensions><gom:speed>0.8</gom:speed></extensions></trkpt>
   <trkpt lat="59.3147438972" lon="34.6783705928"><ele>161.497</ele><time>2026-08-16T16:32:56.136Z</time><hdop>3.0</hdop><vdop>2.5</vdop><extensions><gom:speed>0.88</gom:speed></extensions></trkpt>
   <trkpt lat="59.3147536621" lon="34.6783676591"><ele>161.534</ele><time>2026-08-16T16:32:57.136Z</time><hdop>3.0</hdop><vdop>2.5</vdop><extensions><gom:speed>0.947</gom:speed></extensions></trkpt>
   <trkpt lat="59.3147580626" lon="34.678364474"><ele>161.556</ele><time>2026-08-16T16:32:57.609Z</time><hdop>3.0</hdop><vdop>2.5</vdop><extensions><gom:speed>0.98</gom:speed></extensions></trkpt>
   <trkpt lat="59.3147624631" lon="34.6783567626"><ele>161.343</ele><time>2026-08-16T16:32:58.136Z</time><hdop>3.0</hdop><vdop>2.5</vdop><extensions><gom:speed>0.988</gom:speed></extensions></trkpt>
   <trkpt lat="59.3147675761" lon="34.678345447"><ele>161.215</ele><time>2026-08-16T16:32:58.865Z</time><hdop>3.0</hdop><vdop>2.5</vdop><extensions><gom:speed>0.966</gom:speed></extensions></trkpt>
   <trkpt lat="59.3147708869" lon="34.6783270907"><ele>161.106</ele><time>2026-08-16T16:32:59.690Z</time><hdop>3.0</hdop><vdop>2.5</vdop><extensions><gom:speed>0.947</gom:speed></extensions></trkpt>
   <trkpt lat="59.3147728986" lon="34.6783182897"><ele>161.041</ele><time>2026-08-16T16:33:00.150Z</time><hdop>3.0</hdop><vdop>2.5</vdop><extensions><gom:speed>0.946</gom:speed></extensions></trkpt>
   <trkpt lat="59.3147764609" lon="34.6783023641"><ele>160.819</ele><time>2026-08-16T16:33:00.966Z</time><hdop>3.0</hdop><vdop>2.5</vdop><extensions><gom:speed>0.951</gom:speed></extensions></trkpt>
   <trkpt lat="59.3147786821" lon="34.6782932278"><ele>160.829</ele><time>2026-08-16T16:33:01.485Z</time><hdop>3.0</hdop><vdop>2.5</vdop><extensions><gom:speed>0.947</gom:speed></extensions></trkpt>
   <trkpt lat="59.3147824959" lon="34.6782856841"><ele>161.017</ele><time>2026-08-16T16:33:02.136Z</time><hdop>3.0</hdop><vdop>2.5</vdop><extensions><gom:speed>0.935</gom:speed></extensions></trkpt>
   <trkpt lat="59.3147871897" lon="34.6782802358"><ele>161.129</ele><time>2026-08-16T16:33:02.771Z</time><hdop>3.0</hdop><vdop>2.5</vdop><extensions><gom:speed>0.917</gom:speed></extensions></trkpt>
   <trkpt lat="59.3147905844" lon="34.6782712672"><ele>161.34</ele><time>2026-08-16T16:33:03.429Z</time><hdop>3.0</hdop><vdop>2.5</vdop><extensions><gom:speed>0.953</gom:speed></extensions></trkpt>
   <trkpt lat="59.3147954878" lon="34.6782668248"><ele>161.465</ele><time>2026-08-16T16:33:04.028Z</time><hdop>3.0</hdop><vdop>2.5</vdop><extensions><gom:speed>0.959</gom:speed></extensions></trkpt>
   <trkpt lat="59.3147992597" lon="34.6782566827"><ele>161.547</ele><time>2026-08-16T16:33:04.725Z</time><hdop>3.0</hdop><vdop>2.5</vdop><extensions><gom:speed>0.941</gom:speed></extensions></trkpt>
   <trkpt lat="59.3148012713" lon="34.6782470435"><ele>161.815</ele><time>2026-08-16T16:33:05.245Z</time><hdop>3.0</hdop><vdop>2.5</vdop><extensions><gom:speed>0.929</gom:speed></extensions></trkpt>
   <trkpt lat="59.3148080607" lon="34.6782396674"><ele>161.975</ele><time>2026-08-16T16:33:06.089Z</time><hdop>3.0</hdop><vdop>2.5</vdop><extensions><gom:speed>0.937</gom:speed></extensions></trkpt>
   <trkpt lat="59.3148107848" lon="34.6782306988"><ele>162.204</ele><time>2026-08-16T16:33:06.570Z</time><hdop>3.0</hdop><vdop>2.5</vdop><extensions><gom:speed>0.972</gom:speed></extensions></trkpt>
   <trkpt lat="59.3148140956" lon="34.678222736"><ele>162.433</ele><time>2026-08-16T16:33:07.136Z</time><hdop>3.0</hdop><vdop>2.5</vdop><extensions><gom:speed>0.96</gom:speed></extensions></trkpt>
   <trkpt lat="59.314822268" lon="34.6782153599"><ele>162.571</ele><time>2026-08-16T16:33:08.012Z</time><hdop>3.0</hdop><vdop>2.5</vdop><extensions><gom:speed>1.015</gom:speed></extensions></trkpt>
   <trkpt lat="59.3148275905" lon="34.6782039605"><ele>162.841</ele><time>2026-08-16T16:33:08.749Z</time><hdop>3.0</hdop><vdop>2.5</vdop><extensions><gom:speed>1.082</gom:speed></extensions></trkpt>
   <trkpt lat="59.3148291831" lon="34.6781916391"><ele>163.245</ele><time>2026-08-16T16:33:09.230Z</time><hdop>3.0</hdop><vdop>2.5</vdop><extensions><gom:speed>1.051</gom:speed></extensions></trkpt>
   <trkpt lat="59.3148345894" lon="34.6781776413"><ele>163.487</ele><time>2026-08-16T16:33:10.023Z</time><hdop>3.0</hdop><vdop>2.5</vdop><extensions><gom:speed>1.102</gom:speed></extensions></trkpt>
   <trkpt lat="59.3148345894" lon="34.6781658229"><ele>163.818</ele><time>2026-08-16T16:33:10.486Z</time><hdop>3.0</hdop><vdop>2.5</vdop><extensions><gom:speed>1.053</gom:speed></extensions></trkpt>
   <trkpt lat="59.3148364753" lon="34.6781537529"><ele>164.084</ele><time>2026-08-16T16:33:11.136Z</time><hdop>3.0</hdop><vdop>2.5</vdop><extensions><gom:speed>1.015</gom:speed></extensions></trkpt>
   <trkpt lat="59.3148406663" lon="34.6781440299"><ele>164.243</ele><time>2026-08-16T16:33:11.791Z</time><hdop>3.0</hdop><vdop>2.5</vdop><extensions><gom:speed>1.039</gom:speed></extensions></trkpt>
   <trkpt lat="59.3148454859" lon="34.6781326305"><ele>164.228</ele><time>2026-08-16T16:33:12.703Z</time><hdop>3.0</hdop><vdop>2.5</vdop><extensions><gom:speed>1.02</gom:speed></extensions></trkpt>
   <trkpt lat="59.3148461983" lon="34.6781282719"><ele>164.238</ele><time>2026-08-16T16:33:13.185Z</time><hdop>3.0</hdop><vdop>2.5</vdop><extensions><gom:speed>0.953</gom:speed></extensions></trkpt>
   <trkpt lat="59.3148513951" lon="34.6781172916"><ele>164.245</ele><time>2026-08-16T16:33:14.029Z</time><hdop>3.0</hdop><vdop>2.5</vdop><extensions><gom:speed>0.986</gom:speed></extensions></trkpt>
   <trkpt lat="59.3148544964" lon="34.6781158667"><ele>164.219</ele><time>2026-08-16T16:33:14.510Z</time><hdop>3.0</hdop><vdop>2.5</vdop><extensions><gom:speed>0.996</gom:speed></extensions></trkpt>
   <trkpt lat="59.3148593998" lon="34.6781137712"><ele>164.183</ele><time>2026-08-16T16:33:15.136Z</time><hdop>3.0</hdop><vdop>2.5</vdop><extensions><gom:speed>0.952</gom:speed></extensions></trkpt>
   <trkpt lat="59.3148672788" lon="34.6781058923"><ele>164.161</ele><time>2026-08-16T16:33:16.031Z</time><hdop>3.0</hdop><vdop>2.5</vdop><extensions><gom:speed>1.009</gom:speed></extensions></trkpt>
   <trkpt lat="59.314875996" lon="34.6781029586"><ele>164.255</ele><time>2026-08-16T16:33:17.135Z</time><hdop>3.0</hdop><vdop>2.5</vdop><extensions><gom:speed>0.983</gom:speed></extensions></trkpt>
   <trkpt lat="59.3148840845" lon="34.6780971751"><ele>164.338</ele><time>2026-08-16T16:33:18.136Z</time><hdop>3.0</hdop><vdop>2.5</vdop><extensions><gom:speed>1.003</gom:speed></extensions></trkpt>
   <trkpt lat="59.3148883593" lon="34.6780927327"><ele>164.388</ele><time>2026-08-16T16:33:18.632Z</time><hdop>3.0</hdop><vdop>2.5</vdop><extensions><gom:speed>1.048</gom:speed></extensions></trkpt>
   <trkpt lat="59.3148929694" lon="34.6780901343"><ele>164.486</ele><time>2026-08-16T16:33:19.136Z</time><hdop>3.0</hdop><vdop>2.5</vdop><extensions><gom:speed>1.01</gom:speed></extensions></trkpt>
   <trkpt lat="59.3148975794" lon="34.6780867815"><ele>164.545</ele><time>2026-08-16T16:33:19.623Z</time><hdop>3.0</hdop><vdop>2.5</vdop><extensions><gom:speed>1.043</gom:speed></extensions></trkpt>
   <trkpt lat="59.3149022733" lon="34.6780816686"><ele>164.58</ele><time>2026-08-16T16:33:20.124Z</time><hdop>3.0</hdop><vdop>2.5</vdop><extensions><gom:speed>1.043</gom:speed></extensions></trkpt>
   <trkpt lat="59.3149094817" lon="34.6780774776"><ele>164.553</ele><time>2026-08-16T16:33:20.948Z</time><hdop>3.0</hdop><vdop>2.5</vdop><extensions><gom:speed>1.026</gom:speed></extensions></trkpt>
   <trkpt lat="59.3149142594" lon="34.6780790702"><ele>164.605</ele><time>2026-08-16T16:33:21.508Z</time><hdop>3.0</hdop><vdop>2.5</vdop><extensions><gom:speed>0.995</gom:speed></extensions></trkpt>
   <trkpt lat="59.314919079" lon="34.678078232"><ele>164.733</ele><time>2026-08-16T16:33:22.136Z</time><hdop>3.0</hdop><vdop>2.5</vdop><extensions><gom:speed>0.941</gom:speed></extensions></trkpt>
   <trkpt lat="59.3149265808" lon="34.678074041"><ele>164.809</ele><time>2026-08-16T16:33:22.950Z</time><hdop>3.0</hdop><vdop>2.5</vdop><extensions><gom:speed>0.986</gom:speed></extensions></trkpt>
   <trkpt lat="59.314933873" lon="34.6780714426"><ele>164.606</ele><time>2026-08-16T16:33:23.784Z</time><hdop>3.0</hdop><vdop>2.5</vdop><extensions><gom:speed>0.975</gom:speed></extensions></trkpt>
   <trkpt lat="59.3149371839" lon="34.6780697663"><ele>164.393</ele><time>2026-08-16T16:33:24.324Z</time><hdop>3.0</hdop><vdop>2.5</vdop><extensions><gom:speed>0.931</gom:speed></extensions></trkpt>
   <trkpt lat="59.3149429674" lon="34.67806063"><ele>164.265</ele><time>2026-08-16T16:33:25.129Z</time><hdop>3.0</hdop><vdop>2.5</vdop><extensions><gom:speed>0.964</gom:speed></extensions></trkpt>
   <trkpt lat="59.3149487928" lon="34.6780571934"><ele>164.347</ele><time>2026-08-16T16:33:25.905Z</time><hdop>3.0</hdop><vdop>2.5</vdop><extensions><gom:speed>0.971</gom:speed></extensions></trkpt>
   <trkpt lat="59.3149559594" lon="34.6780589536"><ele>164.2</ele><time>2026-08-16T16:33:26.788Z</time><hdop>3.0</hdop><vdop>2.5</vdop><extensions><gom:speed>0.9</gom:speed></extensions></trkpt>
   <trkpt lat="59.3149620781" lon="34.6780644857"><ele>164.144</ele><time>2026-08-16T16:33:27.485Z</time><hdop>3.0</hdop><vdop>2.5</vdop><extensions><gom:speed>0.872</gom:speed></extensions></trkpt>
   <trkpt lat="59.3149678617" lon="34.678069431"><ele>164.285</ele><time>2026-08-16T16:33:28.136Z</time><hdop>3.0</hdop><vdop>2.5</vdop><extensions><gom:speed>0.869</gom:speed></extensions></trkpt>
   <trkpt lat="59.3149760759" lon="34.6780730352"><ele>164.369</ele><time>2026-08-16T16:33:29.065Z</time><hdop>3.0</hdop><vdop>2.5</vdop><extensions><gom:speed>0.862</gom:speed></extensions></trkpt>
   <trkpt lat="59.3149818594" lon="34.6780790702"><ele>164.577</ele><time>2026-08-16T16:33:29.664Z</time><hdop>3.0</hdop><vdop>2.5</vdop><extensions><gom:speed>0.812</gom:speed></extensions></trkpt>
   <trkpt lat="59.3149860923" lon="34.6780813333"><ele>164.857</ele><time>2026-08-16T16:33:30.136Z</time><hdop>3.0</hdop><vdop>2.5</vdop><extensions><gom:speed>0.816</gom:speed></extensions></trkpt>
   <trkpt lat="59.314991792" lon="34.6780829258"><ele>164.92</ele><time>2026-08-16T16:33:31.136Z</time><hdop>3.0</hdop><vdop>2.5</vdop><extensions><gom:speed>0.602</gom:speed></extensions></trkpt>
   <trkpt lat="59.3149935941" lon="34.678087033"><ele>164.721</ele><time>2026-08-16T16:33:32.136Z</time><hdop>3.0</hdop><vdop>2.5</vdop><extensions><gom:speed>0.409</gom:speed></extensions></trkpt>
   <trkpt lat="59.3149926721" lon="34.6780905534"><ele>164.621</ele><time>2026-08-16T16:33:33.136Z</time><hdop>3.0</hdop><vdop>2.5</vdop><extensions><gom:speed>0.218</gom:speed></extensions></trkpt>
   <trkpt lat="59.31499087" lon="34.6780933194"><ele>164.502</ele><time>2026-08-16T16:33:34.136Z</time><hdop>3.0</hdop><vdop>2.5</vdop><extensions><gom:speed>0.141</gom:speed></extensions></trkpt>
   <trkpt lat="59.3149903671" lon="34.6780942414"><ele>164.431</ele><time>2026-08-16T16:33:35.150Z</time><hdop>3.0</hdop><vdop>2.5</vdop><extensions><gom:speed>0.131</gom:speed></extensions></trkpt>
   <trkpt lat="59.3149910795" lon="34.6780959178"><ele>164.13</ele><time>2026-08-16T16:33:35.768Z</time><hdop>3.0</hdop><vdop>2.5</vdop><extensions><gom:speed>0.089</gom:speed></extensions></trkpt>
   <trkpt lat="59.3149951867" lon="34.6781014498"><ele>163.971</ele><time>2026-08-16T16:33:36.465Z</time><hdop>3.0</hdop><vdop>2.5</vdop><extensions><gom:speed>0.126</gom:speed></extensions></trkpt>
   <trkpt lat="59.3149965697" lon="34.6781028748"><ele>163.876</ele><time>2026-08-16T16:33:37.132Z</time><hdop>3.0</hdop><vdop>2.5</vdop><extensions><gom:speed>0.15</gom:speed></extensions></trkpt>
   <trkpt lat="59.3150041972" lon="34.6781063952"><ele>163.818</ele><time>2026-08-16T16:33:37.888Z</time><hdop>3.0</hdop><vdop>2.5</vdop><extensions><gom:speed>0.356</gom:speed></extensions></trkpt>
   <trkpt lat="59.315014465" lon="34.6781036291"><ele>164.018</ele><time>2026-08-16T16:33:38.507Z</time><hdop>3.0</hdop><vdop>2.5</vdop><extensions><gom:speed>0.639</gom:speed></extensions></trkpt>
   <trkpt lat="59.3150220926" lon="34.6781011984"><ele>164.156</ele><time>2026-08-16T16:33:39.136Z</time><hdop>3.0</hdop><vdop>2.5</vdop><extensions><gom:speed>0.705</gom:speed></extensions></trkpt>
   <trkpt lat="59.3150314803" lon="34.678101366"><ele>164.239</ele><time>2026-08-16T16:33:40.106Z</time><hdop>3.0</hdop><vdop>2.5</vdop><extensions><gom:speed>0.748</gom:speed></extensions></trkpt>
   <trkpt lat="59.315038563" lon="34.6781097479"><ele>164.227</ele><time>2026-08-16T16:33:40.803Z</time><hdop>3.0</hdop><vdop>2.5</vdop><extensions><gom:speed>0.814</gom:speed></extensions></trkpt>
   <trkpt lat="59.3150446818" lon="34.6781192195"><ele>164.172</ele><time>2026-08-16T16:33:41.431Z</time><hdop>3.0</hdop><vdop>2.5</vdop><extensions><gom:speed>0.851</gom:speed></extensions></trkpt>
   <trkpt lat="59.3150504653" lon="34.6781237457"><ele>164.139</ele><time>2026-08-16T16:33:42.109Z</time><hdop>3.0</hdop><vdop>2.5</vdop><extensions><gom:speed>0.849</gom:speed></extensions></trkpt>
   <trkpt lat="59.3150564584" lon="34.6781276852"><ele>163.992</ele><time>2026-08-16T16:33:42.688Z</time><hdop>3.0</hdop><vdop>2.5</vdop><extensions><gom:speed>0.872</gom:speed></extensions></trkpt>
   <trkpt lat="59.3150632896" lon="34.6781325467"><ele>163.943</ele><time>2026-08-16T16:33:43.365Z</time><hdop>3.0</hdop><vdop>2.5</vdop><extensions><gom:speed>0.864</gom:speed></extensions></trkpt>
   <trkpt lat="59.3150679835" lon="34.6781352289"><ele>163.913</ele><time>2026-08-16T16:33:43.885Z</time><hdop>3.0</hdop><vdop>2.5</vdop><extensions><gom:speed>0.885</gom:speed></extensions></trkpt>
   <trkpt lat="59.3150744795" lon="34.6781420183"><ele>164.028</ele><time>2026-08-16T16:33:44.572Z</time><hdop>3.0</hdop><vdop>2.5</vdop><extensions><gom:speed>0.904</gom:speed></extensions></trkpt>
   <trkpt lat="59.3150790895" lon="34.6781463768"><ele>164.096</ele><time>2026-08-16T16:33:45.112Z</time><hdop>3.0</hdop><vdop>2.5</vdop><extensions><gom:speed>0.911</gom:speed></extensions></trkpt>
   <trkpt lat="59.3150863818" lon="34.6781519927"><ele>164.051</ele><time>2026-08-16T16:33:45.868Z</time><hdop>3.0</hdop><vdop>2.5</vdop><extensions><gom:speed>0.949</gom:speed></extensions></trkpt>
   <trkpt lat="59.3150917881" lon="34.6781566866"><ele>164.368</ele><time>2026-08-16T16:33:46.408Z</time><hdop>3.0</hdop><vdop>2.5</vdop><extensions><gom:speed>0.953</gom:speed></extensions></trkpt>
   <trkpt lat="59.3150969849" lon="34.6781633921"><ele>164.558</ele><time>2026-08-16T16:33:47.065Z</time><hdop>3.062</hdop><vdop>2.5</vdop><extensions><gom:speed>0.955</gom:speed></extensions></trkpt>
   <trkpt lat="59.3151019721" lon="34.6781696785"><ele>164.684</ele><time>2026-08-16T16:33:47.566Z</time><hdop>3.0</hdop><vdop>2.5</vdop><extensions><gom:speed>1.026</gom:speed></extensions></trkpt>
   <trkpt lat="59.3151076718" lon="34.6781771384"><ele>164.886</ele><time>2026-08-16T16:33:48.136Z</time><hdop>3.0</hdop><vdop>2.5</vdop><extensions><gom:speed>1.036</gom:speed></extensions></trkpt>
   <trkpt lat="59.3151161794" lon="34.6781887893"><ele>165.007</ele><time>2026-08-16T16:33:48.989Z</time><hdop>3.0</hdop><vdop>2.5</vdop><extensions><gom:speed>1.087</gom:speed></extensions></trkpt>
   <trkpt lat="59.3151234717" lon="34.6781949919"><ele>165.129</ele><time>2026-08-16T16:33:49.646Z</time><hdop>3.0</hdop><vdop>2.5</vdop><extensions><gom:speed>1.1</gom:speed></extensions></trkpt>
   <trkpt lat="59.3151290876" lon="34.6781975903"><ele>165.213</ele><time>2026-08-16T16:33:50.136Z</time><hdop>3.0</hdop><vdop>2.5</vdop><extensions><gom:speed>1.104</gom:speed></extensions></trkpt>
   <trkpt lat="59.3151389782" lon="34.6782020327"><ele>165.263</ele><time>2026-08-16T16:33:51.030Z</time><hdop>3.0</hdop><vdop>2.5</vdop><extensions><gom:speed>1.071</gom:speed></extensions></trkpt>
   <trkpt lat="59.3151448875" lon="34.6781996858"><ele>165.106</ele><time>2026-08-16T16:33:51.590Z</time><hdop>3.0</hdop><vdop>2.5</vdop><extensions><gom:speed>1.084</gom:speed></extensions></trkpt>
   <trkpt lat="59.3151493718" lon="34.6781945728"><ele>165.206</ele><time>2026-08-16T16:33:52.136Z</time><hdop>3.0</hdop><vdop>2.5</vdop><extensions><gom:speed>1.034</gom:speed></extensions></trkpt>
   <trkpt lat="59.3151544847" lon="34.6781753782"><ele>165.389</ele><time>2026-08-16T16:33:53.136Z</time><hdop>3.0</hdop><vdop>2.5</vdop><extensions><gom:speed>1.102</gom:speed></extensions></trkpt>
   <trkpt lat="59.3151551972" lon="34.6781593688"><ele>165.499</ele><time>2026-08-16T16:33:53.848Z</time><hdop>3.0</hdop><vdop>2.5</vdop><extensions><gom:speed>1.046</gom:speed></extensions></trkpt>
   <trkpt lat="59.3151531855" lon="34.6781476341"><ele>166.001</ele><time>2026-08-16T16:33:54.486Z</time><hdop>3.0</hdop><vdop>2.562</vdop><extensions><gom:speed>0.979</gom:speed></extensions></trkpt>
   <trkpt lat="59.3151520959" lon="34.6781428564"><ele>166.112</ele><time>2026-08-16T16:33:55.136Z</time><hdop>3.0</hdop><vdop>2.625</vdop><extensions><gom:speed>0.876</gom:speed></extensions></trkpt>
   <trkpt lat="59.3151518863" lon="34.6781498972"><ele>166.178</ele><time>2026-08-16T16:33:55.909Z</time><hdop>3.0</hdop><vdop>2.625</vdop><extensions><gom:speed>0.923</gom:speed></extensions></trkpt>
   <trkpt lat="59.3151568736" lon="34.6781470474"><ele>166.447</ele><time>2026-08-16T16:33:56.488Z</time><hdop>3.0</hdop><vdop>2.75</vdop><extensions><gom:speed>0.841</gom:speed></extensions></trkpt>
   <trkpt lat="59.315158969" lon="34.6781443652"><ele>166.608</ele><time>2026-08-16T16:33:57.028Z</time><hdop>3.125</hdop><vdop>2.75</vdop><extensions><gom:speed>0.974</gom:speed></extensions></trkpt>
   <trkpt lat="59.3151658841" lon="34.6781516574"><ele>166.275</ele><time>2026-08-16T16:33:57.745Z</time><hdop>3.25</hdop><vdop>2.937</vdop><extensions><gom:speed>0.972</gom:speed></extensions></trkpt>
   <trkpt lat="59.3151720867" lon="34.6781674992"><ele>165.514</ele><time>2026-08-16T16:33:58.343Z</time><hdop>3.375</hdop><vdop>3.0</vdop><extensions><gom:speed>0.921</gom:speed></extensions></trkpt>
   <trkpt lat="59.3151764872" lon="34.6781729475"><ele>165.06</ele><time>2026-08-16T16:33:58.952Z</time><hdop>3.437</hdop><vdop>3.0</vdop><extensions><gom:speed>0.894</gom:speed></extensions></trkpt>
   <trkpt lat="59.3151829832" lon="34.6781863585"><ele>164.598</ele><time>2026-08-16T16:33:59.551Z</time><hdop>3.5</hdop><vdop>3.125</vdop><extensions><gom:speed>0.903</gom:speed></extensions></trkpt>
   <trkpt lat="59.3151887667" lon="34.6781925611"><ele>164.82</ele><time>2026-08-16T16:34:00.136Z</time><hdop>3.5</hdop><vdop>3.187</vdop><extensions><gom:speed>0.854</gom:speed></extensions></trkpt>
   <trkpt lat="59.3151959752" lon="34.6781960815"><ele>164.953</ele><time>2026-08-16T16:34:00.866Z</time><hdop>3.5</hdop><vdop>3.187</vdop><extensions><gom:speed>0.913</gom:speed></extensions></trkpt>
   <trkpt lat="59.3152049857" lon="34.6781987637"><ele>165.214</ele><time>2026-08-16T16:34:01.769Z</time><hdop>3.562</hdop><vdop>2.937</vdop><extensions><gom:speed>0.882</gom:speed></extensions></trkpt>
   <trkpt lat="59.3152092605" lon="34.6782020327"><ele>165.499</ele><time>2026-08-16T16:34:02.269Z</time><hdop>3.437</hdop><vdop>2.75</vdop><extensions><gom:speed>0.83</gom:speed></extensions></trkpt>
   <trkpt lat="59.3152157984" lon="34.6782026194"><ele>165.668</ele><time>2026-08-16T16:34:03.005Z</time><hdop>3.375</hdop><vdop>2.75</vdop><extensions><gom:speed>0.83</gom:speed></extensions></trkpt>
   <trkpt lat="59.3152193607" lon="34.6782105822"><ele>165.858</ele><time>2026-08-16T16:34:04.136Z</time><hdop>3.187</hdop><vdop>2.687</vdop><extensions><gom:speed>0.489</gom:speed></extensions></trkpt>
   <trkpt lat="59.3152236773" lon="34.6782171201"><ele>166.327</ele><time>2026-08-16T16:34:05.136Z</time><hdop>3.125</hdop><vdop>2.625</vdop><extensions><gom:speed>0.63</gom:speed></extensions></trkpt>
   <trkpt lat="59.3152280778" lon="34.6782183774"><ele>166.608</ele><time>2026-08-16T16:34:06.126Z</time><hdop>3.125</hdop><vdop>2.625</vdop><extensions><gom:speed>0.525</gom:speed></extensions></trkpt>
   <trkpt lat="59.3152356635" lon="34.6782150246"><ele>166.818</ele><time>2026-08-16T16:34:07.136Z</time><hdop>3.062</hdop><vdop>2.5</vdop><extensions><gom:speed>0.656</gom:speed></extensions></trkpt>
   <trkpt lat="59.3152427881" lon="34.6782084868"><ele>166.807</ele><time>2026-08-16T16:34:08.135Z</time><hdop>3.0</hdop><vdop>2.5</vdop><extensions><gom:speed>0.727</gom:speed></extensions></trkpt>
   <trkpt lat="59.3152478591" lon="34.6782044634"><ele>166.8</ele><time>2026-08-16T16:34:08.747Z</time><hdop>3.0</hdop><vdop>2.5</vdop><extensions><gom:speed>0.767</gom:speed></extensions></trkpt>
   <trkpt lat="59.3152517986" lon="34.678202368"><ele>166.571</ele><time>2026-08-16T16:34:09.365Z</time><hdop>3.0</hdop><vdop>2.5</vdop><extensions><gom:speed>0.743</gom:speed></extensions></trkpt>
   <trkpt lat="59.3152563668" lon="34.678200021"><ele>166.435</ele><time>2026-08-16T16:34:09.925Z</time><hdop>3.0</hdop><vdop>2.5</vdop><extensions><gom:speed>0.793</gom:speed></extensions></trkpt>
   <trkpt lat="59.3152617731" lon="34.6782012783"><ele>166.336</ele><time>2026-08-16T16:34:10.690Z</time><hdop>3.0</hdop><vdop>2.5</vdop><extensions><gom:speed>0.844</gom:speed></extensions></trkpt>
   <trkpt lat="59.3152657964" lon="34.6782022841"><ele>166.276</ele><time>2026-08-16T16:34:11.151Z</time><hdop>3.0</hdop><vdop>2.5</vdop><extensions><gom:speed>0.837</gom:speed></extensions></trkpt>
   <trkpt lat="59.3152674728" lon="34.6782027871"><ele>166.265</ele><time>2026-08-16T16:34:11.927Z</time><hdop>3.0</hdop><vdop>2.5</vdop><extensions><gom:speed>1.06</gom:speed></extensions></trkpt>
   <trkpt lat="59.3152677662" lon="34.67820329"><ele>166.437</ele><time>2026-08-16T16:34:12.565Z</time><hdop>3.0</hdop><vdop>2.5</vdop><extensions><gom:speed>0.593</gom:speed></extensions></trkpt>
   <trkpt lat="59.315269694" lon="34.6781982608"><ele>166.344</ele><time>2026-08-16T16:34:13.136Z</time><hdop>3.0</hdop><vdop>2.5</vdop><extensions><gom:speed>0.726</gom:speed></extensions></trkpt>
   <trkpt lat="59.3152727953" lon="34.6781908848"><ele>166.289</ele><time>2026-08-16T16:34:13.811Z</time><hdop>3.125</hdop><vdop>2.5</vdop><extensions><gom:speed>0.939</gom:speed></extensions></trkpt>
   <trkpt lat="59.3152801714" lon="34.6781874482"><ele>166.178</ele><time>2026-08-16T16:34:14.528Z</time><hdop>3.25</hdop><vdop>2.5</vdop><extensions><gom:speed>0.993</gom:speed></extensions></trkpt>
   <trkpt lat="59.3152842785" lon="34.6781861909"><ele>166.113</ele><time>2026-08-16T16:34:15.028Z</time><hdop>3.375</hdop><vdop>2.5</vdop><extensions><gom:speed>0.991</gom:speed></extensions></trkpt>
   <trkpt lat="59.3152931633" lon="34.6781845983"><ele>166.029</ele><time>2026-08-16T16:34:15.764Z</time><hdop>3.437</hdop><vdop>2.5</vdop><extensions><gom:speed>0.978</gom:speed></extensions></trkpt>
   <trkpt lat="59.3152985696" lon="34.6781844307"><ele>165.639</ele><time>2026-08-16T16:34:16.226Z</time><hdop>3.437</hdop><vdop>2.5</vdop><extensions><gom:speed>0.962</gom:speed></extensions></trkpt>
   <trkpt lat="59.3153070773" lon="34.6781813294"><ele>165.406</ele><time>2026-08-16T16:34:17.070Z</time><hdop>3.437</hdop><vdop>2.5</vdop><extensions><gom:speed>0.992</gom:speed></extensions></trkpt>
   <trkpt lat="59.3153114778" lon="34.6781788986"><ele>165.37</ele><time>2026-08-16T16:34:17.649Z</time><hdop>3.437</hdop><vdop>2.5</vdop><extensions><gom:speed>0.961</gom:speed></extensions></trkpt>
   <trkpt lat="59.3153137828" lon="34.6781767193"><ele>165.21</ele><time>2026-08-16T16:34:18.136Z</time><hdop>3.437</hdop><vdop>2.5</vdop><extensions><gom:speed>0.902</gom:speed></extensions></trkpt>
   <trkpt lat="59.3153211589" lon="34.6781737857"><ele>165.114</ele><time>2026-08-16T16:34:19.131Z</time><hdop>3.375</hdop><vdop>2.5</vdop><extensions><gom:speed>0.87</gom:speed></extensions></trkpt>
   <trkpt lat="59.3153243859" lon="34.6781735342"><ele>165.094</ele><time>2026-08-16T16:34:20.044Z</time><hdop>3.125</hdop><vdop>2.5</vdop><extensions><gom:speed>0.967</gom:speed></extensions></trkpt>
   <trkpt lat="59.3153224581" lon="34.6781788986"><ele>165.225</ele><time>2026-08-16T16:34:20.828Z</time><hdop>3.062</hdop><vdop>2.5</vdop><extensions><gom:speed>0.788</gom:speed></extensions></trkpt>
   <trkpt lat="59.3153224581" lon="34.678183341"><ele>165.478</ele><time>2026-08-16T16:34:21.869Z</time><hdop>3.125</hdop><vdop>2.5</vdop><extensions><gom:speed>0.715</gom:speed></extensions></trkpt>
   <trkpt lat="59.3153273615" lon="34.6781825867"><ele>165.779</ele><time>2026-08-16T16:34:22.488Z</time><hdop>3.125</hdop><vdop>2.5</vdop><extensions><gom:speed>0.622</gom:speed></extensions></trkpt>
   <trkpt lat="59.3153321811" lon="34.6781801559"><ele>166.13</ele><time>2026-08-16T16:34:23.136Z</time><hdop>3.125</hdop><vdop>2.5</vdop><extensions><gom:speed>0.615</gom:speed></extensions></trkpt>
   <trkpt lat="59.315334989" lon="34.6781813294"><ele>166.341</ele><time>2026-08-16T16:34:23.891Z</time><hdop>3.187</hdop><vdop>2.5</vdop><extensions><gom:speed>0.714</gom:speed></extensions></trkpt>
   <trkpt lat="59.3153419879" lon="34.6781785634"><ele>166.348</ele><time>2026-08-16T16:34:24.626Z</time><hdop>3.187</hdop><vdop>2.5</vdop><extensions><gom:speed>0.763</gom:speed></extensions></trkpt>
   <trkpt lat="59.3153443767" lon="34.6781760488"><ele>166.352</ele><time>2026-08-16T16:34:25.128Z</time><hdop>3.312</hdop><vdop>2.5</vdop><extensions><gom:speed>0.766</gom:speed></extensions></trkpt>
   <trkpt lat="59.3153520881" lon="34.678166242"><ele>166.311</ele><time>2026-08-16T16:34:25.952Z</time><hdop>3.375</hdop><vdop>2.5</vdop><extensions><gom:speed>0.807</gom:speed></extensions></trkpt>
   <trkpt lat="59.3153582907" lon="34.6781615481"><ele>166.479</ele><time>2026-08-16T16:34:26.492Z</time><hdop>3.375</hdop><vdop>2.5</vdop><extensions><gom:speed>0.805</gom:speed></extensions></trkpt>
   <trkpt lat="59.3153645771" lon="34.6781590335"><ele>166.582</ele><time>2026-08-16T16:34:27.136Z</time><hdop>3.312</hdop><vdop>2.5</vdop><extensions><gom:speed>0.797</gom:speed></extensions></trkpt>
   <trkpt lat="59.3153698996" lon="34.678159285"><ele>166.643</ele><time>2026-08-16T16:34:27.689Z</time><hdop>3.375</hdop><vdop>2.5</vdop><extensions><gom:speed>0.887</gom:speed></extensions></trkpt>
   <trkpt lat="59.3153787845" lon="34.6781530824"><ele>166.661</ele><time>2026-08-16T16:34:28.612Z</time><hdop>3.437</hdop><vdop>2.5</vdop><extensions><gom:speed>0.887</gom:speed></extensions></trkpt>
   <trkpt lat="59.3153839812" lon="34.6781490591"><ele>166.621</ele><time>2026-08-16T16:34:29.136Z</time><hdop>3.375</hdop><vdop>2.5</vdop><extensions><gom:speed>0.887</gom:speed></extensions></trkpt>
   <trkpt lat="59.315389178" lon="34.6781460416"><ele>166.597</ele><time>2026-08-16T16:34:29.692Z</time><hdop>3.437</hdop><vdop>2.5</vdop><extensions><gom:speed>0.894</gom:speed></extensions></trkpt>
   <trkpt lat="59.3153989848" lon="34.6781406772"><ele>166.47</ele><time>2026-08-16T16:34:30.791Z</time><hdop>3.5</hdop><vdop>2.5</vdop><extensions><gom:speed>0.873</gom:speed></extensions></trkpt>
   <trkpt lat="59.3154033853" lon="34.6781346422"><ele>166.164</ele><time>2026-08-16T16:34:31.350Z</time><hdop>3.437</hdop><vdop>2.5</vdop><extensions><gom:speed>0.857</gom:speed></extensions></trkpt>
   <trkpt lat="59.3154082888" lon="34.6781280205"><ele>165.981</ele><time>2026-08-16T16:34:32.047Z</time><hdop>3.437</hdop><vdop>2.5</vdop><extensions><gom:speed>0.87</gom:speed></extensions></trkpt>
   <trkpt lat="59.3154145752" lon="34.6781200577"><ele>165.867</ele><time>2026-08-16T16:34:32.813Z</time><hdop>3.437</hdop><vdop>2.5</vdop><extensions><gom:speed>0.891</gom:speed></extensions></trkpt>
   <trkpt lat="59.3154215741" lon="34.6781065628"><ele>165.961</ele><time>2026-08-16T16:34:33.823Z</time><hdop>3.375</hdop><vdop>2.5</vdop><extensions><gom:speed>0.933</gom:speed></extensions></trkpt>
   <trkpt lat="59.3154268966" lon="34.6780973427"><ele>166.022</ele><time>2026-08-16T16:34:34.569Z</time><hdop>3.312</hdop><vdop>2.5</vdop><extensions><gom:speed>0.967</gom:speed></extensions></trkpt>
   <trkpt lat="59.3154319676" lon="34.6780919783"><ele>166.202</ele><time>2026-08-16T16:34:35.136Z</time><hdop>3.187</hdop><vdop>2.5</vdop><extensions><gom:speed>0.981</gom:speed></extensions></trkpt>
   <trkpt lat="59.3154394694" lon="34.6780853566"><ele>166.311</ele><time>2026-08-16T16:34:35.923Z</time><hdop>3.125</hdop><vdop>2.5</vdop><extensions><gom:speed>0.976</gom:speed></extensions></trkpt>
   <trkpt lat="59.3154462588" lon="34.6780832611"><ele>166.563</ele><time>2026-08-16T16:34:36.611Z</time><hdop>3.062</hdop><vdop>2.5</vdop><extensions><gom:speed>0.942</gom:speed></extensions></trkpt>
   <trkpt lat="59.3154513717" lon="34.6780829258"><ele>166.743</ele><time>2026-08-16T16:34:37.136Z</time><hdop>3.062</hdop><vdop>2.5</vdop><extensions><gom:speed>0.907</gom:speed></extensions></trkpt>
   <trkpt lat="59.3154590831" lon="34.67808192"><ele>166.85</ele><time>2026-08-16T16:34:37.946Z</time><hdop>3.0</hdop><vdop>2.5</vdop><extensions><gom:speed>0.931</gom:speed></extensions></trkpt>
   <trkpt lat="59.3154633998" lon="34.6780807465"><ele>166.98</ele><time>2026-08-16T16:34:38.427Z</time><hdop>3.0</hdop><vdop>2.5</vdop><extensions><gom:speed>0.903</gom:speed></extensions></trkpt>
   <trkpt lat="59.3154694767" lon="34.6780779805"><ele>166.971</ele><time>2026-08-16T16:34:39.135Z</time><hdop>3.0</hdop><vdop>2.562</vdop><extensions><gom:speed>0.853</gom:speed></extensions></trkpt>
   <trkpt lat="59.315476266" lon="34.6780692633"><ele>166.965</ele><time>2026-08-16T16:34:40.046Z</time><hdop>3.0</hdop><vdop>2.562</vdop><extensions><gom:speed>0.894</gom:speed></extensions></trkpt>
   <trkpt lat="59.3154799959" lon="34.6780595403"><ele>166.997</ele><time>2026-08-16T16:34:40.910Z</time><hdop>3.0</hdop><vdop>2.687</vdop><extensions><gom:speed>0.858</gom:speed></extensions></trkpt>
   <trkpt lat="59.3154829715" lon="34.678051829"><ele>166.972</ele><time>2026-08-16T16:34:41.645Z</time><hdop>3.0</hdop><vdop>2.875</vdop><extensions><gom:speed>0.839</gom:speed></extensions></trkpt>
   <trkpt lat="59.3154855699" lon="34.6780483924"><ele>166.693</ele><time>2026-08-16T16:34:42.136Z</time><hdop>3.0</hdop><vdop>2.75</vdop><extensions><gom:speed>0.78</gom:speed></extensions></trkpt>
   <trkpt lat="59.3154922754" lon="34.6780416869"><ele>166.526</ele><time>2026-08-16T16:34:43.128Z</time><hdop>3.0</hdop><vdop>2.75</vdop><extensions><gom:speed>0.829</gom:speed></extensions></trkpt>
   <trkpt lat="59.3154976818" lon="34.6780434471"><ele>166.147</ele><time>2026-08-16T16:34:43.933Z</time><hdop>3.0</hdop><vdop>2.812</vdop><extensions><gom:speed>0.807</gom:speed></extensions></trkpt>
   <trkpt lat="59.3155039682" lon="34.678051829"><ele>165.507</ele><time>2026-08-16T16:34:44.610Z</time><hdop>3.0</hdop><vdop>2.875</vdop><extensions><gom:speed>0.862</gom:speed></extensions></trkpt>
   <trkpt lat="59.315507279" lon="34.6780619711"><ele>164.696</ele><time>2026-08-16T16:34:45.136Z</time><hdop>3.0</hdop><vdop>2.687</vdop><extensions><gom:speed>0.835</gom:speed></extensions></trkpt>
   <trkpt lat="59.3155112604" lon="34.678076388"><ele>164.211</ele><time>2026-08-16T16:34:45.964Z</time><hdop>3.0</hdop><vdop>2.687</vdop><extensions><gom:speed>0.874</gom:speed></extensions></trkpt>
   <trkpt lat="59.3155140684" lon="34.6780850213"><ele>163.655</ele><time>2026-08-16T16:34:46.445Z</time><hdop>3.0</hdop><vdop>2.812</vdop><extensions><gom:speed>0.857</gom:speed></extensions></trkpt>
   <trkpt lat="59.3155187622" lon="34.6780915592"><ele>163.769</ele><time>2026-08-16T16:34:47.136Z</time><hdop>3.0</hdop><vdop>2.812</vdop><extensions><gom:speed>0.817</gom:speed></extensions></trkpt>
   <trkpt lat="59.3155253839" lon="34.6780943252"><ele>163.837</ele><time>2026-08-16T16:34:47.966Z</time><hdop>3.0</hdop><vdop>2.812</vdop><extensions><gom:speed>0.811</gom:speed></extensions></trkpt>
   <trkpt lat="59.3155303712" lon="34.6780951634"><ele>163.87</ele><time>2026-08-16T16:34:48.526Z</time><hdop>3.0</hdop><vdop>2.875</vdop><extensions><gom:speed>0.812</gom:speed></extensions></trkpt>
   <trkpt lat="59.3155352746" lon="34.6780937385"><ele>163.722</ele><time>2026-08-16T16:34:49.136Z</time><hdop>3.0</hdop><vdop>3.0</vdop><extensions><gom:speed>0.777</gom:speed></extensions></trkpt>
   <trkpt lat="59.3155419801" lon="34.6780883741"><ele>163.633</ele><time>2026-08-16T16:34:49.949Z</time><hdop>3.0</hdop><vdop>3.0</vdop><extensions><gom:speed>0.829</gom:speed></extensions></trkpt>
   <trkpt lat="59.3155479732" lon="34.678084686"><ele>163.211</ele><time>2026-08-16T16:34:50.705Z</time><hdop>3.0</hdop><vdop>2.75</vdop><extensions><gom:speed>0.849</gom:speed></extensions></trkpt>
   <trkpt lat="59.3155537986" lon="34.6780826744"><ele>163.098</ele><time>2026-08-16T16:34:51.451Z</time><hdop>3.0</hdop><vdop>2.687</vdop><extensions><gom:speed>0.879</gom:speed></extensions></trkpt>
   <trkpt lat="59.3155594983" lon="34.6780816686"><ele>163.03</ele><time>2026-08-16T16:34:52.089Z</time><hdop>3.0</hdop><vdop>2.687</vdop><extensions><gom:speed>0.889</gom:speed></extensions></trkpt>
   <trkpt lat="59.3155643598" lon="34.67808192"><ele>162.357</ele><time>2026-08-16T16:34:52.805Z</time><hdop>3.0</hdop><vdop>2.5</vdop><extensions><gom:speed>0.886</gom:speed></extensions></trkpt>
   <trkpt lat="59.3155698919" lon="34.6780780643"><ele>161.825</ele><time>2026-08-16T16:34:53.649Z</time><hdop>3.0</hdop><vdop>2.5</vdop><extensions><gom:speed>0.841</gom:speed></extensions></trkpt>
   <trkpt lat="59.3155723645" lon="34.6780716941"><ele>161.543</ele><time>2026-08-16T16:34:54.136Z</time><hdop>3.0</hdop><vdop>2.75</vdop><extensions><gom:speed>0.86</gom:speed></extensions></trkpt>
   <trkpt lat="59.3155766812" lon="34.678061552"><ele>161.374</ele><time>2026-08-16T16:34:54.945Z</time><hdop>3.0</hdop><vdop>2.75</vdop><extensions><gom:speed>0.853</gom:speed></extensions></trkpt>
   <trkpt lat="59.3155843925" lon="34.6780598756"><ele>161.0</ele><time>2026-08-16T16:34:55.769Z</time><hdop>3.0</hdop><vdop>2.875</vdop><extensions><gom:speed>0.882</gom:speed></extensions></trkpt>
   <trkpt lat="59.315590679" lon="34.6780607976"><ele>160.78</ele><time>2026-08-16T16:34:56.446Z</time><hdop>3.0</hdop><vdop>3.0</vdop><extensions><gom:speed>0.868</gom:speed></extensions></trkpt>
   <trkpt lat="59.3155949957" lon="34.6780592889"><ele>160.649</ele><time>2026-08-16T16:34:56.947Z</time><hdop>3.0</hdop><vdop>3.0</vdop><extensions><gom:speed>0.87</gom:speed></extensions></trkpt>
   <trkpt lat="59.3156047606" lon="34.6780580316"><ele>160.427</ele><time>2026-08-16T16:34:58.136Z</time><hdop>3.0</hdop><vdop>2.5</vdop><extensions><gom:speed>0.841</gom:speed></extensions></trkpt>
   <trkpt lat="59.3156131844" lon="34.6780597918"><ele>160.294</ele><time>2026-08-16T16:34:59.027Z</time><hdop>3.0</hdop><vdop>2.5</vdop><extensions><gom:speed>0.92</gom:speed></extensions></trkpt>
   <trkpt lat="59.3156181716" lon="34.6780623902"><ele>160.406</ele><time>2026-08-16T16:34:59.528Z</time><hdop>3.0</hdop><vdop>2.5</vdop><extensions><gom:speed>0.981</gom:speed></extensions></trkpt>
   <trkpt lat="59.3156241647" lon="34.6780612167"><ele>160.521</ele><time>2026-08-16T16:35:00.136Z</time><hdop>3.0</hdop><vdop>2.562</vdop><extensions><gom:speed>1.001</gom:speed></extensions></trkpt>
   <trkpt lat="59.3156296967" lon="34.6780570258"><ele>160.59</ele><time>2026-08-16T16:35:00.706Z</time><hdop>3.0</hdop><vdop>2.562</vdop><extensions><gom:speed>1.026</gom:speed></extensions></trkpt>
   <trkpt lat="59.3156351869" lon="34.6780452911"><ele>160.872</ele><time>2026-08-16T16:35:01.511Z</time><hdop>3.0</hdop><vdop>2.5</vdop><extensions><gom:speed>1.064</gom:speed></extensions></trkpt>
   <trkpt lat="59.3156376595" lon="34.6780362386"><ele>161.04</ele><time>2026-08-16T16:35:01.990Z</time><hdop>3.0</hdop><vdop>2.5</vdop><extensions><gom:speed>1.069</gom:speed></extensions></trkpt>
   <trkpt lat="59.3156411799" lon="34.6780196425"><ele>161.403</ele><time>2026-08-16T16:35:02.786Z</time><hdop>3.0</hdop><vdop>2.5</vdop><extensions><gom:speed>1.088</gom:speed></extensions></trkpt>
   <trkpt lat="59.3156452871" lon="34.6779938262"><ele>161.72</ele><time>2026-08-16T16:35:04.111Z</time><hdop>3.0</hdop><vdop>2.5</vdop><extensions><gom:speed>1.054</gom:speed></extensions></trkpt>
   <trkpt lat="59.3156440717" lon="34.6779736258"><ele>161.932</ele><time>2026-08-16T16:35:05.136Z</time><hdop>3.0</hdop><vdop>2.5</vdop><extensions><gom:speed>1.044</gom:speed></extensions></trkpt>
   <trkpt lat="59.3156430659" lon="34.6779560238"><ele>162.059</ele><time>2026-08-16T16:35:05.986Z</time><hdop>3.0</hdop><vdop>2.5</vdop><extensions><gom:speed>1.079</gom:speed></extensions></trkpt>
   <trkpt lat="59.3156419762" lon="34.6779357396"><ele>162.102</ele><time>2026-08-16T16:35:07.136Z</time><hdop>3.0</hdop><vdop>2.5</vdop><extensions><gom:speed>1.028</gom:speed></extensions></trkpt>
   <trkpt lat="59.3156437783" lon="34.6779206522"><ele>162.223</ele><time>2026-08-16T16:35:08.136Z</time><hdop>3.0</hdop><vdop>2.5</vdop><extensions><gom:speed>0.99</gom:speed></extensions></trkpt>
   <trkpt lat="59.3156474664" lon="34.6779064868"><ele>162.425</ele><time>2026-08-16T16:35:09.136Z</time><hdop>3.0</hdop><vdop>2.5</vdop><extensions><gom:speed>1.012</gom:speed></extensions></trkpt>
   <trkpt lat="59.3156529984" lon="34.6778904773"><ele>162.546</ele><time>2026-08-16T16:35:10.069Z</time><hdop>3.0</hdop><vdop>2.5</vdop><extensions><gom:speed>1.068</gom:speed></extensions></trkpt>
   <trkpt lat="59.3156564769" lon="34.6778841909"><ele>162.64</ele><time>2026-08-16T16:35:10.628Z</time><hdop>3.0</hdop><vdop>2.5</vdop><extensions><gom:speed>1.117</gom:speed></extensions></trkpt>
   <trkpt lat="59.3156603745" lon="34.6778803352"><ele>162.807</ele><time>2026-08-16T16:35:11.136Z</time><hdop>3.0</hdop><vdop>2.5</vdop><extensions><gom:speed>1.066</gom:speed></extensions></trkpt>
   <trkpt lat="59.3156679601" lon="34.6778724563"><ele>162.907</ele><time>2026-08-16T16:35:11.972Z</time><hdop>3.0</hdop><vdop>2.5</vdop><extensions><gom:speed>1.088</gom:speed></extensions></trkpt>
   <trkpt lat="59.3156725702" lon="34.6778714504"><ele>162.992</ele><time>2026-08-16T16:35:12.512Z</time><hdop>3.0</hdop><vdop>2.5</vdop><extensions><gom:speed>1.035</gom:speed></extensions></trkpt>
   <trkpt lat="59.3156778927" lon="34.6778692711"><ele>162.9</ele><time>2026-08-16T16:35:13.136Z</time><hdop>3.0</hdop><vdop>2.5</vdop><extensions><gom:speed>1.022</gom:speed></extensions></trkpt>
   <trkpt lat="59.3156835924" lon="34.6778686844"><ele>162.845</ele><time>2026-08-16T16:35:13.671Z</time><hdop>3.0</hdop><vdop>2.5</vdop><extensions><gom:speed>1.023</gom:speed></extensions></trkpt>
   <trkpt lat="59.3156881605" lon="34.677869774"><ele>162.644</ele><time>2026-08-16T16:35:14.136Z</time><hdop>3.0</hdop><vdop>2.5</vdop><extensions><gom:speed>1.002</gom:speed></extensions></trkpt>
   <trkpt lat="59.3156947822" lon="34.6778692711"><ele>162.523</ele><time>2026-08-16T16:35:14.809Z</time><hdop>3.0</hdop><vdop>2.5</vdop><extensions><gom:speed>1.001</gom:speed></extensions></trkpt>
   <trkpt lat="59.3157030803" lon="34.6778684329"><ele>162.584</ele><time>2026-08-16T16:35:15.889Z</time><hdop>3.0</hdop><vdop>2.5</vdop><extensions><gom:speed>0.903</gom:speed></extensions></trkpt>
   <trkpt lat="59.3157106659" lon="34.6778690197"><ele>162.686</ele><time>2026-08-16T16:35:16.948Z</time><hdop>3.0</hdop><vdop>2.5</vdop><extensions><gom:speed>0.858</gom:speed></extensions></trkpt>
   <trkpt lat="59.3157179582" lon="34.6778676786"><ele>162.684</ele><time>2026-08-16T16:35:17.852Z</time><hdop>3.0</hdop><vdop>2.5</vdop><extensions><gom:speed>0.852</gom:speed></extensions></trkpt>
   <trkpt lat="59.3157207661" lon="34.6778698579"><ele>162.463</ele><time>2026-08-16T16:35:18.303Z</time><hdop>3.0</hdop><vdop>2.5</vdop><extensions><gom:speed>0.801</gom:speed></extensions></trkpt>
   <trkpt lat="59.3157265915" lon="34.6778758928"><ele>162.295</ele><time>2026-08-16T16:35:19.136Z</time><hdop>3.0</hdop><vdop>2.5</vdop><extensions><gom:speed>0.802</gom:speed></extensions></trkpt>
   <trkpt lat="59.3157345962" lon="34.6778806705"><ele>162.239</ele><time>2026-08-16T16:35:20.136Z</time><hdop>3.0</hdop><vdop>2.5</vdop><extensions><gom:speed>0.806</gom:speed></extensions></trkpt>
   <trkpt lat="59.315741679" lon="34.6778862864"><ele>162.206</ele><time>2026-08-16T16:35:21.091Z</time><hdop>3.0</hdop><vdop>2.5</vdop><extensions><gom:speed>0.795</gom:speed></extensions></trkpt>
   <trkpt lat="59.3157511924" lon="34.6778938301"><ele>162.259</ele><time>2026-08-16T16:35:22.131Z</time><hdop>3.0</hdop><vdop>2.5</vdop><extensions><gom:speed>0.851</gom:speed></extensions></trkpt>
   <trkpt lat="59.3157609992" lon="34.6779026311"><ele>162.266</ele><time>2026-08-16T16:35:23.044Z</time><hdop>3.0</hdop><vdop>2.5</vdop><extensions><gom:speed>0.953</gom:speed></extensions></trkpt>
   <trkpt lat="59.3157670761" lon="34.6779133599"><ele>162.188</ele><time>2026-08-16T16:35:23.633Z</time><hdop>3.0</hdop><vdop>2.5</vdop><extensions><gom:speed>1.01</gom:speed></extensions></trkpt>
   <trkpt lat="59.3157714766" lon="34.677921658"><ele>162.216</ele><time>2026-08-16T16:35:24.136Z</time><hdop>3.0</hdop><vdop>2.5</vdop><extensions><gom:speed>0.987</gom:speed></extensions></trkpt>
   <trkpt lat="59.3157781821" lon="34.6779299561"><ele>162.233</ele><time>2026-08-16T16:35:24.831Z</time><hdop>3.0</hdop><vdop>2.5</vdop><extensions><gom:speed>1.052</gom:speed></extensions></trkpt>
   <trkpt lat="59.3157892882" lon="34.6779418584"><ele>162.22</ele><time>2026-08-16T16:35:25.989Z</time><hdop>3.0</hdop><vdop>2.5</vdop><extensions><gom:speed>1.023</gom:speed></extensions></trkpt>
   <trkpt lat="59.3157982987" lon="34.6779537607"><ele>162.15</ele><time>2026-08-16T16:35:26.990Z</time><hdop>3.0</hdop><vdop>2.5</vdop><extensions><gom:speed>0.963</gom:speed></extensions></trkpt>
   <trkpt lat="59.3158050881" lon="34.6779571973"><ele>161.828</ele><time>2026-08-16T16:35:27.687Z</time><hdop>3.0</hdop><vdop>2.5</vdop><extensions><gom:speed>0.967</gom:speed></extensions></trkpt>
   <trkpt lat="59.3158132604" lon="34.6779686805"><ele>161.885</ele><time>2026-08-16T16:35:28.747Z</time><hdop>3.0</hdop><vdop>2.5</vdop><extensions><gom:speed>0.937</gom:speed></extensions></trkpt>
   <trkpt lat="59.3158183734" lon="34.6779850252"><ele>161.879</ele><time>2026-08-16T16:35:29.690Z</time><hdop>3.0</hdop><vdop>2.5</vdop><extensions><gom:speed>0.95</gom:speed></extensions></trkpt>
   <trkpt lat="59.3158260847" lon="34.6779937424"><ele>161.834</ele><time>2026-08-16T16:35:30.632Z</time><hdop>3.0</hdop><vdop>2.5</vdop><extensions><gom:speed>0.878</gom:speed></extensions></trkpt>
   <trkpt lat="59.3158306948" lon="34.6779934909"><ele>161.666</ele><time>2026-08-16T16:35:31.136Z</time><hdop>3.0</hdop><vdop>2.5</vdop><extensions><gom:speed>0.85</gom:speed></extensions></trkpt>
   <trkpt lat="59.3158358915" lon="34.6779919822"><ele>161.566</ele><time>2026-08-16T16:35:31.711Z</time><hdop>3.0</hdop><vdop>2.5</vdop><extensions><gom:speed>0.879</gom:speed></extensions></trkpt>
   <trkpt lat="59.3158438963" lon="34.6779895514"><ele>161.509</ele><time>2026-08-16T16:35:32.585Z</time><hdop>3.0</hdop><vdop>2.5</vdop><extensions><gom:speed>0.856</gom:speed></extensions></trkpt>
   <trkpt lat="59.3158485901" lon="34.6779889647"><ele>161.606</ele><time>2026-08-16T16:35:33.136Z</time><hdop>3.0</hdop><vdop>2.5</vdop><extensions><gom:speed>0.828</gom:speed></extensions></trkpt>
   <trkpt lat="59.3158554633" lon="34.6779901382"><ele>161.663</ele><time>2026-08-16T16:35:33.930Z</time><hdop>3.0</hdop><vdop>2.5</vdop><extensions><gom:speed>0.832</gom:speed></extensions></trkpt>
   <trkpt lat="59.3158603667" lon="34.6779913955"><ele>161.418</ele><time>2026-08-16T16:35:34.489Z</time><hdop>3.0</hdop><vdop>2.5</vdop><extensions><gom:speed>0.862</gom:speed></extensions></trkpt>
   <trkpt lat="59.3158661921" lon="34.6779892162"><ele>161.188</ele><time>2026-08-16T16:35:35.135Z</time><hdop>3.0</hdop><vdop>2.5</vdop><extensions><gom:speed>0.879</gom:speed></extensions></trkpt>
   <trkpt lat="59.3158714727" lon="34.6779829297"><ele>161.051</ele><time>2026-08-16T16:35:35.765Z</time><hdop>3.0</hdop><vdop>2.5</vdop><extensions><gom:speed>0.897</gom:speed></extensions></trkpt>
   <trkpt lat="59.3158771724" lon="34.6779685967"><ele>160.872</ele><time>2026-08-16T16:35:36.649Z</time><hdop>3.0</hdop><vdop>2.5</vdop><extensions><gom:speed>0.902</gom:speed></extensions></trkpt>
   <trkpt lat="59.3158802737" lon="34.6779611368"><ele>160.543</ele><time>2026-08-16T16:35:37.136Z</time><hdop>3.0</hdop><vdop>2.562</vdop><extensions><gom:speed>0.875</gom:speed></extensions></trkpt>
   <trkpt lat="59.3158849676" lon="34.6779560238"><ele>160.347</ele><time>2026-08-16T16:35:37.768Z</time><hdop>3.0</hdop><vdop>2.562</vdop><extensions><gom:speed>0.843</gom:speed></extensions></trkpt>
   <trkpt lat="59.3158895776" lon="34.677956862"><ele>160.502</ele><time>2026-08-16T16:35:38.288Z</time><hdop>3.0</hdop><vdop>2.5</vdop><extensions><gom:speed>0.844</gom:speed></extensions></trkpt>
   <trkpt lat="59.3158956964" lon="34.6779595442"><ele>160.594</ele><time>2026-08-16T16:35:39.083Z</time><hdop>3.0</hdop><vdop>2.5</vdop><extensions><gom:speed>0.777</gom:speed></extensions></trkpt>
   <trkpt lat="59.3158991749" lon="34.6779632323"><ele>160.425</ele><time>2026-08-16T16:35:39.564Z</time><hdop>3.0</hdop><vdop>2.5</vdop><extensions><gom:speed>0.795</gom:speed></extensions></trkpt>
   <trkpt lat="59.3159033659" lon="34.6779680938"><ele>160.129</ele><time>2026-08-16T16:35:40.136Z</time><hdop>3.0</hdop><vdop>2.5</vdop><extensions><gom:speed>0.801</gom:speed></extensions></trkpt>
   <trkpt lat="59.3159099876" lon="34.6779752184"><ele>159.952</ele><time>2026-08-16T16:35:40.929Z</time><hdop>3.0</hdop><vdop>2.5</vdop><extensions><gom:speed>0.878</gom:speed></extensions></trkpt>
   <trkpt lat="59.3159158968" lon="34.6779838517"><ele>159.624</ele><time>2026-08-16T16:35:41.625Z</time><hdop>3.0</hdop><vdop>2.5</vdop><extensions><gom:speed>0.944</gom:speed></extensions></trkpt>
   <trkpt lat="59.3159197944" lon="34.6779910602"><ele>159.599</ele><time>2026-08-16T16:35:42.136Z</time><hdop>3.0</hdop><vdop>2.5</vdop><extensions><gom:speed>0.921</gom:speed></extensions></trkpt>
   <trkpt lat="59.3159276734" lon="34.6780026272"><ele>159.732</ele><time>2026-08-16T16:35:43.136Z</time><hdop>3.0</hdop><vdop>2.5</vdop><extensions><gom:speed>0.894</gom:speed></extensions></trkpt>
   <trkpt lat="59.315936181" lon="34.6780117635"><ele>159.669</ele><time>2026-08-16T16:35:44.136Z</time><hdop>3.0</hdop><vdop>2.5</vdop><extensions><gom:speed>0.881</gom:speed></extensions></trkpt>
   <trkpt lat="59.3159424674" lon="34.6780186366"><ele>159.631</ele><time>2026-08-16T16:35:44.884Z</time><hdop>3.0</hdop><vdop>2.5</vdop><extensions><gom:speed>0.916</gom:speed></extensions></trkpt>
   <trkpt lat="59.3159471613" lon="34.6780302875"><ele>159.564</ele><time>2026-08-16T16:35:45.649Z</time><hdop>3.0</hdop><vdop>2.5</vdop><extensions><gom:speed>0.913</gom:speed></extensions></trkpt>
   <trkpt lat="59.3159497597" lon="34.6780375797"><ele>159.563</ele><time>2026-08-16T16:35:46.136Z</time><hdop>3.0</hdop><vdop>2.5</vdop><extensions><gom:speed>0.875</gom:speed></extensions></trkpt>
   <trkpt lat="59.3159553756" lon="34.6780482248"><ele>159.563</ele><time>2026-08-16T16:35:47.023Z</time><hdop>3.0</hdop><vdop>2.5</vdop><extensions><gom:speed>0.888</gom:speed></extensions></trkpt>
   <trkpt lat="59.3159618716" lon="34.6780523319"><ele>159.563</ele><time>2026-08-16T16:35:47.848Z</time><hdop>3.0</hdop><vdop>2.5</vdop><extensions><gom:speed>0.871</gom:speed></extensions></trkpt>
   <trkpt lat="59.3159705887" lon="34.6780525834"><ele>159.563</ele><time>2026-08-16T16:35:48.888Z</time><hdop>3.125</hdop><vdop>2.5</vdop><extensions><gom:speed>0.858</gom:speed></extensions></trkpt>
   <trkpt lat="59.3159794735" lon="34.6780610491"><ele>159.563</ele><time>2026-08-16T16:35:50.027Z</time><hdop>3.312</hdop><vdop>2.5</vdop><extensions><gom:speed>0.881</gom:speed></extensions></trkpt>
   <trkpt lat="59.3159865982" lon="34.6780775614"><ele>159.563</ele><time>2026-08-16T16:35:51.332Z</time><hdop>3.875</hdop><vdop>2.5</vdop><extensions><gom:speed>0.824</gom:speed></extensions></trkpt>
   <trkpt lat="59.3159932618" lon="34.6780908886"><ele>159.563</ele><time>2026-08-16T16:35:52.667Z</time><hdop>4.312</hdop><vdop>2.5</vdop><extensions><gom:speed>0.716</gom:speed></extensions></trkpt>
   <trkpt lat="59.3160008893" lon="34.6780963369"><ele>159.563</ele><time>2026-08-16T16:35:53.972Z</time><hdop>5.062</hdop><vdop>2.5</vdop><extensions><gom:speed>0.646</gom:speed></extensions></trkpt>
   <trkpt lat="59.3160038649" lon="34.6781001926"><ele>159.563</ele><time>2026-08-16T16:35:54.689Z</time><hdop>5.25</hdop><vdop>2.5</vdop><extensions><gom:speed>0.608</gom:speed></extensions></trkpt>
   <trkpt lat="59.3160099837" lon="34.6780983485"><ele>159.563</ele><time>2026-08-16T16:35:56.848Z</time><hdop>5.937</hdop><vdop>2.5</vdop><extensions><gom:speed>0.39</gom:speed></extensions></trkpt>
   <trkpt lat="59.3160383983" lon="34.6780621387"><ele>156.901</ele><time>2026-08-16T16:36:10.136Z</time><hdop>4.812</hdop><vdop>6.375</vdop><extensions><gom:speed>1.069</gom:speed></extensions></trkpt>
   <trkpt lat="59.3160698724" lon="34.6780605462"><ele>157.392</ele><time>2026-08-16T16:36:11.136Z</time><hdop>4.312</hdop><vdop>4.0</vdop><extensions><gom:speed>1.072</gom:speed></extensions></trkpt>
   <trkpt lat="59.3160893603" lon="34.6780619711"><ele>157.969</ele><time>2026-08-16T16:36:12.136Z</time><hdop>4.125</hdop><vdop>3.812</vdop><extensions><gom:speed>0.836</gom:speed></extensions></trkpt>
   <trkpt lat="59.3160613647" lon="34.6780496497"><ele>153.823</ele><time>2026-08-16T16:36:13.135Z</time><hdop>4.062</hdop><vdop>3.562</vdop><extensions><gom:speed>0.979</gom:speed></extensions></trkpt>
   <trkpt lat="59.3160683636" lon="34.6780358195"><ele>151.535</ele><time>2026-08-16T16:36:14.136Z</time><hdop>4.0</hdop><vdop>2.5</vdop><extensions><gom:speed>1.107</gom:speed></extensions></trkpt>
   <trkpt lat="59.3160785896" lon="34.6780327182"><ele>150.771</ele><time>2026-08-16T16:36:15.136Z</time><hdop>3.937</hdop><vdop>2.5</vdop><extensions><gom:speed>0.981</gom:speed></extensions></trkpt>
   <trkpt lat="59.3160915815" lon="34.6780262642"><ele>150.334</ele><time>2026-08-16T16:36:16.136Z</time><hdop>3.812</hdop><vdop>2.5</vdop><extensions><gom:speed>1.157</gom:speed></extensions></trkpt>
   <trkpt lat="59.31609506" lon="34.6780219894"><ele>150.072</ele><time>2026-08-16T16:36:16.890Z</time><hdop>4.25</hdop><vdop>2.5</vdop><extensions><gom:speed>1.079</gom:speed></extensions></trkpt>
   <trkpt lat="59.3161034838" lon="34.6780249231"><ele>150.605</ele><time>2026-08-16T16:36:17.793Z</time><hdop>4.187</hdop><vdop>2.5</vdop><extensions><gom:speed>1.06</gom:speed></extensions></trkpt>
   <trkpt lat="59.316112662" lon="34.6780265995"><ele>151.353</ele><time>2026-08-16T16:36:18.244Z</time><hdop>4.062</hdop><vdop>2.5</vdop><extensions><gom:speed>1.065</gom:speed></extensions></trkpt>
   <trkpt lat="59.3161188646" lon="34.6780289464"><ele>151.8</ele><time>2026-08-16T16:36:18.911Z</time><hdop>4.062</hdop><vdop>2.5</vdop><extensions><gom:speed>1.07</gom:speed></extensions></trkpt>
   <trkpt lat="59.3161340778" lon="34.6780319639"><ele>152.351</ele><time>2026-08-16T16:36:19.667Z</time><hdop>4.062</hdop><vdop>2.5</vdop><extensions><gom:speed>1.044</gom:speed></extensions></trkpt>
   <trkpt lat="59.3161427949" lon="34.6780310419"><ele>152.854</ele><time>2026-08-16T16:36:20.136Z</time><hdop>4.0</hdop><vdop>2.5</vdop><extensions><gom:speed>1.098</gom:speed></extensions></trkpt>
   <trkpt lat="59.3161507997" lon="34.678030036"><ele>153.155</ele><time>2026-08-16T16:36:20.865Z</time><hdop>3.937</hdop><vdop>2.5</vdop><extensions><gom:speed>1.031</gom:speed></extensions></trkpt>
   <trkpt lat="59.3161602712" lon="34.678021235"><ele>153.342</ele><time>2026-08-16T16:36:21.612Z</time><hdop>3.812</hdop><vdop>2.5</vdop><extensions><gom:speed>1.059</gom:speed></extensions></trkpt>
   <trkpt lat="59.3161645879" lon="34.6780164573"><ele>153.453</ele><time>2026-08-16T16:36:22.093Z</time><hdop>3.625</hdop><vdop>2.5</vdop><extensions><gom:speed>1.048</gom:speed></extensions></trkpt>
   <trkpt lat="59.3161727602" lon="34.6780073211"><ele>153.839</ele><time>2026-08-16T16:36:22.907Z</time><hdop>3.5</hdop><vdop>2.5</vdop><extensions><gom:speed>1.033</gom:speed></extensions></trkpt>
   <trkpt lat="59.3161787952" lon="34.6780039683"><ele>154.238</ele><time>2026-08-16T16:36:23.408Z</time><hdop>3.437</hdop><vdop>2.5</vdop><extensions><gom:speed>1.074</gom:speed></extensions></trkpt>
   <trkpt lat="59.3161858779" lon="34.6780026272"><ele>154.608</ele><time>2026-08-16T16:36:24.136Z</time><hdop>3.312</hdop><vdop>2.5</vdop><extensions><gom:speed>1.005</gom:speed></extensions></trkpt>
   <trkpt lat="59.3161906975" lon="34.6780023758"><ele>154.829</ele><time>2026-08-16T16:36:24.644Z</time><hdop>3.312</hdop><vdop>2.5</vdop><extensions><gom:speed>1.028</gom:speed></extensions></trkpt>
   <trkpt lat="59.3161954752" lon="34.677999945"><ele>155.271</ele><time>2026-08-16T16:36:25.136Z</time><hdop>3.25</hdop><vdop>2.5</vdop><extensions><gom:speed>1.062</gom:speed></extensions></trkpt>
   <trkpt lat="59.3162033961" lon="34.677999945"><ele>155.536</ele><time>2026-08-16T16:36:25.930Z</time><hdop>3.187</hdop><vdop>2.5</vdop><extensions><gom:speed>1.058</gom:speed></extensions></trkpt>
   <trkpt lat="59.3162126581" lon="34.6779945806"><ele>155.7</ele><time>2026-08-16T16:36:26.784Z</time><hdop>3.125</hdop><vdop>2.5</vdop><extensions><gom:speed>1.092</gom:speed></extensions></trkpt>
   <trkpt lat="59.3162185673" lon="34.6779884618"><ele>156.104</ele><time>2026-08-16T16:36:27.451Z</time><hdop>3.125</hdop><vdop>2.5</vdop><extensions><gom:speed>0.97</gom:speed></extensions></trkpt>
   <trkpt lat="59.3162245604" lon="34.6779864501"><ele>156.586</ele><time>2026-08-16T16:36:28.136Z</time><hdop>3.062</hdop><vdop>2.5</vdop><extensions><gom:speed>0.949</gom:speed></extensions></trkpt>
   <trkpt lat="59.3162295895" lon="34.6779847738"><ele>156.873</ele><time>2026-08-16T16:36:28.727Z</time><hdop>3.062</hdop><vdop>2.5</vdop><extensions><gom:speed>0.892</gom:speed></extensions></trkpt>
   <trkpt lat="59.316236798" lon="34.6779792417"><ele>157.107</ele><time>2026-08-16T16:36:29.630Z</time><hdop>3.062</hdop><vdop>2.5</vdop><extensions><gom:speed>0.863</gom:speed></extensions></trkpt>
   <trkpt lat="59.3162407794" lon="34.6779756375"><ele>157.416</ele><time>2026-08-16T16:36:30.136Z</time><hdop>3.062</hdop><vdop>2.5</vdop><extensions><gom:speed>0.868</gom:speed></extensions></trkpt>
   <trkpt lat="59.3162496642" lon="34.6779750507"><ele>157.284</ele><time>2026-08-16T16:36:31.135Z</time><hdop>3.0</hdop><vdop>2.5</vdop><extensions><gom:speed>0.957</gom:speed></extensions></trkpt>
   <trkpt lat="59.3162575851" lon="34.6779787388"><ele>157.205</ele><time>2026-08-16T16:36:32.025Z</time><hdop>3.0</hdop><vdop>2.5</vdop><extensions><gom:speed>0.896</gom:speed></extensions></trkpt>
   <trkpt lat="59.3162642906" lon="34.6779849414"><ele>157.206</ele><time>2026-08-16T16:36:32.850Z</time><hdop>3.0</hdop><vdop>2.5</vdop><extensions><gom:speed>0.894</gom:speed></extensions></trkpt>
   <trkpt lat="59.3162681882" lon="34.6779867854"><ele>157.356</ele><time>2026-08-16T16:36:33.350Z</time><hdop>3.0</hdop><vdop>2.5</vdop><extensions><gom:speed>0.813</gom:speed></extensions></trkpt>
   <trkpt lat="59.3162746842" lon="34.6779868692"><ele>157.446</ele><time>2026-08-16T16:36:34.106Z</time><hdop>3.0</hdop><vdop>2.5</vdop><extensions><gom:speed>0.803</gom:speed></extensions></trkpt>
   <trkpt lat="59.3162787913" lon="34.6779896353"><ele>157.593</ele><time>2026-08-16T16:36:34.646Z</time><hdop>3.0</hdop><vdop>2.5</vdop><extensions><gom:speed>0.775</gom:speed></extensions></trkpt>
   <trkpt lat="59.3162813897" lon="34.6779934909"><ele>157.021</ele><time>2026-08-16T16:36:35.136Z</time><hdop>3.0</hdop><vdop>2.5</vdop><extensions><gom:speed>0.703</gom:speed></extensions></trkpt>
   <trkpt lat="59.3162861674" lon="34.6780006994"><ele>156.72</ele><time>2026-08-16T16:36:36.136Z</time><hdop>3.0</hdop><vdop>2.5</vdop><extensions><gom:speed>0.641</gom:speed></extensions></trkpt>
   <trkpt lat="59.3162920766" lon="34.6780057285"><ele>156.54</ele><time>2026-08-16T16:36:37.109Z</time><hdop>3.0</hdop><vdop>2.5</vdop><extensions><gom:speed>0.664</gom:speed></extensions></trkpt>
   <trkpt lat="59.3162904841" lon="34.6780066505"><ele>156.555</ele><time>2026-08-16T16:36:38.136Z</time><hdop>3.0</hdop><vdop>2.5</vdop><extensions><gom:speed>0.339</gom:speed></extensions></trkpt>
   <trkpt lat="59.3162878857" lon="34.67800598"><ele>156.562</ele><time>2026-08-16T16:36:39.136Z</time><hdop>3.0</hdop><vdop>2.5</vdop><extensions><gom:speed>0.199</gom:speed></extensions></trkpt>
   <trkpt lat="59.3162851616" lon="34.6780048903"><ele>156.575</ele><time>2026-08-16T16:36:40.136Z</time><hdop>3.0</hdop><vdop>2.5</vdop><extensions><gom:speed>0.104</gom:speed></extensions></trkpt>
   <trkpt lat="59.3162831918" lon="34.6780047227"><ele>156.685</ele><time>2026-08-16T16:36:41.136Z</time><hdop>3.0</hdop><vdop>2.5</vdop><extensions><gom:speed>0.082</gom:speed></extensions></trkpt>
   <trkpt lat="59.3162815992" lon="34.6780042198"><ele>156.835</ele><time>2026-08-16T16:36:42.136Z</time><hdop>3.0</hdop><vdop>2.5</vdop><extensions><gom:speed>0.096</gom:speed></extensions></trkpt>
   <trkpt lat="59.3162810963" lon="34.6780039683"><ele>156.985</ele><time>2026-08-16T16:36:43.136Z</time><hdop>3.0</hdop><vdop>2.5</vdop><extensions><gom:speed>0.091</gom:speed></extensions></trkpt>
   <trkpt lat="59.316281264" lon="34.6780033816"><ele>157.126</ele><time>2026-08-16T16:36:44.136Z</time><hdop>3.0</hdop><vdop>2.5</vdop><extensions><gom:speed>0.072</gom:speed></extensions></trkpt>
   <trkpt lat="59.316281264" lon="34.6780011185"><ele>157.277</ele><time>2026-08-16T16:36:45.136Z</time><hdop>3.0</hdop><vdop>2.5</vdop><extensions><gom:speed>0.066</gom:speed></extensions></trkpt>
   <trkpt lat="59.3162816831" lon="34.6779993583"><ele>157.405</ele><time>2026-08-16T16:36:46.136Z</time><hdop>3.0</hdop><vdop>2.5</vdop><extensions><gom:speed>0.096</gom:speed></extensions></trkpt>
   <trkpt lat="59.3162819764" lon="34.677997179"><ele>157.495</ele><time>2026-08-16T16:36:47.136Z</time><hdop>3.0</hdop><vdop>2.5</vdop><extensions><gom:speed>0.095</gom:speed></extensions></trkpt>
   <trkpt lat="59.3162825632" lon="34.6779944968"><ele>157.533</ele><time>2026-08-16T16:36:48.136Z</time><hdop>3.0</hdop><vdop>2.5</vdop><extensions><gom:speed>0.068</gom:speed></extensions></trkpt>
   <trkpt lat="59.3162831918" lon="34.6779925689"><ele>157.549</ele><time>2026-08-16T16:36:49.136Z</time><hdop>3.0</hdop><vdop>2.5</vdop><extensions><gom:speed>0.067</gom:speed></extensions></trkpt>
   <trkpt lat="59.3162833594" lon="34.6779912278"><ele>157.558</ele><time>2026-08-16T16:36:50.136Z</time><hdop>3.0</hdop><vdop>2.5</vdop><extensions><gom:speed>0.08</gom:speed></extensions></trkpt>
   <trkpt lat="59.3162833594" lon="34.6779898867"><ele>157.561</ele><time>2026-08-16T16:36:51.136Z</time><hdop>3.0</hdop><vdop>2.5</vdop><extensions><gom:speed>0.095</gom:speed></extensions></trkpt>
   <trkpt lat="59.3162841976" lon="34.6779887971"><ele>157.558</ele><time>2026-08-16T16:36:52.136Z</time><hdop>3.0</hdop><vdop>2.5</vdop><extensions><gom:speed>0.062</gom:speed></extensions></trkpt>
   <trkpt lat="59.3162834852" lon="34.6779876236"><ele>157.56</ele><time>2026-08-16T16:36:53.136Z</time><hdop>3.0</hdop><vdop>2.5</vdop><extensions><gom:speed>0.064</gom:speed></extensions></trkpt>
   <trkpt lat="59.3162831918" lon="34.6779861987"><ele>157.572</ele><time>2026-08-16T16:36:54.136Z</time><hdop>3.0</hdop><vdop>2.5</vdop><extensions><gom:speed>0.091</gom:speed></extensions></trkpt>
   <trkpt lat="59.3162857902" lon="34.6779850252"><ele>157.435</ele><time>2026-08-16T16:36:55.136Z</time><hdop>3.0</hdop><vdop>2.5</vdop><extensions><gom:speed>0.198</gom:speed></extensions></trkpt>
   <trkpt lat="59.3162887658" lon="34.677986031"><ele>157.47</ele><time>2026-08-16T16:36:56.136Z</time><hdop>3.0</hdop><vdop>2.5</vdop><extensions><gom:speed>0.167</gom:speed></extensions></trkpt>
   <trkpt lat="59.3162898973" lon="34.6779871207"><ele>157.49</ele><time>2026-08-16T16:36:56.729Z</time><hdop>3.0</hdop><vdop>2.5</vdop><extensions><gom:speed>0.126</gom:speed></extensions></trkpt>
   <trkpt lat="59.3162987822" lon="34.6779888809"><ele>157.447</ele><time>2026-08-16T16:36:57.572Z</time><hdop>3.0</hdop><vdop>2.5</vdop><extensions><gom:speed>0.492</gom:speed></extensions></trkpt>
   <trkpt lat="59.3163065773" lon="34.6779901382"><ele>157.616</ele><time>2026-08-16T16:36:58.136Z</time><hdop>3.0</hdop><vdop>2.5</vdop><extensions><gom:speed>0.683</gom:speed></extensions></trkpt>
   <trkpt lat="59.3163165937" lon="34.6779888809"><ele>157.754</ele><time>2026-08-16T16:36:59.136Z</time><hdop>3.0</hdop><vdop>2.5</vdop><extensions><gom:speed>0.653</gom:speed></extensions></trkpt>
   <trkpt lat="59.3163204913" lon="34.6779906411"><ele>157.836</ele><time>2026-08-16T16:36:59.712Z</time><hdop>3.0</hdop><vdop>2.5</vdop><extensions><gom:speed>0.655</gom:speed></extensions></trkpt>
   <trkpt lat="59.3163267777" lon="34.6779993583"><ele>157.792</ele><time>2026-08-16T16:37:00.851Z</time><hdop>3.0</hdop><vdop>2.5</vdop><extensions><gom:speed>0.614</gom:speed></extensions></trkpt>
   <trkpt lat="59.3163289989" lon="34.6780013699"><ele>157.932</ele><time>2026-08-16T16:37:01.391Z</time><hdop>3.0</hdop><vdop>2.5</vdop><extensions><gom:speed>0.414</gom:speed></extensions></trkpt>
   <trkpt lat="59.3163317649" lon="34.6780043874"><ele>158.066</ele><time>2026-08-16T16:37:02.136Z</time><hdop>3.0</hdop><vdop>2.5</vdop><extensions><gom:speed>0.309</gom:speed></extensions></trkpt>
   <trkpt lat="59.3163338604" lon="34.6780066505"><ele>158.266</ele><time>2026-08-16T16:37:03.136Z</time><hdop>3.0</hdop><vdop>2.5</vdop><extensions><gom:speed>0.206</gom:speed></extensions></trkpt>
   <trkpt lat="59.3163346986" lon="34.6780067343"><ele>158.439</ele><time>2026-08-16T16:37:04.136Z</time><hdop>3.0</hdop><vdop>2.5</vdop><extensions><gom:speed>0.115</gom:speed></extensions></trkpt>
   <trkpt lat="59.3163358721" lon="34.6780065667"><ele>158.372</ele><time>2026-08-16T16:37:05.136Z</time><hdop>3.0</hdop><vdop>2.5</vdop><extensions><gom:speed>0.105</gom:speed></extensions></trkpt>
   <trkpt lat="59.3163376742" lon="34.6780064829"><ele>158.244</ele><time>2026-08-16T16:37:06.136Z</time><hdop>3.0</hdop><vdop>2.5</vdop><extensions><gom:speed>0.106</gom:speed></extensions></trkpt>
   <trkpt lat="59.3163398954" lon="34.6780073211"><ele>158.29</ele><time>2026-08-16T16:37:07.136Z</time><hdop>3.0</hdop><vdop>2.5</vdop><extensions><gom:speed>0.114</gom:speed></extensions></trkpt>
   <trkpt lat="59.3163406917" lon="34.6780081593"><ele>158.317</ele><time>2026-08-16T16:37:07.868Z</time><hdop>3.0</hdop><vdop>2.5</vdop><extensions><gom:speed>0.119</gom:speed></extensions></trkpt>
   <trkpt lat="59.3163433739" lon="34.6780103386"><ele>158.663</ele><time>2026-08-16T16:37:08.830Z</time><hdop>3.0</hdop><vdop>2.5</vdop><extensions><gom:speed>0.1</gom:speed></extensions></trkpt>
   <trkpt lat="59.3163466847" lon="34.6780129369"><ele>159.099</ele><time>2026-08-16T16:37:09.753Z</time><hdop>3.0</hdop><vdop>2.5</vdop><extensions><gom:speed>0.144</gom:speed></extensions></trkpt>
   <trkpt lat="59.3163514624" lon="34.6780181337"><ele>159.416</ele><time>2026-08-16T16:37:10.528Z</time><hdop>3.0</hdop><vdop>2.5</vdop><extensions><gom:speed>0.276</gom:speed></extensions></trkpt>
   <trkpt lat="59.3163533902" lon="34.6780202292"><ele>159.606</ele><time>2026-08-16T16:37:11.088Z</time><hdop>3.0</hdop><vdop>2.5</vdop><extensions><gom:speed>0.296</gom:speed></extensions></trkpt>
   <trkpt lat="59.3163628618" lon="34.6780477218"><ele>159.259</ele><time>2026-08-16T16:37:12.136Z</time><hdop>3.0</hdop><vdop>2.5</vdop><extensions><gom:speed>0.722</gom:speed></extensions></trkpt>
   <trkpt lat="59.3163680586" lon="34.6780613843"><ele>159.052</ele><time>2026-08-16T16:37:13.109Z</time><hdop>3.0</hdop><vdop>2.5</vdop><extensions><gom:speed>0.751</gom:speed></extensions></trkpt>
   <trkpt lat="59.3163725848" lon="34.6780760527"><ele>158.874</ele><time>2026-08-16T16:37:13.630Z</time><hdop>3.0</hdop><vdop>2.5</vdop><extensions><gom:speed>0.85</gom:speed></extensions></trkpt>
   <trkpt lat="59.3163755604" lon="34.678082842"><ele>158.767</ele><time>2026-08-16T16:37:14.090Z</time><hdop>3.0</hdop><vdop>2.5</vdop><extensions><gom:speed>0.843</gom:speed></extensions></trkpt>
   <trkpt lat="59.3163827688" lon="34.678104635"><ele>158.772</ele><time>2026-08-16T16:37:15.092Z</time><hdop>3.0</hdop><vdop>2.5</vdop><extensions><gom:speed>0.922</gom:speed></extensions></trkpt>
   <trkpt lat="59.3163862892" lon="34.6781196386"><ele>158.927</ele><time>2026-08-16T16:37:15.584Z</time><hdop>3.0</hdop><vdop>2.5</vdop><extensions><gom:speed>0.958</gom:speed></extensions></trkpt>
   <trkpt lat="59.3163886781" lon="34.6781334687"><ele>159.036</ele><time>2026-08-16T16:37:16.136Z</time><hdop>3.0</hdop><vdop>2.5</vdop><extensions><gom:speed>0.949</gom:speed></extensions></trkpt>
   <trkpt lat="59.3163887619" lon="34.6781582792"><ele>159.091</ele><time>2026-08-16T16:37:17.136Z</time><hdop>3.0</hdop><vdop>2.5</vdop><extensions><gom:speed>0.986</gom:speed></extensions></trkpt>
   <trkpt lat="59.3163869598" lon="34.6781758811"><ele>159.123</ele><time>2026-08-16T16:37:18.008Z</time><hdop>3.0</hdop><vdop>2.5</vdop><extensions><gom:speed>0.923</gom:speed></extensions></trkpt>
   <trkpt lat="59.3163861635" lon="34.6781950757"><ele>159.237</ele><time>2026-08-16T16:37:18.764Z</time><hdop>3.0</hdop><vdop>2.5</vdop><extensions><gom:speed>0.952</gom:speed></extensions></trkpt>
   <trkpt lat="59.3163844871" lon="34.6782151923"><ele>159.272</ele><time>2026-08-16T16:37:19.588Z</time><hdop>3.0</hdop><vdop>2.5</vdop><extensions><gom:speed>0.943</gom:speed></extensions></trkpt>
   <trkpt lat="59.3163833975" lon="34.6782259211"><ele>159.294</ele><time>2026-08-16T16:37:20.108Z</time><hdop>3.0</hdop><vdop>2.5</vdop><extensions><gom:speed>0.944</gom:speed></extensions></trkpt>
   <trkpt lat="59.3163812601" lon="34.6782452833"><ele>159.374</ele><time>2026-08-16T16:37:20.825Z</time><hdop>3.0</hdop><vdop>2.5</vdop><extensions><gom:speed>1.017</gom:speed></extensions></trkpt>
   <trkpt lat="59.3163776978" lon="34.678272273"><ele>159.568</ele><time>2026-08-16T16:37:22.012Z</time><hdop>3.0</hdop><vdop>2.5</vdop><extensions><gom:speed>1.033</gom:speed></extensions></trkpt>
   <trkpt lat="59.3163763986" lon="34.6782851812"><ele>159.577</ele><time>2026-08-16T16:37:22.533Z</time><hdop>3.0</hdop><vdop>2.5</vdop><extensions><gom:speed>1.094</gom:speed></extensions></trkpt>
   <trkpt lat="59.3163756861" lon="34.6782975864"><ele>159.661</ele><time>2026-08-16T16:37:23.136Z</time><hdop>3.0</hdop><vdop>2.5</vdop><extensions><gom:speed>1.031</gom:speed></extensions></trkpt>
   <trkpt lat="59.3163747641" lon="34.6783082314"><ele>159.712</ele><time>2026-08-16T16:37:23.671Z</time><hdop>3.0</hdop><vdop>2.5</vdop><extensions><gom:speed>1.024</gom:speed></extensions></trkpt>
   <trkpt lat="59.3163755604" lon="34.6783156913"><ele>159.539</ele><time>2026-08-16T16:37:24.136Z</time><hdop>3.0</hdop><vdop>2.5</vdop><extensions><gom:speed>0.962</gom:speed></extensions></trkpt>
   <trkpt lat="59.316376189" lon="34.6783247437"><ele>159.435</ele><time>2026-08-16T16:37:24.730Z</time><hdop>3.0</hdop><vdop>2.5</vdop><extensions><gom:speed>0.914</gom:speed></extensions></trkpt>
   <trkpt lat="59.3163806733" lon="34.6783364784"><ele>159.222</ele><time>2026-08-16T16:37:25.506Z</time><hdop>3.0</hdop><vdop>2.5</vdop><extensions><gom:speed>0.875</gom:speed></extensions></trkpt>
   <trkpt lat="59.31638499" lon="34.6783475425"><ele>159.196</ele><time>2026-08-16T16:37:26.136Z</time><hdop>3.0</hdop><vdop>2.5</vdop><extensions><gom:speed>0.95</gom:speed></extensions></trkpt>
   <trkpt lat="59.3163915698" lon="34.6783623785"><ele>159.18</ele><time>2026-08-16T16:37:27.126Z</time><hdop>3.0</hdop><vdop>2.5</vdop><extensions><gom:speed>0.906</gom:speed></extensions></trkpt>
   <trkpt lat="59.3164042684" lon="34.6783808187"><ele>159.112</ele><time>2026-08-16T16:37:28.136Z</time><hdop>3.0</hdop><vdop>2.5</vdop><extensions><gom:speed>1.02</gom:speed></extensions></trkpt>
   <trkpt lat="59.3164106806" lon="34.6783907931"><ele>159.072</ele><time>2026-08-16T16:37:28.842Z</time><hdop>3.0</hdop><vdop>2.5</vdop><extensions><gom:speed>0.978</gom:speed></extensions></trkpt>
   <trkpt lat="59.3164193977" lon="34.6784000971"><ele>159.019</ele><time>2026-08-16T16:37:29.570Z</time><hdop>3.0</hdop><vdop>2.5</vdop><extensions><gom:speed>1.018</gom:speed></extensions></trkpt>
   <trkpt lat="59.3164237982" lon="34.6784060482"><ele>158.988</ele><time>2026-08-16T16:37:30.070Z</time><hdop>3.0</hdop><vdop>2.5</vdop><extensions><gom:speed>1.019</gom:speed></extensions></trkpt>
   <trkpt lat="59.3164375865" lon="34.6784126699"><ele>158.731</ele><time>2026-08-16T16:37:31.136Z</time><hdop>3.0</hdop><vdop>2.5</vdop><extensions><gom:speed>0.999</gom:speed></extensions></trkpt>
   <trkpt lat="59.3164478962" lon="34.6784117479"><ele>158.577</ele><time>2026-08-16T16:37:32.112Z</time><hdop>3.0</hdop><vdop>2.5</vdop><extensions><gom:speed>0.992</gom:speed></extensions></trkpt>
   <trkpt lat="59.3164555656" lon="34.6784122508"><ele>158.63</ele><time>2026-08-16T16:37:32.730Z</time><hdop>3.0</hdop><vdop>2.5</vdop><extensions><gom:speed>0.997</gom:speed></extensions></trkpt>
   <trkpt lat="59.3164634865" lon="34.6784146816"><ele>158.796</ele><time>2026-08-16T16:37:33.348Z</time><hdop>3.0</hdop><vdop>2.5</vdop><extensions><gom:speed>1.055</gom:speed></extensions></trkpt>
   <trkpt lat="59.3164711979" lon="34.6784143463"><ele>158.895</ele><time>2026-08-16T16:37:34.143Z</time><hdop>3.0</hdop><vdop>2.5</vdop><extensions><gom:speed>0.976</gom:speed></extensions></trkpt>
   <trkpt lat="59.3164815915" lon="34.6784095686"><ele>158.898</ele><time>2026-08-16T16:37:35.066Z</time><hdop>3.0</hdop><vdop>2.5</vdop><extensions><gom:speed>1.016</gom:speed></extensions></trkpt>
   <trkpt lat="59.3164885903" lon="34.678407054"><ele>158.914</ele><time>2026-08-16T16:37:35.567Z</time><hdop>3.0</hdop><vdop>2.5</vdop><extensions><gom:speed>1.101</gom:speed></extensions></trkpt>
   <trkpt lat="59.3164952959" lon="34.678407054"><ele>158.977</ele><time>2026-08-16T16:37:36.136Z</time><hdop>3.0</hdop><vdop>2.5</vdop><extensions><gom:speed>1.091</gom:speed></extensions></trkpt>
   <trkpt lat="59.3165041807" lon="34.6784074731"><ele>159.015</ele><time>2026-08-16T16:37:36.911Z</time><hdop>3.0</hdop><vdop>2.5</vdop><extensions><gom:speed>1.098</gom:speed></extensions></trkpt>
   <trkpt lat="59.3165112634" lon="34.6784085628"><ele>159.035</ele><time>2026-08-16T16:37:37.588Z</time><hdop>3.0</hdop><vdop>2.5</vdop><extensions><gom:speed>1.08</gom:speed></extensions></trkpt>
   <trkpt lat="59.3165167955" lon="34.6784099877"><ele>159.047</ele><time>2026-08-16T16:37:38.109Z</time><hdop>3.0</hdop><vdop>2.5</vdop><extensions><gom:speed>1.074</gom:speed></extensions></trkpt>
   <trkpt lat="59.3165260994" lon="34.6784151845"><ele>159.616</ele><time>2026-08-16T16:37:38.884Z</time><hdop>3.0</hdop><vdop>2.5</vdop><extensions><gom:speed>1.137</gom:speed></extensions></trkpt>
   <trkpt lat="59.3165320924" lon="34.6784203813"><ele>160.152</ele><time>2026-08-16T16:37:39.404Z</time><hdop>3.0</hdop><vdop>2.5</vdop><extensions><gom:speed>1.123</gom:speed></extensions></trkpt>
   <trkpt lat="59.3165391751" lon="34.678427925"><ele>160.472</ele><time>2026-08-16T16:37:40.129Z</time><hdop>3.0</hdop><vdop>2.5</vdop><extensions><gom:speed>1.112</gom:speed></extensions></trkpt>
   <trkpt lat="59.3165452939" lon="34.6784333732"><ele>160.523</ele><time>2026-08-16T16:37:40.749Z</time><hdop>3.0</hdop><vdop>2.5</vdop><extensions><gom:speed>1.042</gom:speed></extensions></trkpt>
   <trkpt lat="59.3165514965" lon="34.678437648"><ele>160.644</ele><time>2026-08-16T16:37:41.230Z</time><hdop>3.0</hdop><vdop>2.5</vdop><extensions><gom:speed>1.116</gom:speed></extensions></trkpt>
   <trkpt lat="59.3165598784" lon="34.67844318"><ele>160.715</ele><time>2026-08-16T16:37:42.064Z</time><hdop>3.0</hdop><vdop>2.5</vdop><extensions><gom:speed>1.061</gom:speed></extensions></trkpt>
   <trkpt lat="59.3165668773" lon="34.6784461975"><ele>160.942</ele><time>2026-08-16T16:37:42.770Z</time><hdop>3.0</hdop><vdop>2.5</vdop><extensions><gom:speed>0.975</gom:speed></extensions></trkpt>
   <trkpt lat="59.3165704815" lon="34.6784490474"><ele>160.97</ele><time>2026-08-16T16:37:43.310Z</time><hdop>3.0</hdop><vdop>2.5</vdop><extensions><gom:speed>0.91</gom:speed></extensions></trkpt>
   <trkpt lat="59.3165742953" lon="34.6784511428"><ele>160.986</ele><time>2026-08-16T16:37:43.791Z</time><hdop>3.0</hdop><vdop>2.5</vdop><extensions><gom:speed>0.889</gom:speed></extensions></trkpt>
   <trkpt lat="59.3165835992" lon="34.6784546632"><ele>161.032</ele><time>2026-08-16T16:37:44.832Z</time><hdop>3.0</hdop><vdop>2.5</vdop><extensions><gom:speed>0.932</gom:speed></extensions></trkpt>
   <trkpt lat="59.3165895923" lon="34.6784541603"><ele>160.842</ele><time>2026-08-16T16:37:45.548Z</time><hdop>3.0</hdop><vdop>2.5</vdop><extensions><gom:speed>0.903</gom:speed></extensions></trkpt>
   <trkpt lat="59.3165938671" lon="34.6784517296"><ele>160.729</ele><time>2026-08-16T16:37:46.029Z</time><hdop>3.0</hdop><vdop>2.5</vdop><extensions><gom:speed>0.898</gom:speed></extensions></trkpt>
   <trkpt lat="59.3166020813" lon="34.6784537412"><ele>159.84</ele><time>2026-08-16T16:37:47.136Z</time><hdop>3.0</hdop><vdop>2.5</vdop><extensions><gom:speed>0.93</gom:speed></extensions></trkpt>
   <trkpt lat="59.3166094993" lon="34.6784659788"><ele>159.309</ele><time>2026-08-16T16:37:48.090Z</time><hdop>3.0</hdop><vdop>2.5</vdop><extensions><gom:speed>0.979</gom:speed></extensions></trkpt>
   <trkpt lat="59.3166109661" lon="34.678478384"><ele>159.316</ele><time>2026-08-16T16:37:48.571Z</time><hdop>3.0</hdop><vdop>2.5</vdop><extensions><gom:speed>1.118</gom:speed></extensions></trkpt>
   <trkpt lat="59.3166127682" lon="34.6784898672"><ele>159.251</ele><time>2026-08-16T16:37:49.136Z</time><hdop>3.0</hdop><vdop>2.5</vdop><extensions><gom:speed>1.08</gom:speed></extensions></trkpt>
   <trkpt lat="59.3166185937" lon="34.6785041165"><ele>159.089</ele><time>2026-08-16T16:37:50.136Z</time><hdop>3.0</hdop><vdop>2.5</vdop><extensions><gom:speed>1.051</gom:speed></extensions></trkpt>
   <trkpt lat="59.3166236647" lon="34.6785097324"><ele>158.991</ele><time>2026-08-16T16:37:50.730Z</time><hdop>3.0</hdop><vdop>2.5</vdop><extensions><gom:speed>1.04</gom:speed></extensions></trkpt>
   <trkpt lat="59.3166294901" lon="34.6785131689"><ele>159.297</ele><time>2026-08-16T16:37:51.329Z</time><hdop>3.0</hdop><vdop>2.5</vdop><extensions><gom:speed>1.094</gom:speed></extensions></trkpt>
   <trkpt lat="59.3166372853" lon="34.6785165217"><ele>159.674</ele><time>2026-08-16T16:37:52.136Z</time><hdop>3.0</hdop><vdop>2.5</vdop><extensions><gom:speed>1.055</gom:speed></extensions></trkpt>
   <trkpt lat="59.3166469664" lon="34.6785203774"><ele>159.958</ele><time>2026-08-16T16:37:53.136Z</time><hdop>3.0</hdop><vdop>2.5</vdop><extensions><gom:speed>0.999</gom:speed></extensions></trkpt>
   <trkpt lat="59.3166535881" lon="34.6785315253"><ele>160.128</ele><time>2026-08-16T16:37:53.989Z</time><hdop>3.0</hdop><vdop>2.5</vdop><extensions><gom:speed>0.992</gom:speed></extensions></trkpt>
   <trkpt lat="59.3166576952" lon="34.678546026"><ele>160.331</ele><time>2026-08-16T16:37:54.743Z</time><hdop>3.0</hdop><vdop>2.5</vdop><extensions><gom:speed>1.007</gom:speed></extensions></trkpt>
   <trkpt lat="59.3166624729" lon="34.6785667293"><ele>160.456</ele><time>2026-08-16T16:37:56.012Z</time><hdop>3.0</hdop><vdop>2.5</vdop><extensions><gom:speed>0.907</gom:speed></extensions></trkpt>
   <trkpt lat="59.3166660771" lon="34.67858123"><ele>160.642</ele><time>2026-08-16T16:37:56.747Z</time><hdop>3.0</hdop><vdop>2.5</vdop><extensions><gom:speed>0.952</gom:speed></extensions></trkpt>
   <trkpt lat="59.3166729922" lon="34.6786024362"><ele>160.96</ele><time>2026-08-16T16:37:58.043Z</time><hdop>3.0</hdop><vdop>2.5</vdop><extensions><gom:speed>0.956</gom:speed></extensions></trkpt>
   <trkpt lat="59.3166812903" lon="34.6786239777"><ele>161.11</ele><time>2026-08-16T16:37:59.136Z</time><hdop>3.0</hdop><vdop>2.5</vdop><extensions><gom:speed>1.033</gom:speed></extensions></trkpt>
   <trkpt lat="59.3166872834" lon="34.6786372211"><ele>161.199</ele><time>2026-08-16T16:37:59.967Z</time><hdop>3.0</hdop><vdop>2.5</vdop><extensions><gom:speed>1.018</gom:speed></extensions></trkpt>
   <trkpt lat="59.3166914743" lon="34.6786444295"><ele>161.102</ele><time>2026-08-16T16:38:00.526Z</time><hdop>3.0</hdop><vdop>2.5</vdop><extensions><gom:speed>1.014</gom:speed></extensions></trkpt>
   <trkpt lat="59.3166963777" lon="34.6786498778"><ele>161.057</ele><time>2026-08-16T16:38:01.135Z</time><hdop>3.0</hdop><vdop>2.5</vdop><extensions><gom:speed>0.991</gom:speed></extensions></trkpt>
   <trkpt lat="59.3167051787" lon="34.678658092"><ele>161.03</ele><time>2026-08-16T16:38:02.126Z</time><hdop>3.0</hdop><vdop>2.5</vdop><extensions><gom:speed>0.983</gom:speed></extensions></trkpt>
   <trkpt lat="59.3167104593" lon="34.6786649652"><ele>160.834</ele><time>2026-08-16T16:38:02.970Z</time><hdop>3.0</hdop><vdop>2.5</vdop><extensions><gom:speed>0.922</gom:speed></extensions></trkpt>
   <trkpt lat="59.3167117585" lon="34.6786702458"><ele>160.827</ele><time>2026-08-16T16:38:03.451Z</time><hdop>3.0</hdop><vdop>2.5</vdop><extensions><gom:speed>0.923</gom:speed></extensions></trkpt>
   <trkpt lat="59.3167136864" lon="34.6786790468"><ele>160.823</ele><time>2026-08-16T16:38:04.011Z</time><hdop>3.0</hdop><vdop>2.5</vdop><extensions><gom:speed>0.928</gom:speed></extensions></trkpt>
   <trkpt lat="59.3167140635" lon="34.678687764"><ele>160.795</ele><time>2026-08-16T16:38:04.786Z</time><hdop>3.0</hdop><vdop>2.5</vdop><extensions><gom:speed>0.874</gom:speed></extensions></trkpt>
   <trkpt lat="59.3167148598" lon="34.6787003368"><ele>160.851</ele><time>2026-08-16T16:38:05.649Z</time><hdop>3.0</hdop><vdop>2.5</vdop><extensions><gom:speed>0.898</gom:speed></extensions></trkpt>
   <trkpt lat="59.3167166619" lon="34.678706288"><ele>160.898</ele><time>2026-08-16T16:38:06.136Z</time><hdop>3.0</hdop><vdop>2.5</vdop><extensions><gom:speed>0.882</gom:speed></extensions></trkpt>
   <trkpt lat="59.3167196794" lon="34.6787136641"><ele>160.926</ele><time>2026-08-16T16:38:06.729Z</time><hdop>3.0</hdop><vdop>2.5</vdop><extensions><gom:speed>0.893</gom:speed></extensions></trkpt>
   <trkpt lat="59.3167276841" lon="34.6787248958"><ele>160.874</ele><time>2026-08-16T16:38:08.044Z</time><hdop>3.0</hdop><vdop>2.5</vdop><extensions><gom:speed>0.901</gom:speed></extensions></trkpt>
   <trkpt lat="59.3167359822" lon="34.6787312661"><ele>160.492</ele><time>2026-08-16T16:38:09.124Z</time><hdop>3.0</hdop><vdop>2.5</vdop><extensions><gom:speed>0.93</gom:speed></extensions></trkpt>
   <trkpt lat="59.316739796" lon="34.6787429169"><ele>160.154</ele><time>2026-08-16T16:38:10.027Z</time><hdop>3.0</hdop><vdop>2.5</vdop><extensions><gom:speed>0.904</gom:speed></extensions></trkpt>
   <trkpt lat="59.3167420591" lon="34.6787671406"><ele>159.74</ele><time>2026-08-16T16:38:11.136Z</time><hdop>3.0</hdop><vdop>2.5</vdop><extensions><gom:speed>1.003</gom:speed></extensions></trkpt>
   <trkpt lat="59.3167450766" lon="34.6787849941"><ele>159.399</ele><time>2026-08-16T16:38:12.136Z</time><hdop>3.0</hdop><vdop>2.5</vdop><extensions><gom:speed>1.022</gom:speed></extensions></trkpt>
   <trkpt lat="59.3167483874" lon="34.6787997462"><ele>159.155</ele><time>2026-08-16T16:38:13.135Z</time><hdop>3.0</hdop><vdop>2.5</vdop><extensions><gom:speed>0.928</gom:speed></extensions></trkpt>
   <trkpt lat="59.3167552606" lon="34.6788101398"><ele>159.009</ele><time>2026-08-16T16:38:14.110Z</time><hdop>3.0</hdop><vdop>2.5</vdop><extensions><gom:speed>0.918</gom:speed></extensions></trkpt>
   <trkpt lat="59.3167606669" lon="34.6788101398"><ele>158.977</ele><time>2026-08-16T16:38:14.709Z</time><hdop>3.0</hdop><vdop>2.5</vdop><extensions><gom:speed>0.93</gom:speed></extensions></trkpt>
   <trkpt lat="59.3167679592" lon="34.6788091339"><ele>159.312</ele><time>2026-08-16T16:38:15.445Z</time><hdop>3.0</hdop><vdop>2.5</vdop><extensions><gom:speed>0.924</gom:speed></extensions></trkpt>
   <trkpt lat="59.3167730721" lon="34.6788103912"><ele>159.512</ele><time>2026-08-16T16:38:15.984Z</time><hdop>3.0</hdop><vdop>2.5</vdop><extensions><gom:speed>0.921</gom:speed></extensions></trkpt>
   <trkpt lat="59.3167781851" lon="34.6788108941"><ele>159.634</ele><time>2026-08-16T16:38:16.544Z</time><hdop>3.0</hdop><vdop>2.5</vdop><extensions><gom:speed>0.923</gom:speed></extensions></trkpt>
   <trkpt lat="59.3167818731" lon="34.6788125705"><ele>159.593</ele><time>2026-08-16T16:38:17.136Z</time><hdop>3.0</hdop><vdop>2.5</vdop><extensions><gom:speed>0.839</gom:speed></extensions></trkpt>
   <trkpt lat="59.3167880757" lon="34.6788191922"><ele>159.57</ele><time>2026-08-16T16:38:18.026Z</time><hdop>3.0</hdop><vdop>2.5</vdop><extensions><gom:speed>0.895</gom:speed></extensions></trkpt>
   <trkpt lat="59.3167924762" lon="34.6788255625"><ele>159.709</ele><time>2026-08-16T16:38:18.566Z</time><hdop>3.0</hdop><vdop>2.5</vdop><extensions><gom:speed>0.967</gom:speed></extensions></trkpt>
   <trkpt lat="59.3167964996" lon="34.6788308431"><ele>159.659</ele><time>2026-08-16T16:38:19.136Z</time><hdop>3.0</hdop><vdop>2.5</vdop><extensions><gom:speed>0.891</gom:speed></extensions></trkpt>
   <trkpt lat="59.3168038756" lon="34.6788367942"><ele>159.63</ele><time>2026-08-16T16:38:20.067Z</time><hdop>3.0</hdop><vdop>2.5</vdop><extensions><gom:speed>0.888</gom:speed></extensions></trkpt>
   <trkpt lat="59.3168133891" lon="34.6788416557"><ele>159.759</ele><time>2026-08-16T16:38:20.970Z</time><hdop>3.0</hdop><vdop>2.5</vdop><extensions><gom:speed>0.954</gom:speed></extensions></trkpt>
   <trkpt lat="59.3168187954" lon="34.6788428292"><ele>159.861</ele><time>2026-08-16T16:38:21.471Z</time><hdop>3.0</hdop><vdop>2.5</vdop><extensions><gom:speed>0.981</gom:speed></extensions></trkpt>
   <trkpt lat="59.3168250819" lon="34.678844757"><ele>159.922</ele><time>2026-08-16T16:38:22.070Z</time><hdop>3.0</hdop><vdop>2.5</vdop><extensions><gom:speed>0.978</gom:speed></extensions></trkpt>
   <trkpt lat="59.3168324998" lon="34.6788463496"><ele>160.088</ele><time>2026-08-16T16:38:22.727Z</time><hdop>3.0</hdop><vdop>2.5</vdop><extensions><gom:speed>1.025</gom:speed></extensions></trkpt>
   <trkpt lat="59.3168394987" lon="34.6788427454"><ele>160.141</ele><time>2026-08-16T16:38:23.404Z</time><hdop>3.0</hdop><vdop>2.5</vdop><extensions><gom:speed>1.045</gom:speed></extensions></trkpt>
   <trkpt lat="59.3168445698" lon="34.6788399793"><ele>160.173</ele><time>2026-08-16T16:38:23.885Z</time><hdop>3.0</hdop><vdop>2.5</vdop><extensions><gom:speed>1.048</gom:speed></extensions></trkpt>
   <trkpt lat="59.3168530774" lon="34.6788292505"><ele>160.365</ele><time>2026-08-16T16:38:24.690Z</time><hdop>3.0</hdop><vdop>2.5</vdop><extensions><gom:speed>1.104</gom:speed></extensions></trkpt>
   <trkpt lat="59.3168586933" lon="34.6788214553"><ele>160.463</ele><time>2026-08-16T16:38:25.230Z</time><hdop>3.0</hdop><vdop>2.5</vdop><extensions><gom:speed>1.098</gom:speed></extensions></trkpt>
   <trkpt lat="59.3168663627" lon="34.6788186893"><ele>160.522</ele><time>2026-08-16T16:38:25.927Z</time><hdop>3.0</hdop><vdop>2.5</vdop><extensions><gom:speed>1.092</gom:speed></extensions></trkpt>
   <trkpt lat="59.3168716852" lon="34.6788120676"><ele>160.509</ele><time>2026-08-16T16:38:26.447Z</time><hdop>3.0</hdop><vdop>2.5</vdop><extensions><gom:speed>1.109</gom:speed></extensions></trkpt>
   <trkpt lat="59.3168781812" lon="34.6788043562"><ele>160.61</ele><time>2026-08-16T16:38:27.136Z</time><hdop>3.0</hdop><vdop>2.5</vdop><extensions><gom:speed>1.057</gom:speed></extensions></trkpt>
   <trkpt lat="59.3168844676" lon="34.6787968964"><ele>160.67</ele><time>2026-08-16T16:38:27.831Z</time><hdop>3.0</hdop><vdop>2.5</vdop><extensions><gom:speed>1.058</gom:speed></extensions></trkpt>
   <trkpt lat="59.3168929753" lon="34.6787892688"><ele>160.762</ele><time>2026-08-16T16:38:28.665Z</time><hdop>3.0</hdop><vdop>2.5</vdop><extensions><gom:speed>1.062</gom:speed></extensions></trkpt>
   <trkpt lat="59.3168969986" lon="34.6787820604"><ele>160.912</ele><time>2026-08-16T16:38:29.136Z</time><hdop>3.0</hdop><vdop>2.5</vdop><extensions><gom:speed>1.069</gom:speed></extensions></trkpt>
   <trkpt lat="59.3169011895" lon="34.6787682302"><ele>161.002</ele><time>2026-08-16T16:38:29.911Z</time><hdop>3.0</hdop><vdop>2.5</vdop><extensions><gom:speed>1.03</gom:speed></extensions></trkpt>
   <trkpt lat="59.3169027821" lon="34.6787563279"><ele>160.928</ele><time>2026-08-16T16:38:30.509Z</time><hdop>3.0</hdop><vdop>2.5</vdop><extensions><gom:speed>0.997</gom:speed></extensions></trkpt>
   <trkpt lat="59.3169064701" lon="34.678748868"><ele>160.81</ele><time>2026-08-16T16:38:31.136Z</time><hdop>3.0</hdop><vdop>2.5</vdop><extensions><gom:speed>0.951</gom:speed></extensions></trkpt>
   <trkpt lat="59.3169113735" lon="34.6787437551"><ele>160.739</ele><time>2026-08-16T16:38:31.688Z</time><hdop>3.0</hdop><vdop>2.5</vdop><extensions><gom:speed>0.963</gom:speed></extensions></trkpt>
   <trkpt lat="59.3169204679" lon="34.6787390612"><ele>160.763</ele><time>2026-08-16T16:38:32.552Z</time><hdop>3.0</hdop><vdop>2.5</vdop><extensions><gom:speed>0.97</gom:speed></extensions></trkpt>
   <trkpt lat="59.3169268801" lon="34.6787361276"><ele>160.743</ele><time>2026-08-16T16:38:33.136Z</time><hdop>3.0</hdop><vdop>2.5</vdop><extensions><gom:speed>1.067</gom:speed></extensions></trkpt>
   <trkpt lat="59.3169371898" lon="34.678730847"><ele>160.787</ele><time>2026-08-16T16:38:34.136Z</time><hdop>3.0</hdop><vdop>2.5</vdop><extensions><gom:speed>1.024</gom:speed></extensions></trkpt>
   <trkpt lat="59.3169444821" lon="34.6787250634"><ele>160.814</ele><time>2026-08-16T16:38:34.869Z</time><hdop>3.0</hdop><vdop>2.5</vdop><extensions><gom:speed>1.022</gom:speed></extensions></trkpt>
   <trkpt lat="59.3169530735" lon="34.6787224651"><ele>160.841</ele><time>2026-08-16T16:38:35.586Z</time><hdop>3.0</hdop><vdop>2.5</vdop><extensions><gom:speed>1.034</gom:speed></extensions></trkpt>
   <trkpt lat="59.3169589828" lon="34.6787208725"><ele>160.745</ele><time>2026-08-16T16:38:36.136Z</time><hdop>3.0</hdop><vdop>2.5</vdop><extensions><gom:speed>0.985</gom:speed></extensions></trkpt>
   <trkpt lat="59.3169657721" lon="34.6787189447"><ele>160.688</ele><time>2026-08-16T16:38:36.793Z</time><hdop>3.0</hdop><vdop>2.5</vdop><extensions><gom:speed>0.984</gom:speed></extensions></trkpt>
   <trkpt lat="59.3169748665" lon="34.678720621"><ele>160.668</ele><time>2026-08-16T16:38:37.626Z</time><hdop>3.0</hdop><vdop>2.5</vdop><extensions><gom:speed>0.986</gom:speed></extensions></trkpt>
   <trkpt lat="59.3169807757" lon="34.6787216269"><ele>160.64</ele><time>2026-08-16T16:38:38.136Z</time><hdop>3.0</hdop><vdop>2.5</vdop><extensions><gom:speed>1.041</gom:speed></extensions></trkpt>
   <trkpt lat="59.3169885709" lon="34.678722968"><ele>160.624</ele><time>2026-08-16T16:38:38.883Z</time><hdop>3.0</hdop><vdop>2.5</vdop><extensions><gom:speed>1.009</gom:speed></extensions></trkpt>
   <trkpt lat="59.3169933905" lon="34.6787227165"><ele>160.691</ele><time>2026-08-16T16:38:39.384Z</time><hdop>3.0</hdop><vdop>2.5</vdop><extensions><gom:speed>1.02</gom:speed></extensions></trkpt>
   <trkpt lat="59.3170009761" lon="34.6787233871"><ele>160.731</ele><time>2026-08-16T16:38:40.130Z</time><hdop>3.0</hdop><vdop>2.5</vdop><extensions><gom:speed>1.012</gom:speed></extensions></trkpt>
   <trkpt lat="59.3170066758" lon="34.6787217945"><ele>160.867</ele><time>2026-08-16T16:38:40.630Z</time><hdop>3.0</hdop><vdop>2.5</vdop><extensions><gom:speed>1.035</gom:speed></extensions></trkpt>
   <trkpt lat="59.3170124593" lon="34.6787202858"><ele>160.976</ele><time>2026-08-16T16:38:41.136Z</time><hdop>3.0</hdop><vdop>2.5</vdop><extensions><gom:speed>1.092</gom:speed></extensions></trkpt>
   <trkpt lat="59.3170185781" lon="34.6787197828"><ele>161.042</ele><time>2026-08-16T16:38:41.710Z</time><hdop>3.0</hdop><vdop>2.5</vdop><extensions><gom:speed>1.046</gom:speed></extensions></trkpt>
   <trkpt lat="59.3170261637" lon="34.6787171845"><ele>161.191</ele><time>2026-08-16T16:38:42.328Z</time><hdop>3.0</hdop><vdop>2.5</vdop><extensions><gom:speed>1.075</gom:speed></extensions></trkpt>
   <trkpt lat="59.3170341684" lon="34.6787159272"><ele>161.28</ele><time>2026-08-16T16:38:43.064Z</time><hdop>3.0</hdop><vdop>2.5</vdop><extensions><gom:speed>1.028</gom:speed></extensions></trkpt>
   <trkpt lat="59.3170420893" lon="34.6787149213"><ele>161.267</ele><time>2026-08-16T16:38:43.830Z</time><hdop>3.0</hdop><vdop>2.5</vdop><extensions><gom:speed>0.999</gom:speed></extensions></trkpt>
   <trkpt lat="59.3170484596" lon="34.6787148375"><ele>161.228</ele><time>2026-08-16T16:38:44.428Z</time><hdop>3.0</hdop><vdop>2.5</vdop><extensions><gom:speed>1.009</gom:speed></extensions></trkpt>
   <trkpt lat="59.3170554585" lon="34.678713245"><ele>161.043</ele><time>2026-08-16T16:38:45.136Z</time><hdop>3.0</hdop><vdop>2.5</vdop><extensions><gom:speed>1.012</gom:speed></extensions></trkpt>
   <trkpt lat="59.3170620802" lon="34.6787097246"><ele>160.933</ele><time>2026-08-16T16:38:45.793Z</time><hdop>3.0</hdop><vdop>2.5</vdop><extensions><gom:speed>1.012</gom:speed></extensions></trkpt>
   <trkpt lat="59.3170682828" lon="34.6787033543"><ele>160.995</ele><time>2026-08-16T16:38:46.450Z</time><hdop>3.0</hdop><vdop>2.5</vdop><extensions><gom:speed>1.018</gom:speed></extensions></trkpt>
   <trkpt lat="59.3170745692" lon="34.6787015941"><ele>161.033</ele><time>2026-08-16T16:38:47.088Z</time><hdop>3.0</hdop><vdop>2.5</vdop><extensions><gom:speed>1.005</gom:speed></extensions></trkpt>
   <trkpt lat="59.317082071" lon="34.6786980737"><ele>160.968</ele><time>2026-08-16T16:38:47.765Z</time><hdop>3.0</hdop><vdop>2.5</vdop><extensions><gom:speed>1.059</gom:speed></extensions></trkpt>
   <trkpt lat="59.317088567" lon="34.6786921226"><ele>160.783</ele><time>2026-08-16T16:38:48.364Z</time><hdop>3.0</hdop><vdop>2.5</vdop><extensions><gom:speed>1.08</gom:speed></extensions></trkpt>
   <trkpt lat="59.3170957754" lon="34.6786864229"><ele>160.673</ele><time>2026-08-16T16:38:49.050Z</time><hdop>3.0</hdop><vdop>2.5</vdop><extensions><gom:speed>1.063</gom:speed></extensions></trkpt>
   <trkpt lat="59.3171017685" lon="34.678678041"><ele>160.494</ele><time>2026-08-16T16:38:49.611Z</time><hdop>3.0</hdop><vdop>2.5</vdop><extensions><gom:speed>1.08</gom:speed></extensions></trkpt>
   <trkpt lat="59.3171069653" lon="34.6786733471"><ele>160.386</ele><time>2026-08-16T16:38:50.101Z</time><hdop>3.0</hdop><vdop>2.5</vdop><extensions><gom:speed>1.092</gom:speed></extensions></trkpt>
   <trkpt lat="59.3171134612" lon="34.6786690723"><ele>160.278</ele><time>2026-08-16T16:38:50.760Z</time><hdop>3.0</hdop><vdop>2.5</vdop><extensions><gom:speed>1.075</gom:speed></extensions></trkpt>
   <trkpt lat="59.3171261598" lon="34.6786681503"><ele>160.135</ele><time>2026-08-16T16:38:51.977Z</time><hdop>3.0</hdop><vdop>2.5</vdop><extensions><gom:speed>1.067</gom:speed></extensions></trkpt>
   <trkpt lat="59.3171350865" lon="34.6786734309"><ele>160.052</ele><time>2026-08-16T16:38:52.713Z</time><hdop>3.0</hdop><vdop>2.5</vdop><extensions><gom:speed>1.101</gom:speed></extensions></trkpt>
   <trkpt lat="59.3171397804" lon="34.6786793821"><ele>159.971</ele><time>2026-08-16T16:38:53.175Z</time><hdop>3.0</hdop><vdop>2.5</vdop><extensions><gom:speed>1.022</gom:speed></extensions></trkpt>
   <trkpt lat="59.3171483719" lon="34.6786860876"><ele>159.923</ele><time>2026-08-16T16:38:54.136Z</time><hdop>3.0</hdop><vdop>2.5</vdop><extensions><gom:speed>0.967</gom:speed></extensions></trkpt>
   <trkpt lat="59.317153862" lon="34.6786928769"><ele>159.85</ele><time>2026-08-16T16:38:55.039Z</time><hdop>3.0</hdop><vdop>2.5</vdop><extensions><gom:speed>0.837</gom:speed></extensions></trkpt>
   <trkpt lat="59.3171588911" lon="34.6786935475"><ele>159.796</ele><time>2026-08-16T16:38:56.060Z</time><hdop>3.0</hdop><vdop>2.5</vdop><extensions><gom:speed>0.734</gom:speed></extensions></trkpt>
   <trkpt lat="59.3171599808" lon="34.678687764"><ele>159.808</ele><time>2026-08-16T16:38:57.136Z</time><hdop>3.0</hdop><vdop>2.5</vdop><extensions><gom:speed>0.46</gom:speed></extensions></trkpt>
   <trkpt lat="59.3171595617" lon="34.67868592"><ele>159.848</ele><time>2026-08-16T16:38:58.136Z</time><hdop>3.0</hdop><vdop>2.5</vdop><extensions><gom:speed>0.267</gom:speed></extensions></trkpt>
   <trkpt lat="59.3171579691" lon="34.6786873449"><ele>159.902</ele><time>2026-08-16T16:38:59.135Z</time><hdop>3.0</hdop><vdop>2.5</vdop><extensions><gom:speed>0.127</gom:speed></extensions></trkpt>
   <trkpt lat="59.3171568795" lon="34.6786890213"><ele>159.991</ele><time>2026-08-16T16:39:00.136Z</time><hdop>3.0</hdop><vdop>2.5</vdop><extensions><gom:speed>0.114</gom:speed></extensions></trkpt>
   <trkpt lat="59.3171569633" lon="34.6786901947"><ele>160.026</ele><time>2026-08-16T16:39:01.136Z</time><hdop>3.0</hdop><vdop>2.5</vdop><extensions><gom:speed>0.095</gom:speed></extensions></trkpt>
   <trkpt lat="59.3171567957" lon="34.678691452"><ele>160.048</ele><time>2026-08-16T16:39:02.136Z</time><hdop>3.0</hdop><vdop>2.5</vdop><extensions><gom:speed>0.075</gom:speed></extensions></trkpt>
   <trkpt lat="59.3171569633" lon="34.6786912844"><ele>160.062</ele><time>2026-08-16T16:39:02.773Z</time><hdop>3.0</hdop><vdop>2.5</vdop><extensions><gom:speed>0.037</gom:speed></extensions></trkpt>
   <trkpt lat="59.3171579691" lon="34.6786926255"><ele>160.051</ele><time>2026-08-16T16:39:03.441Z</time><hdop>3.0</hdop><vdop>2.5</vdop><extensions><gom:speed>0.096</gom:speed></extensions></trkpt>
   <trkpt lat="59.3171602742" lon="34.6786939666"><ele>159.965</ele><time>2026-08-16T16:39:04.136Z</time><hdop>3.0</hdop><vdop>2.5</vdop><extensions><gom:speed>0.196</gom:speed></extensions></trkpt>
   <trkpt lat="59.317162663" lon="34.6786938828"><ele>159.914</ele><time>2026-08-16T16:39:05.060Z</time><hdop>3.0</hdop><vdop>2.5</vdop><extensions><gom:speed>0.205</gom:speed></extensions></trkpt>
   <trkpt lat="59.3171696619" lon="34.6786959782"><ele>159.738</ele><time>2026-08-16T16:39:05.855Z</time><hdop>3.0</hdop><vdop>2.5</vdop><extensions><gom:speed>0.4</gom:speed></extensions></trkpt>
   <trkpt lat="59.3171807679" lon="34.6787009236"><ele>159.589</ele><time>2026-08-16T16:39:06.621Z</time><hdop>3.0</hdop><vdop>2.5</vdop><extensions><gom:speed>0.724</gom:speed></extensions></trkpt>
   <trkpt lat="59.3171874734" lon="34.6787051983"><ele>159.527</ele><time>2026-08-16T16:39:07.136Z</time><hdop>3.0</hdop><vdop>2.5</vdop><extensions><gom:speed>0.804</gom:speed></extensions></trkpt>
   <trkpt lat="59.3171968612" lon="34.6787113171"><ele>159.49</ele><time>2026-08-16T16:39:08.034Z</time><hdop>3.0</hdop><vdop>2.5</vdop><extensions><gom:speed>0.859</gom:speed></extensions></trkpt>
   <trkpt lat="59.3172041953" lon="34.6787158433"><ele>159.568</ele><time>2026-08-16T16:39:08.672Z</time><hdop>3.0</hdop><vdop>2.5</vdop><extensions><gom:speed>0.914</gom:speed></extensions></trkpt>
   <trkpt lat="59.3172090987" lon="34.6787181903"><ele>159.611</ele><time>2026-08-16T16:39:09.136Z</time><hdop>3.0</hdop><vdop>2.5</vdop><extensions><gom:speed>0.931</gom:speed></extensions></trkpt>
   <trkpt lat="59.3172195761" lon="34.6787225489"><ele>159.523</ele><time>2026-08-16T16:39:10.136Z</time><hdop>3.0</hdop><vdop>2.5</vdop><extensions><gom:speed>0.946</gom:speed></extensions></trkpt>
   <trkpt lat="59.31722888" lon="34.6787288353"><ele>159.47</ele><time>2026-08-16T16:39:11.116Z</time><hdop>3.125</hdop><vdop>2.5</vdop><extensions><gom:speed>0.954</gom:speed></extensions></trkpt>
   <trkpt lat="59.3172381839" lon="34.6787302602"><ele>159.407</ele><time>2026-08-16T16:39:11.920Z</time><hdop>3.187</hdop><vdop>2.5</vdop><extensions><gom:speed>0.933</gom:speed></extensions></trkpt>
   <trkpt lat="59.3172489966" lon="34.6787268236"><ele>159.359</ele><time>2026-08-16T16:39:12.833Z</time><hdop>3.187</hdop><vdop>2.5</vdop><extensions><gom:speed>0.916</gom:speed></extensions></trkpt>
   <trkpt lat="59.3172554926" lon="34.6787248958"><ele>159.274</ele><time>2026-08-16T16:39:13.412Z</time><hdop>3.187</hdop><vdop>2.5</vdop><extensions><gom:speed>0.932</gom:speed></extensions></trkpt>
   <trkpt lat="59.3172638745" lon="34.6787246443"><ele>159.122</ele><time>2026-08-16T16:39:14.136Z</time><hdop>3.187</hdop><vdop>2.5</vdop><extensions><gom:speed>1.038</gom:speed></extensions></trkpt>
   <trkpt lat="59.3172708734" lon="34.6787228841"><ele>159.031</ele><time>2026-08-16T16:39:14.777Z</time><hdop>3.187</hdop><vdop>2.5</vdop><extensions><gom:speed>0.998</gom:speed></extensions></trkpt>
   <trkpt lat="59.3172790876" lon="34.6787274942"><ele>158.932</ele><time>2026-08-16T16:39:15.552Z</time><hdop>3.125</hdop><vdop>2.5</vdop><extensions><gom:speed>0.98</gom:speed></extensions></trkpt>
   <trkpt lat="59.3172850807" lon="34.6787307631"><ele>158.848</ele><time>2026-08-16T16:39:16.136Z</time><hdop>3.062</hdop><vdop>2.5</vdop><extensions><gom:speed>0.969</gom:speed></extensions></trkpt>
   <trkpt lat="59.3172931692" lon="34.6787288353"><ele>158.798</ele><time>2026-08-16T16:39:17.014Z</time><hdop>3.0</hdop><vdop>2.5</vdop><extensions><gom:speed>0.942</gom:speed></extensions></trkpt>
   <trkpt lat="59.3172971925" lon="34.6787267398"><ele>158.769</ele><time>2026-08-16T16:39:17.672Z</time><hdop>3.0</hdop><vdop>2.5</vdop><extensions><gom:speed>0.889</gom:speed></extensions></trkpt>
   <trkpt lat="59.3172998748" lon="34.6787247282"><ele>158.654</ele><time>2026-08-16T16:39:18.135Z</time><hdop>3.0</hdop><vdop>2.5</vdop><extensions><gom:speed>1.058</gom:speed></extensions></trkpt>
   <trkpt lat="59.317305784" lon="34.6787152566"><ele>158.585</ele><time>2026-08-16T16:39:19.036Z</time><hdop>3.0</hdop><vdop>2.5</vdop><extensions><gom:speed>0.99</gom:speed></extensions></trkpt>
   <trkpt lat="59.3173137887" lon="34.6787231356"><ele>158.644</ele><time>2026-08-16T16:39:19.792Z</time><hdop>3.0</hdop><vdop>2.5</vdop><extensions><gom:speed>0.94</gom:speed></extensions></trkpt>
   <trkpt lat="59.3173208714" lon="34.6787341997"><ele>158.646</ele><time>2026-08-16T16:39:20.381Z</time><hdop>3.0</hdop><vdop>2.5</vdop><extensions><gom:speed>0.946</gom:speed></extensions></trkpt>
   <trkpt lat="59.3173293791" lon="34.6787428331"><ele>158.622</ele><time>2026-08-16T16:39:21.136Z</time><hdop>3.0</hdop><vdop>2.5</vdop><extensions><gom:speed>0.998</gom:speed></extensions></trkpt>
   <trkpt lat="59.3173379705" lon="34.6787485328"><ele>158.608</ele><time>2026-08-16T16:39:21.892Z</time><hdop>3.0</hdop><vdop>2.5</vdop><extensions><gom:speed>1.005</gom:speed></extensions></trkpt>
   <trkpt lat="59.3173463943" lon="34.6787555736"><ele>158.676</ele><time>2026-08-16T16:39:22.618Z</time><hdop>3.0</hdop><vdop>2.5</vdop><extensions><gom:speed>0.998</gom:speed></extensions></trkpt>
   <trkpt lat="59.3173517587" lon="34.678757669"><ele>158.641</ele><time>2026-08-16T16:39:23.136Z</time><hdop>3.0</hdop><vdop>2.5</vdop><extensions><gom:speed>1.016</gom:speed></extensions></trkpt>
   <trkpt lat="59.3173611884" lon="34.6787555736"><ele>158.62</ele><time>2026-08-16T16:39:24.119Z</time><hdop>3.0</hdop><vdop>2.5</vdop><extensions><gom:speed>0.963</gom:speed></extensions></trkpt>
   <trkpt lat="59.3173672653" lon="34.6787549868"><ele>158.599</ele><time>2026-08-16T16:39:24.738Z</time><hdop>3.0</hdop><vdop>2.5</vdop><extensions><gom:speed>0.948</gom:speed></extensions></trkpt>
   <trkpt lat="59.3173748928" lon="34.6787550707"><ele>158.693</ele><time>2026-08-16T16:39:25.612Z</time><hdop>3.0</hdop><vdop>2.5</vdop><extensions><gom:speed>0.912</gom:speed></extensions></trkpt>
   <trkpt lat="59.3173794609" lon="34.6787565794"><ele>158.748</ele><time>2026-08-16T16:39:26.136Z</time><hdop>3.0</hdop><vdop>2.5</vdop><extensions><gom:speed>0.938</gom:speed></extensions></trkpt>
   <trkpt lat="59.3173887648" lon="34.6787586749"><ele>158.781</ele><time>2026-08-16T16:39:27.094Z</time><hdop>3.0</hdop><vdop>2.5</vdop><extensions><gom:speed>0.932</gom:speed></extensions></trkpt>
   <trkpt lat="59.3173948836" lon="34.6787622791"><ele>158.835</ele><time>2026-08-16T16:39:27.634Z</time><hdop>3.0</hdop><vdop>2.5</vdop><extensions><gom:speed>1.008</gom:speed></extensions></trkpt>
   <trkpt lat="59.317399787" lon="34.6787657995"><ele>158.854</ele><time>2026-08-16T16:39:28.136Z</time><hdop>3.0</hdop><vdop>2.5</vdop><extensions><gom:speed>0.988</gom:speed></extensions></trkpt>
   <trkpt lat="59.3174094681" lon="34.6787712477"><ele>158.934</ele><time>2026-08-16T16:39:29.136Z</time><hdop>3.0</hdop><vdop>2.5</vdop><extensions><gom:speed>0.982</gom:speed></extensions></trkpt>
   <trkpt lat="59.3174168861" lon="34.678775271"><ele>158.982</ele><time>2026-08-16T16:39:29.901Z</time><hdop>3.0</hdop><vdop>2.5</vdop><extensions><gom:speed>0.972</gom:speed></extensions></trkpt>
   <trkpt lat="59.3174227954" lon="34.678777618"><ele>159.05</ele><time>2026-08-16T16:39:30.558Z</time><hdop>3.0</hdop><vdop>2.5</vdop><extensions><gom:speed>0.956</gom:speed></extensions></trkpt>
   <trkpt lat="59.3174275731" lon="34.6787784562"><ele>159.033</ele><time>2026-08-16T16:39:31.136Z</time><hdop>3.0</hdop><vdop>2.5</vdop><extensions><gom:speed>0.937</gom:speed></extensions></trkpt>
   <trkpt lat="59.3174357873" lon="34.6787784562"><ele>159.022</ele><time>2026-08-16T16:39:32.136Z</time><hdop>3.0</hdop><vdop>2.5</vdop><extensions><gom:speed>0.906</gom:speed></extensions></trkpt>
   <trkpt lat="59.3174438759" lon="34.6787779533"><ele>159.015</ele><time>2026-08-16T16:39:33.050Z</time><hdop>3.0</hdop><vdop>2.5</vdop><extensions><gom:speed>0.917</gom:speed></extensions></trkpt>
   <trkpt lat="59.3174500785" lon="34.678775774"><ele>159.044</ele><time>2026-08-16T16:39:33.758Z</time><hdop>3.0</hdop><vdop>2.5</vdop><extensions><gom:speed>0.928</gom:speed></extensions></trkpt>
   <trkpt lat="59.3174568678" lon="34.6787718345"><ele>159.093</ele><time>2026-08-16T16:39:34.553Z</time><hdop>3.0</hdop><vdop>2.5</vdop><extensions><gom:speed>0.939</gom:speed></extensions></trkpt>
   <trkpt lat="59.3174620646" lon="34.6787705772"><ele>159.058</ele><time>2026-08-16T16:39:35.136Z</time><hdop>3.0</hdop><vdop>2.5</vdop><extensions><gom:speed>0.991</gom:speed></extensions></trkpt>
   <trkpt lat="59.317469273" lon="34.6787709963"><ele>159.037</ele><time>2026-08-16T16:39:35.898Z</time><hdop>3.0</hdop><vdop>2.5</vdop><extensions><gom:speed>0.958</gom:speed></extensions></trkpt>
   <trkpt lat="59.3174770682" lon="34.6787767798"><ele>159.02</ele><time>2026-08-16T16:39:36.712Z</time><hdop>3.0</hdop><vdop>2.5</vdop><extensions><gom:speed>0.97</gom:speed></extensions></trkpt>
   <trkpt lat="59.3174856596" lon="34.6787788753"><ele>159.089</ele><time>2026-08-16T16:39:37.753Z</time><hdop>3.0</hdop><vdop>2.5</vdop><extensions><gom:speed>0.871</gom:speed></extensions></trkpt>
   <trkpt lat="59.3174913593" lon="34.6787771989"><ele>159.059</ele><time>2026-08-16T16:39:38.557Z</time><hdop>3.0</hdop><vdop>2.5</vdop><extensions><gom:speed>0.828</gom:speed></extensions></trkpt>
   <trkpt lat="59.3174950893" lon="34.6787749358"><ele>159.109</ele><time>2026-08-16T16:39:39.136Z</time><hdop>3.0</hdop><vdop>2.5</vdop><extensions><gom:speed>0.814</gom:speed></extensions></trkpt>
   <trkpt lat="59.3174990707" lon="34.6787727565"><ele>159.139</ele><time>2026-08-16T16:39:39.715Z</time><hdop>3.0</hdop><vdop>2.5</vdop><extensions><gom:speed>0.788</gom:speed></extensions></trkpt>
   <trkpt lat="59.3175034712" lon="34.6787725888"><ele>159.194</ele><time>2026-08-16T16:39:40.373Z</time><hdop>3.0</hdop><vdop>2.5</vdop><extensions><gom:speed>0.813</gom:speed></extensions></trkpt>
   <trkpt lat="59.3175092966" lon="34.6787741814"><ele>159.254</ele><time>2026-08-16T16:39:41.136Z</time><hdop>3.0</hdop><vdop>2.5</vdop><extensions><gom:speed>0.82</gom:speed></extensions></trkpt>
   <trkpt lat="59.3175162955" lon="34.6787748519"><ele>159.29</ele><time>2026-08-16T16:39:41.993Z</time><hdop>3.0</hdop><vdop>2.5</vdop><extensions><gom:speed>0.833</gom:speed></extensions></trkpt>
   <trkpt lat="59.3175256832" lon="34.6787648775"><ele>159.365</ele><time>2026-08-16T16:39:43.136Z</time><hdop>3.0</hdop><vdop>2.5</vdop><extensions><gom:speed>0.945</gom:speed></extensions></trkpt>
   <trkpt lat="59.3175342747" lon="34.6787573338"><ele>159.41</ele><time>2026-08-16T16:39:44.093Z</time><hdop>3.0</hdop><vdop>2.5</vdop><extensions><gom:speed>0.951</gom:speed></extensions></trkpt>
   <trkpt lat="59.3175405611" lon="34.6787559927"><ele>159.435</ele><time>2026-08-16T16:39:44.692Z</time><hdop>3.0</hdop><vdop>2.5</vdop><extensions><gom:speed>1.012</gom:speed></extensions></trkpt>
   <trkpt lat="59.3175491945" lon="34.6787538972"><ele>159.525</ele><time>2026-08-16T16:39:45.477Z</time><hdop>3.0</hdop><vdop>2.5</vdop><extensions><gom:speed>1.071</gom:speed></extensions></trkpt>
   <trkpt lat="59.3175562772" lon="34.6787489519"><ele>159.523</ele><time>2026-08-16T16:39:46.136Z</time><hdop>3.0</hdop><vdop>2.5</vdop><extensions><gom:speed>1.093</gom:speed></extensions></trkpt>
   <trkpt lat="59.3175629827" lon="34.6787419949"><ele>159.522</ele><time>2026-08-16T16:39:46.772Z</time><hdop>3.0</hdop><vdop>2.5</vdop><extensions><gom:speed>1.097</gom:speed></extensions></trkpt>
   <trkpt lat="59.3175692691" lon="34.6787389774"><ele>159.647</ele><time>2026-08-16T16:39:47.351Z</time><hdop>3.0</hdop><vdop>2.5</vdop><extensions><gom:speed>1.14</gom:speed></extensions></trkpt>
   <trkpt lat="59.3175770643" lon="34.6787358761"><ele>159.721</ele><time>2026-08-16T16:39:48.058Z</time><hdop>3.0</hdop><vdop>2.5</vdop><extensions><gom:speed>1.148</gom:speed></extensions></trkpt>
   <trkpt lat="59.3175837698" lon="34.6787377201"><ele>159.764</ele><time>2026-08-16T16:39:48.559Z</time><hdop>3.0</hdop><vdop>2.5</vdop><extensions><gom:speed>1.181</gom:speed></extensions></trkpt>
   <trkpt lat="59.3175907687" lon="34.678739648"><ele>159.789</ele><time>2026-08-16T16:39:49.136Z</time><hdop>3.0</hdop><vdop>2.5</vdop><extensions><gom:speed>1.169</gom:speed></extensions></trkpt>
   <trkpt lat="59.3176006594" lon="34.6787410729"><ele>159.804</ele><time>2026-08-16T16:39:49.952Z</time><hdop>3.0</hdop><vdop>2.5</vdop><extensions><gom:speed>1.171</gom:speed></extensions></trkpt>
   <trkpt lat="59.3176097956" lon="34.6787416596"><ele>159.929</ele><time>2026-08-16T16:39:50.738Z</time><hdop>3.0</hdop><vdop>2.5</vdop><extensions><gom:speed>1.149</gom:speed></extensions></trkpt>
   <trkpt lat="59.3176232905" lon="34.6787407376"><ele>159.98</ele><time>2026-08-16T16:39:51.994Z</time><hdop>3.0</hdop><vdop>2.5</vdop><extensions><gom:speed>1.12</gom:speed></extensions></trkpt>
   <trkpt lat="59.3176288645" lon="34.6787389774"><ele>160.033</ele><time>2026-08-16T16:39:52.572Z</time><hdop>3.0</hdop><vdop>2.5</vdop><extensions><gom:speed>1.119</gom:speed></extensions></trkpt>
   <trkpt lat="59.3176338936" lon="34.6787371334"><ele>160.065</ele><time>2026-08-16T16:39:53.136Z</time><hdop>3.0</hdop><vdop>2.5</vdop><extensions><gom:speed>1.045</gom:speed></extensions></trkpt>
   <trkpt lat="59.317642066" lon="34.6787336968"><ele>160.119</ele><time>2026-08-16T16:39:54.136Z</time><hdop>3.0</hdop><vdop>2.5</vdop><extensions><gom:speed>0.967</gom:speed></extensions></trkpt>
   <trkpt lat="59.3176504898" lon="34.6787320204"><ele>160.151</ele><time>2026-08-16T16:39:55.115Z</time><hdop>3.0</hdop><vdop>2.5</vdop><extensions><gom:speed>0.926</gom:speed></extensions></trkpt>
   <trkpt lat="59.3176547645" lon="34.6787274942"><ele>160.242</ele><time>2026-08-16T16:39:56.136Z</time><hdop>3.0</hdop><vdop>2.5</vdop><extensions><gom:speed>0.788</gom:speed></extensions></trkpt>
   <trkpt lat="59.3176581592" lon="34.678720621"><ele>160.295</ele><time>2026-08-16T16:39:56.921Z</time><hdop>3.0</hdop><vdop>2.5</vdop><extensions><gom:speed>0.748</gom:speed></extensions></trkpt>
   <trkpt lat="59.3176635655" lon="34.6787172683"><ele>160.293</ele><time>2026-08-16T16:39:57.637Z</time><hdop>3.0</hdop><vdop>2.5</vdop><extensions><gom:speed>0.851</gom:speed></extensions></trkpt>
   <trkpt lat="59.3176680918" lon="34.6787185256"><ele>160.372</ele><time>2026-08-16T16:39:58.136Z</time><hdop>3.0</hdop><vdop>2.5</vdop><extensions><gom:speed>0.884</gom:speed></extensions></trkpt>
   <trkpt lat="59.3176768928" lon="34.6787212916"><ele>160.383</ele><time>2026-08-16T16:39:59.136Z</time><hdop>3.0</hdop><vdop>2.5</vdop><extensions><gom:speed>0.9</gom:speed></extensions></trkpt>
   <trkpt lat="59.3176857776" lon="34.6787208725"><ele>160.404</ele><time>2026-08-16T16:40:00.136Z</time><hdop>3.0</hdop><vdop>2.5</vdop><extensions><gom:speed>0.899</gom:speed></extensions></trkpt>
   <trkpt lat="59.3176919802" lon="34.6787183579"><ele>160.417</ele><time>2026-08-16T16:40:00.817Z</time><hdop>3.0</hdop><vdop>2.5</vdop><extensions><gom:speed>0.904</gom:speed></extensions></trkpt>
   <trkpt lat="59.3176979732" lon="34.678714167"><ele>160.495</ele><time>2026-08-16T16:40:01.612Z</time><hdop>3.0</hdop><vdop>2.5</vdop><extensions><gom:speed>0.867</gom:speed></extensions></trkpt>
   <trkpt lat="59.3177020804" lon="34.6787128259"><ele>160.561</ele><time>2026-08-16T16:40:02.136Z</time><hdop>3.0</hdop><vdop>2.5</vdop><extensions><gom:speed>0.851</gom:speed></extensions></trkpt>
   <trkpt lat="59.3177099594" lon="34.6787149213"><ele>160.594</ele><time>2026-08-16T16:40:03.136Z</time><hdop>3.0</hdop><vdop>2.5</vdop><extensions><gom:speed>0.837</gom:speed></extensions></trkpt>
   <trkpt lat="59.3177178803" lon="34.6787205372"><ele>160.613</ele><time>2026-08-16T16:40:04.115Z</time><hdop>3.0</hdop><vdop>2.5</vdop><extensions><gom:speed>0.809</gom:speed></extensions></trkpt>
   <trkpt lat="59.3177242924" lon="34.6787253987"><ele>160.676</ele><time>2026-08-16T16:40:04.900Z</time><hdop>3.0</hdop><vdop>2.5</vdop><extensions><gom:speed>0.844</gom:speed></extensions></trkpt>
   <trkpt lat="59.3177316685" lon="34.6787271589"><ele>160.708</ele><time>2026-08-16T16:40:05.756Z</time><hdop>3.0</hdop><vdop>2.5</vdop><extensions><gom:speed>0.858</gom:speed></extensions></trkpt>
   <trkpt lat="59.3177379968" lon="34.6787272427"><ele>160.726</ele><time>2026-08-16T16:40:06.454Z</time><hdop>3.0</hdop><vdop>2.5</vdop><extensions><gom:speed>0.872</gom:speed></extensions></trkpt>
   <trkpt lat="59.3177435708" lon="34.6787256502"><ele>160.737</ele><time>2026-08-16T16:40:07.092Z</time><hdop>3.0</hdop><vdop>2.5</vdop><extensions><gom:speed>0.869</gom:speed></extensions></trkpt>
   <trkpt lat="59.3177517851" lon="34.6787244767"><ele>160.711</ele><time>2026-08-16T16:40:07.915Z</time><hdop>3.0</hdop><vdop>2.5</vdop><extensions><gom:speed>0.879</gom:speed></extensions></trkpt>
   <trkpt lat="59.317757359" lon="34.6787252311"><ele>160.675</ele><time>2026-08-16T16:40:08.515Z</time><hdop>3.0</hdop><vdop>2.5</vdop><extensions><gom:speed>0.905</gom:speed></extensions></trkpt>
   <trkpt lat="59.3177628911" lon="34.6787289191"><ele>160.651</ele><time>2026-08-16T16:40:09.136Z</time><hdop>3.0</hdop><vdop>2.5</vdop><extensions><gom:speed>0.941</gom:speed></extensions></trkpt>
   <trkpt lat="59.3177695966" lon="34.6787375525"><ele>160.637</ele><time>2026-08-16T16:40:09.977Z</time><hdop>3.0</hdop><vdop>2.5</vdop><extensions><gom:speed>0.929</gom:speed></extensions></trkpt>
   <trkpt lat="59.3177759669" lon="34.6787388936"><ele>160.617</ele><time>2026-08-16T16:40:10.674Z</time><hdop>3.0</hdop><vdop>2.5</vdop><extensions><gom:speed>0.933</gom:speed></extensions></trkpt>
   <trkpt lat="59.3177803674" lon="34.6787365467"><ele>160.546</ele><time>2026-08-16T16:40:11.136Z</time><hdop>3.0</hdop><vdop>2.5</vdop><extensions><gom:speed>0.965</gom:speed></extensions></trkpt>
   <trkpt lat="59.3177895874" lon="34.678735457"><ele>160.528</ele><time>2026-08-16T16:40:12.136Z</time><hdop>3.0</hdop><vdop>2.5</vdop><extensions><gom:speed>0.974</gom:speed></extensions></trkpt>
   <trkpt lat="59.3177964606" lon="34.6787349541"><ele>160.516</ele><time>2026-08-16T16:40:12.854Z</time><hdop>3.0</hdop><vdop>2.5</vdop><extensions><gom:speed>0.956</gom:speed></extensions></trkpt>
   <trkpt lat="59.3178076924" lon="34.6787297573"><ele>160.582</ele><time>2026-08-16T16:40:14.136Z</time><hdop>3.0</hdop><vdop>2.5</vdop><extensions><gom:speed>0.859</gom:speed></extensions></trkpt>
   <trkpt lat="59.3178149846" lon="34.6787337806"><ele>160.621</ele><time>2026-08-16T16:40:15.091Z</time><hdop>3.0</hdop><vdop>2.5</vdop><extensions><gom:speed>0.856</gom:speed></extensions></trkpt>
   <trkpt lat="59.317821271" lon="34.6787352894"><ele>160.58</ele><time>2026-08-16T16:40:15.740Z</time><hdop>3.0</hdop><vdop>2.5</vdop><extensions><gom:speed>0.932</gom:speed></extensions></trkpt>
   <trkpt lat="59.3178334667" lon="34.6787349541"><ele>160.413</ele><time>2026-08-16T16:40:16.996Z</time><hdop>3.0</hdop><vdop>2.5</vdop><extensions><gom:speed>0.937</gom:speed></extensions></trkpt>
   <trkpt lat="59.3178421839" lon="34.6787293382"><ele>160.283</ele><time>2026-08-16T16:40:17.771Z</time><hdop>3.0</hdop><vdop>2.5</vdop><extensions><gom:speed>0.983</gom:speed></extensions></trkpt>
   <trkpt lat="59.3178482608" lon="34.6787226327"><ele>160.267</ele><time>2026-08-16T16:40:18.292Z</time><hdop>3.0</hdop><vdop>2.5</vdop><extensions><gom:speed>1.018</gom:speed></extensions></trkpt>
   <trkpt lat="59.3178561817" lon="34.6787189447"><ele>160.258</ele><time>2026-08-16T16:40:19.018Z</time><hdop>3.0</hdop><vdop>2.5</vdop><extensions><gom:speed>1.045</gom:speed></extensions></trkpt>
   <trkpt lat="59.3178640607" lon="34.678712742"><ele>160.23</ele><time>2026-08-16T16:40:19.656Z</time><hdop>3.0</hdop><vdop>2.5</vdop><extensions><gom:speed>1.086</gom:speed></extensions></trkpt>
   <trkpt lat="59.3178690898" lon="34.6787079644"><ele>160.252</ele><time>2026-08-16T16:40:20.136Z</time><hdop>3.0</hdop><vdop>2.5</vdop><extensions><gom:speed>1.038</gom:speed></extensions></trkpt>
   <trkpt lat="59.3178787709" lon="34.6787022647"><ele>160.265</ele><time>2026-08-16T16:40:21.079Z</time><hdop>3.0</hdop><vdop>2.5</vdop><extensions><gom:speed>1.035</gom:speed></extensions></trkpt>
   <trkpt lat="59.3178852669" lon="34.6787014265"><ele>160.259</ele><time>2026-08-16T16:40:21.678Z</time><hdop>3.0</hdop><vdop>2.5</vdop><extensions><gom:speed>1.052</gom:speed></extensions></trkpt>
   <trkpt lat="59.3178896674" lon="34.6787048631"><ele>160.252</ele><time>2026-08-16T16:40:22.136Z</time><hdop>3.0</hdop><vdop>2.5</vdop><extensions><gom:speed>1.066</gom:speed></extensions></trkpt>
   <trkpt lat="59.3178978816" lon="34.6787124906"><ele>160.247</ele><time>2026-08-16T16:40:23.012Z</time><hdop>3.0</hdop><vdop>2.5</vdop><extensions><gom:speed>1.014</gom:speed></extensions></trkpt>
   <trkpt lat="59.3179028689" lon="34.6787190285"><ele>160.223</ele><time>2026-08-16T16:40:23.611Z</time><hdop>3.0</hdop><vdop>2.5</vdop><extensions><gom:speed>0.994</gom:speed></extensions></trkpt>
   <trkpt lat="59.3179072694" lon="34.67872389"><ele>160.212</ele><time>2026-08-16T16:40:24.136Z</time><hdop>3.0</hdop><vdop>2.5</vdop><extensions><gom:speed>1.015</gom:speed></extensions></trkpt>
   <trkpt lat="59.3179147712" lon="34.6787280809"><ele>160.205</ele><time>2026-08-16T16:40:24.897Z</time><hdop>3.0</hdop><vdop>2.5</vdop><extensions><gom:speed>0.987</gom:speed></extensions></trkpt>
   <trkpt lat="59.317920387" lon="34.6787318528"><ele>160.194</ele><time>2026-08-16T16:40:25.515Z</time><hdop>3.0</hdop><vdop>2.5</vdop><extensions><gom:speed>0.983</gom:speed></extensions></trkpt>
   <trkpt lat="59.3179265897" lon="34.678732691"><ele>160.126</ele><time>2026-08-16T16:40:26.136Z</time><hdop>3.0</hdop><vdop>2.5</vdop><extensions><gom:speed>1.013</gom:speed></extensions></trkpt>
   <trkpt lat="59.3179352649" lon="34.6787286677"><ele>160.085</ele><time>2026-08-16T16:40:27.037Z</time><hdop>3.0</hdop><vdop>2.5</vdop><extensions><gom:speed>0.972</gom:speed></extensions></trkpt>
   <trkpt lat="59.3179408808" lon="34.6787239738"><ele>160.01</ele><time>2026-08-16T16:40:27.675Z</time><hdop>3.0</hdop><vdop>2.5</vdop><extensions><gom:speed>0.964</gom:speed></extensions></trkpt>
   <trkpt lat="59.3179451975" lon="34.6787207887"><ele>159.928</ele><time>2026-08-16T16:40:28.136Z</time><hdop>3.0</hdop><vdop>2.5</vdop><extensions><gom:speed>0.957</gom:speed></extensions></trkpt>
   <trkpt lat="59.3179553815" lon="34.6787146699"><ele>159.852</ele><time>2026-08-16T16:40:29.136Z</time><hdop>3.0</hdop><vdop>2.5</vdop><extensions><gom:speed>1.025</gom:speed></extensions></trkpt>
   <trkpt lat="59.3179614584" lon="34.6787115686"><ele>159.806</ele><time>2026-08-16T16:40:29.716Z</time><hdop>3.0</hdop><vdop>2.5</vdop><extensions><gom:speed>0.966</gom:speed></extensions></trkpt>
   <trkpt lat="59.3179687925" lon="34.6787106466"><ele>159.737</ele><time>2026-08-16T16:40:30.452Z</time><hdop>3.0</hdop><vdop>2.5</vdop><extensions><gom:speed>0.93</gom:speed></extensions></trkpt>
   <trkpt lat="59.3179757914" lon="34.6787115686"><ele>159.645</ele><time>2026-08-16T16:40:31.136Z</time><hdop>3.0</hdop><vdop>2.5</vdop><extensions><gom:speed>0.984</gom:speed></extensions></trkpt>
   <trkpt lat="59.3179829999" lon="34.6787112333"><ele>159.591</ele><time>2026-08-16T16:40:31.856Z</time><hdop>3.0</hdop><vdop>2.5</vdop><extensions><gom:speed>0.966</gom:speed></extensions></trkpt>
   <trkpt lat="59.3179903759" lon="34.6787101437"><ele>159.547</ele><time>2026-08-16T16:40:32.533Z</time><hdop>3.0</hdop><vdop>2.5</vdop><extensions><gom:speed>0.992</gom:speed></extensions></trkpt>
   <trkpt lat="59.317996369" lon="34.6787075453"><ele>159.521</ele><time>2026-08-16T16:40:33.132Z</time><hdop>3.0</hdop><vdop>2.5</vdop><extensions><gom:speed>0.992</gom:speed></extensions></trkpt>
   <trkpt lat="59.3180030745" lon="34.6787038572"><ele>159.474</ele><time>2026-08-16T16:40:33.838Z</time><hdop>3.0</hdop><vdop>2.5</vdop><extensions><gom:speed>0.966</gom:speed></extensions></trkpt>
   <trkpt lat="59.3180091933" lon="34.6786979899"><ele>159.504</ele><time>2026-08-16T16:40:34.535Z</time><hdop>3.0</hdop><vdop>2.5</vdop><extensions><gom:speed>0.958</gom:speed></extensions></trkpt>
   <trkpt lat="59.3180136776" lon="34.678693296"><ele>159.436</ele><time>2026-08-16T16:40:35.136Z</time><hdop>3.0</hdop><vdop>2.5</vdop><extensions><gom:speed>0.962</gom:speed></extensions></trkpt>
   <trkpt lat="59.3180205927" lon="34.6786837407"><ele>159.395</ele><time>2026-08-16T16:40:36.056Z</time><hdop>3.0</hdop><vdop>2.5</vdop><extensions><gom:speed>0.936</gom:speed></extensions></trkpt>
   <trkpt lat="59.3180270887" lon="34.678678963"><ele>159.371</ele><time>2026-08-16T16:40:36.773Z</time><hdop>3.0</hdop><vdop>2.5</vdop><extensions><gom:speed>0.956</gom:speed></extensions></trkpt>
   <trkpt lat="59.3180340876" lon="34.6786741853"><ele>159.36</ele><time>2026-08-16T16:40:37.578Z</time><hdop>3.0</hdop><vdop>2.5</vdop><extensions><gom:speed>0.926</gom:speed></extensions></trkpt>
   <trkpt lat="59.3180384881" lon="34.6786708325"><ele>159.297</ele><time>2026-08-16T16:40:38.136Z</time><hdop>3.0</hdop><vdop>2.5</vdop><extensions><gom:speed>0.915</gom:speed></extensions></trkpt>
   <trkpt lat="59.3180457803" lon="34.6786636241"><ele>159.27</ele><time>2026-08-16T16:40:39.136Z</time><hdop>3.0</hdop><vdop>2.5</vdop><extensions><gom:speed>0.894</gom:speed></extensions></trkpt>
   <trkpt lat="59.3180508933" lon="34.6786565833"><ele>159.254</ele><time>2026-08-16T16:40:39.855Z</time><hdop>3.0</hdop><vdop>2.5</vdop><extensions><gom:speed>0.89</gom:speed></extensions></trkpt>
   <trkpt lat="59.3180562996" lon="34.6786499616"><ele>159.21</ele><time>2026-08-16T16:40:40.640Z</time><hdop>3.0</hdop><vdop>2.5</vdop><extensions><gom:speed>0.858</gom:speed></extensions></trkpt>
   <trkpt lat="59.3180599876" lon="34.6786472794"><ele>159.167</ele><time>2026-08-16T16:40:41.136Z</time><hdop>3.0</hdop><vdop>2.5</vdop><extensions><gom:speed>0.875</gom:speed></extensions></trkpt>
   <trkpt lat="59.3180672799" lon="34.6786410768"><ele>159.153</ele><time>2026-08-16T16:40:42.136Z</time><hdop>3.0</hdop><vdop>2.5</vdop><extensions><gom:speed>0.859</gom:speed></extensions></trkpt>
   <trkpt lat="59.3180720995" lon="34.6786306832"><ele>159.144</ele><time>2026-08-16T16:40:42.938Z</time><hdop>3.0</hdop><vdop>2.5</vdop><extensions><gom:speed>0.836</gom:speed></extensions></trkpt>
   <trkpt lat="59.3180745722" lon="34.6786174398"><ele>159.17</ele><time>2026-08-16T16:40:43.674Z</time><hdop>3.0</hdop><vdop>2.5</vdop><extensions><gom:speed>0.901</gom:speed></extensions></trkpt>
   <trkpt lat="59.3180753684" lon="34.6786095608"><ele>159.148</ele><time>2026-08-16T16:40:44.136Z</time><hdop>3.0</hdop><vdop>2.5</vdop><extensions><gom:speed>0.916</gom:speed></extensions></trkpt>
   <trkpt lat="59.318077883" lon="34.6785950601"><ele>159.134</ele><time>2026-08-16T16:40:44.999Z</time><hdop>3.0</hdop><vdop>2.5</vdop><extensions><gom:speed>0.904</gom:speed></extensions></trkpt>
   <trkpt lat="59.3180817806" lon="34.6785809785"><ele>159.118</ele><time>2026-08-16T16:40:45.873Z</time><hdop>3.0</hdop><vdop>2.5</vdop><extensions><gom:speed>0.909</gom:speed></extensions></trkpt>
   <trkpt lat="59.3180852591" lon="34.6785707526"><ele>159.072</ele><time>2026-08-16T16:40:46.501Z</time><hdop>3.0</hdop><vdop>2.5</vdop><extensions><gom:speed>0.935</gom:speed></extensions></trkpt>
   <trkpt lat="59.3180907911" lon="34.6785629574"><ele>158.996</ele><time>2026-08-16T16:40:47.136Z</time><hdop>3.0</hdop><vdop>2.5</vdop><extensions><gom:speed>1.015</gom:speed></extensions></trkpt>
   <trkpt lat="59.3180969937" lon="34.6785600238"><ele>158.95</ele><time>2026-08-16T16:40:47.718Z</time><hdop>3.0</hdop><vdop>2.5</vdop><extensions><gom:speed>0.965</gom:speed></extensions></trkpt>
   <trkpt lat="59.3181097762" lon="34.67856455"><ele>158.906</ele><time>2026-08-16T16:40:49.092Z</time><hdop>3.0</hdop><vdop>2.5</vdop><extensions><gom:speed>0.901</gom:speed></extensions></trkpt>
   <trkpt lat="59.3181161883" lon="34.6785634603"><ele>158.842</ele><time>2026-08-16T16:40:49.701Z</time><hdop>3.0</hdop><vdop>2.5</vdop><extensions><gom:speed>0.901</gom:speed></extensions></trkpt>
   <trkpt lat="59.3181236901" lon="34.678560359"><ele>158.826</ele><time>2026-08-16T16:40:50.476Z</time><hdop>3.0</hdop><vdop>2.5</vdop><extensions><gom:speed>0.908</gom:speed></extensions></trkpt>
   <trkpt lat="59.3181292641" lon="34.6785581798"><ele>158.816</ele><time>2026-08-16T16:40:51.114Z</time><hdop>3.0</hdop><vdop>2.5</vdop><extensions><gom:speed>0.909</gom:speed></extensions></trkpt>
   <trkpt lat="59.3181369754" lon="34.6785528992"><ele>158.746</ele><time>2026-08-16T16:40:51.899Z</time><hdop>3.0</hdop><vdop>2.5</vdop><extensions><gom:speed>0.93</gom:speed></extensions></trkpt>
   <trkpt lat="59.3181442677" lon="34.6785454393"><ele>158.835</ele><time>2026-08-16T16:40:52.596Z</time><hdop>3.0</hdop><vdop>2.5</vdop><extensions><gom:speed>0.985</gom:speed></extensions></trkpt>
   <trkpt lat="59.3181483748" lon="34.6785387337"><ele>158.888</ele><time>2026-08-16T16:40:53.136Z</time><hdop>3.0</hdop><vdop>2.5</vdop><extensions><gom:speed>0.974</gom:speed></extensions></trkpt>
   <trkpt lat="59.3181516857" lon="34.6785257418"><ele>158.855</ele><time>2026-08-16T16:40:53.774Z</time><hdop>3.0</hdop><vdop>2.5</vdop><extensions><gom:speed>0.972</gom:speed></extensions></trkpt>
   <trkpt lat="59.3181542841" lon="34.678512666"><ele>158.816</ele><time>2026-08-16T16:40:54.314Z</time><hdop>3.0</hdop><vdop>2.5</vdop><extensions><gom:speed>1.026</gom:speed></extensions></trkpt>
   <trkpt lat="59.3181591875" lon="34.6785008475"><ele>158.792</ele><time>2026-08-16T16:40:55.031Z</time><hdop>3.0</hdop><vdop>2.5</vdop><extensions><gom:speed>1.011</gom:speed></extensions></trkpt>
   <trkpt lat="59.3181643842" lon="34.6784982491"><ele>158.837</ele><time>2026-08-16T16:40:55.601Z</time><hdop>3.0</hdop><vdop>2.5</vdop><extensions><gom:speed>0.951</gom:speed></extensions></trkpt>
   <trkpt lat="59.3181702935" lon="34.6784970757"><ele>158.86</ele><time>2026-08-16T16:40:56.136Z</time><hdop>3.0</hdop><vdop>2.5</vdop><extensions><gom:speed>1.054</gom:speed></extensions></trkpt>
   <trkpt lat="59.3181790945" lon="34.6784963213"><ele>158.875</ele><time>2026-08-16T16:40:57.014Z</time><hdop>3.0</hdop><vdop>2.5</vdop><extensions><gom:speed>0.958</gom:speed></extensions></trkpt>
   <trkpt lat="59.3181859677" lon="34.678490454"><ele>158.865</ele><time>2026-08-16T16:40:57.799Z</time><hdop>3.0</hdop><vdop>2.5</vdop><extensions><gom:speed>0.929</gom:speed></extensions></trkpt>
   <trkpt lat="59.3181911644" lon="34.6784836646"><ele>158.888</ele><time>2026-08-16T16:40:58.457Z</time><hdop>3.0</hdop><vdop>2.5</vdop><extensions><gom:speed>0.904</gom:speed></extensions></trkpt>
   <trkpt lat="59.3181963612" lon="34.6784773782"><ele>158.962</ele><time>2026-08-16T16:40:59.136Z</time><hdop>3.0</hdop><vdop>2.5</vdop><extensions><gom:speed>0.899</gom:speed></extensions></trkpt>
   <trkpt lat="59.3182012646" lon="34.6784667332"><ele>159.007</ele><time>2026-08-16T16:40:59.978Z</time><hdop>3.0</hdop><vdop>2.5</vdop><extensions><gom:speed>0.836</gom:speed></extensions></trkpt>
   <trkpt lat="59.3182063776" lon="34.6784559205"><ele>159.04</ele><time>2026-08-16T16:41:00.734Z</time><hdop>3.0</hdop><vdop>2.5</vdop><extensions><gom:speed>0.872</gom:speed></extensions></trkpt>
   <trkpt lat="59.3182128736" lon="34.6784568425"><ele>159.043</ele><time>2026-08-16T16:41:01.332Z</time><hdop>3.0</hdop><vdop>2.5</vdop><extensions><gom:speed>0.935</gom:speed></extensions></trkpt>
   <trkpt lat="59.3182190762" lon="34.678460782"><ele>159.045</ele><time>2026-08-16T16:41:02.059Z</time><hdop>3.0</hdop><vdop>2.5</vdop><extensions><gom:speed>0.896</gom:speed></extensions></trkpt>
   <trkpt lat="59.3182252788" lon="34.6784637995"><ele>159.047</ele><time>2026-08-16T16:41:02.676Z</time><hdop>3.0</hdop><vdop>2.5</vdop><extensions><gom:speed>0.923</gom:speed></extensions></trkpt>
   <trkpt lat="59.3182301822" lon="34.6784653921"><ele>159.004</ele><time>2026-08-16T16:41:03.136Z</time><hdop>3.0</hdop><vdop>2.5</vdop><extensions><gom:speed>0.96</gom:speed></extensions></trkpt>
   <trkpt lat="59.3182381869" lon="34.6784698345"><ele>158.979</ele><time>2026-08-16T16:41:03.953Z</time><hdop>3.0</hdop><vdop>2.5</vdop><extensions><gom:speed>0.959</gom:speed></extensions></trkpt>
   <trkpt lat="59.3182448924" lon="34.6784734387"><ele>158.967</ele><time>2026-08-16T16:41:04.532Z</time><hdop>3.0</hdop><vdop>2.5</vdop><extensions><gom:speed>1.015</gom:speed></extensions></trkpt>
   <trkpt lat="59.3182504664" lon="34.6784778811"><ele>158.96</ele><time>2026-08-16T16:41:05.092Z</time><hdop>3.0</hdop><vdop>2.5</vdop><extensions><gom:speed>1.019</gom:speed></extensions></trkpt>
   <trkpt lat="59.3182574653" lon="34.6784802281"><ele>158.922</ele><time>2026-08-16T16:41:05.661Z</time><hdop>3.0</hdop><vdop>2.5</vdop><extensions><gom:speed>1.094</gom:speed></extensions></trkpt>
   <trkpt lat="59.318263165" lon="34.6784808986"><ele>158.873</ele><time>2026-08-16T16:41:06.136Z</time><hdop>3.0</hdop><vdop>2.5</vdop><extensions><gom:speed>1.108</gom:speed></extensions></trkpt>
   <trkpt lat="59.3182711697" lon="34.6784800604"><ele>158.844</ele><time>2026-08-16T16:41:06.819Z</time><hdop>3.0</hdop><vdop>2.5</vdop><extensions><gom:speed>1.11</gom:speed></extensions></trkpt>
   <trkpt lat="59.3182801802" lon="34.6784723491"><ele>158.892</ele><time>2026-08-16T16:41:07.653Z</time><hdop>3.0</hdop><vdop>2.5</vdop><extensions><gom:speed>1.046</gom:speed></extensions></trkpt>
   <trkpt lat="59.3182847903" lon="34.6784678228"><ele>158.843</ele><time>2026-08-16T16:41:08.136Z</time><hdop>3.0</hdop><vdop>2.5</vdop><extensions><gom:speed>1.013</gom:speed></extensions></trkpt>
   <trkpt lat="59.3182907833" lon="34.6784650568"><ele>158.814</ele><time>2026-08-16T16:41:08.733Z</time><hdop>3.0</hdop><vdop>2.5</vdop><extensions><gom:speed>1.013</gom:speed></extensions></trkpt>
   <trkpt lat="59.3182968602" lon="34.6784653921"><ele>158.77</ele><time>2026-08-16T16:41:09.351Z</time><hdop>3.0</hdop><vdop>2.5</vdop><extensions><gom:speed>1.021</gom:speed></extensions></trkpt>
   <trkpt lat="59.3183020989" lon="34.6784663979"><ele>158.743</ele><time>2026-08-16T16:41:09.901Z</time><hdop>3.0</hdop><vdop>2.5</vdop><extensions><gom:speed>1.006</gom:speed></extensions></trkpt>
   <trkpt lat="59.3183073795" lon="34.6784690801"><ele>158.714</ele><time>2026-08-16T16:41:10.500Z</time><hdop>3.0</hdop><vdop>2.5</vdop><extensions><gom:speed>1.0</gom:speed></extensions></trkpt>
   <trkpt lat="59.3183113609" lon="34.6784729358"><ele>158.751</ele><time>2026-08-16T16:41:11.136Z</time><hdop>3.0</hdop><vdop>2.5</vdop><extensions><gom:speed>0.827</gom:speed></extensions></trkpt>
   <trkpt lat="59.3183139593" lon="34.6784784679"><ele>158.773</ele><time>2026-08-16T16:41:11.717Z</time><hdop>3.0</hdop><vdop>2.5</vdop><extensions><gom:speed>0.742</gom:speed></extensions></trkpt>
   <trkpt lat="59.3183120734" lon="34.6784917951"><ele>158.777</ele><time>2026-08-16T16:41:13.135Z</time><hdop>3.0</hdop><vdop>2.5</vdop><extensions><gom:speed>0.57</gom:speed></extensions></trkpt>
   <trkpt lat="59.318314588" lon="34.6784970757"><ele>158.883</ele><time>2026-08-16T16:41:14.136Z</time><hdop>3.0</hdop><vdop>2.5</vdop><extensions><gom:speed>0.505</gom:speed></extensions></trkpt>
   <trkpt lat="59.3183190723" lon="34.6784999255"><ele>158.946</ele><time>2026-08-16T16:41:15.073Z</time><hdop>3.0</hdop><vdop>2.5</vdop><extensions><gom:speed>0.468</gom:speed></extensions></trkpt>
   <trkpt lat="59.3183274961" lon="34.6785075531"><ele>159.071</ele><time>2026-08-16T16:41:15.692Z</time><hdop>3.0</hdop><vdop>2.5</vdop><extensions><gom:speed>0.814</gom:speed></extensions></trkpt>
   <trkpt lat="59.3183357942" lon="34.6785155997"><ele>159.269</ele><time>2026-08-16T16:41:16.281Z</time><hdop>3.0</hdop><vdop>2.5</vdop><extensions><gom:speed>0.972</gom:speed></extensions></trkpt>
   <trkpt lat="59.3183414939" lon="34.678519623"><ele>159.387</ele><time>2026-08-16T16:41:16.801Z</time><hdop>3.0</hdop><vdop>2.5</vdop><extensions><gom:speed>1.018</gom:speed></extensions></trkpt>
   <trkpt lat="59.3183556593" lon="34.6785257418"><ele>159.485</ele><time>2026-08-16T16:41:18.018Z</time><hdop>3.0</hdop><vdop>2.5</vdop><extensions><gom:speed>1.016</gom:speed></extensions></trkpt>
   <trkpt lat="59.3183695732" lon="34.6785305195"><ele>159.754</ele><time>2026-08-16T16:41:19.136Z</time><hdop>3.0</hdop><vdop>2.5</vdop><extensions><gom:speed>1.056</gom:speed></extensions></trkpt>
   <trkpt lat="59.3183801763" lon="34.6785332855"><ele>159.915</ele><time>2026-08-16T16:41:20.079Z</time><hdop>3.0</hdop><vdop>2.5</vdop><extensions><gom:speed>1.034</gom:speed></extensions></trkpt>
   <trkpt lat="59.3183872591" lon="34.6785352972"><ele>159.907</ele><time>2026-08-16T16:41:20.658Z</time><hdop>3.0</hdop><vdop>2.5</vdop><extensions><gom:speed>1.036</gom:speed></extensions></trkpt>
   <trkpt lat="59.318392372" lon="34.678537225"><ele>159.981</ele><time>2026-08-16T16:41:21.136Z</time><hdop>3.0</hdop><vdop>2.5</vdop><extensions><gom:speed>1.018</gom:speed></extensions></trkpt>
   <trkpt lat="59.318401173" lon="34.6785378955"><ele>160.025</ele><time>2026-08-16T16:41:21.954Z</time><hdop>3.0</hdop><vdop>2.5</vdop><extensions><gom:speed>1.022</gom:speed></extensions></trkpt>
   <trkpt lat="59.3184088844" lon="34.6785431761"><ele>160.061</ele><time>2026-08-16T16:41:22.680Z</time><hdop>3.0</hdop><vdop>2.5</vdop><extensions><gom:speed>1.068</gom:speed></extensions></trkpt>
   <trkpt lat="59.3184133687" lon="34.6785484567"><ele>160.115</ele><time>2026-08-16T16:41:23.136Z</time><hdop>3.0</hdop><vdop>2.5</vdop><extensions><gom:speed>1.054</gom:speed></extensions></trkpt>
   <trkpt lat="59.318422463" lon="34.6785578445"><ele>160.148</ele><time>2026-08-16T16:41:24.132Z</time><hdop>3.0</hdop><vdop>2.5</vdop><extensions><gom:speed>1.021</gom:speed></extensions></trkpt>
   <trkpt lat="59.3184287914" lon="34.6785651367"><ele>160.17</ele><time>2026-08-16T16:41:24.859Z</time><hdop>3.0</hdop><vdop>2.5</vdop><extensions><gom:speed>0.968</gom:speed></extensions></trkpt>
   <trkpt lat="59.3184342815" lon="34.6785721775"><ele>160.169</ele><time>2026-08-16T16:41:25.457Z</time><hdop>3.0</hdop><vdop>2.5</vdop><extensions><gom:speed>0.972</gom:speed></extensions></trkpt>
   <trkpt lat="59.3184394783" lon="34.6785782963"><ele>160.169</ele><time>2026-08-16T16:41:26.076Z</time><hdop>3.0</hdop><vdop>2.5</vdop><extensions><gom:speed>0.961</gom:speed></extensions></trkpt>
   <trkpt lat="59.3184497881" lon="34.6785888575"><ele>160.158</ele><time>2026-08-16T16:41:27.136Z</time><hdop>3.0</hdop><vdop>2.5</vdop><extensions><gom:speed>1.021</gom:speed></extensions></trkpt>
   <trkpt lat="59.3184594692" lon="34.6785930485"><ele>160.152</ele><time>2026-08-16T16:41:28.078Z</time><hdop>3.0</hdop><vdop>2.5</vdop><extensions><gom:speed>0.995</gom:speed></extensions></trkpt>
   <trkpt lat="59.318466971" lon="34.6785995864"><ele>160.164</ele><time>2026-08-16T16:41:28.853Z</time><hdop>3.0</hdop><vdop>2.5</vdop><extensions><gom:speed>0.998</gom:speed></extensions></trkpt>
   <trkpt lat="59.3184732993" lon="34.6786020171"><ele>160.165</ele><time>2026-08-16T16:41:29.560Z</time><hdop>3.0</hdop><vdop>2.5</vdop><extensions><gom:speed>0.972</gom:speed></extensions></trkpt>
   <trkpt lat="59.318478077" lon="34.6786007598"><ele>160.119</ele><time>2026-08-16T16:41:30.136Z</time><hdop>3.0</hdop><vdop>2.5</vdop><extensions><gom:speed>0.974</gom:speed></extensions></trkpt>
   <trkpt lat="59.3184856626" lon="34.6785972394"><ele>160.036</ele><time>2026-08-16T16:41:31.136Z</time><hdop>3.0</hdop><vdop>2.5</vdop><extensions><gom:speed>1.031</gom:speed></extensions></trkpt>
   <trkpt lat="59.3184944636" lon="34.678598832"><ele>160.01</ele><time>2026-08-16T16:41:32.136Z</time><hdop>3.0</hdop><vdop>2.5</vdop><extensions><gom:speed>0.939</gom:speed></extensions></trkpt>
   <trkpt lat="59.3185011691" lon="34.678601598"><ele>159.994</ele><time>2026-08-16T16:41:32.917Z</time><hdop>3.0</hdop><vdop>2.5</vdop><extensions><gom:speed>0.874</gom:speed></extensions></trkpt>
   <trkpt lat="59.3185038932" lon="34.6785983291"><ele>159.98</ele><time>2026-08-16T16:41:33.594Z</time><hdop>3.0</hdop><vdop>2.5</vdop><extensions><gom:speed>0.75</gom:speed></extensions></trkpt>
   <trkpt lat="59.3185051924" lon="34.6785913721"><ele>159.972</ele><time>2026-08-16T16:41:34.134Z</time><hdop>3.0</hdop><vdop>2.5</vdop><extensions><gom:speed>0.754</gom:speed></extensions></trkpt>
   <trkpt lat="59.3185071622" lon="34.6785878517"><ele>159.978</ele><time>2026-08-16T16:41:34.793Z</time><hdop>3.0</hdop><vdop>2.5</vdop><extensions><gom:speed>0.81</gom:speed></extensions></trkpt>
   <trkpt lat="59.3185089643" lon="34.6785890252"><ele>160.022</ele><time>2026-08-16T16:41:35.421Z</time><hdop>3.0</hdop><vdop>2.5</vdop><extensions><gom:speed>0.787</gom:speed></extensions></trkpt>
   <trkpt lat="59.318510473" lon="34.6785834931"><ele>160.048</ele><time>2026-08-16T16:41:35.940Z</time><hdop>3.0</hdop><vdop>2.5</vdop><extensions><gom:speed>0.787</gom:speed></extensions></trkpt>
   <trkpt lat="59.3185164661" lon="34.6785861753"><ele>159.97</ele><time>2026-08-16T16:41:37.136Z</time><hdop>3.0</hdop><vdop>2.5</vdop><extensions><gom:speed>0.807</gom:speed></extensions></trkpt>
   <trkpt lat="59.3185268597" lon="34.6785924617"><ele>159.978</ele><time>2026-08-16T16:41:38.136Z</time><hdop>3.0</hdop><vdop>2.5</vdop><extensions><gom:speed>0.875</gom:speed></extensions></trkpt>
   <trkpt lat="59.318532266" lon="34.6785939705"><ele>159.982</ele><time>2026-08-16T16:41:38.660Z</time><hdop>3.0</hdop><vdop>2.5</vdop><extensions><gom:speed>0.874</gom:speed></extensions></trkpt>
   <trkpt lat="59.3185379657" lon="34.6785984967"><ele>159.916</ele><time>2026-08-16T16:41:39.136Z</time><hdop>3.0</hdop><vdop>2.5</vdop><extensions><gom:speed>0.926</gom:speed></extensions></trkpt>
   <trkpt lat="59.318547563" lon="34.6786013466"><ele>159.876</ele><time>2026-08-16T16:41:40.033Z</time><hdop>3.0</hdop><vdop>2.5</vdop><extensions><gom:speed>0.906</gom:speed></extensions></trkpt>
   <trkpt lat="59.3185551905" lon="34.6786102314"><ele>159.837</ele><time>2026-08-16T16:41:40.652Z</time><hdop>3.0</hdop><vdop>2.5</vdop><extensions><gom:speed>0.921</gom:speed></extensions></trkpt>
   <trkpt lat="59.3185599682" lon="34.6786185295"><ele>159.785</ele><time>2026-08-16T16:41:41.136Z</time><hdop>3.0</hdop><vdop>2.5</vdop><extensions><gom:speed>0.957</gom:speed></extensions></trkpt>
   <trkpt lat="59.3185672604" lon="34.6786313538"><ele>159.754</ele><time>2026-08-16T16:41:41.997Z</time><hdop>3.0</hdop><vdop>2.5</vdop><extensions><gom:speed>0.931</gom:speed></extensions></trkpt>
   <trkpt lat="59.3185712837" lon="34.6786433399"><ele>159.744</ele><time>2026-08-16T16:41:42.595Z</time><hdop>3.0</hdop><vdop>2.5</vdop><extensions><gom:speed>0.945</gom:speed></extensions></trkpt>
   <trkpt lat="59.3185739659" lon="34.6786520571"><ele>159.708</ele><time>2026-08-16T16:41:43.136Z</time><hdop>3.0</hdop><vdop>2.5</vdop><extensions><gom:speed>0.896</gom:speed></extensions></trkpt>
   <trkpt lat="59.3185777797" lon="34.678664127"><ele>159.687</ele><time>2026-08-16T16:41:43.940Z</time><hdop>3.0</hdop><vdop>2.5</vdop><extensions><gom:speed>0.908</gom:speed></extensions></trkpt>
   <trkpt lat="59.3185788694" lon="34.6786666416"><ele>159.782</ele><time>2026-08-16T16:41:44.392Z</time><hdop>3.0</hdop><vdop>2.5</vdop><extensions><gom:speed>0.694</gom:speed></extensions></trkpt>
   <trkpt lat="59.3185803781" lon="34.6786706649"><ele>159.85</ele><time>2026-08-16T16:41:45.136Z</time><hdop>3.0</hdop><vdop>2.5</vdop><extensions><gom:speed>0.517</gom:speed></extensions></trkpt>
   <trkpt lat="59.3185810906" lon="34.6786725927"><ele>159.907</ele><time>2026-08-16T16:41:46.136Z</time><hdop>3.0</hdop><vdop>2.5</vdop><extensions><gom:speed>0.317</gom:speed></extensions></trkpt>
   <trkpt lat="59.3185810906" lon="34.6786719222"><ele>159.943</ele><time>2026-08-16T16:41:47.136Z</time><hdop>3.0</hdop><vdop>2.5</vdop><extensions><gom:speed>0.197</gom:speed></extensions></trkpt>
   <trkpt lat="59.3185813839" lon="34.6786722575"><ele>159.988</ele><time>2026-08-16T16:41:48.136Z</time><hdop>3.0</hdop><vdop>2.5</vdop><extensions><gom:speed>0.131</gom:speed></extensions></trkpt>
   <trkpt lat="59.3185811744" lon="34.6786715869"><ele>160.002</ele><time>2026-08-16T16:41:49.136Z</time><hdop>3.0</hdop><vdop>2.5</vdop><extensions><gom:speed>0.095</gom:speed></extensions></trkpt>
   <trkpt lat="59.3185807972" lon="34.6786706649"><ele>160.044</ele><time>2026-08-16T16:41:50.136Z</time><hdop>3.0</hdop><vdop>2.5</vdop><extensions><gom:speed>0.074</gom:speed></extensions></trkpt>
   <trkpt lat="59.3185804619" lon="34.6786717545"><ele>160.093</ele><time>2026-08-16T16:41:51.136Z</time><hdop>3.0</hdop><vdop>2.5</vdop><extensions><gom:speed>0.118</gom:speed></extensions></trkpt>
   <trkpt lat="59.3185800847" lon="34.6786746882"><ele>160.11</ele><time>2026-08-16T16:41:52.136Z</time><hdop>3.0</hdop><vdop>2.5</vdop><extensions><gom:speed>0.119</gom:speed></extensions></trkpt>
   <trkpt lat="59.3185798752" lon="34.6786764484"><ele>160.12</ele><time>2026-08-16T16:41:52.872Z</time><hdop>3.0</hdop><vdop>2.5</vdop><extensions><gom:speed>0.117</gom:speed></extensions></trkpt>
   <trkpt lat="59.3185791627" lon="34.6786790468"><ele>160.212</ele><time>2026-08-16T16:41:53.618Z</time><hdop>3.0</hdop><vdop>2.5</vdop><extensions><gom:speed>0.106</gom:speed></extensions></trkpt>
   <trkpt lat="59.3185788694" lon="34.6786802203"><ele>160.345</ele><time>2026-08-16T16:41:54.136Z</time><hdop>3.0</hdop><vdop>2.5</vdop><extensions><gom:speed>0.109</gom:speed></extensions></trkpt>
   <trkpt lat="59.3185786598" lon="34.6786821481"><ele>160.399</ele><time>2026-08-16T16:41:55.136Z</time><hdop>3.0</hdop><vdop>2.5</vdop><extensions><gom:speed>0.108</gom:speed></extensions></trkpt>
   <trkpt lat="59.318578576" lon="34.6786829863"><ele>160.43</ele><time>2026-08-16T16:41:55.856Z</time><hdop>3.0</hdop><vdop>2.5</vdop><extensions><gom:speed>0.104</gom:speed></extensions></trkpt>
   <trkpt lat="59.3185781988" lon="34.6786858361"><ele>160.509</ele><time>2026-08-16T16:41:57.136Z</time><hdop>3.0</hdop><vdop>2.5</vdop><extensions><gom:speed>0.079</gom:speed></extensions></trkpt>
   <trkpt lat="59.3185776959" lon="34.6786881831"><ele>160.562</ele><time>2026-08-16T16:41:58.136Z</time><hdop>3.0</hdop><vdop>2.5</vdop><extensions><gom:speed>0.105</gom:speed></extensions></trkpt>
   <trkpt lat="59.318577193" lon="34.6786895242"><ele>160.603</ele><time>2026-08-16T16:41:59.136Z</time><hdop>3.0</hdop><vdop>2.5</vdop><extensions><gom:speed>0.097</gom:speed></extensions></trkpt>
   <trkpt lat="59.318577193" lon="34.6786903624"><ele>160.681</ele><time>2026-08-16T16:42:00.136Z</time><hdop>3.0</hdop><vdop>2.5</vdop><extensions><gom:speed>0.073</gom:speed></extensions></trkpt>
   <trkpt lat="59.318577193" lon="34.6786911167"><ele>160.772</ele><time>2026-08-16T16:42:01.136Z</time><hdop>3.0</hdop><vdop>2.5</vdop><extensions><gom:speed>0.075</gom:speed></extensions></trkpt>
   <trkpt lat="59.3185776959" lon="34.6786918711"><ele>160.835</ele><time>2026-08-16T16:42:02.136Z</time><hdop>3.0</hdop><vdop>2.5</vdop><extensions><gom:speed>0.097</gom:speed></extensions></trkpt>
   <trkpt lat="59.3185780731" lon="34.6786925417"><ele>160.873</ele><time>2026-08-16T16:42:03.136Z</time><hdop>3.0</hdop><vdop>2.5</vdop><extensions><gom:speed>0.1</gom:speed></extensions></trkpt>
   <trkpt lat="59.3185783664" lon="34.6786931284"><ele>160.919</ele><time>2026-08-16T16:42:04.136Z</time><hdop>3.0</hdop><vdop>2.5</vdop><extensions><gom:speed>0.072</gom:speed></extensions></trkpt>
   <trkpt lat="59.3185784922" lon="34.6786934637"><ele>160.949</ele><time>2026-08-16T16:42:05.136Z</time><hdop>3.0</hdop><vdop>2.5</vdop><extensions><gom:speed>0.078</gom:speed></extensions></trkpt>
   <trkpt lat="59.3185786598" lon="34.6786937989"><ele>160.966</ele><time>2026-08-16T16:42:05.917Z</time><hdop>3.0</hdop><vdop>2.5</vdop><extensions><gom:speed>0.086</gom:speed></extensions></trkpt>
   <trkpt lat="59.318579498" lon="34.6786944695"><ele>160.97</ele><time>2026-08-16T16:42:07.136Z</time><hdop>3.0</hdop><vdop>2.5</vdop><extensions><gom:speed>0.107</gom:speed></extensions></trkpt>
   <trkpt lat="59.3185797914" lon="34.6786948886"><ele>160.99</ele><time>2026-08-16T16:42:08.136Z</time><hdop>3.0</hdop><vdop>2.5</vdop><extensions><gom:speed>0.083</gom:speed></extensions></trkpt>
   <trkpt lat="59.3185798752" lon="34.678694721"><ele>160.996</ele><time>2026-08-16T16:42:09.136Z</time><hdop>3.0</hdop><vdop>2.5</vdop><extensions><gom:speed>0.084</gom:speed></extensions></trkpt>
   <trkpt lat="59.3185798752" lon="34.6786957268"><ele>161.006</ele><time>2026-08-16T16:42:10.136Z</time><hdop>3.0</hdop><vdop>2.5</vdop><extensions><gom:speed>0.103</gom:speed></extensions></trkpt>
   <trkpt lat="59.3185798752" lon="34.6786966488"><ele>160.999</ele><time>2026-08-16T16:42:11.136Z</time><hdop>3.0</hdop><vdop>2.5</vdop><extensions><gom:speed>0.077</gom:speed></extensions></trkpt>
   <trkpt lat="59.3185800847" lon="34.6786967326"><ele>160.976</ele><time>2026-08-16T16:42:12.136Z</time><hdop>3.0</hdop><vdop>2.5</vdop><extensions><gom:speed>0.082</gom:speed></extensions></trkpt>
   <trkpt lat="59.318579959" lon="34.678696565"><ele>160.938</ele><time>2026-08-16T16:42:13.136Z</time><hdop>3.0</hdop><vdop>2.5</vdop><extensions><gom:speed>0.083</gom:speed></extensions></trkpt>
   <trkpt lat="59.3185796656" lon="34.6786960621"><ele>160.932</ele><time>2026-08-16T16:42:14.136Z</time><hdop>3.0</hdop><vdop>2.5</vdop><extensions><gom:speed>0.098</gom:speed></extensions></trkpt>
   <trkpt lat="59.3185790789" lon="34.6786960621"><ele>160.95</ele><time>2026-08-16T16:42:15.136Z</time><hdop>3.0</hdop><vdop>2.5</vdop><extensions><gom:speed>0.078</gom:speed></extensions></trkpt>
   <trkpt lat="59.3185787855" lon="34.6786955591"><ele>160.975</ele><time>2026-08-16T16:42:16.136Z</time><hdop>3.0</hdop><vdop>2.5</vdop><extensions><gom:speed>0.081</gom:speed></extensions></trkpt>
   <trkpt lat="59.3185788694" lon="34.6786958944"><ele>160.964</ele><time>2026-08-16T16:42:17.136Z</time><hdop>3.0</hdop><vdop>2.5</vdop><extensions><gom:speed>0.073</gom:speed></extensions></trkpt>
   <trkpt lat="59.3185790789" lon="34.6786958944"><ele>160.979</ele><time>2026-08-16T16:42:18.136Z</time><hdop>3.0</hdop><vdop>2.5</vdop><extensions><gom:speed>0.07</gom:speed></extensions></trkpt>
   <trkpt lat="59.3185792885" lon="34.6786962297"><ele>160.989</ele><time>2026-08-16T16:42:18.716Z</time><hdop>3.0</hdop><vdop>2.5</vdop><extensions><gom:speed>0.07</gom:speed></extensions></trkpt>
   <trkpt lat="59.3185793723" lon="34.6786960621"><ele>161.02</ele><time>2026-08-16T16:42:19.521Z</time><hdop>3.0</hdop><vdop>2.5</vdop><extensions><gom:speed>0.07</gom:speed></extensions></trkpt>
   <trkpt lat="59.3185793723" lon="34.6786959782"><ele>161.058</ele><time>2026-08-16T16:42:20.135Z</time><hdop>3.0</hdop><vdop>2.5</vdop><extensions><gom:speed>0.071</gom:speed></extensions></trkpt>
   <trkpt lat="59.3185795818" lon="34.6786958944"><ele>161.134</ele><time>2026-08-16T16:42:21.136Z</time><hdop>3.0</hdop><vdop>2.5</vdop><extensions><gom:speed>0.069</gom:speed></extensions></trkpt>
   <trkpt lat="59.3185796656" lon="34.678695643"><ele>161.194</ele><time>2026-08-16T16:42:22.136Z</time><hdop>3.0</hdop><vdop>2.5</vdop><extensions><gom:speed>0.068</gom:speed></extensions></trkpt>
   <trkpt lat="59.3185797914" lon="34.678695643"><ele>161.258</ele><time>2026-08-16T16:42:23.136Z</time><hdop>3.0</hdop><vdop>2.5</vdop><extensions><gom:speed>0.069</gom:speed></extensions></trkpt>
   <trkpt lat="59.3185798752" lon="34.678695643"><ele>161.272</ele><time>2026-08-16T16:42:24.136Z</time><hdop>3.0</hdop><vdop>2.5</vdop><extensions><gom:speed>0.069</gom:speed></extensions></trkpt>
   <trkpt lat="59.3185798752" lon="34.6786959782"><ele>161.314</ele><time>2026-08-16T16:42:25.136Z</time><hdop>3.0</hdop><vdop>2.5</vdop><extensions><gom:speed>0.226</gom:speed></extensions></trkpt>
   <trkpt lat="59.3185795818" lon="34.6786985766"><ele>161.378</ele><time>2026-08-16T16:42:26.136Z</time><hdop>3.0</hdop><vdop>2.5</vdop><extensions><gom:speed>0.098</gom:speed></extensions></trkpt>
   <trkpt lat="59.3185793723" lon="34.6786989957"><ele>161.438</ele><time>2026-08-16T16:42:27.136Z</time><hdop>3.0</hdop><vdop>2.5</vdop><extensions><gom:speed>0.082</gom:speed></extensions></trkpt>
   <trkpt lat="59.3185793723" lon="34.678699331"><ele>161.474</ele><time>2026-08-16T16:42:27.755Z</time><hdop>3.0</hdop><vdop>2.5</vdop><extensions><gom:speed>0.082</gom:speed></extensions></trkpt>
   <trkpt lat="59.318579498" lon="34.6787005883"><ele>161.599</ele><time>2026-08-16T16:42:29.135Z</time><hdop>3.0</hdop><vdop>2.5</vdop><extensions><gom:speed>0.641</gom:speed></extensions></trkpt>
   <trkpt lat="59.3185789951" lon="34.6787072938"><ele>161.673</ele><time>2026-08-16T16:42:29.856Z</time><hdop>3.0</hdop><vdop>2.5</vdop><extensions><gom:speed>0.688</gom:speed></extensions></trkpt>
   <trkpt lat="59.3185789951" lon="34.6787146699"><ele>161.823</ele><time>2026-08-16T16:42:30.474Z</time><hdop>3.0</hdop><vdop>2.5</vdop><extensions><gom:speed>1.28</gom:speed></extensions></trkpt>
   <trkpt lat="59.3185863712" lon="34.6787207887"><ele>161.835</ele><time>2026-08-16T16:42:31.136Z</time><hdop>3.0</hdop><vdop>2.5</vdop><extensions><gom:speed>1.128</gom:speed></extensions></trkpt>
   <trkpt lat="59.3185918613" lon="34.6787273266"><ele>161.842</ele><time>2026-08-16T16:42:31.858Z</time><hdop>3.187</hdop><vdop>2.5</vdop><extensions><gom:speed>1.096</gom:speed></extensions></trkpt>
   <trkpt lat="59.3186021711" lon="34.678722968"><ele>161.83</ele><time>2026-08-16T16:42:32.496Z</time><hdop>3.312</hdop><vdop>2.5</vdop><extensions><gom:speed>1.024</gom:speed></extensions></trkpt>
   <trkpt lat="59.3186106787" lon="34.6787207887"><ele>161.891</ele><time>2026-08-16T16:42:33.136Z</time><hdop>3.437</hdop><vdop>2.5</vdop><extensions><gom:speed>1.061</gom:speed></extensions></trkpt>
   <trkpt lat="59.3186178871" lon="34.6787204534"><ele>161.927</ele><time>2026-08-16T16:42:33.694Z</time><hdop>3.5</hdop><vdop>2.5</vdop><extensions><gom:speed>1.081</gom:speed></extensions></trkpt>
   <trkpt lat="59.3186273587" lon="34.6787139993"><ele>161.91</ele><time>2026-08-16T16:42:34.234Z</time><hdop>3.5</hdop><vdop>2.5</vdop><extensions><gom:speed>1.087</gom:speed></extensions></trkpt>
   <trkpt lat="59.3186345671" lon="34.6787155919"><ele>161.901</ele><time>2026-08-16T16:42:34.872Z</time><hdop>3.562</hdop><vdop>2.5</vdop><extensions><gom:speed>1.096</gom:speed></extensions></trkpt>
   <trkpt lat="59.3186418594" lon="34.6787170168"><ele>161.965</ele><time>2026-08-16T16:42:35.372Z</time><hdop>3.5</hdop><vdop>2.5</vdop><extensions><gom:speed>1.148</gom:speed></extensions></trkpt>
   <trkpt lat="59.3186500736" lon="34.6787207887"><ele>162.004</ele><time>2026-08-16T16:42:36.079Z</time><hdop>3.5</hdop><vdop>2.5</vdop><extensions><gom:speed>1.151</gom:speed></extensions></trkpt>
   <trkpt lat="59.3186567792" lon="34.67872389"><ele>162.027</ele><time>2026-08-16T16:42:36.619Z</time><hdop>3.437</hdop><vdop>2.5</vdop><extensions><gom:speed>1.126</gom:speed></extensions></trkpt>
   <trkpt lat="59.3186621855" lon="34.6787260693"><ele>161.95</ele><time>2026-08-16T16:42:37.136Z</time><hdop>3.375</hdop><vdop>2.5</vdop><extensions><gom:speed>1.105</gom:speed></extensions></trkpt>
   <trkpt lat="59.3186718666" lon="34.6787312661"><ele>161.719</ele><time>2026-08-16T16:42:38.136Z</time><hdop>3.187</hdop><vdop>2.5</vdop><extensions><gom:speed>1.06</gom:speed></extensions></trkpt>
   <trkpt lat="59.3186811705" lon="34.6787408214"><ele>161.682</ele><time>2026-08-16T16:42:39.136Z</time><hdop>3.062</hdop><vdop>2.5</vdop><extensions><gom:speed>1.025</gom:speed></extensions></trkpt>
   <trkpt lat="59.3186902649" lon="34.6787443418"><ele>161.607</ele><time>2026-08-16T16:42:40.136Z</time><hdop>3.0</hdop><vdop>2.5</vdop><extensions><gom:speed>1.005</gom:speed></extensions></trkpt>
   <trkpt lat="59.3186985629" lon="34.6787413243"><ele>161.562</ele><time>2026-08-16T16:42:41.055Z</time><hdop>3.0</hdop><vdop>2.5</vdop><extensions><gom:speed>0.96</gom:speed></extensions></trkpt>
   <trkpt lat="59.3186979762" lon="34.678748449"><ele>161.587</ele><time>2026-08-16T16:42:42.136Z</time><hdop>3.0</hdop><vdop>2.5</vdop><extensions><gom:speed>0.481</gom:speed></extensions></trkpt>
   <trkpt lat="59.3186972637" lon="34.6787505444"><ele>161.636</ele><time>2026-08-16T16:42:43.136Z</time><hdop>3.0</hdop><vdop>2.5</vdop><extensions><gom:speed>0.349</gom:speed></extensions></trkpt>
   <trkpt lat="59.3186974733" lon="34.6787501253"><ele>161.666</ele><time>2026-08-16T16:42:43.872Z</time><hdop>3.0</hdop><vdop>2.5</vdop><extensions><gom:speed>0.289</gom:speed></extensions></trkpt>
   <trkpt lat="59.3186982696" lon="34.6787503768"><ele>161.77</ele><time>2026-08-16T16:42:44.540Z</time><hdop>3.0</hdop><vdop>2.5</vdop><extensions><gom:speed>0.277</gom:speed></extensions></trkpt>
   <trkpt lat="59.3186993592" lon="34.678750293"><ele>161.795</ele><time>2026-08-16T16:42:45.136Z</time><hdop>3.0</hdop><vdop>2.5</vdop><extensions><gom:speed>0.29</gom:speed></extensions></trkpt>
   <trkpt lat="59.3187005746" lon="34.6787511312"><ele>161.775</ele><time>2026-08-16T16:42:46.136Z</time><hdop>3.0</hdop><vdop>2.5</vdop><extensions><gom:speed>0.213</gom:speed></extensions></trkpt>
   <trkpt lat="59.3187021672" lon="34.678755825"><ele>161.782</ele><time>2026-08-16T16:42:47.136Z</time><hdop>3.0</hdop><vdop>2.5</vdop><extensions><gom:speed>0.152</gom:speed></extensions></trkpt>
   <trkpt lat="59.3187039693" lon="34.6787586749"><ele>161.82</ele><time>2026-08-16T16:42:48.136Z</time><hdop>3.0</hdop><vdop>2.5</vdop><extensions><gom:speed>0.158</gom:speed></extensions></trkpt>
   <trkpt lat="59.3187061905" lon="34.6787584234"><ele>161.821</ele><time>2026-08-16T16:42:49.136Z</time><hdop>3.0</hdop><vdop>2.5</vdop><extensions><gom:speed>0.212</gom:speed></extensions></trkpt>
   <trkpt lat="59.3187066934" lon="34.678756747"><ele>161.821</ele><time>2026-08-16T16:42:49.781Z</time><hdop>3.0</hdop><vdop>2.5</vdop><extensions><gom:speed>0.219</gom:speed></extensions></trkpt>
   <trkpt lat="59.3187100881" lon="34.6787554898"><ele>161.798</ele><time>2026-08-16T16:42:50.478Z</time><hdop>3.0</hdop><vdop>2.5</vdop><extensions><gom:speed>0.314</gom:speed></extensions></trkpt>
   <trkpt lat="59.3187143628" lon="34.6787503768"><ele>161.758</ele><time>2026-08-16T16:42:51.136Z</time><hdop>3.0</hdop><vdop>2.5</vdop><extensions><gom:speed>0.623</gom:speed></extensions></trkpt>
   <trkpt lat="59.318719392" lon="34.6787372172"><ele>161.734</ele><time>2026-08-16T16:42:52.038Z</time><hdop>3.0</hdop><vdop>2.5</vdop><extensions><gom:speed>0.714</gom:speed></extensions></trkpt>
   <trkpt lat="59.3187297855" lon="34.678725734"><ele>161.672</ele><time>2026-08-16T16:42:53.136Z</time><hdop>3.0</hdop><vdop>2.5</vdop><extensions><gom:speed>0.872</gom:speed></extensions></trkpt>
   <trkpt lat="59.3187378741" lon="34.6787175197"><ele>161.639</ele><time>2026-08-16T16:42:54.136Z</time><hdop>3.0</hdop><vdop>2.5</vdop><extensions><gom:speed>0.879</gom:speed></extensions></trkpt>
   <trkpt lat="59.3187465912" lon="34.6787122391"><ele>161.634</ele><time>2026-08-16T16:42:55.136Z</time><hdop>3.0</hdop><vdop>2.5</vdop><extensions><gom:speed>0.92</gom:speed></extensions></trkpt>
   <trkpt lat="59.318751788" lon="34.678708132"><ele>161.632</ele><time>2026-08-16T16:42:55.680Z</time><hdop>3.0</hdop><vdop>2.5</vdop><extensions><gom:speed>0.953</gom:speed></extensions></trkpt>
   <trkpt lat="59.3187572782" lon="34.6787103951"><ele>161.711</ele><time>2026-08-16T16:42:56.136Z</time><hdop>3.0</hdop><vdop>2.5</vdop><extensions><gom:speed>0.981</gom:speed></extensions></trkpt>
   <trkpt lat="59.3187652829" lon="34.6787065394"><ele>161.758</ele><time>2026-08-16T16:42:56.936Z</time><hdop>3.0</hdop><vdop>2.5</vdop><extensions><gom:speed>1.004</gom:speed></extensions></trkpt>
   <trkpt lat="59.3187806637" lon="34.6787125744"><ele>161.813</ele><time>2026-08-16T16:42:58.016Z</time><hdop>3.0</hdop><vdop>2.5</vdop><extensions><gom:speed>1.087</gom:speed></extensions></trkpt>
   <trkpt lat="59.3187974694" lon="34.6787209563"><ele>161.769</ele><time>2026-08-16T16:42:59.136Z</time><hdop>3.0</hdop><vdop>2.5</vdop><extensions><gom:speed>1.095</gom:speed></extensions></trkpt>
   <trkpt lat="59.3188067733" lon="34.6787198667"><ele>161.743</ele><time>2026-08-16T16:42:59.939Z</time><hdop>3.0</hdop><vdop>2.5</vdop><extensions><gom:speed>1.08</gom:speed></extensions></trkpt>
   <trkpt lat="59.3188222798" lon="34.6787302602"><ele>161.807</ele><time>2026-08-16T16:43:01.137Z</time><hdop>3.0</hdop><vdop>2.5</vdop><extensions><gom:speed>1.047</gom:speed></extensions></trkpt>
   <trkpt lat="59.3188293625" lon="34.678738223"><ele>161.654</ele><time>2026-08-16T16:43:01.618Z</time><hdop>3.0</hdop><vdop>2.5</vdop><extensions><gom:speed>1.057</gom:speed></extensions></trkpt>
   <trkpt lat="59.3188367805" lon="34.6787455991"><ele>161.61</ele><time>2026-08-16T16:43:02.136Z</time><hdop>3.0</hdop><vdop>2.5</vdop><extensions><gom:speed>1.063</gom:speed></extensions></trkpt>
   <trkpt lat="59.3188450786" lon="34.6787457667"><ele>161.583</ele><time>2026-08-16T16:43:02.854Z</time><hdop>3.0</hdop><vdop>2.5</vdop><extensions><gom:speed>1.027</gom:speed></extensions></trkpt>
   <trkpt lat="59.3188544663" lon="34.6787533943"><ele>161.565</ele><time>2026-08-16T16:43:03.532Z</time><hdop>3.0</hdop><vdop>2.5</vdop><extensions><gom:speed>1.045</gom:speed></extensions></trkpt>
   <trkpt lat="59.3188599984" lon="34.6787536457"><ele>161.553</ele><time>2026-08-16T16:43:04.013Z</time><hdop>3.0</hdop><vdop>2.5</vdop><extensions><gom:speed>1.047</gom:speed></extensions></trkpt>
   <trkpt lat="59.3188692604" lon="34.67876186"><ele>161.572</ele><time>2026-08-16T16:43:04.592Z</time><hdop>3.0</hdop><vdop>2.5</vdop><extensions><gom:speed>1.074</gom:speed></extensions></trkpt>
   <trkpt lat="59.3188768879" lon="34.6787679788"><ele>161.482</ele><time>2026-08-16T16:43:05.136Z</time><hdop>3.0</hdop><vdop>2.5</vdop><extensions><gom:speed>1.071</gom:speed></extensions></trkpt>
   <trkpt lat="59.3188847669" lon="34.6787699904"><ele>161.428</ele><time>2026-08-16T16:43:05.779Z</time><hdop>3.0</hdop><vdop>2.5</vdop><extensions><gom:speed>1.051</gom:speed></extensions></trkpt>
   <trkpt lat="59.3188923944" lon="34.6787787914"><ele>161.381</ele><time>2026-08-16T16:43:06.515Z</time><hdop>3.0</hdop><vdop>2.5</vdop><extensions><gom:speed>1.021</gom:speed></extensions></trkpt>
   <trkpt lat="59.3188984713" lon="34.6787813898"><ele>161.352</ele><time>2026-08-16T16:43:07.114Z</time><hdop>3.0</hdop><vdop>2.5</vdop><extensions><gom:speed>1.018</gom:speed></extensions></trkpt>
   <trkpt lat="59.3189024946" lon="34.6787888497"><ele>161.315</ele><time>2026-08-16T16:43:07.595Z</time><hdop>3.0</hdop><vdop>2.5</vdop><extensions><gom:speed>1.026</gom:speed></extensions></trkpt>
   <trkpt lat="59.3189073981" lon="34.6787953876"><ele>161.264</ele><time>2026-08-16T16:43:08.136Z</time><hdop>3.0</hdop><vdop>2.5</vdop><extensions><gom:speed>1.002</gom:speed></extensions></trkpt>
   <trkpt lat="59.3189141874" lon="34.6787987404"><ele>161.234</ele><time>2026-08-16T16:43:08.832Z</time><hdop>3.0</hdop><vdop>2.5</vdop><extensions><gom:speed>0.986</gom:speed></extensions></trkpt>
   <trkpt lat="59.3189212701" lon="34.6788087987"><ele>161.278</ele><time>2026-08-16T16:43:09.519Z</time><hdop>3.0</hdop><vdop>2.5</vdop><extensions><gom:speed>1.013</gom:speed></extensions></trkpt>
   <trkpt lat="59.3189261735" lon="34.6788138278"><ele>161.305</ele><time>2026-08-16T16:43:10.019Z</time><hdop>3.0</hdop><vdop>2.5</vdop><extensions><gom:speed>1.022</gom:speed></extensions></trkpt>
   <trkpt lat="59.3189324599" lon="34.6788288314"><ele>161.31</ele><time>2026-08-16T16:43:10.736Z</time><hdop>3.0</hdop><vdop>2.5</vdop><extensions><gom:speed>1.039</gom:speed></extensions></trkpt>
   <trkpt lat="59.3189365671" lon="34.6788399793"><ele>161.285</ele><time>2026-08-16T16:43:11.217Z</time><hdop>3.0</hdop><vdop>2.5</vdop><extensions><gom:speed>1.037</gom:speed></extensions></trkpt>
   <trkpt lat="59.3189446975" lon="34.6788496185"><ele>161.313</ele><time>2026-08-16T16:43:12.135Z</time><hdop>3.0</hdop><vdop>2.5</vdop><extensions><gom:speed>1.029</gom:speed></extensions></trkpt>
   <trkpt lat="59.3189534985" lon="34.6788613532"><ele>161.31</ele><time>2026-08-16T16:43:13.136Z</time><hdop>3.0</hdop><vdop>2.5</vdop><extensions><gom:speed>1.083</gom:speed></extensions></trkpt>
   <trkpt lat="59.3189585696" lon="34.6788670529"><ele>161.308</ele><time>2026-08-16T16:43:13.680Z</time><hdop>3.0</hdop><vdop>2.5</vdop><extensions><gom:speed>1.063</gom:speed></extensions></trkpt>
   <trkpt lat="59.3189624672" lon="34.6788723335"><ele>161.279</ele><time>2026-08-16T16:43:14.136Z</time><hdop>3.0</hdop><vdop>2.5</vdop><extensions><gom:speed>1.039</gom:speed></extensions></trkpt>
   <trkpt lat="59.3189691727" lon="34.6788777817"><ele>161.262</ele><time>2026-08-16T16:43:14.839Z</time><hdop>3.0</hdop><vdop>2.5</vdop><extensions><gom:speed>1.028</gom:speed></extensions></trkpt>
   <trkpt lat="59.3189748724" lon="34.6788835652"><ele>161.279</ele><time>2026-08-16T16:43:15.496Z</time><hdop>3.0</hdop><vdop>2.5</vdop><extensions><gom:speed>1.024</gom:speed></extensions></trkpt>
   <trkpt lat="59.3189803625" lon="34.6788877562"><ele>161.289</ele><time>2026-08-16T16:43:16.056Z</time><hdop>3.0</hdop><vdop>2.5</vdop><extensions><gom:speed>1.029</gom:speed></extensions></trkpt>
   <trkpt lat="59.3189892893" lon="34.6788977306"><ele>161.228</ele><time>2026-08-16T16:43:17.136Z</time><hdop>3.0</hdop><vdop>2.5</vdop><extensions><gom:speed>1.036</gom:speed></extensions></trkpt>
   <trkpt lat="59.3189980902" lon="34.6789030951"><ele>161.176</ele><time>2026-08-16T16:43:18.136Z</time><hdop>3.0</hdop><vdop>2.5</vdop><extensions><gom:speed>1.03</gom:speed></extensions></trkpt>
   <trkpt lat="59.3190075618" lon="34.6789106388"><ele>161.15</ele><time>2026-08-16T16:43:19.136Z</time><hdop>3.0</hdop><vdop>2.5</vdop><extensions><gom:speed>1.087</gom:speed></extensions></trkpt>
   <trkpt lat="59.3190133872" lon="34.678915165"><ele>161.134</ele><time>2026-08-16T16:43:19.716Z</time><hdop>3.0</hdop><vdop>2.5</vdop><extensions><gom:speed>1.068</gom:speed></extensions></trkpt>
   <trkpt lat="59.3190202604" lon="34.6789185178"><ele>161.164</ele><time>2026-08-16T16:43:20.453Z</time><hdop>3.0</hdop><vdop>2.5</vdop><extensions><gom:speed>1.04</gom:speed></extensions></trkpt>
   <trkpt lat="59.3190258763" lon="34.6789166737"><ele>161.182</ele><time>2026-08-16T16:43:21.012Z</time><hdop>3.0</hdop><vdop>2.5</vdop><extensions><gom:speed>1.041</gom:speed></extensions></trkpt>
   <trkpt lat="59.3190311988" lon="34.6789147459"><ele>161.161</ele><time>2026-08-16T16:43:21.699Z</time><hdop>3.0</hdop><vdop>2.5</vdop><extensions><gom:speed>0.988</gom:speed></extensions></trkpt>
   <trkpt lat="59.3190351802" lon="34.6789153326"><ele>161.139</ele><time>2026-08-16T16:43:22.278Z</time><hdop>3.0</hdop><vdop>2.5</vdop><extensions><gom:speed>1.005</gom:speed></extensions></trkpt>
   <trkpt lat="59.3190402931" lon="34.6789128181"><ele>161.126</ele><time>2026-08-16T16:43:22.877Z</time><hdop>3.0</hdop><vdop>2.5</vdop><extensions><gom:speed>0.95</gom:speed></extensions></trkpt>
   <trkpt lat="59.3190446936" lon="34.6789194398"><ele>161.107</ele><time>2026-08-16T16:43:23.476Z</time><hdop>3.0</hdop><vdop>2.5</vdop><extensions><gom:speed>0.904</gom:speed></extensions></trkpt>
   <trkpt lat="59.3190499742" lon="34.6789274864"><ele>161.083</ele><time>2026-08-16T16:43:24.136Z</time><hdop>3.0</hdop><vdop>2.5</vdop><extensions><gom:speed>0.934</gom:speed></extensions></trkpt>
   <trkpt lat="59.3190540814" lon="34.6789342757"><ele>161.068</ele><time>2026-08-16T16:43:24.653Z</time><hdop>3.0</hdop><vdop>2.5</vdop><extensions><gom:speed>0.923</gom:speed></extensions></trkpt>
   <trkpt lat="59.3190585657" lon="34.6789413165"><ele>161.137</ele><time>2026-08-16T16:43:25.136Z</time><hdop>3.0</hdop><vdop>2.5</vdop><extensions><gom:speed>0.988</gom:speed></extensions></trkpt>
   <trkpt lat="59.3190652712" lon="34.6789469324"><ele>161.179</ele><time>2026-08-16T16:43:25.880Z</time><hdop>3.0</hdop><vdop>2.5</vdop><extensions><gom:speed>0.94</gom:speed></extensions></trkpt>
   <trkpt lat="59.3190728987" lon="34.6789514586"><ele>161.196</ele><time>2026-08-16T16:43:26.577Z</time><hdop>3.0</hdop><vdop>2.5</vdop><extensions><gom:speed>0.991</gom:speed></extensions></trkpt>
   <trkpt lat="59.3190783889" lon="34.6789521292"><ele>161.207</ele><time>2026-08-16T16:43:27.097Z</time><hdop>3.0</hdop><vdop>2.5</vdop><extensions><gom:speed>0.983</gom:speed></extensions></trkpt>
   <trkpt lat="59.3190851782" lon="34.6789557334"><ele>161.171</ele><time>2026-08-16T16:43:27.735Z</time><hdop>3.0</hdop><vdop>2.5</vdop><extensions><gom:speed>1.029</gom:speed></extensions></trkpt>
   <trkpt lat="59.3190908779" lon="34.6789607626"><ele>161.115</ele><time>2026-08-16T16:43:28.275Z</time><hdop>3.0</hdop><vdop>2.5</vdop><extensions><gom:speed>1.03</gom:speed></extensions></trkpt>
   <trkpt lat="59.3190993855" lon="34.6789664623"><ele>161.101</ele><time>2026-08-16T16:43:29.136Z</time><hdop>3.0</hdop><vdop>2.5</vdop><extensions><gom:speed>1.053</gom:speed></extensions></trkpt>
   <trkpt lat="59.31910936" lon="34.6789742574"><ele>161.095</ele><time>2026-08-16T16:43:30.136Z</time><hdop>3.0</hdop><vdop>2.5</vdop><extensions><gom:speed>1.083</gom:speed></extensions></trkpt>
   <trkpt lat="59.3191148921" lon="34.6789801248"><ele>161.091</ele><time>2026-08-16T16:43:30.680Z</time><hdop>3.0</hdop><vdop>2.5</vdop><extensions><gom:speed>1.085</gom:speed></extensions></trkpt>
   <trkpt lat="59.3191189992" lon="34.6789873332"><ele>161.08</ele><time>2026-08-16T16:43:31.136Z</time><hdop>3.0</hdop><vdop>2.5</vdop><extensions><gom:speed>1.087</gom:speed></extensions></trkpt>
   <trkpt lat="59.3191253694" lon="34.6789982297"><ele>161.074</ele><time>2026-08-16T16:43:31.838Z</time><hdop>3.0</hdop><vdop>2.5</vdop><extensions><gom:speed>1.101</gom:speed></extensions></trkpt>
   <trkpt lat="59.3191321588" lon="34.6790112216"><ele>161.131</ele><time>2026-08-16T16:43:32.594Z</time><hdop>3.0</hdop><vdop>2.5</vdop><extensions><gom:speed>1.151</gom:speed></extensions></trkpt>
   <trkpt lat="59.3191374813" lon="34.6790186815"><ele>161.13</ele><time>2026-08-16T16:43:33.136Z</time><hdop>3.0</hdop><vdop>2.5</vdop><extensions><gom:speed>1.169</gom:speed></extensions></trkpt>
   <trkpt lat="59.3191480844" lon="34.6790297456"><ele>161.249</ele><time>2026-08-16T16:43:34.136Z</time><hdop>3.0</hdop><vdop>2.5</vdop><extensions><gom:speed>1.24</gom:speed></extensions></trkpt>
   <trkpt lat="59.3191581846" lon="34.6790409774"><ele>161.32</ele><time>2026-08-16T16:43:35.116Z</time><hdop>3.0</hdop><vdop>2.5</vdop><extensions><gom:speed>1.18</gom:speed></extensions></trkpt>
   <trkpt lat="59.3191692906" lon="34.6790414803"><ele>161.121</ele><time>2026-08-16T16:43:36.136Z</time><hdop>3.0</hdop><vdop>2.5</vdop><extensions><gom:speed>1.049</gom:speed></extensions></trkpt>
   <trkpt lat="59.3191743617" lon="34.6790431567"><ele>161.002</ele><time>2026-08-16T16:43:36.617Z</time><hdop>3.0</hdop><vdop>2.5</vdop><extensions><gom:speed>1.062</gom:speed></extensions></trkpt>
   <trkpt lat="59.319179768" lon="34.6790468447"><ele>161.089</ele><time>2026-08-16T16:43:37.136Z</time><hdop>3.0</hdop><vdop>2.5</vdop><extensions><gom:speed>1.172</gom:speed></extensions></trkpt>
   <trkpt lat="59.3191869764" lon="34.6790527959"><ele>161.141</ele><time>2026-08-16T16:43:37.796Z</time><hdop>3.0</hdop><vdop>2.5</vdop><extensions><gom:speed>1.17</gom:speed></extensions></trkpt>
   <trkpt lat="59.3191991721" lon="34.6790586632"><ele>161.256</ele><time>2026-08-16T16:43:38.914Z</time><hdop>3.0</hdop><vdop>2.5</vdop><extensions><gom:speed>1.145</gom:speed></extensions></trkpt>
   <trkpt lat="59.3192094818" lon="34.6790633571"><ele>161.233</ele><time>2026-08-16T16:43:39.798Z</time><hdop>3.0</hdop><vdop>2.5</vdop><extensions><gom:speed>1.126</gom:speed></extensions></trkpt>
   <trkpt lat="59.319221468" lon="34.6790703979"><ele>161.116</ele><time>2026-08-16T16:43:40.976Z</time><hdop>3.0</hdop><vdop>2.5</vdop><extensions><gom:speed>1.083</gom:speed></extensions></trkpt>
   <trkpt lat="59.3192268743" lon="34.6790725771"><ele>161.156</ele><time>2026-08-16T16:43:41.476Z</time><hdop>3.0</hdop><vdop>2.5</vdop><extensions><gom:speed>1.105</gom:speed></extensions></trkpt>
   <trkpt lat="59.3192333703" lon="34.679076349"><ele>161.113</ele><time>2026-08-16T16:43:42.136Z</time><hdop>3.0</hdop><vdop>2.5</vdop><extensions><gom:speed>1.099</gom:speed></extensions></trkpt>
   <trkpt lat="59.3192382737" lon="34.6790785283"><ele>161.087</ele><time>2026-08-16T16:43:42.615Z</time><hdop>3.0</hdop><vdop>2.5</vdop><extensions><gom:speed>1.079</gom:speed></extensions></trkpt>
   <trkpt lat="59.3192433866" lon="34.6790783607"><ele>161.077</ele><time>2026-08-16T16:43:43.136Z</time><hdop>3.0</hdop><vdop>2.5</vdop><extensions><gom:speed>1.049</gom:speed></extensions></trkpt>
   <trkpt lat="59.319251559" lon="34.679075427"><ele>161.072</ele><time>2026-08-16T16:43:43.920Z</time><hdop>3.0</hdop><vdop>2.5</vdop><extensions><gom:speed>1.045</gom:speed></extensions></trkpt>
   <trkpt lat="59.3192642995" lon="34.6790738344"><ele>161.12</ele><time>2026-08-16T16:43:45.136Z</time><hdop>3.0</hdop><vdop>2.5</vdop><extensions><gom:speed>1.08</gom:speed></extensions></trkpt>
   <trkpt lat="59.3192749864" lon="34.6790743373"><ele>161.228</ele><time>2026-08-16T16:43:46.136Z</time><hdop>3.0</hdop><vdop>2.5</vdop><extensions><gom:speed>1.107</gom:speed></extensions></trkpt>
   <trkpt lat="59.3192860924" lon="34.6790757623"><ele>161.204</ele><time>2026-08-16T16:43:47.136Z</time><hdop>3.0</hdop><vdop>2.5</vdop><extensions><gom:speed>1.125</gom:speed></extensions></trkpt>
   <trkpt lat="59.3192916664" lon="34.6790769357"><ele>161.189</ele><time>2026-08-16T16:43:47.640Z</time><hdop>3.0</hdop><vdop>2.5</vdop><extensions><gom:speed>1.088</gom:speed></extensions></trkpt>
   <trkpt lat="59.3192970727" lon="34.6790784445"><ele>161.212</ele><time>2026-08-16T16:43:48.136Z</time><hdop>3.0</hdop><vdop>2.5</vdop><extensions><gom:speed>1.104</gom:speed></extensions></trkpt>
   <trkpt lat="59.3193054965" lon="34.6790833898"><ele>161.225</ele><time>2026-08-16T16:43:48.955Z</time><hdop>3.0</hdop><vdop>2.5</vdop><extensions><gom:speed>1.083</gom:speed></extensions></trkpt>
   <trkpt lat="59.3193119925" lon="34.6790891733"><ele>161.218</ele><time>2026-08-16T16:43:49.593Z</time><hdop>3.0</hdop><vdop>2.5</vdop><extensions><gom:speed>1.1</gom:speed></extensions></trkpt>
   <trkpt lat="59.3193170636" lon="34.6790931966"><ele>161.202</ele><time>2026-08-16T16:43:50.136Z</time><hdop>3.0</hdop><vdop>2.5</vdop><extensions><gom:speed>1.067</gom:speed></extensions></trkpt>
   <trkpt lat="59.3193258646" lon="34.679097639"><ele>161.193</ele><time>2026-08-16T16:43:51.036Z</time><hdop>3.0</hdop><vdop>2.5</vdop><extensions><gom:speed>1.033</gom:speed></extensions></trkpt>
   <trkpt lat="59.3193387727" lon="34.6791004889"><ele>161.334</ele><time>2026-08-16T16:43:52.136Z</time><hdop>3.0</hdop><vdop>2.5</vdop><extensions><gom:speed>1.05</gom:speed></extensions></trkpt>
   <trkpt lat="59.3193457716" lon="34.6791049313"><ele>161.418</ele><time>2026-08-16T16:43:52.901Z</time><hdop>3.0</hdop><vdop>2.5</vdop><extensions><gom:speed>0.978</gom:speed></extensions></trkpt>
   <trkpt lat="59.3193510941" lon="34.6791096252"><ele>161.387</ele><time>2026-08-16T16:43:53.656Z</time><hdop>3.0</hdop><vdop>2.5</vdop><extensions><gom:speed>0.919</gom:speed></extensions></trkpt>
   <trkpt lat="59.3193544888" lon="34.6791113854"><ele>161.355</ele><time>2026-08-16T16:43:54.136Z</time><hdop>3.0</hdop><vdop>2.5</vdop><extensions><gom:speed>0.864</gom:speed></extensions></trkpt>
   <trkpt lat="59.319360859" lon="34.6791179232"><ele>161.336</ele><time>2026-08-16T16:43:55.080Z</time><hdop>3.0</hdop><vdop>2.5</vdop><extensions><gom:speed>0.823</gom:speed></extensions></trkpt>
   <trkpt lat="59.3193619906" lon="34.6791266404"><ele>161.301</ele><time>2026-08-16T16:43:55.678Z</time><hdop>3.0</hdop><vdop>2.5</vdop><extensions><gom:speed>0.767</gom:speed></extensions></trkpt>
   <trkpt lat="59.3193637927" lon="34.6791327592"><ele>161.248</ele><time>2026-08-16T16:43:56.135Z</time><hdop>3.0</hdop><vdop>2.5</vdop><extensions><gom:speed>0.815</gom:speed></extensions></trkpt>
   <trkpt lat="59.319370582" lon="34.6791433204"><ele>161.24</ele><time>2026-08-16T16:43:57.136Z</time><hdop>3.0</hdop><vdop>2.5</vdop><extensions><gom:speed>0.937</gom:speed></extensions></trkpt>
   <trkpt lat="59.3193761979" lon="34.6791488525"><ele>161.236</ele><time>2026-08-16T16:43:57.759Z</time><hdop>3.0</hdop><vdop>2.5</vdop><extensions><gom:speed>0.896</gom:speed></extensions></trkpt>
   <trkpt lat="59.3193815623" lon="34.679152289"><ele>161.244</ele><time>2026-08-16T16:43:58.299Z</time><hdop>3.0</hdop><vdop>2.5</vdop><extensions><gom:speed>0.916</gom:speed></extensions></trkpt>
   <trkpt lat="59.319387262" lon="34.6791579887"><ele>161.249</ele><time>2026-08-16T16:43:58.996Z</time><hdop>3.0</hdop><vdop>2.5</vdop><extensions><gom:speed>0.896</gom:speed></extensions></trkpt>
   <trkpt lat="59.319393297" lon="34.6791627664"><ele>161.28</ele><time>2026-08-16T16:43:59.516Z</time><hdop>3.0</hdop><vdop>2.5</vdop><extensions><gom:speed>0.98</gom:speed></extensions></trkpt>
   <trkpt lat="59.3194001701" lon="34.6791668736"><ele>161.272</ele><time>2026-08-16T16:44:00.136Z</time><hdop>3.0</hdop><vdop>2.5</vdop><extensions><gom:speed>1.026</gom:speed></extensions></trkpt>
   <trkpt lat="59.319407169" lon="34.6791702263"><ele>161.268</ele><time>2026-08-16T16:44:00.752Z</time><hdop>3.0</hdop><vdop>2.5</vdop><extensions><gom:speed>1.026</gom:speed></extensions></trkpt>
   <trkpt lat="59.3194153833" lon="34.6791707292"><ele>161.266</ele><time>2026-08-16T16:44:01.420Z</time><hdop>3.0</hdop><vdop>2.5</vdop><extensions><gom:speed>1.067</gom:speed></extensions></trkpt>
   <trkpt lat="59.3194216697" lon="34.6791728247"><ele>161.264</ele><time>2026-08-16T16:44:01.999Z</time><hdop>3.0</hdop><vdop>2.5</vdop><extensions><gom:speed>1.069</gom:speed></extensions></trkpt>
   <trkpt lat="59.3194296744" lon="34.679174082"><ele>161.287</ele><time>2026-08-16T16:44:02.676Z</time><hdop>3.0</hdop><vdop>2.5</vdop><extensions><gom:speed>1.064</gom:speed></extensions></trkpt>
   <trkpt lat="59.3194347874" lon="34.6791743335"><ele>161.298</ele><time>2026-08-16T16:44:03.136Z</time><hdop>3.0</hdop><vdop>2.5</vdop><extensions><gom:speed>1.069</gom:speed></extensions></trkpt>
   <trkpt lat="59.3194428759" lon="34.679175926"><ele>161.305</ele><time>2026-08-16T16:44:03.913Z</time><hdop>3.0</hdop><vdop>2.5</vdop><extensions><gom:speed>1.038</gom:speed></extensions></trkpt>
   <trkpt lat="59.3194548621" lon="34.6791757584"><ele>161.276</ele><time>2026-08-16T16:44:05.136Z</time><hdop>3.0</hdop><vdop>2.5</vdop><extensions><gom:speed>0.993</gom:speed></extensions></trkpt>
   <trkpt lat="59.319459975" lon="34.67917777"><ele>161.259</ele><time>2026-08-16T16:44:05.679Z</time><hdop>3.0</hdop><vdop>2.5</vdop><extensions><gom:speed>0.99</gom:speed></extensions></trkpt>
   <trkpt lat="59.3194640822" lon="34.6791795302"><ele>161.273</ele><time>2026-08-16T16:44:06.136Z</time><hdop>3.0</hdop><vdop>2.5</vdop><extensions><gom:speed>1.009</gom:speed></extensions></trkpt>
   <trkpt lat="59.3194719611" lon="34.6791805361"><ele>161.281</ele><time>2026-08-16T16:44:07.014Z</time><hdop>3.0</hdop><vdop>2.5</vdop><extensions><gom:speed>0.95</gom:speed></extensions></trkpt>
   <trkpt lat="59.3194768646" lon="34.6791803684"><ele>161.298</ele><time>2026-08-16T16:44:07.476Z</time><hdop>3.0</hdop><vdop>2.5</vdop><extensions><gom:speed>0.999</gom:speed></extensions></trkpt>
   <trkpt lat="59.3194835701" lon="34.6791806199"><ele>161.281</ele><time>2026-08-16T16:44:08.136Z</time><hdop>3.0</hdop><vdop>2.5</vdop><extensions><gom:speed>1.027</gom:speed></extensions></trkpt>
   <trkpt lat="59.3194917843" lon="34.6791835535"><ele>161.271</ele><time>2026-08-16T16:44:08.918Z</time><hdop>3.0</hdop><vdop>2.5</vdop><extensions><gom:speed>1.021</gom:speed></extensions></trkpt>
   <trkpt lat="59.3194962687" lon="34.679187996"><ele>161.254</ele><time>2026-08-16T16:44:09.439Z</time><hdop>3.0</hdop><vdop>2.5</vdop><extensions><gom:speed>0.96</gom:speed></extensions></trkpt>
   <trkpt lat="59.3195023875" lon="34.6791945338"><ele>161.202</ele><time>2026-08-16T16:44:10.136Z</time><hdop>3.0</hdop><vdop>2.5</vdop><extensions><gom:speed>1.06</gom:speed></extensions></trkpt>
   <trkpt lat="59.3195075842" lon="34.6791993953"><ele>161.171</ele><time>2026-08-16T16:44:10.675Z</time><hdop>3.0</hdop><vdop>2.5</vdop><extensions><gom:speed>1.019</gom:speed></extensions></trkpt>
   <trkpt lat="59.3195116914" lon="34.6792021614"><ele>161.278</ele><time>2026-08-16T16:44:11.135Z</time><hdop>3.0</hdop><vdop>2.5</vdop><extensions><gom:speed>0.992</gom:speed></extensions></trkpt>
   <trkpt lat="59.3195209953" lon="34.6792036701"><ele>161.294</ele><time>2026-08-16T16:44:12.136Z</time><hdop>3.0</hdop><vdop>2.5</vdop><extensions><gom:speed>0.967</gom:speed></extensions></trkpt>
   <trkpt lat="59.3195305926" lon="34.6792051789"><ele>161.304</ele><time>2026-08-16T16:44:13.119Z</time><hdop>3.0</hdop><vdop>2.5</vdop><extensions><gom:speed>0.962</gom:speed></extensions></trkpt>
   <trkpt lat="59.3195349931" lon="34.6792077772"><ele>161.382</ele><time>2026-08-16T16:44:13.600Z</time><hdop>3.0</hdop><vdop>2.5</vdop><extensions><gom:speed>0.992</gom:speed></extensions></trkpt>
   <trkpt lat="59.3195397707" lon="34.67921113"><ele>161.463</ele><time>2026-08-16T16:44:14.136Z</time><hdop>3.0</hdop><vdop>2.5</vdop><extensions><gom:speed>1.015</gom:speed></extensions></trkpt>
   <trkpt lat="59.3195471887" lon="34.6792167459"><ele>161.511</ele><time>2026-08-16T16:44:14.896Z</time><hdop>3.0</hdop><vdop>2.5</vdop><extensions><gom:speed>1.027</gom:speed></extensions></trkpt>
   <trkpt lat="59.3195554868" lon="34.679219931"><ele>161.532</ele><time>2026-08-16T16:44:15.759Z</time><hdop>3.0</hdop><vdop>2.5</vdop><extensions><gom:speed>1.031</gom:speed></extensions></trkpt>
   <trkpt lat="59.3195607674" lon="34.6792198472"><ele>161.603</ele><time>2026-08-16T16:44:16.358Z</time><hdop>3.0</hdop><vdop>2.5</vdop><extensions><gom:speed>0.999</gom:speed></extensions></trkpt>
   <trkpt lat="59.3195675987" lon="34.6792211883"><ele>161.612</ele><time>2026-08-16T16:44:17.136Z</time><hdop>3.0</hdop><vdop>2.5</vdop><extensions><gom:speed>0.992</gom:speed></extensions></trkpt>
   <trkpt lat="59.3195719992" lon="34.6792237867"><ele>161.617</ele><time>2026-08-16T16:44:17.614Z</time><hdop>3.0</hdop><vdop>2.5</vdop><extensions><gom:speed>0.988</gom:speed></extensions></trkpt>
   <trkpt lat="59.3195765673" lon="34.6792283967"><ele>161.693</ele><time>2026-08-16T16:44:18.136Z</time><hdop>3.0</hdop><vdop>2.5</vdop><extensions><gom:speed>1.02</gom:speed></extensions></trkpt>
   <trkpt lat="59.3195844882" lon="34.6792340964"><ele>161.738</ele><time>2026-08-16T16:44:18.959Z</time><hdop>3.0</hdop><vdop>2.5</vdop><extensions><gom:speed>1.011</gom:speed></extensions></trkpt>
   <trkpt lat="59.319594295" lon="34.6792342641"><ele>161.842</ele><time>2026-08-16T16:44:19.891Z</time><hdop>3.0</hdop><vdop>2.5</vdop><extensions><gom:speed>1.046</gom:speed></extensions></trkpt>
   <trkpt lat="59.3195990727" lon="34.6792315819"><ele>161.768</ele><time>2026-08-16T16:44:20.392Z</time><hdop>3.0</hdop><vdop>2.5</vdop><extensions><gom:speed>1.008</gom:speed></extensions></trkpt>
   <trkpt lat="59.3196055687" lon="34.6792310789"><ele>161.724</ele><time>2026-08-16T16:44:21.059Z</time><hdop>3.0</hdop><vdop>2.5</vdop><extensions><gom:speed>1.006</gom:speed></extensions></trkpt>
   <trkpt lat="59.3196101787" lon="34.6792343479"><ele>161.742</ele><time>2026-08-16T16:44:21.638Z</time><hdop>3.0</hdop><vdop>2.5</vdop><extensions><gom:speed>0.977</gom:speed></extensions></trkpt>
   <trkpt lat="59.319614663" lon="34.679238455"><ele>161.79</ele><time>2026-08-16T16:44:22.136Z</time><hdop>3.0</hdop><vdop>2.5</vdop><extensions><gom:speed>1.026</gom:speed></extensions></trkpt>
   <trkpt lat="59.3196188959" lon="34.6792416401"><ele>161.818</ele><time>2026-08-16T16:44:22.620Z</time><hdop>3.0</hdop><vdop>2.5</vdop><extensions><gom:speed>0.964</gom:speed></extensions></trkpt>
   <trkpt lat="59.3196232964" lon="34.6792438194"><ele>161.835</ele><time>2026-08-16T16:44:23.120Z</time><hdop>3.0</hdop><vdop>2.5</vdop><extensions><gom:speed>0.961</gom:speed></extensions></trkpt>
   <trkpt lat="59.3196290799" lon="34.6792474236"><ele>161.887</ele><time>2026-08-16T16:44:23.915Z</time><hdop>3.0</hdop><vdop>2.5</vdop><extensions><gom:speed>0.901</gom:speed></extensions></trkpt>
   <trkpt lat="59.3196319717" lon="34.6792504411"><ele>161.964</ele><time>2026-08-16T16:44:24.435Z</time><hdop>3.0</hdop><vdop>2.5</vdop><extensions><gom:speed>0.861</gom:speed></extensions></trkpt>
   <trkpt lat="59.3196370846" lon="34.6792544644"><ele>161.99</ele><time>2026-08-16T16:44:25.136Z</time><hdop>3.0</hdop><vdop>2.5</vdop><extensions><gom:speed>0.869</gom:speed></extensions></trkpt>
   <trkpt lat="59.3196420719" lon="34.6792574819"><ele>162.006</ele><time>2026-08-16T16:44:25.741Z</time><hdop>3.0</hdop><vdop>2.5</vdop><extensions><gom:speed>0.868</gom:speed></extensions></trkpt>
   <trkpt lat="59.3196495737" lon="34.6792642713"><ele>162.061</ele><time>2026-08-16T16:44:26.536Z</time><hdop>3.0</hdop><vdop>2.5</vdop><extensions><gom:speed>0.956</gom:speed></extensions></trkpt>
   <trkpt lat="59.3196545609" lon="34.6792691328"><ele>162.225</ele><time>2026-08-16T16:44:27.136Z</time><hdop>3.0</hdop><vdop>2.5</vdop><extensions><gom:speed>0.95</gom:speed></extensions></trkpt>
   <trkpt lat="59.3196582909" lon="34.6792732399"><ele>162.324</ele><time>2026-08-16T16:44:27.615Z</time><hdop>3.0</hdop><vdop>2.5</vdop><extensions><gom:speed>0.927</gom:speed></extensions></trkpt>
   <trkpt lat="59.3196620627" lon="34.6792779338"><ele>162.436</ele><time>2026-08-16T16:44:28.136Z</time><hdop>3.0</hdop><vdop>2.5</vdop><extensions><gom:speed>0.966</gom:speed></extensions></trkpt>
   <trkpt lat="59.3196672595" lon="34.6792915963"><ele>162.504</ele><time>2026-08-16T16:44:29.097Z</time><hdop>3.0</hdop><vdop>2.5</vdop><extensions><gom:speed>0.94</gom:speed></extensions></trkpt>
   <trkpt lat="59.319672582" lon="34.6792938594"><ele>162.514</ele><time>2026-08-16T16:44:29.716Z</time><hdop>3.0</hdop><vdop>2.5</vdop><extensions><gom:speed>0.881</gom:speed></extensions></trkpt>
   <trkpt lat="59.3196854901" lon="34.6792939432"><ele>162.513</ele><time>2026-08-16T16:44:31.011Z</time><hdop>3.0</hdop><vdop>2.5</vdop><extensions><gom:speed>0.894</gom:speed></extensions></trkpt>
   <trkpt lat="59.3196939978" lon="34.6792898361"><ele>162.532</ele><time>2026-08-16T16:44:31.659Z</time><hdop>3.0</hdop><vdop>2.5</vdop><extensions><gom:speed>0.965</gom:speed></extensions></trkpt>
   <trkpt lat="59.3196994879" lon="34.6792873215"><ele>162.526</ele><time>2026-08-16T16:44:32.136Z</time><hdop>3.0</hdop><vdop>2.5</vdop><extensions><gom:speed>0.976</gom:speed></extensions></trkpt>
   <trkpt lat="59.3197080794" lon="34.6792858966"><ele>162.523</ele><time>2026-08-16T16:44:32.955Z</time><hdop>3.0</hdop><vdop>2.5</vdop><extensions><gom:speed>0.943</gom:speed></extensions></trkpt>
   <trkpt lat="59.3197132761" lon="34.6792837173"><ele>162.601</ele><time>2026-08-16T16:44:33.436Z</time><hdop>3.0</hdop><vdop>2.5</vdop><extensions><gom:speed>0.936</gom:speed></extensions></trkpt>
   <trkpt lat="59.3197192692" lon="34.6792826276"><ele>162.648</ele><time>2026-08-16T16:44:34.054Z</time><hdop>3.0</hdop><vdop>2.5</vdop><extensions><gom:speed>0.93</gom:speed></extensions></trkpt>
   <trkpt lat="59.3197256814" lon="34.6792799454"><ele>162.68</ele><time>2026-08-16T16:44:34.692Z</time><hdop>3.0</hdop><vdop>2.5</vdop><extensions><gom:speed>0.966</gom:speed></extensions></trkpt>
   <trkpt lat="59.319733267" lon="34.6792757545"><ele>162.76</ele><time>2026-08-16T16:44:35.438Z</time><hdop>3.0</hdop><vdop>2.5</vdop><extensions><gom:speed>1.0</gom:speed></extensions></trkpt>
   <trkpt lat="59.3197390924" lon="34.6792718988"><ele>162.808</ele><time>2026-08-16T16:44:36.036Z</time><hdop>3.0</hdop><vdop>2.5</vdop><extensions><gom:speed>0.994</gom:speed></extensions></trkpt>
   <trkpt lat="59.3197438701" lon="34.6792672888"><ele>162.838</ele><time>2026-08-16T16:44:36.596Z</time><hdop>3.0</hdop><vdop>2.5</vdop><extensions><gom:speed>1.005</gom:speed></extensions></trkpt>
   <trkpt lat="59.3197483963" lon="34.6792633493"><ele>162.839</ele><time>2026-08-16T16:44:37.136Z</time><hdop>3.0</hdop><vdop>2.5</vdop><extensions><gom:speed>0.979</gom:speed></extensions></trkpt>
   <trkpt lat="59.3197550599" lon="34.6792577334"><ele>162.84</ele><time>2026-08-16T16:44:37.912Z</time><hdop>3.0</hdop><vdop>2.5</vdop><extensions><gom:speed>0.989</gom:speed></extensions></trkpt>
   <trkpt lat="59.3197607596" lon="34.6792543806"><ele>162.855</ele><time>2026-08-16T16:44:38.580Z</time><hdop>3.0</hdop><vdop>2.5</vdop><extensions><gom:speed>0.965</gom:speed></extensions></trkpt>
   <trkpt lat="59.3197650763" lon="34.6792524528"><ele>162.861</ele><time>2026-08-16T16:44:39.136Z</time><hdop>3.0</hdop><vdop>2.5</vdop><extensions><gom:speed>0.938</gom:speed></extensions></trkpt>
   <trkpt lat="59.3197735839" lon="34.6792507764"><ele>162.863</ele><time>2026-08-16T16:44:40.136Z</time><hdop>3.0</hdop><vdop>2.5</vdop><extensions><gom:speed>0.936</gom:speed></extensions></trkpt>
   <trkpt lat="59.3197825945" lon="34.679250022"><ele>162.865</ele><time>2026-08-16T16:44:41.111Z</time><hdop>3.0</hdop><vdop>2.5</vdop><extensions><gom:speed>0.942</gom:speed></extensions></trkpt>
   <trkpt lat="59.3197896772" lon="34.6792508602"><ele>162.818</ele><time>2026-08-16T16:44:41.799Z</time><hdop>3.0</hdop><vdop>2.5</vdop><extensions><gom:speed>0.976</gom:speed></extensions></trkpt>
   <trkpt lat="59.319794874" lon="34.6792530395"><ele>162.84</ele><time>2026-08-16T16:44:42.358Z</time><hdop>3.0</hdop><vdop>2.5</vdop><extensions><gom:speed>0.967</gom:speed></extensions></trkpt>
   <trkpt lat="59.3198016633" lon="34.6792563923"><ele>162.896</ele><time>2026-08-16T16:44:43.136Z</time><hdop>3.0</hdop><vdop>2.5</vdop><extensions><gom:speed>0.942</gom:speed></extensions></trkpt>
   <trkpt lat="59.3198081593" lon="34.6792617567"><ele>162.93</ele><time>2026-08-16T16:44:43.880Z</time><hdop>3.0</hdop><vdop>2.5</vdop><extensions><gom:speed>0.921</gom:speed></extensions></trkpt>
   <trkpt lat="59.3198127693" lon="34.6792711444"><ele>163.146</ele><time>2026-08-16T16:44:44.478Z</time><hdop>3.0</hdop><vdop>2.5</vdop><extensions><gom:speed>0.976</gom:speed></extensions></trkpt>
   <trkpt lat="59.3198159964" lon="34.6792803645"><ele>163.297</ele><time>2026-08-16T16:44:45.136Z</time><hdop>3.0</hdop><vdop>2.5</vdop><extensions><gom:speed>0.927</gom:speed></extensions></trkpt>
   <trkpt lat="59.3198178823" lon="34.679292183"><ele>163.387</ele><time>2026-08-16T16:44:45.833Z</time><hdop>3.0</hdop><vdop>2.5</vdop><extensions><gom:speed>0.937</gom:speed></extensions></trkpt>
   <trkpt lat="59.3198186786" lon="34.6793029957"><ele>163.468</ele><time>2026-08-16T16:44:46.598Z</time><hdop>3.0</hdop><vdop>2.5</vdop><extensions><gom:speed>0.951</gom:speed></extensions></trkpt>
   <trkpt lat="59.3198209836" lon="34.6793095336"><ele>163.454</ele><time>2026-08-16T16:44:47.136Z</time><hdop>3.0</hdop><vdop>2.5</vdop><extensions><gom:speed>1.033</gom:speed></extensions></trkpt>
   <trkpt lat="59.3198247974" lon="34.6793239504"><ele>163.445</ele><time>2026-08-16T16:44:47.992Z</time><hdop>3.0</hdop><vdop>2.5</vdop><extensions><gom:speed>1.022</gom:speed></extensions></trkpt>
   <trkpt lat="59.3198315867" lon="34.6793299854"><ele>163.526</ele><time>2026-08-16T16:44:48.659Z</time><hdop>3.0</hdop><vdop>2.5</vdop><extensions><gom:speed>1.042</gom:speed></extensions></trkpt>
   <trkpt lat="59.3198364901" lon="34.6793327514"><ele>163.543</ele><time>2026-08-16T16:44:49.136Z</time><hdop>3.0</hdop><vdop>2.5</vdop><extensions><gom:speed>1.018</gom:speed></extensions></trkpt>
   <trkpt lat="59.3198455845" lon="34.6793417201"><ele>163.439</ele><time>2026-08-16T16:44:50.136Z</time><hdop>3.0</hdop><vdop>2.5</vdop><extensions><gom:speed>1.035</gom:speed></extensions></trkpt>
   <trkpt lat="59.3198505717" lon="34.6793479227"><ele>163.377</ele><time>2026-08-16T16:44:50.672Z</time><hdop>3.0</hdop><vdop>2.5</vdop><extensions><gom:speed>1.046</gom:speed></extensions></trkpt>
   <trkpt lat="59.319855978" lon="34.6793481741"><ele>163.319</ele><time>2026-08-16T16:44:51.136Z</time><hdop>3.0</hdop><vdop>2.5</vdop><extensions><gom:speed>1.101</gom:speed></extensions></trkpt>
   <trkpt lat="59.3198679642" lon="34.6793465816"><ele>163.275</ele><time>2026-08-16T16:44:52.136Z</time><hdop>3.0</hdop><vdop>2.5</vdop><extensions><gom:speed>1.031</gom:speed></extensions></trkpt>
   <trkpt lat="59.319878693" lon="34.6793386188"><ele>163.238</ele><time>2026-08-16T16:44:53.136Z</time><hdop>3.0</hdop><vdop>2.5</vdop><extensions><gom:speed>0.939</gom:speed></extensions></trkpt>
   <trkpt lat="59.3198841831" lon="34.6793337573"><ele>163.215</ele><time>2026-08-16T16:44:53.773Z</time><hdop>3.0</hdop><vdop>2.5</vdop><extensions><gom:speed>0.881</gom:speed></extensions></trkpt>
   <trkpt lat="59.3198917688" lon="34.6793285605"><ele>163.223</ele><time>2026-08-16T16:44:54.617Z</time><hdop>3.0</hdop><vdop>2.5</vdop><extensions><gom:speed>0.938</gom:speed></extensions></trkpt>
   <trkpt lat="59.3198956663" lon="34.6793272194"><ele>163.076</ele><time>2026-08-16T16:44:55.136Z</time><hdop>3.0</hdop><vdop>2.5</vdop><extensions><gom:speed>0.897</gom:speed></extensions></trkpt>
   <trkpt lat="59.3199026652" lon="34.6793241181"><ele>163.023</ele><time>2026-08-16T16:44:56.136Z</time><hdop>3.0</hdop><vdop>2.5</vdop><extensions><gom:speed>0.839</gom:speed></extensions></trkpt>
   <trkpt lat="59.319910167" lon="34.6793249563"><ele>162.955</ele><time>2026-08-16T16:44:57.136Z</time><hdop>3.0</hdop><vdop>2.5</vdop><extensions><gom:speed>0.864</gom:speed></extensions></trkpt>
   <trkpt lat="59.3199178784" lon="34.6793252915"><ele>162.914</ele><time>2026-08-16T16:44:58.072Z</time><hdop>3.0</hdop><vdop>2.5</vdop><extensions><gom:speed>0.833</gom:speed></extensions></trkpt>
   <trkpt lat="59.3199221951" lon="34.6793324161"><ele>162.876</ele><time>2026-08-16T16:44:58.739Z</time><hdop>3.0</hdop><vdop>2.5</vdop><extensions><gom:speed>0.78</gom:speed></extensions></trkpt>
   <trkpt lat="59.3199241648" lon="34.6793415524"><ele>162.884</ele><time>2026-08-16T16:44:59.201Z</time><hdop>3.0</hdop><vdop>2.5</vdop><extensions><gom:speed>0.783</gom:speed></extensions></trkpt>
   <trkpt lat="59.3199283977" lon="34.6793467492"><ele>162.888</ele><time>2026-08-16T16:44:59.917Z</time><hdop>3.0</hdop><vdop>2.5</vdop><extensions><gom:speed>0.755</gom:speed></extensions></trkpt>
   <trkpt lat="59.3199343907" lon="34.6793462463"><ele>162.838</ele><time>2026-08-16T16:45:00.918Z</time><hdop>3.0</hdop><vdop>2.5</vdop><extensions><gom:speed>0.778</gom:speed></extensions></trkpt>
   <trkpt lat="59.3199376597" lon="34.6793465816"><ele>162.769</ele><time>2026-08-16T16:45:01.556Z</time><hdop>3.0</hdop><vdop>2.5</vdop><extensions><gom:speed>0.827</gom:speed></extensions></trkpt>
   <trkpt lat="59.3199400904" lon="34.6793520298"><ele>162.799</ele><time>2026-08-16T16:45:02.136Z</time><hdop>3.0</hdop><vdop>2.5</vdop><extensions><gom:speed>0.756</gom:speed></extensions></trkpt>
   <trkpt lat="59.3199441976" lon="34.6793635968"><ele>162.816</ele><time>2026-08-16T16:45:03.077Z</time><hdop>3.0</hdop><vdop>2.5</vdop><extensions><gom:speed>0.691</gom:speed></extensions></trkpt>
   <trkpt lat="59.3199426888" lon="34.679386228"><ele>162.818</ele><time>2026-08-16T16:45:03.773Z</time><hdop>3.0</hdop><vdop>2.5</vdop><extensions><gom:speed>0.835</gom:speed></extensions></trkpt>
   <trkpt lat="59.319941683" lon="34.6794122957"><ele>162.738</ele><time>2026-08-16T16:45:04.579Z</time><hdop>3.0</hdop><vdop>2.5</vdop><extensions><gom:speed>0.863</gom:speed></extensions></trkpt>
   <trkpt lat="59.3199425631" lon="34.6794283889"><ele>162.697</ele><time>2026-08-16T16:45:05.136Z</time><hdop>3.0</hdop><vdop>2.5</vdop><extensions><gom:speed>0.89</gom:speed></extensions></trkpt>
   <trkpt lat="59.3199466702" lon="34.679444566"><ele>162.672</ele><time>2026-08-16T16:45:05.953Z</time><hdop>3.0</hdop><vdop>2.5</vdop><extensions><gom:speed>0.906</gom:speed></extensions></trkpt>
   <trkpt lat="59.319950484" lon="34.6794642635"><ele>162.665</ele><time>2026-08-16T16:45:06.758Z</time><hdop>3.0</hdop><vdop>2.5</vdop><extensions><gom:speed>0.983</gom:speed></extensions></trkpt>
   <trkpt lat="59.3199526633" lon="34.6794753276"><ele>162.608</ele><time>2026-08-16T16:45:07.259Z</time><hdop>3.0</hdop><vdop>2.5</vdop><extensions><gom:speed>0.978</gom:speed></extensions></trkpt>
   <trkpt lat="59.3199580696" lon="34.6794908341"><ele>162.576</ele><time>2026-08-16T16:45:08.136Z</time><hdop>3.0</hdop><vdop>2.5</vdop><extensions><gom:speed>1.086</gom:speed></extensions></trkpt>
   <trkpt lat="59.3199652781" lon="34.6795088552"><ele>162.558</ele><time>2026-08-16T16:45:09.114Z</time><hdop>3.0</hdop><vdop>2.5</vdop><extensions><gom:speed>1.092</gom:speed></extensions></trkpt>
   <trkpt lat="59.3199686727" lon="34.6795165666"><ele>162.517</ele><time>2026-08-16T16:45:09.614Z</time><hdop>3.0</hdop><vdop>2.5</vdop><extensions><gom:speed>1.093</gom:speed></extensions></trkpt>
   <trkpt lat="59.319972696" lon="34.6795223501"><ele>162.439</ele><time>2026-08-16T16:45:10.136Z</time><hdop>3.0</hdop><vdop>2.5</vdop><extensions><gom:speed>1.061</gom:speed></extensions></trkpt>
   <trkpt lat="59.3199790663" lon="34.6795310673"><ele>162.393</ele><time>2026-08-16T16:45:10.900Z</time><hdop>3.0</hdop><vdop>2.5</vdop><extensions><gom:speed>1.05</gom:speed></extensions></trkpt>
   <trkpt lat="59.3199836763" lon="34.6795419637"><ele>162.391</ele><time>2026-08-16T16:45:11.577Z</time><hdop>3.0</hdop><vdop>2.5</vdop><extensions><gom:speed>1.089</gom:speed></extensions></trkpt>
   <trkpt lat="59.3199872806" lon="34.6795495913"><ele>162.389</ele><time>2026-08-16T16:45:12.058Z</time><hdop>3.0</hdop><vdop>2.5</vdop><extensions><gom:speed>1.089</gom:speed></extensions></trkpt>
   <trkpt lat="59.3199936927" lon="34.6795604877"><ele>162.294</ele><time>2026-08-16T16:45:12.833Z</time><hdop>3.0</hdop><vdop>2.5</vdop><extensions><gom:speed>1.092</gom:speed></extensions></trkpt>
   <trkpt lat="59.3200037929" lon="34.679569624"><ele>162.26</ele><time>2026-08-16T16:45:13.913Z</time><hdop>3.0</hdop><vdop>2.5</vdop><extensions><gom:speed>1.019</gom:speed></extensions></trkpt>
   <trkpt lat="59.3200071876" lon="34.6795780897"><ele>162.25</ele><time>2026-08-16T16:45:14.473Z</time><hdop>3.0</hdop><vdop>2.5</vdop><extensions><gom:speed>1.031</gom:speed></extensions></trkpt>
   <trkpt lat="59.3200103727" lon="34.679589992"><ele>162.11</ele><time>2026-08-16T16:45:15.136Z</time><hdop>3.0</hdop><vdop>2.5</vdop><extensions><gom:speed>1.079</gom:speed></extensions></trkpt>
   <trkpt lat="59.3200139769" lon="34.6796007209"><ele>162.026</ele><time>2026-08-16T16:45:15.719Z</time><hdop>3.0</hdop><vdop>2.5</vdop><extensions><gom:speed>1.116</gom:speed></extensions></trkpt>
   <trkpt lat="59.320018084" lon="34.679611785"><ele>161.919</ele><time>2026-08-16T16:45:16.337Z</time><hdop>3.0</hdop><vdop>2.5</vdop><extensions><gom:speed>1.118</gom:speed></extensions></trkpt>
   <trkpt lat="59.3200234904" lon="34.6796227653"><ele>161.855</ele><time>2026-08-16T16:45:17.015Z</time><hdop>3.0</hdop><vdop>2.5</vdop><extensions><gom:speed>1.112</gom:speed></extensions></trkpt>
   <trkpt lat="59.3200278909" lon="34.6796316501"><ele>161.763</ele><time>2026-08-16T16:45:17.652Z</time><hdop>3.0</hdop><vdop>2.5</vdop><extensions><gom:speed>1.086</gom:speed></extensions></trkpt>
   <trkpt lat="59.3200298606" lon="34.6796390262"><ele>161.709</ele><time>2026-08-16T16:45:18.136Z</time><hdop>3.0</hdop><vdop>2.5</vdop><extensions><gom:speed>1.072</gom:speed></extensions></trkpt>
   <trkpt lat="59.3200326686" lon="34.6796527725"><ele>161.677</ele><time>2026-08-16T16:45:18.860Z</time><hdop>3.0</hdop><vdop>2.5</vdop><extensions><gom:speed>1.06</gom:speed></extensions></trkpt>
   <trkpt lat="59.3200340935" lon="34.6796604838"><ele>161.768</ele><time>2026-08-16T16:45:19.360Z</time><hdop>3.0</hdop><vdop>2.5</vdop><extensions><gom:speed>1.029</gom:speed></extensions></trkpt>
   <trkpt lat="59.3200366919" lon="34.6796734758"><ele>161.807</ele><time>2026-08-16T16:45:20.136Z</time><hdop>3.0</hdop><vdop>2.5</vdop><extensions><gom:speed>1.05</gom:speed></extensions></trkpt>
   <trkpt lat="59.3200383683" lon="34.6796836179"><ele>161.83</ele><time>2026-08-16T16:45:20.676Z</time><hdop>3.0</hdop><vdop>2.5</vdop><extensions><gom:speed>1.024</gom:speed></extensions></trkpt>
   <trkpt lat="59.3200396674" lon="34.6796908263"><ele>161.929</ele><time>2026-08-16T16:45:21.136Z</time><hdop>3.0</hdop><vdop>2.5</vdop><extensions><gom:speed>0.989</gom:speed></extensions></trkpt>
   <trkpt lat="59.3200428945" lon="34.6797066681"><ele>161.989</ele><time>2026-08-16T16:45:22.059Z</time><hdop>3.0</hdop><vdop>2.5</vdop><extensions><gom:speed>0.978</gom:speed></extensions></trkpt>
   <trkpt lat="59.3200495581" lon="34.6797221746"><ele>161.989</ele><time>2026-08-16T16:45:23.136Z</time><hdop>3.0</hdop><vdop>2.5</vdop><extensions><gom:speed>1.094</gom:speed></extensions></trkpt>
   <trkpt lat="59.3200601612" lon="34.6797302213"><ele>162.024</ele><time>2026-08-16T16:45:24.136Z</time><hdop>3.0</hdop><vdop>2.5</vdop><extensions><gom:speed>1.061</gom:speed></extensions></trkpt>
   <trkpt lat="59.3200657771" lon="34.6797299698"><ele>162.045</ele><time>2026-08-16T16:45:24.611Z</time><hdop>3.0</hdop><vdop>2.5</vdop><extensions><gom:speed>1.025</gom:speed></extensions></trkpt>
   <trkpt lat="59.320072776" lon="34.6797258627"><ele>162.075</ele><time>2026-08-16T16:45:25.136Z</time><hdop>3.0</hdop><vdop>2.5</vdop><extensions><gom:speed>1.046</gom:speed></extensions></trkpt>
   <trkpt lat="59.320079691" lon="34.6797223423"><ele>162.093</ele><time>2026-08-16T16:45:25.779Z</time><hdop>3.0</hdop><vdop>2.5</vdop><extensions><gom:speed>1.0</gom:speed></extensions></trkpt>
   <trkpt lat="59.3200905875" lon="34.6797094342"><ele>162.091</ele><time>2026-08-16T16:45:26.761Z</time><hdop>3.0</hdop><vdop>2.5</vdop><extensions><gom:speed>0.999</gom:speed></extensions></trkpt>
   <trkpt lat="59.320096371" lon="34.6796984539"><ele>162.068</ele><time>2026-08-16T16:45:27.301Z</time><hdop>3.0</hdop><vdop>2.5</vdop><extensions><gom:speed>1.004</gom:speed></extensions></trkpt>
   <trkpt lat="59.320101484" lon="34.6796912454"><ele>162.055</ele><time>2026-08-16T16:45:27.860Z</time><hdop>3.0</hdop><vdop>2.5</vdop><extensions><gom:speed>1.016</gom:speed></extensions></trkpt>
   <trkpt lat="59.3201085667" lon="34.6796722185"><ele>162.001</ele><time>2026-08-16T16:45:28.792Z</time><hdop>3.0</hdop><vdop>2.5</vdop><extensions><gom:speed>1.041</gom:speed></extensions></trkpt>
   <trkpt lat="59.3201143921" lon="34.6796554547"><ele>161.992</ele><time>2026-08-16T16:45:29.637Z</time><hdop>3.0</hdop><vdop>2.5</vdop><extensions><gom:speed>1.002</gom:speed></extensions></trkpt>
   <trkpt lat="59.3201179963" lon="34.6796490844"><ele>161.986</ele><time>2026-08-16T16:45:30.118Z</time><hdop>3.0</hdop><vdop>2.5</vdop><extensions><gom:speed>0.998</gom:speed></extensions></trkpt>
   <trkpt lat="59.3201246599" lon="34.6796376851"><ele>161.922</ele><time>2026-08-16T16:45:30.952Z</time><hdop>3.0</hdop><vdop>2.5</vdop><extensions><gom:speed>1.012</gom:speed></extensions></trkpt>
   <trkpt lat="59.3201285994" lon="34.6796320692"><ele>161.96</ele><time>2026-08-16T16:45:31.433Z</time><hdop>3.0</hdop><vdop>2.5</vdop><extensions><gom:speed>1.003</gom:speed></extensions></trkpt>
   <trkpt lat="59.3201347601" lon="34.6796241902"><ele>162.053</ele><time>2026-08-16T16:45:32.136Z</time><hdop>3.0</hdop><vdop>2.5</vdop><extensions><gom:speed>1.06</gom:speed></extensions></trkpt>
   <trkpt lat="59.320140376" lon="34.6796174847"><ele>162.108</ele><time>2026-08-16T16:45:32.797Z</time><hdop>3.0</hdop><vdop>2.5</vdop><extensions><gom:speed>0.977</gom:speed></extensions></trkpt>
   <trkpt lat="59.3201496799" lon="34.6796038222"><ele>162.144</ele><time>2026-08-16T16:45:34.073Z</time><hdop>3.0</hdop><vdop>2.5</vdop><extensions><gom:speed>0.932</gom:speed></extensions></trkpt>
   <trkpt lat="59.3201568884" lon="34.6795979548"><ele>162.243</ele><time>2026-08-16T16:45:34.956Z</time><hdop>3.0</hdop><vdop>2.5</vdop><extensions><gom:speed>0.921</gom:speed></extensions></trkpt>
   <trkpt lat="59.3201612889" lon="34.6795971166"><ele>162.427</ele><time>2026-08-16T16:45:35.457Z</time><hdop>3.0</hdop><vdop>2.5</vdop><extensions><gom:speed>0.944</gom:speed></extensions></trkpt>
   <trkpt lat="59.3201673657" lon="34.6795947697"><ele>162.424</ele><time>2026-08-16T16:45:36.136Z</time><hdop>3.0</hdop><vdop>2.5</vdop><extensions><gom:speed>0.944</gom:speed></extensions></trkpt>
   <trkpt lat="59.3201744904" lon="34.6795913331"><ele>162.421</ele><time>2026-08-16T16:45:36.920Z</time><hdop>3.0</hdop><vdop>2.5</vdop><extensions><gom:speed>0.917</gom:speed></extensions></trkpt>
   <trkpt lat="59.3201825789" lon="34.6795885671"><ele>162.524</ele><time>2026-08-16T16:45:37.735Z</time><hdop>3.0</hdop><vdop>2.5</vdop><extensions><gom:speed>0.98</gom:speed></extensions></trkpt>
   <trkpt lat="59.320194565" lon="34.6795829512"><ele>162.467</ele><time>2026-08-16T16:45:39.080Z</time><hdop>3.0</hdop><vdop>2.5</vdop><extensions><gom:speed>0.925</gom:speed></extensions></trkpt>
   <trkpt lat="59.3202047909" lon="34.6795779221"><ele>162.484</ele><time>2026-08-16T16:45:40.136Z</time><hdop>3.0</hdop><vdop>2.5</vdop><extensions><gom:speed>0.953</gom:speed></extensions></trkpt>
   <trkpt lat="59.3202106583" lon="34.679575659"><ele>162.495</ele><time>2026-08-16T16:45:40.778Z</time><hdop>3.0</hdop><vdop>2.5</vdop><extensions><gom:speed>0.959</gom:speed></extensions></trkpt>
   <trkpt lat="59.3202184954" lon="34.6795730606"><ele>162.596</ele><time>2026-08-16T16:45:41.612Z</time><hdop>3.0</hdop><vdop>2.5</vdop><extensions><gom:speed>0.998</gom:speed></extensions></trkpt>
   <trkpt lat="59.3202229797" lon="34.6795729768"><ele>162.532</ele><time>2026-08-16T16:45:42.135Z</time><hdop>3.0</hdop><vdop>2.5</vdop><extensions><gom:speed>0.951</gom:speed></extensions></trkpt>
   <trkpt lat="59.3202312778" lon="34.6795735635"><ele>162.494</ele><time>2026-08-16T16:45:42.977Z</time><hdop>3.0</hdop><vdop>2.5</vdop><extensions><gom:speed>1.023</gom:speed></extensions></trkpt>
   <trkpt lat="59.3202376899" lon="34.6795754913"><ele>162.565</ele><time>2026-08-16T16:45:43.595Z</time><hdop>3.0</hdop><vdop>2.5</vdop><extensions><gom:speed>1.065</gom:speed></extensions></trkpt>
   <trkpt lat="59.3202430962" lon="34.6795749884"><ele>162.572</ele><time>2026-08-16T16:45:44.136Z</time><hdop>3.0</hdop><vdop>2.5</vdop><extensions><gom:speed>1.074</gom:speed></extensions></trkpt>
   <trkpt lat="59.3202498856" lon="34.6795718871"><ele>162.576</ele><time>2026-08-16T16:45:44.812Z</time><hdop>3.0</hdop><vdop>2.5</vdop><extensions><gom:speed>1.041</gom:speed></extensions></trkpt>
   <trkpt lat="59.3202567587" lon="34.6795676962"><ele>162.664</ele><time>2026-08-16T16:45:45.637Z</time><hdop>3.0</hdop><vdop>2.5</vdop><extensions><gom:speed>1.015</gom:speed></extensions></trkpt>
   <trkpt lat="59.3202615783" lon="34.6795660198"><ele>162.717</ele><time>2026-08-16T16:45:46.118Z</time><hdop>3.0</hdop><vdop>2.5</vdop><extensions><gom:speed>1.021</gom:speed></extensions></trkpt>
   <trkpt lat="59.3202628775" lon="34.6795674447"><ele>162.742</ele><time>2026-08-16T16:45:46.647Z</time><hdop>3.0</hdop><vdop>2.5</vdop><extensions><gom:speed>1.034</gom:speed></extensions></trkpt>
   <trkpt lat="59.3202717623" lon="34.6795722224"><ele>162.835</ele><time>2026-08-16T16:45:47.136Z</time><hdop>3.0</hdop><vdop>2.5</vdop><extensions><gom:speed>1.006</gom:speed></extensions></trkpt>
   <trkpt lat="59.320277462" lon="34.6795778383"><ele>162.891</ele><time>2026-08-16T16:45:47.895Z</time><hdop>3.0</hdop><vdop>2.5</vdop><extensions><gom:speed>1.008</gom:speed></extensions></trkpt>
   <trkpt lat="59.3202851734" lon="34.6795867231"><ele>162.867</ele><time>2026-08-16T16:45:48.779Z</time><hdop>3.0</hdop><vdop>2.5</vdop><extensions><gom:speed>1.035</gom:speed></extensions></trkpt>
   <trkpt lat="59.3202920885" lon="34.6795955241"><ele>162.842</ele><time>2026-08-16T16:45:49.554Z</time><hdop>3.0</hdop><vdop>2.5</vdop><extensions><gom:speed>1.078</gom:speed></extensions></trkpt>
   <trkpt lat="59.3202967823" lon="34.6796001341"><ele>162.827</ele><time>2026-08-16T16:45:50.055Z</time><hdop>3.0</hdop><vdop>2.5</vdop><extensions><gom:speed>1.073</gom:speed></extensions></trkpt>
   <trkpt lat="59.320307595" lon="34.6796138805"><ele>162.805</ele><time>2026-08-16T16:45:51.136Z</time><hdop>3.0</hdop><vdop>2.5</vdop><extensions><gom:speed>1.121</gom:speed></extensions></trkpt>
   <trkpt lat="59.3203145939" lon="34.6796191611"><ele>162.792</ele><time>2026-08-16T16:45:51.733Z</time><hdop>3.0</hdop><vdop>2.5</vdop><extensions><gom:speed>1.156</gom:speed></extensions></trkpt>
   <trkpt lat="59.3203222633" lon="34.6796252798"><ele>162.869</ele><time>2026-08-16T16:45:52.538Z</time><hdop>3.0</hdop><vdop>2.5</vdop><extensions><gom:speed>1.092</gom:speed></extensions></trkpt>
   <trkpt lat="59.3203239816" lon="34.6796266209"><ele>162.916</ele><time>2026-08-16T16:45:53.009Z</time><hdop>3.0</hdop><vdop>2.5</vdop><extensions><gom:speed>1.093</gom:speed></extensions></trkpt>
   <trkpt lat="59.3203333693" lon="34.6796344999"><ele>162.915</ele><time>2026-08-16T16:45:53.716Z</time><hdop>3.0</hdop><vdop>2.5</vdop><extensions><gom:speed>1.07</gom:speed></extensions></trkpt>
   <trkpt lat="59.3203420865" lon="34.6796392776"><ele>163.03</ele><time>2026-08-16T16:45:54.618Z</time><hdop>3.0</hdop><vdop>2.5</vdop><extensions><gom:speed>1.083</gom:speed></extensions></trkpt>
   <trkpt lat="59.3203468642" lon="34.679640954"><ele>163.098</ele><time>2026-08-16T16:45:55.081Z</time><hdop>3.0</hdop><vdop>2.5</vdop><extensions><gom:speed>1.082</gom:speed></extensions></trkpt>
   <trkpt lat="59.3203556652" lon="34.6796425466"><ele>163.105</ele><time>2026-08-16T16:45:55.974Z</time><hdop>3.0</hdop><vdop>2.5</vdop><extensions><gom:speed>1.039</gom:speed></extensions></trkpt>
   <trkpt lat="59.3203606943" lon="34.67964372"><ele>163.11</ele><time>2026-08-16T16:45:56.533Z</time><hdop>3.0</hdop><vdop>2.5</vdop><extensions><gom:speed>0.99</gom:speed></extensions></trkpt>
   <trkpt lat="59.3203659749" lon="34.6796461508"><ele>163.088</ele><time>2026-08-16T16:45:57.136Z</time><hdop>3.0</hdop><vdop>2.5</vdop><extensions><gom:speed>0.972</gom:speed></extensions></trkpt>
   <trkpt lat="59.3203737701" lon="34.6796510961"><ele>163.074</ele><time>2026-08-16T16:45:57.956Z</time><hdop>3.0</hdop><vdop>2.5</vdop><extensions><gom:speed>0.983</gom:speed></extensions></trkpt>
   <trkpt lat="59.3203819844" lon="34.6796574664"><ele>163.106</ele><time>2026-08-16T16:45:58.860Z</time><hdop>3.0</hdop><vdop>2.5</vdop><extensions><gom:speed>0.959</gom:speed></extensions></trkpt>
   <trkpt lat="59.320387265" lon="34.6796611544"><ele>163.171</ele><time>2026-08-16T16:45:59.478Z</time><hdop>3.0</hdop><vdop>2.5</vdop><extensions><gom:speed>0.968</gom:speed></extensions></trkpt>
   <trkpt lat="59.3203948925" lon="34.6796674408"><ele>163.202</ele><time>2026-08-16T16:46:00.136Z</time><hdop>3.0</hdop><vdop>2.5</vdop><extensions><gom:speed>0.944</gom:speed></extensions></trkpt>
   <trkpt lat="59.3203981614" lon="34.6796709612"><ele>163.221</ele><time>2026-08-16T16:46:00.774Z</time><hdop>3.0</hdop><vdop>2.5</vdop><extensions><gom:speed>0.979</gom:speed></extensions></trkpt>
   <trkpt lat="59.3204056632" lon="34.6796773315"><ele>163.274</ele><time>2026-08-16T16:46:01.677Z</time><hdop>3.0</hdop><vdop>2.5</vdop><extensions><gom:speed>0.995</gom:speed></extensions></trkpt>
   <trkpt lat="59.3204095608" lon="34.6796781697"><ele>163.289</ele><time>2026-08-16T16:46:02.135Z</time><hdop>3.0</hdop><vdop>2.5</vdop><extensions><gom:speed>0.978</gom:speed></extensions></trkpt>
   <trkpt lat="59.320418278" lon="34.6796786726"><ele>163.311</ele><time>2026-08-16T16:46:03.136Z</time><hdop>3.0</hdop><vdop>2.5</vdop><extensions><gom:speed>0.919</gom:speed></extensions></trkpt>
   <trkpt lat="59.3204238939" lon="34.6796786726"><ele>163.324</ele><time>2026-08-16T16:46:03.797Z</time><hdop>3.0</hdop><vdop>2.5</vdop><extensions><gom:speed>0.919</gom:speed></extensions></trkpt>
   <trkpt lat="59.3204313957" lon="34.6796819415"><ele>163.369</ele><time>2026-08-16T16:46:04.798Z</time><hdop>3.0</hdop><vdop>2.5</vdop><extensions><gom:speed>0.882</gom:speed></extensions></trkpt>
   <trkpt lat="59.3204346646" lon="34.6796847914"><ele>163.33</ele><time>2026-08-16T16:46:05.378Z</time><hdop>3.0</hdop><vdop>2.5</vdop><extensions><gom:speed>0.844</gom:speed></extensions></trkpt>
   <trkpt lat="59.3204360896" lon="34.6796861325"><ele>163.306</ele><time>2026-08-16T16:46:05.966Z</time><hdop>3.0</hdop><vdop>2.5</vdop><extensions><gom:speed>0.843</gom:speed></extensions></trkpt>
   <trkpt lat="59.3204454773" lon="34.6796963584"><ele>163.275</ele><time>2026-08-16T16:46:07.115Z</time><hdop>3.0</hdop><vdop>2.5</vdop><extensions><gom:speed>0.823</gom:speed></extensions></trkpt>
   <trkpt lat="59.3204508836" lon="34.6796981186"><ele>163.227</ele><time>2026-08-16T16:46:07.979Z</time><hdop>3.0</hdop><vdop>2.5</vdop><extensions><gom:speed>0.806</gom:speed></extensions></trkpt>
   <trkpt lat="59.3204559966" lon="34.679694682"><ele>163.237</ele><time>2026-08-16T16:46:08.852Z</time><hdop>3.0</hdop><vdop>2.5</vdop><extensions><gom:speed>0.793</gom:speed></extensions></trkpt>
   <trkpt lat="59.3204602713" lon="34.6796919998"><ele>163.282</ele><time>2026-08-16T16:46:09.794Z</time><hdop>3.0</hdop><vdop>2.5</vdop><extensions><gom:speed>0.7</gom:speed></extensions></trkpt>
   <trkpt lat="59.3204640851" lon="34.679688647"><ele>163.306</ele><time>2026-08-16T16:46:10.600Z</time><hdop>3.0</hdop><vdop>2.5</vdop><extensions><gom:speed>0.72</gom:speed></extensions></trkpt>
   <trkpt lat="59.320467396" lon="34.6796846237"><ele>163.327</ele><time>2026-08-16T16:46:11.136Z</time><hdop>3.0</hdop><vdop>2.5</vdop><extensions><gom:speed>0.808</gom:speed></extensions></trkpt>
   <trkpt lat="59.3204734728" lon="34.6796729729"><ele>163.281</ele><time>2026-08-16T16:46:12.136Z</time><hdop>3.0</hdop><vdop>2.5</vdop><extensions><gom:speed>0.878</gom:speed></extensions></trkpt>
   <trkpt lat="59.3204802622" lon="34.6796535269"><ele>163.253</ele><time>2026-08-16T16:46:13.073Z</time><hdop>3.0</hdop><vdop>2.5</vdop><extensions><gom:speed>0.89</gom:speed></extensions></trkpt>
   <trkpt lat="59.3204796755" lon="34.679635841"><ele>163.341</ele><time>2026-08-16T16:46:14.136Z</time><hdop>3.0</hdop><vdop>2.5</vdop><extensions><gom:speed>0.966</gom:speed></extensions></trkpt>
   <trkpt lat="59.3204776638" lon="34.6796174847"><ele>163.386</ele><time>2026-08-16T16:46:15.136Z</time><hdop>3.0</hdop><vdop>2.5</vdop><extensions><gom:speed>1.008</gom:speed></extensions></trkpt>
   <trkpt lat="59.3204763646" lon="34.6796027325"><ele>163.413</ele><time>2026-08-16T16:46:15.880Z</time><hdop>3.0</hdop><vdop>2.5</vdop><extensions><gom:speed>1.055</gom:speed></extensions></trkpt>
   <trkpt lat="59.3204797593" lon="34.6795925904"><ele>163.443</ele><time>2026-08-16T16:46:16.558Z</time><hdop>3.0</hdop><vdop>2.5</vdop><extensions><gom:speed>1.039</gom:speed></extensions></trkpt>
   <trkpt lat="59.3204802622" lon="34.6795819454"><ele>163.462</ele><time>2026-08-16T16:46:17.116Z</time><hdop>3.0</hdop><vdop>2.5</vdop><extensions><gom:speed>1.038</gom:speed></extensions></trkpt>
   <trkpt lat="59.3204876802" lon="34.6795698755"><ele>163.371</ele><time>2026-08-16T16:46:17.932Z</time><hdop>3.0</hdop><vdop>2.5</vdop><extensions><gom:speed>1.044</gom:speed></extensions></trkpt>
   <trkpt lat="59.3205021809" lon="34.6795556262"><ele>163.38</ele><time>2026-08-16T16:46:19.031Z</time><hdop>3.0</hdop><vdop>2.5</vdop><extensions><gom:speed>1.055</gom:speed></extensions></trkpt>
   <trkpt lat="59.3205228842" lon="34.679549256"><ele>163.282</ele><time>2026-08-16T16:46:20.136Z</time><hdop>3.0</hdop><vdop>2.5</vdop><extensions><gom:speed>1.08</gom:speed></extensions></trkpt>
   <trkpt lat="59.3205353732" lon="34.679552022"><ele>163.291</ele><time>2026-08-16T16:46:21.136Z</time><hdop>3.0</hdop><vdop>2.5</vdop><extensions><gom:speed>1.052</gom:speed></extensions></trkpt>
   <trkpt lat="59.3205441742" lon="34.6795566321"><ele>163.296</ele><time>2026-08-16T16:46:21.937Z</time><hdop>3.0</hdop><vdop>2.5</vdop><extensions><gom:speed>1.035</gom:speed></extensions></trkpt>
   <trkpt lat="59.3205542744" lon="34.679563589"><ele>163.307</ele><time>2026-08-16T16:46:22.732Z</time><hdop>3.0</hdop><vdop>2.5</vdop><extensions><gom:speed>1.086</gom:speed></extensions></trkpt>
   <trkpt lat="59.3205645841" lon="34.6795658522"><ele>163.391</ele><time>2026-08-16T16:46:23.654Z</time><hdop>3.0</hdop><vdop>2.5</vdop><extensions><gom:speed>1.056</gom:speed></extensions></trkpt>
   <trkpt lat="59.3205695714" lon="34.6795634214"><ele>163.344</ele><time>2026-08-16T16:46:24.136Z</time><hdop>3.0</hdop><vdop>2.5</vdop><extensions><gom:speed>1.02</gom:speed></extensions></trkpt>
   <trkpt lat="59.3205755644" lon="34.6795605716"><ele>163.315</ele><time>2026-08-16T16:46:24.695Z</time><hdop>3.0</hdop><vdop>2.5</vdop><extensions><gom:speed>1.025</gom:speed></extensions></trkpt>
   <trkpt lat="59.3205847845" lon="34.6795583923"><ele>163.273</ele><time>2026-08-16T16:46:25.559Z</time><hdop>3.0</hdop><vdop>2.5</vdop><extensions><gom:speed>1.027</gom:speed></extensions></trkpt>
   <trkpt lat="59.3205899813" lon="34.679560823"><ele>163.247</ele><time>2026-08-16T16:46:26.078Z</time><hdop>3.0</hdop><vdop>2.5</vdop><extensions><gom:speed>1.033</gom:speed></extensions></trkpt>
   <trkpt lat="59.3205984889" lon="34.6795630861"><ele>163.148</ele><time>2026-08-16T16:46:26.933Z</time><hdop>3.0</hdop><vdop>2.5</vdop><extensions><gom:speed>1.041</gom:speed></extensions></trkpt>
   <trkpt lat="59.320603099" lon="34.6795611583"><ele>163.114</ele><time>2026-08-16T16:46:27.414Z</time><hdop>3.0</hdop><vdop>2.5</vdop><extensions><gom:speed>1.007</gom:speed></extensions></trkpt>
   <trkpt lat="59.3206100979" lon="34.6795611583"><ele>163.122</ele><time>2026-08-16T16:46:28.136Z</time><hdop>3.0</hdop><vdop>2.5</vdop><extensions><gom:speed>1.017</gom:speed></extensions></trkpt>
   <trkpt lat="59.3206158814" lon="34.6795620803"><ele>163.127</ele><time>2026-08-16T16:46:28.680Z</time><hdop>3.0</hdop><vdop>2.5</vdop><extensions><gom:speed>1.034</gom:speed></extensions></trkpt>
   <trkpt lat="59.3206204914" lon="34.6795622479"><ele>163.182</ele><time>2026-08-16T16:46:29.136Z</time><hdop>3.0</hdop><vdop>2.5</vdop><extensions><gom:speed>1.046</gom:speed></extensions></trkpt>
   <trkpt lat="59.3206296696" lon="34.6795669418"><ele>163.215</ele><time>2026-08-16T16:46:30.034Z</time><hdop>3.0</hdop><vdop>2.5</vdop><extensions><gom:speed>1.023</gom:speed></extensions></trkpt>
   <trkpt lat="59.3206376743" lon="34.6795711327"><ele>163.135</ele><time>2026-08-16T16:46:30.879Z</time><hdop>3.0</hdop><vdop>2.5</vdop><extensions><gom:speed>1.015</gom:speed></extensions></trkpt>
   <trkpt lat="59.3206451761" lon="34.679571468"><ele>163.142</ele><time>2026-08-16T16:46:31.997Z</time><hdop>3.0</hdop><vdop>2.5</vdop><extensions><gom:speed>1.072</gom:speed></extensions></trkpt>
   <trkpt lat="59.3206606827" lon="34.6795693725"><ele>163.201</ele><time>2026-08-16T16:46:32.812Z</time><hdop>3.0</hdop><vdop>2.5</vdop><extensions><gom:speed>1.082</gom:speed></extensions></trkpt>
   <trkpt lat="59.3206685616" lon="34.6795658522"><ele>163.286</ele><time>2026-08-16T16:46:33.558Z</time><hdop>3.0</hdop><vdop>2.5</vdop><extensions><gom:speed>1.067</gom:speed></extensions></trkpt>
   <trkpt lat="59.3206741775" lon="34.6795644272"><ele>163.337</ele><time>2026-08-16T16:46:34.098Z</time><hdop>3.0</hdop><vdop>2.5</vdop><extensions><gom:speed>1.075</gom:speed></extensions></trkpt>
   <trkpt lat="59.3206830623" lon="34.6795597334"><ele>163.355</ele><time>2026-08-16T16:46:34.854Z</time><hdop>3.0</hdop><vdop>2.5</vdop><extensions><gom:speed>1.089</gom:speed></extensions></trkpt>
   <trkpt lat="59.3206891811" lon="34.679555291"><ele>163.355</ele><time>2026-08-16T16:46:35.414Z</time><hdop>3.0</hdop><vdop>2.5</vdop><extensions><gom:speed>1.021</gom:speed></extensions></trkpt>
   <trkpt lat="59.3206966829" lon="34.679552022"><ele>163.388</ele><time>2026-08-16T16:46:36.136Z</time><hdop>3.0</hdop><vdop>2.5</vdop><extensions><gom:speed>1.051</gom:speed></extensions></trkpt>
   <trkpt lat="59.3207030951" lon="34.6795497589"><ele>163.408</ele><time>2026-08-16T16:46:36.739Z</time><hdop>3.0</hdop><vdop>2.5</vdop><extensions><gom:speed>1.031</gom:speed></extensions></trkpt>
   <trkpt lat="59.320717973" lon="34.6795440592"><ele>163.495</ele><time>2026-08-16T16:46:38.136Z</time><hdop>3.0</hdop><vdop>2.5</vdop><extensions><gom:speed>1.053</gom:speed></extensions></trkpt>
   <trkpt lat="59.3207286599" lon="34.6795433887"><ele>163.548</ele><time>2026-08-16T16:46:38.918Z</time><hdop>3.0</hdop><vdop>2.5</vdop><extensions><gom:speed>0.994</gom:speed></extensions></trkpt>
   <trkpt lat="59.3207330604" lon="34.679544143"><ele>163.524</ele><time>2026-08-16T16:46:39.595Z</time><hdop>3.0</hdop><vdop>2.5</vdop><extensions><gom:speed>0.988</gom:speed></extensions></trkpt>
   <trkpt lat="59.3207379638" lon="34.67954649"><ele>163.518</ele><time>2026-08-16T16:46:40.136Z</time><hdop>3.0</hdop><vdop>2.5</vdop><extensions><gom:speed>0.999</gom:speed></extensions></trkpt>
   <trkpt lat="59.3207461781" lon="34.6795510162"><ele>163.514</ele><time>2026-08-16T16:46:40.999Z</time><hdop>3.0</hdop><vdop>2.5</vdop><extensions><gom:speed>0.976</gom:speed></extensions></trkpt>
   <trkpt lat="59.3207598825" lon="34.6795543689"><ele>163.527</ele><time>2026-08-16T16:46:42.136Z</time><hdop>3.0</hdop><vdop>2.5</vdop><extensions><gom:speed>1.047</gom:speed></extensions></trkpt>
   <trkpt lat="59.3207696893" lon="34.6795513515"><ele>163.535</ele><time>2026-08-16T16:46:43.059Z</time><hdop>3.0</hdop><vdop>2.5</vdop><extensions><gom:speed>1.003</gom:speed></extensions></trkpt>
   <trkpt lat="59.3207765625" lon="34.6795528602"><ele>163.523</ele><time>2026-08-16T16:46:43.737Z</time><hdop>3.0</hdop><vdop>2.5</vdop><extensions><gom:speed>0.959</gom:speed></extensions></trkpt>
   <trkpt lat="59.3207833937" lon="34.6795628347"><ele>163.577</ele><time>2026-08-16T16:46:44.532Z</time><hdop>3.0</hdop><vdop>2.5</vdop><extensions><gom:speed>0.954</gom:speed></extensions></trkpt>
   <trkpt lat="59.320787878" lon="34.6795733959"><ele>163.618</ele><time>2026-08-16T16:46:45.136Z</time><hdop>3.0</hdop><vdop>2.5</vdop><extensions><gom:speed>1.036</gom:speed></extensions></trkpt>
   <trkpt lat="59.3207947931" lon="34.6795908302"><ele>163.611</ele><time>2026-08-16T16:46:46.135Z</time><hdop>3.0</hdop><vdop>2.5</vdop><extensions><gom:speed>1.025</gom:speed></extensions></trkpt>
   <trkpt lat="59.3208006604" lon="34.6796016429"><ele>163.465</ele><time>2026-08-16T16:46:47.136Z</time><hdop>3.0</hdop><vdop>2.5</vdop><extensions><gom:speed>1.252</gom:speed></extensions></trkpt>
   <trkpt lat="59.3208026721" lon="34.679617317"><ele>163.457</ele><time>2026-08-16T16:46:48.136Z</time><hdop>3.0</hdop><vdop>2.5</vdop><extensions><gom:speed>1.116</gom:speed></extensions></trkpt>
   <trkpt lat="59.3208046837" lon="34.6796247769"><ele>163.452</ele><time>2026-08-16T16:46:49.018Z</time><hdop>3.187</hdop><vdop>2.5</vdop><extensions><gom:speed>1.162</gom:speed></extensions></trkpt>
   <trkpt lat="59.3208067792" lon="34.6796364278"><ele>163.428</ele><time>2026-08-16T16:46:49.715Z</time><hdop>3.25</hdop><vdop>2.5</vdop><extensions><gom:speed>1.069</gom:speed></extensions></trkpt>
   <trkpt lat="59.3208100901" lon="34.6796477433"><ele>163.434</ele><time>2026-08-16T16:46:50.500Z</time><hdop>3.25</hdop><vdop>2.5</vdop><extensions><gom:speed>1.064</gom:speed></extensions></trkpt>
   <trkpt lat="59.3208126885" lon="34.6796589751"><ele>163.419</ele><time>2026-08-16T16:46:51.136Z</time><hdop>3.25</hdop><vdop>2.5</vdop><extensions><gom:speed>0.973</gom:speed></extensions></trkpt>
   <trkpt lat="59.3208123951" lon="34.6796644233"><ele>163.41</ele><time>2026-08-16T16:46:51.776Z</time><hdop>3.25</hdop><vdop>2.5</vdop><extensions><gom:speed>1.03</gom:speed></extensions></trkpt>
   <trkpt lat="59.3208160831" lon="34.6796790917"><ele>163.498</ele><time>2026-08-16T16:46:52.434Z</time><hdop>3.375</hdop><vdop>2.5</vdop><extensions><gom:speed>1.048</gom:speed></extensions></trkpt>
   <trkpt lat="59.3208173823" lon="34.6796853781"><ele>163.551</ele><time>2026-08-16T16:46:53.101Z</time><hdop>3.437</hdop><vdop>2.5</vdop><extensions><gom:speed>1.086</gom:speed></extensions></trkpt>
   <trkpt lat="59.3208217828" lon="34.6797001302"><ele>163.61</ele><time>2026-08-16T16:46:53.798Z</time><hdop>3.437</hdop><vdop>2.5</vdop><extensions><gom:speed>1.093</gom:speed></extensions></trkpt>
   <trkpt lat="59.3208268958" lon="34.67971505"><ele>163.674</ele><time>2026-08-16T16:46:54.377Z</time><hdop>3.375</hdop><vdop>2.5</vdop><extensions><gom:speed>1.084</gom:speed></extensions></trkpt>
   <trkpt lat="59.3208293685" lon="34.6797219232"><ele>163.713</ele><time>2026-08-16T16:46:55.074Z</time><hdop>3.437</hdop><vdop>2.5</vdop><extensions><gom:speed>1.049</gom:speed></extensions></trkpt>
   <trkpt lat="59.3208350681" lon="34.6797355857"><ele>163.746</ele><time>2026-08-16T16:46:55.594Z</time><hdop>3.562</hdop><vdop>2.5</vdop><extensions><gom:speed>1.039</gom:speed></extensions></trkpt>
   <trkpt lat="59.320840684" lon="34.6797481585"><ele>163.847</ele><time>2026-08-16T16:46:56.136Z</time><hdop>3.5</hdop><vdop>2.5</vdop><extensions><gom:speed>1.025</gom:speed></extensions></trkpt>
   <trkpt lat="59.3208477667" lon="34.6797624916"><ele>163.906</ele><time>2026-08-16T16:46:57.056Z</time><hdop>3.625</hdop><vdop>2.5</vdop><extensions><gom:speed>1.006</gom:speed></extensions></trkpt>
   <trkpt lat="59.320850868" lon="34.679780848"><ele>163.985</ele><time>2026-08-16T16:46:57.999Z</time><hdop>3.625</hdop><vdop>2.5</vdop><extensions><gom:speed>1.105</gom:speed></extensions></trkpt>
   <trkpt lat="59.3208528797" lon="34.6798094303"><ele>163.856</ele><time>2026-08-16T16:46:59.020Z</time><hdop>3.5</hdop><vdop>2.5</vdop><extensions><gom:speed>1.164</gom:speed></extensions></trkpt>
   <trkpt lat="59.3208588728" lon="34.6798158843"><ele>163.803</ele><time>2026-08-16T16:46:59.716Z</time><hdop>3.5</hdop><vdop>2.5</vdop><extensions><gom:speed>1.54</gom:speed></extensions></trkpt>
   <trkpt lat="59.3208630637" lon="34.6798259426"><ele>163.695</ele><time>2026-08-16T16:47:00.894Z</time><hdop>3.437</hdop><vdop>2.5</vdop><extensions><gom:speed>1.212</gom:speed></extensions></trkpt>
   <trkpt lat="59.3208689729" lon="34.6798422873"><ele>163.549</ele><time>2026-08-16T16:47:01.621Z</time><hdop>3.5</hdop><vdop>2.5</vdop><extensions><gom:speed>1.294</gom:speed></extensions></trkpt>
   <trkpt lat="59.3208721581" lon="34.6798515912"><ele>163.54</ele><time>2026-08-16T16:47:02.135Z</time><hdop>3.5</hdop><vdop>2.5</vdop><extensions><gom:speed>1.268</gom:speed></extensions></trkpt>
   <trkpt lat="59.3208808752" lon="34.6798711211"><ele>163.395</ele><time>2026-08-16T16:47:03.136Z</time><hdop>3.5</hdop><vdop>2.5</vdop><extensions><gom:speed>1.204</gom:speed></extensions></trkpt>
   <trkpt lat="59.3208859882" lon="34.679881347"><ele>163.308</ele><time>2026-08-16T16:47:03.878Z</time><hdop>3.625</hdop><vdop>2.5</vdop><extensions><gom:speed>1.163</gom:speed></extensions></trkpt>
   <trkpt lat="59.3208944958" lon="34.6798945904"><ele>163.261</ele><time>2026-08-16T16:47:04.458Z</time><hdop>3.75</hdop><vdop>2.5</vdop><extensions><gom:speed>1.134</gom:speed></extensions></trkpt>
   <trkpt lat="59.3209024586" lon="34.6799069956"><ele>163.213</ele><time>2026-08-16T16:47:05.135Z</time><hdop>3.75</hdop><vdop>2.5</vdop><extensions><gom:speed>1.114</gom:speed></extensions></trkpt>
   <trkpt lat="59.3209089965" lon="34.6799157966"><ele>163.184</ele><time>2026-08-16T16:47:05.715Z</time><hdop>3.812</hdop><vdop>2.5</vdop><extensions><gom:speed>1.109</gom:speed></extensions></trkpt>
   <trkpt lat="59.3209165822" lon="34.6799248491"><ele>163.089</ele><time>2026-08-16T16:47:06.373Z</time><hdop>3.687</hdop><vdop>2.5</vdop><extensions><gom:speed>1.15</gom:speed></extensions></trkpt>
   <trkpt lat="59.320921276" lon="34.6799314708"><ele>163.032</ele><time>2026-08-16T16:47:06.873Z</time><hdop>3.687</hdop><vdop>2.5</vdop><extensions><gom:speed>1.147</gom:speed></extensions></trkpt>
   <trkpt lat="59.320927772" lon="34.6799373381"><ele>162.967</ele><time>2026-08-16T16:47:07.560Z</time><hdop>3.562</hdop><vdop>2.5</vdop><extensions><gom:speed>1.137</gom:speed></extensions></trkpt>
   <trkpt lat="59.320932382" lon="34.6799451333"><ele>162.929</ele><time>2026-08-16T16:47:08.100Z</time><hdop>3.562</hdop><vdop>2.5</vdop><extensions><gom:speed>1.143</gom:speed></extensions></trkpt>
   <trkpt lat="59.3209379979" lon="34.6799562812"><ele>162.811</ele><time>2026-08-16T16:47:08.817Z</time><hdop>3.5</hdop><vdop>2.5</vdop><extensions><gom:speed>1.152</gom:speed></extensions></trkpt>
   <trkpt lat="59.3209494811" lon="34.6799698599"><ele>162.72</ele><time>2026-08-16T16:47:09.994Z</time><hdop>3.25</hdop><vdop>2.5</vdop><extensions><gom:speed>1.192</gom:speed></extensions></trkpt>
   <trkpt lat="59.3209539654" lon="34.6799743861"><ele>162.665</ele><time>2026-08-16T16:47:10.495Z</time><hdop>3.187</hdop><vdop>2.5</vdop><extensions><gom:speed>1.126</gom:speed></extensions></trkpt>
   <trkpt lat="59.3209605871" lon="34.679985534"><ele>162.578</ele><time>2026-08-16T16:47:11.136Z</time><hdop>3.125</hdop><vdop>2.5</vdop><extensions><gom:speed>1.101</gom:speed></extensions></trkpt>
   <trkpt lat="59.3209631855" lon="34.6799918205"><ele>162.526</ele><time>2026-08-16T16:47:11.732Z</time><hdop>3.062</hdop><vdop>2.5</vdop><extensions><gom:speed>1.119</gom:speed></extensions></trkpt>
   <trkpt lat="59.3209673765" lon="34.6800037228"><ele>162.497</ele><time>2026-08-16T16:47:12.478Z</time><hdop>3.062</hdop><vdop>2.5</vdop><extensions><gom:speed>1.136</gom:speed></extensions></trkpt>
   <trkpt lat="59.3209712741" lon="34.680012859"><ele>162.48</ele><time>2026-08-16T16:47:13.018Z</time><hdop>3.062</hdop><vdop>2.5</vdop><extensions><gom:speed>1.144</gom:speed></extensions></trkpt>
   <trkpt lat="59.3209756746" lon="34.6800244261"><ele>162.428</ele><time>2026-08-16T16:47:13.734Z</time><hdop>3.0</hdop><vdop>2.5</vdop><extensions><gom:speed>1.133</gom:speed></extensions></trkpt>
   <trkpt lat="59.320979195" lon="34.68003373"><ele>162.294</ele><time>2026-08-16T16:47:14.254Z</time><hdop>3.0</hdop><vdop>2.5</vdop><extensions><gom:speed>1.194</gom:speed></extensions></trkpt>
   <trkpt lat="59.3209844756" lon="34.6800445426"><ele>162.215</ele><time>2026-08-16T16:47:14.912Z</time><hdop>3.0</hdop><vdop>2.5</vdop><extensions><gom:speed>1.162</gom:speed></extensions></trkpt>
   <trkpt lat="59.3209883732" lon="34.6800538466"><ele>162.243</ele><time>2026-08-16T16:47:15.471Z</time><hdop>3.0</hdop><vdop>2.5</vdop><extensions><gom:speed>1.154</gom:speed></extensions></trkpt>
   <trkpt lat="59.3209935699" lon="34.6800645754"><ele>162.212</ele><time>2026-08-16T16:47:16.136Z</time><hdop>3.0</hdop><vdop>2.5</vdop><extensions><gom:speed>1.23</gom:speed></extensions></trkpt>
   <trkpt lat="59.3209986829" lon="34.6800721191"><ele>162.193</ele><time>2026-08-16T16:47:16.640Z</time><hdop>3.0</hdop><vdop>2.5</vdop><extensions><gom:speed>1.221</gom:speed></extensions></trkpt>
   <trkpt lat="59.3210033768" lon="34.6800780703"><ele>162.235</ele><time>2026-08-16T16:47:17.136Z</time><hdop>3.0</hdop><vdop>2.5</vdop><extensions><gom:speed>1.217</gom:speed></extensions></trkpt>
   <trkpt lat="59.3210138961" lon="34.6800867874"><ele>162.26</ele><time>2026-08-16T16:47:17.994Z</time><hdop>3.0</hdop><vdop>2.5</vdop><extensions><gom:speed>1.185</gom:speed></extensions></trkpt>
   <trkpt lat="59.321021775" lon="34.6800895535"><ele>162.222</ele><time>2026-08-16T16:47:18.779Z</time><hdop>3.0</hdop><vdop>2.5</vdop><extensions><gom:speed>1.169</gom:speed></extensions></trkpt>
   <trkpt lat="59.3210269718" lon="34.6800914813"><ele>162.126</ele><time>2026-08-16T16:47:19.260Z</time><hdop>3.0</hdop><vdop>2.5</vdop><extensions><gom:speed>1.213</gom:speed></extensions></trkpt>
   <trkpt lat="59.3210365691" lon="34.6800969295"><ele>162.095</ele><time>2026-08-16T16:47:20.136Z</time><hdop>3.0</hdop><vdop>2.5</vdop><extensions><gom:speed>1.2</gom:speed></extensions></trkpt>
   <trkpt lat="59.3210473818" lon="34.6801016234"><ele>162.029</ele><time>2026-08-16T16:47:21.136Z</time><hdop>3.0</hdop><vdop>2.5</vdop><extensions><gom:speed>1.207</gom:speed></extensions></trkpt>
   <trkpt lat="59.3210535844" lon="34.6801038865"><ele>161.99</ele><time>2026-08-16T16:47:21.675Z</time><hdop>3.0</hdop><vdop>2.5</vdop><extensions><gom:speed>1.229</gom:speed></extensions></trkpt>
   <trkpt lat="59.321058865" lon="34.680107826"><ele>161.899</ele><time>2026-08-16T16:47:22.136Z</time><hdop>3.0</hdop><vdop>2.5</vdop><extensions><gom:speed>1.256</gom:speed></extensions></trkpt>
   <trkpt lat="59.3210679593" lon="34.6801151183"><ele>161.845</ele><time>2026-08-16T16:47:22.892Z</time><hdop>3.0</hdop><vdop>2.5</vdop><extensions><gom:speed>1.246</gom:speed></extensions></trkpt>
   <trkpt lat="59.3210752935" lon="34.6801240869"><ele>161.953</ele><time>2026-08-16T16:47:23.618Z</time><hdop>3.0</hdop><vdop>2.5</vdop><extensions><gom:speed>1.194</gom:speed></extensions></trkpt>
   <trkpt lat="59.3210838849" lon="34.6801297866"><ele>161.928</ele><time>2026-08-16T16:47:24.136Z</time><hdop>3.0</hdop><vdop>2.5</vdop><extensions><gom:speed>1.186</gom:speed></extensions></trkpt>
   <trkpt lat="59.321089878" lon="34.6801303733"><ele>161.913</ele><time>2026-08-16T16:47:24.914Z</time><hdop>3.0</hdop><vdop>2.5</vdop><extensions><gom:speed>1.18</gom:speed></extensions></trkpt>
   <trkpt lat="59.3210939851" lon="34.6801301219"><ele>161.949</ele><time>2026-08-16T16:47:25.434Z</time><hdop>3.0</hdop><vdop>2.5</vdop><extensions><gom:speed>1.135</gom:speed></extensions></trkpt>
   <trkpt lat="59.3211005649" lon="34.6801311277"><ele>161.954</ele><time>2026-08-16T16:47:26.136Z</time><hdop>3.0</hdop><vdop>2.5</vdop><extensions><gom:speed>1.109</gom:speed></extensions></trkpt>
   <trkpt lat="59.3211062646" lon="34.6801328879"><ele>161.958</ele><time>2026-08-16T16:47:26.720Z</time><hdop>3.0</hdop><vdop>2.5</vdop><extensions><gom:speed>1.097</gom:speed></extensions></trkpt>
   <trkpt lat="59.3211141855" lon="34.6801383361"><ele>162.037</ele><time>2026-08-16T16:47:27.535Z</time><hdop>3.0</hdop><vdop>2.5</vdop><extensions><gom:speed>1.123</gom:speed></extensions></trkpt>
   <trkpt lat="59.321119969" lon="34.6801404316"><ele>162.085</ele><time>2026-08-16T16:47:28.055Z</time><hdop>3.0</hdop><vdop>2.5</vdop><extensions><gom:speed>1.112</gom:speed></extensions></trkpt>
   <trkpt lat="59.3211300692" lon="34.6801469695"><ele>162.106</ele><time>2026-08-16T16:47:29.136Z</time><hdop>3.0</hdop><vdop>2.5</vdop><extensions><gom:speed>1.051</gom:speed></extensions></trkpt>
   <trkpt lat="59.3211393731" lon="34.6801550999"><ele>162.118</ele><time>2026-08-16T16:47:30.077Z</time><hdop>3.0</hdop><vdop>2.5</vdop><extensions><gom:speed>1.063</gom:speed></extensions></trkpt>
   <trkpt lat="59.3211483837" lon="34.6801623922"><ele>162.114</ele><time>2026-08-16T16:47:30.578Z</time><hdop>3.0</hdop><vdop>2.5</vdop><extensions><gom:speed>1.114</gom:speed></extensions></trkpt>
   <trkpt lat="59.3211513593" lon="34.6801653259"><ele>162.112</ele><time>2026-08-16T16:47:31.136Z</time><hdop>3.0</hdop><vdop>2.5</vdop><extensions><gom:speed>1.068</gom:speed></extensions></trkpt>
   <trkpt lat="59.321156095" lon="34.6801673375"><ele>162.11</ele><time>2026-08-16T16:47:31.736Z</time><hdop>3.0</hdop><vdop>2.5</vdop><extensions><gom:speed>1.069</gom:speed></extensions></trkpt>
   <trkpt lat="59.3211626748" lon="34.6801759709"><ele>162.136</ele><time>2026-08-16T16:47:32.511Z</time><hdop>3.0</hdop><vdop>2.5</vdop><extensions><gom:speed>1.11</gom:speed></extensions></trkpt>
   <trkpt lat="59.3211679973" lon="34.6801809162"><ele>162.151</ele><time>2026-08-16T16:47:33.031Z</time><hdop>3.0</hdop><vdop>2.5</vdop><extensions><gom:speed>1.108</gom:speed></extensions></trkpt>
   <trkpt lat="59.3211740742" lon="34.6801885437"><ele>162.117</ele><time>2026-08-16T16:47:33.699Z</time><hdop>3.0</hdop><vdop>2.5</vdop><extensions><gom:speed>1.133</gom:speed></extensions></trkpt>
   <trkpt lat="59.321177888" lon="34.6801954169"><ele>162.1</ele><time>2026-08-16T16:47:34.199Z</time><hdop>3.0</hdop><vdop>2.5</vdop><extensions><gom:speed>1.132</gom:speed></extensions></trkpt>
   <trkpt lat="59.3211852641" lon="34.6802030444"><ele>162.09</ele><time>2026-08-16T16:47:34.896Z</time><hdop>3.0</hdop><vdop>2.5</vdop><extensions><gom:speed>1.18</gom:speed></extensions></trkpt>
   <trkpt lat="59.3211894969" lon="34.6802094985"><ele>162.06</ele><time>2026-08-16T16:47:35.377Z</time><hdop>3.0</hdop><vdop>2.5</vdop><extensions><gom:speed>1.201</gom:speed></extensions></trkpt>
   <trkpt lat="59.321196873" lon="34.6802160364"><ele>162.042</ele><time>2026-08-16T16:47:36.055Z</time><hdop>3.0</hdop><vdop>2.5</vdop><extensions><gom:speed>1.211</gom:speed></extensions></trkpt>
   <trkpt lat="59.3212026984" lon="34.680223161"><ele>162.049</ele><time>2026-08-16T16:47:36.634Z</time><hdop>3.0</hdop><vdop>2.5</vdop><extensions><gom:speed>1.227</gom:speed></extensions></trkpt>
   <trkpt lat="59.3212113737" lon="34.6802318782"><ele>162.053</ele><time>2026-08-16T16:47:37.115Z</time><hdop>3.0</hdop><vdop>2.5</vdop><extensions><gom:speed>1.221</gom:speed></extensions></trkpt>
   <trkpt lat="59.3212140978" lon="34.6802332193"><ele>162.006</ele><time>2026-08-16T16:47:37.753Z</time><hdop>3.0</hdop><vdop>2.5</vdop><extensions><gom:speed>1.146</gom:speed></extensions></trkpt>
   <trkpt lat="59.3212197975" lon="34.6802364882"><ele>161.97</ele><time>2026-08-16T16:47:38.459Z</time><hdop>3.0</hdop><vdop>2.5</vdop><extensions><gom:speed>1.153</gom:speed></extensions></trkpt>
   <trkpt lat="59.321224659" lon="34.6802397572"><ele>161.949</ele><time>2026-08-16T16:47:38.940Z</time><hdop>3.0</hdop><vdop>2.5</vdop><extensions><gom:speed>1.154</gom:speed></extensions></trkpt>
   <trkpt lat="59.3212373995" lon="34.6802479714"><ele>161.878</ele><time>2026-08-16T16:47:40.099Z</time><hdop>3.0</hdop><vdop>2.5</vdop><extensions><gom:speed>1.207</gom:speed></extensions></trkpt>
   <trkpt lat="59.3212456976" lon="34.6802496478"><ele>161.781</ele><time>2026-08-16T16:47:40.796Z</time><hdop>3.0</hdop><vdop>2.5</vdop><extensions><gom:speed>1.216</gom:speed></extensions></trkpt>
   <trkpt lat="59.3212509782" lon="34.6802494802"><ele>161.793</ele><time>2026-08-16T16:47:41.257Z</time><hdop>3.0</hdop><vdop>2.5</vdop><extensions><gom:speed>1.214</gom:speed></extensions></trkpt>
   <trkpt lat="59.3212589829" lon="34.6802526653"><ele>161.801</ele><time>2026-08-16T16:47:41.954Z</time><hdop>3.0</hdop><vdop>2.5</vdop><extensions><gom:speed>1.204</gom:speed></extensions></trkpt>
   <trkpt lat="59.3212720587" lon="34.6802605443"><ele>161.794</ele><time>2026-08-16T16:47:43.092Z</time><hdop>3.0</hdop><vdop>2.5</vdop><extensions><gom:speed>1.233</gom:speed></extensions></trkpt>
   <trkpt lat="59.32127977" lon="34.6802661602"><ele>161.817</ele><time>2026-08-16T16:47:43.593Z</time><hdop>3.0</hdop><vdop>2.5</vdop><extensions><gom:speed>1.184</gom:speed></extensions></trkpt>
   <trkpt lat="59.3212817817" lon="34.6802706864"><ele>161.753</ele><time>2026-08-16T16:47:44.136Z</time><hdop>3.0</hdop><vdop>2.5</vdop><extensions><gom:speed>1.155</gom:speed></extensions></trkpt>
   <trkpt lat="59.3212835838" lon="34.6802826725"><ele>161.715</ele><time>2026-08-16T16:47:44.781Z</time><hdop>3.0</hdop><vdop>2.5</vdop><extensions><gom:speed>1.159</gom:speed></extensions></trkpt>
   <trkpt lat="59.3212887806" lon="34.6802925632"><ele>161.746</ele><time>2026-08-16T16:47:45.458Z</time><hdop>3.0</hdop><vdop>2.5</vdop><extensions><gom:speed>1.213</gom:speed></extensions></trkpt>
   <trkpt lat="59.3212945641" lon="34.6802978438"><ele>161.765</ele><time>2026-08-16T16:47:45.998Z</time><hdop>3.0</hdop><vdop>2.5</vdop><extensions><gom:speed>1.199</gom:speed></extensions></trkpt>
   <trkpt lat="59.3213028622" lon="34.6802966703"><ele>161.694</ele><time>2026-08-16T16:47:46.636Z</time><hdop>3.0</hdop><vdop>2.5</vdop><extensions><gom:speed>1.185</gom:speed></extensions></trkpt>
   <trkpt lat="59.3213090648" lon="34.6802960836"><ele>161.652</ele><time>2026-08-16T16:47:47.136Z</time><hdop>3.0</hdop><vdop>2.5</vdop><extensions><gom:speed>1.177</gom:speed></extensions></trkpt>
   <trkpt lat="59.3213168599" lon="34.6802927308"><ele>161.585</ele><time>2026-08-16T16:47:47.774Z</time><hdop>3.0</hdop><vdop>2.5</vdop><extensions><gom:speed>1.149</gom:speed></extensions></trkpt>
   <trkpt lat="59.3213240684" lon="34.6802880369"><ele>161.513</ele><time>2026-08-16T16:47:48.471Z</time><hdop>3.0</hdop><vdop>2.5</vdop><extensions><gom:speed>1.055</gom:speed></extensions></trkpt>
   <trkpt lat="59.321330271" lon="34.6802857738"><ele>161.447</ele><time>2026-08-16T16:47:49.136Z</time><hdop>3.0</hdop><vdop>2.5</vdop><extensions><gom:speed>1.05</gom:speed></extensions></trkpt>
   <trkpt lat="59.3213357611" lon="34.6802841813"><ele>161.407</ele><time>2026-08-16T16:47:49.679Z</time><hdop>3.0</hdop><vdop>2.5</vdop><extensions><gom:speed>1.07</gom:speed></extensions></trkpt>
   <trkpt lat="59.3213435982" lon="34.680288456"><ele>161.405</ele><time>2026-08-16T16:47:50.136Z</time><hdop>3.0</hdop><vdop>2.5</vdop><extensions><gom:speed>1.032</gom:speed></extensions></trkpt>
   <trkpt lat="59.3213496751" lon="34.6802924793"><ele>161.404</ele><time>2026-08-16T16:47:50.955Z</time><hdop>3.0</hdop><vdop>2.5</vdop><extensions><gom:speed>1.066</gom:speed></extensions></trkpt>
   <trkpt lat="59.3213570931" lon="34.680305136"><ele>161.377</ele><time>2026-08-16T16:47:51.740Z</time><hdop>3.0</hdop><vdop>2.5</vdop><extensions><gom:speed>1.171</gom:speed></extensions></trkpt>
   <trkpt lat="59.3213627928" lon="34.6803132665"><ele>161.316</ele><time>2026-08-16T16:47:52.358Z</time><hdop>3.0</hdop><vdop>2.5</vdop><extensions><gom:speed>1.115</gom:speed></extensions></trkpt>
   <trkpt lat="59.3213705879" lon="34.6803177927"><ele>161.244</ele><time>2026-08-16T16:47:53.136Z</time><hdop>3.0</hdop><vdop>2.5</vdop><extensions><gom:speed>1.107</gom:speed></extensions></trkpt>
   <trkpt lat="59.3213772935" lon="34.680319972"><ele>161.202</ele><time>2026-08-16T16:47:53.772Z</time><hdop>3.0</hdop><vdop>2.5</vdop><extensions><gom:speed>1.065</gom:speed></extensions></trkpt>
   <trkpt lat="59.321383077" lon="34.6803213969"><ele>161.222</ele><time>2026-08-16T16:47:54.400Z</time><hdop>3.0</hdop><vdop>2.5</vdop><extensions><gom:speed>1.037</gom:speed></extensions></trkpt>
   <trkpt lat="59.3213886929" lon="34.6803238277"><ele>161.234</ele><time>2026-08-16T16:47:54.979Z</time><hdop>3.0</hdop><vdop>2.5</vdop><extensions><gom:speed>1.04</gom:speed></extensions></trkpt>
   <trkpt lat="59.3213961947" lon="34.6803292759"><ele>161.248</ele><time>2026-08-16T16:47:55.812Z</time><hdop>3.0</hdop><vdop>2.5</vdop><extensions><gom:speed>1.019</gom:speed></extensions></trkpt>
   <trkpt lat="59.3213999665" lon="34.6803364843"><ele>161.226</ele><time>2026-08-16T16:47:56.432Z</time><hdop>3.0</hdop><vdop>2.5</vdop><extensions><gom:speed>0.977</gom:speed></extensions></trkpt>
   <trkpt lat="59.3214038641" lon="34.6803465426"><ele>161.201</ele><time>2026-08-16T16:47:57.135Z</time><hdop>3.0</hdop><vdop>2.5</vdop><extensions><gom:speed>0.999</gom:speed></extensions></trkpt>
   <trkpt lat="59.3214081808" lon="34.6803564333"><ele>161.187</ele><time>2026-08-16T16:47:57.796Z</time><hdop>3.0</hdop><vdop>2.5</vdop><extensions><gom:speed>1.02</gom:speed></extensions></trkpt>
   <trkpt lat="59.3214153892" lon="34.6803672459"><ele>161.22</ele><time>2026-08-16T16:47:58.679Z</time><hdop>3.0</hdop><vdop>2.5</vdop><extensions><gom:speed>1.078</gom:speed></extensions></trkpt>
   <trkpt lat="59.3214192868" lon="34.6803705987"><ele>161.197</ele><time>2026-08-16T16:47:59.136Z</time><hdop>3.0</hdop><vdop>2.5</vdop><extensions><gom:speed>1.022</gom:speed></extensions></trkpt>
   <trkpt lat="59.3214280878" lon="34.6803678326"><ele>161.14</ele><time>2026-08-16T16:48:00.136Z</time><hdop>3.0</hdop><vdop>2.5</vdop><extensions><gom:speed>0.97</gom:speed></extensions></trkpt>
   <trkpt lat="59.3214338713" lon="34.6803543378"><ele>161.027</ele><time>2026-08-16T16:48:01.136Z</time><hdop>3.0</hdop><vdop>2.5</vdop><extensions><gom:speed>1.135</gom:speed></extensions></trkpt>
   <trkpt lat="59.3214383975" lon="34.6803387474"><ele>160.959</ele><time>2026-08-16T16:48:01.997Z</time><hdop>3.0</hdop><vdop>2.5</vdop><extensions><gom:speed>1.112</gom:speed></extensions></trkpt>
   <trkpt lat="59.3214518924" lon="34.6803471293"><ele>160.844</ele><time>2026-08-16T16:48:03.057Z</time><hdop>3.0</hdop><vdop>2.5</vdop><extensions><gom:speed>1.15</gom:speed></extensions></trkpt>
   <trkpt lat="59.3214632918" lon="34.6803657372"><ele>160.743</ele><time>2026-08-16T16:48:03.852Z</time><hdop>3.0</hdop><vdop>2.5</vdop><extensions><gom:speed>1.168</gom:speed></extensions></trkpt>
   <trkpt lat="59.3214704583" lon="34.6803794835"><ele>160.748</ele><time>2026-08-16T16:48:04.411Z</time><hdop>3.0</hdop><vdop>2.5</vdop><extensions><gom:speed>1.127</gom:speed></extensions></trkpt>
   <trkpt lat="59.3214780859" lon="34.6803910505"><ele>160.817</ele><time>2026-08-16T16:48:05.136Z</time><hdop>3.0</hdop><vdop>2.5</vdop><extensions><gom:speed>1.121</gom:speed></extensions></trkpt>
   <trkpt lat="59.3214826959" lon="34.6803981751"><ele>160.859</ele><time>2026-08-16T16:48:05.599Z</time><hdop>3.0</hdop><vdop>2.5</vdop><extensions><gom:speed>1.14</gom:speed></extensions></trkpt>
   <trkpt lat="59.321488186" lon="34.6804061379"><ele>160.782</ele><time>2026-08-16T16:48:06.136Z</time><hdop>3.0</hdop><vdop>2.5</vdop><extensions><gom:speed>1.111</gom:speed></extensions></trkpt>
   <trkpt lat="59.3214941791" lon="34.6804147713"><ele>160.736</ele><time>2026-08-16T16:48:06.718Z</time><hdop>3.0</hdop><vdop>2.5</vdop><extensions><gom:speed>1.143</gom:speed></extensions></trkpt>
   <trkpt lat="59.3215080931" lon="34.680427428"><ele>160.814</ele><time>2026-08-16T16:48:07.956Z</time><hdop>3.0</hdop><vdop>2.5</vdop><extensions><gom:speed>1.14</gom:speed></extensions></trkpt>
   <trkpt lat="59.3215215879" lon="34.6804346364"><ele>160.936</ele><time>2026-08-16T16:48:09.136Z</time><hdop>3.0</hdop><vdop>2.5</vdop><extensions><gom:speed>1.092</gom:speed></extensions></trkpt>
   <trkpt lat="59.3215311852" lon="34.6804435212"><ele>161.035</ele><time>2026-08-16T16:48:10.136Z</time><hdop>3.0</hdop><vdop>2.5</vdop><extensions><gom:speed>1.112</gom:speed></extensions></trkpt>
   <trkpt lat="59.3215394833" lon="34.6804513164"><ele>161.095</ele><time>2026-08-16T16:48:11.038Z</time><hdop>3.0</hdop><vdop>2.5</vdop><extensions><gom:speed>1.044</gom:speed></extensions></trkpt>
   <trkpt lat="59.3215478652" lon="34.6804494724"><ele>161.03</ele><time>2026-08-16T16:48:11.755Z</time><hdop>3.0</hdop><vdop>2.5</vdop><extensions><gom:speed>1.086</gom:speed></extensions></trkpt>
   <trkpt lat="59.3215560795" lon="34.6804501429"><ele>161.033</ele><time>2026-08-16T16:48:12.520Z</time><hdop>3.0</hdop><vdop>2.5</vdop><extensions><gom:speed>1.042</gom:speed></extensions></trkpt>
   <trkpt lat="59.321561863" lon="34.6804546692"><ele>160.956</ele><time>2026-08-16T16:48:13.136Z</time><hdop>3.0</hdop><vdop>2.5</vdop><extensions><gom:speed>1.04</gom:speed></extensions></trkpt>
   <trkpt lat="59.3215678979" lon="34.6804614585"><ele>160.911</ele><time>2026-08-16T16:48:13.855Z</time><hdop>3.0</hdop><vdop>2.5</vdop><extensions><gom:speed>0.965</gom:speed></extensions></trkpt>
   <trkpt lat="59.3215726756" lon="34.6804656495"><ele>160.93</ele><time>2026-08-16T16:48:14.493Z</time><hdop>3.0</hdop><vdop>2.5</vdop><extensions><gom:speed>0.916</gom:speed></extensions></trkpt>
   <trkpt lat="59.321577579" lon="34.6804700919"><ele>160.872</ele><time>2026-08-16T16:48:15.135Z</time><hdop>3.0</hdop><vdop>2.5</vdop><extensions><gom:speed>0.894</gom:speed></extensions></trkpt>
   <trkpt lat="59.3215818957" lon="34.6804763783"><ele>160.837</ele><time>2026-08-16T16:48:15.720Z</time><hdop>3.0</hdop><vdop>2.5</vdop><extensions><gom:speed>0.905</gom:speed></extensions></trkpt>
   <trkpt lat="59.3215860867" lon="34.680486688"><ele>160.837</ele><time>2026-08-16T16:48:16.574Z</time><hdop>3.0</hdop><vdop>2.5</vdop><extensions><gom:speed>0.867</gom:speed></extensions></trkpt>
   <trkpt lat="59.3215875954" lon="34.6804942317"><ele>160.813</ele><time>2026-08-16T16:48:17.135Z</time><hdop>3.0</hdop><vdop>2.5</vdop><extensions><gom:speed>0.859</gom:speed></extensions></trkpt>
   <trkpt lat="59.3215878888" lon="34.6805059664"><ele>160.798</ele><time>2026-08-16T16:48:17.879Z</time><hdop>3.0</hdop><vdop>2.5</vdop><extensions><gom:speed>0.856</gom:speed></extensions></trkpt>
   <trkpt lat="59.3215881821" lon="34.6805168629"><ele>160.862</ele><time>2026-08-16T16:48:18.537Z</time><hdop>3.0</hdop><vdop>2.5</vdop><extensions><gom:speed>0.936</gom:speed></extensions></trkpt>
   <trkpt lat="59.3215910739" lon="34.6805263344"><ele>160.849</ele><time>2026-08-16T16:48:19.136Z</time><hdop>3.0</hdop><vdop>2.5</vdop><extensions><gom:speed>0.987</gom:speed></extensions></trkpt>
   <trkpt lat="59.3215952649" lon="34.6805352193"><ele>160.842</ele><time>2026-08-16T16:48:19.695Z</time><hdop>3.0</hdop><vdop>2.5</vdop><extensions><gom:speed>1.042</gom:speed></extensions></trkpt>
   <trkpt lat="59.321605365" lon="34.6805527374"><ele>160.869</ele><time>2026-08-16T16:48:20.961Z</time><hdop>3.0</hdop><vdop>2.5</vdop><extensions><gom:speed>1.02</gom:speed></extensions></trkpt>
   <trkpt lat="59.3216112743" lon="34.6805663999"><ele>160.885</ele><time>2026-08-16T16:48:21.834Z</time><hdop>3.0</hdop><vdop>2.5</vdop><extensions><gom:speed>1.038</gom:speed></extensions></trkpt>
   <trkpt lat="59.3216174769" lon="34.6805764582"><ele>160.929</ele><time>2026-08-16T16:48:22.600Z</time><hdop>3.0</hdop><vdop>2.5</vdop><extensions><gom:speed>1.017</gom:speed></extensions></trkpt>
   <trkpt lat="59.3216222965" lon="34.6805805653"><ele>160.867</ele><time>2026-08-16T16:48:23.136Z</time><hdop>3.0</hdop><vdop>2.5</vdop><extensions><gom:speed>1.025</gom:speed></extensions></trkpt>
   <trkpt lat="59.3216287925" lon="34.6805847563"><ele>160.83</ele><time>2026-08-16T16:48:23.758Z</time><hdop>3.0</hdop><vdop>2.5</vdop><extensions><gom:speed>1.018</gom:speed></extensions></trkpt>
   <trkpt lat="59.321644299" lon="34.680583499"><ele>160.937</ele><time>2026-08-16T16:48:25.015Z</time><hdop>3.0</hdop><vdop>2.5</vdop><extensions><gom:speed>1.083</gom:speed></extensions></trkpt>
   <trkpt lat="59.321654483" lon="34.6805787213"><ele>160.917</ele><time>2026-08-16T16:48:25.819Z</time><hdop>3.0</hdop><vdop>2.5</vdop><extensions><gom:speed>1.087</gom:speed></extensions></trkpt>
   <trkpt lat="59.3216607694" lon="34.6805767935"><ele>160.995</ele><time>2026-08-16T16:48:26.320Z</time><hdop>3.0</hdop><vdop>2.5</vdop><extensions><gom:speed>1.076</gom:speed></extensions></trkpt>
   <trkpt lat="59.3216696962" lon="34.680576542"><ele>161.041</ele><time>2026-08-16T16:48:27.095Z</time><hdop>3.0</hdop><vdop>2.5</vdop><extensions><gom:speed>1.102</gom:speed></extensions></trkpt>
   <trkpt lat="59.3216764855" lon="34.6805698365"><ele>161.052</ele><time>2026-08-16T16:48:27.596Z</time><hdop>3.0</hdop><vdop>2.5</vdop><extensions><gom:speed>1.165</gom:speed></extensions></trkpt>
   <trkpt lat="59.3216823947" lon="34.6805611193"><ele>161.002</ele><time>2026-08-16T16:48:28.136Z</time><hdop>3.0</hdop><vdop>2.5</vdop><extensions><gom:speed>1.193</gom:speed></extensions></trkpt>
   <trkpt lat="59.3216866695" lon="34.6805500552"><ele>160.973</ele><time>2026-08-16T16:48:28.715Z</time><hdop>3.0</hdop><vdop>2.5</vdop><extensions><gom:speed>1.147</gom:speed></extensions></trkpt>
   <trkpt lat="59.3216890584" lon="34.6805312798"><ele>161.008</ele><time>2026-08-16T16:48:29.559Z</time><hdop>3.0</hdop><vdop>2.5</vdop><extensions><gom:speed>1.059</gom:speed></extensions></trkpt>
   <trkpt lat="59.3216918663" lon="34.68052097"><ele>161.029</ele><time>2026-08-16T16:48:30.138Z</time><hdop>3.0</hdop><vdop>2.5</vdop><extensions><gom:speed>1.044</gom:speed></extensions></trkpt>
   <trkpt lat="59.3216974822" lon="34.6805194613"><ele>160.909</ele><time>2026-08-16T16:48:30.678Z</time><hdop>3.0</hdop><vdop>2.5</vdop><extensions><gom:speed>1.048</gom:speed></extensions></trkpt>
   <trkpt lat="59.3217031819" lon="34.6805238199"><ele>160.943</ele><time>2026-08-16T16:48:31.136Z</time><hdop>3.0</hdop><vdop>2.5</vdop><extensions><gom:speed>1.078</gom:speed></extensions></trkpt>
   <trkpt lat="59.321715168" lon="34.6805290166"><ele>160.964</ele><time>2026-08-16T16:48:32.052Z</time><hdop>3.0</hdop><vdop>2.5</vdop><extensions><gom:speed>1.148</gom:speed></extensions></trkpt>
   <trkpt lat="59.3217206581" lon="34.6805356383"><ele>160.967</ele><time>2026-08-16T16:48:32.512Z</time><hdop>3.0</hdop><vdop>2.5</vdop><extensions><gom:speed>1.122</gom:speed></extensions></trkpt>
   <trkpt lat="59.3217281599" lon="34.6805402484"><ele>161.088</ele><time>2026-08-16T16:48:33.136Z</time><hdop>3.0</hdop><vdop>2.5</vdop><extensions><gom:speed>1.176</gom:speed></extensions></trkpt>
   <trkpt lat="59.3217380925" lon="34.6805431821"><ele>161.161</ele><time>2026-08-16T16:48:33.956Z</time><hdop>3.0</hdop><vdop>2.5</vdop><extensions><gom:speed>1.184</gom:speed></extensions></trkpt>
   <trkpt lat="59.3217516712" lon="34.68055433"><ele>161.234</ele><time>2026-08-16T16:48:35.136Z</time><hdop>3.0</hdop><vdop>2.5</vdop><extensions><gom:speed>1.186</gom:speed></extensions></trkpt>
   <trkpt lat="59.3217613942" lon="34.6805581857"><ele>161.278</ele><time>2026-08-16T16:48:35.938Z</time><hdop>3.0</hdop><vdop>2.5</vdop><extensions><gom:speed>1.161</gom:speed></extensions></trkpt>
   <trkpt lat="59.3217730869" lon="34.6805489656"><ele>161.28</ele><time>2026-08-16T16:48:37.097Z</time><hdop>3.0</hdop><vdop>2.5</vdop><extensions><gom:speed>1.186</gom:speed></extensions></trkpt>
   <trkpt lat="59.3217803792" lon="34.6805373985"><ele>161.176</ele><time>2026-08-16T16:48:38.136Z</time><hdop>3.0</hdop><vdop>2.5</vdop><extensions><gom:speed>1.195</gom:speed></extensions></trkpt>
   <trkpt lat="59.3217851988" lon="34.6805231493"><ele>161.113</ele><time>2026-08-16T16:48:38.912Z</time><hdop>3.0</hdop><vdop>2.5</vdop><extensions><gom:speed>1.19</gom:speed></extensions></trkpt>
   <trkpt lat="59.3217900603" lon="34.6805168629"><ele>161.045</ele><time>2026-08-16T16:48:39.491Z</time><hdop>3.0</hdop><vdop>2.5</vdop><extensions><gom:speed>1.223</gom:speed></extensions></trkpt>
   <trkpt lat="59.3217955923" lon="34.6805093192"><ele>161.004</ele><time>2026-08-16T16:48:40.061Z</time><hdop>3.0</hdop><vdop>2.5</vdop><extensions><gom:speed>1.215</gom:speed></extensions></trkpt>
   <trkpt lat="59.3218048963" lon="34.6805125881"><ele>161.001</ele><time>2026-08-16T16:48:40.718Z</time><hdop>3.0</hdop><vdop>2.5</vdop><extensions><gom:speed>1.239</gom:speed></extensions></trkpt>
   <trkpt lat="59.3218135715" lon="34.6805204671"><ele>161.056</ele><time>2026-08-16T16:48:41.317Z</time><hdop>3.0</hdop><vdop>2.5</vdop><extensions><gom:speed>1.203</gom:speed></extensions></trkpt>
   <trkpt lat="59.3218245937" lon="34.6805270888"><ele>161.239</ele><time>2026-08-16T16:48:42.135Z</time><hdop>3.0</hdop><vdop>2.5</vdop><extensions><gom:speed>1.25</gom:speed></extensions></trkpt>
   <trkpt lat="59.3218362865" lon="34.6805345487"><ele>161.349</ele><time>2026-08-16T16:48:43.074Z</time><hdop>3.0</hdop><vdop>2.5</vdop><extensions><gom:speed>1.248</gom:speed></extensions></trkpt>
   <trkpt lat="59.3218424891" lon="34.6805388235"><ele>161.394</ele><time>2026-08-16T16:48:43.614Z</time><hdop>3.0</hdop><vdop>2.5</vdop><extensions><gom:speed>1.224</gom:speed></extensions></trkpt>
   <trkpt lat="59.3218484822" lon="34.6805422601"><ele>161.471</ele><time>2026-08-16T16:48:44.136Z</time><hdop>3.0</hdop><vdop>2.5</vdop><extensions><gom:speed>1.226</gom:speed></extensions></trkpt>
   <trkpt lat="59.3218557744" lon="34.680547373"><ele>161.517</ele><time>2026-08-16T16:48:44.772Z</time><hdop>3.0</hdop><vdop>2.5</vdop><extensions><gom:speed>1.22</gom:speed></extensions></trkpt>
   <trkpt lat="59.3218639887" lon="34.680550642"><ele>161.722</ele><time>2026-08-16T16:48:45.478Z</time><hdop>3.0</hdop><vdop>2.5</vdop><extensions><gom:speed>1.199</gom:speed></extensions></trkpt>
   <trkpt lat="59.3218715743" lon="34.6805555873"><ele>161.881</ele><time>2026-08-16T16:48:46.136Z</time><hdop>3.0</hdop><vdop>2.5</vdop><extensions><gom:speed>1.219</gom:speed></extensions></trkpt>
   <trkpt lat="59.3218824708" lon="34.6805646397"><ele>161.976</ele><time>2026-08-16T16:48:47.117Z</time><hdop>3.0</hdop><vdop>2.5</vdop><extensions><gom:speed>1.205</gom:speed></extensions></trkpt>
   <trkpt lat="59.3218896792" lon="34.6805654779"><ele>161.996</ele><time>2026-08-16T16:48:47.736Z</time><hdop>3.0</hdop><vdop>2.5</vdop><extensions><gom:speed>1.208</gom:speed></extensions></trkpt>
   <trkpt lat="59.321897181" lon="34.6805660647"><ele>162.032</ele><time>2026-08-16T16:48:48.433Z</time><hdop>3.0</hdop><vdop>2.5</vdop><extensions><gom:speed>1.152</gom:speed></extensions></trkpt>
   <trkpt lat="59.3219051857" lon="34.6805672381"><ele>162.017</ele><time>2026-08-16T16:48:49.136Z</time><hdop>3.0</hdop><vdop>2.5</vdop><extensions><gom:speed>1.203</gom:speed></extensions></trkpt>
   <trkpt lat="59.3219158727" lon="34.6805713453"><ele>162.071</ele><time>2026-08-16T16:48:50.136Z</time><hdop>3.0</hdop><vdop>2.5</vdop><extensions><gom:speed>1.183</gom:speed></extensions></trkpt>
   <trkpt lat="59.3219227877" lon="34.6805760391"><ele>162.103</ele><time>2026-08-16T16:48:50.778Z</time><hdop>3.0</hdop><vdop>2.5</vdop><extensions><gom:speed>1.183</gom:speed></extensions></trkpt>
   <trkpt lat="59.3219305829" lon="34.6805760391"><ele>162.2</ele><time>2026-08-16T16:48:51.456Z</time><hdop>3.0</hdop><vdop>2.5</vdop><extensions><gom:speed>1.161</gom:speed></extensions></trkpt>
   <trkpt lat="59.3219358635" lon="34.680578889"><ele>162.258</ele><time>2026-08-16T16:48:51.936Z</time><hdop>3.0</hdop><vdop>2.5</vdop><extensions><gom:speed>1.161</gom:speed></extensions></trkpt>
   <trkpt lat="59.3219446645" lon="34.6805789728"><ele>162.32</ele><time>2026-08-16T16:48:52.731Z</time><hdop>3.0</hdop><vdop>2.5</vdop><extensions><gom:speed>1.141</gom:speed></extensions></trkpt>
   <trkpt lat="59.3219596681" lon="34.6805824932"><ele>162.397</ele><time>2026-08-16T16:48:54.136Z</time><hdop>3.0</hdop><vdop>2.5</vdop><extensions><gom:speed>1.096</gom:speed></extensions></trkpt>
   <trkpt lat="59.3219696845" lon="34.6805873547"><ele>162.443</ele><time>2026-08-16T16:48:55.097Z</time><hdop>3.0</hdop><vdop>2.5</vdop><extensions><gom:speed>1.077</gom:speed></extensions></trkpt>
   <trkpt lat="59.321975468" lon="34.6805860974"><ele>162.478</ele><time>2026-08-16T16:48:55.696Z</time><hdop>3.0</hdop><vdop>2.5</vdop><extensions><gom:speed>1.036</gom:speed></extensions></trkpt>
   <trkpt lat="59.3219827602" lon="34.6805866841"><ele>162.563</ele><time>2026-08-16T16:48:56.520Z</time><hdop>3.0</hdop><vdop>2.5</vdop><extensions><gom:speed>0.982</gom:speed></extensions></trkpt>
   <trkpt lat="59.3219882923" lon="34.6805877738"><ele>162.653</ele><time>2026-08-16T16:48:57.135Z</time><hdop>3.0</hdop><vdop>2.5</vdop><extensions><gom:speed>0.985</gom:speed></extensions></trkpt>
   <trkpt lat="59.3219936986" lon="34.6805899531"><ele>162.706</ele><time>2026-08-16T16:48:57.717Z</time><hdop>3.0</hdop><vdop>2.5</vdop><extensions><gom:speed>0.95</gom:speed></extensions></trkpt>
   <trkpt lat="59.3219998593" lon="34.6805900369"><ele>162.742</ele><time>2026-08-16T16:48:58.453Z</time><hdop>3.0</hdop><vdop>2.5</vdop><extensions><gom:speed>0.881</gom:speed></extensions></trkpt>
   <trkpt lat="59.3220053914" lon="34.6805901207"><ele>162.751</ele><time>2026-08-16T16:48:59.136Z</time><hdop>3.0</hdop><vdop>2.5</vdop><extensions><gom:speed>0.853</gom:speed></extensions></trkpt>
   <trkpt lat="59.3220112587" lon="34.6805925515"><ele>162.756</ele><time>2026-08-16T16:48:59.877Z</time><hdop>3.0</hdop><vdop>2.5</vdop><extensions><gom:speed>0.844</gom:speed></extensions></trkpt>
   <trkpt lat="59.3220174613" lon="34.680595569"><ele>162.812</ele><time>2026-08-16T16:49:00.632Z</time><hdop>3.0</hdop><vdop>2.5</vdop><extensions><gom:speed>0.869</gom:speed></extensions></trkpt>
   <trkpt lat="59.3220214846" lon="34.6805967424"><ele>162.86</ele><time>2026-08-16T16:49:01.136Z</time><hdop>3.0</hdop><vdop>2.5</vdop><extensions><gom:speed>0.873</gom:speed></extensions></trkpt>
   <trkpt lat="59.322029196" lon="34.6806002628"><ele>162.888</ele><time>2026-08-16T16:49:02.075Z</time><hdop>3.0</hdop><vdop>2.5</vdop><extensions><gom:speed>0.844</gom:speed></extensions></trkpt>
   <trkpt lat="59.322034267" lon="34.6806013525"><ele>162.933</ele><time>2026-08-16T16:49:02.675Z</time><hdop>3.0</hdop><vdop>2.5</vdop><extensions><gom:speed>0.852</gom:speed></extensions></trkpt>
   <trkpt lat="59.3220377874" lon="34.6806021907"><ele>162.926</ele><time>2026-08-16T16:49:03.136Z</time><hdop>3.0</hdop><vdop>2.5</vdop><extensions><gom:speed>0.868</gom:speed></extensions></trkpt>
   <trkpt lat="59.3220455826" lon="34.6806050405"><ele>162.921</ele><time>2026-08-16T16:49:04.000Z</time><hdop>3.0</hdop><vdop>2.5</vdop><extensions><gom:speed>0.91</gom:speed></extensions></trkpt>
   <trkpt lat="59.322051869" lon="34.6806077227"><ele>162.922</ele><time>2026-08-16T16:49:04.815Z</time><hdop>3.0</hdop><vdop>2.5</vdop><extensions><gom:speed>0.89</gom:speed></extensions></trkpt>
   <trkpt lat="59.3220571915" lon="34.6806073874"><ele>163.001</ele><time>2026-08-16T16:49:05.492Z</time><hdop>3.0</hdop><vdop>2.5</vdop><extensions><gom:speed>0.861</gom:speed></extensions></trkpt>
   <trkpt lat="59.3220621788" lon="34.6806063816"><ele>163.028</ele><time>2026-08-16T16:49:06.136Z</time><hdop>3.0</hdop><vdop>2.5</vdop><extensions><gom:speed>0.869</gom:speed></extensions></trkpt>
   <trkpt lat="59.322068088" lon="34.6806063816"><ele>163.044</ele><time>2026-08-16T16:49:06.915Z</time><hdop>3.0</hdop><vdop>2.5</vdop><extensions><gom:speed>0.793</gom:speed></extensions></trkpt>
   <trkpt lat="59.3220738715" lon="34.6806100696"><ele>163.211</ele><time>2026-08-16T16:49:07.739Z</time><hdop>3.0</hdop><vdop>2.5</vdop><extensions><gom:speed>0.806</gom:speed></extensions></trkpt>
   <trkpt lat="59.3220783978" lon="34.68061359"><ele>163.199</ele><time>2026-08-16T16:49:08.358Z</time><hdop>3.0</hdop><vdop>2.5</vdop><extensions><gom:speed>0.822</gom:speed></extensions></trkpt>
   <trkpt lat="59.3220834688" lon="34.6806180325"><ele>163.22</ele><time>2026-08-16T16:49:09.136Z</time><hdop>3.0</hdop><vdop>2.5</vdop><extensions><gom:speed>0.789</gom:speed></extensions></trkpt>
   <trkpt lat="59.322087073" lon="34.6806231454"><ele>163.232</ele><time>2026-08-16T16:49:09.751Z</time><hdop>3.0</hdop><vdop>2.5</vdop><extensions><gom:speed>0.759</gom:speed></extensions></trkpt>
   <trkpt lat="59.3220911802" lon="34.6806339581"><ele>163.316</ele><time>2026-08-16T16:49:10.517Z</time><hdop>3.0</hdop><vdop>2.5</vdop><extensions><gom:speed>0.827</gom:speed></extensions></trkpt>
   <trkpt lat="59.3220942815" lon="34.6806455251"><ele>163.295</ele><time>2026-08-16T16:49:11.136Z</time><hdop>3.0</hdop><vdop>2.5</vdop><extensions><gom:speed>0.92</gom:speed></extensions></trkpt>
   <trkpt lat="59.3220983886" lon="34.6806587685"><ele>163.282</ele><time>2026-08-16T16:49:11.901Z</time><hdop>3.0</hdop><vdop>2.5</vdop><extensions><gom:speed>0.928</gom:speed></extensions></trkpt>
   <trkpt lat="59.3221039626" lon="34.6806647197"><ele>163.3</ele><time>2026-08-16T16:49:12.598Z</time><hdop>3.0</hdop><vdop>2.5</vdop><extensions><gom:speed>0.877</gom:speed></extensions></trkpt>
   <trkpt lat="59.3221089917" lon="34.6806664799"><ele>163.285</ele><time>2026-08-16T16:49:13.136Z</time><hdop>3.0</hdop><vdop>2.5</vdop><extensions><gom:speed>0.866</gom:speed></extensions></trkpt>
   <trkpt lat="59.322114398" lon="34.6806691621"><ele>163.276</ele><time>2026-08-16T16:49:13.717Z</time><hdop>3.0</hdop><vdop>2.5</vdop><extensions><gom:speed>0.889</gom:speed></extensions></trkpt>
   <trkpt lat="59.3221286892" lon="34.6806779631"><ele>163.299</ele><time>2026-08-16T16:49:15.091Z</time><hdop>3.0</hdop><vdop>2.5</vdop><extensions><gom:speed>0.993</gom:speed></extensions></trkpt>
   <trkpt lat="59.3221362748" lon="34.680679388"><ele>163.306</ele><time>2026-08-16T16:49:15.817Z</time><hdop>3.0</hdop><vdop>2.5</vdop><extensions><gom:speed>0.968</gom:speed></extensions></trkpt>
   <trkpt lat="59.322142184" lon="34.6806800585"><ele>163.299</ele><time>2026-08-16T16:49:16.396Z</time><hdop>3.0</hdop><vdop>2.5</vdop><extensions><gom:speed>0.952</gom:speed></extensions></trkpt>
   <trkpt lat="59.3221484705" lon="34.6806825731"><ele>163.295</ele><time>2026-08-16T16:49:17.093Z</time><hdop>3.0</hdop><vdop>2.5</vdop><extensions><gom:speed>0.938</gom:speed></extensions></trkpt>
   <trkpt lat="59.3221542959" lon="34.6806820702"><ele>163.25</ele><time>2026-08-16T16:49:17.829Z</time><hdop>3.0</hdop><vdop>2.5</vdop><extensions><gom:speed>0.871</gom:speed></extensions></trkpt>
   <trkpt lat="59.3221592831" lon="34.6806807291"><ele>163.252</ele><time>2026-08-16T16:49:18.477Z</time><hdop>3.0</hdop><vdop>2.5</vdop><extensions><gom:speed>0.811</gom:speed></extensions></trkpt>
   <trkpt lat="59.3221645637" lon="34.6806801424"><ele>163.253</ele><time>2026-08-16T16:49:19.134Z</time><hdop>3.0</hdop><vdop>2.5</vdop><extensions><gom:speed>0.803</gom:speed></extensions></trkpt>
   <trkpt lat="59.3221696767" lon="34.6806762867"><ele>163.237</ele><time>2026-08-16T16:49:19.791Z</time><hdop>3.0</hdop><vdop>2.5</vdop><extensions><gom:speed>0.809</gom:speed></extensions></trkpt>
   <trkpt lat="59.3221751668" lon="34.6806748618"><ele>163.207</ele><time>2026-08-16T16:49:20.351Z</time><hdop>3.0</hdop><vdop>2.5</vdop><extensions><gom:speed>0.901</gom:speed></extensions></trkpt>
   <trkpt lat="59.3221813694" lon="34.680673353"><ele>163.189</ele><time>2026-08-16T16:49:21.087Z</time><hdop>3.0</hdop><vdop>2.5</vdop><extensions><gom:speed>0.868</gom:speed></extensions></trkpt>
   <trkpt lat="59.3221862728" lon="34.6806736883"><ele>163.214</ele><time>2026-08-16T16:49:21.608Z</time><hdop>3.0</hdop><vdop>2.5</vdop><extensions><gom:speed>0.908</gom:speed></extensions></trkpt>
   <trkpt lat="59.3221914696" lon="34.6806728501"><ele>163.235</ele><time>2026-08-16T16:49:22.136Z</time><hdop>3.0</hdop><vdop>2.5</vdop><extensions><gom:speed>0.945</gom:speed></extensions></trkpt>
   <trkpt lat="59.3221999773" lon="34.6806685753"><ele>163.248</ele><time>2026-08-16T16:49:23.011Z</time><hdop>3.0</hdop><vdop>2.5</vdop><extensions><gom:speed>0.942</gom:speed></extensions></trkpt>
   <trkpt lat="59.322205677" lon="34.6806688268"><ele>163.321</ele><time>2026-08-16T16:49:23.531Z</time><hdop>3.0</hdop><vdop>2.5</vdop><extensions><gom:speed>0.99</gom:speed></extensions></trkpt>
   <trkpt lat="59.3222115862" lon="34.680669665"><ele>163.41</ele><time>2026-08-16T16:49:24.136Z</time><hdop>3.0</hdop><vdop>2.5</vdop><extensions><gom:speed>0.977</gom:speed></extensions></trkpt>
   <trkpt lat="59.3222187946" lon="34.6806685753"><ele>163.463</ele><time>2026-08-16T16:49:24.896Z</time><hdop>3.0</hdop><vdop>2.5</vdop><extensions><gom:speed>0.971</gom:speed></extensions></trkpt>
   <trkpt lat="59.3222239914" lon="34.6806662284"><ele>163.493</ele><time>2026-08-16T16:49:25.553Z</time><hdop>3.0</hdop><vdop>2.5</vdop><extensions><gom:speed>0.913</gom:speed></extensions></trkpt>
   <trkpt lat="59.3222285596" lon="34.6806634624"><ele>163.49</ele><time>2026-08-16T16:49:26.136Z</time><hdop>3.0</hdop><vdop>2.5</vdop><extensions><gom:speed>0.927</gom:speed></extensions></trkpt>
   <trkpt lat="59.3222349717" lon="34.6806550805"><ele>163.489</ele><time>2026-08-16T16:49:26.976Z</time><hdop>3.0</hdop><vdop>2.5</vdop><extensions><gom:speed>0.922</gom:speed></extensions></trkpt>
   <trkpt lat="59.3222388693" lon="34.680649297"><ele>163.452</ele><time>2026-08-16T16:49:27.536Z</time><hdop>3.0</hdop><vdop>2.5</vdop><extensions><gom:speed>0.933</gom:speed></extensions></trkpt>
   <trkpt lat="59.3222426831" lon="34.680641418"><ele>163.389</ele><time>2026-08-16T16:49:28.136Z</time><hdop>3.0</hdop><vdop>2.5</vdop><extensions><gom:speed>0.993</gom:speed></extensions></trkpt>
   <trkpt lat="59.3222447785" lon="34.6806291804"><ele>163.351</ele><time>2026-08-16T16:49:28.831Z</time><hdop>3.0</hdop><vdop>2.5</vdop><extensions><gom:speed>1.002</gom:speed></extensions></trkpt>
   <trkpt lat="59.3222482989" lon="34.6806213852"><ele>163.382</ele><time>2026-08-16T16:49:29.430Z</time><hdop>3.0</hdop><vdop>2.5</vdop><extensions><gom:speed>1.016</gom:speed></extensions></trkpt>
   <trkpt lat="59.3222539986" lon="34.6806141768"><ele>163.412</ele><time>2026-08-16T16:49:30.136Z</time><hdop>3.0</hdop><vdop>2.5</vdop><extensions><gom:speed>1.015</gom:speed></extensions></trkpt>
   <trkpt lat="59.3222594888" lon="34.6806093991"><ele>163.43</ele><time>2026-08-16T16:49:30.696Z</time><hdop>3.0</hdop><vdop>2.5</vdop><extensions><gom:speed>0.976</gom:speed></extensions></trkpt>
   <trkpt lat="59.3222687927" lon="34.6806056272"><ele>163.475</ele><time>2026-08-16T16:49:31.511Z</time><hdop>3.0</hdop><vdop>2.5</vdop><extensions><gom:speed>0.986</gom:speed></extensions></trkpt>
   <trkpt lat="59.3222744924" lon="34.6806005981"><ele>163.502</ele><time>2026-08-16T16:49:32.110Z</time><hdop>3.0</hdop><vdop>2.5</vdop><extensions><gom:speed>0.994</gom:speed></extensions></trkpt>
   <trkpt lat="59.322282078" lon="34.6805986703"><ele>163.456</ele><time>2026-08-16T16:49:32.669Z</time><hdop>3.0</hdop><vdop>2.5</vdop><extensions><gom:speed>1.04</gom:speed></extensions></trkpt>
   <trkpt lat="59.3222880711" lon="34.6805965748"><ele>163.461</ele><time>2026-08-16T16:49:33.136Z</time><hdop>3.0</hdop><vdop>2.5</vdop><extensions><gom:speed>1.089</gom:speed></extensions></trkpt>
   <trkpt lat="59.3222993866" lon="34.6805919647"><ele>163.437</ele><time>2026-08-16T16:49:34.136Z</time><hdop>3.0</hdop><vdop>2.5</vdop><extensions><gom:speed>1.041</gom:speed></extensions></trkpt>
   <trkpt lat="59.322304793" lon="34.6805885282"><ele>163.423</ele><time>2026-08-16T16:49:34.652Z</time><hdop>3.0</hdop><vdop>2.5</vdop><extensions><gom:speed>1.037</gom:speed></extensions></trkpt>
   <trkpt lat="59.3223101993" lon="34.680586265"><ele>163.4</ele><time>2026-08-16T16:49:35.136Z</time><hdop>3.0</hdop><vdop>2.5</vdop><extensions><gom:speed>1.045</gom:speed></extensions></trkpt>
   <trkpt lat="59.3223194613" lon="34.6805791404"><ele>163.387</ele><time>2026-08-16T16:49:36.035Z</time><hdop>3.0</hdop><vdop>2.5</vdop><extensions><gom:speed>1.039</gom:speed></extensions></trkpt>
   <trkpt lat="59.3223276756" lon="34.6805797272"><ele>163.309</ele><time>2026-08-16T16:49:36.811Z</time><hdop>3.0</hdop><vdop>2.5</vdop><extensions><gom:speed>1.026</gom:speed></extensions></trkpt>
   <trkpt lat="59.3223335848" lon="34.6805855945"><ele>163.284</ele><time>2026-08-16T16:49:37.410Z</time><hdop>3.0</hdop><vdop>2.5</vdop><extensions><gom:speed>0.994</gom:speed></extensions></trkpt>
   <trkpt lat="59.3223405837" lon="34.6805926353"><ele>163.129</ele><time>2026-08-16T16:49:38.136Z</time><hdop>3.0</hdop><vdop>2.5</vdop><extensions><gom:speed>0.993</gom:speed></extensions></trkpt>
   <trkpt lat="59.3223471635" lon="34.6805980835"><ele>163.036</ele><time>2026-08-16T16:49:38.793Z</time><hdop>3.0</hdop><vdop>2.5</vdop><extensions><gom:speed>1.012</gom:speed></extensions></trkpt>
   <trkpt lat="59.3223552939" lon="34.6806105726"><ele>163.118</ele><time>2026-08-16T16:49:39.569Z</time><hdop>3.0</hdop><vdop>2.5</vdop><extensions><gom:speed>1.062</gom:speed></extensions></trkpt>
   <trkpt lat="59.3223607841" lon="34.6806174457"><ele>163.071</ele><time>2026-08-16T16:49:40.136Z</time><hdop>3.0</hdop><vdop>2.5</vdop><extensions><gom:speed>1.01</gom:speed></extensions></trkpt>
   <trkpt lat="59.3223689983" lon="34.6806191221"><ele>163.044</ele><time>2026-08-16T16:49:40.992Z</time><hdop>3.0</hdop><vdop>2.5</vdop><extensions><gom:speed>0.967</gom:speed></extensions></trkpt>
   <trkpt lat="59.3223759972" lon="34.6806209661"><ele>163.092</ele><time>2026-08-16T16:49:41.689Z</time><hdop>3.0</hdop><vdop>2.5</vdop><extensions><gom:speed>0.997</gom:speed></extensions></trkpt>
   <trkpt lat="59.3223817807" lon="34.6806222234"><ele>163.169</ele><time>2026-08-16T16:49:42.395Z</time><hdop>3.0</hdop><vdop>2.5</vdop><extensions><gom:speed>0.979</gom:speed></extensions></trkpt>
   <trkpt lat="59.3223882767" lon="34.6806220558"><ele>163.235</ele><time>2026-08-16T16:49:43.136Z</time><hdop>3.0</hdop><vdop>2.5</vdop><extensions><gom:speed>0.949</gom:speed></extensions></trkpt>
   <trkpt lat="59.3223966586" lon="34.680621972"><ele>163.275</ele><time>2026-08-16T16:49:44.054Z</time><hdop>3.0</hdop><vdop>2.5</vdop><extensions><gom:speed>0.937</gom:speed></extensions></trkpt>
   <trkpt lat="59.3224031965" lon="34.6806216367"><ele>163.441</ele><time>2026-08-16T16:49:44.830Z</time><hdop>3.0</hdop><vdop>2.5</vdop><extensions><gom:speed>0.929</gom:speed></extensions></trkpt>
   <trkpt lat="59.3224091896" lon="34.6806200441"><ele>163.542</ele><time>2026-08-16T16:49:45.576Z</time><hdop>3.0</hdop><vdop>2.5</vdop><extensions><gom:speed>0.911</gom:speed></extensions></trkpt>
   <trkpt lat="59.3224136739" lon="34.6806199603"><ele>163.633</ele><time>2026-08-16T16:49:46.136Z</time><hdop>3.0</hdop><vdop>2.5</vdop><extensions><gom:speed>0.934</gom:speed></extensions></trkpt>
   <trkpt lat="59.3224218881" lon="34.6806220558"><ele>163.686</ele><time>2026-08-16T16:49:47.116Z</time><hdop>3.0</hdop><vdop>2.5</vdop><extensions><gom:speed>0.906</gom:speed></extensions></trkpt>
   <trkpt lat="59.3224270849" lon="34.6806244865"><ele>163.605</ele><time>2026-08-16T16:49:47.735Z</time><hdop>3.0</hdop><vdop>2.5</vdop><extensions><gom:speed>0.926</gom:speed></extensions></trkpt>
   <trkpt lat="59.3224322817" lon="34.6806287613"><ele>163.72</ele><time>2026-08-16T16:49:48.491Z</time><hdop>3.0</hdop><vdop>2.5</vdop><extensions><gom:speed>0.868</gom:speed></extensions></trkpt>
   <trkpt lat="59.3224359697" lon="34.6806349639"><ele>163.886</ele><time>2026-08-16T16:49:49.136Z</time><hdop>3.0</hdop><vdop>2.5</vdop><extensions><gom:speed>0.868</gom:speed></extensions></trkpt>
   <trkpt lat="59.3224379814" lon="34.6806475368"><ele>163.986</ele><time>2026-08-16T16:49:49.973Z</time><hdop>3.0</hdop><vdop>2.5</vdop><extensions><gom:speed>0.883</gom:speed></extensions></trkpt>
   <trkpt lat="59.3224439745" lon="34.6806501351"><ele>163.97</ele><time>2026-08-16T16:49:50.728Z</time><hdop>3.0</hdop><vdop>2.5</vdop><extensions><gom:speed>0.948</gom:speed></extensions></trkpt>
   <trkpt lat="59.3224508895" lon="34.6806497999"><ele>163.981</ele><time>2026-08-16T16:49:51.514Z</time><hdop>3.0</hdop><vdop>2.5</vdop><extensions><gom:speed>0.932</gom:speed></extensions></trkpt>
   <trkpt lat="59.3224554996" lon="34.6806509733"><ele>163.988</ele><time>2026-08-16T16:49:52.093Z</time><hdop>3.0</hdop><vdop>2.5</vdop><extensions><gom:speed>0.919</gom:speed></extensions></trkpt>
   <trkpt lat="59.3224629595" lon="34.6806424238"><ele>163.799</ele><time>2026-08-16T16:49:52.868Z</time><hdop>3.0</hdop><vdop>2.5</vdop><extensions><gom:speed>0.881</gom:speed></extensions></trkpt>
   <trkpt lat="59.3224698745" lon="34.6806271687"><ele>163.701</ele><time>2026-08-16T16:49:54.016Z</time><hdop>3.062</hdop><vdop>2.5</vdop><extensions><gom:speed>0.808</gom:speed></extensions></trkpt>
   <trkpt lat="59.3224751971" lon="34.6806176972"><ele>163.647</ele><time>2026-08-16T16:49:54.949Z</time><hdop>3.062</hdop><vdop>2.5</vdop><extensions><gom:speed>0.822</gom:speed></extensions></trkpt>
   <trkpt lat="59.3224804777" lon="34.6806172781"><ele>163.735</ele><time>2026-08-16T16:49:55.528Z</time><hdop>3.062</hdop><vdop>2.5</vdop><extensions><gom:speed>0.838</gom:speed></extensions></trkpt>
   <trkpt lat="59.3224842914" lon="34.6806136739"><ele>163.788</ele><time>2026-08-16T16:49:56.068Z</time><hdop>3.125</hdop><vdop>2.5</vdop><extensions><gom:speed>0.831</gom:speed></extensions></trkpt>
   <trkpt lat="59.3224912903" lon="34.6806123328"><ele>163.898</ele><time>2026-08-16T16:49:56.774Z</time><hdop>3.125</hdop><vdop>2.5</vdop><extensions><gom:speed>0.834</gom:speed></extensions></trkpt>
   <trkpt lat="59.322502564" lon="34.6806120813"><ele>164.177</ele><time>2026-08-16T16:49:58.031Z</time><hdop>3.125</hdop><vdop>2.5</vdop><extensions><gom:speed>0.78</gom:speed></extensions></trkpt>
   <trkpt lat="59.3225117841" lon="34.6806146797"><ele>164.218</ele><time>2026-08-16T16:49:58.688Z</time><hdop>3.125</hdop><vdop>2.5</vdop><extensions><gom:speed>0.97</gom:speed></extensions></trkpt>
   <trkpt lat="59.322519663" lon="34.6806171943"><ele>164.248</ele><time>2026-08-16T16:49:59.356Z</time><hdop>3.062</hdop><vdop>2.5</vdop><extensions><gom:speed>0.956</gom:speed></extensions></trkpt>
   <trkpt lat="59.3225268715" lon="34.6806176972"><ele>164.266</ele><time>2026-08-16T16:50:00.053Z</time><hdop>3.062</hdop><vdop>2.5</vdop><extensions><gom:speed>0.978</gom:speed></extensions></trkpt>
   <trkpt lat="59.3225340799" lon="34.6806158532"><ele>164.265</ele><time>2026-08-16T16:50:00.671Z</time><hdop>3.062</hdop><vdop>2.5</vdop><extensions><gom:speed>0.992</gom:speed></extensions></trkpt>
   <trkpt lat="59.3225392767" lon="34.6806162723"><ele>164.317</ele><time>2026-08-16T16:50:01.136Z</time><hdop>3.0</hdop><vdop>2.5</vdop><extensions><gom:speed>1.037</gom:speed></extensions></trkpt>
   <trkpt lat="59.3225495864" lon="34.6806208823"><ele>164.154</ele><time>2026-08-16T16:50:02.136Z</time><hdop>3.0</hdop><vdop>2.5</vdop><extensions><gom:speed>0.999</gom:speed></extensions></trkpt>
   <trkpt lat="59.3225567949" lon="34.6806234807"><ele>164.057</ele><time>2026-08-16T16:50:02.909Z</time><hdop>3.0</hdop><vdop>2.5</vdop><extensions><gom:speed>0.991</gom:speed></extensions></trkpt>
   <trkpt lat="59.3225617821" lon="34.6806285937"><ele>164.052</ele><time>2026-08-16T16:50:04.136Z</time><hdop>3.0</hdop><vdop>2.5</vdop><extensions><gom:speed>0.623</gom:speed></extensions></trkpt>
   <trkpt lat="59.3225632909" lon="34.6806281746"><ele>164.049</ele><time>2026-08-16T16:50:04.774Z</time><hdop>3.0</hdop><vdop>2.5</vdop><extensions><gom:speed>0.544</gom:speed></extensions></trkpt>
   <trkpt lat="59.3225629975" lon="34.6806324493"><ele>164.118</ele><time>2026-08-16T16:50:05.853Z</time><hdop>3.0</hdop><vdop>2.5</vdop><extensions><gom:speed>0.375</gom:speed></extensions></trkpt>
   <trkpt lat="59.3225689905" lon="34.6806349639"><ele>164.065</ele><time>2026-08-16T16:50:06.668Z</time><hdop>3.0</hdop><vdop>2.5</vdop><extensions><gom:speed>0.678</gom:speed></extensions></trkpt>
   <trkpt lat="59.322572469" lon="34.6806392387"><ele>163.911</ele><time>2026-08-16T16:50:07.136Z</time><hdop>3.0</hdop><vdop>2.5</vdop><extensions><gom:speed>0.888</gom:speed></extensions></trkpt>
   <trkpt lat="59.3225805995" lon="34.6806504704"><ele>163.629</ele><time>2026-08-16T16:50:08.136Z</time><hdop>3.0</hdop><vdop>2.5</vdop><extensions><gom:speed>0.894</gom:speed></extensions></trkpt>
   <trkpt lat="59.3225858801" lon="34.6806556672"><ele>163.46</ele><time>2026-08-16T16:50:08.711Z</time><hdop>3.0</hdop><vdop>2.5</vdop><extensions><gom:speed>0.922</gom:speed></extensions></trkpt>
   <trkpt lat="59.3225929628" lon="34.6806637976"><ele>163.542</ele><time>2026-08-16T16:50:09.368Z</time><hdop>3.0</hdop><vdop>2.5</vdop><extensions><gom:speed>1.008</gom:speed></extensions></trkpt>
   <trkpt lat="59.3226007999" lon="34.680667821"><ele>163.68</ele><time>2026-08-16T16:50:10.136Z</time><hdop>3.0</hdop><vdop>2.5</vdop><extensions><gom:speed>1.075</gom:speed></extensions></trkpt>
   <trkpt lat="59.3226065834" lon="34.6806655578"><ele>163.762</ele><time>2026-08-16T16:50:10.694Z</time><hdop>3.0</hdop><vdop>2.5</vdop><extensions><gom:speed>1.067</gom:speed></extensions></trkpt>
   <trkpt lat="59.3226126603" lon="34.6806625404"><ele>163.776</ele><time>2026-08-16T16:50:11.351Z</time><hdop>3.0</hdop><vdop>2.5</vdop><extensions><gom:speed>1.076</gom:speed></extensions></trkpt>
   <trkpt lat="59.3226181923" lon="34.6806596905"><ele>163.858</ele><time>2026-08-16T16:50:12.135Z</time><hdop>3.0</hdop><vdop>2.5</vdop><extensions><gom:speed>0.96</gom:speed></extensions></trkpt>
   <trkpt lat="59.3226225928" lon="34.6806578465"><ele>163.907</ele><time>2026-08-16T16:50:12.696Z</time><hdop>3.0</hdop><vdop>2.5</vdop><extensions><gom:speed>0.976</gom:speed></extensions></trkpt>
   <trkpt lat="59.3226310585" lon="34.6806560863"><ele>163.917</ele><time>2026-08-16T16:50:13.530Z</time><hdop>3.0</hdop><vdop>2.5</vdop><extensions><gom:speed>1.021</gom:speed></extensions></trkpt>
   <trkpt lat="59.3226357943" lon="34.6806545776"><ele>163.922</ele><time>2026-08-16T16:50:13.991Z</time><hdop>3.0</hdop><vdop>2.5</vdop><extensions><gom:speed>1.023</gom:speed></extensions></trkpt>
   <trkpt lat="59.3226473613" lon="34.6806503866"><ele>163.861</ele><time>2026-08-16T16:50:15.136Z</time><hdop>3.0</hdop><vdop>2.5</vdop><extensions><gom:speed>1.054</gom:speed></extensions></trkpt>
   <trkpt lat="59.3226561623" lon="34.6806401607"><ele>163.824</ele><time>2026-08-16T16:50:16.053Z</time><hdop>3.0</hdop><vdop>2.5</vdop><extensions><gom:speed>1.096</gom:speed></extensions></trkpt>
   <trkpt lat="59.3226605628" lon="34.6806376461"><ele>163.782</ele><time>2026-08-16T16:50:16.632Z</time><hdop>3.0</hdop><vdop>2.5</vdop><extensions><gom:speed>1.057</gom:speed></extensions></trkpt>
   <trkpt lat="59.3226647957" lon="34.6806369756"><ele>163.703</ele><time>2026-08-16T16:50:17.136Z</time><hdop>3.0</hdop><vdop>2.5</vdop><extensions><gom:speed>1.027</gom:speed></extensions></trkpt>
   <trkpt lat="59.3226714593" lon="34.6806329522"><ele>163.656</ele><time>2026-08-16T16:50:17.888Z</time><hdop>3.0</hdop><vdop>2.5</vdop><extensions><gom:speed>1.025</gom:speed></extensions></trkpt>
   <trkpt lat="59.3226785839" lon="34.6806287613"><ele>163.653</ele><time>2026-08-16T16:50:18.703Z</time><hdop>3.0</hdop><vdop>2.5</vdop><extensions><gom:speed>1.033</gom:speed></extensions></trkpt>
   <trkpt lat="59.3226886841" lon="34.6806178648"><ele>163.667</ele><time>2026-08-16T16:50:19.861Z</time><hdop>3.0</hdop><vdop>2.5</vdop><extensions><gom:speed>1.067</gom:speed></extensions></trkpt>
   <trkpt lat="59.3226924979" lon="34.6806110755"><ele>163.684</ele><time>2026-08-16T16:50:20.499Z</time><hdop>3.0</hdop><vdop>2.5</vdop><extensions><gom:speed>1.022</gom:speed></extensions></trkpt>
   <trkpt lat="59.3226957668" lon="34.6806050405"><ele>163.708</ele><time>2026-08-16T16:50:21.136Z</time><hdop>3.0</hdop><vdop>2.5</vdop><extensions><gom:speed>0.952</gom:speed></extensions></trkpt>
   <trkpt lat="59.3227009636" lon="34.6805943955"><ele>163.722</ele><time>2026-08-16T16:50:22.040Z</time><hdop>3.0</hdop><vdop>2.5</vdop><extensions><gom:speed>0.895</gom:speed></extensions></trkpt>
   <trkpt lat="59.3227019694" lon="34.6805881929"><ele>163.785</ele><time>2026-08-16T16:50:22.814Z</time><hdop>3.0</hdop><vdop>2.5</vdop><extensions><gom:speed>0.778</gom:speed></extensions></trkpt>
   <trkpt lat="59.3227023885" lon="34.6805804815"><ele>163.863</ele><time>2026-08-16T16:50:23.699Z</time><hdop>3.0</hdop><vdop>2.5</vdop><extensions><gom:speed>0.697</gom:speed></extensions></trkpt>
   <trkpt lat="59.322704484" lon="34.6805731893"><ele>163.855</ele><time>2026-08-16T16:50:24.494Z</time><hdop>3.0</hdop><vdop>2.5</vdop><extensions><gom:speed>0.671</gom:speed></extensions></trkpt>
   <trkpt lat="59.3227070824" lon="34.6805675734"><ele>163.838</ele><time>2026-08-16T16:50:25.136Z</time><hdop>3.0</hdop><vdop>2.5</vdop><extensions><gom:speed>0.691</gom:speed></extensions></trkpt>
   <trkpt lat="59.3227116924" lon="34.6805575989"><ele>163.829</ele><time>2026-08-16T16:50:26.074Z</time><hdop>3.0</hdop><vdop>2.5</vdop><extensions><gom:speed>0.699</gom:speed></extensions></trkpt>
   <trkpt lat="59.3227164701" lon="34.6805527374"><ele>163.764</ele><time>2026-08-16T16:50:26.594Z</time><hdop>3.0</hdop><vdop>2.5</vdop><extensions><gom:speed>0.819</gom:speed></extensions></trkpt>
   <trkpt lat="59.3227222956" lon="34.6805504743"><ele>163.697</ele><time>2026-08-16T16:50:27.136Z</time><hdop>3.0</hdop><vdop>2.5</vdop><extensions><gom:speed>0.969</gom:speed></extensions></trkpt>
   <trkpt lat="59.3227335692" lon="34.6805452775"><ele>163.646</ele><time>2026-08-16T16:50:28.136Z</time><hdop>3.0</hdop><vdop>2.5</vdop><extensions><gom:speed>0.957</gom:speed></extensions></trkpt>
   <trkpt lat="59.3227420768" lon="34.6805378176"><ele>163.615</ele><time>2026-08-16T16:50:29.039Z</time><hdop>3.0</hdop><vdop>2.5</vdop><extensions><gom:speed>0.942</gom:speed></extensions></trkpt>
   <trkpt lat="59.3227501654" lon="34.6805336267"><ele>163.551</ele><time>2026-08-16T16:50:29.756Z</time><hdop>3.0</hdop><vdop>2.5</vdop><extensions><gom:speed>1.023</gom:speed></extensions></trkpt>
   <trkpt lat="59.3227578767" lon="34.6805267535"><ele>163.523</ele><time>2026-08-16T16:50:30.560Z</time><hdop>3.0</hdop><vdop>2.5</vdop><extensions><gom:speed>1.02</gom:speed></extensions></trkpt>
   <trkpt lat="59.3227633669" lon="34.6805210538"><ele>163.434</ele><time>2026-08-16T16:50:31.136Z</time><hdop>3.0</hdop><vdop>2.5</vdop><extensions><gom:speed>1.056</gom:speed></extensions></trkpt>
   <trkpt lat="59.3227693599" lon="34.6805146836"><ele>163.381</ele><time>2026-08-16T16:50:31.758Z</time><hdop>3.0</hdop><vdop>2.5</vdop><extensions><gom:speed>1.063</gom:speed></extensions></trkpt>
   <trkpt lat="59.3227755626" lon="34.6805085648"><ele>163.365</ele><time>2026-08-16T16:50:32.376Z</time><hdop>3.0</hdop><vdop>2.5</vdop><extensions><gom:speed>1.084</gom:speed></extensions></trkpt>
   <trkpt lat="59.3227802983" lon="34.6805035357"><ele>163.355</ele><time>2026-08-16T16:50:32.877Z</time><hdop>3.0</hdop><vdop>2.5</vdop><extensions><gom:speed>1.079</gom:speed></extensions></trkpt>
   <trkpt lat="59.3227868781" lon="34.6804964949"><ele>163.335</ele><time>2026-08-16T16:50:33.682Z</time><hdop>3.0</hdop><vdop>2.5</vdop><extensions><gom:speed>0.999</gom:speed></extensions></trkpt>
   <trkpt lat="59.3227898956" lon="34.6804922201"><ele>163.356</ele><time>2026-08-16T16:50:34.136Z</time><hdop>3.0</hdop><vdop>2.5</vdop><extensions><gom:speed>0.977</gom:speed></extensions></trkpt>
   <trkpt lat="59.3227962659" lon="34.6804804854"><ele>163.278</ele><time>2026-08-16T16:50:35.135Z</time><hdop>3.0</hdop><vdop>2.5</vdop><extensions><gom:speed>1.002</gom:speed></extensions></trkpt>
   <trkpt lat="59.3228004987" lon="34.6804716844"><ele>163.231</ele><time>2026-08-16T16:50:35.774Z</time><hdop>3.0</hdop><vdop>2.5</vdop><extensions><gom:speed>0.974</gom:speed></extensions></trkpt>
   <trkpt lat="59.322806366" lon="34.680462632"><ele>163.229</ele><time>2026-08-16T16:50:36.578Z</time><hdop>3.0</hdop><vdop>2.5</vdop><extensions><gom:speed>0.925</gom:speed></extensions></trkpt>
   <trkpt lat="59.3228106827" lon="34.6804598659"><ele>163.286</ele><time>2026-08-16T16:50:37.136Z</time><hdop>3.0</hdop><vdop>2.5</vdop><extensions><gom:speed>0.913</gom:speed></extensions></trkpt>
   <trkpt lat="59.3228162986" lon="34.6804606203"><ele>163.32</ele><time>2026-08-16T16:50:37.756Z</time><hdop>3.0</hdop><vdop>2.5</vdop><extensions><gom:speed>0.921</gom:speed></extensions></trkpt>
   <trkpt lat="59.3228226688" lon="34.6804664876"><ele>163.31</ele><time>2026-08-16T16:50:38.473Z</time><hdop>3.0</hdop><vdop>2.5</vdop><extensions><gom:speed>0.919</gom:speed></extensions></trkpt>
   <trkpt lat="59.3228285781" lon="34.6804705948"><ele>163.388</ele><time>2026-08-16T16:50:39.136Z</time><hdop>3.0</hdop><vdop>2.5</vdop><extensions><gom:speed>0.922</gom:speed></extensions></trkpt>
   <trkpt lat="59.3228366666" lon="34.6804795634"><ele>163.391</ele><time>2026-08-16T16:50:40.136Z</time><hdop>3.0</hdop><vdop>2.5</vdop><extensions><gom:speed>1.004</gom:speed></extensions></trkpt>
   <trkpt lat="59.3228448809" lon="34.6804855984"><ele>163.43</ele><time>2026-08-16T16:50:41.136Z</time><hdop>3.0</hdop><vdop>2.5</vdop><extensions><gom:speed>0.995</gom:speed></extensions></trkpt>
   <trkpt lat="59.3228492814" lon="34.6804885321"><ele>163.453</ele><time>2026-08-16T16:50:41.653Z</time><hdop>3.0</hdop><vdop>2.5</vdop><extensions><gom:speed>0.995</gom:speed></extensions></trkpt>
   <trkpt lat="59.3228529694" lon="34.6804884482"><ele>163.405</ele><time>2026-08-16T16:50:42.136Z</time><hdop>3.0</hdop><vdop>2.5</vdop><extensions><gom:speed>0.977</gom:speed></extensions></trkpt>
   <trkpt lat="59.3228584596" lon="34.6804973331"><ele>163.376</ele><time>2026-08-16T16:50:42.958Z</time><hdop>3.0</hdop><vdop>2.5</vdop><extensions><gom:speed>0.993</gom:speed></extensions></trkpt>
   <trkpt lat="59.3228636983" lon="34.6805020269"><ele>163.323</ele><time>2026-08-16T16:50:43.734Z</time><hdop>3.0</hdop><vdop>2.5</vdop><extensions><gom:speed>0.994</gom:speed></extensions></trkpt>
   <trkpt lat="59.3228682664" lon="34.6805012725"><ele>163.274</ele><time>2026-08-16T16:50:44.274Z</time><hdop>3.0</hdop><vdop>2.5</vdop><extensions><gom:speed>0.976</gom:speed></extensions></trkpt>
   <trkpt lat="59.3228738823" lon="34.6805060502"><ele>163.245</ele><time>2026-08-16T16:50:44.941Z</time><hdop>3.0</hdop><vdop>2.5</vdop><extensions><gom:speed>0.961</gom:speed></extensions></trkpt>
   <trkpt lat="59.3228797915" lon="34.6805013564"><ele>163.22</ele><time>2026-08-16T16:50:45.481Z</time><hdop>3.0</hdop><vdop>2.5</vdop><extensions><gom:speed>0.994</gom:speed></extensions></trkpt>
   <trkpt lat="59.3228871676" lon="34.6804974169"><ele>163.118</ele><time>2026-08-16T16:50:46.136Z</time><hdop>3.0</hdop><vdop>2.5</vdop><extensions><gom:speed>1.018</gom:speed></extensions></trkpt>
   <trkpt lat="59.3228945856" lon="34.6804959919"><ele>163.056</ele><time>2026-08-16T16:50:46.757Z</time><hdop>3.0</hdop><vdop>2.5</vdop><extensions><gom:speed>1.075</gom:speed></extensions></trkpt>
   <trkpt lat="59.3229036799" lon="34.6804901246"><ele>163.078</ele><time>2026-08-16T16:50:47.473Z</time><hdop>3.0</hdop><vdop>2.5</vdop><extensions><gom:speed>1.097</gom:speed></extensions></trkpt>
   <trkpt lat="59.3229108884" lon="34.6804891188"><ele>163.09</ele><time>2026-08-16T16:50:48.082Z</time><hdop>3.0</hdop><vdop>2.5</vdop><extensions><gom:speed>1.113</gom:speed></extensions></trkpt>
   <trkpt lat="59.3229183902" lon="34.680483922"><ele>163.047</ele><time>2026-08-16T16:50:48.700Z</time><hdop>3.0</hdop><vdop>2.5</vdop><extensions><gom:speed>1.129</gom:speed></extensions></trkpt>
   <trkpt lat="59.3229248862" lon="34.6804789767"><ele>163.041</ele><time>2026-08-16T16:50:49.279Z</time><hdop>3.0</hdop><vdop>2.5</vdop><extensions><gom:speed>1.119</gom:speed></extensions></trkpt>
   <trkpt lat="59.3229317593" lon="34.6804766297"><ele>163.037</ele><time>2026-08-16T16:50:49.917Z</time><hdop>3.0</hdop><vdop>2.5</vdop><extensions><gom:speed>1.12</gom:speed></extensions></trkpt>
   <trkpt lat="59.3229377943" lon="34.6804707624"><ele>163.036</ele><time>2026-08-16T16:50:50.496Z</time><hdop>3.0</hdop><vdop>2.5</vdop><extensions><gom:speed>1.122</gom:speed></extensions></trkpt>
   <trkpt lat="59.3229440807" lon="34.6804673258"><ele>162.951</ele><time>2026-08-16T16:50:51.136Z</time><hdop>3.0</hdop><vdop>2.5</vdop><extensions><gom:speed>1.101</gom:speed></extensions></trkpt>
   <trkpt lat="59.3229506605" lon="34.6804659847"><ele>162.9</ele><time>2026-08-16T16:50:51.733Z</time><hdop>3.0</hdop><vdop>2.5</vdop><extensions><gom:speed>1.145</gom:speed></extensions></trkpt>
   <trkpt lat="59.3229571984" lon="34.6804642245"><ele>162.902</ele><time>2026-08-16T16:50:52.401Z</time><hdop>3.0</hdop><vdop>2.5</vdop><extensions><gom:speed>1.117</gom:speed></extensions></trkpt>
   <trkpt lat="59.3229634848" lon="34.6804637216"><ele>162.904</ele><time>2026-08-16T16:50:52.980Z</time><hdop>3.0</hdop><vdop>2.5</vdop><extensions><gom:speed>1.127</gom:speed></extensions></trkpt>
   <trkpt lat="59.3229685978" lon="34.6804598659"><ele>162.865</ele><time>2026-08-16T16:50:53.618Z</time><hdop>3.0</hdop><vdop>2.5</vdop><extensions><gom:speed>1.086</gom:speed></extensions></trkpt>
   <trkpt lat="59.3229732916" lon="34.6804568485"><ele>162.797</ele><time>2026-08-16T16:50:54.136Z</time><hdop>3.0</hdop><vdop>2.5</vdop><extensions><gom:speed>1.117</gom:speed></extensions></trkpt>
   <trkpt lat="59.3229811706" lon="34.6804551721"><ele>162.756</ele><time>2026-08-16T16:50:54.854Z</time><hdop>3.0</hdop><vdop>2.5</vdop><extensions><gom:speed>1.149</gom:speed></extensions></trkpt>
   <trkpt lat="59.3229859902" lon="34.6804520708"><ele>162.79</ele><time>2026-08-16T16:50:55.414Z</time><hdop>3.0</hdop><vdop>2.5</vdop><extensions><gom:speed>1.129</gom:speed></extensions></trkpt>
   <trkpt lat="59.3229931987" lon="34.6804511488"><ele>162.81</ele><time>2026-08-16T16:50:56.081Z</time><hdop>3.0</hdop><vdop>2.5</vdop><extensions><gom:speed>1.136</gom:speed></extensions></trkpt>
   <trkpt lat="59.3229988984" lon="34.6804493886"><ele>162.76</ele><time>2026-08-16T16:50:56.680Z</time><hdop>3.0</hdop><vdop>2.5</vdop><extensions><gom:speed>1.123</gom:speed></extensions></trkpt>
   <trkpt lat="59.3230027959" lon="34.6804482989"><ele>162.711</ele><time>2026-08-16T16:50:57.136Z</time><hdop>3.0</hdop><vdop>2.5</vdop><extensions><gom:speed>1.106</gom:speed></extensions></trkpt>
   <trkpt lat="59.3230104654" lon="34.6804486342"><ele>162.682</ele><time>2026-08-16T16:50:57.858Z</time><hdop>3.0</hdop><vdop>2.5</vdop><extensions><gom:speed>1.122</gom:speed></extensions></trkpt>
   <trkpt lat="59.3230161651" lon="34.6804497238"><ele>162.663</ele><time>2026-08-16T16:50:58.555Z</time><hdop>3.0</hdop><vdop>2.5</vdop><extensions><gom:speed>1.1</gom:speed></extensions></trkpt>
   <trkpt lat="59.3230216971" lon="34.6804515679"><ele>162.652</ele><time>2026-08-16T16:50:59.075Z</time><hdop>3.0</hdop><vdop>2.5</vdop><extensions><gom:speed>1.103</gom:speed></extensions></trkpt>
   <trkpt lat="59.3230302886" lon="34.6804530766"><ele>162.632</ele><time>2026-08-16T16:51:00.136Z</time><hdop>3.0</hdop><vdop>2.5</vdop><extensions><gom:speed>1.05</gom:speed></extensions></trkpt>
   <trkpt lat="59.323039383" lon="34.6804554235"><ele>162.62</ele><time>2026-08-16T16:51:01.097Z</time><hdop>3.0</hdop><vdop>2.5</vdop><extensions><gom:speed>1.056</gom:speed></extensions></trkpt>
   <trkpt lat="59.3230431967" lon="34.6804558426"><ele>162.607</ele><time>2026-08-16T16:51:01.637Z</time><hdop>3.0</hdop><vdop>2.5</vdop><extensions><gom:speed>1.014</gom:speed></extensions></trkpt>
   <trkpt lat="59.3230463818" lon="34.6804574352"><ele>162.54</ele><time>2026-08-16T16:51:02.136Z</time><hdop>3.0</hdop><vdop>2.5</vdop><extensions><gom:speed>0.999</gom:speed></extensions></trkpt>
   <trkpt lat="59.3230522911" lon="34.6804642245"><ele>162.499</ele><time>2026-08-16T16:51:02.873Z</time><hdop>3.0</hdop><vdop>2.5</vdop><extensions><gom:speed>1.033</gom:speed></extensions></trkpt>
   <trkpt lat="59.3230570688" lon="34.6804715168"><ele>162.482</ele><time>2026-08-16T16:51:03.600Z</time><hdop>3.0</hdop><vdop>2.5</vdop><extensions><gom:speed>1.021</gom:speed></extensions></trkpt>
   <trkpt lat="59.3230607987" lon="34.6804774679"><ele>162.431</ele><time>2026-08-16T16:51:04.136Z</time><hdop>3.0</hdop><vdop>2.5</vdop><extensions><gom:speed>1.056</gom:speed></extensions></trkpt>
   <trkpt lat="59.3230664984" lon="34.6804851793"><ele>162.4</ele><time>2026-08-16T16:51:04.855Z</time><hdop>3.0</hdop><vdop>2.5</vdop><extensions><gom:speed>1.033</gom:speed></extensions></trkpt>
   <trkpt lat="59.3230709827" lon="34.680489035"><ele>162.434</ele><time>2026-08-16T16:51:05.415Z</time><hdop>3.0</hdop><vdop>2.5</vdop><extensions><gom:speed>1.005</gom:speed></extensions></trkpt>
   <trkpt lat="59.3230774787" lon="34.6804928906"><ele>162.454</ele><time>2026-08-16T16:51:06.122Z</time><hdop>3.0</hdop><vdop>2.5</vdop><extensions><gom:speed>0.999</gom:speed></extensions></trkpt>
   <trkpt lat="59.3230832622" lon="34.6804926392"><ele>162.44</ele><time>2026-08-16T16:51:06.760Z</time><hdop>3.0</hdop><vdop>2.5</vdop><extensions><gom:speed>0.981</gom:speed></extensions></trkpt>
   <trkpt lat="59.3230896744" lon="34.6804918848"><ele>162.391</ele><time>2026-08-16T16:51:07.418Z</time><hdop>3.0</hdop><vdop>2.5</vdop><extensions><gom:speed>1.028</gom:speed></extensions></trkpt>
   <trkpt lat="59.3230957932" lon="34.6804913819"><ele>162.361</ele><time>2026-08-16T16:51:07.997Z</time><hdop>3.0</hdop><vdop>2.5</vdop><extensions><gom:speed>1.033</gom:speed></extensions></trkpt>
   <trkpt lat="59.3231036722" lon="34.6804896217"><ele>162.31</ele><time>2026-08-16T16:51:08.821Z</time><hdop>3.0</hdop><vdop>2.5</vdop><extensions><gom:speed>1.033</gom:speed></extensions></trkpt>
   <trkpt lat="59.3231158678" lon="34.6804858498"><ele>162.275</ele><time>2026-08-16T16:51:09.959Z</time><hdop>3.0</hdop><vdop>2.5</vdop><extensions><gom:speed>1.086</gom:speed></extensions></trkpt>
   <trkpt lat="59.3231219866" lon="34.6804812398"><ele>162.304</ele><time>2026-08-16T16:51:10.559Z</time><hdop>3.0</hdop><vdop>2.5</vdop><extensions><gom:speed>1.083</gom:speed></extensions></trkpt>
   <trkpt lat="59.3231272672" lon="34.6804773841"><ele>162.244</ele><time>2026-08-16T16:51:11.136Z</time><hdop>3.0</hdop><vdop>2.5</vdop><extensions><gom:speed>1.095</gom:speed></extensions></trkpt>
   <trkpt lat="59.3231352719" lon="34.6804733608"><ele>162.209</ele><time>2026-08-16T16:51:11.934Z</time><hdop>3.0</hdop><vdop>2.5</vdop><extensions><gom:speed>1.071</gom:speed></extensions></trkpt>
   <trkpt lat="59.3231438634" lon="34.6804737799"><ele>162.185</ele><time>2026-08-16T16:51:13.136Z</time><hdop>3.0</hdop><vdop>2.5</vdop><extensions><gom:speed>0.945</gom:speed></extensions></trkpt>
   <trkpt lat="59.3231478867" lon="34.6804731932"><ele>162.171</ele><time>2026-08-16T16:51:13.642Z</time><hdop>3.0</hdop><vdop>2.5</vdop><extensions><gom:speed>0.901</gom:speed></extensions></trkpt>
   <trkpt lat="59.3231513652" lon="34.6804742828"><ele>162.161</ele><time>2026-08-16T16:51:14.136Z</time><hdop>3.0</hdop><vdop>2.5</vdop><extensions><gom:speed>0.886</gom:speed></extensions></trkpt>
   <trkpt lat="59.323158867" lon="34.6804779709"><ele>162.154</ele><time>2026-08-16T16:51:14.996Z</time><hdop>3.0</hdop><vdop>2.5</vdop><extensions><gom:speed>0.89</gom:speed></extensions></trkpt>
   <trkpt lat="59.3231665783" lon="34.6804805692"><ele>162.159</ele><time>2026-08-16T16:51:15.997Z</time><hdop>3.0</hdop><vdop>2.5</vdop><extensions><gom:speed>0.871</gom:speed></extensions></trkpt>
   <trkpt lat="59.3231715656" lon="34.6804844249"><ele>162.072</ele><time>2026-08-16T16:51:16.459Z</time><hdop>3.0</hdop><vdop>2.5</vdop><extensions><gom:speed>1.027</gom:speed></extensions></trkpt>
   <trkpt lat="59.3231770976" lon="34.6804896217"><ele>162.019</ele><time>2026-08-16T16:51:17.136Z</time><hdop>3.0</hdop><vdop>2.5</vdop><extensions><gom:speed>1.02</gom:speed></extensions></trkpt>
   <trkpt lat="59.3231820849" lon="34.6804935612"><ele>161.988</ele><time>2026-08-16T16:51:17.676Z</time><hdop>3.0</hdop><vdop>2.5</vdop><extensions><gom:speed>1.022</gom:speed></extensions></trkpt>
   <trkpt lat="59.3231857729" lon="34.6804969978"><ele>162.054</ele><time>2026-08-16T16:51:18.135Z</time><hdop>3.0</hdop><vdop>2.5</vdop><extensions><gom:speed>0.994</gom:speed></extensions></trkpt>
   <trkpt lat="59.3231943643" lon="34.680501524"><ele>161.817</ele><time>2026-08-16T16:51:19.136Z</time><hdop>3.0</hdop><vdop>2.5</vdop><extensions><gom:speed>1.004</gom:speed></extensions></trkpt>
   <trkpt lat="59.323200567" lon="34.6805008534"><ele>161.676</ele><time>2026-08-16T16:51:19.815Z</time><hdop>3.0</hdop><vdop>2.5</vdop><extensions><gom:speed>0.924</gom:speed></extensions></trkpt>
   <trkpt lat="59.323207482" lon="34.6804955729"><ele>161.678</ele><time>2026-08-16T16:51:20.640Z</time><hdop>3.0</hdop><vdop>2.5</vdop><extensions><gom:speed>0.952</gom:speed></extensions></trkpt>
   <trkpt lat="59.3232109605" lon="34.6804931421"><ele>161.636</ele><time>2026-08-16T16:51:21.136Z</time><hdop>3.0</hdop><vdop>2.5</vdop><extensions><gom:speed>0.959</gom:speed></extensions></trkpt>
   <trkpt lat="59.3232173727" lon="34.6804870233"><ele>161.612</ele><time>2026-08-16T16:51:21.955Z</time><hdop>3.0</hdop><vdop>2.5</vdop><extensions><gom:speed>0.962</gom:speed></extensions></trkpt>
   <trkpt lat="59.3232235753" lon="34.6804862689"><ele>161.632</ele><time>2026-08-16T16:51:22.700Z</time><hdop>3.0</hdop><vdop>2.5</vdop><extensions><gom:speed>0.989</gom:speed></extensions></trkpt>
   <trkpt lat="59.3232289816" lon="34.6804843411"><ele>161.647</ele><time>2026-08-16T16:51:23.339Z</time><hdop>3.0</hdop><vdop>2.5</vdop><extensions><gom:speed>1.024</gom:speed></extensions></trkpt>
   <trkpt lat="59.3232333821" lon="34.6804772165"><ele>161.655</ele><time>2026-08-16T16:51:23.938Z</time><hdop>3.0</hdop><vdop>2.5</vdop><extensions><gom:speed>0.998</gom:speed></extensions></trkpt>
   <trkpt lat="59.3232386627" lon="34.6804726903"><ele>161.66</ele><time>2026-08-16T16:51:24.693Z</time><hdop>3.0</hdop><vdop>2.5</vdop><extensions><gom:speed>0.969</gom:speed></extensions></trkpt>
   <trkpt lat="59.3232443624" lon="34.6804717682"><ele>161.596</ele><time>2026-08-16T16:51:25.361Z</time><hdop>3.0</hdop><vdop>2.5</vdop><extensions><gom:speed>0.945</gom:speed></extensions></trkpt>
   <trkpt lat="59.3232533729" lon="34.6804720197"><ele>161.542</ele><time>2026-08-16T16:51:26.136Z</time><hdop>3.0</hdop><vdop>2.5</vdop><extensions><gom:speed>0.864</gom:speed></extensions></trkpt>
   <trkpt lat="59.323257983" lon="34.680472355"><ele>161.51</ele><time>2026-08-16T16:51:26.941Z</time><hdop>3.0</hdop><vdop>2.5</vdop><extensions><gom:speed>0.809</gom:speed></extensions></trkpt>
   <trkpt lat="59.323263976" lon="34.6804745343"><ele>161.567</ele><time>2026-08-16T16:51:27.717Z</time><hdop>3.0</hdop><vdop>2.5</vdop><extensions><gom:speed>0.8</gom:speed></extensions></trkpt>
   <trkpt lat="59.3232687956" lon="34.680475121"><ele>161.493</ele><time>2026-08-16T16:51:28.198Z</time><hdop>3.0</hdop><vdop>2.5</vdop><extensions><gom:speed>0.845</gom:speed></extensions></trkpt>
   <trkpt lat="59.3232737829" lon="34.680468164"><ele>161.448</ele><time>2026-08-16T16:51:28.993Z</time><hdop>3.0</hdop><vdop>2.5</vdop><extensions><gom:speed>0.805</gom:speed></extensions></trkpt>
   <trkpt lat="59.3232781834" lon="34.6804645598"><ele>161.396</ele><time>2026-08-16T16:51:29.680Z</time><hdop>3.0</hdop><vdop>2.5</vdop><extensions><gom:speed>0.845</gom:speed></extensions></trkpt>
   <trkpt lat="59.323281159" lon="34.6804625482"><ele>161.403</ele><time>2026-08-16T16:51:30.136Z</time><hdop>3.0</hdop><vdop>2.5</vdop><extensions><gom:speed>0.847</gom:speed></extensions></trkpt>
   <trkpt lat="59.3232858947" lon="34.6804515679"><ele>161.407</ele><time>2026-08-16T16:51:31.054Z</time><hdop>3.0</hdop><vdop>2.5</vdop><extensions><gom:speed>0.86</gom:speed></extensions></trkpt>
   <trkpt lat="59.3232924745" lon="34.6804447785"><ele>161.358</ele><time>2026-08-16T16:51:31.898Z</time><hdop>3.0</hdop><vdop>2.5</vdop><extensions><gom:speed>0.891</gom:speed></extensions></trkpt>
   <trkpt lat="59.3232999763" lon="34.6804388274"><ele>161.355</ele><time>2026-08-16T16:51:32.693Z</time><hdop>3.0</hdop><vdop>2.5</vdop><extensions><gom:speed>0.891</gom:speed></extensions></trkpt>
   <trkpt lat="59.323304293" lon="34.6804355584"><ele>161.339</ele><time>2026-08-16T16:51:33.400Z</time><hdop>3.0</hdop><vdop>2.5</vdop><extensions><gom:speed>0.907</gom:speed></extensions></trkpt>
   <trkpt lat="59.323307059" lon="34.6804290205"><ele>161.329</ele><time>2026-08-16T16:51:33.920Z</time><hdop>3.0</hdop><vdop>2.5</vdop><extensions><gom:speed>0.912</gom:speed></extensions></trkpt>
   <trkpt lat="59.3233122977" lon="34.680419549"><ele>161.272</ele><time>2026-08-16T16:51:34.813Z</time><hdop>3.0</hdop><vdop>2.5</vdop><extensions><gom:speed>0.909</gom:speed></extensions></trkpt>
   <trkpt lat="59.3233165725" lon="34.6804136817"><ele>161.306</ele><time>2026-08-16T16:51:35.519Z</time><hdop>3.0</hdop><vdop>2.5</vdop><extensions><gom:speed>0.853</gom:speed></extensions></trkpt>
   <trkpt lat="59.3233211825" lon="34.6804105804"><ele>161.315</ele><time>2026-08-16T16:51:36.135Z</time><hdop>3.0</hdop><vdop>2.5</vdop><extensions><gom:speed>0.818</gom:speed></extensions></trkpt>
   <trkpt lat="59.3233288939" lon="34.6804088202"><ele>161.32</ele><time>2026-08-16T16:51:37.041Z</time><hdop>3.0</hdop><vdop>2.5</vdop><extensions><gom:speed>0.816</gom:speed></extensions></trkpt>
   <trkpt lat="59.3233336716" lon="34.6804090716"><ele>161.416</ele><time>2026-08-16T16:51:37.533Z</time><hdop>3.0</hdop><vdop>2.5</vdop><extensions><gom:speed>0.816</gom:speed></extensions></trkpt>
   <trkpt lat="59.3233382816" lon="34.680407982"><ele>161.492</ele><time>2026-08-16T16:51:38.136Z</time><hdop>3.0</hdop><vdop>2.5</vdop><extensions><gom:speed>0.761</gom:speed></extensions></trkpt>
   <trkpt lat="59.3233460768" lon="34.6804064732"><ele>161.562</ele><time>2026-08-16T16:51:39.136Z</time><hdop>3.0</hdop><vdop>2.5</vdop><extensions><gom:speed>0.778</gom:speed></extensions></trkpt>
   <trkpt lat="59.3233534948" lon="34.6804009412"><ele>161.604</ele><time>2026-08-16T16:51:40.095Z</time><hdop>3.0</hdop><vdop>2.5</vdop><extensions><gom:speed>0.805</gom:speed></extensions></trkpt>
   <trkpt lat="59.3233599908" lon="34.680393146"><ele>161.555</ele><time>2026-08-16T16:51:41.136Z</time><hdop>3.0</hdop><vdop>2.5</vdop><extensions><gom:speed>0.798</gom:speed></extensions></trkpt>
   <trkpt lat="59.3233627987" lon="34.6803860214"><ele>161.526</ele><time>2026-08-16T16:51:41.734Z</time><hdop>3.0</hdop><vdop>2.5</vdop><extensions><gom:speed>0.791</gom:speed></extensions></trkpt>
   <trkpt lat="59.3233681631" lon="34.6803759631"><ele>161.532</ele><time>2026-08-16T16:51:42.677Z</time><hdop>3.0</hdop><vdop>2.5</vdop><extensions><gom:speed>0.797</gom:speed></extensions></trkpt>
   <trkpt lat="59.3233712644" lon="34.680371856"><ele>161.484</ele><time>2026-08-16T16:51:43.136Z</time><hdop>3.0</hdop><vdop>2.5</vdop><extensions><gom:speed>0.807</gom:speed></extensions></trkpt>
   <trkpt lat="59.3233784728" lon="34.6803628873"><ele>161.455</ele><time>2026-08-16T16:51:44.120Z</time><hdop>3.0</hdop><vdop>2.5</vdop><extensions><gom:speed>0.839</gom:speed></extensions></trkpt>
   <trkpt lat="59.32338258" lon="34.6803566847"><ele>161.467</ele><time>2026-08-16T16:51:44.777Z</time><hdop>3.0</hdop><vdop>2.5</vdop><extensions><gom:speed>0.846</gom:speed></extensions></trkpt>
   <trkpt lat="59.3233901656" lon="34.6803480514"><ele>161.477</ele><time>2026-08-16T16:51:45.739Z</time><hdop>3.0</hdop><vdop>2.5</vdop><extensions><gom:speed>0.851</gom:speed></extensions></trkpt>
   <trkpt lat="59.3233932669" lon="34.6803430222"><ele>161.464</ele><time>2026-08-16T16:51:46.417Z</time><hdop>3.0</hdop><vdop>2.5</vdop><extensions><gom:speed>0.804</gom:speed></extensions></trkpt>
   <trkpt lat="59.3233970807" lon="34.6803380769"><ele>161.461</ele><time>2026-08-16T16:51:47.136Z</time><hdop>3.0</hdop><vdop>2.5</vdop><extensions><gom:speed>0.811</gom:speed></extensions></trkpt>
   <trkpt lat="59.3234009783" lon="34.6803330477"><ele>161.459</ele><time>2026-08-16T16:51:47.722Z</time><hdop>3.0</hdop><vdop>2.5</vdop><extensions><gom:speed>0.863</gom:speed></extensions></trkpt>
   <trkpt lat="59.3234059655" lon="34.6803219836"><ele>161.495</ele><time>2026-08-16T16:51:48.576Z</time><hdop>3.0</hdop><vdop>2.5</vdop><extensions><gom:speed>0.912</gom:speed></extensions></trkpt>
   <trkpt lat="59.3234076838" lon="34.6803144399"><ele>161.525</ele><time>2026-08-16T16:51:49.136Z</time><hdop>3.0</hdop><vdop>2.5</vdop><extensions><gom:speed>0.855</gom:speed></extensions></trkpt>
   <trkpt lat="59.3234116652" lon="34.6803039625"><ele>161.542</ele><time>2026-08-16T16:51:49.980Z</time><hdop>3.0</hdop><vdop>2.5</vdop><extensions><gom:speed>0.869</gom:speed></extensions></trkpt>
   <trkpt lat="59.3234159819" lon="34.6802940719"><ele>161.59</ele><time>2026-08-16T16:51:50.814Z</time><hdop>3.0</hdop><vdop>2.5</vdop><extensions><gom:speed>0.843</gom:speed></extensions></trkpt>
   <trkpt lat="59.3234202985" lon="34.6802846842"><ele>161.636</ele><time>2026-08-16T16:51:51.560Z</time><hdop>3.0</hdop><vdop>2.5</vdop><extensions><gom:speed>0.866</gom:speed></extensions></trkpt>
   <trkpt lat="59.3234236932" lon="34.6802789845"><ele>161.663</ele><time>2026-08-16T16:51:52.080Z</time><hdop>3.0</hdop><vdop>2.5</vdop><extensions><gom:speed>0.864</gom:speed></extensions></trkpt>
   <trkpt lat="59.3234301892" lon="34.6802677527"><ele>161.682</ele><time>2026-08-16T16:51:53.101Z</time><hdop>3.0</hdop><vdop>2.5</vdop><extensions><gom:speed>0.857</gom:speed></extensions></trkpt>
   <trkpt lat="59.3234327876" lon="34.6802601252"><ele>161.7</ele><time>2026-08-16T16:51:53.641Z</time><hdop>3.0</hdop><vdop>2.5</vdop><extensions><gom:speed>0.875</gom:speed></extensions></trkpt>
   <trkpt lat="59.3234348831" lon="34.6802517433"><ele>161.733</ele><time>2026-08-16T16:51:54.136Z</time><hdop>3.0</hdop><vdop>2.5</vdop><extensions><gom:speed>0.895</gom:speed></extensions></trkpt>
   <trkpt lat="59.3234374814" lon="34.6802382484"><ele>161.753</ele><time>2026-08-16T16:51:55.094Z</time><hdop>3.0</hdop><vdop>2.5</vdop><extensions><gom:speed>0.807</gom:speed></extensions></trkpt>
   <trkpt lat="59.3234404989" lon="34.6802300342"><ele>161.733</ele><time>2026-08-16T16:51:55.879Z</time><hdop>3.0</hdop><vdop>2.5</vdop><extensions><gom:speed>0.712</gom:speed></extensions></trkpt>
   <trkpt lat="59.3234440612" lon="34.6802215684"><ele>161.749</ele><time>2026-08-16T16:51:56.782Z</time><hdop>3.0</hdop><vdop>2.5</vdop><extensions><gom:speed>0.686</gom:speed></extensions></trkpt>
   <trkpt lat="59.3234466596" lon="34.680215282"><ele>161.735</ele><time>2026-08-16T16:51:57.479Z</time><hdop>3.0</hdop><vdop>2.5</vdop><extensions><gom:speed>0.747</gom:speed></extensions></trkpt>
   <trkpt lat="59.3234496771" lon="34.6802058943"><ele>161.646</ele><time>2026-08-16T16:51:58.136Z</time><hdop>3.0</hdop><vdop>2.5</vdop><extensions><gom:speed>0.859</gom:speed></extensions></trkpt>
   <trkpt lat="59.3234517726" lon="34.6801950816"><ele>161.593</ele><time>2026-08-16T16:51:58.755Z</time><hdop>3.0</hdop><vdop>2.5</vdop><extensions><gom:speed>0.855</gom:speed></extensions></trkpt>
   <trkpt lat="59.3234514792" lon="34.6801854424"><ele>161.555</ele><time>2026-08-16T16:51:59.236Z</time><hdop>3.0</hdop><vdop>2.5</vdop><extensions><gom:speed>0.871</gom:speed></extensions></trkpt>
   <trkpt lat="59.3234525689" lon="34.6801764738"><ele>161.532</ele><time>2026-08-16T16:51:59.736Z</time><hdop>3.0</hdop><vdop>2.5</vdop><extensions><gom:speed>0.941</gom:speed></extensions></trkpt>
   <trkpt lat="59.3234554606" lon="34.6801632304"><ele>161.568</ele><time>2026-08-16T16:52:00.561Z</time><hdop>3.0</hdop><vdop>2.5</vdop><extensions><gom:speed>0.92</gom:speed></extensions></trkpt>
   <trkpt lat="59.3234586877" lon="34.6801548485"><ele>161.576</ele><time>2026-08-16T16:52:01.136Z</time><hdop>3.0</hdop><vdop>2.5</vdop><extensions><gom:speed>0.921</gom:speed></extensions></trkpt>
   <trkpt lat="59.3234630882" lon="34.6801453769"><ele>161.581</ele><time>2026-08-16T16:52:01.817Z</time><hdop>3.0</hdop><vdop>2.5</vdop><extensions><gom:speed>0.937</gom:speed></extensions></trkpt>
   <trkpt lat="59.3234666924" lon="34.6801331394"><ele>161.596</ele><time>2026-08-16T16:52:02.622Z</time><hdop>3.0</hdop><vdop>2.5</vdop><extensions><gom:speed>0.928</gom:speed></extensions></trkpt>
   <trkpt lat="59.3234679916" lon="34.6801253442"><ele>161.601</ele><time>2026-08-16T16:52:03.136Z</time><hdop>3.0</hdop><vdop>2.5</vdop><extensions><gom:speed>0.894</gom:speed></extensions></trkpt>
   <trkpt lat="59.323469165" lon="34.6801111788"><ele>161.603</ele><time>2026-08-16T16:52:03.976Z</time><hdop>3.0</hdop><vdop>2.5</vdop><extensions><gom:speed>0.898</gom:speed></extensions></trkpt>
   <trkpt lat="59.3234709671" lon="34.6800951693"><ele>161.64</ele><time>2026-08-16T16:52:04.879Z</time><hdop>3.0</hdop><vdop>2.5</vdop><extensions><gom:speed>0.952</gom:speed></extensions></trkpt>
   <trkpt lat="59.3234721825" lon="34.680083267"><ele>161.662</ele><time>2026-08-16T16:52:05.733Z</time><hdop>3.0</hdop><vdop>2.5</vdop><extensions><gom:speed>0.873</gom:speed></extensions></trkpt>
   <trkpt lat="59.3234735655" lon="34.6800737955"><ele>161.714</ele><time>2026-08-16T16:52:06.479Z</time><hdop>3.0</hdop><vdop>2.5</vdop><extensions><gom:speed>0.872</gom:speed></extensions></trkpt>
   <trkpt lat="59.3234758706" lon="34.6800657489"><ele>161.771</ele><time>2026-08-16T16:52:07.136Z</time><hdop>3.0</hdop><vdop>2.5</vdop><extensions><gom:speed>0.843</gom:speed></extensions></trkpt>
   <trkpt lat="59.3234801872" lon="34.6800519187"><ele>161.707</ele><time>2026-08-16T16:52:08.136Z</time><hdop>3.0</hdop><vdop>2.5</vdop><extensions><gom:speed>0.961</gom:speed></extensions></trkpt>
   <trkpt lat="59.3234831628" lon="34.6800361607"><ele>161.659</ele><time>2026-08-16T16:52:09.136Z</time><hdop>3.0</hdop><vdop>2.5</vdop><extensions><gom:speed>0.908</gom:speed></extensions></trkpt>
   <trkpt lat="59.3234842944" lon="34.6800268568"><ele>161.63</ele><time>2026-08-16T16:52:09.700Z</time><hdop>3.0</hdop><vdop>2.5</vdop><extensions><gom:speed>0.913</gom:speed></extensions></trkpt>
   <trkpt lat="59.3234883596" lon="34.6800141163"><ele>161.7</ele><time>2026-08-16T16:52:10.662Z</time><hdop>3.0</hdop><vdop>2.5</vdop><extensions><gom:speed>0.912</gom:speed></extensions></trkpt>
   <trkpt lat="59.3234905808" lon="34.6800076623"><ele>161.741</ele><time>2026-08-16T16:52:11.113Z</time><hdop>3.0</hdop><vdop>2.5</vdop><extensions><gom:speed>0.918</gom:speed></extensions></trkpt>
   <trkpt lat="59.3234934726" lon="34.6799938321"><ele>161.705</ele><time>2026-08-16T16:52:12.075Z</time><hdop>3.0</hdop><vdop>2.5</vdop><extensions><gom:speed>0.91</gom:speed></extensions></trkpt>
   <trkpt lat="59.3234944784" lon="34.6799861208"><ele>161.697</ele><time>2026-08-16T16:52:12.595Z</time><hdop>3.0</hdop><vdop>2.5</vdop><extensions><gom:speed>0.92</gom:speed></extensions></trkpt>
   <trkpt lat="59.3234974959" lon="34.6799784932"><ele>161.866</ele><time>2026-08-16T16:52:13.136Z</time><hdop>3.0</hdop><vdop>2.5</vdop><extensions><gom:speed>1.004</gom:speed></extensions></trkpt>
   <trkpt lat="59.3235035728" lon="34.6799667586"><ele>161.891</ele><time>2026-08-16T16:52:14.136Z</time><hdop>3.0</hdop><vdop>2.5</vdop><extensions><gom:speed>0.923</gom:speed></extensions></trkpt>
   <trkpt lat="59.3235089791" lon="34.6799574547"><ele>161.719</ele><time>2026-08-16T16:52:15.136Z</time><hdop>3.0</hdop><vdop>2.5</vdop><extensions><gom:speed>0.813</gom:speed></extensions></trkpt>
   <trkpt lat="59.3235125833" lon="34.679947564"><ele>161.718</ele><time>2026-08-16T16:52:16.136Z</time><hdop>3.0</hdop><vdop>2.5</vdop><extensions><gom:speed>0.767</gom:speed></extensions></trkpt>
   <trkpt lat="59.3235179896" lon="34.6799411938"><ele>161.672</ele><time>2026-08-16T16:52:17.136Z</time><hdop>3.0</hdop><vdop>2.5</vdop><extensions><gom:speed>0.742</gom:speed></extensions></trkpt>
   <trkpt lat="59.3235267906" lon="34.6799398527"><ele>161.635</ele><time>2026-08-16T16:52:18.136Z</time><hdop>3.0</hdop><vdop>2.5</vdop><extensions><gom:speed>0.833</gom:speed></extensions></trkpt>
   <trkpt lat="59.3235332866" lon="34.6799382601"><ele>161.612</ele><time>2026-08-16T16:52:18.798Z</time><hdop>3.0</hdop><vdop>2.5</vdop><extensions><gom:speed>0.869</gom:speed></extensions></trkpt>
   <trkpt lat="59.3235416685" lon="34.6799381763"><ele>161.672</ele><time>2026-08-16T16:52:19.593Z</time><hdop>3.0</hdop><vdop>2.5</vdop><extensions><gom:speed>0.88</gom:speed></extensions></trkpt>
   <trkpt lat="59.3235474939" lon="34.6799385954"><ele>161.724</ele><time>2026-08-16T16:52:20.135Z</time><hdop>3.0</hdop><vdop>2.5</vdop><extensions><gom:speed>0.941</gom:speed></extensions></trkpt>
   <trkpt lat="59.3235564626" lon="34.6799362485"><ele>161.755</ele><time>2026-08-16T16:52:21.015Z</time><hdop>3.0</hdop><vdop>2.5</vdop><extensions><gom:speed>0.957</gom:speed></extensions></trkpt>
   <trkpt lat="59.3235638805" lon="34.6799346559"><ele>161.745</ele><time>2026-08-16T16:52:21.782Z</time><hdop>3.0</hdop><vdop>2.5</vdop><extensions><gom:speed>0.941</gom:speed></extensions></trkpt>
   <trkpt lat="59.323571089" lon="34.6799326442"><ele>161.717</ele><time>2026-08-16T16:52:22.655Z</time><hdop>3.0</hdop><vdop>2.5</vdop><extensions><gom:speed>0.894</gom:speed></extensions></trkpt>
   <trkpt lat="59.3235759924" lon="34.6799302973"><ele>161.933</ele><time>2026-08-16T16:52:23.136Z</time><hdop>3.0</hdop><vdop>2.5</vdop><extensions><gom:speed>1.029</gom:speed></extensions></trkpt>
   <trkpt lat="59.3235823626" lon="34.679926274"><ele>162.061</ele><time>2026-08-16T16:52:23.735Z</time><hdop>3.0</hdop><vdop>2.5</vdop><extensions><gom:speed>1.009</gom:speed></extensions></trkpt>
   <trkpt lat="59.3235884814" lon="34.6799260225"><ele>161.896</ele><time>2026-08-16T16:52:24.540Z</time><hdop>3.0</hdop><vdop>2.5</vdop><extensions><gom:speed>0.869</gom:speed></extensions></trkpt>
   <trkpt lat="59.3235939716" lon="34.6799257711"><ele>161.838</ele><time>2026-08-16T16:52:25.136Z</time><hdop>3.0</hdop><vdop>2.5</vdop><extensions><gom:speed>0.999</gom:speed></extensions></trkpt>
   <trkpt lat="59.3236040718" lon="34.6799302973"><ele>161.674</ele><time>2026-08-16T16:52:26.136Z</time><hdop>3.0</hdop><vdop>2.5</vdop><extensions><gom:speed>1.036</gom:speed></extensions></trkpt>
   <trkpt lat="59.3236138786" lon="34.6799358294"><ele>161.576</ele><time>2026-08-16T16:52:27.033Z</time><hdop>3.0</hdop><vdop>2.5</vdop><extensions><gom:speed>1.047</gom:speed></extensions></trkpt>
   <trkpt lat="59.3236205841" lon="34.6799393498"><ele>161.559</ele><time>2026-08-16T16:52:27.602Z</time><hdop>3.0</hdop><vdop>2.5</vdop><extensions><gom:speed>1.074</gom:speed></extensions></trkpt>
   <trkpt lat="59.3236257809" lon="34.6799410261"><ele>161.5</ele><time>2026-08-16T16:52:28.135Z</time><hdop>3.0</hdop><vdop>2.5</vdop><extensions><gom:speed>1.04</gom:speed></extensions></trkpt>
   <trkpt lat="59.3236331989" lon="34.6799415291"><ele>161.465</ele><time>2026-08-16T16:52:28.878Z</time><hdop>3.0</hdop><vdop>2.5</vdop><extensions><gom:speed>0.993</gom:speed></extensions></trkpt>
   <trkpt lat="59.3236452688" lon="34.6799413614"><ele>161.437</ele><time>2026-08-16T16:52:30.136Z</time><hdop>3.0</hdop><vdop>2.5</vdop><extensions><gom:speed>0.995</gom:speed></extensions></trkpt>
   <trkpt lat="59.3236537765" lon="34.6799402718"><ele>161.421</ele><time>2026-08-16T16:52:31.077Z</time><hdop>3.0</hdop><vdop>2.5</vdop><extensions><gom:speed>0.95</gom:speed></extensions></trkpt>
   <trkpt lat="59.3236550757" lon="34.6799393498"><ele>161.476</ele><time>2026-08-16T16:52:31.597Z</time><hdop>3.0</hdop><vdop>2.5</vdop><extensions><gom:speed>0.779</gom:speed></extensions></trkpt>
   <trkpt lat="59.3236560815" lon="34.6799391821"><ele>161.52</ele><time>2026-08-16T16:52:32.136Z</time><hdop>3.0</hdop><vdop>2.5</vdop><extensions><gom:speed>0.651</gom:speed></extensions></trkpt>
   <trkpt lat="59.3236568778" lon="34.6799385954"><ele>161.596</ele><time>2026-08-16T16:52:33.136Z</time><hdop>3.0</hdop><vdop>2.5</vdop><extensions><gom:speed>0.513</gom:speed></extensions></trkpt>
   <trkpt lat="59.3236563748" lon="34.6799389307"><ele>161.738</ele><time>2026-08-16T16:52:34.136Z</time><hdop>3.0</hdop><vdop>2.5</vdop><extensions><gom:speed>0.519</gom:speed></extensions></trkpt>
   <trkpt lat="59.3236583865" lon="34.6799440436"><ele>161.823</ele><time>2026-08-16T16:52:35.081Z</time><hdop>3.0</hdop><vdop>2.5</vdop><extensions><gom:speed>0.537</gom:speed></extensions></trkpt>
   <trkpt lat="59.3236572969" lon="34.6799298782"><ele>161.871</ele><time>2026-08-16T16:52:36.136Z</time><hdop>3.0</hdop><vdop>2.5</vdop><extensions><gom:speed>0.337</gom:speed></extensions></trkpt>
   <trkpt lat="59.3236557881" lon="34.6799185626"><ele>161.946</ele><time>2026-08-16T16:52:37.136Z</time><hdop>3.0</hdop><vdop>2.5</vdop><extensions><gom:speed>0.153</gom:speed></extensions></trkpt>
   <trkpt lat="59.323653986" lon="34.6799094264"><ele>161.95</ele><time>2026-08-16T16:52:38.136Z</time><hdop>3.0</hdop><vdop>2.5</vdop><extensions><gom:speed>0.128</gom:speed></extensions></trkpt>
   <trkpt lat="59.3236538603" lon="34.6799061574"><ele>161.952</ele><time>2026-08-16T16:52:38.821Z</time><hdop>3.0</hdop><vdop>2.5</vdop><extensions><gom:speed>0.119</gom:speed></extensions></trkpt>
   <trkpt lat="59.323655369" lon="34.6799036428"><ele>162.032</ele><time>2026-08-16T16:52:40.057Z</time><hdop>3.0</hdop><vdop>2.5</vdop><extensions><gom:speed>0.207</gom:speed></extensions></trkpt>
   <trkpt lat="59.3236619907" lon="34.6799074985"><ele>162.079</ele><time>2026-08-16T16:52:40.597Z</time><hdop>3.0</hdop><vdop>2.5</vdop><extensions><gom:speed>0.532</gom:speed></extensions></trkpt>
   <trkpt lat="59.3236670618" lon="34.679911438"><ele>162.187</ele><time>2026-08-16T16:52:41.136Z</time><hdop>3.0</hdop><vdop>2.5</vdop><extensions><gom:speed>0.639</gom:speed></extensions></trkpt>
   <trkpt lat="59.3236777906" lon="34.6799190656"><ele>162.234</ele><time>2026-08-16T16:52:42.136Z</time><hdop>3.0</hdop><vdop>2.5</vdop><extensions><gom:speed>0.857</gom:speed></extensions></trkpt>
   <trkpt lat="59.3236886871" lon="34.6799251843"><ele>162.185</ele><time>2026-08-16T16:52:43.136Z</time><hdop>3.0</hdop><vdop>2.5</vdop><extensions><gom:speed>0.93</gom:speed></extensions></trkpt>
   <trkpt lat="59.3236933809" lon="34.6799280342"><ele>162.155</ele><time>2026-08-16T16:52:43.600Z</time><hdop>3.0</hdop><vdop>2.5</vdop><extensions><gom:speed>0.92</gom:speed></extensions></trkpt>
   <trkpt lat="59.3236985777" lon="34.6799296267"><ele>162.357</ele><time>2026-08-16T16:52:44.136Z</time><hdop>3.0</hdop><vdop>2.5</vdop><extensions><gom:speed>0.953</gom:speed></extensions></trkpt>
   <trkpt lat="59.3237088875" lon="34.679929962"><ele>162.343</ele><time>2026-08-16T16:52:45.136Z</time><hdop>3.0</hdop><vdop>2.5</vdop><extensions><gom:speed>1.006</gom:speed></extensions></trkpt>
   <trkpt lat="59.3237197839" lon="34.6799251843"><ele>162.39</ele><time>2026-08-16T16:52:46.136Z</time><hdop>3.0</hdop><vdop>2.5</vdop><extensions><gom:speed>1.003</gom:speed></extensions></trkpt>
   <trkpt lat="59.323726699" lon="34.679922083"><ele>162.418</ele><time>2026-08-16T16:52:46.740Z</time><hdop>3.0</hdop><vdop>2.5</vdop><extensions><gom:speed>1.056</gom:speed></extensions></trkpt>
   <trkpt lat="59.3237356677" lon="34.6799176406"><ele>162.479</ele><time>2026-08-16T16:52:47.517Z</time><hdop>3.0</hdop><vdop>2.5</vdop><extensions><gom:speed>1.054</gom:speed></extensions></trkpt>
   <trkpt lat="59.3237415769" lon="34.6799117733"><ele>162.432</ele><time>2026-08-16T16:52:48.136Z</time><hdop>3.0</hdop><vdop>2.5</vdop><extensions><gom:speed>1.04</gom:speed></extensions></trkpt>
   <trkpt lat="59.323747067" lon="34.6799036428"><ele>162.404</ele><time>2026-08-16T16:52:48.792Z</time><hdop>3.0</hdop><vdop>2.5</vdop><extensions><gom:speed>1.025</gom:speed></extensions></trkpt>
   <trkpt lat="59.3237548622" lon="34.6798922435"><ele>162.456</ele><time>2026-08-16T16:52:49.735Z</time><hdop>3.0</hdop><vdop>2.5</vdop><extensions><gom:speed>0.986</gom:speed></extensions></trkpt>
   <trkpt lat="59.323760059" lon="34.6798863761"><ele>162.427</ele><time>2026-08-16T16:52:50.402Z</time><hdop>3.0</hdop><vdop>2.5</vdop><extensions><gom:speed>0.931</gom:speed></extensions></trkpt>
   <trkpt lat="59.3237666807" lon="34.6798837777"><ele>162.371</ele><time>2026-08-16T16:52:51.136Z</time><hdop>3.0</hdop><vdop>2.5</vdop><extensions><gom:speed>0.97</gom:speed></extensions></trkpt>
   <trkpt lat="59.3237724642" lon="34.6798846997"><ele>162.338</ele><time>2026-08-16T16:52:51.698Z</time><hdop>3.0</hdop><vdop>2.5</vdop><extensions><gom:speed>1.009</gom:speed></extensions></trkpt>
   <trkpt lat="59.3237787925" lon="34.6798885554"><ele>162.314</ele><time>2026-08-16T16:52:52.395Z</time><hdop>3.0</hdop><vdop>2.5</vdop><extensions><gom:speed>0.982</gom:speed></extensions></trkpt>
   <trkpt lat="59.3237854981" lon="34.6798949257"><ele>162.248</ele><time>2026-08-16T16:52:53.136Z</time><hdop>3.0</hdop><vdop>2.5</vdop><extensions><gom:speed>1.058</gom:speed></extensions></trkpt>
   <trkpt lat="59.3237912816" lon="34.6798992843"><ele>162.208</ele><time>2026-08-16T16:52:53.739Z</time><hdop>3.0</hdop><vdop>2.5</vdop><extensions><gom:speed>1.022</gom:speed></extensions></trkpt>
   <trkpt lat="59.3237968975" lon="34.6799019665"><ele>162.183</ele><time>2026-08-16T16:52:54.279Z</time><hdop>3.0</hdop><vdop>2.5</vdop><extensions><gom:speed>1.065</gom:speed></extensions></trkpt>
   <trkpt lat="59.3238047764" lon="34.6799020503"><ele>162.168</ele><time>2026-08-16T16:52:55.015Z</time><hdop>3.0</hdop><vdop>2.5</vdop><extensions><gom:speed>1.068</gom:speed></extensions></trkpt>
   <trkpt lat="59.323812865" lon="34.6799058221"><ele>162.163</ele><time>2026-08-16T16:52:55.820Z</time><hdop>3.0</hdop><vdop>2.5</vdop><extensions><gom:speed>1.028</gom:speed></extensions></trkpt>
   <trkpt lat="59.3238177684" lon="34.6799102646"><ele>162.162</ele><time>2026-08-16T16:52:56.379Z</time><hdop>3.0</hdop><vdop>2.5</vdop><extensions><gom:speed>1.017</gom:speed></extensions></trkpt>
   <trkpt lat="59.3238251864" lon="34.6799145393"><ele>162.118</ele><time>2026-08-16T16:52:57.136Z</time><hdop>3.0</hdop><vdop>2.5</vdop><extensions><gom:speed>1.065</gom:speed></extensions></trkpt>
   <trkpt lat="59.3238305927" lon="34.6799157966"><ele>162.092</ele><time>2026-08-16T16:52:57.636Z</time><hdop>3.0</hdop><vdop>2.5</vdop><extensions><gom:speed>1.058</gom:speed></extensions></trkpt>
   <trkpt lat="59.3238357895" lon="34.679917473"><ele>162.197</ele><time>2026-08-16T16:52:58.136Z</time><hdop>3.0</hdop><vdop>2.5</vdop><extensions><gom:speed>1.056</gom:speed></extensions></trkpt>
   <trkpt lat="59.3238464764" lon="34.6799196523"><ele>162.172</ele><time>2026-08-16T16:52:59.136Z</time><hdop>3.0</hdop><vdop>2.5</vdop><extensions><gom:speed>1.081</gom:speed></extensions></trkpt>
   <trkpt lat="59.3238531819" lon="34.6799194846"><ele>162.157</ele><time>2026-08-16T16:52:59.775Z</time><hdop>3.0</hdop><vdop>2.5</vdop><extensions><gom:speed>1.049</gom:speed></extensions></trkpt>
   <trkpt lat="59.3238586721" lon="34.679919317"><ele>162.171</ele><time>2026-08-16T16:53:00.314Z</time><hdop>3.0</hdop><vdop>2.5</vdop><extensions><gom:speed>1.048</gom:speed></extensions></trkpt>
   <trkpt lat="59.3238657967" lon="34.6799182274"><ele>162.179</ele><time>2026-08-16T16:53:01.052Z</time><hdop>3.0</hdop><vdop>2.5</vdop><extensions><gom:speed>1.028</gom:speed></extensions></trkpt>
   <trkpt lat="59.3238769865" lon="34.6799161319"><ele>162.198</ele><time>2026-08-16T16:53:02.136Z</time><hdop>3.0</hdop><vdop>2.5</vdop><extensions><gom:speed>1.068</gom:speed></extensions></trkpt>
   <trkpt lat="59.3238837759" lon="34.6799151261"><ele>162.209</ele><time>2026-08-16T16:53:02.721Z</time><hdop>3.0</hdop><vdop>2.5</vdop><extensions><gom:speed>1.114</gom:speed></extensions></trkpt>
   <trkpt lat="59.3238916968" lon="34.6799138688"><ele>162.251</ele><time>2026-08-16T16:53:03.379Z</time><hdop>3.0</hdop><vdop>2.5</vdop><extensions><gom:speed>1.175</gom:speed></extensions></trkpt>
   <trkpt lat="59.3238972707" lon="34.6799122762"><ele>162.276</ele><time>2026-08-16T16:53:03.840Z</time><hdop>3.0</hdop><vdop>2.5</vdop><extensions><gom:speed>1.181</gom:speed></extensions></trkpt>
   <trkpt lat="59.3239029704" lon="34.6799076662"><ele>162.331</ele><time>2026-08-16T16:53:04.419Z</time><hdop>3.0</hdop><vdop>2.5</vdop><extensions><gom:speed>1.165</gom:speed></extensions></trkpt>
   <trkpt lat="59.323909173" lon="34.6799040619"><ele>162.364</ele><time>2026-08-16T16:53:04.978Z</time><hdop>3.0</hdop><vdop>2.5</vdop><extensions><gom:speed>1.158</gom:speed></extensions></trkpt>
   <trkpt lat="59.3239153757" lon="34.6799032238"><ele>162.354</ele><time>2026-08-16T16:53:05.636Z</time><hdop>3.0</hdop><vdop>2.5</vdop><extensions><gom:speed>1.153</gom:speed></extensions></trkpt>
   <trkpt lat="59.323920782" lon="34.6799053192"><ele>162.348</ele><time>2026-08-16T16:53:06.117Z</time><hdop>3.0</hdop><vdop>2.5</vdop><extensions><gom:speed>1.15</gom:speed></extensions></trkpt>
   <trkpt lat="59.3239285772" lon="34.6799022179"><ele>162.276</ele><time>2026-08-16T16:53:06.853Z</time><hdop>3.0</hdop><vdop>2.5</vdop><extensions><gom:speed>1.192</gom:speed></extensions></trkpt>
   <trkpt lat="59.3239322652" lon="34.6798934169"><ele>162.202</ele><time>2026-08-16T16:53:07.334Z</time><hdop>3.0</hdop><vdop>2.5</vdop><extensions><gom:speed>1.181</gom:speed></extensions></trkpt>
   <trkpt lat="59.3239387612" lon="34.6798852865"><ele>162.158</ele><time>2026-08-16T16:53:08.021Z</time><hdop>3.0</hdop><vdop>2.5</vdop><extensions><gom:speed>1.154</gom:speed></extensions></trkpt>
   <trkpt lat="59.3239432874" lon="34.6798777428"><ele>162.058</ele><time>2026-08-16T16:53:08.482Z</time><hdop>3.0</hdop><vdop>2.5</vdop><extensions><gom:speed>1.202</gom:speed></extensions></trkpt>
   <trkpt lat="59.3239500767" lon="34.6798706181"><ele>161.998</ele><time>2026-08-16T16:53:09.101Z</time><hdop>3.0</hdop><vdop>2.5</vdop><extensions><gom:speed>1.208</gom:speed></extensions></trkpt>
   <trkpt lat="59.323958291" lon="34.679854944"><ele>161.927</ele><time>2026-08-16T16:53:10.135Z</time><hdop>3.0</hdop><vdop>2.5</vdop><extensions><gom:speed>1.115</gom:speed></extensions></trkpt>
   <trkpt lat="59.3239630687" lon="34.6798482385"><ele>161.884</ele><time>2026-08-16T16:53:10.681Z</time><hdop>3.0</hdop><vdop>2.5</vdop><extensions><gom:speed>1.121</gom:speed></extensions></trkpt>
   <trkpt lat="59.32396617" lon="34.6798422873"><ele>161.866</ele><time>2026-08-16T16:53:11.136Z</time><hdop>3.0</hdop><vdop>2.5</vdop><extensions><gom:speed>1.085</gom:speed></extensions></trkpt>
   <trkpt lat="59.323972666" lon="34.6798325643"><ele>161.855</ele><time>2026-08-16T16:53:11.878Z</time><hdop>3.0</hdop><vdop>2.5</vdop><extensions><gom:speed>1.127</gom:speed></extensions></trkpt>
   <trkpt lat="59.3239777789" lon="34.6798263617"><ele>161.926</ele><time>2026-08-16T16:53:12.477Z</time><hdop>3.0</hdop><vdop>2.5</vdop><extensions><gom:speed>1.124</gom:speed></extensions></trkpt>
   <trkpt lat="59.3239836882" lon="34.6798180636"><ele>161.814</ele><time>2026-08-16T16:53:13.136Z</time><hdop>3.0</hdop><vdop>2.5</vdop><extensions><gom:speed>1.141</gom:speed></extensions></trkpt>
   <trkpt lat="59.3239888849" lon="34.6798125316"><ele>161.747</ele><time>2026-08-16T16:53:13.714Z</time><hdop>3.0</hdop><vdop>2.5</vdop><extensions><gom:speed>1.076</gom:speed></extensions></trkpt>
   <trkpt lat="59.3239940817" lon="34.679808173"><ele>161.746</ele><time>2026-08-16T16:53:14.342Z</time><hdop>3.0</hdop><vdop>2.5</vdop><extensions><gom:speed>1.085</gom:speed></extensions></trkpt>
   <trkpt lat="59.3240006615" lon="34.6798032276"><ele>161.745</ele><time>2026-08-16T16:53:15.039Z</time><hdop>3.0</hdop><vdop>2.5</vdop><extensions><gom:speed>1.058</gom:speed></extensions></trkpt>
   <trkpt lat="59.3240053973" lon="34.6797992882"><ele>161.707</ele><time>2026-08-16T16:53:15.519Z</time><hdop>3.0</hdop><vdop>2.5</vdop><extensions><gom:speed>1.097</gom:speed></extensions></trkpt>
   <trkpt lat="59.3240113904" lon="34.6797972765"><ele>161.691</ele><time>2026-08-16T16:53:16.136Z</time><hdop>3.0</hdop><vdop>2.5</vdop><extensions><gom:speed>1.091</gom:speed></extensions></trkpt>
   <trkpt lat="59.324017593" lon="34.6797971927"><ele>161.682</ele><time>2026-08-16T16:53:16.737Z</time><hdop>3.0</hdop><vdop>2.5</vdop><extensions><gom:speed>1.077</gom:speed></extensions></trkpt>
   <trkpt lat="59.3240289924" lon="34.6797973603"><ele>161.761</ele><time>2026-08-16T16:53:17.854Z</time><hdop>3.0</hdop><vdop>2.5</vdop><extensions><gom:speed>1.069</gom:speed></extensions></trkpt>
   <trkpt lat="59.3240376676" lon="34.6797955163"><ele>161.781</ele><time>2026-08-16T16:53:18.719Z</time><hdop>3.0</hdop><vdop>2.5</vdop><extensions><gom:speed>1.02</gom:speed></extensions></trkpt>
   <trkpt lat="59.3240433673" lon="34.6797944267"><ele>161.765</ele><time>2026-08-16T16:53:19.318Z</time><hdop>3.0</hdop><vdop>2.5</vdop><extensions><gom:speed>1.02</gom:speed></extensions></trkpt>
   <trkpt lat="59.3240492766" lon="34.6797936723"><ele>161.755</ele><time>2026-08-16T16:53:19.917Z</time><hdop>3.0</hdop><vdop>2.5</vdop><extensions><gom:speed>1.011</gom:speed></extensions></trkpt>
   <trkpt lat="59.3240542638" lon="34.6797947619"><ele>161.775</ele><time>2026-08-16T16:53:20.427Z</time><hdop>3.0</hdop><vdop>2.5</vdop><extensions><gom:speed>1.005</gom:speed></extensions></trkpt>
   <trkpt lat="59.3240608855" lon="34.6797966898"><ele>161.77</ele><time>2026-08-16T16:53:21.136Z</time><hdop>3.0</hdop><vdop>2.5</vdop><extensions><gom:speed>0.981</gom:speed></extensions></trkpt>
   <trkpt lat="59.3240669624" lon="34.6797977794"><ele>161.766</ele><time>2026-08-16T16:53:21.772Z</time><hdop>3.0</hdop><vdop>2.5</vdop><extensions><gom:speed>0.968</gom:speed></extensions></trkpt>
   <trkpt lat="59.3240743804" lon="34.6797989529"><ele>161.806</ele><time>2026-08-16T16:53:22.507Z</time><hdop>3.0</hdop><vdop>2.5</vdop><extensions><gom:speed>1.008</gom:speed></extensions></trkpt>
   <trkpt lat="59.3240807925" lon="34.679800294"><ele>161.83</ele><time>2026-08-16T16:53:23.136Z</time><hdop>3.0</hdop><vdop>2.5</vdop><extensions><gom:speed>1.007</gom:speed></extensions></trkpt>
   <trkpt lat="59.3240886715" lon="34.6798020542"><ele>161.769</ele><time>2026-08-16T16:53:23.872Z</time><hdop>3.0</hdop><vdop>2.5</vdop><extensions><gom:speed>1.045</gom:speed></extensions></trkpt>
   <trkpt lat="59.3241002804" lon="34.6798016351"><ele>161.746</ele><time>2026-08-16T16:53:25.030Z</time><hdop>3.0</hdop><vdop>2.5</vdop><extensions><gom:speed>1.005</gom:speed></extensions></trkpt>
   <trkpt lat="59.3241056868" lon="34.6798026409"><ele>161.769</ele><time>2026-08-16T16:53:25.570Z</time><hdop>3.0</hdop><vdop>2.5</vdop><extensions><gom:speed>1.019</gom:speed></extensions></trkpt>
   <trkpt lat="59.3241108835" lon="34.6798047364"><ele>161.779</ele><time>2026-08-16T16:53:26.136Z</time><hdop>3.0</hdop><vdop>2.5</vdop><extensions><gom:speed>1.005</gom:speed></extensions></trkpt>
   <trkpt lat="59.3241188883" lon="34.6798076701"><ele>161.784</ele><time>2026-08-16T16:53:26.934Z</time><hdop>3.0</hdop><vdop>2.5</vdop><extensions><gom:speed>0.985</gom:speed></extensions></trkpt>
   <trkpt lat="59.3241265996" lon="34.6798070833"><ele>161.891</ele><time>2026-08-16T16:53:27.592Z</time><hdop>3.0</hdop><vdop>2.5</vdop><extensions><gom:speed>1.025</gom:speed></extensions></trkpt>
   <trkpt lat="59.3241320898" lon="34.6798078377"><ele>161.954</ele><time>2026-08-16T16:53:28.112Z</time><hdop>3.0</hdop><vdop>2.5</vdop><extensions><gom:speed>1.034</gom:speed></extensions></trkpt>
   <trkpt lat="59.3241405974" lon="34.6798084244"><ele>161.899</ele><time>2026-08-16T16:53:28.887Z</time><hdop>3.0</hdop><vdop>2.5</vdop><extensions><gom:speed>1.041</gom:speed></extensions></trkpt>
   <trkpt lat="59.3241459618" lon="34.6798064966"><ele>161.886</ele><time>2026-08-16T16:53:29.427Z</time><hdop>3.0</hdop><vdop>2.5</vdop><extensions><gom:speed>0.982</gom:speed></extensions></trkpt>
   <trkpt lat="59.3241526673" lon="34.6798054908"><ele>161.878</ele><time>2026-08-16T16:53:30.134Z</time><hdop>3.0</hdop><vdop>2.5</vdop><extensions><gom:speed>0.984</gom:speed></extensions></trkpt>
   <trkpt lat="59.3241591633" lon="34.6798025571"><ele>161.877</ele><time>2026-08-16T16:53:30.752Z</time><hdop>3.0</hdop><vdop>2.5</vdop><extensions><gom:speed>1.012</gom:speed></extensions></trkpt>
   <trkpt lat="59.3241714847" lon="34.6797929179"><ele>162.09</ele><time>2026-08-16T16:53:31.910Z</time><hdop>3.0</hdop><vdop>2.5</vdop><extensions><gom:speed>1.074</gom:speed></extensions></trkpt>
   <trkpt lat="59.3241812915" lon="34.6797855418"><ele>161.979</ele><time>2026-08-16T16:53:32.696Z</time><hdop>3.0</hdop><vdop>2.5</vdop><extensions><gom:speed>1.158</gom:speed></extensions></trkpt>
   <trkpt lat="59.324187075" lon="34.679789649"><ele>161.943</ele><time>2026-08-16T16:53:33.196Z</time><hdop>3.0</hdop><vdop>2.5</vdop><extensions><gom:speed>1.159</gom:speed></extensions></trkpt>
   <trkpt lat="59.3241951636" lon="34.6797969412"><ele>161.922</ele><time>2026-08-16T16:53:33.952Z</time><hdop>3.0</hdop><vdop>2.5</vdop><extensions><gom:speed>1.18</gom:speed></extensions></trkpt>
   <trkpt lat="59.3242017853" lon="34.6798003778"><ele>161.998</ele><time>2026-08-16T16:53:34.511Z</time><hdop>3.0</hdop><vdop>2.5</vdop><extensions><gom:speed>1.183</gom:speed></extensions></trkpt>
   <trkpt lat="59.3242091614" lon="34.6798027247"><ele>162.023</ele><time>2026-08-16T16:53:35.136Z</time><hdop>3.0</hdop><vdop>2.5</vdop><extensions><gom:speed>1.213</gom:speed></extensions></trkpt>
   <trkpt lat="59.3242158669" lon="34.6798052393"><ele>162.038</ele><time>2026-08-16T16:53:35.669Z</time><hdop>3.0</hdop><vdop>2.5</vdop><extensions><gom:speed>1.224</gom:speed></extensions></trkpt>
   <trkpt lat="59.3242211894" lon="34.6798034791"><ele>162.12</ele><time>2026-08-16T16:53:36.136Z</time><hdop>3.0</hdop><vdop>2.5</vdop><extensions><gom:speed>1.182</gom:speed></extensions></trkpt>
   <trkpt lat="59.3242291941" lon="34.6798003778"><ele>162.168</ele><time>2026-08-16T16:53:36.828Z</time><hdop>3.0</hdop><vdop>2.5</vdop><extensions><gom:speed>1.164</gom:speed></extensions></trkpt>
   <trkpt lat="59.3242382885" lon="34.6797940914"><ele>162.265</ele><time>2026-08-16T16:53:37.652Z</time><hdop>3.0</hdop><vdop>2.5</vdop><extensions><gom:speed>1.099</gom:speed></extensions></trkpt>
   <trkpt lat="59.3242435691" lon="34.6797924988"><ele>162.322</ele><time>2026-08-16T16:53:38.133Z</time><hdop>3.0</hdop><vdop>2.5</vdop><extensions><gom:speed>1.098</gom:speed></extensions></trkpt>
   <trkpt lat="59.32425149" lon="34.6797912415"><ele>162.258</ele><time>2026-08-16T16:53:38.908Z</time><hdop>3.0</hdop><vdop>2.5</vdop><extensions><gom:speed>1.052</gom:speed></extensions></trkpt>
   <trkpt lat="59.3242580698" lon="34.6797919959"><ele>162.259</ele><time>2026-08-16T16:53:39.468Z</time><hdop>3.0</hdop><vdop>2.5</vdop><extensions><gom:speed>1.108</gom:speed></extensions></trkpt>
   <trkpt lat="59.324265362" lon="34.6797929179"><ele>162.298</ele><time>2026-08-16T16:53:40.136Z</time><hdop>3.0</hdop><vdop>2.5</vdop><extensions><gom:speed>1.113</gom:speed></extensions></trkpt>
   <trkpt lat="59.3242759651" lon="34.6797936723"><ele>162.398</ele><time>2026-08-16T16:53:41.136Z</time><hdop>3.0</hdop><vdop>2.5</vdop><extensions><gom:speed>1.09</gom:speed></extensions></trkpt>
   <trkpt lat="59.3242858977" lon="34.6797932532"><ele>162.402</ele><time>2026-08-16T16:53:42.136Z</time><hdop>3.0</hdop><vdop>2.5</vdop><extensions><gom:speed>1.074</gom:speed></extensions></trkpt>
   <trkpt lat="59.3242959979" lon="34.6797938399"><ele>162.376</ele><time>2026-08-16T16:53:43.136Z</time><hdop>3.0</hdop><vdop>2.5</vdop><extensions><gom:speed>1.067</gom:speed></extensions></trkpt>
   <trkpt lat="59.324305679" lon="34.679789649"><ele>162.34</ele><time>2026-08-16T16:53:44.136Z</time><hdop>3.0</hdop><vdop>2.5</vdop><extensions><gom:speed>1.068</gom:speed></extensions></trkpt>
   <trkpt lat="59.3243120911" lon="34.6797873859"><ele>162.318</ele><time>2026-08-16T16:53:44.768Z</time><hdop>3.0</hdop><vdop>2.5</vdop><extensions><gom:speed>1.078</gom:speed></extensions></trkpt>
   <trkpt lat="59.3243194672" lon="34.6797866315"><ele>162.383</ele><time>2026-08-16T16:53:45.553Z</time><hdop>3.0</hdop><vdop>2.5</vdop><extensions><gom:speed>1.091</gom:speed></extensions></trkpt>
   <trkpt lat="59.3243249993" lon="34.6797858771"><ele>162.422</ele><time>2026-08-16T16:53:46.053Z</time><hdop>3.0</hdop><vdop>2.5</vdop><extensions><gom:speed>1.085</gom:speed></extensions></trkpt>
   <trkpt lat="59.3243335907" lon="34.6797861286"><ele>162.372</ele><time>2026-08-16T16:53:46.848Z</time><hdop>3.0</hdop><vdop>2.5</vdop><extensions><gom:speed>1.146</gom:speed></extensions></trkpt>
   <trkpt lat="59.3243385779" lon="34.6797877211"><ele>162.368</ele><time>2026-08-16T16:53:47.329Z</time><hdop>3.0</hdop><vdop>2.5</vdop><extensions><gom:speed>1.148</gom:speed></extensions></trkpt>
   <trkpt lat="59.3243460797" lon="34.6797872182"><ele>162.367</ele><time>2026-08-16T16:53:48.056Z</time><hdop>3.0</hdop><vdop>2.5</vdop><extensions><gom:speed>1.09</gom:speed></extensions></trkpt>
   <trkpt lat="59.3243509832" lon="34.6797869668"><ele>162.354</ele><time>2026-08-16T16:53:48.596Z</time><hdop>3.0</hdop><vdop>2.5</vdop><extensions><gom:speed>1.053</gom:speed></extensions></trkpt>
   <trkpt lat="59.3243557608" lon="34.6797862962"><ele>162.319</ele><time>2026-08-16T16:53:49.136Z</time><hdop>3.0</hdop><vdop>2.5</vdop><extensions><gom:speed>1.02</gom:speed></extensions></trkpt>
   <trkpt lat="59.3243638913" lon="34.6797840331"><ele>162.299</ele><time>2026-08-16T16:53:49.990Z</time><hdop>3.0</hdop><vdop>2.5</vdop><extensions><gom:speed>0.996</gom:speed></extensions></trkpt>
   <trkpt lat="59.3243711835" lon="34.679784536"><ele>162.23</ele><time>2026-08-16T16:53:50.648Z</time><hdop>3.0</hdop><vdop>2.5</vdop><extensions><gom:speed>1.057</gom:speed></extensions></trkpt>
   <trkpt lat="59.3243761708" lon="34.6797852904"><ele>162.18</ele><time>2026-08-16T16:53:51.136Z</time><hdop>3.0</hdop><vdop>2.5</vdop><extensions><gom:speed>1.053</gom:speed></extensions></trkpt>
   <trkpt lat="59.3243855585" lon="34.6797818538"><ele>162.151</ele><time>2026-08-16T16:53:52.071Z</time><hdop>3.0</hdop><vdop>2.5</vdop><extensions><gom:speed>1.025</gom:speed></extensions></trkpt>
   <trkpt lat="59.3243919707" lon="34.6797827758"><ele>162.179</ele><time>2026-08-16T16:53:52.631Z</time><hdop>3.0</hdop><vdop>2.5</vdop><extensions><gom:speed>1.061</gom:speed></extensions></trkpt>
   <trkpt lat="59.3243971674" lon="34.679785458"><ele>162.159</ele><time>2026-08-16T16:53:53.136Z</time><hdop>3.0</hdop><vdop>2.5</vdop><extensions><gom:speed>1.025</gom:speed></extensions></trkpt>
   <trkpt lat="59.3244051722" lon="34.6797875535"><ele>162.146</ele><time>2026-08-16T16:53:53.975Z</time><hdop>3.0</hdop><vdop>2.5</vdop><extensions><gom:speed>1.004</gom:speed></extensions></trkpt>
   <trkpt lat="59.3244108719" lon="34.6797894813"><ele>162.2</ele><time>2026-08-16T16:53:54.554Z</time><hdop>3.0</hdop><vdop>2.5</vdop><extensions><gom:speed>1.011</gom:speed></extensions></trkpt>
   <trkpt lat="59.3244165716" lon="34.6797911577"><ele>162.234</ele><time>2026-08-16T16:53:55.136Z</time><hdop>3.0</hdop><vdop>2.5</vdop><extensions><gom:speed>1.026</gom:speed></extensions></trkpt>
   <trkpt lat="59.3244234866" lon="34.6797920797"><ele>162.255</ele><time>2026-08-16T16:53:55.830Z</time><hdop>3.0</hdop><vdop>2.5</vdop><extensions><gom:speed>1.017</gom:speed></extensions></trkpt>
   <trkpt lat="59.3244304855" lon="34.6797953487"><ele>162.294</ele><time>2026-08-16T16:53:56.507Z</time><hdop>3.0</hdop><vdop>2.5</vdop><extensions><gom:speed>1.061</gom:speed></extensions></trkpt>
   <trkpt lat="59.3244365624" lon="34.679797025"><ele>162.317</ele><time>2026-08-16T16:53:57.067Z</time><hdop>3.0</hdop><vdop>2.5</vdop><extensions><gom:speed>1.062</gom:speed></extensions></trkpt>
   <trkpt lat="59.3244420945" lon="34.6798008807"><ele>162.256</ele><time>2026-08-16T16:53:57.548Z</time><hdop>3.0</hdop><vdop>2.5</vdop><extensions><gom:speed>1.102</gom:speed></extensions></trkpt>
   <trkpt lat="59.3244485904" lon="34.6798038982"><ele>162.242</ele><time>2026-08-16T16:53:58.136Z</time><hdop>3.0</hdop><vdop>2.5</vdop><extensions><gom:speed>1.112</gom:speed></extensions></trkpt>
   <trkpt lat="59.3244560922" lon="34.6798051555"><ele>162.233</ele><time>2026-08-16T16:53:58.814Z</time><hdop>3.0</hdop><vdop>2.5</vdop><extensions><gom:speed>1.088</gom:speed></extensions></trkpt>
   <trkpt lat="59.3244689584" lon="34.6798060775"><ele>162.263</ele><time>2026-08-16T16:53:59.992Z</time><hdop>3.0</hdop><vdop>2.5</vdop><extensions><gom:speed>1.073</gom:speed></extensions></trkpt>
   <trkpt lat="59.3244776756" lon="34.6798071671"><ele>162.201</ele><time>2026-08-16T16:54:00.728Z</time><hdop>3.0</hdop><vdop>2.5</vdop><extensions><gom:speed>1.145</gom:speed></extensions></trkpt>
   <trkpt lat="59.3244835849" lon="34.6798064966"><ele>162.183</ele><time>2026-08-16T16:54:01.227Z</time><hdop>3.0</hdop><vdop>2.5</vdop><extensions><gom:speed>1.142</gom:speed></extensions></trkpt>
   <trkpt lat="59.3244927631" lon="34.6798048202"><ele>162.173</ele><time>2026-08-16T16:54:02.033Z</time><hdop>3.0</hdop><vdop>2.5</vdop><extensions><gom:speed>1.131</gom:speed></extensions></trkpt>
   <trkpt lat="59.3244979598" lon="34.6798013836"><ele>162.149</ele><time>2026-08-16T16:54:02.573Z</time><hdop>3.0</hdop><vdop>2.5</vdop><extensions><gom:speed>1.06</gom:speed></extensions></trkpt>
   <trkpt lat="59.3245036595" lon="34.6797986176"><ele>162.147</ele><time>2026-08-16T16:54:03.136Z</time><hdop>3.0</hdop><vdop>2.5</vdop><extensions><gom:speed>1.056</gom:speed></extensions></trkpt>
   <trkpt lat="59.3245114966" lon="34.6797968574"><ele>162.146</ele><time>2026-08-16T16:54:03.868Z</time><hdop>3.0</hdop><vdop>2.5</vdop><extensions><gom:speed>1.035</gom:speed></extensions></trkpt>
   <trkpt lat="59.3245188727" lon="34.6797967736"><ele>162.233</ele><time>2026-08-16T16:54:04.654Z</time><hdop>3.0</hdop><vdop>2.5</vdop><extensions><gom:speed>1.018</gom:speed></extensions></trkpt>
   <trkpt lat="59.3245236923" lon="34.6797968574"><ele>162.284</ele><time>2026-08-16T16:54:05.133Z</time><hdop>3.0</hdop><vdop>2.5</vdop><extensions><gom:speed>1.022</gom:speed></extensions></trkpt>
   <trkpt lat="59.3245313617" lon="34.6797961868"><ele>162.199</ele><time>2026-08-16T16:54:05.929Z</time><hdop>3.0</hdop><vdop>2.5</vdop><extensions><gom:speed>1.023</gom:speed></extensions></trkpt>
   <trkpt lat="59.3245359718" lon="34.6797959354"><ele>162.215</ele><time>2026-08-16T16:54:06.450Z</time><hdop>3.0</hdop><vdop>2.5</vdop><extensions><gom:speed>1.021</gom:speed></extensions></trkpt>
   <trkpt lat="59.3245427611" lon="34.6797967736"><ele>162.224</ele><time>2026-08-16T16:54:07.146Z</time><hdop>3.0</hdop><vdop>2.5</vdop><extensions><gom:speed>1.022</gom:speed></extensions></trkpt>
   <trkpt lat="59.3245477902" lon="34.6797972765"><ele>162.239</ele><time>2026-08-16T16:54:07.627Z</time><hdop>3.0</hdop><vdop>2.5</vdop><extensions><gom:speed>1.065</gom:speed></extensions></trkpt>
   <trkpt lat="59.3245530708" lon="34.6797963545"><ele>162.259</ele><time>2026-08-16T16:54:08.136Z</time><hdop>3.0</hdop><vdop>2.5</vdop><extensions><gom:speed>1.074</gom:speed></extensions></trkpt>
   <trkpt lat="59.3245593992" lon="34.6797950972"><ele>162.271</ele><time>2026-08-16T16:54:08.707Z</time><hdop>3.0</hdop><vdop>2.5</vdop><extensions><gom:speed>1.075</gom:speed></extensions></trkpt>
   <trkpt lat="59.324568284" lon="34.6797937561"><ele>162.364</ele><time>2026-08-16T16:54:09.610Z</time><hdop>3.0</hdop><vdop>2.5</vdop><extensions><gom:speed>1.044</gom:speed></extensions></trkpt>
   <trkpt lat="59.324573397" lon="34.6797931694"><ele>162.42</ele><time>2026-08-16T16:54:10.091Z</time><hdop>3.0</hdop><vdop>2.5</vdop><extensions><gom:speed>1.049</gom:speed></extensions></trkpt>
   <trkpt lat="59.3245819884" lon="34.6797924988"><ele>162.344</ele><time>2026-08-16T16:54:10.915Z</time><hdop>3.0</hdop><vdop>2.5</vdop><extensions><gom:speed>1.1</gom:speed></extensions></trkpt>
   <trkpt lat="59.3245867661" lon="34.6797920797"><ele>162.315</ele><time>2026-08-16T16:54:11.367Z</time><hdop>3.0</hdop><vdop>2.5</vdop><extensions><gom:speed>1.108</gom:speed></extensions></trkpt>
   <trkpt lat="59.324594687" lon="34.6797895651"><ele>162.299</ele><time>2026-08-16T16:54:12.135Z</time><hdop>3.0</hdop><vdop>2.5</vdop><extensions><gom:speed>1.085</gom:speed></extensions></trkpt>
   <trkpt lat="59.324599758" lon="34.6797872182"><ele>162.289</ele><time>2026-08-16T16:54:12.633Z</time><hdop>3.0</hdop><vdop>2.5</vdop><extensions><gom:speed>1.079</gom:speed></extensions></trkpt>
   <trkpt lat="59.3246043681" lon="34.679785458"><ele>162.271</ele><time>2026-08-16T16:54:13.136Z</time><hdop>3.0</hdop><vdop>2.5</vdop><extensions><gom:speed>1.059</gom:speed></extensions></trkpt>
   <trkpt lat="59.3246114927" lon="34.6797838655"><ele>162.261</ele><time>2026-08-16T16:54:13.830Z</time><hdop>3.0</hdop><vdop>2.5</vdop><extensions><gom:speed>1.073</gom:speed></extensions></trkpt>
   <trkpt lat="59.3246255743" lon="34.6797831949"><ele>162.372</ele><time>2026-08-16T16:54:15.136Z</time><hdop>3.0</hdop><vdop>2.5</vdop><extensions><gom:speed>1.085</gom:speed></extensions></trkpt>
   <trkpt lat="59.3246327827" lon="34.6797816862"><ele>162.4</ele><time>2026-08-16T16:54:15.813Z</time><hdop>3.0</hdop><vdop>2.5</vdop><extensions><gom:speed>1.069</gom:speed></extensions></trkpt>
   <trkpt lat="59.3246372671" lon="34.6797802612"><ele>162.437</ele><time>2026-08-16T16:54:16.274Z</time><hdop>3.0</hdop><vdop>2.5</vdop><extensions><gom:speed>1.039</gom:speed></extensions></trkpt>
   <trkpt lat="59.3246420867" lon="34.6797795907"><ele>162.459</ele><time>2026-08-16T16:54:16.735Z</time><hdop>3.0</hdop><vdop>2.5</vdop><extensions><gom:speed>1.068</gom:speed></extensions></trkpt>
   <trkpt lat="59.3246538632" lon="34.679775735"><ele>162.496</ele><time>2026-08-16T16:54:17.776Z</time><hdop>3.0</hdop><vdop>2.5</vdop><extensions><gom:speed>1.122</gom:speed></extensions></trkpt>
   <trkpt lat="59.3246630833" lon="34.6797764894"><ele>162.467</ele><time>2026-08-16T16:54:18.688Z</time><hdop>3.0</hdop><vdop>2.5</vdop><extensions><gom:speed>1.093</gom:speed></extensions></trkpt>
   <trkpt lat="59.3246718843" lon="34.6797773276"><ele>162.513</ele><time>2026-08-16T16:54:19.591Z</time><hdop>3.0</hdop><vdop>2.5</vdop><extensions><gom:speed>1.075</gom:speed></extensions></trkpt>
   <trkpt lat="59.3246771649" lon="34.6797763217"><ele>162.54</ele><time>2026-08-16T16:54:20.092Z</time><hdop>3.0</hdop><vdop>2.5</vdop><extensions><gom:speed>1.076</gom:speed></extensions></trkpt>
   <trkpt lat="59.3246864688" lon="34.679772969"><ele>162.465</ele><time>2026-08-16T16:54:21.136Z</time><hdop>3.0</hdop><vdop>2.5</vdop><extensions><gom:speed>1.017</gom:speed></extensions></trkpt>
   <trkpt lat="59.3246918752" lon="34.679771125"><ele>162.421</ele><time>2026-08-16T16:54:21.731Z</time><hdop>3.0</hdop><vdop>2.5</vdop><extensions><gom:speed>0.978</gom:speed></extensions></trkpt>
   <trkpt lat="59.324700299" lon="34.6797704544"><ele>162.419</ele><time>2026-08-16T16:54:22.555Z</time><hdop>3.0</hdop><vdop>2.5</vdop><extensions><gom:speed>1.015</gom:speed></extensions></trkpt>
   <trkpt lat="59.3247056634" lon="34.6797703706"><ele>162.324</ele><time>2026-08-16T16:54:23.136Z</time><hdop>3.0</hdop><vdop>2.5</vdop><extensions><gom:speed>0.995</gom:speed></extensions></trkpt>
   <trkpt lat="59.3247137938" lon="34.6797685266"><ele>162.267</ele><time>2026-08-16T16:54:23.890Z</time><hdop>3.0</hdop><vdop>2.5</vdop><extensions><gom:speed>1.037</gom:speed></extensions></trkpt>
   <trkpt lat="59.3247230978" lon="34.6797679398"><ele>162.367</ele><time>2026-08-16T16:54:24.832Z</time><hdop>3.0</hdop><vdop>2.5</vdop><extensions><gom:speed>1.039</gom:speed></extensions></trkpt>
   <trkpt lat="59.3247272887" lon="34.6797674369"><ele>162.389</ele><time>2026-08-16T16:54:25.333Z</time><hdop>3.0</hdop><vdop>2.5</vdop><extensions><gom:speed>1.051</gom:speed></extensions></trkpt>
   <trkpt lat="59.324734581" lon="34.6797656767"><ele>162.405</ele><time>2026-08-16T16:54:26.136Z</time><hdop>3.0</hdop><vdop>2.5</vdop><extensions><gom:speed>1.047</gom:speed></extensions></trkpt>
   <trkpt lat="59.3247396939" lon="34.6797646709"><ele>162.415</ele><time>2026-08-16T16:54:26.647Z</time><hdop>3.0</hdop><vdop>2.5</vdop><extensions><gom:speed>1.087</gom:speed></extensions></trkpt>
   <trkpt lat="59.3247442621" lon="34.6797642518"><ele>162.486</ele><time>2026-08-16T16:54:27.136Z</time><hdop>3.0</hdop><vdop>2.5</vdop><extensions><gom:speed>1.077</gom:speed></extensions></trkpt>
   <trkpt lat="59.3247522668" lon="34.6797625754"><ele>162.528</ele><time>2026-08-16T16:54:27.895Z</time><hdop>3.0</hdop><vdop>2.5</vdop><extensions><gom:speed>1.069</gom:speed></extensions></trkpt>
   <trkpt lat="59.3247654683" lon="34.6797563728"><ele>162.604</ele><time>2026-08-16T16:54:29.131Z</time><hdop>3.0</hdop><vdop>2.5</vdop><extensions><gom:speed>1.094</gom:speed></extensions></trkpt>
   <trkpt lat="59.3247735987" lon="34.679754445"><ele>162.646</ele><time>2026-08-16T16:54:30.034Z</time><hdop>3.0</hdop><vdop>2.5</vdop><extensions><gom:speed>1.045</gom:speed></extensions></trkpt>
   <trkpt lat="59.3247788793" lon="34.6797528524"><ele>162.67</ele><time>2026-08-16T16:54:30.594Z</time><hdop>3.0</hdop><vdop>2.5</vdop><extensions><gom:speed>1.077</gom:speed></extensions></trkpt>
   <trkpt lat="59.3247837827" lon="34.6797514275"><ele>162.678</ele><time>2026-08-16T16:54:31.136Z</time><hdop>3.0</hdop><vdop>2.5</vdop><extensions><gom:speed>1.055</gom:speed></extensions></trkpt>
   <trkpt lat="59.3247915779" lon="34.6797498349"><ele>162.682</ele><time>2026-08-16T16:54:31.869Z</time><hdop>3.0</hdop><vdop>2.5</vdop><extensions><gom:speed>1.099</gom:speed></extensions></trkpt>
   <trkpt lat="59.3248003789" lon="34.6797503378"><ele>162.711</ele><time>2026-08-16T16:54:32.635Z</time><hdop>3.0</hdop><vdop>2.5</vdop><extensions><gom:speed>1.108</gom:speed></extensions></trkpt>
   <trkpt lat="59.3248053661" lon="34.6797506731"><ele>162.695</ele><time>2026-08-16T16:54:33.136Z</time><hdop>3.0</hdop><vdop>2.5</vdop><extensions><gom:speed>1.109</gom:speed></extensions></trkpt>
   <trkpt lat="59.3248131613" lon="34.6797503378"><ele>162.685</ele><time>2026-08-16T16:54:33.910Z</time><hdop>3.0</hdop><vdop>2.5</vdop><extensions><gom:speed>1.069</gom:speed></extensions></trkpt>
   <trkpt lat="59.3248171846" lon="34.6797515951"><ele>162.752</ele><time>2026-08-16T16:54:34.372Z</time><hdop>3.0</hdop><vdop>2.5</vdop><extensions><gom:speed>1.086</gom:speed></extensions></trkpt>
   <trkpt lat="59.324824896" lon="34.6797532715"><ele>162.735</ele><time>2026-08-16T16:54:35.136Z</time><hdop>3.0</hdop><vdop>2.5</vdop><extensions><gom:speed>1.134</gom:speed></extensions></trkpt>
   <trkpt lat="59.3248311824" lon="34.6797531877"><ele>162.725</ele><time>2026-08-16T16:54:35.707Z</time><hdop>3.0</hdop><vdop>2.5</vdop><extensions><gom:speed>1.117</gom:speed></extensions></trkpt>
   <trkpt lat="59.3248394805" lon="34.6797524333"><ele>162.823</ele><time>2026-08-16T16:54:36.531Z</time><hdop>3.0</hdop><vdop>2.5</vdop><extensions><gom:speed>1.072</gom:speed></extensions></trkpt>
   <trkpt lat="59.3248447611" lon="34.6797512598"><ele>162.882</ele><time>2026-08-16T16:54:37.032Z</time><hdop>3.0</hdop><vdop>2.5</vdop><extensions><gom:speed>1.064</gom:speed></extensions></trkpt>
   <trkpt lat="59.3248532687" lon="34.6797516789"><ele>162.907</ele><time>2026-08-16T16:54:37.768Z</time><hdop>3.0</hdop><vdop>2.5</vdop><extensions><gom:speed>1.091</gom:speed></extensions></trkpt>
   <trkpt lat="59.3248593875" lon="34.6797534391"><ele>162.945</ele><time>2026-08-16T16:54:38.288Z</time><hdop>3.0</hdop><vdop>2.5</vdop><extensions><gom:speed>1.127</gom:speed></extensions></trkpt>
   <trkpt lat="59.324868398" lon="34.6797533553"><ele>162.968</ele><time>2026-08-16T16:54:39.034Z</time><hdop>3.0</hdop><vdop>2.5</vdop><extensions><gom:speed>1.131</gom:speed></extensions></trkpt>
   <trkpt lat="59.3248737625" lon="34.679753523"><ele>162.988</ele><time>2026-08-16T16:54:39.574Z</time><hdop>3.0</hdop><vdop>2.5</vdop><extensions><gom:speed>1.096</gom:speed></extensions></trkpt>
   <trkpt lat="59.3248791688" lon="34.6797539421"><ele>163.098</ele><time>2026-08-16T16:54:40.136Z</time><hdop>3.0</hdop><vdop>2.5</vdop><extensions><gom:speed>1.075</gom:speed></extensions></trkpt>
   <trkpt lat="59.3248853714" lon="34.6797540259"><ele>163.163</ele><time>2026-08-16T16:54:40.752Z</time><hdop>3.0</hdop><vdop>2.5</vdop><extensions><gom:speed>1.073</gom:speed></extensions></trkpt>
   <trkpt lat="59.3248947591" lon="34.6797561214"><ele>163.21</ele><time>2026-08-16T16:54:41.635Z</time><hdop>3.0</hdop><vdop>2.5</vdop><extensions><gom:speed>1.081</gom:speed></extensions></trkpt>
   <trkpt lat="59.3248997883" lon="34.6797565404"><ele>163.238</ele><time>2026-08-16T16:54:42.087Z</time><hdop>3.0</hdop><vdop>2.5</vdop><extensions><gom:speed>1.085</gom:speed></extensions></trkpt>
   <trkpt lat="59.3249078768" lon="34.6797588874"><ele>163.24</ele><time>2026-08-16T16:54:42.853Z</time><hdop>3.0</hdop><vdop>2.5</vdop><extensions><gom:speed>1.101</gom:speed></extensions></trkpt>
   <trkpt lat="59.3249136603" lon="34.6797613181"><ele>163.24</ele><time>2026-08-16T16:54:43.432Z</time><hdop>3.0</hdop><vdop>2.5</vdop><extensions><gom:speed>1.051</gom:speed></extensions></trkpt>
   <trkpt lat="59.3249207849" lon="34.6797633298"><ele>163.201</ele><time>2026-08-16T16:54:44.136Z</time><hdop>3.0</hdop><vdop>2.5</vdop><extensions><gom:speed>1.061</gom:speed></extensions></trkpt>
   <trkpt lat="59.3249263589" lon="34.6797645871"><ele>163.178</ele><time>2026-08-16T16:54:44.630Z</time><hdop>3.0</hdop><vdop>2.5</vdop><extensions><gom:speed>1.078</gom:speed></extensions></trkpt>
   <trkpt lat="59.324931388" lon="34.6797659282"><ele>163.157</ele><time>2026-08-16T16:54:45.136Z</time><hdop>3.0</hdop><vdop>2.5</vdop><extensions><gom:speed>1.074</gom:speed></extensions></trkpt>
   <trkpt lat="59.3249383869" lon="34.6797673531"><ele>163.144</ele><time>2026-08-16T16:54:45.788Z</time><hdop>3.0</hdop><vdop>2.5</vdop><extensions><gom:speed>1.088</gom:speed></extensions></trkpt>
   <trkpt lat="59.3249468946" lon="34.6797690295"><ele>163.096</ele><time>2026-08-16T16:54:46.632Z</time><hdop>3.0</hdop><vdop>2.5</vdop><extensions><gom:speed>1.084</gom:speed></extensions></trkpt>
   <trkpt lat="59.324952259" lon="34.6797710411"><ele>162.942</ele><time>2026-08-16T16:54:47.136Z</time><hdop>3.0</hdop><vdop>2.5</vdop><extensions><gom:speed>1.141</gom:speed></extensions></trkpt>
   <trkpt lat="59.3249624849" lon="34.6797737233"><ele>162.812</ele><time>2026-08-16T16:54:48.136Z</time><hdop>3.0</hdop><vdop>2.5</vdop><extensions><gom:speed>1.069</gom:speed></extensions></trkpt>
   <trkpt lat="59.3249720822" lon="34.6797744777"><ele>162.734</ele><time>2026-08-16T16:54:49.066Z</time><hdop>3.0</hdop><vdop>2.5</vdop><extensions><gom:speed>1.021</gom:speed></extensions></trkpt>
   <trkpt lat="59.3249767761" lon="34.6797746454"><ele>162.678</ele><time>2026-08-16T16:54:49.528Z</time><hdop>3.0</hdop><vdop>2.5</vdop><extensions><gom:speed>1.04</gom:speed></extensions></trkpt>
   <trkpt lat="59.3249833978" lon="34.6797761541"><ele>162.668</ele><time>2026-08-16T16:54:50.136Z</time><hdop>3.0</hdop><vdop>2.5</vdop><extensions><gom:speed>1.099</gom:speed></extensions></trkpt>
   <trkpt lat="59.3249904805" lon="34.6797777467"><ele>162.662</ele><time>2026-08-16T16:54:50.775Z</time><hdop>3.0</hdop><vdop>2.5</vdop><extensions><gom:speed>1.077</gom:speed></extensions></trkpt>
   <trkpt lat="59.325003179" lon="34.6797798421"><ele>162.668</ele><time>2026-08-16T16:54:51.992Z</time><hdop>3.0</hdop><vdop>2.5</vdop><extensions><gom:speed>1.067</gom:speed></extensions></trkpt>
   <trkpt lat="59.3250145784" lon="34.6797872182"><ele>162.61</ele><time>2026-08-16T16:54:53.135Z</time><hdop>3.0</hdop><vdop>2.5</vdop><extensions><gom:speed>1.107</gom:speed></extensions></trkpt>
   <trkpt lat="59.325024972" lon="34.6797940914"><ele>162.509</ele><time>2026-08-16T16:54:54.136Z</time><hdop>3.0</hdop><vdop>2.5</vdop><extensions><gom:speed>1.106</gom:speed></extensions></trkpt>
   <trkpt lat="59.3250352817" lon="34.6797989529"><ele>162.407</ele><time>2026-08-16T16:54:55.136Z</time><hdop>3.0</hdop><vdop>2.5</vdop><extensions><gom:speed>1.041</gom:speed></extensions></trkpt>
   <trkpt lat="59.325046262" lon="34.6797996234"><ele>162.307</ele><time>2026-08-16T16:54:56.136Z</time><hdop>3.0</hdop><vdop>2.5</vdop><extensions><gom:speed>1.133</gom:speed></extensions></trkpt>
   <trkpt lat="59.3250543925" lon="34.6798015513"><ele>162.248</ele><time>2026-08-16T16:54:56.850Z</time><hdop>3.0</hdop><vdop>2.5</vdop><extensions><gom:speed>1.114</gom:speed></extensions></trkpt>
   <trkpt lat="59.3250658757" lon="34.6798061613"><ele>162.241</ele><time>2026-08-16T16:54:57.987Z</time><hdop>3.0</hdop><vdop>2.5</vdop><extensions><gom:speed>1.092</gom:speed></extensions></trkpt>
   <trkpt lat="59.3250738804" lon="34.6798097655"><ele>162.164</ele><time>2026-08-16T16:54:58.754Z</time><hdop>3.0</hdop><vdop>2.5</vdop><extensions><gom:speed>1.126</gom:speed></extensions></trkpt>
   <trkpt lat="59.3250789934" lon="34.6798102684"><ele>162.141</ele><time>2026-08-16T16:54:59.274Z</time><hdop>3.0</hdop><vdop>2.5</vdop><extensions><gom:speed>1.099</gom:speed></extensions></trkpt>
   <trkpt lat="59.3250861599" lon="34.679803982"><ele>162.128</ele><time>2026-08-16T16:55:00.030Z</time><hdop>3.0</hdop><vdop>2.5</vdop><extensions><gom:speed>1.079</gom:speed></extensions></trkpt>
   <trkpt lat="59.3250907699" lon="34.6797911577"><ele>161.992</ele><time>2026-08-16T16:55:01.136Z</time><hdop>3.0</hdop><vdop>2.5</vdop><extensions><gom:speed>1.037</gom:speed></extensions></trkpt>
   <trkpt lat="59.3250949609" lon="34.6797871344"><ele>161.911</ele><time>2026-08-16T16:55:01.610Z</time><hdop>3.0</hdop><vdop>2.5</vdop><extensions><gom:speed>1.097</gom:speed></extensions></trkpt>
   <trkpt lat="59.3251004929" lon="34.6797830273"><ele>161.863</ele><time>2026-08-16T16:55:02.130Z</time><hdop>3.0</hdop><vdop>2.5</vdop><extensions><gom:speed>1.096</gom:speed></extensions></trkpt>
   <trkpt lat="59.3251089587" lon="34.6797876373"><ele>161.846</ele><time>2026-08-16T16:55:02.807Z</time><hdop>3.0</hdop><vdop>2.5</vdop><extensions><gom:speed>1.179</gom:speed></extensions></trkpt>
   <trkpt lat="59.3251243814" lon="34.6797991205"><ele>161.841</ele><time>2026-08-16T16:55:04.034Z</time><hdop>3.062</hdop><vdop>2.5</vdop><extensions><gom:speed>1.212</gom:speed></extensions></trkpt>
   <trkpt lat="59.3251368704" lon="34.6798237633"><ele>161.697</ele><time>2026-08-16T16:55:05.136Z</time><hdop>3.0</hdop><vdop>2.5</vdop><extensions><gom:speed>1.293</gom:speed></extensions></trkpt>
   <trkpt lat="59.3251457971" lon="34.6798361685"><ele>161.61</ele><time>2026-08-16T16:55:05.948Z</time><hdop>3.062</hdop><vdop>2.5</vdop><extensions><gom:speed>1.272</gom:speed></extensions></trkpt>
   <trkpt lat="59.3251571965" lon="34.6798472326"><ele>161.488</ele><time>2026-08-16T16:55:07.136Z</time><hdop>3.062</hdop><vdop>2.5</vdop><extensions><gom:speed>1.176</gom:speed></extensions></trkpt>
   <trkpt lat="59.325167171" lon="34.6798553631"><ele>161.38</ele><time>2026-08-16T16:55:08.136Z</time><hdop>3.0</hdop><vdop>2.5</vdop><extensions><gom:speed>1.146</gom:speed></extensions></trkpt>
   <trkpt lat="59.3251737927" lon="34.6798583806"><ele>161.315</ele><time>2026-08-16T16:55:08.716Z</time><hdop>3.0</hdop><vdop>2.5</vdop><extensions><gom:speed>1.147</gom:speed></extensions></trkpt>
   <trkpt lat="59.3251890897" lon="34.6798619848"><ele>161.236</ele><time>2026-08-16T16:55:09.952Z</time><hdop>3.0</hdop><vdop>2.5</vdop><extensions><gom:speed>1.222</gom:speed></extensions></trkpt>
   <trkpt lat="59.3251969687" lon="34.6798634935"><ele>161.168</ele><time>2026-08-16T16:55:10.610Z</time><hdop>3.0</hdop><vdop>2.5</vdop><extensions><gom:speed>1.198</gom:speed></extensions></trkpt>
   <trkpt lat="59.3252027941" lon="34.6798667625"><ele>161.127</ele><time>2026-08-16T16:55:11.111Z</time><hdop>3.0</hdop><vdop>2.5</vdop><extensions><gom:speed>1.193</gom:speed></extensions></trkpt>
   <trkpt lat="59.3252104635" lon="34.6798709534"><ele>160.972</ele><time>2026-08-16T16:55:11.807Z</time><hdop>3.0</hdop><vdop>2.5</vdop><extensions><gom:speed>1.15</gom:speed></extensions></trkpt>
   <trkpt lat="59.3252146964" lon="34.6798741385"><ele>160.825</ele><time>2026-08-16T16:55:12.308Z</time><hdop>3.0</hdop><vdop>2.5</vdop><extensions><gom:speed>1.123</gom:speed></extensions></trkpt>
   <trkpt lat="59.3252214857" lon="34.6798815984"><ele>160.737</ele><time>2026-08-16T16:55:13.054Z</time><hdop>3.0</hdop><vdop>2.5</vdop><extensions><gom:speed>1.136</gom:speed></extensions></trkpt>
   <trkpt lat="59.3252318793" lon="34.6798837777"><ele>160.7</ele><time>2026-08-16T16:55:14.136Z</time><hdop>3.0</hdop><vdop>2.5</vdop><extensions><gom:speed>1.138</gom:speed></extensions></trkpt>
   <trkpt lat="59.3252382914" lon="34.6798852865"><ele>160.679</ele><time>2026-08-16T16:55:14.732Z</time><hdop>3.0</hdop><vdop>2.5</vdop><extensions><gom:speed>1.115</gom:speed></extensions></trkpt>
   <trkpt lat="59.3252458771" lon="34.6798855379"><ele>160.726</ele><time>2026-08-16T16:55:15.409Z</time><hdop>3.0</hdop><vdop>2.5</vdop><extensions><gom:speed>1.101</gom:speed></extensions></trkpt>
   <trkpt lat="59.3252516606" lon="34.6798881363"><ele>160.755</ele><time>2026-08-16T16:55:15.949Z</time><hdop>3.0</hdop><vdop>2.5</vdop><extensions><gom:speed>1.11</gom:speed></extensions></trkpt>
   <trkpt lat="59.3252599587" lon="34.6798909862"><ele>160.753</ele><time>2026-08-16T16:55:16.715Z</time><hdop>3.0</hdop><vdop>2.5</vdop><extensions><gom:speed>1.1</gom:speed></extensions></trkpt>
   <trkpt lat="59.3252656583" lon="34.6798922435"><ele>160.686</ele><time>2026-08-16T16:55:17.196Z</time><hdop>3.0</hdop><vdop>2.5</vdop><extensions><gom:speed>1.151</gom:speed></extensions></trkpt>
   <trkpt lat="59.3252739983" lon="34.6798960991"><ele>160.645</ele><time>2026-08-16T16:55:17.991Z</time><hdop>3.0</hdop><vdop>2.5</vdop><extensions><gom:speed>1.087</gom:speed></extensions></trkpt>
   <trkpt lat="59.3252794885" lon="34.6798957639"><ele>160.542</ele><time>2026-08-16T16:55:18.491Z</time><hdop>3.0</hdop><vdop>2.5</vdop><extensions><gom:speed>1.059</gom:speed></extensions></trkpt>
   <trkpt lat="59.3252859845" lon="34.679898027"><ele>160.402</ele><time>2026-08-16T16:55:19.136Z</time><hdop>3.0</hdop><vdop>2.5</vdop><extensions><gom:speed>1.056</gom:speed></extensions></trkpt>
   <trkpt lat="59.3252919775" lon="34.6799013797"><ele>160.319</ele><time>2026-08-16T16:55:19.727Z</time><hdop>3.0</hdop><vdop>2.5</vdop><extensions><gom:speed>1.066</gom:speed></extensions></trkpt>
   <trkpt lat="59.3253042989" lon="34.6799039781"><ele>160.351</ele><time>2026-08-16T16:55:20.876Z</time><hdop>3.0</hdop><vdop>2.5</vdop><extensions><gom:speed>1.088</gom:speed></extensions></trkpt>
   <trkpt lat="59.3253175842" lon="34.6798986975"><ele>160.379</ele><time>2026-08-16T16:55:22.136Z</time><hdop>3.0</hdop><vdop>2.5</vdop><extensions><gom:speed>1.067</gom:speed></extensions></trkpt>
   <trkpt lat="59.3253274749" lon="34.6798975241"><ele>160.396</ele><time>2026-08-16T16:55:23.035Z</time><hdop>3.0</hdop><vdop>2.5</vdop><extensions><gom:speed>1.072</gom:speed></extensions></trkpt>
   <trkpt lat="59.3253344738" lon="34.679896183"><ele>160.401</ele><time>2026-08-16T16:55:23.595Z</time><hdop>3.0</hdop><vdop>2.5</vdop><extensions><gom:speed>1.106</gom:speed></extensions></trkpt>
   <trkpt lat="59.3253399639" lon="34.679890148"><ele>160.28</ele><time>2026-08-16T16:55:24.136Z</time><hdop>3.0</hdop><vdop>2.5</vdop><extensions><gom:speed>1.164</gom:speed></extensions></trkpt>
   <trkpt lat="59.3253456636" lon="34.6798761502"><ele>160.208</ele><time>2026-08-16T16:55:24.851Z</time><hdop>3.0</hdop><vdop>2.5</vdop><extensions><gom:speed>1.174</gom:speed></extensions></trkpt>
   <trkpt lat="59.3253452864" lon="34.6798464783"><ele>160.15</ele><time>2026-08-16T16:55:25.871Z</time><hdop>3.0</hdop><vdop>2.5</vdop><extensions><gom:speed>1.27</gom:speed></extensions></trkpt>
   <trkpt lat="59.3253397963" lon="34.6798264455"><ele>160.078</ele><time>2026-08-16T16:55:26.667Z</time><hdop>3.0</hdop><vdop>2.5</vdop><extensions><gom:speed>1.19</gom:speed></extensions></trkpt>
   <trkpt lat="59.3253364854" lon="34.6798148785"><ele>160.022</ele><time>2026-08-16T16:55:27.136Z</time><hdop>3.0</hdop><vdop>2.5</vdop><extensions><gom:speed>1.248</gom:speed></extensions></trkpt>
   <trkpt lat="59.3253323783" lon="34.6797957678"><ele>159.989</ele><time>2026-08-16T16:55:27.893Z</time><hdop>3.0</hdop><vdop>2.5</vdop><extensions><gom:speed>1.255</gom:speed></extensions></trkpt>
   <trkpt lat="59.3253290674" lon="34.679780848"><ele>160.117</ele><time>2026-08-16T16:55:28.393Z</time><hdop>3.0</hdop><vdop>2.5</vdop><extensions><gom:speed>1.318</gom:speed></extensions></trkpt>
   <trkpt lat="59.3253251699" lon="34.6797636651"><ele>159.965</ele><time>2026-08-16T16:55:29.136Z</time><hdop>3.0</hdop><vdop>2.5</vdop><extensions><gom:speed>1.207</gom:speed></extensions></trkpt>
   <trkpt lat="59.3253210627" lon="34.679742375"><ele>160.049</ele><time>2026-08-16T16:55:30.136Z</time><hdop>3.0</hdop><vdop>2.5</vdop><extensions><gom:speed>1.228</gom:speed></extensions></trkpt>
   <trkpt lat="59.3253192606" lon="34.6797300536"><ele>160.099</ele><time>2026-08-16T16:55:30.651Z</time><hdop>3.0</hdop><vdop>2.5</vdop><extensions><gom:speed>1.262</gom:speed></extensions></trkpt>
   <trkpt lat="59.3253188834" lon="34.6797189895"><ele>160.061</ele><time>2026-08-16T16:55:31.136Z</time><hdop>3.0</hdop><vdop>2.5</vdop><extensions><gom:speed>1.274</gom:speed></extensions></trkpt>
   <trkpt lat="59.3253186739" lon="34.6797039859"><ele>160.038</ele><time>2026-08-16T16:55:31.751Z</time><hdop>3.0</hdop><vdop>2.5</vdop><extensions><gom:speed>1.295</gom:speed></extensions></trkpt>
   <trkpt lat="59.3253193863" lon="34.6796867192"><ele>160.012</ele><time>2026-08-16T16:55:32.447Z</time><hdop>3.0</hdop><vdop>2.5</vdop><extensions><gom:speed>1.308</gom:speed></extensions></trkpt>
   <trkpt lat="59.3253203922" lon="34.6796740625"><ele>159.996</ele><time>2026-08-16T16:55:32.948Z</time><hdop>3.0</hdop><vdop>2.5</vdop><extensions><gom:speed>1.302</gom:speed></extensions></trkpt>
   <trkpt lat="59.3253225715" lon="34.6796476595"><ele>160.005</ele><time>2026-08-16T16:55:34.008Z</time><hdop>3.0</hdop><vdop>2.5</vdop><extensions><gom:speed>1.329</gom:speed></extensions></trkpt>
   <trkpt lat="59.3253234935" lon="34.6796220947"><ele>160.102</ele><time>2026-08-16T16:55:35.136Z</time><hdop>3.0</hdop><vdop>2.5</vdop><extensions><gom:speed>1.281</gom:speed></extensions></trkpt>
   <trkpt lat="59.3253242898" lon="34.6795989607"><ele>160.31</ele><time>2026-08-16T16:55:36.136Z</time><hdop>3.0</hdop><vdop>2.5</vdop><extensions><gom:speed>1.288</gom:speed></extensions></trkpt>
   <trkpt lat="59.3253247927" lon="34.6795749884"><ele>160.473</ele><time>2026-08-16T16:55:37.136Z</time><hdop>3.0</hdop><vdop>2.5</vdop><extensions><gom:speed>1.282</gom:speed></extensions></trkpt>
   <trkpt lat="59.3253262595" lon="34.6795526926"><ele>160.571</ele><time>2026-08-16T16:55:38.051Z</time><hdop>3.0</hdop><vdop>2.5</vdop><extensions><gom:speed>1.259</gom:speed></extensions></trkpt>
   <trkpt lat="59.3253265948" lon="34.6795417961"><ele>160.653</ele><time>2026-08-16T16:55:38.513Z</time><hdop>3.0</hdop><vdop>2.5</vdop><extensions><gom:speed>1.274</gom:speed></extensions></trkpt>
   <trkpt lat="59.3253259661" lon="34.6795285527"><ele>160.71</ele><time>2026-08-16T16:55:39.136Z</time><hdop>3.0</hdop><vdop>2.5</vdop><extensions><gom:speed>1.252</gom:speed></extensions></trkpt>
   <trkpt lat="59.325325086" lon="34.6795183268"><ele>160.744</ele><time>2026-08-16T16:55:39.592Z</time><hdop>3.0</hdop><vdop>2.5</vdop><extensions><gom:speed>1.245</gom:speed></extensions></trkpt>
   <trkpt lat="59.3253236611" lon="34.6795066759"><ele>160.647</ele><time>2026-08-16T16:55:40.136Z</time><hdop>3.0</hdop><vdop>2.5</vdop><extensions><gom:speed>1.225</gom:speed></extensions></trkpt>
   <trkpt lat="59.3253233677" lon="34.6794929296"><ele>160.59</ele><time>2026-08-16T16:55:40.731Z</time><hdop>3.0</hdop><vdop>2.5</vdop><extensions><gom:speed>1.228</gom:speed></extensions></trkpt>
   <trkpt lat="59.3253220686" lon="34.679466359"><ele>160.839</ele><time>2026-08-16T16:55:41.889Z</time><hdop>3.0</hdop><vdop>2.5</vdop><extensions><gom:speed>1.241</gom:speed></extensions></trkpt>
   <trkpt lat="59.325320476" lon="34.6794401236"><ele>161.211</ele><time>2026-08-16T16:55:43.008Z</time><hdop>3.0</hdop><vdop>2.5</vdop><extensions><gom:speed>1.251</gom:speed></extensions></trkpt>
   <trkpt lat="59.3253205598" lon="34.6794231922"><ele>161.384</ele><time>2026-08-16T16:55:43.754Z</time><hdop>3.0</hdop><vdop>2.5</vdop><extensions><gom:speed>1.262</gom:speed></extensions></trkpt>
   <trkpt lat="59.3253201826" lon="34.6794131339"><ele>161.515</ele><time>2026-08-16T16:55:44.214Z</time><hdop>3.0</hdop><vdop>2.5</vdop><extensions><gom:speed>1.257</gom:speed></extensions></trkpt>
   <trkpt lat="59.325319093" lon="34.679397795"><ele>161.594</ele><time>2026-08-16T16:55:44.892Z</time><hdop>3.0</hdop><vdop>2.5</vdop><extensions><gom:speed>1.24</gom:speed></extensions></trkpt>
   <trkpt lat="59.3253187996" lon="34.6793872338"><ele>161.679</ele><time>2026-08-16T16:55:45.373Z</time><hdop>3.0</hdop><vdop>2.5</vdop><extensions><gom:speed>1.223</gom:speed></extensions></trkpt>
   <trkpt lat="59.3253185901" lon="34.6793714758"><ele>161.73</ele><time>2026-08-16T16:55:46.031Z</time><hdop>3.0</hdop><vdop>2.5</vdop><extensions><gom:speed>1.229</gom:speed></extensions></trkpt>
   <trkpt lat="59.3253194702" lon="34.6793614175"><ele>161.721</ele><time>2026-08-16T16:55:46.512Z</time><hdop>3.0</hdop><vdop>2.5</vdop><extensions><gom:speed>1.233</gom:speed></extensions></trkpt>
   <trkpt lat="59.3253200988" lon="34.6793484256"><ele>161.866</ele><time>2026-08-16T16:55:47.136Z</time><hdop>3.0</hdop><vdop>2.5</vdop><extensions><gom:speed>1.206</gom:speed></extensions></trkpt>
   <trkpt lat="59.3253201826" lon="34.6793375291"><ele>161.952</ele><time>2026-08-16T16:55:47.632Z</time><hdop>3.0</hdop><vdop>2.5</vdop><extensions><gom:speed>1.221</gom:speed></extensions></trkpt>
   <trkpt lat="59.3253201826" lon="34.6793267165"><ele>162.044</ele><time>2026-08-16T16:55:48.136Z</time><hdop>3.0</hdop><vdop>2.5</vdop><extensions><gom:speed>1.206</gom:speed></extensions></trkpt>
   <trkpt lat="59.325320476" lon="34.6793100365"><ele>162.098</ele><time>2026-08-16T16:55:48.829Z</time><hdop>3.0</hdop><vdop>2.5</vdop><extensions><gom:speed>1.242</gom:speed></extensions></trkpt>
   <trkpt lat="59.3253210627" lon="34.6792937756"><ele>162.167</ele><time>2026-08-16T16:55:49.467Z</time><hdop>3.0</hdop><vdop>2.5</vdop><extensions><gom:speed>1.291</gom:speed></extensions></trkpt>
   <trkpt lat="59.3253210627" lon="34.6792806998"><ele>162.209</ele><time>2026-08-16T16:55:49.968Z</time><hdop>3.0</hdop><vdop>2.5</vdop><extensions><gom:speed>1.294</gom:speed></extensions></trkpt>
   <trkpt lat="59.3253210627" lon="34.6792545483"><ele>162.243</ele><time>2026-08-16T16:55:51.047Z</time><hdop>3.0</hdop><vdop>2.5</vdop><extensions><gom:speed>1.287</gom:speed></extensions></trkpt>
   <trkpt lat="59.3253206855" lon="34.6792310789"><ele>162.189</ele><time>2026-08-16T16:55:52.136Z</time><hdop>3.0</hdop><vdop>2.5</vdop><extensions><gom:speed>1.268</gom:speed></extensions></trkpt>
   <trkpt lat="59.3253193863" lon="34.6792082802"><ele>162.224</ele><time>2026-08-16T16:55:53.136Z</time><hdop>3.0</hdop><vdop>2.5</vdop><extensions><gom:speed>1.272</gom:speed></extensions></trkpt>
   <trkpt lat="59.3253185901" lon="34.6791852299"><ele>162.285</ele><time>2026-08-16T16:55:54.136Z</time><hdop>3.0</hdop><vdop>2.5</vdop><extensions><gom:speed>1.237</gom:speed></extensions></trkpt>
   <trkpt lat="59.3253187996" lon="34.6791624312"><ele>162.323</ele><time>2026-08-16T16:55:55.136Z</time><hdop>3.0</hdop><vdop>2.5</vdop><extensions><gom:speed>1.202</gom:speed></extensions></trkpt>
   <trkpt lat="59.3253180872" lon="34.6791505288"><ele>162.346</ele><time>2026-08-16T16:55:55.632Z</time><hdop>3.0</hdop><vdop>2.5</vdop><extensions><gom:speed>1.242</gom:speed></extensions></trkpt>
   <trkpt lat="59.325318171" lon="34.6791389618"><ele>162.245</ele><time>2026-08-16T16:55:56.136Z</time><hdop>3.0</hdop><vdop>2.5</vdop><extensions><gom:speed>1.263</gom:speed></extensions></trkpt>
   <trkpt lat="59.3253185901" lon="34.67912312"><ele>162.185</ele><time>2026-08-16T16:55:56.751Z</time><hdop>3.0</hdop><vdop>2.5</vdop><extensions><gom:speed>1.284</gom:speed></extensions></trkpt>
   <trkpt lat="59.3253187996" lon="34.6791082841"><ele>162.251</ele><time>2026-08-16T16:55:57.408Z</time><hdop>3.0</hdop><vdop>2.5</vdop><extensions><gom:speed>1.285</gom:speed></extensions></trkpt>
   <trkpt lat="59.3253186739" lon="34.6790961303"><ele>162.29</ele><time>2026-08-16T16:55:57.889Z</time><hdop>3.0</hdop><vdop>2.5</vdop><extensions><gom:speed>1.284</gom:speed></extensions></trkpt>
   <trkpt lat="59.325319093" lon="34.6790694758"><ele>162.449</ele><time>2026-08-16T16:55:59.027Z</time><hdop>3.0</hdop><vdop>2.5</vdop><extensions><gom:speed>1.289</gom:speed></extensions></trkpt>
   <trkpt lat="59.3253179614" lon="34.6790509518"><ele>162.568</ele><time>2026-08-16T16:55:59.734Z</time><hdop>3.0</hdop><vdop>2.5</vdop><extensions><gom:speed>1.34</gom:speed></extensions></trkpt>
   <trkpt lat="59.325316285" lon="34.6790398877"><ele>162.689</ele><time>2026-08-16T16:56:00.195Z</time><hdop>3.0</hdop><vdop>2.5</vdop><extensions><gom:speed>1.323</gom:speed></extensions></trkpt>
   <trkpt lat="59.3253143991" lon="34.6790221181"><ele>162.761</ele><time>2026-08-16T16:56:00.891Z</time><hdop>3.0</hdop><vdop>2.5</vdop><extensions><gom:speed>1.329</gom:speed></extensions></trkpt>
   <trkpt lat="59.3253123875" lon="34.6790125627"><ele>162.909</ele><time>2026-08-16T16:56:01.373Z</time><hdop>3.0</hdop><vdop>2.5</vdop><extensions><gom:speed>1.286</gom:speed></extensions></trkpt>
   <trkpt lat="59.3253108787" lon="34.6789965533"><ele>162.997</ele><time>2026-08-16T16:56:02.050Z</time><hdop>3.0</hdop><vdop>2.5</vdop><extensions><gom:speed>1.252</gom:speed></extensions></trkpt>
   <trkpt lat="59.3253075679" lon="34.6789729163"><ele>162.706</ele><time>2026-08-16T16:56:03.136Z</time><hdop>3.0</hdop><vdop>2.5</vdop><extensions><gom:speed>1.325</gom:speed></extensions></trkpt>
   <trkpt lat="59.3253038798" lon="34.6789509557"><ele>162.484</ele><time>2026-08-16T16:56:04.136Z</time><hdop>3.0</hdop><vdop>2.5</vdop><extensions><gom:speed>1.272</gom:speed></extensions></trkpt>
   <trkpt lat="59.3253020777" lon="34.6789377961"><ele>162.351</ele><time>2026-08-16T16:56:04.710Z</time><hdop>3.0</hdop><vdop>2.5</vdop><extensions><gom:speed>1.282</gom:speed></extensions></trkpt>
   <trkpt lat="59.3252979706" lon="34.6789153326"><ele>162.49</ele><time>2026-08-16T16:56:05.750Z</time><hdop>3.0</hdop><vdop>2.5</vdop><extensions><gom:speed>1.256</gom:speed></extensions></trkpt>
   <trkpt lat="59.3252935701" lon="34.6788913604"><ele>162.679</ele><time>2026-08-16T16:56:06.908Z</time><hdop>3.0</hdop><vdop>2.5</vdop><extensions><gom:speed>1.222</gom:speed></extensions></trkpt>
   <trkpt lat="59.3252902592" lon="34.6788751833"><ele>162.736</ele><time>2026-08-16T16:56:07.713Z</time><hdop>3.0</hdop><vdop>2.5</vdop><extensions><gom:speed>1.214</gom:speed></extensions></trkpt>
   <trkpt lat="59.325286194" lon="34.6788467687"><ele>162.855</ele><time>2026-08-16T16:56:09.136Z</time><hdop>3.0</hdop><vdop>2.5</vdop><extensions><gom:speed>1.174</gom:speed></extensions></trkpt>
   <trkpt lat="59.3252824641" lon="34.6788233832"><ele>162.744</ele><time>2026-08-16T16:56:10.136Z</time><hdop>3.0</hdop><vdop>2.5</vdop><extensions><gom:speed>1.403</gom:speed></extensions></trkpt>
   <trkpt lat="59.3252794885" lon="34.6787978184"><ele>162.564</ele><time>2026-08-16T16:56:11.136Z</time><hdop>3.0</hdop><vdop>2.5</vdop><extensions><gom:speed>1.363</gom:speed></extensions></trkpt>
   <trkpt lat="59.3252794885" lon="34.6787780371"><ele>162.715</ele><time>2026-08-16T16:56:12.136Z</time><hdop>3.0</hdop><vdop>2.5</vdop><extensions><gom:speed>1.197</gom:speed></extensions></trkpt>
   <trkpt lat="59.3252799914" lon="34.6787654642"><ele>162.805</ele><time>2026-08-16T16:56:12.748Z</time><hdop>3.0</hdop><vdop>2.5</vdop><extensions><gom:speed>1.259</gom:speed></extensions></trkpt>
   <trkpt lat="59.3252782731" lon="34.6787418272"><ele>162.812</ele><time>2026-08-16T16:56:13.867Z</time><hdop>3.0</hdop><vdop>2.5</vdop><extensions><gom:speed>1.316</gom:speed></extensions></trkpt>
   <trkpt lat="59.3252725734" lon="34.6787145861"><ele>162.748</ele><time>2026-08-16T16:56:15.136Z</time><hdop>3.0</hdop><vdop>2.5</vdop><extensions><gom:speed>1.336</gom:speed></extensions></trkpt>
   <trkpt lat="59.3252665804" lon="34.67869514"><ele>162.921</ele><time>2026-08-16T16:56:16.136Z</time><hdop>3.0</hdop><vdop>2.5</vdop><extensions><gom:speed>1.317</gom:speed></extensions></trkpt>
   <trkpt lat="59.3252642753" lon="34.6786794659"><ele>162.624</ele><time>2026-08-16T16:56:17.136Z</time><hdop>3.0</hdop><vdop>2.5</vdop><extensions><gom:speed>1.114</gom:speed></extensions></trkpt>
   <trkpt lat="59.3252646944" lon="34.6786665578"><ele>162.593</ele><time>2026-08-16T16:56:18.136Z</time><hdop>3.0</hdop><vdop>2.5</vdop><extensions><gom:speed>1.032</gom:speed></extensions></trkpt>
   <trkpt lat="59.3252651973" lon="34.6786528953"><ele>162.37</ele><time>2026-08-16T16:56:19.136Z</time><hdop>3.0</hdop><vdop>2.5</vdop><extensions><gom:speed>1.072</gom:speed></extensions></trkpt>
   <trkpt lat="59.3252661613" lon="34.6786421664"><ele>162.236</ele><time>2026-08-16T16:56:19.756Z</time><hdop>3.0</hdop><vdop>2.5</vdop><extensions><gom:speed>1.11</gom:speed></extensions></trkpt>
   <trkpt lat="59.3252691787" lon="34.6786256541"><ele>162.523</ele><time>2026-08-16T16:56:20.590Z</time><hdop>3.0</hdop><vdop>2.5</vdop><extensions><gom:speed>1.28</gom:speed></extensions></trkpt>
   <trkpt lat="59.3252721962" lon="34.678613668"><ele>162.892</ele><time>2026-08-16T16:56:21.136Z</time><hdop>3.062</hdop><vdop>2.5</vdop><extensions><gom:speed>1.372</gom:speed></extensions></trkpt>
   <trkpt lat="59.3252745851" lon="34.6785902824"><ele>163.112</ele><time>2026-08-16T16:56:22.111Z</time><hdop>3.062</hdop><vdop>2.5</vdop><extensions><gom:speed>1.307</gom:speed></extensions></trkpt>
   <trkpt lat="59.3252748784" lon="34.6785716746"><ele>163.406</ele><time>2026-08-16T16:56:23.136Z</time><hdop>3.125</hdop><vdop>2.5</vdop><extensions><gom:speed>1.15</gom:speed></extensions></trkpt>
   <trkpt lat="59.325276471" lon="34.678551558"><ele>163.581</ele><time>2026-08-16T16:56:24.113Z</time><hdop>3.125</hdop><vdop>2.5</vdop><extensions><gom:speed>1.154</gom:speed></extensions></trkpt>
   <trkpt lat="59.3252774768" lon="34.6785362192"><ele>163.511</ele><time>2026-08-16T16:56:25.136Z</time><hdop>3.062</hdop><vdop>2.5</vdop><extensions><gom:speed>1.069</gom:speed></extensions></trkpt>
   <trkpt lat="59.3252785665" lon="34.6785240654"><ele>163.468</ele><time>2026-08-16T16:56:25.733Z</time><hdop>3.062</hdop><vdop>2.5</vdop><extensions><gom:speed>1.118</gom:speed></extensions></trkpt>
   <trkpt lat="59.3252774768" lon="34.6785091456"><ele>163.751</ele><time>2026-08-16T16:56:26.528Z</time><hdop>3.0</hdop><vdop>2.5</vdop><extensions><gom:speed>1.102</gom:speed></extensions></trkpt>
   <trkpt lat="59.3252746689" lon="34.6784958184"><ele>163.094</ele><time>2026-08-16T16:56:27.136Z</time><hdop>3.0</hdop><vdop>2.5</vdop><extensions><gom:speed>1.207</gom:speed></extensions></trkpt>
   <trkpt lat="59.3252722801" lon="34.6784823235"><ele>162.702</ele><time>2026-08-16T16:56:27.735Z</time><hdop>3.0</hdop><vdop>2.5</vdop><extensions><gom:speed>1.185</gom:speed></extensions></trkpt>
   <trkpt lat="59.3252644849" lon="34.6784544956"><ele>162.555</ele><time>2026-08-16T16:56:29.136Z</time><hdop>3.0</hdop><vdop>2.5</vdop><extensions><gom:speed>1.125</gom:speed></extensions></trkpt>
   <trkpt lat="59.3252606711" lon="34.6784390729"><ele>162.615</ele><time>2026-08-16T16:56:30.136Z</time><hdop>3.0</hdop><vdop>2.5</vdop><extensions><gom:speed>0.994</gom:speed></extensions></trkpt>
   <trkpt lat="59.3252598748" lon="34.6784305234"><ele>162.652</ele><time>2026-08-16T16:56:30.630Z</time><hdop>3.0</hdop><vdop>2.5</vdop><extensions><gom:speed>1.013</gom:speed></extensions></trkpt>
   <trkpt lat="59.325258869" lon="34.6784227282"><ele>162.924</ele><time>2026-08-16T16:56:31.136Z</time><hdop>3.0</hdop><vdop>2.5</vdop><extensions><gom:speed>1.075</gom:speed></extensions></trkpt>
   <trkpt lat="59.3252562706" lon="34.6784069702"><ele>163.087</ele><time>2026-08-16T16:56:31.975Z</time><hdop>3.0</hdop><vdop>2.5</vdop><extensions><gom:speed>1.083</gom:speed></extensions></trkpt>
   <trkpt lat="59.3252519958" lon="34.6784072217"><ele>163.078</ele><time>2026-08-16T16:56:33.136Z</time><hdop>3.0</hdop><vdop>2.5</vdop><extensions><gom:speed>0.565</gom:speed></extensions></trkpt>
   <trkpt lat="59.3252501937" lon="34.6784114964"><ele>163.226</ele><time>2026-08-16T16:56:34.136Z</time><hdop>3.0</hdop><vdop>2.5</vdop><extensions><gom:speed>0.383</gom:speed></extensions></trkpt>
   <trkpt lat="59.3252501937" lon="34.678415855"><ele>163.246</ele><time>2026-08-16T16:56:35.136Z</time><hdop>3.0</hdop><vdop>2.5</vdop><extensions><gom:speed>0.26</gom:speed></extensions></trkpt>
   <trkpt lat="59.3252503614" lon="34.6784156874"><ele>163.258</ele><time>2026-08-16T16:56:35.818Z</time><hdop>3.0</hdop><vdop>2.5</vdop><extensions><gom:speed>0.2</gom:speed></extensions></trkpt>
   <trkpt lat="59.3252512834" lon="34.6784178667"><ele>163.257</ele><time>2026-08-16T16:56:36.770Z</time><hdop>3.0</hdop><vdop>2.5</vdop><extensions><gom:speed>0.154</gom:speed></extensions></trkpt>
   <trkpt lat="59.3252526664" lon="34.6784225606"><ele>163.322</ele><time>2026-08-16T16:56:38.136Z</time><hdop>3.0</hdop><vdop>2.5</vdop><extensions><gom:speed>0.153</gom:speed></extensions></trkpt>
   <trkpt lat="59.3252524988" lon="34.6784241531"><ele>163.361</ele><time>2026-08-16T16:56:39.058Z</time><hdop>3.0</hdop><vdop>2.5</vdop><extensions><gom:speed>0.138</gom:speed></extensions></trkpt>
   <trkpt lat="59.3252539656" lon="34.6784244884"><ele>163.346</ele><time>2026-08-16T16:56:40.136Z</time><hdop>3.0</hdop><vdop>2.5</vdop><extensions><gom:speed>0.119</gom:speed></extensions></trkpt>
   <trkpt lat="59.325255181" lon="34.678423734"><ele>163.304</ele><time>2026-08-16T16:56:41.136Z</time><hdop>3.0</hdop><vdop>2.5</vdop><extensions><gom:speed>0.098</gom:speed></extensions></trkpt>
   <trkpt lat="59.3252561868" lon="34.6784240693"><ele>163.333</ele><time>2026-08-16T16:56:42.136Z</time><hdop>3.0</hdop><vdop>2.5</vdop><extensions><gom:speed>0.09</gom:speed></extensions></trkpt>
   <trkpt lat="59.3252571926" lon="34.6784251589"><ele>163.315</ele><time>2026-08-16T16:56:43.136Z</time><hdop>3.0</hdop><vdop>2.5</vdop><extensions><gom:speed>0.085</gom:speed></extensions></trkpt>
   <trkpt lat="59.3252573603" lon="34.6784250751"><ele>163.205</ele><time>2026-08-16T16:56:44.136Z</time><hdop>3.0</hdop><vdop>2.5</vdop><extensions><gom:speed>0.102</gom:speed></extensions></trkpt>
   <trkpt lat="59.3252572764" lon="34.678424656"><ele>163.14</ele><time>2026-08-16T16:56:44.996Z</time><hdop>3.0</hdop><vdop>2.5</vdop><extensions><gom:speed>0.095</gom:speed></extensions></trkpt>
   <trkpt lat="59.3252571926" lon="34.678423734"><ele>163.104</ele><time>2026-08-16T16:56:46.136Z</time><hdop>3.0</hdop><vdop>2.5</vdop><extensions><gom:speed>0.081</gom:speed></extensions></trkpt>
   <trkpt lat="59.3252564802" lon="34.6784233987"><ele>163.089</ele><time>2026-08-16T16:56:47.136Z</time><hdop>3.0</hdop><vdop>2.5</vdop><extensions><gom:speed>0.067</gom:speed></extensions></trkpt>
   <trkpt lat="59.3252564802" lon="34.6784228958"><ele>163.076</ele><time>2026-08-16T16:56:48.136Z</time><hdop>3.0</hdop><vdop>2.5</vdop><extensions><gom:speed>0.091</gom:speed></extensions></trkpt>
   <trkpt lat="59.3252563963" lon="34.6784225606"><ele>163.074</ele><time>2026-08-16T16:56:49.136Z</time><hdop>3.0</hdop><vdop>2.5</vdop><extensions><gom:speed>0.063</gom:speed></extensions></trkpt>
   <trkpt lat="59.3252560611" lon="34.6784220576"><ele>163.04</ele><time>2026-08-16T16:56:50.136Z</time><hdop>3.0</hdop><vdop>2.5</vdop><extensions><gom:speed>0.083</gom:speed></extensions></trkpt>
   <trkpt lat="59.3252560611" lon="34.6784233987"><ele>163.031</ele><time>2026-08-16T16:56:51.136Z</time><hdop>3.0</hdop><vdop>2.5</vdop><extensions><gom:speed>0.08</gom:speed></extensions></trkpt>
   <trkpt lat="59.3252566897" lon="34.6784254942"><ele>162.939</ele><time>2026-08-16T16:56:52.136Z</time><hdop>3.0</hdop><vdop>2.5</vdop><extensions><gom:speed>0.104</gom:speed></extensions></trkpt>
   <trkpt lat="59.3252573603" lon="34.6784268353"><ele>162.932</ele><time>2026-08-16T16:56:53.136Z</time><hdop>3.0</hdop><vdop>2.5</vdop><extensions><gom:speed>0.111</gom:speed></extensions></trkpt>
   <trkpt lat="59.3252569831" lon="34.6784311939"><ele>163.111</ele><time>2026-08-16T16:56:54.136Z</time><hdop>3.0</hdop><vdop>2.5</vdop><extensions><gom:speed>0.189</gom:speed></extensions></trkpt>
   <trkpt lat="59.3252554743" lon="34.6784323674"><ele>163.218</ele><time>2026-08-16T16:56:54.845Z</time><hdop>3.0</hdop><vdop>2.5</vdop><extensions><gom:speed>0.266</gom:speed></extensions></trkpt>
   <trkpt lat="59.3252534627" lon="34.6784316968"><ele>163.166</ele><time>2026-08-16T16:56:56.136Z</time><hdop>3.0</hdop><vdop>2.5</vdop><extensions><gom:speed>0.238</gom:speed></extensions></trkpt>
   <trkpt lat="59.325253798" lon="34.6784314454"><ele>163.075</ele><time>2026-08-16T16:56:57.136Z</time><hdop>3.0</hdop><vdop>2.5</vdop><extensions><gom:speed>0.194</gom:speed></extensions></trkpt>
   <trkpt lat="59.3252531693" lon="34.6784322836"><ele>163.132</ele><time>2026-08-16T16:56:58.136Z</time><hdop>3.0</hdop><vdop>2.5</vdop><extensions><gom:speed>0.158</gom:speed></extensions></trkpt>
   <trkpt lat="59.3252518701" lon="34.6784336247"><ele>163.168</ele><time>2026-08-16T16:56:59.136Z</time><hdop>3.0</hdop><vdop>2.5</vdop><extensions><gom:speed>0.123</gom:speed></extensions></trkpt>
   <trkpt lat="59.3252506966" lon="34.6784353849"><ele>163.195</ele><time>2026-08-16T16:57:00.136Z</time><hdop>3.0</hdop><vdop>2.5</vdop><extensions><gom:speed>0.107</gom:speed></extensions></trkpt>
   <trkpt lat="59.325250068" lon="34.6784353849"><ele>163.195</ele><time>2026-08-16T16:57:01.136Z</time><hdop>3.0</hdop><vdop>2.5</vdop><extensions><gom:speed>0.0</gom:speed></extensions></trkpt>
   <trkpt lat="59.3252498585" lon="34.6784364745"><ele>163.195</ele><time>2026-08-16T16:57:02.136Z</time><hdop>3.0</hdop><vdop>2.5</vdop><extensions><gom:speed>0.05</gom:speed></extensions></trkpt>
   <trkpt lat="59.3252483916" lon="34.6784383185"><ele>163.253</ele><time>2026-08-16T16:57:03.136Z</time><hdop>3.0</hdop><vdop>2.5</vdop><extensions><gom:speed>0.139</gom:speed></extensions></trkpt>
   <trkpt lat="59.3252452903" lon="34.6784415875"><ele>163.197</ele><time>2026-08-16T16:57:04.136Z</time><hdop>3.0</hdop><vdop>2.5</vdop><extensions><gom:speed>0.195</gom:speed></extensions></trkpt>
   <trkpt lat="59.325244494" lon="34.6784417551"><ele>163.164</ele><time>2026-08-16T16:57:04.650Z</time><hdop>3.0</hdop><vdop>2.5</vdop><extensions><gom:speed>0.129</gom:speed></extensions></trkpt>
   <trkpt lat="59.3252432787" lon="34.6784433477"><ele>163.111</ele><time>2026-08-16T16:57:05.136Z</time><hdop>3.0</hdop><vdop>2.5</vdop><extensions><gom:speed>0.127</gom:speed></extensions></trkpt>
   <trkpt lat="59.3252409736" lon="34.678445527"><ele>162.946</ele><time>2026-08-16T16:57:06.135Z</time><hdop>3.0</hdop><vdop>2.5</vdop><extensions><gom:speed>0.153</gom:speed></extensions></trkpt>
   <trkpt lat="59.3252388782" lon="34.6784461975"><ele>162.738</ele><time>2026-08-16T16:57:07.136Z</time><hdop>3.0</hdop><vdop>2.5</vdop><extensions><gom:speed>0.147</gom:speed></extensions></trkpt>
   <trkpt lat="59.3252376628" lon="34.6784442697"><ele>162.66</ele><time>2026-08-16T16:57:08.136Z</time><hdop>3.0</hdop><vdop>2.5</vdop><extensions><gom:speed>0.163</gom:speed></extensions></trkpt>
   <trkpt lat="59.3252372856" lon="34.6784452755"><ele>162.614</ele><time>2026-08-16T16:57:09.105Z</time><hdop>3.0</hdop><vdop>2.5</vdop><extensions><gom:speed>0.241</gom:speed></extensions></trkpt>
   <trkpt lat="59.3252345615" lon="34.6784468681"><ele>162.468</ele><time>2026-08-16T16:57:09.626Z</time><hdop>3.0</hdop><vdop>2.5</vdop><extensions><gom:speed>0.394</gom:speed></extensions></trkpt>
   <trkpt lat="59.3252330947" lon="34.6784468681"><ele>162.335</ele><time>2026-08-16T16:57:10.136Z</time><hdop>3.0</hdop><vdop>2.5</vdop><extensions><gom:speed>0.342</gom:speed></extensions></trkpt>
   <trkpt lat="59.3252308734" lon="34.6784466166"><ele>162.324</ele><time>2026-08-16T16:57:11.136Z</time><hdop>3.0</hdop><vdop>2.5</vdop><extensions><gom:speed>0.216</gom:speed></extensions></trkpt>
   <trkpt lat="59.325230161" lon="34.6784451917"><ele>162.267</ele><time>2026-08-16T16:57:12.136Z</time><hdop>3.0</hdop><vdop>2.5</vdop><extensions><gom:speed>0.156</gom:speed></extensions></trkpt>
   <trkpt lat="59.3252299933" lon="34.6784448564"><ele>162.234</ele><time>2026-08-16T16:57:13.002Z</time><hdop>3.0</hdop><vdop>2.5</vdop><extensions><gom:speed>0.127</gom:speed></extensions></trkpt>
   <trkpt lat="59.3252280655" lon="34.6784442697"><ele>161.972</ele><time>2026-08-16T16:57:14.136Z</time><hdop>3.0</hdop><vdop>2.5</vdop><extensions><gom:speed>0.111</gom:speed></extensions></trkpt>
   <trkpt lat="59.3252263891" lon="34.67844318"><ele>161.748</ele><time>2026-08-16T16:57:15.136Z</time><hdop>3.0</hdop><vdop>2.5</vdop><extensions><gom:speed>0.145</gom:speed></extensions></trkpt>
   <trkpt lat="59.3252250899" lon="34.6784403302"><ele>161.533</ele><time>2026-08-16T16:57:16.136Z</time><hdop>3.0</hdop><vdop>2.5</vdop><extensions><gom:speed>0.175</gom:speed></extensions></trkpt>
   <trkpt lat="59.3252240841" lon="34.6784369774"><ele>161.37</ele><time>2026-08-16T16:57:17.136Z</time><hdop>3.0</hdop><vdop>2.5</vdop><extensions><gom:speed>0.168</gom:speed></extensions></trkpt>
   <trkpt lat="59.3252241679" lon="34.6784351334"><ele>161.273</ele><time>2026-08-16T16:57:18.027Z</time><hdop>3.0</hdop><vdop>2.5</vdop><extensions><gom:speed>0.218</gom:speed></extensions></trkpt>
   <trkpt lat="59.325223665" lon="34.6784312777"><ele>161.415</ele><time>2026-08-16T16:57:19.146Z</time><hdop>3.0</hdop><vdop>2.5</vdop><extensions><gom:speed>0.261</gom:speed></extensions></trkpt>
   <trkpt lat="59.325222282" lon="34.6784295175"><ele>161.45</ele><time>2026-08-16T16:57:20.136Z</time><hdop>3.0</hdop><vdop>2.5</vdop><extensions><gom:speed>0.17</gom:speed></extensions></trkpt>
   <trkpt lat="59.3252218629" lon="34.6784286793"><ele>161.488</ele><time>2026-08-16T16:57:21.136Z</time><hdop>3.0</hdop><vdop>2.5</vdop><extensions><gom:speed>0.154</gom:speed></extensions></trkpt>
   <trkpt lat="59.3252225754" lon="34.6784265839"><ele>161.511</ele><time>2026-08-16T16:57:22.090Z</time><hdop>3.0</hdop><vdop>2.5</vdop><extensions><gom:speed>0.237</gom:speed></extensions></trkpt>
   <trkpt lat="59.3252228687" lon="34.6784241531"><ele>161.471</ele><time>2026-08-16T16:57:23.081Z</time><hdop>3.0</hdop><vdop>2.5</vdop><extensions><gom:speed>0.266</gom:speed></extensions></trkpt>
   <trkpt lat="59.3252223658" lon="34.6784233987"><ele>161.422</ele><time>2026-08-16T16:57:23.562Z</time><hdop>3.0</hdop><vdop>2.5</vdop><extensions><gom:speed>0.273</gom:speed></extensions></trkpt>
   <trkpt lat="59.3252217791" lon="34.6784221415"><ele>161.37</ele><time>2026-08-16T16:57:24.136Z</time><hdop>3.0</hdop><vdop>2.5</vdop><extensions><gom:speed>0.227</gom:speed></extensions></trkpt>
   <trkpt lat="59.3252210666" lon="34.6784202974"><ele>161.232</ele><time>2026-08-16T16:57:25.135Z</time><hdop>3.0</hdop><vdop>2.5</vdop><extensions><gom:speed>0.191</gom:speed></extensions></trkpt>
   <trkpt lat="59.3252207733" lon="34.6784188725"><ele>161.159</ele><time>2026-08-16T16:57:26.136Z</time><hdop>3.0</hdop><vdop>2.5</vdop><extensions><gom:speed>0.119</gom:speed></extensions></trkpt>
   <trkpt lat="59.325220899" lon="34.6784184534"><ele>161.115</ele><time>2026-08-16T16:57:27.136Z</time><hdop>3.0</hdop><vdop>2.5</vdop><extensions><gom:speed>0.112</gom:speed></extensions></trkpt>
   <trkpt lat="59.325220899" lon="34.6784179505"><ele>161.059</ele><time>2026-08-16T16:57:28.136Z</time><hdop>3.0</hdop><vdop>2.5</vdop><extensions><gom:speed>0.088</gom:speed></extensions></trkpt>
   <trkpt lat="59.3252205637" lon="34.6784180343"><ele>161.014</ele><time>2026-08-16T16:57:29.136Z</time><hdop>3.0</hdop><vdop>2.5</vdop><extensions><gom:speed>0.09</gom:speed></extensions></trkpt>
   <trkpt lat="59.3252204799" lon="34.6784171961"><ele>160.988</ele><time>2026-08-16T16:57:30.136Z</time><hdop>3.0</hdop><vdop>2.5</vdop><extensions><gom:speed>0.096</gom:speed></extensions></trkpt>
   <trkpt lat="59.3252203961" lon="34.6784155198"><ele>160.983</ele><time>2026-08-16T16:57:31.136Z</time><hdop>3.0</hdop><vdop>2.5</vdop><extensions><gom:speed>0.106</gom:speed></extensions></trkpt>
   <trkpt lat="59.3252201865" lon="34.6784147654"><ele>160.991</ele><time>2026-08-16T16:57:32.136Z</time><hdop>3.0</hdop><vdop>2.5</vdop><extensions><gom:speed>0.073</gom:speed></extensions></trkpt>
   <trkpt lat="59.325219977" lon="34.6784144301"><ele>161.042</ele><time>2026-08-16T16:57:33.136Z</time><hdop>3.0</hdop><vdop>2.5</vdop><extensions><gom:speed>0.073</gom:speed></extensions></trkpt>
   <trkpt lat="59.3252197674" lon="34.6784141787"><ele>161.075</ele><time>2026-08-16T16:57:34.136Z</time><hdop>3.0</hdop><vdop>2.5</vdop><extensions><gom:speed>0.061</gom:speed></extensions></trkpt>
   <trkpt lat="59.3252194741" lon="34.6784142625"><ele>161.149</ele><time>2026-08-16T16:57:35.136Z</time><hdop>3.0</hdop><vdop>2.5</vdop><extensions><gom:speed>0.089</gom:speed></extensions></trkpt>
   <trkpt lat="59.3252191807" lon="34.6784137596"><ele>161.195</ele><time>2026-08-16T16:57:36.136Z</time><hdop>3.0</hdop><vdop>2.5</vdop><extensions><gom:speed>0.057</gom:speed></extensions></trkpt>
   <trkpt lat="59.3252193902" lon="34.6784141787"><ele>161.223</ele><time>2026-08-16T16:57:36.644Z</time><hdop>3.0</hdop><vdop>2.5</vdop><extensions><gom:speed>0.02</gom:speed></extensions></trkpt>
   <trkpt lat="59.3252191807" lon="34.6784142625"><ele>160.94</ele><time>2026-08-16T16:57:37.135Z</time><hdop>3.0</hdop><vdop>2.5</vdop><extensions><gom:speed>0.064</gom:speed></extensions></trkpt>
   <trkpt lat="59.3252183844" lon="34.6784133405"><ele>160.703</ele><time>2026-08-16T16:57:38.136Z</time><hdop>3.0</hdop><vdop>2.5</vdop><extensions><gom:speed>0.084</gom:speed></extensions></trkpt>
   <trkpt lat="59.3252174624" lon="34.678413089"><ele>160.563</ele><time>2026-08-16T16:57:39.136Z</time><hdop>3.0</hdop><vdop>2.5</vdop><extensions><gom:speed>0.108</gom:speed></extensions></trkpt>
   <trkpt lat="59.3252167919" lon="34.6784125861"><ele>160.459</ele><time>2026-08-16T16:57:40.135Z</time><hdop>3.0</hdop><vdop>2.625</vdop><extensions><gom:speed>0.072</gom:speed></extensions></trkpt>
   <trkpt lat="59.3252159956" lon="34.6784123346"><ele>160.406</ele><time>2026-08-16T16:57:41.136Z</time><hdop>3.0</hdop><vdop>2.75</vdop><extensions><gom:speed>0.086</gom:speed></extensions></trkpt>
   <trkpt lat="59.3252156603" lon="34.678412167"><ele>160.365</ele><time>2026-08-16T16:57:42.136Z</time><hdop>3.0</hdop><vdop>2.562</vdop><extensions><gom:speed>0.091</gom:speed></extensions></trkpt>
   <trkpt lat="59.3252156603" lon="34.6784120832"><ele>160.333</ele><time>2026-08-16T16:57:43.136Z</time><hdop>3.0</hdop><vdop>2.937</vdop><extensions><gom:speed>0.099</gom:speed></extensions></trkpt>
   <trkpt lat="59.3252154927" lon="34.6784107421"><ele>160.533</ele><time>2026-08-16T16:57:44.136Z</time><hdop>3.0</hdop><vdop>3.062</vdop><extensions><gom:speed>0.078</gom:speed></extensions></trkpt>
   <trkpt lat="59.3252159956" lon="34.6784069702"><ele>161.028</ele><time>2026-08-16T16:57:45.136Z</time><hdop>3.0</hdop><vdop>2.812</vdop><extensions><gom:speed>0.083</gom:speed></extensions></trkpt>
   <trkpt lat="59.3252173786" lon="34.6784014382"><ele>161.528</ele><time>2026-08-16T16:57:46.136Z</time><hdop>3.0</hdop><vdop>2.687</vdop><extensions><gom:speed>0.07</gom:speed></extensions></trkpt>
   <trkpt lat="59.3252198932" lon="34.6783957385"><ele>161.924</ele><time>2026-08-16T16:57:47.136Z</time><hdop>3.0</hdop><vdop>2.562</vdop><extensions><gom:speed>0.093</gom:speed></extensions></trkpt>
   <trkpt lat="59.3252223658" lon="34.6783905417"><ele>162.175</ele><time>2026-08-16T16:57:48.136Z</time><hdop>3.0</hdop><vdop>2.5</vdop><extensions><gom:speed>0.065</gom:speed></extensions></trkpt>
   <trkpt lat="59.3252248804" lon="34.6783858478"><ele>162.365</ele><time>2026-08-16T16:57:49.136Z</time><hdop>3.0</hdop><vdop>2.5</vdop><extensions><gom:speed>0.068</gom:speed></extensions></trkpt>
   <trkpt lat="59.32522597" lon="34.678384842"><ele>162.479</ele><time>2026-08-16T16:57:50.112Z</time><hdop>3.0</hdop><vdop>2.5</vdop><extensions><gom:speed>0.081</gom:speed></extensions></trkpt>
   <trkpt lat="59.3252297838" lon="34.6783799805"><ele>162.639</ele><time>2026-08-16T16:57:51.136Z</time><hdop>3.0</hdop><vdop>2.5</vdop><extensions><gom:speed>0.089</gom:speed></extensions></trkpt>
   <trkpt lat="59.3252309992" lon="34.6783777174"><ele>162.735</ele><time>2026-08-16T16:57:52.115Z</time><hdop>3.0</hdop><vdop>2.5</vdop><extensions><gom:speed>0.09</gom:speed></extensions></trkpt>
   <trkpt lat="59.3252331785" lon="34.6783764601"><ele>163.371</ele><time>2026-08-16T16:57:53.136Z</time><hdop>3.0</hdop><vdop>2.5</vdop><extensions><gom:speed>0.088</gom:speed></extensions></trkpt>
   <trkpt lat="59.325234771" lon="34.6783752866"><ele>163.892</ele><time>2026-08-16T16:57:54.136Z</time><hdop>3.0</hdop><vdop>2.5</vdop><extensions><gom:speed>0.086</gom:speed></extensions></trkpt>
   <trkpt lat="59.325235693" lon="34.6783763763"><ele>164.275</ele><time>2026-08-16T16:57:55.136Z</time><hdop>3.0</hdop><vdop>2.5</vdop><extensions><gom:speed>0.095</gom:speed></extensions></trkpt>
   <trkpt lat="59.3252364893" lon="34.6783766277"><ele>164.529</ele><time>2026-08-16T16:57:56.136Z</time><hdop>3.0</hdop><vdop>2.5</vdop><extensions><gom:speed>0.069</gom:speed></extensions></trkpt>
   <trkpt lat="59.3252372856" lon="34.6783779688"><ele>164.698</ele><time>2026-08-16T16:57:57.136Z</time><hdop>3.0</hdop><vdop>2.5</vdop><extensions><gom:speed>0.07</gom:speed></extensions></trkpt>
   <trkpt lat="59.3252379981" lon="34.6783790585"><ele>164.798</ele><time>2026-08-16T16:57:58.136Z</time><hdop>3.0</hdop><vdop>2.5</vdop><extensions><gom:speed>0.064</gom:speed></extensions></trkpt>
   <trkpt lat="59.3252384591" lon="34.6783794776"><ele>164.838</ele><time>2026-08-16T16:57:59.135Z</time><hdop>3.0</hdop><vdop>2.5</vdop><extensions><gom:speed>0.09</gom:speed></extensions></trkpt>
   <trkpt lat="59.3252391715" lon="34.6783798967"><ele>164.86</ele><time>2026-08-16T16:58:00.136Z</time><hdop>3.0</hdop><vdop>2.5</vdop><extensions><gom:speed>0.063</gom:speed></extensions></trkpt>
   <trkpt lat="59.3252395906" lon="34.6783805672"><ele>164.862</ele><time>2026-08-16T16:58:01.136Z</time><hdop>3.0</hdop><vdop>2.5</vdop><extensions><gom:speed>0.061</gom:speed></extensions></trkpt>
   <trkpt lat="59.3252394649" lon="34.6783810701"><ele>164.862</ele><time>2026-08-16T16:58:02.136Z</time><hdop>3.0</hdop><vdop>2.5</vdop><extensions><gom:speed>0.093</gom:speed></extensions></trkpt>
   <trkpt lat="59.3252399678" lon="34.6783816569"><ele>164.853</ele><time>2026-08-16T16:58:03.136Z</time><hdop>3.0</hdop><vdop>2.5</vdop><extensions><gom:speed>0.089</gom:speed></extensions></trkpt>
   <trkpt lat="59.3252401774" lon="34.6783812378"><ele>164.825</ele><time>2026-08-16T16:58:04.136Z</time><hdop>3.0</hdop><vdop>2.5</vdop><extensions><gom:speed>0.087</gom:speed></extensions></trkpt>
   <trkpt lat="59.3252403869" lon="34.6783807349"><ele>164.807</ele><time>2026-08-16T16:58:05.136Z</time><hdop>3.0</hdop><vdop>2.5</vdop><extensions><gom:speed>0.082</gom:speed></extensions></trkpt>
   <trkpt lat="59.3252404707" lon="34.6783801481"><ele>164.796</ele><time>2026-08-16T16:58:06.136Z</time><hdop>3.0</hdop><vdop>2.5</vdop><extensions><gom:speed>0.081</gom:speed></extensions></trkpt>
   <trkpt lat="59.3252405965" lon="34.678379729"><ele>164.775</ele><time>2026-08-16T16:58:07.136Z</time><hdop>3.0</hdop><vdop>2.5</vdop><extensions><gom:speed>0.078</gom:speed></extensions></trkpt>
   <trkpt lat="59.3252406803" lon="34.6783795614"><ele>164.764</ele><time>2026-08-16T16:58:08.136Z</time><hdop>3.0</hdop><vdop>2.5</vdop><extensions><gom:speed>0.077</gom:speed></extensions></trkpt>
   <trkpt lat="59.3252406803" lon="34.6783793938"><ele>164.733</ele><time>2026-08-16T16:58:09.136Z</time><hdop>3.0</hdop><vdop>2.5</vdop><extensions><gom:speed>0.074</gom:speed></extensions></trkpt>
   <trkpt lat="59.3252406803" lon="34.6783790585"><ele>164.701</ele><time>2026-08-16T16:58:10.136Z</time><hdop>3.0</hdop><vdop>2.5</vdop><extensions><gom:speed>0.074</gom:speed></extensions></trkpt>
   <trkpt lat="59.3252405965" lon="34.6783788908"><ele>164.676</ele><time>2026-08-16T16:58:11.136Z</time><hdop>3.0</hdop><vdop>2.5</vdop><extensions><gom:speed>0.073</gom:speed></extensions></trkpt>
   <trkpt lat="59.3252405965" lon="34.6783789747"><ele>164.662</ele><time>2026-08-16T16:58:12.136Z</time><hdop>3.0</hdop><vdop>2.5</vdop><extensions><gom:speed>0.068</gom:speed></extensions></trkpt>
   <trkpt lat="59.3252405965" lon="34.6783787232"><ele>164.658</ele><time>2026-08-16T16:58:13.136Z</time><hdop>3.0</hdop><vdop>2.5</vdop><extensions><gom:speed>0.07</gom:speed></extensions></trkpt>
   <trkpt lat="59.3252405965" lon="34.6783784717"><ele>164.658</ele><time>2026-08-16T16:58:14.136Z</time><hdop>3.0</hdop><vdop>2.5</vdop><extensions><gom:speed>0.073</gom:speed></extensions></trkpt>
   <trkpt lat="59.3252406803" lon="34.6783782203"><ele>164.663</ele><time>2026-08-16T16:58:15.136Z</time><hdop>3.0</hdop><vdop>2.5</vdop><extensions><gom:speed>0.072</gom:speed></extensions></trkpt>
   <trkpt lat="59.3252405965" lon="34.6783780527"><ele>164.672</ele><time>2026-08-16T16:58:16.136Z</time><hdop>3.0</hdop><vdop>2.5</vdop><extensions><gom:speed>0.074</gom:speed></extensions></trkpt>
   <trkpt lat="59.3252405965" lon="34.678377885"><ele>164.693</ele><time>2026-08-16T16:58:17.135Z</time><hdop>3.0</hdop><vdop>2.5</vdop><extensions><gom:speed>0.074</gom:speed></extensions></trkpt>
   <trkpt lat="59.3252405965" lon="34.6783777174"><ele>164.708</ele><time>2026-08-16T16:58:18.136Z</time><hdop>3.0</hdop><vdop>2.5</vdop><extensions><gom:speed>0.075</gom:speed></extensions></trkpt>
   <trkpt lat="59.3252407641" lon="34.6783773821"><ele>164.712</ele><time>2026-08-16T16:58:19.136Z</time><hdop>3.0</hdop><vdop>2.5</vdop><extensions><gom:speed>0.074</gom:speed></extensions></trkpt>
   <trkpt lat="59.3252406803" lon="34.6783771306"><ele>164.715</ele><time>2026-08-16T16:58:20.136Z</time><hdop>3.0</hdop><vdop>2.5</vdop><extensions><gom:speed>0.074</gom:speed></extensions></trkpt>
   <trkpt lat="59.3252406803" lon="34.678376963"><ele>164.709</ele><time>2026-08-16T16:58:21.136Z</time><hdop>3.0</hdop><vdop>2.5</vdop><extensions><gom:speed>0.073</gom:speed></extensions></trkpt>
   <trkpt lat="59.3252405965" lon="34.6783768792"><ele>164.711</ele><time>2026-08-16T16:58:22.136Z</time><hdop>3.0</hdop><vdop>2.5</vdop><extensions><gom:speed>0.073</gom:speed></extensions></trkpt>
   <trkpt lat="59.3252405965" lon="34.6783766277"><ele>164.733</ele><time>2026-08-16T16:58:23.136Z</time><hdop>3.0</hdop><vdop>2.5</vdop><extensions><gom:speed>0.074</gom:speed></extensions></trkpt>
   <trkpt lat="59.3252404707" lon="34.6783764601"><ele>164.739</ele><time>2026-08-16T16:58:24.136Z</time><hdop>3.0</hdop><vdop>2.5</vdop><extensions><gom:speed>0.074</gom:speed></extensions></trkpt>
   <trkpt lat="59.3252404707" lon="34.6783762925"><ele>164.737</ele><time>2026-08-16T16:58:25.136Z</time><hdop>3.0</hdop><vdop>2.5</vdop><extensions><gom:speed>0.071</gom:speed></extensions></trkpt>
   <trkpt lat="59.3252404707" lon="34.6783757895"><ele>164.735</ele><time>2026-08-16T16:58:25.938Z</time><hdop>3.0</hdop><vdop>2.5</vdop><extensions><gom:speed>0.071</gom:speed></extensions></trkpt>
   <trkpt lat="59.3252403869" lon="34.6783755381"><ele>164.698</ele><time>2026-08-16T16:58:27.136Z</time><hdop>3.0</hdop><vdop>2.5</vdop><extensions><gom:speed>0.072</gom:speed></extensions></trkpt>
   <trkpt lat="59.3252402612" lon="34.6783752866"><ele>164.668</ele><time>2026-08-16T16:58:28.136Z</time><hdop>3.0</hdop><vdop>2.5</vdop><extensions><gom:speed>0.071</gom:speed></extensions></trkpt>
   <trkpt lat="59.3252403869" lon="34.6783748675"><ele>164.73</ele><time>2026-08-16T16:58:29.136Z</time><hdop>3.0</hdop><vdop>2.5</vdop><extensions><gom:speed>0.23</gom:speed></extensions></trkpt>
   <trkpt lat="59.3252406803" lon="34.6783721853"><ele>164.768</ele><time>2026-08-16T16:58:30.136Z</time><hdop>3.0</hdop><vdop>2.5</vdop><extensions><gom:speed>0.337</gom:speed></extensions></trkpt>
   <trkpt lat="59.3252410994" lon="34.6783678267"><ele>164.892</ele><time>2026-08-16T16:58:31.135Z</time><hdop>3.0</hdop><vdop>2.5</vdop><extensions><gom:speed>1.597</gom:speed></extensions></trkpt>
   <trkpt lat="59.3252454999" lon="34.6783440221"><ele>164.998</ele><time>2026-08-16T16:58:32.136Z</time><hdop>3.125</hdop><vdop>2.5</vdop><extensions><gom:speed>1.351</gom:speed></extensions></trkpt>
   <trkpt lat="59.3252530855" lon="34.6783138473"><ele>165.166</ele><time>2026-08-16T16:58:33.136Z</time><hdop>3.5</hdop><vdop>2.5</vdop><extensions><gom:speed>2.38</gom:speed></extensions></trkpt>
   <trkpt lat="59.3252617608" lon="34.6782702614"><ele>165.336</ele><time>2026-08-16T16:58:34.136Z</time><hdop>3.625</hdop><vdop>2.5</vdop><extensions><gom:speed>2.064</gom:speed></extensions></trkpt>
   <trkpt lat="59.3252616769" lon="34.6782290224"><ele>165.443</ele><time>2026-08-16T16:58:35.136Z</time><hdop>3.875</hdop><vdop>2.5</vdop><extensions><gom:speed>1.122</gom:speed></extensions></trkpt>
   <trkpt lat="59.3252581985" lon="34.6782098279"><ele>165.544</ele><time>2026-08-16T16:58:36.136Z</time><hdop>4.0</hdop><vdop>2.5</vdop><extensions><gom:speed>0.102</gom:speed></extensions></trkpt>
   <trkpt lat="59.3252567735" lon="34.678212091"><ele>165.641</ele><time>2026-08-16T16:58:37.136Z</time><hdop>4.125</hdop><vdop>2.5</vdop><extensions><gom:speed>0.601</gom:speed></extensions></trkpt>
   <trkpt lat="59.3252564802" lon="34.6782085706"><ele>165.672</ele><time>2026-08-16T16:58:38.136Z</time><hdop>4.125</hdop><vdop>2.5</vdop><extensions><gom:speed>1.355</gom:speed></extensions></trkpt>
   <trkpt lat="59.3252559772" lon="34.6781957463"><ele>165.725</ele><time>2026-08-16T16:58:39.136Z</time><hdop>4.125</hdop><vdop>2.5</vdop><extensions><gom:speed>1.24</gom:speed></extensions></trkpt>
   <trkpt lat="59.32525099" lon="34.6781943213"><ele>165.766</ele><time>2026-08-16T16:58:40.136Z</time><hdop>4.062</hdop><vdop>2.5</vdop><extensions><gom:speed>1.333</gom:speed></extensions></trkpt>
   <trkpt lat="59.3252511996" lon="34.6783470396"><ele>165.751</ele><time>2026-08-16T16:58:41.135Z</time><hdop>4.062</hdop><vdop>2.5</vdop><extensions><gom:speed>1.279</gom:speed></extensions></trkpt>
   <trkpt lat="59.3252517863" lon="34.6783670724"><ele>165.804</ele><time>2026-08-16T16:58:42.136Z</time><hdop>3.937</hdop><vdop>2.5</vdop><extensions><gom:speed>1.019</gom:speed></extensions></trkpt>
   <trkpt lat="59.3252518701" lon="34.6783840876"><ele>165.773</ele><time>2026-08-16T16:58:43.136Z</time><hdop>3.937</hdop><vdop>2.5</vdop><extensions><gom:speed>0.919</gom:speed></extensions></trkpt>
   <trkpt lat="59.3252511996" lon="34.6783895359"><ele>165.771</ele><time>2026-08-16T16:58:44.136Z</time><hdop>3.937</hdop><vdop>2.5</vdop><extensions><gom:speed>0.249</gom:speed></extensions></trkpt>
   <trkpt lat="59.3252481821" lon="34.6783889491"><ele>165.779</ele><time>2026-08-16T16:58:45.136Z</time><hdop>3.937</hdop><vdop>2.5</vdop><extensions><gom:speed>0.0</gom:speed></extensions></trkpt>
   <trkpt lat="59.32524638" lon="34.6783884462"><ele>165.781</ele><time>2026-08-16T16:58:46.136Z</time><hdop>3.75</hdop><vdop>2.5</vdop><extensions><gom:speed>0.0</gom:speed></extensions></trkpt>
   <trkpt lat="59.3252450808" lon="34.6783889491"><ele>165.763</ele><time>2026-08-16T16:58:47.136Z</time><hdop>3.75</hdop><vdop>2.5</vdop><extensions><gom:speed>0.0</gom:speed></extensions></trkpt>
   <trkpt lat="59.3252441588" lon="34.67838853"><ele>165.749</ele><time>2026-08-16T16:58:48.136Z</time><hdop>3.75</hdop><vdop>2.5</vdop><extensions><gom:speed>0.0</gom:speed></extensions></trkpt>
   <trkpt lat="59.3252439911" lon="34.67838853"><ele>165.762</ele><time>2026-08-16T16:58:49.136Z</time><hdop>3.75</hdop><vdop>2.5</vdop><extensions><gom:speed>0.0</gom:speed></extensions></trkpt>
   <trkpt lat="59.325243572" lon="34.6783886977"><ele>165.784</ele><time>2026-08-16T16:58:50.136Z</time><hdop>3.75</hdop><vdop>2.5</vdop><extensions><gom:speed>0.0</gom:speed></extensions></trkpt>
   <trkpt lat="59.3252427758" lon="34.6783888653"><ele>165.786</ele><time>2026-08-16T16:58:51.136Z</time><hdop>3.75</hdop><vdop>2.5</vdop><extensions><gom:speed>0.0</gom:speed></extensions></trkpt>
   <trkpt lat="59.3252422728" lon="34.6783888653"><ele>165.771</ele><time>2026-08-16T16:58:52.136Z</time><hdop>3.75</hdop><vdop>2.5</vdop><extensions><gom:speed>0.0</gom:speed></extensions></trkpt>
   <trkpt lat="59.3252417699" lon="34.6783891168"><ele>165.767</ele><time>2026-08-16T16:58:53.136Z</time><hdop>3.75</hdop><vdop>2.5</vdop><extensions><gom:speed>0.0</gom:speed></extensions></trkpt>
   <trkpt lat="59.325241267" lon="34.678389452"><ele>165.77</ele><time>2026-08-16T16:58:54.136Z</time><hdop>3.75</hdop><vdop>2.5</vdop><extensions><gom:speed>0.0</gom:speed></extensions></trkpt>
   <trkpt lat="59.325241267" lon="34.6783893682"><ele>165.775</ele><time>2026-08-16T16:58:55.136Z</time><hdop>3.75</hdop><vdop>2.5</vdop><extensions><gom:speed>0.0</gom:speed></extensions></trkpt>
   <trkpt lat="59.3252413927" lon="34.6783893682"><ele>165.786</ele><time>2026-08-16T16:58:56.136Z</time><hdop>3.75</hdop><vdop>2.5</vdop><extensions><gom:speed>0.0</gom:speed></extensions></trkpt>
   <trkpt lat="59.3252413927" lon="34.6783892844"><ele>165.791</ele><time>2026-08-16T16:58:57.136Z</time><hdop>3.75</hdop><vdop>2.5</vdop><extensions><gom:speed>0.0</gom:speed></extensions></trkpt>
   <trkpt lat="59.3252414766" lon="34.6783892844"><ele>165.795</ele><time>2026-08-16T16:58:58.136Z</time><hdop>3.75</hdop><vdop>2.5</vdop><extensions><gom:speed>0.0</gom:speed></extensions></trkpt>
   <trkpt lat="59.3252416861" lon="34.6783939783"><ele>165.815</ele><time>2026-08-16T16:58:59.136Z</time><hdop>3.75</hdop><vdop>2.5</vdop><extensions><gom:speed>0.269</gom:speed></extensions></trkpt>
   <trkpt lat="59.325242189" lon="34.6784071379"><ele>165.835</ele><time>2026-08-16T16:59:00.136Z</time><hdop>3.75</hdop><vdop>2.5</vdop><extensions><gom:speed>0.779</gom:speed></extensions></trkpt>
   <trkpt lat="59.3252430691" lon="34.6784341276"><ele>165.87</ele><time>2026-08-16T16:59:01.136Z</time><hdop>3.75</hdop><vdop>2.5</vdop><extensions><gom:speed>1.879</gom:speed></extensions></trkpt>
   <trkpt lat="59.3252436978" lon="34.6784630451"><ele>165.817</ele><time>2026-08-16T16:59:02.136Z</time><hdop>3.75</hdop><vdop>2.5</vdop><extensions><gom:speed>1.589</gom:speed></extensions></trkpt>
   <trkpt lat="59.325244494" lon="34.6784847543"><ele>165.715</ele><time>2026-08-16T16:59:03.136Z</time><hdop>3.75</hdop><vdop>2.5</vdop><extensions><gom:speed>1.079</gom:speed></extensions></trkpt>
   <trkpt lat="59.3252457932" lon="34.6785015181"><ele>165.675</ele><time>2026-08-16T16:59:04.136Z</time><hdop>3.75</hdop><vdop>2.5</vdop><extensions><gom:speed>0.909</gom:speed></extensions></trkpt>
   <trkpt lat="59.3252469667" lon="34.6785181981"><ele>165.64</ele><time>2026-08-16T16:59:05.136Z</time><hdop>3.75</hdop><vdop>2.5</vdop><extensions><gom:speed>0.909</gom:speed></extensions></trkpt>
   <trkpt lat="59.3252480983" lon="34.678528424"><ele>165.783</ele><time>2026-08-16T16:59:06.136Z</time><hdop>3.75</hdop><vdop>2.5</vdop><extensions><gom:speed>0.509</gom:speed></extensions></trkpt>
   <trkpt lat="59.3252492717" lon="34.6785400748"><ele>165.929</ele><time>2026-08-16T16:59:07.136Z</time><hdop>3.75</hdop><vdop>2.5</vdop><extensions><gom:speed>0.739</gom:speed></extensions></trkpt>
   <trkpt lat="59.3252511996" lon="34.678557593"><ele>165.991</ele><time>2026-08-16T16:59:08.136Z</time><hdop>3.75</hdop><vdop>2.5</vdop><extensions><gom:speed>1.179</gom:speed></extensions></trkpt>
   <trkpt lat="59.3252525826" lon="34.6785745245"><ele>166.146</ele><time>2026-08-16T16:59:09.136Z</time><hdop>3.75</hdop><vdop>2.5</vdop><extensions><gom:speed>0.959</gom:speed></extensions></trkpt>
   <trkpt lat="59.325253798" lon="34.6785941381"><ele>166.126</ele><time>2026-08-16T16:59:10.136Z</time><hdop>3.75</hdop><vdop>2.5</vdop><extensions><gom:speed>1.209</gom:speed></extensions></trkpt>
   <trkpt lat="59.3252561868" lon="34.6786148414"><ele>166.204</ele><time>2026-08-16T16:59:11.136Z</time><hdop>3.75</hdop><vdop>2.5</vdop><extensions><gom:speed>1.239</gom:speed></extensions></trkpt>
   <trkpt lat="59.3252582823" lon="34.6786329463"><ele>166.194</ele><time>2026-08-16T16:59:12.136Z</time><hdop>3.75</hdop><vdop>2.5</vdop><extensions><gom:speed>1.009</gom:speed></extensions></trkpt>
   <trkpt lat="59.3252608807" lon="34.6786533982"><ele>166.19</ele><time>2026-08-16T16:59:13.136Z</time><hdop>3.75</hdop><vdop>2.5</vdop><extensions><gom:speed>1.239</gom:speed></extensions></trkpt>
   <trkpt lat="59.3252638981" lon="34.6786748558"><ele>166.146</ele><time>2026-08-16T16:59:14.136Z</time><hdop>3.75</hdop><vdop>2.5</vdop><extensions><gom:speed>1.209</gom:speed></extensions></trkpt>
   <trkpt lat="59.3252669995" lon="34.6786986604"><ele>166.063</ele><time>2026-08-16T16:59:15.136Z</time><hdop>3.75</hdop><vdop>2.5</vdop><extensions><gom:speed>1.439</gom:speed></extensions></trkpt>
   <trkpt lat="59.3252704779" lon="34.6787282486"><ele>166.012</ele><time>2026-08-16T16:59:16.136Z</time><hdop>3.75</hdop><vdop>2.5</vdop><extensions><gom:speed>1.869</gom:speed></extensions></trkpt>
   <trkpt lat="59.3252740822" lon="34.6787542325"><ele>165.924</ele><time>2026-08-16T16:59:17.136Z</time><hdop>3.75</hdop><vdop>2.5</vdop><extensions><gom:speed>1.449</gom:speed></extensions></trkpt>
   <trkpt lat="59.3252759681" lon="34.6787716668"><ele>165.974</ele><time>2026-08-16T16:59:18.136Z</time><hdop>3.75</hdop><vdop>2.5</vdop><extensions><gom:speed>0.979</gom:speed></extensions></trkpt>
   <trkpt lat="59.325278776" lon="34.6787870895"><ele>166.059</ele><time>2026-08-16T16:59:19.135Z</time><hdop>3.75</hdop><vdop>2.5</vdop><extensions><gom:speed>1.039</gom:speed></extensions></trkpt>
   <trkpt lat="59.3252819611" lon="34.678801674"><ele>166.087</ele><time>2026-08-16T16:59:20.136Z</time><hdop>3.75</hdop><vdop>2.5</vdop><extensions><gom:speed>0.929</gom:speed></extensions></trkpt>
   <trkpt lat="59.3252856911" lon="34.6788175997"><ele>166.19</ele><time>2026-08-16T16:59:21.136Z</time><hdop>3.75</hdop><vdop>2.5</vdop><extensions><gom:speed>1.109</gom:speed></extensions></trkpt>
   <trkpt lat="59.3252899659" lon="34.6788391411"><ele>166.148</ele><time>2026-08-16T16:59:22.136Z</time><hdop>3.75</hdop><vdop>2.5</vdop><extensions><gom:speed>1.419</gom:speed></extensions></trkpt>
   <trkpt lat="59.3252937796" lon="34.6788606826"><ele>166.355</ele><time>2026-08-16T16:59:23.136Z</time><hdop>3.75</hdop><vdop>2.5</vdop><extensions><gom:speed>1.249</gom:speed></extensions></trkpt>
   <trkpt lat="59.3252953722" lon="34.678873926"><ele>166.405</ele><time>2026-08-16T16:59:24.136Z</time><hdop>3.75</hdop><vdop>2.5</vdop><extensions><gom:speed>0.719</gom:speed></extensions></trkpt>
   <trkpt lat="59.3252971743" lon="34.6788885944"><ele>166.27</ele><time>2026-08-16T16:59:25.136Z</time><hdop>3.75</hdop><vdop>2.5</vdop><extensions><gom:speed>0.899</gom:speed></extensions></trkpt>
   <trkpt lat="59.3252992698" lon="34.6789039333"><ele>166.173</ele><time>2026-08-16T16:59:26.136Z</time><hdop>3.75</hdop><vdop>2.5</vdop><extensions><gom:speed>0.839</gom:speed></extensions></trkpt>
   <trkpt lat="59.325302874" lon="34.6789263968"><ele>165.86</ele><time>2026-08-16T16:59:27.136Z</time><hdop>3.75</hdop><vdop>2.5</vdop><extensions><gom:speed>1.399</gom:speed></extensions></trkpt>
   <trkpt lat="59.325306562" lon="34.6789490279"><ele>165.782</ele><time>2026-08-16T16:59:28.136Z</time><hdop>3.75</hdop><vdop>2.5</vdop><extensions><gom:speed>1.219</gom:speed></extensions></trkpt>
   <trkpt lat="59.3253095795" lon="34.6789724972"><ele>165.563</ele><time>2026-08-16T16:59:29.135Z</time><hdop>3.75</hdop><vdop>2.5</vdop><extensions><gom:speed>1.369</gom:speed></extensions></trkpt>
   <trkpt lat="59.3253131837" lon="34.6789902669"><ele>165.458</ele><time>2026-08-16T16:59:30.136Z</time><hdop>3.75</hdop><vdop>2.5</vdop><extensions><gom:speed>0.929</gom:speed></extensions></trkpt>
   <trkpt lat="59.3253158659" lon="34.6790103834"><ele>165.356</ele><time>2026-08-16T16:59:31.135Z</time><hdop>3.75</hdop><vdop>2.5</vdop><extensions><gom:speed>1.219</gom:speed></extensions></trkpt>
   <trkpt lat="59.3253175842" lon="34.6790320926"><ele>165.193</ele><time>2026-08-16T16:59:32.136Z</time><hdop>3.75</hdop><vdop>2.5</vdop><extensions><gom:speed>1.219</gom:speed></extensions></trkpt>
   <trkpt lat="59.3253195959" lon="34.6790531311"><ele>165.16</ele><time>2026-08-16T16:59:33.136Z</time><hdop>3.75</hdop><vdop>2.5</vdop><extensions><gom:speed>1.189</gom:speed></extensions></trkpt>
   <trkpt lat="59.3253214818" lon="34.6790741697"><ele>165.112</ele><time>2026-08-16T16:59:34.136Z</time><hdop>3.75</hdop><vdop>2.5</vdop><extensions><gom:speed>1.129</gom:speed></extensions></trkpt>
   <trkpt lat="59.3253217752" lon="34.6790955436"><ele>165.189</ele><time>2026-08-16T16:59:35.136Z</time><hdop>3.75</hdop><vdop>2.5</vdop><extensions><gom:speed>1.179</gom:speed></extensions></trkpt>
   <trkpt lat="59.3253219847" lon="34.6791180909"><ele>165.245</ele><time>2026-08-16T16:59:36.136Z</time><hdop>3.75</hdop><vdop>2.5</vdop><extensions><gom:speed>1.279</gom:speed></extensions></trkpt>
   <trkpt lat="59.325324164" lon="34.6791401353"><ele>165.182</ele><time>2026-08-16T16:59:37.136Z</time><hdop>3.75</hdop><vdop>2.5</vdop><extensions><gom:speed>1.249</gom:speed></extensions></trkpt>
   <trkpt lat="59.3253259661" lon="34.6791621797"><ele>165.126</ele><time>2026-08-16T16:59:38.135Z</time><hdop>3.75</hdop><vdop>2.5</vdop><extensions><gom:speed>1.249</gom:speed></extensions></trkpt>
   <trkpt lat="59.3253264691" lon="34.6791825477"><ele>165.251</ele><time>2026-08-16T16:59:39.136Z</time><hdop>3.75</hdop><vdop>2.5</vdop><extensions><gom:speed>1.129</gom:speed></extensions></trkpt>
   <trkpt lat="59.3253267624" lon="34.6791988924"><ele>165.294</ele><time>2026-08-16T16:59:40.136Z</time><hdop>3.75</hdop><vdop>2.5</vdop><extensions><gom:speed>0.859</gom:speed></extensions></trkpt>
   <trkpt lat="59.3253273911" lon="34.6792114653"><ele>165.231</ele><time>2026-08-16T16:59:41.136Z</time><hdop>3.75</hdop><vdop>2.5</vdop><extensions><gom:speed>0.749</gom:speed></extensions></trkpt>
   <trkpt lat="59.3253280616" lon="34.6792254631"><ele>165.223</ele><time>2026-08-16T16:59:42.136Z</time><hdop>3.75</hdop><vdop>2.5</vdop><extensions><gom:speed>0.809</gom:speed></extensions></trkpt>
   <trkpt lat="59.3253289836" lon="34.6792418916"><ele>165.153</ele><time>2026-08-16T16:59:43.136Z</time><hdop>3.75</hdop><vdop>2.5</vdop><extensions><gom:speed>0.959</gom:speed></extensions></trkpt>
   <trkpt lat="59.3253298637" lon="34.6792575658"><ele>165.031</ele><time>2026-08-16T16:59:44.136Z</time><hdop>3.75</hdop><vdop>2.5</vdop><extensions><gom:speed>0.829</gom:speed></extensions></trkpt>
   <trkpt lat="59.3253320849" lon="34.6792571467"><ele>164.814</ele><time>2026-08-16T16:59:45.136Z</time><hdop>3.75</hdop><vdop>2.5</vdop><extensions><gom:speed>0.0</gom:speed></extensions></trkpt>
   <trkpt lat="59.3253334679" lon="34.6792550512"><ele>164.631</ele><time>2026-08-16T16:59:46.135Z</time><hdop>3.75</hdop><vdop>2.5</vdop><extensions><gom:speed>0.0</gom:speed></extensions></trkpt>
   <trkpt lat="59.3253342642" lon="34.6792539615"><ele>164.417</ele><time>2026-08-16T16:59:47.136Z</time><hdop>3.75</hdop><vdop>2.5</vdop><extensions><gom:speed>0.0</gom:speed></extensions></trkpt>
   <trkpt lat="59.3253347671" lon="34.6792528719"><ele>164.247</ele><time>2026-08-16T16:59:48.136Z</time><hdop>3.75</hdop><vdop>2.5</vdop><extensions><gom:speed>0.0</gom:speed></extensions></trkpt>
   <trkpt lat="59.3253353958" lon="34.6792516984"><ele>164.078</ele><time>2026-08-16T16:59:49.136Z</time><hdop>3.75</hdop><vdop>2.5</vdop><extensions><gom:speed>0.0</gom:speed></extensions></trkpt>
   <trkpt lat="59.3253361921" lon="34.6792510279"><ele>163.931</ele><time>2026-08-16T16:59:50.136Z</time><hdop>3.75</hdop><vdop>2.5</vdop><extensions><gom:speed>0.0</gom:speed></extensions></trkpt>
   <trkpt lat="59.3253368626" lon="34.6792508602"><ele>163.819</ele><time>2026-08-16T16:59:51.136Z</time><hdop>3.75</hdop><vdop>2.5</vdop><extensions><gom:speed>0.0</gom:speed></extensions></trkpt>
   <trkpt lat="59.3253367788" lon="34.6792507764"><ele>163.725</ele><time>2026-08-16T16:59:52.136Z</time><hdop>3.75</hdop><vdop>2.5</vdop><extensions><gom:speed>0.0</gom:speed></extensions></trkpt>
   <trkpt lat="59.3253369883" lon="34.6792510279"><ele>163.679</ele><time>2026-08-16T16:59:53.136Z</time><hdop>3.75</hdop><vdop>2.5</vdop><extensions><gom:speed>0.0</gom:speed></extensions></trkpt>
   <trkpt lat="59.3253367788" lon="34.679253291"><ele>163.635</ele><time>2026-08-16T16:59:54.136Z</time><hdop>3.75</hdop><vdop>2.5</vdop><extensions><gom:speed>0.179</gom:speed></extensions></trkpt>
   <trkpt lat="59.3253362759" lon="34.6792700548"><ele>163.796</ele><time>2026-08-16T16:59:55.136Z</time><hdop>3.75</hdop><vdop>2.5</vdop><extensions><gom:speed>1.509</gom:speed></extensions></trkpt>
   <trkpt lat="59.3253364854" lon="34.6793020737"><ele>163.97</ele><time>2026-08-16T16:59:56.136Z</time><hdop>3.75</hdop><vdop>2.5</vdop><extensions><gom:speed>2.219</gom:speed></extensions></trkpt>
   <trkpt lat="59.3253360663" lon="34.6793382835"><ele>164.11</ele><time>2026-08-16T16:59:57.136Z</time><hdop>3.75</hdop><vdop>2.5</vdop><extensions><gom:speed>2.119</gom:speed></extensions></trkpt>
   <trkpt lat="59.3253367788" lon="34.679371392"><ele>164.177</ele><time>2026-08-16T16:59:58.136Z</time><hdop>3.75</hdop><vdop>2.5</vdop><extensions><gom:speed>1.869</gom:speed></extensions></trkpt>
   <trkpt lat="59.325338078" lon="34.679392682"><ele>164.257</ele><time>2026-08-16T16:59:59.136Z</time><hdop>3.75</hdop><vdop>2.5</vdop><extensions><gom:speed>0.879</gom:speed></extensions></trkpt>
   <trkpt lat="59.3253389581" lon="34.6794103678"><ele>164.184</ele><time>2026-08-16T17:00:00.136Z</time><hdop>3.75</hdop><vdop>2.5</vdop><extensions><gom:speed>0.979</gom:speed></extensions></trkpt>
   <trkpt lat="59.3253389581" lon="34.6794293948"><ele>164.004</ele><time>2026-08-16T17:00:01.136Z</time><hdop>3.75</hdop><vdop>2.5</vdop><extensions><gom:speed>0.969</gom:speed></extensions></trkpt>
   <trkpt lat="59.3253383714" lon="34.6794509363"><ele>163.878</ele><time>2026-08-16T17:00:02.136Z</time><hdop>3.75</hdop><vdop>2.5</vdop><extensions><gom:speed>1.199</gom:speed></extensions></trkpt>
   <trkpt lat="59.3253378684" lon="34.6794727292"><ele>163.755</ele><time>2026-08-16T17:00:03.136Z</time><hdop>3.75</hdop><vdop>2.5</vdop><extensions><gom:speed>1.169</gom:speed></extensions></trkpt>
   <trkpt lat="59.3253374913" lon="34.679498294"><ele>163.695</ele><time>2026-08-16T17:00:04.136Z</time><hdop>3.75</hdop><vdop>2.5</vdop><extensions><gom:speed>1.509</gom:speed></extensions></trkpt>
   <trkpt lat="59.3253370722" lon="34.6795242779"><ele>163.69</ele><time>2026-08-16T17:00:05.136Z</time><hdop>3.75</hdop><vdop>2.5</vdop><extensions><gom:speed>1.399</gom:speed></extensions></trkpt>
   <trkpt lat="59.3253367788" lon="34.6795543689"><ele>163.721</ele><time>2026-08-16T17:00:06.136Z</time><hdop>3.75</hdop><vdop>2.5</vdop><extensions><gom:speed>1.769</gom:speed></extensions></trkpt>
   <trkpt lat="59.325335773" lon="34.6795842923"><ele>163.624</ele><time>2026-08-16T17:00:07.136Z</time><hdop>3.75</hdop><vdop>2.5</vdop><extensions><gom:speed>1.619</gom:speed></extensions></trkpt>
   <trkpt lat="59.3253336775" lon="34.6796074264"><ele>163.567</ele><time>2026-08-16T17:00:08.136Z</time><hdop>3.75</hdop><vdop>2.5</vdop><extensions><gom:speed>1.179</gom:speed></extensions></trkpt>
   <trkpt lat="59.3253316658" lon="34.6796288841"><ele>163.443</ele><time>2026-08-16T17:00:09.136Z</time><hdop>3.75</hdop><vdop>2.5</vdop><extensions><gom:speed>1.169</gom:speed></extensions></trkpt>
   <trkpt lat="59.3253312886" lon="34.6796436362"><ele>163.291</ele><time>2026-08-16T17:00:10.136Z</time><hdop>3.75</hdop><vdop>2.5</vdop><extensions><gom:speed>0.779</gom:speed></extensions></trkpt>
   <trkpt lat="59.3253310791" lon="34.6796565443"><ele>163.145</ele><time>2026-08-16T17:00:11.136Z</time><hdop>3.75</hdop><vdop>2.5</vdop><extensions><gom:speed>0.699</gom:speed></extensions></trkpt>
   <trkpt lat="59.32533066" lon="34.6796624955"><ele>163.014</ele><time>2026-08-16T17:00:12.136Z</time><hdop>3.75</hdop><vdop>2.5</vdop><extensions><gom:speed>0.279</gom:speed></extensions></trkpt>
   <trkpt lat="59.3253303666" lon="34.679668279"><ele>162.948</ele><time>2026-08-16T17:00:13.136Z</time><hdop>3.75</hdop><vdop>2.5</vdop><extensions><gom:speed>0.349</gom:speed></extensions></trkpt>
   <trkpt lat="59.3253296961" lon="34.6796746493"><ele>162.868</ele><time>2026-08-16T17:00:14.136Z</time><hdop>3.75</hdop><vdop>2.5</vdop><extensions><gom:speed>0.389</gom:speed></extensions></trkpt>
   <trkpt lat="59.3253286903" lon="34.6796836179"><ele>162.775</ele><time>2026-08-16T17:00:15.136Z</time><hdop>3.75</hdop><vdop>2.5</vdop><extensions><gom:speed>0.539</gom:speed></extensions></trkpt>
   <trkpt lat="59.3253276844" lon="34.6796989568"><ele>162.653</ele><time>2026-08-16T17:00:16.136Z</time><hdop>3.75</hdop><vdop>2.5</vdop><extensions><gom:speed>0.919</gom:speed></extensions></trkpt>
   <trkpt lat="59.3253263852" lon="34.679715972"><ele>162.603</ele><time>2026-08-16T17:00:17.136Z</time><hdop>3.75</hdop><vdop>2.5</vdop><extensions><gom:speed>0.939</gom:speed></extensions></trkpt>
   <trkpt lat="59.3253251699" lon="34.6797293831"><ele>162.552</ele><time>2026-08-16T17:00:18.136Z</time><hdop>3.75</hdop><vdop>2.5</vdop><extensions><gom:speed>0.749</gom:speed></extensions></trkpt>
   <trkpt lat="59.3253239964" lon="34.6797351666"><ele>162.54</ele><time>2026-08-16T17:00:19.136Z</time><hdop>3.75</hdop><vdop>2.5</vdop><extensions><gom:speed>0.269</gom:speed></extensions></trkpt>
   <trkpt lat="59.3253228648" lon="34.6797338255"><ele>162.532</ele><time>2026-08-16T17:00:20.136Z</time><hdop>3.75</hdop><vdop>2.5</vdop><extensions><gom:speed>0.339</gom:speed></extensions></trkpt>
   <trkpt lat="59.3253222781" lon="34.6797193248"><ele>162.488</ele><time>2026-08-16T17:00:21.136Z</time><hdop>3.75</hdop><vdop>2.5</vdop><extensions><gom:speed>0.699</gom:speed></extensions></trkpt>
   <trkpt lat="59.3253185901" lon="34.6797023934"><ele>162.479</ele><time>2026-08-16T17:00:22.136Z</time><hdop>3.75</hdop><vdop>2.5</vdop><extensions><gom:speed>0.969</gom:speed></extensions></trkpt>
   <trkpt lat="59.3253101663" lon="34.6796855457"><ele>162.419</ele><time>2026-08-16T17:00:23.136Z</time><hdop>3.75</hdop><vdop>2.5</vdop><extensions><gom:speed>1.339</gom:speed></extensions></trkpt>
   <trkpt lat="59.3253015748" lon="34.6796753198"><ele>162.296</ele><time>2026-08-16T17:00:24.136Z</time><hdop>3.75</hdop><vdop>2.5</vdop><extensions><gom:speed>0.999</gom:speed></extensions></trkpt>
   <trkpt lat="59.3252916842" lon="34.6796696201"><ele>162.158</ele><time>2026-08-16T17:00:25.136Z</time><hdop>3.75</hdop><vdop>2.5</vdop><extensions><gom:speed>1.149</gom:speed></extensions></trkpt>
   <trkpt lat="59.3252836794" lon="34.6796683628"><ele>162.004</ele><time>2026-08-16T17:00:26.136Z</time><hdop>3.75</hdop><vdop>2.5</vdop><extensions><gom:speed>0.769</gom:speed></extensions></trkpt>
   <trkpt lat="59.3252803686" lon="34.6796703745"><ele>161.832</ele><time>2026-08-16T17:00:27.135Z</time><hdop>3.75</hdop><vdop>2.5</vdop><extensions><gom:speed>0.0</gom:speed></extensions></trkpt>
   <trkpt lat="59.325279698" lon="34.6796738949"><ele>161.712</ele><time>2026-08-16T17:00:28.136Z</time><hdop>3.75</hdop><vdop>2.5</vdop><extensions><gom:speed>0.189</gom:speed></extensions></trkpt>
   <trkpt lat="59.3252830927" lon="34.6796804328"><ele>161.65</ele><time>2026-08-16T17:00:29.136Z</time><hdop>3.75</hdop><vdop>2.5</vdop><extensions><gom:speed>0.529</gom:speed></extensions></trkpt>
   <trkpt lat="59.3252873675" lon="34.6796888985"><ele>161.578</ele><time>2026-08-16T17:00:30.136Z</time><hdop>3.75</hdop><vdop>2.5</vdop><extensions><gom:speed>0.589</gom:speed></extensions></trkpt>
   <trkpt lat="59.3252935701" lon="34.6796993759"><ele>161.523</ele><time>2026-08-16T17:00:31.136Z</time><hdop>3.75</hdop><vdop>2.5</vdop><extensions><gom:speed>0.969</gom:speed></extensions></trkpt>
   <trkpt lat="59.3253012814" lon="34.6797081769"><ele>161.478</ele><time>2026-08-16T17:00:32.136Z</time><hdop>3.75</hdop><vdop>2.5</vdop><extensions><gom:speed>0.959</gom:speed></extensions></trkpt>
   <trkpt lat="59.3253071907" lon="34.6797119487"><ele>161.453</ele><time>2026-08-16T17:00:33.136Z</time><hdop>3.75</hdop><vdop>2.5</vdop><extensions><gom:speed>0.629</gom:speed></extensions></trkpt>
   <trkpt lat="59.3253115912" lon="34.6797133736"><ele>161.371</ele><time>2026-08-16T17:00:34.136Z</time><hdop>3.75</hdop><vdop>2.5</vdop><extensions><gom:speed>0.499</gom:speed></extensions></trkpt>
   <trkpt lat="59.3253144829" lon="34.6797151338"><ele>161.283</ele><time>2026-08-16T17:00:35.135Z</time><hdop>3.75</hdop><vdop>2.5</vdop><extensions><gom:speed>0.219</gom:speed></extensions></trkpt>
   <trkpt lat="59.3253156983" lon="34.6797174808"><ele>161.186</ele><time>2026-08-16T17:00:36.135Z</time><hdop>3.75</hdop><vdop>2.5</vdop><extensions><gom:speed>0.0</gom:speed></extensions></trkpt>
   <trkpt lat="59.3253097891" lon="34.6797243539"><ele>161.123</ele><time>2026-08-16T17:00:37.136Z</time><hdop>3.75</hdop><vdop>2.5</vdop><extensions><gom:speed>0.799</gom:speed></extensions></trkpt>
   <trkpt lat="59.3252993955" lon="34.6797367592"><ele>161.091</ele><time>2026-08-16T17:00:38.136Z</time><hdop>3.75</hdop><vdop>2.5</vdop><extensions><gom:speed>1.519</gom:speed></extensions></trkpt>
   <trkpt lat="59.3252942825" lon="34.6797477394"><ele>161.049</ele><time>2026-08-16T17:00:39.136Z</time><hdop>3.75</hdop><vdop>2.5</vdop><extensions><gom:speed>0.559</gom:speed></extensions></trkpt>
   <trkpt lat="59.3252933605" lon="34.6797550317"><ele>160.988</ele><time>2026-08-16T17:00:40.136Z</time><hdop>3.75</hdop><vdop>2.5</vdop><extensions><gom:speed>0.0</gom:speed></extensions></trkpt>
   <trkpt lat="59.3252934863" lon="34.6797565404"><ele>160.917</ele><time>2026-08-16T17:00:41.136Z</time><hdop>3.75</hdop><vdop>2.5</vdop><extensions><gom:speed>0.229</gom:speed></extensions></trkpt>
   <trkpt lat="59.3252936958" lon="34.679753523"><ele>160.858</ele><time>2026-08-16T17:00:42.136Z</time><hdop>3.75</hdop><vdop>2.5</vdop><extensions><gom:speed>0.0</gom:speed></extensions></trkpt>
   <trkpt lat="59.3252948693" lon="34.6797521819"><ele>160.805</ele><time>2026-08-16T17:00:43.136Z</time><hdop>3.75</hdop><vdop>2.5</vdop><extensions><gom:speed>0.159</gom:speed></extensions></trkpt>
   <trkpt lat="59.3253002756" lon="34.6797484938"><ele>160.725</ele><time>2026-08-16T17:00:44.136Z</time><hdop>3.75</hdop><vdop>2.5</vdop><extensions><gom:speed>0.629</gom:speed></extensions></trkpt>
   <trkpt lat="59.3253086994" lon="34.6797425427"><ele>160.669</ele><time>2026-08-16T17:00:45.135Z</time><hdop>3.75</hdop><vdop>2.5</vdop><extensions><gom:speed>0.929</gom:speed></extensions></trkpt>
   <trkpt lat="59.3253151954" lon="34.6797358371"><ele>160.616</ele><time>2026-08-16T17:00:46.136Z</time><hdop>3.75</hdop><vdop>2.5</vdop><extensions><gom:speed>0.639</gom:speed></extensions></trkpt>
   <trkpt lat="59.3253173747" lon="34.6797296345"><ele>160.603</ele><time>2026-08-16T17:00:47.136Z</time><hdop>3.75</hdop><vdop>2.5</vdop><extensions><gom:speed>0.0</gom:speed></extensions></trkpt>
   <trkpt lat="59.3253178776" lon="34.6797269523"><ele>160.624</ele><time>2026-08-16T17:00:48.136Z</time><hdop>3.75</hdop><vdop>2.5</vdop><extensions><gom:speed>0.0</gom:speed></extensions></trkpt>
   <trkpt lat="59.3253185901" lon="34.6797295507"><ele>160.613</ele><time>2026-08-16T17:00:49.136Z</time><hdop>3.75</hdop><vdop>2.5</vdop><extensions><gom:speed>0.399</gom:speed></extensions></trkpt>
   <trkpt lat="59.3253165784" lon="34.6797459792"><ele>160.61</ele><time>2026-08-16T17:00:50.136Z</time><hdop>3.75</hdop><vdop>2.5</vdop><extensions><gom:speed>0.929</gom:speed></extensions></trkpt>
   <trkpt lat="59.3253171651" lon="34.6797732204"><ele>160.529</ele><time>2026-08-16T17:00:51.136Z</time><hdop>3.75</hdop><vdop>2.5</vdop><extensions><gom:speed>1.659</gom:speed></extensions></trkpt>
   <trkpt lat="59.3253201826" lon="34.6798033953"><ele>160.506</ele><time>2026-08-16T17:00:52.136Z</time><hdop>3.75</hdop><vdop>2.5</vdop><extensions><gom:speed>1.739</gom:speed></extensions></trkpt>
   <trkpt lat="59.3253233677" lon="34.6798383478"><ele>160.449</ele><time>2026-08-16T17:00:53.136Z</time><hdop>3.75</hdop><vdop>2.5</vdop><extensions><gom:speed>2.139</gom:speed></extensions></trkpt>
   <trkpt lat="59.3253276844" lon="34.6798767369"><ele>160.422</ele><time>2026-08-16T17:00:54.136Z</time><hdop>3.75</hdop><vdop>2.5</vdop><extensions><gom:speed>2.309</gom:speed></extensions></trkpt>
   <trkpt lat="59.3253325878" lon="34.679916551"><ele>160.363</ele><time>2026-08-16T17:00:55.136Z</time><hdop>3.75</hdop><vdop>2.5</vdop><extensions><gom:speed>2.339</gom:speed></extensions></trkpt>
   <trkpt lat="59.3253375751" lon="34.6799585443"><ele>160.322</ele><time>2026-08-16T17:00:56.136Z</time><hdop>3.75</hdop><vdop>2.5</vdop><extensions><gom:speed>2.469</gom:speed></extensions></trkpt>
   <trkpt lat="59.3253425623" lon="34.6800023817"><ele>160.259</ele><time>2026-08-16T17:00:57.136Z</time><hdop>3.75</hdop><vdop>2.5</vdop><extensions><gom:speed>2.529</gom:speed></extensions></trkpt>
   <trkpt lat="59.3253488906" lon="34.6800481469"><ele>160.179</ele><time>2026-08-16T17:00:58.136Z</time><hdop>3.75</hdop><vdop>2.5</vdop><extensions><gom:speed>2.699</gom:speed></extensions></trkpt>
   <trkpt lat="59.32535568" lon="34.6800952532"><ele>160.12</ele><time>2026-08-16T17:00:59.136Z</time><hdop>3.75</hdop><vdop>2.5</vdop><extensions><gom:speed>2.729</gom:speed></extensions></trkpt>
   <trkpt lat="59.3253631818" lon="34.6801399287"><ele>160.035</ele><time>2026-08-16T17:01:00.136Z</time><hdop>3.75</hdop><vdop>2.5</vdop><extensions><gom:speed>2.619</gom:speed></extensions></trkpt>
   <trkpt lat="59.3253721923" lon="34.6801853586"><ele>159.945</ele><time>2026-08-16T17:01:01.136Z</time><hdop>3.75</hdop><vdop>2.5</vdop><extensions><gom:speed>2.809</gom:speed></extensions></trkpt>
   <trkpt lat="59.3253814962" lon="34.680229196"><ele>159.889</ele><time>2026-08-16T17:01:02.136Z</time><hdop>3.75</hdop><vdop>2.5</vdop><extensions><gom:speed>2.649</gom:speed></extensions></trkpt>
   <trkpt lat="59.3253913869" lon="34.6802716922"><ele>159.818</ele><time>2026-08-16T17:01:03.136Z</time><hdop>3.75</hdop><vdop>2.5</vdop><extensions><gom:speed>2.639</gom:speed></extensions></trkpt>
   <trkpt lat="59.3254024929" lon="34.6803156972"><ele>159.776</ele><time>2026-08-16T17:01:04.136Z</time><hdop>3.75</hdop><vdop>2.5</vdop><extensions><gom:speed>2.819</gom:speed></extensions></trkpt>
   <trkpt lat="59.3254139761" lon="34.6803598698"><ele>159.671</ele><time>2026-08-16T17:01:05.136Z</time><hdop>3.75</hdop><vdop>2.5</vdop><extensions><gom:speed>2.829</gom:speed></extensions></trkpt>
   <trkpt lat="59.3254261718" lon="34.6804041263"><ele>159.574</ele><time>2026-08-16T17:01:06.136Z</time><hdop>3.75</hdop><vdop>2.5</vdop><extensions><gom:speed>2.889</gom:speed></extensions></trkpt>
   <trkpt lat="59.3254389961" lon="34.6804501429"><ele>159.441</ele><time>2026-08-16T17:01:07.136Z</time><hdop>3.75</hdop><vdop>2.5</vdop><extensions><gom:speed>3.019</gom:speed></extensions></trkpt>
   <trkpt lat="59.3254528682" lon="34.6804993447"><ele>159.333</ele><time>2026-08-16T17:01:08.136Z</time><hdop>3.75</hdop><vdop>2.5</vdop><extensions><gom:speed>3.279</gom:speed></extensions></trkpt>
   <trkpt lat="59.3254673688" lon="34.6805496361"><ele>159.266</ele><time>2026-08-16T17:01:09.136Z</time><hdop>3.75</hdop><vdop>2.5</vdop><extensions><gom:speed>3.269</gom:speed></extensions></trkpt>
   <trkpt lat="59.3254828754" lon="34.6805986703"><ele>159.137</ele><time>2026-08-16T17:01:10.136Z</time><hdop>3.75</hdop><vdop>2.5</vdop><extensions><gom:speed>3.269</gom:speed></extensions></trkpt>
   <trkpt lat="59.3254989686" lon="34.6806467824"><ele>159.072</ele><time>2026-08-16T17:01:11.136Z</time><hdop>3.75</hdop><vdop>2.5</vdop><extensions><gom:speed>3.189</gom:speed></extensions></trkpt>
   <trkpt lat="59.325515481" lon="34.6806963194"><ele>159.061</ele><time>2026-08-16T17:01:12.136Z</time><hdop>3.75</hdop><vdop>2.5</vdop><extensions><gom:speed>3.329</gom:speed></extensions></trkpt>
   <trkpt lat="59.3255315742" lon="34.6807445992"><ele>159.03</ele><time>2026-08-16T17:01:13.136Z</time><hdop>3.75</hdop><vdop>2.5</vdop><extensions><gom:speed>3.199</gom:speed></extensions></trkpt>
   <trkpt lat="59.3255476675" lon="34.6807915379"><ele>158.94</ele><time>2026-08-16T17:01:14.136Z</time><hdop>3.75</hdop><vdop>2.5</vdop><extensions><gom:speed>3.169</gom:speed></extensions></trkpt>
   <trkpt lat="59.3255638865" lon="34.6808382251"><ele>158.888</ele><time>2026-08-16T17:01:15.136Z</time><hdop>3.75</hdop><vdop>2.5</vdop><extensions><gom:speed>3.159</gom:speed></extensions></trkpt>
   <trkpt lat="59.3255786805" lon="34.6808812242"><ele>158.797</ele><time>2026-08-16T17:01:16.136Z</time><hdop>3.75</hdop><vdop>2.5</vdop><extensions><gom:speed>2.799</gom:speed></extensions></trkpt>
   <trkpt lat="59.3255924688" lon="34.6809259836"><ele>158.702</ele><time>2026-08-16T17:01:17.136Z</time><hdop>3.75</hdop><vdop>2.5</vdop><extensions><gom:speed>2.939</gom:speed></extensions></trkpt>
   <trkpt lat="59.3256059636" lon="34.680972587"><ele>158.702</ele><time>2026-08-16T17:01:18.136Z</time><hdop>3.75</hdop><vdop>2.5</vdop><extensions><gom:speed>2.989</gom:speed></extensions></trkpt>
   <trkpt lat="59.3256197938" lon="34.6810172625"><ele>158.69</ele><time>2026-08-16T17:01:19.136Z</time><hdop>3.75</hdop><vdop>2.5</vdop><extensions><gom:speed>2.849</gom:speed></extensions></trkpt>
   <trkpt lat="59.3256336658" lon="34.6810609322"><ele>158.613</ele><time>2026-08-16T17:01:20.136Z</time><hdop>3.75</hdop><vdop>2.5</vdop><extensions><gom:speed>2.919</gom:speed></extensions></trkpt>
   <trkpt lat="59.3256491723" lon="34.6811061945"><ele>158.381</ele><time>2026-08-16T17:01:21.136Z</time><hdop>3.75</hdop><vdop>2.5</vdop><extensions><gom:speed>3.199</gom:speed></extensions></trkpt>
   <trkpt lat="59.3256637987" lon="34.6811534684"><ele>158.26</ele><time>2026-08-16T17:01:22.136Z</time><hdop>3.75</hdop><vdop>2.5</vdop><extensions><gom:speed>3.109</gom:speed></extensions></trkpt>
   <trkpt lat="59.3256780899" lon="34.6812009938"><ele>158.107</ele><time>2026-08-16T17:01:23.135Z</time><hdop>3.75</hdop><vdop>2.5</vdop><extensions><gom:speed>3.109</gom:speed></extensions></trkpt>
   <trkpt lat="59.3256921715" lon="34.6812483516"><ele>158.056</ele><time>2026-08-16T17:01:24.136Z</time><hdop>3.75</hdop><vdop>2.5</vdop><extensions><gom:speed>3.109</gom:speed></extensions></trkpt>
   <trkpt lat="59.3257026908" lon="34.6812955417"><ele>158.003</ele><time>2026-08-16T17:01:25.136Z</time><hdop>3.75</hdop><vdop>2.5</vdop><extensions><gom:speed>2.779</gom:speed></extensions></trkpt>
   <trkpt lat="59.3257114918" lon="34.6813423965"><ele>158.006</ele><time>2026-08-16T17:01:26.136Z</time><hdop>3.75</hdop><vdop>2.5</vdop><extensions><gom:speed>2.729</gom:speed></extensions></trkpt>
   <trkpt lat="59.325721592" lon="34.6813919336"><ele>158.039</ele><time>2026-08-16T17:01:27.136Z</time><hdop>3.75</hdop><vdop>2.5</vdop><extensions><gom:speed>3.159</gom:speed></extensions></trkpt>
   <trkpt lat="59.3257359669" lon="34.6814558875"><ele>158.058</ele><time>2026-08-16T17:01:28.136Z</time><hdop>3.75</hdop><vdop>2.5</vdop><extensions><gom:speed>4.369</gom:speed></extensions></trkpt>
   <trkpt lat="59.325749378" lon="34.6815263793"><ele>157.899</ele><time>2026-08-16T17:01:29.136Z</time><hdop>3.75</hdop><vdop>2.5</vdop><extensions><gom:speed>4.199</gom:speed></extensions></trkpt>
   <trkpt lat="59.3257571731" lon="34.6815879863"><ele>157.995</ele><time>2026-08-16T17:01:30.136Z</time><hdop>3.75</hdop><vdop>2.5</vdop><extensions><gom:speed>3.359</gom:speed></extensions></trkpt>
   <trkpt lat="59.3257653874" lon="34.6816466596"><ele>158.085</ele><time>2026-08-16T17:01:31.136Z</time><hdop>3.75</hdop><vdop>2.5</vdop><extensions><gom:speed>3.509</gom:speed></extensions></trkpt>
   <trkpt lat="59.3257759905" lon="34.6817026507"><ele>158.065</ele><time>2026-08-16T17:01:32.136Z</time><hdop>3.75</hdop><vdop>2.5</vdop><extensions><gom:speed>3.329</gom:speed></extensions></trkpt>
   <trkpt lat="59.3257860907" lon="34.6817603182"><ele>158.111</ele><time>2026-08-16T17:01:33.136Z</time><hdop>3.75</hdop><vdop>2.5</vdop><extensions><gom:speed>3.559</gom:speed></extensions></trkpt>
   <trkpt lat="59.3257916647" lon="34.6818237692"><ele>158.19</ele><time>2026-08-16T17:01:34.136Z</time><hdop>3.75</hdop><vdop>2.5</vdop><extensions><gom:speed>3.729</gom:speed></extensions></trkpt>
   <trkpt lat="59.3257944726" lon="34.6818843704"><ele>158.366</ele><time>2026-08-16T17:01:35.136Z</time><hdop>3.75</hdop><vdop>2.5</vdop><extensions><gom:speed>3.289</gom:speed></extensions></trkpt>
   <trkpt lat="59.3257986636" lon="34.6819455583"><ele>158.564</ele><time>2026-08-16T17:01:36.136Z</time><hdop>3.75</hdop><vdop>2.5</vdop><extensions><gom:speed>3.549</gom:speed></extensions></trkpt>
   <trkpt lat="59.3258043633" lon="34.682013787"><ele>158.682</ele><time>2026-08-16T17:01:37.136Z</time><hdop>3.75</hdop><vdop>2.5</vdop><extensions><gom:speed>4.059</gom:speed></extensions></trkpt>
   <trkpt lat="59.3258114879" lon="34.6820831891"><ele>158.722</ele><time>2026-08-16T17:01:38.136Z</time><hdop>3.75</hdop><vdop>2.5</vdop><extensions><gom:speed>4.059</gom:speed></extensions></trkpt>
   <trkpt lat="59.3258217976" lon="34.682142533"><ele>158.792</ele><time>2026-08-16T17:01:39.136Z</time><hdop>3.75</hdop><vdop>2.5</vdop><extensions><gom:speed>3.389</gom:speed></extensions></trkpt>
   <trkpt lat="59.3258346638" lon="34.6822035533"><ele>158.845</ele><time>2026-08-16T17:01:40.136Z</time><hdop>3.75</hdop><vdop>2.5</vdop><extensions><gom:speed>3.979</gom:speed></extensions></trkpt>
   <trkpt lat="59.3258481587" lon="34.6822653279"><ele>158.844</ele><time>2026-08-16T17:01:41.136Z</time><hdop>3.75</hdop><vdop>2.5</vdop><extensions><gom:speed>3.739</gom:speed></extensions></trkpt>
   <trkpt lat="59.3258583846" lon="34.6823131886"><ele>158.841</ele><time>2026-08-16T17:01:42.136Z</time><hdop>3.75</hdop><vdop>2.5</vdop><extensions><gom:speed>2.569</gom:speed></extensions></trkpt>
   <trkpt lat="59.3258665989" lon="34.6823549304"><ele>158.833</ele><time>2026-08-16T17:01:43.136Z</time><hdop>3.75</hdop><vdop>2.5</vdop><extensions><gom:speed>2.429</gom:speed></extensions></trkpt>
   <trkpt lat="59.3258756933" lon="34.682397762"><ele>158.799</ele><time>2026-08-16T17:01:44.136Z</time><hdop>3.75</hdop><vdop>2.5</vdop><extensions><gom:speed>2.669</gom:speed></extensions></trkpt>
   <trkpt lat="59.3258871765" lon="34.6824379951"><ele>158.706</ele><time>2026-08-16T17:01:45.136Z</time><hdop>3.75</hdop><vdop>2.5</vdop><extensions><gom:speed>2.599</gom:speed></extensions></trkpt>
   <trkpt lat="59.3259013838" lon="34.6824748755"><ele>158.607</ele><time>2026-08-16T17:01:46.136Z</time><hdop>3.75</hdop><vdop>2.5</vdop><extensions><gom:speed>2.549</gom:speed></extensions></trkpt>
   <trkpt lat="59.3259132861" lon="34.6825076487"><ele>158.583</ele><time>2026-08-16T17:01:47.136Z</time><hdop>3.75</hdop><vdop>2.5</vdop><extensions><gom:speed>2.109</gom:speed></extensions></trkpt>
   <trkpt lat="59.3259236797" lon="34.6825418469"><ele>158.529</ele><time>2026-08-16T17:01:48.136Z</time><hdop>3.75</hdop><vdop>2.5</vdop><extensions><gom:speed>2.289</gom:speed></extensions></trkpt>
   <trkpt lat="59.3259344923" lon="34.6825803198"><ele>158.451</ele><time>2026-08-16T17:01:49.136Z</time><hdop>3.75</hdop><vdop>2.5</vdop><extensions><gom:speed>2.559</gom:speed></extensions></trkpt>
   <trkpt lat="59.3259449697" lon="34.68262005"><ele>158.425</ele><time>2026-08-16T17:01:50.136Z</time><hdop>3.75</hdop><vdop>2.5</vdop><extensions><gom:speed>2.529</gom:speed></extensions></trkpt>
   <trkpt lat="59.3259563691" lon="34.6826641388"><ele>158.404</ele><time>2026-08-16T17:01:51.136Z</time><hdop>3.75</hdop><vdop>2.5</vdop><extensions><gom:speed>2.889</gom:speed></extensions></trkpt>
   <trkpt lat="59.3259672656" lon="34.6827091497"><ele>158.384</ele><time>2026-08-16T17:01:52.136Z</time><hdop>3.75</hdop><vdop>2.5</vdop><extensions><gom:speed>2.789</gom:speed></extensions></trkpt>
   <trkpt lat="59.3259776591" lon="34.6827521488"><ele>158.388</ele><time>2026-08-16T17:01:53.136Z</time><hdop>3.75</hdop><vdop>2.5</vdop><extensions><gom:speed>2.649</gom:speed></extensions></trkpt>
   <trkpt lat="59.3259860829" lon="34.6827958185"><ele>158.296</ele><time>2026-08-16T17:01:54.136Z</time><hdop>3.75</hdop><vdop>2.5</vdop><extensions><gom:speed>2.669</gom:speed></extensions></trkpt>
   <trkpt lat="59.3259933752" lon="34.682840075"><ele>158.203</ele><time>2026-08-16T17:01:55.136Z</time><hdop>3.75</hdop><vdop>2.5</vdop><extensions><gom:speed>2.639</gom:speed></extensions></trkpt>
   <trkpt lat="59.3260012961" lon="34.6828871813"><ele>158.155</ele><time>2026-08-16T17:01:56.136Z</time><hdop>3.75</hdop><vdop>2.5</vdop><extensions><gom:speed>2.909</gom:speed></extensions></trkpt>
   <trkpt lat="59.3260088817" lon="34.6829311863"><ele>158.048</ele><time>2026-08-16T17:01:57.135Z</time><hdop>3.75</hdop><vdop>2.5</vdop><extensions><gom:speed>2.499</gom:speed></extensions></trkpt>
   <trkpt lat="59.3260143718" lon="34.6829742693"><ele>157.88</ele><time>2026-08-16T17:01:58.136Z</time><hdop>3.75</hdop><vdop>2.5</vdop><extensions><gom:speed>2.549</gom:speed></extensions></trkpt>
   <trkpt lat="59.326017096" lon="34.6830195315"><ele>157.774</ele><time>2026-08-16T17:01:59.136Z</time><hdop>3.75</hdop><vdop>2.5</vdop><extensions><gom:speed>2.569</gom:speed></extensions></trkpt>
   <trkpt lat="59.3260162997" lon="34.6830641233"><ele>157.755</ele><time>2026-08-16T17:02:00.136Z</time><hdop>3.75</hdop><vdop>2.5</vdop><extensions><gom:speed>2.449</gom:speed></extensions></trkpt>
   <trkpt lat="59.3260097618" lon="34.6831057813"><ele>157.594</ele><time>2026-08-16T17:02:01.136Z</time><hdop>3.75</hdop><vdop>2.5</vdop><extensions><gom:speed>2.509</gom:speed></extensions></trkpt>
   <trkpt lat="59.326000877" lon="34.6831377164"><ele>157.571</ele><time>2026-08-16T17:02:02.136Z</time><hdop>3.75</hdop><vdop>2.5</vdop><extensions><gom:speed>1.809</gom:speed></extensions></trkpt>
   <trkpt lat="59.3259921598" lon="34.6831704896"><ele>157.558</ele><time>2026-08-16T17:02:03.136Z</time><hdop>3.75</hdop><vdop>2.5</vdop><extensions><gom:speed>2.129</gom:speed></extensions></trkpt>
   <trkpt lat="59.3259840713" lon="34.6832053583"><ele>157.565</ele><time>2026-08-16T17:02:04.136Z</time><hdop>3.75</hdop><vdop>2.5</vdop><extensions><gom:speed>2.109</gom:speed></extensions></trkpt>
   <trkpt lat="59.3259806766" lon="34.68324534"><ele>157.579</ele><time>2026-08-16T17:02:05.136Z</time><hdop>3.75</hdop><vdop>2.5</vdop><extensions><gom:speed>2.369</gom:speed></extensions></trkpt>
   <trkpt lat="59.3259820596" lon="34.6832916919"><ele>157.565</ele><time>2026-08-16T17:02:06.136Z</time><hdop>3.75</hdop><vdop>2.5</vdop><extensions><gom:speed>2.809</gom:speed></extensions></trkpt>
   <trkpt lat="59.3259849933" lon="34.6833424863"><ele>157.574</ele><time>2026-08-16T17:02:07.136Z</time><hdop>3.75</hdop><vdop>2.5</vdop><extensions><gom:speed>2.989</gom:speed></extensions></trkpt>
   <trkpt lat="59.3259890585" lon="34.6833922748"><ele>157.609</ele><time>2026-08-16T17:02:08.136Z</time><hdop>3.75</hdop><vdop>2.5</vdop><extensions><gom:speed>2.859</gom:speed></extensions></trkpt>
   <trkpt lat="59.3259925789" lon="34.6834379561"><ele>157.636</ele><time>2026-08-16T17:02:09.136Z</time><hdop>3.75</hdop><vdop>2.5</vdop><extensions><gom:speed>2.539</gom:speed></extensions></trkpt>
   <trkpt lat="59.3259954707" lon="34.6834859844"><ele>157.687</ele><time>2026-08-16T17:02:10.136Z</time><hdop>3.75</hdop><vdop>2.5</vdop><extensions><gom:speed>2.799</gom:speed></extensions></trkpt>
   <trkpt lat="59.3259997873" lon="34.6835353539"><ele>157.706</ele><time>2026-08-16T17:02:11.136Z</time><hdop>3.75</hdop><vdop>2.5</vdop><extensions><gom:speed>2.859</gom:speed></extensions></trkpt>
   <trkpt lat="59.3260083788" lon="34.6835821249"><ele>157.722</ele><time>2026-08-16T17:02:12.136Z</time><hdop>3.75</hdop><vdop>2.5</vdop><extensions><gom:speed>2.849</gom:speed></extensions></trkpt>
   <trkpt lat="59.3260187723" lon="34.6836252917"><ele>157.86</ele><time>2026-08-16T17:02:13.135Z</time><hdop>3.75</hdop><vdop>2.5</vdop><extensions><gom:speed>2.629</gom:speed></extensions></trkpt>
   <trkpt lat="59.326028663" lon="34.6836707216"><ele>158.036</ele><time>2026-08-16T17:02:14.136Z</time><hdop>3.75</hdop><vdop>2.5</vdop><extensions><gom:speed>2.849</gom:speed></extensions></trkpt>
   <trkpt lat="59.3260379669" lon="34.6837162353"><ele>158.16</ele><time>2026-08-16T17:02:15.136Z</time><hdop>3.75</hdop><vdop>2.5</vdop><extensions><gom:speed>2.759</gom:speed></extensions></trkpt>
   <trkpt lat="59.3260458878" lon="34.6837594859"><ele>158.333</ele><time>2026-08-16T17:02:16.135Z</time><hdop>3.75</hdop><vdop>2.5</vdop><extensions><gom:speed>2.529</gom:speed></extensions></trkpt>
   <trkpt lat="59.3260533896" lon="34.6838013955"><ele>158.577</ele><time>2026-08-16T17:02:17.136Z</time><hdop>3.75</hdop><vdop>2.5</vdop><extensions><gom:speed>2.459</gom:speed></extensions></trkpt>
   <trkpt lat="59.3260602628" lon="34.6838441432"><ele>158.738</ele><time>2026-08-16T17:02:18.136Z</time><hdop>3.75</hdop><vdop>2.5</vdop><extensions><gom:speed>2.539</gom:speed></extensions></trkpt>
   <trkpt lat="59.3260662977" lon="34.6838876452"><ele>158.901</ele><time>2026-08-16T17:02:19.136Z</time><hdop>3.75</hdop><vdop>2.5</vdop><extensions><gom:speed>2.549</gom:speed></extensions></trkpt>
   <trkpt lat="59.3260694829" lon="34.6839356736"><ele>159.077</ele><time>2026-08-16T17:02:20.136Z</time><hdop>3.75</hdop><vdop>2.5</vdop><extensions><gom:speed>2.819</gom:speed></extensions></trkpt>
   <trkpt lat="59.3260701953" lon="34.6839872223"><ele>159.329</ele><time>2026-08-16T17:02:21.135Z</time><hdop>3.75</hdop><vdop>2.5</vdop><extensions><gom:speed>2.979</gom:speed></extensions></trkpt>
   <trkpt lat="59.3260707821" lon="34.6840409503"><ele>159.396</ele><time>2026-08-16T17:02:22.136Z</time><hdop>3.75</hdop><vdop>2.5</vdop><extensions><gom:speed>3.119</gom:speed></extensions></trkpt>
   <trkpt lat="59.3260743863" lon="34.6840945944"><ele>159.445</ele><time>2026-08-16T17:02:23.136Z</time><hdop>3.75</hdop><vdop>2.5</vdop><extensions><gom:speed>3.069</gom:speed></extensions></trkpt>
   <trkpt lat="59.3260794992" lon="34.6841454726"><ele>159.508</ele><time>2026-08-16T17:02:24.136Z</time><hdop>3.75</hdop><vdop>2.5</vdop><extensions><gom:speed>2.909</gom:speed></extensions></trkpt>
   <trkpt lat="59.3260858695" lon="34.6841983624"><ele>159.706</ele><time>2026-08-16T17:02:25.136Z</time><hdop>3.75</hdop><vdop>2.5</vdop><extensions><gom:speed>3.119</gom:speed></extensions></trkpt>
   <trkpt lat="59.3260930779" lon="34.6842505817"><ele>159.863</ele><time>2026-08-16T17:02:26.136Z</time><hdop>3.75</hdop><vdop>2.5</vdop><extensions><gom:speed>2.989</gom:speed></extensions></trkpt>
   <trkpt lat="59.3261017951" lon="34.6843029685"><ele>159.983</ele><time>2026-08-16T17:02:27.136Z</time><hdop>3.75</hdop><vdop>2.5</vdop><extensions><gom:speed>3.109</gom:speed></extensions></trkpt>
   <trkpt lat="59.32611156" lon="34.6843564451"><ele>160.043</ele><time>2026-08-16T17:02:28.136Z</time><hdop>3.75</hdop><vdop>2.5</vdop><extensions><gom:speed>3.259</gom:speed></extensions></trkpt>
   <trkpt lat="59.3261222889" lon="34.6844103407"><ele>160.022</ele><time>2026-08-16T17:02:29.136Z</time><hdop>3.75</hdop><vdop>2.5</vdop><extensions><gom:speed>3.279</gom:speed></extensions></trkpt>
   <trkpt lat="59.3261344845" lon="34.6844636496"><ele>159.944</ele><time>2026-08-16T17:02:30.135Z</time><hdop>3.75</hdop><vdop>2.5</vdop><extensions><gom:speed>3.339</gom:speed></extensions></trkpt>
   <trkpt lat="59.3261469736" lon="34.6845171262"><ele>159.881</ele><time>2026-08-16T17:02:31.135Z</time><hdop>3.75</hdop><vdop>2.5</vdop><extensions><gom:speed>3.369</gom:speed></extensions></trkpt>
   <trkpt lat="59.3261584987" lon="34.6845692616"><ele>159.77</ele><time>2026-08-16T17:02:32.136Z</time><hdop>3.75</hdop><vdop>2.5</vdop><extensions><gom:speed>3.189</gom:speed></extensions></trkpt>
   <trkpt lat="59.3261718678" lon="34.6846182957"><ele>159.667</ele><time>2026-08-16T17:02:33.136Z</time><hdop>3.75</hdop><vdop>2.5</vdop><extensions><gom:speed>3.129</gom:speed></extensions></trkpt>
   <trkpt lat="59.326186159" lon="34.6846662402"><ele>159.613</ele><time>2026-08-16T17:02:34.136Z</time><hdop>3.75</hdop><vdop>2.5</vdop><extensions><gom:speed>3.149</gom:speed></extensions></trkpt>
   <trkpt lat="59.3261994862" lon="34.6847106643"><ele>159.547</ele><time>2026-08-16T17:02:35.136Z</time><hdop>3.75</hdop><vdop>2.5</vdop><extensions><gom:speed>2.759</gom:speed></extensions></trkpt>
   <trkpt lat="59.3262147832" lon="34.6847496402"><ele>159.494</ele><time>2026-08-16T17:02:36.136Z</time><hdop>3.75</hdop><vdop>2.5</vdop><extensions><gom:speed>2.719</gom:speed></extensions></trkpt>
   <trkpt lat="59.3262293677" lon="34.6847881969"><ele>159.443</ele><time>2026-08-16T17:02:37.136Z</time><hdop>3.75</hdop><vdop>2.5</vdop><extensions><gom:speed>2.669</gom:speed></extensions></trkpt>
   <trkpt lat="59.326244497" lon="34.6848312799"><ele>159.503</ele><time>2026-08-16T17:02:38.136Z</time><hdop>3.75</hdop><vdop>2.5</vdop><extensions><gom:speed>3.009</gom:speed></extensions></trkpt>
   <trkpt lat="59.3262615961" lon="34.6848726865"><ele>159.601</ele><time>2026-08-16T17:02:39.136Z</time><hdop>3.75</hdop><vdop>2.5</vdop><extensions><gom:speed>3.009</gom:speed></extensions></trkpt>
   <trkpt lat="59.3262798686" lon="34.6849139255"><ele>159.738</ele><time>2026-08-16T17:02:40.136Z</time><hdop>3.75</hdop><vdop>2.5</vdop><extensions><gom:speed>3.079</gom:speed></extensions></trkpt>
   <trkpt lat="59.3262978897" lon="34.6849554997"><ele>159.796</ele><time>2026-08-16T17:02:41.135Z</time><hdop>3.75</hdop><vdop>2.5</vdop><extensions><gom:speed>3.019</gom:speed></extensions></trkpt>
   <trkpt lat="59.3263163718" lon="34.6849972416"><ele>159.746</ele><time>2026-08-16T17:02:42.136Z</time><hdop>3.75</hdop><vdop>2.5</vdop><extensions><gom:speed>3.149</gom:speed></extensions></trkpt>
   <trkpt lat="59.3263342672" lon="34.6850433421"><ele>159.729</ele><time>2026-08-16T17:02:43.136Z</time><hdop>3.75</hdop><vdop>2.5</vdop><extensions><gom:speed>3.309</gom:speed></extensions></trkpt>
   <trkpt lat="59.3263502766" lon="34.6850930467"><ele>159.704</ele><time>2026-08-16T17:02:44.136Z</time><hdop>3.75</hdop><vdop>2.5</vdop><extensions><gom:speed>3.309</gom:speed></extensions></trkpt>
   <trkpt lat="59.3263649869" lon="34.6851448469"><ele>159.61</ele><time>2026-08-16T17:02:45.136Z</time><hdop>3.75</hdop><vdop>2.5</vdop><extensions><gom:speed>3.389</gom:speed></extensions></trkpt>
   <trkpt lat="59.3263780626" lon="34.6851940487"><ele>159.489</ele><time>2026-08-16T17:02:46.136Z</time><hdop>3.75</hdop><vdop>2.5</vdop><extensions><gom:speed>3.029</gom:speed></extensions></trkpt>
   <trkpt lat="59.3263911803" lon="34.6852423284"><ele>159.436</ele><time>2026-08-16T17:02:47.136Z</time><hdop>3.75</hdop><vdop>2.5</vdop><extensions><gom:speed>3.129</gom:speed></extensions></trkpt>
   <trkpt lat="59.3264029988" lon="34.6852952182"><ele>159.342</ele><time>2026-08-16T17:02:48.136Z</time><hdop>3.75</hdop><vdop>2.5</vdop><extensions><gom:speed>3.299</gom:speed></extensions></trkpt>
   <trkpt lat="59.3264169966" lon="34.6853449229"><ele>159.401</ele><time>2026-08-16T17:02:49.135Z</time><hdop>3.75</hdop><vdop>2.5</vdop><extensions><gom:speed>3.149</gom:speed></extensions></trkpt>
   <trkpt lat="59.3264344728" lon="34.6853912749"><ele>159.423</ele><time>2026-08-16T17:02:50.136Z</time><hdop>3.75</hdop><vdop>2.5</vdop><extensions><gom:speed>3.249</gom:speed></extensions></trkpt>
   <trkpt lat="59.3264512786" lon="34.6854348608"><ele>159.567</ele><time>2026-08-16T17:02:51.136Z</time><hdop>3.75</hdop><vdop>2.5</vdop><extensions><gom:speed>2.979</gom:speed></extensions></trkpt>
   <trkpt lat="59.3264682938" lon="34.6854816318"><ele>159.668</ele><time>2026-08-16T17:02:52.136Z</time><hdop>3.75</hdop><vdop>2.5</vdop><extensions><gom:speed>3.329</gom:speed></extensions></trkpt>
   <trkpt lat="59.3264877817" lon="34.6855255529"><ele>159.652</ele><time>2026-08-16T17:02:53.136Z</time><hdop>3.75</hdop><vdop>2.5</vdop><extensions><gom:speed>3.289</gom:speed></extensions></trkpt>
   <trkpt lat="59.3265087784" lon="34.6855686359"><ele>159.483</ele><time>2026-08-16T17:02:54.136Z</time><hdop>3.75</hdop><vdop>2.5</vdop><extensions><gom:speed>3.359</gom:speed></extensions></trkpt>
   <trkpt lat="59.3265267995" lon="34.6856156584"><ele>159.366</ele><time>2026-08-16T17:02:55.136Z</time><hdop>3.75</hdop><vdop>2.5</vdop><extensions><gom:speed>3.349</gom:speed></extensions></trkpt>
   <trkpt lat="59.3265432699" lon="34.685664022"><ele>159.163</ele><time>2026-08-16T17:02:56.136Z</time><hdop>3.75</hdop><vdop>2.5</vdop><extensions><gom:speed>3.269</gom:speed></extensions></trkpt>
   <trkpt lat="59.3265593632" lon="34.6857118827"><ele>159.017</ele><time>2026-08-16T17:02:57.136Z</time><hdop>3.75</hdop><vdop>2.5</vdop><extensions><gom:speed>3.209</gom:speed></extensions></trkpt>
   <trkpt lat="59.3265747859" lon="34.6857587375"><ele>158.907</ele><time>2026-08-16T17:02:58.136Z</time><hdop>3.75</hdop><vdop>2.5</vdop><extensions><gom:speed>3.099</gom:speed></extensions></trkpt>
   <trkpt lat="59.3265884903" lon="34.6858038321"><ele>158.813</ele><time>2026-08-16T17:02:59.136Z</time><hdop>3.75</hdop><vdop>2.5</vdop><extensions><gom:speed>2.869</gom:speed></extensions></trkpt>
   <trkpt lat="59.3266017756" lon="34.6858454902"><ele>158.655</ele><time>2026-08-16T17:03:00.136Z</time><hdop>3.75</hdop><vdop>2.5</vdop><extensions><gom:speed>2.749</gom:speed></extensions></trkpt>
   <trkpt lat="59.3266147676" lon="34.6858832926"><ele>158.488</ele><time>2026-08-16T17:03:01.136Z</time><hdop>3.75</hdop><vdop>2.5</vdop><extensions><gom:speed>2.549</gom:speed></extensions></trkpt>
   <trkpt lat="59.3266269632" lon="34.6859214302"><ele>158.374</ele><time>2026-08-16T17:03:02.136Z</time><hdop>3.75</hdop><vdop>2.5</vdop><extensions><gom:speed>2.509</gom:speed></extensions></trkpt>
   <trkpt lat="59.3266388655" lon="34.6859532815"><ele>158.333</ele><time>2026-08-16T17:03:03.136Z</time><hdop>3.75</hdop><vdop>2.5</vdop><extensions><gom:speed>2.059</gom:speed></extensions></trkpt>
   <trkpt lat="59.3266487981" lon="34.685982199"><ele>158.331</ele><time>2026-08-16T17:03:04.136Z</time><hdop>3.75</hdop><vdop>2.5</vdop><extensions><gom:speed>1.829</gom:speed></extensions></trkpt>
   <trkpt lat="59.3266574734" lon="34.6860096917"><ele>158.276</ele><time>2026-08-16T17:03:05.136Z</time><hdop>3.75</hdop><vdop>2.5</vdop><extensions><gom:speed>1.789</gom:speed></extensions></trkpt>
   <trkpt lat="59.3266668611" lon="34.6860380225"><ele>158.257</ele><time>2026-08-16T17:03:06.136Z</time><hdop>3.75</hdop><vdop>2.5</vdop><extensions><gom:speed>1.949</gom:speed></extensions></trkpt>
   <trkpt lat="59.3266744886" lon="34.6860676944"><ele>158.186</ele><time>2026-08-16T17:03:07.136Z</time><hdop>3.75</hdop><vdop>2.5</vdop><extensions><gom:speed>1.839</gom:speed></extensions></trkpt>
   <trkpt lat="59.3266795597" lon="34.6860971987"><ele>158.008</ele><time>2026-08-16T17:03:08.136Z</time><hdop>3.75</hdop><vdop>2.5</vdop><extensions><gom:speed>1.799</gom:speed></extensions></trkpt>
   <trkpt lat="59.3266852594" lon="34.6861279603"><ele>157.896</ele><time>2026-08-16T17:03:09.136Z</time><hdop>3.75</hdop><vdop>2.5</vdop><extensions><gom:speed>1.839</gom:speed></extensions></trkpt>
   <trkpt lat="59.3266927612" lon="34.6861590572"><ele>157.751</ele><time>2026-08-16T17:03:10.136Z</time><hdop>3.75</hdop><vdop>2.5</vdop><extensions><gom:speed>1.989</gom:speed></extensions></trkpt>
   <trkpt lat="59.3266983771" lon="34.6861848734"><ele>157.655</ele><time>2026-08-16T17:03:11.136Z</time><hdop>3.75</hdop><vdop>2.5</vdop><extensions><gom:speed>1.339</gom:speed></extensions></trkpt>
  </trkseg>
 </trk>
</gpx>